<?xml version="1.0" encoding="utf-8" standalone="yes"?>
<gpx version="1.1" creator="Locus Map, Android"
 xmlns="http://www.topografix.com/GPX/1/1"
 xmlns:xsi="http://www.w3.org/2001/XMLSchema-instance"
 xsi:schemaLocation="http://www.topografix.com/GPX/1/1 http://www.topografix.com/GPX/1/1/gpx.xsd"
 xmlns:gpxx="http://www.garmin.com/xmlschemas/GpxExtensions/v3"
 xmlns:gpxtrkx="http://www.garmin.com/xmlschemas/TrackStatsExtension/v1"
 xmlns:gpxtpx="http://www.garmin.com/xmlschemas/TrackPointExtension/v2"
 xmlns:locus="http://www.locusmap.eu">
	<metadata>
		<desc>File with points/tracks from Locus Map Classic/3.69.2</desc>
		<time>2023-08-20T16:58:12.176Z</time>
	</metadata>
<trk>
<name>Rifugio Lissone - Rifugio Gnutti</name>
	<extensions>
		<line xmlns="http://www.topografix.com/GPX/gpx_style/0/2">
			<color>0000FF</color>
			<opacity>0.59</opacity>
			<width>6.0</width>
			<extensions>
				<locus:lsColorBase>#960000FF</locus:lsColorBase>
				<locus:lsWidth>6.0</locus:lsWidth>
				<locus:lsUnits>PIXELS</locus:lsUnits>
			</extensions>
		</line>
	</extensions>
<trkseg>
<trkpt lat="46.0832860" lon="10.4966690">
	<ele>2014.20</ele>
	<time>2023-08-07T04:25:24.000Z</time>
</trkpt>
<trkpt lat="46.0832820" lon="10.4966550">
	<ele>2014.20</ele>
	<time>2023-08-07T04:25:25.000Z</time>
</trkpt>
<trkpt lat="46.0832840" lon="10.4966540">
	<ele>2014.20</ele>
	<time>2023-08-07T04:25:26.000Z</time>
</trkpt>
<trkpt lat="46.0832810" lon="10.4966480">
	<ele>2014.20</ele>
	<time>2023-08-07T04:25:27.000Z</time>
</trkpt>
<trkpt lat="46.0832800" lon="10.4966450">
	<ele>2014.20</ele>
	<time>2023-08-07T04:25:28.000Z</time>
</trkpt>
<trkpt lat="46.0832800" lon="10.4966400">
	<ele>2014.20</ele>
	<time>2023-08-07T04:25:29.000Z</time>
</trkpt>
<trkpt lat="46.0832840" lon="10.4966290">
	<ele>2014.20</ele>
	<time>2023-08-07T04:25:30.000Z</time>
</trkpt>
<trkpt lat="46.0832900" lon="10.4966240">
	<ele>2014.20</ele>
	<time>2023-08-07T04:25:31.000Z</time>
</trkpt>
<trkpt lat="46.0832960" lon="10.4966050">
	<ele>2014.20</ele>
	<time>2023-08-07T04:25:32.000Z</time>
</trkpt>
<trkpt lat="46.0833030" lon="10.4965870">
	<ele>2014.20</ele>
	<time>2023-08-07T04:25:33.000Z</time>
</trkpt>
<trkpt lat="46.0833090" lon="10.4965790">
	<ele>2014.20</ele>
	<time>2023-08-07T04:25:34.000Z</time>
</trkpt>
<trkpt lat="46.0833140" lon="10.4965760">
	<ele>2014.20</ele>
	<time>2023-08-07T04:25:35.000Z</time>
</trkpt>
<trkpt lat="46.0833210" lon="10.4965660">
	<ele>2014.20</ele>
	<time>2023-08-07T04:25:36.000Z</time>
</trkpt>
<trkpt lat="46.0833270" lon="10.4965530">
	<ele>2014.20</ele>
	<time>2023-08-07T04:25:37.000Z</time>
</trkpt>
<trkpt lat="46.0833300" lon="10.4965420">
	<ele>2014.20</ele>
	<time>2023-08-07T04:25:38.000Z</time>
</trkpt>
<trkpt lat="46.0833360" lon="10.4965290">
	<ele>2014.20</ele>
	<time>2023-08-07T04:25:39.000Z</time>
</trkpt>
<trkpt lat="46.0833430" lon="10.4965170">
	<ele>2014.20</ele>
	<time>2023-08-07T04:25:40.000Z</time>
</trkpt>
<trkpt lat="46.0833490" lon="10.4965070">
	<ele>2014.20</ele>
	<time>2023-08-07T04:25:41.000Z</time>
</trkpt>
<trkpt lat="46.0833560" lon="10.4964980">
	<ele>2014.20</ele>
	<time>2023-08-07T04:25:42.000Z</time>
</trkpt>
<trkpt lat="46.0833630" lon="10.4964930">
	<ele>2014.20</ele>
	<time>2023-08-07T04:25:43.000Z</time>
</trkpt>
<trkpt lat="46.0833690" lon="10.4964900">
	<ele>2014.20</ele>
	<time>2023-08-07T04:25:44.000Z</time>
</trkpt>
<trkpt lat="46.0833760" lon="10.4964820">
	<ele>2014.20</ele>
	<time>2023-08-07T04:25:45.000Z</time>
</trkpt>
<trkpt lat="46.0833820" lon="10.4964700">
	<ele>2014.20</ele>
	<time>2023-08-07T04:25:46.000Z</time>
</trkpt>
<trkpt lat="46.0833890" lon="10.4964640">
	<ele>2014.20</ele>
	<time>2023-08-07T04:25:47.000Z</time>
</trkpt>
<trkpt lat="46.0833950" lon="10.4964650">
	<ele>2014.20</ele>
	<time>2023-08-07T04:25:48.000Z</time>
</trkpt>
<trkpt lat="46.0834010" lon="10.4964690">
	<ele>2014.20</ele>
	<time>2023-08-07T04:25:49.000Z</time>
</trkpt>
<trkpt lat="46.0834060" lon="10.4964770">
	<ele>2014.20</ele>
	<time>2023-08-07T04:25:50.000Z</time>
</trkpt>
<trkpt lat="46.0834180" lon="10.4964790">
	<ele>2014.20</ele>
	<time>2023-08-07T04:25:51.000Z</time>
</trkpt>
<trkpt lat="46.0834260" lon="10.4964810">
	<ele>2014.20</ele>
	<time>2023-08-07T04:25:52.000Z</time>
</trkpt>
<trkpt lat="46.0834350" lon="10.4964810">
	<ele>2013.00</ele>
	<time>2023-08-07T04:25:53.000Z</time>
</trkpt>
<trkpt lat="46.0834420" lon="10.4964810">
	<ele>2012.40</ele>
	<time>2023-08-07T04:25:54.000Z</time>
</trkpt>
<trkpt lat="46.0834490" lon="10.4964880">
	<ele>2012.00</ele>
	<time>2023-08-07T04:25:55.000Z</time>
</trkpt>
<trkpt lat="46.0834580" lon="10.4964930">
	<ele>2011.60</ele>
	<time>2023-08-07T04:25:56.000Z</time>
</trkpt>
<trkpt lat="46.0834680" lon="10.4964910">
	<ele>2011.40</ele>
	<time>2023-08-07T04:25:57.000Z</time>
</trkpt>
<trkpt lat="46.0834770" lon="10.4964870">
	<ele>2011.40</ele>
	<time>2023-08-07T04:25:58.000Z</time>
</trkpt>
<trkpt lat="46.0834860" lon="10.4964890">
	<ele>2011.00</ele>
	<time>2023-08-07T04:25:59.000Z</time>
</trkpt>
<trkpt lat="46.0834960" lon="10.4964950">
	<ele>2010.80</ele>
	<time>2023-08-07T04:26:00.000Z</time>
</trkpt>
<trkpt lat="46.0835060" lon="10.4965050">
	<ele>2010.60</ele>
	<time>2023-08-07T04:26:01.000Z</time>
</trkpt>
<trkpt lat="46.0835180" lon="10.4965100">
	<ele>2010.60</ele>
	<time>2023-08-07T04:26:02.000Z</time>
</trkpt>
<trkpt lat="46.0835280" lon="10.4965170">
	<ele>2010.40</ele>
	<time>2023-08-07T04:26:03.000Z</time>
</trkpt>
<trkpt lat="46.0835350" lon="10.4965250">
	<ele>2010.40</ele>
	<time>2023-08-07T04:26:04.000Z</time>
</trkpt>
<trkpt lat="46.0835420" lon="10.4965360">
	<ele>2010.20</ele>
	<time>2023-08-07T04:26:05.000Z</time>
</trkpt>
<trkpt lat="46.0835490" lon="10.4965480">
	<ele>2010.20</ele>
	<time>2023-08-07T04:26:06.000Z</time>
</trkpt>
<trkpt lat="46.0835580" lon="10.4965610">
	<ele>2010.20</ele>
	<time>2023-08-07T04:26:07.000Z</time>
</trkpt>
<trkpt lat="46.0835660" lon="10.4965730">
	<ele>2010.00</ele>
	<time>2023-08-07T04:26:08.000Z</time>
</trkpt>
<trkpt lat="46.0835770" lon="10.4965850">
	<ele>2010.00</ele>
	<time>2023-08-07T04:26:09.000Z</time>
</trkpt>
<trkpt lat="46.0835880" lon="10.4965950">
	<ele>2010.00</ele>
	<time>2023-08-07T04:26:10.000Z</time>
</trkpt>
<trkpt lat="46.0835980" lon="10.4966050">
	<ele>2009.80</ele>
	<time>2023-08-07T04:26:11.000Z</time>
</trkpt>
<trkpt lat="46.0836060" lon="10.4966160">
	<ele>2009.60</ele>
	<time>2023-08-07T04:26:12.000Z</time>
</trkpt>
<trkpt lat="46.0836160" lon="10.4966270">
	<ele>2009.40</ele>
	<time>2023-08-07T04:26:13.000Z</time>
</trkpt>
<trkpt lat="46.0836250" lon="10.4966400">
	<ele>2009.00</ele>
	<time>2023-08-07T04:26:14.000Z</time>
</trkpt>
<trkpt lat="46.0836380" lon="10.4966510">
	<ele>2008.80</ele>
	<time>2023-08-07T04:26:15.000Z</time>
</trkpt>
<trkpt lat="46.0836490" lon="10.4966620">
	<ele>2008.60</ele>
	<time>2023-08-07T04:26:16.000Z</time>
</trkpt>
<trkpt lat="46.0836600" lon="10.4966760">
	<ele>2008.60</ele>
	<time>2023-08-07T04:26:17.000Z</time>
</trkpt>
<trkpt lat="46.0836720" lon="10.4966880">
	<ele>2008.40</ele>
	<time>2023-08-07T04:26:18.000Z</time>
</trkpt>
<trkpt lat="46.0836860" lon="10.4966980">
	<ele>2008.20</ele>
	<time>2023-08-07T04:26:19.000Z</time>
</trkpt>
<trkpt lat="46.0836990" lon="10.4967070">
	<ele>2008.20</ele>
	<time>2023-08-07T04:26:20.000Z</time>
</trkpt>
<trkpt lat="46.0837100" lon="10.4967160">
	<ele>2008.00</ele>
	<time>2023-08-07T04:26:21.000Z</time>
</trkpt>
<trkpt lat="46.0837210" lon="10.4967260">
	<ele>2008.00</ele>
	<time>2023-08-07T04:26:22.000Z</time>
</trkpt>
<trkpt lat="46.0837310" lon="10.4967410">
	<ele>2008.00</ele>
	<time>2023-08-07T04:26:23.000Z</time>
</trkpt>
<trkpt lat="46.0837390" lon="10.4967590">
	<ele>2008.00</ele>
	<time>2023-08-07T04:26:24.000Z</time>
</trkpt>
<trkpt lat="46.0837490" lon="10.4967750">
	<ele>2007.80</ele>
	<time>2023-08-07T04:26:25.000Z</time>
</trkpt>
<trkpt lat="46.0837610" lon="10.4967910">
	<ele>2007.80</ele>
	<time>2023-08-07T04:26:26.000Z</time>
</trkpt>
<trkpt lat="46.0837720" lon="10.4968050">
	<ele>2007.80</ele>
	<time>2023-08-07T04:26:27.000Z</time>
</trkpt>
<trkpt lat="46.0837830" lon="10.4968170">
	<ele>2008.00</ele>
	<time>2023-08-07T04:26:28.000Z</time>
</trkpt>
<trkpt lat="46.0837970" lon="10.4968260">
	<ele>2008.00</ele>
	<time>2023-08-07T04:26:29.000Z</time>
</trkpt>
<trkpt lat="46.0838070" lon="10.4968380">
	<ele>2008.00</ele>
	<time>2023-08-07T04:26:30.000Z</time>
</trkpt>
<trkpt lat="46.0838170" lon="10.4968500">
	<ele>2008.00</ele>
	<time>2023-08-07T04:26:31.000Z</time>
</trkpt>
<trkpt lat="46.0838260" lon="10.4968640">
	<ele>2008.00</ele>
	<time>2023-08-07T04:26:32.000Z</time>
</trkpt>
<trkpt lat="46.0838320" lon="10.4968780">
	<ele>2008.00</ele>
	<time>2023-08-07T04:26:33.000Z</time>
</trkpt>
<trkpt lat="46.0838390" lon="10.4968910">
	<ele>2008.00</ele>
	<time>2023-08-07T04:26:34.000Z</time>
</trkpt>
<trkpt lat="46.0838490" lon="10.4969030">
	<ele>2008.00</ele>
	<time>2023-08-07T04:26:35.000Z</time>
</trkpt>
<trkpt lat="46.0838630" lon="10.4969130">
	<ele>2007.80</ele>
	<time>2023-08-07T04:26:36.000Z</time>
</trkpt>
<trkpt lat="46.0838770" lon="10.4969250">
	<ele>2007.60</ele>
	<time>2023-08-07T04:26:37.000Z</time>
</trkpt>
<trkpt lat="46.0838900" lon="10.4969370">
	<ele>2007.60</ele>
	<time>2023-08-07T04:26:38.000Z</time>
</trkpt>
<trkpt lat="46.0839020" lon="10.4969510">
	<ele>2007.60</ele>
	<time>2023-08-07T04:26:39.000Z</time>
</trkpt>
<trkpt lat="46.0839190" lon="10.4969630">
	<ele>2007.80</ele>
	<time>2023-08-07T04:26:40.000Z</time>
</trkpt>
<trkpt lat="46.0839340" lon="10.4969750">
	<ele>2007.80</ele>
	<time>2023-08-07T04:26:41.000Z</time>
</trkpt>
<trkpt lat="46.0839440" lon="10.4969870">
	<ele>2007.80</ele>
	<time>2023-08-07T04:26:42.000Z</time>
</trkpt>
<trkpt lat="46.0839580" lon="10.4969960">
	<ele>2008.00</ele>
	<time>2023-08-07T04:26:43.000Z</time>
</trkpt>
<trkpt lat="46.0839730" lon="10.4970020">
	<ele>2008.00</ele>
	<time>2023-08-07T04:26:44.000Z</time>
</trkpt>
<trkpt lat="46.0839870" lon="10.4970080">
	<ele>2008.00</ele>
	<time>2023-08-07T04:26:45.000Z</time>
</trkpt>
<trkpt lat="46.0839980" lon="10.4970170">
	<ele>2008.00</ele>
	<time>2023-08-07T04:26:46.000Z</time>
</trkpt>
<trkpt lat="46.0840100" lon="10.4970250">
	<ele>2007.80</ele>
	<time>2023-08-07T04:26:47.000Z</time>
</trkpt>
<trkpt lat="46.0840200" lon="10.4970350">
	<ele>2007.80</ele>
	<time>2023-08-07T04:26:48.000Z</time>
</trkpt>
<trkpt lat="46.0840310" lon="10.4970430">
	<ele>2007.80</ele>
	<time>2023-08-07T04:26:49.000Z</time>
</trkpt>
<trkpt lat="46.0840430" lon="10.4970520">
	<ele>2007.80</ele>
	<time>2023-08-07T04:26:50.000Z</time>
</trkpt>
<trkpt lat="46.0840560" lon="10.4970590">
	<ele>2007.60</ele>
	<time>2023-08-07T04:26:51.000Z</time>
</trkpt>
<trkpt lat="46.0840680" lon="10.4970660">
	<ele>2007.60</ele>
	<time>2023-08-07T04:26:52.000Z</time>
</trkpt>
<trkpt lat="46.0840790" lon="10.4970720">
	<ele>2007.60</ele>
	<time>2023-08-07T04:26:53.000Z</time>
</trkpt>
<trkpt lat="46.0840880" lon="10.4970800">
	<ele>2007.60</ele>
	<time>2023-08-07T04:26:54.000Z</time>
</trkpt>
<trkpt lat="46.0840980" lon="10.4970900">
	<ele>2007.60</ele>
	<time>2023-08-07T04:26:55.000Z</time>
</trkpt>
<trkpt lat="46.0841060" lon="10.4971000">
	<ele>2007.60</ele>
	<time>2023-08-07T04:26:56.000Z</time>
</trkpt>
<trkpt lat="46.0841140" lon="10.4971110">
	<ele>2007.60</ele>
	<time>2023-08-07T04:26:57.000Z</time>
</trkpt>
<trkpt lat="46.0841260" lon="10.4971210">
	<ele>2007.60</ele>
	<time>2023-08-07T04:26:58.000Z</time>
</trkpt>
<trkpt lat="46.0841420" lon="10.4971270">
	<ele>2007.60</ele>
	<time>2023-08-07T04:26:59.000Z</time>
</trkpt>
<trkpt lat="46.0841570" lon="10.4971340">
	<ele>2007.80</ele>
	<time>2023-08-07T04:27:00.000Z</time>
</trkpt>
<trkpt lat="46.0841710" lon="10.4971410">
	<ele>2007.80</ele>
	<time>2023-08-07T04:27:01.000Z</time>
</trkpt>
<trkpt lat="46.0841860" lon="10.4971490">
	<ele>2008.00</ele>
	<time>2023-08-07T04:27:02.000Z</time>
</trkpt>
<trkpt lat="46.0841990" lon="10.4971590">
	<ele>2008.00</ele>
	<time>2023-08-07T04:27:03.000Z</time>
</trkpt>
<trkpt lat="46.0842140" lon="10.4971690">
	<ele>2008.00</ele>
	<time>2023-08-07T04:27:04.000Z</time>
</trkpt>
<trkpt lat="46.0842280" lon="10.4971800">
	<ele>2008.00</ele>
	<time>2023-08-07T04:27:05.000Z</time>
</trkpt>
<trkpt lat="46.0842420" lon="10.4971900">
	<ele>2008.20</ele>
	<time>2023-08-07T04:27:06.000Z</time>
</trkpt>
<trkpt lat="46.0842570" lon="10.4971970">
	<ele>2008.20</ele>
	<time>2023-08-07T04:27:07.000Z</time>
</trkpt>
<trkpt lat="46.0842710" lon="10.4972060">
	<ele>2008.20</ele>
	<time>2023-08-07T04:27:08.000Z</time>
</trkpt>
<trkpt lat="46.0842860" lon="10.4972100">
	<ele>2008.20</ele>
	<time>2023-08-07T04:27:09.000Z</time>
</trkpt>
<trkpt lat="46.0843030" lon="10.4972110">
	<ele>2008.20</ele>
	<time>2023-08-07T04:27:10.000Z</time>
</trkpt>
<trkpt lat="46.0843130" lon="10.4972130">
	<ele>2008.40</ele>
	<time>2023-08-07T04:27:11.000Z</time>
</trkpt>
<trkpt lat="46.0843260" lon="10.4972110">
	<ele>2008.60</ele>
	<time>2023-08-07T04:27:12.000Z</time>
</trkpt>
<trkpt lat="46.0843380" lon="10.4972020">
	<ele>2008.60</ele>
	<time>2023-08-07T04:27:13.000Z</time>
</trkpt>
<trkpt lat="46.0843500" lon="10.4971920">
	<ele>2008.60</ele>
	<time>2023-08-07T04:27:14.000Z</time>
</trkpt>
<trkpt lat="46.0843580" lon="10.4971810">
	<ele>2008.60</ele>
	<time>2023-08-07T04:27:15.000Z</time>
</trkpt>
<trkpt lat="46.0843670" lon="10.4971670">
	<ele>2008.60</ele>
	<time>2023-08-07T04:27:16.000Z</time>
</trkpt>
<trkpt lat="46.0843730" lon="10.4971540">
	<ele>2008.40</ele>
	<time>2023-08-07T04:27:17.000Z</time>
</trkpt>
<trkpt lat="46.0843810" lon="10.4971390">
	<ele>2008.40</ele>
	<time>2023-08-07T04:27:18.000Z</time>
</trkpt>
<trkpt lat="46.0843890" lon="10.4971210">
	<ele>2008.40</ele>
	<time>2023-08-07T04:27:19.000Z</time>
</trkpt>
<trkpt lat="46.0843950" lon="10.4971010">
	<ele>2008.40</ele>
	<time>2023-08-07T04:27:20.000Z</time>
</trkpt>
<trkpt lat="46.0843990" lon="10.4970900">
	<ele>2008.40</ele>
	<time>2023-08-07T04:27:21.000Z</time>
</trkpt>
<trkpt lat="46.0844050" lon="10.4970750">
	<ele>2008.20</ele>
	<time>2023-08-07T04:27:22.000Z</time>
</trkpt>
<trkpt lat="46.0844120" lon="10.4970620">
	<ele>2008.40</ele>
	<time>2023-08-07T04:27:23.000Z</time>
</trkpt>
<trkpt lat="46.0844200" lon="10.4970460">
	<ele>2008.60</ele>
	<time>2023-08-07T04:27:24.000Z</time>
</trkpt>
<trkpt lat="46.0844280" lon="10.4970310">
	<ele>2008.60</ele>
	<time>2023-08-07T04:27:25.000Z</time>
</trkpt>
<trkpt lat="46.0844350" lon="10.4970160">
	<ele>2008.60</ele>
	<time>2023-08-07T04:27:26.000Z</time>
</trkpt>
<trkpt lat="46.0844420" lon="10.4969980">
	<ele>2008.60</ele>
	<time>2023-08-07T04:27:27.000Z</time>
</trkpt>
<trkpt lat="46.0844500" lon="10.4969790">
	<ele>2008.60</ele>
	<time>2023-08-07T04:27:28.000Z</time>
</trkpt>
<trkpt lat="46.0844570" lon="10.4969620">
	<ele>2008.60</ele>
	<time>2023-08-07T04:27:29.000Z</time>
</trkpt>
<trkpt lat="46.0844640" lon="10.4969480">
	<ele>2008.60</ele>
	<time>2023-08-07T04:27:30.000Z</time>
</trkpt>
<trkpt lat="46.0844690" lon="10.4969340">
	<ele>2008.60</ele>
	<time>2023-08-07T04:27:31.000Z</time>
</trkpt>
<trkpt lat="46.0844750" lon="10.4969180">
	<ele>2008.60</ele>
	<time>2023-08-07T04:27:32.000Z</time>
</trkpt>
<trkpt lat="46.0844790" lon="10.4968980">
	<ele>2008.60</ele>
	<time>2023-08-07T04:27:33.000Z</time>
</trkpt>
<trkpt lat="46.0844770" lon="10.4968800">
	<ele>2008.40</ele>
	<time>2023-08-07T04:27:34.000Z</time>
</trkpt>
<trkpt lat="46.0844730" lon="10.4968680">
	<ele>2008.40</ele>
	<time>2023-08-07T04:27:35.000Z</time>
</trkpt>
<trkpt lat="46.0844660" lon="10.4968550">
	<ele>2008.20</ele>
	<time>2023-08-07T04:27:36.000Z</time>
</trkpt>
<trkpt lat="46.0844590" lon="10.4968460">
	<ele>2008.20</ele>
	<time>2023-08-07T04:27:37.000Z</time>
</trkpt>
<trkpt lat="46.0844540" lon="10.4968410">
	<ele>2008.20</ele>
	<time>2023-08-07T04:27:38.000Z</time>
</trkpt>
<trkpt lat="46.0844510" lon="10.4968350">
	<ele>2008.20</ele>
	<time>2023-08-07T04:27:39.000Z</time>
</trkpt>
<trkpt lat="46.0844440" lon="10.4968340">
	<ele>2008.20</ele>
	<time>2023-08-07T04:27:40.000Z</time>
</trkpt>
<trkpt lat="46.0844420" lon="10.4968330">
	<ele>2008.20</ele>
	<time>2023-08-07T04:27:41.000Z</time>
</trkpt>
<trkpt lat="46.0844420" lon="10.4968340">
	<ele>2008.20</ele>
	<time>2023-08-07T04:27:42.000Z</time>
</trkpt>
<trkpt lat="46.0844410" lon="10.4968350">
	<ele>2008.20</ele>
	<time>2023-08-07T04:27:43.000Z</time>
</trkpt>
<trkpt lat="46.0844410" lon="10.4968350">
	<ele>2008.20</ele>
	<time>2023-08-07T04:27:44.000Z</time>
</trkpt>
<trkpt lat="46.0844420" lon="10.4968350">
	<ele>2008.40</ele>
	<time>2023-08-07T04:27:45.000Z</time>
</trkpt>
<trkpt lat="46.0844420" lon="10.4968350">
	<ele>2008.40</ele>
	<time>2023-08-07T04:27:46.000Z</time>
</trkpt>
<trkpt lat="46.0844420" lon="10.4968350">
	<ele>2008.40</ele>
	<time>2023-08-07T04:27:47.000Z</time>
</trkpt>
<trkpt lat="46.0844430" lon="10.4968350">
	<ele>2008.40</ele>
	<time>2023-08-07T04:27:48.000Z</time>
</trkpt>
<trkpt lat="46.0844430" lon="10.4968350">
	<ele>2008.40</ele>
	<time>2023-08-07T04:27:49.000Z</time>
</trkpt>
<trkpt lat="46.0844430" lon="10.4968350">
	<ele>2008.40</ele>
	<time>2023-08-07T04:27:50.000Z</time>
</trkpt>
<trkpt lat="46.0844430" lon="10.4968350">
	<ele>2008.40</ele>
	<time>2023-08-07T04:27:51.000Z</time>
</trkpt>
<trkpt lat="46.0844430" lon="10.4968350">
	<ele>2008.60</ele>
	<time>2023-08-07T04:27:52.000Z</time>
</trkpt>
<trkpt lat="46.0844430" lon="10.4968350">
	<ele>2008.60</ele>
	<time>2023-08-07T04:27:53.000Z</time>
</trkpt>
<trkpt lat="46.0844430" lon="10.4968350">
	<ele>2008.80</ele>
	<time>2023-08-07T04:27:54.000Z</time>
</trkpt>
<trkpt lat="46.0844430" lon="10.4968350">
	<ele>2008.80</ele>
	<time>2023-08-07T04:27:55.000Z</time>
</trkpt>
<trkpt lat="46.0844430" lon="10.4968350">
	<ele>2008.80</ele>
	<time>2023-08-07T04:27:56.000Z</time>
</trkpt>
<trkpt lat="46.0844430" lon="10.4968350">
	<ele>2008.60</ele>
	<time>2023-08-07T04:27:57.000Z</time>
</trkpt>
<trkpt lat="46.0844430" lon="10.4968350">
	<ele>2008.60</ele>
	<time>2023-08-07T04:27:58.000Z</time>
</trkpt>
<trkpt lat="46.0844420" lon="10.4968350">
	<ele>2008.60</ele>
	<time>2023-08-07T04:27:59.000Z</time>
</trkpt>
<trkpt lat="46.0844420" lon="10.4968350">
	<ele>2008.60</ele>
	<time>2023-08-07T04:28:00.000Z</time>
</trkpt>
<trkpt lat="46.0844420" lon="10.4968350">
	<ele>2008.60</ele>
	<time>2023-08-07T04:28:01.000Z</time>
</trkpt>
<trkpt lat="46.0844420" lon="10.4968350">
	<ele>2008.60</ele>
	<time>2023-08-07T04:28:02.000Z</time>
</trkpt>
<trkpt lat="46.0844420" lon="10.4968350">
	<ele>2008.60</ele>
	<time>2023-08-07T04:28:03.000Z</time>
</trkpt>
<trkpt lat="46.0844410" lon="10.4968350">
	<ele>2008.60</ele>
	<time>2023-08-07T04:28:04.000Z</time>
</trkpt>
<trkpt lat="46.0844410" lon="10.4968350">
	<ele>2008.80</ele>
	<time>2023-08-07T04:28:05.000Z</time>
</trkpt>
<trkpt lat="46.0844410" lon="10.4968350">
	<ele>2008.80</ele>
	<time>2023-08-07T04:28:06.000Z</time>
</trkpt>
<trkpt lat="46.0844410" lon="10.4968340">
	<ele>2008.80</ele>
	<time>2023-08-07T04:28:07.000Z</time>
</trkpt>
<trkpt lat="46.0844410" lon="10.4968340">
	<ele>2008.80</ele>
	<time>2023-08-07T04:28:08.000Z</time>
</trkpt>
<trkpt lat="46.0844400" lon="10.4968340">
	<ele>2008.80</ele>
	<time>2023-08-07T04:28:09.000Z</time>
</trkpt>
<trkpt lat="46.0844400" lon="10.4968330">
	<ele>2008.80</ele>
	<time>2023-08-07T04:28:10.000Z</time>
</trkpt>
<trkpt lat="46.0844390" lon="10.4968330">
	<ele>2008.80</ele>
	<time>2023-08-07T04:28:11.000Z</time>
</trkpt>
<trkpt lat="46.0844380" lon="10.4968330">
	<ele>2008.60</ele>
	<time>2023-08-07T04:28:12.000Z</time>
</trkpt>
<trkpt lat="46.0844380" lon="10.4968330">
	<ele>2008.60</ele>
	<time>2023-08-07T04:28:13.000Z</time>
</trkpt>
<trkpt lat="46.0844380" lon="10.4968330">
	<ele>2008.60</ele>
	<time>2023-08-07T04:28:14.000Z</time>
</trkpt>
<trkpt lat="46.0844380" lon="10.4968330">
	<ele>2008.60</ele>
	<time>2023-08-07T04:28:15.000Z</time>
</trkpt>
<trkpt lat="46.0844380" lon="10.4968330">
	<ele>2008.60</ele>
	<time>2023-08-07T04:28:16.000Z</time>
</trkpt>
<trkpt lat="46.0844380" lon="10.4968330">
	<ele>2008.80</ele>
	<time>2023-08-07T04:28:17.000Z</time>
</trkpt>
<trkpt lat="46.0844380" lon="10.4968320">
	<ele>2008.80</ele>
	<time>2023-08-07T04:28:18.000Z</time>
</trkpt>
<trkpt lat="46.0844380" lon="10.4968320">
	<ele>2008.80</ele>
	<time>2023-08-07T04:28:19.000Z</time>
</trkpt>
<trkpt lat="46.0844380" lon="10.4968320">
	<ele>2009.00</ele>
	<time>2023-08-07T04:28:20.000Z</time>
</trkpt>
<trkpt lat="46.0844370" lon="10.4968310">
	<ele>2009.20</ele>
	<time>2023-08-07T04:28:21.000Z</time>
</trkpt>
<trkpt lat="46.0844370" lon="10.4968310">
	<ele>2009.20</ele>
	<time>2023-08-07T04:28:22.000Z</time>
</trkpt>
<trkpt lat="46.0844370" lon="10.4968310">
	<ele>2009.20</ele>
	<time>2023-08-07T04:28:23.000Z</time>
</trkpt>
<trkpt lat="46.0844360" lon="10.4968310">
	<ele>2009.20</ele>
	<time>2023-08-07T04:28:24.000Z</time>
</trkpt>
<trkpt lat="46.0844360" lon="10.4968310">
	<ele>2009.20</ele>
	<time>2023-08-07T04:28:25.000Z</time>
</trkpt>
<trkpt lat="46.0844360" lon="10.4968310">
	<ele>2009.00</ele>
	<time>2023-08-07T04:28:26.000Z</time>
</trkpt>
<trkpt lat="46.0844360" lon="10.4968310">
	<ele>2009.00</ele>
	<time>2023-08-07T04:28:27.000Z</time>
</trkpt>
<trkpt lat="46.0844390" lon="10.4968350">
	<ele>2009.00</ele>
	<time>2023-08-07T04:28:28.000Z</time>
</trkpt>
<trkpt lat="46.0844500" lon="10.4968490">
	<ele>2009.00</ele>
	<time>2023-08-07T04:28:29.000Z</time>
</trkpt>
<trkpt lat="46.0844650" lon="10.4968620">
	<ele>2008.20</ele>
	<time>2023-08-07T04:28:30.000Z</time>
</trkpt>
<trkpt lat="46.0844820" lon="10.4968760">
	<ele>2008.40</ele>
	<time>2023-08-07T04:28:31.000Z</time>
</trkpt>
<trkpt lat="46.0845000" lon="10.4968930">
	<ele>2008.40</ele>
	<time>2023-08-07T04:28:32.000Z</time>
</trkpt>
<trkpt lat="46.0845120" lon="10.4969060">
	<ele>2008.40</ele>
	<time>2023-08-07T04:28:33.000Z</time>
</trkpt>
<trkpt lat="46.0845270" lon="10.4969190">
	<ele>2008.40</ele>
	<time>2023-08-07T04:28:34.000Z</time>
</trkpt>
<trkpt lat="46.0845420" lon="10.4969340">
	<ele>2008.40</ele>
	<time>2023-08-07T04:28:35.000Z</time>
</trkpt>
<trkpt lat="46.0845590" lon="10.4969500">
	<ele>2008.40</ele>
	<time>2023-08-07T04:28:36.000Z</time>
</trkpt>
<trkpt lat="46.0845750" lon="10.4969610">
	<ele>2008.20</ele>
	<time>2023-08-07T04:28:37.000Z</time>
</trkpt>
<trkpt lat="46.0845830" lon="10.4969690">
	<ele>2008.20</ele>
	<time>2023-08-07T04:28:38.000Z</time>
</trkpt>
<trkpt lat="46.0845940" lon="10.4969810">
	<ele>2008.20</ele>
	<time>2023-08-07T04:28:39.000Z</time>
</trkpt>
<trkpt lat="46.0846040" lon="10.4969930">
	<ele>2008.20</ele>
	<time>2023-08-07T04:28:40.000Z</time>
</trkpt>
<trkpt lat="46.0846140" lon="10.4970030">
	<ele>2008.20</ele>
	<time>2023-08-07T04:28:41.000Z</time>
</trkpt>
<trkpt lat="46.0846250" lon="10.4970140">
	<ele>2008.20</ele>
	<time>2023-08-07T04:28:42.000Z</time>
</trkpt>
<trkpt lat="46.0846380" lon="10.4970240">
	<ele>2008.20</ele>
	<time>2023-08-07T04:28:43.000Z</time>
</trkpt>
<trkpt lat="46.0846500" lon="10.4970330">
	<ele>2008.20</ele>
	<time>2023-08-07T04:28:44.000Z</time>
</trkpt>
<trkpt lat="46.0846610" lon="10.4970450">
	<ele>2008.20</ele>
	<time>2023-08-07T04:28:45.000Z</time>
</trkpt>
<trkpt lat="46.0846690" lon="10.4970580">
	<ele>2008.40</ele>
	<time>2023-08-07T04:28:46.000Z</time>
</trkpt>
<trkpt lat="46.0846800" lon="10.4970660">
	<ele>2008.40</ele>
	<time>2023-08-07T04:28:47.000Z</time>
</trkpt>
<trkpt lat="46.0846910" lon="10.4970730">
	<ele>2008.60</ele>
	<time>2023-08-07T04:28:48.000Z</time>
</trkpt>
<trkpt lat="46.0847060" lon="10.4970790">
	<ele>2008.60</ele>
	<time>2023-08-07T04:28:49.000Z</time>
</trkpt>
<trkpt lat="46.0847210" lon="10.4970840">
	<ele>2008.60</ele>
	<time>2023-08-07T04:28:50.000Z</time>
</trkpt>
<trkpt lat="46.0847340" lon="10.4970890">
	<ele>2008.80</ele>
	<time>2023-08-07T04:28:51.000Z</time>
</trkpt>
<trkpt lat="46.0847500" lon="10.4970900">
	<ele>2008.80</ele>
	<time>2023-08-07T04:28:52.000Z</time>
</trkpt>
<trkpt lat="46.0847660" lon="10.4970890">
	<ele>2008.80</ele>
	<time>2023-08-07T04:28:53.000Z</time>
</trkpt>
<trkpt lat="46.0847800" lon="10.4970880">
	<ele>2008.80</ele>
	<time>2023-08-07T04:28:54.000Z</time>
</trkpt>
<trkpt lat="46.0847950" lon="10.4970830">
	<ele>2008.80</ele>
	<time>2023-08-07T04:28:55.000Z</time>
</trkpt>
<trkpt lat="46.0848100" lon="10.4970790">
	<ele>2008.80</ele>
	<time>2023-08-07T04:28:56.000Z</time>
</trkpt>
<trkpt lat="46.0848230" lon="10.4970740">
	<ele>2008.80</ele>
	<time>2023-08-07T04:28:57.000Z</time>
</trkpt>
<trkpt lat="46.0848310" lon="10.4970680">
	<ele>2008.80</ele>
	<time>2023-08-07T04:28:58.000Z</time>
</trkpt>
<trkpt lat="46.0848390" lon="10.4970590">
	<ele>2008.80</ele>
	<time>2023-08-07T04:28:59.000Z</time>
</trkpt>
<trkpt lat="46.0848510" lon="10.4970530">
	<ele>2008.60</ele>
	<time>2023-08-07T04:29:00.000Z</time>
</trkpt>
<trkpt lat="46.0848650" lon="10.4970470">
	<ele>2008.40</ele>
	<time>2023-08-07T04:29:01.000Z</time>
</trkpt>
<trkpt lat="46.0848800" lon="10.4970420">
	<ele>2008.40</ele>
	<time>2023-08-07T04:29:02.000Z</time>
</trkpt>
<trkpt lat="46.0848950" lon="10.4970400">
	<ele>2008.60</ele>
	<time>2023-08-07T04:29:03.000Z</time>
</trkpt>
<trkpt lat="46.0849100" lon="10.4970350">
	<ele>2008.60</ele>
	<time>2023-08-07T04:29:04.000Z</time>
</trkpt>
<trkpt lat="46.0849240" lon="10.4970350">
	<ele>2008.80</ele>
	<time>2023-08-07T04:29:05.000Z</time>
</trkpt>
<trkpt lat="46.0849380" lon="10.4970310">
	<ele>2008.80</ele>
	<time>2023-08-07T04:29:06.000Z</time>
</trkpt>
<trkpt lat="46.0849500" lon="10.4970310">
	<ele>2008.80</ele>
	<time>2023-08-07T04:29:07.000Z</time>
</trkpt>
<trkpt lat="46.0849620" lon="10.4970340">
	<ele>2009.00</ele>
	<time>2023-08-07T04:29:08.000Z</time>
</trkpt>
<trkpt lat="46.0849750" lon="10.4970350">
	<ele>2009.00</ele>
	<time>2023-08-07T04:29:09.000Z</time>
</trkpt>
<trkpt lat="46.0849890" lon="10.4970410">
	<ele>2009.00</ele>
	<time>2023-08-07T04:29:10.000Z</time>
</trkpt>
<trkpt lat="46.0850020" lon="10.4970450">
	<ele>2009.00</ele>
	<time>2023-08-07T04:29:11.000Z</time>
</trkpt>
<trkpt lat="46.0850170" lon="10.4970450">
	<ele>2009.00</ele>
	<time>2023-08-07T04:29:12.000Z</time>
</trkpt>
<trkpt lat="46.0850300" lon="10.4970460">
	<ele>2009.20</ele>
	<time>2023-08-07T04:29:13.000Z</time>
</trkpt>
<trkpt lat="46.0850430" lon="10.4970490">
	<ele>2009.20</ele>
	<time>2023-08-07T04:29:14.000Z</time>
</trkpt>
<trkpt lat="46.0850530" lon="10.4970530">
	<ele>2009.20</ele>
	<time>2023-08-07T04:29:15.000Z</time>
</trkpt>
<trkpt lat="46.0850620" lon="10.4970580">
	<ele>2009.20</ele>
	<time>2023-08-07T04:29:16.000Z</time>
</trkpt>
<trkpt lat="46.0850730" lon="10.4970610">
	<ele>2009.20</ele>
	<time>2023-08-07T04:29:17.000Z</time>
</trkpt>
<trkpt lat="46.0850840" lon="10.4970640">
	<ele>2009.20</ele>
	<time>2023-08-07T04:29:18.000Z</time>
</trkpt>
<trkpt lat="46.0850970" lon="10.4970650">
	<ele>2009.20</ele>
	<time>2023-08-07T04:29:19.000Z</time>
</trkpt>
<trkpt lat="46.0851100" lon="10.4970670">
	<ele>2009.20</ele>
	<time>2023-08-07T04:29:20.000Z</time>
</trkpt>
<trkpt lat="46.0851230" lon="10.4970660">
	<ele>2009.20</ele>
	<time>2023-08-07T04:29:21.000Z</time>
</trkpt>
<trkpt lat="46.0851370" lon="10.4970650">
	<ele>2009.40</ele>
	<time>2023-08-07T04:29:22.000Z</time>
</trkpt>
<trkpt lat="46.0851510" lon="10.4970640">
	<ele>2009.40</ele>
	<time>2023-08-07T04:29:23.000Z</time>
</trkpt>
<trkpt lat="46.0851650" lon="10.4970620">
	<ele>2009.40</ele>
	<time>2023-08-07T04:29:24.000Z</time>
</trkpt>
<trkpt lat="46.0851800" lon="10.4970590">
	<ele>2009.40</ele>
	<time>2023-08-07T04:29:25.000Z</time>
</trkpt>
<trkpt lat="46.0851900" lon="10.4970580">
	<ele>2009.60</ele>
	<time>2023-08-07T04:29:26.000Z</time>
</trkpt>
<trkpt lat="46.0851980" lon="10.4970570">
	<ele>2009.60</ele>
	<time>2023-08-07T04:29:27.000Z</time>
</trkpt>
<trkpt lat="46.0852100" lon="10.4970510">
	<ele>2009.80</ele>
	<time>2023-08-07T04:29:28.000Z</time>
</trkpt>
<trkpt lat="46.0852230" lon="10.4970450">
	<ele>2009.80</ele>
	<time>2023-08-07T04:29:29.000Z</time>
</trkpt>
<trkpt lat="46.0852320" lon="10.4970440">
	<ele>2009.80</ele>
	<time>2023-08-07T04:29:30.000Z</time>
</trkpt>
<trkpt lat="46.0852430" lon="10.4970420">
	<ele>2009.80</ele>
	<time>2023-08-07T04:29:31.000Z</time>
</trkpt>
<trkpt lat="46.0852560" lon="10.4970360">
	<ele>2009.80</ele>
	<time>2023-08-07T04:29:32.000Z</time>
</trkpt>
<trkpt lat="46.0852690" lon="10.4970310">
	<ele>2009.80</ele>
	<time>2023-08-07T04:29:33.000Z</time>
</trkpt>
<trkpt lat="46.0852840" lon="10.4970250">
	<ele>2009.60</ele>
	<time>2023-08-07T04:29:34.000Z</time>
</trkpt>
<trkpt lat="46.0852970" lon="10.4970190">
	<ele>2009.60</ele>
	<time>2023-08-07T04:29:35.000Z</time>
</trkpt>
<trkpt lat="46.0853110" lon="10.4970100">
	<ele>2009.40</ele>
	<time>2023-08-07T04:29:36.000Z</time>
</trkpt>
<trkpt lat="46.0853260" lon="10.4970040">
	<ele>2009.40</ele>
	<time>2023-08-07T04:29:37.000Z</time>
</trkpt>
<trkpt lat="46.0853420" lon="10.4969990">
	<ele>2009.40</ele>
	<time>2023-08-07T04:29:38.000Z</time>
</trkpt>
<trkpt lat="46.0853540" lon="10.4969950">
	<ele>2009.40</ele>
	<time>2023-08-07T04:29:39.000Z</time>
</trkpt>
<trkpt lat="46.0853670" lon="10.4969940">
	<ele>2009.40</ele>
	<time>2023-08-07T04:29:40.000Z</time>
</trkpt>
<trkpt lat="46.0853830" lon="10.4969920">
	<ele>2009.60</ele>
	<time>2023-08-07T04:29:41.000Z</time>
</trkpt>
<trkpt lat="46.0853980" lon="10.4969910">
	<ele>2009.60</ele>
	<time>2023-08-07T04:29:42.000Z</time>
</trkpt>
<trkpt lat="46.0854130" lon="10.4969910">
	<ele>2009.80</ele>
	<time>2023-08-07T04:29:43.000Z</time>
</trkpt>
<trkpt lat="46.0854280" lon="10.4969960">
	<ele>2009.80</ele>
	<time>2023-08-07T04:29:44.000Z</time>
</trkpt>
<trkpt lat="46.0854420" lon="10.4970030">
	<ele>2010.00</ele>
	<time>2023-08-07T04:29:45.000Z</time>
</trkpt>
<trkpt lat="46.0854560" lon="10.4970060">
	<ele>2010.20</ele>
	<time>2023-08-07T04:29:46.000Z</time>
</trkpt>
<trkpt lat="46.0854700" lon="10.4970080">
	<ele>2010.20</ele>
	<time>2023-08-07T04:29:47.000Z</time>
</trkpt>
<trkpt lat="46.0854840" lon="10.4970160">
	<ele>2010.20</ele>
	<time>2023-08-07T04:29:48.000Z</time>
</trkpt>
<trkpt lat="46.0854950" lon="10.4970190">
	<ele>2010.20</ele>
	<time>2023-08-07T04:29:49.000Z</time>
</trkpt>
<trkpt lat="46.0855070" lon="10.4970260">
	<ele>2010.20</ele>
	<time>2023-08-07T04:29:50.000Z</time>
</trkpt>
<trkpt lat="46.0855190" lon="10.4970290">
	<ele>2010.20</ele>
	<time>2023-08-07T04:29:51.000Z</time>
</trkpt>
<trkpt lat="46.0855300" lon="10.4970370">
	<ele>2010.20</ele>
	<time>2023-08-07T04:29:52.000Z</time>
</trkpt>
<trkpt lat="46.0855410" lon="10.4970490">
	<ele>2010.00</ele>
	<time>2023-08-07T04:29:53.000Z</time>
</trkpt>
<trkpt lat="46.0855540" lon="10.4970600">
	<ele>2010.00</ele>
	<time>2023-08-07T04:29:54.000Z</time>
</trkpt>
<trkpt lat="46.0855660" lon="10.4970720">
	<ele>2009.80</ele>
	<time>2023-08-07T04:29:55.000Z</time>
</trkpt>
<trkpt lat="46.0855760" lon="10.4970820">
	<ele>2009.80</ele>
	<time>2023-08-07T04:29:56.000Z</time>
</trkpt>
<trkpt lat="46.0855890" lon="10.4970910">
	<ele>2009.60</ele>
	<time>2023-08-07T04:29:57.000Z</time>
</trkpt>
<trkpt lat="46.0856050" lon="10.4970980">
	<ele>2009.60</ele>
	<time>2023-08-07T04:29:58.000Z</time>
</trkpt>
<trkpt lat="46.0856190" lon="10.4971100">
	<ele>2009.60</ele>
	<time>2023-08-07T04:29:59.000Z</time>
</trkpt>
<trkpt lat="46.0856330" lon="10.4971210">
	<ele>2009.40</ele>
	<time>2023-08-07T04:30:00.000Z</time>
</trkpt>
<trkpt lat="46.0856450" lon="10.4971340">
	<ele>2009.40</ele>
	<time>2023-08-07T04:30:01.000Z</time>
</trkpt>
<trkpt lat="46.0856540" lon="10.4971510">
	<ele>2009.40</ele>
	<time>2023-08-07T04:30:02.000Z</time>
</trkpt>
<trkpt lat="46.0856610" lon="10.4971680">
	<ele>2009.40</ele>
	<time>2023-08-07T04:30:03.000Z</time>
</trkpt>
<trkpt lat="46.0856710" lon="10.4971810">
	<ele>2009.40</ele>
	<time>2023-08-07T04:30:04.000Z</time>
</trkpt>
<trkpt lat="46.0856820" lon="10.4971960">
	<ele>2009.20</ele>
	<time>2023-08-07T04:30:05.000Z</time>
</trkpt>
<trkpt lat="46.0856930" lon="10.4972060">
	<ele>2009.20</ele>
	<time>2023-08-07T04:30:06.000Z</time>
</trkpt>
<trkpt lat="46.0857040" lon="10.4972130">
	<ele>2009.20</ele>
	<time>2023-08-07T04:30:07.000Z</time>
</trkpt>
<trkpt lat="46.0857160" lon="10.4972190">
	<ele>2009.20</ele>
	<time>2023-08-07T04:30:08.000Z</time>
</trkpt>
<trkpt lat="46.0857300" lon="10.4972230">
	<ele>2009.20</ele>
	<time>2023-08-07T04:30:09.000Z</time>
</trkpt>
<trkpt lat="46.0857450" lon="10.4972260">
	<ele>2009.20</ele>
	<time>2023-08-07T04:30:10.000Z</time>
</trkpt>
<trkpt lat="46.0857570" lon="10.4972310">
	<ele>2009.20</ele>
	<time>2023-08-07T04:30:11.000Z</time>
</trkpt>
<trkpt lat="46.0857690" lon="10.4972380">
	<ele>2009.20</ele>
	<time>2023-08-07T04:30:12.000Z</time>
</trkpt>
<trkpt lat="46.0857770" lon="10.4972450">
	<ele>2009.60</ele>
	<time>2023-08-07T04:30:13.000Z</time>
</trkpt>
<trkpt lat="46.0857860" lon="10.4972520">
	<ele>2009.80</ele>
	<time>2023-08-07T04:30:14.000Z</time>
</trkpt>
<trkpt lat="46.0857950" lon="10.4972610">
	<ele>2009.80</ele>
	<time>2023-08-07T04:30:15.000Z</time>
</trkpt>
<trkpt lat="46.0858050" lon="10.4972690">
	<ele>2010.00</ele>
	<time>2023-08-07T04:30:16.000Z</time>
</trkpt>
<trkpt lat="46.0858150" lon="10.4972710">
	<ele>2009.80</ele>
	<time>2023-08-07T04:30:17.000Z</time>
</trkpt>
<trkpt lat="46.0858250" lon="10.4972700">
	<ele>2009.80</ele>
	<time>2023-08-07T04:30:18.000Z</time>
</trkpt>
<trkpt lat="46.0858360" lon="10.4972660">
	<ele>2009.80</ele>
	<time>2023-08-07T04:30:19.000Z</time>
</trkpt>
<trkpt lat="46.0858510" lon="10.4972600">
	<ele>2009.80</ele>
	<time>2023-08-07T04:30:20.000Z</time>
</trkpt>
<trkpt lat="46.0858660" lon="10.4972570">
	<ele>2009.80</ele>
	<time>2023-08-07T04:30:21.000Z</time>
</trkpt>
<trkpt lat="46.0858810" lon="10.4972580">
	<ele>2009.80</ele>
	<time>2023-08-07T04:30:22.000Z</time>
</trkpt>
<trkpt lat="46.0858940" lon="10.4972620">
	<ele>2010.00</ele>
	<time>2023-08-07T04:30:23.000Z</time>
</trkpt>
<trkpt lat="46.0859110" lon="10.4972670">
	<ele>2010.20</ele>
	<time>2023-08-07T04:30:24.000Z</time>
</trkpt>
<trkpt lat="46.0859250" lon="10.4972770">
	<ele>2010.40</ele>
	<time>2023-08-07T04:30:25.000Z</time>
</trkpt>
<trkpt lat="46.0859390" lon="10.4972870">
	<ele>2010.40</ele>
	<time>2023-08-07T04:30:26.000Z</time>
</trkpt>
<trkpt lat="46.0859550" lon="10.4973010">
	<ele>2010.60</ele>
	<time>2023-08-07T04:30:27.000Z</time>
</trkpt>
<trkpt lat="46.0859700" lon="10.4973140">
	<ele>2010.60</ele>
	<time>2023-08-07T04:30:28.000Z</time>
</trkpt>
<trkpt lat="46.0859830" lon="10.4973230">
	<ele>2010.40</ele>
	<time>2023-08-07T04:30:29.000Z</time>
</trkpt>
<trkpt lat="46.0860000" lon="10.4973270">
	<ele>2010.40</ele>
	<time>2023-08-07T04:30:30.000Z</time>
</trkpt>
<trkpt lat="46.0860160" lon="10.4973230">
	<ele>2010.40</ele>
	<time>2023-08-07T04:30:31.000Z</time>
</trkpt>
<trkpt lat="46.0860290" lon="10.4973210">
	<ele>2010.40</ele>
	<time>2023-08-07T04:30:32.000Z</time>
</trkpt>
<trkpt lat="46.0860430" lon="10.4973190">
	<ele>2010.40</ele>
	<time>2023-08-07T04:30:33.000Z</time>
</trkpt>
<trkpt lat="46.0860550" lon="10.4973210">
	<ele>2010.60</ele>
	<time>2023-08-07T04:30:34.000Z</time>
</trkpt>
<trkpt lat="46.0860680" lon="10.4973190">
	<ele>2010.60</ele>
	<time>2023-08-07T04:30:35.000Z</time>
</trkpt>
<trkpt lat="46.0860810" lon="10.4973190">
	<ele>2010.60</ele>
	<time>2023-08-07T04:30:36.000Z</time>
</trkpt>
<trkpt lat="46.0860950" lon="10.4973220">
	<ele>2010.60</ele>
	<time>2023-08-07T04:30:37.000Z</time>
</trkpt>
<trkpt lat="46.0861060" lon="10.4973310">
	<ele>2010.60</ele>
	<time>2023-08-07T04:30:38.000Z</time>
</trkpt>
<trkpt lat="46.0861160" lon="10.4973430">
	<ele>2010.60</ele>
	<time>2023-08-07T04:30:39.000Z</time>
</trkpt>
<trkpt lat="46.0861240" lon="10.4973560">
	<ele>2010.60</ele>
	<time>2023-08-07T04:30:40.000Z</time>
</trkpt>
<trkpt lat="46.0861330" lon="10.4973670">
	<ele>2010.80</ele>
	<time>2023-08-07T04:30:41.000Z</time>
</trkpt>
<trkpt lat="46.0861410" lon="10.4973730">
	<ele>2010.80</ele>
	<time>2023-08-07T04:30:42.000Z</time>
</trkpt>
<trkpt lat="46.0861500" lon="10.4973780">
	<ele>2010.80</ele>
	<time>2023-08-07T04:30:43.000Z</time>
</trkpt>
<trkpt lat="46.0861590" lon="10.4973850">
	<ele>2010.80</ele>
	<time>2023-08-07T04:30:44.000Z</time>
</trkpt>
<trkpt lat="46.0861690" lon="10.4973880">
	<ele>2010.80</ele>
	<time>2023-08-07T04:30:45.000Z</time>
</trkpt>
<trkpt lat="46.0861780" lon="10.4973940">
	<ele>2010.80</ele>
	<time>2023-08-07T04:30:46.000Z</time>
</trkpt>
<trkpt lat="46.0861900" lon="10.4973970">
	<ele>2010.60</ele>
	<time>2023-08-07T04:30:47.000Z</time>
</trkpt>
<trkpt lat="46.0862030" lon="10.4973990">
	<ele>2010.60</ele>
	<time>2023-08-07T04:30:48.000Z</time>
</trkpt>
<trkpt lat="46.0862150" lon="10.4974010">
	<ele>2010.60</ele>
	<time>2023-08-07T04:30:49.000Z</time>
</trkpt>
<trkpt lat="46.0862280" lon="10.4974010">
	<ele>2010.80</ele>
	<time>2023-08-07T04:30:50.000Z</time>
</trkpt>
<trkpt lat="46.0862420" lon="10.4974020">
	<ele>2011.20</ele>
	<time>2023-08-07T04:30:51.000Z</time>
</trkpt>
<trkpt lat="46.0862560" lon="10.4974040">
	<ele>2011.40</ele>
	<time>2023-08-07T04:30:52.000Z</time>
</trkpt>
<trkpt lat="46.0862710" lon="10.4974050">
	<ele>2011.40</ele>
	<time>2023-08-07T04:30:53.000Z</time>
</trkpt>
<trkpt lat="46.0862810" lon="10.4974080">
	<ele>2011.60</ele>
	<time>2023-08-07T04:30:54.000Z</time>
</trkpt>
<trkpt lat="46.0862890" lon="10.4974170">
	<ele>2011.80</ele>
	<time>2023-08-07T04:30:55.000Z</time>
</trkpt>
<trkpt lat="46.0862970" lon="10.4974240">
	<ele>2011.80</ele>
	<time>2023-08-07T04:30:56.000Z</time>
</trkpt>
<trkpt lat="46.0863090" lon="10.4974280">
	<ele>2011.80</ele>
	<time>2023-08-07T04:30:57.000Z</time>
</trkpt>
<trkpt lat="46.0863220" lon="10.4974300">
	<ele>2011.80</ele>
	<time>2023-08-07T04:30:58.000Z</time>
</trkpt>
<trkpt lat="46.0863360" lon="10.4974340">
	<ele>2011.80</ele>
	<time>2023-08-07T04:30:59.000Z</time>
</trkpt>
<trkpt lat="46.0863500" lon="10.4974350">
	<ele>2011.80</ele>
	<time>2023-08-07T04:31:00.000Z</time>
</trkpt>
<trkpt lat="46.0863740" lon="10.4974240">
	<ele>2011.80</ele>
	<time>2023-08-07T04:31:01.000Z</time>
</trkpt>
<trkpt lat="46.0863910" lon="10.4974250">
	<ele>2011.80</ele>
	<time>2023-08-07T04:31:02.000Z</time>
</trkpt>
<trkpt lat="46.0864050" lon="10.4974250">
	<ele>2011.80</ele>
	<time>2023-08-07T04:31:03.000Z</time>
</trkpt>
<trkpt lat="46.0864180" lon="10.4974260">
	<ele>2011.80</ele>
	<time>2023-08-07T04:31:04.000Z</time>
</trkpt>
<trkpt lat="46.0864270" lon="10.4974300">
	<ele>2011.80</ele>
	<time>2023-08-07T04:31:05.000Z</time>
</trkpt>
<trkpt lat="46.0864340" lon="10.4974430">
	<ele>2011.80</ele>
	<time>2023-08-07T04:31:06.000Z</time>
</trkpt>
<trkpt lat="46.0864410" lon="10.4974540">
	<ele>2011.60</ele>
	<time>2023-08-07T04:31:07.000Z</time>
</trkpt>
<trkpt lat="46.0864510" lon="10.4974590">
	<ele>2011.60</ele>
	<time>2023-08-07T04:31:08.000Z</time>
</trkpt>
<trkpt lat="46.0864630" lon="10.4974660">
	<ele>2011.60</ele>
	<time>2023-08-07T04:31:09.000Z</time>
</trkpt>
<trkpt lat="46.0864730" lon="10.4974640">
	<ele>2011.60</ele>
	<time>2023-08-07T04:31:10.000Z</time>
</trkpt>
<trkpt lat="46.0864880" lon="10.4974640">
	<ele>2011.60</ele>
	<time>2023-08-07T04:31:11.000Z</time>
</trkpt>
<trkpt lat="46.0864990" lon="10.4974620">
	<ele>2011.60</ele>
	<time>2023-08-07T04:31:12.000Z</time>
</trkpt>
<trkpt lat="46.0865140" lon="10.4974580">
	<ele>2011.60</ele>
	<time>2023-08-07T04:31:13.000Z</time>
</trkpt>
<trkpt lat="46.0865270" lon="10.4974590">
	<ele>2011.40</ele>
	<time>2023-08-07T04:31:14.000Z</time>
</trkpt>
<trkpt lat="46.0865420" lon="10.4974650">
	<ele>2011.20</ele>
	<time>2023-08-07T04:31:15.000Z</time>
</trkpt>
<trkpt lat="46.0865560" lon="10.4974710">
	<ele>2011.20</ele>
	<time>2023-08-07T04:31:16.000Z</time>
</trkpt>
<trkpt lat="46.0865690" lon="10.4974750">
	<ele>2011.20</ele>
	<time>2023-08-07T04:31:17.000Z</time>
</trkpt>
<trkpt lat="46.0865810" lon="10.4974770">
	<ele>2011.40</ele>
	<time>2023-08-07T04:31:18.000Z</time>
</trkpt>
<trkpt lat="46.0865960" lon="10.4974780">
	<ele>2011.40</ele>
	<time>2023-08-07T04:31:19.000Z</time>
</trkpt>
<trkpt lat="46.0866080" lon="10.4974840">
	<ele>2011.40</ele>
	<time>2023-08-07T04:31:20.000Z</time>
</trkpt>
<trkpt lat="46.0866210" lon="10.4974890">
	<ele>2011.60</ele>
	<time>2023-08-07T04:31:21.000Z</time>
</trkpt>
<trkpt lat="46.0866340" lon="10.4974960">
	<ele>2011.80</ele>
	<time>2023-08-07T04:31:22.000Z</time>
</trkpt>
<trkpt lat="46.0866460" lon="10.4975040">
	<ele>2012.00</ele>
	<time>2023-08-07T04:31:23.000Z</time>
</trkpt>
<trkpt lat="46.0866550" lon="10.4975130">
	<ele>2012.00</ele>
	<time>2023-08-07T04:31:24.000Z</time>
</trkpt>
<trkpt lat="46.0866670" lon="10.4975210">
	<ele>2012.20</ele>
	<time>2023-08-07T04:31:25.000Z</time>
</trkpt>
<trkpt lat="46.0866790" lon="10.4975280">
	<ele>2012.20</ele>
	<time>2023-08-07T04:31:26.000Z</time>
</trkpt>
<trkpt lat="46.0866890" lon="10.4975350">
	<ele>2012.20</ele>
	<time>2023-08-07T04:31:27.000Z</time>
</trkpt>
<trkpt lat="46.0866970" lon="10.4975410">
	<ele>2012.40</ele>
	<time>2023-08-07T04:31:28.000Z</time>
</trkpt>
<trkpt lat="46.0867060" lon="10.4975470">
	<ele>2012.40</ele>
	<time>2023-08-07T04:31:29.000Z</time>
</trkpt>
<trkpt lat="46.0867160" lon="10.4975550">
	<ele>2012.40</ele>
	<time>2023-08-07T04:31:30.000Z</time>
</trkpt>
<trkpt lat="46.0867280" lon="10.4975620">
	<ele>2012.40</ele>
	<time>2023-08-07T04:31:31.000Z</time>
</trkpt>
<trkpt lat="46.0867400" lon="10.4975680">
	<ele>2012.40</ele>
	<time>2023-08-07T04:31:32.000Z</time>
</trkpt>
<trkpt lat="46.0867520" lon="10.4975750">
	<ele>2012.40</ele>
	<time>2023-08-07T04:31:33.000Z</time>
</trkpt>
<trkpt lat="46.0867650" lon="10.4975810">
	<ele>2012.40</ele>
	<time>2023-08-07T04:31:34.000Z</time>
</trkpt>
<trkpt lat="46.0867780" lon="10.4975870">
	<ele>2012.40</ele>
	<time>2023-08-07T04:31:35.000Z</time>
</trkpt>
<trkpt lat="46.0867910" lon="10.4975900">
	<ele>2012.40</ele>
	<time>2023-08-07T04:31:36.000Z</time>
</trkpt>
<trkpt lat="46.0868040" lon="10.4975950">
	<ele>2012.40</ele>
	<time>2023-08-07T04:31:37.000Z</time>
</trkpt>
<trkpt lat="46.0868190" lon="10.4975970">
	<ele>2012.60</ele>
	<time>2023-08-07T04:31:38.000Z</time>
</trkpt>
<trkpt lat="46.0868360" lon="10.4975950">
	<ele>2012.80</ele>
	<time>2023-08-07T04:31:39.000Z</time>
</trkpt>
<trkpt lat="46.0868520" lon="10.4975950">
	<ele>2013.00</ele>
	<time>2023-08-07T04:31:40.000Z</time>
</trkpt>
<trkpt lat="46.0868700" lon="10.4975910">
	<ele>2013.00</ele>
	<time>2023-08-07T04:31:41.000Z</time>
</trkpt>
<trkpt lat="46.0868850" lon="10.4975940">
	<ele>2013.00</ele>
	<time>2023-08-07T04:31:42.000Z</time>
</trkpt>
<trkpt lat="46.0868970" lon="10.4975950">
	<ele>2013.00</ele>
	<time>2023-08-07T04:31:43.000Z</time>
</trkpt>
<trkpt lat="46.0869090" lon="10.4975970">
	<ele>2013.00</ele>
	<time>2023-08-07T04:31:44.000Z</time>
</trkpt>
<trkpt lat="46.0869220" lon="10.4976000">
	<ele>2012.80</ele>
	<time>2023-08-07T04:31:45.000Z</time>
</trkpt>
<trkpt lat="46.0869320" lon="10.4976050">
	<ele>2012.80</ele>
	<time>2023-08-07T04:31:46.000Z</time>
</trkpt>
<trkpt lat="46.0869380" lon="10.4976120">
	<ele>2012.80</ele>
	<time>2023-08-07T04:31:47.000Z</time>
</trkpt>
<trkpt lat="46.0869480" lon="10.4976190">
	<ele>2012.80</ele>
	<time>2023-08-07T04:31:48.000Z</time>
</trkpt>
<trkpt lat="46.0869600" lon="10.4976250">
	<ele>2012.80</ele>
	<time>2023-08-07T04:31:49.000Z</time>
</trkpt>
<trkpt lat="46.0869710" lon="10.4976330">
	<ele>2012.80</ele>
	<time>2023-08-07T04:31:50.000Z</time>
</trkpt>
<trkpt lat="46.0869810" lon="10.4976420">
	<ele>2013.00</ele>
	<time>2023-08-07T04:31:51.000Z</time>
</trkpt>
<trkpt lat="46.0869920" lon="10.4976510">
	<ele>2013.00</ele>
	<time>2023-08-07T04:31:52.000Z</time>
</trkpt>
<trkpt lat="46.0870030" lon="10.4976600">
	<ele>2013.00</ele>
	<time>2023-08-07T04:31:53.000Z</time>
</trkpt>
<trkpt lat="46.0870170" lon="10.4976710">
	<ele>2012.80</ele>
	<time>2023-08-07T04:31:54.000Z</time>
</trkpt>
<trkpt lat="46.0870280" lon="10.4976840">
	<ele>2012.60</ele>
	<time>2023-08-07T04:31:55.000Z</time>
</trkpt>
<trkpt lat="46.0870380" lon="10.4977030">
	<ele>2012.60</ele>
	<time>2023-08-07T04:31:56.000Z</time>
</trkpt>
<trkpt lat="46.0870470" lon="10.4977200">
	<ele>2012.60</ele>
	<time>2023-08-07T04:31:57.000Z</time>
</trkpt>
<trkpt lat="46.0870540" lon="10.4977360">
	<ele>2012.60</ele>
	<time>2023-08-07T04:31:58.000Z</time>
</trkpt>
<trkpt lat="46.0870620" lon="10.4977500">
	<ele>2012.60</ele>
	<time>2023-08-07T04:31:59.000Z</time>
</trkpt>
<trkpt lat="46.0870710" lon="10.4977660">
	<ele>2012.60</ele>
	<time>2023-08-07T04:32:00.000Z</time>
</trkpt>
<trkpt lat="46.0870810" lon="10.4977790">
	<ele>2012.60</ele>
	<time>2023-08-07T04:32:01.000Z</time>
</trkpt>
<trkpt lat="46.0870960" lon="10.4977880">
	<ele>2012.60</ele>
	<time>2023-08-07T04:32:02.000Z</time>
</trkpt>
<trkpt lat="46.0871070" lon="10.4978010">
	<ele>2012.60</ele>
	<time>2023-08-07T04:32:03.000Z</time>
</trkpt>
<trkpt lat="46.0871160" lon="10.4978160">
	<ele>2012.40</ele>
	<time>2023-08-07T04:32:04.000Z</time>
</trkpt>
<trkpt lat="46.0871260" lon="10.4978290">
	<ele>2012.00</ele>
	<time>2023-08-07T04:32:05.000Z</time>
</trkpt>
<trkpt lat="46.0871340" lon="10.4978360">
	<ele>2011.80</ele>
	<time>2023-08-07T04:32:06.000Z</time>
</trkpt>
<trkpt lat="46.0871450" lon="10.4978410">
	<ele>2011.80</ele>
	<time>2023-08-07T04:32:07.000Z</time>
</trkpt>
<trkpt lat="46.0871560" lon="10.4978420">
	<ele>2011.80</ele>
	<time>2023-08-07T04:32:08.000Z</time>
</trkpt>
<trkpt lat="46.0871630" lon="10.4978480">
	<ele>2011.80</ele>
	<time>2023-08-07T04:32:09.000Z</time>
</trkpt>
<trkpt lat="46.0871720" lon="10.4978540">
	<ele>2011.80</ele>
	<time>2023-08-07T04:32:10.000Z</time>
</trkpt>
<trkpt lat="46.0871810" lon="10.4978600">
	<ele>2011.80</ele>
	<time>2023-08-07T04:32:11.000Z</time>
</trkpt>
<trkpt lat="46.0871910" lon="10.4978690">
	<ele>2012.00</ele>
	<time>2023-08-07T04:32:12.000Z</time>
</trkpt>
<trkpt lat="46.0872010" lon="10.4978830">
	<ele>2012.20</ele>
	<time>2023-08-07T04:32:13.000Z</time>
</trkpt>
<trkpt lat="46.0872120" lon="10.4978970">
	<ele>2012.20</ele>
	<time>2023-08-07T04:32:14.000Z</time>
</trkpt>
<trkpt lat="46.0872250" lon="10.4979120">
	<ele>2012.20</ele>
	<time>2023-08-07T04:32:15.000Z</time>
</trkpt>
<trkpt lat="46.0872380" lon="10.4979260">
	<ele>2012.40</ele>
	<time>2023-08-07T04:32:16.000Z</time>
</trkpt>
<trkpt lat="46.0872510" lon="10.4979360">
	<ele>2012.60</ele>
	<time>2023-08-07T04:32:17.000Z</time>
</trkpt>
<trkpt lat="46.0872640" lon="10.4979470">
	<ele>2012.80</ele>
	<time>2023-08-07T04:32:18.000Z</time>
</trkpt>
<trkpt lat="46.0872790" lon="10.4979600">
	<ele>2012.80</ele>
	<time>2023-08-07T04:32:19.000Z</time>
</trkpt>
<trkpt lat="46.0872910" lon="10.4979720">
	<ele>2012.80</ele>
	<time>2023-08-07T04:32:20.000Z</time>
</trkpt>
<trkpt lat="46.0873010" lon="10.4979850">
	<ele>2012.80</ele>
	<time>2023-08-07T04:32:21.000Z</time>
</trkpt>
<trkpt lat="46.0873080" lon="10.4980040">
	<ele>2012.80</ele>
	<time>2023-08-07T04:32:22.000Z</time>
</trkpt>
<trkpt lat="46.0873240" lon="10.4980070">
	<ele>2012.80</ele>
	<time>2023-08-07T04:32:23.000Z</time>
</trkpt>
<trkpt lat="46.0873390" lon="10.4980100">
	<ele>2013.00</ele>
	<time>2023-08-07T04:32:24.000Z</time>
</trkpt>
<trkpt lat="46.0873580" lon="10.4980150">
	<ele>2013.00</ele>
	<time>2023-08-07T04:32:25.000Z</time>
</trkpt>
<trkpt lat="46.0873720" lon="10.4980230">
	<ele>2013.00</ele>
	<time>2023-08-07T04:32:26.000Z</time>
</trkpt>
<trkpt lat="46.0873820" lon="10.4980380">
	<ele>2013.00</ele>
	<time>2023-08-07T04:32:27.000Z</time>
</trkpt>
<trkpt lat="46.0873870" lon="10.4980510">
	<ele>2013.00</ele>
	<time>2023-08-07T04:32:28.000Z</time>
</trkpt>
<trkpt lat="46.0873920" lon="10.4980680">
	<ele>2013.00</ele>
	<time>2023-08-07T04:32:29.000Z</time>
</trkpt>
<trkpt lat="46.0873990" lon="10.4980840">
	<ele>2013.00</ele>
	<time>2023-08-07T04:32:30.000Z</time>
</trkpt>
<trkpt lat="46.0874050" lon="10.4981010">
	<ele>2013.20</ele>
	<time>2023-08-07T04:32:31.000Z</time>
</trkpt>
<trkpt lat="46.0874110" lon="10.4981180">
	<ele>2013.20</ele>
	<time>2023-08-07T04:32:32.000Z</time>
</trkpt>
<trkpt lat="46.0874170" lon="10.4981340">
	<ele>2013.20</ele>
	<time>2023-08-07T04:32:33.000Z</time>
</trkpt>
<trkpt lat="46.0874280" lon="10.4981460">
	<ele>2013.20</ele>
	<time>2023-08-07T04:32:34.000Z</time>
</trkpt>
<trkpt lat="46.0874370" lon="10.4981600">
	<ele>2013.20</ele>
	<time>2023-08-07T04:32:35.000Z</time>
</trkpt>
<trkpt lat="46.0874460" lon="10.4981710">
	<ele>2013.20</ele>
	<time>2023-08-07T04:32:36.000Z</time>
</trkpt>
<trkpt lat="46.0874570" lon="10.4981830">
	<ele>2013.40</ele>
	<time>2023-08-07T04:32:37.000Z</time>
</trkpt>
<trkpt lat="46.0874680" lon="10.4981960">
	<ele>2013.40</ele>
	<time>2023-08-07T04:32:38.000Z</time>
</trkpt>
<trkpt lat="46.0874810" lon="10.4982040">
	<ele>2013.40</ele>
	<time>2023-08-07T04:32:39.000Z</time>
</trkpt>
<trkpt lat="46.0874930" lon="10.4982110">
	<ele>2013.40</ele>
	<time>2023-08-07T04:32:40.000Z</time>
</trkpt>
<trkpt lat="46.0875040" lon="10.4982190">
	<ele>2013.40</ele>
	<time>2023-08-07T04:32:41.000Z</time>
</trkpt>
<trkpt lat="46.0875130" lon="10.4982260">
	<ele>2013.40</ele>
	<time>2023-08-07T04:32:42.000Z</time>
</trkpt>
<trkpt lat="46.0875240" lon="10.4982300">
	<ele>2013.40</ele>
	<time>2023-08-07T04:32:43.000Z</time>
</trkpt>
<trkpt lat="46.0875350" lon="10.4982340">
	<ele>2013.40</ele>
	<time>2023-08-07T04:32:44.000Z</time>
</trkpt>
<trkpt lat="46.0875460" lon="10.4982390">
	<ele>2013.40</ele>
	<time>2023-08-07T04:32:45.000Z</time>
</trkpt>
<trkpt lat="46.0875570" lon="10.4982460">
	<ele>2013.40</ele>
	<time>2023-08-07T04:32:46.000Z</time>
</trkpt>
<trkpt lat="46.0875670" lon="10.4982520">
	<ele>2013.20</ele>
	<time>2023-08-07T04:32:47.000Z</time>
</trkpt>
<trkpt lat="46.0875780" lon="10.4982590">
	<ele>2013.20</ele>
	<time>2023-08-07T04:32:48.000Z</time>
</trkpt>
<trkpt lat="46.0875880" lon="10.4982680">
	<ele>2013.20</ele>
	<time>2023-08-07T04:32:49.000Z</time>
</trkpt>
<trkpt lat="46.0876000" lon="10.4982790">
	<ele>2013.20</ele>
	<time>2023-08-07T04:32:50.000Z</time>
</trkpt>
<trkpt lat="46.0876130" lon="10.4982850">
	<ele>2013.40</ele>
	<time>2023-08-07T04:32:51.000Z</time>
</trkpt>
<trkpt lat="46.0876280" lon="10.4982920">
	<ele>2013.60</ele>
	<time>2023-08-07T04:32:52.000Z</time>
</trkpt>
<trkpt lat="46.0876450" lon="10.4983000">
	<ele>2013.60</ele>
	<time>2023-08-07T04:32:53.000Z</time>
</trkpt>
<trkpt lat="46.0876610" lon="10.4983110">
	<ele>2013.80</ele>
	<time>2023-08-07T04:32:54.000Z</time>
</trkpt>
<trkpt lat="46.0876750" lon="10.4983220">
	<ele>2014.00</ele>
	<time>2023-08-07T04:32:55.000Z</time>
</trkpt>
<trkpt lat="46.0876880" lon="10.4983350">
	<ele>2014.00</ele>
	<time>2023-08-07T04:32:56.000Z</time>
</trkpt>
<trkpt lat="46.0876970" lon="10.4983520">
	<ele>2014.00</ele>
	<time>2023-08-07T04:32:57.000Z</time>
</trkpt>
<trkpt lat="46.0877110" lon="10.4983640">
	<ele>2014.00</ele>
	<time>2023-08-07T04:32:58.000Z</time>
</trkpt>
<trkpt lat="46.0877220" lon="10.4983730">
	<ele>2014.00</ele>
	<time>2023-08-07T04:32:59.000Z</time>
</trkpt>
<trkpt lat="46.0877350" lon="10.4983780">
	<ele>2014.00</ele>
	<time>2023-08-07T04:33:00.000Z</time>
</trkpt>
<trkpt lat="46.0877450" lon="10.4983910">
	<ele>2014.00</ele>
	<time>2023-08-07T04:33:01.000Z</time>
</trkpt>
<trkpt lat="46.0877560" lon="10.4983980">
	<ele>2014.00</ele>
	<time>2023-08-07T04:33:02.000Z</time>
</trkpt>
<trkpt lat="46.0877670" lon="10.4984000">
	<ele>2014.00</ele>
	<time>2023-08-07T04:33:03.000Z</time>
</trkpt>
<trkpt lat="46.0877810" lon="10.4984020">
	<ele>2014.00</ele>
	<time>2023-08-07T04:33:04.000Z</time>
</trkpt>
<trkpt lat="46.0877950" lon="10.4984040">
	<ele>2014.00</ele>
	<time>2023-08-07T04:33:05.000Z</time>
</trkpt>
<trkpt lat="46.0878080" lon="10.4984090">
	<ele>2014.00</ele>
	<time>2023-08-07T04:33:06.000Z</time>
</trkpt>
<trkpt lat="46.0878220" lon="10.4984180">
	<ele>2014.00</ele>
	<time>2023-08-07T04:33:07.000Z</time>
</trkpt>
<trkpt lat="46.0878320" lon="10.4984290">
	<ele>2013.80</ele>
	<time>2023-08-07T04:33:08.000Z</time>
</trkpt>
<trkpt lat="46.0878350" lon="10.4984430">
	<ele>2013.80</ele>
	<time>2023-08-07T04:33:09.000Z</time>
</trkpt>
<trkpt lat="46.0878360" lon="10.4984610">
	<ele>2013.80</ele>
	<time>2023-08-07T04:33:10.000Z</time>
</trkpt>
<trkpt lat="46.0878390" lon="10.4984800">
	<ele>2013.80</ele>
	<time>2023-08-07T04:33:11.000Z</time>
</trkpt>
<trkpt lat="46.0878460" lon="10.4984980">
	<ele>2013.80</ele>
	<time>2023-08-07T04:33:12.000Z</time>
</trkpt>
<trkpt lat="46.0878550" lon="10.4985130">
	<ele>2013.80</ele>
	<time>2023-08-07T04:33:13.000Z</time>
</trkpt>
<trkpt lat="46.0878620" lon="10.4985220">
	<ele>2013.80</ele>
	<time>2023-08-07T04:33:14.000Z</time>
</trkpt>
<trkpt lat="46.0878710" lon="10.4985340">
	<ele>2013.80</ele>
	<time>2023-08-07T04:33:15.000Z</time>
</trkpt>
<trkpt lat="46.0878810" lon="10.4985480">
	<ele>2013.60</ele>
	<time>2023-08-07T04:33:16.000Z</time>
</trkpt>
<trkpt lat="46.0878900" lon="10.4985660">
	<ele>2013.60</ele>
	<time>2023-08-07T04:33:17.000Z</time>
</trkpt>
<trkpt lat="46.0878970" lon="10.4985860">
	<ele>2013.40</ele>
	<time>2023-08-07T04:33:18.000Z</time>
</trkpt>
<trkpt lat="46.0879070" lon="10.4986010">
	<ele>2013.20</ele>
	<time>2023-08-07T04:33:19.000Z</time>
</trkpt>
<trkpt lat="46.0879170" lon="10.4986130">
	<ele>2013.20</ele>
	<time>2023-08-07T04:33:20.000Z</time>
</trkpt>
<trkpt lat="46.0879280" lon="10.4986270">
	<ele>2013.20</ele>
	<time>2023-08-07T04:33:21.000Z</time>
</trkpt>
<trkpt lat="46.0879400" lon="10.4986400">
	<ele>2013.00</ele>
	<time>2023-08-07T04:33:22.000Z</time>
</trkpt>
<trkpt lat="46.0879500" lon="10.4986550">
	<ele>2013.00</ele>
	<time>2023-08-07T04:33:23.000Z</time>
</trkpt>
<trkpt lat="46.0879580" lon="10.4986710">
	<ele>2013.00</ele>
	<time>2023-08-07T04:33:24.000Z</time>
</trkpt>
<trkpt lat="46.0879680" lon="10.4986870">
	<ele>2013.00</ele>
	<time>2023-08-07T04:33:25.000Z</time>
</trkpt>
<trkpt lat="46.0879800" lon="10.4987070">
	<ele>2013.00</ele>
	<time>2023-08-07T04:33:26.000Z</time>
</trkpt>
<trkpt lat="46.0879910" lon="10.4987260">
	<ele>2013.40</ele>
	<time>2023-08-07T04:33:27.000Z</time>
</trkpt>
<trkpt lat="46.0880030" lon="10.4987380">
	<ele>2013.60</ele>
	<time>2023-08-07T04:33:28.000Z</time>
</trkpt>
<trkpt lat="46.0880140" lon="10.4987510">
	<ele>2013.60</ele>
	<time>2023-08-07T04:33:29.000Z</time>
</trkpt>
<trkpt lat="46.0880250" lon="10.4987640">
	<ele>2013.60</ele>
	<time>2023-08-07T04:33:30.000Z</time>
</trkpt>
<trkpt lat="46.0880390" lon="10.4987780">
	<ele>2013.60</ele>
	<time>2023-08-07T04:33:31.000Z</time>
</trkpt>
<trkpt lat="46.0880500" lon="10.4987930">
	<ele>2013.60</ele>
	<time>2023-08-07T04:33:32.000Z</time>
</trkpt>
<trkpt lat="46.0880590" lon="10.4988110">
	<ele>2013.60</ele>
	<time>2023-08-07T04:33:33.000Z</time>
</trkpt>
<trkpt lat="46.0880670" lon="10.4988280">
	<ele>2013.60</ele>
	<time>2023-08-07T04:33:34.000Z</time>
</trkpt>
<trkpt lat="46.0880750" lon="10.4988460">
	<ele>2013.60</ele>
	<time>2023-08-07T04:33:35.000Z</time>
</trkpt>
<trkpt lat="46.0880850" lon="10.4988610">
	<ele>2013.80</ele>
	<time>2023-08-07T04:33:36.000Z</time>
</trkpt>
<trkpt lat="46.0880930" lon="10.4988770">
	<ele>2013.80</ele>
	<time>2023-08-07T04:33:37.000Z</time>
</trkpt>
<trkpt lat="46.0880990" lon="10.4988930">
	<ele>2013.80</ele>
	<time>2023-08-07T04:33:38.000Z</time>
</trkpt>
<trkpt lat="46.0881050" lon="10.4989080">
	<ele>2013.80</ele>
	<time>2023-08-07T04:33:39.000Z</time>
</trkpt>
<trkpt lat="46.0881120" lon="10.4989190">
	<ele>2013.80</ele>
	<time>2023-08-07T04:33:40.000Z</time>
</trkpt>
<trkpt lat="46.0881170" lon="10.4989300">
	<ele>2013.80</ele>
	<time>2023-08-07T04:33:41.000Z</time>
</trkpt>
<trkpt lat="46.0881250" lon="10.4989380">
	<ele>2013.80</ele>
	<time>2023-08-07T04:33:42.000Z</time>
</trkpt>
<trkpt lat="46.0881330" lon="10.4989500">
	<ele>2013.80</ele>
	<time>2023-08-07T04:33:43.000Z</time>
</trkpt>
<trkpt lat="46.0881410" lon="10.4989630">
	<ele>2013.80</ele>
	<time>2023-08-07T04:33:44.000Z</time>
</trkpt>
<trkpt lat="46.0881440" lon="10.4989800">
	<ele>2013.80</ele>
	<time>2023-08-07T04:33:45.000Z</time>
</trkpt>
<trkpt lat="46.0881500" lon="10.4989970">
	<ele>2013.80</ele>
	<time>2023-08-07T04:33:46.000Z</time>
</trkpt>
<trkpt lat="46.0881590" lon="10.4990110">
	<ele>2013.80</ele>
	<time>2023-08-07T04:33:47.000Z</time>
</trkpt>
<trkpt lat="46.0881700" lon="10.4990270">
	<ele>2013.80</ele>
	<time>2023-08-07T04:33:48.000Z</time>
</trkpt>
<trkpt lat="46.0881840" lon="10.4990430">
	<ele>2013.80</ele>
	<time>2023-08-07T04:33:49.000Z</time>
</trkpt>
<trkpt lat="46.0881940" lon="10.4990610">
	<ele>2013.80</ele>
	<time>2023-08-07T04:33:50.000Z</time>
</trkpt>
<trkpt lat="46.0881980" lon="10.4990830">
	<ele>2014.00</ele>
	<time>2023-08-07T04:33:51.000Z</time>
</trkpt>
<trkpt lat="46.0882060" lon="10.4990980">
	<ele>2014.00</ele>
	<time>2023-08-07T04:33:52.000Z</time>
</trkpt>
<trkpt lat="46.0882150" lon="10.4991110">
	<ele>2014.20</ele>
	<time>2023-08-07T04:33:53.000Z</time>
</trkpt>
<trkpt lat="46.0882220" lon="10.4991290">
	<ele>2014.20</ele>
	<time>2023-08-07T04:33:54.000Z</time>
</trkpt>
<trkpt lat="46.0882330" lon="10.4991420">
	<ele>2014.40</ele>
	<time>2023-08-07T04:33:55.000Z</time>
</trkpt>
<trkpt lat="46.0882430" lon="10.4991600">
	<ele>2014.40</ele>
	<time>2023-08-07T04:33:56.000Z</time>
</trkpt>
<trkpt lat="46.0882550" lon="10.4991700">
	<ele>2014.60</ele>
	<time>2023-08-07T04:33:57.000Z</time>
</trkpt>
<trkpt lat="46.0882670" lon="10.4991800">
	<ele>2014.60</ele>
	<time>2023-08-07T04:33:58.000Z</time>
</trkpt>
<trkpt lat="46.0882790" lon="10.4991930">
	<ele>2014.80</ele>
	<time>2023-08-07T04:33:59.000Z</time>
</trkpt>
<trkpt lat="46.0882900" lon="10.4992070">
	<ele>2014.80</ele>
	<time>2023-08-07T04:34:00.000Z</time>
</trkpt>
<trkpt lat="46.0882990" lon="10.4992160">
	<ele>2014.80</ele>
	<time>2023-08-07T04:34:01.000Z</time>
</trkpt>
<trkpt lat="46.0883020" lon="10.4992150">
	<ele>2014.80</ele>
	<time>2023-08-07T04:34:02.000Z</time>
</trkpt>
<trkpt lat="46.0883080" lon="10.4992230">
	<ele>2014.80</ele>
	<time>2023-08-07T04:34:03.000Z</time>
</trkpt>
<trkpt lat="46.0883200" lon="10.4992270">
	<ele>2015.00</ele>
	<time>2023-08-07T04:34:04.000Z</time>
</trkpt>
<trkpt lat="46.0883280" lon="10.4992370">
	<ele>2015.00</ele>
	<time>2023-08-07T04:34:05.000Z</time>
</trkpt>
<trkpt lat="46.0883380" lon="10.4992430">
	<ele>2015.00</ele>
	<time>2023-08-07T04:34:06.000Z</time>
</trkpt>
<trkpt lat="46.0883490" lon="10.4992530">
	<ele>2015.20</ele>
	<time>2023-08-07T04:34:07.000Z</time>
</trkpt>
<trkpt lat="46.0883610" lon="10.4992620">
	<ele>2015.20</ele>
	<time>2023-08-07T04:34:08.000Z</time>
</trkpt>
<trkpt lat="46.0883710" lon="10.4992730">
	<ele>2015.40</ele>
	<time>2023-08-07T04:34:09.000Z</time>
</trkpt>
<trkpt lat="46.0883780" lon="10.4992820">
	<ele>2015.60</ele>
	<time>2023-08-07T04:34:10.000Z</time>
</trkpt>
<trkpt lat="46.0883860" lon="10.4992900">
	<ele>2015.80</ele>
	<time>2023-08-07T04:34:11.000Z</time>
</trkpt>
<trkpt lat="46.0883930" lon="10.4992970">
	<ele>2016.00</ele>
	<time>2023-08-07T04:34:12.000Z</time>
</trkpt>
<trkpt lat="46.0883990" lon="10.4993050">
	<ele>2016.00</ele>
	<time>2023-08-07T04:34:13.000Z</time>
</trkpt>
<trkpt lat="46.0884080" lon="10.4993130">
	<ele>2016.00</ele>
	<time>2023-08-07T04:34:14.000Z</time>
</trkpt>
<trkpt lat="46.0884170" lon="10.4993210">
	<ele>2016.00</ele>
	<time>2023-08-07T04:34:15.000Z</time>
</trkpt>
<trkpt lat="46.0884270" lon="10.4993300">
	<ele>2016.00</ele>
	<time>2023-08-07T04:34:16.000Z</time>
</trkpt>
<trkpt lat="46.0884370" lon="10.4993400">
	<ele>2016.00</ele>
	<time>2023-08-07T04:34:17.000Z</time>
</trkpt>
<trkpt lat="46.0884460" lon="10.4993520">
	<ele>2016.00</ele>
	<time>2023-08-07T04:34:18.000Z</time>
</trkpt>
<trkpt lat="46.0884560" lon="10.4993680">
	<ele>2016.00</ele>
	<time>2023-08-07T04:34:19.000Z</time>
</trkpt>
<trkpt lat="46.0884620" lon="10.4993830">
	<ele>2016.00</ele>
	<time>2023-08-07T04:34:20.000Z</time>
</trkpt>
<trkpt lat="46.0884670" lon="10.4993970">
	<ele>2016.20</ele>
	<time>2023-08-07T04:34:21.000Z</time>
</trkpt>
<trkpt lat="46.0884760" lon="10.4994060">
	<ele>2016.20</ele>
	<time>2023-08-07T04:34:22.000Z</time>
</trkpt>
<trkpt lat="46.0884880" lon="10.4994130">
	<ele>2016.20</ele>
	<time>2023-08-07T04:34:23.000Z</time>
</trkpt>
<trkpt lat="46.0885000" lon="10.4994200">
	<ele>2016.40</ele>
	<time>2023-08-07T04:34:24.000Z</time>
</trkpt>
<trkpt lat="46.0885090" lon="10.4994290">
	<ele>2016.40</ele>
	<time>2023-08-07T04:34:25.000Z</time>
</trkpt>
<trkpt lat="46.0885160" lon="10.4994390">
	<ele>2016.60</ele>
	<time>2023-08-07T04:34:26.000Z</time>
</trkpt>
<trkpt lat="46.0885280" lon="10.4994480">
	<ele>2016.60</ele>
	<time>2023-08-07T04:34:27.000Z</time>
</trkpt>
<trkpt lat="46.0885360" lon="10.4994630">
	<ele>2016.60</ele>
	<time>2023-08-07T04:34:28.000Z</time>
</trkpt>
<trkpt lat="46.0885420" lon="10.4994760">
	<ele>2016.60</ele>
	<time>2023-08-07T04:34:29.000Z</time>
</trkpt>
<trkpt lat="46.0885510" lon="10.4994870">
	<ele>2016.80</ele>
	<time>2023-08-07T04:34:30.000Z</time>
</trkpt>
<trkpt lat="46.0885640" lon="10.4994950">
	<ele>2017.00</ele>
	<time>2023-08-07T04:34:31.000Z</time>
</trkpt>
<trkpt lat="46.0885750" lon="10.4995010">
	<ele>2017.00</ele>
	<time>2023-08-07T04:34:32.000Z</time>
</trkpt>
<trkpt lat="46.0885870" lon="10.4995150">
	<ele>2017.00</ele>
	<time>2023-08-07T04:34:33.000Z</time>
</trkpt>
<trkpt lat="46.0885970" lon="10.4995250">
	<ele>2017.00</ele>
	<time>2023-08-07T04:34:34.000Z</time>
</trkpt>
<trkpt lat="46.0886070" lon="10.4995310">
	<ele>2017.00</ele>
	<time>2023-08-07T04:34:35.000Z</time>
</trkpt>
<trkpt lat="46.0886150" lon="10.4995390">
	<ele>2016.80</ele>
	<time>2023-08-07T04:34:36.000Z</time>
</trkpt>
<trkpt lat="46.0886220" lon="10.4995440">
	<ele>2016.80</ele>
	<time>2023-08-07T04:34:37.000Z</time>
</trkpt>
<trkpt lat="46.0886260" lon="10.4995450">
	<ele>2016.80</ele>
	<time>2023-08-07T04:34:38.000Z</time>
</trkpt>
<trkpt lat="46.0886290" lon="10.4995440">
	<ele>2016.80</ele>
	<time>2023-08-07T04:34:39.000Z</time>
</trkpt>
<trkpt lat="46.0886300" lon="10.4995460">
	<ele>2017.00</ele>
	<time>2023-08-07T04:34:40.000Z</time>
</trkpt>
<trkpt lat="46.0886300" lon="10.4995470">
	<ele>2017.00</ele>
	<time>2023-08-07T04:34:41.000Z</time>
</trkpt>
<trkpt lat="46.0886290" lon="10.4995460">
	<ele>2017.20</ele>
	<time>2023-08-07T04:34:42.000Z</time>
</trkpt>
<trkpt lat="46.0886250" lon="10.4995460">
	<ele>2017.40</ele>
	<time>2023-08-07T04:34:43.000Z</time>
</trkpt>
<trkpt lat="46.0886230" lon="10.4995450">
	<ele>2017.40</ele>
	<time>2023-08-07T04:34:44.000Z</time>
</trkpt>
<trkpt lat="46.0886220" lon="10.4995440">
	<ele>2017.60</ele>
	<time>2023-08-07T04:34:45.000Z</time>
</trkpt>
<trkpt lat="46.0886210" lon="10.4995440">
	<ele>2017.60</ele>
	<time>2023-08-07T04:34:46.000Z</time>
</trkpt>
<trkpt lat="46.0886200" lon="10.4995430">
	<ele>2017.60</ele>
	<time>2023-08-07T04:34:47.000Z</time>
</trkpt>
<trkpt lat="46.0886180" lon="10.4995430">
	<ele>2017.80</ele>
	<time>2023-08-07T04:34:48.000Z</time>
</trkpt>
<trkpt lat="46.0886200" lon="10.4995420">
	<ele>2017.60</ele>
	<time>2023-08-07T04:34:49.000Z</time>
</trkpt>
<trkpt lat="46.0886250" lon="10.4995500">
	<ele>2017.60</ele>
	<time>2023-08-07T04:34:50.000Z</time>
</trkpt>
<trkpt lat="46.0886330" lon="10.4995590">
	<ele>2017.60</ele>
	<time>2023-08-07T04:34:51.000Z</time>
</trkpt>
<trkpt lat="46.0886440" lon="10.4995650">
	<ele>2017.40</ele>
	<time>2023-08-07T04:34:52.000Z</time>
</trkpt>
<trkpt lat="46.0886570" lon="10.4995700">
	<ele>2017.40</ele>
	<time>2023-08-07T04:34:53.000Z</time>
</trkpt>
<trkpt lat="46.0886690" lon="10.4995790">
	<ele>2017.40</ele>
	<time>2023-08-07T04:34:54.000Z</time>
</trkpt>
<trkpt lat="46.0886780" lon="10.4995940">
	<ele>2017.40</ele>
	<time>2023-08-07T04:34:55.000Z</time>
</trkpt>
<trkpt lat="46.0886870" lon="10.4996110">
	<ele>2017.40</ele>
	<time>2023-08-07T04:34:56.000Z</time>
</trkpt>
<trkpt lat="46.0886920" lon="10.4996210">
	<ele>2017.40</ele>
	<time>2023-08-07T04:34:57.000Z</time>
</trkpt>
<trkpt lat="46.0887000" lon="10.4996370">
	<ele>2017.60</ele>
	<time>2023-08-07T04:34:58.000Z</time>
</trkpt>
<trkpt lat="46.0887060" lon="10.4996480">
	<ele>2017.80</ele>
	<time>2023-08-07T04:34:59.000Z</time>
</trkpt>
<trkpt lat="46.0887170" lon="10.4996670">
	<ele>2018.00</ele>
	<time>2023-08-07T04:35:00.000Z</time>
</trkpt>
<trkpt lat="46.0887260" lon="10.4996800">
	<ele>2018.00</ele>
	<time>2023-08-07T04:35:01.000Z</time>
</trkpt>
<trkpt lat="46.0887360" lon="10.4996920">
	<ele>2018.00</ele>
	<time>2023-08-07T04:35:02.000Z</time>
</trkpt>
<trkpt lat="46.0887450" lon="10.4997030">
	<ele>2018.00</ele>
	<time>2023-08-07T04:35:03.000Z</time>
</trkpt>
<trkpt lat="46.0887520" lon="10.4997170">
	<ele>2018.20</ele>
	<time>2023-08-07T04:35:04.000Z</time>
</trkpt>
<trkpt lat="46.0887620" lon="10.4997330">
	<ele>2018.20</ele>
	<time>2023-08-07T04:35:05.000Z</time>
</trkpt>
<trkpt lat="46.0887710" lon="10.4997460">
	<ele>2018.40</ele>
	<time>2023-08-07T04:35:06.000Z</time>
</trkpt>
<trkpt lat="46.0887790" lon="10.4997540">
	<ele>2018.60</ele>
	<time>2023-08-07T04:35:07.000Z</time>
</trkpt>
<trkpt lat="46.0887880" lon="10.4997660">
	<ele>2018.80</ele>
	<time>2023-08-07T04:35:08.000Z</time>
</trkpt>
<trkpt lat="46.0887960" lon="10.4997750">
	<ele>2019.00</ele>
	<time>2023-08-07T04:35:09.000Z</time>
</trkpt>
<trkpt lat="46.0888050" lon="10.4997860">
	<ele>2019.20</ele>
	<time>2023-08-07T04:35:10.000Z</time>
</trkpt>
<trkpt lat="46.0888100" lon="10.4997950">
	<ele>2019.40</ele>
	<time>2023-08-07T04:35:11.000Z</time>
</trkpt>
<trkpt lat="46.0888170" lon="10.4998060">
	<ele>2019.60</ele>
	<time>2023-08-07T04:35:12.000Z</time>
</trkpt>
<trkpt lat="46.0888230" lon="10.4998190">
	<ele>2019.60</ele>
	<time>2023-08-07T04:35:13.000Z</time>
</trkpt>
<trkpt lat="46.0888310" lon="10.4998320">
	<ele>2019.80</ele>
	<time>2023-08-07T04:35:14.000Z</time>
</trkpt>
<trkpt lat="46.0888370" lon="10.4998470">
	<ele>2020.00</ele>
	<time>2023-08-07T04:35:15.000Z</time>
</trkpt>
<trkpt lat="46.0888410" lon="10.4998590">
	<ele>2020.20</ele>
	<time>2023-08-07T04:35:16.000Z</time>
</trkpt>
<trkpt lat="46.0888450" lon="10.4998720">
	<ele>2020.20</ele>
	<time>2023-08-07T04:35:17.000Z</time>
</trkpt>
<trkpt lat="46.0888490" lon="10.4998860">
	<ele>2020.60</ele>
	<time>2023-08-07T04:35:18.000Z</time>
</trkpt>
<trkpt lat="46.0888540" lon="10.4998970">
	<ele>2020.80</ele>
	<time>2023-08-07T04:35:19.000Z</time>
</trkpt>
<trkpt lat="46.0888560" lon="10.4999090">
	<ele>2020.80</ele>
	<time>2023-08-07T04:35:20.000Z</time>
</trkpt>
<trkpt lat="46.0888610" lon="10.4999190">
	<ele>2021.20</ele>
	<time>2023-08-07T04:35:21.000Z</time>
</trkpt>
<trkpt lat="46.0888690" lon="10.4999270">
	<ele>2021.60</ele>
	<time>2023-08-07T04:35:22.000Z</time>
</trkpt>
<trkpt lat="46.0888750" lon="10.4999400">
	<ele>2021.60</ele>
	<time>2023-08-07T04:35:23.000Z</time>
</trkpt>
<trkpt lat="46.0888810" lon="10.4999540">
	<ele>2021.80</ele>
	<time>2023-08-07T04:35:24.000Z</time>
</trkpt>
<trkpt lat="46.0888890" lon="10.4999680">
	<ele>2021.80</ele>
	<time>2023-08-07T04:35:25.000Z</time>
</trkpt>
<trkpt lat="46.0888940" lon="10.4999830">
	<ele>2022.00</ele>
	<time>2023-08-07T04:35:26.000Z</time>
</trkpt>
<trkpt lat="46.0889000" lon="10.4999960">
	<ele>2021.80</ele>
	<time>2023-08-07T04:35:27.000Z</time>
</trkpt>
<trkpt lat="46.0889040" lon="10.5000060">
	<ele>2021.60</ele>
	<time>2023-08-07T04:35:28.000Z</time>
</trkpt>
<trkpt lat="46.0889100" lon="10.5000170">
	<ele>2021.60</ele>
	<time>2023-08-07T04:35:29.000Z</time>
</trkpt>
<trkpt lat="46.0889190" lon="10.5000270">
	<ele>2021.40</ele>
	<time>2023-08-07T04:35:30.000Z</time>
</trkpt>
<trkpt lat="46.0889290" lon="10.5000360">
	<ele>2021.40</ele>
	<time>2023-08-07T04:35:31.000Z</time>
</trkpt>
<trkpt lat="46.0889400" lon="10.5000400">
	<ele>2021.40</ele>
	<time>2023-08-07T04:35:32.000Z</time>
</trkpt>
<trkpt lat="46.0889530" lon="10.5000480">
	<ele>2021.40</ele>
	<time>2023-08-07T04:35:33.000Z</time>
</trkpt>
<trkpt lat="46.0889620" lon="10.5000570">
	<ele>2021.40</ele>
	<time>2023-08-07T04:35:34.000Z</time>
</trkpt>
<trkpt lat="46.0889690" lon="10.5000740">
	<ele>2021.60</ele>
	<time>2023-08-07T04:35:35.000Z</time>
</trkpt>
<trkpt lat="46.0889790" lon="10.5000810">
	<ele>2021.60</ele>
	<time>2023-08-07T04:35:36.000Z</time>
</trkpt>
<trkpt lat="46.0889870" lon="10.5000870">
	<ele>2021.80</ele>
	<time>2023-08-07T04:35:37.000Z</time>
</trkpt>
<trkpt lat="46.0889950" lon="10.5000920">
	<ele>2021.80</ele>
	<time>2023-08-07T04:35:38.000Z</time>
</trkpt>
<trkpt lat="46.0890030" lon="10.5000990">
	<ele>2021.80</ele>
	<time>2023-08-07T04:35:39.000Z</time>
</trkpt>
<trkpt lat="46.0890130" lon="10.5001060">
	<ele>2021.80</ele>
	<time>2023-08-07T04:35:40.000Z</time>
</trkpt>
<trkpt lat="46.0890240" lon="10.5001110">
	<ele>2021.80</ele>
	<time>2023-08-07T04:35:41.000Z</time>
</trkpt>
<trkpt lat="46.0890330" lon="10.5001140">
	<ele>2022.00</ele>
	<time>2023-08-07T04:35:42.000Z</time>
</trkpt>
<trkpt lat="46.0890390" lon="10.5001200">
	<ele>2022.00</ele>
	<time>2023-08-07T04:35:43.000Z</time>
</trkpt>
<trkpt lat="46.0890480" lon="10.5001250">
	<ele>2021.80</ele>
	<time>2023-08-07T04:35:44.000Z</time>
</trkpt>
<trkpt lat="46.0890560" lon="10.5001330">
	<ele>2021.80</ele>
	<time>2023-08-07T04:35:45.000Z</time>
</trkpt>
<trkpt lat="46.0890630" lon="10.5001440">
	<ele>2021.80</ele>
	<time>2023-08-07T04:35:46.000Z</time>
</trkpt>
<trkpt lat="46.0890740" lon="10.5001600">
	<ele>2021.80</ele>
	<time>2023-08-07T04:35:47.000Z</time>
</trkpt>
<trkpt lat="46.0890850" lon="10.5001730">
	<ele>2021.80</ele>
	<time>2023-08-07T04:35:48.000Z</time>
</trkpt>
<trkpt lat="46.0890930" lon="10.5001860">
	<ele>2021.80</ele>
	<time>2023-08-07T04:35:49.000Z</time>
</trkpt>
<trkpt lat="46.0891020" lon="10.5001940">
	<ele>2022.00</ele>
	<time>2023-08-07T04:35:50.000Z</time>
</trkpt>
<trkpt lat="46.0891080" lon="10.5002040">
	<ele>2022.00</ele>
	<time>2023-08-07T04:35:51.000Z</time>
</trkpt>
<trkpt lat="46.0891170" lon="10.5002160">
	<ele>2022.20</ele>
	<time>2023-08-07T04:35:52.000Z</time>
</trkpt>
<trkpt lat="46.0891260" lon="10.5002300">
	<ele>2022.20</ele>
	<time>2023-08-07T04:35:53.000Z</time>
</trkpt>
<trkpt lat="46.0891340" lon="10.5002400">
	<ele>2022.40</ele>
	<time>2023-08-07T04:35:54.000Z</time>
</trkpt>
<trkpt lat="46.0891400" lon="10.5002430">
	<ele>2022.40</ele>
	<time>2023-08-07T04:35:55.000Z</time>
</trkpt>
<trkpt lat="46.0891430" lon="10.5002430">
	<ele>2022.60</ele>
	<time>2023-08-07T04:35:56.000Z</time>
</trkpt>
<trkpt lat="46.0891460" lon="10.5002460">
	<ele>2022.60</ele>
	<time>2023-08-07T04:35:57.000Z</time>
</trkpt>
<trkpt lat="46.0891490" lon="10.5002450">
	<ele>2022.60</ele>
	<time>2023-08-07T04:35:58.000Z</time>
</trkpt>
<trkpt lat="46.0891510" lon="10.5002450">
	<ele>2022.60</ele>
	<time>2023-08-07T04:35:59.000Z</time>
</trkpt>
<trkpt lat="46.0891510" lon="10.5002480">
	<ele>2022.60</ele>
	<time>2023-08-07T04:36:00.000Z</time>
</trkpt>
<trkpt lat="46.0891500" lon="10.5002500">
	<ele>2022.80</ele>
	<time>2023-08-07T04:36:01.000Z</time>
</trkpt>
<trkpt lat="46.0891500" lon="10.5002510">
	<ele>2022.80</ele>
	<time>2023-08-07T04:36:02.000Z</time>
</trkpt>
<trkpt lat="46.0891500" lon="10.5002530">
	<ele>2022.80</ele>
	<time>2023-08-07T04:36:03.000Z</time>
</trkpt>
<trkpt lat="46.0891500" lon="10.5002530">
	<ele>2023.00</ele>
	<time>2023-08-07T04:36:04.000Z</time>
</trkpt>
<trkpt lat="46.0891510" lon="10.5002550">
	<ele>2023.00</ele>
	<time>2023-08-07T04:36:05.000Z</time>
</trkpt>
<trkpt lat="46.0891520" lon="10.5002580">
	<ele>2023.00</ele>
	<time>2023-08-07T04:36:06.000Z</time>
</trkpt>
<trkpt lat="46.0891550" lon="10.5002590">
	<ele>2023.20</ele>
	<time>2023-08-07T04:36:07.000Z</time>
</trkpt>
<trkpt lat="46.0891600" lon="10.5002610">
	<ele>2023.20</ele>
	<time>2023-08-07T04:36:08.000Z</time>
</trkpt>
<trkpt lat="46.0891650" lon="10.5002670">
	<ele>2023.20</ele>
	<time>2023-08-07T04:36:09.000Z</time>
</trkpt>
<trkpt lat="46.0891750" lon="10.5002700">
	<ele>2023.20</ele>
	<time>2023-08-07T04:36:10.000Z</time>
</trkpt>
<trkpt lat="46.0891830" lon="10.5002730">
	<ele>2023.20</ele>
	<time>2023-08-07T04:36:11.000Z</time>
</trkpt>
<trkpt lat="46.0891940" lon="10.5002710">
	<ele>2023.20</ele>
	<time>2023-08-07T04:36:12.000Z</time>
</trkpt>
<trkpt lat="46.0892050" lon="10.5002730">
	<ele>2023.20</ele>
	<time>2023-08-07T04:36:13.000Z</time>
</trkpt>
<trkpt lat="46.0892130" lon="10.5002780">
	<ele>2023.20</ele>
	<time>2023-08-07T04:36:14.000Z</time>
</trkpt>
<trkpt lat="46.0892190" lon="10.5002880">
	<ele>2023.40</ele>
	<time>2023-08-07T04:36:15.000Z</time>
</trkpt>
<trkpt lat="46.0892270" lon="10.5002970">
	<ele>2023.60</ele>
	<time>2023-08-07T04:36:16.000Z</time>
</trkpt>
<trkpt lat="46.0892370" lon="10.5003050">
	<ele>2023.80</ele>
	<time>2023-08-07T04:36:17.000Z</time>
</trkpt>
<trkpt lat="46.0892460" lon="10.5003130">
	<ele>2023.80</ele>
	<time>2023-08-07T04:36:18.000Z</time>
</trkpt>
<trkpt lat="46.0892560" lon="10.5003220">
	<ele>2024.00</ele>
	<time>2023-08-07T04:36:19.000Z</time>
</trkpt>
<trkpt lat="46.0892660" lon="10.5003340">
	<ele>2024.00</ele>
	<time>2023-08-07T04:36:20.000Z</time>
</trkpt>
<trkpt lat="46.0892770" lon="10.5003470">
	<ele>2024.20</ele>
	<time>2023-08-07T04:36:21.000Z</time>
</trkpt>
<trkpt lat="46.0892840" lon="10.5003590">
	<ele>2024.40</ele>
	<time>2023-08-07T04:36:22.000Z</time>
</trkpt>
<trkpt lat="46.0892940" lon="10.5003720">
	<ele>2024.40</ele>
	<time>2023-08-07T04:36:23.000Z</time>
</trkpt>
<trkpt lat="46.0893010" lon="10.5003870">
	<ele>2024.60</ele>
	<time>2023-08-07T04:36:24.000Z</time>
</trkpt>
<trkpt lat="46.0893090" lon="10.5004000">
	<ele>2024.80</ele>
	<time>2023-08-07T04:36:25.000Z</time>
</trkpt>
<trkpt lat="46.0893170" lon="10.5004140">
	<ele>2025.00</ele>
	<time>2023-08-07T04:36:26.000Z</time>
</trkpt>
<trkpt lat="46.0893250" lon="10.5004270">
	<ele>2025.00</ele>
	<time>2023-08-07T04:36:27.000Z</time>
</trkpt>
<trkpt lat="46.0893340" lon="10.5004380">
	<ele>2025.00</ele>
	<time>2023-08-07T04:36:28.000Z</time>
</trkpt>
<trkpt lat="46.0893420" lon="10.5004470">
	<ele>2025.00</ele>
	<time>2023-08-07T04:36:29.000Z</time>
</trkpt>
<trkpt lat="46.0893510" lon="10.5004570">
	<ele>2025.00</ele>
	<time>2023-08-07T04:36:30.000Z</time>
</trkpt>
<trkpt lat="46.0893570" lon="10.5004710">
	<ele>2025.00</ele>
	<time>2023-08-07T04:36:31.000Z</time>
</trkpt>
<trkpt lat="46.0893660" lon="10.5004850">
	<ele>2025.00</ele>
	<time>2023-08-07T04:36:32.000Z</time>
</trkpt>
<trkpt lat="46.0893780" lon="10.5004960">
	<ele>2024.80</ele>
	<time>2023-08-07T04:36:33.000Z</time>
</trkpt>
<trkpt lat="46.0893880" lon="10.5005090">
	<ele>2024.80</ele>
	<time>2023-08-07T04:36:34.000Z</time>
</trkpt>
<trkpt lat="46.0894020" lon="10.5005170">
	<ele>2024.80</ele>
	<time>2023-08-07T04:36:35.000Z</time>
</trkpt>
<trkpt lat="46.0894200" lon="10.5005210">
	<ele>2025.00</ele>
	<time>2023-08-07T04:36:36.000Z</time>
</trkpt>
<trkpt lat="46.0894360" lon="10.5005280">
	<ele>2025.20</ele>
	<time>2023-08-07T04:36:37.000Z</time>
</trkpt>
<trkpt lat="46.0894450" lon="10.5005350">
	<ele>2025.40</ele>
	<time>2023-08-07T04:36:38.000Z</time>
</trkpt>
<trkpt lat="46.0894570" lon="10.5005390">
	<ele>2025.60</ele>
	<time>2023-08-07T04:36:39.000Z</time>
</trkpt>
<trkpt lat="46.0894690" lon="10.5005400">
	<ele>2025.80</ele>
	<time>2023-08-07T04:36:40.000Z</time>
</trkpt>
<trkpt lat="46.0894790" lon="10.5005390">
	<ele>2025.80</ele>
	<time>2023-08-07T04:36:41.000Z</time>
</trkpt>
<trkpt lat="46.0894880" lon="10.5005400">
	<ele>2025.80</ele>
	<time>2023-08-07T04:36:42.000Z</time>
</trkpt>
<trkpt lat="46.0894980" lon="10.5005420">
	<ele>2025.80</ele>
	<time>2023-08-07T04:36:43.000Z</time>
</trkpt>
<trkpt lat="46.0895110" lon="10.5005490">
	<ele>2026.00</ele>
	<time>2023-08-07T04:36:44.000Z</time>
</trkpt>
<trkpt lat="46.0895210" lon="10.5005550">
	<ele>2026.00</ele>
	<time>2023-08-07T04:36:45.000Z</time>
</trkpt>
<trkpt lat="46.0895310" lon="10.5005630">
	<ele>2026.00</ele>
	<time>2023-08-07T04:36:46.000Z</time>
</trkpt>
<trkpt lat="46.0895400" lon="10.5005660">
	<ele>2026.00</ele>
	<time>2023-08-07T04:36:47.000Z</time>
</trkpt>
<trkpt lat="46.0895520" lon="10.5005680">
	<ele>2026.20</ele>
	<time>2023-08-07T04:36:48.000Z</time>
</trkpt>
<trkpt lat="46.0895640" lon="10.5005680">
	<ele>2026.20</ele>
	<time>2023-08-07T04:36:49.000Z</time>
</trkpt>
<trkpt lat="46.0895760" lon="10.5005680">
	<ele>2026.40</ele>
	<time>2023-08-07T04:36:50.000Z</time>
</trkpt>
<trkpt lat="46.0895880" lon="10.5005720">
	<ele>2026.60</ele>
	<time>2023-08-07T04:36:51.000Z</time>
</trkpt>
<trkpt lat="46.0896020" lon="10.5005770">
	<ele>2026.60</ele>
	<time>2023-08-07T04:36:52.000Z</time>
</trkpt>
<trkpt lat="46.0896110" lon="10.5005820">
	<ele>2026.80</ele>
	<time>2023-08-07T04:36:53.000Z</time>
</trkpt>
<trkpt lat="46.0896220" lon="10.5005850">
	<ele>2026.80</ele>
	<time>2023-08-07T04:36:54.000Z</time>
</trkpt>
<trkpt lat="46.0896270" lon="10.5005830">
	<ele>2026.80</ele>
	<time>2023-08-07T04:36:55.000Z</time>
</trkpt>
<trkpt lat="46.0896380" lon="10.5005820">
	<ele>2027.00</ele>
	<time>2023-08-07T04:36:56.000Z</time>
</trkpt>
<trkpt lat="46.0896490" lon="10.5005860">
	<ele>2027.00</ele>
	<time>2023-08-07T04:36:57.000Z</time>
</trkpt>
<trkpt lat="46.0896590" lon="10.5005920">
	<ele>2027.20</ele>
	<time>2023-08-07T04:36:58.000Z</time>
</trkpt>
<trkpt lat="46.0896650" lon="10.5006040">
	<ele>2027.40</ele>
	<time>2023-08-07T04:36:59.000Z</time>
</trkpt>
<trkpt lat="46.0896710" lon="10.5006160">
	<ele>2027.40</ele>
	<time>2023-08-07T04:37:00.000Z</time>
</trkpt>
<trkpt lat="46.0896760" lon="10.5006270">
	<ele>2027.60</ele>
	<time>2023-08-07T04:37:01.000Z</time>
</trkpt>
<trkpt lat="46.0896860" lon="10.5006300">
	<ele>2027.60</ele>
	<time>2023-08-07T04:37:02.000Z</time>
</trkpt>
<trkpt lat="46.0896940" lon="10.5006370">
	<ele>2027.60</ele>
	<time>2023-08-07T04:37:03.000Z</time>
</trkpt>
<trkpt lat="46.0897020" lon="10.5006440">
	<ele>2027.80</ele>
	<time>2023-08-07T04:37:04.000Z</time>
</trkpt>
<trkpt lat="46.0897080" lon="10.5006440">
	<ele>2028.00</ele>
	<time>2023-08-07T04:37:05.000Z</time>
</trkpt>
<trkpt lat="46.0897180" lon="10.5006420">
	<ele>2028.20</ele>
	<time>2023-08-07T04:37:06.000Z</time>
</trkpt>
<trkpt lat="46.0897270" lon="10.5006430">
	<ele>2028.40</ele>
	<time>2023-08-07T04:37:07.000Z</time>
</trkpt>
<trkpt lat="46.0897330" lon="10.5006490">
	<ele>2028.60</ele>
	<time>2023-08-07T04:37:08.000Z</time>
</trkpt>
<trkpt lat="46.0897410" lon="10.5006570">
	<ele>2028.80</ele>
	<time>2023-08-07T04:37:09.000Z</time>
</trkpt>
<trkpt lat="46.0897490" lon="10.5006620">
	<ele>2028.80</ele>
	<time>2023-08-07T04:37:10.000Z</time>
</trkpt>
<trkpt lat="46.0897550" lon="10.5006690">
	<ele>2029.20</ele>
	<time>2023-08-07T04:37:11.000Z</time>
</trkpt>
<trkpt lat="46.0897630" lon="10.5006700">
	<ele>2029.20</ele>
	<time>2023-08-07T04:37:12.000Z</time>
</trkpt>
<trkpt lat="46.0897730" lon="10.5006670">
	<ele>2029.40</ele>
	<time>2023-08-07T04:37:13.000Z</time>
</trkpt>
<trkpt lat="46.0897820" lon="10.5006690">
	<ele>2029.60</ele>
	<time>2023-08-07T04:37:14.000Z</time>
</trkpt>
<trkpt lat="46.0897900" lon="10.5006730">
	<ele>2029.80</ele>
	<time>2023-08-07T04:37:15.000Z</time>
</trkpt>
<trkpt lat="46.0897970" lon="10.5006750">
	<ele>2029.80</ele>
	<time>2023-08-07T04:37:16.000Z</time>
</trkpt>
<trkpt lat="46.0898080" lon="10.5006810">
	<ele>2030.00</ele>
	<time>2023-08-07T04:37:17.000Z</time>
</trkpt>
<trkpt lat="46.0898200" lon="10.5006900">
	<ele>2030.00</ele>
	<time>2023-08-07T04:37:18.000Z</time>
</trkpt>
<trkpt lat="46.0898300" lon="10.5006950">
	<ele>2030.20</ele>
	<time>2023-08-07T04:37:19.000Z</time>
</trkpt>
<trkpt lat="46.0898410" lon="10.5006940">
	<ele>2030.40</ele>
	<time>2023-08-07T04:37:20.000Z</time>
</trkpt>
<trkpt lat="46.0898500" lon="10.5006930">
	<ele>2030.60</ele>
	<time>2023-08-07T04:37:21.000Z</time>
</trkpt>
<trkpt lat="46.0898600" lon="10.5006940">
	<ele>2030.60</ele>
	<time>2023-08-07T04:37:22.000Z</time>
</trkpt>
<trkpt lat="46.0898690" lon="10.5007000">
	<ele>2030.80</ele>
	<time>2023-08-07T04:37:23.000Z</time>
</trkpt>
<trkpt lat="46.0898750" lon="10.5007080">
	<ele>2030.80</ele>
	<time>2023-08-07T04:37:24.000Z</time>
</trkpt>
<trkpt lat="46.0898840" lon="10.5007130">
	<ele>2030.80</ele>
	<time>2023-08-07T04:37:25.000Z</time>
</trkpt>
<trkpt lat="46.0898920" lon="10.5007160">
	<ele>2031.00</ele>
	<time>2023-08-07T04:37:26.000Z</time>
</trkpt>
<trkpt lat="46.0899010" lon="10.5007190">
	<ele>2031.00</ele>
	<time>2023-08-07T04:37:27.000Z</time>
</trkpt>
<trkpt lat="46.0899120" lon="10.5007220">
	<ele>2031.20</ele>
	<time>2023-08-07T04:37:28.000Z</time>
</trkpt>
<trkpt lat="46.0899250" lon="10.5007240">
	<ele>2031.40</ele>
	<time>2023-08-07T04:37:29.000Z</time>
</trkpt>
<trkpt lat="46.0899390" lon="10.5007270">
	<ele>2031.60</ele>
	<time>2023-08-07T04:37:30.000Z</time>
</trkpt>
<trkpt lat="46.0899520" lon="10.5007280">
	<ele>2031.80</ele>
	<time>2023-08-07T04:37:31.000Z</time>
</trkpt>
<trkpt lat="46.0899650" lon="10.5007310">
	<ele>2031.80</ele>
	<time>2023-08-07T04:37:32.000Z</time>
</trkpt>
<trkpt lat="46.0899780" lon="10.5007340">
	<ele>2032.00</ele>
	<time>2023-08-07T04:37:33.000Z</time>
</trkpt>
<trkpt lat="46.0899870" lon="10.5007400">
	<ele>2032.00</ele>
	<time>2023-08-07T04:37:34.000Z</time>
</trkpt>
<trkpt lat="46.0899960" lon="10.5007440">
	<ele>2032.20</ele>
	<time>2023-08-07T04:37:35.000Z</time>
</trkpt>
<trkpt lat="46.0900060" lon="10.5007500">
	<ele>2032.20</ele>
	<time>2023-08-07T04:37:36.000Z</time>
</trkpt>
<trkpt lat="46.0900190" lon="10.5007540">
	<ele>2032.20</ele>
	<time>2023-08-07T04:37:37.000Z</time>
</trkpt>
<trkpt lat="46.0900330" lon="10.5007550">
	<ele>2032.40</ele>
	<time>2023-08-07T04:37:38.000Z</time>
</trkpt>
<trkpt lat="46.0900490" lon="10.5007570">
	<ele>2032.40</ele>
	<time>2023-08-07T04:37:39.000Z</time>
</trkpt>
<trkpt lat="46.0900650" lon="10.5007600">
	<ele>2032.40</ele>
	<time>2023-08-07T04:37:40.000Z</time>
</trkpt>
<trkpt lat="46.0900760" lon="10.5007640">
	<ele>2032.40</ele>
	<time>2023-08-07T04:37:41.000Z</time>
</trkpt>
<trkpt lat="46.0900850" lon="10.5007640">
	<ele>2032.40</ele>
	<time>2023-08-07T04:37:42.000Z</time>
</trkpt>
<trkpt lat="46.0900940" lon="10.5007640">
	<ele>2032.40</ele>
	<time>2023-08-07T04:37:43.000Z</time>
</trkpt>
<trkpt lat="46.0901040" lon="10.5007640">
	<ele>2032.60</ele>
	<time>2023-08-07T04:37:44.000Z</time>
</trkpt>
<trkpt lat="46.0901140" lon="10.5007660">
	<ele>2032.80</ele>
	<time>2023-08-07T04:37:45.000Z</time>
</trkpt>
<trkpt lat="46.0901270" lon="10.5007640">
	<ele>2032.80</ele>
	<time>2023-08-07T04:37:46.000Z</time>
</trkpt>
<trkpt lat="46.0901360" lon="10.5007620">
	<ele>2033.00</ele>
	<time>2023-08-07T04:37:47.000Z</time>
</trkpt>
<trkpt lat="46.0901450" lon="10.5007610">
	<ele>2033.20</ele>
	<time>2023-08-07T04:37:48.000Z</time>
</trkpt>
<trkpt lat="46.0901550" lon="10.5007610">
	<ele>2033.40</ele>
	<time>2023-08-07T04:37:49.000Z</time>
</trkpt>
<trkpt lat="46.0901660" lon="10.5007610">
	<ele>2033.40</ele>
	<time>2023-08-07T04:37:50.000Z</time>
</trkpt>
<trkpt lat="46.0901760" lon="10.5007620">
	<ele>2033.40</ele>
	<time>2023-08-07T04:37:51.000Z</time>
</trkpt>
<trkpt lat="46.0901830" lon="10.5007640">
	<ele>2033.60</ele>
	<time>2023-08-07T04:37:52.000Z</time>
</trkpt>
<trkpt lat="46.0901940" lon="10.5007630">
	<ele>2033.60</ele>
	<time>2023-08-07T04:37:53.000Z</time>
</trkpt>
<trkpt lat="46.0902070" lon="10.5007640">
	<ele>2033.60</ele>
	<time>2023-08-07T04:37:54.000Z</time>
</trkpt>
<trkpt lat="46.0902170" lon="10.5007660">
	<ele>2033.60</ele>
	<time>2023-08-07T04:37:55.000Z</time>
</trkpt>
<trkpt lat="46.0902270" lon="10.5007690">
	<ele>2034.00</ele>
	<time>2023-08-07T04:37:56.000Z</time>
</trkpt>
<trkpt lat="46.0902350" lon="10.5007780">
	<ele>2034.20</ele>
	<time>2023-08-07T04:37:57.000Z</time>
</trkpt>
<trkpt lat="46.0902450" lon="10.5007800">
	<ele>2034.40</ele>
	<time>2023-08-07T04:37:58.000Z</time>
</trkpt>
<trkpt lat="46.0902560" lon="10.5007800">
	<ele>2034.40</ele>
	<time>2023-08-07T04:37:59.000Z</time>
</trkpt>
<trkpt lat="46.0902680" lon="10.5007790">
	<ele>2034.40</ele>
	<time>2023-08-07T04:38:00.000Z</time>
</trkpt>
<trkpt lat="46.0902790" lon="10.5007810">
	<ele>2034.40</ele>
	<time>2023-08-07T04:38:01.000Z</time>
</trkpt>
<trkpt lat="46.0902900" lon="10.5007810">
	<ele>2034.40</ele>
	<time>2023-08-07T04:38:02.000Z</time>
</trkpt>
<trkpt lat="46.0902990" lon="10.5007820">
	<ele>2034.40</ele>
	<time>2023-08-07T04:38:03.000Z</time>
</trkpt>
<trkpt lat="46.0903090" lon="10.5007830">
	<ele>2034.40</ele>
	<time>2023-08-07T04:38:04.000Z</time>
</trkpt>
<trkpt lat="46.0903160" lon="10.5007840">
	<ele>2034.40</ele>
	<time>2023-08-07T04:38:05.000Z</time>
</trkpt>
<trkpt lat="46.0903230" lon="10.5007870">
	<ele>2034.40</ele>
	<time>2023-08-07T04:38:06.000Z</time>
</trkpt>
<trkpt lat="46.0903310" lon="10.5007910">
	<ele>2034.40</ele>
	<time>2023-08-07T04:38:07.000Z</time>
</trkpt>
<trkpt lat="46.0903360" lon="10.5007950">
	<ele>2034.40</ele>
	<time>2023-08-07T04:38:08.000Z</time>
</trkpt>
<trkpt lat="46.0903380" lon="10.5007980">
	<ele>2034.40</ele>
	<time>2023-08-07T04:38:09.000Z</time>
</trkpt>
<trkpt lat="46.0903390" lon="10.5007990">
	<ele>2034.40</ele>
	<time>2023-08-07T04:38:10.000Z</time>
</trkpt>
<trkpt lat="46.0903390" lon="10.5008000">
	<ele>2034.40</ele>
	<time>2023-08-07T04:38:11.000Z</time>
</trkpt>
<trkpt lat="46.0903400" lon="10.5008010">
	<ele>2034.40</ele>
	<time>2023-08-07T04:38:12.000Z</time>
</trkpt>
<trkpt lat="46.0903420" lon="10.5008030">
	<ele>2034.60</ele>
	<time>2023-08-07T04:38:13.000Z</time>
</trkpt>
<trkpt lat="46.0903430" lon="10.5008030">
	<ele>2034.60</ele>
	<time>2023-08-07T04:38:14.000Z</time>
</trkpt>
<trkpt lat="46.0903450" lon="10.5008020">
	<ele>2034.80</ele>
	<time>2023-08-07T04:38:15.000Z</time>
</trkpt>
<trkpt lat="46.0903460" lon="10.5008020">
	<ele>2034.80</ele>
	<time>2023-08-07T04:38:16.000Z</time>
</trkpt>
<trkpt lat="46.0903470" lon="10.5008010">
	<ele>2035.00</ele>
	<time>2023-08-07T04:38:17.000Z</time>
</trkpt>
<trkpt lat="46.0903480" lon="10.5008000">
	<ele>2035.00</ele>
	<time>2023-08-07T04:38:18.000Z</time>
</trkpt>
<trkpt lat="46.0903460" lon="10.5007980">
	<ele>2035.00</ele>
	<time>2023-08-07T04:38:19.000Z</time>
</trkpt>
<trkpt lat="46.0903450" lon="10.5007970">
	<ele>2034.80</ele>
	<time>2023-08-07T04:38:20.000Z</time>
</trkpt>
<trkpt lat="46.0903420" lon="10.5007910">
	<ele>2034.80</ele>
	<time>2023-08-07T04:38:21.000Z</time>
</trkpt>
<trkpt lat="46.0903420" lon="10.5007890">
	<ele>2034.60</ele>
	<time>2023-08-07T04:38:22.000Z</time>
</trkpt>
<trkpt lat="46.0903420" lon="10.5007880">
	<ele>2034.60</ele>
	<time>2023-08-07T04:38:23.000Z</time>
</trkpt>
<trkpt lat="46.0903430" lon="10.5007870">
	<ele>2034.60</ele>
	<time>2023-08-07T04:38:24.000Z</time>
</trkpt>
<trkpt lat="46.0903440" lon="10.5007850">
	<ele>2034.60</ele>
	<time>2023-08-07T04:38:25.000Z</time>
</trkpt>
<trkpt lat="46.0903440" lon="10.5007850">
	<ele>2034.60</ele>
	<time>2023-08-07T04:38:26.000Z</time>
</trkpt>
<trkpt lat="46.0903440" lon="10.5007850">
	<ele>2034.60</ele>
	<time>2023-08-07T04:38:27.000Z</time>
</trkpt>
<trkpt lat="46.0903430" lon="10.5007840">
	<ele>2034.60</ele>
	<time>2023-08-07T04:38:28.000Z</time>
</trkpt>
<trkpt lat="46.0903430" lon="10.5007840">
	<ele>2034.60</ele>
	<time>2023-08-07T04:38:29.000Z</time>
</trkpt>
<trkpt lat="46.0903430" lon="10.5007840">
	<ele>2034.60</ele>
	<time>2023-08-07T04:38:30.000Z</time>
</trkpt>
<trkpt lat="46.0903430" lon="10.5007840">
	<ele>2034.60</ele>
	<time>2023-08-07T04:38:31.000Z</time>
</trkpt>
<trkpt lat="46.0903430" lon="10.5007840">
	<ele>2034.60</ele>
	<time>2023-08-07T04:38:32.000Z</time>
</trkpt>
<trkpt lat="46.0903430" lon="10.5007840">
	<ele>2034.60</ele>
	<time>2023-08-07T04:38:33.000Z</time>
</trkpt>
<trkpt lat="46.0903430" lon="10.5007840">
	<ele>2034.60</ele>
	<time>2023-08-07T04:38:34.000Z</time>
</trkpt>
<trkpt lat="46.0903430" lon="10.5007840">
	<ele>2034.60</ele>
	<time>2023-08-07T04:38:35.000Z</time>
</trkpt>
<trkpt lat="46.0903430" lon="10.5007840">
	<ele>2034.60</ele>
	<time>2023-08-07T04:38:36.000Z</time>
</trkpt>
<trkpt lat="46.0903430" lon="10.5007840">
	<ele>2034.80</ele>
	<time>2023-08-07T04:38:37.000Z</time>
</trkpt>
<trkpt lat="46.0903430" lon="10.5007840">
	<ele>2034.80</ele>
	<time>2023-08-07T04:38:38.000Z</time>
</trkpt>
<trkpt lat="46.0903430" lon="10.5007850">
	<ele>2034.80</ele>
	<time>2023-08-07T04:38:39.000Z</time>
</trkpt>
<trkpt lat="46.0903430" lon="10.5007850">
	<ele>2034.80</ele>
	<time>2023-08-07T04:38:40.000Z</time>
</trkpt>
<trkpt lat="46.0903430" lon="10.5007850">
	<ele>2034.80</ele>
	<time>2023-08-07T04:38:41.000Z</time>
</trkpt>
<trkpt lat="46.0903430" lon="10.5007850">
	<ele>2034.60</ele>
	<time>2023-08-07T04:38:42.000Z</time>
</trkpt>
<trkpt lat="46.0903430" lon="10.5007850">
	<ele>2034.60</ele>
	<time>2023-08-07T04:38:43.000Z</time>
</trkpt>
<trkpt lat="46.0903430" lon="10.5007850">
	<ele>2034.80</ele>
	<time>2023-08-07T04:38:44.000Z</time>
</trkpt>
<trkpt lat="46.0903430" lon="10.5007850">
	<ele>2034.80</ele>
	<time>2023-08-07T04:38:45.000Z</time>
</trkpt>
<trkpt lat="46.0903430" lon="10.5007850">
	<ele>2034.80</ele>
	<time>2023-08-07T04:38:46.000Z</time>
</trkpt>
<trkpt lat="46.0903430" lon="10.5007860">
	<ele>2034.80</ele>
	<time>2023-08-07T04:38:47.000Z</time>
</trkpt>
<trkpt lat="46.0903430" lon="10.5007860">
	<ele>2034.80</ele>
	<time>2023-08-07T04:38:48.000Z</time>
</trkpt>
<trkpt lat="46.0903430" lon="10.5007860">
	<ele>2034.80</ele>
	<time>2023-08-07T04:38:49.000Z</time>
</trkpt>
<trkpt lat="46.0903430" lon="10.5007860">
	<ele>2035.00</ele>
	<time>2023-08-07T04:38:50.000Z</time>
</trkpt>
<trkpt lat="46.0903430" lon="10.5007860">
	<ele>2035.00</ele>
	<time>2023-08-07T04:38:51.000Z</time>
</trkpt>
<trkpt lat="46.0903430" lon="10.5007860">
	<ele>2035.00</ele>
	<time>2023-08-07T04:38:52.000Z</time>
</trkpt>
<trkpt lat="46.0903430" lon="10.5007860">
	<ele>2035.20</ele>
	<time>2023-08-07T04:38:53.000Z</time>
</trkpt>
<trkpt lat="46.0903430" lon="10.5007860">
	<ele>2035.20</ele>
	<time>2023-08-07T04:38:54.000Z</time>
</trkpt>
<trkpt lat="46.0903430" lon="10.5007860">
	<ele>2035.20</ele>
	<time>2023-08-07T04:38:55.000Z</time>
</trkpt>
<trkpt lat="46.0903430" lon="10.5007870">
	<ele>2035.40</ele>
	<time>2023-08-07T04:38:56.000Z</time>
</trkpt>
<trkpt lat="46.0903520" lon="10.5007910">
	<ele>2035.40</ele>
	<time>2023-08-07T04:38:57.000Z</time>
</trkpt>
<trkpt lat="46.0903670" lon="10.5008020">
	<ele>2035.40</ele>
	<time>2023-08-07T04:38:58.000Z</time>
</trkpt>
<trkpt lat="46.0903850" lon="10.5008100">
	<ele>2035.40</ele>
	<time>2023-08-07T04:38:59.000Z</time>
</trkpt>
<trkpt lat="46.0904030" lon="10.5008160">
	<ele>2035.40</ele>
	<time>2023-08-07T04:39:00.000Z</time>
</trkpt>
<trkpt lat="46.0904200" lon="10.5008210">
	<ele>2035.40</ele>
	<time>2023-08-07T04:39:01.000Z</time>
</trkpt>
<trkpt lat="46.0904380" lon="10.5008250">
	<ele>2035.40</ele>
	<time>2023-08-07T04:39:02.000Z</time>
</trkpt>
<trkpt lat="46.0904540" lon="10.5008280">
	<ele>2035.40</ele>
	<time>2023-08-07T04:39:03.000Z</time>
</trkpt>
<trkpt lat="46.0904690" lon="10.5008330">
	<ele>2035.40</ele>
	<time>2023-08-07T04:39:04.000Z</time>
</trkpt>
<trkpt lat="46.0904840" lon="10.5008400">
	<ele>2035.40</ele>
	<time>2023-08-07T04:39:05.000Z</time>
</trkpt>
<trkpt lat="46.0904990" lon="10.5008500">
	<ele>2035.40</ele>
	<time>2023-08-07T04:39:06.000Z</time>
</trkpt>
<trkpt lat="46.0905060" lon="10.5008570">
	<ele>2035.40</ele>
	<time>2023-08-07T04:39:07.000Z</time>
</trkpt>
<trkpt lat="46.0905150" lon="10.5008610">
	<ele>2035.60</ele>
	<time>2023-08-07T04:39:08.000Z</time>
</trkpt>
<trkpt lat="46.0905210" lon="10.5008650">
	<ele>2035.60</ele>
	<time>2023-08-07T04:39:09.000Z</time>
</trkpt>
<trkpt lat="46.0905280" lon="10.5008720">
	<ele>2035.80</ele>
	<time>2023-08-07T04:39:10.000Z</time>
</trkpt>
<trkpt lat="46.0905380" lon="10.5008790">
	<ele>2035.80</ele>
	<time>2023-08-07T04:39:11.000Z</time>
</trkpt>
<trkpt lat="46.0905470" lon="10.5008810">
	<ele>2035.80</ele>
	<time>2023-08-07T04:39:12.000Z</time>
</trkpt>
<trkpt lat="46.0905580" lon="10.5008840">
	<ele>2036.00</ele>
	<time>2023-08-07T04:39:13.000Z</time>
</trkpt>
<trkpt lat="46.0905660" lon="10.5008880">
	<ele>2036.00</ele>
	<time>2023-08-07T04:39:14.000Z</time>
</trkpt>
<trkpt lat="46.0905790" lon="10.5008930">
	<ele>2036.20</ele>
	<time>2023-08-07T04:39:15.000Z</time>
</trkpt>
<trkpt lat="46.0905900" lon="10.5009020">
	<ele>2036.40</ele>
	<time>2023-08-07T04:39:16.000Z</time>
</trkpt>
<trkpt lat="46.0906010" lon="10.5009090">
	<ele>2036.60</ele>
	<time>2023-08-07T04:39:17.000Z</time>
</trkpt>
<trkpt lat="46.0906110" lon="10.5009100">
	<ele>2036.60</ele>
	<time>2023-08-07T04:39:18.000Z</time>
</trkpt>
<trkpt lat="46.0906240" lon="10.5009100">
	<ele>2036.80</ele>
	<time>2023-08-07T04:39:19.000Z</time>
</trkpt>
<trkpt lat="46.0906380" lon="10.5009130">
	<ele>2036.80</ele>
	<time>2023-08-07T04:39:20.000Z</time>
</trkpt>
<trkpt lat="46.0906520" lon="10.5009180">
	<ele>2036.80</ele>
	<time>2023-08-07T04:39:21.000Z</time>
</trkpt>
<trkpt lat="46.0906650" lon="10.5009260">
	<ele>2036.80</ele>
	<time>2023-08-07T04:39:22.000Z</time>
</trkpt>
<trkpt lat="46.0906760" lon="10.5009290">
	<ele>2037.00</ele>
	<time>2023-08-07T04:39:23.000Z</time>
</trkpt>
<trkpt lat="46.0906880" lon="10.5009330">
	<ele>2037.00</ele>
	<time>2023-08-07T04:39:24.000Z</time>
</trkpt>
<trkpt lat="46.0906980" lon="10.5009410">
	<ele>2037.00</ele>
	<time>2023-08-07T04:39:25.000Z</time>
</trkpt>
<trkpt lat="46.0907060" lon="10.5009500">
	<ele>2036.80</ele>
	<time>2023-08-07T04:39:26.000Z</time>
</trkpt>
<trkpt lat="46.0907140" lon="10.5009620">
	<ele>2036.80</ele>
	<time>2023-08-07T04:39:27.000Z</time>
</trkpt>
<trkpt lat="46.0907200" lon="10.5009790">
	<ele>2036.80</ele>
	<time>2023-08-07T04:39:28.000Z</time>
</trkpt>
<trkpt lat="46.0907270" lon="10.5009910">
	<ele>2036.80</ele>
	<time>2023-08-07T04:39:29.000Z</time>
</trkpt>
<trkpt lat="46.0907310" lon="10.5010000">
	<ele>2036.80</ele>
	<time>2023-08-07T04:39:30.000Z</time>
</trkpt>
<trkpt lat="46.0907370" lon="10.5010100">
	<ele>2036.80</ele>
	<time>2023-08-07T04:39:31.000Z</time>
</trkpt>
<trkpt lat="46.0907460" lon="10.5010220">
	<ele>2037.00</ele>
	<time>2023-08-07T04:39:32.000Z</time>
</trkpt>
<trkpt lat="46.0907530" lon="10.5010310">
	<ele>2037.00</ele>
	<time>2023-08-07T04:39:33.000Z</time>
</trkpt>
<trkpt lat="46.0907550" lon="10.5010400">
	<ele>2037.20</ele>
	<time>2023-08-07T04:39:34.000Z</time>
</trkpt>
<trkpt lat="46.0907550" lon="10.5010520">
	<ele>2037.20</ele>
	<time>2023-08-07T04:39:35.000Z</time>
</trkpt>
<trkpt lat="46.0907580" lon="10.5010610">
	<ele>2037.20</ele>
	<time>2023-08-07T04:39:36.000Z</time>
</trkpt>
<trkpt lat="46.0907650" lon="10.5010720">
	<ele>2037.20</ele>
	<time>2023-08-07T04:39:37.000Z</time>
</trkpt>
<trkpt lat="46.0907720" lon="10.5010830">
	<ele>2037.20</ele>
	<time>2023-08-07T04:39:38.000Z</time>
</trkpt>
<trkpt lat="46.0907800" lon="10.5010930">
	<ele>2037.60</ele>
	<time>2023-08-07T04:39:39.000Z</time>
</trkpt>
<trkpt lat="46.0907870" lon="10.5011050">
	<ele>2037.60</ele>
	<time>2023-08-07T04:39:40.000Z</time>
</trkpt>
<trkpt lat="46.0907950" lon="10.5011170">
	<ele>2037.80</ele>
	<time>2023-08-07T04:39:41.000Z</time>
</trkpt>
<trkpt lat="46.0908000" lon="10.5011290">
	<ele>2037.80</ele>
	<time>2023-08-07T04:39:42.000Z</time>
</trkpt>
<trkpt lat="46.0908070" lon="10.5011360">
	<ele>2037.80</ele>
	<time>2023-08-07T04:39:43.000Z</time>
</trkpt>
<trkpt lat="46.0908150" lon="10.5011420">
	<ele>2037.80</ele>
	<time>2023-08-07T04:39:44.000Z</time>
</trkpt>
<trkpt lat="46.0908230" lon="10.5011490">
	<ele>2037.80</ele>
	<time>2023-08-07T04:39:45.000Z</time>
</trkpt>
<trkpt lat="46.0908320" lon="10.5011540">
	<ele>2038.00</ele>
	<time>2023-08-07T04:39:46.000Z</time>
</trkpt>
<trkpt lat="46.0908440" lon="10.5011520">
	<ele>2038.20</ele>
	<time>2023-08-07T04:39:47.000Z</time>
</trkpt>
<trkpt lat="46.0908540" lon="10.5011520">
	<ele>2038.40</ele>
	<time>2023-08-07T04:39:48.000Z</time>
</trkpt>
<trkpt lat="46.0908660" lon="10.5011490">
	<ele>2038.60</ele>
	<time>2023-08-07T04:39:49.000Z</time>
</trkpt>
<trkpt lat="46.0908750" lon="10.5011440">
	<ele>2038.60</ele>
	<time>2023-08-07T04:39:50.000Z</time>
</trkpt>
<trkpt lat="46.0908840" lon="10.5011390">
	<ele>2038.80</ele>
	<time>2023-08-07T04:39:51.000Z</time>
</trkpt>
<trkpt lat="46.0908900" lon="10.5011350">
	<ele>2038.80</ele>
	<time>2023-08-07T04:39:52.000Z</time>
</trkpt>
<trkpt lat="46.0908970" lon="10.5011380">
	<ele>2038.80</ele>
	<time>2023-08-07T04:39:53.000Z</time>
</trkpt>
<trkpt lat="46.0909050" lon="10.5011440">
	<ele>2038.80</ele>
	<time>2023-08-07T04:39:54.000Z</time>
</trkpt>
<trkpt lat="46.0909130" lon="10.5011560">
	<ele>2038.80</ele>
	<time>2023-08-07T04:39:55.000Z</time>
</trkpt>
<trkpt lat="46.0909190" lon="10.5011700">
	<ele>2038.80</ele>
	<time>2023-08-07T04:39:56.000Z</time>
</trkpt>
<trkpt lat="46.0909270" lon="10.5011810">
	<ele>2038.80</ele>
	<time>2023-08-07T04:39:57.000Z</time>
</trkpt>
<trkpt lat="46.0909370" lon="10.5011910">
	<ele>2038.80</ele>
	<time>2023-08-07T04:39:58.000Z</time>
</trkpt>
<trkpt lat="46.0909480" lon="10.5011980">
	<ele>2038.80</ele>
	<time>2023-08-07T04:39:59.000Z</time>
</trkpt>
<trkpt lat="46.0909570" lon="10.5012030">
	<ele>2038.80</ele>
	<time>2023-08-07T04:40:00.000Z</time>
</trkpt>
<trkpt lat="46.0909680" lon="10.5012100">
	<ele>2038.80</ele>
	<time>2023-08-07T04:40:01.000Z</time>
</trkpt>
<trkpt lat="46.0909790" lon="10.5012140">
	<ele>2039.00</ele>
	<time>2023-08-07T04:40:02.000Z</time>
</trkpt>
<trkpt lat="46.0909890" lon="10.5012210">
	<ele>2039.00</ele>
	<time>2023-08-07T04:40:03.000Z</time>
</trkpt>
<trkpt lat="46.0909980" lon="10.5012300">
	<ele>2039.00</ele>
	<time>2023-08-07T04:40:04.000Z</time>
</trkpt>
<trkpt lat="46.0910080" lon="10.5012380">
	<ele>2039.00</ele>
	<time>2023-08-07T04:40:05.000Z</time>
</trkpt>
<trkpt lat="46.0910190" lon="10.5012450">
	<ele>2039.20</ele>
	<time>2023-08-07T04:40:06.000Z</time>
</trkpt>
<trkpt lat="46.0910280" lon="10.5012470">
	<ele>2039.20</ele>
	<time>2023-08-07T04:40:07.000Z</time>
</trkpt>
<trkpt lat="46.0910360" lon="10.5012480">
	<ele>2039.20</ele>
	<time>2023-08-07T04:40:08.000Z</time>
</trkpt>
<trkpt lat="46.0910410" lon="10.5012520">
	<ele>2039.20</ele>
	<time>2023-08-07T04:40:09.000Z</time>
</trkpt>
<trkpt lat="46.0910490" lon="10.5012570">
	<ele>2039.20</ele>
	<time>2023-08-07T04:40:10.000Z</time>
</trkpt>
<trkpt lat="46.0910560" lon="10.5012620">
	<ele>2039.00</ele>
	<time>2023-08-07T04:40:11.000Z</time>
</trkpt>
<trkpt lat="46.0910670" lon="10.5012660">
	<ele>2039.20</ele>
	<time>2023-08-07T04:40:12.000Z</time>
</trkpt>
<trkpt lat="46.0910770" lon="10.5012710">
	<ele>2039.20</ele>
	<time>2023-08-07T04:40:13.000Z</time>
</trkpt>
<trkpt lat="46.0910880" lon="10.5012730">
	<ele>2039.20</ele>
	<time>2023-08-07T04:40:14.000Z</time>
</trkpt>
<trkpt lat="46.0910990" lon="10.5012770">
	<ele>2039.20</ele>
	<time>2023-08-07T04:40:15.000Z</time>
</trkpt>
<trkpt lat="46.0911090" lon="10.5012770">
	<ele>2039.40</ele>
	<time>2023-08-07T04:40:16.000Z</time>
</trkpt>
<trkpt lat="46.0911200" lon="10.5012800">
	<ele>2039.60</ele>
	<time>2023-08-07T04:40:17.000Z</time>
</trkpt>
<trkpt lat="46.0911320" lon="10.5012870">
	<ele>2039.60</ele>
	<time>2023-08-07T04:40:18.000Z</time>
</trkpt>
<trkpt lat="46.0911420" lon="10.5012900">
	<ele>2039.80</ele>
	<time>2023-08-07T04:40:19.000Z</time>
</trkpt>
<trkpt lat="46.0911550" lon="10.5012920">
	<ele>2039.80</ele>
	<time>2023-08-07T04:40:20.000Z</time>
</trkpt>
<trkpt lat="46.0911670" lon="10.5012990">
	<ele>2039.80</ele>
	<time>2023-08-07T04:40:21.000Z</time>
</trkpt>
<trkpt lat="46.0911770" lon="10.5013100">
	<ele>2040.00</ele>
	<time>2023-08-07T04:40:22.000Z</time>
</trkpt>
<trkpt lat="46.0911870" lon="10.5013200">
	<ele>2040.00</ele>
	<time>2023-08-07T04:40:23.000Z</time>
</trkpt>
<trkpt lat="46.0911970" lon="10.5013300">
	<ele>2040.20</ele>
	<time>2023-08-07T04:40:24.000Z</time>
</trkpt>
<trkpt lat="46.0912090" lon="10.5013390">
	<ele>2040.40</ele>
	<time>2023-08-07T04:40:25.000Z</time>
</trkpt>
<trkpt lat="46.0912200" lon="10.5013480">
	<ele>2040.40</ele>
	<time>2023-08-07T04:40:26.000Z</time>
</trkpt>
<trkpt lat="46.0912270" lon="10.5013620">
	<ele>2040.40</ele>
	<time>2023-08-07T04:40:27.000Z</time>
</trkpt>
<trkpt lat="46.0912370" lon="10.5013740">
	<ele>2040.40</ele>
	<time>2023-08-07T04:40:28.000Z</time>
</trkpt>
<trkpt lat="46.0912440" lon="10.5013890">
	<ele>2040.40</ele>
	<time>2023-08-07T04:40:29.000Z</time>
</trkpt>
<trkpt lat="46.0912520" lon="10.5014020">
	<ele>2040.60</ele>
	<time>2023-08-07T04:40:30.000Z</time>
</trkpt>
<trkpt lat="46.0912600" lon="10.5014120">
	<ele>2040.40</ele>
	<time>2023-08-07T04:40:31.000Z</time>
</trkpt>
<trkpt lat="46.0912710" lon="10.5014270">
	<ele>2040.60</ele>
	<time>2023-08-07T04:40:32.000Z</time>
</trkpt>
<trkpt lat="46.0912790" lon="10.5014430">
	<ele>2040.60</ele>
	<time>2023-08-07T04:40:33.000Z</time>
</trkpt>
<trkpt lat="46.0912880" lon="10.5014570">
	<ele>2040.80</ele>
	<time>2023-08-07T04:40:34.000Z</time>
</trkpt>
<trkpt lat="46.0912960" lon="10.5014690">
	<ele>2041.00</ele>
	<time>2023-08-07T04:40:35.000Z</time>
</trkpt>
<trkpt lat="46.0913040" lon="10.5014790">
	<ele>2041.00</ele>
	<time>2023-08-07T04:40:36.000Z</time>
</trkpt>
<trkpt lat="46.0913150" lon="10.5014840">
	<ele>2041.20</ele>
	<time>2023-08-07T04:40:37.000Z</time>
</trkpt>
<trkpt lat="46.0913220" lon="10.5014910">
	<ele>2041.20</ele>
	<time>2023-08-07T04:40:38.000Z</time>
</trkpt>
<trkpt lat="46.0913290" lon="10.5014980">
	<ele>2041.20</ele>
	<time>2023-08-07T04:40:39.000Z</time>
</trkpt>
<trkpt lat="46.0913390" lon="10.5015070">
	<ele>2041.20</ele>
	<time>2023-08-07T04:40:40.000Z</time>
</trkpt>
<trkpt lat="46.0913490" lon="10.5015170">
	<ele>2041.20</ele>
	<time>2023-08-07T04:40:41.000Z</time>
</trkpt>
<trkpt lat="46.0913560" lon="10.5015270">
	<ele>2041.20</ele>
	<time>2023-08-07T04:40:42.000Z</time>
</trkpt>
<trkpt lat="46.0913610" lon="10.5015430">
	<ele>2041.00</ele>
	<time>2023-08-07T04:40:43.000Z</time>
</trkpt>
<trkpt lat="46.0913680" lon="10.5015510">
	<ele>2041.00</ele>
	<time>2023-08-07T04:40:44.000Z</time>
</trkpt>
<trkpt lat="46.0913690" lon="10.5015650">
	<ele>2041.00</ele>
	<time>2023-08-07T04:40:45.000Z</time>
</trkpt>
<trkpt lat="46.0913710" lon="10.5015810">
	<ele>2041.00</ele>
	<time>2023-08-07T04:40:46.000Z</time>
</trkpt>
<trkpt lat="46.0913740" lon="10.5015930">
	<ele>2041.00</ele>
	<time>2023-08-07T04:40:47.000Z</time>
</trkpt>
<trkpt lat="46.0913780" lon="10.5016020">
	<ele>2041.00</ele>
	<time>2023-08-07T04:40:48.000Z</time>
</trkpt>
<trkpt lat="46.0913800" lon="10.5016110">
	<ele>2041.00</ele>
	<time>2023-08-07T04:40:49.000Z</time>
</trkpt>
<trkpt lat="46.0913860" lon="10.5016230">
	<ele>2041.00</ele>
	<time>2023-08-07T04:40:50.000Z</time>
</trkpt>
<trkpt lat="46.0913910" lon="10.5016370">
	<ele>2041.00</ele>
	<time>2023-08-07T04:40:51.000Z</time>
</trkpt>
<trkpt lat="46.0913920" lon="10.5016480">
	<ele>2041.20</ele>
	<time>2023-08-07T04:40:52.000Z</time>
</trkpt>
<trkpt lat="46.0913910" lon="10.5016640">
	<ele>2041.20</ele>
	<time>2023-08-07T04:40:53.000Z</time>
</trkpt>
<trkpt lat="46.0913910" lon="10.5016750">
	<ele>2041.40</ele>
	<time>2023-08-07T04:40:54.000Z</time>
</trkpt>
<trkpt lat="46.0913930" lon="10.5016880">
	<ele>2041.40</ele>
	<time>2023-08-07T04:40:55.000Z</time>
</trkpt>
<trkpt lat="46.0913950" lon="10.5017010">
	<ele>2041.60</ele>
	<time>2023-08-07T04:40:56.000Z</time>
</trkpt>
<trkpt lat="46.0913980" lon="10.5017130">
	<ele>2041.60</ele>
	<time>2023-08-07T04:40:57.000Z</time>
</trkpt>
<trkpt lat="46.0913980" lon="10.5017230">
	<ele>2041.60</ele>
	<time>2023-08-07T04:40:58.000Z</time>
</trkpt>
<trkpt lat="46.0914020" lon="10.5017330">
	<ele>2041.60</ele>
	<time>2023-08-07T04:40:59.000Z</time>
</trkpt>
<trkpt lat="46.0914070" lon="10.5017440">
	<ele>2041.60</ele>
	<time>2023-08-07T04:41:00.000Z</time>
</trkpt>
<trkpt lat="46.0914090" lon="10.5017580">
	<ele>2041.80</ele>
	<time>2023-08-07T04:41:01.000Z</time>
</trkpt>
<trkpt lat="46.0914100" lon="10.5017710">
	<ele>2041.80</ele>
	<time>2023-08-07T04:41:02.000Z</time>
</trkpt>
<trkpt lat="46.0914140" lon="10.5017820">
	<ele>2041.80</ele>
	<time>2023-08-07T04:41:03.000Z</time>
</trkpt>
<trkpt lat="46.0914180" lon="10.5017930">
	<ele>2042.00</ele>
	<time>2023-08-07T04:41:04.000Z</time>
</trkpt>
<trkpt lat="46.0914200" lon="10.5018000">
	<ele>2042.00</ele>
	<time>2023-08-07T04:41:05.000Z</time>
</trkpt>
<trkpt lat="46.0914210" lon="10.5018020">
	<ele>2042.00</ele>
	<time>2023-08-07T04:41:06.000Z</time>
</trkpt>
<trkpt lat="46.0914110" lon="10.5018010">
	<ele>2042.20</ele>
	<time>2023-08-07T04:41:07.000Z</time>
</trkpt>
<trkpt lat="46.0914040" lon="10.5018030">
	<ele>2042.20</ele>
	<time>2023-08-07T04:41:08.000Z</time>
</trkpt>
<trkpt lat="46.0914030" lon="10.5018040">
	<ele>2042.20</ele>
	<time>2023-08-07T04:41:09.000Z</time>
</trkpt>
<trkpt lat="46.0914070" lon="10.5018000">
	<ele>2042.20</ele>
	<time>2023-08-07T04:41:10.000Z</time>
</trkpt>
<trkpt lat="46.0914100" lon="10.5017990">
	<ele>2042.20</ele>
	<time>2023-08-07T04:41:11.000Z</time>
</trkpt>
<trkpt lat="46.0914130" lon="10.5017960">
	<ele>2042.40</ele>
	<time>2023-08-07T04:41:12.000Z</time>
</trkpt>
<trkpt lat="46.0914140" lon="10.5017970">
	<ele>2042.60</ele>
	<time>2023-08-07T04:41:13.000Z</time>
</trkpt>
<trkpt lat="46.0914130" lon="10.5018030">
	<ele>2042.60</ele>
	<time>2023-08-07T04:41:14.000Z</time>
</trkpt>
<trkpt lat="46.0914130" lon="10.5018090">
	<ele>2042.60</ele>
	<time>2023-08-07T04:41:15.000Z</time>
</trkpt>
<trkpt lat="46.0914130" lon="10.5018120">
	<ele>2042.80</ele>
	<time>2023-08-07T04:41:16.000Z</time>
</trkpt>
<trkpt lat="46.0914130" lon="10.5018140">
	<ele>2042.80</ele>
	<time>2023-08-07T04:41:17.000Z</time>
</trkpt>
<trkpt lat="46.0914130" lon="10.5018150">
	<ele>2042.80</ele>
	<time>2023-08-07T04:41:18.000Z</time>
</trkpt>
<trkpt lat="46.0914130" lon="10.5018150">
	<ele>2042.80</ele>
	<time>2023-08-07T04:41:19.000Z</time>
</trkpt>
<trkpt lat="46.0914130" lon="10.5018150">
	<ele>2042.80</ele>
	<time>2023-08-07T04:41:20.000Z</time>
</trkpt>
<trkpt lat="46.0914130" lon="10.5018150">
	<ele>2042.80</ele>
	<time>2023-08-07T04:41:21.000Z</time>
</trkpt>
<trkpt lat="46.0914130" lon="10.5018150">
	<ele>2042.60</ele>
	<time>2023-08-07T04:41:22.000Z</time>
</trkpt>
<trkpt lat="46.0914130" lon="10.5018150">
	<ele>2042.60</ele>
	<time>2023-08-07T04:41:23.000Z</time>
</trkpt>
<trkpt lat="46.0914130" lon="10.5018150">
	<ele>2042.40</ele>
	<time>2023-08-07T04:41:24.000Z</time>
</trkpt>
<trkpt lat="46.0914130" lon="10.5018150">
	<ele>2042.40</ele>
	<time>2023-08-07T04:41:25.000Z</time>
</trkpt>
<trkpt lat="46.0914130" lon="10.5018150">
	<ele>2042.40</ele>
	<time>2023-08-07T04:41:26.000Z</time>
</trkpt>
<trkpt lat="46.0914130" lon="10.5018150">
	<ele>2042.40</ele>
	<time>2023-08-07T04:41:27.000Z</time>
</trkpt>
<trkpt lat="46.0914130" lon="10.5018150">
	<ele>2042.40</ele>
	<time>2023-08-07T04:41:28.000Z</time>
</trkpt>
<trkpt lat="46.0914130" lon="10.5018150">
	<ele>2042.40</ele>
	<time>2023-08-07T04:41:29.000Z</time>
</trkpt>
<trkpt lat="46.0914130" lon="10.5018150">
	<ele>2042.40</ele>
	<time>2023-08-07T04:41:30.000Z</time>
</trkpt>
<trkpt lat="46.0914130" lon="10.5018150">
	<ele>2042.60</ele>
	<time>2023-08-07T04:41:31.000Z</time>
</trkpt>
<trkpt lat="46.0914160" lon="10.5018210">
	<ele>2042.60</ele>
	<time>2023-08-07T04:41:32.000Z</time>
</trkpt>
<trkpt lat="46.0914210" lon="10.5018270">
	<ele>2042.60</ele>
	<time>2023-08-07T04:41:33.000Z</time>
</trkpt>
<trkpt lat="46.0914240" lon="10.5018290">
	<ele>2042.60</ele>
	<time>2023-08-07T04:41:34.000Z</time>
</trkpt>
<trkpt lat="46.0914250" lon="10.5018310">
	<ele>2042.80</ele>
	<time>2023-08-07T04:41:35.000Z</time>
</trkpt>
<trkpt lat="46.0914290" lon="10.5018350">
	<ele>2042.80</ele>
	<time>2023-08-07T04:41:36.000Z</time>
</trkpt>
<trkpt lat="46.0914320" lon="10.5018390">
	<ele>2042.80</ele>
	<time>2023-08-07T04:41:37.000Z</time>
</trkpt>
<trkpt lat="46.0914340" lon="10.5018460">
	<ele>2042.80</ele>
	<time>2023-08-07T04:41:38.000Z</time>
</trkpt>
<trkpt lat="46.0914370" lon="10.5018590">
	<ele>2042.80</ele>
	<time>2023-08-07T04:41:39.000Z</time>
</trkpt>
<trkpt lat="46.0914390" lon="10.5018710">
	<ele>2042.80</ele>
	<time>2023-08-07T04:41:40.000Z</time>
</trkpt>
<trkpt lat="46.0914440" lon="10.5018860">
	<ele>2042.80</ele>
	<time>2023-08-07T04:41:41.000Z</time>
</trkpt>
<trkpt lat="46.0914430" lon="10.5018940">
	<ele>2043.00</ele>
	<time>2023-08-07T04:41:42.000Z</time>
</trkpt>
<trkpt lat="46.0914450" lon="10.5019020">
	<ele>2043.00</ele>
	<time>2023-08-07T04:41:43.000Z</time>
</trkpt>
<trkpt lat="46.0914490" lon="10.5019100">
	<ele>2043.00</ele>
	<time>2023-08-07T04:41:44.000Z</time>
</trkpt>
<trkpt lat="46.0914550" lon="10.5019200">
	<ele>2043.20</ele>
	<time>2023-08-07T04:41:45.000Z</time>
</trkpt>
<trkpt lat="46.0914600" lon="10.5019300">
	<ele>2043.20</ele>
	<time>2023-08-07T04:41:46.000Z</time>
</trkpt>
<trkpt lat="46.0914620" lon="10.5019420">
	<ele>2043.40</ele>
	<time>2023-08-07T04:41:47.000Z</time>
</trkpt>
<trkpt lat="46.0914650" lon="10.5019500">
	<ele>2043.40</ele>
	<time>2023-08-07T04:41:48.000Z</time>
</trkpt>
<trkpt lat="46.0914690" lon="10.5019600">
	<ele>2043.60</ele>
	<time>2023-08-07T04:41:49.000Z</time>
</trkpt>
<trkpt lat="46.0914730" lon="10.5019720">
	<ele>2043.80</ele>
	<time>2023-08-07T04:41:50.000Z</time>
</trkpt>
<trkpt lat="46.0914780" lon="10.5019840">
	<ele>2043.80</ele>
	<time>2023-08-07T04:41:51.000Z</time>
</trkpt>
<trkpt lat="46.0914840" lon="10.5019950">
	<ele>2043.80</ele>
	<time>2023-08-07T04:41:52.000Z</time>
</trkpt>
<trkpt lat="46.0914890" lon="10.5020040">
	<ele>2044.20</ele>
	<time>2023-08-07T04:41:53.000Z</time>
</trkpt>
<trkpt lat="46.0914910" lon="10.5020130">
	<ele>2044.40</ele>
	<time>2023-08-07T04:41:54.000Z</time>
</trkpt>
<trkpt lat="46.0914960" lon="10.5020200">
	<ele>2044.40</ele>
	<time>2023-08-07T04:41:55.000Z</time>
</trkpt>
<trkpt lat="46.0915000" lon="10.5020320">
	<ele>2044.60</ele>
	<time>2023-08-07T04:41:56.000Z</time>
</trkpt>
<trkpt lat="46.0915010" lon="10.5020430">
	<ele>2044.60</ele>
	<time>2023-08-07T04:41:57.000Z</time>
</trkpt>
<trkpt lat="46.0915010" lon="10.5020530">
	<ele>2044.80</ele>
	<time>2023-08-07T04:41:58.000Z</time>
</trkpt>
<trkpt lat="46.0915060" lon="10.5020600">
	<ele>2045.00</ele>
	<time>2023-08-07T04:41:59.000Z</time>
</trkpt>
<trkpt lat="46.0915140" lon="10.5020640">
	<ele>2045.20</ele>
	<time>2023-08-07T04:42:00.000Z</time>
</trkpt>
<trkpt lat="46.0915230" lon="10.5020680">
	<ele>2045.40</ele>
	<time>2023-08-07T04:42:01.000Z</time>
</trkpt>
<trkpt lat="46.0915280" lon="10.5020770">
	<ele>2045.40</ele>
	<time>2023-08-07T04:42:02.000Z</time>
</trkpt>
<trkpt lat="46.0915320" lon="10.5020870">
	<ele>2045.60</ele>
	<time>2023-08-07T04:42:03.000Z</time>
</trkpt>
<trkpt lat="46.0915380" lon="10.5020960">
	<ele>2045.60</ele>
	<time>2023-08-07T04:42:04.000Z</time>
</trkpt>
<trkpt lat="46.0915440" lon="10.5021020">
	<ele>2045.80</ele>
	<time>2023-08-07T04:42:05.000Z</time>
</trkpt>
<trkpt lat="46.0915500" lon="10.5021090">
	<ele>2045.80</ele>
	<time>2023-08-07T04:42:06.000Z</time>
</trkpt>
<trkpt lat="46.0915550" lon="10.5021190">
	<ele>2046.00</ele>
	<time>2023-08-07T04:42:07.000Z</time>
</trkpt>
<trkpt lat="46.0915620" lon="10.5021330">
	<ele>2046.20</ele>
	<time>2023-08-07T04:42:08.000Z</time>
</trkpt>
<trkpt lat="46.0915670" lon="10.5021490">
	<ele>2046.20</ele>
	<time>2023-08-07T04:42:09.000Z</time>
</trkpt>
<trkpt lat="46.0915740" lon="10.5021600">
	<ele>2046.40</ele>
	<time>2023-08-07T04:42:10.000Z</time>
</trkpt>
<trkpt lat="46.0915790" lon="10.5021710">
	<ele>2046.40</ele>
	<time>2023-08-07T04:42:11.000Z</time>
</trkpt>
<trkpt lat="46.0915820" lon="10.5021880">
	<ele>2046.40</ele>
	<time>2023-08-07T04:42:12.000Z</time>
</trkpt>
<trkpt lat="46.0915870" lon="10.5021980">
	<ele>2046.60</ele>
	<time>2023-08-07T04:42:13.000Z</time>
</trkpt>
<trkpt lat="46.0915940" lon="10.5022060">
	<ele>2046.80</ele>
	<time>2023-08-07T04:42:14.000Z</time>
</trkpt>
<trkpt lat="46.0915960" lon="10.5022170">
	<ele>2047.00</ele>
	<time>2023-08-07T04:42:15.000Z</time>
</trkpt>
<trkpt lat="46.0915980" lon="10.5022260">
	<ele>2047.00</ele>
	<time>2023-08-07T04:42:16.000Z</time>
</trkpt>
<trkpt lat="46.0916000" lon="10.5022370">
	<ele>2047.20</ele>
	<time>2023-08-07T04:42:17.000Z</time>
</trkpt>
<trkpt lat="46.0916060" lon="10.5022430">
	<ele>2047.20</ele>
	<time>2023-08-07T04:42:18.000Z</time>
</trkpt>
<trkpt lat="46.0916160" lon="10.5022470">
	<ele>2047.20</ele>
	<time>2023-08-07T04:42:19.000Z</time>
</trkpt>
<trkpt lat="46.0916240" lon="10.5022560">
	<ele>2047.40</ele>
	<time>2023-08-07T04:42:20.000Z</time>
</trkpt>
<trkpt lat="46.0916330" lon="10.5022680">
	<ele>2047.40</ele>
	<time>2023-08-07T04:42:21.000Z</time>
</trkpt>
<trkpt lat="46.0916400" lon="10.5022790">
	<ele>2047.60</ele>
	<time>2023-08-07T04:42:22.000Z</time>
</trkpt>
<trkpt lat="46.0916460" lon="10.5022900">
	<ele>2047.60</ele>
	<time>2023-08-07T04:42:23.000Z</time>
</trkpt>
<trkpt lat="46.0916520" lon="10.5023000">
	<ele>2047.60</ele>
	<time>2023-08-07T04:42:24.000Z</time>
</trkpt>
<trkpt lat="46.0916590" lon="10.5023070">
	<ele>2047.80</ele>
	<time>2023-08-07T04:42:25.000Z</time>
</trkpt>
<trkpt lat="46.0916670" lon="10.5023130">
	<ele>2048.00</ele>
	<time>2023-08-07T04:42:26.000Z</time>
</trkpt>
<trkpt lat="46.0916760" lon="10.5023220">
	<ele>2048.00</ele>
	<time>2023-08-07T04:42:27.000Z</time>
</trkpt>
<trkpt lat="46.0916850" lon="10.5023290">
	<ele>2048.20</ele>
	<time>2023-08-07T04:42:28.000Z</time>
</trkpt>
<trkpt lat="46.0916900" lon="10.5023340">
	<ele>2048.20</ele>
	<time>2023-08-07T04:42:29.000Z</time>
</trkpt>
<trkpt lat="46.0916980" lon="10.5023410">
	<ele>2048.20</ele>
	<time>2023-08-07T04:42:30.000Z</time>
</trkpt>
<trkpt lat="46.0917090" lon="10.5023500">
	<ele>2048.40</ele>
	<time>2023-08-07T04:42:31.000Z</time>
</trkpt>
<trkpt lat="46.0917160" lon="10.5023620">
	<ele>2048.40</ele>
	<time>2023-08-07T04:42:32.000Z</time>
</trkpt>
<trkpt lat="46.0917240" lon="10.5023720">
	<ele>2048.40</ele>
	<time>2023-08-07T04:42:33.000Z</time>
</trkpt>
<trkpt lat="46.0917310" lon="10.5023830">
	<ele>2048.40</ele>
	<time>2023-08-07T04:42:34.000Z</time>
</trkpt>
<trkpt lat="46.0917400" lon="10.5023940">
	<ele>2048.60</ele>
	<time>2023-08-07T04:42:35.000Z</time>
</trkpt>
<trkpt lat="46.0917470" lon="10.5024010">
	<ele>2048.60</ele>
	<time>2023-08-07T04:42:36.000Z</time>
</trkpt>
<trkpt lat="46.0917520" lon="10.5024090">
	<ele>2048.80</ele>
	<time>2023-08-07T04:42:37.000Z</time>
</trkpt>
<trkpt lat="46.0917590" lon="10.5024170">
	<ele>2048.80</ele>
	<time>2023-08-07T04:42:38.000Z</time>
</trkpt>
<trkpt lat="46.0917620" lon="10.5024250">
	<ele>2049.00</ele>
	<time>2023-08-07T04:42:39.000Z</time>
</trkpt>
<trkpt lat="46.0917650" lon="10.5024340">
	<ele>2049.00</ele>
	<time>2023-08-07T04:42:40.000Z</time>
</trkpt>
<trkpt lat="46.0917710" lon="10.5024410">
	<ele>2049.20</ele>
	<time>2023-08-07T04:42:41.000Z</time>
</trkpt>
<trkpt lat="46.0917790" lon="10.5024470">
	<ele>2049.20</ele>
	<time>2023-08-07T04:42:42.000Z</time>
</trkpt>
<trkpt lat="46.0917880" lon="10.5024510">
	<ele>2049.20</ele>
	<time>2023-08-07T04:42:43.000Z</time>
</trkpt>
<trkpt lat="46.0917940" lon="10.5024600">
	<ele>2049.20</ele>
	<time>2023-08-07T04:42:44.000Z</time>
</trkpt>
<trkpt lat="46.0918010" lon="10.5024630">
	<ele>2049.40</ele>
	<time>2023-08-07T04:42:45.000Z</time>
</trkpt>
<trkpt lat="46.0918120" lon="10.5024660">
	<ele>2049.40</ele>
	<time>2023-08-07T04:42:46.000Z</time>
</trkpt>
<trkpt lat="46.0918210" lon="10.5024730">
	<ele>2049.40</ele>
	<time>2023-08-07T04:42:47.000Z</time>
</trkpt>
<trkpt lat="46.0918270" lon="10.5024810">
	<ele>2049.60</ele>
	<time>2023-08-07T04:42:48.000Z</time>
</trkpt>
<trkpt lat="46.0918310" lon="10.5024900">
	<ele>2049.60</ele>
	<time>2023-08-07T04:42:49.000Z</time>
</trkpt>
<trkpt lat="46.0918350" lon="10.5024990">
	<ele>2049.60</ele>
	<time>2023-08-07T04:42:50.000Z</time>
</trkpt>
<trkpt lat="46.0918380" lon="10.5025110">
	<ele>2049.60</ele>
	<time>2023-08-07T04:42:51.000Z</time>
</trkpt>
<trkpt lat="46.0918430" lon="10.5025210">
	<ele>2049.60</ele>
	<time>2023-08-07T04:42:52.000Z</time>
</trkpt>
<trkpt lat="46.0918490" lon="10.5025340">
	<ele>2049.80</ele>
	<time>2023-08-07T04:42:53.000Z</time>
</trkpt>
<trkpt lat="46.0918540" lon="10.5025430">
	<ele>2049.80</ele>
	<time>2023-08-07T04:42:54.000Z</time>
</trkpt>
<trkpt lat="46.0918580" lon="10.5025470">
	<ele>2050.00</ele>
	<time>2023-08-07T04:42:55.000Z</time>
</trkpt>
<trkpt lat="46.0918670" lon="10.5025530">
	<ele>2050.00</ele>
	<time>2023-08-07T04:42:56.000Z</time>
</trkpt>
<trkpt lat="46.0918770" lon="10.5025620">
	<ele>2050.00</ele>
	<time>2023-08-07T04:42:57.000Z</time>
</trkpt>
<trkpt lat="46.0918860" lon="10.5025680">
	<ele>2050.00</ele>
	<time>2023-08-07T04:42:58.000Z</time>
</trkpt>
<trkpt lat="46.0918930" lon="10.5025740">
	<ele>2050.00</ele>
	<time>2023-08-07T04:42:59.000Z</time>
</trkpt>
<trkpt lat="46.0919000" lon="10.5025830">
	<ele>2050.20</ele>
	<time>2023-08-07T04:43:00.000Z</time>
</trkpt>
<trkpt lat="46.0919030" lon="10.5025940">
	<ele>2050.40</ele>
	<time>2023-08-07T04:43:01.000Z</time>
</trkpt>
<trkpt lat="46.0919030" lon="10.5026100">
	<ele>2050.40</ele>
	<time>2023-08-07T04:43:02.000Z</time>
</trkpt>
<trkpt lat="46.0919040" lon="10.5026220">
	<ele>2050.40</ele>
	<time>2023-08-07T04:43:03.000Z</time>
</trkpt>
<trkpt lat="46.0919080" lon="10.5026320">
	<ele>2050.40</ele>
	<time>2023-08-07T04:43:04.000Z</time>
</trkpt>
<trkpt lat="46.0919100" lon="10.5026390">
	<ele>2050.40</ele>
	<time>2023-08-07T04:43:05.000Z</time>
</trkpt>
<trkpt lat="46.0919150" lon="10.5026490">
	<ele>2050.40</ele>
	<time>2023-08-07T04:43:06.000Z</time>
</trkpt>
<trkpt lat="46.0919220" lon="10.5026610">
	<ele>2050.40</ele>
	<time>2023-08-07T04:43:07.000Z</time>
</trkpt>
<trkpt lat="46.0919300" lon="10.5026640">
	<ele>2050.60</ele>
	<time>2023-08-07T04:43:08.000Z</time>
</trkpt>
<trkpt lat="46.0919370" lon="10.5026730">
	<ele>2050.60</ele>
	<time>2023-08-07T04:43:09.000Z</time>
</trkpt>
<trkpt lat="46.0919440" lon="10.5026850">
	<ele>2050.80</ele>
	<time>2023-08-07T04:43:10.000Z</time>
</trkpt>
<trkpt lat="46.0919490" lon="10.5026960">
	<ele>2050.80</ele>
	<time>2023-08-07T04:43:11.000Z</time>
</trkpt>
<trkpt lat="46.0919540" lon="10.5027120">
	<ele>2051.00</ele>
	<time>2023-08-07T04:43:12.000Z</time>
</trkpt>
<trkpt lat="46.0919600" lon="10.5027200">
	<ele>2051.00</ele>
	<time>2023-08-07T04:43:13.000Z</time>
</trkpt>
<trkpt lat="46.0919690" lon="10.5027240">
	<ele>2051.20</ele>
	<time>2023-08-07T04:43:14.000Z</time>
</trkpt>
<trkpt lat="46.0919780" lon="10.5027290">
	<ele>2051.40</ele>
	<time>2023-08-07T04:43:15.000Z</time>
</trkpt>
<trkpt lat="46.0919850" lon="10.5027340">
	<ele>2051.40</ele>
	<time>2023-08-07T04:43:16.000Z</time>
</trkpt>
<trkpt lat="46.0919940" lon="10.5027420">
	<ele>2051.60</ele>
	<time>2023-08-07T04:43:17.000Z</time>
</trkpt>
<trkpt lat="46.0919990" lon="10.5027500">
	<ele>2051.60</ele>
	<time>2023-08-07T04:43:18.000Z</time>
</trkpt>
<trkpt lat="46.0920060" lon="10.5027600">
	<ele>2051.60</ele>
	<time>2023-08-07T04:43:19.000Z</time>
</trkpt>
<trkpt lat="46.0920120" lon="10.5027680">
	<ele>2051.80</ele>
	<time>2023-08-07T04:43:20.000Z</time>
</trkpt>
<trkpt lat="46.0920240" lon="10.5027730">
	<ele>2052.00</ele>
	<time>2023-08-07T04:43:21.000Z</time>
</trkpt>
<trkpt lat="46.0920330" lon="10.5027790">
	<ele>2052.00</ele>
	<time>2023-08-07T04:43:22.000Z</time>
</trkpt>
<trkpt lat="46.0920430" lon="10.5027790">
	<ele>2052.00</ele>
	<time>2023-08-07T04:43:23.000Z</time>
</trkpt>
<trkpt lat="46.0920520" lon="10.5027800">
	<ele>2052.00</ele>
	<time>2023-08-07T04:43:24.000Z</time>
</trkpt>
<trkpt lat="46.0920570" lon="10.5027820">
	<ele>2052.00</ele>
	<time>2023-08-07T04:43:25.000Z</time>
</trkpt>
<trkpt lat="46.0920660" lon="10.5027810">
	<ele>2052.20</ele>
	<time>2023-08-07T04:43:26.000Z</time>
</trkpt>
<trkpt lat="46.0920750" lon="10.5027830">
	<ele>2052.60</ele>
	<time>2023-08-07T04:43:27.000Z</time>
</trkpt>
<trkpt lat="46.0920850" lon="10.5027860">
	<ele>2052.60</ele>
	<time>2023-08-07T04:43:28.000Z</time>
</trkpt>
<trkpt lat="46.0920950" lon="10.5027860">
	<ele>2052.80</ele>
	<time>2023-08-07T04:43:29.000Z</time>
</trkpt>
<trkpt lat="46.0921060" lon="10.5027870">
	<ele>2052.80</ele>
	<time>2023-08-07T04:43:30.000Z</time>
</trkpt>
<trkpt lat="46.0921150" lon="10.5027900">
	<ele>2053.00</ele>
	<time>2023-08-07T04:43:31.000Z</time>
</trkpt>
<trkpt lat="46.0921250" lon="10.5027960">
	<ele>2053.00</ele>
	<time>2023-08-07T04:43:32.000Z</time>
</trkpt>
<trkpt lat="46.0921350" lon="10.5028030">
	<ele>2053.20</ele>
	<time>2023-08-07T04:43:33.000Z</time>
</trkpt>
<trkpt lat="46.0921460" lon="10.5028090">
	<ele>2053.20</ele>
	<time>2023-08-07T04:43:34.000Z</time>
</trkpt>
<trkpt lat="46.0921570" lon="10.5028110">
	<ele>2053.40</ele>
	<time>2023-08-07T04:43:35.000Z</time>
</trkpt>
<trkpt lat="46.0921680" lon="10.5028110">
	<ele>2053.40</ele>
	<time>2023-08-07T04:43:36.000Z</time>
</trkpt>
<trkpt lat="46.0921790" lon="10.5028100">
	<ele>2053.60</ele>
	<time>2023-08-07T04:43:37.000Z</time>
</trkpt>
<trkpt lat="46.0921890" lon="10.5028080">
	<ele>2053.60</ele>
	<time>2023-08-07T04:43:38.000Z</time>
</trkpt>
<trkpt lat="46.0922000" lon="10.5028010">
	<ele>2053.60</ele>
	<time>2023-08-07T04:43:39.000Z</time>
</trkpt>
<trkpt lat="46.0922110" lon="10.5027960">
	<ele>2053.80</ele>
	<time>2023-08-07T04:43:40.000Z</time>
</trkpt>
<trkpt lat="46.0922190" lon="10.5027960">
	<ele>2053.80</ele>
	<time>2023-08-07T04:43:41.000Z</time>
</trkpt>
<trkpt lat="46.0922260" lon="10.5028010">
	<ele>2053.80</ele>
	<time>2023-08-07T04:43:42.000Z</time>
</trkpt>
<trkpt lat="46.0922370" lon="10.5028020">
	<ele>2053.80</ele>
	<time>2023-08-07T04:43:43.000Z</time>
</trkpt>
<trkpt lat="46.0922470" lon="10.5028030">
	<ele>2053.80</ele>
	<time>2023-08-07T04:43:44.000Z</time>
</trkpt>
<trkpt lat="46.0922570" lon="10.5028020">
	<ele>2053.80</ele>
	<time>2023-08-07T04:43:45.000Z</time>
</trkpt>
<trkpt lat="46.0922650" lon="10.5028020">
	<ele>2053.80</ele>
	<time>2023-08-07T04:43:46.000Z</time>
</trkpt>
<trkpt lat="46.0922740" lon="10.5028010">
	<ele>2053.80</ele>
	<time>2023-08-07T04:43:47.000Z</time>
</trkpt>
<trkpt lat="46.0922820" lon="10.5028010">
	<ele>2053.80</ele>
	<time>2023-08-07T04:43:48.000Z</time>
</trkpt>
<trkpt lat="46.0922880" lon="10.5027990">
	<ele>2054.00</ele>
	<time>2023-08-07T04:43:49.000Z</time>
</trkpt>
<trkpt lat="46.0922930" lon="10.5027950">
	<ele>2054.00</ele>
	<time>2023-08-07T04:43:50.000Z</time>
</trkpt>
<trkpt lat="46.0922980" lon="10.5027890">
	<ele>2054.20</ele>
	<time>2023-08-07T04:43:51.000Z</time>
</trkpt>
<trkpt lat="46.0923030" lon="10.5027810">
	<ele>2054.20</ele>
	<time>2023-08-07T04:43:52.000Z</time>
</trkpt>
<trkpt lat="46.0923110" lon="10.5027760">
	<ele>2054.20</ele>
	<time>2023-08-07T04:43:53.000Z</time>
</trkpt>
<trkpt lat="46.0923180" lon="10.5027740">
	<ele>2054.20</ele>
	<time>2023-08-07T04:43:54.000Z</time>
</trkpt>
<trkpt lat="46.0923270" lon="10.5027720">
	<ele>2054.20</ele>
	<time>2023-08-07T04:43:55.000Z</time>
</trkpt>
<trkpt lat="46.0923380" lon="10.5027690">
	<ele>2054.20</ele>
	<time>2023-08-07T04:43:56.000Z</time>
</trkpt>
<trkpt lat="46.0923500" lon="10.5027670">
	<ele>2054.00</ele>
	<time>2023-08-07T04:43:57.000Z</time>
</trkpt>
<trkpt lat="46.0923590" lon="10.5027650">
	<ele>2054.00</ele>
	<time>2023-08-07T04:43:58.000Z</time>
</trkpt>
<trkpt lat="46.0923700" lon="10.5027620">
	<ele>2054.00</ele>
	<time>2023-08-07T04:43:59.000Z</time>
</trkpt>
<trkpt lat="46.0923830" lon="10.5027630">
	<ele>2054.00</ele>
	<time>2023-08-07T04:44:00.000Z</time>
</trkpt>
<trkpt lat="46.0923970" lon="10.5027620">
	<ele>2054.00</ele>
	<time>2023-08-07T04:44:01.000Z</time>
</trkpt>
<trkpt lat="46.0924070" lon="10.5027600">
	<ele>2054.00</ele>
	<time>2023-08-07T04:44:02.000Z</time>
</trkpt>
<trkpt lat="46.0924160" lon="10.5027590">
	<ele>2054.20</ele>
	<time>2023-08-07T04:44:03.000Z</time>
</trkpt>
<trkpt lat="46.0924270" lon="10.5027600">
	<ele>2054.20</ele>
	<time>2023-08-07T04:44:04.000Z</time>
</trkpt>
<trkpt lat="46.0924370" lon="10.5027580">
	<ele>2054.20</ele>
	<time>2023-08-07T04:44:05.000Z</time>
</trkpt>
<trkpt lat="46.0924490" lon="10.5027530">
	<ele>2054.20</ele>
	<time>2023-08-07T04:44:06.000Z</time>
</trkpt>
<trkpt lat="46.0924620" lon="10.5027490">
	<ele>2054.20</ele>
	<time>2023-08-07T04:44:07.000Z</time>
</trkpt>
<trkpt lat="46.0924750" lon="10.5027470">
	<ele>2054.20</ele>
	<time>2023-08-07T04:44:08.000Z</time>
</trkpt>
<trkpt lat="46.0924900" lon="10.5027440">
	<ele>2054.20</ele>
	<time>2023-08-07T04:44:09.000Z</time>
</trkpt>
<trkpt lat="46.0925010" lon="10.5027420">
	<ele>2054.20</ele>
	<time>2023-08-07T04:44:10.000Z</time>
</trkpt>
<trkpt lat="46.0925140" lon="10.5027350">
	<ele>2054.20</ele>
	<time>2023-08-07T04:44:11.000Z</time>
</trkpt>
<trkpt lat="46.0925260" lon="10.5027300">
	<ele>2054.20</ele>
	<time>2023-08-07T04:44:12.000Z</time>
</trkpt>
<trkpt lat="46.0925400" lon="10.5027220">
	<ele>2054.20</ele>
	<time>2023-08-07T04:44:13.000Z</time>
</trkpt>
<trkpt lat="46.0925520" lon="10.5027180">
	<ele>2054.20</ele>
	<time>2023-08-07T04:44:14.000Z</time>
</trkpt>
<trkpt lat="46.0925640" lon="10.5027160">
	<ele>2054.20</ele>
	<time>2023-08-07T04:44:15.000Z</time>
</trkpt>
<trkpt lat="46.0925730" lon="10.5027120">
	<ele>2054.00</ele>
	<time>2023-08-07T04:44:16.000Z</time>
</trkpt>
<trkpt lat="46.0925830" lon="10.5027050">
	<ele>2054.00</ele>
	<time>2023-08-07T04:44:17.000Z</time>
</trkpt>
<trkpt lat="46.0925930" lon="10.5026960">
	<ele>2054.00</ele>
	<time>2023-08-07T04:44:18.000Z</time>
</trkpt>
<trkpt lat="46.0926040" lon="10.5026870">
	<ele>2053.80</ele>
	<time>2023-08-07T04:44:19.000Z</time>
</trkpt>
<trkpt lat="46.0926130" lon="10.5026800">
	<ele>2053.80</ele>
	<time>2023-08-07T04:44:20.000Z</time>
</trkpt>
<trkpt lat="46.0926230" lon="10.5026740">
	<ele>2053.80</ele>
	<time>2023-08-07T04:44:21.000Z</time>
</trkpt>
<trkpt lat="46.0926370" lon="10.5026710">
	<ele>2053.80</ele>
	<time>2023-08-07T04:44:22.000Z</time>
</trkpt>
<trkpt lat="46.0926490" lon="10.5026660">
	<ele>2053.60</ele>
	<time>2023-08-07T04:44:23.000Z</time>
</trkpt>
<trkpt lat="46.0926580" lon="10.5026600">
	<ele>2053.40</ele>
	<time>2023-08-07T04:44:24.000Z</time>
</trkpt>
<trkpt lat="46.0926690" lon="10.5026530">
	<ele>2053.40</ele>
	<time>2023-08-07T04:44:25.000Z</time>
</trkpt>
<trkpt lat="46.0926780" lon="10.5026520">
	<ele>2053.40</ele>
	<time>2023-08-07T04:44:26.000Z</time>
</trkpt>
<trkpt lat="46.0926880" lon="10.5026540">
	<ele>2053.40</ele>
	<time>2023-08-07T04:44:27.000Z</time>
</trkpt>
<trkpt lat="46.0927000" lon="10.5026520">
	<ele>2053.60</ele>
	<time>2023-08-07T04:44:28.000Z</time>
</trkpt>
<trkpt lat="46.0927080" lon="10.5026440">
	<ele>2053.60</ele>
	<time>2023-08-07T04:44:29.000Z</time>
</trkpt>
<trkpt lat="46.0927150" lon="10.5026390">
	<ele>2053.60</ele>
	<time>2023-08-07T04:44:30.000Z</time>
</trkpt>
<trkpt lat="46.0927190" lon="10.5026370">
	<ele>2053.60</ele>
	<time>2023-08-07T04:44:31.000Z</time>
</trkpt>
<trkpt lat="46.0927220" lon="10.5026330">
	<ele>2053.60</ele>
	<time>2023-08-07T04:44:32.000Z</time>
</trkpt>
<trkpt lat="46.0927250" lon="10.5026290">
	<ele>2053.80</ele>
	<time>2023-08-07T04:44:33.000Z</time>
</trkpt>
<trkpt lat="46.0927290" lon="10.5026220">
	<ele>2053.80</ele>
	<time>2023-08-07T04:44:34.000Z</time>
</trkpt>
<trkpt lat="46.0927330" lon="10.5026150">
	<ele>2053.80</ele>
	<time>2023-08-07T04:44:35.000Z</time>
</trkpt>
<trkpt lat="46.0927380" lon="10.5026050">
	<ele>2053.60</ele>
	<time>2023-08-07T04:44:36.000Z</time>
</trkpt>
<trkpt lat="46.0927460" lon="10.5025940">
	<ele>2053.60</ele>
	<time>2023-08-07T04:44:37.000Z</time>
</trkpt>
<trkpt lat="46.0927550" lon="10.5025890">
	<ele>2053.60</ele>
	<time>2023-08-07T04:44:38.000Z</time>
</trkpt>
<trkpt lat="46.0927670" lon="10.5025900">
	<ele>2053.80</ele>
	<time>2023-08-07T04:44:39.000Z</time>
</trkpt>
<trkpt lat="46.0927780" lon="10.5025970">
	<ele>2053.80</ele>
	<time>2023-08-07T04:44:40.000Z</time>
</trkpt>
<trkpt lat="46.0927880" lon="10.5026060">
	<ele>2053.80</ele>
	<time>2023-08-07T04:44:41.000Z</time>
</trkpt>
<trkpt lat="46.0928020" lon="10.5026120">
	<ele>2053.80</ele>
	<time>2023-08-07T04:44:42.000Z</time>
</trkpt>
<trkpt lat="46.0928160" lon="10.5026180">
	<ele>2053.80</ele>
	<time>2023-08-07T04:44:43.000Z</time>
</trkpt>
<trkpt lat="46.0928260" lon="10.5026270">
	<ele>2053.80</ele>
	<time>2023-08-07T04:44:44.000Z</time>
</trkpt>
<trkpt lat="46.0928360" lon="10.5026310">
	<ele>2053.80</ele>
	<time>2023-08-07T04:44:45.000Z</time>
</trkpt>
<trkpt lat="46.0928490" lon="10.5026300">
	<ele>2053.80</ele>
	<time>2023-08-07T04:44:46.000Z</time>
</trkpt>
<trkpt lat="46.0928580" lon="10.5026300">
	<ele>2053.80</ele>
	<time>2023-08-07T04:44:47.000Z</time>
</trkpt>
<trkpt lat="46.0928620" lon="10.5026250">
	<ele>2053.80</ele>
	<time>2023-08-07T04:44:48.000Z</time>
</trkpt>
<trkpt lat="46.0928670" lon="10.5026160">
	<ele>2053.60</ele>
	<time>2023-08-07T04:44:49.000Z</time>
</trkpt>
<trkpt lat="46.0928710" lon="10.5026080">
	<ele>2053.60</ele>
	<time>2023-08-07T04:44:50.000Z</time>
</trkpt>
<trkpt lat="46.0928780" lon="10.5025990">
	<ele>2053.60</ele>
	<time>2023-08-07T04:44:51.000Z</time>
</trkpt>
<trkpt lat="46.0928850" lon="10.5025930">
	<ele>2053.60</ele>
	<time>2023-08-07T04:44:52.000Z</time>
</trkpt>
<trkpt lat="46.0928930" lon="10.5025850">
	<ele>2053.60</ele>
	<time>2023-08-07T04:44:53.000Z</time>
</trkpt>
<trkpt lat="46.0929030" lon="10.5025800">
	<ele>2053.60</ele>
	<time>2023-08-07T04:44:54.000Z</time>
</trkpt>
<trkpt lat="46.0929120" lon="10.5025790">
	<ele>2053.60</ele>
	<time>2023-08-07T04:44:55.000Z</time>
</trkpt>
<trkpt lat="46.0929230" lon="10.5025820">
	<ele>2053.40</ele>
	<time>2023-08-07T04:44:56.000Z</time>
</trkpt>
<trkpt lat="46.0929330" lon="10.5025830">
	<ele>2053.60</ele>
	<time>2023-08-07T04:44:57.000Z</time>
</trkpt>
<trkpt lat="46.0929440" lon="10.5025840">
	<ele>2053.60</ele>
	<time>2023-08-07T04:44:58.000Z</time>
</trkpt>
<trkpt lat="46.0929540" lon="10.5025860">
	<ele>2053.60</ele>
	<time>2023-08-07T04:44:59.000Z</time>
</trkpt>
<trkpt lat="46.0929630" lon="10.5025870">
	<ele>2053.60</ele>
	<time>2023-08-07T04:45:00.000Z</time>
</trkpt>
<trkpt lat="46.0929700" lon="10.5025890">
	<ele>2053.60</ele>
	<time>2023-08-07T04:45:01.000Z</time>
</trkpt>
<trkpt lat="46.0929800" lon="10.5025900">
	<ele>2053.60</ele>
	<time>2023-08-07T04:45:02.000Z</time>
</trkpt>
<trkpt lat="46.0929910" lon="10.5025940">
	<ele>2053.60</ele>
	<time>2023-08-07T04:45:03.000Z</time>
</trkpt>
<trkpt lat="46.0930000" lon="10.5025970">
	<ele>2053.60</ele>
	<time>2023-08-07T04:45:04.000Z</time>
</trkpt>
<trkpt lat="46.0930090" lon="10.5026020">
	<ele>2053.60</ele>
	<time>2023-08-07T04:45:05.000Z</time>
</trkpt>
<trkpt lat="46.0930170" lon="10.5026080">
	<ele>2053.60</ele>
	<time>2023-08-07T04:45:06.000Z</time>
</trkpt>
<trkpt lat="46.0930270" lon="10.5026150">
	<ele>2053.60</ele>
	<time>2023-08-07T04:45:07.000Z</time>
</trkpt>
<trkpt lat="46.0930400" lon="10.5026210">
	<ele>2053.60</ele>
	<time>2023-08-07T04:45:08.000Z</time>
</trkpt>
<trkpt lat="46.0930540" lon="10.5026190">
	<ele>2053.60</ele>
	<time>2023-08-07T04:45:09.000Z</time>
</trkpt>
<trkpt lat="46.0930670" lon="10.5026230">
	<ele>2053.60</ele>
	<time>2023-08-07T04:45:10.000Z</time>
</trkpt>
<trkpt lat="46.0930790" lon="10.5026320">
	<ele>2053.80</ele>
	<time>2023-08-07T04:45:11.000Z</time>
</trkpt>
<trkpt lat="46.0930900" lon="10.5026400">
	<ele>2053.80</ele>
	<time>2023-08-07T04:45:12.000Z</time>
</trkpt>
<trkpt lat="46.0931020" lon="10.5026470">
	<ele>2053.80</ele>
	<time>2023-08-07T04:45:13.000Z</time>
</trkpt>
<trkpt lat="46.0931140" lon="10.5026540">
	<ele>2053.80</ele>
	<time>2023-08-07T04:45:14.000Z</time>
</trkpt>
<trkpt lat="46.0931250" lon="10.5026610">
	<ele>2053.80</ele>
	<time>2023-08-07T04:45:15.000Z</time>
</trkpt>
<trkpt lat="46.0931390" lon="10.5026670">
	<ele>2054.00</ele>
	<time>2023-08-07T04:45:16.000Z</time>
</trkpt>
<trkpt lat="46.0931520" lon="10.5026730">
	<ele>2054.00</ele>
	<time>2023-08-07T04:45:17.000Z</time>
</trkpt>
<trkpt lat="46.0931630" lon="10.5026810">
	<ele>2054.00</ele>
	<time>2023-08-07T04:45:18.000Z</time>
</trkpt>
<trkpt lat="46.0931740" lon="10.5026870">
	<ele>2054.00</ele>
	<time>2023-08-07T04:45:19.000Z</time>
</trkpt>
<trkpt lat="46.0931800" lon="10.5026950">
	<ele>2054.00</ele>
	<time>2023-08-07T04:45:20.000Z</time>
</trkpt>
<trkpt lat="46.0931890" lon="10.5026960">
	<ele>2054.20</ele>
	<time>2023-08-07T04:45:21.000Z</time>
</trkpt>
<trkpt lat="46.0931980" lon="10.5026980">
	<ele>2054.20</ele>
	<time>2023-08-07T04:45:22.000Z</time>
</trkpt>
<trkpt lat="46.0932050" lon="10.5027020">
	<ele>2054.20</ele>
	<time>2023-08-07T04:45:23.000Z</time>
</trkpt>
<trkpt lat="46.0932120" lon="10.5027060">
	<ele>2054.40</ele>
	<time>2023-08-07T04:45:24.000Z</time>
</trkpt>
<trkpt lat="46.0932220" lon="10.5027080">
	<ele>2054.40</ele>
	<time>2023-08-07T04:45:25.000Z</time>
</trkpt>
<trkpt lat="46.0932310" lon="10.5027150">
	<ele>2054.40</ele>
	<time>2023-08-07T04:45:26.000Z</time>
</trkpt>
<trkpt lat="46.0932410" lon="10.5027210">
	<ele>2054.40</ele>
	<time>2023-08-07T04:45:27.000Z</time>
</trkpt>
<trkpt lat="46.0932490" lon="10.5027240">
	<ele>2054.40</ele>
	<time>2023-08-07T04:45:28.000Z</time>
</trkpt>
<trkpt lat="46.0932590" lon="10.5027270">
	<ele>2054.40</ele>
	<time>2023-08-07T04:45:29.000Z</time>
</trkpt>
<trkpt lat="46.0932700" lon="10.5027300">
	<ele>2054.40</ele>
	<time>2023-08-07T04:45:30.000Z</time>
</trkpt>
<trkpt lat="46.0932820" lon="10.5027280">
	<ele>2054.40</ele>
	<time>2023-08-07T04:45:31.000Z</time>
</trkpt>
<trkpt lat="46.0932940" lon="10.5027240">
	<ele>2054.40</ele>
	<time>2023-08-07T04:45:32.000Z</time>
</trkpt>
<trkpt lat="46.0933060" lon="10.5027200">
	<ele>2054.40</ele>
	<time>2023-08-07T04:45:33.000Z</time>
</trkpt>
<trkpt lat="46.0933180" lon="10.5027210">
	<ele>2054.40</ele>
	<time>2023-08-07T04:45:34.000Z</time>
</trkpt>
<trkpt lat="46.0933280" lon="10.5027260">
	<ele>2054.60</ele>
	<time>2023-08-07T04:45:35.000Z</time>
</trkpt>
<trkpt lat="46.0933360" lon="10.5027310">
	<ele>2054.60</ele>
	<time>2023-08-07T04:45:36.000Z</time>
</trkpt>
<trkpt lat="46.0933430" lon="10.5027400">
	<ele>2054.80</ele>
	<time>2023-08-07T04:45:37.000Z</time>
</trkpt>
<trkpt lat="46.0933470" lon="10.5027480">
	<ele>2054.80</ele>
	<time>2023-08-07T04:45:38.000Z</time>
</trkpt>
<trkpt lat="46.0933530" lon="10.5027550">
	<ele>2055.00</ele>
	<time>2023-08-07T04:45:39.000Z</time>
</trkpt>
<trkpt lat="46.0933640" lon="10.5027640">
	<ele>2055.00</ele>
	<time>2023-08-07T04:45:40.000Z</time>
</trkpt>
<trkpt lat="46.0933740" lon="10.5027710">
	<ele>2055.00</ele>
	<time>2023-08-07T04:45:41.000Z</time>
</trkpt>
<trkpt lat="46.0933850" lon="10.5027780">
	<ele>2055.00</ele>
	<time>2023-08-07T04:45:42.000Z</time>
</trkpt>
<trkpt lat="46.0933940" lon="10.5027870">
	<ele>2055.00</ele>
	<time>2023-08-07T04:45:43.000Z</time>
</trkpt>
<trkpt lat="46.0934070" lon="10.5027930">
	<ele>2054.80</ele>
	<time>2023-08-07T04:45:44.000Z</time>
</trkpt>
<trkpt lat="46.0934190" lon="10.5027980">
	<ele>2054.80</ele>
	<time>2023-08-07T04:45:45.000Z</time>
</trkpt>
<trkpt lat="46.0934320" lon="10.5028010">
	<ele>2054.80</ele>
	<time>2023-08-07T04:45:46.000Z</time>
</trkpt>
<trkpt lat="46.0934470" lon="10.5028010">
	<ele>2054.80</ele>
	<time>2023-08-07T04:45:47.000Z</time>
</trkpt>
<trkpt lat="46.0934590" lon="10.5028020">
	<ele>2055.00</ele>
	<time>2023-08-07T04:45:48.000Z</time>
</trkpt>
<trkpt lat="46.0934690" lon="10.5028010">
	<ele>2055.00</ele>
	<time>2023-08-07T04:45:49.000Z</time>
</trkpt>
<trkpt lat="46.0934820" lon="10.5027980">
	<ele>2055.00</ele>
	<time>2023-08-07T04:45:50.000Z</time>
</trkpt>
<trkpt lat="46.0934950" lon="10.5027960">
	<ele>2055.20</ele>
	<time>2023-08-07T04:45:51.000Z</time>
</trkpt>
<trkpt lat="46.0935070" lon="10.5027970">
	<ele>2055.20</ele>
	<time>2023-08-07T04:45:52.000Z</time>
</trkpt>
<trkpt lat="46.0935190" lon="10.5028000">
	<ele>2055.20</ele>
	<time>2023-08-07T04:45:53.000Z</time>
</trkpt>
<trkpt lat="46.0935300" lon="10.5028010">
	<ele>2055.20</ele>
	<time>2023-08-07T04:45:54.000Z</time>
</trkpt>
<trkpt lat="46.0935420" lon="10.5028040">
	<ele>2055.20</ele>
	<time>2023-08-07T04:45:55.000Z</time>
</trkpt>
<trkpt lat="46.0935530" lon="10.5028030">
	<ele>2055.20</ele>
	<time>2023-08-07T04:45:56.000Z</time>
</trkpt>
<trkpt lat="46.0935640" lon="10.5027980">
	<ele>2055.20</ele>
	<time>2023-08-07T04:45:57.000Z</time>
</trkpt>
<trkpt lat="46.0935770" lon="10.5027950">
	<ele>2055.40</ele>
	<time>2023-08-07T04:45:58.000Z</time>
</trkpt>
<trkpt lat="46.0935890" lon="10.5027980">
	<ele>2055.40</ele>
	<time>2023-08-07T04:45:59.000Z</time>
</trkpt>
<trkpt lat="46.0936010" lon="10.5028020">
	<ele>2055.60</ele>
	<time>2023-08-07T04:46:00.000Z</time>
</trkpt>
<trkpt lat="46.0936140" lon="10.5028070">
	<ele>2055.60</ele>
	<time>2023-08-07T04:46:01.000Z</time>
</trkpt>
<trkpt lat="46.0936240" lon="10.5028110">
	<ele>2055.80</ele>
	<time>2023-08-07T04:46:02.000Z</time>
</trkpt>
<trkpt lat="46.0936380" lon="10.5028100">
	<ele>2056.00</ele>
	<time>2023-08-07T04:46:03.000Z</time>
</trkpt>
<trkpt lat="46.0936490" lon="10.5028090">
	<ele>2056.00</ele>
	<time>2023-08-07T04:46:04.000Z</time>
</trkpt>
<trkpt lat="46.0936590" lon="10.5028070">
	<ele>2056.00</ele>
	<time>2023-08-07T04:46:05.000Z</time>
</trkpt>
<trkpt lat="46.0936690" lon="10.5028040">
	<ele>2056.00</ele>
	<time>2023-08-07T04:46:06.000Z</time>
</trkpt>
<trkpt lat="46.0936750" lon="10.5028060">
	<ele>2056.00</ele>
	<time>2023-08-07T04:46:07.000Z</time>
</trkpt>
<trkpt lat="46.0936830" lon="10.5028090">
	<ele>2056.20</ele>
	<time>2023-08-07T04:46:08.000Z</time>
</trkpt>
<trkpt lat="46.0936930" lon="10.5028130">
	<ele>2056.20</ele>
	<time>2023-08-07T04:46:09.000Z</time>
</trkpt>
<trkpt lat="46.0937010" lon="10.5028180">
	<ele>2056.20</ele>
	<time>2023-08-07T04:46:10.000Z</time>
</trkpt>
<trkpt lat="46.0937120" lon="10.5028210">
	<ele>2056.20</ele>
	<time>2023-08-07T04:46:11.000Z</time>
</trkpt>
<trkpt lat="46.0937240" lon="10.5028250">
	<ele>2056.00</ele>
	<time>2023-08-07T04:46:12.000Z</time>
</trkpt>
<trkpt lat="46.0937360" lon="10.5028280">
	<ele>2056.00</ele>
	<time>2023-08-07T04:46:13.000Z</time>
</trkpt>
<trkpt lat="46.0937470" lon="10.5028310">
	<ele>2056.00</ele>
	<time>2023-08-07T04:46:14.000Z</time>
</trkpt>
<trkpt lat="46.0937570" lon="10.5028360">
	<ele>2056.00</ele>
	<time>2023-08-07T04:46:15.000Z</time>
</trkpt>
<trkpt lat="46.0937650" lon="10.5028470">
	<ele>2056.00</ele>
	<time>2023-08-07T04:46:16.000Z</time>
</trkpt>
<trkpt lat="46.0937690" lon="10.5028550">
	<ele>2056.00</ele>
	<time>2023-08-07T04:46:17.000Z</time>
</trkpt>
<trkpt lat="46.0937780" lon="10.5028590">
	<ele>2056.00</ele>
	<time>2023-08-07T04:46:18.000Z</time>
</trkpt>
<trkpt lat="46.0937870" lon="10.5028600">
	<ele>2056.00</ele>
	<time>2023-08-07T04:46:19.000Z</time>
</trkpt>
<trkpt lat="46.0937960" lon="10.5028650">
	<ele>2056.20</ele>
	<time>2023-08-07T04:46:20.000Z</time>
</trkpt>
<trkpt lat="46.0938080" lon="10.5028710">
	<ele>2056.20</ele>
	<time>2023-08-07T04:46:21.000Z</time>
</trkpt>
<trkpt lat="46.0938180" lon="10.5028770">
	<ele>2056.40</ele>
	<time>2023-08-07T04:46:22.000Z</time>
</trkpt>
<trkpt lat="46.0938280" lon="10.5028830">
	<ele>2056.40</ele>
	<time>2023-08-07T04:46:23.000Z</time>
</trkpt>
<trkpt lat="46.0938390" lon="10.5028880">
	<ele>2056.40</ele>
	<time>2023-08-07T04:46:24.000Z</time>
</trkpt>
<trkpt lat="46.0938530" lon="10.5028950">
	<ele>2056.60</ele>
	<time>2023-08-07T04:46:25.000Z</time>
</trkpt>
<trkpt lat="46.0938640" lon="10.5029050">
	<ele>2056.40</ele>
	<time>2023-08-07T04:46:26.000Z</time>
</trkpt>
<trkpt lat="46.0938750" lon="10.5029100">
	<ele>2056.40</ele>
	<time>2023-08-07T04:46:27.000Z</time>
</trkpt>
<trkpt lat="46.0938880" lon="10.5029130">
	<ele>2056.60</ele>
	<time>2023-08-07T04:46:28.000Z</time>
</trkpt>
<trkpt lat="46.0939020" lon="10.5029170">
	<ele>2056.60</ele>
	<time>2023-08-07T04:46:29.000Z</time>
</trkpt>
<trkpt lat="46.0939110" lon="10.5029190">
	<ele>2056.60</ele>
	<time>2023-08-07T04:46:30.000Z</time>
</trkpt>
<trkpt lat="46.0939190" lon="10.5029220">
	<ele>2056.60</ele>
	<time>2023-08-07T04:46:31.000Z</time>
</trkpt>
<trkpt lat="46.0939280" lon="10.5029200">
	<ele>2056.60</ele>
	<time>2023-08-07T04:46:32.000Z</time>
</trkpt>
<trkpt lat="46.0939370" lon="10.5029170">
	<ele>2056.60</ele>
	<time>2023-08-07T04:46:33.000Z</time>
</trkpt>
<trkpt lat="46.0939430" lon="10.5029160">
	<ele>2056.60</ele>
	<time>2023-08-07T04:46:34.000Z</time>
</trkpt>
<trkpt lat="46.0939500" lon="10.5029180">
	<ele>2056.60</ele>
	<time>2023-08-07T04:46:35.000Z</time>
</trkpt>
<trkpt lat="46.0939610" lon="10.5029170">
	<ele>2056.80</ele>
	<time>2023-08-07T04:46:36.000Z</time>
</trkpt>
<trkpt lat="46.0939710" lon="10.5029240">
	<ele>2056.80</ele>
	<time>2023-08-07T04:46:37.000Z</time>
</trkpt>
<trkpt lat="46.0939830" lon="10.5029320">
	<ele>2056.80</ele>
	<time>2023-08-07T04:46:38.000Z</time>
</trkpt>
<trkpt lat="46.0939960" lon="10.5029410">
	<ele>2056.80</ele>
	<time>2023-08-07T04:46:39.000Z</time>
</trkpt>
<trkpt lat="46.0940090" lon="10.5029480">
	<ele>2056.60</ele>
	<time>2023-08-07T04:46:40.000Z</time>
</trkpt>
<trkpt lat="46.0940230" lon="10.5029530">
	<ele>2056.60</ele>
	<time>2023-08-07T04:46:41.000Z</time>
</trkpt>
<trkpt lat="46.0940350" lon="10.5029600">
	<ele>2056.60</ele>
	<time>2023-08-07T04:46:42.000Z</time>
</trkpt>
<trkpt lat="46.0940450" lon="10.5029690">
	<ele>2056.60</ele>
	<time>2023-08-07T04:46:43.000Z</time>
</trkpt>
<trkpt lat="46.0940580" lon="10.5029760">
	<ele>2056.60</ele>
	<time>2023-08-07T04:46:44.000Z</time>
</trkpt>
<trkpt lat="46.0940680" lon="10.5029860">
	<ele>2056.60</ele>
	<time>2023-08-07T04:46:45.000Z</time>
</trkpt>
<trkpt lat="46.0940800" lon="10.5029930">
	<ele>2056.60</ele>
	<time>2023-08-07T04:46:46.000Z</time>
</trkpt>
<trkpt lat="46.0940870" lon="10.5030000">
	<ele>2056.60</ele>
	<time>2023-08-07T04:46:47.000Z</time>
</trkpt>
<trkpt lat="46.0940920" lon="10.5030080">
	<ele>2056.60</ele>
	<time>2023-08-07T04:46:48.000Z</time>
</trkpt>
<trkpt lat="46.0940970" lon="10.5030160">
	<ele>2056.60</ele>
	<time>2023-08-07T04:46:49.000Z</time>
</trkpt>
<trkpt lat="46.0941050" lon="10.5030250">
	<ele>2056.40</ele>
	<time>2023-08-07T04:46:50.000Z</time>
</trkpt>
<trkpt lat="46.0941130" lon="10.5030340">
	<ele>2056.60</ele>
	<time>2023-08-07T04:46:51.000Z</time>
</trkpt>
<trkpt lat="46.0941220" lon="10.5030390">
	<ele>2056.60</ele>
	<time>2023-08-07T04:46:52.000Z</time>
</trkpt>
<trkpt lat="46.0941270" lon="10.5030440">
	<ele>2056.60</ele>
	<time>2023-08-07T04:46:53.000Z</time>
</trkpt>
<trkpt lat="46.0941290" lon="10.5030460">
	<ele>2056.60</ele>
	<time>2023-08-07T04:46:54.000Z</time>
</trkpt>
<trkpt lat="46.0941300" lon="10.5030470">
	<ele>2056.80</ele>
	<time>2023-08-07T04:46:55.000Z</time>
</trkpt>
<trkpt lat="46.0941310" lon="10.5030480">
	<ele>2057.00</ele>
	<time>2023-08-07T04:46:56.000Z</time>
</trkpt>
<trkpt lat="46.0941320" lon="10.5030490">
	<ele>2057.20</ele>
	<time>2023-08-07T04:46:57.000Z</time>
</trkpt>
<trkpt lat="46.0941320" lon="10.5030480">
	<ele>2057.20</ele>
	<time>2023-08-07T04:46:58.000Z</time>
</trkpt>
<trkpt lat="46.0941330" lon="10.5030480">
	<ele>2057.40</ele>
	<time>2023-08-07T04:46:59.000Z</time>
</trkpt>
<trkpt lat="46.0941340" lon="10.5030460">
	<ele>2057.40</ele>
	<time>2023-08-07T04:47:00.000Z</time>
</trkpt>
<trkpt lat="46.0941350" lon="10.5030430">
	<ele>2057.20</ele>
	<time>2023-08-07T04:47:01.000Z</time>
</trkpt>
<trkpt lat="46.0941330" lon="10.5030400">
	<ele>2057.20</ele>
	<time>2023-08-07T04:47:02.000Z</time>
</trkpt>
<trkpt lat="46.0941330" lon="10.5030400">
	<ele>2057.20</ele>
	<time>2023-08-07T04:47:03.000Z</time>
</trkpt>
<trkpt lat="46.0941340" lon="10.5030380">
	<ele>2056.80</ele>
	<time>2023-08-07T04:47:04.000Z</time>
</trkpt>
<trkpt lat="46.0941330" lon="10.5030380">
	<ele>2056.60</ele>
	<time>2023-08-07T04:47:05.000Z</time>
</trkpt>
<trkpt lat="46.0941330" lon="10.5030380">
	<ele>2056.60</ele>
	<time>2023-08-07T04:47:06.000Z</time>
</trkpt>
<trkpt lat="46.0941330" lon="10.5030380">
	<ele>2056.40</ele>
	<time>2023-08-07T04:47:07.000Z</time>
</trkpt>
<trkpt lat="46.0941330" lon="10.5030380">
	<ele>2056.40</ele>
	<time>2023-08-07T04:47:08.000Z</time>
</trkpt>
<trkpt lat="46.0941330" lon="10.5030380">
	<ele>2056.40</ele>
	<time>2023-08-07T04:47:09.000Z</time>
</trkpt>
<trkpt lat="46.0941360" lon="10.5030390">
	<ele>2056.40</ele>
	<time>2023-08-07T04:47:10.000Z</time>
</trkpt>
<trkpt lat="46.0941480" lon="10.5030490">
	<ele>2056.40</ele>
	<time>2023-08-07T04:47:11.000Z</time>
</trkpt>
<trkpt lat="46.0941580" lon="10.5030600">
	<ele>2056.40</ele>
	<time>2023-08-07T04:47:12.000Z</time>
</trkpt>
<trkpt lat="46.0941680" lon="10.5030670">
	<ele>2056.40</ele>
	<time>2023-08-07T04:47:13.000Z</time>
</trkpt>
<trkpt lat="46.0941820" lon="10.5030750">
	<ele>2056.60</ele>
	<time>2023-08-07T04:47:14.000Z</time>
</trkpt>
<trkpt lat="46.0941940" lon="10.5030840">
	<ele>2056.60</ele>
	<time>2023-08-07T04:47:15.000Z</time>
</trkpt>
<trkpt lat="46.0942040" lon="10.5030940">
	<ele>2056.60</ele>
	<time>2023-08-07T04:47:16.000Z</time>
</trkpt>
<trkpt lat="46.0942180" lon="10.5031000">
	<ele>2056.60</ele>
	<time>2023-08-07T04:47:17.000Z</time>
</trkpt>
<trkpt lat="46.0942330" lon="10.5031050">
	<ele>2056.60</ele>
	<time>2023-08-07T04:47:18.000Z</time>
</trkpt>
<trkpt lat="46.0942460" lon="10.5031110">
	<ele>2056.60</ele>
	<time>2023-08-07T04:47:19.000Z</time>
</trkpt>
<trkpt lat="46.0942540" lon="10.5031180">
	<ele>2056.60</ele>
	<time>2023-08-07T04:47:20.000Z</time>
</trkpt>
<trkpt lat="46.0942630" lon="10.5031210">
	<ele>2056.40</ele>
	<time>2023-08-07T04:47:21.000Z</time>
</trkpt>
<trkpt lat="46.0942730" lon="10.5031220">
	<ele>2056.40</ele>
	<time>2023-08-07T04:47:22.000Z</time>
</trkpt>
<trkpt lat="46.0942800" lon="10.5031280">
	<ele>2056.40</ele>
	<time>2023-08-07T04:47:23.000Z</time>
</trkpt>
<trkpt lat="46.0942900" lon="10.5031320">
	<ele>2056.20</ele>
	<time>2023-08-07T04:47:24.000Z</time>
</trkpt>
<trkpt lat="46.0943010" lon="10.5031360">
	<ele>2056.20</ele>
	<time>2023-08-07T04:47:25.000Z</time>
</trkpt>
<trkpt lat="46.0943120" lon="10.5031410">
	<ele>2056.20</ele>
	<time>2023-08-07T04:47:26.000Z</time>
</trkpt>
<trkpt lat="46.0943220" lon="10.5031450">
	<ele>2056.20</ele>
	<time>2023-08-07T04:47:27.000Z</time>
</trkpt>
<trkpt lat="46.0943320" lon="10.5031540">
	<ele>2056.20</ele>
	<time>2023-08-07T04:47:28.000Z</time>
</trkpt>
<trkpt lat="46.0943390" lon="10.5031630">
	<ele>2056.20</ele>
	<time>2023-08-07T04:47:29.000Z</time>
</trkpt>
<trkpt lat="46.0943480" lon="10.5031670">
	<ele>2056.20</ele>
	<time>2023-08-07T04:47:30.000Z</time>
</trkpt>
<trkpt lat="46.0943560" lon="10.5031720">
	<ele>2056.20</ele>
	<time>2023-08-07T04:47:31.000Z</time>
</trkpt>
<trkpt lat="46.0943630" lon="10.5031780">
	<ele>2056.20</ele>
	<time>2023-08-07T04:47:32.000Z</time>
</trkpt>
<trkpt lat="46.0943690" lon="10.5031840">
	<ele>2056.20</ele>
	<time>2023-08-07T04:47:33.000Z</time>
</trkpt>
<trkpt lat="46.0943740" lon="10.5031920">
	<ele>2056.20</ele>
	<time>2023-08-07T04:47:34.000Z</time>
</trkpt>
<trkpt lat="46.0943810" lon="10.5031940">
	<ele>2056.20</ele>
	<time>2023-08-07T04:47:35.000Z</time>
</trkpt>
<trkpt lat="46.0943890" lon="10.5031970">
	<ele>2056.20</ele>
	<time>2023-08-07T04:47:36.000Z</time>
</trkpt>
<trkpt lat="46.0943970" lon="10.5032000">
	<ele>2056.00</ele>
	<time>2023-08-07T04:47:37.000Z</time>
</trkpt>
<trkpt lat="46.0944080" lon="10.5032020">
	<ele>2056.00</ele>
	<time>2023-08-07T04:47:38.000Z</time>
</trkpt>
<trkpt lat="46.0944210" lon="10.5032060">
	<ele>2056.00</ele>
	<time>2023-08-07T04:47:39.000Z</time>
</trkpt>
<trkpt lat="46.0944290" lon="10.5032150">
	<ele>2056.00</ele>
	<time>2023-08-07T04:47:40.000Z</time>
</trkpt>
<trkpt lat="46.0944390" lon="10.5032210">
	<ele>2056.00</ele>
	<time>2023-08-07T04:47:41.000Z</time>
</trkpt>
<trkpt lat="46.0944510" lon="10.5032220">
	<ele>2056.00</ele>
	<time>2023-08-07T04:47:42.000Z</time>
</trkpt>
<trkpt lat="46.0944610" lon="10.5032240">
	<ele>2056.00</ele>
	<time>2023-08-07T04:47:43.000Z</time>
</trkpt>
<trkpt lat="46.0944720" lon="10.5032280">
	<ele>2056.20</ele>
	<time>2023-08-07T04:47:44.000Z</time>
</trkpt>
<trkpt lat="46.0944860" lon="10.5032320">
	<ele>2056.40</ele>
	<time>2023-08-07T04:47:45.000Z</time>
</trkpt>
<trkpt lat="46.0945000" lon="10.5032320">
	<ele>2056.40</ele>
	<time>2023-08-07T04:47:46.000Z</time>
</trkpt>
<trkpt lat="46.0945120" lon="10.5032340">
	<ele>2056.40</ele>
	<time>2023-08-07T04:47:47.000Z</time>
</trkpt>
<trkpt lat="46.0945180" lon="10.5032510">
	<ele>2056.60</ele>
	<time>2023-08-07T04:47:48.000Z</time>
</trkpt>
<trkpt lat="46.0945290" lon="10.5032600">
	<ele>2056.60</ele>
	<time>2023-08-07T04:47:49.000Z</time>
</trkpt>
<trkpt lat="46.0945420" lon="10.5032630">
	<ele>2056.60</ele>
	<time>2023-08-07T04:47:50.000Z</time>
</trkpt>
<trkpt lat="46.0945540" lon="10.5032680">
	<ele>2056.80</ele>
	<time>2023-08-07T04:47:51.000Z</time>
</trkpt>
<trkpt lat="46.0945660" lon="10.5032760">
	<ele>2056.80</ele>
	<time>2023-08-07T04:47:52.000Z</time>
</trkpt>
<trkpt lat="46.0945780" lon="10.5032790">
	<ele>2056.80</ele>
	<time>2023-08-07T04:47:53.000Z</time>
</trkpt>
<trkpt lat="46.0945890" lon="10.5032840">
	<ele>2057.00</ele>
	<time>2023-08-07T04:47:54.000Z</time>
</trkpt>
<trkpt lat="46.0945990" lon="10.5032870">
	<ele>2057.00</ele>
	<time>2023-08-07T04:47:55.000Z</time>
</trkpt>
<trkpt lat="46.0946070" lon="10.5032920">
	<ele>2057.00</ele>
	<time>2023-08-07T04:47:56.000Z</time>
</trkpt>
<trkpt lat="46.0946150" lon="10.5032980">
	<ele>2057.20</ele>
	<time>2023-08-07T04:47:57.000Z</time>
</trkpt>
<trkpt lat="46.0946230" lon="10.5033050">
	<ele>2057.20</ele>
	<time>2023-08-07T04:47:58.000Z</time>
</trkpt>
<trkpt lat="46.0946300" lon="10.5033110">
	<ele>2057.20</ele>
	<time>2023-08-07T04:47:59.000Z</time>
</trkpt>
<trkpt lat="46.0946380" lon="10.5033140">
	<ele>2057.40</ele>
	<time>2023-08-07T04:48:00.000Z</time>
</trkpt>
<trkpt lat="46.0946480" lon="10.5033170">
	<ele>2057.40</ele>
	<time>2023-08-07T04:48:01.000Z</time>
</trkpt>
<trkpt lat="46.0946590" lon="10.5033200">
	<ele>2057.60</ele>
	<time>2023-08-07T04:48:02.000Z</time>
</trkpt>
<trkpt lat="46.0946670" lon="10.5033270">
	<ele>2057.80</ele>
	<time>2023-08-07T04:48:03.000Z</time>
</trkpt>
<trkpt lat="46.0946750" lon="10.5033360">
	<ele>2057.80</ele>
	<time>2023-08-07T04:48:04.000Z</time>
</trkpt>
<trkpt lat="46.0946830" lon="10.5033440">
	<ele>2058.00</ele>
	<time>2023-08-07T04:48:05.000Z</time>
</trkpt>
<trkpt lat="46.0946910" lon="10.5033470">
	<ele>2058.00</ele>
	<time>2023-08-07T04:48:06.000Z</time>
</trkpt>
<trkpt lat="46.0946980" lon="10.5033530">
	<ele>2058.20</ele>
	<time>2023-08-07T04:48:07.000Z</time>
</trkpt>
<trkpt lat="46.0947060" lon="10.5033610">
	<ele>2058.20</ele>
	<time>2023-08-07T04:48:08.000Z</time>
</trkpt>
<trkpt lat="46.0947170" lon="10.5033630">
	<ele>2058.40</ele>
	<time>2023-08-07T04:48:09.000Z</time>
</trkpt>
<trkpt lat="46.0947290" lon="10.5033600">
	<ele>2058.40</ele>
	<time>2023-08-07T04:48:10.000Z</time>
</trkpt>
<trkpt lat="46.0947400" lon="10.5033570">
	<ele>2058.60</ele>
	<time>2023-08-07T04:48:11.000Z</time>
</trkpt>
<trkpt lat="46.0947520" lon="10.5033550">
	<ele>2058.60</ele>
	<time>2023-08-07T04:48:12.000Z</time>
</trkpt>
<trkpt lat="46.0947660" lon="10.5033550">
	<ele>2058.80</ele>
	<time>2023-08-07T04:48:13.000Z</time>
</trkpt>
<trkpt lat="46.0947790" lon="10.5033570">
	<ele>2058.80</ele>
	<time>2023-08-07T04:48:14.000Z</time>
</trkpt>
<trkpt lat="46.0947870" lon="10.5033650">
	<ele>2058.80</ele>
	<time>2023-08-07T04:48:15.000Z</time>
</trkpt>
<trkpt lat="46.0947970" lon="10.5033680">
	<ele>2059.00</ele>
	<time>2023-08-07T04:48:16.000Z</time>
</trkpt>
<trkpt lat="46.0948070" lon="10.5033730">
	<ele>2059.20</ele>
	<time>2023-08-07T04:48:17.000Z</time>
</trkpt>
<trkpt lat="46.0948150" lon="10.5033770">
	<ele>2059.40</ele>
	<time>2023-08-07T04:48:18.000Z</time>
</trkpt>
<trkpt lat="46.0948220" lon="10.5033830">
	<ele>2059.60</ele>
	<time>2023-08-07T04:48:19.000Z</time>
</trkpt>
<trkpt lat="46.0948310" lon="10.5033900">
	<ele>2059.60</ele>
	<time>2023-08-07T04:48:20.000Z</time>
</trkpt>
<trkpt lat="46.0948400" lon="10.5034000">
	<ele>2059.80</ele>
	<time>2023-08-07T04:48:21.000Z</time>
</trkpt>
<trkpt lat="46.0948510" lon="10.5034100">
	<ele>2059.80</ele>
	<time>2023-08-07T04:48:22.000Z</time>
</trkpt>
<trkpt lat="46.0948610" lon="10.5034200">
	<ele>2060.00</ele>
	<time>2023-08-07T04:48:23.000Z</time>
</trkpt>
<trkpt lat="46.0948720" lon="10.5034310">
	<ele>2060.20</ele>
	<time>2023-08-07T04:48:24.000Z</time>
</trkpt>
<trkpt lat="46.0948790" lon="10.5034440">
	<ele>2060.20</ele>
	<time>2023-08-07T04:48:25.000Z</time>
</trkpt>
<trkpt lat="46.0948840" lon="10.5034550">
	<ele>2060.20</ele>
	<time>2023-08-07T04:48:26.000Z</time>
</trkpt>
<trkpt lat="46.0948900" lon="10.5034710">
	<ele>2060.20</ele>
	<time>2023-08-07T04:48:27.000Z</time>
</trkpt>
<trkpt lat="46.0948950" lon="10.5034870">
	<ele>2060.40</ele>
	<time>2023-08-07T04:48:28.000Z</time>
</trkpt>
<trkpt lat="46.0949020" lon="10.5035010">
	<ele>2060.40</ele>
	<time>2023-08-07T04:48:29.000Z</time>
</trkpt>
<trkpt lat="46.0949100" lon="10.5035100">
	<ele>2060.60</ele>
	<time>2023-08-07T04:48:30.000Z</time>
</trkpt>
<trkpt lat="46.0949180" lon="10.5035200">
	<ele>2060.60</ele>
	<time>2023-08-07T04:48:31.000Z</time>
</trkpt>
<trkpt lat="46.0949230" lon="10.5035290">
	<ele>2060.80</ele>
	<time>2023-08-07T04:48:32.000Z</time>
</trkpt>
<trkpt lat="46.0949290" lon="10.5035400">
	<ele>2061.00</ele>
	<time>2023-08-07T04:48:33.000Z</time>
</trkpt>
<trkpt lat="46.0949320" lon="10.5035480">
	<ele>2061.20</ele>
	<time>2023-08-07T04:48:34.000Z</time>
</trkpt>
<trkpt lat="46.0949390" lon="10.5035530">
	<ele>2061.40</ele>
	<time>2023-08-07T04:48:35.000Z</time>
</trkpt>
<trkpt lat="46.0949480" lon="10.5035590">
	<ele>2061.60</ele>
	<time>2023-08-07T04:48:36.000Z</time>
</trkpt>
<trkpt lat="46.0949570" lon="10.5035710">
	<ele>2061.80</ele>
	<time>2023-08-07T04:48:37.000Z</time>
</trkpt>
<trkpt lat="46.0949610" lon="10.5035880">
	<ele>2062.00</ele>
	<time>2023-08-07T04:48:38.000Z</time>
</trkpt>
<trkpt lat="46.0949650" lon="10.5036030">
	<ele>2062.00</ele>
	<time>2023-08-07T04:48:39.000Z</time>
</trkpt>
<trkpt lat="46.0949680" lon="10.5036170">
	<ele>2062.00</ele>
	<time>2023-08-07T04:48:40.000Z</time>
</trkpt>
<trkpt lat="46.0949720" lon="10.5036300">
	<ele>2062.20</ele>
	<time>2023-08-07T04:48:41.000Z</time>
</trkpt>
<trkpt lat="46.0949800" lon="10.5036420">
	<ele>2062.40</ele>
	<time>2023-08-07T04:48:42.000Z</time>
</trkpt>
<trkpt lat="46.0949890" lon="10.5036520">
	<ele>2062.40</ele>
	<time>2023-08-07T04:48:43.000Z</time>
</trkpt>
<trkpt lat="46.0949970" lon="10.5036590">
	<ele>2062.60</ele>
	<time>2023-08-07T04:48:44.000Z</time>
</trkpt>
<trkpt lat="46.0950000" lon="10.5036690">
	<ele>2062.80</ele>
	<time>2023-08-07T04:48:45.000Z</time>
</trkpt>
<trkpt lat="46.0950050" lon="10.5036770">
	<ele>2063.00</ele>
	<time>2023-08-07T04:48:46.000Z</time>
</trkpt>
<trkpt lat="46.0950110" lon="10.5036870">
	<ele>2063.20</ele>
	<time>2023-08-07T04:48:47.000Z</time>
</trkpt>
<trkpt lat="46.0950170" lon="10.5036980">
	<ele>2063.40</ele>
	<time>2023-08-07T04:48:48.000Z</time>
</trkpt>
<trkpt lat="46.0950230" lon="10.5037080">
	<ele>2063.40</ele>
	<time>2023-08-07T04:48:49.000Z</time>
</trkpt>
<trkpt lat="46.0950300" lon="10.5037200">
	<ele>2063.40</ele>
	<time>2023-08-07T04:48:50.000Z</time>
</trkpt>
<trkpt lat="46.0950370" lon="10.5037350">
	<ele>2063.40</ele>
	<time>2023-08-07T04:48:51.000Z</time>
</trkpt>
<trkpt lat="46.0950470" lon="10.5037450">
	<ele>2063.40</ele>
	<time>2023-08-07T04:48:52.000Z</time>
</trkpt>
<trkpt lat="46.0950590" lon="10.5037490">
	<ele>2063.40</ele>
	<time>2023-08-07T04:48:53.000Z</time>
</trkpt>
<trkpt lat="46.0950710" lon="10.5037530">
	<ele>2063.40</ele>
	<time>2023-08-07T04:48:54.000Z</time>
</trkpt>
<trkpt lat="46.0950810" lon="10.5037580">
	<ele>2063.40</ele>
	<time>2023-08-07T04:48:55.000Z</time>
</trkpt>
<trkpt lat="46.0950880" lon="10.5037630">
	<ele>2063.40</ele>
	<time>2023-08-07T04:48:56.000Z</time>
</trkpt>
<trkpt lat="46.0950930" lon="10.5037630">
	<ele>2063.40</ele>
	<time>2023-08-07T04:48:57.000Z</time>
</trkpt>
<trkpt lat="46.0951050" lon="10.5037590">
	<ele>2063.80</ele>
	<time>2023-08-07T04:48:58.000Z</time>
</trkpt>
<trkpt lat="46.0951130" lon="10.5037590">
	<ele>2064.00</ele>
	<time>2023-08-07T04:48:59.000Z</time>
</trkpt>
<trkpt lat="46.0951200" lon="10.5037620">
	<ele>2064.20</ele>
	<time>2023-08-07T04:49:00.000Z</time>
</trkpt>
<trkpt lat="46.0951300" lon="10.5037660">
	<ele>2064.20</ele>
	<time>2023-08-07T04:49:01.000Z</time>
</trkpt>
<trkpt lat="46.0951340" lon="10.5037710">
	<ele>2064.40</ele>
	<time>2023-08-07T04:49:02.000Z</time>
</trkpt>
<trkpt lat="46.0951450" lon="10.5037730">
	<ele>2064.60</ele>
	<time>2023-08-07T04:49:03.000Z</time>
</trkpt>
<trkpt lat="46.0951550" lon="10.5037830">
	<ele>2064.60</ele>
	<time>2023-08-07T04:49:04.000Z</time>
</trkpt>
<trkpt lat="46.0951660" lon="10.5037860">
	<ele>2064.60</ele>
	<time>2023-08-07T04:49:05.000Z</time>
</trkpt>
<trkpt lat="46.0951770" lon="10.5037920">
	<ele>2064.60</ele>
	<time>2023-08-07T04:49:06.000Z</time>
</trkpt>
<trkpt lat="46.0951880" lon="10.5037980">
	<ele>2064.60</ele>
	<time>2023-08-07T04:49:07.000Z</time>
</trkpt>
<trkpt lat="46.0952020" lon="10.5038060">
	<ele>2064.60</ele>
	<time>2023-08-07T04:49:08.000Z</time>
</trkpt>
<trkpt lat="46.0952130" lon="10.5038180">
	<ele>2064.60</ele>
	<time>2023-08-07T04:49:09.000Z</time>
</trkpt>
<trkpt lat="46.0952200" lon="10.5038320">
	<ele>2064.60</ele>
	<time>2023-08-07T04:49:10.000Z</time>
</trkpt>
<trkpt lat="46.0952290" lon="10.5038410">
	<ele>2064.60</ele>
	<time>2023-08-07T04:49:11.000Z</time>
</trkpt>
<trkpt lat="46.0952380" lon="10.5038490">
	<ele>2064.80</ele>
	<time>2023-08-07T04:49:12.000Z</time>
</trkpt>
<trkpt lat="46.0952490" lon="10.5038560">
	<ele>2064.80</ele>
	<time>2023-08-07T04:49:13.000Z</time>
</trkpt>
<trkpt lat="46.0952590" lon="10.5038650">
	<ele>2064.80</ele>
	<time>2023-08-07T04:49:14.000Z</time>
</trkpt>
<trkpt lat="46.0952670" lon="10.5038780">
	<ele>2065.00</ele>
	<time>2023-08-07T04:49:15.000Z</time>
</trkpt>
<trkpt lat="46.0952720" lon="10.5038930">
	<ele>2065.00</ele>
	<time>2023-08-07T04:49:16.000Z</time>
</trkpt>
<trkpt lat="46.0952780" lon="10.5039060">
	<ele>2065.00</ele>
	<time>2023-08-07T04:49:17.000Z</time>
</trkpt>
<trkpt lat="46.0952860" lon="10.5039150">
	<ele>2065.00</ele>
	<time>2023-08-07T04:49:18.000Z</time>
</trkpt>
<trkpt lat="46.0952920" lon="10.5039270">
	<ele>2065.00</ele>
	<time>2023-08-07T04:49:19.000Z</time>
</trkpt>
<trkpt lat="46.0953010" lon="10.5039350">
	<ele>2065.00</ele>
	<time>2023-08-07T04:49:20.000Z</time>
</trkpt>
<trkpt lat="46.0953070" lon="10.5039430">
	<ele>2065.00</ele>
	<time>2023-08-07T04:49:21.000Z</time>
</trkpt>
<trkpt lat="46.0953130" lon="10.5039520">
	<ele>2065.20</ele>
	<time>2023-08-07T04:49:22.000Z</time>
</trkpt>
<trkpt lat="46.0953200" lon="10.5039590">
	<ele>2065.40</ele>
	<time>2023-08-07T04:49:23.000Z</time>
</trkpt>
<trkpt lat="46.0953270" lon="10.5039670">
	<ele>2065.60</ele>
	<time>2023-08-07T04:49:24.000Z</time>
</trkpt>
<trkpt lat="46.0953360" lon="10.5039770">
	<ele>2065.60</ele>
	<time>2023-08-07T04:49:25.000Z</time>
</trkpt>
<trkpt lat="46.0953460" lon="10.5039840">
	<ele>2065.80</ele>
	<time>2023-08-07T04:49:26.000Z</time>
</trkpt>
<trkpt lat="46.0953540" lon="10.5039910">
	<ele>2065.80</ele>
	<time>2023-08-07T04:49:27.000Z</time>
</trkpt>
<trkpt lat="46.0953610" lon="10.5040000">
	<ele>2065.80</ele>
	<time>2023-08-07T04:49:28.000Z</time>
</trkpt>
<trkpt lat="46.0953680" lon="10.5040090">
	<ele>2066.00</ele>
	<time>2023-08-07T04:49:29.000Z</time>
</trkpt>
<trkpt lat="46.0953740" lon="10.5040220">
	<ele>2066.00</ele>
	<time>2023-08-07T04:49:30.000Z</time>
</trkpt>
<trkpt lat="46.0953810" lon="10.5040300">
	<ele>2066.00</ele>
	<time>2023-08-07T04:49:31.000Z</time>
</trkpt>
<trkpt lat="46.0953840" lon="10.5040410">
	<ele>2066.00</ele>
	<time>2023-08-07T04:49:32.000Z</time>
</trkpt>
<trkpt lat="46.0953930" lon="10.5040450">
	<ele>2066.20</ele>
	<time>2023-08-07T04:49:33.000Z</time>
</trkpt>
<trkpt lat="46.0954020" lon="10.5040550">
	<ele>2066.20</ele>
	<time>2023-08-07T04:49:34.000Z</time>
</trkpt>
<trkpt lat="46.0954070" lon="10.5040630">
	<ele>2066.40</ele>
	<time>2023-08-07T04:49:35.000Z</time>
</trkpt>
<trkpt lat="46.0954120" lon="10.5040730">
	<ele>2066.40</ele>
	<time>2023-08-07T04:49:36.000Z</time>
</trkpt>
<trkpt lat="46.0954170" lon="10.5040830">
	<ele>2066.60</ele>
	<time>2023-08-07T04:49:37.000Z</time>
</trkpt>
<trkpt lat="46.0954230" lon="10.5040950">
	<ele>2066.80</ele>
	<time>2023-08-07T04:49:38.000Z</time>
</trkpt>
<trkpt lat="46.0954320" lon="10.5041060">
	<ele>2067.00</ele>
	<time>2023-08-07T04:49:39.000Z</time>
</trkpt>
<trkpt lat="46.0954390" lon="10.5041110">
	<ele>2067.20</ele>
	<time>2023-08-07T04:49:40.000Z</time>
</trkpt>
<trkpt lat="46.0954460" lon="10.5041120">
	<ele>2067.20</ele>
	<time>2023-08-07T04:49:41.000Z</time>
</trkpt>
<trkpt lat="46.0954510" lon="10.5041090">
	<ele>2067.40</ele>
	<time>2023-08-07T04:49:42.000Z</time>
</trkpt>
<trkpt lat="46.0954580" lon="10.5041090">
	<ele>2067.40</ele>
	<time>2023-08-07T04:49:43.000Z</time>
</trkpt>
<trkpt lat="46.0954650" lon="10.5041040">
	<ele>2067.60</ele>
	<time>2023-08-07T04:49:44.000Z</time>
</trkpt>
<trkpt lat="46.0954710" lon="10.5041040">
	<ele>2067.60</ele>
	<time>2023-08-07T04:49:45.000Z</time>
</trkpt>
<trkpt lat="46.0954790" lon="10.5041090">
	<ele>2067.80</ele>
	<time>2023-08-07T04:49:46.000Z</time>
</trkpt>
<trkpt lat="46.0954840" lon="10.5041210">
	<ele>2068.00</ele>
	<time>2023-08-07T04:49:47.000Z</time>
</trkpt>
<trkpt lat="46.0954880" lon="10.5041370">
	<ele>2068.20</ele>
	<time>2023-08-07T04:49:48.000Z</time>
</trkpt>
<trkpt lat="46.0954930" lon="10.5041550">
	<ele>2068.40</ele>
	<time>2023-08-07T04:49:49.000Z</time>
</trkpt>
<trkpt lat="46.0954970" lon="10.5041720">
	<ele>2068.40</ele>
	<time>2023-08-07T04:49:50.000Z</time>
</trkpt>
<trkpt lat="46.0955000" lon="10.5041900">
	<ele>2068.60</ele>
	<time>2023-08-07T04:49:51.000Z</time>
</trkpt>
<trkpt lat="46.0955060" lon="10.5042000">
	<ele>2068.60</ele>
	<time>2023-08-07T04:49:52.000Z</time>
</trkpt>
<trkpt lat="46.0955120" lon="10.5042140">
	<ele>2068.60</ele>
	<time>2023-08-07T04:49:53.000Z</time>
</trkpt>
<trkpt lat="46.0955160" lon="10.5042270">
	<ele>2068.60</ele>
	<time>2023-08-07T04:49:54.000Z</time>
</trkpt>
<trkpt lat="46.0955210" lon="10.5042390">
	<ele>2068.60</ele>
	<time>2023-08-07T04:49:55.000Z</time>
</trkpt>
<trkpt lat="46.0955290" lon="10.5042470">
	<ele>2068.60</ele>
	<time>2023-08-07T04:49:56.000Z</time>
</trkpt>
<trkpt lat="46.0955370" lon="10.5042590">
	<ele>2068.60</ele>
	<time>2023-08-07T04:49:57.000Z</time>
</trkpt>
<trkpt lat="46.0955440" lon="10.5042710">
	<ele>2068.60</ele>
	<time>2023-08-07T04:49:58.000Z</time>
</trkpt>
<trkpt lat="46.0955530" lon="10.5042810">
	<ele>2068.60</ele>
	<time>2023-08-07T04:49:59.000Z</time>
</trkpt>
<trkpt lat="46.0955650" lon="10.5042930">
	<ele>2068.80</ele>
	<time>2023-08-07T04:50:00.000Z</time>
</trkpt>
<trkpt lat="46.0955700" lon="10.5043100">
	<ele>2068.80</ele>
	<time>2023-08-07T04:50:01.000Z</time>
</trkpt>
<trkpt lat="46.0955760" lon="10.5043230">
	<ele>2068.80</ele>
	<time>2023-08-07T04:50:02.000Z</time>
</trkpt>
<trkpt lat="46.0955790" lon="10.5043380">
	<ele>2069.00</ele>
	<time>2023-08-07T04:50:03.000Z</time>
</trkpt>
<trkpt lat="46.0955790" lon="10.5043560">
	<ele>2069.00</ele>
	<time>2023-08-07T04:50:04.000Z</time>
</trkpt>
<trkpt lat="46.0955820" lon="10.5043680">
	<ele>2069.00</ele>
	<time>2023-08-07T04:50:05.000Z</time>
</trkpt>
<trkpt lat="46.0955840" lon="10.5043790">
	<ele>2069.20</ele>
	<time>2023-08-07T04:50:06.000Z</time>
</trkpt>
<trkpt lat="46.0955870" lon="10.5043910">
	<ele>2069.20</ele>
	<time>2023-08-07T04:50:07.000Z</time>
</trkpt>
<trkpt lat="46.0955900" lon="10.5044040">
	<ele>2069.40</ele>
	<time>2023-08-07T04:50:08.000Z</time>
</trkpt>
<trkpt lat="46.0955930" lon="10.5044170">
	<ele>2069.60</ele>
	<time>2023-08-07T04:50:09.000Z</time>
</trkpt>
<trkpt lat="46.0955970" lon="10.5044260">
	<ele>2069.80</ele>
	<time>2023-08-07T04:50:10.000Z</time>
</trkpt>
<trkpt lat="46.0956030" lon="10.5044350">
	<ele>2069.80</ele>
	<time>2023-08-07T04:50:11.000Z</time>
</trkpt>
<trkpt lat="46.0956050" lon="10.5044460">
	<ele>2069.80</ele>
	<time>2023-08-07T04:50:12.000Z</time>
</trkpt>
<trkpt lat="46.0956090" lon="10.5044570">
	<ele>2070.00</ele>
	<time>2023-08-07T04:50:13.000Z</time>
</trkpt>
<trkpt lat="46.0956110" lon="10.5044700">
	<ele>2070.20</ele>
	<time>2023-08-07T04:50:14.000Z</time>
</trkpt>
<trkpt lat="46.0956150" lon="10.5044800">
	<ele>2070.20</ele>
	<time>2023-08-07T04:50:15.000Z</time>
</trkpt>
<trkpt lat="46.0956210" lon="10.5044910">
	<ele>2070.40</ele>
	<time>2023-08-07T04:50:16.000Z</time>
</trkpt>
<trkpt lat="46.0956290" lon="10.5044970">
	<ele>2070.40</ele>
	<time>2023-08-07T04:50:17.000Z</time>
</trkpt>
<trkpt lat="46.0956360" lon="10.5045080">
	<ele>2070.60</ele>
	<time>2023-08-07T04:50:18.000Z</time>
</trkpt>
<trkpt lat="46.0956400" lon="10.5045170">
	<ele>2070.80</ele>
	<time>2023-08-07T04:50:19.000Z</time>
</trkpt>
<trkpt lat="46.0956430" lon="10.5045270">
	<ele>2070.80</ele>
	<time>2023-08-07T04:50:20.000Z</time>
</trkpt>
<trkpt lat="46.0956480" lon="10.5045350">
	<ele>2071.00</ele>
	<time>2023-08-07T04:50:21.000Z</time>
</trkpt>
<trkpt lat="46.0956530" lon="10.5045460">
	<ele>2071.20</ele>
	<time>2023-08-07T04:50:22.000Z</time>
</trkpt>
<trkpt lat="46.0956560" lon="10.5045580">
	<ele>2071.20</ele>
	<time>2023-08-07T04:50:23.000Z</time>
</trkpt>
<trkpt lat="46.0956590" lon="10.5045650">
	<ele>2071.40</ele>
	<time>2023-08-07T04:50:24.000Z</time>
</trkpt>
<trkpt lat="46.0956620" lon="10.5045760">
	<ele>2071.40</ele>
	<time>2023-08-07T04:50:25.000Z</time>
</trkpt>
<trkpt lat="46.0956630" lon="10.5045890">
	<ele>2071.60</ele>
	<time>2023-08-07T04:50:26.000Z</time>
</trkpt>
<trkpt lat="46.0956640" lon="10.5046000">
	<ele>2071.80</ele>
	<time>2023-08-07T04:50:27.000Z</time>
</trkpt>
<trkpt lat="46.0956630" lon="10.5046130">
	<ele>2072.00</ele>
	<time>2023-08-07T04:50:28.000Z</time>
</trkpt>
<trkpt lat="46.0956650" lon="10.5046270">
	<ele>2072.00</ele>
	<time>2023-08-07T04:50:29.000Z</time>
</trkpt>
<trkpt lat="46.0956700" lon="10.5046400">
	<ele>2072.00</ele>
	<time>2023-08-07T04:50:30.000Z</time>
</trkpt>
<trkpt lat="46.0956760" lon="10.5046480">
	<ele>2072.00</ele>
	<time>2023-08-07T04:50:31.000Z</time>
</trkpt>
<trkpt lat="46.0956830" lon="10.5046560">
	<ele>2072.20</ele>
	<time>2023-08-07T04:50:32.000Z</time>
</trkpt>
<trkpt lat="46.0956880" lon="10.5046650">
	<ele>2072.20</ele>
	<time>2023-08-07T04:50:33.000Z</time>
</trkpt>
<trkpt lat="46.0956940" lon="10.5046730">
	<ele>2072.20</ele>
	<time>2023-08-07T04:50:34.000Z</time>
</trkpt>
<trkpt lat="46.0956960" lon="10.5046840">
	<ele>2072.20</ele>
	<time>2023-08-07T04:50:35.000Z</time>
</trkpt>
<trkpt lat="46.0957010" lon="10.5046970">
	<ele>2072.40</ele>
	<time>2023-08-07T04:50:36.000Z</time>
</trkpt>
<trkpt lat="46.0957080" lon="10.5047070">
	<ele>2072.40</ele>
	<time>2023-08-07T04:50:37.000Z</time>
</trkpt>
<trkpt lat="46.0957120" lon="10.5047210">
	<ele>2072.60</ele>
	<time>2023-08-07T04:50:38.000Z</time>
</trkpt>
<trkpt lat="46.0957170" lon="10.5047350">
	<ele>2072.60</ele>
	<time>2023-08-07T04:50:39.000Z</time>
</trkpt>
<trkpt lat="46.0957220" lon="10.5047470">
	<ele>2072.60</ele>
	<time>2023-08-07T04:50:40.000Z</time>
</trkpt>
<trkpt lat="46.0957260" lon="10.5047570">
	<ele>2072.80</ele>
	<time>2023-08-07T04:50:41.000Z</time>
</trkpt>
<trkpt lat="46.0957290" lon="10.5047670">
	<ele>2072.80</ele>
	<time>2023-08-07T04:50:42.000Z</time>
</trkpt>
<trkpt lat="46.0957330" lon="10.5047740">
	<ele>2073.00</ele>
	<time>2023-08-07T04:50:43.000Z</time>
</trkpt>
<trkpt lat="46.0957380" lon="10.5047820">
	<ele>2073.00</ele>
	<time>2023-08-07T04:50:44.000Z</time>
</trkpt>
<trkpt lat="46.0957440" lon="10.5047920">
	<ele>2073.00</ele>
	<time>2023-08-07T04:50:45.000Z</time>
</trkpt>
<trkpt lat="46.0957500" lon="10.5048030">
	<ele>2073.20</ele>
	<time>2023-08-07T04:50:46.000Z</time>
</trkpt>
<trkpt lat="46.0957520" lon="10.5048160">
	<ele>2073.20</ele>
	<time>2023-08-07T04:50:47.000Z</time>
</trkpt>
<trkpt lat="46.0957550" lon="10.5048290">
	<ele>2073.20</ele>
	<time>2023-08-07T04:50:48.000Z</time>
</trkpt>
<trkpt lat="46.0957610" lon="10.5048370">
	<ele>2073.40</ele>
	<time>2023-08-07T04:50:49.000Z</time>
</trkpt>
<trkpt lat="46.0957690" lon="10.5048430">
	<ele>2073.40</ele>
	<time>2023-08-07T04:50:50.000Z</time>
</trkpt>
<trkpt lat="46.0957740" lon="10.5048560">
	<ele>2073.60</ele>
	<time>2023-08-07T04:50:51.000Z</time>
</trkpt>
<trkpt lat="46.0957800" lon="10.5048680">
	<ele>2073.80</ele>
	<time>2023-08-07T04:50:52.000Z</time>
</trkpt>
<trkpt lat="46.0957850" lon="10.5048790">
	<ele>2073.80</ele>
	<time>2023-08-07T04:50:53.000Z</time>
</trkpt>
<trkpt lat="46.0957880" lon="10.5048910">
	<ele>2073.80</ele>
	<time>2023-08-07T04:50:54.000Z</time>
</trkpt>
<trkpt lat="46.0957910" lon="10.5049020">
	<ele>2074.00</ele>
	<time>2023-08-07T04:50:55.000Z</time>
</trkpt>
<trkpt lat="46.0957950" lon="10.5049100">
	<ele>2074.20</ele>
	<time>2023-08-07T04:50:56.000Z</time>
</trkpt>
<trkpt lat="46.0957980" lon="10.5049170">
	<ele>2074.40</ele>
	<time>2023-08-07T04:50:57.000Z</time>
</trkpt>
<trkpt lat="46.0958050" lon="10.5049230">
	<ele>2074.40</ele>
	<time>2023-08-07T04:50:58.000Z</time>
</trkpt>
<trkpt lat="46.0958140" lon="10.5049330">
	<ele>2074.60</ele>
	<time>2023-08-07T04:50:59.000Z</time>
</trkpt>
<trkpt lat="46.0958180" lon="10.5049430">
	<ele>2074.60</ele>
	<time>2023-08-07T04:51:00.000Z</time>
</trkpt>
<trkpt lat="46.0958200" lon="10.5049560">
	<ele>2074.60</ele>
	<time>2023-08-07T04:51:01.000Z</time>
</trkpt>
<trkpt lat="46.0958260" lon="10.5049650">
	<ele>2074.80</ele>
	<time>2023-08-07T04:51:02.000Z</time>
</trkpt>
<trkpt lat="46.0958280" lon="10.5049770">
	<ele>2074.80</ele>
	<time>2023-08-07T04:51:03.000Z</time>
</trkpt>
<trkpt lat="46.0958320" lon="10.5049860">
	<ele>2075.00</ele>
	<time>2023-08-07T04:51:04.000Z</time>
</trkpt>
<trkpt lat="46.0958330" lon="10.5049950">
	<ele>2075.00</ele>
	<time>2023-08-07T04:51:05.000Z</time>
</trkpt>
<trkpt lat="46.0958350" lon="10.5050050">
	<ele>2075.20</ele>
	<time>2023-08-07T04:51:06.000Z</time>
</trkpt>
<trkpt lat="46.0958370" lon="10.5050170">
	<ele>2075.40</ele>
	<time>2023-08-07T04:51:07.000Z</time>
</trkpt>
<trkpt lat="46.0958420" lon="10.5050300">
	<ele>2075.60</ele>
	<time>2023-08-07T04:51:08.000Z</time>
</trkpt>
<trkpt lat="46.0958470" lon="10.5050420">
	<ele>2075.60</ele>
	<time>2023-08-07T04:51:09.000Z</time>
</trkpt>
<trkpt lat="46.0958510" lon="10.5050530">
	<ele>2075.80</ele>
	<time>2023-08-07T04:51:10.000Z</time>
</trkpt>
<trkpt lat="46.0958550" lon="10.5050590">
	<ele>2076.00</ele>
	<time>2023-08-07T04:51:11.000Z</time>
</trkpt>
<trkpt lat="46.0958630" lon="10.5050660">
	<ele>2076.00</ele>
	<time>2023-08-07T04:51:12.000Z</time>
</trkpt>
<trkpt lat="46.0958700" lon="10.5050800">
	<ele>2076.20</ele>
	<time>2023-08-07T04:51:13.000Z</time>
</trkpt>
<trkpt lat="46.0958740" lon="10.5050930">
	<ele>2076.40</ele>
	<time>2023-08-07T04:51:14.000Z</time>
</trkpt>
<trkpt lat="46.0958760" lon="10.5051010">
	<ele>2076.80</ele>
	<time>2023-08-07T04:51:15.000Z</time>
</trkpt>
<trkpt lat="46.0958780" lon="10.5051080">
	<ele>2077.00</ele>
	<time>2023-08-07T04:51:16.000Z</time>
</trkpt>
<trkpt lat="46.0958800" lon="10.5051210">
	<ele>2077.20</ele>
	<time>2023-08-07T04:51:17.000Z</time>
</trkpt>
<trkpt lat="46.0958830" lon="10.5051300">
	<ele>2077.20</ele>
	<time>2023-08-07T04:51:18.000Z</time>
</trkpt>
<trkpt lat="46.0958900" lon="10.5051410">
	<ele>2077.40</ele>
	<time>2023-08-07T04:51:19.000Z</time>
</trkpt>
<trkpt lat="46.0958950" lon="10.5051540">
	<ele>2077.40</ele>
	<time>2023-08-07T04:51:20.000Z</time>
</trkpt>
<trkpt lat="46.0958990" lon="10.5051650">
	<ele>2077.60</ele>
	<time>2023-08-07T04:51:21.000Z</time>
</trkpt>
<trkpt lat="46.0959000" lon="10.5051750">
	<ele>2077.60</ele>
	<time>2023-08-07T04:51:22.000Z</time>
</trkpt>
<trkpt lat="46.0959020" lon="10.5051830">
	<ele>2077.80</ele>
	<time>2023-08-07T04:51:23.000Z</time>
</trkpt>
<trkpt lat="46.0959060" lon="10.5051910">
	<ele>2077.80</ele>
	<time>2023-08-07T04:51:24.000Z</time>
</trkpt>
<trkpt lat="46.0959100" lon="10.5051960">
	<ele>2077.80</ele>
	<time>2023-08-07T04:51:25.000Z</time>
</trkpt>
<trkpt lat="46.0959160" lon="10.5052060">
	<ele>2077.80</ele>
	<time>2023-08-07T04:51:26.000Z</time>
</trkpt>
<trkpt lat="46.0959230" lon="10.5052200">
	<ele>2078.00</ele>
	<time>2023-08-07T04:51:27.000Z</time>
</trkpt>
<trkpt lat="46.0959270" lon="10.5052330">
	<ele>2078.00</ele>
	<time>2023-08-07T04:51:28.000Z</time>
</trkpt>
<trkpt lat="46.0959330" lon="10.5052420">
	<ele>2078.20</ele>
	<time>2023-08-07T04:51:29.000Z</time>
</trkpt>
<trkpt lat="46.0959380" lon="10.5052570">
	<ele>2078.20</ele>
	<time>2023-08-07T04:51:30.000Z</time>
</trkpt>
<trkpt lat="46.0959430" lon="10.5052660">
	<ele>2078.40</ele>
	<time>2023-08-07T04:51:31.000Z</time>
</trkpt>
<trkpt lat="46.0959500" lon="10.5052800">
	<ele>2078.60</ele>
	<time>2023-08-07T04:51:32.000Z</time>
</trkpt>
<trkpt lat="46.0959530" lon="10.5052930">
	<ele>2078.80</ele>
	<time>2023-08-07T04:51:33.000Z</time>
</trkpt>
<trkpt lat="46.0959530" lon="10.5053050">
	<ele>2079.00</ele>
	<time>2023-08-07T04:51:34.000Z</time>
</trkpt>
<trkpt lat="46.0959570" lon="10.5053140">
	<ele>2079.00</ele>
	<time>2023-08-07T04:51:35.000Z</time>
</trkpt>
<trkpt lat="46.0959580" lon="10.5053260">
	<ele>2079.20</ele>
	<time>2023-08-07T04:51:36.000Z</time>
</trkpt>
<trkpt lat="46.0959620" lon="10.5053450">
	<ele>2079.40</ele>
	<time>2023-08-07T04:51:37.000Z</time>
</trkpt>
<trkpt lat="46.0959680" lon="10.5053560">
	<ele>2079.60</ele>
	<time>2023-08-07T04:51:38.000Z</time>
</trkpt>
<trkpt lat="46.0959740" lon="10.5053670">
	<ele>2079.80</ele>
	<time>2023-08-07T04:51:39.000Z</time>
</trkpt>
<trkpt lat="46.0959810" lon="10.5053740">
	<ele>2079.80</ele>
	<time>2023-08-07T04:51:40.000Z</time>
</trkpt>
<trkpt lat="46.0959920" lon="10.5053770">
	<ele>2080.00</ele>
	<time>2023-08-07T04:51:41.000Z</time>
</trkpt>
<trkpt lat="46.0959960" lon="10.5053900">
	<ele>2080.00</ele>
	<time>2023-08-07T04:51:42.000Z</time>
</trkpt>
<trkpt lat="46.0960020" lon="10.5054020">
	<ele>2080.00</ele>
	<time>2023-08-07T04:51:43.000Z</time>
</trkpt>
<trkpt lat="46.0960090" lon="10.5054110">
	<ele>2080.20</ele>
	<time>2023-08-07T04:51:44.000Z</time>
</trkpt>
<trkpt lat="46.0960130" lon="10.5054210">
	<ele>2080.40</ele>
	<time>2023-08-07T04:51:45.000Z</time>
</trkpt>
<trkpt lat="46.0960170" lon="10.5054320">
	<ele>2080.40</ele>
	<time>2023-08-07T04:51:46.000Z</time>
</trkpt>
<trkpt lat="46.0960230" lon="10.5054390">
	<ele>2080.60</ele>
	<time>2023-08-07T04:51:47.000Z</time>
</trkpt>
<trkpt lat="46.0960260" lon="10.5054470">
	<ele>2080.60</ele>
	<time>2023-08-07T04:51:48.000Z</time>
</trkpt>
<trkpt lat="46.0960250" lon="10.5054540">
	<ele>2080.80</ele>
	<time>2023-08-07T04:51:49.000Z</time>
</trkpt>
<trkpt lat="46.0960350" lon="10.5054620">
	<ele>2080.80</ele>
	<time>2023-08-07T04:51:50.000Z</time>
</trkpt>
<trkpt lat="46.0960410" lon="10.5054740">
	<ele>2081.00</ele>
	<time>2023-08-07T04:51:51.000Z</time>
</trkpt>
<trkpt lat="46.0960440" lon="10.5054880">
	<ele>2081.20</ele>
	<time>2023-08-07T04:51:52.000Z</time>
</trkpt>
<trkpt lat="46.0960460" lon="10.5054980">
	<ele>2081.20</ele>
	<time>2023-08-07T04:51:53.000Z</time>
</trkpt>
<trkpt lat="46.0960510" lon="10.5055070">
	<ele>2081.60</ele>
	<time>2023-08-07T04:51:54.000Z</time>
</trkpt>
<trkpt lat="46.0960550" lon="10.5055180">
	<ele>2081.60</ele>
	<time>2023-08-07T04:51:55.000Z</time>
</trkpt>
<trkpt lat="46.0960590" lon="10.5055250">
	<ele>2081.80</ele>
	<time>2023-08-07T04:51:56.000Z</time>
</trkpt>
<trkpt lat="46.0960610" lon="10.5055370">
	<ele>2081.80</ele>
	<time>2023-08-07T04:51:57.000Z</time>
</trkpt>
<trkpt lat="46.0960620" lon="10.5055500">
	<ele>2082.00</ele>
	<time>2023-08-07T04:51:58.000Z</time>
</trkpt>
<trkpt lat="46.0960620" lon="10.5055610">
	<ele>2082.20</ele>
	<time>2023-08-07T04:51:59.000Z</time>
</trkpt>
<trkpt lat="46.0960610" lon="10.5055740">
	<ele>2082.40</ele>
	<time>2023-08-07T04:52:00.000Z</time>
</trkpt>
<trkpt lat="46.0960620" lon="10.5055890">
	<ele>2082.60</ele>
	<time>2023-08-07T04:52:01.000Z</time>
</trkpt>
<trkpt lat="46.0960620" lon="10.5056000">
	<ele>2082.60</ele>
	<time>2023-08-07T04:52:02.000Z</time>
</trkpt>
<trkpt lat="46.0960610" lon="10.5056070">
	<ele>2082.80</ele>
	<time>2023-08-07T04:52:03.000Z</time>
</trkpt>
<trkpt lat="46.0960600" lon="10.5056090">
	<ele>2082.80</ele>
	<time>2023-08-07T04:52:04.000Z</time>
</trkpt>
<trkpt lat="46.0960600" lon="10.5056090">
	<ele>2082.80</ele>
	<time>2023-08-07T04:52:05.000Z</time>
</trkpt>
<trkpt lat="46.0960600" lon="10.5056090">
	<ele>2082.80</ele>
	<time>2023-08-07T04:52:06.000Z</time>
</trkpt>
<trkpt lat="46.0960600" lon="10.5056070">
	<ele>2082.80</ele>
	<time>2023-08-07T04:52:07.000Z</time>
</trkpt>
<trkpt lat="46.0960580" lon="10.5056070">
	<ele>2082.80</ele>
	<time>2023-08-07T04:52:08.000Z</time>
</trkpt>
<trkpt lat="46.0960570" lon="10.5056060">
	<ele>2082.80</ele>
	<time>2023-08-07T04:52:09.000Z</time>
</trkpt>
<trkpt lat="46.0960570" lon="10.5056060">
	<ele>2082.80</ele>
	<time>2023-08-07T04:52:10.000Z</time>
</trkpt>
<trkpt lat="46.0960580" lon="10.5056070">
	<ele>2082.80</ele>
	<time>2023-08-07T04:52:11.000Z</time>
</trkpt>
<trkpt lat="46.0960580" lon="10.5056070">
	<ele>2083.20</ele>
	<time>2023-08-07T04:52:12.000Z</time>
</trkpt>
<trkpt lat="46.0960580" lon="10.5056070">
	<ele>2083.40</ele>
	<time>2023-08-07T04:52:13.000Z</time>
</trkpt>
<trkpt lat="46.0960570" lon="10.5056080">
	<ele>2083.40</ele>
	<time>2023-08-07T04:52:14.000Z</time>
</trkpt>
<trkpt lat="46.0960560" lon="10.5056100">
	<ele>2083.60</ele>
	<time>2023-08-07T04:52:15.000Z</time>
</trkpt>
<trkpt lat="46.0960580" lon="10.5056100">
	<ele>2083.60</ele>
	<time>2023-08-07T04:52:16.000Z</time>
</trkpt>
<trkpt lat="46.0960580" lon="10.5056100">
	<ele>2083.40</ele>
	<time>2023-08-07T04:52:17.000Z</time>
</trkpt>
<trkpt lat="46.0960580" lon="10.5056100">
	<ele>2083.40</ele>
	<time>2023-08-07T04:52:18.000Z</time>
</trkpt>
<trkpt lat="46.0960580" lon="10.5056100">
	<ele>2083.20</ele>
	<time>2023-08-07T04:52:19.000Z</time>
</trkpt>
<trkpt lat="46.0960580" lon="10.5056100">
	<ele>2083.20</ele>
	<time>2023-08-07T04:52:20.000Z</time>
</trkpt>
<trkpt lat="46.0960580" lon="10.5056100">
	<ele>2083.20</ele>
	<time>2023-08-07T04:52:21.000Z</time>
</trkpt>
<trkpt lat="46.0960580" lon="10.5056100">
	<ele>2083.20</ele>
	<time>2023-08-07T04:52:22.000Z</time>
</trkpt>
<trkpt lat="46.0960580" lon="10.5056100">
	<ele>2083.40</ele>
	<time>2023-08-07T04:52:23.000Z</time>
</trkpt>
<trkpt lat="46.0960580" lon="10.5056100">
	<ele>2083.40</ele>
	<time>2023-08-07T04:52:24.000Z</time>
</trkpt>
<trkpt lat="46.0960580" lon="10.5056100">
	<ele>2083.40</ele>
	<time>2023-08-07T04:52:25.000Z</time>
</trkpt>
<trkpt lat="46.0960580" lon="10.5056100">
	<ele>2083.40</ele>
	<time>2023-08-07T04:52:26.000Z</time>
</trkpt>
<trkpt lat="46.0960580" lon="10.5056100">
	<ele>2083.40</ele>
	<time>2023-08-07T04:52:27.000Z</time>
</trkpt>
<trkpt lat="46.0960580" lon="10.5056080">
	<ele>2083.40</ele>
	<time>2023-08-07T04:52:28.000Z</time>
</trkpt>
<trkpt lat="46.0960580" lon="10.5056070">
	<ele>2083.40</ele>
	<time>2023-08-07T04:52:29.000Z</time>
</trkpt>
<trkpt lat="46.0960580" lon="10.5056070">
	<ele>2083.20</ele>
	<time>2023-08-07T04:52:30.000Z</time>
</trkpt>
<trkpt lat="46.0960570" lon="10.5056100">
	<ele>2083.20</ele>
	<time>2023-08-07T04:52:31.000Z</time>
</trkpt>
<trkpt lat="46.0960480" lon="10.5056260">
	<ele>2083.20</ele>
	<time>2023-08-07T04:52:32.000Z</time>
</trkpt>
<trkpt lat="46.0960390" lon="10.5056390">
	<ele>2083.20</ele>
	<time>2023-08-07T04:52:33.000Z</time>
</trkpt>
<trkpt lat="46.0960280" lon="10.5056520">
	<ele>2083.20</ele>
	<time>2023-08-07T04:52:34.000Z</time>
</trkpt>
<trkpt lat="46.0960210" lon="10.5056660">
	<ele>2083.20</ele>
	<time>2023-08-07T04:52:35.000Z</time>
</trkpt>
<trkpt lat="46.0960130" lon="10.5056840">
	<ele>2083.40</ele>
	<time>2023-08-07T04:52:36.000Z</time>
</trkpt>
<trkpt lat="46.0960070" lon="10.5056960">
	<ele>2083.40</ele>
	<time>2023-08-07T04:52:37.000Z</time>
</trkpt>
<trkpt lat="46.0959970" lon="10.5057100">
	<ele>2083.60</ele>
	<time>2023-08-07T04:52:38.000Z</time>
</trkpt>
<trkpt lat="46.0959910" lon="10.5057270">
	<ele>2083.60</ele>
	<time>2023-08-07T04:52:39.000Z</time>
</trkpt>
<trkpt lat="46.0959850" lon="10.5057460">
	<ele>2083.60</ele>
	<time>2023-08-07T04:52:40.000Z</time>
</trkpt>
<trkpt lat="46.0959810" lon="10.5057530">
	<ele>2083.80</ele>
	<time>2023-08-07T04:52:41.000Z</time>
</trkpt>
<trkpt lat="46.0959740" lon="10.5057610">
	<ele>2084.00</ele>
	<time>2023-08-07T04:52:42.000Z</time>
</trkpt>
<trkpt lat="46.0959670" lon="10.5057700">
	<ele>2084.20</ele>
	<time>2023-08-07T04:52:43.000Z</time>
</trkpt>
<trkpt lat="46.0959640" lon="10.5057770">
	<ele>2084.40</ele>
	<time>2023-08-07T04:52:44.000Z</time>
</trkpt>
<trkpt lat="46.0959590" lon="10.5057870">
	<ele>2084.60</ele>
	<time>2023-08-07T04:52:45.000Z</time>
</trkpt>
<trkpt lat="46.0959570" lon="10.5057950">
	<ele>2084.80</ele>
	<time>2023-08-07T04:52:46.000Z</time>
</trkpt>
<trkpt lat="46.0959530" lon="10.5058100">
	<ele>2084.80</ele>
	<time>2023-08-07T04:52:47.000Z</time>
</trkpt>
<trkpt lat="46.0959450" lon="10.5058280">
	<ele>2085.00</ele>
	<time>2023-08-07T04:52:48.000Z</time>
</trkpt>
<trkpt lat="46.0959390" lon="10.5058410">
	<ele>2085.00</ele>
	<time>2023-08-07T04:52:49.000Z</time>
</trkpt>
<trkpt lat="46.0959320" lon="10.5058540">
	<ele>2085.20</ele>
	<time>2023-08-07T04:52:50.000Z</time>
</trkpt>
<trkpt lat="46.0959280" lon="10.5058670">
	<ele>2085.20</ele>
	<time>2023-08-07T04:52:51.000Z</time>
</trkpt>
<trkpt lat="46.0959250" lon="10.5058770">
	<ele>2085.60</ele>
	<time>2023-08-07T04:52:52.000Z</time>
</trkpt>
<trkpt lat="46.0959230" lon="10.5058940">
	<ele>2085.80</ele>
	<time>2023-08-07T04:52:53.000Z</time>
</trkpt>
<trkpt lat="46.0959240" lon="10.5059120">
	<ele>2086.00</ele>
	<time>2023-08-07T04:52:54.000Z</time>
</trkpt>
<trkpt lat="46.0959250" lon="10.5059300">
	<ele>2086.20</ele>
	<time>2023-08-07T04:52:55.000Z</time>
</trkpt>
<trkpt lat="46.0959320" lon="10.5059420">
	<ele>2086.20</ele>
	<time>2023-08-07T04:52:56.000Z</time>
</trkpt>
<trkpt lat="46.0959370" lon="10.5059560">
	<ele>2086.40</ele>
	<time>2023-08-07T04:52:57.000Z</time>
</trkpt>
<trkpt lat="46.0959410" lon="10.5059700">
	<ele>2086.40</ele>
	<time>2023-08-07T04:52:58.000Z</time>
</trkpt>
<trkpt lat="46.0959450" lon="10.5059810">
	<ele>2086.40</ele>
	<time>2023-08-07T04:52:59.000Z</time>
</trkpt>
<trkpt lat="46.0959460" lon="10.5060000">
	<ele>2086.40</ele>
	<time>2023-08-07T04:53:00.000Z</time>
</trkpt>
<trkpt lat="46.0959530" lon="10.5060160">
	<ele>2086.20</ele>
	<time>2023-08-07T04:53:01.000Z</time>
</trkpt>
<trkpt lat="46.0959550" lon="10.5060310">
	<ele>2086.00</ele>
	<time>2023-08-07T04:53:02.000Z</time>
</trkpt>
<trkpt lat="46.0959550" lon="10.5060460">
	<ele>2086.00</ele>
	<time>2023-08-07T04:53:03.000Z</time>
</trkpt>
<trkpt lat="46.0959560" lon="10.5060590">
	<ele>2085.80</ele>
	<time>2023-08-07T04:53:04.000Z</time>
</trkpt>
<trkpt lat="46.0959550" lon="10.5060700">
	<ele>2085.60</ele>
	<time>2023-08-07T04:53:05.000Z</time>
</trkpt>
<trkpt lat="46.0959560" lon="10.5060850">
	<ele>2085.60</ele>
	<time>2023-08-07T04:53:06.000Z</time>
</trkpt>
<trkpt lat="46.0959600" lon="10.5060990">
	<ele>2085.60</ele>
	<time>2023-08-07T04:53:07.000Z</time>
</trkpt>
<trkpt lat="46.0959600" lon="10.5061170">
	<ele>2085.60</ele>
	<time>2023-08-07T04:53:08.000Z</time>
</trkpt>
<trkpt lat="46.0959580" lon="10.5061340">
	<ele>2085.60</ele>
	<time>2023-08-07T04:53:09.000Z</time>
</trkpt>
<trkpt lat="46.0959590" lon="10.5061520">
	<ele>2085.60</ele>
	<time>2023-08-07T04:53:10.000Z</time>
</trkpt>
<trkpt lat="46.0959600" lon="10.5061680">
	<ele>2085.60</ele>
	<time>2023-08-07T04:53:11.000Z</time>
</trkpt>
<trkpt lat="46.0959610" lon="10.5061860">
	<ele>2085.60</ele>
	<time>2023-08-07T04:53:12.000Z</time>
</trkpt>
<trkpt lat="46.0959660" lon="10.5062010">
	<ele>2085.40</ele>
	<time>2023-08-07T04:53:13.000Z</time>
</trkpt>
<trkpt lat="46.0959750" lon="10.5062140">
	<ele>2085.20</ele>
	<time>2023-08-07T04:53:14.000Z</time>
</trkpt>
<trkpt lat="46.0959820" lon="10.5062260">
	<ele>2085.00</ele>
	<time>2023-08-07T04:53:15.000Z</time>
</trkpt>
<trkpt lat="46.0959890" lon="10.5062370">
	<ele>2085.00</ele>
	<time>2023-08-07T04:53:16.000Z</time>
</trkpt>
<trkpt lat="46.0960000" lon="10.5062520">
	<ele>2085.00</ele>
	<time>2023-08-07T04:53:17.000Z</time>
</trkpt>
<trkpt lat="46.0960090" lon="10.5062660">
	<ele>2085.00</ele>
	<time>2023-08-07T04:53:18.000Z</time>
</trkpt>
<trkpt lat="46.0960170" lon="10.5062770">
	<ele>2085.00</ele>
	<time>2023-08-07T04:53:19.000Z</time>
</trkpt>
<trkpt lat="46.0960240" lon="10.5062900">
	<ele>2085.00</ele>
	<time>2023-08-07T04:53:20.000Z</time>
</trkpt>
<trkpt lat="46.0960340" lon="10.5063030">
	<ele>2085.00</ele>
	<time>2023-08-07T04:53:21.000Z</time>
</trkpt>
<trkpt lat="46.0960470" lon="10.5063130">
	<ele>2085.00</ele>
	<time>2023-08-07T04:53:22.000Z</time>
</trkpt>
<trkpt lat="46.0960570" lon="10.5063230">
	<ele>2085.00</ele>
	<time>2023-08-07T04:53:23.000Z</time>
</trkpt>
<trkpt lat="46.0960670" lon="10.5063360">
	<ele>2085.20</ele>
	<time>2023-08-07T04:53:24.000Z</time>
</trkpt>
<trkpt lat="46.0960760" lon="10.5063480">
	<ele>2085.20</ele>
	<time>2023-08-07T04:53:25.000Z</time>
</trkpt>
<trkpt lat="46.0960840" lon="10.5063610">
	<ele>2085.20</ele>
	<time>2023-08-07T04:53:26.000Z</time>
</trkpt>
<trkpt lat="46.0960940" lon="10.5063710">
	<ele>2085.00</ele>
	<time>2023-08-07T04:53:27.000Z</time>
</trkpt>
<trkpt lat="46.0961020" lon="10.5063830">
	<ele>2085.00</ele>
	<time>2023-08-07T04:53:28.000Z</time>
</trkpt>
<trkpt lat="46.0961120" lon="10.5063970">
	<ele>2085.20</ele>
	<time>2023-08-07T04:53:29.000Z</time>
</trkpt>
<trkpt lat="46.0961230" lon="10.5064100">
	<ele>2085.20</ele>
	<time>2023-08-07T04:53:30.000Z</time>
</trkpt>
<trkpt lat="46.0961310" lon="10.5064220">
	<ele>2085.20</ele>
	<time>2023-08-07T04:53:31.000Z</time>
</trkpt>
<trkpt lat="46.0961390" lon="10.5064320">
	<ele>2085.20</ele>
	<time>2023-08-07T04:53:32.000Z</time>
</trkpt>
<trkpt lat="46.0961440" lon="10.5064400">
	<ele>2085.20</ele>
	<time>2023-08-07T04:53:33.000Z</time>
</trkpt>
<trkpt lat="46.0961520" lon="10.5064450">
	<ele>2085.40</ele>
	<time>2023-08-07T04:53:34.000Z</time>
</trkpt>
<trkpt lat="46.0961590" lon="10.5064550">
	<ele>2085.40</ele>
	<time>2023-08-07T04:53:35.000Z</time>
</trkpt>
<trkpt lat="46.0961650" lon="10.5064690">
	<ele>2085.60</ele>
	<time>2023-08-07T04:53:36.000Z</time>
</trkpt>
<trkpt lat="46.0961700" lon="10.5064820">
	<ele>2085.60</ele>
	<time>2023-08-07T04:53:37.000Z</time>
</trkpt>
<trkpt lat="46.0961750" lon="10.5064960">
	<ele>2085.60</ele>
	<time>2023-08-07T04:53:38.000Z</time>
</trkpt>
<trkpt lat="46.0961800" lon="10.5065130">
	<ele>2085.40</ele>
	<time>2023-08-07T04:53:39.000Z</time>
</trkpt>
<trkpt lat="46.0961880" lon="10.5065280">
	<ele>2085.40</ele>
	<time>2023-08-07T04:53:40.000Z</time>
</trkpt>
<trkpt lat="46.0961970" lon="10.5065390">
	<ele>2085.20</ele>
	<time>2023-08-07T04:53:41.000Z</time>
</trkpt>
<trkpt lat="46.0962050" lon="10.5065530">
	<ele>2085.00</ele>
	<time>2023-08-07T04:53:42.000Z</time>
</trkpt>
<trkpt lat="46.0962130" lon="10.5065650">
	<ele>2084.80</ele>
	<time>2023-08-07T04:53:43.000Z</time>
</trkpt>
<trkpt lat="46.0962210" lon="10.5065730">
	<ele>2084.60</ele>
	<time>2023-08-07T04:53:44.000Z</time>
</trkpt>
<trkpt lat="46.0962340" lon="10.5065840">
	<ele>2084.60</ele>
	<time>2023-08-07T04:53:45.000Z</time>
</trkpt>
<trkpt lat="46.0962390" lon="10.5066010">
	<ele>2084.60</ele>
	<time>2023-08-07T04:53:46.000Z</time>
</trkpt>
<trkpt lat="46.0962420" lon="10.5066190">
	<ele>2084.40</ele>
	<time>2023-08-07T04:53:47.000Z</time>
</trkpt>
<trkpt lat="46.0962440" lon="10.5066360">
	<ele>2084.40</ele>
	<time>2023-08-07T04:53:48.000Z</time>
</trkpt>
<trkpt lat="46.0962470" lon="10.5066540">
	<ele>2084.40</ele>
	<time>2023-08-07T04:53:49.000Z</time>
</trkpt>
<trkpt lat="46.0962530" lon="10.5066690">
	<ele>2084.40</ele>
	<time>2023-08-07T04:53:50.000Z</time>
</trkpt>
<trkpt lat="46.0962590" lon="10.5066810">
	<ele>2084.40</ele>
	<time>2023-08-07T04:53:51.000Z</time>
</trkpt>
<trkpt lat="46.0962670" lon="10.5066930">
	<ele>2084.60</ele>
	<time>2023-08-07T04:53:52.000Z</time>
</trkpt>
<trkpt lat="46.0962740" lon="10.5067080">
	<ele>2084.80</ele>
	<time>2023-08-07T04:53:53.000Z</time>
</trkpt>
<trkpt lat="46.0962800" lon="10.5067210">
	<ele>2084.80</ele>
	<time>2023-08-07T04:53:54.000Z</time>
</trkpt>
<trkpt lat="46.0962860" lon="10.5067290">
	<ele>2084.80</ele>
	<time>2023-08-07T04:53:55.000Z</time>
</trkpt>
<trkpt lat="46.0962950" lon="10.5067340">
	<ele>2084.60</ele>
	<time>2023-08-07T04:53:56.000Z</time>
</trkpt>
<trkpt lat="46.0963060" lon="10.5067390">
	<ele>2084.60</ele>
	<time>2023-08-07T04:53:57.000Z</time>
</trkpt>
<trkpt lat="46.0963180" lon="10.5067420">
	<ele>2084.60</ele>
	<time>2023-08-07T04:53:58.000Z</time>
</trkpt>
<trkpt lat="46.0963290" lon="10.5067510">
	<ele>2084.60</ele>
	<time>2023-08-07T04:53:59.000Z</time>
</trkpt>
<trkpt lat="46.0963390" lon="10.5067660">
	<ele>2084.60</ele>
	<time>2023-08-07T04:54:00.000Z</time>
</trkpt>
<trkpt lat="46.0963460" lon="10.5067840">
	<ele>2084.80</ele>
	<time>2023-08-07T04:54:01.000Z</time>
</trkpt>
<trkpt lat="46.0963500" lon="10.5068010">
	<ele>2085.00</ele>
	<time>2023-08-07T04:54:02.000Z</time>
</trkpt>
<trkpt lat="46.0963540" lon="10.5068190">
	<ele>2085.20</ele>
	<time>2023-08-07T04:54:03.000Z</time>
</trkpt>
<trkpt lat="46.0963590" lon="10.5068320">
	<ele>2085.20</ele>
	<time>2023-08-07T04:54:04.000Z</time>
</trkpt>
<trkpt lat="46.0963610" lon="10.5068470">
	<ele>2085.20</ele>
	<time>2023-08-07T04:54:05.000Z</time>
</trkpt>
<trkpt lat="46.0963630" lon="10.5068650">
	<ele>2085.40</ele>
	<time>2023-08-07T04:54:06.000Z</time>
</trkpt>
<trkpt lat="46.0963690" lon="10.5068820">
	<ele>2085.40</ele>
	<time>2023-08-07T04:54:07.000Z</time>
</trkpt>
<trkpt lat="46.0963760" lon="10.5068950">
	<ele>2085.40</ele>
	<time>2023-08-07T04:54:08.000Z</time>
</trkpt>
<trkpt lat="46.0963820" lon="10.5069110">
	<ele>2085.40</ele>
	<time>2023-08-07T04:54:09.000Z</time>
</trkpt>
<trkpt lat="46.0963890" lon="10.5069240">
	<ele>2085.40</ele>
	<time>2023-08-07T04:54:10.000Z</time>
</trkpt>
<trkpt lat="46.0963930" lon="10.5069400">
	<ele>2085.40</ele>
	<time>2023-08-07T04:54:11.000Z</time>
</trkpt>
<trkpt lat="46.0963990" lon="10.5069520">
	<ele>2085.40</ele>
	<time>2023-08-07T04:54:12.000Z</time>
</trkpt>
<trkpt lat="46.0964060" lon="10.5069620">
	<ele>2085.60</ele>
	<time>2023-08-07T04:54:13.000Z</time>
</trkpt>
<trkpt lat="46.0964150" lon="10.5069740">
	<ele>2085.60</ele>
	<time>2023-08-07T04:54:14.000Z</time>
</trkpt>
<trkpt lat="46.0964240" lon="10.5069850">
	<ele>2085.80</ele>
	<time>2023-08-07T04:54:15.000Z</time>
</trkpt>
<trkpt lat="46.0964340" lon="10.5069960">
	<ele>2085.80</ele>
	<time>2023-08-07T04:54:16.000Z</time>
</trkpt>
<trkpt lat="46.0964440" lon="10.5070020">
	<ele>2085.80</ele>
	<time>2023-08-07T04:54:17.000Z</time>
</trkpt>
<trkpt lat="46.0964510" lon="10.5070060">
	<ele>2085.80</ele>
	<time>2023-08-07T04:54:18.000Z</time>
</trkpt>
<trkpt lat="46.0964600" lon="10.5070080">
	<ele>2085.80</ele>
	<time>2023-08-07T04:54:19.000Z</time>
</trkpt>
<trkpt lat="46.0964680" lon="10.5070130">
	<ele>2086.00</ele>
	<time>2023-08-07T04:54:20.000Z</time>
</trkpt>
<trkpt lat="46.0964740" lon="10.5070250">
	<ele>2086.20</ele>
	<time>2023-08-07T04:54:21.000Z</time>
</trkpt>
<trkpt lat="46.0964760" lon="10.5070390">
	<ele>2086.20</ele>
	<time>2023-08-07T04:54:22.000Z</time>
</trkpt>
<trkpt lat="46.0964800" lon="10.5070520">
	<ele>2086.40</ele>
	<time>2023-08-07T04:54:23.000Z</time>
</trkpt>
<trkpt lat="46.0964870" lon="10.5070650">
	<ele>2086.40</ele>
	<time>2023-08-07T04:54:24.000Z</time>
</trkpt>
<trkpt lat="46.0964940" lon="10.5070760">
	<ele>2086.60</ele>
	<time>2023-08-07T04:54:25.000Z</time>
</trkpt>
<trkpt lat="46.0965010" lon="10.5070850">
	<ele>2086.60</ele>
	<time>2023-08-07T04:54:26.000Z</time>
</trkpt>
<trkpt lat="46.0965080" lon="10.5070930">
	<ele>2086.60</ele>
	<time>2023-08-07T04:54:27.000Z</time>
</trkpt>
<trkpt lat="46.0965200" lon="10.5070980">
	<ele>2086.60</ele>
	<time>2023-08-07T04:54:28.000Z</time>
</trkpt>
<trkpt lat="46.0965290" lon="10.5071090">
	<ele>2086.80</ele>
	<time>2023-08-07T04:54:29.000Z</time>
</trkpt>
<trkpt lat="46.0965350" lon="10.5071190">
	<ele>2087.00</ele>
	<time>2023-08-07T04:54:30.000Z</time>
</trkpt>
<trkpt lat="46.0965400" lon="10.5071290">
	<ele>2087.00</ele>
	<time>2023-08-07T04:54:31.000Z</time>
</trkpt>
<trkpt lat="46.0965470" lon="10.5071380">
	<ele>2087.00</ele>
	<time>2023-08-07T04:54:32.000Z</time>
</trkpt>
<trkpt lat="46.0965590" lon="10.5071490">
	<ele>2087.00</ele>
	<time>2023-08-07T04:54:33.000Z</time>
</trkpt>
<trkpt lat="46.0965660" lon="10.5071660">
	<ele>2087.20</ele>
	<time>2023-08-07T04:54:34.000Z</time>
</trkpt>
<trkpt lat="46.0965750" lon="10.5071810">
	<ele>2087.20</ele>
	<time>2023-08-07T04:54:35.000Z</time>
</trkpt>
<trkpt lat="46.0965830" lon="10.5072010">
	<ele>2087.40</ele>
	<time>2023-08-07T04:54:36.000Z</time>
</trkpt>
<trkpt lat="46.0965900" lon="10.5072170">
	<ele>2087.60</ele>
	<time>2023-08-07T04:54:37.000Z</time>
</trkpt>
<trkpt lat="46.0965980" lon="10.5072290">
	<ele>2087.80</ele>
	<time>2023-08-07T04:54:38.000Z</time>
</trkpt>
<trkpt lat="46.0966060" lon="10.5072380">
	<ele>2087.80</ele>
	<time>2023-08-07T04:54:39.000Z</time>
</trkpt>
<trkpt lat="46.0966130" lon="10.5072520">
	<ele>2088.00</ele>
	<time>2023-08-07T04:54:40.000Z</time>
</trkpt>
<trkpt lat="46.0966200" lon="10.5072640">
	<ele>2088.00</ele>
	<time>2023-08-07T04:54:41.000Z</time>
</trkpt>
<trkpt lat="46.0966300" lon="10.5072790">
	<ele>2088.00</ele>
	<time>2023-08-07T04:54:42.000Z</time>
</trkpt>
<trkpt lat="46.0966390" lon="10.5072940">
	<ele>2088.00</ele>
	<time>2023-08-07T04:54:43.000Z</time>
</trkpt>
<trkpt lat="46.0966460" lon="10.5073080">
	<ele>2088.00</ele>
	<time>2023-08-07T04:54:44.000Z</time>
</trkpt>
<trkpt lat="46.0966530" lon="10.5073230">
	<ele>2088.20</ele>
	<time>2023-08-07T04:54:45.000Z</time>
</trkpt>
<trkpt lat="46.0966620" lon="10.5073340">
	<ele>2088.40</ele>
	<time>2023-08-07T04:54:46.000Z</time>
</trkpt>
<trkpt lat="46.0966730" lon="10.5073420">
	<ele>2088.40</ele>
	<time>2023-08-07T04:54:47.000Z</time>
</trkpt>
<trkpt lat="46.0966850" lon="10.5073490">
	<ele>2088.40</ele>
	<time>2023-08-07T04:54:48.000Z</time>
</trkpt>
<trkpt lat="46.0966940" lon="10.5073560">
	<ele>2088.40</ele>
	<time>2023-08-07T04:54:49.000Z</time>
</trkpt>
<trkpt lat="46.0967050" lon="10.5073620">
	<ele>2088.60</ele>
	<time>2023-08-07T04:54:50.000Z</time>
</trkpt>
<trkpt lat="46.0967170" lon="10.5073650">
	<ele>2088.60</ele>
	<time>2023-08-07T04:54:51.000Z</time>
</trkpt>
<trkpt lat="46.0967290" lon="10.5073760">
	<ele>2088.60</ele>
	<time>2023-08-07T04:54:52.000Z</time>
</trkpt>
<trkpt lat="46.0967400" lon="10.5073860">
	<ele>2088.60</ele>
	<time>2023-08-07T04:54:53.000Z</time>
</trkpt>
<trkpt lat="46.0967500" lon="10.5073940">
	<ele>2088.60</ele>
	<time>2023-08-07T04:54:54.000Z</time>
</trkpt>
<trkpt lat="46.0967590" lon="10.5074050">
	<ele>2088.40</ele>
	<time>2023-08-07T04:54:55.000Z</time>
</trkpt>
<trkpt lat="46.0967680" lon="10.5074170">
	<ele>2088.20</ele>
	<time>2023-08-07T04:54:56.000Z</time>
</trkpt>
<trkpt lat="46.0967760" lon="10.5074250">
	<ele>2088.00</ele>
	<time>2023-08-07T04:54:57.000Z</time>
</trkpt>
<trkpt lat="46.0967870" lon="10.5074350">
	<ele>2088.00</ele>
	<time>2023-08-07T04:54:58.000Z</time>
</trkpt>
<trkpt lat="46.0967990" lon="10.5074430">
	<ele>2088.00</ele>
	<time>2023-08-07T04:54:59.000Z</time>
</trkpt>
<trkpt lat="46.0968050" lon="10.5074540">
	<ele>2088.00</ele>
	<time>2023-08-07T04:55:00.000Z</time>
</trkpt>
<trkpt lat="46.0968120" lon="10.5074610">
	<ele>2088.00</ele>
	<time>2023-08-07T04:55:01.000Z</time>
</trkpt>
<trkpt lat="46.0968210" lon="10.5074670">
	<ele>2087.80</ele>
	<time>2023-08-07T04:55:02.000Z</time>
</trkpt>
<trkpt lat="46.0968300" lon="10.5074750">
	<ele>2088.00</ele>
	<time>2023-08-07T04:55:03.000Z</time>
</trkpt>
<trkpt lat="46.0968430" lon="10.5074780">
	<ele>2088.00</ele>
	<time>2023-08-07T04:55:04.000Z</time>
</trkpt>
<trkpt lat="46.0968530" lon="10.5074840">
	<ele>2088.00</ele>
	<time>2023-08-07T04:55:05.000Z</time>
</trkpt>
<trkpt lat="46.0968590" lon="10.5074920">
	<ele>2088.00</ele>
	<time>2023-08-07T04:55:06.000Z</time>
</trkpt>
<trkpt lat="46.0968650" lon="10.5075060">
	<ele>2088.00</ele>
	<time>2023-08-07T04:55:07.000Z</time>
</trkpt>
<trkpt lat="46.0968740" lon="10.5075180">
	<ele>2088.00</ele>
	<time>2023-08-07T04:55:08.000Z</time>
</trkpt>
<trkpt lat="46.0968850" lon="10.5075260">
	<ele>2088.00</ele>
	<time>2023-08-07T04:55:09.000Z</time>
</trkpt>
<trkpt lat="46.0968970" lon="10.5075300">
	<ele>2088.00</ele>
	<time>2023-08-07T04:55:10.000Z</time>
</trkpt>
<trkpt lat="46.0969090" lon="10.5075350">
	<ele>2088.00</ele>
	<time>2023-08-07T04:55:11.000Z</time>
</trkpt>
<trkpt lat="46.0969190" lon="10.5075420">
	<ele>2087.80</ele>
	<time>2023-08-07T04:55:12.000Z</time>
</trkpt>
<trkpt lat="46.0969270" lon="10.5075480">
	<ele>2087.80</ele>
	<time>2023-08-07T04:55:13.000Z</time>
</trkpt>
<trkpt lat="46.0969370" lon="10.5075560">
	<ele>2087.80</ele>
	<time>2023-08-07T04:55:14.000Z</time>
</trkpt>
<trkpt lat="46.0969470" lon="10.5075630">
	<ele>2087.80</ele>
	<time>2023-08-07T04:55:15.000Z</time>
</trkpt>
<trkpt lat="46.0969560" lon="10.5075700">
	<ele>2087.80</ele>
	<time>2023-08-07T04:55:16.000Z</time>
</trkpt>
<trkpt lat="46.0969670" lon="10.5075700">
	<ele>2087.80</ele>
	<time>2023-08-07T04:55:17.000Z</time>
</trkpt>
<trkpt lat="46.0969760" lon="10.5075740">
	<ele>2087.80</ele>
	<time>2023-08-07T04:55:18.000Z</time>
</trkpt>
<trkpt lat="46.0969860" lon="10.5075760">
	<ele>2088.00</ele>
	<time>2023-08-07T04:55:19.000Z</time>
</trkpt>
<trkpt lat="46.0969950" lon="10.5075760">
	<ele>2088.00</ele>
	<time>2023-08-07T04:55:20.000Z</time>
</trkpt>
<trkpt lat="46.0970020" lon="10.5075780">
	<ele>2088.00</ele>
	<time>2023-08-07T04:55:21.000Z</time>
</trkpt>
<trkpt lat="46.0970080" lon="10.5075830">
	<ele>2088.20</ele>
	<time>2023-08-07T04:55:22.000Z</time>
</trkpt>
<trkpt lat="46.0970170" lon="10.5075890">
	<ele>2088.20</ele>
	<time>2023-08-07T04:55:23.000Z</time>
</trkpt>
<trkpt lat="46.0970220" lon="10.5075950">
	<ele>2088.20</ele>
	<time>2023-08-07T04:55:24.000Z</time>
</trkpt>
<trkpt lat="46.0970320" lon="10.5076020">
	<ele>2088.20</ele>
	<time>2023-08-07T04:55:25.000Z</time>
</trkpt>
<trkpt lat="46.0970400" lon="10.5076090">
	<ele>2088.20</ele>
	<time>2023-08-07T04:55:26.000Z</time>
</trkpt>
<trkpt lat="46.0970500" lon="10.5076150">
	<ele>2088.20</ele>
	<time>2023-08-07T04:55:27.000Z</time>
</trkpt>
<trkpt lat="46.0970610" lon="10.5076230">
	<ele>2088.40</ele>
	<time>2023-08-07T04:55:28.000Z</time>
</trkpt>
<trkpt lat="46.0970720" lon="10.5076290">
	<ele>2088.40</ele>
	<time>2023-08-07T04:55:29.000Z</time>
</trkpt>
<trkpt lat="46.0970810" lon="10.5076380">
	<ele>2088.60</ele>
	<time>2023-08-07T04:55:30.000Z</time>
</trkpt>
<trkpt lat="46.0970880" lon="10.5076520">
	<ele>2088.60</ele>
	<time>2023-08-07T04:55:31.000Z</time>
</trkpt>
<trkpt lat="46.0970940" lon="10.5076660">
	<ele>2088.60</ele>
	<time>2023-08-07T04:55:32.000Z</time>
</trkpt>
<trkpt lat="46.0970970" lon="10.5076770">
	<ele>2088.60</ele>
	<time>2023-08-07T04:55:33.000Z</time>
</trkpt>
<trkpt lat="46.0971000" lon="10.5076840">
	<ele>2088.60</ele>
	<time>2023-08-07T04:55:34.000Z</time>
</trkpt>
<trkpt lat="46.0971050" lon="10.5076840">
	<ele>2088.60</ele>
	<time>2023-08-07T04:55:35.000Z</time>
</trkpt>
<trkpt lat="46.0971130" lon="10.5076840">
	<ele>2088.40</ele>
	<time>2023-08-07T04:55:36.000Z</time>
</trkpt>
<trkpt lat="46.0971180" lon="10.5076890">
	<ele>2088.40</ele>
	<time>2023-08-07T04:55:37.000Z</time>
</trkpt>
<trkpt lat="46.0971270" lon="10.5076940">
	<ele>2088.20</ele>
	<time>2023-08-07T04:55:38.000Z</time>
</trkpt>
<trkpt lat="46.0971370" lon="10.5076970">
	<ele>2088.00</ele>
	<time>2023-08-07T04:55:39.000Z</time>
</trkpt>
<trkpt lat="46.0971460" lon="10.5077030">
	<ele>2087.80</ele>
	<time>2023-08-07T04:55:40.000Z</time>
</trkpt>
<trkpt lat="46.0971530" lon="10.5077100">
	<ele>2087.60</ele>
	<time>2023-08-07T04:55:41.000Z</time>
</trkpt>
<trkpt lat="46.0971580" lon="10.5077230">
	<ele>2087.60</ele>
	<time>2023-08-07T04:55:42.000Z</time>
</trkpt>
<trkpt lat="46.0971620" lon="10.5077360">
	<ele>2087.60</ele>
	<time>2023-08-07T04:55:43.000Z</time>
</trkpt>
<trkpt lat="46.0971690" lon="10.5077480">
	<ele>2087.60</ele>
	<time>2023-08-07T04:55:44.000Z</time>
</trkpt>
<trkpt lat="46.0971750" lon="10.5077570">
	<ele>2087.60</ele>
	<time>2023-08-07T04:55:45.000Z</time>
</trkpt>
<trkpt lat="46.0971830" lon="10.5077620">
	<ele>2087.60</ele>
	<time>2023-08-07T04:55:46.000Z</time>
</trkpt>
<trkpt lat="46.0971930" lon="10.5077650">
	<ele>2087.60</ele>
	<time>2023-08-07T04:55:47.000Z</time>
</trkpt>
<trkpt lat="46.0972050" lon="10.5077690">
	<ele>2087.60</ele>
	<time>2023-08-07T04:55:48.000Z</time>
</trkpt>
<trkpt lat="46.0972170" lon="10.5077730">
	<ele>2087.80</ele>
	<time>2023-08-07T04:55:49.000Z</time>
</trkpt>
<trkpt lat="46.0972290" lon="10.5077750">
	<ele>2087.80</ele>
	<time>2023-08-07T04:55:50.000Z</time>
</trkpt>
<trkpt lat="46.0972430" lon="10.5077760">
	<ele>2088.00</ele>
	<time>2023-08-07T04:55:51.000Z</time>
</trkpt>
<trkpt lat="46.0972540" lon="10.5077780">
	<ele>2088.00</ele>
	<time>2023-08-07T04:55:52.000Z</time>
</trkpt>
<trkpt lat="46.0972660" lon="10.5077790">
	<ele>2088.20</ele>
	<time>2023-08-07T04:55:53.000Z</time>
</trkpt>
<trkpt lat="46.0972770" lon="10.5077820">
	<ele>2088.20</ele>
	<time>2023-08-07T04:55:54.000Z</time>
</trkpt>
<trkpt lat="46.0972870" lon="10.5077890">
	<ele>2088.20</ele>
	<time>2023-08-07T04:55:55.000Z</time>
</trkpt>
<trkpt lat="46.0972990" lon="10.5077940">
	<ele>2088.20</ele>
	<time>2023-08-07T04:55:56.000Z</time>
</trkpt>
<trkpt lat="46.0973100" lon="10.5078050">
	<ele>2088.40</ele>
	<time>2023-08-07T04:55:57.000Z</time>
</trkpt>
<trkpt lat="46.0973180" lon="10.5078170">
	<ele>2088.40</ele>
	<time>2023-08-07T04:55:58.000Z</time>
</trkpt>
<trkpt lat="46.0973250" lon="10.5078280">
	<ele>2088.40</ele>
	<time>2023-08-07T04:55:59.000Z</time>
</trkpt>
<trkpt lat="46.0973340" lon="10.5078310">
	<ele>2088.40</ele>
	<time>2023-08-07T04:56:00.000Z</time>
</trkpt>
<trkpt lat="46.0973390" lon="10.5078370">
	<ele>2088.40</ele>
	<time>2023-08-07T04:56:01.000Z</time>
</trkpt>
<trkpt lat="46.0973450" lon="10.5078460">
	<ele>2088.40</ele>
	<time>2023-08-07T04:56:02.000Z</time>
</trkpt>
<trkpt lat="46.0973490" lon="10.5078550">
	<ele>2088.40</ele>
	<time>2023-08-07T04:56:03.000Z</time>
</trkpt>
<trkpt lat="46.0973500" lon="10.5078620">
	<ele>2088.40</ele>
	<time>2023-08-07T04:56:04.000Z</time>
</trkpt>
<trkpt lat="46.0973540" lon="10.5078650">
	<ele>2088.40</ele>
	<time>2023-08-07T04:56:05.000Z</time>
</trkpt>
<trkpt lat="46.0973590" lon="10.5078690">
	<ele>2088.40</ele>
	<time>2023-08-07T04:56:06.000Z</time>
</trkpt>
<trkpt lat="46.0973640" lon="10.5078730">
	<ele>2088.40</ele>
	<time>2023-08-07T04:56:07.000Z</time>
</trkpt>
<trkpt lat="46.0973710" lon="10.5078830">
	<ele>2088.40</ele>
	<time>2023-08-07T04:56:08.000Z</time>
</trkpt>
<trkpt lat="46.0973730" lon="10.5078920">
	<ele>2088.40</ele>
	<time>2023-08-07T04:56:09.000Z</time>
</trkpt>
<trkpt lat="46.0973780" lon="10.5079010">
	<ele>2088.60</ele>
	<time>2023-08-07T04:56:10.000Z</time>
</trkpt>
<trkpt lat="46.0973840" lon="10.5079050">
	<ele>2088.60</ele>
	<time>2023-08-07T04:56:11.000Z</time>
</trkpt>
<trkpt lat="46.0973910" lon="10.5079060">
	<ele>2088.80</ele>
	<time>2023-08-07T04:56:12.000Z</time>
</trkpt>
<trkpt lat="46.0973980" lon="10.5079070">
	<ele>2088.80</ele>
	<time>2023-08-07T04:56:13.000Z</time>
</trkpt>
<trkpt lat="46.0974010" lon="10.5079140">
	<ele>2088.80</ele>
	<time>2023-08-07T04:56:14.000Z</time>
</trkpt>
<trkpt lat="46.0974080" lon="10.5079220">
	<ele>2088.80</ele>
	<time>2023-08-07T04:56:15.000Z</time>
</trkpt>
<trkpt lat="46.0974120" lon="10.5079290">
	<ele>2088.80</ele>
	<time>2023-08-07T04:56:16.000Z</time>
</trkpt>
<trkpt lat="46.0974130" lon="10.5079360">
	<ele>2088.80</ele>
	<time>2023-08-07T04:56:17.000Z</time>
</trkpt>
<trkpt lat="46.0974150" lon="10.5079480">
	<ele>2088.80</ele>
	<time>2023-08-07T04:56:18.000Z</time>
</trkpt>
<trkpt lat="46.0974160" lon="10.5079550">
	<ele>2089.00</ele>
	<time>2023-08-07T04:56:19.000Z</time>
</trkpt>
<trkpt lat="46.0974170" lon="10.5079600">
	<ele>2089.20</ele>
	<time>2023-08-07T04:56:20.000Z</time>
</trkpt>
<trkpt lat="46.0974190" lon="10.5079630">
	<ele>2089.20</ele>
	<time>2023-08-07T04:56:21.000Z</time>
</trkpt>
<trkpt lat="46.0974190" lon="10.5079650">
	<ele>2089.20</ele>
	<time>2023-08-07T04:56:22.000Z</time>
</trkpt>
<trkpt lat="46.0974180" lon="10.5079640">
	<ele>2089.20</ele>
	<time>2023-08-07T04:56:23.000Z</time>
</trkpt>
<trkpt lat="46.0974180" lon="10.5079640">
	<ele>2089.20</ele>
	<time>2023-08-07T04:56:24.000Z</time>
</trkpt>
<trkpt lat="46.0974210" lon="10.5079710">
	<ele>2089.20</ele>
	<time>2023-08-07T04:56:25.000Z</time>
</trkpt>
<trkpt lat="46.0974310" lon="10.5079730">
	<ele>2089.20</ele>
	<time>2023-08-07T04:56:26.000Z</time>
</trkpt>
<trkpt lat="46.0974420" lon="10.5079780">
	<ele>2089.20</ele>
	<time>2023-08-07T04:56:27.000Z</time>
</trkpt>
<trkpt lat="46.0974510" lon="10.5079900">
	<ele>2089.20</ele>
	<time>2023-08-07T04:56:28.000Z</time>
</trkpt>
<trkpt lat="46.0974590" lon="10.5080040">
	<ele>2089.20</ele>
	<time>2023-08-07T04:56:29.000Z</time>
</trkpt>
<trkpt lat="46.0974700" lon="10.5080150">
	<ele>2089.20</ele>
	<time>2023-08-07T04:56:30.000Z</time>
</trkpt>
<trkpt lat="46.0974790" lon="10.5080280">
	<ele>2089.20</ele>
	<time>2023-08-07T04:56:31.000Z</time>
</trkpt>
<trkpt lat="46.0974870" lon="10.5080420">
	<ele>2089.40</ele>
	<time>2023-08-07T04:56:32.000Z</time>
</trkpt>
<trkpt lat="46.0974930" lon="10.5080520">
	<ele>2089.60</ele>
	<time>2023-08-07T04:56:33.000Z</time>
</trkpt>
<trkpt lat="46.0975010" lon="10.5080600">
	<ele>2089.60</ele>
	<time>2023-08-07T04:56:34.000Z</time>
</trkpt>
<trkpt lat="46.0975090" lon="10.5080740">
	<ele>2089.60</ele>
	<time>2023-08-07T04:56:35.000Z</time>
</trkpt>
<trkpt lat="46.0975170" lon="10.5080850">
	<ele>2089.60</ele>
	<time>2023-08-07T04:56:36.000Z</time>
</trkpt>
<trkpt lat="46.0975260" lon="10.5080930">
	<ele>2089.60</ele>
	<time>2023-08-07T04:56:37.000Z</time>
</trkpt>
<trkpt lat="46.0975320" lon="10.5081090">
	<ele>2089.80</ele>
	<time>2023-08-07T04:56:38.000Z</time>
</trkpt>
<trkpt lat="46.0975380" lon="10.5081260">
	<ele>2089.80</ele>
	<time>2023-08-07T04:56:39.000Z</time>
</trkpt>
<trkpt lat="46.0975400" lon="10.5081420">
	<ele>2089.80</ele>
	<time>2023-08-07T04:56:40.000Z</time>
</trkpt>
<trkpt lat="46.0975440" lon="10.5081570">
	<ele>2089.80</ele>
	<time>2023-08-07T04:56:41.000Z</time>
</trkpt>
<trkpt lat="46.0975460" lon="10.5081720">
	<ele>2089.80</ele>
	<time>2023-08-07T04:56:42.000Z</time>
</trkpt>
<trkpt lat="46.0975480" lon="10.5081880">
	<ele>2089.80</ele>
	<time>2023-08-07T04:56:43.000Z</time>
</trkpt>
<trkpt lat="46.0975530" lon="10.5081970">
	<ele>2089.80</ele>
	<time>2023-08-07T04:56:44.000Z</time>
</trkpt>
<trkpt lat="46.0975570" lon="10.5082080">
	<ele>2089.80</ele>
	<time>2023-08-07T04:56:45.000Z</time>
</trkpt>
<trkpt lat="46.0975590" lon="10.5082180">
	<ele>2089.80</ele>
	<time>2023-08-07T04:56:46.000Z</time>
</trkpt>
<trkpt lat="46.0975620" lon="10.5082300">
	<ele>2090.00</ele>
	<time>2023-08-07T04:56:47.000Z</time>
</trkpt>
<trkpt lat="46.0975670" lon="10.5082400">
	<ele>2090.00</ele>
	<time>2023-08-07T04:56:48.000Z</time>
</trkpt>
<trkpt lat="46.0975750" lon="10.5082460">
	<ele>2090.00</ele>
	<time>2023-08-07T04:56:49.000Z</time>
</trkpt>
<trkpt lat="46.0975820" lon="10.5082530">
	<ele>2090.00</ele>
	<time>2023-08-07T04:56:50.000Z</time>
</trkpt>
<trkpt lat="46.0975890" lon="10.5082610">
	<ele>2090.00</ele>
	<time>2023-08-07T04:56:51.000Z</time>
</trkpt>
<trkpt lat="46.0975970" lon="10.5082690">
	<ele>2090.00</ele>
	<time>2023-08-07T04:56:52.000Z</time>
</trkpt>
<trkpt lat="46.0976040" lon="10.5082800">
	<ele>2089.80</ele>
	<time>2023-08-07T04:56:53.000Z</time>
</trkpt>
<trkpt lat="46.0976140" lon="10.5082850">
	<ele>2089.80</ele>
	<time>2023-08-07T04:56:54.000Z</time>
</trkpt>
<trkpt lat="46.0976240" lon="10.5082920">
	<ele>2089.80</ele>
	<time>2023-08-07T04:56:55.000Z</time>
</trkpt>
<trkpt lat="46.0976360" lon="10.5082990">
	<ele>2089.80</ele>
	<time>2023-08-07T04:56:56.000Z</time>
</trkpt>
<trkpt lat="46.0976460" lon="10.5083050">
	<ele>2089.60</ele>
	<time>2023-08-07T04:56:57.000Z</time>
</trkpt>
<trkpt lat="46.0976550" lon="10.5083080">
	<ele>2089.40</ele>
	<time>2023-08-07T04:56:58.000Z</time>
</trkpt>
<trkpt lat="46.0976650" lon="10.5083130">
	<ele>2089.40</ele>
	<time>2023-08-07T04:56:59.000Z</time>
</trkpt>
<trkpt lat="46.0976750" lon="10.5083240">
	<ele>2089.40</ele>
	<time>2023-08-07T04:57:00.000Z</time>
</trkpt>
<trkpt lat="46.0976830" lon="10.5083340">
	<ele>2089.40</ele>
	<time>2023-08-07T04:57:01.000Z</time>
</trkpt>
<trkpt lat="46.0976910" lon="10.5083450">
	<ele>2089.20</ele>
	<time>2023-08-07T04:57:02.000Z</time>
</trkpt>
<trkpt lat="46.0976940" lon="10.5083560">
	<ele>2089.20</ele>
	<time>2023-08-07T04:57:03.000Z</time>
</trkpt>
<trkpt lat="46.0976940" lon="10.5083680">
	<ele>2089.20</ele>
	<time>2023-08-07T04:57:04.000Z</time>
</trkpt>
<trkpt lat="46.0976940" lon="10.5083780">
	<ele>2089.00</ele>
	<time>2023-08-07T04:57:05.000Z</time>
</trkpt>
<trkpt lat="46.0976950" lon="10.5083910">
	<ele>2089.00</ele>
	<time>2023-08-07T04:57:06.000Z</time>
</trkpt>
<trkpt lat="46.0976960" lon="10.5084030">
	<ele>2088.80</ele>
	<time>2023-08-07T04:57:07.000Z</time>
</trkpt>
<trkpt lat="46.0976970" lon="10.5084110">
	<ele>2088.80</ele>
	<time>2023-08-07T04:57:08.000Z</time>
</trkpt>
<trkpt lat="46.0977030" lon="10.5084180">
	<ele>2088.80</ele>
	<time>2023-08-07T04:57:09.000Z</time>
</trkpt>
<trkpt lat="46.0977100" lon="10.5084250">
	<ele>2088.60</ele>
	<time>2023-08-07T04:57:10.000Z</time>
</trkpt>
<trkpt lat="46.0977170" lon="10.5084270">
	<ele>2088.60</ele>
	<time>2023-08-07T04:57:11.000Z</time>
</trkpt>
<trkpt lat="46.0977260" lon="10.5084270">
	<ele>2088.40</ele>
	<time>2023-08-07T04:57:12.000Z</time>
</trkpt>
<trkpt lat="46.0977380" lon="10.5084270">
	<ele>2088.40</ele>
	<time>2023-08-07T04:57:13.000Z</time>
</trkpt>
<trkpt lat="46.0977490" lon="10.5084350">
	<ele>2088.20</ele>
	<time>2023-08-07T04:57:14.000Z</time>
</trkpt>
<trkpt lat="46.0977600" lon="10.5084440">
	<ele>2088.20</ele>
	<time>2023-08-07T04:57:15.000Z</time>
</trkpt>
<trkpt lat="46.0977710" lon="10.5084540">
	<ele>2088.40</ele>
	<time>2023-08-07T04:57:16.000Z</time>
</trkpt>
<trkpt lat="46.0977780" lon="10.5084630">
	<ele>2088.40</ele>
	<time>2023-08-07T04:57:17.000Z</time>
</trkpt>
<trkpt lat="46.0977870" lon="10.5084700">
	<ele>2088.20</ele>
	<time>2023-08-07T04:57:18.000Z</time>
</trkpt>
<trkpt lat="46.0977960" lon="10.5084740">
	<ele>2088.20</ele>
	<time>2023-08-07T04:57:19.000Z</time>
</trkpt>
<trkpt lat="46.0978050" lon="10.5084760">
	<ele>2088.20</ele>
	<time>2023-08-07T04:57:20.000Z</time>
</trkpt>
<trkpt lat="46.0978130" lon="10.5084830">
	<ele>2088.20</ele>
	<time>2023-08-07T04:57:21.000Z</time>
</trkpt>
<trkpt lat="46.0978220" lon="10.5084930">
	<ele>2088.20</ele>
	<time>2023-08-07T04:57:22.000Z</time>
</trkpt>
<trkpt lat="46.0978340" lon="10.5084990">
	<ele>2088.00</ele>
	<time>2023-08-07T04:57:23.000Z</time>
</trkpt>
<trkpt lat="46.0978450" lon="10.5085050">
	<ele>2087.80</ele>
	<time>2023-08-07T04:57:24.000Z</time>
</trkpt>
<trkpt lat="46.0978540" lon="10.5085090">
	<ele>2087.80</ele>
	<time>2023-08-07T04:57:25.000Z</time>
</trkpt>
<trkpt lat="46.0978630" lon="10.5085140">
	<ele>2087.80</ele>
	<time>2023-08-07T04:57:26.000Z</time>
</trkpt>
<trkpt lat="46.0978750" lon="10.5085200">
	<ele>2087.80</ele>
	<time>2023-08-07T04:57:27.000Z</time>
</trkpt>
<trkpt lat="46.0978860" lon="10.5085240">
	<ele>2087.80</ele>
	<time>2023-08-07T04:57:28.000Z</time>
</trkpt>
<trkpt lat="46.0978940" lon="10.5085290">
	<ele>2087.80</ele>
	<time>2023-08-07T04:57:29.000Z</time>
</trkpt>
<trkpt lat="46.0979000" lon="10.5085350">
	<ele>2088.00</ele>
	<time>2023-08-07T04:57:30.000Z</time>
</trkpt>
<trkpt lat="46.0979060" lon="10.5085430">
	<ele>2088.00</ele>
	<time>2023-08-07T04:57:31.000Z</time>
</trkpt>
<trkpt lat="46.0979140" lon="10.5085500">
	<ele>2088.00</ele>
	<time>2023-08-07T04:57:32.000Z</time>
</trkpt>
<trkpt lat="46.0979200" lon="10.5085570">
	<ele>2088.00</ele>
	<time>2023-08-07T04:57:33.000Z</time>
</trkpt>
<trkpt lat="46.0979250" lon="10.5085700">
	<ele>2088.00</ele>
	<time>2023-08-07T04:57:34.000Z</time>
</trkpt>
<trkpt lat="46.0979290" lon="10.5085840">
	<ele>2088.20</ele>
	<time>2023-08-07T04:57:35.000Z</time>
</trkpt>
<trkpt lat="46.0979330" lon="10.5085960">
	<ele>2088.20</ele>
	<time>2023-08-07T04:57:36.000Z</time>
</trkpt>
<trkpt lat="46.0979330" lon="10.5086120">
	<ele>2088.00</ele>
	<time>2023-08-07T04:57:37.000Z</time>
</trkpt>
<trkpt lat="46.0979360" lon="10.5086260">
	<ele>2088.00</ele>
	<time>2023-08-07T04:57:38.000Z</time>
</trkpt>
<trkpt lat="46.0979420" lon="10.5086380">
	<ele>2088.00</ele>
	<time>2023-08-07T04:57:39.000Z</time>
</trkpt>
<trkpt lat="46.0979470" lon="10.5086510">
	<ele>2087.80</ele>
	<time>2023-08-07T04:57:40.000Z</time>
</trkpt>
<trkpt lat="46.0979490" lon="10.5086620">
	<ele>2087.80</ele>
	<time>2023-08-07T04:57:41.000Z</time>
</trkpt>
<trkpt lat="46.0979500" lon="10.5086740">
	<ele>2087.60</ele>
	<time>2023-08-07T04:57:42.000Z</time>
</trkpt>
<trkpt lat="46.0979540" lon="10.5086830">
	<ele>2087.60</ele>
	<time>2023-08-07T04:57:43.000Z</time>
</trkpt>
<trkpt lat="46.0979590" lon="10.5086940">
	<ele>2087.60</ele>
	<time>2023-08-07T04:57:44.000Z</time>
</trkpt>
<trkpt lat="46.0979680" lon="10.5087010">
	<ele>2087.60</ele>
	<time>2023-08-07T04:57:45.000Z</time>
</trkpt>
<trkpt lat="46.0979730" lon="10.5087070">
	<ele>2087.60</ele>
	<time>2023-08-07T04:57:46.000Z</time>
</trkpt>
<trkpt lat="46.0979800" lon="10.5087160">
	<ele>2087.60</ele>
	<time>2023-08-07T04:57:47.000Z</time>
</trkpt>
<trkpt lat="46.0979860" lon="10.5087240">
	<ele>2087.40</ele>
	<time>2023-08-07T04:57:48.000Z</time>
</trkpt>
<trkpt lat="46.0979910" lon="10.5087330">
	<ele>2087.40</ele>
	<time>2023-08-07T04:57:49.000Z</time>
</trkpt>
<trkpt lat="46.0979950" lon="10.5087470">
	<ele>2087.40</ele>
	<time>2023-08-07T04:57:50.000Z</time>
</trkpt>
<trkpt lat="46.0979960" lon="10.5087600">
	<ele>2087.40</ele>
	<time>2023-08-07T04:57:51.000Z</time>
</trkpt>
<trkpt lat="46.0979920" lon="10.5087790">
	<ele>2087.40</ele>
	<time>2023-08-07T04:57:52.000Z</time>
</trkpt>
<trkpt lat="46.0979900" lon="10.5087920">
	<ele>2087.40</ele>
	<time>2023-08-07T04:57:53.000Z</time>
</trkpt>
<trkpt lat="46.0979890" lon="10.5088060">
	<ele>2087.40</ele>
	<time>2023-08-07T04:57:54.000Z</time>
</trkpt>
<trkpt lat="46.0979870" lon="10.5088190">
	<ele>2087.40</ele>
	<time>2023-08-07T04:57:55.000Z</time>
</trkpt>
<trkpt lat="46.0979870" lon="10.5088300">
	<ele>2087.60</ele>
	<time>2023-08-07T04:57:56.000Z</time>
</trkpt>
<trkpt lat="46.0979870" lon="10.5088410">
	<ele>2087.60</ele>
	<time>2023-08-07T04:57:57.000Z</time>
</trkpt>
<trkpt lat="46.0979850" lon="10.5088550">
	<ele>2087.60</ele>
	<time>2023-08-07T04:57:58.000Z</time>
</trkpt>
<trkpt lat="46.0979850" lon="10.5088690">
	<ele>2087.60</ele>
	<time>2023-08-07T04:57:59.000Z</time>
</trkpt>
<trkpt lat="46.0979870" lon="10.5088790">
	<ele>2087.60</ele>
	<time>2023-08-07T04:58:00.000Z</time>
</trkpt>
<trkpt lat="46.0979840" lon="10.5088940">
	<ele>2087.60</ele>
	<time>2023-08-07T04:58:01.000Z</time>
</trkpt>
<trkpt lat="46.0979850" lon="10.5089030">
	<ele>2087.60</ele>
	<time>2023-08-07T04:58:02.000Z</time>
</trkpt>
<trkpt lat="46.0979880" lon="10.5089080">
	<ele>2087.60</ele>
	<time>2023-08-07T04:58:03.000Z</time>
</trkpt>
<trkpt lat="46.0979930" lon="10.5089120">
	<ele>2087.60</ele>
	<time>2023-08-07T04:58:04.000Z</time>
</trkpt>
<trkpt lat="46.0979980" lon="10.5089160">
	<ele>2087.80</ele>
	<time>2023-08-07T04:58:05.000Z</time>
</trkpt>
<trkpt lat="46.0980060" lon="10.5089220">
	<ele>2087.80</ele>
	<time>2023-08-07T04:58:06.000Z</time>
</trkpt>
<trkpt lat="46.0980140" lon="10.5089290">
	<ele>2088.00</ele>
	<time>2023-08-07T04:58:07.000Z</time>
</trkpt>
<trkpt lat="46.0980170" lon="10.5089350">
	<ele>2088.20</ele>
	<time>2023-08-07T04:58:08.000Z</time>
</trkpt>
<trkpt lat="46.0980210" lon="10.5089460">
	<ele>2088.20</ele>
	<time>2023-08-07T04:58:09.000Z</time>
</trkpt>
<trkpt lat="46.0980280" lon="10.5089580">
	<ele>2088.20</ele>
	<time>2023-08-07T04:58:10.000Z</time>
</trkpt>
<trkpt lat="46.0980320" lon="10.5089660">
	<ele>2088.20</ele>
	<time>2023-08-07T04:58:11.000Z</time>
</trkpt>
<trkpt lat="46.0980350" lon="10.5089740">
	<ele>2088.20</ele>
	<time>2023-08-07T04:58:12.000Z</time>
</trkpt>
<trkpt lat="46.0980390" lon="10.5089800">
	<ele>2088.20</ele>
	<time>2023-08-07T04:58:13.000Z</time>
</trkpt>
<trkpt lat="46.0980470" lon="10.5089880">
	<ele>2088.20</ele>
	<time>2023-08-07T04:58:14.000Z</time>
</trkpt>
<trkpt lat="46.0980550" lon="10.5089920">
	<ele>2088.20</ele>
	<time>2023-08-07T04:58:15.000Z</time>
</trkpt>
<trkpt lat="46.0980650" lon="10.5089980">
	<ele>2088.20</ele>
	<time>2023-08-07T04:58:16.000Z</time>
</trkpt>
<trkpt lat="46.0980690" lon="10.5090030">
	<ele>2088.20</ele>
	<time>2023-08-07T04:58:17.000Z</time>
</trkpt>
<trkpt lat="46.0980740" lon="10.5090140">
	<ele>2088.40</ele>
	<time>2023-08-07T04:58:18.000Z</time>
</trkpt>
<trkpt lat="46.0980800" lon="10.5090250">
	<ele>2088.60</ele>
	<time>2023-08-07T04:58:19.000Z</time>
</trkpt>
<trkpt lat="46.0980840" lon="10.5090380">
	<ele>2088.80</ele>
	<time>2023-08-07T04:58:20.000Z</time>
</trkpt>
<trkpt lat="46.0980880" lon="10.5090520">
	<ele>2088.80</ele>
	<time>2023-08-07T04:58:21.000Z</time>
</trkpt>
<trkpt lat="46.0980880" lon="10.5090700">
	<ele>2088.80</ele>
	<time>2023-08-07T04:58:22.000Z</time>
</trkpt>
<trkpt lat="46.0980850" lon="10.5090840">
	<ele>2088.80</ele>
	<time>2023-08-07T04:58:23.000Z</time>
</trkpt>
<trkpt lat="46.0980870" lon="10.5090950">
	<ele>2088.80</ele>
	<time>2023-08-07T04:58:24.000Z</time>
</trkpt>
<trkpt lat="46.0980910" lon="10.5091020">
	<ele>2088.80</ele>
	<time>2023-08-07T04:58:25.000Z</time>
</trkpt>
<trkpt lat="46.0980960" lon="10.5091110">
	<ele>2088.80</ele>
	<time>2023-08-07T04:58:26.000Z</time>
</trkpt>
<trkpt lat="46.0980990" lon="10.5091210">
	<ele>2089.00</ele>
	<time>2023-08-07T04:58:27.000Z</time>
</trkpt>
<trkpt lat="46.0981030" lon="10.5091310">
	<ele>2089.00</ele>
	<time>2023-08-07T04:58:28.000Z</time>
</trkpt>
<trkpt lat="46.0981100" lon="10.5091380">
	<ele>2089.20</ele>
	<time>2023-08-07T04:58:29.000Z</time>
</trkpt>
<trkpt lat="46.0981170" lon="10.5091510">
	<ele>2089.40</ele>
	<time>2023-08-07T04:58:30.000Z</time>
</trkpt>
<trkpt lat="46.0981210" lon="10.5091650">
	<ele>2089.60</ele>
	<time>2023-08-07T04:58:31.000Z</time>
</trkpt>
<trkpt lat="46.0981220" lon="10.5091790">
	<ele>2089.60</ele>
	<time>2023-08-07T04:58:32.000Z</time>
</trkpt>
<trkpt lat="46.0981270" lon="10.5091900">
	<ele>2089.60</ele>
	<time>2023-08-07T04:58:33.000Z</time>
</trkpt>
<trkpt lat="46.0981310" lon="10.5092050">
	<ele>2089.60</ele>
	<time>2023-08-07T04:58:34.000Z</time>
</trkpt>
<trkpt lat="46.0981350" lon="10.5092200">
	<ele>2089.60</ele>
	<time>2023-08-07T04:58:35.000Z</time>
</trkpt>
<trkpt lat="46.0981420" lon="10.5092310">
	<ele>2089.60</ele>
	<time>2023-08-07T04:58:36.000Z</time>
</trkpt>
<trkpt lat="46.0981480" lon="10.5092420">
	<ele>2089.60</ele>
	<time>2023-08-07T04:58:37.000Z</time>
</trkpt>
<trkpt lat="46.0981510" lon="10.5092540">
	<ele>2089.60</ele>
	<time>2023-08-07T04:58:38.000Z</time>
</trkpt>
<trkpt lat="46.0981480" lon="10.5092660">
	<ele>2089.60</ele>
	<time>2023-08-07T04:58:39.000Z</time>
</trkpt>
<trkpt lat="46.0981440" lon="10.5092750">
	<ele>2089.60</ele>
	<time>2023-08-07T04:58:40.000Z</time>
</trkpt>
<trkpt lat="46.0981400" lon="10.5092830">
	<ele>2089.60</ele>
	<time>2023-08-07T04:58:41.000Z</time>
</trkpt>
<trkpt lat="46.0981350" lon="10.5092920">
	<ele>2089.40</ele>
	<time>2023-08-07T04:58:42.000Z</time>
</trkpt>
<trkpt lat="46.0981360" lon="10.5093020">
	<ele>2089.40</ele>
	<time>2023-08-07T04:58:43.000Z</time>
</trkpt>
<trkpt lat="46.0981370" lon="10.5093120">
	<ele>2089.40</ele>
	<time>2023-08-07T04:58:44.000Z</time>
</trkpt>
<trkpt lat="46.0981390" lon="10.5093270">
	<ele>2089.40</ele>
	<time>2023-08-07T04:58:45.000Z</time>
</trkpt>
<trkpt lat="46.0981410" lon="10.5093410">
	<ele>2089.20</ele>
	<time>2023-08-07T04:58:46.000Z</time>
</trkpt>
<trkpt lat="46.0981410" lon="10.5093530">
	<ele>2089.40</ele>
	<time>2023-08-07T04:58:47.000Z</time>
</trkpt>
<trkpt lat="46.0981380" lon="10.5093660">
	<ele>2089.40</ele>
	<time>2023-08-07T04:58:48.000Z</time>
</trkpt>
<trkpt lat="46.0981350" lon="10.5093780">
	<ele>2089.40</ele>
	<time>2023-08-07T04:58:49.000Z</time>
</trkpt>
<trkpt lat="46.0981340" lon="10.5093900">
	<ele>2089.40</ele>
	<time>2023-08-07T04:58:50.000Z</time>
</trkpt>
<trkpt lat="46.0981400" lon="10.5093980">
	<ele>2089.40</ele>
	<time>2023-08-07T04:58:51.000Z</time>
</trkpt>
<trkpt lat="46.0981450" lon="10.5094110">
	<ele>2089.40</ele>
	<time>2023-08-07T04:58:52.000Z</time>
</trkpt>
<trkpt lat="46.0981480" lon="10.5094260">
	<ele>2089.40</ele>
	<time>2023-08-07T04:58:53.000Z</time>
</trkpt>
<trkpt lat="46.0981530" lon="10.5094410">
	<ele>2089.40</ele>
	<time>2023-08-07T04:58:54.000Z</time>
</trkpt>
<trkpt lat="46.0981570" lon="10.5094540">
	<ele>2089.40</ele>
	<time>2023-08-07T04:58:55.000Z</time>
</trkpt>
<trkpt lat="46.0981600" lon="10.5094700">
	<ele>2089.40</ele>
	<time>2023-08-07T04:58:56.000Z</time>
</trkpt>
<trkpt lat="46.0981620" lon="10.5094840">
	<ele>2089.40</ele>
	<time>2023-08-07T04:58:57.000Z</time>
</trkpt>
<trkpt lat="46.0981640" lon="10.5094990">
	<ele>2089.40</ele>
	<time>2023-08-07T04:58:58.000Z</time>
</trkpt>
<trkpt lat="46.0981660" lon="10.5095130">
	<ele>2089.40</ele>
	<time>2023-08-07T04:58:59.000Z</time>
</trkpt>
<trkpt lat="46.0981720" lon="10.5095230">
	<ele>2089.40</ele>
	<time>2023-08-07T04:59:00.000Z</time>
</trkpt>
<trkpt lat="46.0981790" lon="10.5095310">
	<ele>2089.40</ele>
	<time>2023-08-07T04:59:01.000Z</time>
</trkpt>
<trkpt lat="46.0981870" lon="10.5095370">
	<ele>2089.40</ele>
	<time>2023-08-07T04:59:02.000Z</time>
</trkpt>
<trkpt lat="46.0981980" lon="10.5095390">
	<ele>2089.40</ele>
	<time>2023-08-07T04:59:03.000Z</time>
</trkpt>
<trkpt lat="46.0982070" lon="10.5095420">
	<ele>2089.20</ele>
	<time>2023-08-07T04:59:04.000Z</time>
</trkpt>
<trkpt lat="46.0982190" lon="10.5095400">
	<ele>2089.20</ele>
	<time>2023-08-07T04:59:05.000Z</time>
</trkpt>
<trkpt lat="46.0982290" lon="10.5095420">
	<ele>2089.20</ele>
	<time>2023-08-07T04:59:06.000Z</time>
</trkpt>
<trkpt lat="46.0982380" lon="10.5095400">
	<ele>2089.20</ele>
	<time>2023-08-07T04:59:07.000Z</time>
</trkpt>
<trkpt lat="46.0982480" lon="10.5095350">
	<ele>2089.20</ele>
	<time>2023-08-07T04:59:08.000Z</time>
</trkpt>
<trkpt lat="46.0982580" lon="10.5095300">
	<ele>2089.20</ele>
	<time>2023-08-07T04:59:09.000Z</time>
</trkpt>
<trkpt lat="46.0982710" lon="10.5095280">
	<ele>2089.20</ele>
	<time>2023-08-07T04:59:10.000Z</time>
</trkpt>
<trkpt lat="46.0982810" lon="10.5095350">
	<ele>2089.20</ele>
	<time>2023-08-07T04:59:11.000Z</time>
</trkpt>
<trkpt lat="46.0982890" lon="10.5095360">
	<ele>2089.20</ele>
	<time>2023-08-07T04:59:12.000Z</time>
</trkpt>
<trkpt lat="46.0982990" lon="10.5095390">
	<ele>2089.20</ele>
	<time>2023-08-07T04:59:13.000Z</time>
</trkpt>
<trkpt lat="46.0983100" lon="10.5095400">
	<ele>2089.00</ele>
	<time>2023-08-07T04:59:14.000Z</time>
</trkpt>
<trkpt lat="46.0983210" lon="10.5095420">
	<ele>2089.20</ele>
	<time>2023-08-07T04:59:15.000Z</time>
</trkpt>
<trkpt lat="46.0983320" lon="10.5095480">
	<ele>2089.20</ele>
	<time>2023-08-07T04:59:16.000Z</time>
</trkpt>
<trkpt lat="46.0983420" lon="10.5095580">
	<ele>2089.20</ele>
	<time>2023-08-07T04:59:17.000Z</time>
</trkpt>
<trkpt lat="46.0983520" lon="10.5095660">
	<ele>2089.20</ele>
	<time>2023-08-07T04:59:18.000Z</time>
</trkpt>
<trkpt lat="46.0983630" lon="10.5095760">
	<ele>2089.20</ele>
	<time>2023-08-07T04:59:19.000Z</time>
</trkpt>
<trkpt lat="46.0983710" lon="10.5095870">
	<ele>2089.20</ele>
	<time>2023-08-07T04:59:20.000Z</time>
</trkpt>
<trkpt lat="46.0983750" lon="10.5095990">
	<ele>2089.20</ele>
	<time>2023-08-07T04:59:21.000Z</time>
</trkpt>
<trkpt lat="46.0983810" lon="10.5096110">
	<ele>2089.20</ele>
	<time>2023-08-07T04:59:22.000Z</time>
</trkpt>
<trkpt lat="46.0983870" lon="10.5096260">
	<ele>2089.20</ele>
	<time>2023-08-07T04:59:23.000Z</time>
</trkpt>
<trkpt lat="46.0983940" lon="10.5096430">
	<ele>2089.20</ele>
	<time>2023-08-07T04:59:24.000Z</time>
</trkpt>
<trkpt lat="46.0984000" lon="10.5096620">
	<ele>2089.20</ele>
	<time>2023-08-07T04:59:25.000Z</time>
</trkpt>
<trkpt lat="46.0984070" lon="10.5096770">
	<ele>2089.20</ele>
	<time>2023-08-07T04:59:26.000Z</time>
</trkpt>
<trkpt lat="46.0984140" lon="10.5096920">
	<ele>2089.20</ele>
	<time>2023-08-07T04:59:27.000Z</time>
</trkpt>
<trkpt lat="46.0984180" lon="10.5097070">
	<ele>2089.00</ele>
	<time>2023-08-07T04:59:28.000Z</time>
</trkpt>
<trkpt lat="46.0984240" lon="10.5097220">
	<ele>2089.00</ele>
	<time>2023-08-07T04:59:29.000Z</time>
</trkpt>
<trkpt lat="46.0984330" lon="10.5097310">
	<ele>2089.00</ele>
	<time>2023-08-07T04:59:30.000Z</time>
</trkpt>
<trkpt lat="46.0984450" lon="10.5097370">
	<ele>2089.00</ele>
	<time>2023-08-07T04:59:31.000Z</time>
</trkpt>
<trkpt lat="46.0984550" lon="10.5097460">
	<ele>2089.00</ele>
	<time>2023-08-07T04:59:32.000Z</time>
</trkpt>
<trkpt lat="46.0984650" lon="10.5097600">
	<ele>2089.00</ele>
	<time>2023-08-07T04:59:33.000Z</time>
</trkpt>
<trkpt lat="46.0984690" lon="10.5097740">
	<ele>2089.00</ele>
	<time>2023-08-07T04:59:34.000Z</time>
</trkpt>
<trkpt lat="46.0984720" lon="10.5097870">
	<ele>2089.00</ele>
	<time>2023-08-07T04:59:35.000Z</time>
</trkpt>
<trkpt lat="46.0984760" lon="10.5097950">
	<ele>2089.00</ele>
	<time>2023-08-07T04:59:36.000Z</time>
</trkpt>
<trkpt lat="46.0984840" lon="10.5098010">
	<ele>2089.00</ele>
	<time>2023-08-07T04:59:37.000Z</time>
</trkpt>
<trkpt lat="46.0984920" lon="10.5098000">
	<ele>2089.20</ele>
	<time>2023-08-07T04:59:38.000Z</time>
</trkpt>
<trkpt lat="46.0985000" lon="10.5098020">
	<ele>2089.20</ele>
	<time>2023-08-07T04:59:39.000Z</time>
</trkpt>
<trkpt lat="46.0985060" lon="10.5098020">
	<ele>2089.20</ele>
	<time>2023-08-07T04:59:40.000Z</time>
</trkpt>
<trkpt lat="46.0985090" lon="10.5098030">
	<ele>2089.40</ele>
	<time>2023-08-07T04:59:41.000Z</time>
</trkpt>
<trkpt lat="46.0985100" lon="10.5098040">
	<ele>2089.40</ele>
	<time>2023-08-07T04:59:42.000Z</time>
</trkpt>
<trkpt lat="46.0985100" lon="10.5098050">
	<ele>2089.40</ele>
	<time>2023-08-07T04:59:43.000Z</time>
</trkpt>
<trkpt lat="46.0985110" lon="10.5098060">
	<ele>2089.80</ele>
	<time>2023-08-07T04:59:44.000Z</time>
</trkpt>
<trkpt lat="46.0985120" lon="10.5098070">
	<ele>2089.80</ele>
	<time>2023-08-07T04:59:45.000Z</time>
</trkpt>
<trkpt lat="46.0985160" lon="10.5098090">
	<ele>2089.80</ele>
	<time>2023-08-07T04:59:46.000Z</time>
</trkpt>
<trkpt lat="46.0985200" lon="10.5098140">
	<ele>2089.80</ele>
	<time>2023-08-07T04:59:47.000Z</time>
</trkpt>
<trkpt lat="46.0985240" lon="10.5098160">
	<ele>2089.80</ele>
	<time>2023-08-07T04:59:48.000Z</time>
</trkpt>
<trkpt lat="46.0985270" lon="10.5098170">
	<ele>2089.80</ele>
	<time>2023-08-07T04:59:49.000Z</time>
</trkpt>
<trkpt lat="46.0985290" lon="10.5098170">
	<ele>2089.80</ele>
	<time>2023-08-07T04:59:50.000Z</time>
</trkpt>
<trkpt lat="46.0985340" lon="10.5098260">
	<ele>2089.60</ele>
	<time>2023-08-07T04:59:51.000Z</time>
</trkpt>
<trkpt lat="46.0985400" lon="10.5098380">
	<ele>2089.60</ele>
	<time>2023-08-07T04:59:52.000Z</time>
</trkpt>
<trkpt lat="46.0985450" lon="10.5098500">
	<ele>2089.60</ele>
	<time>2023-08-07T04:59:53.000Z</time>
</trkpt>
<trkpt lat="46.0985510" lon="10.5098620">
	<ele>2089.60</ele>
	<time>2023-08-07T04:59:54.000Z</time>
</trkpt>
<trkpt lat="46.0985570" lon="10.5098750">
	<ele>2089.40</ele>
	<time>2023-08-07T04:59:55.000Z</time>
</trkpt>
<trkpt lat="46.0985600" lon="10.5098900">
	<ele>2089.40</ele>
	<time>2023-08-07T04:59:56.000Z</time>
</trkpt>
<trkpt lat="46.0985650" lon="10.5099020">
	<ele>2089.20</ele>
	<time>2023-08-07T04:59:57.000Z</time>
</trkpt>
<trkpt lat="46.0985730" lon="10.5099150">
	<ele>2089.00</ele>
	<time>2023-08-07T04:59:58.000Z</time>
</trkpt>
<trkpt lat="46.0985780" lon="10.5099310">
	<ele>2089.00</ele>
	<time>2023-08-07T04:59:59.000Z</time>
</trkpt>
<trkpt lat="46.0985830" lon="10.5099480">
	<ele>2088.80</ele>
	<time>2023-08-07T05:00:00.000Z</time>
</trkpt>
<trkpt lat="46.0985860" lon="10.5099640">
	<ele>2088.80</ele>
	<time>2023-08-07T05:00:01.000Z</time>
</trkpt>
<trkpt lat="46.0985900" lon="10.5099810">
	<ele>2088.80</ele>
	<time>2023-08-07T05:00:02.000Z</time>
</trkpt>
<trkpt lat="46.0985960" lon="10.5099950">
	<ele>2088.80</ele>
	<time>2023-08-07T05:00:03.000Z</time>
</trkpt>
<trkpt lat="46.0986010" lon="10.5100080">
	<ele>2088.80</ele>
	<time>2023-08-07T05:00:04.000Z</time>
</trkpt>
<trkpt lat="46.0986050" lon="10.5100230">
	<ele>2088.80</ele>
	<time>2023-08-07T05:00:05.000Z</time>
</trkpt>
<trkpt lat="46.0986100" lon="10.5100380">
	<ele>2088.80</ele>
	<time>2023-08-07T05:00:06.000Z</time>
</trkpt>
<trkpt lat="46.0986150" lon="10.5100520">
	<ele>2088.80</ele>
	<time>2023-08-07T05:00:07.000Z</time>
</trkpt>
<trkpt lat="46.0986200" lon="10.5100690">
	<ele>2088.80</ele>
	<time>2023-08-07T05:00:08.000Z</time>
</trkpt>
<trkpt lat="46.0986260" lon="10.5100870">
	<ele>2088.80</ele>
	<time>2023-08-07T05:00:09.000Z</time>
</trkpt>
<trkpt lat="46.0986330" lon="10.5101070">
	<ele>2089.00</ele>
	<time>2023-08-07T05:00:10.000Z</time>
</trkpt>
<trkpt lat="46.0986410" lon="10.5101260">
	<ele>2089.00</ele>
	<time>2023-08-07T05:00:11.000Z</time>
</trkpt>
<trkpt lat="46.0986480" lon="10.5101450">
	<ele>2089.00</ele>
	<time>2023-08-07T05:00:12.000Z</time>
</trkpt>
<trkpt lat="46.0986530" lon="10.5101590">
	<ele>2089.00</ele>
	<time>2023-08-07T05:00:13.000Z</time>
</trkpt>
<trkpt lat="46.0986550" lon="10.5101760">
	<ele>2089.00</ele>
	<time>2023-08-07T05:00:14.000Z</time>
</trkpt>
<trkpt lat="46.0986560" lon="10.5101870">
	<ele>2088.80</ele>
	<time>2023-08-07T05:00:15.000Z</time>
</trkpt>
<trkpt lat="46.0986550" lon="10.5101970">
	<ele>2088.80</ele>
	<time>2023-08-07T05:00:16.000Z</time>
</trkpt>
<trkpt lat="46.0986500" lon="10.5102120">
	<ele>2088.80</ele>
	<time>2023-08-07T05:00:17.000Z</time>
</trkpt>
<trkpt lat="46.0986460" lon="10.5102230">
	<ele>2088.80</ele>
	<time>2023-08-07T05:00:18.000Z</time>
</trkpt>
<trkpt lat="46.0986460" lon="10.5102360">
	<ele>2088.80</ele>
	<time>2023-08-07T05:00:19.000Z</time>
</trkpt>
<trkpt lat="46.0986520" lon="10.5102430">
	<ele>2088.80</ele>
	<time>2023-08-07T05:00:20.000Z</time>
</trkpt>
<trkpt lat="46.0986590" lon="10.5102560">
	<ele>2089.00</ele>
	<time>2023-08-07T05:00:21.000Z</time>
</trkpt>
<trkpt lat="46.0986660" lon="10.5102670">
	<ele>2089.20</ele>
	<time>2023-08-07T05:00:22.000Z</time>
</trkpt>
<trkpt lat="46.0986670" lon="10.5102790">
	<ele>2089.20</ele>
	<time>2023-08-07T05:00:23.000Z</time>
</trkpt>
<trkpt lat="46.0986720" lon="10.5102900">
	<ele>2089.20</ele>
	<time>2023-08-07T05:00:24.000Z</time>
</trkpt>
<trkpt lat="46.0986780" lon="10.5103030">
	<ele>2089.20</ele>
	<time>2023-08-07T05:00:25.000Z</time>
</trkpt>
<trkpt lat="46.0986810" lon="10.5103200">
	<ele>2089.40</ele>
	<time>2023-08-07T05:00:26.000Z</time>
</trkpt>
<trkpt lat="46.0986850" lon="10.5103350">
	<ele>2089.40</ele>
	<time>2023-08-07T05:00:27.000Z</time>
</trkpt>
<trkpt lat="46.0986930" lon="10.5103460">
	<ele>2089.40</ele>
	<time>2023-08-07T05:00:28.000Z</time>
</trkpt>
<trkpt lat="46.0987030" lon="10.5103570">
	<ele>2089.40</ele>
	<time>2023-08-07T05:00:29.000Z</time>
</trkpt>
<trkpt lat="46.0987140" lon="10.5103660">
	<ele>2089.40</ele>
	<time>2023-08-07T05:00:30.000Z</time>
</trkpt>
<trkpt lat="46.0987260" lon="10.5103740">
	<ele>2089.40</ele>
	<time>2023-08-07T05:00:31.000Z</time>
</trkpt>
<trkpt lat="46.0987350" lon="10.5103870">
	<ele>2089.40</ele>
	<time>2023-08-07T05:00:32.000Z</time>
</trkpt>
<trkpt lat="46.0987390" lon="10.5104050">
	<ele>2089.40</ele>
	<time>2023-08-07T05:00:33.000Z</time>
</trkpt>
<trkpt lat="46.0987410" lon="10.5104210">
	<ele>2089.40</ele>
	<time>2023-08-07T05:00:34.000Z</time>
</trkpt>
<trkpt lat="46.0987440" lon="10.5104350">
	<ele>2089.40</ele>
	<time>2023-08-07T05:00:35.000Z</time>
</trkpt>
<trkpt lat="46.0987480" lon="10.5104480">
	<ele>2089.40</ele>
	<time>2023-08-07T05:00:36.000Z</time>
</trkpt>
<trkpt lat="46.0987530" lon="10.5104580">
	<ele>2089.40</ele>
	<time>2023-08-07T05:00:37.000Z</time>
</trkpt>
<trkpt lat="46.0987620" lon="10.5104650">
	<ele>2089.60</ele>
	<time>2023-08-07T05:00:38.000Z</time>
</trkpt>
<trkpt lat="46.0987690" lon="10.5104780">
	<ele>2089.60</ele>
	<time>2023-08-07T05:00:39.000Z</time>
</trkpt>
<trkpt lat="46.0987760" lon="10.5104920">
	<ele>2089.40</ele>
	<time>2023-08-07T05:00:40.000Z</time>
</trkpt>
<trkpt lat="46.0987810" lon="10.5105010">
	<ele>2089.40</ele>
	<time>2023-08-07T05:00:41.000Z</time>
</trkpt>
<trkpt lat="46.0987880" lon="10.5105130">
	<ele>2089.40</ele>
	<time>2023-08-07T05:00:42.000Z</time>
</trkpt>
<trkpt lat="46.0987930" lon="10.5105260">
	<ele>2089.40</ele>
	<time>2023-08-07T05:00:43.000Z</time>
</trkpt>
<trkpt lat="46.0988000" lon="10.5105380">
	<ele>2089.20</ele>
	<time>2023-08-07T05:00:44.000Z</time>
</trkpt>
<trkpt lat="46.0988040" lon="10.5105560">
	<ele>2089.20</ele>
	<time>2023-08-07T05:00:45.000Z</time>
</trkpt>
<trkpt lat="46.0988050" lon="10.5105660">
	<ele>2089.40</ele>
	<time>2023-08-07T05:00:46.000Z</time>
</trkpt>
<trkpt lat="46.0988060" lon="10.5105810">
	<ele>2089.40</ele>
	<time>2023-08-07T05:00:47.000Z</time>
</trkpt>
<trkpt lat="46.0988080" lon="10.5105950">
	<ele>2089.60</ele>
	<time>2023-08-07T05:00:48.000Z</time>
</trkpt>
<trkpt lat="46.0988140" lon="10.5106060">
	<ele>2089.60</ele>
	<time>2023-08-07T05:00:49.000Z</time>
</trkpt>
<trkpt lat="46.0988220" lon="10.5106150">
	<ele>2089.80</ele>
	<time>2023-08-07T05:00:50.000Z</time>
</trkpt>
<trkpt lat="46.0988300" lon="10.5106210">
	<ele>2089.80</ele>
	<time>2023-08-07T05:00:51.000Z</time>
</trkpt>
<trkpt lat="46.0988360" lon="10.5106320">
	<ele>2089.80</ele>
	<time>2023-08-07T05:00:52.000Z</time>
</trkpt>
<trkpt lat="46.0988450" lon="10.5106420">
	<ele>2090.00</ele>
	<time>2023-08-07T05:00:53.000Z</time>
</trkpt>
<trkpt lat="46.0988520" lon="10.5106570">
	<ele>2090.00</ele>
	<time>2023-08-07T05:00:54.000Z</time>
</trkpt>
<trkpt lat="46.0988590" lon="10.5106720">
	<ele>2090.00</ele>
	<time>2023-08-07T05:00:55.000Z</time>
</trkpt>
<trkpt lat="46.0988670" lon="10.5106850">
	<ele>2090.00</ele>
	<time>2023-08-07T05:00:56.000Z</time>
</trkpt>
<trkpt lat="46.0988770" lon="10.5106940">
	<ele>2090.00</ele>
	<time>2023-08-07T05:00:57.000Z</time>
</trkpt>
<trkpt lat="46.0988860" lon="10.5107030">
	<ele>2090.00</ele>
	<time>2023-08-07T05:00:58.000Z</time>
</trkpt>
<trkpt lat="46.0988940" lon="10.5107150">
	<ele>2090.00</ele>
	<time>2023-08-07T05:00:59.000Z</time>
</trkpt>
<trkpt lat="46.0989030" lon="10.5107220">
	<ele>2090.00</ele>
	<time>2023-08-07T05:01:00.000Z</time>
</trkpt>
<trkpt lat="46.0989110" lon="10.5107320">
	<ele>2090.00</ele>
	<time>2023-08-07T05:01:01.000Z</time>
</trkpt>
<trkpt lat="46.0989150" lon="10.5107430">
	<ele>2090.00</ele>
	<time>2023-08-07T05:01:02.000Z</time>
</trkpt>
<trkpt lat="46.0989160" lon="10.5107520">
	<ele>2090.00</ele>
	<time>2023-08-07T05:01:03.000Z</time>
</trkpt>
<trkpt lat="46.0989220" lon="10.5107610">
	<ele>2090.00</ele>
	<time>2023-08-07T05:01:04.000Z</time>
</trkpt>
<trkpt lat="46.0989290" lon="10.5107700">
	<ele>2090.00</ele>
	<time>2023-08-07T05:01:05.000Z</time>
</trkpt>
<trkpt lat="46.0989350" lon="10.5107810">
	<ele>2090.20</ele>
	<time>2023-08-07T05:01:06.000Z</time>
</trkpt>
<trkpt lat="46.0989430" lon="10.5107900">
	<ele>2090.20</ele>
	<time>2023-08-07T05:01:07.000Z</time>
</trkpt>
<trkpt lat="46.0989470" lon="10.5108040">
	<ele>2090.20</ele>
	<time>2023-08-07T05:01:08.000Z</time>
</trkpt>
<trkpt lat="46.0989480" lon="10.5108110">
	<ele>2090.20</ele>
	<time>2023-08-07T05:01:09.000Z</time>
</trkpt>
<trkpt lat="46.0989460" lon="10.5108130">
	<ele>2090.20</ele>
	<time>2023-08-07T05:01:10.000Z</time>
</trkpt>
<trkpt lat="46.0989450" lon="10.5108140">
	<ele>2090.20</ele>
	<time>2023-08-07T05:01:11.000Z</time>
</trkpt>
<trkpt lat="46.0989470" lon="10.5108160">
	<ele>2090.00</ele>
	<time>2023-08-07T05:01:12.000Z</time>
</trkpt>
<trkpt lat="46.0989460" lon="10.5108190">
	<ele>2090.00</ele>
	<time>2023-08-07T05:01:13.000Z</time>
</trkpt>
<trkpt lat="46.0989460" lon="10.5108190">
	<ele>2090.00</ele>
	<time>2023-08-07T05:01:14.000Z</time>
</trkpt>
<trkpt lat="46.0989470" lon="10.5108190">
	<ele>2090.20</ele>
	<time>2023-08-07T05:01:15.000Z</time>
</trkpt>
<trkpt lat="46.0989470" lon="10.5108210">
	<ele>2090.20</ele>
	<time>2023-08-07T05:01:16.000Z</time>
</trkpt>
<trkpt lat="46.0989460" lon="10.5108220">
	<ele>2090.20</ele>
	<time>2023-08-07T05:01:17.000Z</time>
</trkpt>
<trkpt lat="46.0989460" lon="10.5108230">
	<ele>2090.40</ele>
	<time>2023-08-07T05:01:18.000Z</time>
</trkpt>
<trkpt lat="46.0989460" lon="10.5108240">
	<ele>2090.40</ele>
	<time>2023-08-07T05:01:19.000Z</time>
</trkpt>
<trkpt lat="46.0989450" lon="10.5108230">
	<ele>2090.40</ele>
	<time>2023-08-07T05:01:20.000Z</time>
</trkpt>
<trkpt lat="46.0989450" lon="10.5108220">
	<ele>2090.60</ele>
	<time>2023-08-07T05:01:21.000Z</time>
</trkpt>
<trkpt lat="46.0989470" lon="10.5108210">
	<ele>2090.60</ele>
	<time>2023-08-07T05:01:22.000Z</time>
</trkpt>
<trkpt lat="46.0989490" lon="10.5108220">
	<ele>2090.60</ele>
	<time>2023-08-07T05:01:23.000Z</time>
</trkpt>
<trkpt lat="46.0989500" lon="10.5108220">
	<ele>2090.40</ele>
	<time>2023-08-07T05:01:24.000Z</time>
</trkpt>
<trkpt lat="46.0989500" lon="10.5108220">
	<ele>2090.40</ele>
	<time>2023-08-07T05:01:25.000Z</time>
</trkpt>
<trkpt lat="46.0989500" lon="10.5108220">
	<ele>2090.40</ele>
	<time>2023-08-07T05:01:26.000Z</time>
</trkpt>
<trkpt lat="46.0989500" lon="10.5108220">
	<ele>2090.40</ele>
	<time>2023-08-07T05:01:27.000Z</time>
</trkpt>
<trkpt lat="46.0989500" lon="10.5108220">
	<ele>2090.40</ele>
	<time>2023-08-07T05:01:28.000Z</time>
</trkpt>
<trkpt lat="46.0989500" lon="10.5108220">
	<ele>2090.40</ele>
	<time>2023-08-07T05:01:29.000Z</time>
</trkpt>
<trkpt lat="46.0989500" lon="10.5108220">
	<ele>2090.40</ele>
	<time>2023-08-07T05:01:30.000Z</time>
</trkpt>
<trkpt lat="46.0989500" lon="10.5108220">
	<ele>2090.20</ele>
	<time>2023-08-07T05:01:31.000Z</time>
</trkpt>
<trkpt lat="46.0989500" lon="10.5108220">
	<ele>2090.20</ele>
	<time>2023-08-07T05:01:32.000Z</time>
</trkpt>
<trkpt lat="46.0989530" lon="10.5108250">
	<ele>2090.00</ele>
	<time>2023-08-07T05:01:33.000Z</time>
</trkpt>
<trkpt lat="46.0989600" lon="10.5108440">
	<ele>2090.00</ele>
	<time>2023-08-07T05:01:34.000Z</time>
</trkpt>
<trkpt lat="46.0989700" lon="10.5108560">
	<ele>2090.00</ele>
	<time>2023-08-07T05:01:35.000Z</time>
</trkpt>
<trkpt lat="46.0989840" lon="10.5108700">
	<ele>2090.00</ele>
	<time>2023-08-07T05:01:36.000Z</time>
</trkpt>
<trkpt lat="46.0989980" lon="10.5108840">
	<ele>2090.00</ele>
	<time>2023-08-07T05:01:37.000Z</time>
</trkpt>
<trkpt lat="46.0990150" lon="10.5108960">
	<ele>2090.00</ele>
	<time>2023-08-07T05:01:38.000Z</time>
</trkpt>
<trkpt lat="46.0990280" lon="10.5109120">
	<ele>2090.00</ele>
	<time>2023-08-07T05:01:39.000Z</time>
</trkpt>
<trkpt lat="46.0990390" lon="10.5109270">
	<ele>2090.20</ele>
	<time>2023-08-07T05:01:40.000Z</time>
</trkpt>
<trkpt lat="46.0990480" lon="10.5109390">
	<ele>2090.20</ele>
	<time>2023-08-07T05:01:41.000Z</time>
</trkpt>
<trkpt lat="46.0990570" lon="10.5109500">
	<ele>2090.20</ele>
	<time>2023-08-07T05:01:42.000Z</time>
</trkpt>
<trkpt lat="46.0990670" lon="10.5109530">
	<ele>2090.40</ele>
	<time>2023-08-07T05:01:43.000Z</time>
</trkpt>
<trkpt lat="46.0990790" lon="10.5109600">
	<ele>2090.40</ele>
	<time>2023-08-07T05:01:44.000Z</time>
</trkpt>
<trkpt lat="46.0990850" lon="10.5109700">
	<ele>2090.40</ele>
	<time>2023-08-07T05:01:45.000Z</time>
</trkpt>
<trkpt lat="46.0990880" lon="10.5109840">
	<ele>2090.40</ele>
	<time>2023-08-07T05:01:46.000Z</time>
</trkpt>
<trkpt lat="46.0990930" lon="10.5109930">
	<ele>2090.40</ele>
	<time>2023-08-07T05:01:47.000Z</time>
</trkpt>
<trkpt lat="46.0991020" lon="10.5110050">
	<ele>2090.40</ele>
	<time>2023-08-07T05:01:48.000Z</time>
</trkpt>
<trkpt lat="46.0991130" lon="10.5110200">
	<ele>2090.40</ele>
	<time>2023-08-07T05:01:49.000Z</time>
</trkpt>
<trkpt lat="46.0991250" lon="10.5110350">
	<ele>2090.40</ele>
	<time>2023-08-07T05:01:50.000Z</time>
</trkpt>
<trkpt lat="46.0991330" lon="10.5110510">
	<ele>2090.40</ele>
	<time>2023-08-07T05:01:51.000Z</time>
</trkpt>
<trkpt lat="46.0991390" lon="10.5110680">
	<ele>2090.40</ele>
	<time>2023-08-07T05:01:52.000Z</time>
</trkpt>
<trkpt lat="46.0991470" lon="10.5110760">
	<ele>2090.40</ele>
	<time>2023-08-07T05:01:53.000Z</time>
</trkpt>
<trkpt lat="46.0991530" lon="10.5110840">
	<ele>2090.20</ele>
	<time>2023-08-07T05:01:54.000Z</time>
</trkpt>
<trkpt lat="46.0991580" lon="10.5110980">
	<ele>2090.20</ele>
	<time>2023-08-07T05:01:55.000Z</time>
</trkpt>
<trkpt lat="46.0991650" lon="10.5111100">
	<ele>2090.20</ele>
	<time>2023-08-07T05:01:56.000Z</time>
</trkpt>
<trkpt lat="46.0991700" lon="10.5111250">
	<ele>2090.00</ele>
	<time>2023-08-07T05:01:57.000Z</time>
</trkpt>
<trkpt lat="46.0991740" lon="10.5111430">
	<ele>2090.00</ele>
	<time>2023-08-07T05:01:58.000Z</time>
</trkpt>
<trkpt lat="46.0991780" lon="10.5111550">
	<ele>2090.00</ele>
	<time>2023-08-07T05:01:59.000Z</time>
</trkpt>
<trkpt lat="46.0991810" lon="10.5111700">
	<ele>2090.00</ele>
	<time>2023-08-07T05:02:00.000Z</time>
</trkpt>
<trkpt lat="46.0991890" lon="10.5111820">
	<ele>2090.00</ele>
	<time>2023-08-07T05:02:01.000Z</time>
</trkpt>
<trkpt lat="46.0991980" lon="10.5111950">
	<ele>2090.00</ele>
	<time>2023-08-07T05:02:02.000Z</time>
</trkpt>
<trkpt lat="46.0992060" lon="10.5112090">
	<ele>2090.00</ele>
	<time>2023-08-07T05:02:03.000Z</time>
</trkpt>
<trkpt lat="46.0992150" lon="10.5112220">
	<ele>2090.00</ele>
	<time>2023-08-07T05:02:04.000Z</time>
</trkpt>
<trkpt lat="46.0992210" lon="10.5112360">
	<ele>2090.00</ele>
	<time>2023-08-07T05:02:05.000Z</time>
</trkpt>
<trkpt lat="46.0992280" lon="10.5112450">
	<ele>2090.20</ele>
	<time>2023-08-07T05:02:06.000Z</time>
</trkpt>
<trkpt lat="46.0992370" lon="10.5112580">
	<ele>2090.20</ele>
	<time>2023-08-07T05:02:07.000Z</time>
</trkpt>
<trkpt lat="46.0992470" lon="10.5112700">
	<ele>2090.20</ele>
	<time>2023-08-07T05:02:08.000Z</time>
</trkpt>
<trkpt lat="46.0992580" lon="10.5112820">
	<ele>2090.40</ele>
	<time>2023-08-07T05:02:09.000Z</time>
</trkpt>
<trkpt lat="46.0992670" lon="10.5112950">
	<ele>2090.40</ele>
	<time>2023-08-07T05:02:10.000Z</time>
</trkpt>
<trkpt lat="46.0992730" lon="10.5113150">
	<ele>2090.40</ele>
	<time>2023-08-07T05:02:11.000Z</time>
</trkpt>
<trkpt lat="46.0992760" lon="10.5113340">
	<ele>2090.60</ele>
	<time>2023-08-07T05:02:12.000Z</time>
</trkpt>
<trkpt lat="46.0992780" lon="10.5113480">
	<ele>2090.60</ele>
	<time>2023-08-07T05:02:13.000Z</time>
</trkpt>
<trkpt lat="46.0992830" lon="10.5113590">
	<ele>2090.60</ele>
	<time>2023-08-07T05:02:14.000Z</time>
</trkpt>
<trkpt lat="46.0992900" lon="10.5113700">
	<ele>2090.60</ele>
	<time>2023-08-07T05:02:15.000Z</time>
</trkpt>
<trkpt lat="46.0992960" lon="10.5113810">
	<ele>2090.80</ele>
	<time>2023-08-07T05:02:16.000Z</time>
</trkpt>
<trkpt lat="46.0993030" lon="10.5113970">
	<ele>2090.60</ele>
	<time>2023-08-07T05:02:17.000Z</time>
</trkpt>
<trkpt lat="46.0993070" lon="10.5114200">
	<ele>2090.60</ele>
	<time>2023-08-07T05:02:18.000Z</time>
</trkpt>
<trkpt lat="46.0993080" lon="10.5114410">
	<ele>2090.40</ele>
	<time>2023-08-07T05:02:19.000Z</time>
</trkpt>
<trkpt lat="46.0993100" lon="10.5114590">
	<ele>2090.40</ele>
	<time>2023-08-07T05:02:20.000Z</time>
</trkpt>
<trkpt lat="46.0993130" lon="10.5114710">
	<ele>2090.40</ele>
	<time>2023-08-07T05:02:21.000Z</time>
</trkpt>
<trkpt lat="46.0993150" lon="10.5114890">
	<ele>2090.40</ele>
	<time>2023-08-07T05:02:22.000Z</time>
</trkpt>
<trkpt lat="46.0993200" lon="10.5115030">
	<ele>2090.20</ele>
	<time>2023-08-07T05:02:23.000Z</time>
</trkpt>
<trkpt lat="46.0993230" lon="10.5115200">
	<ele>2090.20</ele>
	<time>2023-08-07T05:02:24.000Z</time>
</trkpt>
<trkpt lat="46.0993250" lon="10.5115320">
	<ele>2090.20</ele>
	<time>2023-08-07T05:02:25.000Z</time>
</trkpt>
<trkpt lat="46.0993310" lon="10.5115470">
	<ele>2090.20</ele>
	<time>2023-08-07T05:02:26.000Z</time>
</trkpt>
<trkpt lat="46.0993390" lon="10.5115590">
	<ele>2090.20</ele>
	<time>2023-08-07T05:02:27.000Z</time>
</trkpt>
<trkpt lat="46.0993490" lon="10.5115710">
	<ele>2090.20</ele>
	<time>2023-08-07T05:02:28.000Z</time>
</trkpt>
<trkpt lat="46.0993590" lon="10.5115820">
	<ele>2090.40</ele>
	<time>2023-08-07T05:02:29.000Z</time>
</trkpt>
<trkpt lat="46.0993720" lon="10.5115910">
	<ele>2090.40</ele>
	<time>2023-08-07T05:02:30.000Z</time>
</trkpt>
<trkpt lat="46.0993830" lon="10.5116030">
	<ele>2090.40</ele>
	<time>2023-08-07T05:02:31.000Z</time>
</trkpt>
<trkpt lat="46.0993940" lon="10.5116150">
	<ele>2090.40</ele>
	<time>2023-08-07T05:02:32.000Z</time>
</trkpt>
<trkpt lat="46.0994010" lon="10.5116280">
	<ele>2090.40</ele>
	<time>2023-08-07T05:02:33.000Z</time>
</trkpt>
<trkpt lat="46.0994080" lon="10.5116420">
	<ele>2090.40</ele>
	<time>2023-08-07T05:02:34.000Z</time>
</trkpt>
<trkpt lat="46.0994150" lon="10.5116580">
	<ele>2090.40</ele>
	<time>2023-08-07T05:02:35.000Z</time>
</trkpt>
<trkpt lat="46.0994200" lon="10.5116760">
	<ele>2090.40</ele>
	<time>2023-08-07T05:02:36.000Z</time>
</trkpt>
<trkpt lat="46.0994190" lon="10.5116940">
	<ele>2090.40</ele>
	<time>2023-08-07T05:02:37.000Z</time>
</trkpt>
<trkpt lat="46.0994200" lon="10.5117130">
	<ele>2090.40</ele>
	<time>2023-08-07T05:02:38.000Z</time>
</trkpt>
<trkpt lat="46.0994230" lon="10.5117280">
	<ele>2090.40</ele>
	<time>2023-08-07T05:02:39.000Z</time>
</trkpt>
<trkpt lat="46.0994290" lon="10.5117410">
	<ele>2090.40</ele>
	<time>2023-08-07T05:02:40.000Z</time>
</trkpt>
<trkpt lat="46.0994370" lon="10.5117550">
	<ele>2090.60</ele>
	<time>2023-08-07T05:02:41.000Z</time>
</trkpt>
<trkpt lat="46.0994440" lon="10.5117680">
	<ele>2090.60</ele>
	<time>2023-08-07T05:02:42.000Z</time>
</trkpt>
<trkpt lat="46.0994500" lon="10.5117850">
	<ele>2090.60</ele>
	<time>2023-08-07T05:02:43.000Z</time>
</trkpt>
<trkpt lat="46.0994600" lon="10.5117980">
	<ele>2090.60</ele>
	<time>2023-08-07T05:02:44.000Z</time>
</trkpt>
<trkpt lat="46.0994670" lon="10.5118100">
	<ele>2090.60</ele>
	<time>2023-08-07T05:02:45.000Z</time>
</trkpt>
<trkpt lat="46.0994760" lon="10.5118250">
	<ele>2090.60</ele>
	<time>2023-08-07T05:02:46.000Z</time>
</trkpt>
<trkpt lat="46.0994850" lon="10.5118380">
	<ele>2090.60</ele>
	<time>2023-08-07T05:02:47.000Z</time>
</trkpt>
<trkpt lat="46.0994940" lon="10.5118500">
	<ele>2090.60</ele>
	<time>2023-08-07T05:02:48.000Z</time>
</trkpt>
<trkpt lat="46.0995010" lon="10.5118610">
	<ele>2090.80</ele>
	<time>2023-08-07T05:02:49.000Z</time>
</trkpt>
<trkpt lat="46.0995080" lon="10.5118750">
	<ele>2090.80</ele>
	<time>2023-08-07T05:02:50.000Z</time>
</trkpt>
<trkpt lat="46.0995160" lon="10.5118860">
	<ele>2090.80</ele>
	<time>2023-08-07T05:02:51.000Z</time>
</trkpt>
<trkpt lat="46.0995220" lon="10.5119020">
	<ele>2090.80</ele>
	<time>2023-08-07T05:02:52.000Z</time>
</trkpt>
<trkpt lat="46.0995300" lon="10.5119180">
	<ele>2090.80</ele>
	<time>2023-08-07T05:02:53.000Z</time>
</trkpt>
<trkpt lat="46.0995400" lon="10.5119310">
	<ele>2090.80</ele>
	<time>2023-08-07T05:02:54.000Z</time>
</trkpt>
<trkpt lat="46.0995520" lon="10.5119450">
	<ele>2090.80</ele>
	<time>2023-08-07T05:02:55.000Z</time>
</trkpt>
<trkpt lat="46.0995670" lon="10.5119530">
	<ele>2090.80</ele>
	<time>2023-08-07T05:02:56.000Z</time>
</trkpt>
<trkpt lat="46.0995780" lon="10.5119630">
	<ele>2090.80</ele>
	<time>2023-08-07T05:02:57.000Z</time>
</trkpt>
<trkpt lat="46.0995940" lon="10.5119700">
	<ele>2090.80</ele>
	<time>2023-08-07T05:02:58.000Z</time>
</trkpt>
<trkpt lat="46.0996040" lon="10.5119770">
	<ele>2090.80</ele>
	<time>2023-08-07T05:02:59.000Z</time>
</trkpt>
<trkpt lat="46.0996140" lon="10.5119840">
	<ele>2090.80</ele>
	<time>2023-08-07T05:03:00.000Z</time>
</trkpt>
<trkpt lat="46.0996250" lon="10.5119870">
	<ele>2090.80</ele>
	<time>2023-08-07T05:03:01.000Z</time>
</trkpt>
<trkpt lat="46.0996350" lon="10.5119900">
	<ele>2090.80</ele>
	<time>2023-08-07T05:03:02.000Z</time>
</trkpt>
<trkpt lat="46.0996460" lon="10.5119930">
	<ele>2090.80</ele>
	<time>2023-08-07T05:03:03.000Z</time>
</trkpt>
<trkpt lat="46.0996590" lon="10.5119960">
	<ele>2090.80</ele>
	<time>2023-08-07T05:03:04.000Z</time>
</trkpt>
<trkpt lat="46.0996650" lon="10.5120100">
	<ele>2090.60</ele>
	<time>2023-08-07T05:03:05.000Z</time>
</trkpt>
<trkpt lat="46.0996660" lon="10.5120290">
	<ele>2090.60</ele>
	<time>2023-08-07T05:03:06.000Z</time>
</trkpt>
<trkpt lat="46.0996680" lon="10.5120460">
	<ele>2090.80</ele>
	<time>2023-08-07T05:03:07.000Z</time>
</trkpt>
<trkpt lat="46.0996730" lon="10.5120600">
	<ele>2090.80</ele>
	<time>2023-08-07T05:03:08.000Z</time>
</trkpt>
<trkpt lat="46.0996780" lon="10.5120700">
	<ele>2090.80</ele>
	<time>2023-08-07T05:03:09.000Z</time>
</trkpt>
<trkpt lat="46.0996860" lon="10.5120800">
	<ele>2090.80</ele>
	<time>2023-08-07T05:03:10.000Z</time>
</trkpt>
<trkpt lat="46.0996940" lon="10.5120890">
	<ele>2091.00</ele>
	<time>2023-08-07T05:03:11.000Z</time>
</trkpt>
<trkpt lat="46.0997000" lon="10.5120960">
	<ele>2091.00</ele>
	<time>2023-08-07T05:03:12.000Z</time>
</trkpt>
<trkpt lat="46.0997030" lon="10.5121090">
	<ele>2091.00</ele>
	<time>2023-08-07T05:03:13.000Z</time>
</trkpt>
<trkpt lat="46.0997070" lon="10.5121210">
	<ele>2091.00</ele>
	<time>2023-08-07T05:03:14.000Z</time>
</trkpt>
<trkpt lat="46.0997110" lon="10.5121330">
	<ele>2091.00</ele>
	<time>2023-08-07T05:03:15.000Z</time>
</trkpt>
<trkpt lat="46.0997140" lon="10.5121470">
	<ele>2091.00</ele>
	<time>2023-08-07T05:03:16.000Z</time>
</trkpt>
<trkpt lat="46.0997210" lon="10.5121590">
	<ele>2091.00</ele>
	<time>2023-08-07T05:03:17.000Z</time>
</trkpt>
<trkpt lat="46.0997230" lon="10.5121790">
	<ele>2090.80</ele>
	<time>2023-08-07T05:03:18.000Z</time>
</trkpt>
<trkpt lat="46.0997230" lon="10.5121930">
	<ele>2090.80</ele>
	<time>2023-08-07T05:03:19.000Z</time>
</trkpt>
<trkpt lat="46.0997260" lon="10.5122080">
	<ele>2090.80</ele>
	<time>2023-08-07T05:03:20.000Z</time>
</trkpt>
<trkpt lat="46.0997270" lon="10.5122260">
	<ele>2090.80</ele>
	<time>2023-08-07T05:03:21.000Z</time>
</trkpt>
<trkpt lat="46.0997280" lon="10.5122390">
	<ele>2090.80</ele>
	<time>2023-08-07T05:03:22.000Z</time>
</trkpt>
<trkpt lat="46.0997300" lon="10.5122540">
	<ele>2090.80</ele>
	<time>2023-08-07T05:03:23.000Z</time>
</trkpt>
<trkpt lat="46.0997320" lon="10.5122710">
	<ele>2090.80</ele>
	<time>2023-08-07T05:03:24.000Z</time>
</trkpt>
<trkpt lat="46.0997350" lon="10.5122840">
	<ele>2091.00</ele>
	<time>2023-08-07T05:03:25.000Z</time>
</trkpt>
<trkpt lat="46.0997400" lon="10.5122960">
	<ele>2091.00</ele>
	<time>2023-08-07T05:03:26.000Z</time>
</trkpt>
<trkpt lat="46.0997460" lon="10.5123080">
	<ele>2091.20</ele>
	<time>2023-08-07T05:03:27.000Z</time>
</trkpt>
<trkpt lat="46.0997540" lon="10.5123180">
	<ele>2091.20</ele>
	<time>2023-08-07T05:03:28.000Z</time>
</trkpt>
<trkpt lat="46.0997640" lon="10.5123290">
	<ele>2091.20</ele>
	<time>2023-08-07T05:03:29.000Z</time>
</trkpt>
<trkpt lat="46.0997740" lon="10.5123400">
	<ele>2091.40</ele>
	<time>2023-08-07T05:03:30.000Z</time>
</trkpt>
<trkpt lat="46.0997800" lon="10.5123540">
	<ele>2091.40</ele>
	<time>2023-08-07T05:03:31.000Z</time>
</trkpt>
<trkpt lat="46.0997790" lon="10.5123720">
	<ele>2091.60</ele>
	<time>2023-08-07T05:03:32.000Z</time>
</trkpt>
<trkpt lat="46.0997780" lon="10.5123900">
	<ele>2091.60</ele>
	<time>2023-08-07T05:03:33.000Z</time>
</trkpt>
<trkpt lat="46.0997820" lon="10.5124030">
	<ele>2091.60</ele>
	<time>2023-08-07T05:03:34.000Z</time>
</trkpt>
<trkpt lat="46.0997890" lon="10.5124180">
	<ele>2091.60</ele>
	<time>2023-08-07T05:03:35.000Z</time>
</trkpt>
<trkpt lat="46.0997950" lon="10.5124370">
	<ele>2091.60</ele>
	<time>2023-08-07T05:03:36.000Z</time>
</trkpt>
<trkpt lat="46.0997990" lon="10.5124570">
	<ele>2091.60</ele>
	<time>2023-08-07T05:03:37.000Z</time>
</trkpt>
<trkpt lat="46.0998000" lon="10.5124790">
	<ele>2091.60</ele>
	<time>2023-08-07T05:03:38.000Z</time>
</trkpt>
<trkpt lat="46.0998050" lon="10.5124960">
	<ele>2091.60</ele>
	<time>2023-08-07T05:03:39.000Z</time>
</trkpt>
<trkpt lat="46.0998090" lon="10.5125120">
	<ele>2091.60</ele>
	<time>2023-08-07T05:03:40.000Z</time>
</trkpt>
<trkpt lat="46.0998140" lon="10.5125290">
	<ele>2091.60</ele>
	<time>2023-08-07T05:03:41.000Z</time>
</trkpt>
<trkpt lat="46.0998190" lon="10.5125430">
	<ele>2091.60</ele>
	<time>2023-08-07T05:03:42.000Z</time>
</trkpt>
<trkpt lat="46.0998240" lon="10.5125600">
	<ele>2091.80</ele>
	<time>2023-08-07T05:03:43.000Z</time>
</trkpt>
<trkpt lat="46.0998270" lon="10.5125830">
	<ele>2091.80</ele>
	<time>2023-08-07T05:03:44.000Z</time>
</trkpt>
<trkpt lat="46.0998310" lon="10.5126040">
	<ele>2092.00</ele>
	<time>2023-08-07T05:03:45.000Z</time>
</trkpt>
<trkpt lat="46.0998320" lon="10.5126300">
	<ele>2092.00</ele>
	<time>2023-08-07T05:03:46.000Z</time>
</trkpt>
<trkpt lat="46.0998340" lon="10.5126510">
	<ele>2092.20</ele>
	<time>2023-08-07T05:03:47.000Z</time>
</trkpt>
<trkpt lat="46.0998370" lon="10.5126680">
	<ele>2092.20</ele>
	<time>2023-08-07T05:03:48.000Z</time>
</trkpt>
<trkpt lat="46.0998430" lon="10.5126820">
	<ele>2092.20</ele>
	<time>2023-08-07T05:03:49.000Z</time>
</trkpt>
<trkpt lat="46.0998470" lon="10.5126980">
	<ele>2092.20</ele>
	<time>2023-08-07T05:03:50.000Z</time>
</trkpt>
<trkpt lat="46.0998500" lon="10.5127130">
	<ele>2092.20</ele>
	<time>2023-08-07T05:03:51.000Z</time>
</trkpt>
<trkpt lat="46.0998550" lon="10.5127310">
	<ele>2092.20</ele>
	<time>2023-08-07T05:03:52.000Z</time>
</trkpt>
<trkpt lat="46.0998580" lon="10.5127520">
	<ele>2092.20</ele>
	<time>2023-08-07T05:03:53.000Z</time>
</trkpt>
<trkpt lat="46.0998640" lon="10.5127660">
	<ele>2092.20</ele>
	<time>2023-08-07T05:03:54.000Z</time>
</trkpt>
<trkpt lat="46.0998710" lon="10.5127760">
	<ele>2092.20</ele>
	<time>2023-08-07T05:03:55.000Z</time>
</trkpt>
<trkpt lat="46.0998780" lon="10.5127920">
	<ele>2092.20</ele>
	<time>2023-08-07T05:03:56.000Z</time>
</trkpt>
<trkpt lat="46.0998850" lon="10.5128050">
	<ele>2092.40</ele>
	<time>2023-08-07T05:03:57.000Z</time>
</trkpt>
<trkpt lat="46.0998940" lon="10.5128160">
	<ele>2092.40</ele>
	<time>2023-08-07T05:03:58.000Z</time>
</trkpt>
<trkpt lat="46.0999050" lon="10.5128240">
	<ele>2092.40</ele>
	<time>2023-08-07T05:03:59.000Z</time>
</trkpt>
<trkpt lat="46.0999140" lon="10.5128340">
	<ele>2092.40</ele>
	<time>2023-08-07T05:04:00.000Z</time>
</trkpt>
<trkpt lat="46.0999230" lon="10.5128470">
	<ele>2092.40</ele>
	<time>2023-08-07T05:04:01.000Z</time>
</trkpt>
<trkpt lat="46.0999310" lon="10.5128590">
	<ele>2092.40</ele>
	<time>2023-08-07T05:04:02.000Z</time>
</trkpt>
<trkpt lat="46.0999390" lon="10.5128700">
	<ele>2092.40</ele>
	<time>2023-08-07T05:04:03.000Z</time>
</trkpt>
<trkpt lat="46.0999500" lon="10.5128780">
	<ele>2092.40</ele>
	<time>2023-08-07T05:04:04.000Z</time>
</trkpt>
<trkpt lat="46.0999600" lon="10.5128890">
	<ele>2092.40</ele>
	<time>2023-08-07T05:04:05.000Z</time>
</trkpt>
<trkpt lat="46.0999710" lon="10.5129010">
	<ele>2092.40</ele>
	<time>2023-08-07T05:04:06.000Z</time>
</trkpt>
<trkpt lat="46.0999800" lon="10.5129170">
	<ele>2092.40</ele>
	<time>2023-08-07T05:04:07.000Z</time>
</trkpt>
<trkpt lat="46.0999930" lon="10.5129280">
	<ele>2092.40</ele>
	<time>2023-08-07T05:04:08.000Z</time>
</trkpt>
<trkpt lat="46.1000070" lon="10.5129360">
	<ele>2092.40</ele>
	<time>2023-08-07T05:04:09.000Z</time>
</trkpt>
<trkpt lat="46.1000180" lon="10.5129460">
	<ele>2092.60</ele>
	<time>2023-08-07T05:04:10.000Z</time>
</trkpt>
<trkpt lat="46.1000270" lon="10.5129590">
	<ele>2092.60</ele>
	<time>2023-08-07T05:04:11.000Z</time>
</trkpt>
<trkpt lat="46.1000370" lon="10.5129680">
	<ele>2092.60</ele>
	<time>2023-08-07T05:04:12.000Z</time>
</trkpt>
<trkpt lat="46.1000450" lon="10.5129770">
	<ele>2092.80</ele>
	<time>2023-08-07T05:04:13.000Z</time>
</trkpt>
<trkpt lat="46.1000540" lon="10.5129830">
	<ele>2092.80</ele>
	<time>2023-08-07T05:04:14.000Z</time>
</trkpt>
<trkpt lat="46.1000630" lon="10.5129930">
	<ele>2093.00</ele>
	<time>2023-08-07T05:04:15.000Z</time>
</trkpt>
<trkpt lat="46.1000740" lon="10.5130040">
	<ele>2093.00</ele>
	<time>2023-08-07T05:04:16.000Z</time>
</trkpt>
<trkpt lat="46.1000860" lon="10.5130170">
	<ele>2093.20</ele>
	<time>2023-08-07T05:04:17.000Z</time>
</trkpt>
<trkpt lat="46.1001000" lon="10.5130250">
	<ele>2093.20</ele>
	<time>2023-08-07T05:04:18.000Z</time>
</trkpt>
<trkpt lat="46.1001100" lon="10.5130330">
	<ele>2093.40</ele>
	<time>2023-08-07T05:04:19.000Z</time>
</trkpt>
<trkpt lat="46.1001220" lon="10.5130380">
	<ele>2093.40</ele>
	<time>2023-08-07T05:04:20.000Z</time>
</trkpt>
<trkpt lat="46.1001350" lon="10.5130440">
	<ele>2093.40</ele>
	<time>2023-08-07T05:04:21.000Z</time>
</trkpt>
<trkpt lat="46.1001490" lon="10.5130510">
	<ele>2093.40</ele>
	<time>2023-08-07T05:04:22.000Z</time>
</trkpt>
<trkpt lat="46.1001580" lon="10.5130590">
	<ele>2093.20</ele>
	<time>2023-08-07T05:04:23.000Z</time>
</trkpt>
<trkpt lat="46.1001680" lon="10.5130690">
	<ele>2093.20</ele>
	<time>2023-08-07T05:04:24.000Z</time>
</trkpt>
<trkpt lat="46.1001790" lon="10.5130740">
	<ele>2093.20</ele>
	<time>2023-08-07T05:04:25.000Z</time>
</trkpt>
<trkpt lat="46.1001890" lon="10.5130810">
	<ele>2093.20</ele>
	<time>2023-08-07T05:04:26.000Z</time>
</trkpt>
<trkpt lat="46.1002000" lon="10.5130900">
	<ele>2093.20</ele>
	<time>2023-08-07T05:04:27.000Z</time>
</trkpt>
<trkpt lat="46.1002090" lon="10.5131030">
	<ele>2093.20</ele>
	<time>2023-08-07T05:04:28.000Z</time>
</trkpt>
<trkpt lat="46.1002160" lon="10.5131150">
	<ele>2093.20</ele>
	<time>2023-08-07T05:04:29.000Z</time>
</trkpt>
<trkpt lat="46.1002260" lon="10.5131290">
	<ele>2093.40</ele>
	<time>2023-08-07T05:04:30.000Z</time>
</trkpt>
<trkpt lat="46.1002360" lon="10.5131450">
	<ele>2093.40</ele>
	<time>2023-08-07T05:04:31.000Z</time>
</trkpt>
<trkpt lat="46.1002470" lon="10.5131530">
	<ele>2093.40</ele>
	<time>2023-08-07T05:04:32.000Z</time>
</trkpt>
<trkpt lat="46.1002570" lon="10.5131620">
	<ele>2093.60</ele>
	<time>2023-08-07T05:04:33.000Z</time>
</trkpt>
<trkpt lat="46.1002650" lon="10.5131740">
	<ele>2093.60</ele>
	<time>2023-08-07T05:04:34.000Z</time>
</trkpt>
<trkpt lat="46.1002730" lon="10.5131820">
	<ele>2093.60</ele>
	<time>2023-08-07T05:04:35.000Z</time>
</trkpt>
<trkpt lat="46.1002820" lon="10.5131950">
	<ele>2093.40</ele>
	<time>2023-08-07T05:04:36.000Z</time>
</trkpt>
<trkpt lat="46.1002910" lon="10.5132110">
	<ele>2093.40</ele>
	<time>2023-08-07T05:04:37.000Z</time>
</trkpt>
<trkpt lat="46.1002990" lon="10.5132290">
	<ele>2093.40</ele>
	<time>2023-08-07T05:04:38.000Z</time>
</trkpt>
<trkpt lat="46.1003060" lon="10.5132460">
	<ele>2093.60</ele>
	<time>2023-08-07T05:04:39.000Z</time>
</trkpt>
<trkpt lat="46.1003120" lon="10.5132600">
	<ele>2093.60</ele>
	<time>2023-08-07T05:04:40.000Z</time>
</trkpt>
<trkpt lat="46.1003200" lon="10.5132730">
	<ele>2093.60</ele>
	<time>2023-08-07T05:04:41.000Z</time>
</trkpt>
<trkpt lat="46.1003280" lon="10.5132840">
	<ele>2093.80</ele>
	<time>2023-08-07T05:04:42.000Z</time>
</trkpt>
<trkpt lat="46.1003350" lon="10.5132970">
	<ele>2093.60</ele>
	<time>2023-08-07T05:04:43.000Z</time>
</trkpt>
<trkpt lat="46.1003390" lon="10.5133140">
	<ele>2093.60</ele>
	<time>2023-08-07T05:04:44.000Z</time>
</trkpt>
<trkpt lat="46.1003460" lon="10.5133280">
	<ele>2093.40</ele>
	<time>2023-08-07T05:04:45.000Z</time>
</trkpt>
<trkpt lat="46.1003510" lon="10.5133430">
	<ele>2093.40</ele>
	<time>2023-08-07T05:04:46.000Z</time>
</trkpt>
<trkpt lat="46.1003560" lon="10.5133610">
	<ele>2093.40</ele>
	<time>2023-08-07T05:04:47.000Z</time>
</trkpt>
<trkpt lat="46.1003590" lon="10.5133820">
	<ele>2093.20</ele>
	<time>2023-08-07T05:04:48.000Z</time>
</trkpt>
<trkpt lat="46.1003630" lon="10.5134000">
	<ele>2093.20</ele>
	<time>2023-08-07T05:04:49.000Z</time>
</trkpt>
<trkpt lat="46.1003650" lon="10.5134190">
	<ele>2093.20</ele>
	<time>2023-08-07T05:04:50.000Z</time>
</trkpt>
<trkpt lat="46.1003690" lon="10.5134410">
	<ele>2093.40</ele>
	<time>2023-08-07T05:04:51.000Z</time>
</trkpt>
<trkpt lat="46.1003730" lon="10.5134620">
	<ele>2093.40</ele>
	<time>2023-08-07T05:04:52.000Z</time>
</trkpt>
<trkpt lat="46.1003760" lon="10.5134840">
	<ele>2093.40</ele>
	<time>2023-08-07T05:04:53.000Z</time>
</trkpt>
<trkpt lat="46.1003800" lon="10.5135030">
	<ele>2093.40</ele>
	<time>2023-08-07T05:04:54.000Z</time>
</trkpt>
<trkpt lat="46.1003780" lon="10.5135240">
	<ele>2093.40</ele>
	<time>2023-08-07T05:04:55.000Z</time>
</trkpt>
<trkpt lat="46.1003750" lon="10.5135410">
	<ele>2093.40</ele>
	<time>2023-08-07T05:04:56.000Z</time>
</trkpt>
<trkpt lat="46.1003730" lon="10.5135590">
	<ele>2093.20</ele>
	<time>2023-08-07T05:04:57.000Z</time>
</trkpt>
<trkpt lat="46.1003690" lon="10.5135790">
	<ele>2093.20</ele>
	<time>2023-08-07T05:04:58.000Z</time>
</trkpt>
<trkpt lat="46.1003610" lon="10.5136040">
	<ele>2093.00</ele>
	<time>2023-08-07T05:04:59.000Z</time>
</trkpt>
<trkpt lat="46.1003620" lon="10.5136160">
	<ele>2093.00</ele>
	<time>2023-08-07T05:05:00.000Z</time>
</trkpt>
<trkpt lat="46.1003700" lon="10.5136280">
	<ele>2093.20</ele>
	<time>2023-08-07T05:05:01.000Z</time>
</trkpt>
<trkpt lat="46.1003800" lon="10.5136410">
	<ele>2093.40</ele>
	<time>2023-08-07T05:05:02.000Z</time>
</trkpt>
<trkpt lat="46.1003800" lon="10.5136610">
	<ele>2093.80</ele>
	<time>2023-08-07T05:05:03.000Z</time>
</trkpt>
<trkpt lat="46.1003790" lon="10.5136740">
	<ele>2094.00</ele>
	<time>2023-08-07T05:05:04.000Z</time>
</trkpt>
<trkpt lat="46.1003800" lon="10.5136910">
	<ele>2094.00</ele>
	<time>2023-08-07T05:05:05.000Z</time>
</trkpt>
<trkpt lat="46.1003790" lon="10.5137120">
	<ele>2094.20</ele>
	<time>2023-08-07T05:05:06.000Z</time>
</trkpt>
<trkpt lat="46.1003790" lon="10.5137320">
	<ele>2094.20</ele>
	<time>2023-08-07T05:05:07.000Z</time>
</trkpt>
<trkpt lat="46.1003830" lon="10.5137430">
	<ele>2094.00</ele>
	<time>2023-08-07T05:05:08.000Z</time>
</trkpt>
<trkpt lat="46.1003840" lon="10.5137530">
	<ele>2094.00</ele>
	<time>2023-08-07T05:05:09.000Z</time>
</trkpt>
<trkpt lat="46.1003870" lon="10.5137680">
	<ele>2094.00</ele>
	<time>2023-08-07T05:05:10.000Z</time>
</trkpt>
<trkpt lat="46.1003900" lon="10.5137880">
	<ele>2094.00</ele>
	<time>2023-08-07T05:05:11.000Z</time>
</trkpt>
<trkpt lat="46.1003960" lon="10.5138040">
	<ele>2094.00</ele>
	<time>2023-08-07T05:05:12.000Z</time>
</trkpt>
<trkpt lat="46.1004020" lon="10.5138270">
	<ele>2094.00</ele>
	<time>2023-08-07T05:05:13.000Z</time>
</trkpt>
<trkpt lat="46.1004060" lon="10.5138490">
	<ele>2094.20</ele>
	<time>2023-08-07T05:05:14.000Z</time>
</trkpt>
<trkpt lat="46.1004120" lon="10.5138680">
	<ele>2094.20</ele>
	<time>2023-08-07T05:05:15.000Z</time>
</trkpt>
<trkpt lat="46.1004170" lon="10.5138850">
	<ele>2094.20</ele>
	<time>2023-08-07T05:05:16.000Z</time>
</trkpt>
<trkpt lat="46.1004210" lon="10.5139030">
	<ele>2094.00</ele>
	<time>2023-08-07T05:05:17.000Z</time>
</trkpt>
<trkpt lat="46.1004250" lon="10.5139180">
	<ele>2094.00</ele>
	<time>2023-08-07T05:05:18.000Z</time>
</trkpt>
<trkpt lat="46.1004310" lon="10.5139310">
	<ele>2094.00</ele>
	<time>2023-08-07T05:05:19.000Z</time>
</trkpt>
<trkpt lat="46.1004370" lon="10.5139440">
	<ele>2094.00</ele>
	<time>2023-08-07T05:05:20.000Z</time>
</trkpt>
<trkpt lat="46.1004420" lon="10.5139540">
	<ele>2094.00</ele>
	<time>2023-08-07T05:05:21.000Z</time>
</trkpt>
<trkpt lat="46.1004490" lon="10.5139690">
	<ele>2094.40</ele>
	<time>2023-08-07T05:05:22.000Z</time>
</trkpt>
<trkpt lat="46.1004570" lon="10.5139810">
	<ele>2094.40</ele>
	<time>2023-08-07T05:05:23.000Z</time>
</trkpt>
<trkpt lat="46.1004620" lon="10.5139980">
	<ele>2094.60</ele>
	<time>2023-08-07T05:05:24.000Z</time>
</trkpt>
<trkpt lat="46.1004650" lon="10.5140190">
	<ele>2094.60</ele>
	<time>2023-08-07T05:05:25.000Z</time>
</trkpt>
<trkpt lat="46.1004690" lon="10.5140380">
	<ele>2094.80</ele>
	<time>2023-08-07T05:05:26.000Z</time>
</trkpt>
<trkpt lat="46.1004730" lon="10.5140560">
	<ele>2094.80</ele>
	<time>2023-08-07T05:05:27.000Z</time>
</trkpt>
<trkpt lat="46.1004790" lon="10.5140700">
	<ele>2094.80</ele>
	<time>2023-08-07T05:05:28.000Z</time>
</trkpt>
<trkpt lat="46.1004860" lon="10.5140860">
	<ele>2094.80</ele>
	<time>2023-08-07T05:05:29.000Z</time>
</trkpt>
<trkpt lat="46.1004950" lon="10.5141030">
	<ele>2095.00</ele>
	<time>2023-08-07T05:05:30.000Z</time>
</trkpt>
<trkpt lat="46.1005010" lon="10.5141210">
	<ele>2095.00</ele>
	<time>2023-08-07T05:05:31.000Z</time>
</trkpt>
<trkpt lat="46.1005090" lon="10.5141370">
	<ele>2095.20</ele>
	<time>2023-08-07T05:05:32.000Z</time>
</trkpt>
<trkpt lat="46.1005160" lon="10.5141510">
	<ele>2095.20</ele>
	<time>2023-08-07T05:05:33.000Z</time>
</trkpt>
<trkpt lat="46.1005220" lon="10.5141670">
	<ele>2095.20</ele>
	<time>2023-08-07T05:05:34.000Z</time>
</trkpt>
<trkpt lat="46.1005290" lon="10.5141810">
	<ele>2095.20</ele>
	<time>2023-08-07T05:05:35.000Z</time>
</trkpt>
<trkpt lat="46.1005340" lon="10.5141970">
	<ele>2095.20</ele>
	<time>2023-08-07T05:05:36.000Z</time>
</trkpt>
<trkpt lat="46.1005410" lon="10.5142100">
	<ele>2095.20</ele>
	<time>2023-08-07T05:05:37.000Z</time>
</trkpt>
<trkpt lat="46.1005460" lon="10.5142290">
	<ele>2095.00</ele>
	<time>2023-08-07T05:05:38.000Z</time>
</trkpt>
<trkpt lat="46.1005540" lon="10.5142440">
	<ele>2095.00</ele>
	<time>2023-08-07T05:05:39.000Z</time>
</trkpt>
<trkpt lat="46.1005610" lon="10.5142600">
	<ele>2094.80</ele>
	<time>2023-08-07T05:05:40.000Z</time>
</trkpt>
<trkpt lat="46.1005660" lon="10.5142720">
	<ele>2094.80</ele>
	<time>2023-08-07T05:05:41.000Z</time>
</trkpt>
<trkpt lat="46.1005730" lon="10.5142880">
	<ele>2094.60</ele>
	<time>2023-08-07T05:05:42.000Z</time>
</trkpt>
<trkpt lat="46.1005790" lon="10.5143030">
	<ele>2094.60</ele>
	<time>2023-08-07T05:05:43.000Z</time>
</trkpt>
<trkpt lat="46.1005850" lon="10.5143170">
	<ele>2094.60</ele>
	<time>2023-08-07T05:05:44.000Z</time>
</trkpt>
<trkpt lat="46.1005920" lon="10.5143300">
	<ele>2094.60</ele>
	<time>2023-08-07T05:05:45.000Z</time>
</trkpt>
<trkpt lat="46.1005970" lon="10.5143460">
	<ele>2094.60</ele>
	<time>2023-08-07T05:05:46.000Z</time>
</trkpt>
<trkpt lat="46.1006030" lon="10.5143640">
	<ele>2094.80</ele>
	<time>2023-08-07T05:05:47.000Z</time>
</trkpt>
<trkpt lat="46.1006100" lon="10.5143800">
	<ele>2095.00</ele>
	<time>2023-08-07T05:05:48.000Z</time>
</trkpt>
<trkpt lat="46.1006170" lon="10.5143910">
	<ele>2095.00</ele>
	<time>2023-08-07T05:05:49.000Z</time>
</trkpt>
<trkpt lat="46.1006270" lon="10.5144000">
	<ele>2095.20</ele>
	<time>2023-08-07T05:05:50.000Z</time>
</trkpt>
<trkpt lat="46.1006410" lon="10.5144070">
	<ele>2095.40</ele>
	<time>2023-08-07T05:05:51.000Z</time>
</trkpt>
<trkpt lat="46.1006510" lon="10.5144150">
	<ele>2095.40</ele>
	<time>2023-08-07T05:05:52.000Z</time>
</trkpt>
<trkpt lat="46.1006590" lon="10.5144240">
	<ele>2095.60</ele>
	<time>2023-08-07T05:05:53.000Z</time>
</trkpt>
<trkpt lat="46.1006680" lon="10.5144360">
	<ele>2095.60</ele>
	<time>2023-08-07T05:05:54.000Z</time>
</trkpt>
<trkpt lat="46.1006760" lon="10.5144520">
	<ele>2095.60</ele>
	<time>2023-08-07T05:05:55.000Z</time>
</trkpt>
<trkpt lat="46.1006850" lon="10.5144680">
	<ele>2095.60</ele>
	<time>2023-08-07T05:05:56.000Z</time>
</trkpt>
<trkpt lat="46.1006910" lon="10.5144860">
	<ele>2095.60</ele>
	<time>2023-08-07T05:05:57.000Z</time>
</trkpt>
<trkpt lat="46.1006980" lon="10.5145020">
	<ele>2095.20</ele>
	<time>2023-08-07T05:05:58.000Z</time>
</trkpt>
<trkpt lat="46.1007020" lon="10.5145190">
	<ele>2095.00</ele>
	<time>2023-08-07T05:05:59.000Z</time>
</trkpt>
<trkpt lat="46.1007060" lon="10.5145360">
	<ele>2095.00</ele>
	<time>2023-08-07T05:06:00.000Z</time>
</trkpt>
<trkpt lat="46.1007100" lon="10.5145530">
	<ele>2095.00</ele>
	<time>2023-08-07T05:06:01.000Z</time>
</trkpt>
<trkpt lat="46.1007130" lon="10.5145690">
	<ele>2095.00</ele>
	<time>2023-08-07T05:06:02.000Z</time>
</trkpt>
<trkpt lat="46.1007140" lon="10.5145880">
	<ele>2095.00</ele>
	<time>2023-08-07T05:06:03.000Z</time>
</trkpt>
<trkpt lat="46.1007140" lon="10.5146060">
	<ele>2095.00</ele>
	<time>2023-08-07T05:06:04.000Z</time>
</trkpt>
<trkpt lat="46.1007140" lon="10.5146230">
	<ele>2095.20</ele>
	<time>2023-08-07T05:06:05.000Z</time>
</trkpt>
<trkpt lat="46.1007160" lon="10.5146370">
	<ele>2095.20</ele>
	<time>2023-08-07T05:06:06.000Z</time>
</trkpt>
<trkpt lat="46.1007190" lon="10.5146500">
	<ele>2095.20</ele>
	<time>2023-08-07T05:06:07.000Z</time>
</trkpt>
<trkpt lat="46.1007210" lon="10.5146680">
	<ele>2095.20</ele>
	<time>2023-08-07T05:06:08.000Z</time>
</trkpt>
<trkpt lat="46.1007240" lon="10.5146890">
	<ele>2095.20</ele>
	<time>2023-08-07T05:06:09.000Z</time>
</trkpt>
<trkpt lat="46.1007270" lon="10.5147040">
	<ele>2095.20</ele>
	<time>2023-08-07T05:06:10.000Z</time>
</trkpt>
<trkpt lat="46.1007340" lon="10.5147180">
	<ele>2095.20</ele>
	<time>2023-08-07T05:06:11.000Z</time>
</trkpt>
<trkpt lat="46.1007430" lon="10.5147270">
	<ele>2095.20</ele>
	<time>2023-08-07T05:06:12.000Z</time>
</trkpt>
<trkpt lat="46.1007540" lon="10.5147310">
	<ele>2095.40</ele>
	<time>2023-08-07T05:06:13.000Z</time>
</trkpt>
<trkpt lat="46.1007670" lon="10.5147340">
	<ele>2095.40</ele>
	<time>2023-08-07T05:06:14.000Z</time>
</trkpt>
<trkpt lat="46.1007830" lon="10.5147350">
	<ele>2095.40</ele>
	<time>2023-08-07T05:06:15.000Z</time>
</trkpt>
<trkpt lat="46.1007960" lon="10.5147350">
	<ele>2095.40</ele>
	<time>2023-08-07T05:06:16.000Z</time>
</trkpt>
<trkpt lat="46.1008120" lon="10.5147360">
	<ele>2095.40</ele>
	<time>2023-08-07T05:06:17.000Z</time>
</trkpt>
<trkpt lat="46.1008220" lon="10.5147440">
	<ele>2095.40</ele>
	<time>2023-08-07T05:06:18.000Z</time>
</trkpt>
<trkpt lat="46.1008290" lon="10.5147520">
	<ele>2095.40</ele>
	<time>2023-08-07T05:06:19.000Z</time>
</trkpt>
<trkpt lat="46.1008350" lon="10.5147650">
	<ele>2095.40</ele>
	<time>2023-08-07T05:06:20.000Z</time>
</trkpt>
<trkpt lat="46.1008450" lon="10.5147750">
	<ele>2095.40</ele>
	<time>2023-08-07T05:06:21.000Z</time>
</trkpt>
<trkpt lat="46.1008550" lon="10.5147850">
	<ele>2095.40</ele>
	<time>2023-08-07T05:06:22.000Z</time>
</trkpt>
<trkpt lat="46.1008580" lon="10.5148010">
	<ele>2095.40</ele>
	<time>2023-08-07T05:06:23.000Z</time>
</trkpt>
<trkpt lat="46.1008660" lon="10.5148130">
	<ele>2095.40</ele>
	<time>2023-08-07T05:06:24.000Z</time>
</trkpt>
<trkpt lat="46.1008730" lon="10.5148230">
	<ele>2095.40</ele>
	<time>2023-08-07T05:06:25.000Z</time>
</trkpt>
<trkpt lat="46.1008820" lon="10.5148330">
	<ele>2095.40</ele>
	<time>2023-08-07T05:06:26.000Z</time>
</trkpt>
<trkpt lat="46.1008880" lon="10.5148440">
	<ele>2095.40</ele>
	<time>2023-08-07T05:06:27.000Z</time>
</trkpt>
<trkpt lat="46.1008970" lon="10.5148550">
	<ele>2095.40</ele>
	<time>2023-08-07T05:06:28.000Z</time>
</trkpt>
<trkpt lat="46.1009070" lon="10.5148680">
	<ele>2095.60</ele>
	<time>2023-08-07T05:06:29.000Z</time>
</trkpt>
<trkpt lat="46.1009160" lon="10.5148800">
	<ele>2095.60</ele>
	<time>2023-08-07T05:06:30.000Z</time>
</trkpt>
<trkpt lat="46.1009260" lon="10.5148890">
	<ele>2095.60</ele>
	<time>2023-08-07T05:06:31.000Z</time>
</trkpt>
<trkpt lat="46.1009350" lon="10.5148960">
	<ele>2095.80</ele>
	<time>2023-08-07T05:06:32.000Z</time>
</trkpt>
<trkpt lat="46.1009470" lon="10.5149020">
	<ele>2095.80</ele>
	<time>2023-08-07T05:06:33.000Z</time>
</trkpt>
<trkpt lat="46.1009550" lon="10.5149130">
	<ele>2096.00</ele>
	<time>2023-08-07T05:06:34.000Z</time>
</trkpt>
<trkpt lat="46.1009620" lon="10.5149250">
	<ele>2096.00</ele>
	<time>2023-08-07T05:06:35.000Z</time>
</trkpt>
<trkpt lat="46.1009700" lon="10.5149270">
	<ele>2096.00</ele>
	<time>2023-08-07T05:06:36.000Z</time>
</trkpt>
<trkpt lat="46.1009780" lon="10.5149300">
	<ele>2096.00</ele>
	<time>2023-08-07T05:06:37.000Z</time>
</trkpt>
<trkpt lat="46.1009850" lon="10.5149390">
	<ele>2096.00</ele>
	<time>2023-08-07T05:06:38.000Z</time>
</trkpt>
<trkpt lat="46.1009960" lon="10.5149450">
	<ele>2095.80</ele>
	<time>2023-08-07T05:06:39.000Z</time>
</trkpt>
<trkpt lat="46.1010040" lon="10.5149550">
	<ele>2095.80</ele>
	<time>2023-08-07T05:06:40.000Z</time>
</trkpt>
<trkpt lat="46.1010070" lon="10.5149690">
	<ele>2095.80</ele>
	<time>2023-08-07T05:06:41.000Z</time>
</trkpt>
<trkpt lat="46.1010120" lon="10.5149840">
	<ele>2095.80</ele>
	<time>2023-08-07T05:06:42.000Z</time>
</trkpt>
<trkpt lat="46.1010190" lon="10.5149990">
	<ele>2095.60</ele>
	<time>2023-08-07T05:06:43.000Z</time>
</trkpt>
<trkpt lat="46.1010280" lon="10.5150120">
	<ele>2095.60</ele>
	<time>2023-08-07T05:06:44.000Z</time>
</trkpt>
<trkpt lat="46.1010380" lon="10.5150300">
	<ele>2095.60</ele>
	<time>2023-08-07T05:06:45.000Z</time>
</trkpt>
<trkpt lat="46.1010480" lon="10.5150460">
	<ele>2095.60</ele>
	<time>2023-08-07T05:06:46.000Z</time>
</trkpt>
<trkpt lat="46.1010560" lon="10.5150590">
	<ele>2095.60</ele>
	<time>2023-08-07T05:06:47.000Z</time>
</trkpt>
<trkpt lat="46.1010660" lon="10.5150710">
	<ele>2095.60</ele>
	<time>2023-08-07T05:06:48.000Z</time>
</trkpt>
<trkpt lat="46.1010770" lon="10.5150800">
	<ele>2095.60</ele>
	<time>2023-08-07T05:06:49.000Z</time>
</trkpt>
<trkpt lat="46.1010810" lon="10.5151010">
	<ele>2095.80</ele>
	<time>2023-08-07T05:06:50.000Z</time>
</trkpt>
<trkpt lat="46.1010830" lon="10.5151210">
	<ele>2095.80</ele>
	<time>2023-08-07T05:06:51.000Z</time>
</trkpt>
<trkpt lat="46.1010860" lon="10.5151410">
	<ele>2095.80</ele>
	<time>2023-08-07T05:06:52.000Z</time>
</trkpt>
<trkpt lat="46.1011050" lon="10.5151420">
	<ele>2096.00</ele>
	<time>2023-08-07T05:06:53.000Z</time>
</trkpt>
<trkpt lat="46.1011170" lon="10.5151490">
	<ele>2096.00</ele>
	<time>2023-08-07T05:06:54.000Z</time>
</trkpt>
<trkpt lat="46.1011250" lon="10.5151560">
	<ele>2096.00</ele>
	<time>2023-08-07T05:06:55.000Z</time>
</trkpt>
<trkpt lat="46.1011340" lon="10.5151650">
	<ele>2096.20</ele>
	<time>2023-08-07T05:06:56.000Z</time>
</trkpt>
<trkpt lat="46.1011410" lon="10.5151820">
	<ele>2096.20</ele>
	<time>2023-08-07T05:06:57.000Z</time>
</trkpt>
<trkpt lat="46.1011460" lon="10.5151970">
	<ele>2096.20</ele>
	<time>2023-08-07T05:06:58.000Z</time>
</trkpt>
<trkpt lat="46.1011510" lon="10.5152140">
	<ele>2096.20</ele>
	<time>2023-08-07T05:06:59.000Z</time>
</trkpt>
<trkpt lat="46.1011560" lon="10.5152310">
	<ele>2096.20</ele>
	<time>2023-08-07T05:07:00.000Z</time>
</trkpt>
<trkpt lat="46.1011650" lon="10.5152450">
	<ele>2096.20</ele>
	<time>2023-08-07T05:07:01.000Z</time>
</trkpt>
<trkpt lat="46.1011670" lon="10.5152660">
	<ele>2096.20</ele>
	<time>2023-08-07T05:07:02.000Z</time>
</trkpt>
<trkpt lat="46.1011750" lon="10.5152820">
	<ele>2096.20</ele>
	<time>2023-08-07T05:07:03.000Z</time>
</trkpt>
<trkpt lat="46.1011820" lon="10.5152990">
	<ele>2096.40</ele>
	<time>2023-08-07T05:07:04.000Z</time>
</trkpt>
<trkpt lat="46.1011940" lon="10.5153090">
	<ele>2096.40</ele>
	<time>2023-08-07T05:07:05.000Z</time>
</trkpt>
<trkpt lat="46.1012070" lon="10.5153140">
	<ele>2096.40</ele>
	<time>2023-08-07T05:07:06.000Z</time>
</trkpt>
<trkpt lat="46.1012190" lon="10.5153190">
	<ele>2096.40</ele>
	<time>2023-08-07T05:07:07.000Z</time>
</trkpt>
<trkpt lat="46.1012300" lon="10.5153290">
	<ele>2096.40</ele>
	<time>2023-08-07T05:07:08.000Z</time>
</trkpt>
<trkpt lat="46.1012420" lon="10.5153330">
	<ele>2096.40</ele>
	<time>2023-08-07T05:07:09.000Z</time>
</trkpt>
<trkpt lat="46.1012570" lon="10.5153360">
	<ele>2096.40</ele>
	<time>2023-08-07T05:07:10.000Z</time>
</trkpt>
<trkpt lat="46.1012710" lon="10.5153430">
	<ele>2096.40</ele>
	<time>2023-08-07T05:07:11.000Z</time>
</trkpt>
<trkpt lat="46.1012800" lon="10.5153530">
	<ele>2096.40</ele>
	<time>2023-08-07T05:07:12.000Z</time>
</trkpt>
<trkpt lat="46.1012920" lon="10.5153620">
	<ele>2096.40</ele>
	<time>2023-08-07T05:07:13.000Z</time>
</trkpt>
<trkpt lat="46.1013020" lon="10.5153700">
	<ele>2096.40</ele>
	<time>2023-08-07T05:07:14.000Z</time>
</trkpt>
<trkpt lat="46.1013180" lon="10.5153730">
	<ele>2096.40</ele>
	<time>2023-08-07T05:07:15.000Z</time>
</trkpt>
<trkpt lat="46.1013330" lon="10.5153820">
	<ele>2096.40</ele>
	<time>2023-08-07T05:07:16.000Z</time>
</trkpt>
<trkpt lat="46.1013480" lon="10.5153900">
	<ele>2096.40</ele>
	<time>2023-08-07T05:07:17.000Z</time>
</trkpt>
<trkpt lat="46.1013600" lon="10.5153990">
	<ele>2096.40</ele>
	<time>2023-08-07T05:07:18.000Z</time>
</trkpt>
<trkpt lat="46.1013710" lon="10.5154060">
	<ele>2096.60</ele>
	<time>2023-08-07T05:07:19.000Z</time>
</trkpt>
<trkpt lat="46.1013820" lon="10.5154150">
	<ele>2096.60</ele>
	<time>2023-08-07T05:07:20.000Z</time>
</trkpt>
<trkpt lat="46.1013890" lon="10.5154260">
	<ele>2096.60</ele>
	<time>2023-08-07T05:07:21.000Z</time>
</trkpt>
<trkpt lat="46.1013960" lon="10.5154420">
	<ele>2096.40</ele>
	<time>2023-08-07T05:07:22.000Z</time>
</trkpt>
<trkpt lat="46.1014080" lon="10.5154460">
	<ele>2096.40</ele>
	<time>2023-08-07T05:07:23.000Z</time>
</trkpt>
<trkpt lat="46.1014250" lon="10.5154510">
	<ele>2096.20</ele>
	<time>2023-08-07T05:07:24.000Z</time>
</trkpt>
<trkpt lat="46.1014390" lon="10.5154560">
	<ele>2096.20</ele>
	<time>2023-08-07T05:07:25.000Z</time>
</trkpt>
<trkpt lat="46.1014520" lon="10.5154620">
	<ele>2096.20</ele>
	<time>2023-08-07T05:07:26.000Z</time>
</trkpt>
<trkpt lat="46.1014610" lon="10.5154730">
	<ele>2096.00</ele>
	<time>2023-08-07T05:07:27.000Z</time>
</trkpt>
<trkpt lat="46.1014690" lon="10.5154870">
	<ele>2096.00</ele>
	<time>2023-08-07T05:07:28.000Z</time>
</trkpt>
<trkpt lat="46.1014800" lon="10.5155010">
	<ele>2096.00</ele>
	<time>2023-08-07T05:07:29.000Z</time>
</trkpt>
<trkpt lat="46.1014910" lon="10.5155100">
	<ele>2096.00</ele>
	<time>2023-08-07T05:07:30.000Z</time>
</trkpt>
<trkpt lat="46.1015010" lon="10.5155280">
	<ele>2096.00</ele>
	<time>2023-08-07T05:07:31.000Z</time>
</trkpt>
<trkpt lat="46.1015050" lon="10.5155470">
	<ele>2096.00</ele>
	<time>2023-08-07T05:07:32.000Z</time>
</trkpt>
<trkpt lat="46.1015100" lon="10.5155660">
	<ele>2096.00</ele>
	<time>2023-08-07T05:07:33.000Z</time>
</trkpt>
<trkpt lat="46.1015130" lon="10.5155900">
	<ele>2096.00</ele>
	<time>2023-08-07T05:07:34.000Z</time>
</trkpt>
<trkpt lat="46.1015150" lon="10.5156160">
	<ele>2096.00</ele>
	<time>2023-08-07T05:07:35.000Z</time>
</trkpt>
<trkpt lat="46.1015180" lon="10.5156360">
	<ele>2096.00</ele>
	<time>2023-08-07T05:07:36.000Z</time>
</trkpt>
<trkpt lat="46.1015250" lon="10.5156530">
	<ele>2096.20</ele>
	<time>2023-08-07T05:07:37.000Z</time>
</trkpt>
<trkpt lat="46.1015310" lon="10.5156680">
	<ele>2096.20</ele>
	<time>2023-08-07T05:07:38.000Z</time>
</trkpt>
<trkpt lat="46.1015360" lon="10.5156840">
	<ele>2096.20</ele>
	<time>2023-08-07T05:07:39.000Z</time>
</trkpt>
<trkpt lat="46.1015450" lon="10.5156960">
	<ele>2096.20</ele>
	<time>2023-08-07T05:07:40.000Z</time>
</trkpt>
<trkpt lat="46.1015530" lon="10.5157080">
	<ele>2096.00</ele>
	<time>2023-08-07T05:07:41.000Z</time>
</trkpt>
<trkpt lat="46.1015570" lon="10.5157200">
	<ele>2096.00</ele>
	<time>2023-08-07T05:07:42.000Z</time>
</trkpt>
<trkpt lat="46.1015670" lon="10.5157290">
	<ele>2096.00</ele>
	<time>2023-08-07T05:07:43.000Z</time>
</trkpt>
<trkpt lat="46.1015790" lon="10.5157360">
	<ele>2096.00</ele>
	<time>2023-08-07T05:07:44.000Z</time>
</trkpt>
<trkpt lat="46.1015850" lon="10.5157460">
	<ele>2096.00</ele>
	<time>2023-08-07T05:07:45.000Z</time>
</trkpt>
<trkpt lat="46.1015910" lon="10.5157610">
	<ele>2096.20</ele>
	<time>2023-08-07T05:07:46.000Z</time>
</trkpt>
<trkpt lat="46.1015910" lon="10.5157810">
	<ele>2096.20</ele>
	<time>2023-08-07T05:07:47.000Z</time>
</trkpt>
<trkpt lat="46.1015950" lon="10.5157970">
	<ele>2096.40</ele>
	<time>2023-08-07T05:07:48.000Z</time>
</trkpt>
<trkpt lat="46.1015980" lon="10.5158130">
	<ele>2096.40</ele>
	<time>2023-08-07T05:07:49.000Z</time>
</trkpt>
<trkpt lat="46.1016000" lon="10.5158230">
	<ele>2096.40</ele>
	<time>2023-08-07T05:07:50.000Z</time>
</trkpt>
<trkpt lat="46.1016000" lon="10.5158330">
	<ele>2096.20</ele>
	<time>2023-08-07T05:07:51.000Z</time>
</trkpt>
<trkpt lat="46.1015950" lon="10.5158470">
	<ele>2096.20</ele>
	<time>2023-08-07T05:07:52.000Z</time>
</trkpt>
<trkpt lat="46.1015960" lon="10.5158610">
	<ele>2096.20</ele>
	<time>2023-08-07T05:07:53.000Z</time>
</trkpt>
<trkpt lat="46.1015980" lon="10.5158750">
	<ele>2096.20</ele>
	<time>2023-08-07T05:07:54.000Z</time>
</trkpt>
<trkpt lat="46.1016020" lon="10.5158850">
	<ele>2096.20</ele>
	<time>2023-08-07T05:07:55.000Z</time>
</trkpt>
<trkpt lat="46.1016040" lon="10.5158900">
	<ele>2096.20</ele>
	<time>2023-08-07T05:07:56.000Z</time>
</trkpt>
<trkpt lat="46.1016080" lon="10.5158920">
	<ele>2096.20</ele>
	<time>2023-08-07T05:07:57.000Z</time>
</trkpt>
<trkpt lat="46.1016180" lon="10.5158940">
	<ele>2096.20</ele>
	<time>2023-08-07T05:07:58.000Z</time>
</trkpt>
<trkpt lat="46.1016270" lon="10.5159020">
	<ele>2096.20</ele>
	<time>2023-08-07T05:07:59.000Z</time>
</trkpt>
<trkpt lat="46.1016330" lon="10.5159070">
	<ele>2096.20</ele>
	<time>2023-08-07T05:08:00.000Z</time>
</trkpt>
<trkpt lat="46.1016370" lon="10.5159140">
	<ele>2096.20</ele>
	<time>2023-08-07T05:08:01.000Z</time>
</trkpt>
<trkpt lat="46.1016420" lon="10.5159250">
	<ele>2096.20</ele>
	<time>2023-08-07T05:08:02.000Z</time>
</trkpt>
<trkpt lat="46.1016460" lon="10.5159300">
	<ele>2096.20</ele>
	<time>2023-08-07T05:08:03.000Z</time>
</trkpt>
<trkpt lat="46.1016470" lon="10.5159290">
	<ele>2096.20</ele>
	<time>2023-08-07T05:08:04.000Z</time>
</trkpt>
<trkpt lat="46.1016480" lon="10.5159310">
	<ele>2096.20</ele>
	<time>2023-08-07T05:08:05.000Z</time>
</trkpt>
<trkpt lat="46.1016470" lon="10.5159360">
	<ele>2096.20</ele>
	<time>2023-08-07T05:08:06.000Z</time>
</trkpt>
<trkpt lat="46.1016490" lon="10.5159370">
	<ele>2096.20</ele>
	<time>2023-08-07T05:08:07.000Z</time>
</trkpt>
<trkpt lat="46.1016500" lon="10.5159370">
	<ele>2096.40</ele>
	<time>2023-08-07T05:08:08.000Z</time>
</trkpt>
<trkpt lat="46.1016510" lon="10.5159370">
	<ele>2096.60</ele>
	<time>2023-08-07T05:08:09.000Z</time>
</trkpt>
<trkpt lat="46.1016500" lon="10.5159380">
	<ele>2096.60</ele>
	<time>2023-08-07T05:08:10.000Z</time>
</trkpt>
<trkpt lat="46.1016490" lon="10.5159380">
	<ele>2096.80</ele>
	<time>2023-08-07T05:08:11.000Z</time>
</trkpt>
<trkpt lat="46.1016490" lon="10.5159380">
	<ele>2096.80</ele>
	<time>2023-08-07T05:08:12.000Z</time>
</trkpt>
<trkpt lat="46.1016490" lon="10.5159370">
	<ele>2097.00</ele>
	<time>2023-08-07T05:08:13.000Z</time>
</trkpt>
<trkpt lat="46.1016490" lon="10.5159370">
	<ele>2096.80</ele>
	<time>2023-08-07T05:08:14.000Z</time>
</trkpt>
<trkpt lat="46.1016490" lon="10.5159370">
	<ele>2096.80</ele>
	<time>2023-08-07T05:08:15.000Z</time>
</trkpt>
<trkpt lat="46.1016490" lon="10.5159370">
	<ele>2096.80</ele>
	<time>2023-08-07T05:08:16.000Z</time>
</trkpt>
<trkpt lat="46.1016490" lon="10.5159370">
	<ele>2096.60</ele>
	<time>2023-08-07T05:08:17.000Z</time>
</trkpt>
<trkpt lat="46.1016490" lon="10.5159370">
	<ele>2096.40</ele>
	<time>2023-08-07T05:08:18.000Z</time>
</trkpt>
<trkpt lat="46.1016490" lon="10.5159370">
	<ele>2096.40</ele>
	<time>2023-08-07T05:08:19.000Z</time>
</trkpt>
<trkpt lat="46.1016490" lon="10.5159370">
	<ele>2096.20</ele>
	<time>2023-08-07T05:08:20.000Z</time>
</trkpt>
<trkpt lat="46.1016490" lon="10.5159370">
	<ele>2096.20</ele>
	<time>2023-08-07T05:08:21.000Z</time>
</trkpt>
<trkpt lat="46.1016470" lon="10.5159420">
	<ele>2096.20</ele>
	<time>2023-08-07T05:08:22.000Z</time>
</trkpt>
<trkpt lat="46.1016290" lon="10.5159570">
	<ele>2096.20</ele>
	<time>2023-08-07T05:08:23.000Z</time>
</trkpt>
<trkpt lat="46.1016130" lon="10.5159750">
	<ele>2096.20</ele>
	<time>2023-08-07T05:08:24.000Z</time>
</trkpt>
<trkpt lat="46.1015980" lon="10.5159950">
	<ele>2096.20</ele>
	<time>2023-08-07T05:08:25.000Z</time>
</trkpt>
<trkpt lat="46.1015890" lon="10.5160140">
	<ele>2096.20</ele>
	<time>2023-08-07T05:08:26.000Z</time>
</trkpt>
<trkpt lat="46.1015800" lon="10.5160320">
	<ele>2096.20</ele>
	<time>2023-08-07T05:08:27.000Z</time>
</trkpt>
<trkpt lat="46.1015740" lon="10.5160520">
	<ele>2096.20</ele>
	<time>2023-08-07T05:08:28.000Z</time>
</trkpt>
<trkpt lat="46.1015640" lon="10.5160760">
	<ele>2096.40</ele>
	<time>2023-08-07T05:08:29.000Z</time>
</trkpt>
<trkpt lat="46.1015520" lon="10.5160970">
	<ele>2096.40</ele>
	<time>2023-08-07T05:08:30.000Z</time>
</trkpt>
<trkpt lat="46.1015420" lon="10.5161170">
	<ele>2096.40</ele>
	<time>2023-08-07T05:08:31.000Z</time>
</trkpt>
<trkpt lat="46.1015320" lon="10.5161290">
	<ele>2096.40</ele>
	<time>2023-08-07T05:08:32.000Z</time>
</trkpt>
<trkpt lat="46.1015260" lon="10.5161410">
	<ele>2096.40</ele>
	<time>2023-08-07T05:08:33.000Z</time>
</trkpt>
<trkpt lat="46.1015140" lon="10.5161620">
	<ele>2096.40</ele>
	<time>2023-08-07T05:08:34.000Z</time>
</trkpt>
<trkpt lat="46.1015070" lon="10.5161860">
	<ele>2096.40</ele>
	<time>2023-08-07T05:08:35.000Z</time>
</trkpt>
<trkpt lat="46.1015050" lon="10.5162020">
	<ele>2096.40</ele>
	<time>2023-08-07T05:08:36.000Z</time>
</trkpt>
<trkpt lat="46.1015050" lon="10.5162170">
	<ele>2096.60</ele>
	<time>2023-08-07T05:08:37.000Z</time>
</trkpt>
<trkpt lat="46.1015040" lon="10.5162300">
	<ele>2096.60</ele>
	<time>2023-08-07T05:08:38.000Z</time>
</trkpt>
<trkpt lat="46.1015030" lon="10.5162450">
	<ele>2096.60</ele>
	<time>2023-08-07T05:08:39.000Z</time>
</trkpt>
<trkpt lat="46.1015080" lon="10.5162600">
	<ele>2096.60</ele>
	<time>2023-08-07T05:08:40.000Z</time>
</trkpt>
<trkpt lat="46.1015090" lon="10.5162800">
	<ele>2096.60</ele>
	<time>2023-08-07T05:08:41.000Z</time>
</trkpt>
<trkpt lat="46.1015100" lon="10.5162990">
	<ele>2096.60</ele>
	<time>2023-08-07T05:08:42.000Z</time>
</trkpt>
<trkpt lat="46.1015110" lon="10.5163190">
	<ele>2096.80</ele>
	<time>2023-08-07T05:08:43.000Z</time>
</trkpt>
<trkpt lat="46.1015120" lon="10.5163360">
	<ele>2096.60</ele>
	<time>2023-08-07T05:08:44.000Z</time>
</trkpt>
<trkpt lat="46.1015140" lon="10.5163500">
	<ele>2096.60</ele>
	<time>2023-08-07T05:08:45.000Z</time>
</trkpt>
<trkpt lat="46.1015120" lon="10.5163630">
	<ele>2096.60</ele>
	<time>2023-08-07T05:08:46.000Z</time>
</trkpt>
<trkpt lat="46.1015110" lon="10.5163770">
	<ele>2096.60</ele>
	<time>2023-08-07T05:08:47.000Z</time>
</trkpt>
<trkpt lat="46.1015080" lon="10.5163890">
	<ele>2096.60</ele>
	<time>2023-08-07T05:08:48.000Z</time>
</trkpt>
<trkpt lat="46.1015100" lon="10.5164040">
	<ele>2096.60</ele>
	<time>2023-08-07T05:08:49.000Z</time>
</trkpt>
<trkpt lat="46.1015120" lon="10.5164220">
	<ele>2096.60</ele>
	<time>2023-08-07T05:08:50.000Z</time>
</trkpt>
<trkpt lat="46.1015130" lon="10.5164430">
	<ele>2096.60</ele>
	<time>2023-08-07T05:08:51.000Z</time>
</trkpt>
<trkpt lat="46.1015150" lon="10.5164630">
	<ele>2096.60</ele>
	<time>2023-08-07T05:08:52.000Z</time>
</trkpt>
<trkpt lat="46.1015200" lon="10.5164820">
	<ele>2096.60</ele>
	<time>2023-08-07T05:08:53.000Z</time>
</trkpt>
<trkpt lat="46.1015240" lon="10.5164990">
	<ele>2096.60</ele>
	<time>2023-08-07T05:08:54.000Z</time>
</trkpt>
<trkpt lat="46.1015280" lon="10.5165190">
	<ele>2096.60</ele>
	<time>2023-08-07T05:08:55.000Z</time>
</trkpt>
<trkpt lat="46.1015340" lon="10.5165360">
	<ele>2096.60</ele>
	<time>2023-08-07T05:08:56.000Z</time>
</trkpt>
<trkpt lat="46.1015370" lon="10.5165510">
	<ele>2096.60</ele>
	<time>2023-08-07T05:08:57.000Z</time>
</trkpt>
<trkpt lat="46.1015430" lon="10.5165680">
	<ele>2096.60</ele>
	<time>2023-08-07T05:08:58.000Z</time>
</trkpt>
<trkpt lat="46.1015460" lon="10.5165890">
	<ele>2096.60</ele>
	<time>2023-08-07T05:08:59.000Z</time>
</trkpt>
<trkpt lat="46.1015470" lon="10.5166080">
	<ele>2096.60</ele>
	<time>2023-08-07T05:09:00.000Z</time>
</trkpt>
<trkpt lat="46.1015450" lon="10.5166280">
	<ele>2096.60</ele>
	<time>2023-08-07T05:09:01.000Z</time>
</trkpt>
<trkpt lat="46.1015420" lon="10.5166460">
	<ele>2096.60</ele>
	<time>2023-08-07T05:09:02.000Z</time>
</trkpt>
<trkpt lat="46.1015420" lon="10.5166600">
	<ele>2096.60</ele>
	<time>2023-08-07T05:09:03.000Z</time>
</trkpt>
<trkpt lat="46.1015450" lon="10.5166720">
	<ele>2096.60</ele>
	<time>2023-08-07T05:09:04.000Z</time>
</trkpt>
<trkpt lat="46.1015450" lon="10.5166870">
	<ele>2096.80</ele>
	<time>2023-08-07T05:09:05.000Z</time>
</trkpt>
<trkpt lat="46.1015460" lon="10.5167060">
	<ele>2096.80</ele>
	<time>2023-08-07T05:09:06.000Z</time>
</trkpt>
<trkpt lat="46.1015480" lon="10.5167220">
	<ele>2096.80</ele>
	<time>2023-08-07T05:09:07.000Z</time>
</trkpt>
<trkpt lat="46.1015490" lon="10.5167410">
	<ele>2096.80</ele>
	<time>2023-08-07T05:09:08.000Z</time>
</trkpt>
<trkpt lat="46.1015520" lon="10.5167600">
	<ele>2096.80</ele>
	<time>2023-08-07T05:09:09.000Z</time>
</trkpt>
<trkpt lat="46.1015550" lon="10.5167790">
	<ele>2097.00</ele>
	<time>2023-08-07T05:09:10.000Z</time>
</trkpt>
<trkpt lat="46.1015580" lon="10.5167980">
	<ele>2097.00</ele>
	<time>2023-08-07T05:09:11.000Z</time>
</trkpt>
<trkpt lat="46.1015620" lon="10.5168120">
	<ele>2097.00</ele>
	<time>2023-08-07T05:09:12.000Z</time>
</trkpt>
<trkpt lat="46.1015630" lon="10.5168270">
	<ele>2097.00</ele>
	<time>2023-08-07T05:09:13.000Z</time>
</trkpt>
<trkpt lat="46.1015640" lon="10.5168450">
	<ele>2097.00</ele>
	<time>2023-08-07T05:09:14.000Z</time>
</trkpt>
<trkpt lat="46.1015650" lon="10.5168630">
	<ele>2097.00</ele>
	<time>2023-08-07T05:09:15.000Z</time>
</trkpt>
<trkpt lat="46.1015650" lon="10.5168840">
	<ele>2097.00</ele>
	<time>2023-08-07T05:09:16.000Z</time>
</trkpt>
<trkpt lat="46.1015670" lon="10.5169050">
	<ele>2097.00</ele>
	<time>2023-08-07T05:09:17.000Z</time>
</trkpt>
<trkpt lat="46.1015700" lon="10.5169240">
	<ele>2097.00</ele>
	<time>2023-08-07T05:09:18.000Z</time>
</trkpt>
<trkpt lat="46.1015720" lon="10.5169420">
	<ele>2097.20</ele>
	<time>2023-08-07T05:09:19.000Z</time>
</trkpt>
<trkpt lat="46.1015730" lon="10.5169550">
	<ele>2097.20</ele>
	<time>2023-08-07T05:09:20.000Z</time>
</trkpt>
<trkpt lat="46.1015760" lon="10.5169690">
	<ele>2097.20</ele>
	<time>2023-08-07T05:09:21.000Z</time>
</trkpt>
<trkpt lat="46.1015840" lon="10.5169810">
	<ele>2097.20</ele>
	<time>2023-08-07T05:09:22.000Z</time>
</trkpt>
<trkpt lat="46.1015930" lon="10.5169920">
	<ele>2097.20</ele>
	<time>2023-08-07T05:09:23.000Z</time>
</trkpt>
<trkpt lat="46.1016010" lon="10.5170040">
	<ele>2097.20</ele>
	<time>2023-08-07T05:09:24.000Z</time>
</trkpt>
<trkpt lat="46.1016040" lon="10.5170120">
	<ele>2097.40</ele>
	<time>2023-08-07T05:09:25.000Z</time>
</trkpt>
<trkpt lat="46.1016080" lon="10.5170200">
	<ele>2097.40</ele>
	<time>2023-08-07T05:09:26.000Z</time>
</trkpt>
<trkpt lat="46.1016120" lon="10.5170280">
	<ele>2097.60</ele>
	<time>2023-08-07T05:09:27.000Z</time>
</trkpt>
<trkpt lat="46.1016160" lon="10.5170360">
	<ele>2098.00</ele>
	<time>2023-08-07T05:09:28.000Z</time>
</trkpt>
<trkpt lat="46.1016220" lon="10.5170460">
	<ele>2098.20</ele>
	<time>2023-08-07T05:09:29.000Z</time>
</trkpt>
<trkpt lat="46.1016250" lon="10.5170570">
	<ele>2098.20</ele>
	<time>2023-08-07T05:09:30.000Z</time>
</trkpt>
<trkpt lat="46.1016260" lon="10.5170690">
	<ele>2098.40</ele>
	<time>2023-08-07T05:09:31.000Z</time>
</trkpt>
<trkpt lat="46.1016260" lon="10.5170860">
	<ele>2098.40</ele>
	<time>2023-08-07T05:09:32.000Z</time>
</trkpt>
<trkpt lat="46.1016290" lon="10.5170970">
	<ele>2098.60</ele>
	<time>2023-08-07T05:09:33.000Z</time>
</trkpt>
<trkpt lat="46.1016350" lon="10.5171080">
	<ele>2098.60</ele>
	<time>2023-08-07T05:09:34.000Z</time>
</trkpt>
<trkpt lat="46.1016440" lon="10.5171160">
	<ele>2098.80</ele>
	<time>2023-08-07T05:09:35.000Z</time>
</trkpt>
<trkpt lat="46.1016500" lon="10.5171250">
	<ele>2098.80</ele>
	<time>2023-08-07T05:09:36.000Z</time>
</trkpt>
<trkpt lat="46.1016560" lon="10.5171320">
	<ele>2098.80</ele>
	<time>2023-08-07T05:09:37.000Z</time>
</trkpt>
<trkpt lat="46.1016610" lon="10.5171450">
	<ele>2099.00</ele>
	<time>2023-08-07T05:09:38.000Z</time>
</trkpt>
<trkpt lat="46.1016660" lon="10.5171580">
	<ele>2099.00</ele>
	<time>2023-08-07T05:09:39.000Z</time>
</trkpt>
<trkpt lat="46.1016670" lon="10.5171720">
	<ele>2099.00</ele>
	<time>2023-08-07T05:09:40.000Z</time>
</trkpt>
<trkpt lat="46.1016640" lon="10.5171850">
	<ele>2099.00</ele>
	<time>2023-08-07T05:09:41.000Z</time>
</trkpt>
<trkpt lat="46.1016610" lon="10.5171970">
	<ele>2099.00</ele>
	<time>2023-08-07T05:09:42.000Z</time>
</trkpt>
<trkpt lat="46.1016580" lon="10.5172100">
	<ele>2099.00</ele>
	<time>2023-08-07T05:09:43.000Z</time>
</trkpt>
<trkpt lat="46.1016590" lon="10.5172210">
	<ele>2099.00</ele>
	<time>2023-08-07T05:09:44.000Z</time>
</trkpt>
<trkpt lat="46.1016580" lon="10.5172320">
	<ele>2099.00</ele>
	<time>2023-08-07T05:09:45.000Z</time>
</trkpt>
<trkpt lat="46.1016580" lon="10.5172440">
	<ele>2099.00</ele>
	<time>2023-08-07T05:09:46.000Z</time>
</trkpt>
<trkpt lat="46.1016580" lon="10.5172590">
	<ele>2099.00</ele>
	<time>2023-08-07T05:09:47.000Z</time>
</trkpt>
<trkpt lat="46.1016570" lon="10.5172730">
	<ele>2099.20</ele>
	<time>2023-08-07T05:09:48.000Z</time>
</trkpt>
<trkpt lat="46.1016600" lon="10.5172860">
	<ele>2099.20</ele>
	<time>2023-08-07T05:09:49.000Z</time>
</trkpt>
<trkpt lat="46.1016630" lon="10.5172940">
	<ele>2099.40</ele>
	<time>2023-08-07T05:09:50.000Z</time>
</trkpt>
<trkpt lat="46.1016670" lon="10.5173060">
	<ele>2099.40</ele>
	<time>2023-08-07T05:09:51.000Z</time>
</trkpt>
<trkpt lat="46.1016720" lon="10.5173170">
	<ele>2099.40</ele>
	<time>2023-08-07T05:09:52.000Z</time>
</trkpt>
<trkpt lat="46.1016760" lon="10.5173240">
	<ele>2099.60</ele>
	<time>2023-08-07T05:09:53.000Z</time>
</trkpt>
<trkpt lat="46.1016830" lon="10.5173340">
	<ele>2099.60</ele>
	<time>2023-08-07T05:09:54.000Z</time>
</trkpt>
<trkpt lat="46.1016900" lon="10.5173420">
	<ele>2099.60</ele>
	<time>2023-08-07T05:09:55.000Z</time>
</trkpt>
<trkpt lat="46.1016980" lon="10.5173500">
	<ele>2099.60</ele>
	<time>2023-08-07T05:09:56.000Z</time>
</trkpt>
<trkpt lat="46.1017060" lon="10.5173580">
	<ele>2099.60</ele>
	<time>2023-08-07T05:09:57.000Z</time>
</trkpt>
<trkpt lat="46.1017120" lon="10.5173690">
	<ele>2099.80</ele>
	<time>2023-08-07T05:09:58.000Z</time>
</trkpt>
<trkpt lat="46.1017220" lon="10.5173760">
	<ele>2099.80</ele>
	<time>2023-08-07T05:09:59.000Z</time>
</trkpt>
<trkpt lat="46.1017360" lon="10.5173820">
	<ele>2100.00</ele>
	<time>2023-08-07T05:10:00.000Z</time>
</trkpt>
<trkpt lat="46.1017460" lon="10.5173880">
	<ele>2100.20</ele>
	<time>2023-08-07T05:10:01.000Z</time>
</trkpt>
<trkpt lat="46.1017520" lon="10.5173990">
	<ele>2100.20</ele>
	<time>2023-08-07T05:10:02.000Z</time>
</trkpt>
<trkpt lat="46.1017560" lon="10.5174120">
	<ele>2100.40</ele>
	<time>2023-08-07T05:10:03.000Z</time>
</trkpt>
<trkpt lat="46.1017620" lon="10.5174240">
	<ele>2100.40</ele>
	<time>2023-08-07T05:10:04.000Z</time>
</trkpt>
<trkpt lat="46.1017680" lon="10.5174340">
	<ele>2100.40</ele>
	<time>2023-08-07T05:10:05.000Z</time>
</trkpt>
<trkpt lat="46.1017730" lon="10.5174420">
	<ele>2100.40</ele>
	<time>2023-08-07T05:10:06.000Z</time>
</trkpt>
<trkpt lat="46.1017790" lon="10.5174550">
	<ele>2100.40</ele>
	<time>2023-08-07T05:10:07.000Z</time>
</trkpt>
<trkpt lat="46.1017830" lon="10.5174670">
	<ele>2100.40</ele>
	<time>2023-08-07T05:10:08.000Z</time>
</trkpt>
<trkpt lat="46.1017890" lon="10.5174750">
	<ele>2100.40</ele>
	<time>2023-08-07T05:10:09.000Z</time>
</trkpt>
<trkpt lat="46.1017950" lon="10.5174820">
	<ele>2100.40</ele>
	<time>2023-08-07T05:10:10.000Z</time>
</trkpt>
<trkpt lat="46.1017980" lon="10.5174970">
	<ele>2100.40</ele>
	<time>2023-08-07T05:10:11.000Z</time>
</trkpt>
<trkpt lat="46.1018040" lon="10.5175110">
	<ele>2100.40</ele>
	<time>2023-08-07T05:10:12.000Z</time>
</trkpt>
<trkpt lat="46.1018090" lon="10.5175270">
	<ele>2100.60</ele>
	<time>2023-08-07T05:10:13.000Z</time>
</trkpt>
<trkpt lat="46.1018140" lon="10.5175410">
	<ele>2100.80</ele>
	<time>2023-08-07T05:10:14.000Z</time>
</trkpt>
<trkpt lat="46.1018200" lon="10.5175500">
	<ele>2100.80</ele>
	<time>2023-08-07T05:10:15.000Z</time>
</trkpt>
<trkpt lat="46.1018250" lon="10.5175550">
	<ele>2100.80</ele>
	<time>2023-08-07T05:10:16.000Z</time>
</trkpt>
<trkpt lat="46.1018360" lon="10.5175580">
	<ele>2100.80</ele>
	<time>2023-08-07T05:10:17.000Z</time>
</trkpt>
<trkpt lat="46.1018460" lon="10.5175650">
	<ele>2100.80</ele>
	<time>2023-08-07T05:10:18.000Z</time>
</trkpt>
<trkpt lat="46.1018560" lon="10.5175760">
	<ele>2101.00</ele>
	<time>2023-08-07T05:10:19.000Z</time>
</trkpt>
<trkpt lat="46.1018660" lon="10.5175880">
	<ele>2101.00</ele>
	<time>2023-08-07T05:10:20.000Z</time>
</trkpt>
<trkpt lat="46.1018720" lon="10.5176010">
	<ele>2101.00</ele>
	<time>2023-08-07T05:10:21.000Z</time>
</trkpt>
<trkpt lat="46.1018780" lon="10.5176120">
	<ele>2101.20</ele>
	<time>2023-08-07T05:10:22.000Z</time>
</trkpt>
<trkpt lat="46.1018810" lon="10.5176250">
	<ele>2101.20</ele>
	<time>2023-08-07T05:10:23.000Z</time>
</trkpt>
<trkpt lat="46.1018880" lon="10.5176340">
	<ele>2101.20</ele>
	<time>2023-08-07T05:10:24.000Z</time>
</trkpt>
<trkpt lat="46.1018920" lon="10.5176480">
	<ele>2101.40</ele>
	<time>2023-08-07T05:10:25.000Z</time>
</trkpt>
<trkpt lat="46.1018950" lon="10.5176620">
	<ele>2101.60</ele>
	<time>2023-08-07T05:10:26.000Z</time>
</trkpt>
<trkpt lat="46.1019000" lon="10.5176790">
	<ele>2101.60</ele>
	<time>2023-08-07T05:10:27.000Z</time>
</trkpt>
<trkpt lat="46.1019080" lon="10.5176940">
	<ele>2101.60</ele>
	<time>2023-08-07T05:10:28.000Z</time>
</trkpt>
<trkpt lat="46.1019130" lon="10.5177120">
	<ele>2101.80</ele>
	<time>2023-08-07T05:10:29.000Z</time>
</trkpt>
<trkpt lat="46.1019200" lon="10.5177220">
	<ele>2101.80</ele>
	<time>2023-08-07T05:10:30.000Z</time>
</trkpt>
<trkpt lat="46.1019250" lon="10.5177340">
	<ele>2102.00</ele>
	<time>2023-08-07T05:10:31.000Z</time>
</trkpt>
<trkpt lat="46.1019340" lon="10.5177430">
	<ele>2102.00</ele>
	<time>2023-08-07T05:10:32.000Z</time>
</trkpt>
<trkpt lat="46.1019420" lon="10.5177510">
	<ele>2102.20</ele>
	<time>2023-08-07T05:10:33.000Z</time>
</trkpt>
<trkpt lat="46.1019530" lon="10.5177580">
	<ele>2102.20</ele>
	<time>2023-08-07T05:10:34.000Z</time>
</trkpt>
<trkpt lat="46.1019620" lon="10.5177630">
	<ele>2102.20</ele>
	<time>2023-08-07T05:10:35.000Z</time>
</trkpt>
<trkpt lat="46.1019710" lon="10.5177700">
	<ele>2102.20</ele>
	<time>2023-08-07T05:10:36.000Z</time>
</trkpt>
<trkpt lat="46.1019800" lon="10.5177730">
	<ele>2102.40</ele>
	<time>2023-08-07T05:10:37.000Z</time>
</trkpt>
<trkpt lat="46.1019900" lon="10.5177770">
	<ele>2102.40</ele>
	<time>2023-08-07T05:10:38.000Z</time>
</trkpt>
<trkpt lat="46.1020010" lon="10.5177840">
	<ele>2102.40</ele>
	<time>2023-08-07T05:10:39.000Z</time>
</trkpt>
<trkpt lat="46.1020100" lon="10.5177910">
	<ele>2102.60</ele>
	<time>2023-08-07T05:10:40.000Z</time>
</trkpt>
<trkpt lat="46.1020220" lon="10.5177980">
	<ele>2102.60</ele>
	<time>2023-08-07T05:10:41.000Z</time>
</trkpt>
<trkpt lat="46.1020350" lon="10.5178040">
	<ele>2102.60</ele>
	<time>2023-08-07T05:10:42.000Z</time>
</trkpt>
<trkpt lat="46.1020460" lon="10.5178130">
	<ele>2102.60</ele>
	<time>2023-08-07T05:10:43.000Z</time>
</trkpt>
<trkpt lat="46.1020540" lon="10.5178220">
	<ele>2102.80</ele>
	<time>2023-08-07T05:10:44.000Z</time>
</trkpt>
<trkpt lat="46.1020620" lon="10.5178300">
	<ele>2103.00</ele>
	<time>2023-08-07T05:10:45.000Z</time>
</trkpt>
<trkpt lat="46.1020700" lon="10.5178390">
	<ele>2103.00</ele>
	<time>2023-08-07T05:10:46.000Z</time>
</trkpt>
<trkpt lat="46.1020790" lon="10.5178460">
	<ele>2103.20</ele>
	<time>2023-08-07T05:10:47.000Z</time>
</trkpt>
<trkpt lat="46.1020860" lon="10.5178520">
	<ele>2103.20</ele>
	<time>2023-08-07T05:10:48.000Z</time>
</trkpt>
<trkpt lat="46.1020930" lon="10.5178560">
	<ele>2103.20</ele>
	<time>2023-08-07T05:10:49.000Z</time>
</trkpt>
<trkpt lat="46.1021000" lon="10.5178610">
	<ele>2103.40</ele>
	<time>2023-08-07T05:10:50.000Z</time>
</trkpt>
<trkpt lat="46.1021050" lon="10.5178710">
	<ele>2103.60</ele>
	<time>2023-08-07T05:10:51.000Z</time>
</trkpt>
<trkpt lat="46.1021060" lon="10.5178830">
	<ele>2103.80</ele>
	<time>2023-08-07T05:10:52.000Z</time>
</trkpt>
<trkpt lat="46.1021070" lon="10.5178970">
	<ele>2103.80</ele>
	<time>2023-08-07T05:10:53.000Z</time>
</trkpt>
<trkpt lat="46.1021080" lon="10.5179050">
	<ele>2103.80</ele>
	<time>2023-08-07T05:10:54.000Z</time>
</trkpt>
<trkpt lat="46.1021120" lon="10.5179090">
	<ele>2104.00</ele>
	<time>2023-08-07T05:10:55.000Z</time>
</trkpt>
<trkpt lat="46.1021170" lon="10.5179200">
	<ele>2104.00</ele>
	<time>2023-08-07T05:10:56.000Z</time>
</trkpt>
<trkpt lat="46.1021240" lon="10.5179350">
	<ele>2104.00</ele>
	<time>2023-08-07T05:10:57.000Z</time>
</trkpt>
<trkpt lat="46.1021300" lon="10.5179490">
	<ele>2104.00</ele>
	<time>2023-08-07T05:10:58.000Z</time>
</trkpt>
<trkpt lat="46.1021390" lon="10.5179610">
	<ele>2104.20</ele>
	<time>2023-08-07T05:10:59.000Z</time>
</trkpt>
<trkpt lat="46.1021460" lon="10.5179740">
	<ele>2104.20</ele>
	<time>2023-08-07T05:11:00.000Z</time>
</trkpt>
<trkpt lat="46.1021510" lon="10.5179880">
	<ele>2104.20</ele>
	<time>2023-08-07T05:11:01.000Z</time>
</trkpt>
<trkpt lat="46.1021540" lon="10.5180010">
	<ele>2104.20</ele>
	<time>2023-08-07T05:11:02.000Z</time>
</trkpt>
<trkpt lat="46.1021580" lon="10.5180130">
	<ele>2104.20</ele>
	<time>2023-08-07T05:11:03.000Z</time>
</trkpt>
<trkpt lat="46.1021560" lon="10.5180240">
	<ele>2104.40</ele>
	<time>2023-08-07T05:11:04.000Z</time>
</trkpt>
<trkpt lat="46.1021530" lon="10.5180370">
	<ele>2104.40</ele>
	<time>2023-08-07T05:11:05.000Z</time>
</trkpt>
<trkpt lat="46.1021520" lon="10.5180520">
	<ele>2104.60</ele>
	<time>2023-08-07T05:11:06.000Z</time>
</trkpt>
<trkpt lat="46.1021560" lon="10.5180620">
	<ele>2104.60</ele>
	<time>2023-08-07T05:11:07.000Z</time>
</trkpt>
<trkpt lat="46.1021650" lon="10.5180690">
	<ele>2104.80</ele>
	<time>2023-08-07T05:11:08.000Z</time>
</trkpt>
<trkpt lat="46.1021700" lon="10.5180790">
	<ele>2104.80</ele>
	<time>2023-08-07T05:11:09.000Z</time>
</trkpt>
<trkpt lat="46.1021740" lon="10.5180860">
	<ele>2104.80</ele>
	<time>2023-08-07T05:11:10.000Z</time>
</trkpt>
<trkpt lat="46.1021800" lon="10.5180960">
	<ele>2105.00</ele>
	<time>2023-08-07T05:11:11.000Z</time>
</trkpt>
<trkpt lat="46.1021860" lon="10.5181040">
	<ele>2105.00</ele>
	<time>2023-08-07T05:11:12.000Z</time>
</trkpt>
<trkpt lat="46.1021930" lon="10.5181160">
	<ele>2105.00</ele>
	<time>2023-08-07T05:11:13.000Z</time>
</trkpt>
<trkpt lat="46.1021980" lon="10.5181250">
	<ele>2105.20</ele>
	<time>2023-08-07T05:11:14.000Z</time>
</trkpt>
<trkpt lat="46.1022060" lon="10.5181370">
	<ele>2105.40</ele>
	<time>2023-08-07T05:11:15.000Z</time>
</trkpt>
<trkpt lat="46.1022130" lon="10.5181480">
	<ele>2105.40</ele>
	<time>2023-08-07T05:11:16.000Z</time>
</trkpt>
<trkpt lat="46.1022180" lon="10.5181590">
	<ele>2105.40</ele>
	<time>2023-08-07T05:11:17.000Z</time>
</trkpt>
<trkpt lat="46.1022230" lon="10.5181680">
	<ele>2105.60</ele>
	<time>2023-08-07T05:11:18.000Z</time>
</trkpt>
<trkpt lat="46.1022300" lon="10.5181760">
	<ele>2105.80</ele>
	<time>2023-08-07T05:11:19.000Z</time>
</trkpt>
<trkpt lat="46.1022400" lon="10.5181830">
	<ele>2106.00</ele>
	<time>2023-08-07T05:11:20.000Z</time>
</trkpt>
<trkpt lat="46.1022490" lon="10.5181920">
	<ele>2106.00</ele>
	<time>2023-08-07T05:11:21.000Z</time>
</trkpt>
<trkpt lat="46.1022590" lon="10.5181980">
	<ele>2106.20</ele>
	<time>2023-08-07T05:11:22.000Z</time>
</trkpt>
<trkpt lat="46.1022660" lon="10.5182040">
	<ele>2106.40</ele>
	<time>2023-08-07T05:11:23.000Z</time>
</trkpt>
<trkpt lat="46.1022750" lon="10.5182080">
	<ele>2106.60</ele>
	<time>2023-08-07T05:11:24.000Z</time>
</trkpt>
<trkpt lat="46.1022840" lon="10.5182150">
	<ele>2106.60</ele>
	<time>2023-08-07T05:11:25.000Z</time>
</trkpt>
<trkpt lat="46.1022920" lon="10.5182210">
	<ele>2106.80</ele>
	<time>2023-08-07T05:11:26.000Z</time>
</trkpt>
<trkpt lat="46.1023000" lon="10.5182290">
	<ele>2106.80</ele>
	<time>2023-08-07T05:11:27.000Z</time>
</trkpt>
<trkpt lat="46.1023050" lon="10.5182380">
	<ele>2107.00</ele>
	<time>2023-08-07T05:11:28.000Z</time>
</trkpt>
<trkpt lat="46.1023110" lon="10.5182470">
	<ele>2107.00</ele>
	<time>2023-08-07T05:11:29.000Z</time>
</trkpt>
<trkpt lat="46.1023160" lon="10.5182520">
	<ele>2107.20</ele>
	<time>2023-08-07T05:11:30.000Z</time>
</trkpt>
<trkpt lat="46.1023250" lon="10.5182580">
	<ele>2107.20</ele>
	<time>2023-08-07T05:11:31.000Z</time>
</trkpt>
<trkpt lat="46.1023300" lon="10.5182640">
	<ele>2107.20</ele>
	<time>2023-08-07T05:11:32.000Z</time>
</trkpt>
<trkpt lat="46.1023380" lon="10.5182680">
	<ele>2107.20</ele>
	<time>2023-08-07T05:11:33.000Z</time>
</trkpt>
<trkpt lat="46.1023450" lon="10.5182750">
	<ele>2107.60</ele>
	<time>2023-08-07T05:11:34.000Z</time>
</trkpt>
<trkpt lat="46.1023470" lon="10.5182850">
	<ele>2107.60</ele>
	<time>2023-08-07T05:11:35.000Z</time>
</trkpt>
<trkpt lat="46.1023510" lon="10.5182960">
	<ele>2107.80</ele>
	<time>2023-08-07T05:11:36.000Z</time>
</trkpt>
<trkpt lat="46.1023540" lon="10.5183100">
	<ele>2108.00</ele>
	<time>2023-08-07T05:11:37.000Z</time>
</trkpt>
<trkpt lat="46.1023580" lon="10.5183190">
	<ele>2108.00</ele>
	<time>2023-08-07T05:11:38.000Z</time>
</trkpt>
<trkpt lat="46.1023610" lon="10.5183230">
	<ele>2108.40</ele>
	<time>2023-08-07T05:11:39.000Z</time>
</trkpt>
<trkpt lat="46.1023650" lon="10.5183270">
	<ele>2108.60</ele>
	<time>2023-08-07T05:11:40.000Z</time>
</trkpt>
<trkpt lat="46.1023720" lon="10.5183310">
	<ele>2108.60</ele>
	<time>2023-08-07T05:11:41.000Z</time>
</trkpt>
<trkpt lat="46.1023780" lon="10.5183390">
	<ele>2108.80</ele>
	<time>2023-08-07T05:11:42.000Z</time>
</trkpt>
<trkpt lat="46.1023820" lon="10.5183460">
	<ele>2108.80</ele>
	<time>2023-08-07T05:11:43.000Z</time>
</trkpt>
<trkpt lat="46.1023880" lon="10.5183510">
	<ele>2108.80</ele>
	<time>2023-08-07T05:11:44.000Z</time>
</trkpt>
<trkpt lat="46.1023920" lon="10.5183620">
	<ele>2108.80</ele>
	<time>2023-08-07T05:11:45.000Z</time>
</trkpt>
<trkpt lat="46.1023960" lon="10.5183680">
	<ele>2108.80</ele>
	<time>2023-08-07T05:11:46.000Z</time>
</trkpt>
<trkpt lat="46.1023990" lon="10.5183780">
	<ele>2109.00</ele>
	<time>2023-08-07T05:11:47.000Z</time>
</trkpt>
<trkpt lat="46.1024010" lon="10.5183850">
	<ele>2109.20</ele>
	<time>2023-08-07T05:11:48.000Z</time>
</trkpt>
<trkpt lat="46.1024050" lon="10.5183890">
	<ele>2109.20</ele>
	<time>2023-08-07T05:11:49.000Z</time>
</trkpt>
<trkpt lat="46.1024040" lon="10.5183940">
	<ele>2109.20</ele>
	<time>2023-08-07T05:11:50.000Z</time>
</trkpt>
<trkpt lat="46.1024060" lon="10.5183950">
	<ele>2109.40</ele>
	<time>2023-08-07T05:11:51.000Z</time>
</trkpt>
<trkpt lat="46.1024110" lon="10.5183950">
	<ele>2109.40</ele>
	<time>2023-08-07T05:11:52.000Z</time>
</trkpt>
<trkpt lat="46.1024110" lon="10.5184020">
	<ele>2109.60</ele>
	<time>2023-08-07T05:11:53.000Z</time>
</trkpt>
<trkpt lat="46.1024140" lon="10.5184100">
	<ele>2109.60</ele>
	<time>2023-08-07T05:11:54.000Z</time>
</trkpt>
<trkpt lat="46.1024140" lon="10.5184210">
	<ele>2109.80</ele>
	<time>2023-08-07T05:11:55.000Z</time>
</trkpt>
<trkpt lat="46.1024140" lon="10.5184410">
	<ele>2110.00</ele>
	<time>2023-08-07T05:11:56.000Z</time>
</trkpt>
<trkpt lat="46.1024150" lon="10.5184550">
	<ele>2110.20</ele>
	<time>2023-08-07T05:11:57.000Z</time>
</trkpt>
<trkpt lat="46.1024170" lon="10.5184680">
	<ele>2110.20</ele>
	<time>2023-08-07T05:11:58.000Z</time>
</trkpt>
<trkpt lat="46.1024170" lon="10.5184780">
	<ele>2110.40</ele>
	<time>2023-08-07T05:11:59.000Z</time>
</trkpt>
<trkpt lat="46.1024180" lon="10.5184840">
	<ele>2110.40</ele>
	<time>2023-08-07T05:12:00.000Z</time>
</trkpt>
<trkpt lat="46.1024250" lon="10.5184930">
	<ele>2110.60</ele>
	<time>2023-08-07T05:12:01.000Z</time>
</trkpt>
<trkpt lat="46.1024290" lon="10.5185010">
	<ele>2110.60</ele>
	<time>2023-08-07T05:12:02.000Z</time>
</trkpt>
<trkpt lat="46.1024340" lon="10.5185090">
	<ele>2110.80</ele>
	<time>2023-08-07T05:12:03.000Z</time>
</trkpt>
<trkpt lat="46.1024390" lon="10.5185190">
	<ele>2110.80</ele>
	<time>2023-08-07T05:12:04.000Z</time>
</trkpt>
<trkpt lat="46.1024450" lon="10.5185270">
	<ele>2110.80</ele>
	<time>2023-08-07T05:12:05.000Z</time>
</trkpt>
<trkpt lat="46.1024460" lon="10.5185390">
	<ele>2111.00</ele>
	<time>2023-08-07T05:12:06.000Z</time>
</trkpt>
<trkpt lat="46.1024520" lon="10.5185450">
	<ele>2111.20</ele>
	<time>2023-08-07T05:12:07.000Z</time>
</trkpt>
<trkpt lat="46.1024540" lon="10.5185510">
	<ele>2111.40</ele>
	<time>2023-08-07T05:12:08.000Z</time>
</trkpt>
<trkpt lat="46.1024580" lon="10.5185530">
	<ele>2111.60</ele>
	<time>2023-08-07T05:12:09.000Z</time>
</trkpt>
<trkpt lat="46.1024620" lon="10.5185570">
	<ele>2111.60</ele>
	<time>2023-08-07T05:12:10.000Z</time>
</trkpt>
<trkpt lat="46.1024670" lon="10.5185610">
	<ele>2111.80</ele>
	<time>2023-08-07T05:12:11.000Z</time>
</trkpt>
<trkpt lat="46.1024730" lon="10.5185650">
	<ele>2111.80</ele>
	<time>2023-08-07T05:12:12.000Z</time>
</trkpt>
<trkpt lat="46.1024810" lon="10.5185650">
	<ele>2111.80</ele>
	<time>2023-08-07T05:12:13.000Z</time>
</trkpt>
<trkpt lat="46.1024880" lon="10.5185670">
	<ele>2112.00</ele>
	<time>2023-08-07T05:12:14.000Z</time>
</trkpt>
<trkpt lat="46.1024950" lon="10.5185710">
	<ele>2112.00</ele>
	<time>2023-08-07T05:12:15.000Z</time>
</trkpt>
<trkpt lat="46.1025020" lon="10.5185770">
	<ele>2112.00</ele>
	<time>2023-08-07T05:12:16.000Z</time>
</trkpt>
<trkpt lat="46.1025120" lon="10.5185820">
	<ele>2112.20</ele>
	<time>2023-08-07T05:12:17.000Z</time>
</trkpt>
<trkpt lat="46.1025190" lon="10.5185870">
	<ele>2112.40</ele>
	<time>2023-08-07T05:12:18.000Z</time>
</trkpt>
<trkpt lat="46.1025260" lon="10.5185980">
	<ele>2112.40</ele>
	<time>2023-08-07T05:12:19.000Z</time>
</trkpt>
<trkpt lat="46.1025310" lon="10.5186110">
	<ele>2112.60</ele>
	<time>2023-08-07T05:12:20.000Z</time>
</trkpt>
<trkpt lat="46.1025350" lon="10.5186170">
	<ele>2112.60</ele>
	<time>2023-08-07T05:12:21.000Z</time>
</trkpt>
<trkpt lat="46.1025380" lon="10.5186210">
	<ele>2112.80</ele>
	<time>2023-08-07T05:12:22.000Z</time>
</trkpt>
<trkpt lat="46.1025420" lon="10.5186260">
	<ele>2112.80</ele>
	<time>2023-08-07T05:12:23.000Z</time>
</trkpt>
<trkpt lat="46.1025470" lon="10.5186330">
	<ele>2112.80</ele>
	<time>2023-08-07T05:12:24.000Z</time>
</trkpt>
<trkpt lat="46.1025500" lon="10.5186420">
	<ele>2113.00</ele>
	<time>2023-08-07T05:12:25.000Z</time>
</trkpt>
<trkpt lat="46.1025520" lon="10.5186490">
	<ele>2113.20</ele>
	<time>2023-08-07T05:12:26.000Z</time>
</trkpt>
<trkpt lat="46.1025550" lon="10.5186560">
	<ele>2113.20</ele>
	<time>2023-08-07T05:12:27.000Z</time>
</trkpt>
<trkpt lat="46.1025570" lon="10.5186640">
	<ele>2113.40</ele>
	<time>2023-08-07T05:12:28.000Z</time>
</trkpt>
<trkpt lat="46.1025600" lon="10.5186740">
	<ele>2113.40</ele>
	<time>2023-08-07T05:12:29.000Z</time>
</trkpt>
<trkpt lat="46.1025610" lon="10.5186810">
	<ele>2113.40</ele>
	<time>2023-08-07T05:12:30.000Z</time>
</trkpt>
<trkpt lat="46.1025610" lon="10.5186890">
	<ele>2113.40</ele>
	<time>2023-08-07T05:12:31.000Z</time>
</trkpt>
<trkpt lat="46.1025630" lon="10.5186980">
	<ele>2113.60</ele>
	<time>2023-08-07T05:12:32.000Z</time>
</trkpt>
<trkpt lat="46.1025650" lon="10.5187090">
	<ele>2113.60</ele>
	<time>2023-08-07T05:12:33.000Z</time>
</trkpt>
<trkpt lat="46.1025690" lon="10.5187160">
	<ele>2113.60</ele>
	<time>2023-08-07T05:12:34.000Z</time>
</trkpt>
<trkpt lat="46.1025760" lon="10.5187230">
	<ele>2113.60</ele>
	<time>2023-08-07T05:12:35.000Z</time>
</trkpt>
<trkpt lat="46.1025810" lon="10.5187360">
	<ele>2113.60</ele>
	<time>2023-08-07T05:12:36.000Z</time>
</trkpt>
<trkpt lat="46.1025820" lon="10.5187470">
	<ele>2113.80</ele>
	<time>2023-08-07T05:12:37.000Z</time>
</trkpt>
<trkpt lat="46.1025840" lon="10.5187570">
	<ele>2114.00</ele>
	<time>2023-08-07T05:12:38.000Z</time>
</trkpt>
<trkpt lat="46.1025860" lon="10.5187700">
	<ele>2114.20</ele>
	<time>2023-08-07T05:12:39.000Z</time>
</trkpt>
<trkpt lat="46.1025880" lon="10.5187810">
	<ele>2114.40</ele>
	<time>2023-08-07T05:12:40.000Z</time>
</trkpt>
<trkpt lat="46.1025900" lon="10.5187910">
	<ele>2114.60</ele>
	<time>2023-08-07T05:12:41.000Z</time>
</trkpt>
<trkpt lat="46.1025910" lon="10.5188010">
	<ele>2114.80</ele>
	<time>2023-08-07T05:12:42.000Z</time>
</trkpt>
<trkpt lat="46.1025940" lon="10.5188100">
	<ele>2114.80</ele>
	<time>2023-08-07T05:12:43.000Z</time>
</trkpt>
<trkpt lat="46.1026010" lon="10.5188150">
	<ele>2115.00</ele>
	<time>2023-08-07T05:12:44.000Z</time>
</trkpt>
<trkpt lat="46.1026060" lon="10.5188210">
	<ele>2115.20</ele>
	<time>2023-08-07T05:12:45.000Z</time>
</trkpt>
<trkpt lat="46.1026100" lon="10.5188280">
	<ele>2115.20</ele>
	<time>2023-08-07T05:12:46.000Z</time>
</trkpt>
<trkpt lat="46.1026150" lon="10.5188340">
	<ele>2115.40</ele>
	<time>2023-08-07T05:12:47.000Z</time>
</trkpt>
<trkpt lat="46.1026180" lon="10.5188420">
	<ele>2115.40</ele>
	<time>2023-08-07T05:12:48.000Z</time>
</trkpt>
<trkpt lat="46.1026250" lon="10.5188490">
	<ele>2115.60</ele>
	<time>2023-08-07T05:12:49.000Z</time>
</trkpt>
<trkpt lat="46.1026320" lon="10.5188560">
	<ele>2115.60</ele>
	<time>2023-08-07T05:12:50.000Z</time>
</trkpt>
<trkpt lat="46.1026310" lon="10.5188700">
	<ele>2115.60</ele>
	<time>2023-08-07T05:12:51.000Z</time>
</trkpt>
<trkpt lat="46.1026370" lon="10.5188850">
	<ele>2115.60</ele>
	<time>2023-08-07T05:12:52.000Z</time>
</trkpt>
<trkpt lat="46.1026400" lon="10.5189010">
	<ele>2115.60</ele>
	<time>2023-08-07T05:12:53.000Z</time>
</trkpt>
<trkpt lat="46.1026420" lon="10.5189070">
	<ele>2115.60</ele>
	<time>2023-08-07T05:12:54.000Z</time>
</trkpt>
<trkpt lat="46.1026420" lon="10.5189090">
	<ele>2115.60</ele>
	<time>2023-08-07T05:12:55.000Z</time>
</trkpt>
<trkpt lat="46.1026430" lon="10.5189100">
	<ele>2115.60</ele>
	<time>2023-08-07T05:12:56.000Z</time>
</trkpt>
<trkpt lat="46.1026430" lon="10.5189090">
	<ele>2115.80</ele>
	<time>2023-08-07T05:12:57.000Z</time>
</trkpt>
<trkpt lat="46.1026440" lon="10.5189090">
	<ele>2116.00</ele>
	<time>2023-08-07T05:12:58.000Z</time>
</trkpt>
<trkpt lat="46.1026560" lon="10.5189100">
	<ele>2116.00</ele>
	<time>2023-08-07T05:12:59.000Z</time>
</trkpt>
<trkpt lat="46.1026580" lon="10.5189120">
	<ele>2116.20</ele>
	<time>2023-08-07T05:13:00.000Z</time>
</trkpt>
<trkpt lat="46.1026600" lon="10.5189130">
	<ele>2116.20</ele>
	<time>2023-08-07T05:13:01.000Z</time>
</trkpt>
<trkpt lat="46.1026620" lon="10.5189130">
	<ele>2116.20</ele>
	<time>2023-08-07T05:13:02.000Z</time>
</trkpt>
<trkpt lat="46.1026630" lon="10.5189130">
	<ele>2116.40</ele>
	<time>2023-08-07T05:13:03.000Z</time>
</trkpt>
<trkpt lat="46.1026650" lon="10.5189120">
	<ele>2116.20</ele>
	<time>2023-08-07T05:13:04.000Z</time>
</trkpt>
<trkpt lat="46.1026670" lon="10.5189140">
	<ele>2116.00</ele>
	<time>2023-08-07T05:13:05.000Z</time>
</trkpt>
<trkpt lat="46.1026690" lon="10.5189160">
	<ele>2115.80</ele>
	<time>2023-08-07T05:13:06.000Z</time>
</trkpt>
<trkpt lat="46.1026730" lon="10.5189160">
	<ele>2115.60</ele>
	<time>2023-08-07T05:13:07.000Z</time>
</trkpt>
<trkpt lat="46.1026770" lon="10.5189170">
	<ele>2115.60</ele>
	<time>2023-08-07T05:13:08.000Z</time>
</trkpt>
<trkpt lat="46.1026840" lon="10.5189170">
	<ele>2115.60</ele>
	<time>2023-08-07T05:13:09.000Z</time>
</trkpt>
<trkpt lat="46.1026880" lon="10.5189210">
	<ele>2115.60</ele>
	<time>2023-08-07T05:13:10.000Z</time>
</trkpt>
<trkpt lat="46.1026910" lon="10.5189260">
	<ele>2115.60</ele>
	<time>2023-08-07T05:13:11.000Z</time>
</trkpt>
<trkpt lat="46.1026910" lon="10.5189270">
	<ele>2115.60</ele>
	<time>2023-08-07T05:13:12.000Z</time>
</trkpt>
<trkpt lat="46.1026910" lon="10.5189270">
	<ele>2115.60</ele>
	<time>2023-08-07T05:13:13.000Z</time>
</trkpt>
<trkpt lat="46.1026890" lon="10.5189260">
	<ele>2115.60</ele>
	<time>2023-08-07T05:13:14.000Z</time>
</trkpt>
<trkpt lat="46.1026890" lon="10.5189250">
	<ele>2115.80</ele>
	<time>2023-08-07T05:13:15.000Z</time>
</trkpt>
<trkpt lat="46.1026890" lon="10.5189250">
	<ele>2115.80</ele>
	<time>2023-08-07T05:13:16.000Z</time>
</trkpt>
<trkpt lat="46.1026890" lon="10.5189250">
	<ele>2116.00</ele>
	<time>2023-08-07T05:13:17.000Z</time>
</trkpt>
<trkpt lat="46.1026890" lon="10.5189250">
	<ele>2116.00</ele>
	<time>2023-08-07T05:13:18.000Z</time>
</trkpt>
<trkpt lat="46.1026890" lon="10.5189250">
	<ele>2116.00</ele>
	<time>2023-08-07T05:13:19.000Z</time>
</trkpt>
<trkpt lat="46.1026890" lon="10.5189250">
	<ele>2116.00</ele>
	<time>2023-08-07T05:13:20.000Z</time>
</trkpt>
<trkpt lat="46.1026890" lon="10.5189250">
	<ele>2116.00</ele>
	<time>2023-08-07T05:13:21.000Z</time>
</trkpt>
<trkpt lat="46.1026890" lon="10.5189250">
	<ele>2116.00</ele>
	<time>2023-08-07T05:13:22.000Z</time>
</trkpt>
<trkpt lat="46.1026890" lon="10.5189250">
	<ele>2116.00</ele>
	<time>2023-08-07T05:13:23.000Z</time>
</trkpt>
<trkpt lat="46.1026890" lon="10.5189250">
	<ele>2116.20</ele>
	<time>2023-08-07T05:13:24.000Z</time>
</trkpt>
<trkpt lat="46.1026890" lon="10.5189250">
	<ele>2116.20</ele>
	<time>2023-08-07T05:13:25.000Z</time>
</trkpt>
<trkpt lat="46.1026890" lon="10.5189250">
	<ele>2116.00</ele>
	<time>2023-08-07T05:13:26.000Z</time>
</trkpt>
<trkpt lat="46.1026880" lon="10.5189250">
	<ele>2116.00</ele>
	<time>2023-08-07T05:13:27.000Z</time>
</trkpt>
<trkpt lat="46.1026880" lon="10.5189250">
	<ele>2116.00</ele>
	<time>2023-08-07T05:13:28.000Z</time>
</trkpt>
<trkpt lat="46.1026880" lon="10.5189250">
	<ele>2116.00</ele>
	<time>2023-08-07T05:13:29.000Z</time>
</trkpt>
<trkpt lat="46.1026880" lon="10.5189250">
	<ele>2116.00</ele>
	<time>2023-08-07T05:13:30.000Z</time>
</trkpt>
<trkpt lat="46.1026880" lon="10.5189250">
	<ele>2115.80</ele>
	<time>2023-08-07T05:13:31.000Z</time>
</trkpt>
<trkpt lat="46.1026920" lon="10.5189270">
	<ele>2115.80</ele>
	<time>2023-08-07T05:13:32.000Z</time>
</trkpt>
<trkpt lat="46.1026970" lon="10.5189410">
	<ele>2115.80</ele>
	<time>2023-08-07T05:13:33.000Z</time>
</trkpt>
<trkpt lat="46.1027030" lon="10.5189540">
	<ele>2115.80</ele>
	<time>2023-08-07T05:13:34.000Z</time>
</trkpt>
<trkpt lat="46.1027120" lon="10.5189680">
	<ele>2116.00</ele>
	<time>2023-08-07T05:13:35.000Z</time>
</trkpt>
<trkpt lat="46.1027190" lon="10.5189830">
	<ele>2116.20</ele>
	<time>2023-08-07T05:13:36.000Z</time>
</trkpt>
<trkpt lat="46.1027270" lon="10.5189970">
	<ele>2116.20</ele>
	<time>2023-08-07T05:13:37.000Z</time>
</trkpt>
<trkpt lat="46.1027340" lon="10.5190100">
	<ele>2116.20</ele>
	<time>2023-08-07T05:13:38.000Z</time>
</trkpt>
<trkpt lat="46.1027450" lon="10.5190190">
	<ele>2116.40</ele>
	<time>2023-08-07T05:13:39.000Z</time>
</trkpt>
<trkpt lat="46.1027580" lon="10.5190300">
	<ele>2116.40</ele>
	<time>2023-08-07T05:13:40.000Z</time>
</trkpt>
<trkpt lat="46.1027670" lon="10.5190430">
	<ele>2116.40</ele>
	<time>2023-08-07T05:13:41.000Z</time>
</trkpt>
<trkpt lat="46.1027700" lon="10.5190530">
	<ele>2116.40</ele>
	<time>2023-08-07T05:13:42.000Z</time>
</trkpt>
<trkpt lat="46.1027760" lon="10.5190620">
	<ele>2116.40</ele>
	<time>2023-08-07T05:13:43.000Z</time>
</trkpt>
<trkpt lat="46.1027800" lon="10.5190710">
	<ele>2116.40</ele>
	<time>2023-08-07T05:13:44.000Z</time>
</trkpt>
<trkpt lat="46.1027850" lon="10.5190770">
	<ele>2116.40</ele>
	<time>2023-08-07T05:13:45.000Z</time>
</trkpt>
<trkpt lat="46.1027920" lon="10.5190850">
	<ele>2116.40</ele>
	<time>2023-08-07T05:13:46.000Z</time>
</trkpt>
<trkpt lat="46.1028000" lon="10.5190950">
	<ele>2116.60</ele>
	<time>2023-08-07T05:13:47.000Z</time>
</trkpt>
<trkpt lat="46.1028060" lon="10.5191030">
	<ele>2116.60</ele>
	<time>2023-08-07T05:13:48.000Z</time>
</trkpt>
<trkpt lat="46.1028150" lon="10.5191110">
	<ele>2116.80</ele>
	<time>2023-08-07T05:13:49.000Z</time>
</trkpt>
<trkpt lat="46.1028220" lon="10.5191240">
	<ele>2116.80</ele>
	<time>2023-08-07T05:13:50.000Z</time>
</trkpt>
<trkpt lat="46.1028330" lon="10.5191330">
	<ele>2116.80</ele>
	<time>2023-08-07T05:13:51.000Z</time>
</trkpt>
<trkpt lat="46.1028430" lon="10.5191420">
	<ele>2116.80</ele>
	<time>2023-08-07T05:13:52.000Z</time>
</trkpt>
<trkpt lat="46.1028540" lon="10.5191510">
	<ele>2116.80</ele>
	<time>2023-08-07T05:13:53.000Z</time>
</trkpt>
<trkpt lat="46.1028630" lon="10.5191530">
	<ele>2116.80</ele>
	<time>2023-08-07T05:13:54.000Z</time>
</trkpt>
<trkpt lat="46.1028700" lon="10.5191540">
	<ele>2116.80</ele>
	<time>2023-08-07T05:13:55.000Z</time>
</trkpt>
<trkpt lat="46.1028780" lon="10.5191560">
	<ele>2116.80</ele>
	<time>2023-08-07T05:13:56.000Z</time>
</trkpt>
<trkpt lat="46.1028850" lon="10.5191580">
	<ele>2116.80</ele>
	<time>2023-08-07T05:13:57.000Z</time>
</trkpt>
<trkpt lat="46.1028900" lon="10.5191600">
	<ele>2116.80</ele>
	<time>2023-08-07T05:13:58.000Z</time>
</trkpt>
<trkpt lat="46.1028930" lon="10.5191600">
	<ele>2116.80</ele>
	<time>2023-08-07T05:13:59.000Z</time>
</trkpt>
<trkpt lat="46.1028950" lon="10.5191600">
	<ele>2116.80</ele>
	<time>2023-08-07T05:14:00.000Z</time>
</trkpt>
<trkpt lat="46.1028960" lon="10.5191620">
	<ele>2116.80</ele>
	<time>2023-08-07T05:14:01.000Z</time>
</trkpt>
<trkpt lat="46.1028960" lon="10.5191650">
	<ele>2116.80</ele>
	<time>2023-08-07T05:14:02.000Z</time>
</trkpt>
<trkpt lat="46.1028980" lon="10.5191660">
	<ele>2116.80</ele>
	<time>2023-08-07T05:14:03.000Z</time>
</trkpt>
<trkpt lat="46.1028990" lon="10.5191660">
	<ele>2116.80</ele>
	<time>2023-08-07T05:14:04.000Z</time>
</trkpt>
<trkpt lat="46.1028980" lon="10.5191660">
	<ele>2116.80</ele>
	<time>2023-08-07T05:14:05.000Z</time>
</trkpt>
<trkpt lat="46.1029000" lon="10.5191660">
	<ele>2116.80</ele>
	<time>2023-08-07T05:14:06.000Z</time>
</trkpt>
<trkpt lat="46.1029000" lon="10.5191660">
	<ele>2116.80</ele>
	<time>2023-08-07T05:14:07.000Z</time>
</trkpt>
<trkpt lat="46.1029010" lon="10.5191650">
	<ele>2116.80</ele>
	<time>2023-08-07T05:14:08.000Z</time>
</trkpt>
<trkpt lat="46.1029010" lon="10.5191650">
	<ele>2116.80</ele>
	<time>2023-08-07T05:14:09.000Z</time>
</trkpt>
<trkpt lat="46.1029010" lon="10.5191650">
	<ele>2116.80</ele>
	<time>2023-08-07T05:14:10.000Z</time>
</trkpt>
<trkpt lat="46.1029010" lon="10.5191650">
	<ele>2116.80</ele>
	<time>2023-08-07T05:14:11.000Z</time>
</trkpt>
<trkpt lat="46.1029010" lon="10.5191650">
	<ele>2116.80</ele>
	<time>2023-08-07T05:14:12.000Z</time>
</trkpt>
<trkpt lat="46.1029010" lon="10.5191650">
	<ele>2116.80</ele>
	<time>2023-08-07T05:14:13.000Z</time>
</trkpt>
<trkpt lat="46.1029010" lon="10.5191650">
	<ele>2116.80</ele>
	<time>2023-08-07T05:14:14.000Z</time>
</trkpt>
<trkpt lat="46.1029010" lon="10.5191650">
	<ele>2116.80</ele>
	<time>2023-08-07T05:14:15.000Z</time>
</trkpt>
<trkpt lat="46.1029010" lon="10.5191650">
	<ele>2116.80</ele>
	<time>2023-08-07T05:14:16.000Z</time>
</trkpt>
<trkpt lat="46.1029010" lon="10.5191650">
	<ele>2116.80</ele>
	<time>2023-08-07T05:14:17.000Z</time>
</trkpt>
<trkpt lat="46.1029010" lon="10.5191650">
	<ele>2116.80</ele>
	<time>2023-08-07T05:14:18.000Z</time>
</trkpt>
<trkpt lat="46.1029010" lon="10.5191650">
	<ele>2116.80</ele>
	<time>2023-08-07T05:14:19.000Z</time>
</trkpt>
<trkpt lat="46.1029010" lon="10.5191650">
	<ele>2116.80</ele>
	<time>2023-08-07T05:14:20.000Z</time>
</trkpt>
<trkpt lat="46.1029010" lon="10.5191650">
	<ele>2116.80</ele>
	<time>2023-08-07T05:14:21.000Z</time>
</trkpt>
<trkpt lat="46.1029010" lon="10.5191650">
	<ele>2116.80</ele>
	<time>2023-08-07T05:14:22.000Z</time>
</trkpt>
<trkpt lat="46.1029010" lon="10.5191650">
	<ele>2116.80</ele>
	<time>2023-08-07T05:14:23.000Z</time>
</trkpt>
<trkpt lat="46.1029010" lon="10.5191650">
	<ele>2116.80</ele>
	<time>2023-08-07T05:14:24.000Z</time>
</trkpt>
<trkpt lat="46.1029010" lon="10.5191660">
	<ele>2116.80</ele>
	<time>2023-08-07T05:14:25.000Z</time>
</trkpt>
<trkpt lat="46.1029010" lon="10.5191660">
	<ele>2116.80</ele>
	<time>2023-08-07T05:14:26.000Z</time>
</trkpt>
<trkpt lat="46.1029030" lon="10.5191660">
	<ele>2116.80</ele>
	<time>2023-08-07T05:14:27.000Z</time>
</trkpt>
<trkpt lat="46.1029050" lon="10.5191660">
	<ele>2116.80</ele>
	<time>2023-08-07T05:14:28.000Z</time>
</trkpt>
<trkpt lat="46.1029050" lon="10.5191660">
	<ele>2116.80</ele>
	<time>2023-08-07T05:14:29.000Z</time>
</trkpt>
<trkpt lat="46.1029050" lon="10.5191660">
	<ele>2116.80</ele>
	<time>2023-08-07T05:14:30.000Z</time>
</trkpt>
<trkpt lat="46.1029050" lon="10.5191660">
	<ele>2116.80</ele>
	<time>2023-08-07T05:14:31.000Z</time>
</trkpt>
<trkpt lat="46.1029050" lon="10.5191670">
	<ele>2116.80</ele>
	<time>2023-08-07T05:14:32.000Z</time>
</trkpt>
<trkpt lat="46.1029050" lon="10.5191670">
	<ele>2116.80</ele>
	<time>2023-08-07T05:14:33.000Z</time>
</trkpt>
<trkpt lat="46.1029050" lon="10.5191670">
	<ele>2116.80</ele>
	<time>2023-08-07T05:14:34.000Z</time>
</trkpt>
<trkpt lat="46.1029050" lon="10.5191680">
	<ele>2116.80</ele>
	<time>2023-08-07T05:14:35.000Z</time>
</trkpt>
<trkpt lat="46.1029050" lon="10.5191680">
	<ele>2116.80</ele>
	<time>2023-08-07T05:14:36.000Z</time>
</trkpt>
<trkpt lat="46.1029050" lon="10.5191680">
	<ele>2116.80</ele>
	<time>2023-08-07T05:14:37.000Z</time>
</trkpt>
<trkpt lat="46.1029050" lon="10.5191690">
	<ele>2116.80</ele>
	<time>2023-08-07T05:14:38.000Z</time>
</trkpt>
<trkpt lat="46.1029050" lon="10.5191700">
	<ele>2116.80</ele>
	<time>2023-08-07T05:14:39.000Z</time>
</trkpt>
<trkpt lat="46.1029050" lon="10.5191700">
	<ele>2116.80</ele>
	<time>2023-08-07T05:14:40.000Z</time>
</trkpt>
<trkpt lat="46.1029050" lon="10.5191700">
	<ele>2116.80</ele>
	<time>2023-08-07T05:14:41.000Z</time>
</trkpt>
<trkpt lat="46.1029050" lon="10.5191710">
	<ele>2116.80</ele>
	<time>2023-08-07T05:14:42.000Z</time>
</trkpt>
<trkpt lat="46.1029050" lon="10.5191710">
	<ele>2116.80</ele>
	<time>2023-08-07T05:14:43.000Z</time>
</trkpt>
<trkpt lat="46.1029040" lon="10.5191710">
	<ele>2116.80</ele>
	<time>2023-08-07T05:14:44.000Z</time>
</trkpt>
<trkpt lat="46.1029040" lon="10.5191710">
	<ele>2116.80</ele>
	<time>2023-08-07T05:14:45.000Z</time>
</trkpt>
<trkpt lat="46.1029030" lon="10.5191720">
	<ele>2116.80</ele>
	<time>2023-08-07T05:14:46.000Z</time>
</trkpt>
<trkpt lat="46.1029030" lon="10.5191740">
	<ele>2116.80</ele>
	<time>2023-08-07T05:14:47.000Z</time>
</trkpt>
<trkpt lat="46.1029030" lon="10.5191760">
	<ele>2116.80</ele>
	<time>2023-08-07T05:14:48.000Z</time>
</trkpt>
<trkpt lat="46.1029030" lon="10.5191770">
	<ele>2116.80</ele>
	<time>2023-08-07T05:14:49.000Z</time>
</trkpt>
<trkpt lat="46.1029030" lon="10.5191800">
	<ele>2116.80</ele>
	<time>2023-08-07T05:14:50.000Z</time>
</trkpt>
<trkpt lat="46.1029030" lon="10.5191820">
	<ele>2116.80</ele>
	<time>2023-08-07T05:14:51.000Z</time>
</trkpt>
<trkpt lat="46.1029020" lon="10.5191830">
	<ele>2116.80</ele>
	<time>2023-08-07T05:14:52.000Z</time>
</trkpt>
<trkpt lat="46.1029020" lon="10.5191850">
	<ele>2116.80</ele>
	<time>2023-08-07T05:14:53.000Z</time>
</trkpt>
<trkpt lat="46.1029020" lon="10.5191860">
	<ele>2116.80</ele>
	<time>2023-08-07T05:14:54.000Z</time>
</trkpt>
<trkpt lat="46.1029020" lon="10.5191870">
	<ele>2116.80</ele>
	<time>2023-08-07T05:14:55.000Z</time>
</trkpt>
<trkpt lat="46.1029010" lon="10.5191880">
	<ele>2116.80</ele>
	<time>2023-08-07T05:14:56.000Z</time>
</trkpt>
<trkpt lat="46.1029010" lon="10.5191890">
	<ele>2116.80</ele>
	<time>2023-08-07T05:14:57.000Z</time>
</trkpt>
<trkpt lat="46.1029010" lon="10.5191890">
	<ele>2116.80</ele>
	<time>2023-08-07T05:14:58.000Z</time>
</trkpt>
<trkpt lat="46.1029010" lon="10.5191890">
	<ele>2116.80</ele>
	<time>2023-08-07T05:14:59.000Z</time>
</trkpt>
<trkpt lat="46.1029010" lon="10.5191890">
	<ele>2116.80</ele>
	<time>2023-08-07T05:15:00.000Z</time>
</trkpt>
<trkpt lat="46.1029010" lon="10.5191890">
	<ele>2116.80</ele>
	<time>2023-08-07T05:15:01.000Z</time>
</trkpt>
<trkpt lat="46.1029010" lon="10.5191890">
	<ele>2116.80</ele>
	<time>2023-08-07T05:15:02.000Z</time>
</trkpt>
<trkpt lat="46.1029010" lon="10.5191890">
	<ele>2116.80</ele>
	<time>2023-08-07T05:15:03.000Z</time>
</trkpt>
<trkpt lat="46.1029010" lon="10.5191890">
	<ele>2116.80</ele>
	<time>2023-08-07T05:15:04.000Z</time>
</trkpt>
<trkpt lat="46.1029010" lon="10.5191890">
	<ele>2116.80</ele>
	<time>2023-08-07T05:15:05.000Z</time>
</trkpt>
<trkpt lat="46.1029010" lon="10.5191890">
	<ele>2116.80</ele>
	<time>2023-08-07T05:15:06.000Z</time>
</trkpt>
<trkpt lat="46.1029010" lon="10.5191890">
	<ele>2116.80</ele>
	<time>2023-08-07T05:15:07.000Z</time>
</trkpt>
<trkpt lat="46.1029010" lon="10.5191900">
	<ele>2116.80</ele>
	<time>2023-08-07T05:15:08.000Z</time>
</trkpt>
<trkpt lat="46.1029010" lon="10.5191900">
	<ele>2116.80</ele>
	<time>2023-08-07T05:15:09.000Z</time>
</trkpt>
<trkpt lat="46.1029010" lon="10.5191900">
	<ele>2116.80</ele>
	<time>2023-08-07T05:15:10.000Z</time>
</trkpt>
<trkpt lat="46.1029010" lon="10.5191900">
	<ele>2116.80</ele>
	<time>2023-08-07T05:15:11.000Z</time>
</trkpt>
<trkpt lat="46.1029010" lon="10.5191900">
	<ele>2116.80</ele>
	<time>2023-08-07T05:15:12.000Z</time>
</trkpt>
<trkpt lat="46.1029010" lon="10.5191900">
	<ele>2116.80</ele>
	<time>2023-08-07T05:15:13.000Z</time>
</trkpt>
<trkpt lat="46.1029010" lon="10.5191890">
	<ele>2116.80</ele>
	<time>2023-08-07T05:15:14.000Z</time>
</trkpt>
<trkpt lat="46.1029010" lon="10.5191890">
	<ele>2116.80</ele>
	<time>2023-08-07T05:15:15.000Z</time>
</trkpt>
<trkpt lat="46.1029020" lon="10.5191890">
	<ele>2116.80</ele>
	<time>2023-08-07T05:15:16.000Z</time>
</trkpt>
<trkpt lat="46.1029020" lon="10.5191890">
	<ele>2116.80</ele>
	<time>2023-08-07T05:15:17.000Z</time>
</trkpt>
<trkpt lat="46.1029020" lon="10.5191890">
	<ele>2116.80</ele>
	<time>2023-08-07T05:15:18.000Z</time>
</trkpt>
<trkpt lat="46.1029020" lon="10.5191880">
	<ele>2116.80</ele>
	<time>2023-08-07T05:15:19.000Z</time>
</trkpt>
<trkpt lat="46.1029030" lon="10.5191880">
	<ele>2116.80</ele>
	<time>2023-08-07T05:15:20.000Z</time>
</trkpt>
<trkpt lat="46.1029030" lon="10.5191880">
	<ele>2116.80</ele>
	<time>2023-08-07T05:15:21.000Z</time>
</trkpt>
<trkpt lat="46.1029030" lon="10.5191870">
	<ele>2116.80</ele>
	<time>2023-08-07T05:15:22.000Z</time>
</trkpt>
<trkpt lat="46.1029040" lon="10.5191860">
	<ele>2116.80</ele>
	<time>2023-08-07T05:15:23.000Z</time>
</trkpt>
<trkpt lat="46.1029040" lon="10.5191860">
	<ele>2116.80</ele>
	<time>2023-08-07T05:15:24.000Z</time>
</trkpt>
<trkpt lat="46.1029040" lon="10.5191850">
	<ele>2116.80</ele>
	<time>2023-08-07T05:15:25.000Z</time>
</trkpt>
<trkpt lat="46.1029040" lon="10.5191850">
	<ele>2116.80</ele>
	<time>2023-08-07T05:15:26.000Z</time>
</trkpt>
<trkpt lat="46.1029040" lon="10.5191850">
	<ele>2116.80</ele>
	<time>2023-08-07T05:15:27.000Z</time>
</trkpt>
<trkpt lat="46.1029040" lon="10.5191840">
	<ele>2116.80</ele>
	<time>2023-08-07T05:15:28.000Z</time>
</trkpt>
<trkpt lat="46.1029040" lon="10.5191840">
	<ele>2116.80</ele>
	<time>2023-08-07T05:15:29.000Z</time>
</trkpt>
<trkpt lat="46.1029040" lon="10.5191840">
	<ele>2116.80</ele>
	<time>2023-08-07T05:15:30.000Z</time>
</trkpt>
<trkpt lat="46.1029060" lon="10.5191850">
	<ele>2116.80</ele>
	<time>2023-08-07T05:15:31.000Z</time>
</trkpt>
<trkpt lat="46.1029080" lon="10.5191850">
	<ele>2116.80</ele>
	<time>2023-08-07T05:15:32.000Z</time>
</trkpt>
<trkpt lat="46.1029090" lon="10.5191850">
	<ele>2116.80</ele>
	<time>2023-08-07T05:15:33.000Z</time>
</trkpt>
<trkpt lat="46.1029130" lon="10.5191850">
	<ele>2116.80</ele>
	<time>2023-08-07T05:15:34.000Z</time>
</trkpt>
<trkpt lat="46.1029150" lon="10.5191850">
	<ele>2116.80</ele>
	<time>2023-08-07T05:15:35.000Z</time>
</trkpt>
<trkpt lat="46.1029200" lon="10.5191850">
	<ele>2116.80</ele>
	<time>2023-08-07T05:15:36.000Z</time>
</trkpt>
<trkpt lat="46.1029220" lon="10.5191850">
	<ele>2116.80</ele>
	<time>2023-08-07T05:15:37.000Z</time>
</trkpt>
<trkpt lat="46.1029240" lon="10.5191850">
	<ele>2116.80</ele>
	<time>2023-08-07T05:15:38.000Z</time>
</trkpt>
<trkpt lat="46.1029260" lon="10.5191850">
	<ele>2116.80</ele>
	<time>2023-08-07T05:15:39.000Z</time>
</trkpt>
<trkpt lat="46.1029270" lon="10.5191850">
	<ele>2116.80</ele>
	<time>2023-08-07T05:15:40.000Z</time>
</trkpt>
<trkpt lat="46.1029280" lon="10.5191850">
	<ele>2116.80</ele>
	<time>2023-08-07T05:15:41.000Z</time>
</trkpt>
<trkpt lat="46.1029280" lon="10.5191850">
	<ele>2116.80</ele>
	<time>2023-08-07T05:15:42.000Z</time>
</trkpt>
<trkpt lat="46.1029290" lon="10.5191850">
	<ele>2116.80</ele>
	<time>2023-08-07T05:15:43.000Z</time>
</trkpt>
<trkpt lat="46.1029300" lon="10.5191840">
	<ele>2116.80</ele>
	<time>2023-08-07T05:15:44.000Z</time>
</trkpt>
<trkpt lat="46.1029300" lon="10.5191840">
	<ele>2116.80</ele>
	<time>2023-08-07T05:15:45.000Z</time>
</trkpt>
<trkpt lat="46.1029300" lon="10.5191840">
	<ele>2116.80</ele>
	<time>2023-08-07T05:15:46.000Z</time>
</trkpt>
<trkpt lat="46.1029300" lon="10.5191840">
	<ele>2116.80</ele>
	<time>2023-08-07T05:15:47.000Z</time>
</trkpt>
<trkpt lat="46.1029300" lon="10.5191840">
	<ele>2116.80</ele>
	<time>2023-08-07T05:15:48.000Z</time>
</trkpt>
<trkpt lat="46.1029300" lon="10.5191840">
	<ele>2116.80</ele>
	<time>2023-08-07T05:15:49.000Z</time>
</trkpt>
<trkpt lat="46.1029300" lon="10.5191840">
	<ele>2116.80</ele>
	<time>2023-08-07T05:15:50.000Z</time>
</trkpt>
<trkpt lat="46.1029300" lon="10.5191840">
	<ele>2116.80</ele>
	<time>2023-08-07T05:15:51.000Z</time>
</trkpt>
<trkpt lat="46.1029300" lon="10.5191840">
	<ele>2116.80</ele>
	<time>2023-08-07T05:15:52.000Z</time>
</trkpt>
<trkpt lat="46.1029300" lon="10.5191840">
	<ele>2116.80</ele>
	<time>2023-08-07T05:15:53.000Z</time>
</trkpt>
<trkpt lat="46.1029300" lon="10.5191840">
	<ele>2116.80</ele>
	<time>2023-08-07T05:15:54.000Z</time>
</trkpt>
<trkpt lat="46.1029310" lon="10.5191840">
	<ele>2116.80</ele>
	<time>2023-08-07T05:15:55.000Z</time>
</trkpt>
<trkpt lat="46.1029310" lon="10.5191840">
	<ele>2116.80</ele>
	<time>2023-08-07T05:15:56.000Z</time>
</trkpt>
<trkpt lat="46.1029310" lon="10.5191820">
	<ele>2116.80</ele>
	<time>2023-08-07T05:15:57.000Z</time>
</trkpt>
<trkpt lat="46.1029310" lon="10.5191810">
	<ele>2116.80</ele>
	<time>2023-08-07T05:15:58.000Z</time>
</trkpt>
<trkpt lat="46.1029310" lon="10.5191790">
	<ele>2116.80</ele>
	<time>2023-08-07T05:15:59.000Z</time>
</trkpt>
<trkpt lat="46.1029310" lon="10.5191780">
	<ele>2116.80</ele>
	<time>2023-08-07T05:16:00.000Z</time>
</trkpt>
<trkpt lat="46.1029310" lon="10.5191770">
	<ele>2116.80</ele>
	<time>2023-08-07T05:16:01.000Z</time>
</trkpt>
<trkpt lat="46.1029310" lon="10.5191760">
	<ele>2116.80</ele>
	<time>2023-08-07T05:16:02.000Z</time>
</trkpt>
<trkpt lat="46.1029320" lon="10.5191760">
	<ele>2116.80</ele>
	<time>2023-08-07T05:16:03.000Z</time>
</trkpt>
<trkpt lat="46.1029320" lon="10.5191750">
	<ele>2116.80</ele>
	<time>2023-08-07T05:16:04.000Z</time>
</trkpt>
<trkpt lat="46.1029320" lon="10.5191740">
	<ele>2116.80</ele>
	<time>2023-08-07T05:16:05.000Z</time>
</trkpt>
<trkpt lat="46.1029320" lon="10.5191740">
	<ele>2116.80</ele>
	<time>2023-08-07T05:16:06.000Z</time>
</trkpt>
<trkpt lat="46.1029320" lon="10.5191730">
	<ele>2116.80</ele>
	<time>2023-08-07T05:16:07.000Z</time>
</trkpt>
<trkpt lat="46.1029320" lon="10.5191720">
	<ele>2116.80</ele>
	<time>2023-08-07T05:16:08.000Z</time>
</trkpt>
<trkpt lat="46.1029320" lon="10.5191710">
	<ele>2116.80</ele>
	<time>2023-08-07T05:16:09.000Z</time>
</trkpt>
<trkpt lat="46.1029320" lon="10.5191700">
	<ele>2116.80</ele>
	<time>2023-08-07T05:16:10.000Z</time>
</trkpt>
<trkpt lat="46.1029320" lon="10.5191700">
	<ele>2116.80</ele>
	<time>2023-08-07T05:16:11.000Z</time>
</trkpt>
<trkpt lat="46.1029330" lon="10.5191700">
	<ele>2116.80</ele>
	<time>2023-08-07T05:16:12.000Z</time>
</trkpt>
<trkpt lat="46.1029330" lon="10.5191690">
	<ele>2116.80</ele>
	<time>2023-08-07T05:16:13.000Z</time>
</trkpt>
<trkpt lat="46.1029330" lon="10.5191690">
	<ele>2116.80</ele>
	<time>2023-08-07T05:16:14.000Z</time>
</trkpt>
<trkpt lat="46.1029340" lon="10.5191690">
	<ele>2116.80</ele>
	<time>2023-08-07T05:16:15.000Z</time>
</trkpt>
<trkpt lat="46.1029340" lon="10.5191690">
	<ele>2116.80</ele>
	<time>2023-08-07T05:16:16.000Z</time>
</trkpt>
<trkpt lat="46.1029350" lon="10.5191690">
	<ele>2116.80</ele>
	<time>2023-08-07T05:16:17.000Z</time>
</trkpt>
<trkpt lat="46.1029370" lon="10.5191730">
	<ele>2116.80</ele>
	<time>2023-08-07T05:16:18.000Z</time>
</trkpt>
<trkpt lat="46.1029440" lon="10.5191950">
	<ele>2116.80</ele>
	<time>2023-08-07T05:16:19.000Z</time>
</trkpt>
<trkpt lat="46.1029490" lon="10.5192120">
	<ele>2116.80</ele>
	<time>2023-08-07T05:16:20.000Z</time>
</trkpt>
<trkpt lat="46.1029540" lon="10.5192300">
	<ele>2116.80</ele>
	<time>2023-08-07T05:16:21.000Z</time>
</trkpt>
<trkpt lat="46.1029590" lon="10.5192500">
	<ele>2116.80</ele>
	<time>2023-08-07T05:16:22.000Z</time>
</trkpt>
<trkpt lat="46.1029630" lon="10.5192720">
	<ele>2116.80</ele>
	<time>2023-08-07T05:16:23.000Z</time>
</trkpt>
<trkpt lat="46.1029660" lon="10.5192940">
	<ele>2116.80</ele>
	<time>2023-08-07T05:16:24.000Z</time>
</trkpt>
<trkpt lat="46.1029720" lon="10.5193120">
	<ele>2116.80</ele>
	<time>2023-08-07T05:16:25.000Z</time>
</trkpt>
<trkpt lat="46.1029800" lon="10.5193260">
	<ele>2116.80</ele>
	<time>2023-08-07T05:16:26.000Z</time>
</trkpt>
<trkpt lat="46.1029900" lon="10.5193400">
	<ele>2116.80</ele>
	<time>2023-08-07T05:16:27.000Z</time>
</trkpt>
<trkpt lat="46.1029960" lon="10.5193480">
	<ele>2116.80</ele>
	<time>2023-08-07T05:16:28.000Z</time>
</trkpt>
<trkpt lat="46.1030060" lon="10.5193570">
	<ele>2116.80</ele>
	<time>2023-08-07T05:16:29.000Z</time>
</trkpt>
<trkpt lat="46.1030130" lon="10.5193700">
	<ele>2116.80</ele>
	<time>2023-08-07T05:16:30.000Z</time>
</trkpt>
<trkpt lat="46.1030210" lon="10.5193820">
	<ele>2116.80</ele>
	<time>2023-08-07T05:16:31.000Z</time>
</trkpt>
<trkpt lat="46.1030320" lon="10.5193900">
	<ele>2116.80</ele>
	<time>2023-08-07T05:16:32.000Z</time>
</trkpt>
<trkpt lat="46.1030420" lon="10.5193990">
	<ele>2116.80</ele>
	<time>2023-08-07T05:16:33.000Z</time>
</trkpt>
<trkpt lat="46.1030510" lon="10.5194070">
	<ele>2116.80</ele>
	<time>2023-08-07T05:16:34.000Z</time>
</trkpt>
<trkpt lat="46.1030590" lon="10.5194150">
	<ele>2116.80</ele>
	<time>2023-08-07T05:16:35.000Z</time>
</trkpt>
<trkpt lat="46.1030670" lon="10.5194230">
	<ele>2116.20</ele>
	<time>2023-08-07T05:16:36.000Z</time>
</trkpt>
<trkpt lat="46.1030750" lon="10.5194320">
	<ele>2116.00</ele>
	<time>2023-08-07T05:16:37.000Z</time>
</trkpt>
<trkpt lat="46.1030870" lon="10.5194400">
	<ele>2115.60</ele>
	<time>2023-08-07T05:16:38.000Z</time>
</trkpt>
<trkpt lat="46.1030980" lon="10.5194520">
	<ele>2115.40</ele>
	<time>2023-08-07T05:16:39.000Z</time>
</trkpt>
<trkpt lat="46.1031060" lon="10.5194660">
	<ele>2115.40</ele>
	<time>2023-08-07T05:16:40.000Z</time>
</trkpt>
<trkpt lat="46.1031120" lon="10.5194760">
	<ele>2115.40</ele>
	<time>2023-08-07T05:16:41.000Z</time>
</trkpt>
<trkpt lat="46.1031170" lon="10.5194860">
	<ele>2115.40</ele>
	<time>2023-08-07T05:16:42.000Z</time>
</trkpt>
<trkpt lat="46.1031210" lon="10.5194940">
	<ele>2115.40</ele>
	<time>2023-08-07T05:16:43.000Z</time>
</trkpt>
<trkpt lat="46.1031280" lon="10.5195010">
	<ele>2115.40</ele>
	<time>2023-08-07T05:16:44.000Z</time>
</trkpt>
<trkpt lat="46.1031360" lon="10.5195070">
	<ele>2115.20</ele>
	<time>2023-08-07T05:16:45.000Z</time>
</trkpt>
<trkpt lat="46.1031420" lon="10.5195160">
	<ele>2115.20</ele>
	<time>2023-08-07T05:16:46.000Z</time>
</trkpt>
<trkpt lat="46.1031480" lon="10.5195250">
	<ele>2115.00</ele>
	<time>2023-08-07T05:16:47.000Z</time>
</trkpt>
<trkpt lat="46.1031520" lon="10.5195380">
	<ele>2114.80</ele>
	<time>2023-08-07T05:16:48.000Z</time>
</trkpt>
<trkpt lat="46.1031540" lon="10.5195560">
	<ele>2114.80</ele>
	<time>2023-08-07T05:16:49.000Z</time>
</trkpt>
<trkpt lat="46.1031560" lon="10.5195720">
	<ele>2114.80</ele>
	<time>2023-08-07T05:16:50.000Z</time>
</trkpt>
<trkpt lat="46.1031600" lon="10.5195900">
	<ele>2114.80</ele>
	<time>2023-08-07T05:16:51.000Z</time>
</trkpt>
<trkpt lat="46.1031670" lon="10.5196050">
	<ele>2114.80</ele>
	<time>2023-08-07T05:16:52.000Z</time>
</trkpt>
<trkpt lat="46.1031720" lon="10.5196140">
	<ele>2114.60</ele>
	<time>2023-08-07T05:16:53.000Z</time>
</trkpt>
<trkpt lat="46.1031790" lon="10.5196210">
	<ele>2114.60</ele>
	<time>2023-08-07T05:16:54.000Z</time>
</trkpt>
<trkpt lat="46.1031860" lon="10.5196330">
	<ele>2114.60</ele>
	<time>2023-08-07T05:16:55.000Z</time>
</trkpt>
<trkpt lat="46.1031920" lon="10.5196450">
	<ele>2114.60</ele>
	<time>2023-08-07T05:16:56.000Z</time>
</trkpt>
<trkpt lat="46.1032000" lon="10.5196530">
	<ele>2114.60</ele>
	<time>2023-08-07T05:16:57.000Z</time>
</trkpt>
<trkpt lat="46.1032110" lon="10.5196640">
	<ele>2114.60</ele>
	<time>2023-08-07T05:16:58.000Z</time>
</trkpt>
<trkpt lat="46.1032210" lon="10.5196780">
	<ele>2114.60</ele>
	<time>2023-08-07T05:16:59.000Z</time>
</trkpt>
<trkpt lat="46.1032330" lon="10.5196910">
	<ele>2114.60</ele>
	<time>2023-08-07T05:17:00.000Z</time>
</trkpt>
<trkpt lat="46.1032470" lon="10.5196960">
	<ele>2114.60</ele>
	<time>2023-08-07T05:17:01.000Z</time>
</trkpt>
<trkpt lat="46.1032530" lon="10.5197010">
	<ele>2114.40</ele>
	<time>2023-08-07T05:17:02.000Z</time>
</trkpt>
<trkpt lat="46.1032580" lon="10.5197080">
	<ele>2114.40</ele>
	<time>2023-08-07T05:17:03.000Z</time>
</trkpt>
<trkpt lat="46.1032640" lon="10.5197140">
	<ele>2114.40</ele>
	<time>2023-08-07T05:17:04.000Z</time>
</trkpt>
<trkpt lat="46.1032710" lon="10.5197210">
	<ele>2114.20</ele>
	<time>2023-08-07T05:17:05.000Z</time>
</trkpt>
<trkpt lat="46.1032760" lon="10.5197330">
	<ele>2114.20</ele>
	<time>2023-08-07T05:17:06.000Z</time>
</trkpt>
<trkpt lat="46.1032790" lon="10.5197420">
	<ele>2114.00</ele>
	<time>2023-08-07T05:17:07.000Z</time>
</trkpt>
<trkpt lat="46.1032840" lon="10.5197490">
	<ele>2113.80</ele>
	<time>2023-08-07T05:17:08.000Z</time>
</trkpt>
<trkpt lat="46.1032870" lon="10.5197590">
	<ele>2113.80</ele>
	<time>2023-08-07T05:17:09.000Z</time>
</trkpt>
<trkpt lat="46.1032940" lon="10.5197770">
	<ele>2113.80</ele>
	<time>2023-08-07T05:17:10.000Z</time>
</trkpt>
<trkpt lat="46.1032980" lon="10.5197890">
	<ele>2113.80</ele>
	<time>2023-08-07T05:17:11.000Z</time>
</trkpt>
<trkpt lat="46.1033050" lon="10.5198000">
	<ele>2113.60</ele>
	<time>2023-08-07T05:17:12.000Z</time>
</trkpt>
<trkpt lat="46.1033130" lon="10.5198120">
	<ele>2113.60</ele>
	<time>2023-08-07T05:17:13.000Z</time>
</trkpt>
<trkpt lat="46.1033210" lon="10.5198230">
	<ele>2113.40</ele>
	<time>2023-08-07T05:17:14.000Z</time>
</trkpt>
<trkpt lat="46.1033290" lon="10.5198360">
	<ele>2113.40</ele>
	<time>2023-08-07T05:17:15.000Z</time>
</trkpt>
<trkpt lat="46.1033350" lon="10.5198440">
	<ele>2113.20</ele>
	<time>2023-08-07T05:17:16.000Z</time>
</trkpt>
<trkpt lat="46.1033430" lon="10.5198500">
	<ele>2113.20</ele>
	<time>2023-08-07T05:17:17.000Z</time>
</trkpt>
<trkpt lat="46.1033510" lon="10.5198580">
	<ele>2113.20</ele>
	<time>2023-08-07T05:17:18.000Z</time>
</trkpt>
<trkpt lat="46.1033580" lon="10.5198710">
	<ele>2113.20</ele>
	<time>2023-08-07T05:17:19.000Z</time>
</trkpt>
<trkpt lat="46.1033620" lon="10.5198870">
	<ele>2113.40</ele>
	<time>2023-08-07T05:17:20.000Z</time>
</trkpt>
<trkpt lat="46.1033680" lon="10.5198980">
	<ele>2113.40</ele>
	<time>2023-08-07T05:17:21.000Z</time>
</trkpt>
<trkpt lat="46.1033750" lon="10.5199090">
	<ele>2113.40</ele>
	<time>2023-08-07T05:17:22.000Z</time>
</trkpt>
<trkpt lat="46.1033830" lon="10.5199220">
	<ele>2113.60</ele>
	<time>2023-08-07T05:17:23.000Z</time>
</trkpt>
<trkpt lat="46.1033900" lon="10.5199310">
	<ele>2113.60</ele>
	<time>2023-08-07T05:17:24.000Z</time>
</trkpt>
<trkpt lat="46.1033970" lon="10.5199410">
	<ele>2113.80</ele>
	<time>2023-08-07T05:17:25.000Z</time>
</trkpt>
<trkpt lat="46.1034040" lon="10.5199510">
	<ele>2113.80</ele>
	<time>2023-08-07T05:17:26.000Z</time>
</trkpt>
<trkpt lat="46.1034040" lon="10.5199630">
	<ele>2113.80</ele>
	<time>2023-08-07T05:17:27.000Z</time>
</trkpt>
<trkpt lat="46.1034070" lon="10.5199760">
	<ele>2113.80</ele>
	<time>2023-08-07T05:17:28.000Z</time>
</trkpt>
<trkpt lat="46.1034100" lon="10.5199860">
	<ele>2114.00</ele>
	<time>2023-08-07T05:17:29.000Z</time>
</trkpt>
<trkpt lat="46.1034160" lon="10.5199960">
	<ele>2114.00</ele>
	<time>2023-08-07T05:17:30.000Z</time>
</trkpt>
<trkpt lat="46.1034220" lon="10.5200080">
	<ele>2114.00</ele>
	<time>2023-08-07T05:17:31.000Z</time>
</trkpt>
<trkpt lat="46.1034310" lon="10.5200200">
	<ele>2114.00</ele>
	<time>2023-08-07T05:17:32.000Z</time>
</trkpt>
<trkpt lat="46.1034400" lon="10.5200310">
	<ele>2114.00</ele>
	<time>2023-08-07T05:17:33.000Z</time>
</trkpt>
<trkpt lat="46.1034510" lon="10.5200360">
	<ele>2114.20</ele>
	<time>2023-08-07T05:17:34.000Z</time>
</trkpt>
<trkpt lat="46.1034630" lon="10.5200430">
	<ele>2114.00</ele>
	<time>2023-08-07T05:17:35.000Z</time>
</trkpt>
<trkpt lat="46.1034760" lon="10.5200510">
	<ele>2114.00</ele>
	<time>2023-08-07T05:17:36.000Z</time>
</trkpt>
<trkpt lat="46.1034870" lon="10.5200650">
	<ele>2114.00</ele>
	<time>2023-08-07T05:17:37.000Z</time>
</trkpt>
<trkpt lat="46.1034950" lon="10.5200780">
	<ele>2114.00</ele>
	<time>2023-08-07T05:17:38.000Z</time>
</trkpt>
<trkpt lat="46.1035060" lon="10.5200850">
	<ele>2114.00</ele>
	<time>2023-08-07T05:17:39.000Z</time>
</trkpt>
<trkpt lat="46.1035190" lon="10.5200870">
	<ele>2113.80</ele>
	<time>2023-08-07T05:17:40.000Z</time>
</trkpt>
<trkpt lat="46.1035280" lon="10.5200860">
	<ele>2113.80</ele>
	<time>2023-08-07T05:17:41.000Z</time>
</trkpt>
<trkpt lat="46.1035360" lon="10.5200890">
	<ele>2113.80</ele>
	<time>2023-08-07T05:17:42.000Z</time>
</trkpt>
<trkpt lat="46.1035450" lon="10.5200960">
	<ele>2113.80</ele>
	<time>2023-08-07T05:17:43.000Z</time>
</trkpt>
<trkpt lat="46.1035510" lon="10.5201080">
	<ele>2113.80</ele>
	<time>2023-08-07T05:17:44.000Z</time>
</trkpt>
<trkpt lat="46.1035580" lon="10.5201230">
	<ele>2113.80</ele>
	<time>2023-08-07T05:17:45.000Z</time>
</trkpt>
<trkpt lat="46.1035590" lon="10.5201340">
	<ele>2114.00</ele>
	<time>2023-08-07T05:17:46.000Z</time>
</trkpt>
<trkpt lat="46.1035620" lon="10.5201470">
	<ele>2114.00</ele>
	<time>2023-08-07T05:17:47.000Z</time>
</trkpt>
<trkpt lat="46.1035660" lon="10.5201560">
	<ele>2114.20</ele>
	<time>2023-08-07T05:17:48.000Z</time>
</trkpt>
<trkpt lat="46.1035710" lon="10.5201680">
	<ele>2114.20</ele>
	<time>2023-08-07T05:17:49.000Z</time>
</trkpt>
<trkpt lat="46.1035810" lon="10.5201770">
	<ele>2114.20</ele>
	<time>2023-08-07T05:17:50.000Z</time>
</trkpt>
<trkpt lat="46.1035920" lon="10.5201870">
	<ele>2114.00</ele>
	<time>2023-08-07T05:17:51.000Z</time>
</trkpt>
<trkpt lat="46.1036030" lon="10.5201980">
	<ele>2114.00</ele>
	<time>2023-08-07T05:17:52.000Z</time>
</trkpt>
<trkpt lat="46.1036100" lon="10.5202060">
	<ele>2113.80</ele>
	<time>2023-08-07T05:17:53.000Z</time>
</trkpt>
<trkpt lat="46.1036200" lon="10.5202150">
	<ele>2113.60</ele>
	<time>2023-08-07T05:17:54.000Z</time>
</trkpt>
<trkpt lat="46.1036340" lon="10.5202220">
	<ele>2113.60</ele>
	<time>2023-08-07T05:17:55.000Z</time>
</trkpt>
<trkpt lat="46.1036440" lon="10.5202300">
	<ele>2113.40</ele>
	<time>2023-08-07T05:17:56.000Z</time>
</trkpt>
<trkpt lat="46.1036540" lon="10.5202370">
	<ele>2113.40</ele>
	<time>2023-08-07T05:17:57.000Z</time>
</trkpt>
<trkpt lat="46.1036640" lon="10.5202430">
	<ele>2113.40</ele>
	<time>2023-08-07T05:17:58.000Z</time>
</trkpt>
<trkpt lat="46.1036730" lon="10.5202500">
	<ele>2113.40</ele>
	<time>2023-08-07T05:17:59.000Z</time>
</trkpt>
<trkpt lat="46.1036800" lon="10.5202600">
	<ele>2113.60</ele>
	<time>2023-08-07T05:18:00.000Z</time>
</trkpt>
<trkpt lat="46.1036880" lon="10.5202660">
	<ele>2113.60</ele>
	<time>2023-08-07T05:18:01.000Z</time>
</trkpt>
<trkpt lat="46.1036930" lon="10.5202740">
	<ele>2113.60</ele>
	<time>2023-08-07T05:18:02.000Z</time>
</trkpt>
<trkpt lat="46.1036930" lon="10.5202840">
	<ele>2113.40</ele>
	<time>2023-08-07T05:18:03.000Z</time>
</trkpt>
<trkpt lat="46.1036940" lon="10.5202970">
	<ele>2113.40</ele>
	<time>2023-08-07T05:18:04.000Z</time>
</trkpt>
<trkpt lat="46.1036950" lon="10.5203030">
	<ele>2113.40</ele>
	<time>2023-08-07T05:18:05.000Z</time>
</trkpt>
<trkpt lat="46.1036970" lon="10.5203100">
	<ele>2113.40</ele>
	<time>2023-08-07T05:18:06.000Z</time>
</trkpt>
<trkpt lat="46.1037020" lon="10.5203170">
	<ele>2113.20</ele>
	<time>2023-08-07T05:18:07.000Z</time>
</trkpt>
<trkpt lat="46.1037100" lon="10.5203230">
	<ele>2113.20</ele>
	<time>2023-08-07T05:18:08.000Z</time>
</trkpt>
<trkpt lat="46.1037200" lon="10.5203340">
	<ele>2113.20</ele>
	<time>2023-08-07T05:18:09.000Z</time>
</trkpt>
<trkpt lat="46.1037260" lon="10.5203440">
	<ele>2113.20</ele>
	<time>2023-08-07T05:18:10.000Z</time>
</trkpt>
<trkpt lat="46.1037320" lon="10.5203560">
	<ele>2113.20</ele>
	<time>2023-08-07T05:18:11.000Z</time>
</trkpt>
<trkpt lat="46.1037350" lon="10.5203710">
	<ele>2113.00</ele>
	<time>2023-08-07T05:18:12.000Z</time>
</trkpt>
<trkpt lat="46.1037440" lon="10.5203810">
	<ele>2113.00</ele>
	<time>2023-08-07T05:18:13.000Z</time>
</trkpt>
<trkpt lat="46.1037520" lon="10.5203940">
	<ele>2113.00</ele>
	<time>2023-08-07T05:18:14.000Z</time>
</trkpt>
<trkpt lat="46.1037600" lon="10.5204050">
	<ele>2113.20</ele>
	<time>2023-08-07T05:18:15.000Z</time>
</trkpt>
<trkpt lat="46.1037680" lon="10.5204170">
	<ele>2113.00</ele>
	<time>2023-08-07T05:18:16.000Z</time>
</trkpt>
<trkpt lat="46.1037730" lon="10.5204260">
	<ele>2113.20</ele>
	<time>2023-08-07T05:18:17.000Z</time>
</trkpt>
<trkpt lat="46.1037820" lon="10.5204320">
	<ele>2113.00</ele>
	<time>2023-08-07T05:18:18.000Z</time>
</trkpt>
<trkpt lat="46.1037930" lon="10.5204380">
	<ele>2113.00</ele>
	<time>2023-08-07T05:18:19.000Z</time>
</trkpt>
<trkpt lat="46.1038020" lon="10.5204420">
	<ele>2113.00</ele>
	<time>2023-08-07T05:18:20.000Z</time>
</trkpt>
<trkpt lat="46.1038090" lon="10.5204530">
	<ele>2113.00</ele>
	<time>2023-08-07T05:18:21.000Z</time>
</trkpt>
<trkpt lat="46.1038130" lon="10.5204600">
	<ele>2112.80</ele>
	<time>2023-08-07T05:18:22.000Z</time>
</trkpt>
<trkpt lat="46.1038230" lon="10.5204660">
	<ele>2113.00</ele>
	<time>2023-08-07T05:18:23.000Z</time>
</trkpt>
<trkpt lat="46.1038330" lon="10.5204750">
	<ele>2112.80</ele>
	<time>2023-08-07T05:18:24.000Z</time>
</trkpt>
<trkpt lat="46.1038420" lon="10.5204860">
	<ele>2112.80</ele>
	<time>2023-08-07T05:18:25.000Z</time>
</trkpt>
<trkpt lat="46.1038510" lon="10.5204990">
	<ele>2112.80</ele>
	<time>2023-08-07T05:18:26.000Z</time>
</trkpt>
<trkpt lat="46.1038630" lon="10.5205120">
	<ele>2112.80</ele>
	<time>2023-08-07T05:18:27.000Z</time>
</trkpt>
<trkpt lat="46.1038730" lon="10.5205260">
	<ele>2112.80</ele>
	<time>2023-08-07T05:18:28.000Z</time>
</trkpt>
<trkpt lat="46.1038800" lon="10.5205410">
	<ele>2112.80</ele>
	<time>2023-08-07T05:18:29.000Z</time>
</trkpt>
<trkpt lat="46.1038900" lon="10.5205500">
	<ele>2112.80</ele>
	<time>2023-08-07T05:18:30.000Z</time>
</trkpt>
<trkpt lat="46.1039010" lon="10.5205560">
	<ele>2112.80</ele>
	<time>2023-08-07T05:18:31.000Z</time>
</trkpt>
<trkpt lat="46.1039090" lon="10.5205670">
	<ele>2113.00</ele>
	<time>2023-08-07T05:18:32.000Z</time>
</trkpt>
<trkpt lat="46.1039150" lon="10.5205780">
	<ele>2113.00</ele>
	<time>2023-08-07T05:18:33.000Z</time>
</trkpt>
<trkpt lat="46.1039210" lon="10.5205850">
	<ele>2113.00</ele>
	<time>2023-08-07T05:18:34.000Z</time>
</trkpt>
<trkpt lat="46.1039290" lon="10.5205920">
	<ele>2113.20</ele>
	<time>2023-08-07T05:18:35.000Z</time>
</trkpt>
<trkpt lat="46.1039350" lon="10.5205960">
	<ele>2113.20</ele>
	<time>2023-08-07T05:18:36.000Z</time>
</trkpt>
<trkpt lat="46.1039350" lon="10.5205980">
	<ele>2113.20</ele>
	<time>2023-08-07T05:18:37.000Z</time>
</trkpt>
<trkpt lat="46.1039350" lon="10.5206050">
	<ele>2113.20</ele>
	<time>2023-08-07T05:18:38.000Z</time>
</trkpt>
<trkpt lat="46.1039360" lon="10.5206140">
	<ele>2113.20</ele>
	<time>2023-08-07T05:18:39.000Z</time>
</trkpt>
<trkpt lat="46.1039380" lon="10.5206250">
	<ele>2113.20</ele>
	<time>2023-08-07T05:18:40.000Z</time>
</trkpt>
<trkpt lat="46.1039400" lon="10.5206370">
	<ele>2113.20</ele>
	<time>2023-08-07T05:18:41.000Z</time>
</trkpt>
<trkpt lat="46.1039410" lon="10.5206490">
	<ele>2113.20</ele>
	<time>2023-08-07T05:18:42.000Z</time>
</trkpt>
<trkpt lat="46.1039470" lon="10.5206550">
	<ele>2113.20</ele>
	<time>2023-08-07T05:18:43.000Z</time>
</trkpt>
<trkpt lat="46.1039550" lon="10.5206610">
	<ele>2113.20</ele>
	<time>2023-08-07T05:18:44.000Z</time>
</trkpt>
<trkpt lat="46.1039630" lon="10.5206620">
	<ele>2113.20</ele>
	<time>2023-08-07T05:18:45.000Z</time>
</trkpt>
<trkpt lat="46.1039740" lon="10.5206710">
	<ele>2113.40</ele>
	<time>2023-08-07T05:18:46.000Z</time>
</trkpt>
<trkpt lat="46.1039790" lon="10.5206830">
	<ele>2113.40</ele>
	<time>2023-08-07T05:18:47.000Z</time>
</trkpt>
<trkpt lat="46.1039830" lon="10.5206980">
	<ele>2113.60</ele>
	<time>2023-08-07T05:18:48.000Z</time>
</trkpt>
<trkpt lat="46.1039850" lon="10.5207170">
	<ele>2113.60</ele>
	<time>2023-08-07T05:18:49.000Z</time>
</trkpt>
<trkpt lat="46.1039840" lon="10.5207340">
	<ele>2113.80</ele>
	<time>2023-08-07T05:18:50.000Z</time>
</trkpt>
<trkpt lat="46.1039830" lon="10.5207500">
	<ele>2113.80</ele>
	<time>2023-08-07T05:18:51.000Z</time>
</trkpt>
<trkpt lat="46.1039860" lon="10.5207630">
	<ele>2113.80</ele>
	<time>2023-08-07T05:18:52.000Z</time>
</trkpt>
<trkpt lat="46.1039890" lon="10.5207800">
	<ele>2113.80</ele>
	<time>2023-08-07T05:18:53.000Z</time>
</trkpt>
<trkpt lat="46.1039930" lon="10.5207890">
	<ele>2113.60</ele>
	<time>2023-08-07T05:18:54.000Z</time>
</trkpt>
<trkpt lat="46.1040010" lon="10.5207980">
	<ele>2113.60</ele>
	<time>2023-08-07T05:18:55.000Z</time>
</trkpt>
<trkpt lat="46.1040040" lon="10.5208100">
	<ele>2113.60</ele>
	<time>2023-08-07T05:18:56.000Z</time>
</trkpt>
<trkpt lat="46.1040060" lon="10.5208220">
	<ele>2113.60</ele>
	<time>2023-08-07T05:18:57.000Z</time>
</trkpt>
<trkpt lat="46.1040180" lon="10.5208360">
	<ele>2113.40</ele>
	<time>2023-08-07T05:18:58.000Z</time>
</trkpt>
<trkpt lat="46.1040280" lon="10.5208410">
	<ele>2113.40</ele>
	<time>2023-08-07T05:18:59.000Z</time>
</trkpt>
<trkpt lat="46.1040350" lon="10.5208440">
	<ele>2113.40</ele>
	<time>2023-08-07T05:19:00.000Z</time>
</trkpt>
<trkpt lat="46.1040400" lon="10.5208520">
	<ele>2113.40</ele>
	<time>2023-08-07T05:19:01.000Z</time>
</trkpt>
<trkpt lat="46.1040430" lon="10.5208590">
	<ele>2113.40</ele>
	<time>2023-08-07T05:19:02.000Z</time>
</trkpt>
<trkpt lat="46.1040510" lon="10.5208630">
	<ele>2113.20</ele>
	<time>2023-08-07T05:19:03.000Z</time>
</trkpt>
<trkpt lat="46.1040610" lon="10.5208650">
	<ele>2113.20</ele>
	<time>2023-08-07T05:19:04.000Z</time>
</trkpt>
<trkpt lat="46.1040700" lon="10.5208720">
	<ele>2113.20</ele>
	<time>2023-08-07T05:19:05.000Z</time>
</trkpt>
<trkpt lat="46.1040760" lon="10.5208810">
	<ele>2113.00</ele>
	<time>2023-08-07T05:19:06.000Z</time>
</trkpt>
<trkpt lat="46.1040810" lon="10.5208900">
	<ele>2112.80</ele>
	<time>2023-08-07T05:19:07.000Z</time>
</trkpt>
<trkpt lat="46.1040880" lon="10.5208970">
	<ele>2112.60</ele>
	<time>2023-08-07T05:19:08.000Z</time>
</trkpt>
<trkpt lat="46.1040950" lon="10.5209070">
	<ele>2112.40</ele>
	<time>2023-08-07T05:19:09.000Z</time>
</trkpt>
<trkpt lat="46.1041050" lon="10.5209180">
	<ele>2112.20</ele>
	<time>2023-08-07T05:19:10.000Z</time>
</trkpt>
<trkpt lat="46.1041160" lon="10.5209250">
	<ele>2112.20</ele>
	<time>2023-08-07T05:19:11.000Z</time>
</trkpt>
<trkpt lat="46.1041250" lon="10.5209290">
	<ele>2112.20</ele>
	<time>2023-08-07T05:19:12.000Z</time>
</trkpt>
<trkpt lat="46.1041350" lon="10.5209360">
	<ele>2112.00</ele>
	<time>2023-08-07T05:19:13.000Z</time>
</trkpt>
<trkpt lat="46.1041410" lon="10.5209430">
	<ele>2112.00</ele>
	<time>2023-08-07T05:19:14.000Z</time>
</trkpt>
<trkpt lat="46.1041490" lon="10.5209490">
	<ele>2112.00</ele>
	<time>2023-08-07T05:19:15.000Z</time>
</trkpt>
<trkpt lat="46.1041590" lon="10.5209560">
	<ele>2112.00</ele>
	<time>2023-08-07T05:19:16.000Z</time>
</trkpt>
<trkpt lat="46.1041690" lon="10.5209620">
	<ele>2112.00</ele>
	<time>2023-08-07T05:19:17.000Z</time>
</trkpt>
<trkpt lat="46.1041790" lon="10.5209660">
	<ele>2112.00</ele>
	<time>2023-08-07T05:19:18.000Z</time>
</trkpt>
<trkpt lat="46.1041870" lon="10.5209730">
	<ele>2112.00</ele>
	<time>2023-08-07T05:19:19.000Z</time>
</trkpt>
<trkpt lat="46.1041950" lon="10.5209840">
	<ele>2112.00</ele>
	<time>2023-08-07T05:19:20.000Z</time>
</trkpt>
<trkpt lat="46.1042010" lon="10.5209940">
	<ele>2112.00</ele>
	<time>2023-08-07T05:19:21.000Z</time>
</trkpt>
<trkpt lat="46.1042100" lon="10.5210000">
	<ele>2112.00</ele>
	<time>2023-08-07T05:19:22.000Z</time>
</trkpt>
<trkpt lat="46.1042270" lon="10.5210060">
	<ele>2112.20</ele>
	<time>2023-08-07T05:19:23.000Z</time>
</trkpt>
<trkpt lat="46.1042400" lon="10.5210150">
	<ele>2112.20</ele>
	<time>2023-08-07T05:19:24.000Z</time>
</trkpt>
<trkpt lat="46.1042460" lon="10.5210280">
	<ele>2112.40</ele>
	<time>2023-08-07T05:19:25.000Z</time>
</trkpt>
<trkpt lat="46.1042510" lon="10.5210440">
	<ele>2112.60</ele>
	<time>2023-08-07T05:19:26.000Z</time>
</trkpt>
<trkpt lat="46.1042560" lon="10.5210580">
	<ele>2112.60</ele>
	<time>2023-08-07T05:19:27.000Z</time>
</trkpt>
<trkpt lat="46.1042580" lon="10.5210700">
	<ele>2113.00</ele>
	<time>2023-08-07T05:19:28.000Z</time>
</trkpt>
<trkpt lat="46.1042630" lon="10.5210830">
	<ele>2113.20</ele>
	<time>2023-08-07T05:19:29.000Z</time>
</trkpt>
<trkpt lat="46.1042650" lon="10.5210960">
	<ele>2113.20</ele>
	<time>2023-08-07T05:19:30.000Z</time>
</trkpt>
<trkpt lat="46.1042750" lon="10.5211100">
	<ele>2113.20</ele>
	<time>2023-08-07T05:19:31.000Z</time>
</trkpt>
<trkpt lat="46.1042840" lon="10.5211260">
	<ele>2113.20</ele>
	<time>2023-08-07T05:19:32.000Z</time>
</trkpt>
<trkpt lat="46.1042930" lon="10.5211410">
	<ele>2113.20</ele>
	<time>2023-08-07T05:19:33.000Z</time>
</trkpt>
<trkpt lat="46.1042990" lon="10.5211620">
	<ele>2113.20</ele>
	<time>2023-08-07T05:19:34.000Z</time>
</trkpt>
<trkpt lat="46.1043020" lon="10.5211800">
	<ele>2113.40</ele>
	<time>2023-08-07T05:19:35.000Z</time>
</trkpt>
<trkpt lat="46.1043070" lon="10.5211980">
	<ele>2113.60</ele>
	<time>2023-08-07T05:19:36.000Z</time>
</trkpt>
<trkpt lat="46.1043080" lon="10.5212150">
	<ele>2113.80</ele>
	<time>2023-08-07T05:19:37.000Z</time>
</trkpt>
<trkpt lat="46.1043150" lon="10.5212320">
	<ele>2113.80</ele>
	<time>2023-08-07T05:19:38.000Z</time>
</trkpt>
<trkpt lat="46.1043220" lon="10.5212490">
	<ele>2113.80</ele>
	<time>2023-08-07T05:19:39.000Z</time>
</trkpt>
<trkpt lat="46.1043300" lon="10.5212600">
	<ele>2114.00</ele>
	<time>2023-08-07T05:19:40.000Z</time>
</trkpt>
<trkpt lat="46.1043390" lon="10.5212770">
	<ele>2114.00</ele>
	<time>2023-08-07T05:19:41.000Z</time>
</trkpt>
<trkpt lat="46.1043470" lon="10.5212950">
	<ele>2114.00</ele>
	<time>2023-08-07T05:19:42.000Z</time>
</trkpt>
<trkpt lat="46.1043540" lon="10.5213070">
	<ele>2114.00</ele>
	<time>2023-08-07T05:19:43.000Z</time>
</trkpt>
<trkpt lat="46.1043600" lon="10.5213100">
	<ele>2114.20</ele>
	<time>2023-08-07T05:19:44.000Z</time>
</trkpt>
<trkpt lat="46.1043680" lon="10.5213170">
	<ele>2114.20</ele>
	<time>2023-08-07T05:19:45.000Z</time>
</trkpt>
<trkpt lat="46.1043750" lon="10.5213290">
	<ele>2114.20</ele>
	<time>2023-08-07T05:19:46.000Z</time>
</trkpt>
<trkpt lat="46.1043810" lon="10.5213360">
	<ele>2114.20</ele>
	<time>2023-08-07T05:19:47.000Z</time>
</trkpt>
<trkpt lat="46.1043920" lon="10.5213450">
	<ele>2114.20</ele>
	<time>2023-08-07T05:19:48.000Z</time>
</trkpt>
<trkpt lat="46.1043970" lon="10.5213520">
	<ele>2114.20</ele>
	<time>2023-08-07T05:19:49.000Z</time>
</trkpt>
<trkpt lat="46.1044060" lon="10.5213610">
	<ele>2114.20</ele>
	<time>2023-08-07T05:19:50.000Z</time>
</trkpt>
<trkpt lat="46.1044120" lon="10.5213640">
	<ele>2114.20</ele>
	<time>2023-08-07T05:19:51.000Z</time>
</trkpt>
<trkpt lat="46.1044180" lon="10.5213690">
	<ele>2114.40</ele>
	<time>2023-08-07T05:19:52.000Z</time>
</trkpt>
<trkpt lat="46.1044270" lon="10.5213760">
	<ele>2114.40</ele>
	<time>2023-08-07T05:19:53.000Z</time>
</trkpt>
<trkpt lat="46.1044350" lon="10.5213870">
	<ele>2114.60</ele>
	<time>2023-08-07T05:19:54.000Z</time>
</trkpt>
<trkpt lat="46.1044400" lon="10.5214030">
	<ele>2114.60</ele>
	<time>2023-08-07T05:19:55.000Z</time>
</trkpt>
<trkpt lat="46.1044420" lon="10.5214190">
	<ele>2114.60</ele>
	<time>2023-08-07T05:19:56.000Z</time>
</trkpt>
<trkpt lat="46.1044440" lon="10.5214340">
	<ele>2114.40</ele>
	<time>2023-08-07T05:19:57.000Z</time>
</trkpt>
<trkpt lat="46.1044480" lon="10.5214470">
	<ele>2114.20</ele>
	<time>2023-08-07T05:19:58.000Z</time>
</trkpt>
<trkpt lat="46.1044540" lon="10.5214580">
	<ele>2114.00</ele>
	<time>2023-08-07T05:19:59.000Z</time>
</trkpt>
<trkpt lat="46.1044620" lon="10.5214660">
	<ele>2114.00</ele>
	<time>2023-08-07T05:20:00.000Z</time>
</trkpt>
<trkpt lat="46.1044680" lon="10.5214760">
	<ele>2114.00</ele>
	<time>2023-08-07T05:20:01.000Z</time>
</trkpt>
<trkpt lat="46.1044720" lon="10.5214860">
	<ele>2114.00</ele>
	<time>2023-08-07T05:20:02.000Z</time>
</trkpt>
<trkpt lat="46.1044790" lon="10.5214970">
	<ele>2114.20</ele>
	<time>2023-08-07T05:20:03.000Z</time>
</trkpt>
<trkpt lat="46.1044870" lon="10.5215070">
	<ele>2114.20</ele>
	<time>2023-08-07T05:20:04.000Z</time>
</trkpt>
<trkpt lat="46.1044970" lon="10.5215130">
	<ele>2114.40</ele>
	<time>2023-08-07T05:20:05.000Z</time>
</trkpt>
<trkpt lat="46.1045050" lon="10.5215190">
	<ele>2114.40</ele>
	<time>2023-08-07T05:20:06.000Z</time>
</trkpt>
<trkpt lat="46.1045130" lon="10.5215260">
	<ele>2114.40</ele>
	<time>2023-08-07T05:20:07.000Z</time>
</trkpt>
<trkpt lat="46.1045250" lon="10.5215330">
	<ele>2114.40</ele>
	<time>2023-08-07T05:20:08.000Z</time>
</trkpt>
<trkpt lat="46.1045350" lon="10.5215450">
	<ele>2114.60</ele>
	<time>2023-08-07T05:20:09.000Z</time>
</trkpt>
<trkpt lat="46.1045390" lon="10.5215570">
	<ele>2114.60</ele>
	<time>2023-08-07T05:20:10.000Z</time>
</trkpt>
<trkpt lat="46.1045480" lon="10.5215660">
	<ele>2114.60</ele>
	<time>2023-08-07T05:20:11.000Z</time>
</trkpt>
<trkpt lat="46.1045590" lon="10.5215730">
	<ele>2114.40</ele>
	<time>2023-08-07T05:20:12.000Z</time>
</trkpt>
<trkpt lat="46.1045670" lon="10.5215820">
	<ele>2114.40</ele>
	<time>2023-08-07T05:20:13.000Z</time>
</trkpt>
<trkpt lat="46.1045750" lon="10.5215860">
	<ele>2114.40</ele>
	<time>2023-08-07T05:20:14.000Z</time>
</trkpt>
<trkpt lat="46.1045840" lon="10.5215880">
	<ele>2114.40</ele>
	<time>2023-08-07T05:20:15.000Z</time>
</trkpt>
<trkpt lat="46.1045970" lon="10.5215880">
	<ele>2114.40</ele>
	<time>2023-08-07T05:20:16.000Z</time>
</trkpt>
<trkpt lat="46.1046060" lon="10.5215890">
	<ele>2114.40</ele>
	<time>2023-08-07T05:20:17.000Z</time>
</trkpt>
<trkpt lat="46.1046150" lon="10.5215930">
	<ele>2114.00</ele>
	<time>2023-08-07T05:20:18.000Z</time>
</trkpt>
<trkpt lat="46.1046250" lon="10.5216000">
	<ele>2114.00</ele>
	<time>2023-08-07T05:20:19.000Z</time>
</trkpt>
<trkpt lat="46.1046380" lon="10.5216080">
	<ele>2113.80</ele>
	<time>2023-08-07T05:20:20.000Z</time>
</trkpt>
<trkpt lat="46.1046500" lon="10.5216140">
	<ele>2113.80</ele>
	<time>2023-08-07T05:20:21.000Z</time>
</trkpt>
<trkpt lat="46.1046580" lon="10.5216210">
	<ele>2113.60</ele>
	<time>2023-08-07T05:20:22.000Z</time>
</trkpt>
<trkpt lat="46.1046690" lon="10.5216240">
	<ele>2113.60</ele>
	<time>2023-08-07T05:20:23.000Z</time>
</trkpt>
<trkpt lat="46.1046750" lon="10.5216270">
	<ele>2113.40</ele>
	<time>2023-08-07T05:20:24.000Z</time>
</trkpt>
<trkpt lat="46.1046780" lon="10.5216280">
	<ele>2113.40</ele>
	<time>2023-08-07T05:20:25.000Z</time>
</trkpt>
<trkpt lat="46.1046810" lon="10.5216280">
	<ele>2113.40</ele>
	<time>2023-08-07T05:20:26.000Z</time>
</trkpt>
<trkpt lat="46.1046820" lon="10.5216250">
	<ele>2113.60</ele>
	<time>2023-08-07T05:20:27.000Z</time>
</trkpt>
<trkpt lat="46.1046830" lon="10.5216240">
	<ele>2113.60</ele>
	<time>2023-08-07T05:20:28.000Z</time>
</trkpt>
<trkpt lat="46.1046850" lon="10.5216250">
	<ele>2113.80</ele>
	<time>2023-08-07T05:20:29.000Z</time>
</trkpt>
<trkpt lat="46.1046860" lon="10.5216250">
	<ele>2113.80</ele>
	<time>2023-08-07T05:20:30.000Z</time>
</trkpt>
<trkpt lat="46.1046850" lon="10.5216270">
	<ele>2113.80</ele>
	<time>2023-08-07T05:20:31.000Z</time>
</trkpt>
<trkpt lat="46.1046850" lon="10.5216280">
	<ele>2113.80</ele>
	<time>2023-08-07T05:20:32.000Z</time>
</trkpt>
<trkpt lat="46.1046850" lon="10.5216290">
	<ele>2113.80</ele>
	<time>2023-08-07T05:20:33.000Z</time>
</trkpt>
<trkpt lat="46.1046860" lon="10.5216280">
	<ele>2113.80</ele>
	<time>2023-08-07T05:20:34.000Z</time>
</trkpt>
<trkpt lat="46.1046870" lon="10.5216250">
	<ele>2113.80</ele>
	<time>2023-08-07T05:20:35.000Z</time>
</trkpt>
<trkpt lat="46.1046870" lon="10.5216220">
	<ele>2113.80</ele>
	<time>2023-08-07T05:20:36.000Z</time>
</trkpt>
<trkpt lat="46.1046880" lon="10.5216190">
	<ele>2113.80</ele>
	<time>2023-08-07T05:20:37.000Z</time>
</trkpt>
<trkpt lat="46.1046880" lon="10.5216200">
	<ele>2113.80</ele>
	<time>2023-08-07T05:20:38.000Z</time>
</trkpt>
<trkpt lat="46.1046860" lon="10.5216190">
	<ele>2113.80</ele>
	<time>2023-08-07T05:20:39.000Z</time>
</trkpt>
<trkpt lat="46.1046830" lon="10.5216200">
	<ele>2113.80</ele>
	<time>2023-08-07T05:20:40.000Z</time>
</trkpt>
<trkpt lat="46.1046810" lon="10.5216260">
	<ele>2113.80</ele>
	<time>2023-08-07T05:20:41.000Z</time>
</trkpt>
<trkpt lat="46.1046790" lon="10.5216270">
	<ele>2113.80</ele>
	<time>2023-08-07T05:20:42.000Z</time>
</trkpt>
<trkpt lat="46.1046800" lon="10.5216280">
	<ele>2113.80</ele>
	<time>2023-08-07T05:20:43.000Z</time>
</trkpt>
<trkpt lat="46.1046770" lon="10.5216310">
	<ele>2113.80</ele>
	<time>2023-08-07T05:20:44.000Z</time>
</trkpt>
<trkpt lat="46.1046790" lon="10.5216310">
	<ele>2114.00</ele>
	<time>2023-08-07T05:20:45.000Z</time>
</trkpt>
<trkpt lat="46.1046790" lon="10.5216310">
	<ele>2114.00</ele>
	<time>2023-08-07T05:20:46.000Z</time>
</trkpt>
<trkpt lat="46.1046780" lon="10.5216310">
	<ele>2114.00</ele>
	<time>2023-08-07T05:20:47.000Z</time>
</trkpt>
<trkpt lat="46.1046780" lon="10.5216300">
	<ele>2114.00</ele>
	<time>2023-08-07T05:20:48.000Z</time>
</trkpt>
<trkpt lat="46.1046780" lon="10.5216300">
	<ele>2114.00</ele>
	<time>2023-08-07T05:20:49.000Z</time>
</trkpt>
<trkpt lat="46.1046780" lon="10.5216300">
	<ele>2114.00</ele>
	<time>2023-08-07T05:20:50.000Z</time>
</trkpt>
<trkpt lat="46.1046780" lon="10.5216300">
	<ele>2113.80</ele>
	<time>2023-08-07T05:20:51.000Z</time>
</trkpt>
<trkpt lat="46.1046780" lon="10.5216300">
	<ele>2113.80</ele>
	<time>2023-08-07T05:20:52.000Z</time>
</trkpt>
<trkpt lat="46.1046780" lon="10.5216300">
	<ele>2113.80</ele>
	<time>2023-08-07T05:20:53.000Z</time>
</trkpt>
<trkpt lat="46.1046780" lon="10.5216300">
	<ele>2113.60</ele>
	<time>2023-08-07T05:20:54.000Z</time>
</trkpt>
<trkpt lat="46.1046780" lon="10.5216300">
	<ele>2113.60</ele>
	<time>2023-08-07T05:20:55.000Z</time>
</trkpt>
<trkpt lat="46.1046780" lon="10.5216300">
	<ele>2113.60</ele>
	<time>2023-08-07T05:20:56.000Z</time>
</trkpt>
<trkpt lat="46.1046780" lon="10.5216300">
	<ele>2113.60</ele>
	<time>2023-08-07T05:20:57.000Z</time>
</trkpt>
<trkpt lat="46.1046790" lon="10.5216300">
	<ele>2113.80</ele>
	<time>2023-08-07T05:20:58.000Z</time>
</trkpt>
<trkpt lat="46.1046790" lon="10.5216300">
	<ele>2113.80</ele>
	<time>2023-08-07T05:20:59.000Z</time>
</trkpt>
<trkpt lat="46.1046850" lon="10.5216300">
	<ele>2113.80</ele>
	<time>2023-08-07T05:21:00.000Z</time>
</trkpt>
<trkpt lat="46.1047040" lon="10.5216300">
	<ele>2113.80</ele>
	<time>2023-08-07T05:21:01.000Z</time>
</trkpt>
<trkpt lat="46.1047200" lon="10.5216220">
	<ele>2113.80</ele>
	<time>2023-08-07T05:21:02.000Z</time>
</trkpt>
<trkpt lat="46.1047350" lon="10.5216140">
	<ele>2113.80</ele>
	<time>2023-08-07T05:21:03.000Z</time>
</trkpt>
<trkpt lat="46.1047460" lon="10.5216100">
	<ele>2113.80</ele>
	<time>2023-08-07T05:21:04.000Z</time>
</trkpt>
<trkpt lat="46.1047570" lon="10.5216070">
	<ele>2113.80</ele>
	<time>2023-08-07T05:21:05.000Z</time>
</trkpt>
<trkpt lat="46.1047720" lon="10.5216030">
	<ele>2113.80</ele>
	<time>2023-08-07T05:21:06.000Z</time>
</trkpt>
<trkpt lat="46.1047910" lon="10.5216000">
	<ele>2114.00</ele>
	<time>2023-08-07T05:21:07.000Z</time>
</trkpt>
<trkpt lat="46.1048100" lon="10.5215990">
	<ele>2114.00</ele>
	<time>2023-08-07T05:21:08.000Z</time>
</trkpt>
<trkpt lat="46.1048280" lon="10.5215970">
	<ele>2114.20</ele>
	<time>2023-08-07T05:21:09.000Z</time>
</trkpt>
<trkpt lat="46.1048400" lon="10.5215970">
	<ele>2114.40</ele>
	<time>2023-08-07T05:21:10.000Z</time>
</trkpt>
<trkpt lat="46.1048440" lon="10.5215940">
	<ele>2114.40</ele>
	<time>2023-08-07T05:21:11.000Z</time>
</trkpt>
<trkpt lat="46.1048480" lon="10.5215900">
	<ele>2114.40</ele>
	<time>2023-08-07T05:21:12.000Z</time>
</trkpt>
<trkpt lat="46.1048560" lon="10.5215900">
	<ele>2114.60</ele>
	<time>2023-08-07T05:21:13.000Z</time>
</trkpt>
<trkpt lat="46.1048660" lon="10.5215920">
	<ele>2114.40</ele>
	<time>2023-08-07T05:21:14.000Z</time>
</trkpt>
<trkpt lat="46.1048790" lon="10.5215930">
	<ele>2114.40</ele>
	<time>2023-08-07T05:21:15.000Z</time>
</trkpt>
<trkpt lat="46.1048910" lon="10.5215940">
	<ele>2114.20</ele>
	<time>2023-08-07T05:21:16.000Z</time>
</trkpt>
<trkpt lat="46.1049000" lon="10.5215940">
	<ele>2114.20</ele>
	<time>2023-08-07T05:21:17.000Z</time>
</trkpt>
<trkpt lat="46.1049060" lon="10.5215950">
	<ele>2114.20</ele>
	<time>2023-08-07T05:21:18.000Z</time>
</trkpt>
<trkpt lat="46.1049190" lon="10.5215990">
	<ele>2114.20</ele>
	<time>2023-08-07T05:21:19.000Z</time>
</trkpt>
<trkpt lat="46.1049300" lon="10.5216010">
	<ele>2114.20</ele>
	<time>2023-08-07T05:21:20.000Z</time>
</trkpt>
<trkpt lat="46.1049440" lon="10.5216090">
	<ele>2114.20</ele>
	<time>2023-08-07T05:21:21.000Z</time>
</trkpt>
<trkpt lat="46.1049530" lon="10.5216170">
	<ele>2114.20</ele>
	<time>2023-08-07T05:21:22.000Z</time>
</trkpt>
<trkpt lat="46.1049610" lon="10.5216250">
	<ele>2114.20</ele>
	<time>2023-08-07T05:21:23.000Z</time>
</trkpt>
<trkpt lat="46.1049620" lon="10.5216290">
	<ele>2114.20</ele>
	<time>2023-08-07T05:21:24.000Z</time>
</trkpt>
<trkpt lat="46.1049640" lon="10.5216350">
	<ele>2114.20</ele>
	<time>2023-08-07T05:21:25.000Z</time>
</trkpt>
<trkpt lat="46.1049620" lon="10.5216410">
	<ele>2114.20</ele>
	<time>2023-08-07T05:21:26.000Z</time>
</trkpt>
<trkpt lat="46.1049660" lon="10.5216490">
	<ele>2114.20</ele>
	<time>2023-08-07T05:21:27.000Z</time>
</trkpt>
<trkpt lat="46.1049750" lon="10.5216580">
	<ele>2114.20</ele>
	<time>2023-08-07T05:21:28.000Z</time>
</trkpt>
<trkpt lat="46.1049810" lon="10.5216630">
	<ele>2114.20</ele>
	<time>2023-08-07T05:21:29.000Z</time>
</trkpt>
<trkpt lat="46.1049850" lon="10.5216680">
	<ele>2114.20</ele>
	<time>2023-08-07T05:21:30.000Z</time>
</trkpt>
<trkpt lat="46.1049930" lon="10.5216710">
	<ele>2114.20</ele>
	<time>2023-08-07T05:21:31.000Z</time>
</trkpt>
<trkpt lat="46.1049990" lon="10.5216800">
	<ele>2114.00</ele>
	<time>2023-08-07T05:21:32.000Z</time>
</trkpt>
<trkpt lat="46.1050010" lon="10.5216940">
	<ele>2114.00</ele>
	<time>2023-08-07T05:21:33.000Z</time>
</trkpt>
<trkpt lat="46.1050020" lon="10.5217120">
	<ele>2114.00</ele>
	<time>2023-08-07T05:21:34.000Z</time>
</trkpt>
<trkpt lat="46.1049980" lon="10.5217200">
	<ele>2114.00</ele>
	<time>2023-08-07T05:21:35.000Z</time>
</trkpt>
<trkpt lat="46.1049960" lon="10.5217370">
	<ele>2114.00</ele>
	<time>2023-08-07T05:21:36.000Z</time>
</trkpt>
<trkpt lat="46.1050010" lon="10.5217480">
	<ele>2114.00</ele>
	<time>2023-08-07T05:21:37.000Z</time>
</trkpt>
<trkpt lat="46.1050130" lon="10.5217730">
	<ele>2114.00</ele>
	<time>2023-08-07T05:21:38.000Z</time>
</trkpt>
<trkpt lat="46.1050190" lon="10.5217940">
	<ele>2114.00</ele>
	<time>2023-08-07T05:21:39.000Z</time>
</trkpt>
<trkpt lat="46.1050220" lon="10.5218080">
	<ele>2114.00</ele>
	<time>2023-08-07T05:21:40.000Z</time>
</trkpt>
<trkpt lat="46.1050250" lon="10.5218250">
	<ele>2114.00</ele>
	<time>2023-08-07T05:21:41.000Z</time>
</trkpt>
<trkpt lat="46.1050320" lon="10.5218430">
	<ele>2114.00</ele>
	<time>2023-08-07T05:21:42.000Z</time>
</trkpt>
<trkpt lat="46.1050390" lon="10.5218580">
	<ele>2114.00</ele>
	<time>2023-08-07T05:21:43.000Z</time>
</trkpt>
<trkpt lat="46.1050460" lon="10.5218710">
	<ele>2114.00</ele>
	<time>2023-08-07T05:21:44.000Z</time>
</trkpt>
<trkpt lat="46.1050540" lon="10.5218790">
	<ele>2114.00</ele>
	<time>2023-08-07T05:21:45.000Z</time>
</trkpt>
<trkpt lat="46.1050610" lon="10.5218840">
	<ele>2113.80</ele>
	<time>2023-08-07T05:21:46.000Z</time>
</trkpt>
<trkpt lat="46.1050700" lon="10.5218920">
	<ele>2113.80</ele>
	<time>2023-08-07T05:21:47.000Z</time>
</trkpt>
<trkpt lat="46.1050820" lon="10.5218990">
	<ele>2113.80</ele>
	<time>2023-08-07T05:21:48.000Z</time>
</trkpt>
<trkpt lat="46.1050900" lon="10.5219130">
	<ele>2113.80</ele>
	<time>2023-08-07T05:21:49.000Z</time>
</trkpt>
<trkpt lat="46.1051010" lon="10.5219320">
	<ele>2113.80</ele>
	<time>2023-08-07T05:21:50.000Z</time>
</trkpt>
<trkpt lat="46.1051110" lon="10.5219440">
	<ele>2113.80</ele>
	<time>2023-08-07T05:21:51.000Z</time>
</trkpt>
<trkpt lat="46.1051180" lon="10.5219610">
	<ele>2113.80</ele>
	<time>2023-08-07T05:21:52.000Z</time>
</trkpt>
<trkpt lat="46.1051290" lon="10.5219790">
	<ele>2113.80</ele>
	<time>2023-08-07T05:21:53.000Z</time>
</trkpt>
<trkpt lat="46.1051450" lon="10.5219930">
	<ele>2113.80</ele>
	<time>2023-08-07T05:21:54.000Z</time>
</trkpt>
<trkpt lat="46.1051570" lon="10.5220080">
	<ele>2113.80</ele>
	<time>2023-08-07T05:21:55.000Z</time>
</trkpt>
<trkpt lat="46.1051660" lon="10.5220230">
	<ele>2113.80</ele>
	<time>2023-08-07T05:21:56.000Z</time>
</trkpt>
<trkpt lat="46.1051700" lon="10.5220410">
	<ele>2113.80</ele>
	<time>2023-08-07T05:21:57.000Z</time>
</trkpt>
<trkpt lat="46.1051790" lon="10.5220580">
	<ele>2113.80</ele>
	<time>2023-08-07T05:21:58.000Z</time>
</trkpt>
<trkpt lat="46.1051900" lon="10.5220690">
	<ele>2113.80</ele>
	<time>2023-08-07T05:21:59.000Z</time>
</trkpt>
<trkpt lat="46.1051950" lon="10.5220840">
	<ele>2113.80</ele>
	<time>2023-08-07T05:22:00.000Z</time>
</trkpt>
<trkpt lat="46.1051970" lon="10.5220890">
	<ele>2113.80</ele>
	<time>2023-08-07T05:22:01.000Z</time>
</trkpt>
<trkpt lat="46.1052010" lon="10.5220930">
	<ele>2114.00</ele>
	<time>2023-08-07T05:22:02.000Z</time>
</trkpt>
<trkpt lat="46.1051970" lon="10.5220990">
	<ele>2114.20</ele>
	<time>2023-08-07T05:22:03.000Z</time>
</trkpt>
<trkpt lat="46.1051970" lon="10.5221020">
	<ele>2114.20</ele>
	<time>2023-08-07T05:22:04.000Z</time>
</trkpt>
<trkpt lat="46.1052020" lon="10.5221090">
	<ele>2114.20</ele>
	<time>2023-08-07T05:22:05.000Z</time>
</trkpt>
<trkpt lat="46.1052090" lon="10.5221140">
	<ele>2114.40</ele>
	<time>2023-08-07T05:22:06.000Z</time>
</trkpt>
<trkpt lat="46.1052220" lon="10.5221200">
	<ele>2114.20</ele>
	<time>2023-08-07T05:22:07.000Z</time>
</trkpt>
<trkpt lat="46.1052260" lon="10.5221170">
	<ele>2114.20</ele>
	<time>2023-08-07T05:22:08.000Z</time>
</trkpt>
<trkpt lat="46.1052350" lon="10.5221170">
	<ele>2114.20</ele>
	<time>2023-08-07T05:22:09.000Z</time>
</trkpt>
<trkpt lat="46.1052560" lon="10.5221190">
	<ele>2114.00</ele>
	<time>2023-08-07T05:22:10.000Z</time>
</trkpt>
<trkpt lat="46.1052700" lon="10.5221290">
	<ele>2114.20</ele>
	<time>2023-08-07T05:22:11.000Z</time>
</trkpt>
<trkpt lat="46.1052770" lon="10.5221340">
	<ele>2114.20</ele>
	<time>2023-08-07T05:22:12.000Z</time>
</trkpt>
<trkpt lat="46.1052850" lon="10.5221350">
	<ele>2114.20</ele>
	<time>2023-08-07T05:22:13.000Z</time>
</trkpt>
<trkpt lat="46.1052950" lon="10.5221360">
	<ele>2114.20</ele>
	<time>2023-08-07T05:22:14.000Z</time>
</trkpt>
<trkpt lat="46.1053060" lon="10.5221380">
	<ele>2114.40</ele>
	<time>2023-08-07T05:22:15.000Z</time>
</trkpt>
<trkpt lat="46.1053190" lon="10.5221390">
	<ele>2114.40</ele>
	<time>2023-08-07T05:22:16.000Z</time>
</trkpt>
<trkpt lat="46.1053290" lon="10.5221410">
	<ele>2114.40</ele>
	<time>2023-08-07T05:22:17.000Z</time>
</trkpt>
<trkpt lat="46.1053420" lon="10.5221470">
	<ele>2114.40</ele>
	<time>2023-08-07T05:22:18.000Z</time>
</trkpt>
<trkpt lat="46.1053560" lon="10.5221550">
	<ele>2114.40</ele>
	<time>2023-08-07T05:22:19.000Z</time>
</trkpt>
<trkpt lat="46.1053780" lon="10.5221700">
	<ele>2114.40</ele>
	<time>2023-08-07T05:22:20.000Z</time>
</trkpt>
<trkpt lat="46.1053890" lon="10.5221730">
	<ele>2114.40</ele>
	<time>2023-08-07T05:22:21.000Z</time>
</trkpt>
<trkpt lat="46.1053970" lon="10.5221780">
	<ele>2114.40</ele>
	<time>2023-08-07T05:22:22.000Z</time>
</trkpt>
<trkpt lat="46.1054060" lon="10.5221860">
	<ele>2114.40</ele>
	<time>2023-08-07T05:22:23.000Z</time>
</trkpt>
<trkpt lat="46.1054240" lon="10.5221930">
	<ele>2114.40</ele>
	<time>2023-08-07T05:22:24.000Z</time>
</trkpt>
<trkpt lat="46.1054370" lon="10.5221970">
	<ele>2114.40</ele>
	<time>2023-08-07T05:22:25.000Z</time>
</trkpt>
<trkpt lat="46.1054520" lon="10.5222060">
	<ele>2114.20</ele>
	<time>2023-08-07T05:22:26.000Z</time>
</trkpt>
<trkpt lat="46.1054650" lon="10.5222060">
	<ele>2114.20</ele>
	<time>2023-08-07T05:22:27.000Z</time>
</trkpt>
<trkpt lat="46.1054760" lon="10.5222100">
	<ele>2114.20</ele>
	<time>2023-08-07T05:22:28.000Z</time>
</trkpt>
<trkpt lat="46.1054870" lon="10.5222180">
	<ele>2114.20</ele>
	<time>2023-08-07T05:22:29.000Z</time>
</trkpt>
<trkpt lat="46.1054990" lon="10.5222240">
	<ele>2114.20</ele>
	<time>2023-08-07T05:22:30.000Z</time>
</trkpt>
<trkpt lat="46.1055080" lon="10.5222340">
	<ele>2114.20</ele>
	<time>2023-08-07T05:22:31.000Z</time>
</trkpt>
<trkpt lat="46.1055130" lon="10.5222410">
	<ele>2114.40</ele>
	<time>2023-08-07T05:22:32.000Z</time>
</trkpt>
<trkpt lat="46.1055210" lon="10.5222510">
	<ele>2114.40</ele>
	<time>2023-08-07T05:22:33.000Z</time>
</trkpt>
<trkpt lat="46.1055300" lon="10.5222630">
	<ele>2114.40</ele>
	<time>2023-08-07T05:22:34.000Z</time>
</trkpt>
<trkpt lat="46.1055350" lon="10.5222710">
	<ele>2114.40</ele>
	<time>2023-08-07T05:22:35.000Z</time>
</trkpt>
<trkpt lat="46.1055400" lon="10.5222760">
	<ele>2114.40</ele>
	<time>2023-08-07T05:22:36.000Z</time>
</trkpt>
<trkpt lat="46.1055420" lon="10.5222740">
	<ele>2114.40</ele>
	<time>2023-08-07T05:22:37.000Z</time>
</trkpt>
<trkpt lat="46.1055470" lon="10.5222640">
	<ele>2114.40</ele>
	<time>2023-08-07T05:22:38.000Z</time>
</trkpt>
<trkpt lat="46.1055560" lon="10.5222540">
	<ele>2114.40</ele>
	<time>2023-08-07T05:22:39.000Z</time>
</trkpt>
<trkpt lat="46.1055660" lon="10.5222480">
	<ele>2114.40</ele>
	<time>2023-08-07T05:22:40.000Z</time>
</trkpt>
<trkpt lat="46.1055800" lon="10.5222450">
	<ele>2114.60</ele>
	<time>2023-08-07T05:22:41.000Z</time>
</trkpt>
<trkpt lat="46.1055920" lon="10.5222480">
	<ele>2114.60</ele>
	<time>2023-08-07T05:22:42.000Z</time>
</trkpt>
<trkpt lat="46.1056000" lon="10.5222550">
	<ele>2114.80</ele>
	<time>2023-08-07T05:22:43.000Z</time>
</trkpt>
<trkpt lat="46.1056090" lon="10.5222640">
	<ele>2114.80</ele>
	<time>2023-08-07T05:22:44.000Z</time>
</trkpt>
<trkpt lat="46.1056220" lon="10.5222860">
	<ele>2115.00</ele>
	<time>2023-08-07T05:22:45.000Z</time>
</trkpt>
<trkpt lat="46.1056360" lon="10.5222900">
	<ele>2115.00</ele>
	<time>2023-08-07T05:22:46.000Z</time>
</trkpt>
<trkpt lat="46.1056560" lon="10.5222940">
	<ele>2115.20</ele>
	<time>2023-08-07T05:22:47.000Z</time>
</trkpt>
<trkpt lat="46.1056680" lon="10.5222940">
	<ele>2115.20</ele>
	<time>2023-08-07T05:22:48.000Z</time>
</trkpt>
<trkpt lat="46.1056770" lon="10.5222970">
	<ele>2115.20</ele>
	<time>2023-08-07T05:22:49.000Z</time>
</trkpt>
<trkpt lat="46.1056840" lon="10.5223050">
	<ele>2115.40</ele>
	<time>2023-08-07T05:22:50.000Z</time>
</trkpt>
<trkpt lat="46.1056930" lon="10.5223180">
	<ele>2115.40</ele>
	<time>2023-08-07T05:22:51.000Z</time>
</trkpt>
<trkpt lat="46.1057010" lon="10.5223310">
	<ele>2115.40</ele>
	<time>2023-08-07T05:22:52.000Z</time>
</trkpt>
<trkpt lat="46.1057110" lon="10.5223400">
	<ele>2115.20</ele>
	<time>2023-08-07T05:22:53.000Z</time>
</trkpt>
<trkpt lat="46.1057180" lon="10.5223450">
	<ele>2115.20</ele>
	<time>2023-08-07T05:22:54.000Z</time>
</trkpt>
<trkpt lat="46.1057320" lon="10.5223510">
	<ele>2115.20</ele>
	<time>2023-08-07T05:22:55.000Z</time>
</trkpt>
<trkpt lat="46.1057390" lon="10.5223540">
	<ele>2115.20</ele>
	<time>2023-08-07T05:22:56.000Z</time>
</trkpt>
<trkpt lat="46.1057470" lon="10.5223600">
	<ele>2115.20</ele>
	<time>2023-08-07T05:22:57.000Z</time>
</trkpt>
<trkpt lat="46.1057530" lon="10.5223670">
	<ele>2115.20</ele>
	<time>2023-08-07T05:22:58.000Z</time>
</trkpt>
<trkpt lat="46.1057650" lon="10.5223740">
	<ele>2115.40</ele>
	<time>2023-08-07T05:22:59.000Z</time>
</trkpt>
<trkpt lat="46.1057720" lon="10.5223820">
	<ele>2115.40</ele>
	<time>2023-08-07T05:23:00.000Z</time>
</trkpt>
<trkpt lat="46.1057830" lon="10.5223910">
	<ele>2115.60</ele>
	<time>2023-08-07T05:23:01.000Z</time>
</trkpt>
<trkpt lat="46.1057890" lon="10.5223950">
	<ele>2115.80</ele>
	<time>2023-08-07T05:23:02.000Z</time>
</trkpt>
<trkpt lat="46.1057910" lon="10.5224040">
	<ele>2115.80</ele>
	<time>2023-08-07T05:23:03.000Z</time>
</trkpt>
<trkpt lat="46.1058050" lon="10.5224310">
	<ele>2115.80</ele>
	<time>2023-08-07T05:23:04.000Z</time>
</trkpt>
<trkpt lat="46.1058150" lon="10.5224380">
	<ele>2115.80</ele>
	<time>2023-08-07T05:23:05.000Z</time>
</trkpt>
<trkpt lat="46.1058240" lon="10.5224480">
	<ele>2115.80</ele>
	<time>2023-08-07T05:23:06.000Z</time>
</trkpt>
<trkpt lat="46.1058290" lon="10.5224590">
	<ele>2115.80</ele>
	<time>2023-08-07T05:23:07.000Z</time>
</trkpt>
<trkpt lat="46.1058340" lon="10.5224760">
	<ele>2115.80</ele>
	<time>2023-08-07T05:23:08.000Z</time>
</trkpt>
<trkpt lat="46.1058390" lon="10.5224840">
	<ele>2115.80</ele>
	<time>2023-08-07T05:23:09.000Z</time>
</trkpt>
<trkpt lat="46.1058430" lon="10.5224890">
	<ele>2116.00</ele>
	<time>2023-08-07T05:23:10.000Z</time>
</trkpt>
<trkpt lat="46.1058480" lon="10.5224890">
	<ele>2116.00</ele>
	<time>2023-08-07T05:23:11.000Z</time>
</trkpt>
<trkpt lat="46.1058530" lon="10.5224920">
	<ele>2116.00</ele>
	<time>2023-08-07T05:23:12.000Z</time>
</trkpt>
<trkpt lat="46.1058570" lon="10.5224980">
	<ele>2116.00</ele>
	<time>2023-08-07T05:23:13.000Z</time>
</trkpt>
<trkpt lat="46.1058620" lon="10.5225050">
	<ele>2116.00</ele>
	<time>2023-08-07T05:23:14.000Z</time>
</trkpt>
<trkpt lat="46.1058690" lon="10.5225110">
	<ele>2116.00</ele>
	<time>2023-08-07T05:23:15.000Z</time>
</trkpt>
<trkpt lat="46.1058720" lon="10.5225250">
	<ele>2116.00</ele>
	<time>2023-08-07T05:23:16.000Z</time>
</trkpt>
<trkpt lat="46.1058730" lon="10.5225350">
	<ele>2116.00</ele>
	<time>2023-08-07T05:23:17.000Z</time>
</trkpt>
<trkpt lat="46.1058780" lon="10.5225510">
	<ele>2116.00</ele>
	<time>2023-08-07T05:23:18.000Z</time>
</trkpt>
<trkpt lat="46.1058780" lon="10.5225610">
	<ele>2116.00</ele>
	<time>2023-08-07T05:23:19.000Z</time>
</trkpt>
<trkpt lat="46.1058840" lon="10.5225600">
	<ele>2116.00</ele>
	<time>2023-08-07T05:23:20.000Z</time>
</trkpt>
<trkpt lat="46.1058880" lon="10.5225630">
	<ele>2116.00</ele>
	<time>2023-08-07T05:23:21.000Z</time>
</trkpt>
<trkpt lat="46.1058880" lon="10.5225650">
	<ele>2116.00</ele>
	<time>2023-08-07T05:23:22.000Z</time>
</trkpt>
<trkpt lat="46.1058930" lon="10.5225750">
	<ele>2116.00</ele>
	<time>2023-08-07T05:23:23.000Z</time>
</trkpt>
<trkpt lat="46.1059020" lon="10.5225870">
	<ele>2116.00</ele>
	<time>2023-08-07T05:23:24.000Z</time>
</trkpt>
<trkpt lat="46.1059120" lon="10.5225990">
	<ele>2116.00</ele>
	<time>2023-08-07T05:23:25.000Z</time>
</trkpt>
<trkpt lat="46.1059190" lon="10.5226140">
	<ele>2115.80</ele>
	<time>2023-08-07T05:23:26.000Z</time>
</trkpt>
<trkpt lat="46.1059270" lon="10.5226200">
	<ele>2115.80</ele>
	<time>2023-08-07T05:23:27.000Z</time>
</trkpt>
<trkpt lat="46.1059350" lon="10.5226300">
	<ele>2115.60</ele>
	<time>2023-08-07T05:23:28.000Z</time>
</trkpt>
<trkpt lat="46.1059440" lon="10.5226460">
	<ele>2115.60</ele>
	<time>2023-08-07T05:23:29.000Z</time>
</trkpt>
<trkpt lat="46.1059500" lon="10.5226580">
	<ele>2115.80</ele>
	<time>2023-08-07T05:23:30.000Z</time>
</trkpt>
<trkpt lat="46.1059530" lon="10.5226810">
	<ele>2115.80</ele>
	<time>2023-08-07T05:23:31.000Z</time>
</trkpt>
<trkpt lat="46.1059530" lon="10.5226830">
	<ele>2116.00</ele>
	<time>2023-08-07T05:23:32.000Z</time>
</trkpt>
<trkpt lat="46.1059540" lon="10.5227010">
	<ele>2116.00</ele>
	<time>2023-08-07T05:23:33.000Z</time>
</trkpt>
<trkpt lat="46.1059620" lon="10.5227230">
	<ele>2116.20</ele>
	<time>2023-08-07T05:23:34.000Z</time>
</trkpt>
<trkpt lat="46.1059720" lon="10.5227380">
	<ele>2116.20</ele>
	<time>2023-08-07T05:23:35.000Z</time>
</trkpt>
<trkpt lat="46.1059800" lon="10.5227440">
	<ele>2116.40</ele>
	<time>2023-08-07T05:23:36.000Z</time>
</trkpt>
<trkpt lat="46.1059860" lon="10.5227450">
	<ele>2116.40</ele>
	<time>2023-08-07T05:23:37.000Z</time>
</trkpt>
<trkpt lat="46.1059970" lon="10.5227520">
	<ele>2116.40</ele>
	<time>2023-08-07T05:23:38.000Z</time>
</trkpt>
<trkpt lat="46.1060100" lon="10.5227620">
	<ele>2116.40</ele>
	<time>2023-08-07T05:23:39.000Z</time>
</trkpt>
<trkpt lat="46.1060180" lon="10.5227720">
	<ele>2116.40</ele>
	<time>2023-08-07T05:23:40.000Z</time>
</trkpt>
<trkpt lat="46.1060330" lon="10.5227830">
	<ele>2116.40</ele>
	<time>2023-08-07T05:23:41.000Z</time>
</trkpt>
<trkpt lat="46.1060440" lon="10.5227910">
	<ele>2116.40</ele>
	<time>2023-08-07T05:23:42.000Z</time>
</trkpt>
<trkpt lat="46.1060530" lon="10.5227980">
	<ele>2116.40</ele>
	<time>2023-08-07T05:23:43.000Z</time>
</trkpt>
<trkpt lat="46.1060610" lon="10.5228040">
	<ele>2116.40</ele>
	<time>2023-08-07T05:23:44.000Z</time>
</trkpt>
<trkpt lat="46.1060700" lon="10.5228180">
	<ele>2116.40</ele>
	<time>2023-08-07T05:23:45.000Z</time>
</trkpt>
<trkpt lat="46.1060800" lon="10.5228330">
	<ele>2116.40</ele>
	<time>2023-08-07T05:23:46.000Z</time>
</trkpt>
<trkpt lat="46.1060920" lon="10.5228460">
	<ele>2116.40</ele>
	<time>2023-08-07T05:23:47.000Z</time>
</trkpt>
<trkpt lat="46.1061080" lon="10.5228570">
	<ele>2116.40</ele>
	<time>2023-08-07T05:23:48.000Z</time>
</trkpt>
<trkpt lat="46.1061200" lon="10.5228640">
	<ele>2116.40</ele>
	<time>2023-08-07T05:23:49.000Z</time>
</trkpt>
<trkpt lat="46.1061350" lon="10.5228750">
	<ele>2116.40</ele>
	<time>2023-08-07T05:23:50.000Z</time>
</trkpt>
<trkpt lat="46.1061460" lon="10.5228790">
	<ele>2116.40</ele>
	<time>2023-08-07T05:23:51.000Z</time>
</trkpt>
<trkpt lat="46.1061620" lon="10.5228820">
	<ele>2116.40</ele>
	<time>2023-08-07T05:23:52.000Z</time>
</trkpt>
<trkpt lat="46.1061720" lon="10.5228820">
	<ele>2116.40</ele>
	<time>2023-08-07T05:23:53.000Z</time>
</trkpt>
<trkpt lat="46.1061850" lon="10.5228840">
	<ele>2116.40</ele>
	<time>2023-08-07T05:23:54.000Z</time>
</trkpt>
<trkpt lat="46.1062030" lon="10.5228870">
	<ele>2116.40</ele>
	<time>2023-08-07T05:23:55.000Z</time>
</trkpt>
<trkpt lat="46.1062190" lon="10.5228920">
	<ele>2116.40</ele>
	<time>2023-08-07T05:23:56.000Z</time>
</trkpt>
<trkpt lat="46.1062270" lon="10.5228970">
	<ele>2116.40</ele>
	<time>2023-08-07T05:23:57.000Z</time>
</trkpt>
<trkpt lat="46.1062360" lon="10.5229030">
	<ele>2116.60</ele>
	<time>2023-08-07T05:23:58.000Z</time>
</trkpt>
<trkpt lat="46.1062470" lon="10.5229090">
	<ele>2116.60</ele>
	<time>2023-08-07T05:23:59.000Z</time>
</trkpt>
<trkpt lat="46.1062530" lon="10.5229100">
	<ele>2116.60</ele>
	<time>2023-08-07T05:24:00.000Z</time>
</trkpt>
<trkpt lat="46.1062590" lon="10.5229170">
	<ele>2116.60</ele>
	<time>2023-08-07T05:24:01.000Z</time>
</trkpt>
<trkpt lat="46.1062650" lon="10.5229230">
	<ele>2116.60</ele>
	<time>2023-08-07T05:24:02.000Z</time>
</trkpt>
<trkpt lat="46.1062720" lon="10.5229310">
	<ele>2116.80</ele>
	<time>2023-08-07T05:24:03.000Z</time>
</trkpt>
<trkpt lat="46.1062750" lon="10.5229360">
	<ele>2116.80</ele>
	<time>2023-08-07T05:24:04.000Z</time>
</trkpt>
<trkpt lat="46.1062810" lon="10.5229380">
	<ele>2116.80</ele>
	<time>2023-08-07T05:24:05.000Z</time>
</trkpt>
<trkpt lat="46.1062840" lon="10.5229390">
	<ele>2116.80</ele>
	<time>2023-08-07T05:24:06.000Z</time>
</trkpt>
<trkpt lat="46.1062890" lon="10.5229410">
	<ele>2116.80</ele>
	<time>2023-08-07T05:24:07.000Z</time>
</trkpt>
<trkpt lat="46.1062920" lon="10.5229480">
	<ele>2116.80</ele>
	<time>2023-08-07T05:24:08.000Z</time>
</trkpt>
<trkpt lat="46.1062980" lon="10.5229570">
	<ele>2116.80</ele>
	<time>2023-08-07T05:24:09.000Z</time>
</trkpt>
<trkpt lat="46.1063080" lon="10.5229690">
	<ele>2116.80</ele>
	<time>2023-08-07T05:24:10.000Z</time>
</trkpt>
<trkpt lat="46.1063170" lon="10.5229740">
	<ele>2116.80</ele>
	<time>2023-08-07T05:24:11.000Z</time>
</trkpt>
<trkpt lat="46.1063240" lon="10.5229770">
	<ele>2117.00</ele>
	<time>2023-08-07T05:24:12.000Z</time>
</trkpt>
<trkpt lat="46.1063310" lon="10.5229830">
	<ele>2117.20</ele>
	<time>2023-08-07T05:24:13.000Z</time>
</trkpt>
<trkpt lat="46.1063420" lon="10.5230000">
	<ele>2117.40</ele>
	<time>2023-08-07T05:24:14.000Z</time>
</trkpt>
<trkpt lat="46.1063500" lon="10.5230160">
	<ele>2117.60</ele>
	<time>2023-08-07T05:24:15.000Z</time>
</trkpt>
<trkpt lat="46.1063570" lon="10.5230250">
	<ele>2117.60</ele>
	<time>2023-08-07T05:24:16.000Z</time>
</trkpt>
<trkpt lat="46.1063600" lon="10.5230310">
	<ele>2117.80</ele>
	<time>2023-08-07T05:24:17.000Z</time>
</trkpt>
<trkpt lat="46.1063650" lon="10.5230370">
	<ele>2117.80</ele>
	<time>2023-08-07T05:24:18.000Z</time>
</trkpt>
<trkpt lat="46.1063740" lon="10.5230410">
	<ele>2118.00</ele>
	<time>2023-08-07T05:24:19.000Z</time>
</trkpt>
<trkpt lat="46.1063780" lon="10.5230520">
	<ele>2118.20</ele>
	<time>2023-08-07T05:24:20.000Z</time>
</trkpt>
<trkpt lat="46.1063810" lon="10.5230630">
	<ele>2118.20</ele>
	<time>2023-08-07T05:24:21.000Z</time>
</trkpt>
<trkpt lat="46.1063870" lon="10.5230700">
	<ele>2118.40</ele>
	<time>2023-08-07T05:24:22.000Z</time>
</trkpt>
<trkpt lat="46.1063960" lon="10.5230790">
	<ele>2118.40</ele>
	<time>2023-08-07T05:24:23.000Z</time>
</trkpt>
<trkpt lat="46.1064080" lon="10.5230810">
	<ele>2118.60</ele>
	<time>2023-08-07T05:24:24.000Z</time>
</trkpt>
<trkpt lat="46.1064220" lon="10.5230840">
	<ele>2118.60</ele>
	<time>2023-08-07T05:24:25.000Z</time>
</trkpt>
<trkpt lat="46.1064350" lon="10.5230880">
	<ele>2118.60</ele>
	<time>2023-08-07T05:24:26.000Z</time>
</trkpt>
<trkpt lat="46.1064460" lon="10.5230950">
	<ele>2118.60</ele>
	<time>2023-08-07T05:24:27.000Z</time>
</trkpt>
<trkpt lat="46.1064520" lon="10.5231030">
	<ele>2118.80</ele>
	<time>2023-08-07T05:24:28.000Z</time>
</trkpt>
<trkpt lat="46.1064580" lon="10.5231190">
	<ele>2118.80</ele>
	<time>2023-08-07T05:24:29.000Z</time>
</trkpt>
<trkpt lat="46.1064640" lon="10.5231320">
	<ele>2118.80</ele>
	<time>2023-08-07T05:24:30.000Z</time>
</trkpt>
<trkpt lat="46.1064720" lon="10.5231440">
	<ele>2119.00</ele>
	<time>2023-08-07T05:24:31.000Z</time>
</trkpt>
<trkpt lat="46.1064780" lon="10.5231520">
	<ele>2119.00</ele>
	<time>2023-08-07T05:24:32.000Z</time>
</trkpt>
<trkpt lat="46.1064830" lon="10.5231640">
	<ele>2119.00</ele>
	<time>2023-08-07T05:24:33.000Z</time>
</trkpt>
<trkpt lat="46.1064920" lon="10.5231780">
	<ele>2119.20</ele>
	<time>2023-08-07T05:24:34.000Z</time>
</trkpt>
<trkpt lat="46.1065000" lon="10.5231880">
	<ele>2119.20</ele>
	<time>2023-08-07T05:24:35.000Z</time>
</trkpt>
<trkpt lat="46.1065120" lon="10.5232000">
	<ele>2119.20</ele>
	<time>2023-08-07T05:24:36.000Z</time>
</trkpt>
<trkpt lat="46.1065240" lon="10.5232150">
	<ele>2119.20</ele>
	<time>2023-08-07T05:24:37.000Z</time>
</trkpt>
<trkpt lat="46.1065350" lon="10.5232310">
	<ele>2119.40</ele>
	<time>2023-08-07T05:24:38.000Z</time>
</trkpt>
<trkpt lat="46.1065370" lon="10.5232410">
	<ele>2119.40</ele>
	<time>2023-08-07T05:24:39.000Z</time>
</trkpt>
<trkpt lat="46.1065410" lon="10.5232520">
	<ele>2119.40</ele>
	<time>2023-08-07T05:24:40.000Z</time>
</trkpt>
<trkpt lat="46.1065480" lon="10.5232680">
	<ele>2119.60</ele>
	<time>2023-08-07T05:24:41.000Z</time>
</trkpt>
<trkpt lat="46.1065580" lon="10.5232760">
	<ele>2119.60</ele>
	<time>2023-08-07T05:24:42.000Z</time>
</trkpt>
<trkpt lat="46.1065630" lon="10.5232840">
	<ele>2119.60</ele>
	<time>2023-08-07T05:24:43.000Z</time>
</trkpt>
<trkpt lat="46.1065670" lon="10.5232940">
	<ele>2119.80</ele>
	<time>2023-08-07T05:24:44.000Z</time>
</trkpt>
<trkpt lat="46.1065670" lon="10.5233030">
	<ele>2119.80</ele>
	<time>2023-08-07T05:24:45.000Z</time>
</trkpt>
<trkpt lat="46.1065710" lon="10.5233100">
	<ele>2119.80</ele>
	<time>2023-08-07T05:24:46.000Z</time>
</trkpt>
<trkpt lat="46.1065790" lon="10.5233140">
	<ele>2119.80</ele>
	<time>2023-08-07T05:24:47.000Z</time>
</trkpt>
<trkpt lat="46.1065850" lon="10.5233210">
	<ele>2120.00</ele>
	<time>2023-08-07T05:24:48.000Z</time>
</trkpt>
<trkpt lat="46.1065940" lon="10.5233290">
	<ele>2120.00</ele>
	<time>2023-08-07T05:24:49.000Z</time>
</trkpt>
<trkpt lat="46.1066060" lon="10.5233350">
	<ele>2120.00</ele>
	<time>2023-08-07T05:24:50.000Z</time>
</trkpt>
<trkpt lat="46.1066160" lon="10.5233360">
	<ele>2120.00</ele>
	<time>2023-08-07T05:24:51.000Z</time>
</trkpt>
<trkpt lat="46.1066270" lon="10.5233400">
	<ele>2120.20</ele>
	<time>2023-08-07T05:24:52.000Z</time>
</trkpt>
<trkpt lat="46.1066350" lon="10.5233530">
	<ele>2120.20</ele>
	<time>2023-08-07T05:24:53.000Z</time>
</trkpt>
<trkpt lat="46.1066440" lon="10.5233590">
	<ele>2120.40</ele>
	<time>2023-08-07T05:24:54.000Z</time>
</trkpt>
<trkpt lat="46.1066540" lon="10.5233700">
	<ele>2120.40</ele>
	<time>2023-08-07T05:24:55.000Z</time>
</trkpt>
<trkpt lat="46.1066610" lon="10.5233820">
	<ele>2120.60</ele>
	<time>2023-08-07T05:24:56.000Z</time>
</trkpt>
<trkpt lat="46.1066650" lon="10.5233930">
	<ele>2120.60</ele>
	<time>2023-08-07T05:24:57.000Z</time>
</trkpt>
<trkpt lat="46.1066720" lon="10.5234030">
	<ele>2120.60</ele>
	<time>2023-08-07T05:24:58.000Z</time>
</trkpt>
<trkpt lat="46.1066810" lon="10.5234110">
	<ele>2120.60</ele>
	<time>2023-08-07T05:24:59.000Z</time>
</trkpt>
<trkpt lat="46.1066920" lon="10.5234190">
	<ele>2120.60</ele>
	<time>2023-08-07T05:25:00.000Z</time>
</trkpt>
<trkpt lat="46.1067020" lon="10.5234270">
	<ele>2120.60</ele>
	<time>2023-08-07T05:25:01.000Z</time>
</trkpt>
<trkpt lat="46.1067150" lon="10.5234310">
	<ele>2120.60</ele>
	<time>2023-08-07T05:25:02.000Z</time>
</trkpt>
<trkpt lat="46.1067220" lon="10.5234400">
	<ele>2120.60</ele>
	<time>2023-08-07T05:25:03.000Z</time>
</trkpt>
<trkpt lat="46.1067250" lon="10.5234530">
	<ele>2120.80</ele>
	<time>2023-08-07T05:25:04.000Z</time>
</trkpt>
<trkpt lat="46.1067330" lon="10.5234650">
	<ele>2121.00</ele>
	<time>2023-08-07T05:25:05.000Z</time>
</trkpt>
<trkpt lat="46.1067410" lon="10.5234780">
	<ele>2121.20</ele>
	<time>2023-08-07T05:25:06.000Z</time>
</trkpt>
<trkpt lat="46.1067490" lon="10.5234850">
	<ele>2121.20</ele>
	<time>2023-08-07T05:25:07.000Z</time>
</trkpt>
<trkpt lat="46.1067540" lon="10.5234890">
	<ele>2121.40</ele>
	<time>2023-08-07T05:25:08.000Z</time>
</trkpt>
<trkpt lat="46.1067640" lon="10.5234960">
	<ele>2121.40</ele>
	<time>2023-08-07T05:25:09.000Z</time>
</trkpt>
<trkpt lat="46.1067750" lon="10.5235010">
	<ele>2121.40</ele>
	<time>2023-08-07T05:25:10.000Z</time>
</trkpt>
<trkpt lat="46.1067860" lon="10.5235050">
	<ele>2121.40</ele>
	<time>2023-08-07T05:25:11.000Z</time>
</trkpt>
<trkpt lat="46.1067900" lon="10.5235130">
	<ele>2121.40</ele>
	<time>2023-08-07T05:25:12.000Z</time>
</trkpt>
<trkpt lat="46.1067950" lon="10.5235180">
	<ele>2121.40</ele>
	<time>2023-08-07T05:25:13.000Z</time>
</trkpt>
<trkpt lat="46.1068070" lon="10.5235230">
	<ele>2121.40</ele>
	<time>2023-08-07T05:25:14.000Z</time>
</trkpt>
<trkpt lat="46.1068190" lon="10.5235260">
	<ele>2121.40</ele>
	<time>2023-08-07T05:25:15.000Z</time>
</trkpt>
<trkpt lat="46.1068300" lon="10.5235340">
	<ele>2121.40</ele>
	<time>2023-08-07T05:25:16.000Z</time>
</trkpt>
<trkpt lat="46.1068350" lon="10.5235390">
	<ele>2121.40</ele>
	<time>2023-08-07T05:25:17.000Z</time>
</trkpt>
<trkpt lat="46.1068410" lon="10.5235550">
	<ele>2121.60</ele>
	<time>2023-08-07T05:25:18.000Z</time>
</trkpt>
<trkpt lat="46.1068450" lon="10.5235730">
	<ele>2121.60</ele>
	<time>2023-08-07T05:25:19.000Z</time>
</trkpt>
<trkpt lat="46.1068450" lon="10.5235890">
	<ele>2121.80</ele>
	<time>2023-08-07T05:25:20.000Z</time>
</trkpt>
<trkpt lat="46.1068460" lon="10.5236120">
	<ele>2121.80</ele>
	<time>2023-08-07T05:25:21.000Z</time>
</trkpt>
<trkpt lat="46.1068450" lon="10.5236230">
	<ele>2121.80</ele>
	<time>2023-08-07T05:25:22.000Z</time>
</trkpt>
<trkpt lat="46.1068470" lon="10.5236350">
	<ele>2121.80</ele>
	<time>2023-08-07T05:25:23.000Z</time>
</trkpt>
<trkpt lat="46.1068520" lon="10.5236540">
	<ele>2121.80</ele>
	<time>2023-08-07T05:25:24.000Z</time>
</trkpt>
<trkpt lat="46.1068550" lon="10.5236740">
	<ele>2121.80</ele>
	<time>2023-08-07T05:25:25.000Z</time>
</trkpt>
<trkpt lat="46.1068590" lon="10.5236920">
	<ele>2122.00</ele>
	<time>2023-08-07T05:25:26.000Z</time>
</trkpt>
<trkpt lat="46.1068650" lon="10.5237110">
	<ele>2122.00</ele>
	<time>2023-08-07T05:25:27.000Z</time>
</trkpt>
<trkpt lat="46.1068710" lon="10.5237210">
	<ele>2122.20</ele>
	<time>2023-08-07T05:25:28.000Z</time>
</trkpt>
<trkpt lat="46.1068780" lon="10.5237340">
	<ele>2122.40</ele>
	<time>2023-08-07T05:25:29.000Z</time>
</trkpt>
<trkpt lat="46.1068830" lon="10.5237470">
	<ele>2122.80</ele>
	<time>2023-08-07T05:25:30.000Z</time>
</trkpt>
<trkpt lat="46.1068870" lon="10.5237600">
	<ele>2123.00</ele>
	<time>2023-08-07T05:25:31.000Z</time>
</trkpt>
<trkpt lat="46.1068970" lon="10.5237740">
	<ele>2123.00</ele>
	<time>2023-08-07T05:25:32.000Z</time>
</trkpt>
<trkpt lat="46.1069030" lon="10.5237830">
	<ele>2123.20</ele>
	<time>2023-08-07T05:25:33.000Z</time>
</trkpt>
<trkpt lat="46.1069130" lon="10.5237920">
	<ele>2123.20</ele>
	<time>2023-08-07T05:25:34.000Z</time>
</trkpt>
<trkpt lat="46.1069220" lon="10.5237980">
	<ele>2123.40</ele>
	<time>2023-08-07T05:25:35.000Z</time>
</trkpt>
<trkpt lat="46.1069280" lon="10.5238050">
	<ele>2123.40</ele>
	<time>2023-08-07T05:25:36.000Z</time>
</trkpt>
<trkpt lat="46.1069340" lon="10.5238130">
	<ele>2123.60</ele>
	<time>2023-08-07T05:25:37.000Z</time>
</trkpt>
<trkpt lat="46.1069420" lon="10.5238250">
	<ele>2123.80</ele>
	<time>2023-08-07T05:25:38.000Z</time>
</trkpt>
<trkpt lat="46.1069410" lon="10.5238440">
	<ele>2123.80</ele>
	<time>2023-08-07T05:25:39.000Z</time>
</trkpt>
<trkpt lat="46.1069410" lon="10.5238540">
	<ele>2124.00</ele>
	<time>2023-08-07T05:25:40.000Z</time>
</trkpt>
<trkpt lat="46.1069490" lon="10.5238610">
	<ele>2124.00</ele>
	<time>2023-08-07T05:25:41.000Z</time>
</trkpt>
<trkpt lat="46.1069580" lon="10.5238660">
	<ele>2124.00</ele>
	<time>2023-08-07T05:25:42.000Z</time>
</trkpt>
<trkpt lat="46.1069650" lon="10.5238710">
	<ele>2124.20</ele>
	<time>2023-08-07T05:25:43.000Z</time>
</trkpt>
<trkpt lat="46.1069740" lon="10.5238730">
	<ele>2124.20</ele>
	<time>2023-08-07T05:25:44.000Z</time>
</trkpt>
<trkpt lat="46.1069820" lon="10.5238790">
	<ele>2124.20</ele>
	<time>2023-08-07T05:25:45.000Z</time>
</trkpt>
<trkpt lat="46.1069880" lon="10.5238880">
	<ele>2124.60</ele>
	<time>2023-08-07T05:25:46.000Z</time>
</trkpt>
<trkpt lat="46.1069970" lon="10.5238990">
	<ele>2124.80</ele>
	<time>2023-08-07T05:25:47.000Z</time>
</trkpt>
<trkpt lat="46.1070040" lon="10.5239000">
	<ele>2125.00</ele>
	<time>2023-08-07T05:25:48.000Z</time>
</trkpt>
<trkpt lat="46.1070130" lon="10.5239050">
	<ele>2125.20</ele>
	<time>2023-08-07T05:25:49.000Z</time>
</trkpt>
<trkpt lat="46.1070260" lon="10.5239080">
	<ele>2125.40</ele>
	<time>2023-08-07T05:25:50.000Z</time>
</trkpt>
<trkpt lat="46.1070360" lon="10.5239180">
	<ele>2125.40</ele>
	<time>2023-08-07T05:25:51.000Z</time>
</trkpt>
<trkpt lat="46.1070460" lon="10.5239300">
	<ele>2125.40</ele>
	<time>2023-08-07T05:25:52.000Z</time>
</trkpt>
<trkpt lat="46.1070540" lon="10.5239390">
	<ele>2125.40</ele>
	<time>2023-08-07T05:25:53.000Z</time>
</trkpt>
<trkpt lat="46.1070640" lon="10.5239410">
	<ele>2125.40</ele>
	<time>2023-08-07T05:25:54.000Z</time>
</trkpt>
<trkpt lat="46.1070700" lon="10.5239420">
	<ele>2125.40</ele>
	<time>2023-08-07T05:25:55.000Z</time>
</trkpt>
<trkpt lat="46.1070760" lon="10.5239430">
	<ele>2125.40</ele>
	<time>2023-08-07T05:25:56.000Z</time>
</trkpt>
<trkpt lat="46.1070850" lon="10.5239450">
	<ele>2125.40</ele>
	<time>2023-08-07T05:25:57.000Z</time>
</trkpt>
<trkpt lat="46.1070930" lon="10.5239480">
	<ele>2125.20</ele>
	<time>2023-08-07T05:25:58.000Z</time>
</trkpt>
<trkpt lat="46.1071040" lon="10.5239480">
	<ele>2125.20</ele>
	<time>2023-08-07T05:25:59.000Z</time>
</trkpt>
<trkpt lat="46.1071220" lon="10.5239470">
	<ele>2125.20</ele>
	<time>2023-08-07T05:26:00.000Z</time>
</trkpt>
<trkpt lat="46.1071370" lon="10.5239460">
	<ele>2125.20</ele>
	<time>2023-08-07T05:26:01.000Z</time>
</trkpt>
<trkpt lat="46.1071480" lon="10.5239530">
	<ele>2125.00</ele>
	<time>2023-08-07T05:26:02.000Z</time>
</trkpt>
<trkpt lat="46.1071580" lon="10.5239670">
	<ele>2125.20</ele>
	<time>2023-08-07T05:26:03.000Z</time>
</trkpt>
<trkpt lat="46.1071640" lon="10.5239760">
	<ele>2125.00</ele>
	<time>2023-08-07T05:26:04.000Z</time>
</trkpt>
<trkpt lat="46.1071650" lon="10.5239870">
	<ele>2125.00</ele>
	<time>2023-08-07T05:26:05.000Z</time>
</trkpt>
<trkpt lat="46.1071620" lon="10.5239980">
	<ele>2125.00</ele>
	<time>2023-08-07T05:26:06.000Z</time>
</trkpt>
<trkpt lat="46.1071610" lon="10.5240060">
	<ele>2125.20</ele>
	<time>2023-08-07T05:26:07.000Z</time>
</trkpt>
<trkpt lat="46.1071580" lon="10.5240070">
	<ele>2125.20</ele>
	<time>2023-08-07T05:26:08.000Z</time>
</trkpt>
<trkpt lat="46.1071610" lon="10.5240150">
	<ele>2125.60</ele>
	<time>2023-08-07T05:26:09.000Z</time>
</trkpt>
<trkpt lat="46.1071670" lon="10.5240190">
	<ele>2125.80</ele>
	<time>2023-08-07T05:26:10.000Z</time>
</trkpt>
<trkpt lat="46.1071740" lon="10.5240290">
	<ele>2126.00</ele>
	<time>2023-08-07T05:26:11.000Z</time>
</trkpt>
<trkpt lat="46.1071810" lon="10.5240340">
	<ele>2126.20</ele>
	<time>2023-08-07T05:26:12.000Z</time>
</trkpt>
<trkpt lat="46.1071920" lon="10.5240350">
	<ele>2126.40</ele>
	<time>2023-08-07T05:26:13.000Z</time>
</trkpt>
<trkpt lat="46.1072010" lon="10.5240340">
	<ele>2126.40</ele>
	<time>2023-08-07T05:26:14.000Z</time>
</trkpt>
<trkpt lat="46.1072130" lon="10.5240410">
	<ele>2126.60</ele>
	<time>2023-08-07T05:26:15.000Z</time>
</trkpt>
<trkpt lat="46.1072210" lon="10.5240500">
	<ele>2126.80</ele>
	<time>2023-08-07T05:26:16.000Z</time>
</trkpt>
<trkpt lat="46.1072320" lon="10.5240570">
	<ele>2126.80</ele>
	<time>2023-08-07T05:26:17.000Z</time>
</trkpt>
<trkpt lat="46.1072390" lon="10.5240640">
	<ele>2127.00</ele>
	<time>2023-08-07T05:26:18.000Z</time>
</trkpt>
<trkpt lat="46.1072500" lon="10.5240740">
	<ele>2127.20</ele>
	<time>2023-08-07T05:26:19.000Z</time>
</trkpt>
<trkpt lat="46.1072630" lon="10.5240880">
	<ele>2127.40</ele>
	<time>2023-08-07T05:26:20.000Z</time>
</trkpt>
<trkpt lat="46.1072700" lon="10.5240940">
	<ele>2127.60</ele>
	<time>2023-08-07T05:26:21.000Z</time>
</trkpt>
<trkpt lat="46.1072800" lon="10.5241020">
	<ele>2127.60</ele>
	<time>2023-08-07T05:26:22.000Z</time>
</trkpt>
<trkpt lat="46.1072910" lon="10.5241090">
	<ele>2127.60</ele>
	<time>2023-08-07T05:26:23.000Z</time>
</trkpt>
<trkpt lat="46.1073010" lon="10.5241190">
	<ele>2127.60</ele>
	<time>2023-08-07T05:26:24.000Z</time>
</trkpt>
<trkpt lat="46.1073100" lon="10.5241300">
	<ele>2127.60</ele>
	<time>2023-08-07T05:26:25.000Z</time>
</trkpt>
<trkpt lat="46.1073220" lon="10.5241400">
	<ele>2127.60</ele>
	<time>2023-08-07T05:26:26.000Z</time>
</trkpt>
<trkpt lat="46.1073320" lon="10.5241470">
	<ele>2127.60</ele>
	<time>2023-08-07T05:26:27.000Z</time>
</trkpt>
<trkpt lat="46.1073400" lon="10.5241520">
	<ele>2127.60</ele>
	<time>2023-08-07T05:26:28.000Z</time>
</trkpt>
<trkpt lat="46.1073470" lon="10.5241590">
	<ele>2127.80</ele>
	<time>2023-08-07T05:26:29.000Z</time>
</trkpt>
<trkpt lat="46.1073540" lon="10.5241660">
	<ele>2127.80</ele>
	<time>2023-08-07T05:26:30.000Z</time>
</trkpt>
<trkpt lat="46.1073620" lon="10.5241760">
	<ele>2128.00</ele>
	<time>2023-08-07T05:26:31.000Z</time>
</trkpt>
<trkpt lat="46.1073690" lon="10.5241870">
	<ele>2128.00</ele>
	<time>2023-08-07T05:26:32.000Z</time>
</trkpt>
<trkpt lat="46.1073770" lon="10.5241990">
	<ele>2128.20</ele>
	<time>2023-08-07T05:26:33.000Z</time>
</trkpt>
<trkpt lat="46.1073830" lon="10.5242070">
	<ele>2128.20</ele>
	<time>2023-08-07T05:26:34.000Z</time>
</trkpt>
<trkpt lat="46.1073920" lon="10.5242160">
	<ele>2128.20</ele>
	<time>2023-08-07T05:26:35.000Z</time>
</trkpt>
<trkpt lat="46.1074030" lon="10.5242200">
	<ele>2128.20</ele>
	<time>2023-08-07T05:26:36.000Z</time>
</trkpt>
<trkpt lat="46.1074090" lon="10.5242260">
	<ele>2128.20</ele>
	<time>2023-08-07T05:26:37.000Z</time>
</trkpt>
<trkpt lat="46.1074170" lon="10.5242320">
	<ele>2128.20</ele>
	<time>2023-08-07T05:26:38.000Z</time>
</trkpt>
<trkpt lat="46.1074260" lon="10.5242440">
	<ele>2128.20</ele>
	<time>2023-08-07T05:26:39.000Z</time>
</trkpt>
<trkpt lat="46.1074350" lon="10.5242510">
	<ele>2128.00</ele>
	<time>2023-08-07T05:26:40.000Z</time>
</trkpt>
<trkpt lat="46.1074420" lon="10.5242620">
	<ele>2127.80</ele>
	<time>2023-08-07T05:26:41.000Z</time>
</trkpt>
<trkpt lat="46.1074520" lon="10.5242760">
	<ele>2127.80</ele>
	<time>2023-08-07T05:26:42.000Z</time>
</trkpt>
<trkpt lat="46.1074610" lon="10.5242810">
	<ele>2127.60</ele>
	<time>2023-08-07T05:26:43.000Z</time>
</trkpt>
<trkpt lat="46.1074680" lon="10.5242830">
	<ele>2127.60</ele>
	<time>2023-08-07T05:26:44.000Z</time>
</trkpt>
<trkpt lat="46.1074740" lon="10.5242860">
	<ele>2127.40</ele>
	<time>2023-08-07T05:26:45.000Z</time>
</trkpt>
<trkpt lat="46.1074770" lon="10.5242860">
	<ele>2127.40</ele>
	<time>2023-08-07T05:26:46.000Z</time>
</trkpt>
<trkpt lat="46.1074780" lon="10.5242870">
	<ele>2127.40</ele>
	<time>2023-08-07T05:26:47.000Z</time>
</trkpt>
<trkpt lat="46.1074780" lon="10.5242860">
	<ele>2127.40</ele>
	<time>2023-08-07T05:26:48.000Z</time>
</trkpt>
<trkpt lat="46.1074790" lon="10.5242850">
	<ele>2127.20</ele>
	<time>2023-08-07T05:26:49.000Z</time>
</trkpt>
<trkpt lat="46.1074810" lon="10.5242870">
	<ele>2127.20</ele>
	<time>2023-08-07T05:26:50.000Z</time>
</trkpt>
<trkpt lat="46.1074830" lon="10.5242880">
	<ele>2127.20</ele>
	<time>2023-08-07T05:26:51.000Z</time>
</trkpt>
<trkpt lat="46.1074840" lon="10.5242880">
	<ele>2127.20</ele>
	<time>2023-08-07T05:26:52.000Z</time>
</trkpt>
<trkpt lat="46.1074840" lon="10.5242890">
	<ele>2127.20</ele>
	<time>2023-08-07T05:26:53.000Z</time>
</trkpt>
<trkpt lat="46.1074840" lon="10.5242900">
	<ele>2127.40</ele>
	<time>2023-08-07T05:26:54.000Z</time>
</trkpt>
<trkpt lat="46.1074860" lon="10.5242890">
	<ele>2127.60</ele>
	<time>2023-08-07T05:26:55.000Z</time>
</trkpt>
<trkpt lat="46.1074870" lon="10.5242880">
	<ele>2127.60</ele>
	<time>2023-08-07T05:26:56.000Z</time>
</trkpt>
<trkpt lat="46.1074880" lon="10.5242870">
	<ele>2127.80</ele>
	<time>2023-08-07T05:26:57.000Z</time>
</trkpt>
<trkpt lat="46.1074900" lon="10.5242850">
	<ele>2127.80</ele>
	<time>2023-08-07T05:26:58.000Z</time>
</trkpt>
<trkpt lat="46.1074900" lon="10.5242830">
	<ele>2127.80</ele>
	<time>2023-08-07T05:26:59.000Z</time>
</trkpt>
<trkpt lat="46.1074900" lon="10.5242800">
	<ele>2127.80</ele>
	<time>2023-08-07T05:27:00.000Z</time>
</trkpt>
<trkpt lat="46.1074900" lon="10.5242810">
	<ele>2127.80</ele>
	<time>2023-08-07T05:27:01.000Z</time>
</trkpt>
<trkpt lat="46.1074910" lon="10.5242830">
	<ele>2127.40</ele>
	<time>2023-08-07T05:27:02.000Z</time>
</trkpt>
<trkpt lat="46.1074910" lon="10.5242830">
	<ele>2127.40</ele>
	<time>2023-08-07T05:27:03.000Z</time>
</trkpt>
<trkpt lat="46.1074910" lon="10.5242830">
	<ele>2127.20</ele>
	<time>2023-08-07T05:27:04.000Z</time>
</trkpt>
<trkpt lat="46.1074910" lon="10.5242830">
	<ele>2127.20</ele>
	<time>2023-08-07T05:27:05.000Z</time>
</trkpt>
<trkpt lat="46.1074910" lon="10.5242830">
	<ele>2127.20</ele>
	<time>2023-08-07T05:27:06.000Z</time>
</trkpt>
<trkpt lat="46.1074910" lon="10.5242830">
	<ele>2127.40</ele>
	<time>2023-08-07T05:27:07.000Z</time>
</trkpt>
<trkpt lat="46.1074910" lon="10.5242830">
	<ele>2127.60</ele>
	<time>2023-08-07T05:27:08.000Z</time>
</trkpt>
<trkpt lat="46.1074940" lon="10.5242870">
	<ele>2127.80</ele>
	<time>2023-08-07T05:27:09.000Z</time>
</trkpt>
<trkpt lat="46.1075040" lon="10.5243050">
	<ele>2128.00</ele>
	<time>2023-08-07T05:27:10.000Z</time>
</trkpt>
<trkpt lat="46.1075100" lon="10.5243260">
	<ele>2128.00</ele>
	<time>2023-08-07T05:27:11.000Z</time>
</trkpt>
<trkpt lat="46.1075160" lon="10.5243460">
	<ele>2128.40</ele>
	<time>2023-08-07T05:27:12.000Z</time>
</trkpt>
<trkpt lat="46.1075220" lon="10.5243620">
	<ele>2128.60</ele>
	<time>2023-08-07T05:27:13.000Z</time>
</trkpt>
<trkpt lat="46.1075270" lon="10.5243760">
	<ele>2128.80</ele>
	<time>2023-08-07T05:27:14.000Z</time>
</trkpt>
<trkpt lat="46.1075320" lon="10.5243920">
	<ele>2128.80</ele>
	<time>2023-08-07T05:27:15.000Z</time>
</trkpt>
<trkpt lat="46.1075390" lon="10.5244050">
	<ele>2128.60</ele>
	<time>2023-08-07T05:27:16.000Z</time>
</trkpt>
<trkpt lat="46.1075510" lon="10.5244150">
	<ele>2128.40</ele>
	<time>2023-08-07T05:27:17.000Z</time>
</trkpt>
<trkpt lat="46.1075570" lon="10.5244260">
	<ele>2128.40</ele>
	<time>2023-08-07T05:27:18.000Z</time>
</trkpt>
<trkpt lat="46.1075640" lon="10.5244350">
	<ele>2128.20</ele>
	<time>2023-08-07T05:27:19.000Z</time>
</trkpt>
<trkpt lat="46.1075730" lon="10.5244440">
	<ele>2128.20</ele>
	<time>2023-08-07T05:27:20.000Z</time>
</trkpt>
<trkpt lat="46.1075820" lon="10.5244450">
	<ele>2128.20</ele>
	<time>2023-08-07T05:27:21.000Z</time>
</trkpt>
<trkpt lat="46.1075850" lon="10.5244420">
	<ele>2128.40</ele>
	<time>2023-08-07T05:27:22.000Z</time>
</trkpt>
<trkpt lat="46.1075860" lon="10.5244370">
	<ele>2128.60</ele>
	<time>2023-08-07T05:27:23.000Z</time>
</trkpt>
<trkpt lat="46.1075910" lon="10.5244330">
	<ele>2128.80</ele>
	<time>2023-08-07T05:27:24.000Z</time>
</trkpt>
<trkpt lat="46.1076020" lon="10.5244330">
	<ele>2129.00</ele>
	<time>2023-08-07T05:27:25.000Z</time>
</trkpt>
<trkpt lat="46.1076100" lon="10.5244300">
	<ele>2129.20</ele>
	<time>2023-08-07T05:27:26.000Z</time>
</trkpt>
<trkpt lat="46.1076210" lon="10.5244240">
	<ele>2129.20</ele>
	<time>2023-08-07T05:27:27.000Z</time>
</trkpt>
<trkpt lat="46.1076310" lon="10.5244260">
	<ele>2129.20</ele>
	<time>2023-08-07T05:27:28.000Z</time>
</trkpt>
<trkpt lat="46.1076450" lon="10.5244330">
	<ele>2129.20</ele>
	<time>2023-08-07T05:27:29.000Z</time>
</trkpt>
<trkpt lat="46.1076570" lon="10.5244390">
	<ele>2129.40</ele>
	<time>2023-08-07T05:27:30.000Z</time>
</trkpt>
<trkpt lat="46.1076670" lon="10.5244450">
	<ele>2129.40</ele>
	<time>2023-08-07T05:27:31.000Z</time>
</trkpt>
<trkpt lat="46.1076780" lon="10.5244490">
	<ele>2129.60</ele>
	<time>2023-08-07T05:27:32.000Z</time>
</trkpt>
<trkpt lat="46.1076880" lon="10.5244580">
	<ele>2129.60</ele>
	<time>2023-08-07T05:27:33.000Z</time>
</trkpt>
<trkpt lat="46.1076960" lon="10.5244640">
	<ele>2129.60</ele>
	<time>2023-08-07T05:27:34.000Z</time>
</trkpt>
<trkpt lat="46.1077020" lon="10.5244660">
	<ele>2129.60</ele>
	<time>2023-08-07T05:27:35.000Z</time>
</trkpt>
<trkpt lat="46.1077040" lon="10.5244660">
	<ele>2129.80</ele>
	<time>2023-08-07T05:27:36.000Z</time>
</trkpt>
<trkpt lat="46.1077110" lon="10.5244670">
	<ele>2129.80</ele>
	<time>2023-08-07T05:27:37.000Z</time>
</trkpt>
<trkpt lat="46.1077210" lon="10.5244740">
	<ele>2130.00</ele>
	<time>2023-08-07T05:27:38.000Z</time>
</trkpt>
<trkpt lat="46.1077310" lon="10.5244830">
	<ele>2130.20</ele>
	<time>2023-08-07T05:27:39.000Z</time>
</trkpt>
<trkpt lat="46.1077420" lon="10.5244890">
	<ele>2130.20</ele>
	<time>2023-08-07T05:27:40.000Z</time>
</trkpt>
<trkpt lat="46.1077510" lon="10.5244930">
	<ele>2130.20</ele>
	<time>2023-08-07T05:27:41.000Z</time>
</trkpt>
<trkpt lat="46.1077570" lon="10.5244980">
	<ele>2130.20</ele>
	<time>2023-08-07T05:27:42.000Z</time>
</trkpt>
<trkpt lat="46.1077640" lon="10.5245030">
	<ele>2130.40</ele>
	<time>2023-08-07T05:27:43.000Z</time>
</trkpt>
<trkpt lat="46.1077720" lon="10.5245060">
	<ele>2130.40</ele>
	<time>2023-08-07T05:27:44.000Z</time>
</trkpt>
<trkpt lat="46.1077820" lon="10.5245120">
	<ele>2130.40</ele>
	<time>2023-08-07T05:27:45.000Z</time>
</trkpt>
<trkpt lat="46.1077920" lon="10.5245150">
	<ele>2130.80</ele>
	<time>2023-08-07T05:27:46.000Z</time>
</trkpt>
<trkpt lat="46.1078030" lon="10.5245220">
	<ele>2131.20</ele>
	<time>2023-08-07T05:27:47.000Z</time>
</trkpt>
<trkpt lat="46.1078110" lon="10.5245370">
	<ele>2131.20</ele>
	<time>2023-08-07T05:27:48.000Z</time>
</trkpt>
<trkpt lat="46.1078170" lon="10.5245570">
	<ele>2131.40</ele>
	<time>2023-08-07T05:27:49.000Z</time>
</trkpt>
<trkpt lat="46.1078220" lon="10.5245680">
	<ele>2131.40</ele>
	<time>2023-08-07T05:27:50.000Z</time>
</trkpt>
<trkpt lat="46.1078290" lon="10.5245790">
	<ele>2131.60</ele>
	<time>2023-08-07T05:27:51.000Z</time>
</trkpt>
<trkpt lat="46.1078370" lon="10.5245910">
	<ele>2131.80</ele>
	<time>2023-08-07T05:27:52.000Z</time>
</trkpt>
<trkpt lat="46.1078490" lon="10.5245970">
	<ele>2131.60</ele>
	<time>2023-08-07T05:27:53.000Z</time>
</trkpt>
<trkpt lat="46.1078600" lon="10.5246050">
	<ele>2131.60</ele>
	<time>2023-08-07T05:27:54.000Z</time>
</trkpt>
<trkpt lat="46.1078650" lon="10.5246100">
	<ele>2131.60</ele>
	<time>2023-08-07T05:27:55.000Z</time>
</trkpt>
<trkpt lat="46.1078670" lon="10.5246210">
	<ele>2131.40</ele>
	<time>2023-08-07T05:27:56.000Z</time>
</trkpt>
<trkpt lat="46.1078700" lon="10.5246240">
	<ele>2131.20</ele>
	<time>2023-08-07T05:27:57.000Z</time>
</trkpt>
<trkpt lat="46.1078740" lon="10.5246280">
	<ele>2131.20</ele>
	<time>2023-08-07T05:27:58.000Z</time>
</trkpt>
<trkpt lat="46.1078830" lon="10.5246350">
	<ele>2131.20</ele>
	<time>2023-08-07T05:27:59.000Z</time>
</trkpt>
<trkpt lat="46.1078940" lon="10.5246450">
	<ele>2131.20</ele>
	<time>2023-08-07T05:28:00.000Z</time>
</trkpt>
<trkpt lat="46.1079040" lon="10.5246550">
	<ele>2131.20</ele>
	<time>2023-08-07T05:28:01.000Z</time>
</trkpt>
<trkpt lat="46.1079070" lon="10.5246630">
	<ele>2131.20</ele>
	<time>2023-08-07T05:28:02.000Z</time>
</trkpt>
<trkpt lat="46.1079100" lon="10.5246740">
	<ele>2131.20</ele>
	<time>2023-08-07T05:28:03.000Z</time>
</trkpt>
<trkpt lat="46.1079150" lon="10.5246840">
	<ele>2131.20</ele>
	<time>2023-08-07T05:28:04.000Z</time>
</trkpt>
<trkpt lat="46.1079180" lon="10.5246900">
	<ele>2131.20</ele>
	<time>2023-08-07T05:28:05.000Z</time>
</trkpt>
<trkpt lat="46.1079240" lon="10.5246960">
	<ele>2131.20</ele>
	<time>2023-08-07T05:28:06.000Z</time>
</trkpt>
<trkpt lat="46.1079320" lon="10.5247060">
	<ele>2131.40</ele>
	<time>2023-08-07T05:28:07.000Z</time>
</trkpt>
<trkpt lat="46.1079400" lon="10.5247110">
	<ele>2131.60</ele>
	<time>2023-08-07T05:28:08.000Z</time>
</trkpt>
<trkpt lat="46.1079470" lon="10.5247190">
	<ele>2131.80</ele>
	<time>2023-08-07T05:28:09.000Z</time>
</trkpt>
<trkpt lat="46.1079560" lon="10.5247230">
	<ele>2132.00</ele>
	<time>2023-08-07T05:28:10.000Z</time>
</trkpt>
<trkpt lat="46.1079630" lon="10.5247300">
	<ele>2132.20</ele>
	<time>2023-08-07T05:28:11.000Z</time>
</trkpt>
<trkpt lat="46.1079710" lon="10.5247370">
	<ele>2132.20</ele>
	<time>2023-08-07T05:28:12.000Z</time>
</trkpt>
<trkpt lat="46.1079820" lon="10.5247430">
	<ele>2132.40</ele>
	<time>2023-08-07T05:28:13.000Z</time>
</trkpt>
<trkpt lat="46.1079920" lon="10.5247460">
	<ele>2132.60</ele>
	<time>2023-08-07T05:28:14.000Z</time>
</trkpt>
<trkpt lat="46.1080030" lon="10.5247500">
	<ele>2132.60</ele>
	<time>2023-08-07T05:28:15.000Z</time>
</trkpt>
<trkpt lat="46.1080090" lon="10.5247590">
	<ele>2132.80</ele>
	<time>2023-08-07T05:28:16.000Z</time>
</trkpt>
<trkpt lat="46.1080110" lon="10.5247690">
	<ele>2133.00</ele>
	<time>2023-08-07T05:28:17.000Z</time>
</trkpt>
<trkpt lat="46.1080170" lon="10.5247780">
	<ele>2133.00</ele>
	<time>2023-08-07T05:28:18.000Z</time>
</trkpt>
<trkpt lat="46.1080260" lon="10.5247830">
	<ele>2133.00</ele>
	<time>2023-08-07T05:28:19.000Z</time>
</trkpt>
<trkpt lat="46.1080370" lon="10.5247880">
	<ele>2133.00</ele>
	<time>2023-08-07T05:28:20.000Z</time>
</trkpt>
<trkpt lat="46.1080460" lon="10.5247940">
	<ele>2133.00</ele>
	<time>2023-08-07T05:28:21.000Z</time>
</trkpt>
<trkpt lat="46.1080600" lon="10.5247990">
	<ele>2133.00</ele>
	<time>2023-08-07T05:28:22.000Z</time>
</trkpt>
<trkpt lat="46.1080690" lon="10.5248050">
	<ele>2133.00</ele>
	<time>2023-08-07T05:28:23.000Z</time>
</trkpt>
<trkpt lat="46.1080760" lon="10.5248100">
	<ele>2132.80</ele>
	<time>2023-08-07T05:28:24.000Z</time>
</trkpt>
<trkpt lat="46.1080820" lon="10.5248160">
	<ele>2133.20</ele>
	<time>2023-08-07T05:28:25.000Z</time>
</trkpt>
<trkpt lat="46.1080900" lon="10.5248190">
	<ele>2133.60</ele>
	<time>2023-08-07T05:28:26.000Z</time>
</trkpt>
<trkpt lat="46.1081000" lon="10.5248240">
	<ele>2133.80</ele>
	<time>2023-08-07T05:28:27.000Z</time>
</trkpt>
<trkpt lat="46.1081100" lon="10.5248280">
	<ele>2134.00</ele>
	<time>2023-08-07T05:28:28.000Z</time>
</trkpt>
<trkpt lat="46.1081200" lon="10.5248350">
	<ele>2134.00</ele>
	<time>2023-08-07T05:28:29.000Z</time>
</trkpt>
<trkpt lat="46.1081300" lon="10.5248450">
	<ele>2134.20</ele>
	<time>2023-08-07T05:28:30.000Z</time>
</trkpt>
<trkpt lat="46.1081330" lon="10.5248560">
	<ele>2134.40</ele>
	<time>2023-08-07T05:28:31.000Z</time>
</trkpt>
<trkpt lat="46.1081390" lon="10.5248690">
	<ele>2134.60</ele>
	<time>2023-08-07T05:28:32.000Z</time>
</trkpt>
<trkpt lat="46.1081480" lon="10.5248800">
	<ele>2134.80</ele>
	<time>2023-08-07T05:28:33.000Z</time>
</trkpt>
<trkpt lat="46.1081600" lon="10.5248860">
	<ele>2134.80</ele>
	<time>2023-08-07T05:28:34.000Z</time>
</trkpt>
<trkpt lat="46.1081720" lon="10.5248920">
	<ele>2135.00</ele>
	<time>2023-08-07T05:28:35.000Z</time>
</trkpt>
<trkpt lat="46.1081840" lon="10.5248930">
	<ele>2135.00</ele>
	<time>2023-08-07T05:28:36.000Z</time>
</trkpt>
<trkpt lat="46.1081930" lon="10.5248890">
	<ele>2135.20</ele>
	<time>2023-08-07T05:28:37.000Z</time>
</trkpt>
<trkpt lat="46.1082030" lon="10.5248850">
	<ele>2135.20</ele>
	<time>2023-08-07T05:28:38.000Z</time>
</trkpt>
<trkpt lat="46.1082110" lon="10.5248870">
	<ele>2135.40</ele>
	<time>2023-08-07T05:28:39.000Z</time>
</trkpt>
<trkpt lat="46.1082170" lon="10.5248900">
	<ele>2135.40</ele>
	<time>2023-08-07T05:28:40.000Z</time>
</trkpt>
<trkpt lat="46.1082280" lon="10.5248960">
	<ele>2135.40</ele>
	<time>2023-08-07T05:28:41.000Z</time>
</trkpt>
<trkpt lat="46.1082410" lon="10.5249050">
	<ele>2135.60</ele>
	<time>2023-08-07T05:28:42.000Z</time>
</trkpt>
<trkpt lat="46.1082530" lon="10.5249170">
	<ele>2135.60</ele>
	<time>2023-08-07T05:28:43.000Z</time>
</trkpt>
<trkpt lat="46.1082620" lon="10.5249260">
	<ele>2135.60</ele>
	<time>2023-08-07T05:28:44.000Z</time>
</trkpt>
<trkpt lat="46.1082690" lon="10.5249340">
	<ele>2135.80</ele>
	<time>2023-08-07T05:28:45.000Z</time>
</trkpt>
<trkpt lat="46.1082790" lon="10.5249390">
	<ele>2136.00</ele>
	<time>2023-08-07T05:28:46.000Z</time>
</trkpt>
<trkpt lat="46.1082890" lon="10.5249400">
	<ele>2136.20</ele>
	<time>2023-08-07T05:28:47.000Z</time>
</trkpt>
<trkpt lat="46.1083010" lon="10.5249380">
	<ele>2136.40</ele>
	<time>2023-08-07T05:28:48.000Z</time>
</trkpt>
<trkpt lat="46.1083160" lon="10.5249360">
	<ele>2136.60</ele>
	<time>2023-08-07T05:28:49.000Z</time>
</trkpt>
<trkpt lat="46.1083260" lon="10.5249340">
	<ele>2136.80</ele>
	<time>2023-08-07T05:28:50.000Z</time>
</trkpt>
<trkpt lat="46.1083350" lon="10.5249260">
	<ele>2136.80</ele>
	<time>2023-08-07T05:28:51.000Z</time>
</trkpt>
<trkpt lat="46.1083440" lon="10.5249200">
	<ele>2136.80</ele>
	<time>2023-08-07T05:28:52.000Z</time>
</trkpt>
<trkpt lat="46.1083560" lon="10.5249180">
	<ele>2136.80</ele>
	<time>2023-08-07T05:28:53.000Z</time>
</trkpt>
<trkpt lat="46.1083650" lon="10.5249240">
	<ele>2136.80</ele>
	<time>2023-08-07T05:28:54.000Z</time>
</trkpt>
<trkpt lat="46.1083720" lon="10.5249330">
	<ele>2136.80</ele>
	<time>2023-08-07T05:28:55.000Z</time>
</trkpt>
<trkpt lat="46.1083820" lon="10.5249420">
	<ele>2136.80</ele>
	<time>2023-08-07T05:28:56.000Z</time>
</trkpt>
<trkpt lat="46.1083950" lon="10.5249520">
	<ele>2136.80</ele>
	<time>2023-08-07T05:28:57.000Z</time>
</trkpt>
<trkpt lat="46.1084060" lon="10.5249580">
	<ele>2136.80</ele>
	<time>2023-08-07T05:28:58.000Z</time>
</trkpt>
<trkpt lat="46.1084170" lon="10.5249630">
	<ele>2137.00</ele>
	<time>2023-08-07T05:28:59.000Z</time>
</trkpt>
<trkpt lat="46.1084300" lon="10.5249660">
	<ele>2137.00</ele>
	<time>2023-08-07T05:29:00.000Z</time>
</trkpt>
<trkpt lat="46.1084390" lon="10.5249700">
	<ele>2137.20</ele>
	<time>2023-08-07T05:29:01.000Z</time>
</trkpt>
<trkpt lat="46.1084510" lon="10.5249700">
	<ele>2137.40</ele>
	<time>2023-08-07T05:29:02.000Z</time>
</trkpt>
<trkpt lat="46.1084610" lon="10.5249700">
	<ele>2137.60</ele>
	<time>2023-08-07T05:29:03.000Z</time>
</trkpt>
<trkpt lat="46.1084710" lon="10.5249660">
	<ele>2137.80</ele>
	<time>2023-08-07T05:29:04.000Z</time>
</trkpt>
<trkpt lat="46.1084750" lon="10.5249630">
	<ele>2137.80</ele>
	<time>2023-08-07T05:29:05.000Z</time>
</trkpt>
<trkpt lat="46.1084830" lon="10.5249600">
	<ele>2137.80</ele>
	<time>2023-08-07T05:29:06.000Z</time>
</trkpt>
<trkpt lat="46.1084900" lon="10.5249600">
	<ele>2137.80</ele>
	<time>2023-08-07T05:29:07.000Z</time>
</trkpt>
<trkpt lat="46.1085000" lon="10.5249610">
	<ele>2137.80</ele>
	<time>2023-08-07T05:29:08.000Z</time>
</trkpt>
<trkpt lat="46.1085050" lon="10.5249590">
	<ele>2137.80</ele>
	<time>2023-08-07T05:29:09.000Z</time>
</trkpt>
<trkpt lat="46.1085120" lon="10.5249560">
	<ele>2138.00</ele>
	<time>2023-08-07T05:29:10.000Z</time>
</trkpt>
<trkpt lat="46.1085220" lon="10.5249540">
	<ele>2138.00</ele>
	<time>2023-08-07T05:29:11.000Z</time>
</trkpt>
<trkpt lat="46.1085310" lon="10.5249550">
	<ele>2138.20</ele>
	<time>2023-08-07T05:29:12.000Z</time>
</trkpt>
<trkpt lat="46.1085370" lon="10.5249560">
	<ele>2138.20</ele>
	<time>2023-08-07T05:29:13.000Z</time>
</trkpt>
<trkpt lat="46.1085460" lon="10.5249620">
	<ele>2138.40</ele>
	<time>2023-08-07T05:29:14.000Z</time>
</trkpt>
<trkpt lat="46.1085520" lon="10.5249690">
	<ele>2138.40</ele>
	<time>2023-08-07T05:29:15.000Z</time>
</trkpt>
<trkpt lat="46.1085580" lon="10.5249750">
	<ele>2138.60</ele>
	<time>2023-08-07T05:29:16.000Z</time>
</trkpt>
<trkpt lat="46.1085650" lon="10.5249820">
	<ele>2138.60</ele>
	<time>2023-08-07T05:29:17.000Z</time>
</trkpt>
<trkpt lat="46.1085750" lon="10.5249900">
	<ele>2138.60</ele>
	<time>2023-08-07T05:29:18.000Z</time>
</trkpt>
<trkpt lat="46.1085820" lon="10.5249960">
	<ele>2138.80</ele>
	<time>2023-08-07T05:29:19.000Z</time>
</trkpt>
<trkpt lat="46.1085900" lon="10.5249930">
	<ele>2138.80</ele>
	<time>2023-08-07T05:29:20.000Z</time>
</trkpt>
<trkpt lat="46.1085930" lon="10.5249940">
	<ele>2138.80</ele>
	<time>2023-08-07T05:29:21.000Z</time>
</trkpt>
<trkpt lat="46.1085940" lon="10.5249930">
	<ele>2138.80</ele>
	<time>2023-08-07T05:29:22.000Z</time>
</trkpt>
<trkpt lat="46.1085960" lon="10.5249940">
	<ele>2138.80</ele>
	<time>2023-08-07T05:29:23.000Z</time>
</trkpt>
<trkpt lat="46.1085950" lon="10.5249920">
	<ele>2138.80</ele>
	<time>2023-08-07T05:29:24.000Z</time>
</trkpt>
<trkpt lat="46.1085890" lon="10.5249900">
	<ele>2138.80</ele>
	<time>2023-08-07T05:29:25.000Z</time>
</trkpt>
<trkpt lat="46.1085880" lon="10.5249900">
	<ele>2138.80</ele>
	<time>2023-08-07T05:29:26.000Z</time>
</trkpt>
<trkpt lat="46.1085890" lon="10.5249870">
	<ele>2138.80</ele>
	<time>2023-08-07T05:29:27.000Z</time>
</trkpt>
<trkpt lat="46.1085900" lon="10.5249880">
	<ele>2138.80</ele>
	<time>2023-08-07T05:29:28.000Z</time>
</trkpt>
<trkpt lat="46.1085950" lon="10.5249870">
	<ele>2138.80</ele>
	<time>2023-08-07T05:29:29.000Z</time>
</trkpt>
<trkpt lat="46.1086010" lon="10.5249860">
	<ele>2138.80</ele>
	<time>2023-08-07T05:29:30.000Z</time>
</trkpt>
<trkpt lat="46.1086040" lon="10.5249800">
	<ele>2138.80</ele>
	<time>2023-08-07T05:29:31.000Z</time>
</trkpt>
<trkpt lat="46.1086070" lon="10.5249770">
	<ele>2138.80</ele>
	<time>2023-08-07T05:29:32.000Z</time>
</trkpt>
<trkpt lat="46.1086090" lon="10.5249720">
	<ele>2138.80</ele>
	<time>2023-08-07T05:29:33.000Z</time>
</trkpt>
<trkpt lat="46.1086130" lon="10.5249700">
	<ele>2138.80</ele>
	<time>2023-08-07T05:29:34.000Z</time>
</trkpt>
<trkpt lat="46.1086200" lon="10.5249770">
	<ele>2138.80</ele>
	<time>2023-08-07T05:29:35.000Z</time>
</trkpt>
<trkpt lat="46.1086270" lon="10.5249830">
	<ele>2138.80</ele>
	<time>2023-08-07T05:29:36.000Z</time>
</trkpt>
<trkpt lat="46.1086330" lon="10.5249900">
	<ele>2138.80</ele>
	<time>2023-08-07T05:29:37.000Z</time>
</trkpt>
<trkpt lat="46.1086360" lon="10.5249930">
	<ele>2138.80</ele>
	<time>2023-08-07T05:29:38.000Z</time>
</trkpt>
<trkpt lat="46.1086380" lon="10.5249970">
	<ele>2139.00</ele>
	<time>2023-08-07T05:29:39.000Z</time>
</trkpt>
<trkpt lat="46.1086380" lon="10.5250020">
	<ele>2139.00</ele>
	<time>2023-08-07T05:29:40.000Z</time>
</trkpt>
<trkpt lat="46.1086360" lon="10.5250100">
	<ele>2139.00</ele>
	<time>2023-08-07T05:29:41.000Z</time>
</trkpt>
<trkpt lat="46.1086350" lon="10.5250110">
	<ele>2139.00</ele>
	<time>2023-08-07T05:29:42.000Z</time>
</trkpt>
<trkpt lat="46.1086330" lon="10.5250110">
	<ele>2139.00</ele>
	<time>2023-08-07T05:29:43.000Z</time>
</trkpt>
<trkpt lat="46.1086310" lon="10.5250090">
	<ele>2139.00</ele>
	<time>2023-08-07T05:29:44.000Z</time>
</trkpt>
<trkpt lat="46.1086310" lon="10.5250080">
	<ele>2138.80</ele>
	<time>2023-08-07T05:29:45.000Z</time>
</trkpt>
<trkpt lat="46.1086310" lon="10.5250080">
	<ele>2138.80</ele>
	<time>2023-08-07T05:29:46.000Z</time>
</trkpt>
<trkpt lat="46.1086310" lon="10.5250080">
	<ele>2138.80</ele>
	<time>2023-08-07T05:29:47.000Z</time>
</trkpt>
<trkpt lat="46.1086310" lon="10.5250080">
	<ele>2138.80</ele>
	<time>2023-08-07T05:29:48.000Z</time>
</trkpt>
<trkpt lat="46.1086310" lon="10.5250080">
	<ele>2138.80</ele>
	<time>2023-08-07T05:29:49.000Z</time>
</trkpt>
<trkpt lat="46.1086310" lon="10.5250080">
	<ele>2138.80</ele>
	<time>2023-08-07T05:29:50.000Z</time>
</trkpt>
<trkpt lat="46.1086310" lon="10.5250080">
	<ele>2138.80</ele>
	<time>2023-08-07T05:29:51.000Z</time>
</trkpt>
<trkpt lat="46.1086310" lon="10.5250080">
	<ele>2138.80</ele>
	<time>2023-08-07T05:29:52.000Z</time>
</trkpt>
<trkpt lat="46.1086310" lon="10.5250080">
	<ele>2139.00</ele>
	<time>2023-08-07T05:29:53.000Z</time>
</trkpt>
<trkpt lat="46.1086310" lon="10.5250080">
	<ele>2139.00</ele>
	<time>2023-08-07T05:29:54.000Z</time>
</trkpt>
<trkpt lat="46.1086310" lon="10.5250080">
	<ele>2139.00</ele>
	<time>2023-08-07T05:29:55.000Z</time>
</trkpt>
<trkpt lat="46.1086310" lon="10.5250080">
	<ele>2139.00</ele>
	<time>2023-08-07T05:29:56.000Z</time>
</trkpt>
<trkpt lat="46.1086310" lon="10.5250080">
	<ele>2139.00</ele>
	<time>2023-08-07T05:29:57.000Z</time>
</trkpt>
<trkpt lat="46.1086310" lon="10.5250080">
	<ele>2139.00</ele>
	<time>2023-08-07T05:29:58.000Z</time>
</trkpt>
<trkpt lat="46.1086310" lon="10.5250080">
	<ele>2139.00</ele>
	<time>2023-08-07T05:29:59.000Z</time>
</trkpt>
<trkpt lat="46.1086310" lon="10.5250080">
	<ele>2139.00</ele>
	<time>2023-08-07T05:30:00.000Z</time>
</trkpt>
<trkpt lat="46.1086310" lon="10.5250080">
	<ele>2139.00</ele>
	<time>2023-08-07T05:30:01.000Z</time>
</trkpt>
<trkpt lat="46.1086310" lon="10.5250080">
	<ele>2139.20</ele>
	<time>2023-08-07T05:30:02.000Z</time>
</trkpt>
<trkpt lat="46.1086310" lon="10.5250080">
	<ele>2139.20</ele>
	<time>2023-08-07T05:30:03.000Z</time>
</trkpt>
<trkpt lat="46.1086310" lon="10.5250080">
	<ele>2139.20</ele>
	<time>2023-08-07T05:30:04.000Z</time>
</trkpt>
<trkpt lat="46.1086310" lon="10.5250080">
	<ele>2139.20</ele>
	<time>2023-08-07T05:30:05.000Z</time>
</trkpt>
<trkpt lat="46.1086310" lon="10.5250080">
	<ele>2139.20</ele>
	<time>2023-08-07T05:30:06.000Z</time>
</trkpt>
<trkpt lat="46.1086310" lon="10.5250080">
	<ele>2139.00</ele>
	<time>2023-08-07T05:30:07.000Z</time>
</trkpt>
<trkpt lat="46.1086310" lon="10.5250080">
	<ele>2138.80</ele>
	<time>2023-08-07T05:30:08.000Z</time>
</trkpt>
<trkpt lat="46.1086310" lon="10.5250080">
	<ele>2138.80</ele>
	<time>2023-08-07T05:30:09.000Z</time>
</trkpt>
<trkpt lat="46.1086310" lon="10.5250080">
	<ele>2138.60</ele>
	<time>2023-08-07T05:30:10.000Z</time>
</trkpt>
<trkpt lat="46.1086300" lon="10.5250080">
	<ele>2138.40</ele>
	<time>2023-08-07T05:30:11.000Z</time>
</trkpt>
<trkpt lat="46.1086290" lon="10.5250080">
	<ele>2138.40</ele>
	<time>2023-08-07T05:30:12.000Z</time>
</trkpt>
<trkpt lat="46.1086280" lon="10.5250080">
	<ele>2138.00</ele>
	<time>2023-08-07T05:30:13.000Z</time>
</trkpt>
<trkpt lat="46.1086280" lon="10.5250080">
	<ele>2138.00</ele>
	<time>2023-08-07T05:30:14.000Z</time>
</trkpt>
<trkpt lat="46.1086270" lon="10.5250080">
	<ele>2137.80</ele>
	<time>2023-08-07T05:30:15.000Z</time>
</trkpt>
<trkpt lat="46.1086260" lon="10.5250080">
	<ele>2137.80</ele>
	<time>2023-08-07T05:30:16.000Z</time>
</trkpt>
<trkpt lat="46.1086260" lon="10.5250080">
	<ele>2137.80</ele>
	<time>2023-08-07T05:30:17.000Z</time>
</trkpt>
<trkpt lat="46.1086250" lon="10.5250080">
	<ele>2138.20</ele>
	<time>2023-08-07T05:30:18.000Z</time>
</trkpt>
<trkpt lat="46.1086230" lon="10.5250090">
	<ele>2138.40</ele>
	<time>2023-08-07T05:30:19.000Z</time>
</trkpt>
<trkpt lat="46.1086200" lon="10.5250090">
	<ele>2138.40</ele>
	<time>2023-08-07T05:30:20.000Z</time>
</trkpt>
<trkpt lat="46.1086180" lon="10.5250090">
	<ele>2138.60</ele>
	<time>2023-08-07T05:30:21.000Z</time>
</trkpt>
<trkpt lat="46.1086170" lon="10.5250090">
	<ele>2138.60</ele>
	<time>2023-08-07T05:30:22.000Z</time>
</trkpt>
<trkpt lat="46.1086170" lon="10.5250090">
	<ele>2138.60</ele>
	<time>2023-08-07T05:30:23.000Z</time>
</trkpt>
<trkpt lat="46.1086160" lon="10.5250090">
	<ele>2138.60</ele>
	<time>2023-08-07T05:30:24.000Z</time>
</trkpt>
<trkpt lat="46.1086150" lon="10.5250090">
	<ele>2138.60</ele>
	<time>2023-08-07T05:30:25.000Z</time>
</trkpt>
<trkpt lat="46.1086140" lon="10.5250100">
	<ele>2138.80</ele>
	<time>2023-08-07T05:30:26.000Z</time>
</trkpt>
<trkpt lat="46.1086130" lon="10.5250100">
	<ele>2139.00</ele>
	<time>2023-08-07T05:30:27.000Z</time>
</trkpt>
<trkpt lat="46.1086130" lon="10.5250100">
	<ele>2139.00</ele>
	<time>2023-08-07T05:30:28.000Z</time>
</trkpt>
<trkpt lat="46.1086120" lon="10.5250130">
	<ele>2139.00</ele>
	<time>2023-08-07T05:30:29.000Z</time>
</trkpt>
<trkpt lat="46.1086120" lon="10.5250150">
	<ele>2139.00</ele>
	<time>2023-08-07T05:30:30.000Z</time>
</trkpt>
<trkpt lat="46.1086080" lon="10.5250150">
	<ele>2139.00</ele>
	<time>2023-08-07T05:30:31.000Z</time>
</trkpt>
<trkpt lat="46.1086060" lon="10.5250150">
	<ele>2139.00</ele>
	<time>2023-08-07T05:30:32.000Z</time>
</trkpt>
<trkpt lat="46.1086040" lon="10.5250150">
	<ele>2139.00</ele>
	<time>2023-08-07T05:30:33.000Z</time>
</trkpt>
<trkpt lat="46.1086020" lon="10.5250150">
	<ele>2138.80</ele>
	<time>2023-08-07T05:30:34.000Z</time>
</trkpt>
<trkpt lat="46.1086000" lon="10.5250150">
	<ele>2138.80</ele>
	<time>2023-08-07T05:30:35.000Z</time>
</trkpt>
<trkpt lat="46.1085980" lon="10.5250150">
	<ele>2138.80</ele>
	<time>2023-08-07T05:30:36.000Z</time>
</trkpt>
<trkpt lat="46.1085980" lon="10.5250150">
	<ele>2138.80</ele>
	<time>2023-08-07T05:30:37.000Z</time>
</trkpt>
<trkpt lat="46.1085960" lon="10.5250150">
	<ele>2138.80</ele>
	<time>2023-08-07T05:30:38.000Z</time>
</trkpt>
<trkpt lat="46.1085950" lon="10.5250150">
	<ele>2138.80</ele>
	<time>2023-08-07T05:30:39.000Z</time>
</trkpt>
<trkpt lat="46.1085930" lon="10.5250150">
	<ele>2138.80</ele>
	<time>2023-08-07T05:30:40.000Z</time>
</trkpt>
<trkpt lat="46.1085920" lon="10.5250150">
	<ele>2138.80</ele>
	<time>2023-08-07T05:30:41.000Z</time>
</trkpt>
<trkpt lat="46.1085910" lon="10.5250150">
	<ele>2138.80</ele>
	<time>2023-08-07T05:30:42.000Z</time>
</trkpt>
<trkpt lat="46.1085900" lon="10.5250150">
	<ele>2138.80</ele>
	<time>2023-08-07T05:30:43.000Z</time>
</trkpt>
<trkpt lat="46.1085890" lon="10.5250150">
	<ele>2138.80</ele>
	<time>2023-08-07T05:30:44.000Z</time>
</trkpt>
<trkpt lat="46.1085870" lon="10.5250140">
	<ele>2139.00</ele>
	<time>2023-08-07T05:30:45.000Z</time>
</trkpt>
<trkpt lat="46.1085860" lon="10.5250140">
	<ele>2139.00</ele>
	<time>2023-08-07T05:30:46.000Z</time>
</trkpt>
<trkpt lat="46.1085850" lon="10.5250140">
	<ele>2139.00</ele>
	<time>2023-08-07T05:30:47.000Z</time>
</trkpt>
<trkpt lat="46.1085840" lon="10.5250140">
	<ele>2139.20</ele>
	<time>2023-08-07T05:30:48.000Z</time>
</trkpt>
<trkpt lat="46.1085820" lon="10.5250140">
	<ele>2139.20</ele>
	<time>2023-08-07T05:30:49.000Z</time>
</trkpt>
<trkpt lat="46.1085820" lon="10.5250140">
	<ele>2139.40</ele>
	<time>2023-08-07T05:30:50.000Z</time>
</trkpt>
<trkpt lat="46.1085820" lon="10.5250140">
	<ele>2139.40</ele>
	<time>2023-08-07T05:30:51.000Z</time>
</trkpt>
<trkpt lat="46.1085820" lon="10.5250130">
	<ele>2139.60</ele>
	<time>2023-08-07T05:30:52.000Z</time>
</trkpt>
<trkpt lat="46.1085820" lon="10.5250130">
	<ele>2139.60</ele>
	<time>2023-08-07T05:30:53.000Z</time>
</trkpt>
<trkpt lat="46.1085820" lon="10.5250130">
	<ele>2139.60</ele>
	<time>2023-08-07T05:30:54.000Z</time>
</trkpt>
<trkpt lat="46.1085820" lon="10.5250130">
	<ele>2139.60</ele>
	<time>2023-08-07T05:30:55.000Z</time>
</trkpt>
<trkpt lat="46.1085820" lon="10.5250130">
	<ele>2139.40</ele>
	<time>2023-08-07T05:30:56.000Z</time>
</trkpt>
<trkpt lat="46.1085820" lon="10.5250130">
	<ele>2139.20</ele>
	<time>2023-08-07T05:30:57.000Z</time>
</trkpt>
<trkpt lat="46.1085810" lon="10.5250130">
	<ele>2139.20</ele>
	<time>2023-08-07T05:30:58.000Z</time>
</trkpt>
<trkpt lat="46.1085810" lon="10.5250130">
	<ele>2139.20</ele>
	<time>2023-08-07T05:30:59.000Z</time>
</trkpt>
<trkpt lat="46.1085810" lon="10.5250130">
	<ele>2139.00</ele>
	<time>2023-08-07T05:31:00.000Z</time>
</trkpt>
<trkpt lat="46.1085810" lon="10.5250130">
	<ele>2139.00</ele>
	<time>2023-08-07T05:31:01.000Z</time>
</trkpt>
<trkpt lat="46.1085800" lon="10.5250140">
	<ele>2139.20</ele>
	<time>2023-08-07T05:31:02.000Z</time>
</trkpt>
<trkpt lat="46.1085800" lon="10.5250140">
	<ele>2139.20</ele>
	<time>2023-08-07T05:31:03.000Z</time>
</trkpt>
<trkpt lat="46.1085800" lon="10.5250140">
	<ele>2139.20</ele>
	<time>2023-08-07T05:31:04.000Z</time>
</trkpt>
<trkpt lat="46.1085800" lon="10.5250140">
	<ele>2139.20</ele>
	<time>2023-08-07T05:31:05.000Z</time>
</trkpt>
<trkpt lat="46.1085800" lon="10.5250140">
	<ele>2139.00</ele>
	<time>2023-08-07T05:31:06.000Z</time>
</trkpt>
<trkpt lat="46.1085800" lon="10.5250140">
	<ele>2138.80</ele>
	<time>2023-08-07T05:31:07.000Z</time>
</trkpt>
<trkpt lat="46.1085800" lon="10.5250140">
	<ele>2138.60</ele>
	<time>2023-08-07T05:31:08.000Z</time>
</trkpt>
<trkpt lat="46.1085810" lon="10.5250140">
	<ele>2138.60</ele>
	<time>2023-08-07T05:31:09.000Z</time>
</trkpt>
<trkpt lat="46.1085810" lon="10.5250150">
	<ele>2138.60</ele>
	<time>2023-08-07T05:31:10.000Z</time>
</trkpt>
<trkpt lat="46.1085810" lon="10.5250160">
	<ele>2138.60</ele>
	<time>2023-08-07T05:31:11.000Z</time>
</trkpt>
<trkpt lat="46.1085810" lon="10.5250170">
	<ele>2138.60</ele>
	<time>2023-08-07T05:31:12.000Z</time>
</trkpt>
<trkpt lat="46.1085820" lon="10.5250180">
	<ele>2138.60</ele>
	<time>2023-08-07T05:31:13.000Z</time>
</trkpt>
<trkpt lat="46.1085820" lon="10.5250180">
	<ele>2138.60</ele>
	<time>2023-08-07T05:31:14.000Z</time>
</trkpt>
<trkpt lat="46.1085820" lon="10.5250190">
	<ele>2138.80</ele>
	<time>2023-08-07T05:31:15.000Z</time>
</trkpt>
<trkpt lat="46.1085820" lon="10.5250200">
	<ele>2138.60</ele>
	<time>2023-08-07T05:31:16.000Z</time>
</trkpt>
<trkpt lat="46.1085830" lon="10.5250200">
	<ele>2138.60</ele>
	<time>2023-08-07T05:31:17.000Z</time>
</trkpt>
<trkpt lat="46.1085830" lon="10.5250210">
	<ele>2138.60</ele>
	<time>2023-08-07T05:31:18.000Z</time>
</trkpt>
<trkpt lat="46.1085830" lon="10.5250220">
	<ele>2138.60</ele>
	<time>2023-08-07T05:31:19.000Z</time>
</trkpt>
<trkpt lat="46.1085840" lon="10.5250220">
	<ele>2138.60</ele>
	<time>2023-08-07T05:31:20.000Z</time>
</trkpt>
<trkpt lat="46.1085840" lon="10.5250230">
	<ele>2138.60</ele>
	<time>2023-08-07T05:31:21.000Z</time>
</trkpt>
<trkpt lat="46.1085850" lon="10.5250240">
	<ele>2139.00</ele>
	<time>2023-08-07T05:31:22.000Z</time>
</trkpt>
<trkpt lat="46.1085850" lon="10.5250240">
	<ele>2139.20</ele>
	<time>2023-08-07T05:31:23.000Z</time>
</trkpt>
<trkpt lat="46.1085850" lon="10.5250250">
	<ele>2139.40</ele>
	<time>2023-08-07T05:31:24.000Z</time>
</trkpt>
<trkpt lat="46.1085850" lon="10.5250250">
	<ele>2139.60</ele>
	<time>2023-08-07T05:31:25.000Z</time>
</trkpt>
<trkpt lat="46.1085860" lon="10.5250250">
	<ele>2139.60</ele>
	<time>2023-08-07T05:31:26.000Z</time>
</trkpt>
<trkpt lat="46.1085860" lon="10.5250250">
	<ele>2139.60</ele>
	<time>2023-08-07T05:31:27.000Z</time>
</trkpt>
<trkpt lat="46.1085860" lon="10.5250250">
	<ele>2139.60</ele>
	<time>2023-08-07T05:31:28.000Z</time>
</trkpt>
<trkpt lat="46.1085860" lon="10.5250250">
	<ele>2139.60</ele>
	<time>2023-08-07T05:31:29.000Z</time>
</trkpt>
<trkpt lat="46.1085860" lon="10.5250250">
	<ele>2139.60</ele>
	<time>2023-08-07T05:31:30.000Z</time>
</trkpt>
<trkpt lat="46.1085860" lon="10.5250250">
	<ele>2139.60</ele>
	<time>2023-08-07T05:31:31.000Z</time>
</trkpt>
<trkpt lat="46.1085860" lon="10.5250250">
	<ele>2139.60</ele>
	<time>2023-08-07T05:31:32.000Z</time>
</trkpt>
<trkpt lat="46.1085860" lon="10.5250250">
	<ele>2139.60</ele>
	<time>2023-08-07T05:31:33.000Z</time>
</trkpt>
<trkpt lat="46.1085860" lon="10.5250250">
	<ele>2139.40</ele>
	<time>2023-08-07T05:31:34.000Z</time>
</trkpt>
<trkpt lat="46.1085860" lon="10.5250250">
	<ele>2139.40</ele>
	<time>2023-08-07T05:31:35.000Z</time>
</trkpt>
<trkpt lat="46.1085860" lon="10.5250250">
	<ele>2139.40</ele>
	<time>2023-08-07T05:31:36.000Z</time>
</trkpt>
<trkpt lat="46.1085860" lon="10.5250250">
	<ele>2139.40</ele>
	<time>2023-08-07T05:31:37.000Z</time>
</trkpt>
<trkpt lat="46.1085860" lon="10.5250250">
	<ele>2139.40</ele>
	<time>2023-08-07T05:31:38.000Z</time>
</trkpt>
<trkpt lat="46.1085860" lon="10.5250250">
	<ele>2139.40</ele>
	<time>2023-08-07T05:31:39.000Z</time>
</trkpt>
<trkpt lat="46.1085860" lon="10.5250250">
	<ele>2139.20</ele>
	<time>2023-08-07T05:31:40.000Z</time>
</trkpt>
<trkpt lat="46.1085860" lon="10.5250250">
	<ele>2139.20</ele>
	<time>2023-08-07T05:31:41.000Z</time>
</trkpt>
<trkpt lat="46.1085860" lon="10.5250240">
	<ele>2139.20</ele>
	<time>2023-08-07T05:31:42.000Z</time>
</trkpt>
<trkpt lat="46.1085850" lon="10.5250240">
	<ele>2138.80</ele>
	<time>2023-08-07T05:31:43.000Z</time>
</trkpt>
<trkpt lat="46.1085850" lon="10.5250230">
	<ele>2138.80</ele>
	<time>2023-08-07T05:31:44.000Z</time>
</trkpt>
<trkpt lat="46.1085850" lon="10.5250220">
	<ele>2138.60</ele>
	<time>2023-08-07T05:31:45.000Z</time>
</trkpt>
<trkpt lat="46.1085850" lon="10.5250210">
	<ele>2138.60</ele>
	<time>2023-08-07T05:31:46.000Z</time>
</trkpt>
<trkpt lat="46.1085850" lon="10.5250210">
	<ele>2138.60</ele>
	<time>2023-08-07T05:31:47.000Z</time>
</trkpt>
<trkpt lat="46.1085850" lon="10.5250210">
	<ele>2138.60</ele>
	<time>2023-08-07T05:31:48.000Z</time>
</trkpt>
<trkpt lat="46.1085840" lon="10.5250200">
	<ele>2138.60</ele>
	<time>2023-08-07T05:31:49.000Z</time>
</trkpt>
<trkpt lat="46.1085840" lon="10.5250200">
	<ele>2138.40</ele>
	<time>2023-08-07T05:31:50.000Z</time>
</trkpt>
<trkpt lat="46.1085840" lon="10.5250200">
	<ele>2138.40</ele>
	<time>2023-08-07T05:31:51.000Z</time>
</trkpt>
<trkpt lat="46.1085840" lon="10.5250200">
	<ele>2138.40</ele>
	<time>2023-08-07T05:31:52.000Z</time>
</trkpt>
<trkpt lat="46.1085840" lon="10.5250190">
	<ele>2138.40</ele>
	<time>2023-08-07T05:31:53.000Z</time>
</trkpt>
<trkpt lat="46.1085840" lon="10.5250190">
	<ele>2138.40</ele>
	<time>2023-08-07T05:31:54.000Z</time>
</trkpt>
<trkpt lat="46.1085840" lon="10.5250190">
	<ele>2138.40</ele>
	<time>2023-08-07T05:31:55.000Z</time>
</trkpt>
<trkpt lat="46.1085840" lon="10.5250190">
	<ele>2138.40</ele>
	<time>2023-08-07T05:31:56.000Z</time>
</trkpt>
<trkpt lat="46.1085830" lon="10.5250190">
	<ele>2138.40</ele>
	<time>2023-08-07T05:31:57.000Z</time>
</trkpt>
<trkpt lat="46.1085830" lon="10.5250180">
	<ele>2138.40</ele>
	<time>2023-08-07T05:31:58.000Z</time>
</trkpt>
<trkpt lat="46.1085830" lon="10.5250180">
	<ele>2138.40</ele>
	<time>2023-08-07T05:31:59.000Z</time>
</trkpt>
<trkpt lat="46.1085830" lon="10.5250170">
	<ele>2138.40</ele>
	<time>2023-08-07T05:32:00.000Z</time>
</trkpt>
<trkpt lat="46.1085830" lon="10.5250170">
	<ele>2138.40</ele>
	<time>2023-08-07T05:32:01.000Z</time>
</trkpt>
<trkpt lat="46.1085830" lon="10.5250170">
	<ele>2138.40</ele>
	<time>2023-08-07T05:32:02.000Z</time>
</trkpt>
<trkpt lat="46.1085830" lon="10.5250170">
	<ele>2138.40</ele>
	<time>2023-08-07T05:32:03.000Z</time>
</trkpt>
<trkpt lat="46.1085830" lon="10.5250160">
	<ele>2138.40</ele>
	<time>2023-08-07T05:32:04.000Z</time>
</trkpt>
<trkpt lat="46.1085820" lon="10.5250100">
	<ele>2138.40</ele>
	<time>2023-08-07T05:32:05.000Z</time>
</trkpt>
<trkpt lat="46.1085850" lon="10.5249900">
	<ele>2138.40</ele>
	<time>2023-08-07T05:32:06.000Z</time>
</trkpt>
<trkpt lat="46.1085870" lon="10.5249750">
	<ele>2138.80</ele>
	<time>2023-08-07T05:32:07.000Z</time>
</trkpt>
<trkpt lat="46.1085860" lon="10.5249630">
	<ele>2138.80</ele>
	<time>2023-08-07T05:32:08.000Z</time>
</trkpt>
<trkpt lat="46.1085850" lon="10.5249510">
	<ele>2138.80</ele>
	<time>2023-08-07T05:32:09.000Z</time>
</trkpt>
<trkpt lat="46.1085810" lon="10.5249360">
	<ele>2139.00</ele>
	<time>2023-08-07T05:32:10.000Z</time>
</trkpt>
<trkpt lat="46.1085810" lon="10.5249220">
	<ele>2139.40</ele>
	<time>2023-08-07T05:32:11.000Z</time>
</trkpt>
<trkpt lat="46.1085800" lon="10.5249120">
	<ele>2139.60</ele>
	<time>2023-08-07T05:32:12.000Z</time>
</trkpt>
<trkpt lat="46.1085820" lon="10.5248920">
	<ele>2139.80</ele>
	<time>2023-08-07T05:32:13.000Z</time>
</trkpt>
<trkpt lat="46.1085810" lon="10.5248750">
	<ele>2139.80</ele>
	<time>2023-08-07T05:32:14.000Z</time>
</trkpt>
<trkpt lat="46.1085800" lon="10.5248610">
	<ele>2140.00</ele>
	<time>2023-08-07T05:32:15.000Z</time>
</trkpt>
<trkpt lat="46.1085760" lon="10.5248440">
	<ele>2140.00</ele>
	<time>2023-08-07T05:32:16.000Z</time>
</trkpt>
<trkpt lat="46.1085780" lon="10.5248370">
	<ele>2140.20</ele>
	<time>2023-08-07T05:32:17.000Z</time>
</trkpt>
<trkpt lat="46.1085830" lon="10.5248310">
	<ele>2140.20</ele>
	<time>2023-08-07T05:32:18.000Z</time>
</trkpt>
<trkpt lat="46.1085920" lon="10.5248230">
	<ele>2140.40</ele>
	<time>2023-08-07T05:32:19.000Z</time>
</trkpt>
<trkpt lat="46.1085960" lon="10.5248170">
	<ele>2140.40</ele>
	<time>2023-08-07T05:32:20.000Z</time>
</trkpt>
<trkpt lat="46.1086050" lon="10.5248120">
	<ele>2140.80</ele>
	<time>2023-08-07T05:32:21.000Z</time>
</trkpt>
<trkpt lat="46.1086110" lon="10.5247990">
	<ele>2141.00</ele>
	<time>2023-08-07T05:32:22.000Z</time>
</trkpt>
<trkpt lat="46.1086130" lon="10.5247910">
	<ele>2141.20</ele>
	<time>2023-08-07T05:32:23.000Z</time>
</trkpt>
<trkpt lat="46.1086100" lon="10.5247760">
	<ele>2141.40</ele>
	<time>2023-08-07T05:32:24.000Z</time>
</trkpt>
<trkpt lat="46.1086150" lon="10.5247700">
	<ele>2141.40</ele>
	<time>2023-08-07T05:32:25.000Z</time>
</trkpt>
<trkpt lat="46.1086240" lon="10.5247570">
	<ele>2141.40</ele>
	<time>2023-08-07T05:32:26.000Z</time>
</trkpt>
<trkpt lat="46.1086260" lon="10.5247450">
	<ele>2141.60</ele>
	<time>2023-08-07T05:32:27.000Z</time>
</trkpt>
<trkpt lat="46.1086280" lon="10.5247370">
	<ele>2141.80</ele>
	<time>2023-08-07T05:32:28.000Z</time>
</trkpt>
<trkpt lat="46.1086320" lon="10.5247310">
	<ele>2141.80</ele>
	<time>2023-08-07T05:32:29.000Z</time>
</trkpt>
<trkpt lat="46.1086390" lon="10.5247280">
	<ele>2142.00</ele>
	<time>2023-08-07T05:32:30.000Z</time>
</trkpt>
<trkpt lat="46.1086470" lon="10.5247280">
	<ele>2142.00</ele>
	<time>2023-08-07T05:32:31.000Z</time>
</trkpt>
<trkpt lat="46.1086540" lon="10.5247270">
	<ele>2142.00</ele>
	<time>2023-08-07T05:32:32.000Z</time>
</trkpt>
<trkpt lat="46.1086640" lon="10.5247330">
	<ele>2142.00</ele>
	<time>2023-08-07T05:32:33.000Z</time>
</trkpt>
<trkpt lat="46.1086720" lon="10.5247420">
	<ele>2142.00</ele>
	<time>2023-08-07T05:32:34.000Z</time>
</trkpt>
<trkpt lat="46.1086770" lon="10.5247470">
	<ele>2142.00</ele>
	<time>2023-08-07T05:32:35.000Z</time>
</trkpt>
<trkpt lat="46.1086810" lon="10.5247520">
	<ele>2142.00</ele>
	<time>2023-08-07T05:32:36.000Z</time>
</trkpt>
<trkpt lat="46.1086910" lon="10.5247620">
	<ele>2142.00</ele>
	<time>2023-08-07T05:32:37.000Z</time>
</trkpt>
<trkpt lat="46.1086950" lon="10.5247730">
	<ele>2142.00</ele>
	<time>2023-08-07T05:32:38.000Z</time>
</trkpt>
<trkpt lat="46.1087000" lon="10.5247830">
	<ele>2142.20</ele>
	<time>2023-08-07T05:32:39.000Z</time>
</trkpt>
<trkpt lat="46.1087000" lon="10.5247880">
	<ele>2142.40</ele>
	<time>2023-08-07T05:32:40.000Z</time>
</trkpt>
<trkpt lat="46.1087040" lon="10.5247960">
	<ele>2142.60</ele>
	<time>2023-08-07T05:32:41.000Z</time>
</trkpt>
<trkpt lat="46.1087120" lon="10.5248090">
	<ele>2142.80</ele>
	<time>2023-08-07T05:32:42.000Z</time>
</trkpt>
<trkpt lat="46.1087160" lon="10.5248180">
	<ele>2143.00</ele>
	<time>2023-08-07T05:32:43.000Z</time>
</trkpt>
<trkpt lat="46.1087180" lon="10.5248270">
	<ele>2143.00</ele>
	<time>2023-08-07T05:32:44.000Z</time>
</trkpt>
<trkpt lat="46.1087210" lon="10.5248320">
	<ele>2143.20</ele>
	<time>2023-08-07T05:32:45.000Z</time>
</trkpt>
<trkpt lat="46.1087230" lon="10.5248330">
	<ele>2143.40</ele>
	<time>2023-08-07T05:32:46.000Z</time>
</trkpt>
<trkpt lat="46.1087340" lon="10.5248320">
	<ele>2143.40</ele>
	<time>2023-08-07T05:32:47.000Z</time>
</trkpt>
<trkpt lat="46.1087340" lon="10.5248280">
	<ele>2143.60</ele>
	<time>2023-08-07T05:32:48.000Z</time>
</trkpt>
<trkpt lat="46.1087380" lon="10.5248330">
	<ele>2143.60</ele>
	<time>2023-08-07T05:32:49.000Z</time>
</trkpt>
<trkpt lat="46.1087440" lon="10.5248420">
	<ele>2143.80</ele>
	<time>2023-08-07T05:32:50.000Z</time>
</trkpt>
<trkpt lat="46.1087500" lon="10.5248530">
	<ele>2144.00</ele>
	<time>2023-08-07T05:32:51.000Z</time>
</trkpt>
<trkpt lat="46.1087590" lon="10.5248610">
	<ele>2144.00</ele>
	<time>2023-08-07T05:32:52.000Z</time>
</trkpt>
<trkpt lat="46.1087660" lon="10.5248700">
	<ele>2144.20</ele>
	<time>2023-08-07T05:32:53.000Z</time>
</trkpt>
<trkpt lat="46.1087740" lon="10.5248760">
	<ele>2144.20</ele>
	<time>2023-08-07T05:32:54.000Z</time>
</trkpt>
<trkpt lat="46.1087810" lon="10.5248770">
	<ele>2144.40</ele>
	<time>2023-08-07T05:32:55.000Z</time>
</trkpt>
<trkpt lat="46.1087860" lon="10.5248790">
	<ele>2144.40</ele>
	<time>2023-08-07T05:32:56.000Z</time>
</trkpt>
<trkpt lat="46.1087910" lon="10.5248790">
	<ele>2144.60</ele>
	<time>2023-08-07T05:32:57.000Z</time>
</trkpt>
<trkpt lat="46.1087940" lon="10.5248780">
	<ele>2145.00</ele>
	<time>2023-08-07T05:32:58.000Z</time>
</trkpt>
<trkpt lat="46.1087970" lon="10.5248740">
	<ele>2145.20</ele>
	<time>2023-08-07T05:32:59.000Z</time>
</trkpt>
<trkpt lat="46.1088010" lon="10.5248700">
	<ele>2145.60</ele>
	<time>2023-08-07T05:33:00.000Z</time>
</trkpt>
<trkpt lat="46.1088060" lon="10.5248690">
	<ele>2145.60</ele>
	<time>2023-08-07T05:33:01.000Z</time>
</trkpt>
<trkpt lat="46.1088130" lon="10.5248720">
	<ele>2145.80</ele>
	<time>2023-08-07T05:33:02.000Z</time>
</trkpt>
<trkpt lat="46.1088200" lon="10.5248740">
	<ele>2146.20</ele>
	<time>2023-08-07T05:33:03.000Z</time>
</trkpt>
<trkpt lat="46.1088280" lon="10.5248740">
	<ele>2146.40</ele>
	<time>2023-08-07T05:33:04.000Z</time>
</trkpt>
<trkpt lat="46.1088370" lon="10.5248740">
	<ele>2146.60</ele>
	<time>2023-08-07T05:33:05.000Z</time>
</trkpt>
<trkpt lat="46.1088440" lon="10.5248710">
	<ele>2146.80</ele>
	<time>2023-08-07T05:33:06.000Z</time>
</trkpt>
<trkpt lat="46.1088430" lon="10.5248670">
	<ele>2147.00</ele>
	<time>2023-08-07T05:33:07.000Z</time>
</trkpt>
<trkpt lat="46.1088520" lon="10.5248660">
	<ele>2147.20</ele>
	<time>2023-08-07T05:33:08.000Z</time>
</trkpt>
<trkpt lat="46.1088580" lon="10.5248620">
	<ele>2147.20</ele>
	<time>2023-08-07T05:33:09.000Z</time>
</trkpt>
<trkpt lat="46.1088610" lon="10.5248580">
	<ele>2147.40</ele>
	<time>2023-08-07T05:33:10.000Z</time>
</trkpt>
<trkpt lat="46.1088620" lon="10.5248550">
	<ele>2147.40</ele>
	<time>2023-08-07T05:33:11.000Z</time>
</trkpt>
<trkpt lat="46.1088670" lon="10.5248520">
	<ele>2147.40</ele>
	<time>2023-08-07T05:33:12.000Z</time>
</trkpt>
<trkpt lat="46.1088780" lon="10.5248530">
	<ele>2147.60</ele>
	<time>2023-08-07T05:33:13.000Z</time>
</trkpt>
<trkpt lat="46.1088760" lon="10.5248390">
	<ele>2147.60</ele>
	<time>2023-08-07T05:33:14.000Z</time>
</trkpt>
<trkpt lat="46.1088820" lon="10.5248320">
	<ele>2147.60</ele>
	<time>2023-08-07T05:33:15.000Z</time>
</trkpt>
<trkpt lat="46.1088850" lon="10.5248260">
	<ele>2147.80</ele>
	<time>2023-08-07T05:33:16.000Z</time>
</trkpt>
<trkpt lat="46.1088870" lon="10.5248200">
	<ele>2148.00</ele>
	<time>2023-08-07T05:33:17.000Z</time>
</trkpt>
<trkpt lat="46.1088930" lon="10.5248110">
	<ele>2148.20</ele>
	<time>2023-08-07T05:33:18.000Z</time>
</trkpt>
<trkpt lat="46.1088950" lon="10.5248030">
	<ele>2148.40</ele>
	<time>2023-08-07T05:33:19.000Z</time>
</trkpt>
<trkpt lat="46.1088950" lon="10.5247930">
	<ele>2148.60</ele>
	<time>2023-08-07T05:33:20.000Z</time>
</trkpt>
<trkpt lat="46.1088950" lon="10.5247840">
	<ele>2148.60</ele>
	<time>2023-08-07T05:33:21.000Z</time>
</trkpt>
<trkpt lat="46.1088990" lon="10.5247740">
	<ele>2148.60</ele>
	<time>2023-08-07T05:33:22.000Z</time>
</trkpt>
<trkpt lat="46.1089020" lon="10.5247670">
	<ele>2148.80</ele>
	<time>2023-08-07T05:33:23.000Z</time>
</trkpt>
<trkpt lat="46.1089030" lon="10.5247540">
	<ele>2148.80</ele>
	<time>2023-08-07T05:33:24.000Z</time>
</trkpt>
<trkpt lat="46.1089040" lon="10.5247470">
	<ele>2149.00</ele>
	<time>2023-08-07T05:33:25.000Z</time>
</trkpt>
<trkpt lat="46.1089020" lon="10.5247360">
	<ele>2149.20</ele>
	<time>2023-08-07T05:33:26.000Z</time>
</trkpt>
<trkpt lat="46.1089030" lon="10.5247270">
	<ele>2149.20</ele>
	<time>2023-08-07T05:33:27.000Z</time>
</trkpt>
<trkpt lat="46.1089060" lon="10.5247230">
	<ele>2149.20</ele>
	<time>2023-08-07T05:33:28.000Z</time>
</trkpt>
<trkpt lat="46.1089070" lon="10.5247180">
	<ele>2149.40</ele>
	<time>2023-08-07T05:33:29.000Z</time>
</trkpt>
<trkpt lat="46.1089080" lon="10.5247110">
	<ele>2149.40</ele>
	<time>2023-08-07T05:33:30.000Z</time>
</trkpt>
<trkpt lat="46.1089120" lon="10.5247050">
	<ele>2149.80</ele>
	<time>2023-08-07T05:33:31.000Z</time>
</trkpt>
<trkpt lat="46.1089140" lon="10.5247000">
	<ele>2150.00</ele>
	<time>2023-08-07T05:33:32.000Z</time>
</trkpt>
<trkpt lat="46.1089140" lon="10.5246960">
	<ele>2150.00</ele>
	<time>2023-08-07T05:33:33.000Z</time>
</trkpt>
<trkpt lat="46.1089120" lon="10.5246890">
	<ele>2150.20</ele>
	<time>2023-08-07T05:33:34.000Z</time>
</trkpt>
<trkpt lat="46.1089120" lon="10.5246820">
	<ele>2150.20</ele>
	<time>2023-08-07T05:33:35.000Z</time>
</trkpt>
<trkpt lat="46.1089170" lon="10.5246740">
	<ele>2150.40</ele>
	<time>2023-08-07T05:33:36.000Z</time>
</trkpt>
<trkpt lat="46.1089260" lon="10.5246670">
	<ele>2150.60</ele>
	<time>2023-08-07T05:33:37.000Z</time>
</trkpt>
<trkpt lat="46.1089290" lon="10.5246640">
	<ele>2150.60</ele>
	<time>2023-08-07T05:33:38.000Z</time>
</trkpt>
<trkpt lat="46.1089340" lon="10.5246620">
	<ele>2150.80</ele>
	<time>2023-08-07T05:33:39.000Z</time>
</trkpt>
<trkpt lat="46.1089430" lon="10.5246620">
	<ele>2151.00</ele>
	<time>2023-08-07T05:33:40.000Z</time>
</trkpt>
<trkpt lat="46.1089470" lon="10.5246640">
	<ele>2151.00</ele>
	<time>2023-08-07T05:33:41.000Z</time>
</trkpt>
<trkpt lat="46.1089560" lon="10.5246680">
	<ele>2151.20</ele>
	<time>2023-08-07T05:33:42.000Z</time>
</trkpt>
<trkpt lat="46.1089630" lon="10.5246730">
	<ele>2151.40</ele>
	<time>2023-08-07T05:33:43.000Z</time>
</trkpt>
<trkpt lat="46.1089710" lon="10.5246750">
	<ele>2151.60</ele>
	<time>2023-08-07T05:33:44.000Z</time>
</trkpt>
<trkpt lat="46.1089800" lon="10.5246760">
	<ele>2151.60</ele>
	<time>2023-08-07T05:33:45.000Z</time>
</trkpt>
<trkpt lat="46.1089810" lon="10.5246740">
	<ele>2151.80</ele>
	<time>2023-08-07T05:33:46.000Z</time>
</trkpt>
<trkpt lat="46.1089870" lon="10.5246690">
	<ele>2152.00</ele>
	<time>2023-08-07T05:33:47.000Z</time>
</trkpt>
<trkpt lat="46.1089900" lon="10.5246650">
	<ele>2152.00</ele>
	<time>2023-08-07T05:33:48.000Z</time>
</trkpt>
<trkpt lat="46.1089880" lon="10.5246570">
	<ele>2152.20</ele>
	<time>2023-08-07T05:33:49.000Z</time>
</trkpt>
<trkpt lat="46.1089890" lon="10.5246440">
	<ele>2152.20</ele>
	<time>2023-08-07T05:33:50.000Z</time>
</trkpt>
<trkpt lat="46.1089920" lon="10.5246340">
	<ele>2152.20</ele>
	<time>2023-08-07T05:33:51.000Z</time>
</trkpt>
<trkpt lat="46.1089930" lon="10.5246280">
	<ele>2152.60</ele>
	<time>2023-08-07T05:33:52.000Z</time>
</trkpt>
<trkpt lat="46.1089930" lon="10.5246180">
	<ele>2152.80</ele>
	<time>2023-08-07T05:33:53.000Z</time>
</trkpt>
<trkpt lat="46.1089950" lon="10.5246060">
	<ele>2152.80</ele>
	<time>2023-08-07T05:33:54.000Z</time>
</trkpt>
<trkpt lat="46.1089960" lon="10.5245960">
	<ele>2153.00</ele>
	<time>2023-08-07T05:33:55.000Z</time>
</trkpt>
<trkpt lat="46.1089950" lon="10.5245880">
	<ele>2153.20</ele>
	<time>2023-08-07T05:33:56.000Z</time>
</trkpt>
<trkpt lat="46.1089960" lon="10.5245800">
	<ele>2153.40</ele>
	<time>2023-08-07T05:33:57.000Z</time>
</trkpt>
<trkpt lat="46.1089990" lon="10.5245710">
	<ele>2153.60</ele>
	<time>2023-08-07T05:33:58.000Z</time>
</trkpt>
<trkpt lat="46.1090030" lon="10.5245660">
	<ele>2153.80</ele>
	<time>2023-08-07T05:33:59.000Z</time>
</trkpt>
<trkpt lat="46.1090070" lon="10.5245580">
	<ele>2154.00</ele>
	<time>2023-08-07T05:34:00.000Z</time>
</trkpt>
<trkpt lat="46.1090110" lon="10.5245470">
	<ele>2154.00</ele>
	<time>2023-08-07T05:34:01.000Z</time>
</trkpt>
<trkpt lat="46.1090130" lon="10.5245390">
	<ele>2154.00</ele>
	<time>2023-08-07T05:34:02.000Z</time>
</trkpt>
<trkpt lat="46.1090150" lon="10.5245340">
	<ele>2154.20</ele>
	<time>2023-08-07T05:34:03.000Z</time>
</trkpt>
<trkpt lat="46.1090180" lon="10.5245280">
	<ele>2154.40</ele>
	<time>2023-08-07T05:34:04.000Z</time>
</trkpt>
<trkpt lat="46.1090240" lon="10.5245200">
	<ele>2154.60</ele>
	<time>2023-08-07T05:34:05.000Z</time>
</trkpt>
<trkpt lat="46.1090300" lon="10.5245160">
	<ele>2154.60</ele>
	<time>2023-08-07T05:34:06.000Z</time>
</trkpt>
<trkpt lat="46.1090330" lon="10.5245110">
	<ele>2154.60</ele>
	<time>2023-08-07T05:34:07.000Z</time>
</trkpt>
<trkpt lat="46.1090360" lon="10.5245030">
	<ele>2154.80</ele>
	<time>2023-08-07T05:34:08.000Z</time>
</trkpt>
<trkpt lat="46.1090420" lon="10.5244980">
	<ele>2154.80</ele>
	<time>2023-08-07T05:34:09.000Z</time>
</trkpt>
<trkpt lat="46.1090450" lon="10.5244930">
	<ele>2155.00</ele>
	<time>2023-08-07T05:34:10.000Z</time>
</trkpt>
<trkpt lat="46.1090490" lon="10.5244840">
	<ele>2155.20</ele>
	<time>2023-08-07T05:34:11.000Z</time>
</trkpt>
<trkpt lat="46.1090520" lon="10.5244770">
	<ele>2155.20</ele>
	<time>2023-08-07T05:34:12.000Z</time>
</trkpt>
<trkpt lat="46.1090550" lon="10.5244710">
	<ele>2155.20</ele>
	<time>2023-08-07T05:34:13.000Z</time>
</trkpt>
<trkpt lat="46.1090580" lon="10.5244660">
	<ele>2155.20</ele>
	<time>2023-08-07T05:34:14.000Z</time>
</trkpt>
<trkpt lat="46.1090620" lon="10.5244630">
	<ele>2155.40</ele>
	<time>2023-08-07T05:34:15.000Z</time>
</trkpt>
<trkpt lat="46.1090650" lon="10.5244550">
	<ele>2155.60</ele>
	<time>2023-08-07T05:34:16.000Z</time>
</trkpt>
<trkpt lat="46.1090660" lon="10.5244490">
	<ele>2155.80</ele>
	<time>2023-08-07T05:34:17.000Z</time>
</trkpt>
<trkpt lat="46.1090630" lon="10.5244430">
	<ele>2155.80</ele>
	<time>2023-08-07T05:34:18.000Z</time>
</trkpt>
<trkpt lat="46.1090640" lon="10.5244410">
	<ele>2156.00</ele>
	<time>2023-08-07T05:34:19.000Z</time>
</trkpt>
<trkpt lat="46.1090650" lon="10.5244360">
	<ele>2156.00</ele>
	<time>2023-08-07T05:34:20.000Z</time>
</trkpt>
<trkpt lat="46.1090680" lon="10.5244340">
	<ele>2156.20</ele>
	<time>2023-08-07T05:34:21.000Z</time>
</trkpt>
<trkpt lat="46.1090690" lon="10.5244260">
	<ele>2156.40</ele>
	<time>2023-08-07T05:34:22.000Z</time>
</trkpt>
<trkpt lat="46.1090710" lon="10.5244160">
	<ele>2156.60</ele>
	<time>2023-08-07T05:34:23.000Z</time>
</trkpt>
<trkpt lat="46.1090730" lon="10.5244130">
	<ele>2156.80</ele>
	<time>2023-08-07T05:34:24.000Z</time>
</trkpt>
<trkpt lat="46.1090750" lon="10.5244090">
	<ele>2156.80</ele>
	<time>2023-08-07T05:34:25.000Z</time>
</trkpt>
<trkpt lat="46.1090790" lon="10.5244010">
	<ele>2157.00</ele>
	<time>2023-08-07T05:34:26.000Z</time>
</trkpt>
<trkpt lat="46.1090790" lon="10.5243930">
	<ele>2157.20</ele>
	<time>2023-08-07T05:34:27.000Z</time>
</trkpt>
<trkpt lat="46.1090780" lon="10.5243850">
	<ele>2157.40</ele>
	<time>2023-08-07T05:34:28.000Z</time>
</trkpt>
<trkpt lat="46.1090810" lon="10.5243740">
	<ele>2157.40</ele>
	<time>2023-08-07T05:34:29.000Z</time>
</trkpt>
<trkpt lat="46.1090810" lon="10.5243630">
	<ele>2157.60</ele>
	<time>2023-08-07T05:34:30.000Z</time>
</trkpt>
<trkpt lat="46.1090800" lon="10.5243560">
	<ele>2157.60</ele>
	<time>2023-08-07T05:34:31.000Z</time>
</trkpt>
<trkpt lat="46.1090840" lon="10.5243480">
	<ele>2157.60</ele>
	<time>2023-08-07T05:34:32.000Z</time>
</trkpt>
<trkpt lat="46.1090930" lon="10.5243390">
	<ele>2157.60</ele>
	<time>2023-08-07T05:34:33.000Z</time>
</trkpt>
<trkpt lat="46.1090990" lon="10.5243390">
	<ele>2157.80</ele>
	<time>2023-08-07T05:34:34.000Z</time>
</trkpt>
<trkpt lat="46.1091080" lon="10.5243360">
	<ele>2157.80</ele>
	<time>2023-08-07T05:34:35.000Z</time>
</trkpt>
<trkpt lat="46.1091140" lon="10.5243330">
	<ele>2158.00</ele>
	<time>2023-08-07T05:34:36.000Z</time>
</trkpt>
<trkpt lat="46.1091210" lon="10.5243280">
	<ele>2158.20</ele>
	<time>2023-08-07T05:34:37.000Z</time>
</trkpt>
<trkpt lat="46.1091240" lon="10.5243250">
	<ele>2158.20</ele>
	<time>2023-08-07T05:34:38.000Z</time>
</trkpt>
<trkpt lat="46.1091280" lon="10.5243220">
	<ele>2158.40</ele>
	<time>2023-08-07T05:34:39.000Z</time>
</trkpt>
<trkpt lat="46.1091310" lon="10.5243190">
	<ele>2158.60</ele>
	<time>2023-08-07T05:34:40.000Z</time>
</trkpt>
<trkpt lat="46.1091350" lon="10.5243170">
	<ele>2158.80</ele>
	<time>2023-08-07T05:34:41.000Z</time>
</trkpt>
<trkpt lat="46.1091370" lon="10.5243080">
	<ele>2158.80</ele>
	<time>2023-08-07T05:34:42.000Z</time>
</trkpt>
<trkpt lat="46.1091410" lon="10.5243040">
	<ele>2159.20</ele>
	<time>2023-08-07T05:34:43.000Z</time>
</trkpt>
<trkpt lat="46.1091440" lon="10.5242990">
	<ele>2159.40</ele>
	<time>2023-08-07T05:34:44.000Z</time>
</trkpt>
<trkpt lat="46.1091450" lon="10.5242960">
	<ele>2159.40</ele>
	<time>2023-08-07T05:34:45.000Z</time>
</trkpt>
<trkpt lat="46.1091530" lon="10.5242910">
	<ele>2159.40</ele>
	<time>2023-08-07T05:34:46.000Z</time>
</trkpt>
<trkpt lat="46.1091570" lon="10.5242870">
	<ele>2159.60</ele>
	<time>2023-08-07T05:34:47.000Z</time>
</trkpt>
<trkpt lat="46.1091610" lon="10.5242840">
	<ele>2159.80</ele>
	<time>2023-08-07T05:34:48.000Z</time>
</trkpt>
<trkpt lat="46.1091640" lon="10.5242800">
	<ele>2159.80</ele>
	<time>2023-08-07T05:34:49.000Z</time>
</trkpt>
<trkpt lat="46.1091710" lon="10.5242780">
	<ele>2160.00</ele>
	<time>2023-08-07T05:34:50.000Z</time>
</trkpt>
<trkpt lat="46.1091750" lon="10.5242770">
	<ele>2160.20</ele>
	<time>2023-08-07T05:34:51.000Z</time>
</trkpt>
<trkpt lat="46.1091750" lon="10.5242710">
	<ele>2160.20</ele>
	<time>2023-08-07T05:34:52.000Z</time>
</trkpt>
<trkpt lat="46.1091800" lon="10.5242680">
	<ele>2160.40</ele>
	<time>2023-08-07T05:34:53.000Z</time>
</trkpt>
<trkpt lat="46.1091830" lon="10.5242690">
	<ele>2160.60</ele>
	<time>2023-08-07T05:34:54.000Z</time>
</trkpt>
<trkpt lat="46.1091880" lon="10.5242700">
	<ele>2160.80</ele>
	<time>2023-08-07T05:34:55.000Z</time>
</trkpt>
<trkpt lat="46.1091950" lon="10.5242680">
	<ele>2161.00</ele>
	<time>2023-08-07T05:34:56.000Z</time>
</trkpt>
<trkpt lat="46.1091980" lon="10.5242670">
	<ele>2161.20</ele>
	<time>2023-08-07T05:34:57.000Z</time>
</trkpt>
<trkpt lat="46.1092000" lon="10.5242660">
	<ele>2161.20</ele>
	<time>2023-08-07T05:34:58.000Z</time>
</trkpt>
<trkpt lat="46.1092050" lon="10.5242670">
	<ele>2161.40</ele>
	<time>2023-08-07T05:34:59.000Z</time>
</trkpt>
<trkpt lat="46.1092080" lon="10.5242650">
	<ele>2161.60</ele>
	<time>2023-08-07T05:35:00.000Z</time>
</trkpt>
<trkpt lat="46.1092090" lon="10.5242590">
	<ele>2161.80</ele>
	<time>2023-08-07T05:35:01.000Z</time>
</trkpt>
<trkpt lat="46.1092120" lon="10.5242520">
	<ele>2161.80</ele>
	<time>2023-08-07T05:35:02.000Z</time>
</trkpt>
<trkpt lat="46.1092110" lon="10.5242470">
	<ele>2161.80</ele>
	<time>2023-08-07T05:35:03.000Z</time>
</trkpt>
<trkpt lat="46.1092110" lon="10.5242420">
	<ele>2162.00</ele>
	<time>2023-08-07T05:35:04.000Z</time>
</trkpt>
<trkpt lat="46.1092140" lon="10.5242370">
	<ele>2162.00</ele>
	<time>2023-08-07T05:35:05.000Z</time>
</trkpt>
<trkpt lat="46.1092130" lon="10.5242320">
	<ele>2162.20</ele>
	<time>2023-08-07T05:35:06.000Z</time>
</trkpt>
<trkpt lat="46.1092110" lon="10.5242260">
	<ele>2162.40</ele>
	<time>2023-08-07T05:35:07.000Z</time>
</trkpt>
<trkpt lat="46.1092120" lon="10.5242270">
	<ele>2162.40</ele>
	<time>2023-08-07T05:35:08.000Z</time>
</trkpt>
<trkpt lat="46.1092150" lon="10.5242240">
	<ele>2162.60</ele>
	<time>2023-08-07T05:35:09.000Z</time>
</trkpt>
<trkpt lat="46.1092170" lon="10.5242210">
	<ele>2162.60</ele>
	<time>2023-08-07T05:35:10.000Z</time>
</trkpt>
<trkpt lat="46.1092200" lon="10.5242180">
	<ele>2162.80</ele>
	<time>2023-08-07T05:35:11.000Z</time>
</trkpt>
<trkpt lat="46.1092250" lon="10.5242160">
	<ele>2163.00</ele>
	<time>2023-08-07T05:35:12.000Z</time>
</trkpt>
<trkpt lat="46.1092280" lon="10.5242120">
	<ele>2163.40</ele>
	<time>2023-08-07T05:35:13.000Z</time>
</trkpt>
<trkpt lat="46.1092290" lon="10.5242050">
	<ele>2163.60</ele>
	<time>2023-08-07T05:35:14.000Z</time>
</trkpt>
<trkpt lat="46.1092330" lon="10.5242020">
	<ele>2163.60</ele>
	<time>2023-08-07T05:35:15.000Z</time>
</trkpt>
<trkpt lat="46.1092390" lon="10.5242080">
	<ele>2163.80</ele>
	<time>2023-08-07T05:35:16.000Z</time>
</trkpt>
<trkpt lat="46.1092420" lon="10.5242070">
	<ele>2163.80</ele>
	<time>2023-08-07T05:35:17.000Z</time>
</trkpt>
<trkpt lat="46.1092480" lon="10.5242050">
	<ele>2164.00</ele>
	<time>2023-08-07T05:35:18.000Z</time>
</trkpt>
<trkpt lat="46.1092520" lon="10.5242080">
	<ele>2164.20</ele>
	<time>2023-08-07T05:35:19.000Z</time>
</trkpt>
<trkpt lat="46.1092540" lon="10.5242040">
	<ele>2164.20</ele>
	<time>2023-08-07T05:35:20.000Z</time>
</trkpt>
<trkpt lat="46.1092590" lon="10.5241980">
	<ele>2164.40</ele>
	<time>2023-08-07T05:35:21.000Z</time>
</trkpt>
<trkpt lat="46.1092630" lon="10.5241910">
	<ele>2164.60</ele>
	<time>2023-08-07T05:35:22.000Z</time>
</trkpt>
<trkpt lat="46.1092630" lon="10.5241870">
	<ele>2164.60</ele>
	<time>2023-08-07T05:35:23.000Z</time>
</trkpt>
<trkpt lat="46.1092630" lon="10.5241810">
	<ele>2164.80</ele>
	<time>2023-08-07T05:35:24.000Z</time>
</trkpt>
<trkpt lat="46.1092640" lon="10.5241750">
	<ele>2164.80</ele>
	<time>2023-08-07T05:35:25.000Z</time>
</trkpt>
<trkpt lat="46.1092640" lon="10.5241700">
	<ele>2165.00</ele>
	<time>2023-08-07T05:35:26.000Z</time>
</trkpt>
<trkpt lat="46.1092650" lon="10.5241660">
	<ele>2165.20</ele>
	<time>2023-08-07T05:35:27.000Z</time>
</trkpt>
<trkpt lat="46.1092660" lon="10.5241570">
	<ele>2165.20</ele>
	<time>2023-08-07T05:35:28.000Z</time>
</trkpt>
<trkpt lat="46.1092670" lon="10.5241480">
	<ele>2165.40</ele>
	<time>2023-08-07T05:35:29.000Z</time>
</trkpt>
<trkpt lat="46.1092660" lon="10.5241410">
	<ele>2165.40</ele>
	<time>2023-08-07T05:35:30.000Z</time>
</trkpt>
<trkpt lat="46.1092650" lon="10.5241320">
	<ele>2165.60</ele>
	<time>2023-08-07T05:35:31.000Z</time>
</trkpt>
<trkpt lat="46.1092660" lon="10.5241220">
	<ele>2165.60</ele>
	<time>2023-08-07T05:35:32.000Z</time>
</trkpt>
<trkpt lat="46.1092730" lon="10.5241180">
	<ele>2165.80</ele>
	<time>2023-08-07T05:35:33.000Z</time>
</trkpt>
<trkpt lat="46.1092740" lon="10.5241130">
	<ele>2165.80</ele>
	<time>2023-08-07T05:35:34.000Z</time>
</trkpt>
<trkpt lat="46.1092760" lon="10.5241090">
	<ele>2166.00</ele>
	<time>2023-08-07T05:35:35.000Z</time>
</trkpt>
<trkpt lat="46.1092790" lon="10.5241050">
	<ele>2166.20</ele>
	<time>2023-08-07T05:35:36.000Z</time>
</trkpt>
<trkpt lat="46.1092810" lon="10.5240980">
	<ele>2166.20</ele>
	<time>2023-08-07T05:35:37.000Z</time>
</trkpt>
<trkpt lat="46.1092810" lon="10.5240920">
	<ele>2166.40</ele>
	<time>2023-08-07T05:35:38.000Z</time>
</trkpt>
<trkpt lat="46.1092830" lon="10.5240840">
	<ele>2166.60</ele>
	<time>2023-08-07T05:35:39.000Z</time>
</trkpt>
<trkpt lat="46.1092870" lon="10.5240780">
	<ele>2166.60</ele>
	<time>2023-08-07T05:35:40.000Z</time>
</trkpt>
<trkpt lat="46.1092900" lon="10.5240740">
	<ele>2166.80</ele>
	<time>2023-08-07T05:35:41.000Z</time>
</trkpt>
<trkpt lat="46.1092920" lon="10.5240690">
	<ele>2167.00</ele>
	<time>2023-08-07T05:35:42.000Z</time>
</trkpt>
<trkpt lat="46.1092970" lon="10.5240660">
	<ele>2167.20</ele>
	<time>2023-08-07T05:35:43.000Z</time>
</trkpt>
<trkpt lat="46.1092990" lon="10.5240620">
	<ele>2167.40</ele>
	<time>2023-08-07T05:35:44.000Z</time>
</trkpt>
<trkpt lat="46.1093020" lon="10.5240610">
	<ele>2167.60</ele>
	<time>2023-08-07T05:35:45.000Z</time>
</trkpt>
<trkpt lat="46.1093080" lon="10.5240620">
	<ele>2167.80</ele>
	<time>2023-08-07T05:35:46.000Z</time>
</trkpt>
<trkpt lat="46.1093120" lon="10.5240600">
	<ele>2168.00</ele>
	<time>2023-08-07T05:35:47.000Z</time>
</trkpt>
<trkpt lat="46.1093160" lon="10.5240570">
	<ele>2168.00</ele>
	<time>2023-08-07T05:35:48.000Z</time>
</trkpt>
<trkpt lat="46.1093170" lon="10.5240520">
	<ele>2168.00</ele>
	<time>2023-08-07T05:35:49.000Z</time>
</trkpt>
<trkpt lat="46.1093210" lon="10.5240490">
	<ele>2168.00</ele>
	<time>2023-08-07T05:35:50.000Z</time>
</trkpt>
<trkpt lat="46.1093220" lon="10.5240450">
	<ele>2168.20</ele>
	<time>2023-08-07T05:35:51.000Z</time>
</trkpt>
<trkpt lat="46.1093220" lon="10.5240410">
	<ele>2168.60</ele>
	<time>2023-08-07T05:35:52.000Z</time>
</trkpt>
<trkpt lat="46.1093260" lon="10.5240380">
	<ele>2168.80</ele>
	<time>2023-08-07T05:35:53.000Z</time>
</trkpt>
<trkpt lat="46.1093300" lon="10.5240330">
	<ele>2168.80</ele>
	<time>2023-08-07T05:35:54.000Z</time>
</trkpt>
<trkpt lat="46.1093330" lon="10.5240300">
	<ele>2169.00</ele>
	<time>2023-08-07T05:35:55.000Z</time>
</trkpt>
<trkpt lat="46.1093330" lon="10.5240290">
	<ele>2169.20</ele>
	<time>2023-08-07T05:35:56.000Z</time>
</trkpt>
<trkpt lat="46.1093360" lon="10.5240280">
	<ele>2169.20</ele>
	<time>2023-08-07T05:35:57.000Z</time>
</trkpt>
<trkpt lat="46.1093400" lon="10.5240260">
	<ele>2169.40</ele>
	<time>2023-08-07T05:35:58.000Z</time>
</trkpt>
<trkpt lat="46.1093440" lon="10.5240210">
	<ele>2169.60</ele>
	<time>2023-08-07T05:35:59.000Z</time>
</trkpt>
<trkpt lat="46.1093460" lon="10.5240200">
	<ele>2169.60</ele>
	<time>2023-08-07T05:36:00.000Z</time>
</trkpt>
<trkpt lat="46.1093470" lon="10.5240190">
	<ele>2169.80</ele>
	<time>2023-08-07T05:36:01.000Z</time>
</trkpt>
<trkpt lat="46.1093470" lon="10.5240190">
	<ele>2170.00</ele>
	<time>2023-08-07T05:36:02.000Z</time>
</trkpt>
<trkpt lat="46.1093470" lon="10.5240190">
	<ele>2170.20</ele>
	<time>2023-08-07T05:36:03.000Z</time>
</trkpt>
<trkpt lat="46.1093470" lon="10.5240190">
	<ele>2170.20</ele>
	<time>2023-08-07T05:36:04.000Z</time>
</trkpt>
<trkpt lat="46.1093470" lon="10.5240190">
	<ele>2170.40</ele>
	<time>2023-08-07T05:36:05.000Z</time>
</trkpt>
<trkpt lat="46.1093470" lon="10.5240190">
	<ele>2170.40</ele>
	<time>2023-08-07T05:36:06.000Z</time>
</trkpt>
<trkpt lat="46.1093470" lon="10.5240190">
	<ele>2170.60</ele>
	<time>2023-08-07T05:36:07.000Z</time>
</trkpt>
<trkpt lat="46.1093470" lon="10.5240190">
	<ele>2170.80</ele>
	<time>2023-08-07T05:36:08.000Z</time>
</trkpt>
<trkpt lat="46.1093470" lon="10.5240190">
	<ele>2171.00</ele>
	<time>2023-08-07T05:36:09.000Z</time>
</trkpt>
<trkpt lat="46.1093470" lon="10.5240190">
	<ele>2171.20</ele>
	<time>2023-08-07T05:36:10.000Z</time>
</trkpt>
<trkpt lat="46.1093470" lon="10.5240190">
	<ele>2171.40</ele>
	<time>2023-08-07T05:36:11.000Z</time>
</trkpt>
<trkpt lat="46.1093470" lon="10.5240190">
	<ele>2171.60</ele>
	<time>2023-08-07T05:36:12.000Z</time>
</trkpt>
<trkpt lat="46.1093470" lon="10.5240190">
	<ele>2171.80</ele>
	<time>2023-08-07T05:36:13.000Z</time>
</trkpt>
<trkpt lat="46.1093470" lon="10.5240190">
	<ele>2172.00</ele>
	<time>2023-08-07T05:36:14.000Z</time>
</trkpt>
<trkpt lat="46.1093470" lon="10.5240190">
	<ele>2172.00</ele>
	<time>2023-08-07T05:36:15.000Z</time>
</trkpt>
<trkpt lat="46.1093470" lon="10.5240190">
	<ele>2172.20</ele>
	<time>2023-08-07T05:36:16.000Z</time>
</trkpt>
<trkpt lat="46.1093470" lon="10.5240140">
	<ele>2172.20</ele>
	<time>2023-08-07T05:36:17.000Z</time>
</trkpt>
<trkpt lat="46.1093520" lon="10.5240100">
	<ele>2172.40</ele>
	<time>2023-08-07T05:36:18.000Z</time>
</trkpt>
<trkpt lat="46.1093540" lon="10.5240090">
	<ele>2172.40</ele>
	<time>2023-08-07T05:36:19.000Z</time>
</trkpt>
<trkpt lat="46.1093570" lon="10.5240080">
	<ele>2172.40</ele>
	<time>2023-08-07T05:36:20.000Z</time>
</trkpt>
<trkpt lat="46.1093610" lon="10.5240060">
	<ele>2172.40</ele>
	<time>2023-08-07T05:36:21.000Z</time>
</trkpt>
<trkpt lat="46.1093630" lon="10.5240050">
	<ele>2172.60</ele>
	<time>2023-08-07T05:36:22.000Z</time>
</trkpt>
<trkpt lat="46.1093630" lon="10.5240040">
	<ele>2172.60</ele>
	<time>2023-08-07T05:36:23.000Z</time>
</trkpt>
<trkpt lat="46.1093620" lon="10.5239950">
	<ele>2172.60</ele>
	<time>2023-08-07T05:36:24.000Z</time>
</trkpt>
<trkpt lat="46.1093550" lon="10.5239750">
	<ele>2172.60</ele>
	<time>2023-08-07T05:36:25.000Z</time>
</trkpt>
<trkpt lat="46.1093510" lon="10.5239610">
	<ele>2172.80</ele>
	<time>2023-08-07T05:36:26.000Z</time>
</trkpt>
<trkpt lat="46.1093450" lon="10.5239460">
	<ele>2173.00</ele>
	<time>2023-08-07T05:36:27.000Z</time>
</trkpt>
<trkpt lat="46.1093400" lon="10.5239290">
	<ele>2173.00</ele>
	<time>2023-08-07T05:36:28.000Z</time>
</trkpt>
<trkpt lat="46.1093370" lon="10.5239110">
	<ele>2173.00</ele>
	<time>2023-08-07T05:36:29.000Z</time>
</trkpt>
<trkpt lat="46.1093360" lon="10.5238960">
	<ele>2173.00</ele>
	<time>2023-08-07T05:36:30.000Z</time>
</trkpt>
<trkpt lat="46.1093340" lon="10.5238820">
	<ele>2173.20</ele>
	<time>2023-08-07T05:36:31.000Z</time>
</trkpt>
<trkpt lat="46.1093280" lon="10.5238630">
	<ele>2173.60</ele>
	<time>2023-08-07T05:36:32.000Z</time>
</trkpt>
<trkpt lat="46.1093220" lon="10.5238410">
	<ele>2173.80</ele>
	<time>2023-08-07T05:36:33.000Z</time>
</trkpt>
<trkpt lat="46.1093210" lon="10.5238350">
	<ele>2174.00</ele>
	<time>2023-08-07T05:36:34.000Z</time>
</trkpt>
<trkpt lat="46.1093220" lon="10.5238220">
	<ele>2174.00</ele>
	<time>2023-08-07T05:36:35.000Z</time>
</trkpt>
<trkpt lat="46.1093210" lon="10.5238100">
	<ele>2174.20</ele>
	<time>2023-08-07T05:36:36.000Z</time>
</trkpt>
<trkpt lat="46.1093170" lon="10.5237970">
	<ele>2174.20</ele>
	<time>2023-08-07T05:36:37.000Z</time>
</trkpt>
<trkpt lat="46.1093150" lon="10.5237890">
	<ele>2174.20</ele>
	<time>2023-08-07T05:36:38.000Z</time>
</trkpt>
<trkpt lat="46.1093130" lon="10.5237850">
	<ele>2174.20</ele>
	<time>2023-08-07T05:36:39.000Z</time>
</trkpt>
<trkpt lat="46.1093120" lon="10.5237760">
	<ele>2174.20</ele>
	<time>2023-08-07T05:36:40.000Z</time>
</trkpt>
<trkpt lat="46.1093150" lon="10.5237710">
	<ele>2174.40</ele>
	<time>2023-08-07T05:36:41.000Z</time>
</trkpt>
<trkpt lat="46.1093140" lon="10.5237620">
	<ele>2174.40</ele>
	<time>2023-08-07T05:36:42.000Z</time>
</trkpt>
<trkpt lat="46.1093130" lon="10.5237540">
	<ele>2174.40</ele>
	<time>2023-08-07T05:36:43.000Z</time>
</trkpt>
<trkpt lat="46.1093150" lon="10.5237420">
	<ele>2174.60</ele>
	<time>2023-08-07T05:36:44.000Z</time>
</trkpt>
<trkpt lat="46.1093150" lon="10.5237280">
	<ele>2174.80</ele>
	<time>2023-08-07T05:36:45.000Z</time>
</trkpt>
<trkpt lat="46.1093160" lon="10.5237220">
	<ele>2175.00</ele>
	<time>2023-08-07T05:36:46.000Z</time>
</trkpt>
<trkpt lat="46.1093140" lon="10.5237150">
	<ele>2175.00</ele>
	<time>2023-08-07T05:36:47.000Z</time>
</trkpt>
<trkpt lat="46.1093110" lon="10.5237100">
	<ele>2175.20</ele>
	<time>2023-08-07T05:36:48.000Z</time>
</trkpt>
<trkpt lat="46.1093100" lon="10.5236960">
	<ele>2175.20</ele>
	<time>2023-08-07T05:36:49.000Z</time>
</trkpt>
<trkpt lat="46.1093070" lon="10.5236880">
	<ele>2175.40</ele>
	<time>2023-08-07T05:36:50.000Z</time>
</trkpt>
<trkpt lat="46.1093060" lon="10.5236830">
	<ele>2175.40</ele>
	<time>2023-08-07T05:36:51.000Z</time>
</trkpt>
<trkpt lat="46.1093010" lon="10.5236780">
	<ele>2175.60</ele>
	<time>2023-08-07T05:36:52.000Z</time>
</trkpt>
<trkpt lat="46.1092960" lon="10.5236800">
	<ele>2175.60</ele>
	<time>2023-08-07T05:36:53.000Z</time>
</trkpt>
<trkpt lat="46.1092900" lon="10.5236780">
	<ele>2175.60</ele>
	<time>2023-08-07T05:36:54.000Z</time>
</trkpt>
<trkpt lat="46.1092880" lon="10.5236720">
	<ele>2175.80</ele>
	<time>2023-08-07T05:36:55.000Z</time>
</trkpt>
<trkpt lat="46.1092860" lon="10.5236680">
	<ele>2176.00</ele>
	<time>2023-08-07T05:36:56.000Z</time>
</trkpt>
<trkpt lat="46.1092840" lon="10.5236640">
	<ele>2176.20</ele>
	<time>2023-08-07T05:36:57.000Z</time>
</trkpt>
<trkpt lat="46.1092860" lon="10.5236580">
	<ele>2176.40</ele>
	<time>2023-08-07T05:36:58.000Z</time>
</trkpt>
<trkpt lat="46.1092850" lon="10.5236520">
	<ele>2176.40</ele>
	<time>2023-08-07T05:36:59.000Z</time>
</trkpt>
<trkpt lat="46.1092840" lon="10.5236480">
	<ele>2176.60</ele>
	<time>2023-08-07T05:37:00.000Z</time>
</trkpt>
<trkpt lat="46.1092840" lon="10.5236460">
	<ele>2176.80</ele>
	<time>2023-08-07T05:37:01.000Z</time>
</trkpt>
<trkpt lat="46.1092850" lon="10.5236440">
	<ele>2177.00</ele>
	<time>2023-08-07T05:37:02.000Z</time>
</trkpt>
<trkpt lat="46.1092840" lon="10.5236410">
	<ele>2177.40</ele>
	<time>2023-08-07T05:37:03.000Z</time>
</trkpt>
<trkpt lat="46.1092820" lon="10.5236370">
	<ele>2177.60</ele>
	<time>2023-08-07T05:37:04.000Z</time>
</trkpt>
<trkpt lat="46.1092800" lon="10.5236340">
	<ele>2177.80</ele>
	<time>2023-08-07T05:37:05.000Z</time>
</trkpt>
<trkpt lat="46.1092770" lon="10.5236260">
	<ele>2177.80</ele>
	<time>2023-08-07T05:37:06.000Z</time>
</trkpt>
<trkpt lat="46.1092760" lon="10.5236190">
	<ele>2178.00</ele>
	<time>2023-08-07T05:37:07.000Z</time>
</trkpt>
<trkpt lat="46.1092720" lon="10.5236150">
	<ele>2178.00</ele>
	<time>2023-08-07T05:37:08.000Z</time>
</trkpt>
<trkpt lat="46.1092680" lon="10.5236070">
	<ele>2178.20</ele>
	<time>2023-08-07T05:37:09.000Z</time>
</trkpt>
<trkpt lat="46.1092680" lon="10.5236020">
	<ele>2178.40</ele>
	<time>2023-08-07T05:37:10.000Z</time>
</trkpt>
<trkpt lat="46.1092660" lon="10.5235980">
	<ele>2178.60</ele>
	<time>2023-08-07T05:37:11.000Z</time>
</trkpt>
<trkpt lat="46.1092620" lon="10.5235930">
	<ele>2178.60</ele>
	<time>2023-08-07T05:37:12.000Z</time>
</trkpt>
<trkpt lat="46.1092590" lon="10.5235870">
	<ele>2178.80</ele>
	<time>2023-08-07T05:37:13.000Z</time>
</trkpt>
<trkpt lat="46.1092570" lon="10.5235810">
	<ele>2178.80</ele>
	<time>2023-08-07T05:37:14.000Z</time>
</trkpt>
<trkpt lat="46.1092550" lon="10.5235730">
	<ele>2179.00</ele>
	<time>2023-08-07T05:37:15.000Z</time>
</trkpt>
<trkpt lat="46.1092550" lon="10.5235630">
	<ele>2179.00</ele>
	<time>2023-08-07T05:37:16.000Z</time>
</trkpt>
<trkpt lat="46.1092530" lon="10.5235550">
	<ele>2179.20</ele>
	<time>2023-08-07T05:37:17.000Z</time>
</trkpt>
<trkpt lat="46.1092510" lon="10.5235470">
	<ele>2179.40</ele>
	<time>2023-08-07T05:37:18.000Z</time>
</trkpt>
<trkpt lat="46.1092510" lon="10.5235380">
	<ele>2179.60</ele>
	<time>2023-08-07T05:37:19.000Z</time>
</trkpt>
<trkpt lat="46.1092480" lon="10.5235310">
	<ele>2179.60</ele>
	<time>2023-08-07T05:37:20.000Z</time>
</trkpt>
<trkpt lat="46.1092460" lon="10.5235260">
	<ele>2179.80</ele>
	<time>2023-08-07T05:37:21.000Z</time>
</trkpt>
<trkpt lat="46.1092440" lon="10.5235210">
	<ele>2179.80</ele>
	<time>2023-08-07T05:37:22.000Z</time>
</trkpt>
<trkpt lat="46.1092430" lon="10.5235160">
	<ele>2180.00</ele>
	<time>2023-08-07T05:37:23.000Z</time>
</trkpt>
<trkpt lat="46.1092400" lon="10.5235110">
	<ele>2180.20</ele>
	<time>2023-08-07T05:37:24.000Z</time>
</trkpt>
<trkpt lat="46.1092390" lon="10.5235030">
	<ele>2180.20</ele>
	<time>2023-08-07T05:37:25.000Z</time>
</trkpt>
<trkpt lat="46.1092420" lon="10.5235000">
	<ele>2180.40</ele>
	<time>2023-08-07T05:37:26.000Z</time>
</trkpt>
<trkpt lat="46.1092400" lon="10.5234940">
	<ele>2180.40</ele>
	<time>2023-08-07T05:37:27.000Z</time>
</trkpt>
<trkpt lat="46.1092380" lon="10.5234860">
	<ele>2180.60</ele>
	<time>2023-08-07T05:37:28.000Z</time>
</trkpt>
<trkpt lat="46.1092380" lon="10.5234760">
	<ele>2180.60</ele>
	<time>2023-08-07T05:37:29.000Z</time>
</trkpt>
<trkpt lat="46.1092360" lon="10.5234640">
	<ele>2180.60</ele>
	<time>2023-08-07T05:37:30.000Z</time>
</trkpt>
<trkpt lat="46.1092310" lon="10.5234540">
	<ele>2180.80</ele>
	<time>2023-08-07T05:37:31.000Z</time>
</trkpt>
<trkpt lat="46.1092280" lon="10.5234480">
	<ele>2180.80</ele>
	<time>2023-08-07T05:37:32.000Z</time>
</trkpt>
<trkpt lat="46.1092220" lon="10.5234430">
	<ele>2180.80</ele>
	<time>2023-08-07T05:37:33.000Z</time>
</trkpt>
<trkpt lat="46.1092170" lon="10.5234380">
	<ele>2180.80</ele>
	<time>2023-08-07T05:37:34.000Z</time>
</trkpt>
<trkpt lat="46.1092120" lon="10.5234370">
	<ele>2180.80</ele>
	<time>2023-08-07T05:37:35.000Z</time>
</trkpt>
<trkpt lat="46.1092070" lon="10.5234360">
	<ele>2180.80</ele>
	<time>2023-08-07T05:37:36.000Z</time>
</trkpt>
<trkpt lat="46.1092030" lon="10.5234350">
	<ele>2180.80</ele>
	<time>2023-08-07T05:37:37.000Z</time>
</trkpt>
<trkpt lat="46.1092010" lon="10.5234330">
	<ele>2181.00</ele>
	<time>2023-08-07T05:37:38.000Z</time>
</trkpt>
<trkpt lat="46.1092010" lon="10.5234340">
	<ele>2181.20</ele>
	<time>2023-08-07T05:37:39.000Z</time>
</trkpt>
<trkpt lat="46.1091930" lon="10.5234340">
	<ele>2181.20</ele>
	<time>2023-08-07T05:37:40.000Z</time>
</trkpt>
<trkpt lat="46.1091840" lon="10.5234290">
	<ele>2181.40</ele>
	<time>2023-08-07T05:37:41.000Z</time>
</trkpt>
<trkpt lat="46.1091770" lon="10.5234270">
	<ele>2181.40</ele>
	<time>2023-08-07T05:37:42.000Z</time>
</trkpt>
<trkpt lat="46.1091720" lon="10.5234220">
	<ele>2181.60</ele>
	<time>2023-08-07T05:37:43.000Z</time>
</trkpt>
<trkpt lat="46.1091670" lon="10.5234160">
	<ele>2181.60</ele>
	<time>2023-08-07T05:37:44.000Z</time>
</trkpt>
<trkpt lat="46.1091600" lon="10.5234110">
	<ele>2181.80</ele>
	<time>2023-08-07T05:37:45.000Z</time>
</trkpt>
<trkpt lat="46.1091550" lon="10.5234040">
	<ele>2181.80</ele>
	<time>2023-08-07T05:37:46.000Z</time>
</trkpt>
<trkpt lat="46.1091490" lon="10.5234010">
	<ele>2182.00</ele>
	<time>2023-08-07T05:37:47.000Z</time>
</trkpt>
<trkpt lat="46.1091440" lon="10.5233960">
	<ele>2182.20</ele>
	<time>2023-08-07T05:37:48.000Z</time>
</trkpt>
<trkpt lat="46.1091400" lon="10.5233920">
	<ele>2182.40</ele>
	<time>2023-08-07T05:37:49.000Z</time>
</trkpt>
<trkpt lat="46.1091330" lon="10.5233870">
	<ele>2182.40</ele>
	<time>2023-08-07T05:37:50.000Z</time>
</trkpt>
<trkpt lat="46.1091270" lon="10.5233810">
	<ele>2182.60</ele>
	<time>2023-08-07T05:37:51.000Z</time>
</trkpt>
<trkpt lat="46.1091220" lon="10.5233790">
	<ele>2182.60</ele>
	<time>2023-08-07T05:37:52.000Z</time>
</trkpt>
<trkpt lat="46.1091150" lon="10.5233750">
	<ele>2182.80</ele>
	<time>2023-08-07T05:37:53.000Z</time>
</trkpt>
<trkpt lat="46.1091100" lon="10.5233700">
	<ele>2182.80</ele>
	<time>2023-08-07T05:37:54.000Z</time>
</trkpt>
<trkpt lat="46.1091050" lon="10.5233630">
	<ele>2182.80</ele>
	<time>2023-08-07T05:37:55.000Z</time>
</trkpt>
<trkpt lat="46.1090990" lon="10.5233550">
	<ele>2182.80</ele>
	<time>2023-08-07T05:37:56.000Z</time>
</trkpt>
<trkpt lat="46.1090930" lon="10.5233450">
	<ele>2182.80</ele>
	<time>2023-08-07T05:37:57.000Z</time>
</trkpt>
<trkpt lat="46.1090880" lon="10.5233310">
	<ele>2182.80</ele>
	<time>2023-08-07T05:37:58.000Z</time>
</trkpt>
<trkpt lat="46.1090820" lon="10.5233150">
	<ele>2183.00</ele>
	<time>2023-08-07T05:37:59.000Z</time>
</trkpt>
<trkpt lat="46.1090770" lon="10.5233040">
	<ele>2183.00</ele>
	<time>2023-08-07T05:38:00.000Z</time>
</trkpt>
<trkpt lat="46.1090730" lon="10.5232980">
	<ele>2183.00</ele>
	<time>2023-08-07T05:38:01.000Z</time>
</trkpt>
<trkpt lat="46.1090710" lon="10.5232910">
	<ele>2183.20</ele>
	<time>2023-08-07T05:38:02.000Z</time>
</trkpt>
<trkpt lat="46.1090680" lon="10.5232870">
	<ele>2183.40</ele>
	<time>2023-08-07T05:38:03.000Z</time>
</trkpt>
<trkpt lat="46.1090660" lon="10.5232830">
	<ele>2183.40</ele>
	<time>2023-08-07T05:38:04.000Z</time>
</trkpt>
<trkpt lat="46.1090630" lon="10.5232740">
	<ele>2183.40</ele>
	<time>2023-08-07T05:38:05.000Z</time>
</trkpt>
<trkpt lat="46.1090620" lon="10.5232570">
	<ele>2183.40</ele>
	<time>2023-08-07T05:38:06.000Z</time>
</trkpt>
<trkpt lat="46.1090570" lon="10.5232400">
	<ele>2183.40</ele>
	<time>2023-08-07T05:38:07.000Z</time>
</trkpt>
<trkpt lat="46.1090540" lon="10.5232290">
	<ele>2183.40</ele>
	<time>2023-08-07T05:38:08.000Z</time>
</trkpt>
<trkpt lat="46.1090510" lon="10.5232160">
	<ele>2183.40</ele>
	<time>2023-08-07T05:38:09.000Z</time>
</trkpt>
<trkpt lat="46.1090500" lon="10.5232080">
	<ele>2183.40</ele>
	<time>2023-08-07T05:38:10.000Z</time>
</trkpt>
<trkpt lat="46.1090470" lon="10.5232050">
	<ele>2183.80</ele>
	<time>2023-08-07T05:38:11.000Z</time>
</trkpt>
<trkpt lat="46.1090430" lon="10.5231990">
	<ele>2184.20</ele>
	<time>2023-08-07T05:38:12.000Z</time>
</trkpt>
<trkpt lat="46.1090400" lon="10.5231920">
	<ele>2184.40</ele>
	<time>2023-08-07T05:38:13.000Z</time>
</trkpt>
<trkpt lat="46.1090400" lon="10.5231870">
	<ele>2184.80</ele>
	<time>2023-08-07T05:38:14.000Z</time>
</trkpt>
<trkpt lat="46.1090390" lon="10.5231840">
	<ele>2185.00</ele>
	<time>2023-08-07T05:38:15.000Z</time>
</trkpt>
<trkpt lat="46.1090360" lon="10.5231780">
	<ele>2185.20</ele>
	<time>2023-08-07T05:38:16.000Z</time>
</trkpt>
<trkpt lat="46.1090310" lon="10.5231710">
	<ele>2185.40</ele>
	<time>2023-08-07T05:38:17.000Z</time>
</trkpt>
<trkpt lat="46.1090260" lon="10.5231600">
	<ele>2185.40</ele>
	<time>2023-08-07T05:38:18.000Z</time>
</trkpt>
<trkpt lat="46.1090220" lon="10.5231510">
	<ele>2185.60</ele>
	<time>2023-08-07T05:38:19.000Z</time>
</trkpt>
<trkpt lat="46.1090170" lon="10.5231400">
	<ele>2185.60</ele>
	<time>2023-08-07T05:38:20.000Z</time>
</trkpt>
<trkpt lat="46.1090120" lon="10.5231320">
	<ele>2185.80</ele>
	<time>2023-08-07T05:38:21.000Z</time>
</trkpt>
<trkpt lat="46.1090090" lon="10.5231220">
	<ele>2186.20</ele>
	<time>2023-08-07T05:38:22.000Z</time>
</trkpt>
<trkpt lat="46.1090080" lon="10.5231160">
	<ele>2186.40</ele>
	<time>2023-08-07T05:38:23.000Z</time>
</trkpt>
<trkpt lat="46.1090060" lon="10.5231100">
	<ele>2186.80</ele>
	<time>2023-08-07T05:38:24.000Z</time>
</trkpt>
<trkpt lat="46.1090050" lon="10.5231020">
	<ele>2187.20</ele>
	<time>2023-08-07T05:38:25.000Z</time>
</trkpt>
<trkpt lat="46.1090020" lon="10.5230960">
	<ele>2187.20</ele>
	<time>2023-08-07T05:38:26.000Z</time>
</trkpt>
<trkpt lat="46.1089990" lon="10.5230940">
	<ele>2187.40</ele>
	<time>2023-08-07T05:38:27.000Z</time>
</trkpt>
<trkpt lat="46.1089960" lon="10.5230900">
	<ele>2187.40</ele>
	<time>2023-08-07T05:38:28.000Z</time>
</trkpt>
<trkpt lat="46.1089930" lon="10.5230800">
	<ele>2187.60</ele>
	<time>2023-08-07T05:38:29.000Z</time>
</trkpt>
<trkpt lat="46.1089890" lon="10.5230720">
	<ele>2187.60</ele>
	<time>2023-08-07T05:38:30.000Z</time>
</trkpt>
<trkpt lat="46.1089870" lon="10.5230690">
	<ele>2187.60</ele>
	<time>2023-08-07T05:38:31.000Z</time>
</trkpt>
<trkpt lat="46.1089830" lon="10.5230630">
	<ele>2187.80</ele>
	<time>2023-08-07T05:38:32.000Z</time>
</trkpt>
<trkpt lat="46.1089800" lon="10.5230580">
	<ele>2187.80</ele>
	<time>2023-08-07T05:38:33.000Z</time>
</trkpt>
<trkpt lat="46.1089770" lon="10.5230500">
	<ele>2188.00</ele>
	<time>2023-08-07T05:38:34.000Z</time>
</trkpt>
<trkpt lat="46.1089750" lon="10.5230430">
	<ele>2188.20</ele>
	<time>2023-08-07T05:38:35.000Z</time>
</trkpt>
<trkpt lat="46.1089730" lon="10.5230340">
	<ele>2188.20</ele>
	<time>2023-08-07T05:38:36.000Z</time>
</trkpt>
<trkpt lat="46.1089710" lon="10.5230300">
	<ele>2188.40</ele>
	<time>2023-08-07T05:38:37.000Z</time>
</trkpt>
<trkpt lat="46.1089680" lon="10.5230260">
	<ele>2188.40</ele>
	<time>2023-08-07T05:38:38.000Z</time>
</trkpt>
<trkpt lat="46.1089680" lon="10.5230170">
	<ele>2188.40</ele>
	<time>2023-08-07T05:38:39.000Z</time>
</trkpt>
<trkpt lat="46.1089690" lon="10.5230120">
	<ele>2188.60</ele>
	<time>2023-08-07T05:38:40.000Z</time>
</trkpt>
<trkpt lat="46.1089710" lon="10.5230080">
	<ele>2188.80</ele>
	<time>2023-08-07T05:38:41.000Z</time>
</trkpt>
<trkpt lat="46.1089720" lon="10.5230110">
	<ele>2189.00</ele>
	<time>2023-08-07T05:38:42.000Z</time>
</trkpt>
<trkpt lat="46.1089750" lon="10.5230130">
	<ele>2189.20</ele>
	<time>2023-08-07T05:38:43.000Z</time>
</trkpt>
<trkpt lat="46.1089770" lon="10.5230130">
	<ele>2189.40</ele>
	<time>2023-08-07T05:38:44.000Z</time>
</trkpt>
<trkpt lat="46.1089750" lon="10.5230130">
	<ele>2189.40</ele>
	<time>2023-08-07T05:38:45.000Z</time>
</trkpt>
<trkpt lat="46.1089720" lon="10.5230120">
	<ele>2189.60</ele>
	<time>2023-08-07T05:38:46.000Z</time>
</trkpt>
<trkpt lat="46.1089700" lon="10.5230120">
	<ele>2189.80</ele>
	<time>2023-08-07T05:38:47.000Z</time>
</trkpt>
<trkpt lat="46.1089650" lon="10.5230100">
	<ele>2189.80</ele>
	<time>2023-08-07T05:38:48.000Z</time>
</trkpt>
<trkpt lat="46.1089610" lon="10.5230070">
	<ele>2190.00</ele>
	<time>2023-08-07T05:38:49.000Z</time>
</trkpt>
<trkpt lat="46.1089550" lon="10.5230010">
	<ele>2190.20</ele>
	<time>2023-08-07T05:38:50.000Z</time>
</trkpt>
<trkpt lat="46.1089510" lon="10.5229980">
	<ele>2190.40</ele>
	<time>2023-08-07T05:38:51.000Z</time>
</trkpt>
<trkpt lat="46.1089480" lon="10.5229940">
	<ele>2190.80</ele>
	<time>2023-08-07T05:38:52.000Z</time>
</trkpt>
<trkpt lat="46.1089450" lon="10.5229910">
	<ele>2191.00</ele>
	<time>2023-08-07T05:38:53.000Z</time>
</trkpt>
<trkpt lat="46.1089410" lon="10.5229840">
	<ele>2191.20</ele>
	<time>2023-08-07T05:38:54.000Z</time>
</trkpt>
<trkpt lat="46.1089390" lon="10.5229760">
	<ele>2191.20</ele>
	<time>2023-08-07T05:38:55.000Z</time>
</trkpt>
<trkpt lat="46.1089400" lon="10.5229700">
	<ele>2191.40</ele>
	<time>2023-08-07T05:38:56.000Z</time>
</trkpt>
<trkpt lat="46.1089420" lon="10.5229660">
	<ele>2191.40</ele>
	<time>2023-08-07T05:38:57.000Z</time>
</trkpt>
<trkpt lat="46.1089430" lon="10.5229630">
	<ele>2191.40</ele>
	<time>2023-08-07T05:38:58.000Z</time>
</trkpt>
<trkpt lat="46.1089440" lon="10.5229600">
	<ele>2191.60</ele>
	<time>2023-08-07T05:38:59.000Z</time>
</trkpt>
<trkpt lat="46.1089480" lon="10.5229530">
	<ele>2191.60</ele>
	<time>2023-08-07T05:39:00.000Z</time>
</trkpt>
<trkpt lat="46.1089480" lon="10.5229480">
	<ele>2191.80</ele>
	<time>2023-08-07T05:39:01.000Z</time>
</trkpt>
<trkpt lat="46.1089510" lon="10.5229440">
	<ele>2191.80</ele>
	<time>2023-08-07T05:39:02.000Z</time>
</trkpt>
<trkpt lat="46.1089510" lon="10.5229440">
	<ele>2192.00</ele>
	<time>2023-08-07T05:39:03.000Z</time>
</trkpt>
<trkpt lat="46.1089540" lon="10.5229390">
	<ele>2192.20</ele>
	<time>2023-08-07T05:39:04.000Z</time>
</trkpt>
<trkpt lat="46.1089560" lon="10.5229340">
	<ele>2192.20</ele>
	<time>2023-08-07T05:39:05.000Z</time>
</trkpt>
<trkpt lat="46.1089560" lon="10.5229300">
	<ele>2192.40</ele>
	<time>2023-08-07T05:39:06.000Z</time>
</trkpt>
<trkpt lat="46.1089570" lon="10.5229250">
	<ele>2192.80</ele>
	<time>2023-08-07T05:39:07.000Z</time>
</trkpt>
<trkpt lat="46.1089580" lon="10.5229230">
	<ele>2193.00</ele>
	<time>2023-08-07T05:39:08.000Z</time>
</trkpt>
<trkpt lat="46.1089600" lon="10.5229210">
	<ele>2193.00</ele>
	<time>2023-08-07T05:39:09.000Z</time>
</trkpt>
<trkpt lat="46.1089660" lon="10.5229190">
	<ele>2193.20</ele>
	<time>2023-08-07T05:39:10.000Z</time>
</trkpt>
<trkpt lat="46.1089710" lon="10.5229150">
	<ele>2193.20</ele>
	<time>2023-08-07T05:39:11.000Z</time>
</trkpt>
<trkpt lat="46.1089750" lon="10.5229130">
	<ele>2193.40</ele>
	<time>2023-08-07T05:39:12.000Z</time>
</trkpt>
<trkpt lat="46.1089740" lon="10.5229050">
	<ele>2193.60</ele>
	<time>2023-08-07T05:39:13.000Z</time>
</trkpt>
<trkpt lat="46.1089760" lon="10.5228970">
	<ele>2193.60</ele>
	<time>2023-08-07T05:39:14.000Z</time>
</trkpt>
<trkpt lat="46.1089770" lon="10.5228920">
	<ele>2193.80</ele>
	<time>2023-08-07T05:39:15.000Z</time>
</trkpt>
<trkpt lat="46.1089810" lon="10.5228890">
	<ele>2194.00</ele>
	<time>2023-08-07T05:39:16.000Z</time>
</trkpt>
<trkpt lat="46.1089850" lon="10.5228840">
	<ele>2194.00</ele>
	<time>2023-08-07T05:39:17.000Z</time>
</trkpt>
<trkpt lat="46.1089880" lon="10.5228810">
	<ele>2194.20</ele>
	<time>2023-08-07T05:39:18.000Z</time>
</trkpt>
<trkpt lat="46.1089930" lon="10.5228770">
	<ele>2194.40</ele>
	<time>2023-08-07T05:39:19.000Z</time>
</trkpt>
<trkpt lat="46.1089940" lon="10.5228760">
	<ele>2194.40</ele>
	<time>2023-08-07T05:39:20.000Z</time>
</trkpt>
<trkpt lat="46.1089950" lon="10.5228720">
	<ele>2194.60</ele>
	<time>2023-08-07T05:39:21.000Z</time>
</trkpt>
<trkpt lat="46.1089970" lon="10.5228690">
	<ele>2194.80</ele>
	<time>2023-08-07T05:39:22.000Z</time>
</trkpt>
<trkpt lat="46.1090000" lon="10.5228670">
	<ele>2195.00</ele>
	<time>2023-08-07T05:39:23.000Z</time>
</trkpt>
<trkpt lat="46.1090020" lon="10.5228650">
	<ele>2195.20</ele>
	<time>2023-08-07T05:39:24.000Z</time>
</trkpt>
<trkpt lat="46.1090040" lon="10.5228640">
	<ele>2195.20</ele>
	<time>2023-08-07T05:39:25.000Z</time>
</trkpt>
<trkpt lat="46.1090060" lon="10.5228640">
	<ele>2195.40</ele>
	<time>2023-08-07T05:39:26.000Z</time>
</trkpt>
<trkpt lat="46.1090070" lon="10.5228620">
	<ele>2195.60</ele>
	<time>2023-08-07T05:39:27.000Z</time>
</trkpt>
<trkpt lat="46.1090070" lon="10.5228600">
	<ele>2195.60</ele>
	<time>2023-08-07T05:39:28.000Z</time>
</trkpt>
<trkpt lat="46.1090070" lon="10.5228580">
	<ele>2195.60</ele>
	<time>2023-08-07T05:39:29.000Z</time>
</trkpt>
<trkpt lat="46.1090070" lon="10.5228550">
	<ele>2195.60</ele>
	<time>2023-08-07T05:39:30.000Z</time>
</trkpt>
<trkpt lat="46.1090070" lon="10.5228510">
	<ele>2195.60</ele>
	<time>2023-08-07T05:39:31.000Z</time>
</trkpt>
<trkpt lat="46.1090060" lon="10.5228470">
	<ele>2195.60</ele>
	<time>2023-08-07T05:39:32.000Z</time>
</trkpt>
<trkpt lat="46.1090030" lon="10.5228450">
	<ele>2195.60</ele>
	<time>2023-08-07T05:39:33.000Z</time>
</trkpt>
<trkpt lat="46.1090000" lon="10.5228410">
	<ele>2195.80</ele>
	<time>2023-08-07T05:39:34.000Z</time>
</trkpt>
<trkpt lat="46.1089960" lon="10.5228380">
	<ele>2196.00</ele>
	<time>2023-08-07T05:39:35.000Z</time>
</trkpt>
<trkpt lat="46.1089950" lon="10.5228340">
	<ele>2196.00</ele>
	<time>2023-08-07T05:39:36.000Z</time>
</trkpt>
<trkpt lat="46.1089950" lon="10.5228310">
	<ele>2196.20</ele>
	<time>2023-08-07T05:39:37.000Z</time>
</trkpt>
<trkpt lat="46.1089940" lon="10.5228270">
	<ele>2196.20</ele>
	<time>2023-08-07T05:39:38.000Z</time>
</trkpt>
<trkpt lat="46.1089920" lon="10.5228250">
	<ele>2196.20</ele>
	<time>2023-08-07T05:39:39.000Z</time>
</trkpt>
<trkpt lat="46.1089900" lon="10.5228240">
	<ele>2196.40</ele>
	<time>2023-08-07T05:39:40.000Z</time>
</trkpt>
<trkpt lat="46.1089870" lon="10.5228250">
	<ele>2196.40</ele>
	<time>2023-08-07T05:39:41.000Z</time>
</trkpt>
<trkpt lat="46.1089820" lon="10.5228250">
	<ele>2196.60</ele>
	<time>2023-08-07T05:39:42.000Z</time>
</trkpt>
<trkpt lat="46.1089760" lon="10.5228220">
	<ele>2196.60</ele>
	<time>2023-08-07T05:39:43.000Z</time>
</trkpt>
<trkpt lat="46.1089730" lon="10.5228200">
	<ele>2197.00</ele>
	<time>2023-08-07T05:39:44.000Z</time>
</trkpt>
<trkpt lat="46.1089690" lon="10.5228180">
	<ele>2197.20</ele>
	<time>2023-08-07T05:39:45.000Z</time>
</trkpt>
<trkpt lat="46.1089600" lon="10.5228140">
	<ele>2197.40</ele>
	<time>2023-08-07T05:39:46.000Z</time>
</trkpt>
<trkpt lat="46.1089560" lon="10.5228050">
	<ele>2197.60</ele>
	<time>2023-08-07T05:39:47.000Z</time>
</trkpt>
<trkpt lat="46.1089520" lon="10.5227980">
	<ele>2197.80</ele>
	<time>2023-08-07T05:39:48.000Z</time>
</trkpt>
<trkpt lat="46.1089480" lon="10.5227900">
	<ele>2198.00</ele>
	<time>2023-08-07T05:39:49.000Z</time>
</trkpt>
<trkpt lat="46.1089470" lon="10.5227800">
	<ele>2198.00</ele>
	<time>2023-08-07T05:39:50.000Z</time>
</trkpt>
<trkpt lat="46.1089490" lon="10.5227740">
	<ele>2198.00</ele>
	<time>2023-08-07T05:39:51.000Z</time>
</trkpt>
<trkpt lat="46.1089540" lon="10.5227700">
	<ele>2198.20</ele>
	<time>2023-08-07T05:39:52.000Z</time>
</trkpt>
<trkpt lat="46.1089570" lon="10.5227690">
	<ele>2198.60</ele>
	<time>2023-08-07T05:39:53.000Z</time>
</trkpt>
<trkpt lat="46.1089580" lon="10.5227700">
	<ele>2198.80</ele>
	<time>2023-08-07T05:39:54.000Z</time>
</trkpt>
<trkpt lat="46.1089600" lon="10.5227690">
	<ele>2198.80</ele>
	<time>2023-08-07T05:39:55.000Z</time>
</trkpt>
<trkpt lat="46.1089630" lon="10.5227670">
	<ele>2198.80</ele>
	<time>2023-08-07T05:39:56.000Z</time>
</trkpt>
<trkpt lat="46.1089680" lon="10.5227650">
	<ele>2198.80</ele>
	<time>2023-08-07T05:39:57.000Z</time>
</trkpt>
<trkpt lat="46.1089700" lon="10.5227610">
	<ele>2199.00</ele>
	<time>2023-08-07T05:39:58.000Z</time>
</trkpt>
<trkpt lat="46.1089760" lon="10.5227630">
	<ele>2199.00</ele>
	<time>2023-08-07T05:39:59.000Z</time>
</trkpt>
<trkpt lat="46.1089820" lon="10.5227640">
	<ele>2199.00</ele>
	<time>2023-08-07T05:40:00.000Z</time>
</trkpt>
<trkpt lat="46.1089860" lon="10.5227590">
	<ele>2199.20</ele>
	<time>2023-08-07T05:40:01.000Z</time>
</trkpt>
<trkpt lat="46.1089920" lon="10.5227560">
	<ele>2199.20</ele>
	<time>2023-08-07T05:40:02.000Z</time>
</trkpt>
<trkpt lat="46.1089970" lon="10.5227530">
	<ele>2199.40</ele>
	<time>2023-08-07T05:40:03.000Z</time>
</trkpt>
<trkpt lat="46.1090000" lon="10.5227500">
	<ele>2199.60</ele>
	<time>2023-08-07T05:40:04.000Z</time>
</trkpt>
<trkpt lat="46.1090060" lon="10.5227490">
	<ele>2199.80</ele>
	<time>2023-08-07T05:40:05.000Z</time>
</trkpt>
<trkpt lat="46.1090100" lon="10.5227480">
	<ele>2200.20</ele>
	<time>2023-08-07T05:40:06.000Z</time>
</trkpt>
<trkpt lat="46.1090120" lon="10.5227450">
	<ele>2200.40</ele>
	<time>2023-08-07T05:40:07.000Z</time>
</trkpt>
<trkpt lat="46.1090150" lon="10.5227440">
	<ele>2200.60</ele>
	<time>2023-08-07T05:40:08.000Z</time>
</trkpt>
<trkpt lat="46.1090150" lon="10.5227440">
	<ele>2200.60</ele>
	<time>2023-08-07T05:40:09.000Z</time>
</trkpt>
<trkpt lat="46.1090130" lon="10.5227440">
	<ele>2200.60</ele>
	<time>2023-08-07T05:40:10.000Z</time>
</trkpt>
<trkpt lat="46.1090100" lon="10.5227350">
	<ele>2200.80</ele>
	<time>2023-08-07T05:40:11.000Z</time>
</trkpt>
<trkpt lat="46.1090070" lon="10.5227310">
	<ele>2201.00</ele>
	<time>2023-08-07T05:40:12.000Z</time>
</trkpt>
<trkpt lat="46.1090050" lon="10.5227310">
	<ele>2201.00</ele>
	<time>2023-08-07T05:40:13.000Z</time>
</trkpt>
<trkpt lat="46.1090010" lon="10.5227320">
	<ele>2201.20</ele>
	<time>2023-08-07T05:40:14.000Z</time>
</trkpt>
<trkpt lat="46.1089970" lon="10.5227330">
	<ele>2201.20</ele>
	<time>2023-08-07T05:40:15.000Z</time>
</trkpt>
<trkpt lat="46.1089930" lon="10.5227280">
	<ele>2201.40</ele>
	<time>2023-08-07T05:40:16.000Z</time>
</trkpt>
<trkpt lat="46.1089910" lon="10.5227240">
	<ele>2201.80</ele>
	<time>2023-08-07T05:40:17.000Z</time>
</trkpt>
<trkpt lat="46.1089900" lon="10.5227230">
	<ele>2202.00</ele>
	<time>2023-08-07T05:40:18.000Z</time>
</trkpt>
<trkpt lat="46.1089890" lon="10.5227210">
	<ele>2202.20</ele>
	<time>2023-08-07T05:40:19.000Z</time>
</trkpt>
<trkpt lat="46.1089890" lon="10.5227170">
	<ele>2202.40</ele>
	<time>2023-08-07T05:40:20.000Z</time>
</trkpt>
<trkpt lat="46.1089890" lon="10.5227140">
	<ele>2202.40</ele>
	<time>2023-08-07T05:40:21.000Z</time>
</trkpt>
<trkpt lat="46.1089910" lon="10.5227110">
	<ele>2202.60</ele>
	<time>2023-08-07T05:40:22.000Z</time>
</trkpt>
<trkpt lat="46.1089880" lon="10.5227040">
	<ele>2202.80</ele>
	<time>2023-08-07T05:40:23.000Z</time>
</trkpt>
<trkpt lat="46.1089860" lon="10.5226970">
	<ele>2202.80</ele>
	<time>2023-08-07T05:40:24.000Z</time>
</trkpt>
<trkpt lat="46.1089830" lon="10.5226910">
	<ele>2203.00</ele>
	<time>2023-08-07T05:40:25.000Z</time>
</trkpt>
<trkpt lat="46.1089800" lon="10.5226870">
	<ele>2203.00</ele>
	<time>2023-08-07T05:40:26.000Z</time>
</trkpt>
<trkpt lat="46.1089790" lon="10.5226850">
	<ele>2203.00</ele>
	<time>2023-08-07T05:40:27.000Z</time>
</trkpt>
<trkpt lat="46.1089810" lon="10.5226820">
	<ele>2203.20</ele>
	<time>2023-08-07T05:40:28.000Z</time>
</trkpt>
<trkpt lat="46.1089840" lon="10.5226780">
	<ele>2203.40</ele>
	<time>2023-08-07T05:40:29.000Z</time>
</trkpt>
<trkpt lat="46.1089860" lon="10.5226750">
	<ele>2203.60</ele>
	<time>2023-08-07T05:40:30.000Z</time>
</trkpt>
<trkpt lat="46.1089870" lon="10.5226730">
	<ele>2203.80</ele>
	<time>2023-08-07T05:40:31.000Z</time>
</trkpt>
<trkpt lat="46.1089840" lon="10.5226650">
	<ele>2204.00</ele>
	<time>2023-08-07T05:40:32.000Z</time>
</trkpt>
<trkpt lat="46.1089840" lon="10.5226560">
	<ele>2204.20</ele>
	<time>2023-08-07T05:40:33.000Z</time>
</trkpt>
<trkpt lat="46.1089830" lon="10.5226450">
	<ele>2204.20</ele>
	<time>2023-08-07T05:40:34.000Z</time>
</trkpt>
<trkpt lat="46.1089880" lon="10.5226410">
	<ele>2204.40</ele>
	<time>2023-08-07T05:40:35.000Z</time>
</trkpt>
<trkpt lat="46.1089900" lon="10.5226390">
	<ele>2204.60</ele>
	<time>2023-08-07T05:40:36.000Z</time>
</trkpt>
<trkpt lat="46.1089920" lon="10.5226360">
	<ele>2204.80</ele>
	<time>2023-08-07T05:40:37.000Z</time>
</trkpt>
<trkpt lat="46.1089960" lon="10.5226330">
	<ele>2205.00</ele>
	<time>2023-08-07T05:40:38.000Z</time>
</trkpt>
<trkpt lat="46.1089990" lon="10.5226310">
	<ele>2205.20</ele>
	<time>2023-08-07T05:40:39.000Z</time>
</trkpt>
<trkpt lat="46.1090010" lon="10.5226330">
	<ele>2205.20</ele>
	<time>2023-08-07T05:40:40.000Z</time>
</trkpt>
<trkpt lat="46.1090020" lon="10.5226340">
	<ele>2205.60</ele>
	<time>2023-08-07T05:40:41.000Z</time>
</trkpt>
<trkpt lat="46.1089990" lon="10.5226310">
	<ele>2205.60</ele>
	<time>2023-08-07T05:40:42.000Z</time>
</trkpt>
<trkpt lat="46.1089980" lon="10.5226280">
	<ele>2205.80</ele>
	<time>2023-08-07T05:40:43.000Z</time>
</trkpt>
<trkpt lat="46.1089960" lon="10.5226240">
	<ele>2206.00</ele>
	<time>2023-08-07T05:40:44.000Z</time>
</trkpt>
<trkpt lat="46.1089940" lon="10.5226210">
	<ele>2206.20</ele>
	<time>2023-08-07T05:40:45.000Z</time>
</trkpt>
<trkpt lat="46.1089920" lon="10.5226200">
	<ele>2206.40</ele>
	<time>2023-08-07T05:40:46.000Z</time>
</trkpt>
<trkpt lat="46.1089900" lon="10.5226190">
	<ele>2206.40</ele>
	<time>2023-08-07T05:40:47.000Z</time>
</trkpt>
<trkpt lat="46.1089890" lon="10.5226150">
	<ele>2206.60</ele>
	<time>2023-08-07T05:40:48.000Z</time>
</trkpt>
<trkpt lat="46.1089860" lon="10.5226070">
	<ele>2206.80</ele>
	<time>2023-08-07T05:40:49.000Z</time>
</trkpt>
<trkpt lat="46.1089820" lon="10.5225960">
	<ele>2207.00</ele>
	<time>2023-08-07T05:40:50.000Z</time>
</trkpt>
<trkpt lat="46.1089810" lon="10.5225890">
	<ele>2207.20</ele>
	<time>2023-08-07T05:40:51.000Z</time>
</trkpt>
<trkpt lat="46.1089790" lon="10.5225820">
	<ele>2207.20</ele>
	<time>2023-08-07T05:40:52.000Z</time>
</trkpt>
<trkpt lat="46.1089780" lon="10.5225800">
	<ele>2207.20</ele>
	<time>2023-08-07T05:40:53.000Z</time>
</trkpt>
<trkpt lat="46.1089780" lon="10.5225770">
	<ele>2207.20</ele>
	<time>2023-08-07T05:40:54.000Z</time>
</trkpt>
<trkpt lat="46.1089800" lon="10.5225700">
	<ele>2207.20</ele>
	<time>2023-08-07T05:40:55.000Z</time>
</trkpt>
<trkpt lat="46.1089810" lon="10.5225670">
	<ele>2207.40</ele>
	<time>2023-08-07T05:40:56.000Z</time>
</trkpt>
<trkpt lat="46.1089830" lon="10.5225660">
	<ele>2207.60</ele>
	<time>2023-08-07T05:40:57.000Z</time>
</trkpt>
<trkpt lat="46.1089860" lon="10.5225650">
	<ele>2207.60</ele>
	<time>2023-08-07T05:40:58.000Z</time>
</trkpt>
<trkpt lat="46.1089870" lon="10.5225630">
	<ele>2207.80</ele>
	<time>2023-08-07T05:40:59.000Z</time>
</trkpt>
<trkpt lat="46.1089890" lon="10.5225600">
	<ele>2208.00</ele>
	<time>2023-08-07T05:41:00.000Z</time>
</trkpt>
<trkpt lat="46.1089910" lon="10.5225560">
	<ele>2208.20</ele>
	<time>2023-08-07T05:41:01.000Z</time>
</trkpt>
<trkpt lat="46.1089940" lon="10.5225540">
	<ele>2208.40</ele>
	<time>2023-08-07T05:41:02.000Z</time>
</trkpt>
<trkpt lat="46.1089960" lon="10.5225530">
	<ele>2208.80</ele>
	<time>2023-08-07T05:41:03.000Z</time>
</trkpt>
<trkpt lat="46.1089960" lon="10.5225520">
	<ele>2208.80</ele>
	<time>2023-08-07T05:41:04.000Z</time>
</trkpt>
<trkpt lat="46.1089990" lon="10.5225500">
	<ele>2209.00</ele>
	<time>2023-08-07T05:41:05.000Z</time>
</trkpt>
<trkpt lat="46.1090030" lon="10.5225490">
	<ele>2209.20</ele>
	<time>2023-08-07T05:41:06.000Z</time>
</trkpt>
<trkpt lat="46.1090060" lon="10.5225470">
	<ele>2209.20</ele>
	<time>2023-08-07T05:41:07.000Z</time>
</trkpt>
<trkpt lat="46.1090080" lon="10.5225440">
	<ele>2209.40</ele>
	<time>2023-08-07T05:41:08.000Z</time>
</trkpt>
<trkpt lat="46.1090090" lon="10.5225440">
	<ele>2209.40</ele>
	<time>2023-08-07T05:41:09.000Z</time>
</trkpt>
<trkpt lat="46.1090100" lon="10.5225420">
	<ele>2209.60</ele>
	<time>2023-08-07T05:41:10.000Z</time>
</trkpt>
<trkpt lat="46.1090150" lon="10.5225370">
	<ele>2209.60</ele>
	<time>2023-08-07T05:41:11.000Z</time>
</trkpt>
<trkpt lat="46.1090170" lon="10.5225300">
	<ele>2209.80</ele>
	<time>2023-08-07T05:41:12.000Z</time>
</trkpt>
<trkpt lat="46.1090210" lon="10.5225270">
	<ele>2209.80</ele>
	<time>2023-08-07T05:41:13.000Z</time>
</trkpt>
<trkpt lat="46.1090220" lon="10.5225260">
	<ele>2209.80</ele>
	<time>2023-08-07T05:41:14.000Z</time>
</trkpt>
<trkpt lat="46.1090180" lon="10.5225230">
	<ele>2209.80</ele>
	<time>2023-08-07T05:41:15.000Z</time>
</trkpt>
<trkpt lat="46.1090160" lon="10.5225200">
	<ele>2210.00</ele>
	<time>2023-08-07T05:41:16.000Z</time>
</trkpt>
<trkpt lat="46.1090160" lon="10.5225160">
	<ele>2210.60</ele>
	<time>2023-08-07T05:41:17.000Z</time>
</trkpt>
<trkpt lat="46.1090150" lon="10.5225130">
	<ele>2211.00</ele>
	<time>2023-08-07T05:41:18.000Z</time>
</trkpt>
<trkpt lat="46.1090160" lon="10.5225100">
	<ele>2211.20</ele>
	<time>2023-08-07T05:41:19.000Z</time>
</trkpt>
<trkpt lat="46.1090160" lon="10.5225090">
	<ele>2211.20</ele>
	<time>2023-08-07T05:41:20.000Z</time>
</trkpt>
<trkpt lat="46.1090160" lon="10.5225050">
	<ele>2211.40</ele>
	<time>2023-08-07T05:41:21.000Z</time>
</trkpt>
<trkpt lat="46.1090160" lon="10.5225040">
	<ele>2211.40</ele>
	<time>2023-08-07T05:41:22.000Z</time>
</trkpt>
<trkpt lat="46.1090170" lon="10.5225040">
	<ele>2211.40</ele>
	<time>2023-08-07T05:41:23.000Z</time>
</trkpt>
<trkpt lat="46.1090170" lon="10.5225040">
	<ele>2211.40</ele>
	<time>2023-08-07T05:41:24.000Z</time>
</trkpt>
<trkpt lat="46.1090170" lon="10.5225040">
	<ele>2211.60</ele>
	<time>2023-08-07T05:41:25.000Z</time>
</trkpt>
<trkpt lat="46.1090170" lon="10.5225040">
	<ele>2212.00</ele>
	<time>2023-08-07T05:41:26.000Z</time>
</trkpt>
<trkpt lat="46.1090170" lon="10.5225040">
	<ele>2212.00</ele>
	<time>2023-08-07T05:41:27.000Z</time>
</trkpt>
<trkpt lat="46.1090170" lon="10.5225040">
	<ele>2212.00</ele>
	<time>2023-08-07T05:41:28.000Z</time>
</trkpt>
<trkpt lat="46.1090170" lon="10.5225040">
	<ele>2212.20</ele>
	<time>2023-08-07T05:41:29.000Z</time>
</trkpt>
<trkpt lat="46.1090170" lon="10.5225040">
	<ele>2212.20</ele>
	<time>2023-08-07T05:41:30.000Z</time>
</trkpt>
<trkpt lat="46.1090170" lon="10.5225040">
	<ele>2212.20</ele>
	<time>2023-08-07T05:41:31.000Z</time>
</trkpt>
<trkpt lat="46.1090170" lon="10.5225040">
	<ele>2212.20</ele>
	<time>2023-08-07T05:41:32.000Z</time>
</trkpt>
<trkpt lat="46.1090170" lon="10.5225040">
	<ele>2212.60</ele>
	<time>2023-08-07T05:41:33.000Z</time>
</trkpt>
<trkpt lat="46.1090170" lon="10.5225040">
	<ele>2212.60</ele>
	<time>2023-08-07T05:41:34.000Z</time>
</trkpt>
<trkpt lat="46.1090170" lon="10.5225040">
	<ele>2212.80</ele>
	<time>2023-08-07T05:41:35.000Z</time>
</trkpt>
<trkpt lat="46.1090170" lon="10.5225040">
	<ele>2213.00</ele>
	<time>2023-08-07T05:41:36.000Z</time>
</trkpt>
<trkpt lat="46.1090170" lon="10.5225040">
	<ele>2213.00</ele>
	<time>2023-08-07T05:41:37.000Z</time>
</trkpt>
<trkpt lat="46.1090170" lon="10.5225040">
	<ele>2213.20</ele>
	<time>2023-08-07T05:41:38.000Z</time>
</trkpt>
<trkpt lat="46.1090170" lon="10.5225000">
	<ele>2213.20</ele>
	<time>2023-08-07T05:41:39.000Z</time>
</trkpt>
<trkpt lat="46.1090180" lon="10.5224940">
	<ele>2213.60</ele>
	<time>2023-08-07T05:41:40.000Z</time>
</trkpt>
<trkpt lat="46.1090200" lon="10.5224900">
	<ele>2213.80</ele>
	<time>2023-08-07T05:41:41.000Z</time>
</trkpt>
<trkpt lat="46.1090230" lon="10.5224870">
	<ele>2214.00</ele>
	<time>2023-08-07T05:41:42.000Z</time>
</trkpt>
<trkpt lat="46.1090270" lon="10.5224870">
	<ele>2214.00</ele>
	<time>2023-08-07T05:41:43.000Z</time>
</trkpt>
<trkpt lat="46.1090290" lon="10.5224860">
	<ele>2214.00</ele>
	<time>2023-08-07T05:41:44.000Z</time>
</trkpt>
<trkpt lat="46.1090310" lon="10.5224840">
	<ele>2214.20</ele>
	<time>2023-08-07T05:41:45.000Z</time>
</trkpt>
<trkpt lat="46.1090350" lon="10.5224790">
	<ele>2214.20</ele>
	<time>2023-08-07T05:41:46.000Z</time>
</trkpt>
<trkpt lat="46.1090370" lon="10.5224640">
	<ele>2214.40</ele>
	<time>2023-08-07T05:41:47.000Z</time>
</trkpt>
<trkpt lat="46.1090490" lon="10.5224640">
	<ele>2214.80</ele>
	<time>2023-08-07T05:41:48.000Z</time>
</trkpt>
<trkpt lat="46.1090560" lon="10.5224590">
	<ele>2215.00</ele>
	<time>2023-08-07T05:41:49.000Z</time>
</trkpt>
<trkpt lat="46.1090620" lon="10.5224520">
	<ele>2215.20</ele>
	<time>2023-08-07T05:41:50.000Z</time>
</trkpt>
<trkpt lat="46.1090660" lon="10.5224420">
	<ele>2215.20</ele>
	<time>2023-08-07T05:41:51.000Z</time>
</trkpt>
<trkpt lat="46.1090710" lon="10.5224320">
	<ele>2215.40</ele>
	<time>2023-08-07T05:41:52.000Z</time>
</trkpt>
<trkpt lat="46.1090770" lon="10.5224230">
	<ele>2215.40</ele>
	<time>2023-08-07T05:41:53.000Z</time>
</trkpt>
<trkpt lat="46.1090840" lon="10.5224180">
	<ele>2215.60</ele>
	<time>2023-08-07T05:41:54.000Z</time>
</trkpt>
<trkpt lat="46.1090860" lon="10.5224120">
	<ele>2215.80</ele>
	<time>2023-08-07T05:41:55.000Z</time>
</trkpt>
<trkpt lat="46.1090870" lon="10.5224120">
	<ele>2215.80</ele>
	<time>2023-08-07T05:41:56.000Z</time>
</trkpt>
<trkpt lat="46.1090890" lon="10.5224100">
	<ele>2216.00</ele>
	<time>2023-08-07T05:41:57.000Z</time>
</trkpt>
<trkpt lat="46.1090930" lon="10.5224100">
	<ele>2216.00</ele>
	<time>2023-08-07T05:41:58.000Z</time>
</trkpt>
<trkpt lat="46.1090970" lon="10.5224070">
	<ele>2216.20</ele>
	<time>2023-08-07T05:41:59.000Z</time>
</trkpt>
<trkpt lat="46.1091000" lon="10.5224070">
	<ele>2216.20</ele>
	<time>2023-08-07T05:42:00.000Z</time>
</trkpt>
<trkpt lat="46.1091030" lon="10.5224070">
	<ele>2216.60</ele>
	<time>2023-08-07T05:42:01.000Z</time>
</trkpt>
<trkpt lat="46.1091050" lon="10.5224060">
	<ele>2217.00</ele>
	<time>2023-08-07T05:42:02.000Z</time>
</trkpt>
<trkpt lat="46.1091080" lon="10.5224040">
	<ele>2217.00</ele>
	<time>2023-08-07T05:42:03.000Z</time>
</trkpt>
<trkpt lat="46.1091110" lon="10.5224010">
	<ele>2217.20</ele>
	<time>2023-08-07T05:42:04.000Z</time>
</trkpt>
<trkpt lat="46.1091140" lon="10.5224050">
	<ele>2217.40</ele>
	<time>2023-08-07T05:42:05.000Z</time>
</trkpt>
<trkpt lat="46.1091230" lon="10.5224170">
	<ele>2217.40</ele>
	<time>2023-08-07T05:42:06.000Z</time>
</trkpt>
<trkpt lat="46.1091300" lon="10.5224240">
	<ele>2217.60</ele>
	<time>2023-08-07T05:42:07.000Z</time>
</trkpt>
<trkpt lat="46.1091330" lon="10.5224280">
	<ele>2217.80</ele>
	<time>2023-08-07T05:42:08.000Z</time>
</trkpt>
<trkpt lat="46.1091350" lon="10.5224300">
	<ele>2218.00</ele>
	<time>2023-08-07T05:42:09.000Z</time>
</trkpt>
<trkpt lat="46.1091390" lon="10.5224300">
	<ele>2218.20</ele>
	<time>2023-08-07T05:42:10.000Z</time>
</trkpt>
<trkpt lat="46.1091410" lon="10.5224350">
	<ele>2218.40</ele>
	<time>2023-08-07T05:42:11.000Z</time>
</trkpt>
<trkpt lat="46.1091420" lon="10.5224380">
	<ele>2218.60</ele>
	<time>2023-08-07T05:42:12.000Z</time>
</trkpt>
<trkpt lat="46.1091450" lon="10.5224410">
	<ele>2218.80</ele>
	<time>2023-08-07T05:42:13.000Z</time>
</trkpt>
<trkpt lat="46.1091480" lon="10.5224420">
	<ele>2218.80</ele>
	<time>2023-08-07T05:42:14.000Z</time>
</trkpt>
<trkpt lat="46.1091520" lon="10.5224440">
	<ele>2219.00</ele>
	<time>2023-08-07T05:42:15.000Z</time>
</trkpt>
<trkpt lat="46.1091550" lon="10.5224440">
	<ele>2219.20</ele>
	<time>2023-08-07T05:42:16.000Z</time>
</trkpt>
<trkpt lat="46.1091580" lon="10.5224440">
	<ele>2219.20</ele>
	<time>2023-08-07T05:42:17.000Z</time>
</trkpt>
<trkpt lat="46.1091610" lon="10.5224450">
	<ele>2219.40</ele>
	<time>2023-08-07T05:42:18.000Z</time>
</trkpt>
<trkpt lat="46.1091650" lon="10.5224450">
	<ele>2219.40</ele>
	<time>2023-08-07T05:42:19.000Z</time>
</trkpt>
<trkpt lat="46.1091680" lon="10.5224460">
	<ele>2219.60</ele>
	<time>2023-08-07T05:42:20.000Z</time>
</trkpt>
<trkpt lat="46.1091700" lon="10.5224450">
	<ele>2219.80</ele>
	<time>2023-08-07T05:42:21.000Z</time>
</trkpt>
<trkpt lat="46.1091740" lon="10.5224400">
	<ele>2220.00</ele>
	<time>2023-08-07T05:42:22.000Z</time>
</trkpt>
<trkpt lat="46.1091790" lon="10.5224410">
	<ele>2220.40</ele>
	<time>2023-08-07T05:42:23.000Z</time>
</trkpt>
<trkpt lat="46.1091810" lon="10.5224400">
	<ele>2220.40</ele>
	<time>2023-08-07T05:42:24.000Z</time>
</trkpt>
<trkpt lat="46.1091830" lon="10.5224370">
	<ele>2220.60</ele>
	<time>2023-08-07T05:42:25.000Z</time>
</trkpt>
<trkpt lat="46.1091870" lon="10.5224340">
	<ele>2220.80</ele>
	<time>2023-08-07T05:42:26.000Z</time>
</trkpt>
<trkpt lat="46.1091910" lon="10.5224320">
	<ele>2220.80</ele>
	<time>2023-08-07T05:42:27.000Z</time>
</trkpt>
<trkpt lat="46.1091960" lon="10.5224330">
	<ele>2221.00</ele>
	<time>2023-08-07T05:42:28.000Z</time>
</trkpt>
<trkpt lat="46.1091990" lon="10.5224330">
	<ele>2221.00</ele>
	<time>2023-08-07T05:42:29.000Z</time>
</trkpt>
<trkpt lat="46.1092030" lon="10.5224340">
	<ele>2221.20</ele>
	<time>2023-08-07T05:42:30.000Z</time>
</trkpt>
<trkpt lat="46.1092060" lon="10.5224330">
	<ele>2221.20</ele>
	<time>2023-08-07T05:42:31.000Z</time>
</trkpt>
<trkpt lat="46.1092080" lon="10.5224310">
	<ele>2221.40</ele>
	<time>2023-08-07T05:42:32.000Z</time>
</trkpt>
<trkpt lat="46.1092080" lon="10.5224320">
	<ele>2221.60</ele>
	<time>2023-08-07T05:42:33.000Z</time>
</trkpt>
<trkpt lat="46.1092100" lon="10.5224340">
	<ele>2221.80</ele>
	<time>2023-08-07T05:42:34.000Z</time>
</trkpt>
<trkpt lat="46.1092130" lon="10.5224320">
	<ele>2221.80</ele>
	<time>2023-08-07T05:42:35.000Z</time>
</trkpt>
<trkpt lat="46.1092140" lon="10.5224290">
	<ele>2221.80</ele>
	<time>2023-08-07T05:42:36.000Z</time>
</trkpt>
<trkpt lat="46.1092150" lon="10.5224280">
	<ele>2222.00</ele>
	<time>2023-08-07T05:42:37.000Z</time>
</trkpt>
<trkpt lat="46.1092170" lon="10.5224280">
	<ele>2222.00</ele>
	<time>2023-08-07T05:42:38.000Z</time>
</trkpt>
<trkpt lat="46.1092190" lon="10.5224230">
	<ele>2222.20</ele>
	<time>2023-08-07T05:42:39.000Z</time>
</trkpt>
<trkpt lat="46.1092240" lon="10.5224220">
	<ele>2222.20</ele>
	<time>2023-08-07T05:42:40.000Z</time>
</trkpt>
<trkpt lat="46.1092260" lon="10.5224210">
	<ele>2222.40</ele>
	<time>2023-08-07T05:42:41.000Z</time>
</trkpt>
<trkpt lat="46.1092280" lon="10.5224230">
	<ele>2222.40</ele>
	<time>2023-08-07T05:42:42.000Z</time>
</trkpt>
<trkpt lat="46.1092300" lon="10.5224220">
	<ele>2222.60</ele>
	<time>2023-08-07T05:42:43.000Z</time>
</trkpt>
<trkpt lat="46.1092320" lon="10.5224180">
	<ele>2222.80</ele>
	<time>2023-08-07T05:42:44.000Z</time>
</trkpt>
<trkpt lat="46.1092330" lon="10.5224160">
	<ele>2223.00</ele>
	<time>2023-08-07T05:42:45.000Z</time>
</trkpt>
<trkpt lat="46.1092330" lon="10.5224160">
	<ele>2223.00</ele>
	<time>2023-08-07T05:42:46.000Z</time>
</trkpt>
<trkpt lat="46.1092330" lon="10.5224150">
	<ele>2223.00</ele>
	<time>2023-08-07T05:42:47.000Z</time>
</trkpt>
<trkpt lat="46.1092280" lon="10.5224060">
	<ele>2223.00</ele>
	<time>2023-08-07T05:42:48.000Z</time>
</trkpt>
<trkpt lat="46.1092260" lon="10.5223990">
	<ele>2223.20</ele>
	<time>2023-08-07T05:42:49.000Z</time>
</trkpt>
<trkpt lat="46.1092240" lon="10.5223940">
	<ele>2223.40</ele>
	<time>2023-08-07T05:42:50.000Z</time>
</trkpt>
<trkpt lat="46.1092230" lon="10.5223910">
	<ele>2223.80</ele>
	<time>2023-08-07T05:42:51.000Z</time>
</trkpt>
<trkpt lat="46.1092210" lon="10.5223890">
	<ele>2224.00</ele>
	<time>2023-08-07T05:42:52.000Z</time>
</trkpt>
<trkpt lat="46.1092210" lon="10.5223880">
	<ele>2224.20</ele>
	<time>2023-08-07T05:42:53.000Z</time>
</trkpt>
<trkpt lat="46.1092220" lon="10.5223850">
	<ele>2224.40</ele>
	<time>2023-08-07T05:42:54.000Z</time>
</trkpt>
<trkpt lat="46.1092200" lon="10.5223780">
	<ele>2224.40</ele>
	<time>2023-08-07T05:42:55.000Z</time>
</trkpt>
<trkpt lat="46.1092190" lon="10.5223750">
	<ele>2224.80</ele>
	<time>2023-08-07T05:42:56.000Z</time>
</trkpt>
<trkpt lat="46.1092180" lon="10.5223750">
	<ele>2224.80</ele>
	<time>2023-08-07T05:42:57.000Z</time>
</trkpt>
<trkpt lat="46.1092160" lon="10.5223730">
	<ele>2225.00</ele>
	<time>2023-08-07T05:42:58.000Z</time>
</trkpt>
<trkpt lat="46.1092130" lon="10.5223670">
	<ele>2225.00</ele>
	<time>2023-08-07T05:42:59.000Z</time>
</trkpt>
<trkpt lat="46.1092100" lon="10.5223620">
	<ele>2225.20</ele>
	<time>2023-08-07T05:43:00.000Z</time>
</trkpt>
<trkpt lat="46.1092100" lon="10.5223600">
	<ele>2225.20</ele>
	<time>2023-08-07T05:43:01.000Z</time>
</trkpt>
<trkpt lat="46.1092100" lon="10.5223580">
	<ele>2225.20</ele>
	<time>2023-08-07T05:43:02.000Z</time>
</trkpt>
<trkpt lat="46.1092120" lon="10.5223550">
	<ele>2225.40</ele>
	<time>2023-08-07T05:43:03.000Z</time>
</trkpt>
<trkpt lat="46.1092120" lon="10.5223510">
	<ele>2225.40</ele>
	<time>2023-08-07T05:43:04.000Z</time>
</trkpt>
<trkpt lat="46.1092080" lon="10.5223440">
	<ele>2225.60</ele>
	<time>2023-08-07T05:43:05.000Z</time>
</trkpt>
<trkpt lat="46.1092070" lon="10.5223360">
	<ele>2225.60</ele>
	<time>2023-08-07T05:43:06.000Z</time>
</trkpt>
<trkpt lat="46.1092040" lon="10.5223290">
	<ele>2225.80</ele>
	<time>2023-08-07T05:43:07.000Z</time>
</trkpt>
<trkpt lat="46.1092030" lon="10.5223240">
	<ele>2225.80</ele>
	<time>2023-08-07T05:43:08.000Z</time>
</trkpt>
<trkpt lat="46.1092020" lon="10.5223190">
	<ele>2226.00</ele>
	<time>2023-08-07T05:43:09.000Z</time>
</trkpt>
<trkpt lat="46.1092010" lon="10.5223170">
	<ele>2226.40</ele>
	<time>2023-08-07T05:43:10.000Z</time>
</trkpt>
<trkpt lat="46.1091990" lon="10.5223120">
	<ele>2226.40</ele>
	<time>2023-08-07T05:43:11.000Z</time>
</trkpt>
<trkpt lat="46.1091950" lon="10.5223050">
	<ele>2226.60</ele>
	<time>2023-08-07T05:43:12.000Z</time>
</trkpt>
<trkpt lat="46.1091930" lon="10.5223000">
	<ele>2226.60</ele>
	<time>2023-08-07T05:43:13.000Z</time>
</trkpt>
<trkpt lat="46.1091890" lon="10.5222920">
	<ele>2226.60</ele>
	<time>2023-08-07T05:43:14.000Z</time>
</trkpt>
<trkpt lat="46.1091900" lon="10.5222820">
	<ele>2226.80</ele>
	<time>2023-08-07T05:43:15.000Z</time>
</trkpt>
<trkpt lat="46.1091880" lon="10.5222750">
	<ele>2227.00</ele>
	<time>2023-08-07T05:43:16.000Z</time>
</trkpt>
<trkpt lat="46.1091900" lon="10.5222720">
	<ele>2227.20</ele>
	<time>2023-08-07T05:43:17.000Z</time>
</trkpt>
<trkpt lat="46.1091910" lon="10.5222700">
	<ele>2227.20</ele>
	<time>2023-08-07T05:43:18.000Z</time>
</trkpt>
<trkpt lat="46.1091920" lon="10.5222700">
	<ele>2227.40</ele>
	<time>2023-08-07T05:43:19.000Z</time>
</trkpt>
<trkpt lat="46.1091950" lon="10.5222700">
	<ele>2227.60</ele>
	<time>2023-08-07T05:43:20.000Z</time>
</trkpt>
<trkpt lat="46.1091960" lon="10.5222660">
	<ele>2227.80</ele>
	<time>2023-08-07T05:43:21.000Z</time>
</trkpt>
<trkpt lat="46.1091960" lon="10.5222620">
	<ele>2227.80</ele>
	<time>2023-08-07T05:43:22.000Z</time>
</trkpt>
<trkpt lat="46.1091930" lon="10.5222570">
	<ele>2228.00</ele>
	<time>2023-08-07T05:43:23.000Z</time>
</trkpt>
<trkpt lat="46.1091950" lon="10.5222550">
	<ele>2228.20</ele>
	<time>2023-08-07T05:43:24.000Z</time>
</trkpt>
<trkpt lat="46.1091980" lon="10.5222530">
	<ele>2228.20</ele>
	<time>2023-08-07T05:43:25.000Z</time>
</trkpt>
<trkpt lat="46.1091970" lon="10.5222520">
	<ele>2228.20</ele>
	<time>2023-08-07T05:43:26.000Z</time>
</trkpt>
<trkpt lat="46.1091940" lon="10.5222460">
	<ele>2228.40</ele>
	<time>2023-08-07T05:43:27.000Z</time>
</trkpt>
<trkpt lat="46.1091920" lon="10.5222450">
	<ele>2228.40</ele>
	<time>2023-08-07T05:43:28.000Z</time>
</trkpt>
<trkpt lat="46.1091890" lon="10.5222430">
	<ele>2228.60</ele>
	<time>2023-08-07T05:43:29.000Z</time>
</trkpt>
<trkpt lat="46.1091860" lon="10.5222410">
	<ele>2228.80</ele>
	<time>2023-08-07T05:43:30.000Z</time>
</trkpt>
<trkpt lat="46.1091860" lon="10.5222400">
	<ele>2228.80</ele>
	<time>2023-08-07T05:43:31.000Z</time>
</trkpt>
<trkpt lat="46.1091860" lon="10.5222400">
	<ele>2229.00</ele>
	<time>2023-08-07T05:43:32.000Z</time>
</trkpt>
<trkpt lat="46.1091860" lon="10.5222400">
	<ele>2229.20</ele>
	<time>2023-08-07T05:43:33.000Z</time>
</trkpt>
<trkpt lat="46.1091860" lon="10.5222400">
	<ele>2229.20</ele>
	<time>2023-08-07T05:43:34.000Z</time>
</trkpt>
<trkpt lat="46.1091860" lon="10.5222400">
	<ele>2229.20</ele>
	<time>2023-08-07T05:43:35.000Z</time>
</trkpt>
<trkpt lat="46.1091860" lon="10.5222400">
	<ele>2229.40</ele>
	<time>2023-08-07T05:43:36.000Z</time>
</trkpt>
<trkpt lat="46.1091860" lon="10.5222400">
	<ele>2229.40</ele>
	<time>2023-08-07T05:43:37.000Z</time>
</trkpt>
<trkpt lat="46.1091860" lon="10.5222400">
	<ele>2229.20</ele>
	<time>2023-08-07T05:43:38.000Z</time>
</trkpt>
<trkpt lat="46.1091860" lon="10.5222410">
	<ele>2229.40</ele>
	<time>2023-08-07T05:43:39.000Z</time>
</trkpt>
<trkpt lat="46.1091890" lon="10.5222430">
	<ele>2229.40</ele>
	<time>2023-08-07T05:43:40.000Z</time>
</trkpt>
<trkpt lat="46.1091890" lon="10.5222430">
	<ele>2229.40</ele>
	<time>2023-08-07T05:43:41.000Z</time>
</trkpt>
<trkpt lat="46.1091920" lon="10.5222440">
	<ele>2229.40</ele>
	<time>2023-08-07T05:43:42.000Z</time>
</trkpt>
<trkpt lat="46.1091930" lon="10.5222450">
	<ele>2229.40</ele>
	<time>2023-08-07T05:43:43.000Z</time>
</trkpt>
<trkpt lat="46.1091940" lon="10.5222460">
	<ele>2229.40</ele>
	<time>2023-08-07T05:43:44.000Z</time>
</trkpt>
<trkpt lat="46.1091940" lon="10.5222460">
	<ele>2229.40</ele>
	<time>2023-08-07T05:43:45.000Z</time>
</trkpt>
<trkpt lat="46.1091950" lon="10.5222460">
	<ele>2229.40</ele>
	<time>2023-08-07T05:43:46.000Z</time>
</trkpt>
<trkpt lat="46.1091970" lon="10.5222500">
	<ele>2229.60</ele>
	<time>2023-08-07T05:43:47.000Z</time>
</trkpt>
<trkpt lat="46.1091980" lon="10.5222510">
	<ele>2229.80</ele>
	<time>2023-08-07T05:43:48.000Z</time>
</trkpt>
<trkpt lat="46.1091980" lon="10.5222520">
	<ele>2229.80</ele>
	<time>2023-08-07T05:43:49.000Z</time>
</trkpt>
<trkpt lat="46.1091990" lon="10.5222520">
	<ele>2229.80</ele>
	<time>2023-08-07T05:43:50.000Z</time>
</trkpt>
<trkpt lat="46.1092080" lon="10.5222530">
	<ele>2229.80</ele>
	<time>2023-08-07T05:43:51.000Z</time>
</trkpt>
<trkpt lat="46.1092120" lon="10.5222540">
	<ele>2229.80</ele>
	<time>2023-08-07T05:43:52.000Z</time>
</trkpt>
<trkpt lat="46.1092140" lon="10.5222540">
	<ele>2229.80</ele>
	<time>2023-08-07T05:43:53.000Z</time>
</trkpt>
<trkpt lat="46.1092140" lon="10.5222540">
	<ele>2229.80</ele>
	<time>2023-08-07T05:43:54.000Z</time>
</trkpt>
<trkpt lat="46.1092150" lon="10.5222540">
	<ele>2229.80</ele>
	<time>2023-08-07T05:43:55.000Z</time>
</trkpt>
<trkpt lat="46.1092160" lon="10.5222570">
	<ele>2229.80</ele>
	<time>2023-08-07T05:43:56.000Z</time>
</trkpt>
<trkpt lat="46.1092160" lon="10.5222590">
	<ele>2229.60</ele>
	<time>2023-08-07T05:43:57.000Z</time>
</trkpt>
<trkpt lat="46.1092170" lon="10.5222610">
	<ele>2229.60</ele>
	<time>2023-08-07T05:43:58.000Z</time>
</trkpt>
<trkpt lat="46.1092170" lon="10.5222610">
	<ele>2229.60</ele>
	<time>2023-08-07T05:43:59.000Z</time>
</trkpt>
<trkpt lat="46.1092190" lon="10.5222650">
	<ele>2229.60</ele>
	<time>2023-08-07T05:44:00.000Z</time>
</trkpt>
<trkpt lat="46.1092200" lon="10.5222670">
	<ele>2229.60</ele>
	<time>2023-08-07T05:44:01.000Z</time>
</trkpt>
<trkpt lat="46.1092200" lon="10.5222670">
	<ele>2229.60</ele>
	<time>2023-08-07T05:44:02.000Z</time>
</trkpt>
<trkpt lat="46.1092210" lon="10.5222680">
	<ele>2229.60</ele>
	<time>2023-08-07T05:44:03.000Z</time>
</trkpt>
<trkpt lat="46.1092220" lon="10.5222680">
	<ele>2229.60</ele>
	<time>2023-08-07T05:44:04.000Z</time>
</trkpt>
<trkpt lat="46.1092230" lon="10.5222680">
	<ele>2229.60</ele>
	<time>2023-08-07T05:44:05.000Z</time>
</trkpt>
<trkpt lat="46.1092230" lon="10.5222680">
	<ele>2229.60</ele>
	<time>2023-08-07T05:44:06.000Z</time>
</trkpt>
<trkpt lat="46.1092230" lon="10.5222680">
	<ele>2229.80</ele>
	<time>2023-08-07T05:44:07.000Z</time>
</trkpt>
<trkpt lat="46.1092230" lon="10.5222680">
	<ele>2229.80</ele>
	<time>2023-08-07T05:44:08.000Z</time>
</trkpt>
<trkpt lat="46.1092230" lon="10.5222690">
	<ele>2229.60</ele>
	<time>2023-08-07T05:44:09.000Z</time>
</trkpt>
<trkpt lat="46.1092230" lon="10.5222700">
	<ele>2229.40</ele>
	<time>2023-08-07T05:44:10.000Z</time>
</trkpt>
<trkpt lat="46.1092230" lon="10.5222710">
	<ele>2229.40</ele>
	<time>2023-08-07T05:44:11.000Z</time>
</trkpt>
<trkpt lat="46.1092230" lon="10.5222710">
	<ele>2229.40</ele>
	<time>2023-08-07T05:44:12.000Z</time>
</trkpt>
<trkpt lat="46.1092230" lon="10.5222710">
	<ele>2229.40</ele>
	<time>2023-08-07T05:44:13.000Z</time>
</trkpt>
<trkpt lat="46.1092230" lon="10.5222710">
	<ele>2229.60</ele>
	<time>2023-08-07T05:44:14.000Z</time>
</trkpt>
<trkpt lat="46.1092230" lon="10.5222710">
	<ele>2229.60</ele>
	<time>2023-08-07T05:44:15.000Z</time>
</trkpt>
<trkpt lat="46.1092230" lon="10.5222710">
	<ele>2229.60</ele>
	<time>2023-08-07T05:44:16.000Z</time>
</trkpt>
<trkpt lat="46.1092230" lon="10.5222710">
	<ele>2229.60</ele>
	<time>2023-08-07T05:44:17.000Z</time>
</trkpt>
<trkpt lat="46.1092230" lon="10.5222710">
	<ele>2229.60</ele>
	<time>2023-08-07T05:44:18.000Z</time>
</trkpt>
<trkpt lat="46.1092230" lon="10.5222710">
	<ele>2229.60</ele>
	<time>2023-08-07T05:44:19.000Z</time>
</trkpt>
<trkpt lat="46.1092230" lon="10.5222720">
	<ele>2229.60</ele>
	<time>2023-08-07T05:44:20.000Z</time>
</trkpt>
<trkpt lat="46.1092230" lon="10.5222720">
	<ele>2229.60</ele>
	<time>2023-08-07T05:44:21.000Z</time>
</trkpt>
<trkpt lat="46.1092230" lon="10.5222720">
	<ele>2229.60</ele>
	<time>2023-08-07T05:44:22.000Z</time>
</trkpt>
<trkpt lat="46.1092230" lon="10.5222730">
	<ele>2229.60</ele>
	<time>2023-08-07T05:44:23.000Z</time>
</trkpt>
<trkpt lat="46.1092230" lon="10.5222730">
	<ele>2229.60</ele>
	<time>2023-08-07T05:44:24.000Z</time>
</trkpt>
<trkpt lat="46.1092230" lon="10.5222730">
	<ele>2229.60</ele>
	<time>2023-08-07T05:44:25.000Z</time>
</trkpt>
<trkpt lat="46.1092230" lon="10.5222740">
	<ele>2229.60</ele>
	<time>2023-08-07T05:44:26.000Z</time>
</trkpt>
<trkpt lat="46.1092230" lon="10.5222740">
	<ele>2229.60</ele>
	<time>2023-08-07T05:44:27.000Z</time>
</trkpt>
<trkpt lat="46.1092230" lon="10.5222740">
	<ele>2229.60</ele>
	<time>2023-08-07T05:44:28.000Z</time>
</trkpt>
<trkpt lat="46.1092230" lon="10.5222740">
	<ele>2229.60</ele>
	<time>2023-08-07T05:44:29.000Z</time>
</trkpt>
<trkpt lat="46.1092230" lon="10.5222740">
	<ele>2229.60</ele>
	<time>2023-08-07T05:44:30.000Z</time>
</trkpt>
<trkpt lat="46.1092220" lon="10.5222740">
	<ele>2229.60</ele>
	<time>2023-08-07T05:44:31.000Z</time>
</trkpt>
<trkpt lat="46.1092200" lon="10.5222730">
	<ele>2229.80</ele>
	<time>2023-08-07T05:44:32.000Z</time>
</trkpt>
<trkpt lat="46.1092180" lon="10.5222730">
	<ele>2229.80</ele>
	<time>2023-08-07T05:44:33.000Z</time>
</trkpt>
<trkpt lat="46.1092180" lon="10.5222730">
	<ele>2229.80</ele>
	<time>2023-08-07T05:44:34.000Z</time>
</trkpt>
<trkpt lat="46.1092180" lon="10.5222740">
	<ele>2229.80</ele>
	<time>2023-08-07T05:44:35.000Z</time>
</trkpt>
<trkpt lat="46.1092180" lon="10.5222740">
	<ele>2229.80</ele>
	<time>2023-08-07T05:44:36.000Z</time>
</trkpt>
<trkpt lat="46.1092170" lon="10.5222740">
	<ele>2229.80</ele>
	<time>2023-08-07T05:44:37.000Z</time>
</trkpt>
<trkpt lat="46.1092170" lon="10.5222740">
	<ele>2230.00</ele>
	<time>2023-08-07T05:44:38.000Z</time>
</trkpt>
<trkpt lat="46.1092170" lon="10.5222740">
	<ele>2230.00</ele>
	<time>2023-08-07T05:44:39.000Z</time>
</trkpt>
<trkpt lat="46.1092160" lon="10.5222740">
	<ele>2230.00</ele>
	<time>2023-08-07T05:44:40.000Z</time>
</trkpt>
<trkpt lat="46.1092160" lon="10.5222740">
	<ele>2230.00</ele>
	<time>2023-08-07T05:44:41.000Z</time>
</trkpt>
<trkpt lat="46.1092160" lon="10.5222740">
	<ele>2229.60</ele>
	<time>2023-08-07T05:44:42.000Z</time>
</trkpt>
<trkpt lat="46.1092160" lon="10.5222740">
	<ele>2229.60</ele>
	<time>2023-08-07T05:44:43.000Z</time>
</trkpt>
<trkpt lat="46.1092150" lon="10.5222740">
	<ele>2229.40</ele>
	<time>2023-08-07T05:44:44.000Z</time>
</trkpt>
<trkpt lat="46.1092150" lon="10.5222740">
	<ele>2229.40</ele>
	<time>2023-08-07T05:44:45.000Z</time>
</trkpt>
<trkpt lat="46.1092140" lon="10.5222740">
	<ele>2229.40</ele>
	<time>2023-08-07T05:44:46.000Z</time>
</trkpt>
<trkpt lat="46.1092130" lon="10.5222740">
	<ele>2229.40</ele>
	<time>2023-08-07T05:44:47.000Z</time>
</trkpt>
<trkpt lat="46.1092130" lon="10.5222740">
	<ele>2229.40</ele>
	<time>2023-08-07T05:44:48.000Z</time>
</trkpt>
<trkpt lat="46.1092120" lon="10.5222740">
	<ele>2229.60</ele>
	<time>2023-08-07T05:44:49.000Z</time>
</trkpt>
<trkpt lat="46.1092120" lon="10.5222740">
	<ele>2229.60</ele>
	<time>2023-08-07T05:44:50.000Z</time>
</trkpt>
<trkpt lat="46.1092120" lon="10.5222740">
	<ele>2229.60</ele>
	<time>2023-08-07T05:44:51.000Z</time>
</trkpt>
<trkpt lat="46.1092120" lon="10.5222740">
	<ele>2229.60</ele>
	<time>2023-08-07T05:44:52.000Z</time>
</trkpt>
<trkpt lat="46.1092120" lon="10.5222740">
	<ele>2229.80</ele>
	<time>2023-08-07T05:44:53.000Z</time>
</trkpt>
<trkpt lat="46.1092110" lon="10.5222740">
	<ele>2229.80</ele>
	<time>2023-08-07T05:44:54.000Z</time>
</trkpt>
<trkpt lat="46.1092110" lon="10.5222740">
	<ele>2229.80</ele>
	<time>2023-08-07T05:44:55.000Z</time>
</trkpt>
<trkpt lat="46.1092110" lon="10.5222730">
	<ele>2229.80</ele>
	<time>2023-08-07T05:44:56.000Z</time>
</trkpt>
<trkpt lat="46.1092110" lon="10.5222730">
	<ele>2229.80</ele>
	<time>2023-08-07T05:44:57.000Z</time>
</trkpt>
<trkpt lat="46.1092100" lon="10.5222730">
	<ele>2229.80</ele>
	<time>2023-08-07T05:44:58.000Z</time>
</trkpt>
<trkpt lat="46.1092100" lon="10.5222730">
	<ele>2229.60</ele>
	<time>2023-08-07T05:44:59.000Z</time>
</trkpt>
<trkpt lat="46.1092100" lon="10.5222730">
	<ele>2229.60</ele>
	<time>2023-08-07T05:45:00.000Z</time>
</trkpt>
<trkpt lat="46.1092100" lon="10.5222740">
	<ele>2229.40</ele>
	<time>2023-08-07T05:45:01.000Z</time>
</trkpt>
<trkpt lat="46.1092090" lon="10.5222770">
	<ele>2229.20</ele>
	<time>2023-08-07T05:45:02.000Z</time>
</trkpt>
<trkpt lat="46.1092090" lon="10.5222800">
	<ele>2229.20</ele>
	<time>2023-08-07T05:45:03.000Z</time>
</trkpt>
<trkpt lat="46.1092090" lon="10.5222820">
	<ele>2229.20</ele>
	<time>2023-08-07T05:45:04.000Z</time>
</trkpt>
<trkpt lat="46.1092090" lon="10.5222850">
	<ele>2229.60</ele>
	<time>2023-08-07T05:45:05.000Z</time>
</trkpt>
<trkpt lat="46.1092090" lon="10.5222860">
	<ele>2229.60</ele>
	<time>2023-08-07T05:45:06.000Z</time>
</trkpt>
<trkpt lat="46.1092090" lon="10.5222860">
	<ele>2229.60</ele>
	<time>2023-08-07T05:45:07.000Z</time>
</trkpt>
<trkpt lat="46.1092090" lon="10.5222860">
	<ele>2229.60</ele>
	<time>2023-08-07T05:45:08.000Z</time>
</trkpt>
<trkpt lat="46.1092090" lon="10.5222860">
	<ele>2229.60</ele>
	<time>2023-08-07T05:45:09.000Z</time>
</trkpt>
<trkpt lat="46.1092090" lon="10.5222860">
	<ele>2229.60</ele>
	<time>2023-08-07T05:45:10.000Z</time>
</trkpt>
<trkpt lat="46.1092090" lon="10.5222860">
	<ele>2229.60</ele>
	<time>2023-08-07T05:45:11.000Z</time>
</trkpt>
<trkpt lat="46.1092090" lon="10.5222860">
	<ele>2229.60</ele>
	<time>2023-08-07T05:45:12.000Z</time>
</trkpt>
<trkpt lat="46.1092090" lon="10.5222860">
	<ele>2229.60</ele>
	<time>2023-08-07T05:45:13.000Z</time>
</trkpt>
<trkpt lat="46.1092090" lon="10.5222860">
	<ele>2229.60</ele>
	<time>2023-08-07T05:45:14.000Z</time>
</trkpt>
<trkpt lat="46.1092090" lon="10.5222860">
	<ele>2229.60</ele>
	<time>2023-08-07T05:45:15.000Z</time>
</trkpt>
<trkpt lat="46.1092090" lon="10.5222860">
	<ele>2229.60</ele>
	<time>2023-08-07T05:45:16.000Z</time>
</trkpt>
<trkpt lat="46.1092090" lon="10.5222860">
	<ele>2229.60</ele>
	<time>2023-08-07T05:45:17.000Z</time>
</trkpt>
<trkpt lat="46.1092090" lon="10.5222860">
	<ele>2229.60</ele>
	<time>2023-08-07T05:45:18.000Z</time>
</trkpt>
<trkpt lat="46.1092090" lon="10.5222860">
	<ele>2229.60</ele>
	<time>2023-08-07T05:45:19.000Z</time>
</trkpt>
<trkpt lat="46.1092090" lon="10.5222860">
	<ele>2229.60</ele>
	<time>2023-08-07T05:45:20.000Z</time>
</trkpt>
<trkpt lat="46.1092090" lon="10.5222860">
	<ele>2229.60</ele>
	<time>2023-08-07T05:45:21.000Z</time>
</trkpt>
<trkpt lat="46.1092090" lon="10.5222860">
	<ele>2229.60</ele>
	<time>2023-08-07T05:45:22.000Z</time>
</trkpt>
<trkpt lat="46.1092090" lon="10.5222860">
	<ele>2229.60</ele>
	<time>2023-08-07T05:45:23.000Z</time>
</trkpt>
<trkpt lat="46.1092090" lon="10.5222850">
	<ele>2229.60</ele>
	<time>2023-08-07T05:45:24.000Z</time>
</trkpt>
<trkpt lat="46.1092100" lon="10.5222850">
	<ele>2229.60</ele>
	<time>2023-08-07T05:45:25.000Z</time>
</trkpt>
<trkpt lat="46.1092100" lon="10.5222830">
	<ele>2229.60</ele>
	<time>2023-08-07T05:45:26.000Z</time>
</trkpt>
<trkpt lat="46.1092100" lon="10.5222800">
	<ele>2229.60</ele>
	<time>2023-08-07T05:45:27.000Z</time>
</trkpt>
<trkpt lat="46.1092100" lon="10.5222800">
	<ele>2229.60</ele>
	<time>2023-08-07T05:45:28.000Z</time>
</trkpt>
<trkpt lat="46.1092100" lon="10.5222800">
	<ele>2229.60</ele>
	<time>2023-08-07T05:45:29.000Z</time>
</trkpt>
<trkpt lat="46.1092100" lon="10.5222800">
	<ele>2229.60</ele>
	<time>2023-08-07T05:45:30.000Z</time>
</trkpt>
<trkpt lat="46.1092100" lon="10.5222770">
	<ele>2229.60</ele>
	<time>2023-08-07T05:45:31.000Z</time>
</trkpt>
<trkpt lat="46.1092100" lon="10.5222750">
	<ele>2229.60</ele>
	<time>2023-08-07T05:45:32.000Z</time>
</trkpt>
<trkpt lat="46.1092100" lon="10.5222740">
	<ele>2229.60</ele>
	<time>2023-08-07T05:45:33.000Z</time>
</trkpt>
<trkpt lat="46.1092090" lon="10.5222740">
	<ele>2229.60</ele>
	<time>2023-08-07T05:45:34.000Z</time>
</trkpt>
<trkpt lat="46.1092090" lon="10.5222730">
	<ele>2229.60</ele>
	<time>2023-08-07T05:45:35.000Z</time>
</trkpt>
<trkpt lat="46.1092090" lon="10.5222720">
	<ele>2229.60</ele>
	<time>2023-08-07T05:45:36.000Z</time>
</trkpt>
<trkpt lat="46.1092090" lon="10.5222720">
	<ele>2229.60</ele>
	<time>2023-08-07T05:45:37.000Z</time>
</trkpt>
<trkpt lat="46.1092080" lon="10.5222710">
	<ele>2229.60</ele>
	<time>2023-08-07T05:45:38.000Z</time>
</trkpt>
<trkpt lat="46.1092080" lon="10.5222700">
	<ele>2229.60</ele>
	<time>2023-08-07T05:45:39.000Z</time>
</trkpt>
<trkpt lat="46.1092070" lon="10.5222700">
	<ele>2229.60</ele>
	<time>2023-08-07T05:45:40.000Z</time>
</trkpt>
<trkpt lat="46.1092070" lon="10.5222690">
	<ele>2229.60</ele>
	<time>2023-08-07T05:45:41.000Z</time>
</trkpt>
<trkpt lat="46.1092070" lon="10.5222680">
	<ele>2229.60</ele>
	<time>2023-08-07T05:45:42.000Z</time>
</trkpt>
<trkpt lat="46.1092060" lon="10.5222680">
	<ele>2229.60</ele>
	<time>2023-08-07T05:45:43.000Z</time>
</trkpt>
<trkpt lat="46.1092060" lon="10.5222680">
	<ele>2229.60</ele>
	<time>2023-08-07T05:45:44.000Z</time>
</trkpt>
<trkpt lat="46.1092060" lon="10.5222680">
	<ele>2229.60</ele>
	<time>2023-08-07T05:45:45.000Z</time>
</trkpt>
<trkpt lat="46.1092060" lon="10.5222680">
	<ele>2229.60</ele>
	<time>2023-08-07T05:45:46.000Z</time>
</trkpt>
<trkpt lat="46.1092050" lon="10.5222670">
	<ele>2229.60</ele>
	<time>2023-08-07T05:45:47.000Z</time>
</trkpt>
<trkpt lat="46.1092050" lon="10.5222660">
	<ele>2229.60</ele>
	<time>2023-08-07T05:45:48.000Z</time>
</trkpt>
<trkpt lat="46.1092030" lon="10.5222590">
	<ele>2229.60</ele>
	<time>2023-08-07T05:45:49.000Z</time>
</trkpt>
<trkpt lat="46.1092030" lon="10.5222550">
	<ele>2229.60</ele>
	<time>2023-08-07T05:45:50.000Z</time>
</trkpt>
<trkpt lat="46.1092010" lon="10.5222520">
	<ele>2229.60</ele>
	<time>2023-08-07T05:45:51.000Z</time>
</trkpt>
<trkpt lat="46.1092010" lon="10.5222500">
	<ele>2229.60</ele>
	<time>2023-08-07T05:45:52.000Z</time>
</trkpt>
<trkpt lat="46.1091990" lon="10.5222480">
	<ele>2229.60</ele>
	<time>2023-08-07T05:45:53.000Z</time>
</trkpt>
<trkpt lat="46.1091990" lon="10.5222450">
	<ele>2229.60</ele>
	<time>2023-08-07T05:45:54.000Z</time>
</trkpt>
<trkpt lat="46.1091990" lon="10.5222420">
	<ele>2229.60</ele>
	<time>2023-08-07T05:45:55.000Z</time>
</trkpt>
<trkpt lat="46.1091990" lon="10.5222380">
	<ele>2229.60</ele>
	<time>2023-08-07T05:45:56.000Z</time>
</trkpt>
<trkpt lat="46.1091990" lon="10.5222340">
	<ele>2229.60</ele>
	<time>2023-08-07T05:45:57.000Z</time>
</trkpt>
<trkpt lat="46.1091990" lon="10.5222290">
	<ele>2229.60</ele>
	<time>2023-08-07T05:45:58.000Z</time>
</trkpt>
<trkpt lat="46.1091990" lon="10.5222240">
	<ele>2229.60</ele>
	<time>2023-08-07T05:45:59.000Z</time>
</trkpt>
<trkpt lat="46.1091990" lon="10.5222200">
	<ele>2229.60</ele>
	<time>2023-08-07T05:46:00.000Z</time>
</trkpt>
<trkpt lat="46.1091990" lon="10.5222120">
	<ele>2229.60</ele>
	<time>2023-08-07T05:46:01.000Z</time>
</trkpt>
<trkpt lat="46.1091990" lon="10.5222020">
	<ele>2229.60</ele>
	<time>2023-08-07T05:46:02.000Z</time>
</trkpt>
<trkpt lat="46.1091990" lon="10.5221950">
	<ele>2229.60</ele>
	<time>2023-08-07T05:46:03.000Z</time>
</trkpt>
<trkpt lat="46.1091990" lon="10.5221900">
	<ele>2229.60</ele>
	<time>2023-08-07T05:46:04.000Z</time>
</trkpt>
<trkpt lat="46.1091990" lon="10.5221850">
	<ele>2229.60</ele>
	<time>2023-08-07T05:46:05.000Z</time>
</trkpt>
<trkpt lat="46.1091990" lon="10.5221780">
	<ele>2233.20</ele>
	<time>2023-08-07T05:46:06.000Z</time>
</trkpt>
<trkpt lat="46.1091990" lon="10.5221740">
	<ele>2233.20</ele>
	<time>2023-08-07T05:46:07.000Z</time>
</trkpt>
<trkpt lat="46.1091990" lon="10.5221710">
	<ele>2233.20</ele>
	<time>2023-08-07T05:46:08.000Z</time>
</trkpt>
<trkpt lat="46.1092000" lon="10.5221680">
	<ele>2233.20</ele>
	<time>2023-08-07T05:46:09.000Z</time>
</trkpt>
<trkpt lat="46.1092020" lon="10.5221620">
	<ele>2233.40</ele>
	<time>2023-08-07T05:46:10.000Z</time>
</trkpt>
<trkpt lat="46.1092030" lon="10.5221570">
	<ele>2233.60</ele>
	<time>2023-08-07T05:46:11.000Z</time>
</trkpt>
<trkpt lat="46.1092030" lon="10.5221540">
	<ele>2233.80</ele>
	<time>2023-08-07T05:46:12.000Z</time>
</trkpt>
<trkpt lat="46.1092030" lon="10.5221520">
	<ele>2233.80</ele>
	<time>2023-08-07T05:46:13.000Z</time>
</trkpt>
<trkpt lat="46.1092030" lon="10.5221480">
	<ele>2234.00</ele>
	<time>2023-08-07T05:46:14.000Z</time>
</trkpt>
<trkpt lat="46.1092030" lon="10.5221440">
	<ele>2234.20</ele>
	<time>2023-08-07T05:46:15.000Z</time>
</trkpt>
<trkpt lat="46.1092030" lon="10.5221400">
	<ele>2234.20</ele>
	<time>2023-08-07T05:46:16.000Z</time>
</trkpt>
<trkpt lat="46.1092040" lon="10.5221350">
	<ele>2234.20</ele>
	<time>2023-08-07T05:46:17.000Z</time>
</trkpt>
<trkpt lat="46.1092040" lon="10.5221320">
	<ele>2234.40</ele>
	<time>2023-08-07T05:46:18.000Z</time>
</trkpt>
<trkpt lat="46.1092050" lon="10.5221290">
	<ele>2234.40</ele>
	<time>2023-08-07T05:46:19.000Z</time>
</trkpt>
<trkpt lat="46.1092050" lon="10.5221250">
	<ele>2234.60</ele>
	<time>2023-08-07T05:46:20.000Z</time>
</trkpt>
<trkpt lat="46.1092060" lon="10.5221210">
	<ele>2234.60</ele>
	<time>2023-08-07T05:46:21.000Z</time>
</trkpt>
<trkpt lat="46.1092060" lon="10.5221180">
	<ele>2234.80</ele>
	<time>2023-08-07T05:46:22.000Z</time>
</trkpt>
<trkpt lat="46.1092060" lon="10.5221160">
	<ele>2235.00</ele>
	<time>2023-08-07T05:46:23.000Z</time>
</trkpt>
<trkpt lat="46.1092060" lon="10.5221150">
	<ele>2235.20</ele>
	<time>2023-08-07T05:46:24.000Z</time>
</trkpt>
<trkpt lat="46.1092060" lon="10.5221120">
	<ele>2235.20</ele>
	<time>2023-08-07T05:46:25.000Z</time>
</trkpt>
<trkpt lat="46.1092060" lon="10.5221060">
	<ele>2235.40</ele>
	<time>2023-08-07T05:46:26.000Z</time>
</trkpt>
<trkpt lat="46.1092060" lon="10.5221020">
	<ele>2235.80</ele>
	<time>2023-08-07T05:46:27.000Z</time>
</trkpt>
<trkpt lat="46.1092060" lon="10.5220970">
	<ele>2236.00</ele>
	<time>2023-08-07T05:46:28.000Z</time>
</trkpt>
<trkpt lat="46.1092070" lon="10.5220900">
	<ele>2236.20</ele>
	<time>2023-08-07T05:46:29.000Z</time>
</trkpt>
<trkpt lat="46.1092070" lon="10.5220870">
	<ele>2236.20</ele>
	<time>2023-08-07T05:46:30.000Z</time>
</trkpt>
<trkpt lat="46.1092080" lon="10.5220850">
	<ele>2236.40</ele>
	<time>2023-08-07T05:46:31.000Z</time>
</trkpt>
<trkpt lat="46.1092100" lon="10.5220840">
	<ele>2236.40</ele>
	<time>2023-08-07T05:46:32.000Z</time>
</trkpt>
<trkpt lat="46.1092140" lon="10.5220840">
	<ele>2236.40</ele>
	<time>2023-08-07T05:46:33.000Z</time>
</trkpt>
<trkpt lat="46.1092180" lon="10.5220830">
	<ele>2236.40</ele>
	<time>2023-08-07T05:46:34.000Z</time>
</trkpt>
<trkpt lat="46.1092220" lon="10.5220820">
	<ele>2236.60</ele>
	<time>2023-08-07T05:46:35.000Z</time>
</trkpt>
<trkpt lat="46.1092250" lon="10.5220810">
	<ele>2236.60</ele>
	<time>2023-08-07T05:46:36.000Z</time>
</trkpt>
<trkpt lat="46.1092270" lon="10.5220810">
	<ele>2236.80</ele>
	<time>2023-08-07T05:46:37.000Z</time>
</trkpt>
<trkpt lat="46.1092290" lon="10.5220800">
	<ele>2237.00</ele>
	<time>2023-08-07T05:46:38.000Z</time>
</trkpt>
<trkpt lat="46.1092300" lon="10.5220800">
	<ele>2237.00</ele>
	<time>2023-08-07T05:46:39.000Z</time>
</trkpt>
<trkpt lat="46.1092310" lon="10.5220790">
	<ele>2237.20</ele>
	<time>2023-08-07T05:46:40.000Z</time>
</trkpt>
<trkpt lat="46.1092340" lon="10.5220790">
	<ele>2237.40</ele>
	<time>2023-08-07T05:46:41.000Z</time>
</trkpt>
<trkpt lat="46.1092350" lon="10.5220780">
	<ele>2237.60</ele>
	<time>2023-08-07T05:46:42.000Z</time>
</trkpt>
<trkpt lat="46.1092380" lon="10.5220770">
	<ele>2237.80</ele>
	<time>2023-08-07T05:46:43.000Z</time>
</trkpt>
<trkpt lat="46.1092400" lon="10.5220770">
	<ele>2237.80</ele>
	<time>2023-08-07T05:46:44.000Z</time>
</trkpt>
<trkpt lat="46.1092420" lon="10.5220770">
	<ele>2238.00</ele>
	<time>2023-08-07T05:46:45.000Z</time>
</trkpt>
<trkpt lat="46.1092440" lon="10.5220760">
	<ele>2238.00</ele>
	<time>2023-08-07T05:46:46.000Z</time>
</trkpt>
<trkpt lat="46.1092460" lon="10.5220760">
	<ele>2238.20</ele>
	<time>2023-08-07T05:46:47.000Z</time>
</trkpt>
<trkpt lat="46.1092480" lon="10.5220750">
	<ele>2238.40</ele>
	<time>2023-08-07T05:46:48.000Z</time>
</trkpt>
<trkpt lat="46.1092500" lon="10.5220750">
	<ele>2238.60</ele>
	<time>2023-08-07T05:46:49.000Z</time>
</trkpt>
<trkpt lat="46.1092530" lon="10.5220720">
	<ele>2238.60</ele>
	<time>2023-08-07T05:46:50.000Z</time>
</trkpt>
<trkpt lat="46.1092550" lon="10.5220690">
	<ele>2238.60</ele>
	<time>2023-08-07T05:46:51.000Z</time>
</trkpt>
<trkpt lat="46.1092590" lon="10.5220650">
	<ele>2238.80</ele>
	<time>2023-08-07T05:46:52.000Z</time>
</trkpt>
<trkpt lat="46.1092620" lon="10.5220630">
	<ele>2238.80</ele>
	<time>2023-08-07T05:46:53.000Z</time>
</trkpt>
<trkpt lat="46.1092650" lon="10.5220630">
	<ele>2239.00</ele>
	<time>2023-08-07T05:46:54.000Z</time>
</trkpt>
<trkpt lat="46.1092680" lon="10.5220620">
	<ele>2239.20</ele>
	<time>2023-08-07T05:46:55.000Z</time>
</trkpt>
<trkpt lat="46.1092700" lon="10.5220620">
	<ele>2239.40</ele>
	<time>2023-08-07T05:46:56.000Z</time>
</trkpt>
<trkpt lat="46.1092740" lon="10.5220620">
	<ele>2239.40</ele>
	<time>2023-08-07T05:46:57.000Z</time>
</trkpt>
<trkpt lat="46.1092830" lon="10.5220640">
	<ele>2239.60</ele>
	<time>2023-08-07T05:46:58.000Z</time>
</trkpt>
<trkpt lat="46.1092920" lon="10.5220650">
	<ele>2239.60</ele>
	<time>2023-08-07T05:46:59.000Z</time>
</trkpt>
<trkpt lat="46.1093010" lon="10.5220670">
	<ele>2240.00</ele>
	<time>2023-08-07T05:47:00.000Z</time>
</trkpt>
<trkpt lat="46.1093060" lon="10.5220660">
	<ele>2240.20</ele>
	<time>2023-08-07T05:47:01.000Z</time>
</trkpt>
<trkpt lat="46.1093100" lon="10.5220660">
	<ele>2240.20</ele>
	<time>2023-08-07T05:47:02.000Z</time>
</trkpt>
<trkpt lat="46.1093130" lon="10.5220640">
	<ele>2240.40</ele>
	<time>2023-08-07T05:47:03.000Z</time>
</trkpt>
<trkpt lat="46.1093160" lon="10.5220640">
	<ele>2240.40</ele>
	<time>2023-08-07T05:47:04.000Z</time>
</trkpt>
<trkpt lat="46.1093210" lon="10.5220650">
	<ele>2240.60</ele>
	<time>2023-08-07T05:47:05.000Z</time>
</trkpt>
<trkpt lat="46.1093270" lon="10.5220640">
	<ele>2240.80</ele>
	<time>2023-08-07T05:47:06.000Z</time>
</trkpt>
<trkpt lat="46.1093330" lon="10.5220650">
	<ele>2240.80</ele>
	<time>2023-08-07T05:47:07.000Z</time>
</trkpt>
<trkpt lat="46.1093360" lon="10.5220650">
	<ele>2241.00</ele>
	<time>2023-08-07T05:47:08.000Z</time>
</trkpt>
<trkpt lat="46.1093370" lon="10.5220620">
	<ele>2241.20</ele>
	<time>2023-08-07T05:47:09.000Z</time>
</trkpt>
<trkpt lat="46.1093390" lon="10.5220600">
	<ele>2241.40</ele>
	<time>2023-08-07T05:47:10.000Z</time>
</trkpt>
<trkpt lat="46.1093400" lon="10.5220590">
	<ele>2241.60</ele>
	<time>2023-08-07T05:47:11.000Z</time>
</trkpt>
<trkpt lat="46.1093390" lon="10.5220620">
	<ele>2241.60</ele>
	<time>2023-08-07T05:47:12.000Z</time>
</trkpt>
<trkpt lat="46.1093390" lon="10.5220590">
	<ele>2241.80</ele>
	<time>2023-08-07T05:47:13.000Z</time>
</trkpt>
<trkpt lat="46.1093380" lon="10.5220560">
	<ele>2241.80</ele>
	<time>2023-08-07T05:47:14.000Z</time>
</trkpt>
<trkpt lat="46.1093370" lon="10.5220550">
	<ele>2242.00</ele>
	<time>2023-08-07T05:47:15.000Z</time>
</trkpt>
<trkpt lat="46.1093350" lon="10.5220550">
	<ele>2242.20</ele>
	<time>2023-08-07T05:47:16.000Z</time>
</trkpt>
<trkpt lat="46.1093340" lon="10.5220510">
	<ele>2242.40</ele>
	<time>2023-08-07T05:47:17.000Z</time>
</trkpt>
<trkpt lat="46.1093330" lon="10.5220440">
	<ele>2242.60</ele>
	<time>2023-08-07T05:47:18.000Z</time>
</trkpt>
<trkpt lat="46.1093340" lon="10.5220390">
	<ele>2242.80</ele>
	<time>2023-08-07T05:47:19.000Z</time>
</trkpt>
<trkpt lat="46.1093340" lon="10.5220350">
	<ele>2242.80</ele>
	<time>2023-08-07T05:47:20.000Z</time>
</trkpt>
<trkpt lat="46.1093360" lon="10.5220330">
	<ele>2242.80</ele>
	<time>2023-08-07T05:47:21.000Z</time>
</trkpt>
<trkpt lat="46.1093360" lon="10.5220290">
	<ele>2243.00</ele>
	<time>2023-08-07T05:47:22.000Z</time>
</trkpt>
<trkpt lat="46.1093350" lon="10.5220240">
	<ele>2243.20</ele>
	<time>2023-08-07T05:47:23.000Z</time>
</trkpt>
<trkpt lat="46.1093360" lon="10.5220230">
	<ele>2243.20</ele>
	<time>2023-08-07T05:47:24.000Z</time>
</trkpt>
<trkpt lat="46.1093350" lon="10.5220200">
	<ele>2243.40</ele>
	<time>2023-08-07T05:47:25.000Z</time>
</trkpt>
<trkpt lat="46.1093350" lon="10.5220120">
	<ele>2243.40</ele>
	<time>2023-08-07T05:47:26.000Z</time>
</trkpt>
<trkpt lat="46.1093350" lon="10.5220070">
	<ele>2243.60</ele>
	<time>2023-08-07T05:47:27.000Z</time>
</trkpt>
<trkpt lat="46.1093370" lon="10.5220020">
	<ele>2243.80</ele>
	<time>2023-08-07T05:47:28.000Z</time>
</trkpt>
<trkpt lat="46.1093350" lon="10.5219940">
	<ele>2244.00</ele>
	<time>2023-08-07T05:47:29.000Z</time>
</trkpt>
<trkpt lat="46.1093340" lon="10.5219900">
	<ele>2244.00</ele>
	<time>2023-08-07T05:47:30.000Z</time>
</trkpt>
<trkpt lat="46.1093340" lon="10.5219870">
	<ele>2244.20</ele>
	<time>2023-08-07T05:47:31.000Z</time>
</trkpt>
<trkpt lat="46.1093340" lon="10.5219830">
	<ele>2244.20</ele>
	<time>2023-08-07T05:47:32.000Z</time>
</trkpt>
<trkpt lat="46.1093330" lon="10.5219750">
	<ele>2244.40</ele>
	<time>2023-08-07T05:47:33.000Z</time>
</trkpt>
<trkpt lat="46.1093320" lon="10.5219700">
	<ele>2244.60</ele>
	<time>2023-08-07T05:47:34.000Z</time>
</trkpt>
<trkpt lat="46.1093320" lon="10.5219680">
	<ele>2244.60</ele>
	<time>2023-08-07T05:47:35.000Z</time>
</trkpt>
<trkpt lat="46.1093320" lon="10.5219680">
	<ele>2244.60</ele>
	<time>2023-08-07T05:47:36.000Z</time>
</trkpt>
<trkpt lat="46.1093320" lon="10.5219680">
	<ele>2244.80</ele>
	<time>2023-08-07T05:47:37.000Z</time>
</trkpt>
<trkpt lat="46.1093320" lon="10.5219680">
	<ele>2244.80</ele>
	<time>2023-08-07T05:47:38.000Z</time>
</trkpt>
<trkpt lat="46.1093320" lon="10.5219680">
	<ele>2245.00</ele>
	<time>2023-08-07T05:47:39.000Z</time>
</trkpt>
<trkpt lat="46.1093320" lon="10.5219680">
	<ele>2245.00</ele>
	<time>2023-08-07T05:47:40.000Z</time>
</trkpt>
<trkpt lat="46.1093320" lon="10.5219680">
	<ele>2245.20</ele>
	<time>2023-08-07T05:47:41.000Z</time>
</trkpt>
<trkpt lat="46.1093320" lon="10.5219680">
	<ele>2245.40</ele>
	<time>2023-08-07T05:47:42.000Z</time>
</trkpt>
<trkpt lat="46.1093320" lon="10.5219680">
	<ele>2245.40</ele>
	<time>2023-08-07T05:47:43.000Z</time>
</trkpt>
<trkpt lat="46.1093330" lon="10.5219680">
	<ele>2245.40</ele>
	<time>2023-08-07T05:47:44.000Z</time>
</trkpt>
<trkpt lat="46.1093330" lon="10.5219680">
	<ele>2245.40</ele>
	<time>2023-08-07T05:47:45.000Z</time>
</trkpt>
<trkpt lat="46.1093340" lon="10.5219680">
	<ele>2245.60</ele>
	<time>2023-08-07T05:47:46.000Z</time>
</trkpt>
<trkpt lat="46.1093340" lon="10.5219680">
	<ele>2245.60</ele>
	<time>2023-08-07T05:47:47.000Z</time>
</trkpt>
<trkpt lat="46.1093340" lon="10.5219680">
	<ele>2245.80</ele>
	<time>2023-08-07T05:47:48.000Z</time>
</trkpt>
<trkpt lat="46.1093350" lon="10.5219680">
	<ele>2245.80</ele>
	<time>2023-08-07T05:47:49.000Z</time>
</trkpt>
<trkpt lat="46.1093350" lon="10.5219680">
	<ele>2246.20</ele>
	<time>2023-08-07T05:47:50.000Z</time>
</trkpt>
<trkpt lat="46.1093370" lon="10.5219680">
	<ele>2246.20</ele>
	<time>2023-08-07T05:47:51.000Z</time>
</trkpt>
<trkpt lat="46.1093370" lon="10.5219660">
	<ele>2246.40</ele>
	<time>2023-08-07T05:47:52.000Z</time>
</trkpt>
<trkpt lat="46.1093390" lon="10.5219630">
	<ele>2246.60</ele>
	<time>2023-08-07T05:47:53.000Z</time>
</trkpt>
<trkpt lat="46.1093410" lon="10.5219630">
	<ele>2246.80</ele>
	<time>2023-08-07T05:47:54.000Z</time>
</trkpt>
<trkpt lat="46.1093420" lon="10.5219630">
	<ele>2247.00</ele>
	<time>2023-08-07T05:47:55.000Z</time>
</trkpt>
<trkpt lat="46.1093420" lon="10.5219620">
	<ele>2247.20</ele>
	<time>2023-08-07T05:47:56.000Z</time>
</trkpt>
<trkpt lat="46.1093420" lon="10.5219610">
	<ele>2247.40</ele>
	<time>2023-08-07T05:47:57.000Z</time>
</trkpt>
<trkpt lat="46.1093470" lon="10.5219550">
	<ele>2247.40</ele>
	<time>2023-08-07T05:47:58.000Z</time>
</trkpt>
<trkpt lat="46.1093520" lon="10.5219500">
	<ele>2247.60</ele>
	<time>2023-08-07T05:47:59.000Z</time>
</trkpt>
<trkpt lat="46.1093590" lon="10.5219490">
	<ele>2247.60</ele>
	<time>2023-08-07T05:48:00.000Z</time>
</trkpt>
<trkpt lat="46.1093660" lon="10.5219490">
	<ele>2247.60</ele>
	<time>2023-08-07T05:48:01.000Z</time>
</trkpt>
<trkpt lat="46.1093690" lon="10.5219480">
	<ele>2248.00</ele>
	<time>2023-08-07T05:48:02.000Z</time>
</trkpt>
<trkpt lat="46.1093700" lon="10.5219480">
	<ele>2248.20</ele>
	<time>2023-08-07T05:48:03.000Z</time>
</trkpt>
<trkpt lat="46.1093720" lon="10.5219470">
	<ele>2248.40</ele>
	<time>2023-08-07T05:48:04.000Z</time>
</trkpt>
<trkpt lat="46.1093760" lon="10.5219470">
	<ele>2248.60</ele>
	<time>2023-08-07T05:48:05.000Z</time>
</trkpt>
<trkpt lat="46.1093800" lon="10.5219460">
	<ele>2248.80</ele>
	<time>2023-08-07T05:48:06.000Z</time>
</trkpt>
<trkpt lat="46.1093830" lon="10.5219450">
	<ele>2249.20</ele>
	<time>2023-08-07T05:48:07.000Z</time>
</trkpt>
<trkpt lat="46.1093840" lon="10.5219450">
	<ele>2249.20</ele>
	<time>2023-08-07T05:48:08.000Z</time>
</trkpt>
<trkpt lat="46.1093860" lon="10.5219450">
	<ele>2249.20</ele>
	<time>2023-08-07T05:48:09.000Z</time>
</trkpt>
<trkpt lat="46.1093870" lon="10.5219440">
	<ele>2249.40</ele>
	<time>2023-08-07T05:48:10.000Z</time>
</trkpt>
<trkpt lat="46.1093870" lon="10.5219410">
	<ele>2249.40</ele>
	<time>2023-08-07T05:48:11.000Z</time>
</trkpt>
<trkpt lat="46.1093880" lon="10.5219360">
	<ele>2249.40</ele>
	<time>2023-08-07T05:48:12.000Z</time>
</trkpt>
<trkpt lat="46.1093890" lon="10.5219330">
	<ele>2249.40</ele>
	<time>2023-08-07T05:48:13.000Z</time>
</trkpt>
<trkpt lat="46.1093890" lon="10.5219310">
	<ele>2249.40</ele>
	<time>2023-08-07T05:48:14.000Z</time>
</trkpt>
<trkpt lat="46.1093900" lon="10.5219290">
	<ele>2249.60</ele>
	<time>2023-08-07T05:48:15.000Z</time>
</trkpt>
<trkpt lat="46.1093900" lon="10.5219260">
	<ele>2249.60</ele>
	<time>2023-08-07T05:48:16.000Z</time>
</trkpt>
<trkpt lat="46.1093900" lon="10.5219220">
	<ele>2249.80</ele>
	<time>2023-08-07T05:48:17.000Z</time>
</trkpt>
<trkpt lat="46.1093900" lon="10.5219160">
	<ele>2250.00</ele>
	<time>2023-08-07T05:48:18.000Z</time>
</trkpt>
<trkpt lat="46.1093900" lon="10.5219120">
	<ele>2250.20</ele>
	<time>2023-08-07T05:48:19.000Z</time>
</trkpt>
<trkpt lat="46.1093910" lon="10.5219100">
	<ele>2250.40</ele>
	<time>2023-08-07T05:48:20.000Z</time>
</trkpt>
<trkpt lat="46.1093910" lon="10.5219080">
	<ele>2250.40</ele>
	<time>2023-08-07T05:48:21.000Z</time>
</trkpt>
<trkpt lat="46.1093910" lon="10.5219070">
	<ele>2250.40</ele>
	<time>2023-08-07T05:48:22.000Z</time>
</trkpt>
<trkpt lat="46.1093920" lon="10.5219060">
	<ele>2250.60</ele>
	<time>2023-08-07T05:48:23.000Z</time>
</trkpt>
<trkpt lat="46.1093920" lon="10.5219050">
	<ele>2250.60</ele>
	<time>2023-08-07T05:48:24.000Z</time>
</trkpt>
<trkpt lat="46.1093920" lon="10.5219030">
	<ele>2250.80</ele>
	<time>2023-08-07T05:48:25.000Z</time>
</trkpt>
<trkpt lat="46.1093920" lon="10.5219010">
	<ele>2251.00</ele>
	<time>2023-08-07T05:48:26.000Z</time>
</trkpt>
<trkpt lat="46.1093930" lon="10.5219000">
	<ele>2251.20</ele>
	<time>2023-08-07T05:48:27.000Z</time>
</trkpt>
<trkpt lat="46.1093930" lon="10.5218980">
	<ele>2251.20</ele>
	<time>2023-08-07T05:48:28.000Z</time>
</trkpt>
<trkpt lat="46.1093930" lon="10.5218930">
	<ele>2251.60</ele>
	<time>2023-08-07T05:48:29.000Z</time>
</trkpt>
<trkpt lat="46.1093940" lon="10.5218920">
	<ele>2251.80</ele>
	<time>2023-08-07T05:48:30.000Z</time>
</trkpt>
<trkpt lat="46.1093950" lon="10.5218870">
	<ele>2252.00</ele>
	<time>2023-08-07T05:48:31.000Z</time>
</trkpt>
<trkpt lat="46.1093960" lon="10.5218850">
	<ele>2252.20</ele>
	<time>2023-08-07T05:48:32.000Z</time>
</trkpt>
<trkpt lat="46.1094000" lon="10.5218840">
	<ele>2252.40</ele>
	<time>2023-08-07T05:48:33.000Z</time>
</trkpt>
<trkpt lat="46.1094030" lon="10.5218840">
	<ele>2252.40</ele>
	<time>2023-08-07T05:48:34.000Z</time>
</trkpt>
<trkpt lat="46.1094050" lon="10.5218840">
	<ele>2252.40</ele>
	<time>2023-08-07T05:48:35.000Z</time>
</trkpt>
<trkpt lat="46.1094070" lon="10.5218830">
	<ele>2252.40</ele>
	<time>2023-08-07T05:48:36.000Z</time>
</trkpt>
<trkpt lat="46.1094080" lon="10.5218820">
	<ele>2252.60</ele>
	<time>2023-08-07T05:48:37.000Z</time>
</trkpt>
<trkpt lat="46.1094090" lon="10.5218820">
	<ele>2252.60</ele>
	<time>2023-08-07T05:48:38.000Z</time>
</trkpt>
<trkpt lat="46.1094110" lon="10.5218820">
	<ele>2252.80</ele>
	<time>2023-08-07T05:48:39.000Z</time>
</trkpt>
<trkpt lat="46.1094130" lon="10.5218820">
	<ele>2252.80</ele>
	<time>2023-08-07T05:48:40.000Z</time>
</trkpt>
<trkpt lat="46.1094150" lon="10.5218810">
	<ele>2253.00</ele>
	<time>2023-08-07T05:48:41.000Z</time>
</trkpt>
<trkpt lat="46.1094200" lon="10.5218810">
	<ele>2253.00</ele>
	<time>2023-08-07T05:48:42.000Z</time>
</trkpt>
<trkpt lat="46.1094260" lon="10.5218810">
	<ele>2253.00</ele>
	<time>2023-08-07T05:48:43.000Z</time>
</trkpt>
<trkpt lat="46.1094300" lon="10.5218810">
	<ele>2253.40</ele>
	<time>2023-08-07T05:48:44.000Z</time>
</trkpt>
<trkpt lat="46.1094310" lon="10.5218810">
	<ele>2253.40</ele>
	<time>2023-08-07T05:48:45.000Z</time>
</trkpt>
<trkpt lat="46.1094330" lon="10.5218810">
	<ele>2253.60</ele>
	<time>2023-08-07T05:48:46.000Z</time>
</trkpt>
<trkpt lat="46.1094360" lon="10.5218820">
	<ele>2253.60</ele>
	<time>2023-08-07T05:48:47.000Z</time>
</trkpt>
<trkpt lat="46.1094390" lon="10.5218820">
	<ele>2253.80</ele>
	<time>2023-08-07T05:48:48.000Z</time>
</trkpt>
<trkpt lat="46.1094420" lon="10.5218820">
	<ele>2253.80</ele>
	<time>2023-08-07T05:48:49.000Z</time>
</trkpt>
<trkpt lat="46.1094450" lon="10.5218830">
	<ele>2253.80</ele>
	<time>2023-08-07T05:48:50.000Z</time>
</trkpt>
<trkpt lat="46.1094460" lon="10.5218830">
	<ele>2254.00</ele>
	<time>2023-08-07T05:48:51.000Z</time>
</trkpt>
<trkpt lat="46.1094470" lon="10.5218830">
	<ele>2254.00</ele>
	<time>2023-08-07T05:48:52.000Z</time>
</trkpt>
<trkpt lat="46.1094490" lon="10.5218830">
	<ele>2254.20</ele>
	<time>2023-08-07T05:48:53.000Z</time>
</trkpt>
<trkpt lat="46.1094530" lon="10.5218830">
	<ele>2254.40</ele>
	<time>2023-08-07T05:48:54.000Z</time>
</trkpt>
<trkpt lat="46.1094570" lon="10.5218830">
	<ele>2254.60</ele>
	<time>2023-08-07T05:48:55.000Z</time>
</trkpt>
<trkpt lat="46.1094580" lon="10.5218830">
	<ele>2254.60</ele>
	<time>2023-08-07T05:48:56.000Z</time>
</trkpt>
<trkpt lat="46.1094600" lon="10.5218830">
	<ele>2254.80</ele>
	<time>2023-08-07T05:48:57.000Z</time>
</trkpt>
<trkpt lat="46.1094620" lon="10.5218830">
	<ele>2255.00</ele>
	<time>2023-08-07T05:48:58.000Z</time>
</trkpt>
<trkpt lat="46.1094630" lon="10.5218830">
	<ele>2255.20</ele>
	<time>2023-08-07T05:48:59.000Z</time>
</trkpt>
<trkpt lat="46.1094650" lon="10.5218820">
	<ele>2255.20</ele>
	<time>2023-08-07T05:49:00.000Z</time>
</trkpt>
<trkpt lat="46.1094660" lon="10.5218820">
	<ele>2255.20</ele>
	<time>2023-08-07T05:49:01.000Z</time>
</trkpt>
<trkpt lat="46.1094680" lon="10.5218820">
	<ele>2255.40</ele>
	<time>2023-08-07T05:49:02.000Z</time>
</trkpt>
<trkpt lat="46.1094710" lon="10.5218820">
	<ele>2255.40</ele>
	<time>2023-08-07T05:49:03.000Z</time>
</trkpt>
<trkpt lat="46.1094730" lon="10.5218820">
	<ele>2255.60</ele>
	<time>2023-08-07T05:49:04.000Z</time>
</trkpt>
<trkpt lat="46.1094760" lon="10.5218820">
	<ele>2255.60</ele>
	<time>2023-08-07T05:49:05.000Z</time>
</trkpt>
<trkpt lat="46.1094760" lon="10.5218750">
	<ele>2255.60</ele>
	<time>2023-08-07T05:49:06.000Z</time>
</trkpt>
<trkpt lat="46.1094760" lon="10.5218640">
	<ele>2255.80</ele>
	<time>2023-08-07T05:49:07.000Z</time>
</trkpt>
<trkpt lat="46.1094740" lon="10.5218580">
	<ele>2256.00</ele>
	<time>2023-08-07T05:49:08.000Z</time>
</trkpt>
<trkpt lat="46.1094720" lon="10.5218510">
	<ele>2256.40</ele>
	<time>2023-08-07T05:49:09.000Z</time>
</trkpt>
<trkpt lat="46.1094720" lon="10.5218400">
	<ele>2256.40</ele>
	<time>2023-08-07T05:49:10.000Z</time>
</trkpt>
<trkpt lat="46.1094740" lon="10.5218300">
	<ele>2256.60</ele>
	<time>2023-08-07T05:49:11.000Z</time>
</trkpt>
<trkpt lat="46.1094750" lon="10.5218200">
	<ele>2256.80</ele>
	<time>2023-08-07T05:49:12.000Z</time>
</trkpt>
<trkpt lat="46.1094750" lon="10.5218100">
	<ele>2256.80</ele>
	<time>2023-08-07T05:49:13.000Z</time>
</trkpt>
<trkpt lat="46.1094750" lon="10.5218000">
	<ele>2256.80</ele>
	<time>2023-08-07T05:49:14.000Z</time>
</trkpt>
<trkpt lat="46.1094740" lon="10.5217910">
	<ele>2257.00</ele>
	<time>2023-08-07T05:49:15.000Z</time>
</trkpt>
<trkpt lat="46.1094740" lon="10.5217890">
	<ele>2257.00</ele>
	<time>2023-08-07T05:49:16.000Z</time>
</trkpt>
<trkpt lat="46.1094750" lon="10.5217830">
	<ele>2257.00</ele>
	<time>2023-08-07T05:49:17.000Z</time>
</trkpt>
<trkpt lat="46.1094730" lon="10.5217740">
	<ele>2257.00</ele>
	<time>2023-08-07T05:49:18.000Z</time>
</trkpt>
<trkpt lat="46.1094710" lon="10.5217650">
	<ele>2257.20</ele>
	<time>2023-08-07T05:49:19.000Z</time>
</trkpt>
<trkpt lat="46.1094700" lon="10.5217590">
	<ele>2257.40</ele>
	<time>2023-08-07T05:49:20.000Z</time>
</trkpt>
<trkpt lat="46.1094690" lon="10.5217570">
	<ele>2257.40</ele>
	<time>2023-08-07T05:49:21.000Z</time>
</trkpt>
<trkpt lat="46.1094680" lon="10.5217530">
	<ele>2257.60</ele>
	<time>2023-08-07T05:49:22.000Z</time>
</trkpt>
<trkpt lat="46.1094650" lon="10.5217500">
	<ele>2257.60</ele>
	<time>2023-08-07T05:49:23.000Z</time>
</trkpt>
<trkpt lat="46.1094640" lon="10.5217430">
	<ele>2257.80</ele>
	<time>2023-08-07T05:49:24.000Z</time>
</trkpt>
<trkpt lat="46.1094650" lon="10.5217360">
	<ele>2257.80</ele>
	<time>2023-08-07T05:49:25.000Z</time>
</trkpt>
<trkpt lat="46.1094640" lon="10.5217310">
	<ele>2258.00</ele>
	<time>2023-08-07T05:49:26.000Z</time>
</trkpt>
<trkpt lat="46.1094630" lon="10.5217240">
	<ele>2258.00</ele>
	<time>2023-08-07T05:49:27.000Z</time>
</trkpt>
<trkpt lat="46.1094680" lon="10.5217230">
	<ele>2258.20</ele>
	<time>2023-08-07T05:49:28.000Z</time>
</trkpt>
<trkpt lat="46.1094710" lon="10.5217210">
	<ele>2258.40</ele>
	<time>2023-08-07T05:49:29.000Z</time>
</trkpt>
<trkpt lat="46.1094740" lon="10.5217120">
	<ele>2258.40</ele>
	<time>2023-08-07T05:49:30.000Z</time>
</trkpt>
<trkpt lat="46.1094770" lon="10.5217110">
	<ele>2258.40</ele>
	<time>2023-08-07T05:49:31.000Z</time>
</trkpt>
<trkpt lat="46.1094810" lon="10.5217110">
	<ele>2258.80</ele>
	<time>2023-08-07T05:49:32.000Z</time>
</trkpt>
<trkpt lat="46.1094830" lon="10.5217070">
	<ele>2259.00</ele>
	<time>2023-08-07T05:49:33.000Z</time>
</trkpt>
<trkpt lat="46.1094840" lon="10.5217100">
	<ele>2259.20</ele>
	<time>2023-08-07T05:49:34.000Z</time>
</trkpt>
<trkpt lat="46.1094860" lon="10.5217100">
	<ele>2259.20</ele>
	<time>2023-08-07T05:49:35.000Z</time>
</trkpt>
<trkpt lat="46.1094870" lon="10.5217090">
	<ele>2259.40</ele>
	<time>2023-08-07T05:49:36.000Z</time>
</trkpt>
<trkpt lat="46.1094880" lon="10.5217080">
	<ele>2259.40</ele>
	<time>2023-08-07T05:49:37.000Z</time>
</trkpt>
<trkpt lat="46.1094870" lon="10.5217030">
	<ele>2259.40</ele>
	<time>2023-08-07T05:49:38.000Z</time>
</trkpt>
<trkpt lat="46.1094900" lon="10.5217040">
	<ele>2259.60</ele>
	<time>2023-08-07T05:49:39.000Z</time>
</trkpt>
<trkpt lat="46.1094910" lon="10.5217070">
	<ele>2259.80</ele>
	<time>2023-08-07T05:49:40.000Z</time>
</trkpt>
<trkpt lat="46.1094940" lon="10.5217080">
	<ele>2260.00</ele>
	<time>2023-08-07T05:49:41.000Z</time>
</trkpt>
<trkpt lat="46.1094990" lon="10.5217090">
	<ele>2260.20</ele>
	<time>2023-08-07T05:49:42.000Z</time>
</trkpt>
<trkpt lat="46.1095030" lon="10.5217140">
	<ele>2260.40</ele>
	<time>2023-08-07T05:49:43.000Z</time>
</trkpt>
<trkpt lat="46.1095080" lon="10.5217190">
	<ele>2260.60</ele>
	<time>2023-08-07T05:49:44.000Z</time>
</trkpt>
<trkpt lat="46.1095100" lon="10.5217210">
	<ele>2260.80</ele>
	<time>2023-08-07T05:49:45.000Z</time>
</trkpt>
<trkpt lat="46.1095130" lon="10.5217260">
	<ele>2261.00</ele>
	<time>2023-08-07T05:49:46.000Z</time>
</trkpt>
<trkpt lat="46.1095190" lon="10.5217300">
	<ele>2261.00</ele>
	<time>2023-08-07T05:49:47.000Z</time>
</trkpt>
<trkpt lat="46.1095240" lon="10.5217320">
	<ele>2261.00</ele>
	<time>2023-08-07T05:49:48.000Z</time>
</trkpt>
<trkpt lat="46.1095290" lon="10.5217350">
	<ele>2261.00</ele>
	<time>2023-08-07T05:49:49.000Z</time>
</trkpt>
<trkpt lat="46.1095350" lon="10.5217410">
	<ele>2261.00</ele>
	<time>2023-08-07T05:49:50.000Z</time>
</trkpt>
<trkpt lat="46.1095410" lon="10.5217420">
	<ele>2261.20</ele>
	<time>2023-08-07T05:49:51.000Z</time>
</trkpt>
<trkpt lat="46.1095450" lon="10.5217440">
	<ele>2261.40</ele>
	<time>2023-08-07T05:49:52.000Z</time>
</trkpt>
<trkpt lat="46.1095510" lon="10.5217460">
	<ele>2261.40</ele>
	<time>2023-08-07T05:49:53.000Z</time>
</trkpt>
<trkpt lat="46.1095530" lon="10.5217490">
	<ele>2261.60</ele>
	<time>2023-08-07T05:49:54.000Z</time>
</trkpt>
<trkpt lat="46.1095570" lon="10.5217530">
	<ele>2261.60</ele>
	<time>2023-08-07T05:49:55.000Z</time>
</trkpt>
<trkpt lat="46.1095620" lon="10.5217550">
	<ele>2261.80</ele>
	<time>2023-08-07T05:49:56.000Z</time>
</trkpt>
<trkpt lat="46.1095660" lon="10.5217550">
	<ele>2261.80</ele>
	<time>2023-08-07T05:49:57.000Z</time>
</trkpt>
<trkpt lat="46.1095710" lon="10.5217540">
	<ele>2262.00</ele>
	<time>2023-08-07T05:49:58.000Z</time>
</trkpt>
<trkpt lat="46.1095740" lon="10.5217540">
	<ele>2262.20</ele>
	<time>2023-08-07T05:49:59.000Z</time>
</trkpt>
<trkpt lat="46.1095770" lon="10.5217540">
	<ele>2262.40</ele>
	<time>2023-08-07T05:50:00.000Z</time>
</trkpt>
<trkpt lat="46.1095750" lon="10.5217520">
	<ele>2262.60</ele>
	<time>2023-08-07T05:50:01.000Z</time>
</trkpt>
<trkpt lat="46.1095740" lon="10.5217470">
	<ele>2262.60</ele>
	<time>2023-08-07T05:50:02.000Z</time>
</trkpt>
<trkpt lat="46.1095730" lon="10.5217440">
	<ele>2262.80</ele>
	<time>2023-08-07T05:50:03.000Z</time>
</trkpt>
<trkpt lat="46.1095720" lon="10.5217410">
	<ele>2262.80</ele>
	<time>2023-08-07T05:50:04.000Z</time>
</trkpt>
<trkpt lat="46.1095710" lon="10.5217420">
	<ele>2263.00</ele>
	<time>2023-08-07T05:50:05.000Z</time>
</trkpt>
<trkpt lat="46.1095690" lon="10.5217400">
	<ele>2263.20</ele>
	<time>2023-08-07T05:50:06.000Z</time>
</trkpt>
<trkpt lat="46.1095680" lon="10.5217370">
	<ele>2263.40</ele>
	<time>2023-08-07T05:50:07.000Z</time>
</trkpt>
<trkpt lat="46.1095680" lon="10.5217370">
	<ele>2263.40</ele>
	<time>2023-08-07T05:50:08.000Z</time>
</trkpt>
<trkpt lat="46.1095680" lon="10.5217370">
	<ele>2263.40</ele>
	<time>2023-08-07T05:50:09.000Z</time>
</trkpt>
<trkpt lat="46.1095680" lon="10.5217370">
	<ele>2263.60</ele>
	<time>2023-08-07T05:50:10.000Z</time>
</trkpt>
<trkpt lat="46.1095680" lon="10.5217370">
	<ele>2263.80</ele>
	<time>2023-08-07T05:50:11.000Z</time>
</trkpt>
<trkpt lat="46.1095680" lon="10.5217370">
	<ele>2263.80</ele>
	<time>2023-08-07T05:50:12.000Z</time>
</trkpt>
<trkpt lat="46.1095680" lon="10.5217370">
	<ele>2264.00</ele>
	<time>2023-08-07T05:50:13.000Z</time>
</trkpt>
<trkpt lat="46.1095680" lon="10.5217370">
	<ele>2264.20</ele>
	<time>2023-08-07T05:50:14.000Z</time>
</trkpt>
<trkpt lat="46.1095680" lon="10.5217370">
	<ele>2264.20</ele>
	<time>2023-08-07T05:50:15.000Z</time>
</trkpt>
<trkpt lat="46.1095680" lon="10.5217370">
	<ele>2264.20</ele>
	<time>2023-08-07T05:50:16.000Z</time>
</trkpt>
<trkpt lat="46.1095680" lon="10.5217370">
	<ele>2264.40</ele>
	<time>2023-08-07T05:50:17.000Z</time>
</trkpt>
<trkpt lat="46.1095690" lon="10.5217370">
	<ele>2264.60</ele>
	<time>2023-08-07T05:50:18.000Z</time>
</trkpt>
<trkpt lat="46.1095700" lon="10.5217370">
	<ele>2264.60</ele>
	<time>2023-08-07T05:50:19.000Z</time>
</trkpt>
<trkpt lat="46.1095700" lon="10.5217370">
	<ele>2264.60</ele>
	<time>2023-08-07T05:50:20.000Z</time>
</trkpt>
<trkpt lat="46.1095700" lon="10.5217370">
	<ele>2265.00</ele>
	<time>2023-08-07T05:50:21.000Z</time>
</trkpt>
<trkpt lat="46.1095710" lon="10.5217370">
	<ele>2265.20</ele>
	<time>2023-08-07T05:50:22.000Z</time>
</trkpt>
<trkpt lat="46.1095710" lon="10.5217370">
	<ele>2265.40</ele>
	<time>2023-08-07T05:50:23.000Z</time>
</trkpt>
<trkpt lat="46.1095710" lon="10.5217310">
	<ele>2265.60</ele>
	<time>2023-08-07T05:50:24.000Z</time>
</trkpt>
<trkpt lat="46.1095710" lon="10.5217240">
	<ele>2265.80</ele>
	<time>2023-08-07T05:50:25.000Z</time>
</trkpt>
<trkpt lat="46.1095720" lon="10.5217200">
	<ele>2265.80</ele>
	<time>2023-08-07T05:50:26.000Z</time>
</trkpt>
<trkpt lat="46.1095720" lon="10.5217180">
	<ele>2266.00</ele>
	<time>2023-08-07T05:50:27.000Z</time>
</trkpt>
<trkpt lat="46.1095720" lon="10.5217160">
	<ele>2266.20</ele>
	<time>2023-08-07T05:50:28.000Z</time>
</trkpt>
<trkpt lat="46.1095720" lon="10.5217130">
	<ele>2266.40</ele>
	<time>2023-08-07T05:50:29.000Z</time>
</trkpt>
<trkpt lat="46.1095730" lon="10.5217040">
	<ele>2266.60</ele>
	<time>2023-08-07T05:50:30.000Z</time>
</trkpt>
<trkpt lat="46.1095730" lon="10.5216970">
	<ele>2266.60</ele>
	<time>2023-08-07T05:50:31.000Z</time>
</trkpt>
<trkpt lat="46.1095730" lon="10.5216920">
	<ele>2266.60</ele>
	<time>2023-08-07T05:50:32.000Z</time>
</trkpt>
<trkpt lat="46.1095730" lon="10.5216900">
	<ele>2266.80</ele>
	<time>2023-08-07T05:50:33.000Z</time>
</trkpt>
<trkpt lat="46.1095730" lon="10.5216850">
	<ele>2266.80</ele>
	<time>2023-08-07T05:50:34.000Z</time>
</trkpt>
<trkpt lat="46.1095730" lon="10.5216830">
	<ele>2267.00</ele>
	<time>2023-08-07T05:50:35.000Z</time>
</trkpt>
<trkpt lat="46.1095730" lon="10.5216800">
	<ele>2267.20</ele>
	<time>2023-08-07T05:50:36.000Z</time>
</trkpt>
<trkpt lat="46.1095780" lon="10.5216790">
	<ele>2267.20</ele>
	<time>2023-08-07T05:50:37.000Z</time>
</trkpt>
<trkpt lat="46.1095790" lon="10.5216780">
	<ele>2267.40</ele>
	<time>2023-08-07T05:50:38.000Z</time>
</trkpt>
<trkpt lat="46.1095800" lon="10.5216780">
	<ele>2267.60</ele>
	<time>2023-08-07T05:50:39.000Z</time>
</trkpt>
<trkpt lat="46.1095840" lon="10.5216770">
	<ele>2267.80</ele>
	<time>2023-08-07T05:50:40.000Z</time>
</trkpt>
<trkpt lat="46.1095870" lon="10.5216770">
	<ele>2268.20</ele>
	<time>2023-08-07T05:50:41.000Z</time>
</trkpt>
<trkpt lat="46.1095880" lon="10.5216770">
	<ele>2268.40</ele>
	<time>2023-08-07T05:50:42.000Z</time>
</trkpt>
<trkpt lat="46.1095890" lon="10.5216760">
	<ele>2268.40</ele>
	<time>2023-08-07T05:50:43.000Z</time>
</trkpt>
<trkpt lat="46.1095920" lon="10.5216750">
	<ele>2268.60</ele>
	<time>2023-08-07T05:50:44.000Z</time>
</trkpt>
<trkpt lat="46.1095950" lon="10.5216750">
	<ele>2268.80</ele>
	<time>2023-08-07T05:50:45.000Z</time>
</trkpt>
<trkpt lat="46.1095960" lon="10.5216750">
	<ele>2268.80</ele>
	<time>2023-08-07T05:50:46.000Z</time>
</trkpt>
<trkpt lat="46.1095970" lon="10.5216740">
	<ele>2269.00</ele>
	<time>2023-08-07T05:50:47.000Z</time>
</trkpt>
<trkpt lat="46.1095970" lon="10.5216740">
	<ele>2269.00</ele>
	<time>2023-08-07T05:50:48.000Z</time>
</trkpt>
<trkpt lat="46.1095980" lon="10.5216710">
	<ele>2269.00</ele>
	<time>2023-08-07T05:50:49.000Z</time>
</trkpt>
<trkpt lat="46.1095980" lon="10.5216700">
	<ele>2269.20</ele>
	<time>2023-08-07T05:50:50.000Z</time>
</trkpt>
<trkpt lat="46.1095990" lon="10.5216670">
	<ele>2269.40</ele>
	<time>2023-08-07T05:50:51.000Z</time>
</trkpt>
<trkpt lat="46.1096000" lon="10.5216620">
	<ele>2269.60</ele>
	<time>2023-08-07T05:50:52.000Z</time>
</trkpt>
<trkpt lat="46.1096010" lon="10.5216560">
	<ele>2269.80</ele>
	<time>2023-08-07T05:50:53.000Z</time>
</trkpt>
<trkpt lat="46.1096010" lon="10.5216520">
	<ele>2270.00</ele>
	<time>2023-08-07T05:50:54.000Z</time>
</trkpt>
<trkpt lat="46.1096030" lon="10.5216470">
	<ele>2270.00</ele>
	<time>2023-08-07T05:50:55.000Z</time>
</trkpt>
<trkpt lat="46.1096040" lon="10.5216450">
	<ele>2270.20</ele>
	<time>2023-08-07T05:50:56.000Z</time>
</trkpt>
<trkpt lat="46.1096050" lon="10.5216410">
	<ele>2270.20</ele>
	<time>2023-08-07T05:50:57.000Z</time>
</trkpt>
<trkpt lat="46.1096050" lon="10.5216380">
	<ele>2270.40</ele>
	<time>2023-08-07T05:50:58.000Z</time>
</trkpt>
<trkpt lat="46.1096050" lon="10.5216360">
	<ele>2270.40</ele>
	<time>2023-08-07T05:50:59.000Z</time>
</trkpt>
<trkpt lat="46.1096050" lon="10.5216360">
	<ele>2270.60</ele>
	<time>2023-08-07T05:51:00.000Z</time>
</trkpt>
<trkpt lat="46.1096070" lon="10.5216350">
	<ele>2270.60</ele>
	<time>2023-08-07T05:51:01.000Z</time>
</trkpt>
<trkpt lat="46.1096080" lon="10.5216350">
	<ele>2270.60</ele>
	<time>2023-08-07T05:51:02.000Z</time>
</trkpt>
<trkpt lat="46.1096090" lon="10.5216340">
	<ele>2271.00</ele>
	<time>2023-08-07T05:51:03.000Z</time>
</trkpt>
<trkpt lat="46.1096120" lon="10.5216340">
	<ele>2271.00</ele>
	<time>2023-08-07T05:51:04.000Z</time>
</trkpt>
<trkpt lat="46.1096160" lon="10.5216340">
	<ele>2271.20</ele>
	<time>2023-08-07T05:51:05.000Z</time>
</trkpt>
<trkpt lat="46.1096180" lon="10.5216340">
	<ele>2271.40</ele>
	<time>2023-08-07T05:51:06.000Z</time>
</trkpt>
<trkpt lat="46.1096200" lon="10.5216330">
	<ele>2271.40</ele>
	<time>2023-08-07T05:51:07.000Z</time>
</trkpt>
<trkpt lat="46.1096220" lon="10.5216330">
	<ele>2271.40</ele>
	<time>2023-08-07T05:51:08.000Z</time>
</trkpt>
<trkpt lat="46.1096240" lon="10.5216310">
	<ele>2271.60</ele>
	<time>2023-08-07T05:51:09.000Z</time>
</trkpt>
<trkpt lat="46.1096250" lon="10.5216280">
	<ele>2271.60</ele>
	<time>2023-08-07T05:51:10.000Z</time>
</trkpt>
<trkpt lat="46.1096270" lon="10.5216270">
	<ele>2271.60</ele>
	<time>2023-08-07T05:51:11.000Z</time>
</trkpt>
<trkpt lat="46.1096280" lon="10.5216230">
	<ele>2271.80</ele>
	<time>2023-08-07T05:51:12.000Z</time>
</trkpt>
<trkpt lat="46.1096290" lon="10.5216190">
	<ele>2272.00</ele>
	<time>2023-08-07T05:51:13.000Z</time>
</trkpt>
<trkpt lat="46.1096290" lon="10.5216170">
	<ele>2272.20</ele>
	<time>2023-08-07T05:51:14.000Z</time>
</trkpt>
<trkpt lat="46.1096290" lon="10.5216140">
	<ele>2272.60</ele>
	<time>2023-08-07T05:51:15.000Z</time>
</trkpt>
<trkpt lat="46.1096290" lon="10.5216120">
	<ele>2272.80</ele>
	<time>2023-08-07T05:51:16.000Z</time>
</trkpt>
<trkpt lat="46.1096290" lon="10.5216100">
	<ele>2273.00</ele>
	<time>2023-08-07T05:51:17.000Z</time>
</trkpt>
<trkpt lat="46.1096290" lon="10.5216080">
	<ele>2273.00</ele>
	<time>2023-08-07T05:51:18.000Z</time>
</trkpt>
<trkpt lat="46.1096290" lon="10.5216050">
	<ele>2273.20</ele>
	<time>2023-08-07T05:51:19.000Z</time>
</trkpt>
<trkpt lat="46.1096300" lon="10.5216040">
	<ele>2273.20</ele>
	<time>2023-08-07T05:51:20.000Z</time>
</trkpt>
<trkpt lat="46.1096310" lon="10.5216020">
	<ele>2273.40</ele>
	<time>2023-08-07T05:51:21.000Z</time>
</trkpt>
<trkpt lat="46.1096310" lon="10.5216000">
	<ele>2273.40</ele>
	<time>2023-08-07T05:51:22.000Z</time>
</trkpt>
<trkpt lat="46.1096320" lon="10.5215940">
	<ele>2273.40</ele>
	<time>2023-08-07T05:51:23.000Z</time>
</trkpt>
<trkpt lat="46.1096330" lon="10.5215880">
	<ele>2273.40</ele>
	<time>2023-08-07T05:51:24.000Z</time>
</trkpt>
<trkpt lat="46.1096330" lon="10.5215850">
	<ele>2273.80</ele>
	<time>2023-08-07T05:51:25.000Z</time>
</trkpt>
<trkpt lat="46.1096340" lon="10.5215840">
	<ele>2274.00</ele>
	<time>2023-08-07T05:51:26.000Z</time>
</trkpt>
<trkpt lat="46.1096340" lon="10.5215820">
	<ele>2274.00</ele>
	<time>2023-08-07T05:51:27.000Z</time>
</trkpt>
<trkpt lat="46.1096350" lon="10.5215780">
	<ele>2274.20</ele>
	<time>2023-08-07T05:51:28.000Z</time>
</trkpt>
<trkpt lat="46.1096350" lon="10.5215750">
	<ele>2274.40</ele>
	<time>2023-08-07T05:51:29.000Z</time>
</trkpt>
<trkpt lat="46.1096360" lon="10.5215710">
	<ele>2274.40</ele>
	<time>2023-08-07T05:51:30.000Z</time>
</trkpt>
<trkpt lat="46.1096360" lon="10.5215680">
	<ele>2274.80</ele>
	<time>2023-08-07T05:51:31.000Z</time>
</trkpt>
<trkpt lat="46.1096360" lon="10.5215650">
	<ele>2275.00</ele>
	<time>2023-08-07T05:51:32.000Z</time>
</trkpt>
<trkpt lat="46.1096360" lon="10.5215630">
	<ele>2275.00</ele>
	<time>2023-08-07T05:51:33.000Z</time>
</trkpt>
<trkpt lat="46.1096360" lon="10.5215610">
	<ele>2275.20</ele>
	<time>2023-08-07T05:51:34.000Z</time>
</trkpt>
<trkpt lat="46.1096360" lon="10.5215610">
	<ele>2275.20</ele>
	<time>2023-08-07T05:51:35.000Z</time>
</trkpt>
<trkpt lat="46.1096370" lon="10.5215590">
	<ele>2275.40</ele>
	<time>2023-08-07T05:51:36.000Z</time>
</trkpt>
<trkpt lat="46.1096420" lon="10.5215570">
	<ele>2275.40</ele>
	<time>2023-08-07T05:51:37.000Z</time>
</trkpt>
<trkpt lat="46.1096460" lon="10.5215550">
	<ele>2275.60</ele>
	<time>2023-08-07T05:51:38.000Z</time>
</trkpt>
<trkpt lat="46.1096500" lon="10.5215530">
	<ele>2276.00</ele>
	<time>2023-08-07T05:51:39.000Z</time>
</trkpt>
<trkpt lat="46.1096520" lon="10.5215520">
	<ele>2276.20</ele>
	<time>2023-08-07T05:51:40.000Z</time>
</trkpt>
<trkpt lat="46.1096540" lon="10.5215510">
	<ele>2276.40</ele>
	<time>2023-08-07T05:51:41.000Z</time>
</trkpt>
<trkpt lat="46.1096550" lon="10.5215510">
	<ele>2276.40</ele>
	<time>2023-08-07T05:51:42.000Z</time>
</trkpt>
<trkpt lat="46.1096550" lon="10.5215500">
	<ele>2276.40</ele>
	<time>2023-08-07T05:51:43.000Z</time>
</trkpt>
<trkpt lat="46.1096560" lon="10.5215490">
	<ele>2276.40</ele>
	<time>2023-08-07T05:51:44.000Z</time>
</trkpt>
<trkpt lat="46.1096570" lon="10.5215470">
	<ele>2276.60</ele>
	<time>2023-08-07T05:51:45.000Z</time>
</trkpt>
<trkpt lat="46.1096580" lon="10.5215470">
	<ele>2276.60</ele>
	<time>2023-08-07T05:51:46.000Z</time>
</trkpt>
<trkpt lat="46.1096580" lon="10.5215460">
	<ele>2276.60</ele>
	<time>2023-08-07T05:51:47.000Z</time>
</trkpt>
<trkpt lat="46.1096580" lon="10.5215450">
	<ele>2276.80</ele>
	<time>2023-08-07T05:51:48.000Z</time>
</trkpt>
<trkpt lat="46.1096590" lon="10.5215440">
	<ele>2276.80</ele>
	<time>2023-08-07T05:51:49.000Z</time>
</trkpt>
<trkpt lat="46.1096590" lon="10.5215400">
	<ele>2277.00</ele>
	<time>2023-08-07T05:51:50.000Z</time>
</trkpt>
<trkpt lat="46.1096600" lon="10.5215360">
	<ele>2277.00</ele>
	<time>2023-08-07T05:51:51.000Z</time>
</trkpt>
<trkpt lat="46.1096600" lon="10.5215290">
	<ele>2277.00</ele>
	<time>2023-08-07T05:51:52.000Z</time>
</trkpt>
<trkpt lat="46.1096610" lon="10.5215230">
	<ele>2277.20</ele>
	<time>2023-08-07T05:51:53.000Z</time>
</trkpt>
<trkpt lat="46.1096620" lon="10.5215180">
	<ele>2277.20</ele>
	<time>2023-08-07T05:51:54.000Z</time>
</trkpt>
<trkpt lat="46.1096630" lon="10.5215130">
	<ele>2277.40</ele>
	<time>2023-08-07T05:51:55.000Z</time>
</trkpt>
<trkpt lat="46.1096630" lon="10.5215090">
	<ele>2277.60</ele>
	<time>2023-08-07T05:51:56.000Z</time>
</trkpt>
<trkpt lat="46.1096640" lon="10.5215060">
	<ele>2277.60</ele>
	<time>2023-08-07T05:51:57.000Z</time>
</trkpt>
<trkpt lat="46.1096640" lon="10.5215040">
	<ele>2277.80</ele>
	<time>2023-08-07T05:51:58.000Z</time>
</trkpt>
<trkpt lat="46.1096640" lon="10.5215020">
	<ele>2277.80</ele>
	<time>2023-08-07T05:51:59.000Z</time>
</trkpt>
<trkpt lat="46.1096640" lon="10.5215000">
	<ele>2278.00</ele>
	<time>2023-08-07T05:52:00.000Z</time>
</trkpt>
<trkpt lat="46.1096650" lon="10.5214980">
	<ele>2278.20</ele>
	<time>2023-08-07T05:52:01.000Z</time>
</trkpt>
<trkpt lat="46.1096650" lon="10.5214940">
	<ele>2278.20</ele>
	<time>2023-08-07T05:52:02.000Z</time>
</trkpt>
<trkpt lat="46.1096650" lon="10.5214910">
	<ele>2278.20</ele>
	<time>2023-08-07T05:52:03.000Z</time>
</trkpt>
<trkpt lat="46.1096650" lon="10.5214880">
	<ele>2278.60</ele>
	<time>2023-08-07T05:52:04.000Z</time>
</trkpt>
<trkpt lat="46.1096650" lon="10.5214850">
	<ele>2279.00</ele>
	<time>2023-08-07T05:52:05.000Z</time>
</trkpt>
<trkpt lat="46.1096660" lon="10.5214820">
	<ele>2279.20</ele>
	<time>2023-08-07T05:52:06.000Z</time>
</trkpt>
<trkpt lat="46.1096680" lon="10.5214780">
	<ele>2279.20</ele>
	<time>2023-08-07T05:52:07.000Z</time>
</trkpt>
<trkpt lat="46.1096700" lon="10.5214750">
	<ele>2279.40</ele>
	<time>2023-08-07T05:52:08.000Z</time>
</trkpt>
<trkpt lat="46.1096720" lon="10.5214730">
	<ele>2279.60</ele>
	<time>2023-08-07T05:52:09.000Z</time>
</trkpt>
<trkpt lat="46.1096740" lon="10.5214720">
	<ele>2280.00</ele>
	<time>2023-08-07T05:52:10.000Z</time>
</trkpt>
<trkpt lat="46.1096760" lon="10.5214710">
	<ele>2280.20</ele>
	<time>2023-08-07T05:52:11.000Z</time>
</trkpt>
<trkpt lat="46.1096780" lon="10.5214710">
	<ele>2280.40</ele>
	<time>2023-08-07T05:52:12.000Z</time>
</trkpt>
<trkpt lat="46.1096800" lon="10.5214700">
	<ele>2280.60</ele>
	<time>2023-08-07T05:52:13.000Z</time>
</trkpt>
<trkpt lat="46.1096820" lon="10.5214700">
	<ele>2280.80</ele>
	<time>2023-08-07T05:52:14.000Z</time>
</trkpt>
<trkpt lat="46.1096830" lon="10.5214700">
	<ele>2280.80</ele>
	<time>2023-08-07T05:52:15.000Z</time>
</trkpt>
<trkpt lat="46.1096840" lon="10.5214700">
	<ele>2280.80</ele>
	<time>2023-08-07T05:52:16.000Z</time>
</trkpt>
<trkpt lat="46.1096850" lon="10.5214700">
	<ele>2281.00</ele>
	<time>2023-08-07T05:52:17.000Z</time>
</trkpt>
<trkpt lat="46.1096890" lon="10.5214700">
	<ele>2281.00</ele>
	<time>2023-08-07T05:52:18.000Z</time>
</trkpt>
<trkpt lat="46.1096930" lon="10.5214700">
	<ele>2281.00</ele>
	<time>2023-08-07T05:52:19.000Z</time>
</trkpt>
<trkpt lat="46.1096970" lon="10.5214700">
	<ele>2281.00</ele>
	<time>2023-08-07T05:52:20.000Z</time>
</trkpt>
<trkpt lat="46.1097010" lon="10.5214700">
	<ele>2281.20</ele>
	<time>2023-08-07T05:52:21.000Z</time>
</trkpt>
<trkpt lat="46.1097040" lon="10.5214700">
	<ele>2281.40</ele>
	<time>2023-08-07T05:52:22.000Z</time>
</trkpt>
<trkpt lat="46.1097070" lon="10.5214700">
	<ele>2281.80</ele>
	<time>2023-08-07T05:52:23.000Z</time>
</trkpt>
<trkpt lat="46.1097090" lon="10.5214700">
	<ele>2282.00</ele>
	<time>2023-08-07T05:52:24.000Z</time>
</trkpt>
<trkpt lat="46.1097110" lon="10.5214700">
	<ele>2282.00</ele>
	<time>2023-08-07T05:52:25.000Z</time>
</trkpt>
<trkpt lat="46.1097130" lon="10.5214690">
	<ele>2282.20</ele>
	<time>2023-08-07T05:52:26.000Z</time>
</trkpt>
<trkpt lat="46.1097150" lon="10.5214660">
	<ele>2282.20</ele>
	<time>2023-08-07T05:52:27.000Z</time>
</trkpt>
<trkpt lat="46.1097160" lon="10.5214560">
	<ele>2282.20</ele>
	<time>2023-08-07T05:52:28.000Z</time>
</trkpt>
<trkpt lat="46.1097180" lon="10.5214490">
	<ele>2282.20</ele>
	<time>2023-08-07T05:52:29.000Z</time>
</trkpt>
<trkpt lat="46.1097190" lon="10.5214420">
	<ele>2282.20</ele>
	<time>2023-08-07T05:52:30.000Z</time>
</trkpt>
<trkpt lat="46.1097220" lon="10.5214350">
	<ele>2282.20</ele>
	<time>2023-08-07T05:52:31.000Z</time>
</trkpt>
<trkpt lat="46.1097250" lon="10.5214240">
	<ele>2282.20</ele>
	<time>2023-08-07T05:52:32.000Z</time>
</trkpt>
<trkpt lat="46.1097280" lon="10.5214170">
	<ele>2282.40</ele>
	<time>2023-08-07T05:52:33.000Z</time>
</trkpt>
<trkpt lat="46.1097320" lon="10.5214090">
	<ele>2282.60</ele>
	<time>2023-08-07T05:52:34.000Z</time>
</trkpt>
<trkpt lat="46.1097360" lon="10.5214030">
	<ele>2282.80</ele>
	<time>2023-08-07T05:52:35.000Z</time>
</trkpt>
<trkpt lat="46.1097390" lon="10.5213990">
	<ele>2283.00</ele>
	<time>2023-08-07T05:52:36.000Z</time>
</trkpt>
<trkpt lat="46.1097380" lon="10.5213970">
	<ele>2283.20</ele>
	<time>2023-08-07T05:52:37.000Z</time>
</trkpt>
<trkpt lat="46.1097370" lon="10.5213940">
	<ele>2283.20</ele>
	<time>2023-08-07T05:52:38.000Z</time>
</trkpt>
<trkpt lat="46.1097340" lon="10.5213910">
	<ele>2283.40</ele>
	<time>2023-08-07T05:52:39.000Z</time>
</trkpt>
<trkpt lat="46.1097320" lon="10.5213920">
	<ele>2283.40</ele>
	<time>2023-08-07T05:52:40.000Z</time>
</trkpt>
<trkpt lat="46.1097300" lon="10.5213860">
	<ele>2283.60</ele>
	<time>2023-08-07T05:52:41.000Z</time>
</trkpt>
<trkpt lat="46.1097320" lon="10.5213810">
	<ele>2283.80</ele>
	<time>2023-08-07T05:52:42.000Z</time>
</trkpt>
<trkpt lat="46.1097360" lon="10.5213770">
	<ele>2283.80</ele>
	<time>2023-08-07T05:52:43.000Z</time>
</trkpt>
<trkpt lat="46.1097390" lon="10.5213730">
	<ele>2284.00</ele>
	<time>2023-08-07T05:52:44.000Z</time>
</trkpt>
<trkpt lat="46.1097390" lon="10.5213690">
	<ele>2284.00</ele>
	<time>2023-08-07T05:52:45.000Z</time>
</trkpt>
<trkpt lat="46.1097420" lon="10.5213660">
	<ele>2284.20</ele>
	<time>2023-08-07T05:52:46.000Z</time>
</trkpt>
<trkpt lat="46.1097460" lon="10.5213640">
	<ele>2284.20</ele>
	<time>2023-08-07T05:52:47.000Z</time>
</trkpt>
<trkpt lat="46.1097500" lon="10.5213630">
	<ele>2284.40</ele>
	<time>2023-08-07T05:52:48.000Z</time>
</trkpt>
<trkpt lat="46.1097450" lon="10.5213590">
	<ele>2284.60</ele>
	<time>2023-08-07T05:52:49.000Z</time>
</trkpt>
<trkpt lat="46.1097430" lon="10.5213550">
	<ele>2284.80</ele>
	<time>2023-08-07T05:52:50.000Z</time>
</trkpt>
<trkpt lat="46.1097450" lon="10.5213530">
	<ele>2284.80</ele>
	<time>2023-08-07T05:52:51.000Z</time>
</trkpt>
<trkpt lat="46.1097490" lon="10.5213530">
	<ele>2284.80</ele>
	<time>2023-08-07T05:52:52.000Z</time>
</trkpt>
<trkpt lat="46.1097500" lon="10.5213510">
	<ele>2285.00</ele>
	<time>2023-08-07T05:52:53.000Z</time>
</trkpt>
<trkpt lat="46.1097510" lon="10.5213490">
	<ele>2285.40</ele>
	<time>2023-08-07T05:52:54.000Z</time>
</trkpt>
<trkpt lat="46.1097540" lon="10.5213470">
	<ele>2285.40</ele>
	<time>2023-08-07T05:52:55.000Z</time>
</trkpt>
<trkpt lat="46.1097550" lon="10.5213440">
	<ele>2285.60</ele>
	<time>2023-08-07T05:52:56.000Z</time>
</trkpt>
<trkpt lat="46.1097550" lon="10.5213430">
	<ele>2285.80</ele>
	<time>2023-08-07T05:52:57.000Z</time>
</trkpt>
<trkpt lat="46.1097550" lon="10.5213420">
	<ele>2286.00</ele>
	<time>2023-08-07T05:52:58.000Z</time>
</trkpt>
<trkpt lat="46.1097550" lon="10.5213420">
	<ele>2286.00</ele>
	<time>2023-08-07T05:52:59.000Z</time>
</trkpt>
<trkpt lat="46.1097550" lon="10.5213390">
	<ele>2286.20</ele>
	<time>2023-08-07T05:53:00.000Z</time>
</trkpt>
<trkpt lat="46.1097560" lon="10.5213350">
	<ele>2286.20</ele>
	<time>2023-08-07T05:53:01.000Z</time>
</trkpt>
<trkpt lat="46.1097580" lon="10.5213320">
	<ele>2286.20</ele>
	<time>2023-08-07T05:53:02.000Z</time>
</trkpt>
<trkpt lat="46.1097580" lon="10.5213290">
	<ele>2286.40</ele>
	<time>2023-08-07T05:53:03.000Z</time>
</trkpt>
<trkpt lat="46.1097580" lon="10.5213260">
	<ele>2286.40</ele>
	<time>2023-08-07T05:53:04.000Z</time>
</trkpt>
<trkpt lat="46.1097600" lon="10.5213200">
	<ele>2286.60</ele>
	<time>2023-08-07T05:53:05.000Z</time>
</trkpt>
<trkpt lat="46.1097620" lon="10.5213180">
	<ele>2286.60</ele>
	<time>2023-08-07T05:53:06.000Z</time>
</trkpt>
<trkpt lat="46.1097650" lon="10.5213190">
	<ele>2286.60</ele>
	<time>2023-08-07T05:53:07.000Z</time>
</trkpt>
<trkpt lat="46.1097680" lon="10.5213190">
	<ele>2286.80</ele>
	<time>2023-08-07T05:53:08.000Z</time>
</trkpt>
<trkpt lat="46.1097700" lon="10.5213190">
	<ele>2286.80</ele>
	<time>2023-08-07T05:53:09.000Z</time>
</trkpt>
<trkpt lat="46.1097710" lon="10.5213200">
	<ele>2287.20</ele>
	<time>2023-08-07T05:53:10.000Z</time>
</trkpt>
<trkpt lat="46.1097720" lon="10.5213180">
	<ele>2287.60</ele>
	<time>2023-08-07T05:53:11.000Z</time>
</trkpt>
<trkpt lat="46.1097720" lon="10.5213160">
	<ele>2287.80</ele>
	<time>2023-08-07T05:53:12.000Z</time>
</trkpt>
<trkpt lat="46.1097730" lon="10.5213170">
	<ele>2287.80</ele>
	<time>2023-08-07T05:53:13.000Z</time>
</trkpt>
<trkpt lat="46.1097740" lon="10.5213160">
	<ele>2287.80</ele>
	<time>2023-08-07T05:53:14.000Z</time>
</trkpt>
<trkpt lat="46.1097740" lon="10.5213160">
	<ele>2288.00</ele>
	<time>2023-08-07T05:53:15.000Z</time>
</trkpt>
<trkpt lat="46.1097740" lon="10.5213160">
	<ele>2287.80</ele>
	<time>2023-08-07T05:53:16.000Z</time>
</trkpt>
<trkpt lat="46.1097740" lon="10.5213160">
	<ele>2287.80</ele>
	<time>2023-08-07T05:53:17.000Z</time>
</trkpt>
<trkpt lat="46.1097740" lon="10.5213160">
	<ele>2287.80</ele>
	<time>2023-08-07T05:53:18.000Z</time>
</trkpt>
<trkpt lat="46.1097740" lon="10.5213160">
	<ele>2287.80</ele>
	<time>2023-08-07T05:53:19.000Z</time>
</trkpt>
<trkpt lat="46.1097740" lon="10.5213160">
	<ele>2288.00</ele>
	<time>2023-08-07T05:53:20.000Z</time>
</trkpt>
<trkpt lat="46.1097740" lon="10.5213160">
	<ele>2288.00</ele>
	<time>2023-08-07T05:53:21.000Z</time>
</trkpt>
<trkpt lat="46.1097740" lon="10.5213160">
	<ele>2288.20</ele>
	<time>2023-08-07T05:53:22.000Z</time>
</trkpt>
<trkpt lat="46.1097740" lon="10.5213160">
	<ele>2288.40</ele>
	<time>2023-08-07T05:53:23.000Z</time>
</trkpt>
<trkpt lat="46.1097740" lon="10.5213160">
	<ele>2288.40</ele>
	<time>2023-08-07T05:53:24.000Z</time>
</trkpt>
<trkpt lat="46.1097740" lon="10.5213160">
	<ele>2288.40</ele>
	<time>2023-08-07T05:53:25.000Z</time>
</trkpt>
<trkpt lat="46.1097740" lon="10.5213160">
	<ele>2288.60</ele>
	<time>2023-08-07T05:53:26.000Z</time>
</trkpt>
<trkpt lat="46.1097740" lon="10.5213160">
	<ele>2288.80</ele>
	<time>2023-08-07T05:53:27.000Z</time>
</trkpt>
<trkpt lat="46.1097740" lon="10.5213160">
	<ele>2289.00</ele>
	<time>2023-08-07T05:53:28.000Z</time>
</trkpt>
<trkpt lat="46.1097740" lon="10.5213160">
	<ele>2289.20</ele>
	<time>2023-08-07T05:53:29.000Z</time>
</trkpt>
<trkpt lat="46.1097740" lon="10.5213150">
	<ele>2289.20</ele>
	<time>2023-08-07T05:53:30.000Z</time>
</trkpt>
<trkpt lat="46.1097740" lon="10.5213150">
	<ele>2289.40</ele>
	<time>2023-08-07T05:53:31.000Z</time>
</trkpt>
<trkpt lat="46.1097740" lon="10.5213120">
	<ele>2289.60</ele>
	<time>2023-08-07T05:53:32.000Z</time>
</trkpt>
<trkpt lat="46.1097740" lon="10.5213050">
	<ele>2289.80</ele>
	<time>2023-08-07T05:53:33.000Z</time>
</trkpt>
<trkpt lat="46.1097740" lon="10.5213030">
	<ele>2290.00</ele>
	<time>2023-08-07T05:53:34.000Z</time>
</trkpt>
<trkpt lat="46.1097750" lon="10.5213030">
	<ele>2290.00</ele>
	<time>2023-08-07T05:53:35.000Z</time>
</trkpt>
<trkpt lat="46.1097750" lon="10.5213030">
	<ele>2290.20</ele>
	<time>2023-08-07T05:53:36.000Z</time>
</trkpt>
<trkpt lat="46.1097760" lon="10.5213030">
	<ele>2290.20</ele>
	<time>2023-08-07T05:53:37.000Z</time>
</trkpt>
<trkpt lat="46.1097760" lon="10.5213030">
	<ele>2290.20</ele>
	<time>2023-08-07T05:53:38.000Z</time>
</trkpt>
<trkpt lat="46.1097770" lon="10.5213030">
	<ele>2290.20</ele>
	<time>2023-08-07T05:53:39.000Z</time>
</trkpt>
<trkpt lat="46.1097770" lon="10.5213030">
	<ele>2290.40</ele>
	<time>2023-08-07T05:53:40.000Z</time>
</trkpt>
<trkpt lat="46.1097820" lon="10.5213030">
	<ele>2290.60</ele>
	<time>2023-08-07T05:53:41.000Z</time>
</trkpt>
<trkpt lat="46.1097880" lon="10.5213030">
	<ele>2291.00</ele>
	<time>2023-08-07T05:53:42.000Z</time>
</trkpt>
<trkpt lat="46.1097910" lon="10.5213030">
	<ele>2291.20</ele>
	<time>2023-08-07T05:53:43.000Z</time>
</trkpt>
<trkpt lat="46.1097930" lon="10.5213030">
	<ele>2291.40</ele>
	<time>2023-08-07T05:53:44.000Z</time>
</trkpt>
<trkpt lat="46.1097960" lon="10.5213030">
	<ele>2291.60</ele>
	<time>2023-08-07T05:53:45.000Z</time>
</trkpt>
<trkpt lat="46.1097980" lon="10.5213030">
	<ele>2291.60</ele>
	<time>2023-08-07T05:53:46.000Z</time>
</trkpt>
<trkpt lat="46.1098000" lon="10.5213030">
	<ele>2291.60</ele>
	<time>2023-08-07T05:53:47.000Z</time>
</trkpt>
<trkpt lat="46.1098020" lon="10.5213030">
	<ele>2291.80</ele>
	<time>2023-08-07T05:53:48.000Z</time>
</trkpt>
<trkpt lat="46.1098030" lon="10.5213020">
	<ele>2291.80</ele>
	<time>2023-08-07T05:53:49.000Z</time>
</trkpt>
<trkpt lat="46.1098040" lon="10.5212990">
	<ele>2292.00</ele>
	<time>2023-08-07T05:53:50.000Z</time>
</trkpt>
<trkpt lat="46.1098030" lon="10.5212940">
	<ele>2292.20</ele>
	<time>2023-08-07T05:53:51.000Z</time>
</trkpt>
<trkpt lat="46.1098040" lon="10.5212930">
	<ele>2292.20</ele>
	<time>2023-08-07T05:53:52.000Z</time>
</trkpt>
<trkpt lat="46.1098030" lon="10.5212900">
	<ele>2292.40</ele>
	<time>2023-08-07T05:53:53.000Z</time>
</trkpt>
<trkpt lat="46.1098030" lon="10.5212830">
	<ele>2292.60</ele>
	<time>2023-08-07T05:53:54.000Z</time>
</trkpt>
<trkpt lat="46.1098060" lon="10.5212730">
	<ele>2292.80</ele>
	<time>2023-08-07T05:53:55.000Z</time>
</trkpt>
<trkpt lat="46.1098110" lon="10.5212660">
	<ele>2292.80</ele>
	<time>2023-08-07T05:53:56.000Z</time>
</trkpt>
<trkpt lat="46.1098150" lon="10.5212620">
	<ele>2293.00</ele>
	<time>2023-08-07T05:53:57.000Z</time>
</trkpt>
<trkpt lat="46.1098190" lon="10.5212580">
	<ele>2293.20</ele>
	<time>2023-08-07T05:53:58.000Z</time>
</trkpt>
<trkpt lat="46.1098230" lon="10.5212580">
	<ele>2293.20</ele>
	<time>2023-08-07T05:53:59.000Z</time>
</trkpt>
<trkpt lat="46.1098250" lon="10.5212550">
	<ele>2293.20</ele>
	<time>2023-08-07T05:54:00.000Z</time>
</trkpt>
<trkpt lat="46.1098300" lon="10.5212520">
	<ele>2293.20</ele>
	<time>2023-08-07T05:54:01.000Z</time>
</trkpt>
<trkpt lat="46.1098360" lon="10.5212510">
	<ele>2293.20</ele>
	<time>2023-08-07T05:54:02.000Z</time>
</trkpt>
<trkpt lat="46.1098410" lon="10.5212500">
	<ele>2293.40</ele>
	<time>2023-08-07T05:54:03.000Z</time>
</trkpt>
<trkpt lat="46.1098460" lon="10.5212480">
	<ele>2293.60</ele>
	<time>2023-08-07T05:54:04.000Z</time>
</trkpt>
<trkpt lat="46.1098470" lon="10.5212450">
	<ele>2293.60</ele>
	<time>2023-08-07T05:54:05.000Z</time>
</trkpt>
<trkpt lat="46.1098520" lon="10.5212460">
	<ele>2293.60</ele>
	<time>2023-08-07T05:54:06.000Z</time>
</trkpt>
<trkpt lat="46.1098550" lon="10.5212480">
	<ele>2293.80</ele>
	<time>2023-08-07T05:54:07.000Z</time>
</trkpt>
<trkpt lat="46.1098580" lon="10.5212550">
	<ele>2294.20</ele>
	<time>2023-08-07T05:54:08.000Z</time>
</trkpt>
<trkpt lat="46.1098620" lon="10.5212620">
	<ele>2294.40</ele>
	<time>2023-08-07T05:54:09.000Z</time>
</trkpt>
<trkpt lat="46.1098640" lon="10.5212640">
	<ele>2294.60</ele>
	<time>2023-08-07T05:54:10.000Z</time>
</trkpt>
<trkpt lat="46.1098650" lon="10.5212640">
	<ele>2294.80</ele>
	<time>2023-08-07T05:54:11.000Z</time>
</trkpt>
<trkpt lat="46.1098640" lon="10.5212640">
	<ele>2294.80</ele>
	<time>2023-08-07T05:54:12.000Z</time>
</trkpt>
<trkpt lat="46.1098660" lon="10.5212620">
	<ele>2295.00</ele>
	<time>2023-08-07T05:54:13.000Z</time>
</trkpt>
<trkpt lat="46.1098660" lon="10.5212570">
	<ele>2295.00</ele>
	<time>2023-08-07T05:54:14.000Z</time>
</trkpt>
<trkpt lat="46.1098690" lon="10.5212570">
	<ele>2295.20</ele>
	<time>2023-08-07T05:54:15.000Z</time>
</trkpt>
<trkpt lat="46.1098720" lon="10.5212600">
	<ele>2295.40</ele>
	<time>2023-08-07T05:54:16.000Z</time>
</trkpt>
<trkpt lat="46.1098740" lon="10.5212610">
	<ele>2296.00</ele>
	<time>2023-08-07T05:54:17.000Z</time>
</trkpt>
<trkpt lat="46.1098800" lon="10.5212580">
	<ele>2296.20</ele>
	<time>2023-08-07T05:54:18.000Z</time>
</trkpt>
<trkpt lat="46.1098840" lon="10.5212500">
	<ele>2296.40</ele>
	<time>2023-08-07T05:54:19.000Z</time>
</trkpt>
<trkpt lat="46.1098860" lon="10.5212420">
	<ele>2296.40</ele>
	<time>2023-08-07T05:54:20.000Z</time>
</trkpt>
<trkpt lat="46.1098890" lon="10.5212380">
	<ele>2296.60</ele>
	<time>2023-08-07T05:54:21.000Z</time>
</trkpt>
<trkpt lat="46.1098910" lon="10.5212350">
	<ele>2296.80</ele>
	<time>2023-08-07T05:54:22.000Z</time>
</trkpt>
<trkpt lat="46.1098950" lon="10.5212310">
	<ele>2296.80</ele>
	<time>2023-08-07T05:54:23.000Z</time>
</trkpt>
<trkpt lat="46.1098990" lon="10.5212320">
	<ele>2296.80</ele>
	<time>2023-08-07T05:54:24.000Z</time>
</trkpt>
<trkpt lat="46.1099000" lon="10.5212300">
	<ele>2297.00</ele>
	<time>2023-08-07T05:54:25.000Z</time>
</trkpt>
<trkpt lat="46.1099000" lon="10.5212300">
	<ele>2297.00</ele>
	<time>2023-08-07T05:54:26.000Z</time>
</trkpt>
<trkpt lat="46.1099000" lon="10.5212300">
	<ele>2297.00</ele>
	<time>2023-08-07T05:54:27.000Z</time>
</trkpt>
<trkpt lat="46.1099000" lon="10.5212300">
	<ele>2297.00</ele>
	<time>2023-08-07T05:54:28.000Z</time>
</trkpt>
<trkpt lat="46.1099000" lon="10.5212300">
	<ele>2297.20</ele>
	<time>2023-08-07T05:54:29.000Z</time>
</trkpt>
<trkpt lat="46.1099000" lon="10.5212300">
	<ele>2297.40</ele>
	<time>2023-08-07T05:54:30.000Z</time>
</trkpt>
<trkpt lat="46.1099000" lon="10.5212300">
	<ele>2297.60</ele>
	<time>2023-08-07T05:54:31.000Z</time>
</trkpt>
<trkpt lat="46.1099000" lon="10.5212300">
	<ele>2297.60</ele>
	<time>2023-08-07T05:54:32.000Z</time>
</trkpt>
<trkpt lat="46.1099000" lon="10.5212300">
	<ele>2297.80</ele>
	<time>2023-08-07T05:54:33.000Z</time>
</trkpt>
<trkpt lat="46.1099000" lon="10.5212300">
	<ele>2297.80</ele>
	<time>2023-08-07T05:54:34.000Z</time>
</trkpt>
<trkpt lat="46.1099000" lon="10.5212300">
	<ele>2297.80</ele>
	<time>2023-08-07T05:54:35.000Z</time>
</trkpt>
<trkpt lat="46.1099000" lon="10.5212300">
	<ele>2298.20</ele>
	<time>2023-08-07T05:54:36.000Z</time>
</trkpt>
<trkpt lat="46.1099000" lon="10.5212300">
	<ele>2298.40</ele>
	<time>2023-08-07T05:54:37.000Z</time>
</trkpt>
<trkpt lat="46.1099000" lon="10.5212300">
	<ele>2298.40</ele>
	<time>2023-08-07T05:54:38.000Z</time>
</trkpt>
<trkpt lat="46.1099000" lon="10.5212300">
	<ele>2298.60</ele>
	<time>2023-08-07T05:54:39.000Z</time>
</trkpt>
<trkpt lat="46.1099000" lon="10.5212300">
	<ele>2298.60</ele>
	<time>2023-08-07T05:54:40.000Z</time>
</trkpt>
<trkpt lat="46.1099000" lon="10.5212300">
	<ele>2298.60</ele>
	<time>2023-08-07T05:54:41.000Z</time>
</trkpt>
<trkpt lat="46.1099000" lon="10.5212270">
	<ele>2298.80</ele>
	<time>2023-08-07T05:54:42.000Z</time>
</trkpt>
<trkpt lat="46.1099000" lon="10.5212240">
	<ele>2299.00</ele>
	<time>2023-08-07T05:54:43.000Z</time>
</trkpt>
<trkpt lat="46.1099000" lon="10.5212210">
	<ele>2299.00</ele>
	<time>2023-08-07T05:54:44.000Z</time>
</trkpt>
<trkpt lat="46.1099000" lon="10.5212190">
	<ele>2299.20</ele>
	<time>2023-08-07T05:54:45.000Z</time>
</trkpt>
<trkpt lat="46.1099000" lon="10.5212180">
	<ele>2299.20</ele>
	<time>2023-08-07T05:54:46.000Z</time>
</trkpt>
<trkpt lat="46.1099000" lon="10.5212160">
	<ele>2299.60</ele>
	<time>2023-08-07T05:54:47.000Z</time>
</trkpt>
<trkpt lat="46.1099000" lon="10.5212150">
	<ele>2299.60</ele>
	<time>2023-08-07T05:54:48.000Z</time>
</trkpt>
<trkpt lat="46.1099000" lon="10.5212120">
	<ele>2299.80</ele>
	<time>2023-08-07T05:54:49.000Z</time>
</trkpt>
<trkpt lat="46.1099000" lon="10.5212070">
	<ele>2299.80</ele>
	<time>2023-08-07T05:54:50.000Z</time>
</trkpt>
<trkpt lat="46.1099000" lon="10.5212030">
	<ele>2300.00</ele>
	<time>2023-08-07T05:54:51.000Z</time>
</trkpt>
<trkpt lat="46.1099020" lon="10.5212010">
	<ele>2300.00</ele>
	<time>2023-08-07T05:54:52.000Z</time>
</trkpt>
<trkpt lat="46.1099020" lon="10.5211950">
	<ele>2300.00</ele>
	<time>2023-08-07T05:54:53.000Z</time>
</trkpt>
<trkpt lat="46.1099020" lon="10.5211920">
	<ele>2300.20</ele>
	<time>2023-08-07T05:54:54.000Z</time>
</trkpt>
<trkpt lat="46.1099040" lon="10.5211890">
	<ele>2300.20</ele>
	<time>2023-08-07T05:54:55.000Z</time>
</trkpt>
<trkpt lat="46.1099040" lon="10.5211880">
	<ele>2300.20</ele>
	<time>2023-08-07T05:54:56.000Z</time>
</trkpt>
<trkpt lat="46.1099040" lon="10.5211850">
	<ele>2300.20</ele>
	<time>2023-08-07T05:54:57.000Z</time>
</trkpt>
<trkpt lat="46.1099040" lon="10.5211830">
	<ele>2300.20</ele>
	<time>2023-08-07T05:54:58.000Z</time>
</trkpt>
<trkpt lat="46.1099040" lon="10.5211790">
	<ele>2300.40</ele>
	<time>2023-08-07T05:54:59.000Z</time>
</trkpt>
<trkpt lat="46.1099040" lon="10.5211750">
	<ele>2300.40</ele>
	<time>2023-08-07T05:55:00.000Z</time>
</trkpt>
<trkpt lat="46.1099040" lon="10.5211730">
	<ele>2300.60</ele>
	<time>2023-08-07T05:55:01.000Z</time>
</trkpt>
<trkpt lat="46.1099040" lon="10.5211720">
	<ele>2300.80</ele>
	<time>2023-08-07T05:55:02.000Z</time>
</trkpt>
<trkpt lat="46.1099040" lon="10.5211700">
	<ele>2300.80</ele>
	<time>2023-08-07T05:55:03.000Z</time>
</trkpt>
<trkpt lat="46.1099040" lon="10.5211670">
	<ele>2300.80</ele>
	<time>2023-08-07T05:55:04.000Z</time>
</trkpt>
<trkpt lat="46.1099050" lon="10.5211620">
	<ele>2301.00</ele>
	<time>2023-08-07T05:55:05.000Z</time>
</trkpt>
<trkpt lat="46.1099060" lon="10.5211580">
	<ele>2301.20</ele>
	<time>2023-08-07T05:55:06.000Z</time>
</trkpt>
<trkpt lat="46.1099070" lon="10.5211530">
	<ele>2301.40</ele>
	<time>2023-08-07T05:55:07.000Z</time>
</trkpt>
<trkpt lat="46.1099090" lon="10.5211480">
	<ele>2301.60</ele>
	<time>2023-08-07T05:55:08.000Z</time>
</trkpt>
<trkpt lat="46.1099120" lon="10.5211440">
	<ele>2301.80</ele>
	<time>2023-08-07T05:55:09.000Z</time>
</trkpt>
<trkpt lat="46.1099140" lon="10.5211400">
	<ele>2301.80</ele>
	<time>2023-08-07T05:55:10.000Z</time>
</trkpt>
<trkpt lat="46.1099170" lon="10.5211360">
	<ele>2302.00</ele>
	<time>2023-08-07T05:55:11.000Z</time>
</trkpt>
<trkpt lat="46.1099180" lon="10.5211330">
	<ele>2302.00</ele>
	<time>2023-08-07T05:55:12.000Z</time>
</trkpt>
<trkpt lat="46.1099190" lon="10.5211310">
	<ele>2302.00</ele>
	<time>2023-08-07T05:55:13.000Z</time>
</trkpt>
<trkpt lat="46.1099210" lon="10.5211290">
	<ele>2302.00</ele>
	<time>2023-08-07T05:55:14.000Z</time>
</trkpt>
<trkpt lat="46.1099230" lon="10.5211260">
	<ele>2302.00</ele>
	<time>2023-08-07T05:55:15.000Z</time>
</trkpt>
<trkpt lat="46.1099230" lon="10.5211220">
	<ele>2302.00</ele>
	<time>2023-08-07T05:55:16.000Z</time>
</trkpt>
<trkpt lat="46.1099240" lon="10.5211170">
	<ele>2302.20</ele>
	<time>2023-08-07T05:55:17.000Z</time>
</trkpt>
<trkpt lat="46.1099240" lon="10.5211120">
	<ele>2302.40</ele>
	<time>2023-08-07T05:55:18.000Z</time>
</trkpt>
<trkpt lat="46.1099250" lon="10.5211090">
	<ele>2302.40</ele>
	<time>2023-08-07T05:55:19.000Z</time>
</trkpt>
<trkpt lat="46.1099260" lon="10.5211030">
	<ele>2302.80</ele>
	<time>2023-08-07T05:55:20.000Z</time>
</trkpt>
<trkpt lat="46.1099260" lon="10.5210980">
	<ele>2303.00</ele>
	<time>2023-08-07T05:55:21.000Z</time>
</trkpt>
<trkpt lat="46.1099290" lon="10.5210930">
	<ele>2303.20</ele>
	<time>2023-08-07T05:55:22.000Z</time>
</trkpt>
<trkpt lat="46.1099330" lon="10.5210890">
	<ele>2303.20</ele>
	<time>2023-08-07T05:55:23.000Z</time>
</trkpt>
<trkpt lat="46.1099350" lon="10.5210830">
	<ele>2303.40</ele>
	<time>2023-08-07T05:55:24.000Z</time>
</trkpt>
<trkpt lat="46.1099350" lon="10.5210780">
	<ele>2303.40</ele>
	<time>2023-08-07T05:55:25.000Z</time>
</trkpt>
<trkpt lat="46.1099360" lon="10.5210730">
	<ele>2303.40</ele>
	<time>2023-08-07T05:55:26.000Z</time>
</trkpt>
<trkpt lat="46.1099370" lon="10.5210680">
	<ele>2303.60</ele>
	<time>2023-08-07T05:55:27.000Z</time>
</trkpt>
<trkpt lat="46.1099420" lon="10.5210590">
	<ele>2303.60</ele>
	<time>2023-08-07T05:55:28.000Z</time>
</trkpt>
<trkpt lat="46.1099450" lon="10.5210510">
	<ele>2303.60</ele>
	<time>2023-08-07T05:55:29.000Z</time>
</trkpt>
<trkpt lat="46.1099470" lon="10.5210460">
	<ele>2303.80</ele>
	<time>2023-08-07T05:55:30.000Z</time>
</trkpt>
<trkpt lat="46.1099500" lon="10.5210420">
	<ele>2303.80</ele>
	<time>2023-08-07T05:55:31.000Z</time>
</trkpt>
<trkpt lat="46.1099520" lon="10.5210370">
	<ele>2303.80</ele>
	<time>2023-08-07T05:55:32.000Z</time>
</trkpt>
<trkpt lat="46.1099570" lon="10.5210320">
	<ele>2304.00</ele>
	<time>2023-08-07T05:55:33.000Z</time>
</trkpt>
<trkpt lat="46.1099600" lon="10.5210260">
	<ele>2304.00</ele>
	<time>2023-08-07T05:55:34.000Z</time>
</trkpt>
<trkpt lat="46.1099620" lon="10.5210220">
	<ele>2304.20</ele>
	<time>2023-08-07T05:55:35.000Z</time>
</trkpt>
<trkpt lat="46.1099640" lon="10.5210180">
	<ele>2304.40</ele>
	<time>2023-08-07T05:55:36.000Z</time>
</trkpt>
<trkpt lat="46.1099650" lon="10.5210150">
	<ele>2304.40</ele>
	<time>2023-08-07T05:55:37.000Z</time>
</trkpt>
<trkpt lat="46.1099690" lon="10.5210110">
	<ele>2304.40</ele>
	<time>2023-08-07T05:55:38.000Z</time>
</trkpt>
<trkpt lat="46.1099720" lon="10.5210070">
	<ele>2304.40</ele>
	<time>2023-08-07T05:55:39.000Z</time>
</trkpt>
<trkpt lat="46.1099750" lon="10.5210030">
	<ele>2304.40</ele>
	<time>2023-08-07T05:55:40.000Z</time>
</trkpt>
<trkpt lat="46.1099780" lon="10.5209980">
	<ele>2304.40</ele>
	<time>2023-08-07T05:55:41.000Z</time>
</trkpt>
<trkpt lat="46.1099810" lon="10.5209960">
	<ele>2304.40</ele>
	<time>2023-08-07T05:55:42.000Z</time>
</trkpt>
<trkpt lat="46.1099830" lon="10.5209910">
	<ele>2304.40</ele>
	<time>2023-08-07T05:55:43.000Z</time>
</trkpt>
<trkpt lat="46.1099870" lon="10.5209870">
	<ele>2304.60</ele>
	<time>2023-08-07T05:55:44.000Z</time>
</trkpt>
<trkpt lat="46.1099890" lon="10.5209820">
	<ele>2304.80</ele>
	<time>2023-08-07T05:55:45.000Z</time>
</trkpt>
<trkpt lat="46.1099900" lon="10.5209760">
	<ele>2304.80</ele>
	<time>2023-08-07T05:55:46.000Z</time>
</trkpt>
<trkpt lat="46.1099910" lon="10.5209700">
	<ele>2305.20</ele>
	<time>2023-08-07T05:55:47.000Z</time>
</trkpt>
<trkpt lat="46.1099910" lon="10.5209670">
	<ele>2305.60</ele>
	<time>2023-08-07T05:55:48.000Z</time>
</trkpt>
<trkpt lat="46.1099930" lon="10.5209620">
	<ele>2305.60</ele>
	<time>2023-08-07T05:55:49.000Z</time>
</trkpt>
<trkpt lat="46.1099930" lon="10.5209600">
	<ele>2305.80</ele>
	<time>2023-08-07T05:55:50.000Z</time>
</trkpt>
<trkpt lat="46.1099930" lon="10.5209580">
	<ele>2305.80</ele>
	<time>2023-08-07T05:55:51.000Z</time>
</trkpt>
<trkpt lat="46.1099930" lon="10.5209560">
	<ele>2306.00</ele>
	<time>2023-08-07T05:55:52.000Z</time>
</trkpt>
<trkpt lat="46.1099930" lon="10.5209530">
	<ele>2306.00</ele>
	<time>2023-08-07T05:55:53.000Z</time>
</trkpt>
<trkpt lat="46.1099930" lon="10.5209500">
	<ele>2306.20</ele>
	<time>2023-08-07T05:55:54.000Z</time>
</trkpt>
<trkpt lat="46.1099930" lon="10.5209460">
	<ele>2306.40</ele>
	<time>2023-08-07T05:55:55.000Z</time>
</trkpt>
<trkpt lat="46.1099930" lon="10.5209430">
	<ele>2306.40</ele>
	<time>2023-08-07T05:55:56.000Z</time>
</trkpt>
<trkpt lat="46.1099930" lon="10.5209390">
	<ele>2306.60</ele>
	<time>2023-08-07T05:55:57.000Z</time>
</trkpt>
<trkpt lat="46.1099930" lon="10.5209350">
	<ele>2306.80</ele>
	<time>2023-08-07T05:55:58.000Z</time>
</trkpt>
<trkpt lat="46.1099930" lon="10.5209320">
	<ele>2306.80</ele>
	<time>2023-08-07T05:55:59.000Z</time>
</trkpt>
<trkpt lat="46.1099920" lon="10.5209240">
	<ele>2306.80</ele>
	<time>2023-08-07T05:56:00.000Z</time>
</trkpt>
<trkpt lat="46.1099890" lon="10.5209110">
	<ele>2307.00</ele>
	<time>2023-08-07T05:56:01.000Z</time>
</trkpt>
<trkpt lat="46.1099870" lon="10.5209000">
	<ele>2307.20</ele>
	<time>2023-08-07T05:56:02.000Z</time>
</trkpt>
<trkpt lat="46.1099810" lon="10.5208900">
	<ele>2307.40</ele>
	<time>2023-08-07T05:56:03.000Z</time>
</trkpt>
<trkpt lat="46.1099790" lon="10.5208790">
	<ele>2307.40</ele>
	<time>2023-08-07T05:56:04.000Z</time>
</trkpt>
<trkpt lat="46.1099790" lon="10.5208670">
	<ele>2307.60</ele>
	<time>2023-08-07T05:56:05.000Z</time>
</trkpt>
<trkpt lat="46.1099790" lon="10.5208520">
	<ele>2307.80</ele>
	<time>2023-08-07T05:56:06.000Z</time>
</trkpt>
<trkpt lat="46.1099780" lon="10.5208370">
	<ele>2307.80</ele>
	<time>2023-08-07T05:56:07.000Z</time>
</trkpt>
<trkpt lat="46.1099770" lon="10.5208240">
	<ele>2308.00</ele>
	<time>2023-08-07T05:56:08.000Z</time>
</trkpt>
<trkpt lat="46.1099770" lon="10.5208140">
	<ele>2308.20</ele>
	<time>2023-08-07T05:56:09.000Z</time>
</trkpt>
<trkpt lat="46.1099810" lon="10.5208110">
	<ele>2308.20</ele>
	<time>2023-08-07T05:56:10.000Z</time>
</trkpt>
<trkpt lat="46.1099820" lon="10.5208110">
	<ele>2308.40</ele>
	<time>2023-08-07T05:56:11.000Z</time>
</trkpt>
<trkpt lat="46.1099820" lon="10.5208100">
	<ele>2308.60</ele>
	<time>2023-08-07T05:56:12.000Z</time>
</trkpt>
<trkpt lat="46.1099810" lon="10.5208080">
	<ele>2308.80</ele>
	<time>2023-08-07T05:56:13.000Z</time>
</trkpt>
<trkpt lat="46.1099800" lon="10.5208050">
	<ele>2309.00</ele>
	<time>2023-08-07T05:56:14.000Z</time>
</trkpt>
<trkpt lat="46.1099790" lon="10.5208020">
	<ele>2309.40</ele>
	<time>2023-08-07T05:56:15.000Z</time>
</trkpt>
<trkpt lat="46.1099780" lon="10.5208010">
	<ele>2309.60</ele>
	<time>2023-08-07T05:56:16.000Z</time>
</trkpt>
<trkpt lat="46.1099760" lon="10.5207990">
	<ele>2309.80</ele>
	<time>2023-08-07T05:56:17.000Z</time>
</trkpt>
<trkpt lat="46.1099760" lon="10.5207960">
	<ele>2309.80</ele>
	<time>2023-08-07T05:56:18.000Z</time>
</trkpt>
<trkpt lat="46.1099760" lon="10.5207900">
	<ele>2310.00</ele>
	<time>2023-08-07T05:56:19.000Z</time>
</trkpt>
<trkpt lat="46.1099760" lon="10.5207880">
	<ele>2310.20</ele>
	<time>2023-08-07T05:56:20.000Z</time>
</trkpt>
<trkpt lat="46.1099760" lon="10.5207870">
	<ele>2310.40</ele>
	<time>2023-08-07T05:56:21.000Z</time>
</trkpt>
<trkpt lat="46.1099770" lon="10.5207870">
	<ele>2310.60</ele>
	<time>2023-08-07T05:56:22.000Z</time>
</trkpt>
<trkpt lat="46.1099760" lon="10.5207860">
	<ele>2310.60</ele>
	<time>2023-08-07T05:56:23.000Z</time>
</trkpt>
<trkpt lat="46.1099760" lon="10.5207860">
	<ele>2310.80</ele>
	<time>2023-08-07T05:56:24.000Z</time>
</trkpt>
<trkpt lat="46.1099760" lon="10.5207860">
	<ele>2310.80</ele>
	<time>2023-08-07T05:56:25.000Z</time>
</trkpt>
<trkpt lat="46.1099760" lon="10.5207860">
	<ele>2311.00</ele>
	<time>2023-08-07T05:56:26.000Z</time>
</trkpt>
<trkpt lat="46.1099760" lon="10.5207860">
	<ele>2311.00</ele>
	<time>2023-08-07T05:56:27.000Z</time>
</trkpt>
<trkpt lat="46.1099760" lon="10.5207860">
	<ele>2311.00</ele>
	<time>2023-08-07T05:56:28.000Z</time>
</trkpt>
<trkpt lat="46.1099760" lon="10.5207860">
	<ele>2311.00</ele>
	<time>2023-08-07T05:56:29.000Z</time>
</trkpt>
<trkpt lat="46.1099760" lon="10.5207860">
	<ele>2311.00</ele>
	<time>2023-08-07T05:56:30.000Z</time>
</trkpt>
<trkpt lat="46.1099760" lon="10.5207860">
	<ele>2311.00</ele>
	<time>2023-08-07T05:56:31.000Z</time>
</trkpt>
<trkpt lat="46.1099760" lon="10.5207860">
	<ele>2311.20</ele>
	<time>2023-08-07T05:56:32.000Z</time>
</trkpt>
<trkpt lat="46.1099760" lon="10.5207860">
	<ele>2311.20</ele>
	<time>2023-08-07T05:56:33.000Z</time>
</trkpt>
<trkpt lat="46.1099760" lon="10.5207860">
	<ele>2311.60</ele>
	<time>2023-08-07T05:56:34.000Z</time>
</trkpt>
<trkpt lat="46.1099760" lon="10.5207860">
	<ele>2311.80</ele>
	<time>2023-08-07T05:56:35.000Z</time>
</trkpt>
<trkpt lat="46.1099760" lon="10.5207860">
	<ele>2311.80</ele>
	<time>2023-08-07T05:56:36.000Z</time>
</trkpt>
<trkpt lat="46.1099760" lon="10.5207860">
	<ele>2312.00</ele>
	<time>2023-08-07T05:56:37.000Z</time>
</trkpt>
<trkpt lat="46.1099760" lon="10.5207860">
	<ele>2312.00</ele>
	<time>2023-08-07T05:56:38.000Z</time>
</trkpt>
<trkpt lat="46.1099760" lon="10.5207860">
	<ele>2312.20</ele>
	<time>2023-08-07T05:56:39.000Z</time>
</trkpt>
<trkpt lat="46.1099750" lon="10.5207850">
	<ele>2312.20</ele>
	<time>2023-08-07T05:56:40.000Z</time>
</trkpt>
<trkpt lat="46.1099710" lon="10.5207820">
	<ele>2312.20</ele>
	<time>2023-08-07T05:56:41.000Z</time>
</trkpt>
<trkpt lat="46.1099650" lon="10.5207790">
	<ele>2312.20</ele>
	<time>2023-08-07T05:56:42.000Z</time>
</trkpt>
<trkpt lat="46.1099580" lon="10.5207760">
	<ele>2312.20</ele>
	<time>2023-08-07T05:56:43.000Z</time>
</trkpt>
<trkpt lat="46.1099560" lon="10.5207660">
	<ele>2312.20</ele>
	<time>2023-08-07T05:56:44.000Z</time>
</trkpt>
<trkpt lat="46.1099570" lon="10.5207510">
	<ele>2312.40</ele>
	<time>2023-08-07T05:56:45.000Z</time>
</trkpt>
<trkpt lat="46.1099580" lon="10.5207370">
	<ele>2312.80</ele>
	<time>2023-08-07T05:56:46.000Z</time>
</trkpt>
<trkpt lat="46.1099580" lon="10.5207260">
	<ele>2313.00</ele>
	<time>2023-08-07T05:56:47.000Z</time>
</trkpt>
<trkpt lat="46.1099620" lon="10.5207180">
	<ele>2313.20</ele>
	<time>2023-08-07T05:56:48.000Z</time>
</trkpt>
<trkpt lat="46.1099620" lon="10.5207090">
	<ele>2313.40</ele>
	<time>2023-08-07T05:56:49.000Z</time>
</trkpt>
<trkpt lat="46.1099590" lon="10.5206960">
	<ele>2313.60</ele>
	<time>2023-08-07T05:56:50.000Z</time>
</trkpt>
<trkpt lat="46.1099550" lon="10.5206790">
	<ele>2313.80</ele>
	<time>2023-08-07T05:56:51.000Z</time>
</trkpt>
<trkpt lat="46.1099570" lon="10.5206630">
	<ele>2313.80</ele>
	<time>2023-08-07T05:56:52.000Z</time>
</trkpt>
<trkpt lat="46.1099580" lon="10.5206470">
	<ele>2314.20</ele>
	<time>2023-08-07T05:56:53.000Z</time>
</trkpt>
<trkpt lat="46.1099590" lon="10.5206430">
	<ele>2314.40</ele>
	<time>2023-08-07T05:56:54.000Z</time>
</trkpt>
<trkpt lat="46.1099580" lon="10.5206400">
	<ele>2314.60</ele>
	<time>2023-08-07T05:56:55.000Z</time>
</trkpt>
<trkpt lat="46.1099580" lon="10.5206360">
	<ele>2314.60</ele>
	<time>2023-08-07T05:56:56.000Z</time>
</trkpt>
<trkpt lat="46.1099570" lon="10.5206320">
	<ele>2314.80</ele>
	<time>2023-08-07T05:56:57.000Z</time>
</trkpt>
<trkpt lat="46.1099560" lon="10.5206290">
	<ele>2315.00</ele>
	<time>2023-08-07T05:56:58.000Z</time>
</trkpt>
<trkpt lat="46.1099530" lon="10.5206270">
	<ele>2315.20</ele>
	<time>2023-08-07T05:56:59.000Z</time>
</trkpt>
<trkpt lat="46.1099500" lon="10.5206210">
	<ele>2315.20</ele>
	<time>2023-08-07T05:57:00.000Z</time>
</trkpt>
<trkpt lat="46.1099470" lon="10.5206160">
	<ele>2315.20</ele>
	<time>2023-08-07T05:57:01.000Z</time>
</trkpt>
<trkpt lat="46.1099440" lon="10.5206130">
	<ele>2315.40</ele>
	<time>2023-08-07T05:57:02.000Z</time>
</trkpt>
<trkpt lat="46.1099440" lon="10.5206060">
	<ele>2315.40</ele>
	<time>2023-08-07T05:57:03.000Z</time>
</trkpt>
<trkpt lat="46.1099480" lon="10.5206020">
	<ele>2315.60</ele>
	<time>2023-08-07T05:57:04.000Z</time>
</trkpt>
<trkpt lat="46.1099490" lon="10.5205950">
	<ele>2315.80</ele>
	<time>2023-08-07T05:57:05.000Z</time>
</trkpt>
<trkpt lat="46.1099510" lon="10.5205900">
	<ele>2316.20</ele>
	<time>2023-08-07T05:57:06.000Z</time>
</trkpt>
<trkpt lat="46.1099510" lon="10.5205860">
	<ele>2316.40</ele>
	<time>2023-08-07T05:57:07.000Z</time>
</trkpt>
<trkpt lat="46.1099510" lon="10.5205840">
	<ele>2316.40</ele>
	<time>2023-08-07T05:57:08.000Z</time>
</trkpt>
<trkpt lat="46.1099510" lon="10.5205840">
	<ele>2316.80</ele>
	<time>2023-08-07T05:57:09.000Z</time>
</trkpt>
<trkpt lat="46.1099510" lon="10.5205840">
	<ele>2316.80</ele>
	<time>2023-08-07T05:57:10.000Z</time>
</trkpt>
<trkpt lat="46.1099510" lon="10.5205840">
	<ele>2317.00</ele>
	<time>2023-08-07T05:57:11.000Z</time>
</trkpt>
<trkpt lat="46.1099510" lon="10.5205840">
	<ele>2316.80</ele>
	<time>2023-08-07T05:57:12.000Z</time>
</trkpt>
<trkpt lat="46.1099510" lon="10.5205840">
	<ele>2316.80</ele>
	<time>2023-08-07T05:57:13.000Z</time>
</trkpt>
<trkpt lat="46.1099510" lon="10.5205840">
	<ele>2316.80</ele>
	<time>2023-08-07T05:57:14.000Z</time>
</trkpt>
<trkpt lat="46.1099510" lon="10.5205840">
	<ele>2316.80</ele>
	<time>2023-08-07T05:57:15.000Z</time>
</trkpt>
<trkpt lat="46.1099510" lon="10.5205840">
	<ele>2316.80</ele>
	<time>2023-08-07T05:57:16.000Z</time>
</trkpt>
<trkpt lat="46.1099510" lon="10.5205840">
	<ele>2317.00</ele>
	<time>2023-08-07T05:57:17.000Z</time>
</trkpt>
<trkpt lat="46.1099500" lon="10.5205840">
	<ele>2317.20</ele>
	<time>2023-08-07T05:57:18.000Z</time>
</trkpt>
<trkpt lat="46.1099490" lon="10.5205840">
	<ele>2317.40</ele>
	<time>2023-08-07T05:57:19.000Z</time>
</trkpt>
<trkpt lat="46.1099480" lon="10.5205840">
	<ele>2317.40</ele>
	<time>2023-08-07T05:57:20.000Z</time>
</trkpt>
<trkpt lat="46.1099470" lon="10.5205840">
	<ele>2317.60</ele>
	<time>2023-08-07T05:57:21.000Z</time>
</trkpt>
<trkpt lat="46.1099460" lon="10.5205840">
	<ele>2317.80</ele>
	<time>2023-08-07T05:57:22.000Z</time>
</trkpt>
<trkpt lat="46.1099460" lon="10.5205840">
	<ele>2318.00</ele>
	<time>2023-08-07T05:57:23.000Z</time>
</trkpt>
<trkpt lat="46.1099460" lon="10.5205760">
	<ele>2318.20</ele>
	<time>2023-08-07T05:57:24.000Z</time>
</trkpt>
<trkpt lat="46.1099460" lon="10.5205730">
	<ele>2318.20</ele>
	<time>2023-08-07T05:57:25.000Z</time>
</trkpt>
<trkpt lat="46.1099460" lon="10.5205710">
	<ele>2318.40</ele>
	<time>2023-08-07T05:57:26.000Z</time>
</trkpt>
<trkpt lat="46.1099460" lon="10.5205700">
	<ele>2318.40</ele>
	<time>2023-08-07T05:57:27.000Z</time>
</trkpt>
<trkpt lat="46.1099460" lon="10.5205630">
	<ele>2318.40</ele>
	<time>2023-08-07T05:57:28.000Z</time>
</trkpt>
<trkpt lat="46.1099460" lon="10.5205560">
	<ele>2318.60</ele>
	<time>2023-08-07T05:57:29.000Z</time>
</trkpt>
<trkpt lat="46.1099460" lon="10.5205510">
	<ele>2318.60</ele>
	<time>2023-08-07T05:57:30.000Z</time>
</trkpt>
<trkpt lat="46.1099460" lon="10.5205480">
	<ele>2318.80</ele>
	<time>2023-08-07T05:57:31.000Z</time>
</trkpt>
<trkpt lat="46.1099470" lon="10.5205450">
	<ele>2318.80</ele>
	<time>2023-08-07T05:57:32.000Z</time>
</trkpt>
<trkpt lat="46.1099480" lon="10.5205410">
	<ele>2319.00</ele>
	<time>2023-08-07T05:57:33.000Z</time>
</trkpt>
<trkpt lat="46.1099490" lon="10.5205360">
	<ele>2319.20</ele>
	<time>2023-08-07T05:57:34.000Z</time>
</trkpt>
<trkpt lat="46.1099500" lon="10.5205330">
	<ele>2319.40</ele>
	<time>2023-08-07T05:57:35.000Z</time>
</trkpt>
<trkpt lat="46.1099510" lon="10.5205300">
	<ele>2319.60</ele>
	<time>2023-08-07T05:57:36.000Z</time>
</trkpt>
<trkpt lat="46.1099510" lon="10.5205290">
	<ele>2319.60</ele>
	<time>2023-08-07T05:57:37.000Z</time>
</trkpt>
<trkpt lat="46.1099510" lon="10.5205270">
	<ele>2319.60</ele>
	<time>2023-08-07T05:57:38.000Z</time>
</trkpt>
<trkpt lat="46.1099560" lon="10.5205260">
	<ele>2319.60</ele>
	<time>2023-08-07T05:57:39.000Z</time>
</trkpt>
<trkpt lat="46.1099610" lon="10.5205240">
	<ele>2319.80</ele>
	<time>2023-08-07T05:57:40.000Z</time>
</trkpt>
<trkpt lat="46.1099610" lon="10.5205200">
	<ele>2319.80</ele>
	<time>2023-08-07T05:57:41.000Z</time>
</trkpt>
<trkpt lat="46.1099620" lon="10.5205160">
	<ele>2319.80</ele>
	<time>2023-08-07T05:57:42.000Z</time>
</trkpt>
<trkpt lat="46.1099630" lon="10.5205110">
	<ele>2319.80</ele>
	<time>2023-08-07T05:57:43.000Z</time>
</trkpt>
<trkpt lat="46.1099650" lon="10.5205070">
	<ele>2320.00</ele>
	<time>2023-08-07T05:57:44.000Z</time>
</trkpt>
<trkpt lat="46.1099690" lon="10.5205030">
	<ele>2320.00</ele>
	<time>2023-08-07T05:57:45.000Z</time>
</trkpt>
<trkpt lat="46.1099720" lon="10.5205010">
	<ele>2320.20</ele>
	<time>2023-08-07T05:57:46.000Z</time>
</trkpt>
<trkpt lat="46.1099750" lon="10.5204970">
	<ele>2320.40</ele>
	<time>2023-08-07T05:57:47.000Z</time>
</trkpt>
<trkpt lat="46.1099790" lon="10.5204930">
	<ele>2320.40</ele>
	<time>2023-08-07T05:57:48.000Z</time>
</trkpt>
<trkpt lat="46.1099840" lon="10.5204890">
	<ele>2320.40</ele>
	<time>2023-08-07T05:57:49.000Z</time>
</trkpt>
<trkpt lat="46.1099880" lon="10.5204840">
	<ele>2320.60</ele>
	<time>2023-08-07T05:57:50.000Z</time>
</trkpt>
<trkpt lat="46.1099900" lon="10.5204810">
	<ele>2320.60</ele>
	<time>2023-08-07T05:57:51.000Z</time>
</trkpt>
<trkpt lat="46.1099900" lon="10.5204800">
	<ele>2320.80</ele>
	<time>2023-08-07T05:57:52.000Z</time>
</trkpt>
<trkpt lat="46.1099900" lon="10.5204780">
	<ele>2320.80</ele>
	<time>2023-08-07T05:57:53.000Z</time>
</trkpt>
<trkpt lat="46.1099910" lon="10.5204720">
	<ele>2321.00</ele>
	<time>2023-08-07T05:57:54.000Z</time>
</trkpt>
<trkpt lat="46.1099930" lon="10.5204660">
	<ele>2321.00</ele>
	<time>2023-08-07T05:57:55.000Z</time>
</trkpt>
<trkpt lat="46.1099980" lon="10.5204590">
	<ele>2321.20</ele>
	<time>2023-08-07T05:57:56.000Z</time>
</trkpt>
<trkpt lat="46.1100030" lon="10.5204550">
	<ele>2321.40</ele>
	<time>2023-08-07T05:57:57.000Z</time>
</trkpt>
<trkpt lat="46.1100060" lon="10.5204550">
	<ele>2321.40</ele>
	<time>2023-08-07T05:57:58.000Z</time>
</trkpt>
<trkpt lat="46.1100090" lon="10.5204540">
	<ele>2321.60</ele>
	<time>2023-08-07T05:57:59.000Z</time>
</trkpt>
<trkpt lat="46.1100120" lon="10.5204530">
	<ele>2321.60</ele>
	<time>2023-08-07T05:58:00.000Z</time>
</trkpt>
<trkpt lat="46.1100130" lon="10.5204530">
	<ele>2321.60</ele>
	<time>2023-08-07T05:58:01.000Z</time>
</trkpt>
<trkpt lat="46.1100130" lon="10.5204500">
	<ele>2321.60</ele>
	<time>2023-08-07T05:58:02.000Z</time>
</trkpt>
<trkpt lat="46.1100130" lon="10.5204480">
	<ele>2321.80</ele>
	<time>2023-08-07T05:58:03.000Z</time>
</trkpt>
<trkpt lat="46.1100140" lon="10.5204430">
	<ele>2321.80</ele>
	<time>2023-08-07T05:58:04.000Z</time>
</trkpt>
<trkpt lat="46.1100140" lon="10.5204370">
	<ele>2322.00</ele>
	<time>2023-08-07T05:58:05.000Z</time>
</trkpt>
<trkpt lat="46.1100150" lon="10.5204310">
	<ele>2322.20</ele>
	<time>2023-08-07T05:58:06.000Z</time>
</trkpt>
<trkpt lat="46.1100150" lon="10.5204250">
	<ele>2322.20</ele>
	<time>2023-08-07T05:58:07.000Z</time>
</trkpt>
<trkpt lat="46.1100160" lon="10.5204200">
	<ele>2322.40</ele>
	<time>2023-08-07T05:58:08.000Z</time>
</trkpt>
<trkpt lat="46.1100200" lon="10.5204150">
	<ele>2322.40</ele>
	<time>2023-08-07T05:58:09.000Z</time>
</trkpt>
<trkpt lat="46.1100210" lon="10.5204110">
	<ele>2322.40</ele>
	<time>2023-08-07T05:58:10.000Z</time>
</trkpt>
<trkpt lat="46.1100220" lon="10.5204080">
	<ele>2322.40</ele>
	<time>2023-08-07T05:58:11.000Z</time>
</trkpt>
<trkpt lat="46.1100220" lon="10.5204050">
	<ele>2322.60</ele>
	<time>2023-08-07T05:58:12.000Z</time>
</trkpt>
<trkpt lat="46.1100220" lon="10.5203970">
	<ele>2322.80</ele>
	<time>2023-08-07T05:58:13.000Z</time>
</trkpt>
<trkpt lat="46.1100220" lon="10.5203920">
	<ele>2323.00</ele>
	<time>2023-08-07T05:58:14.000Z</time>
</trkpt>
<trkpt lat="46.1100230" lon="10.5203880">
	<ele>2323.00</ele>
	<time>2023-08-07T05:58:15.000Z</time>
</trkpt>
<trkpt lat="46.1100240" lon="10.5203840">
	<ele>2323.20</ele>
	<time>2023-08-07T05:58:16.000Z</time>
</trkpt>
<trkpt lat="46.1100270" lon="10.5203820">
	<ele>2323.40</ele>
	<time>2023-08-07T05:58:17.000Z</time>
</trkpt>
<trkpt lat="46.1100300" lon="10.5203810">
	<ele>2323.40</ele>
	<time>2023-08-07T05:58:18.000Z</time>
</trkpt>
<trkpt lat="46.1100330" lon="10.5203810">
	<ele>2323.60</ele>
	<time>2023-08-07T05:58:19.000Z</time>
</trkpt>
<trkpt lat="46.1100370" lon="10.5203810">
	<ele>2323.80</ele>
	<time>2023-08-07T05:58:20.000Z</time>
</trkpt>
<trkpt lat="46.1100380" lon="10.5203800">
	<ele>2323.80</ele>
	<time>2023-08-07T05:58:21.000Z</time>
</trkpt>
<trkpt lat="46.1100390" lon="10.5203790">
	<ele>2324.00</ele>
	<time>2023-08-07T05:58:22.000Z</time>
</trkpt>
<trkpt lat="46.1100420" lon="10.5203790">
	<ele>2324.00</ele>
	<time>2023-08-07T05:58:23.000Z</time>
</trkpt>
<trkpt lat="46.1100440" lon="10.5203780">
	<ele>2324.20</ele>
	<time>2023-08-07T05:58:24.000Z</time>
</trkpt>
<trkpt lat="46.1100450" lon="10.5203750">
	<ele>2324.40</ele>
	<time>2023-08-07T05:58:25.000Z</time>
</trkpt>
<trkpt lat="46.1100470" lon="10.5203700">
	<ele>2324.60</ele>
	<time>2023-08-07T05:58:26.000Z</time>
</trkpt>
<trkpt lat="46.1100480" lon="10.5203640">
	<ele>2324.80</ele>
	<time>2023-08-07T05:58:27.000Z</time>
</trkpt>
<trkpt lat="46.1100490" lon="10.5203610">
	<ele>2325.00</ele>
	<time>2023-08-07T05:58:28.000Z</time>
</trkpt>
<trkpt lat="46.1100510" lon="10.5203600">
	<ele>2325.20</ele>
	<time>2023-08-07T05:58:29.000Z</time>
</trkpt>
<trkpt lat="46.1100530" lon="10.5203590">
	<ele>2325.20</ele>
	<time>2023-08-07T05:58:30.000Z</time>
</trkpt>
<trkpt lat="46.1100540" lon="10.5203560">
	<ele>2325.40</ele>
	<time>2023-08-07T05:58:31.000Z</time>
</trkpt>
<trkpt lat="46.1100560" lon="10.5203540">
	<ele>2325.60</ele>
	<time>2023-08-07T05:58:32.000Z</time>
</trkpt>
<trkpt lat="46.1100570" lon="10.5203510">
	<ele>2325.60</ele>
	<time>2023-08-07T05:58:33.000Z</time>
</trkpt>
<trkpt lat="46.1100580" lon="10.5203490">
	<ele>2325.80</ele>
	<time>2023-08-07T05:58:34.000Z</time>
</trkpt>
<trkpt lat="46.1100590" lon="10.5203450">
	<ele>2326.00</ele>
	<time>2023-08-07T05:58:35.000Z</time>
</trkpt>
<trkpt lat="46.1100600" lon="10.5203400">
	<ele>2326.20</ele>
	<time>2023-08-07T05:58:36.000Z</time>
</trkpt>
<trkpt lat="46.1100600" lon="10.5203360">
	<ele>2326.20</ele>
	<time>2023-08-07T05:58:37.000Z</time>
</trkpt>
<trkpt lat="46.1100610" lon="10.5203330">
	<ele>2326.40</ele>
	<time>2023-08-07T05:58:38.000Z</time>
</trkpt>
<trkpt lat="46.1100610" lon="10.5203320">
	<ele>2326.40</ele>
	<time>2023-08-07T05:58:39.000Z</time>
</trkpt>
<trkpt lat="46.1100620" lon="10.5203300">
	<ele>2326.60</ele>
	<time>2023-08-07T05:58:40.000Z</time>
</trkpt>
<trkpt lat="46.1100620" lon="10.5203250">
	<ele>2326.80</ele>
	<time>2023-08-07T05:58:41.000Z</time>
</trkpt>
<trkpt lat="46.1100620" lon="10.5203200">
	<ele>2326.80</ele>
	<time>2023-08-07T05:58:42.000Z</time>
</trkpt>
<trkpt lat="46.1100620" lon="10.5203170">
	<ele>2327.20</ele>
	<time>2023-08-07T05:58:43.000Z</time>
</trkpt>
<trkpt lat="46.1100630" lon="10.5203130">
	<ele>2327.40</ele>
	<time>2023-08-07T05:58:44.000Z</time>
</trkpt>
<trkpt lat="46.1100630" lon="10.5203100">
	<ele>2327.60</ele>
	<time>2023-08-07T05:58:45.000Z</time>
</trkpt>
<trkpt lat="46.1100640" lon="10.5203080">
	<ele>2327.60</ele>
	<time>2023-08-07T05:58:46.000Z</time>
</trkpt>
<trkpt lat="46.1100640" lon="10.5203060">
	<ele>2327.80</ele>
	<time>2023-08-07T05:58:47.000Z</time>
</trkpt>
<trkpt lat="46.1100640" lon="10.5203020">
	<ele>2327.80</ele>
	<time>2023-08-07T05:58:48.000Z</time>
</trkpt>
<trkpt lat="46.1100650" lon="10.5202990">
	<ele>2327.80</ele>
	<time>2023-08-07T05:58:49.000Z</time>
</trkpt>
<trkpt lat="46.1100660" lon="10.5202960">
	<ele>2328.00</ele>
	<time>2023-08-07T05:58:50.000Z</time>
</trkpt>
<trkpt lat="46.1100680" lon="10.5202920">
	<ele>2328.20</ele>
	<time>2023-08-07T05:58:51.000Z</time>
</trkpt>
<trkpt lat="46.1100690" lon="10.5202900">
	<ele>2328.40</ele>
	<time>2023-08-07T05:58:52.000Z</time>
</trkpt>
<trkpt lat="46.1100710" lon="10.5202880">
	<ele>2328.60</ele>
	<time>2023-08-07T05:58:53.000Z</time>
</trkpt>
<trkpt lat="46.1100720" lon="10.5202860">
	<ele>2328.80</ele>
	<time>2023-08-07T05:58:54.000Z</time>
</trkpt>
<trkpt lat="46.1100740" lon="10.5202850">
	<ele>2329.00</ele>
	<time>2023-08-07T05:58:55.000Z</time>
</trkpt>
<trkpt lat="46.1100760" lon="10.5202830">
	<ele>2329.00</ele>
	<time>2023-08-07T05:58:56.000Z</time>
</trkpt>
<trkpt lat="46.1100780" lon="10.5202800">
	<ele>2329.20</ele>
	<time>2023-08-07T05:58:57.000Z</time>
</trkpt>
<trkpt lat="46.1100790" lon="10.5202770">
	<ele>2329.80</ele>
	<time>2023-08-07T05:58:58.000Z</time>
</trkpt>
<trkpt lat="46.1100800" lon="10.5202740">
	<ele>2330.00</ele>
	<time>2023-08-07T05:58:59.000Z</time>
</trkpt>
<trkpt lat="46.1100810" lon="10.5202710">
	<ele>2330.40</ele>
	<time>2023-08-07T05:59:00.000Z</time>
</trkpt>
<trkpt lat="46.1100810" lon="10.5202700">
	<ele>2330.60</ele>
	<time>2023-08-07T05:59:01.000Z</time>
</trkpt>
<trkpt lat="46.1100820" lon="10.5202670">
	<ele>2330.80</ele>
	<time>2023-08-07T05:59:02.000Z</time>
</trkpt>
<trkpt lat="46.1100820" lon="10.5202640">
	<ele>2330.80</ele>
	<time>2023-08-07T05:59:03.000Z</time>
</trkpt>
<trkpt lat="46.1100840" lon="10.5202620">
	<ele>2331.00</ele>
	<time>2023-08-07T05:59:04.000Z</time>
</trkpt>
<trkpt lat="46.1100850" lon="10.5202580">
	<ele>2331.20</ele>
	<time>2023-08-07T05:59:05.000Z</time>
</trkpt>
<trkpt lat="46.1100850" lon="10.5202530">
	<ele>2331.40</ele>
	<time>2023-08-07T05:59:06.000Z</time>
</trkpt>
<trkpt lat="46.1100850" lon="10.5202490">
	<ele>2331.40</ele>
	<time>2023-08-07T05:59:07.000Z</time>
</trkpt>
<trkpt lat="46.1100850" lon="10.5202450">
	<ele>2331.60</ele>
	<time>2023-08-07T05:59:08.000Z</time>
</trkpt>
<trkpt lat="46.1100850" lon="10.5202410">
	<ele>2331.80</ele>
	<time>2023-08-07T05:59:09.000Z</time>
</trkpt>
<trkpt lat="46.1100860" lon="10.5202360">
	<ele>2331.80</ele>
	<time>2023-08-07T05:59:10.000Z</time>
</trkpt>
<trkpt lat="46.1100860" lon="10.5202310">
	<ele>2331.80</ele>
	<time>2023-08-07T05:59:11.000Z</time>
</trkpt>
<trkpt lat="46.1100860" lon="10.5202270">
	<ele>2332.00</ele>
	<time>2023-08-07T05:59:12.000Z</time>
</trkpt>
<trkpt lat="46.1100860" lon="10.5202240">
	<ele>2332.00</ele>
	<time>2023-08-07T05:59:13.000Z</time>
</trkpt>
<trkpt lat="46.1100860" lon="10.5202210">
	<ele>2332.00</ele>
	<time>2023-08-07T05:59:14.000Z</time>
</trkpt>
<trkpt lat="46.1100860" lon="10.5202190">
	<ele>2332.20</ele>
	<time>2023-08-07T05:59:15.000Z</time>
</trkpt>
<trkpt lat="46.1100860" lon="10.5202170">
	<ele>2332.20</ele>
	<time>2023-08-07T05:59:16.000Z</time>
</trkpt>
<trkpt lat="46.1100860" lon="10.5202170">
	<ele>2332.40</ele>
	<time>2023-08-07T05:59:17.000Z</time>
</trkpt>
<trkpt lat="46.1100860" lon="10.5202160">
	<ele>2332.40</ele>
	<time>2023-08-07T05:59:18.000Z</time>
</trkpt>
<trkpt lat="46.1100850" lon="10.5202150">
	<ele>2332.60</ele>
	<time>2023-08-07T05:59:19.000Z</time>
</trkpt>
<trkpt lat="46.1100840" lon="10.5202120">
	<ele>2332.80</ele>
	<time>2023-08-07T05:59:20.000Z</time>
</trkpt>
<trkpt lat="46.1100830" lon="10.5202090">
	<ele>2333.00</ele>
	<time>2023-08-07T05:59:21.000Z</time>
</trkpt>
<trkpt lat="46.1100820" lon="10.5202040">
	<ele>2333.40</ele>
	<time>2023-08-07T05:59:22.000Z</time>
</trkpt>
<trkpt lat="46.1100810" lon="10.5202010">
	<ele>2333.60</ele>
	<time>2023-08-07T05:59:23.000Z</time>
</trkpt>
<trkpt lat="46.1100810" lon="10.5201970">
	<ele>2333.60</ele>
	<time>2023-08-07T05:59:24.000Z</time>
</trkpt>
<trkpt lat="46.1100800" lon="10.5201940">
	<ele>2333.80</ele>
	<time>2023-08-07T05:59:25.000Z</time>
</trkpt>
<trkpt lat="46.1100800" lon="10.5201910">
	<ele>2333.80</ele>
	<time>2023-08-07T05:59:26.000Z</time>
</trkpt>
<trkpt lat="46.1100800" lon="10.5201880">
	<ele>2333.80</ele>
	<time>2023-08-07T05:59:27.000Z</time>
</trkpt>
<trkpt lat="46.1100800" lon="10.5201860">
	<ele>2334.40</ele>
	<time>2023-08-07T05:59:28.000Z</time>
</trkpt>
<trkpt lat="46.1100800" lon="10.5201820">
	<ele>2334.60</ele>
	<time>2023-08-07T05:59:29.000Z</time>
</trkpt>
<trkpt lat="46.1100800" lon="10.5201780">
	<ele>2334.80</ele>
	<time>2023-08-07T05:59:30.000Z</time>
</trkpt>
<trkpt lat="46.1100800" lon="10.5201750">
	<ele>2335.20</ele>
	<time>2023-08-07T05:59:31.000Z</time>
</trkpt>
<trkpt lat="46.1100800" lon="10.5201710">
	<ele>2335.20</ele>
	<time>2023-08-07T05:59:32.000Z</time>
</trkpt>
<trkpt lat="46.1100800" lon="10.5201660">
	<ele>2335.40</ele>
	<time>2023-08-07T05:59:33.000Z</time>
</trkpt>
<trkpt lat="46.1100800" lon="10.5201620">
	<ele>2335.60</ele>
	<time>2023-08-07T05:59:34.000Z</time>
</trkpt>
<trkpt lat="46.1100800" lon="10.5201580">
	<ele>2335.80</ele>
	<time>2023-08-07T05:59:35.000Z</time>
</trkpt>
<trkpt lat="46.1100800" lon="10.5201550">
	<ele>2335.80</ele>
	<time>2023-08-07T05:59:36.000Z</time>
</trkpt>
<trkpt lat="46.1100800" lon="10.5201520">
	<ele>2336.00</ele>
	<time>2023-08-07T05:59:37.000Z</time>
</trkpt>
<trkpt lat="46.1100800" lon="10.5201500">
	<ele>2336.00</ele>
	<time>2023-08-07T05:59:38.000Z</time>
</trkpt>
<trkpt lat="46.1100800" lon="10.5201480">
	<ele>2336.20</ele>
	<time>2023-08-07T05:59:39.000Z</time>
</trkpt>
<trkpt lat="46.1100810" lon="10.5201460">
	<ele>2336.40</ele>
	<time>2023-08-07T05:59:40.000Z</time>
</trkpt>
<trkpt lat="46.1100810" lon="10.5201430">
	<ele>2336.40</ele>
	<time>2023-08-07T05:59:41.000Z</time>
</trkpt>
<trkpt lat="46.1100820" lon="10.5201400">
	<ele>2336.60</ele>
	<time>2023-08-07T05:59:42.000Z</time>
</trkpt>
<trkpt lat="46.1100830" lon="10.5201370">
	<ele>2336.80</ele>
	<time>2023-08-07T05:59:43.000Z</time>
</trkpt>
<trkpt lat="46.1100840" lon="10.5201350">
	<ele>2336.80</ele>
	<time>2023-08-07T05:59:44.000Z</time>
</trkpt>
<trkpt lat="46.1100850" lon="10.5201340">
	<ele>2336.80</ele>
	<time>2023-08-07T05:59:45.000Z</time>
</trkpt>
<trkpt lat="46.1100870" lon="10.5201320">
	<ele>2336.80</ele>
	<time>2023-08-07T05:59:46.000Z</time>
</trkpt>
<trkpt lat="46.1100890" lon="10.5201310">
	<ele>2337.20</ele>
	<time>2023-08-07T05:59:47.000Z</time>
</trkpt>
<trkpt lat="46.1100900" lon="10.5201300">
	<ele>2337.40</ele>
	<time>2023-08-07T05:59:48.000Z</time>
</trkpt>
<trkpt lat="46.1100920" lon="10.5201290">
	<ele>2337.40</ele>
	<time>2023-08-07T05:59:49.000Z</time>
</trkpt>
<trkpt lat="46.1100930" lon="10.5201280">
	<ele>2337.60</ele>
	<time>2023-08-07T05:59:50.000Z</time>
</trkpt>
<trkpt lat="46.1100940" lon="10.5201280">
	<ele>2337.80</ele>
	<time>2023-08-07T05:59:51.000Z</time>
</trkpt>
<trkpt lat="46.1100950" lon="10.5201270">
	<ele>2337.80</ele>
	<time>2023-08-07T05:59:52.000Z</time>
</trkpt>
<trkpt lat="46.1100960" lon="10.5201260">
	<ele>2338.00</ele>
	<time>2023-08-07T05:59:53.000Z</time>
</trkpt>
<trkpt lat="46.1100980" lon="10.5201260">
	<ele>2338.20</ele>
	<time>2023-08-07T05:59:54.000Z</time>
</trkpt>
<trkpt lat="46.1100990" lon="10.5201260">
	<ele>2338.20</ele>
	<time>2023-08-07T05:59:55.000Z</time>
</trkpt>
<trkpt lat="46.1101010" lon="10.5201250">
	<ele>2338.60</ele>
	<time>2023-08-07T05:59:56.000Z</time>
</trkpt>
<trkpt lat="46.1101020" lon="10.5201250">
	<ele>2338.60</ele>
	<time>2023-08-07T05:59:57.000Z</time>
</trkpt>
<trkpt lat="46.1101030" lon="10.5201250">
	<ele>2338.80</ele>
	<time>2023-08-07T05:59:58.000Z</time>
</trkpt>
<trkpt lat="46.1101050" lon="10.5201250">
	<ele>2338.80</ele>
	<time>2023-08-07T05:59:59.000Z</time>
</trkpt>
<trkpt lat="46.1101070" lon="10.5201250">
	<ele>2339.00</ele>
	<time>2023-08-07T06:00:00.000Z</time>
</trkpt>
<trkpt lat="46.1101100" lon="10.5201250">
	<ele>2339.20</ele>
	<time>2023-08-07T06:00:01.000Z</time>
</trkpt>
<trkpt lat="46.1101140" lon="10.5201250">
	<ele>2339.20</ele>
	<time>2023-08-07T06:00:02.000Z</time>
</trkpt>
<trkpt lat="46.1101160" lon="10.5201240">
	<ele>2339.20</ele>
	<time>2023-08-07T06:00:03.000Z</time>
</trkpt>
<trkpt lat="46.1101190" lon="10.5201240">
	<ele>2339.40</ele>
	<time>2023-08-07T06:00:04.000Z</time>
</trkpt>
<trkpt lat="46.1101210" lon="10.5201240">
	<ele>2339.60</ele>
	<time>2023-08-07T06:00:05.000Z</time>
</trkpt>
<trkpt lat="46.1101220" lon="10.5201240">
	<ele>2339.80</ele>
	<time>2023-08-07T06:00:06.000Z</time>
</trkpt>
<trkpt lat="46.1101240" lon="10.5201250">
	<ele>2340.20</ele>
	<time>2023-08-07T06:00:07.000Z</time>
</trkpt>
<trkpt lat="46.1101260" lon="10.5201250">
	<ele>2340.20</ele>
	<time>2023-08-07T06:00:08.000Z</time>
</trkpt>
<trkpt lat="46.1101280" lon="10.5201250">
	<ele>2340.40</ele>
	<time>2023-08-07T06:00:09.000Z</time>
</trkpt>
<trkpt lat="46.1101300" lon="10.5201250">
	<ele>2340.40</ele>
	<time>2023-08-07T06:00:10.000Z</time>
</trkpt>
<trkpt lat="46.1101320" lon="10.5201260">
	<ele>2340.60</ele>
	<time>2023-08-07T06:00:11.000Z</time>
</trkpt>
<trkpt lat="46.1101330" lon="10.5201260">
	<ele>2340.80</ele>
	<time>2023-08-07T06:00:12.000Z</time>
</trkpt>
<trkpt lat="46.1101350" lon="10.5201270">
	<ele>2341.00</ele>
	<time>2023-08-07T06:00:13.000Z</time>
</trkpt>
<trkpt lat="46.1101370" lon="10.5201270">
	<ele>2341.20</ele>
	<time>2023-08-07T06:00:14.000Z</time>
</trkpt>
<trkpt lat="46.1101390" lon="10.5201280">
	<ele>2341.40</ele>
	<time>2023-08-07T06:00:15.000Z</time>
</trkpt>
<trkpt lat="46.1101420" lon="10.5201290">
	<ele>2341.60</ele>
	<time>2023-08-07T06:00:16.000Z</time>
</trkpt>
<trkpt lat="46.1101440" lon="10.5201290">
	<ele>2341.60</ele>
	<time>2023-08-07T06:00:17.000Z</time>
</trkpt>
<trkpt lat="46.1101450" lon="10.5201300">
	<ele>2341.80</ele>
	<time>2023-08-07T06:00:18.000Z</time>
</trkpt>
<trkpt lat="46.1101470" lon="10.5201300">
	<ele>2341.80</ele>
	<time>2023-08-07T06:00:19.000Z</time>
</trkpt>
<trkpt lat="46.1101490" lon="10.5201310">
	<ele>2341.80</ele>
	<time>2023-08-07T06:00:20.000Z</time>
</trkpt>
<trkpt lat="46.1101510" lon="10.5201310">
	<ele>2341.80</ele>
	<time>2023-08-07T06:00:21.000Z</time>
</trkpt>
<trkpt lat="46.1101520" lon="10.5201320">
	<ele>2342.00</ele>
	<time>2023-08-07T06:00:22.000Z</time>
</trkpt>
<trkpt lat="46.1101530" lon="10.5201320">
	<ele>2342.40</ele>
	<time>2023-08-07T06:00:23.000Z</time>
</trkpt>
<trkpt lat="46.1101540" lon="10.5201330">
	<ele>2342.60</ele>
	<time>2023-08-07T06:00:24.000Z</time>
</trkpt>
<trkpt lat="46.1101550" lon="10.5201330">
	<ele>2342.80</ele>
	<time>2023-08-07T06:00:25.000Z</time>
</trkpt>
<trkpt lat="46.1101560" lon="10.5201330">
	<ele>2343.00</ele>
	<time>2023-08-07T06:00:26.000Z</time>
</trkpt>
<trkpt lat="46.1101570" lon="10.5201330">
	<ele>2343.20</ele>
	<time>2023-08-07T06:00:27.000Z</time>
</trkpt>
<trkpt lat="46.1101650" lon="10.5201350">
	<ele>2343.40</ele>
	<time>2023-08-07T06:00:28.000Z</time>
</trkpt>
<trkpt lat="46.1101770" lon="10.5201360">
	<ele>2343.60</ele>
	<time>2023-08-07T06:00:29.000Z</time>
</trkpt>
<trkpt lat="46.1101860" lon="10.5201350">
	<ele>2344.00</ele>
	<time>2023-08-07T06:00:30.000Z</time>
</trkpt>
<trkpt lat="46.1101960" lon="10.5201350">
	<ele>2344.00</ele>
	<time>2023-08-07T06:00:31.000Z</time>
</trkpt>
<trkpt lat="46.1102050" lon="10.5201350">
	<ele>2344.20</ele>
	<time>2023-08-07T06:00:32.000Z</time>
</trkpt>
<trkpt lat="46.1102050" lon="10.5201350">
	<ele>2344.20</ele>
	<time>2023-08-07T06:00:33.000Z</time>
</trkpt>
<trkpt lat="46.1102050" lon="10.5201350">
	<ele>2344.20</ele>
	<time>2023-08-07T06:00:34.000Z</time>
</trkpt>
<trkpt lat="46.1102050" lon="10.5201350">
	<ele>2344.40</ele>
	<time>2023-08-07T06:00:35.000Z</time>
</trkpt>
<trkpt lat="46.1102050" lon="10.5201350">
	<ele>2344.40</ele>
	<time>2023-08-07T06:00:36.000Z</time>
</trkpt>
<trkpt lat="46.1102050" lon="10.5201350">
	<ele>2344.40</ele>
	<time>2023-08-07T06:00:37.000Z</time>
</trkpt>
<trkpt lat="46.1102050" lon="10.5201350">
	<ele>2344.40</ele>
	<time>2023-08-07T06:00:38.000Z</time>
</trkpt>
<trkpt lat="46.1102320" lon="10.5201350">
	<ele>2344.60</ele>
	<time>2023-08-07T06:00:39.000Z</time>
</trkpt>
<trkpt lat="46.1102330" lon="10.5201350">
	<ele>2344.60</ele>
	<time>2023-08-07T06:00:40.000Z</time>
</trkpt>
<trkpt lat="46.1102360" lon="10.5201350">
	<ele>2344.60</ele>
	<time>2023-08-07T06:00:41.000Z</time>
</trkpt>
<trkpt lat="46.1102360" lon="10.5201350">
	<ele>2344.60</ele>
	<time>2023-08-07T06:00:42.000Z</time>
</trkpt>
<trkpt lat="46.1102360" lon="10.5201350">
	<ele>2345.00</ele>
	<time>2023-08-07T06:00:43.000Z</time>
</trkpt>
<trkpt lat="46.1102360" lon="10.5201350">
	<ele>2345.00</ele>
	<time>2023-08-07T06:00:44.000Z</time>
</trkpt>
<trkpt lat="46.1102360" lon="10.5201350">
	<ele>2345.20</ele>
	<time>2023-08-07T06:00:45.000Z</time>
</trkpt>
<trkpt lat="46.1102360" lon="10.5201350">
	<ele>2345.40</ele>
	<time>2023-08-07T06:00:46.000Z</time>
</trkpt>
<trkpt lat="46.1102360" lon="10.5201350">
	<ele>2345.60</ele>
	<time>2023-08-07T06:00:47.000Z</time>
</trkpt>
<trkpt lat="46.1102360" lon="10.5201350">
	<ele>2345.60</ele>
	<time>2023-08-07T06:00:48.000Z</time>
</trkpt>
<trkpt lat="46.1102360" lon="10.5201350">
	<ele>2345.60</ele>
	<time>2023-08-07T06:00:49.000Z</time>
</trkpt>
<trkpt lat="46.1102360" lon="10.5201350">
	<ele>2346.00</ele>
	<time>2023-08-07T06:00:50.000Z</time>
</trkpt>
<trkpt lat="46.1102360" lon="10.5201350">
	<ele>2346.20</ele>
	<time>2023-08-07T06:00:51.000Z</time>
</trkpt>
<trkpt lat="46.1102360" lon="10.5201350">
	<ele>2346.40</ele>
	<time>2023-08-07T06:00:52.000Z</time>
</trkpt>
<trkpt lat="46.1102360" lon="10.5201350">
	<ele>2346.60</ele>
	<time>2023-08-07T06:00:53.000Z</time>
</trkpt>
<trkpt lat="46.1102360" lon="10.5201350">
	<ele>2346.80</ele>
	<time>2023-08-07T06:00:54.000Z</time>
</trkpt>
<trkpt lat="46.1102360" lon="10.5201350">
	<ele>2347.40</ele>
	<time>2023-08-07T06:00:55.000Z</time>
</trkpt>
<trkpt lat="46.1102360" lon="10.5201320">
	<ele>2347.60</ele>
	<time>2023-08-07T06:00:56.000Z</time>
</trkpt>
<trkpt lat="46.1102350" lon="10.5201310">
	<ele>2347.80</ele>
	<time>2023-08-07T06:00:57.000Z</time>
</trkpt>
<trkpt lat="46.1102350" lon="10.5201300">
	<ele>2347.80</ele>
	<time>2023-08-07T06:00:58.000Z</time>
</trkpt>
<trkpt lat="46.1102350" lon="10.5201260">
	<ele>2347.80</ele>
	<time>2023-08-07T06:00:59.000Z</time>
</trkpt>
<trkpt lat="46.1102350" lon="10.5201250">
	<ele>2347.80</ele>
	<time>2023-08-07T06:01:00.000Z</time>
</trkpt>
<trkpt lat="46.1102350" lon="10.5201220">
	<ele>2347.80</ele>
	<time>2023-08-07T06:01:01.000Z</time>
</trkpt>
<trkpt lat="46.1102350" lon="10.5201180">
	<ele>2347.80</ele>
	<time>2023-08-07T06:01:02.000Z</time>
</trkpt>
<trkpt lat="46.1102350" lon="10.5201160">
	<ele>2347.80</ele>
	<time>2023-08-07T06:01:03.000Z</time>
</trkpt>
<trkpt lat="46.1102350" lon="10.5201150">
	<ele>2348.00</ele>
	<time>2023-08-07T06:01:04.000Z</time>
</trkpt>
<trkpt lat="46.1102350" lon="10.5201140">
	<ele>2348.20</ele>
	<time>2023-08-07T06:01:05.000Z</time>
</trkpt>
<trkpt lat="46.1102350" lon="10.5201120">
	<ele>2348.40</ele>
	<time>2023-08-07T06:01:06.000Z</time>
</trkpt>
<trkpt lat="46.1102350" lon="10.5201100">
	<ele>2348.40</ele>
	<time>2023-08-07T06:01:07.000Z</time>
</trkpt>
<trkpt lat="46.1102350" lon="10.5201040">
	<ele>2348.60</ele>
	<time>2023-08-07T06:01:08.000Z</time>
</trkpt>
<trkpt lat="46.1102350" lon="10.5201010">
	<ele>2348.60</ele>
	<time>2023-08-07T06:01:09.000Z</time>
</trkpt>
<trkpt lat="46.1102350" lon="10.5200940">
	<ele>2348.60</ele>
	<time>2023-08-07T06:01:10.000Z</time>
</trkpt>
<trkpt lat="46.1102350" lon="10.5200920">
	<ele>2348.60</ele>
	<time>2023-08-07T06:01:11.000Z</time>
</trkpt>
<trkpt lat="46.1102350" lon="10.5200900">
	<ele>2348.60</ele>
	<time>2023-08-07T06:01:12.000Z</time>
</trkpt>
<trkpt lat="46.1102350" lon="10.5200900">
	<ele>2348.60</ele>
	<time>2023-08-07T06:01:13.000Z</time>
</trkpt>
<trkpt lat="46.1102380" lon="10.5200900">
	<ele>2348.60</ele>
	<time>2023-08-07T06:01:14.000Z</time>
</trkpt>
<trkpt lat="46.1102410" lon="10.5200900">
	<ele>2348.60</ele>
	<time>2023-08-07T06:01:15.000Z</time>
</trkpt>
<trkpt lat="46.1102430" lon="10.5200900">
	<ele>2348.80</ele>
	<time>2023-08-07T06:01:16.000Z</time>
</trkpt>
<trkpt lat="46.1102440" lon="10.5200900">
	<ele>2348.80</ele>
	<time>2023-08-07T06:01:17.000Z</time>
</trkpt>
<trkpt lat="46.1102460" lon="10.5200900">
	<ele>2348.80</ele>
	<time>2023-08-07T06:01:18.000Z</time>
</trkpt>
<trkpt lat="46.1102500" lon="10.5200890">
	<ele>2348.80</ele>
	<time>2023-08-07T06:01:19.000Z</time>
</trkpt>
<trkpt lat="46.1102530" lon="10.5200890">
	<ele>2348.80</ele>
	<time>2023-08-07T06:01:20.000Z</time>
</trkpt>
<trkpt lat="46.1102550" lon="10.5200880">
	<ele>2349.00</ele>
	<time>2023-08-07T06:01:21.000Z</time>
</trkpt>
<trkpt lat="46.1102560" lon="10.5200880">
	<ele>2349.00</ele>
	<time>2023-08-07T06:01:22.000Z</time>
</trkpt>
<trkpt lat="46.1102580" lon="10.5200870">
	<ele>2349.00</ele>
	<time>2023-08-07T06:01:23.000Z</time>
</trkpt>
<trkpt lat="46.1102610" lon="10.5200870">
	<ele>2349.00</ele>
	<time>2023-08-07T06:01:24.000Z</time>
</trkpt>
<trkpt lat="46.1102630" lon="10.5200860">
	<ele>2349.40</ele>
	<time>2023-08-07T06:01:25.000Z</time>
</trkpt>
<trkpt lat="46.1102650" lon="10.5200850">
	<ele>2349.60</ele>
	<time>2023-08-07T06:01:26.000Z</time>
</trkpt>
<trkpt lat="46.1102670" lon="10.5200850">
	<ele>2349.40</ele>
	<time>2023-08-07T06:01:27.000Z</time>
</trkpt>
<trkpt lat="46.1102710" lon="10.5200850">
	<ele>2349.40</ele>
	<time>2023-08-07T06:01:28.000Z</time>
</trkpt>
<trkpt lat="46.1102730" lon="10.5200850">
	<ele>2349.60</ele>
	<time>2023-08-07T06:01:29.000Z</time>
</trkpt>
<trkpt lat="46.1102740" lon="10.5200840">
	<ele>2349.60</ele>
	<time>2023-08-07T06:01:30.000Z</time>
</trkpt>
<trkpt lat="46.1102750" lon="10.5200840">
	<ele>2349.60</ele>
	<time>2023-08-07T06:01:31.000Z</time>
</trkpt>
<trkpt lat="46.1102750" lon="10.5200840">
	<ele>2349.60</ele>
	<time>2023-08-07T06:01:32.000Z</time>
</trkpt>
<trkpt lat="46.1102760" lon="10.5200830">
	<ele>2349.60</ele>
	<time>2023-08-07T06:01:33.000Z</time>
</trkpt>
<trkpt lat="46.1102760" lon="10.5200810">
	<ele>2349.80</ele>
	<time>2023-08-07T06:01:34.000Z</time>
</trkpt>
<trkpt lat="46.1102760" lon="10.5200780">
	<ele>2349.80</ele>
	<time>2023-08-07T06:01:35.000Z</time>
</trkpt>
<trkpt lat="46.1102760" lon="10.5200730">
	<ele>2350.00</ele>
	<time>2023-08-07T06:01:36.000Z</time>
</trkpt>
<trkpt lat="46.1102760" lon="10.5200700">
	<ele>2350.20</ele>
	<time>2023-08-07T06:01:37.000Z</time>
</trkpt>
<trkpt lat="46.1102770" lon="10.5200690">
	<ele>2350.20</ele>
	<time>2023-08-07T06:01:38.000Z</time>
</trkpt>
<trkpt lat="46.1102780" lon="10.5200650">
	<ele>2350.40</ele>
	<time>2023-08-07T06:01:39.000Z</time>
</trkpt>
<trkpt lat="46.1102790" lon="10.5200610">
	<ele>2350.40</ele>
	<time>2023-08-07T06:01:40.000Z</time>
</trkpt>
<trkpt lat="46.1102800" lon="10.5200580">
	<ele>2350.40</ele>
	<time>2023-08-07T06:01:41.000Z</time>
</trkpt>
<trkpt lat="46.1102800" lon="10.5200550">
	<ele>2350.40</ele>
	<time>2023-08-07T06:01:42.000Z</time>
</trkpt>
<trkpt lat="46.1102820" lon="10.5200500">
	<ele>2350.60</ele>
	<time>2023-08-07T06:01:43.000Z</time>
</trkpt>
<trkpt lat="46.1102820" lon="10.5200470">
	<ele>2350.60</ele>
	<time>2023-08-07T06:01:44.000Z</time>
</trkpt>
<trkpt lat="46.1102840" lon="10.5200450">
	<ele>2350.60</ele>
	<time>2023-08-07T06:01:45.000Z</time>
</trkpt>
<trkpt lat="46.1102860" lon="10.5200440">
	<ele>2350.80</ele>
	<time>2023-08-07T06:01:46.000Z</time>
</trkpt>
<trkpt lat="46.1102880" lon="10.5200420">
	<ele>2351.20</ele>
	<time>2023-08-07T06:01:47.000Z</time>
</trkpt>
<trkpt lat="46.1102900" lon="10.5200410">
	<ele>2351.40</ele>
	<time>2023-08-07T06:01:48.000Z</time>
</trkpt>
<trkpt lat="46.1102920" lon="10.5200370">
	<ele>2351.60</ele>
	<time>2023-08-07T06:01:49.000Z</time>
</trkpt>
<trkpt lat="46.1102930" lon="10.5200340">
	<ele>2351.60</ele>
	<time>2023-08-07T06:01:50.000Z</time>
</trkpt>
<trkpt lat="46.1102950" lon="10.5200330">
	<ele>2351.80</ele>
	<time>2023-08-07T06:01:51.000Z</time>
</trkpt>
<trkpt lat="46.1102960" lon="10.5200320">
	<ele>2352.00</ele>
	<time>2023-08-07T06:01:52.000Z</time>
</trkpt>
<trkpt lat="46.1102970" lon="10.5200320">
	<ele>2352.20</ele>
	<time>2023-08-07T06:01:53.000Z</time>
</trkpt>
<trkpt lat="46.1102980" lon="10.5200310">
	<ele>2352.40</ele>
	<time>2023-08-07T06:01:54.000Z</time>
</trkpt>
<trkpt lat="46.1102990" lon="10.5200300">
	<ele>2352.40</ele>
	<time>2023-08-07T06:01:55.000Z</time>
</trkpt>
<trkpt lat="46.1103000" lon="10.5200290">
	<ele>2352.80</ele>
	<time>2023-08-07T06:01:56.000Z</time>
</trkpt>
<trkpt lat="46.1103010" lon="10.5200280">
	<ele>2353.20</ele>
	<time>2023-08-07T06:01:57.000Z</time>
</trkpt>
<trkpt lat="46.1103020" lon="10.5200280">
	<ele>2353.40</ele>
	<time>2023-08-07T06:01:58.000Z</time>
</trkpt>
<trkpt lat="46.1103030" lon="10.5200270">
	<ele>2353.40</ele>
	<time>2023-08-07T06:01:59.000Z</time>
</trkpt>
<trkpt lat="46.1103050" lon="10.5200270">
	<ele>2353.40</ele>
	<time>2023-08-07T06:02:00.000Z</time>
</trkpt>
<trkpt lat="46.1103070" lon="10.5200270">
	<ele>2353.60</ele>
	<time>2023-08-07T06:02:01.000Z</time>
</trkpt>
<trkpt lat="46.1103090" lon="10.5200260">
	<ele>2353.60</ele>
	<time>2023-08-07T06:02:02.000Z</time>
</trkpt>
<trkpt lat="46.1103090" lon="10.5200260">
	<ele>2353.60</ele>
	<time>2023-08-07T06:02:03.000Z</time>
</trkpt>
<trkpt lat="46.1103100" lon="10.5200260">
	<ele>2353.60</ele>
	<time>2023-08-07T06:02:04.000Z</time>
</trkpt>
<trkpt lat="46.1103110" lon="10.5200250">
	<ele>2353.60</ele>
	<time>2023-08-07T06:02:05.000Z</time>
</trkpt>
<trkpt lat="46.1103110" lon="10.5200230">
	<ele>2353.60</ele>
	<time>2023-08-07T06:02:06.000Z</time>
</trkpt>
<trkpt lat="46.1103110" lon="10.5200210">
	<ele>2353.80</ele>
	<time>2023-08-07T06:02:07.000Z</time>
</trkpt>
<trkpt lat="46.1103110" lon="10.5200200">
	<ele>2354.20</ele>
	<time>2023-08-07T06:02:08.000Z</time>
</trkpt>
<trkpt lat="46.1103110" lon="10.5200190">
	<ele>2354.20</ele>
	<time>2023-08-07T06:02:09.000Z</time>
</trkpt>
<trkpt lat="46.1103110" lon="10.5200170">
	<ele>2354.40</ele>
	<time>2023-08-07T06:02:10.000Z</time>
</trkpt>
<trkpt lat="46.1103110" lon="10.5200140">
	<ele>2354.60</ele>
	<time>2023-08-07T06:02:11.000Z</time>
</trkpt>
<trkpt lat="46.1103110" lon="10.5200120">
	<ele>2354.60</ele>
	<time>2023-08-07T06:02:12.000Z</time>
</trkpt>
<trkpt lat="46.1103110" lon="10.5200110">
	<ele>2354.60</ele>
	<time>2023-08-07T06:02:13.000Z</time>
</trkpt>
<trkpt lat="46.1103110" lon="10.5200090">
	<ele>2354.60</ele>
	<time>2023-08-07T06:02:14.000Z</time>
</trkpt>
<trkpt lat="46.1103110" lon="10.5200080">
	<ele>2354.60</ele>
	<time>2023-08-07T06:02:15.000Z</time>
</trkpt>
<trkpt lat="46.1103110" lon="10.5200080">
	<ele>2354.80</ele>
	<time>2023-08-07T06:02:16.000Z</time>
</trkpt>
<trkpt lat="46.1103120" lon="10.5200070">
	<ele>2355.00</ele>
	<time>2023-08-07T06:02:17.000Z</time>
</trkpt>
<trkpt lat="46.1103130" lon="10.5200070">
	<ele>2355.20</ele>
	<time>2023-08-07T06:02:18.000Z</time>
</trkpt>
<trkpt lat="46.1103140" lon="10.5200060">
	<ele>2355.20</ele>
	<time>2023-08-07T06:02:19.000Z</time>
</trkpt>
<trkpt lat="46.1103140" lon="10.5200050">
	<ele>2355.40</ele>
	<time>2023-08-07T06:02:20.000Z</time>
</trkpt>
<trkpt lat="46.1103150" lon="10.5200040">
	<ele>2355.40</ele>
	<time>2023-08-07T06:02:21.000Z</time>
</trkpt>
<trkpt lat="46.1103150" lon="10.5200010">
	<ele>2355.40</ele>
	<time>2023-08-07T06:02:22.000Z</time>
</trkpt>
<trkpt lat="46.1103160" lon="10.5199970">
	<ele>2355.60</ele>
	<time>2023-08-07T06:02:23.000Z</time>
</trkpt>
<trkpt lat="46.1103160" lon="10.5199930">
	<ele>2355.60</ele>
	<time>2023-08-07T06:02:24.000Z</time>
</trkpt>
<trkpt lat="46.1103160" lon="10.5199880">
	<ele>2355.60</ele>
	<time>2023-08-07T06:02:25.000Z</time>
</trkpt>
<trkpt lat="46.1103160" lon="10.5199850">
	<ele>2355.80</ele>
	<time>2023-08-07T06:02:26.000Z</time>
</trkpt>
<trkpt lat="46.1103160" lon="10.5199830">
	<ele>2355.80</ele>
	<time>2023-08-07T06:02:27.000Z</time>
</trkpt>
<trkpt lat="46.1103160" lon="10.5199810">
	<ele>2356.20</ele>
	<time>2023-08-07T06:02:28.000Z</time>
</trkpt>
<trkpt lat="46.1103160" lon="10.5199780">
	<ele>2356.40</ele>
	<time>2023-08-07T06:02:29.000Z</time>
</trkpt>
<trkpt lat="46.1103160" lon="10.5199760">
	<ele>2356.40</ele>
	<time>2023-08-07T06:02:30.000Z</time>
</trkpt>
<trkpt lat="46.1103170" lon="10.5199740">
	<ele>2356.60</ele>
	<time>2023-08-07T06:02:31.000Z</time>
</trkpt>
<trkpt lat="46.1103180" lon="10.5199730">
	<ele>2356.60</ele>
	<time>2023-08-07T06:02:32.000Z</time>
</trkpt>
<trkpt lat="46.1103190" lon="10.5199710">
	<ele>2356.60</ele>
	<time>2023-08-07T06:02:33.000Z</time>
</trkpt>
<trkpt lat="46.1103190" lon="10.5199680">
	<ele>2356.80</ele>
	<time>2023-08-07T06:02:34.000Z</time>
</trkpt>
<trkpt lat="46.1103190" lon="10.5199610">
	<ele>2357.00</ele>
	<time>2023-08-07T06:02:35.000Z</time>
</trkpt>
<trkpt lat="46.1103160" lon="10.5199490">
	<ele>2357.20</ele>
	<time>2023-08-07T06:02:36.000Z</time>
</trkpt>
<trkpt lat="46.1103140" lon="10.5199390">
	<ele>2357.40</ele>
	<time>2023-08-07T06:02:37.000Z</time>
</trkpt>
<trkpt lat="46.1103120" lon="10.5199270">
	<ele>2357.60</ele>
	<time>2023-08-07T06:02:38.000Z</time>
</trkpt>
<trkpt lat="46.1103130" lon="10.5199160">
	<ele>2357.60</ele>
	<time>2023-08-07T06:02:39.000Z</time>
</trkpt>
<trkpt lat="46.1103170" lon="10.5199060">
	<ele>2357.80</ele>
	<time>2023-08-07T06:02:40.000Z</time>
</trkpt>
<trkpt lat="46.1103210" lon="10.5198970">
	<ele>2358.00</ele>
	<time>2023-08-07T06:02:41.000Z</time>
</trkpt>
<trkpt lat="46.1103230" lon="10.5198880">
	<ele>2358.20</ele>
	<time>2023-08-07T06:02:42.000Z</time>
</trkpt>
<trkpt lat="46.1103240" lon="10.5198790">
	<ele>2358.40</ele>
	<time>2023-08-07T06:02:43.000Z</time>
</trkpt>
<trkpt lat="46.1103280" lon="10.5198720">
	<ele>2358.60</ele>
	<time>2023-08-07T06:02:44.000Z</time>
</trkpt>
<trkpt lat="46.1103280" lon="10.5198730">
	<ele>2358.60</ele>
	<time>2023-08-07T06:02:45.000Z</time>
</trkpt>
<trkpt lat="46.1103280" lon="10.5198730">
	<ele>2358.80</ele>
	<time>2023-08-07T06:02:46.000Z</time>
</trkpt>
<trkpt lat="46.1103280" lon="10.5198730">
	<ele>2358.80</ele>
	<time>2023-08-07T06:02:47.000Z</time>
</trkpt>
<trkpt lat="46.1103290" lon="10.5198740">
	<ele>2358.80</ele>
	<time>2023-08-07T06:02:48.000Z</time>
</trkpt>
<trkpt lat="46.1103300" lon="10.5198750">
	<ele>2358.80</ele>
	<time>2023-08-07T06:02:49.000Z</time>
</trkpt>
<trkpt lat="46.1103270" lon="10.5198800">
	<ele>2358.80</ele>
	<time>2023-08-07T06:02:50.000Z</time>
</trkpt>
<trkpt lat="46.1103230" lon="10.5198830">
	<ele>2359.00</ele>
	<time>2023-08-07T06:02:51.000Z</time>
</trkpt>
<trkpt lat="46.1103220" lon="10.5198850">
	<ele>2358.80</ele>
	<time>2023-08-07T06:02:52.000Z</time>
</trkpt>
<trkpt lat="46.1103180" lon="10.5198810">
	<ele>2358.80</ele>
	<time>2023-08-07T06:02:53.000Z</time>
</trkpt>
<trkpt lat="46.1103150" lon="10.5198750">
	<ele>2358.80</ele>
	<time>2023-08-07T06:02:54.000Z</time>
</trkpt>
<trkpt lat="46.1103140" lon="10.5198720">
	<ele>2358.80</ele>
	<time>2023-08-07T06:02:55.000Z</time>
</trkpt>
<trkpt lat="46.1103120" lon="10.5198780">
	<ele>2358.80</ele>
	<time>2023-08-07T06:02:56.000Z</time>
</trkpt>
<trkpt lat="46.1103130" lon="10.5198810">
	<ele>2358.60</ele>
	<time>2023-08-07T06:02:57.000Z</time>
</trkpt>
<trkpt lat="46.1103130" lon="10.5198840">
	<ele>2358.60</ele>
	<time>2023-08-07T06:02:58.000Z</time>
</trkpt>
<trkpt lat="46.1103120" lon="10.5198920">
	<ele>2358.60</ele>
	<time>2023-08-07T06:02:59.000Z</time>
</trkpt>
<trkpt lat="46.1103120" lon="10.5198960">
	<ele>2358.80</ele>
	<time>2023-08-07T06:03:00.000Z</time>
</trkpt>
<trkpt lat="46.1103120" lon="10.5198960">
	<ele>2358.80</ele>
	<time>2023-08-07T06:03:01.000Z</time>
</trkpt>
<trkpt lat="46.1103120" lon="10.5198960">
	<ele>2358.80</ele>
	<time>2023-08-07T06:03:02.000Z</time>
</trkpt>
<trkpt lat="46.1103120" lon="10.5198960">
	<ele>2359.00</ele>
	<time>2023-08-07T06:03:03.000Z</time>
</trkpt>
<trkpt lat="46.1103120" lon="10.5198960">
	<ele>2359.20</ele>
	<time>2023-08-07T06:03:04.000Z</time>
</trkpt>
<trkpt lat="46.1103120" lon="10.5198960">
	<ele>2359.20</ele>
	<time>2023-08-07T06:03:05.000Z</time>
</trkpt>
<trkpt lat="46.1103120" lon="10.5198960">
	<ele>2359.40</ele>
	<time>2023-08-07T06:03:06.000Z</time>
</trkpt>
<trkpt lat="46.1103120" lon="10.5198960">
	<ele>2359.40</ele>
	<time>2023-08-07T06:03:07.000Z</time>
</trkpt>
<trkpt lat="46.1103120" lon="10.5198960">
	<ele>2359.40</ele>
	<time>2023-08-07T06:03:08.000Z</time>
</trkpt>
<trkpt lat="46.1103120" lon="10.5198960">
	<ele>2359.40</ele>
	<time>2023-08-07T06:03:09.000Z</time>
</trkpt>
<trkpt lat="46.1103120" lon="10.5198960">
	<ele>2359.20</ele>
	<time>2023-08-07T06:03:10.000Z</time>
</trkpt>
<trkpt lat="46.1103120" lon="10.5198960">
	<ele>2359.20</ele>
	<time>2023-08-07T06:03:11.000Z</time>
</trkpt>
<trkpt lat="46.1103120" lon="10.5198960">
	<ele>2359.20</ele>
	<time>2023-08-07T06:03:12.000Z</time>
</trkpt>
<trkpt lat="46.1103120" lon="10.5198960">
	<ele>2359.20</ele>
	<time>2023-08-07T06:03:13.000Z</time>
</trkpt>
<trkpt lat="46.1103120" lon="10.5198960">
	<ele>2359.20</ele>
	<time>2023-08-07T06:03:14.000Z</time>
</trkpt>
<trkpt lat="46.1103120" lon="10.5198960">
	<ele>2359.40</ele>
	<time>2023-08-07T06:03:15.000Z</time>
</trkpt>
<trkpt lat="46.1103120" lon="10.5198960">
	<ele>2359.60</ele>
	<time>2023-08-07T06:03:16.000Z</time>
</trkpt>
<trkpt lat="46.1103120" lon="10.5198960">
	<ele>2359.80</ele>
	<time>2023-08-07T06:03:17.000Z</time>
</trkpt>
<trkpt lat="46.1103120" lon="10.5198960">
	<ele>2359.80</ele>
	<time>2023-08-07T06:03:18.000Z</time>
</trkpt>
<trkpt lat="46.1103120" lon="10.5198960">
	<ele>2359.80</ele>
	<time>2023-08-07T06:03:19.000Z</time>
</trkpt>
<trkpt lat="46.1103120" lon="10.5198960">
	<ele>2359.80</ele>
	<time>2023-08-07T06:03:20.000Z</time>
</trkpt>
<trkpt lat="46.1103120" lon="10.5198960">
	<ele>2359.80</ele>
	<time>2023-08-07T06:03:21.000Z</time>
</trkpt>
<trkpt lat="46.1103110" lon="10.5198980">
	<ele>2359.40</ele>
	<time>2023-08-07T06:03:22.000Z</time>
</trkpt>
<trkpt lat="46.1103110" lon="10.5198990">
	<ele>2359.20</ele>
	<time>2023-08-07T06:03:23.000Z</time>
</trkpt>
<trkpt lat="46.1103110" lon="10.5198990">
	<ele>2359.20</ele>
	<time>2023-08-07T06:03:24.000Z</time>
</trkpt>
<trkpt lat="46.1103110" lon="10.5199000">
	<ele>2359.00</ele>
	<time>2023-08-07T06:03:25.000Z</time>
</trkpt>
<trkpt lat="46.1103110" lon="10.5199020">
	<ele>2359.00</ele>
	<time>2023-08-07T06:03:26.000Z</time>
</trkpt>
<trkpt lat="46.1103090" lon="10.5199030">
	<ele>2359.00</ele>
	<time>2023-08-07T06:03:27.000Z</time>
</trkpt>
<trkpt lat="46.1103060" lon="10.5199040">
	<ele>2359.00</ele>
	<time>2023-08-07T06:03:28.000Z</time>
</trkpt>
<trkpt lat="46.1103050" lon="10.5199050">
	<ele>2359.00</ele>
	<time>2023-08-07T06:03:29.000Z</time>
</trkpt>
<trkpt lat="46.1103050" lon="10.5199060">
	<ele>2359.20</ele>
	<time>2023-08-07T06:03:30.000Z</time>
</trkpt>
<trkpt lat="46.1103050" lon="10.5199070">
	<ele>2359.20</ele>
	<time>2023-08-07T06:03:31.000Z</time>
</trkpt>
<trkpt lat="46.1103050" lon="10.5199080">
	<ele>2359.60</ele>
	<time>2023-08-07T06:03:32.000Z</time>
</trkpt>
<trkpt lat="46.1103040" lon="10.5199100">
	<ele>2359.60</ele>
	<time>2023-08-07T06:03:33.000Z</time>
</trkpt>
<trkpt lat="46.1103040" lon="10.5199100">
	<ele>2359.80</ele>
	<time>2023-08-07T06:03:34.000Z</time>
</trkpt>
<trkpt lat="46.1103030" lon="10.5199100">
	<ele>2359.60</ele>
	<time>2023-08-07T06:03:35.000Z</time>
</trkpt>
<trkpt lat="46.1103030" lon="10.5199110">
	<ele>2359.60</ele>
	<time>2023-08-07T06:03:36.000Z</time>
</trkpt>
<trkpt lat="46.1103030" lon="10.5199110">
	<ele>2359.60</ele>
	<time>2023-08-07T06:03:37.000Z</time>
</trkpt>
<trkpt lat="46.1103010" lon="10.5199110">
	<ele>2359.60</ele>
	<time>2023-08-07T06:03:38.000Z</time>
</trkpt>
<trkpt lat="46.1103000" lon="10.5199120">
	<ele>2359.60</ele>
	<time>2023-08-07T06:03:39.000Z</time>
</trkpt>
<trkpt lat="46.1103000" lon="10.5199120">
	<ele>2359.60</ele>
	<time>2023-08-07T06:03:40.000Z</time>
</trkpt>
<trkpt lat="46.1103000" lon="10.5199130">
	<ele>2359.60</ele>
	<time>2023-08-07T06:03:41.000Z</time>
</trkpt>
<trkpt lat="46.1103000" lon="10.5199130">
	<ele>2359.80</ele>
	<time>2023-08-07T06:03:42.000Z</time>
</trkpt>
<trkpt lat="46.1103000" lon="10.5199130">
	<ele>2359.80</ele>
	<time>2023-08-07T06:03:43.000Z</time>
</trkpt>
<trkpt lat="46.1103000" lon="10.5199130">
	<ele>2359.80</ele>
	<time>2023-08-07T06:03:44.000Z</time>
</trkpt>
<trkpt lat="46.1103000" lon="10.5199130">
	<ele>2359.80</ele>
	<time>2023-08-07T06:03:45.000Z</time>
</trkpt>
<trkpt lat="46.1103000" lon="10.5199130">
	<ele>2359.80</ele>
	<time>2023-08-07T06:03:46.000Z</time>
</trkpt>
<trkpt lat="46.1103000" lon="10.5199130">
	<ele>2359.80</ele>
	<time>2023-08-07T06:03:47.000Z</time>
</trkpt>
<trkpt lat="46.1103000" lon="10.5199130">
	<ele>2359.80</ele>
	<time>2023-08-07T06:03:48.000Z</time>
</trkpt>
<trkpt lat="46.1103000" lon="10.5199130">
	<ele>2359.60</ele>
	<time>2023-08-07T06:03:49.000Z</time>
</trkpt>
<trkpt lat="46.1103000" lon="10.5199120">
	<ele>2359.60</ele>
	<time>2023-08-07T06:03:50.000Z</time>
</trkpt>
<trkpt lat="46.1103000" lon="10.5199110">
	<ele>2359.40</ele>
	<time>2023-08-07T06:03:51.000Z</time>
</trkpt>
<trkpt lat="46.1103000" lon="10.5199110">
	<ele>2359.40</ele>
	<time>2023-08-07T06:03:52.000Z</time>
</trkpt>
<trkpt lat="46.1103000" lon="10.5199110">
	<ele>2359.20</ele>
	<time>2023-08-07T06:03:53.000Z</time>
</trkpt>
<trkpt lat="46.1103000" lon="10.5199110">
	<ele>2359.20</ele>
	<time>2023-08-07T06:03:54.000Z</time>
</trkpt>
<trkpt lat="46.1103020" lon="10.5199110">
	<ele>2359.00</ele>
	<time>2023-08-07T06:03:55.000Z</time>
</trkpt>
<trkpt lat="46.1103030" lon="10.5199110">
	<ele>2358.80</ele>
	<time>2023-08-07T06:03:56.000Z</time>
</trkpt>
<trkpt lat="46.1103030" lon="10.5199110">
	<ele>2358.60</ele>
	<time>2023-08-07T06:03:57.000Z</time>
</trkpt>
<trkpt lat="46.1103040" lon="10.5199110">
	<ele>2358.40</ele>
	<time>2023-08-07T06:03:58.000Z</time>
</trkpt>
<trkpt lat="46.1103040" lon="10.5199110">
	<ele>2358.20</ele>
	<time>2023-08-07T06:03:59.000Z</time>
</trkpt>
<trkpt lat="46.1103040" lon="10.5199110">
	<ele>2358.00</ele>
	<time>2023-08-07T06:04:00.000Z</time>
</trkpt>
<trkpt lat="46.1103040" lon="10.5199110">
	<ele>2358.00</ele>
	<time>2023-08-07T06:04:01.000Z</time>
</trkpt>
<trkpt lat="46.1103040" lon="10.5199110">
	<ele>2358.00</ele>
	<time>2023-08-07T06:04:02.000Z</time>
</trkpt>
<trkpt lat="46.1103040" lon="10.5199110">
	<ele>2357.80</ele>
	<time>2023-08-07T06:04:03.000Z</time>
</trkpt>
<trkpt lat="46.1103040" lon="10.5199110">
	<ele>2357.60</ele>
	<time>2023-08-07T06:04:04.000Z</time>
</trkpt>
<trkpt lat="46.1103040" lon="10.5199110">
	<ele>2357.80</ele>
	<time>2023-08-07T06:04:05.000Z</time>
</trkpt>
<trkpt lat="46.1103040" lon="10.5199110">
	<ele>2358.00</ele>
	<time>2023-08-07T06:04:06.000Z</time>
</trkpt>
<trkpt lat="46.1103040" lon="10.5199110">
	<ele>2358.00</ele>
	<time>2023-08-07T06:04:07.000Z</time>
</trkpt>
<trkpt lat="46.1103040" lon="10.5199110">
	<ele>2358.20</ele>
	<time>2023-08-07T06:04:08.000Z</time>
</trkpt>
<trkpt lat="46.1103040" lon="10.5199110">
	<ele>2358.20</ele>
	<time>2023-08-07T06:04:09.000Z</time>
</trkpt>
<trkpt lat="46.1103040" lon="10.5199120">
	<ele>2358.20</ele>
	<time>2023-08-07T06:04:10.000Z</time>
</trkpt>
<trkpt lat="46.1103040" lon="10.5199130">
	<ele>2358.20</ele>
	<time>2023-08-07T06:04:11.000Z</time>
</trkpt>
<trkpt lat="46.1103040" lon="10.5199130">
	<ele>2358.20</ele>
	<time>2023-08-07T06:04:12.000Z</time>
</trkpt>
<trkpt lat="46.1103040" lon="10.5199130">
	<ele>2358.00</ele>
	<time>2023-08-07T06:04:13.000Z</time>
</trkpt>
<trkpt lat="46.1103040" lon="10.5199140">
	<ele>2357.80</ele>
	<time>2023-08-07T06:04:14.000Z</time>
</trkpt>
<trkpt lat="46.1103040" lon="10.5199140">
	<ele>2357.60</ele>
	<time>2023-08-07T06:04:15.000Z</time>
</trkpt>
<trkpt lat="46.1103040" lon="10.5199140">
	<ele>2357.60</ele>
	<time>2023-08-07T06:04:16.000Z</time>
</trkpt>
<trkpt lat="46.1103050" lon="10.5199150">
	<ele>2357.60</ele>
	<time>2023-08-07T06:04:17.000Z</time>
</trkpt>
<trkpt lat="46.1103050" lon="10.5199150">
	<ele>2357.80</ele>
	<time>2023-08-07T06:04:18.000Z</time>
</trkpt>
<trkpt lat="46.1103050" lon="10.5199150">
	<ele>2358.00</ele>
	<time>2023-08-07T06:04:19.000Z</time>
</trkpt>
<trkpt lat="46.1103060" lon="10.5199150">
	<ele>2358.00</ele>
	<time>2023-08-07T06:04:20.000Z</time>
</trkpt>
<trkpt lat="46.1103060" lon="10.5199150">
	<ele>2358.20</ele>
	<time>2023-08-07T06:04:21.000Z</time>
</trkpt>
<trkpt lat="46.1103060" lon="10.5199150">
	<ele>2358.20</ele>
	<time>2023-08-07T06:04:22.000Z</time>
</trkpt>
<trkpt lat="46.1103070" lon="10.5199150">
	<ele>2358.20</ele>
	<time>2023-08-07T06:04:23.000Z</time>
</trkpt>
<trkpt lat="46.1103070" lon="10.5199150">
	<ele>2358.20</ele>
	<time>2023-08-07T06:04:24.000Z</time>
</trkpt>
<trkpt lat="46.1103070" lon="10.5199150">
	<ele>2358.20</ele>
	<time>2023-08-07T06:04:25.000Z</time>
</trkpt>
<trkpt lat="46.1103070" lon="10.5199140">
	<ele>2358.20</ele>
	<time>2023-08-07T06:04:26.000Z</time>
</trkpt>
<trkpt lat="46.1103070" lon="10.5199140">
	<ele>2358.20</ele>
	<time>2023-08-07T06:04:27.000Z</time>
</trkpt>
<trkpt lat="46.1103080" lon="10.5199130">
	<ele>2358.00</ele>
	<time>2023-08-07T06:04:28.000Z</time>
</trkpt>
<trkpt lat="46.1103080" lon="10.5199130">
	<ele>2358.20</ele>
	<time>2023-08-07T06:04:29.000Z</time>
</trkpt>
<trkpt lat="46.1103090" lon="10.5199120">
	<ele>2358.20</ele>
	<time>2023-08-07T06:04:30.000Z</time>
</trkpt>
<trkpt lat="46.1103090" lon="10.5199100">
	<ele>2358.20</ele>
	<time>2023-08-07T06:04:31.000Z</time>
</trkpt>
<trkpt lat="46.1103090" lon="10.5199090">
	<ele>2358.20</ele>
	<time>2023-08-07T06:04:32.000Z</time>
</trkpt>
<trkpt lat="46.1103100" lon="10.5199070">
	<ele>2358.20</ele>
	<time>2023-08-07T06:04:33.000Z</time>
</trkpt>
<trkpt lat="46.1103110" lon="10.5199060">
	<ele>2358.20</ele>
	<time>2023-08-07T06:04:34.000Z</time>
</trkpt>
<trkpt lat="46.1103120" lon="10.5199050">
	<ele>2358.20</ele>
	<time>2023-08-07T06:04:35.000Z</time>
</trkpt>
<trkpt lat="46.1103130" lon="10.5199040">
	<ele>2358.20</ele>
	<time>2023-08-07T06:04:36.000Z</time>
</trkpt>
<trkpt lat="46.1103140" lon="10.5199030">
	<ele>2358.40</ele>
	<time>2023-08-07T06:04:37.000Z</time>
</trkpt>
<trkpt lat="46.1103150" lon="10.5199030">
	<ele>2358.40</ele>
	<time>2023-08-07T06:04:38.000Z</time>
</trkpt>
<trkpt lat="46.1103160" lon="10.5199020">
	<ele>2358.40</ele>
	<time>2023-08-07T06:04:39.000Z</time>
</trkpt>
<trkpt lat="46.1103170" lon="10.5199020">
	<ele>2358.40</ele>
	<time>2023-08-07T06:04:40.000Z</time>
</trkpt>
<trkpt lat="46.1103180" lon="10.5199010">
	<ele>2358.40</ele>
	<time>2023-08-07T06:04:41.000Z</time>
</trkpt>
<trkpt lat="46.1103200" lon="10.5198990">
	<ele>2358.40</ele>
	<time>2023-08-07T06:04:42.000Z</time>
</trkpt>
<trkpt lat="46.1103210" lon="10.5198950">
	<ele>2358.40</ele>
	<time>2023-08-07T06:04:43.000Z</time>
</trkpt>
<trkpt lat="46.1103220" lon="10.5198930">
	<ele>2358.40</ele>
	<time>2023-08-07T06:04:44.000Z</time>
</trkpt>
<trkpt lat="46.1103220" lon="10.5198920">
	<ele>2358.40</ele>
	<time>2023-08-07T06:04:45.000Z</time>
</trkpt>
<trkpt lat="46.1103230" lon="10.5198910">
	<ele>2358.40</ele>
	<time>2023-08-07T06:04:46.000Z</time>
</trkpt>
<trkpt lat="46.1103230" lon="10.5198910">
	<ele>2358.40</ele>
	<time>2023-08-07T06:04:47.000Z</time>
</trkpt>
<trkpt lat="46.1103230" lon="10.5198910">
	<ele>2358.40</ele>
	<time>2023-08-07T06:04:48.000Z</time>
</trkpt>
<trkpt lat="46.1103240" lon="10.5198910">
	<ele>2358.40</ele>
	<time>2023-08-07T06:04:49.000Z</time>
</trkpt>
<trkpt lat="46.1103240" lon="10.5198910">
	<ele>2358.60</ele>
	<time>2023-08-07T06:04:50.000Z</time>
</trkpt>
<trkpt lat="46.1103240" lon="10.5198910">
	<ele>2358.80</ele>
	<time>2023-08-07T06:04:51.000Z</time>
</trkpt>
<trkpt lat="46.1103240" lon="10.5198910">
	<ele>2358.80</ele>
	<time>2023-08-07T06:04:52.000Z</time>
</trkpt>
<trkpt lat="46.1103250" lon="10.5198900">
	<ele>2359.00</ele>
	<time>2023-08-07T06:04:53.000Z</time>
</trkpt>
<trkpt lat="46.1103250" lon="10.5198900">
	<ele>2359.00</ele>
	<time>2023-08-07T06:04:54.000Z</time>
</trkpt>
<trkpt lat="46.1103260" lon="10.5198900">
	<ele>2359.00</ele>
	<time>2023-08-07T06:04:55.000Z</time>
</trkpt>
<trkpt lat="46.1103260" lon="10.5198900">
	<ele>2358.80</ele>
	<time>2023-08-07T06:04:56.000Z</time>
</trkpt>
<trkpt lat="46.1103270" lon="10.5198900">
	<ele>2358.80</ele>
	<time>2023-08-07T06:04:57.000Z</time>
</trkpt>
<trkpt lat="46.1103270" lon="10.5198900">
	<ele>2358.60</ele>
	<time>2023-08-07T06:04:58.000Z</time>
</trkpt>
<trkpt lat="46.1103270" lon="10.5198890">
	<ele>2358.40</ele>
	<time>2023-08-07T06:04:59.000Z</time>
</trkpt>
<trkpt lat="46.1103270" lon="10.5198890">
	<ele>2358.40</ele>
	<time>2023-08-07T06:05:00.000Z</time>
</trkpt>
<trkpt lat="46.1103270" lon="10.5198890">
	<ele>2358.60</ele>
	<time>2023-08-07T06:05:01.000Z</time>
</trkpt>
<trkpt lat="46.1103270" lon="10.5198890">
	<ele>2358.60</ele>
	<time>2023-08-07T06:05:02.000Z</time>
</trkpt>
<trkpt lat="46.1103260" lon="10.5198890">
	<ele>2358.60</ele>
	<time>2023-08-07T06:05:03.000Z</time>
</trkpt>
<trkpt lat="46.1103260" lon="10.5198890">
	<ele>2358.60</ele>
	<time>2023-08-07T06:05:04.000Z</time>
</trkpt>
<trkpt lat="46.1103260" lon="10.5198890">
	<ele>2358.60</ele>
	<time>2023-08-07T06:05:05.000Z</time>
</trkpt>
<trkpt lat="46.1103260" lon="10.5198890">
	<ele>2358.60</ele>
	<time>2023-08-07T06:05:06.000Z</time>
</trkpt>
<trkpt lat="46.1103260" lon="10.5198890">
	<ele>2358.80</ele>
	<time>2023-08-07T06:05:07.000Z</time>
</trkpt>
<trkpt lat="46.1103260" lon="10.5198890">
	<ele>2358.80</ele>
	<time>2023-08-07T06:05:08.000Z</time>
</trkpt>
<trkpt lat="46.1103260" lon="10.5198890">
	<ele>2358.80</ele>
	<time>2023-08-07T06:05:09.000Z</time>
</trkpt>
<trkpt lat="46.1103260" lon="10.5198890">
	<ele>2359.00</ele>
	<time>2023-08-07T06:05:10.000Z</time>
</trkpt>
<trkpt lat="46.1103260" lon="10.5198890">
	<ele>2359.00</ele>
	<time>2023-08-07T06:05:11.000Z</time>
</trkpt>
<trkpt lat="46.1103260" lon="10.5198890">
	<ele>2359.00</ele>
	<time>2023-08-07T06:05:12.000Z</time>
</trkpt>
<trkpt lat="46.1103260" lon="10.5198880">
	<ele>2359.00</ele>
	<time>2023-08-07T06:05:13.000Z</time>
</trkpt>
<trkpt lat="46.1103260" lon="10.5198880">
	<ele>2358.80</ele>
	<time>2023-08-07T06:05:14.000Z</time>
</trkpt>
<trkpt lat="46.1103260" lon="10.5198880">
	<ele>2358.60</ele>
	<time>2023-08-07T06:05:15.000Z</time>
</trkpt>
<trkpt lat="46.1103260" lon="10.5198880">
	<ele>2358.60</ele>
	<time>2023-08-07T06:05:16.000Z</time>
</trkpt>
<trkpt lat="46.1103260" lon="10.5198880">
	<ele>2358.40</ele>
	<time>2023-08-07T06:05:17.000Z</time>
</trkpt>
<trkpt lat="46.1103260" lon="10.5198870">
	<ele>2358.40</ele>
	<time>2023-08-07T06:05:18.000Z</time>
</trkpt>
<trkpt lat="46.1103260" lon="10.5198870">
	<ele>2358.40</ele>
	<time>2023-08-07T06:05:19.000Z</time>
</trkpt>
<trkpt lat="46.1103260" lon="10.5198870">
	<ele>2358.40</ele>
	<time>2023-08-07T06:05:20.000Z</time>
</trkpt>
<trkpt lat="46.1103260" lon="10.5198860">
	<ele>2358.40</ele>
	<time>2023-08-07T06:05:21.000Z</time>
</trkpt>
<trkpt lat="46.1103260" lon="10.5198860">
	<ele>2358.60</ele>
	<time>2023-08-07T06:05:22.000Z</time>
</trkpt>
<trkpt lat="46.1103260" lon="10.5198850">
	<ele>2359.00</ele>
	<time>2023-08-07T06:05:23.000Z</time>
</trkpt>
<trkpt lat="46.1103260" lon="10.5198830">
	<ele>2359.00</ele>
	<time>2023-08-07T06:05:24.000Z</time>
</trkpt>
<trkpt lat="46.1103260" lon="10.5198810">
	<ele>2359.00</ele>
	<time>2023-08-07T06:05:25.000Z</time>
</trkpt>
<trkpt lat="46.1103260" lon="10.5198800">
	<ele>2359.20</ele>
	<time>2023-08-07T06:05:26.000Z</time>
</trkpt>
<trkpt lat="46.1103260" lon="10.5198790">
	<ele>2359.20</ele>
	<time>2023-08-07T06:05:27.000Z</time>
</trkpt>
<trkpt lat="46.1103260" lon="10.5198770">
	<ele>2359.20</ele>
	<time>2023-08-07T06:05:28.000Z</time>
</trkpt>
<trkpt lat="46.1103260" lon="10.5198750">
	<ele>2359.00</ele>
	<time>2023-08-07T06:05:29.000Z</time>
</trkpt>
<trkpt lat="46.1103260" lon="10.5198730">
	<ele>2359.00</ele>
	<time>2023-08-07T06:05:30.000Z</time>
</trkpt>
<trkpt lat="46.1103270" lon="10.5198710">
	<ele>2359.00</ele>
	<time>2023-08-07T06:05:31.000Z</time>
</trkpt>
<trkpt lat="46.1103270" lon="10.5198700">
	<ele>2359.00</ele>
	<time>2023-08-07T06:05:32.000Z</time>
</trkpt>
<trkpt lat="46.1103280" lon="10.5198690">
	<ele>2359.20</ele>
	<time>2023-08-07T06:05:33.000Z</time>
</trkpt>
<trkpt lat="46.1103280" lon="10.5198680">
	<ele>2359.40</ele>
	<time>2023-08-07T06:05:34.000Z</time>
</trkpt>
<trkpt lat="46.1103290" lon="10.5198670">
	<ele>2359.40</ele>
	<time>2023-08-07T06:05:35.000Z</time>
</trkpt>
<trkpt lat="46.1103290" lon="10.5198660">
	<ele>2359.60</ele>
	<time>2023-08-07T06:05:36.000Z</time>
</trkpt>
<trkpt lat="46.1103300" lon="10.5198660">
	<ele>2359.80</ele>
	<time>2023-08-07T06:05:37.000Z</time>
</trkpt>
<trkpt lat="46.1103310" lon="10.5198650">
	<ele>2359.80</ele>
	<time>2023-08-07T06:05:38.000Z</time>
</trkpt>
<trkpt lat="46.1103310" lon="10.5198640">
	<ele>2360.00</ele>
	<time>2023-08-07T06:05:39.000Z</time>
</trkpt>
<trkpt lat="46.1103320" lon="10.5198640">
	<ele>2360.00</ele>
	<time>2023-08-07T06:05:40.000Z</time>
</trkpt>
<trkpt lat="46.1103320" lon="10.5198630">
	<ele>2360.20</ele>
	<time>2023-08-07T06:05:41.000Z</time>
</trkpt>
<trkpt lat="46.1103330" lon="10.5198620">
	<ele>2360.20</ele>
	<time>2023-08-07T06:05:42.000Z</time>
</trkpt>
<trkpt lat="46.1103330" lon="10.5198610">
	<ele>2360.40</ele>
	<time>2023-08-07T06:05:43.000Z</time>
</trkpt>
<trkpt lat="46.1103330" lon="10.5198600">
	<ele>2360.80</ele>
	<time>2023-08-07T06:05:44.000Z</time>
</trkpt>
<trkpt lat="46.1103340" lon="10.5198600">
	<ele>2361.20</ele>
	<time>2023-08-07T06:05:45.000Z</time>
</trkpt>
<trkpt lat="46.1103340" lon="10.5198590">
	<ele>2361.40</ele>
	<time>2023-08-07T06:05:46.000Z</time>
</trkpt>
<trkpt lat="46.1103350" lon="10.5198580">
	<ele>2361.40</ele>
	<time>2023-08-07T06:05:47.000Z</time>
</trkpt>
<trkpt lat="46.1103350" lon="10.5198570">
	<ele>2361.60</ele>
	<time>2023-08-07T06:05:48.000Z</time>
</trkpt>
<trkpt lat="46.1103360" lon="10.5198560">
	<ele>2362.00</ele>
	<time>2023-08-07T06:05:49.000Z</time>
</trkpt>
<trkpt lat="46.1103380" lon="10.5198540">
	<ele>2362.20</ele>
	<time>2023-08-07T06:05:50.000Z</time>
</trkpt>
<trkpt lat="46.1103390" lon="10.5198520">
	<ele>2362.40</ele>
	<time>2023-08-07T06:05:51.000Z</time>
</trkpt>
<trkpt lat="46.1103400" lon="10.5198500">
	<ele>2362.40</ele>
	<time>2023-08-07T06:05:52.000Z</time>
</trkpt>
<trkpt lat="46.1103410" lon="10.5198480">
	<ele>2362.40</ele>
	<time>2023-08-07T06:05:53.000Z</time>
</trkpt>
<trkpt lat="46.1103420" lon="10.5198450">
	<ele>2362.60</ele>
	<time>2023-08-07T06:05:54.000Z</time>
</trkpt>
<trkpt lat="46.1103430" lon="10.5198430">
	<ele>2362.60</ele>
	<time>2023-08-07T06:05:55.000Z</time>
</trkpt>
<trkpt lat="46.1103440" lon="10.5198400">
	<ele>2362.60</ele>
	<time>2023-08-07T06:05:56.000Z</time>
</trkpt>
<trkpt lat="46.1103440" lon="10.5198370">
	<ele>2362.80</ele>
	<time>2023-08-07T06:05:57.000Z</time>
</trkpt>
<trkpt lat="46.1103450" lon="10.5198340">
	<ele>2362.80</ele>
	<time>2023-08-07T06:05:58.000Z</time>
</trkpt>
<trkpt lat="46.1103450" lon="10.5198310">
	<ele>2363.00</ele>
	<time>2023-08-07T06:05:59.000Z</time>
</trkpt>
<trkpt lat="46.1103450" lon="10.5198280">
	<ele>2363.20</ele>
	<time>2023-08-07T06:06:00.000Z</time>
</trkpt>
<trkpt lat="46.1103460" lon="10.5198250">
	<ele>2363.20</ele>
	<time>2023-08-07T06:06:01.000Z</time>
</trkpt>
<trkpt lat="46.1103460" lon="10.5198220">
	<ele>2363.40</ele>
	<time>2023-08-07T06:06:02.000Z</time>
</trkpt>
<trkpt lat="46.1103470" lon="10.5198180">
	<ele>2363.40</ele>
	<time>2023-08-07T06:06:03.000Z</time>
</trkpt>
<trkpt lat="46.1103470" lon="10.5198150">
	<ele>2363.60</ele>
	<time>2023-08-07T06:06:04.000Z</time>
</trkpt>
<trkpt lat="46.1103470" lon="10.5198120">
	<ele>2363.60</ele>
	<time>2023-08-07T06:06:05.000Z</time>
</trkpt>
<trkpt lat="46.1103470" lon="10.5198090">
	<ele>2363.60</ele>
	<time>2023-08-07T06:06:06.000Z</time>
</trkpt>
<trkpt lat="46.1103470" lon="10.5198070">
	<ele>2363.60</ele>
	<time>2023-08-07T06:06:07.000Z</time>
</trkpt>
<trkpt lat="46.1103480" lon="10.5198050">
	<ele>2363.60</ele>
	<time>2023-08-07T06:06:08.000Z</time>
</trkpt>
<trkpt lat="46.1103480" lon="10.5198020">
	<ele>2363.80</ele>
	<time>2023-08-07T06:06:09.000Z</time>
</trkpt>
<trkpt lat="46.1103480" lon="10.5198000">
	<ele>2364.00</ele>
	<time>2023-08-07T06:06:10.000Z</time>
</trkpt>
<trkpt lat="46.1103480" lon="10.5197970">
	<ele>2364.00</ele>
	<time>2023-08-07T06:06:11.000Z</time>
</trkpt>
<trkpt lat="46.1103480" lon="10.5197950">
	<ele>2364.00</ele>
	<time>2023-08-07T06:06:12.000Z</time>
</trkpt>
<trkpt lat="46.1103480" lon="10.5197920">
	<ele>2364.00</ele>
	<time>2023-08-07T06:06:13.000Z</time>
</trkpt>
<trkpt lat="46.1103480" lon="10.5197900">
	<ele>2364.00</ele>
	<time>2023-08-07T06:06:14.000Z</time>
</trkpt>
<trkpt lat="46.1103480" lon="10.5197870">
	<ele>2364.00</ele>
	<time>2023-08-07T06:06:15.000Z</time>
</trkpt>
<trkpt lat="46.1103480" lon="10.5197850">
	<ele>2363.80</ele>
	<time>2023-08-07T06:06:16.000Z</time>
</trkpt>
<trkpt lat="46.1103480" lon="10.5197830">
	<ele>2363.40</ele>
	<time>2023-08-07T06:06:17.000Z</time>
</trkpt>
<trkpt lat="46.1103480" lon="10.5197810">
	<ele>2363.00</ele>
	<time>2023-08-07T06:06:18.000Z</time>
</trkpt>
<trkpt lat="46.1103480" lon="10.5197790">
	<ele>2362.80</ele>
	<time>2023-08-07T06:06:19.000Z</time>
</trkpt>
<trkpt lat="46.1103480" lon="10.5197780">
	<ele>2363.00</ele>
	<time>2023-08-07T06:06:20.000Z</time>
</trkpt>
<trkpt lat="46.1103440" lon="10.5197630">
	<ele>2363.00</ele>
	<time>2023-08-07T06:06:21.000Z</time>
</trkpt>
<trkpt lat="46.1103350" lon="10.5197430">
	<ele>2362.80</ele>
	<time>2023-08-07T06:06:22.000Z</time>
</trkpt>
<trkpt lat="46.1103260" lon="10.5197260">
	<ele>2362.80</ele>
	<time>2023-08-07T06:06:23.000Z</time>
</trkpt>
<trkpt lat="46.1103150" lon="10.5197060">
	<ele>2363.00</ele>
	<time>2023-08-07T06:06:24.000Z</time>
</trkpt>
<trkpt lat="46.1103040" lon="10.5196850">
	<ele>2363.20</ele>
	<time>2023-08-07T06:06:25.000Z</time>
</trkpt>
<trkpt lat="46.1102930" lon="10.5196630">
	<ele>2363.40</ele>
	<time>2023-08-07T06:06:26.000Z</time>
</trkpt>
<trkpt lat="46.1102840" lon="10.5196410">
	<ele>2363.60</ele>
	<time>2023-08-07T06:06:27.000Z</time>
</trkpt>
<trkpt lat="46.1102770" lon="10.5196220">
	<ele>2363.80</ele>
	<time>2023-08-07T06:06:28.000Z</time>
</trkpt>
<trkpt lat="46.1102680" lon="10.5196040">
	<ele>2364.00</ele>
	<time>2023-08-07T06:06:29.000Z</time>
</trkpt>
<trkpt lat="46.1102610" lon="10.5195850">
	<ele>2364.00</ele>
	<time>2023-08-07T06:06:30.000Z</time>
</trkpt>
<trkpt lat="46.1102560" lon="10.5195810">
	<ele>2364.20</ele>
	<time>2023-08-07T06:06:31.000Z</time>
</trkpt>
<trkpt lat="46.1102500" lon="10.5195800">
	<ele>2364.20</ele>
	<time>2023-08-07T06:06:32.000Z</time>
</trkpt>
<trkpt lat="46.1102470" lon="10.5195810">
	<ele>2364.40</ele>
	<time>2023-08-07T06:06:33.000Z</time>
</trkpt>
<trkpt lat="46.1102440" lon="10.5195830">
	<ele>2364.60</ele>
	<time>2023-08-07T06:06:34.000Z</time>
</trkpt>
<trkpt lat="46.1102410" lon="10.5195830">
	<ele>2364.60</ele>
	<time>2023-08-07T06:06:35.000Z</time>
</trkpt>
<trkpt lat="46.1102340" lon="10.5195870">
	<ele>2364.80</ele>
	<time>2023-08-07T06:06:36.000Z</time>
</trkpt>
<trkpt lat="46.1102300" lon="10.5195870">
	<ele>2365.00</ele>
	<time>2023-08-07T06:06:37.000Z</time>
</trkpt>
<trkpt lat="46.1102270" lon="10.5195800">
	<ele>2365.20</ele>
	<time>2023-08-07T06:06:38.000Z</time>
</trkpt>
<trkpt lat="46.1102240" lon="10.5195700">
	<ele>2365.40</ele>
	<time>2023-08-07T06:06:39.000Z</time>
</trkpt>
<trkpt lat="46.1102200" lon="10.5195690">
	<ele>2365.60</ele>
	<time>2023-08-07T06:06:40.000Z</time>
</trkpt>
<trkpt lat="46.1102180" lon="10.5195650">
	<ele>2365.80</ele>
	<time>2023-08-07T06:06:41.000Z</time>
</trkpt>
<trkpt lat="46.1102140" lon="10.5195620">
	<ele>2366.00</ele>
	<time>2023-08-07T06:06:42.000Z</time>
</trkpt>
<trkpt lat="46.1102120" lon="10.5195560">
	<ele>2366.20</ele>
	<time>2023-08-07T06:06:43.000Z</time>
</trkpt>
<trkpt lat="46.1102070" lon="10.5195470">
	<ele>2366.20</ele>
	<time>2023-08-07T06:06:44.000Z</time>
</trkpt>
<trkpt lat="46.1102060" lon="10.5195370">
	<ele>2366.40</ele>
	<time>2023-08-07T06:06:45.000Z</time>
</trkpt>
<trkpt lat="46.1102060" lon="10.5195240">
	<ele>2366.40</ele>
	<time>2023-08-07T06:06:46.000Z</time>
</trkpt>
<trkpt lat="46.1102050" lon="10.5195170">
	<ele>2366.60</ele>
	<time>2023-08-07T06:06:47.000Z</time>
</trkpt>
<trkpt lat="46.1102070" lon="10.5195130">
	<ele>2366.60</ele>
	<time>2023-08-07T06:06:48.000Z</time>
</trkpt>
<trkpt lat="46.1102070" lon="10.5195100">
	<ele>2366.80</ele>
	<time>2023-08-07T06:06:49.000Z</time>
</trkpt>
<trkpt lat="46.1102080" lon="10.5195060">
	<ele>2367.20</ele>
	<time>2023-08-07T06:06:50.000Z</time>
</trkpt>
<trkpt lat="46.1102090" lon="10.5195020">
	<ele>2367.40</ele>
	<time>2023-08-07T06:06:51.000Z</time>
</trkpt>
<trkpt lat="46.1102110" lon="10.5194990">
	<ele>2367.40</ele>
	<time>2023-08-07T06:06:52.000Z</time>
</trkpt>
<trkpt lat="46.1102120" lon="10.5194950">
	<ele>2367.80</ele>
	<time>2023-08-07T06:06:53.000Z</time>
</trkpt>
<trkpt lat="46.1102170" lon="10.5194940">
	<ele>2368.00</ele>
	<time>2023-08-07T06:06:54.000Z</time>
</trkpt>
<trkpt lat="46.1102190" lon="10.5194920">
	<ele>2368.40</ele>
	<time>2023-08-07T06:06:55.000Z</time>
</trkpt>
<trkpt lat="46.1102200" lon="10.5194900">
	<ele>2368.60</ele>
	<time>2023-08-07T06:06:56.000Z</time>
</trkpt>
<trkpt lat="46.1102230" lon="10.5194860">
	<ele>2368.80</ele>
	<time>2023-08-07T06:06:57.000Z</time>
</trkpt>
<trkpt lat="46.1102250" lon="10.5194850">
	<ele>2369.00</ele>
	<time>2023-08-07T06:06:58.000Z</time>
</trkpt>
<trkpt lat="46.1102290" lon="10.5194850">
	<ele>2369.40</ele>
	<time>2023-08-07T06:06:59.000Z</time>
</trkpt>
<trkpt lat="46.1102330" lon="10.5194810">
	<ele>2369.60</ele>
	<time>2023-08-07T06:07:00.000Z</time>
</trkpt>
<trkpt lat="46.1102340" lon="10.5194800">
	<ele>2369.80</ele>
	<time>2023-08-07T06:07:01.000Z</time>
</trkpt>
<trkpt lat="46.1102350" lon="10.5194750">
	<ele>2369.80</ele>
	<time>2023-08-07T06:07:02.000Z</time>
</trkpt>
<trkpt lat="46.1102350" lon="10.5194660">
	<ele>2370.00</ele>
	<time>2023-08-07T06:07:03.000Z</time>
</trkpt>
<trkpt lat="46.1102370" lon="10.5194620">
	<ele>2370.00</ele>
	<time>2023-08-07T06:07:04.000Z</time>
</trkpt>
<trkpt lat="46.1102390" lon="10.5194590">
	<ele>2370.20</ele>
	<time>2023-08-07T06:07:05.000Z</time>
</trkpt>
<trkpt lat="46.1102400" lon="10.5194550">
	<ele>2370.40</ele>
	<time>2023-08-07T06:07:06.000Z</time>
</trkpt>
<trkpt lat="46.1102390" lon="10.5194520">
	<ele>2370.60</ele>
	<time>2023-08-07T06:07:07.000Z</time>
</trkpt>
<trkpt lat="46.1102430" lon="10.5194530">
	<ele>2370.60</ele>
	<time>2023-08-07T06:07:08.000Z</time>
</trkpt>
<trkpt lat="46.1102450" lon="10.5194480">
	<ele>2370.80</ele>
	<time>2023-08-07T06:07:09.000Z</time>
</trkpt>
<trkpt lat="46.1102460" lon="10.5194420">
	<ele>2370.80</ele>
	<time>2023-08-07T06:07:10.000Z</time>
</trkpt>
<trkpt lat="46.1102460" lon="10.5194370">
	<ele>2371.20</ele>
	<time>2023-08-07T06:07:11.000Z</time>
</trkpt>
<trkpt lat="46.1102450" lon="10.5194340">
	<ele>2371.40</ele>
	<time>2023-08-07T06:07:12.000Z</time>
</trkpt>
<trkpt lat="46.1102520" lon="10.5194370">
	<ele>2371.60</ele>
	<time>2023-08-07T06:07:13.000Z</time>
</trkpt>
<trkpt lat="46.1102520" lon="10.5194350">
	<ele>2371.60</ele>
	<time>2023-08-07T06:07:14.000Z</time>
</trkpt>
<trkpt lat="46.1102530" lon="10.5194300">
	<ele>2371.80</ele>
	<time>2023-08-07T06:07:15.000Z</time>
</trkpt>
<trkpt lat="46.1102520" lon="10.5194260">
	<ele>2372.00</ele>
	<time>2023-08-07T06:07:16.000Z</time>
</trkpt>
<trkpt lat="46.1102500" lon="10.5194230">
	<ele>2372.00</ele>
	<time>2023-08-07T06:07:17.000Z</time>
</trkpt>
<trkpt lat="46.1102530" lon="10.5194210">
	<ele>2372.20</ele>
	<time>2023-08-07T06:07:18.000Z</time>
</trkpt>
<trkpt lat="46.1102570" lon="10.5194210">
	<ele>2372.20</ele>
	<time>2023-08-07T06:07:19.000Z</time>
</trkpt>
<trkpt lat="46.1102590" lon="10.5194190">
	<ele>2372.20</ele>
	<time>2023-08-07T06:07:20.000Z</time>
</trkpt>
<trkpt lat="46.1102610" lon="10.5194170">
	<ele>2372.40</ele>
	<time>2023-08-07T06:07:21.000Z</time>
</trkpt>
<trkpt lat="46.1102610" lon="10.5194120">
	<ele>2372.40</ele>
	<time>2023-08-07T06:07:22.000Z</time>
</trkpt>
<trkpt lat="46.1102610" lon="10.5194080">
	<ele>2372.40</ele>
	<time>2023-08-07T06:07:23.000Z</time>
</trkpt>
<trkpt lat="46.1102610" lon="10.5194050">
	<ele>2372.80</ele>
	<time>2023-08-07T06:07:24.000Z</time>
</trkpt>
<trkpt lat="46.1102630" lon="10.5194030">
	<ele>2373.00</ele>
	<time>2023-08-07T06:07:25.000Z</time>
</trkpt>
<trkpt lat="46.1102630" lon="10.5193990">
	<ele>2373.00</ele>
	<time>2023-08-07T06:07:26.000Z</time>
</trkpt>
<trkpt lat="46.1102630" lon="10.5193930">
	<ele>2373.20</ele>
	<time>2023-08-07T06:07:27.000Z</time>
</trkpt>
<trkpt lat="46.1102640" lon="10.5193860">
	<ele>2373.20</ele>
	<time>2023-08-07T06:07:28.000Z</time>
</trkpt>
<trkpt lat="46.1102650" lon="10.5193790">
	<ele>2373.40</ele>
	<time>2023-08-07T06:07:29.000Z</time>
</trkpt>
<trkpt lat="46.1102680" lon="10.5193740">
	<ele>2373.40</ele>
	<time>2023-08-07T06:07:30.000Z</time>
</trkpt>
<trkpt lat="46.1102720" lon="10.5193710">
	<ele>2373.60</ele>
	<time>2023-08-07T06:07:31.000Z</time>
</trkpt>
<trkpt lat="46.1102730" lon="10.5193710">
	<ele>2373.80</ele>
	<time>2023-08-07T06:07:32.000Z</time>
</trkpt>
<trkpt lat="46.1102740" lon="10.5193680">
	<ele>2374.00</ele>
	<time>2023-08-07T06:07:33.000Z</time>
</trkpt>
<trkpt lat="46.1102770" lon="10.5193640">
	<ele>2374.20</ele>
	<time>2023-08-07T06:07:34.000Z</time>
</trkpt>
<trkpt lat="46.1102780" lon="10.5193580">
	<ele>2374.40</ele>
	<time>2023-08-07T06:07:35.000Z</time>
</trkpt>
<trkpt lat="46.1102790" lon="10.5193570">
	<ele>2374.40</ele>
	<time>2023-08-07T06:07:36.000Z</time>
</trkpt>
<trkpt lat="46.1102820" lon="10.5193580">
	<ele>2374.60</ele>
	<time>2023-08-07T06:07:37.000Z</time>
</trkpt>
<trkpt lat="46.1102820" lon="10.5193600">
	<ele>2374.80</ele>
	<time>2023-08-07T06:07:38.000Z</time>
</trkpt>
<trkpt lat="46.1102840" lon="10.5193600">
	<ele>2375.00</ele>
	<time>2023-08-07T06:07:39.000Z</time>
</trkpt>
<trkpt lat="46.1102860" lon="10.5193510">
	<ele>2375.00</ele>
	<time>2023-08-07T06:07:40.000Z</time>
</trkpt>
<trkpt lat="46.1102860" lon="10.5193450">
	<ele>2375.20</ele>
	<time>2023-08-07T06:07:41.000Z</time>
</trkpt>
<trkpt lat="46.1102860" lon="10.5193410">
	<ele>2375.40</ele>
	<time>2023-08-07T06:07:42.000Z</time>
</trkpt>
<trkpt lat="46.1102900" lon="10.5193380">
	<ele>2375.60</ele>
	<time>2023-08-07T06:07:43.000Z</time>
</trkpt>
<trkpt lat="46.1102940" lon="10.5193320">
	<ele>2375.60</ele>
	<time>2023-08-07T06:07:44.000Z</time>
</trkpt>
<trkpt lat="46.1102960" lon="10.5193310">
	<ele>2375.80</ele>
	<time>2023-08-07T06:07:45.000Z</time>
</trkpt>
<trkpt lat="46.1102950" lon="10.5193270">
	<ele>2376.00</ele>
	<time>2023-08-07T06:07:46.000Z</time>
</trkpt>
<trkpt lat="46.1102960" lon="10.5193250">
	<ele>2376.20</ele>
	<time>2023-08-07T06:07:47.000Z</time>
</trkpt>
<trkpt lat="46.1102990" lon="10.5193240">
	<ele>2376.20</ele>
	<time>2023-08-07T06:07:48.000Z</time>
</trkpt>
<trkpt lat="46.1103000" lon="10.5193250">
	<ele>2376.40</ele>
	<time>2023-08-07T06:07:49.000Z</time>
</trkpt>
<trkpt lat="46.1103020" lon="10.5193250">
	<ele>2376.40</ele>
	<time>2023-08-07T06:07:50.000Z</time>
</trkpt>
<trkpt lat="46.1103040" lon="10.5193240">
	<ele>2376.60</ele>
	<time>2023-08-07T06:07:51.000Z</time>
</trkpt>
<trkpt lat="46.1103060" lon="10.5193170">
	<ele>2376.60</ele>
	<time>2023-08-07T06:07:52.000Z</time>
</trkpt>
<trkpt lat="46.1103080" lon="10.5193110">
	<ele>2376.60</ele>
	<time>2023-08-07T06:07:53.000Z</time>
</trkpt>
<trkpt lat="46.1103100" lon="10.5193040">
	<ele>2376.80</ele>
	<time>2023-08-07T06:07:54.000Z</time>
</trkpt>
<trkpt lat="46.1103110" lon="10.5193020">
	<ele>2377.00</ele>
	<time>2023-08-07T06:07:55.000Z</time>
</trkpt>
<trkpt lat="46.1103130" lon="10.5193030">
	<ele>2377.20</ele>
	<time>2023-08-07T06:07:56.000Z</time>
</trkpt>
<trkpt lat="46.1103150" lon="10.5193020">
	<ele>2377.60</ele>
	<time>2023-08-07T06:07:57.000Z</time>
</trkpt>
<trkpt lat="46.1103170" lon="10.5192990">
	<ele>2377.80</ele>
	<time>2023-08-07T06:07:58.000Z</time>
</trkpt>
<trkpt lat="46.1103210" lon="10.5192960">
	<ele>2377.80</ele>
	<time>2023-08-07T06:07:59.000Z</time>
</trkpt>
<trkpt lat="46.1103220" lon="10.5192950">
	<ele>2377.80</ele>
	<time>2023-08-07T06:08:00.000Z</time>
</trkpt>
<trkpt lat="46.1103240" lon="10.5192930">
	<ele>2378.00</ele>
	<time>2023-08-07T06:08:01.000Z</time>
</trkpt>
<trkpt lat="46.1103270" lon="10.5192880">
	<ele>2378.00</ele>
	<time>2023-08-07T06:08:02.000Z</time>
</trkpt>
<trkpt lat="46.1103310" lon="10.5192850">
	<ele>2378.20</ele>
	<time>2023-08-07T06:08:03.000Z</time>
</trkpt>
<trkpt lat="46.1103350" lon="10.5192790">
	<ele>2378.40</ele>
	<time>2023-08-07T06:08:04.000Z</time>
</trkpt>
<trkpt lat="46.1103350" lon="10.5192750">
	<ele>2378.60</ele>
	<time>2023-08-07T06:08:05.000Z</time>
</trkpt>
<trkpt lat="46.1103360" lon="10.5192720">
	<ele>2378.80</ele>
	<time>2023-08-07T06:08:06.000Z</time>
</trkpt>
<trkpt lat="46.1103400" lon="10.5192710">
	<ele>2379.00</ele>
	<time>2023-08-07T06:08:07.000Z</time>
</trkpt>
<trkpt lat="46.1103440" lon="10.5192690">
	<ele>2379.20</ele>
	<time>2023-08-07T06:08:08.000Z</time>
</trkpt>
<trkpt lat="46.1103470" lon="10.5192650">
	<ele>2379.40</ele>
	<time>2023-08-07T06:08:09.000Z</time>
</trkpt>
<trkpt lat="46.1103470" lon="10.5192610">
	<ele>2379.40</ele>
	<time>2023-08-07T06:08:10.000Z</time>
</trkpt>
<trkpt lat="46.1103510" lon="10.5192590">
	<ele>2379.60</ele>
	<time>2023-08-07T06:08:11.000Z</time>
</trkpt>
<trkpt lat="46.1103520" lon="10.5192560">
	<ele>2379.60</ele>
	<time>2023-08-07T06:08:12.000Z</time>
</trkpt>
<trkpt lat="46.1103540" lon="10.5192540">
	<ele>2379.80</ele>
	<time>2023-08-07T06:08:13.000Z</time>
</trkpt>
<trkpt lat="46.1103530" lon="10.5192500">
	<ele>2380.00</ele>
	<time>2023-08-07T06:08:14.000Z</time>
</trkpt>
<trkpt lat="46.1103560" lon="10.5192460">
	<ele>2380.20</ele>
	<time>2023-08-07T06:08:15.000Z</time>
</trkpt>
<trkpt lat="46.1103590" lon="10.5192470">
	<ele>2380.20</ele>
	<time>2023-08-07T06:08:16.000Z</time>
</trkpt>
<trkpt lat="46.1103590" lon="10.5192480">
	<ele>2380.20</ele>
	<time>2023-08-07T06:08:17.000Z</time>
</trkpt>
<trkpt lat="46.1103590" lon="10.5192460">
	<ele>2380.40</ele>
	<time>2023-08-07T06:08:18.000Z</time>
</trkpt>
<trkpt lat="46.1103580" lon="10.5192360">
	<ele>2380.40</ele>
	<time>2023-08-07T06:08:19.000Z</time>
</trkpt>
<trkpt lat="46.1103570" lon="10.5192300">
	<ele>2380.40</ele>
	<time>2023-08-07T06:08:20.000Z</time>
</trkpt>
<trkpt lat="46.1103570" lon="10.5192240">
	<ele>2380.40</ele>
	<time>2023-08-07T06:08:21.000Z</time>
</trkpt>
<trkpt lat="46.1103590" lon="10.5192210">
	<ele>2380.80</ele>
	<time>2023-08-07T06:08:22.000Z</time>
</trkpt>
<trkpt lat="46.1103610" lon="10.5192200">
	<ele>2381.20</ele>
	<time>2023-08-07T06:08:23.000Z</time>
</trkpt>
<trkpt lat="46.1103620" lon="10.5192190">
	<ele>2381.40</ele>
	<time>2023-08-07T06:08:24.000Z</time>
</trkpt>
<trkpt lat="46.1103650" lon="10.5192170">
	<ele>2381.60</ele>
	<time>2023-08-07T06:08:25.000Z</time>
</trkpt>
<trkpt lat="46.1103680" lon="10.5192150">
	<ele>2381.80</ele>
	<time>2023-08-07T06:08:26.000Z</time>
</trkpt>
<trkpt lat="46.1103710" lon="10.5192130">
	<ele>2382.00</ele>
	<time>2023-08-07T06:08:27.000Z</time>
</trkpt>
<trkpt lat="46.1103780" lon="10.5192120">
	<ele>2382.20</ele>
	<time>2023-08-07T06:08:28.000Z</time>
</trkpt>
<trkpt lat="46.1103810" lon="10.5192140">
	<ele>2382.40</ele>
	<time>2023-08-07T06:08:29.000Z</time>
</trkpt>
<trkpt lat="46.1103840" lon="10.5192150">
	<ele>2382.60</ele>
	<time>2023-08-07T06:08:30.000Z</time>
</trkpt>
<trkpt lat="46.1103880" lon="10.5192160">
	<ele>2382.80</ele>
	<time>2023-08-07T06:08:31.000Z</time>
</trkpt>
<trkpt lat="46.1103910" lon="10.5192150">
	<ele>2382.80</ele>
	<time>2023-08-07T06:08:32.000Z</time>
</trkpt>
<trkpt lat="46.1103920" lon="10.5192150">
	<ele>2382.80</ele>
	<time>2023-08-07T06:08:33.000Z</time>
</trkpt>
<trkpt lat="46.1103950" lon="10.5192100">
	<ele>2382.80</ele>
	<time>2023-08-07T06:08:34.000Z</time>
</trkpt>
<trkpt lat="46.1103980" lon="10.5192040">
	<ele>2382.80</ele>
	<time>2023-08-07T06:08:35.000Z</time>
</trkpt>
<trkpt lat="46.1104010" lon="10.5191970">
	<ele>2382.80</ele>
	<time>2023-08-07T06:08:36.000Z</time>
</trkpt>
<trkpt lat="46.1104040" lon="10.5191870">
	<ele>2382.80</ele>
	<time>2023-08-07T06:08:37.000Z</time>
</trkpt>
<trkpt lat="46.1104050" lon="10.5191820">
	<ele>2382.80</ele>
	<time>2023-08-07T06:08:38.000Z</time>
</trkpt>
<trkpt lat="46.1104090" lon="10.5191780">
	<ele>2382.80</ele>
	<time>2023-08-07T06:08:39.000Z</time>
</trkpt>
<trkpt lat="46.1104110" lon="10.5191770">
	<ele>2383.20</ele>
	<time>2023-08-07T06:08:40.000Z</time>
</trkpt>
<trkpt lat="46.1104160" lon="10.5191780">
	<ele>2383.40</ele>
	<time>2023-08-07T06:08:41.000Z</time>
</trkpt>
<trkpt lat="46.1104170" lon="10.5191780">
	<ele>2383.60</ele>
	<time>2023-08-07T06:08:42.000Z</time>
</trkpt>
<trkpt lat="46.1104200" lon="10.5191740">
	<ele>2384.00</ele>
	<time>2023-08-07T06:08:43.000Z</time>
</trkpt>
<trkpt lat="46.1104250" lon="10.5191720">
	<ele>2384.20</ele>
	<time>2023-08-07T06:08:44.000Z</time>
</trkpt>
<trkpt lat="46.1104280" lon="10.5191690">
	<ele>2384.40</ele>
	<time>2023-08-07T06:08:45.000Z</time>
</trkpt>
<trkpt lat="46.1104290" lon="10.5191670">
	<ele>2384.80</ele>
	<time>2023-08-07T06:08:46.000Z</time>
</trkpt>
<trkpt lat="46.1104320" lon="10.5191650">
	<ele>2385.00</ele>
	<time>2023-08-07T06:08:47.000Z</time>
</trkpt>
<trkpt lat="46.1104340" lon="10.5191620">
	<ele>2385.20</ele>
	<time>2023-08-07T06:08:48.000Z</time>
</trkpt>
<trkpt lat="46.1104360" lon="10.5191620">
	<ele>2385.20</ele>
	<time>2023-08-07T06:08:49.000Z</time>
</trkpt>
<trkpt lat="46.1104370" lon="10.5191610">
	<ele>2385.20</ele>
	<time>2023-08-07T06:08:50.000Z</time>
</trkpt>
<trkpt lat="46.1104360" lon="10.5191630">
	<ele>2385.40</ele>
	<time>2023-08-07T06:08:51.000Z</time>
</trkpt>
<trkpt lat="46.1104340" lon="10.5191590">
	<ele>2385.40</ele>
	<time>2023-08-07T06:08:52.000Z</time>
</trkpt>
<trkpt lat="46.1104340" lon="10.5191540">
	<ele>2385.40</ele>
	<time>2023-08-07T06:08:53.000Z</time>
</trkpt>
<trkpt lat="46.1104370" lon="10.5191520">
	<ele>2385.40</ele>
	<time>2023-08-07T06:08:54.000Z</time>
</trkpt>
<trkpt lat="46.1104390" lon="10.5191460">
	<ele>2385.60</ele>
	<time>2023-08-07T06:08:55.000Z</time>
</trkpt>
<trkpt lat="46.1104410" lon="10.5191390">
	<ele>2385.80</ele>
	<time>2023-08-07T06:08:56.000Z</time>
</trkpt>
<trkpt lat="46.1104420" lon="10.5191340">
	<ele>2386.00</ele>
	<time>2023-08-07T06:08:57.000Z</time>
</trkpt>
<trkpt lat="46.1104420" lon="10.5191320">
	<ele>2386.00</ele>
	<time>2023-08-07T06:08:58.000Z</time>
</trkpt>
<trkpt lat="46.1104420" lon="10.5191320">
	<ele>2386.00</ele>
	<time>2023-08-07T06:08:59.000Z</time>
</trkpt>
<trkpt lat="46.1104420" lon="10.5191320">
	<ele>2386.00</ele>
	<time>2023-08-07T06:09:00.000Z</time>
</trkpt>
<trkpt lat="46.1104420" lon="10.5191320">
	<ele>2386.00</ele>
	<time>2023-08-07T06:09:01.000Z</time>
</trkpt>
<trkpt lat="46.1104420" lon="10.5191320">
	<ele>2386.00</ele>
	<time>2023-08-07T06:09:02.000Z</time>
</trkpt>
<trkpt lat="46.1104420" lon="10.5191320">
	<ele>2386.00</ele>
	<time>2023-08-07T06:09:03.000Z</time>
</trkpt>
<trkpt lat="46.1104420" lon="10.5191320">
	<ele>2386.20</ele>
	<time>2023-08-07T06:09:04.000Z</time>
</trkpt>
<trkpt lat="46.1104420" lon="10.5191320">
	<ele>2386.40</ele>
	<time>2023-08-07T06:09:05.000Z</time>
</trkpt>
<trkpt lat="46.1104420" lon="10.5191320">
	<ele>2386.60</ele>
	<time>2023-08-07T06:09:06.000Z</time>
</trkpt>
<trkpt lat="46.1104420" lon="10.5191320">
	<ele>2386.60</ele>
	<time>2023-08-07T06:09:07.000Z</time>
</trkpt>
<trkpt lat="46.1104420" lon="10.5191320">
	<ele>2386.60</ele>
	<time>2023-08-07T06:09:08.000Z</time>
</trkpt>
<trkpt lat="46.1104420" lon="10.5191320">
	<ele>2386.80</ele>
	<time>2023-08-07T06:09:09.000Z</time>
</trkpt>
<trkpt lat="46.1104420" lon="10.5191320">
	<ele>2386.80</ele>
	<time>2023-08-07T06:09:10.000Z</time>
</trkpt>
<trkpt lat="46.1104420" lon="10.5191320">
	<ele>2386.80</ele>
	<time>2023-08-07T06:09:11.000Z</time>
</trkpt>
<trkpt lat="46.1104420" lon="10.5191320">
	<ele>2386.80</ele>
	<time>2023-08-07T06:09:12.000Z</time>
</trkpt>
<trkpt lat="46.1104420" lon="10.5191320">
	<ele>2386.80</ele>
	<time>2023-08-07T06:09:13.000Z</time>
</trkpt>
<trkpt lat="46.1104430" lon="10.5191310">
	<ele>2387.00</ele>
	<time>2023-08-07T06:09:14.000Z</time>
</trkpt>
<trkpt lat="46.1104460" lon="10.5191280">
	<ele>2387.00</ele>
	<time>2023-08-07T06:09:15.000Z</time>
</trkpt>
<trkpt lat="46.1104470" lon="10.5191250">
	<ele>2387.00</ele>
	<time>2023-08-07T06:09:16.000Z</time>
</trkpt>
<trkpt lat="46.1104470" lon="10.5191230">
	<ele>2387.20</ele>
	<time>2023-08-07T06:09:17.000Z</time>
</trkpt>
<trkpt lat="46.1104480" lon="10.5191210">
	<ele>2387.40</ele>
	<time>2023-08-07T06:09:18.000Z</time>
</trkpt>
<trkpt lat="46.1104480" lon="10.5191190">
	<ele>2387.60</ele>
	<time>2023-08-07T06:09:19.000Z</time>
</trkpt>
<trkpt lat="46.1104480" lon="10.5191140">
	<ele>2387.60</ele>
	<time>2023-08-07T06:09:20.000Z</time>
</trkpt>
<trkpt lat="46.1104480" lon="10.5191060">
	<ele>2387.80</ele>
	<time>2023-08-07T06:09:21.000Z</time>
</trkpt>
<trkpt lat="46.1104490" lon="10.5191010">
	<ele>2388.00</ele>
	<time>2023-08-07T06:09:22.000Z</time>
</trkpt>
<trkpt lat="46.1104500" lon="10.5190950">
	<ele>2388.20</ele>
	<time>2023-08-07T06:09:23.000Z</time>
</trkpt>
<trkpt lat="46.1104520" lon="10.5190940">
	<ele>2388.40</ele>
	<time>2023-08-07T06:09:24.000Z</time>
</trkpt>
<trkpt lat="46.1104540" lon="10.5190930">
	<ele>2388.40</ele>
	<time>2023-08-07T06:09:25.000Z</time>
</trkpt>
<trkpt lat="46.1104540" lon="10.5190900">
	<ele>2388.60</ele>
	<time>2023-08-07T06:09:26.000Z</time>
</trkpt>
<trkpt lat="46.1104540" lon="10.5190850">
	<ele>2388.60</ele>
	<time>2023-08-07T06:09:27.000Z</time>
</trkpt>
<trkpt lat="46.1104550" lon="10.5190780">
	<ele>2388.80</ele>
	<time>2023-08-07T06:09:28.000Z</time>
</trkpt>
<trkpt lat="46.1104560" lon="10.5190680">
	<ele>2388.80</ele>
	<time>2023-08-07T06:09:29.000Z</time>
</trkpt>
<trkpt lat="46.1104560" lon="10.5190590">
	<ele>2388.80</ele>
	<time>2023-08-07T06:09:30.000Z</time>
</trkpt>
<trkpt lat="46.1104580" lon="10.5190540">
	<ele>2389.00</ele>
	<time>2023-08-07T06:09:31.000Z</time>
</trkpt>
<trkpt lat="46.1104630" lon="10.5190510">
	<ele>2389.00</ele>
	<time>2023-08-07T06:09:32.000Z</time>
</trkpt>
<trkpt lat="46.1104650" lon="10.5190510">
	<ele>2389.00</ele>
	<time>2023-08-07T06:09:33.000Z</time>
</trkpt>
<trkpt lat="46.1104680" lon="10.5190500">
	<ele>2389.00</ele>
	<time>2023-08-07T06:09:34.000Z</time>
</trkpt>
<trkpt lat="46.1104770" lon="10.5190500">
	<ele>2389.20</ele>
	<time>2023-08-07T06:09:35.000Z</time>
</trkpt>
<trkpt lat="46.1104830" lon="10.5190490">
	<ele>2389.40</ele>
	<time>2023-08-07T06:09:36.000Z</time>
</trkpt>
<trkpt lat="46.1104880" lon="10.5190490">
	<ele>2389.40</ele>
	<time>2023-08-07T06:09:37.000Z</time>
</trkpt>
<trkpt lat="46.1104890" lon="10.5190480">
	<ele>2389.80</ele>
	<time>2023-08-07T06:09:38.000Z</time>
</trkpt>
<trkpt lat="46.1104910" lon="10.5190480">
	<ele>2390.20</ele>
	<time>2023-08-07T06:09:39.000Z</time>
</trkpt>
<trkpt lat="46.1104920" lon="10.5190470">
	<ele>2390.20</ele>
	<time>2023-08-07T06:09:40.000Z</time>
</trkpt>
<trkpt lat="46.1104950" lon="10.5190470">
	<ele>2390.40</ele>
	<time>2023-08-07T06:09:41.000Z</time>
</trkpt>
<trkpt lat="46.1104990" lon="10.5190460">
	<ele>2390.40</ele>
	<time>2023-08-07T06:09:42.000Z</time>
</trkpt>
<trkpt lat="46.1105020" lon="10.5190430">
	<ele>2390.40</ele>
	<time>2023-08-07T06:09:43.000Z</time>
</trkpt>
<trkpt lat="46.1105040" lon="10.5190410">
	<ele>2390.60</ele>
	<time>2023-08-07T06:09:44.000Z</time>
</trkpt>
<trkpt lat="46.1105060" lon="10.5190400">
	<ele>2390.80</ele>
	<time>2023-08-07T06:09:45.000Z</time>
</trkpt>
<trkpt lat="46.1105100" lon="10.5190390">
	<ele>2391.00</ele>
	<time>2023-08-07T06:09:46.000Z</time>
</trkpt>
<trkpt lat="46.1105120" lon="10.5190360">
	<ele>2391.00</ele>
	<time>2023-08-07T06:09:47.000Z</time>
</trkpt>
<trkpt lat="46.1105120" lon="10.5190310">
	<ele>2391.20</ele>
	<time>2023-08-07T06:09:48.000Z</time>
</trkpt>
<trkpt lat="46.1105130" lon="10.5190270">
	<ele>2391.20</ele>
	<time>2023-08-07T06:09:49.000Z</time>
</trkpt>
<trkpt lat="46.1105130" lon="10.5190230">
	<ele>2391.40</ele>
	<time>2023-08-07T06:09:50.000Z</time>
</trkpt>
<trkpt lat="46.1105130" lon="10.5190180">
	<ele>2391.60</ele>
	<time>2023-08-07T06:09:51.000Z</time>
</trkpt>
<trkpt lat="46.1105130" lon="10.5190100">
	<ele>2391.80</ele>
	<time>2023-08-07T06:09:52.000Z</time>
</trkpt>
<trkpt lat="46.1105140" lon="10.5190020">
	<ele>2392.20</ele>
	<time>2023-08-07T06:09:53.000Z</time>
</trkpt>
<trkpt lat="46.1105140" lon="10.5189930">
	<ele>2392.20</ele>
	<time>2023-08-07T06:09:54.000Z</time>
</trkpt>
<trkpt lat="46.1105140" lon="10.5189880">
	<ele>2392.60</ele>
	<time>2023-08-07T06:09:55.000Z</time>
</trkpt>
<trkpt lat="46.1105140" lon="10.5189860">
	<ele>2392.60</ele>
	<time>2023-08-07T06:09:56.000Z</time>
</trkpt>
<trkpt lat="46.1105150" lon="10.5189830">
	<ele>2392.60</ele>
	<time>2023-08-07T06:09:57.000Z</time>
</trkpt>
<trkpt lat="46.1105150" lon="10.5189770">
	<ele>2392.60</ele>
	<time>2023-08-07T06:09:58.000Z</time>
</trkpt>
<trkpt lat="46.1105150" lon="10.5189720">
	<ele>2392.80</ele>
	<time>2023-08-07T06:09:59.000Z</time>
</trkpt>
<trkpt lat="46.1105160" lon="10.5189680">
	<ele>2393.00</ele>
	<time>2023-08-07T06:10:00.000Z</time>
</trkpt>
<trkpt lat="46.1105160" lon="10.5189660">
	<ele>2393.40</ele>
	<time>2023-08-07T06:10:01.000Z</time>
</trkpt>
<trkpt lat="46.1105170" lon="10.5189640">
	<ele>2393.40</ele>
	<time>2023-08-07T06:10:02.000Z</time>
</trkpt>
<trkpt lat="46.1105170" lon="10.5189580">
	<ele>2393.60</ele>
	<time>2023-08-07T06:10:03.000Z</time>
</trkpt>
<trkpt lat="46.1105170" lon="10.5189510">
	<ele>2393.60</ele>
	<time>2023-08-07T06:10:04.000Z</time>
</trkpt>
<trkpt lat="46.1105170" lon="10.5189430">
	<ele>2393.80</ele>
	<time>2023-08-07T06:10:05.000Z</time>
</trkpt>
<trkpt lat="46.1105180" lon="10.5189370">
	<ele>2393.80</ele>
	<time>2023-08-07T06:10:06.000Z</time>
</trkpt>
<trkpt lat="46.1105180" lon="10.5189340">
	<ele>2394.20</ele>
	<time>2023-08-07T06:10:07.000Z</time>
</trkpt>
<trkpt lat="46.1105180" lon="10.5189310">
	<ele>2394.40</ele>
	<time>2023-08-07T06:10:08.000Z</time>
</trkpt>
<trkpt lat="46.1105190" lon="10.5189300">
	<ele>2394.60</ele>
	<time>2023-08-07T06:10:09.000Z</time>
</trkpt>
<trkpt lat="46.1105190" lon="10.5189280">
	<ele>2394.60</ele>
	<time>2023-08-07T06:10:10.000Z</time>
</trkpt>
<trkpt lat="46.1105190" lon="10.5189280">
	<ele>2394.80</ele>
	<time>2023-08-07T06:10:11.000Z</time>
</trkpt>
<trkpt lat="46.1105190" lon="10.5189260">
	<ele>2394.80</ele>
	<time>2023-08-07T06:10:12.000Z</time>
</trkpt>
<trkpt lat="46.1105190" lon="10.5189240">
	<ele>2395.00</ele>
	<time>2023-08-07T06:10:13.000Z</time>
</trkpt>
<trkpt lat="46.1105200" lon="10.5189190">
	<ele>2395.00</ele>
	<time>2023-08-07T06:10:14.000Z</time>
</trkpt>
<trkpt lat="46.1105220" lon="10.5189150">
	<ele>2395.00</ele>
	<time>2023-08-07T06:10:15.000Z</time>
</trkpt>
<trkpt lat="46.1105230" lon="10.5189090">
	<ele>2395.20</ele>
	<time>2023-08-07T06:10:16.000Z</time>
</trkpt>
<trkpt lat="46.1105230" lon="10.5189030">
	<ele>2395.20</ele>
	<time>2023-08-07T06:10:17.000Z</time>
</trkpt>
<trkpt lat="46.1105240" lon="10.5188980">
	<ele>2395.40</ele>
	<time>2023-08-07T06:10:18.000Z</time>
</trkpt>
<trkpt lat="46.1105240" lon="10.5188930">
	<ele>2395.40</ele>
	<time>2023-08-07T06:10:19.000Z</time>
</trkpt>
<trkpt lat="46.1105250" lon="10.5188870">
	<ele>2395.60</ele>
	<time>2023-08-07T06:10:20.000Z</time>
</trkpt>
<trkpt lat="46.1105250" lon="10.5188800">
	<ele>2395.60</ele>
	<time>2023-08-07T06:10:21.000Z</time>
</trkpt>
<trkpt lat="46.1105250" lon="10.5188730">
	<ele>2395.60</ele>
	<time>2023-08-07T06:10:22.000Z</time>
</trkpt>
<trkpt lat="46.1105250" lon="10.5188680">
	<ele>2395.60</ele>
	<time>2023-08-07T06:10:23.000Z</time>
</trkpt>
<trkpt lat="46.1105250" lon="10.5188640">
	<ele>2395.60</ele>
	<time>2023-08-07T06:10:24.000Z</time>
</trkpt>
<trkpt lat="46.1105250" lon="10.5188560">
	<ele>2395.80</ele>
	<time>2023-08-07T06:10:25.000Z</time>
</trkpt>
<trkpt lat="46.1105250" lon="10.5188480">
	<ele>2395.80</ele>
	<time>2023-08-07T06:10:26.000Z</time>
</trkpt>
<trkpt lat="46.1105250" lon="10.5188440">
	<ele>2395.80</ele>
	<time>2023-08-07T06:10:27.000Z</time>
</trkpt>
<trkpt lat="46.1105250" lon="10.5188420">
	<ele>2396.00</ele>
	<time>2023-08-07T06:10:28.000Z</time>
</trkpt>
<trkpt lat="46.1105250" lon="10.5188410">
	<ele>2396.00</ele>
	<time>2023-08-07T06:10:29.000Z</time>
</trkpt>
<trkpt lat="46.1105250" lon="10.5188370">
	<ele>2396.00</ele>
	<time>2023-08-07T06:10:30.000Z</time>
</trkpt>
<trkpt lat="46.1105250" lon="10.5188330">
	<ele>2395.80</ele>
	<time>2023-08-07T06:10:31.000Z</time>
</trkpt>
<trkpt lat="46.1105250" lon="10.5188310">
	<ele>2396.00</ele>
	<time>2023-08-07T06:10:32.000Z</time>
</trkpt>
<trkpt lat="46.1105260" lon="10.5188290">
	<ele>2396.20</ele>
	<time>2023-08-07T06:10:33.000Z</time>
</trkpt>
<trkpt lat="46.1105270" lon="10.5188280">
	<ele>2396.40</ele>
	<time>2023-08-07T06:10:34.000Z</time>
</trkpt>
<trkpt lat="46.1105300" lon="10.5188250">
	<ele>2396.40</ele>
	<time>2023-08-07T06:10:35.000Z</time>
</trkpt>
<trkpt lat="46.1105330" lon="10.5188230">
	<ele>2396.60</ele>
	<time>2023-08-07T06:10:36.000Z</time>
</trkpt>
<trkpt lat="46.1105350" lon="10.5188200">
	<ele>2396.60</ele>
	<time>2023-08-07T06:10:37.000Z</time>
</trkpt>
<trkpt lat="46.1105370" lon="10.5188150">
	<ele>2396.80</ele>
	<time>2023-08-07T06:10:38.000Z</time>
</trkpt>
<trkpt lat="46.1105380" lon="10.5188090">
	<ele>2396.80</ele>
	<time>2023-08-07T06:10:39.000Z</time>
</trkpt>
<trkpt lat="46.1105390" lon="10.5188000">
	<ele>2397.00</ele>
	<time>2023-08-07T06:10:40.000Z</time>
</trkpt>
<trkpt lat="46.1105390" lon="10.5187960">
	<ele>2397.00</ele>
	<time>2023-08-07T06:10:41.000Z</time>
</trkpt>
<trkpt lat="46.1105400" lon="10.5187940">
	<ele>2397.00</ele>
	<time>2023-08-07T06:10:42.000Z</time>
</trkpt>
<trkpt lat="46.1105410" lon="10.5187930">
	<ele>2397.00</ele>
	<time>2023-08-07T06:10:43.000Z</time>
</trkpt>
<trkpt lat="46.1105440" lon="10.5187920">
	<ele>2397.00</ele>
	<time>2023-08-07T06:10:44.000Z</time>
</trkpt>
<trkpt lat="46.1105480" lon="10.5187920">
	<ele>2397.20</ele>
	<time>2023-08-07T06:10:45.000Z</time>
</trkpt>
<trkpt lat="46.1105520" lon="10.5187920">
	<ele>2397.40</ele>
	<time>2023-08-07T06:10:46.000Z</time>
</trkpt>
<trkpt lat="46.1105560" lon="10.5187920">
	<ele>2397.60</ele>
	<time>2023-08-07T06:10:47.000Z</time>
</trkpt>
<trkpt lat="46.1105590" lon="10.5187920">
	<ele>2397.60</ele>
	<time>2023-08-07T06:10:48.000Z</time>
</trkpt>
<trkpt lat="46.1105620" lon="10.5187920">
	<ele>2397.60</ele>
	<time>2023-08-07T06:10:49.000Z</time>
</trkpt>
<trkpt lat="46.1105650" lon="10.5187920">
	<ele>2397.80</ele>
	<time>2023-08-07T06:10:50.000Z</time>
</trkpt>
<trkpt lat="46.1105680" lon="10.5187920">
	<ele>2397.80</ele>
	<time>2023-08-07T06:10:51.000Z</time>
</trkpt>
<trkpt lat="46.1105710" lon="10.5187920">
	<ele>2397.80</ele>
	<time>2023-08-07T06:10:52.000Z</time>
</trkpt>
<trkpt lat="46.1105730" lon="10.5187920">
	<ele>2398.00</ele>
	<time>2023-08-07T06:10:53.000Z</time>
</trkpt>
<trkpt lat="46.1105740" lon="10.5187920">
	<ele>2398.20</ele>
	<time>2023-08-07T06:10:54.000Z</time>
</trkpt>
<trkpt lat="46.1105750" lon="10.5187930">
	<ele>2398.40</ele>
	<time>2023-08-07T06:10:55.000Z</time>
</trkpt>
<trkpt lat="46.1105760" lon="10.5187960">
	<ele>2398.40</ele>
	<time>2023-08-07T06:10:56.000Z</time>
</trkpt>
<trkpt lat="46.1105760" lon="10.5187990">
	<ele>2398.60</ele>
	<time>2023-08-07T06:10:57.000Z</time>
</trkpt>
<trkpt lat="46.1105780" lon="10.5188050">
	<ele>2398.60</ele>
	<time>2023-08-07T06:10:58.000Z</time>
</trkpt>
<trkpt lat="46.1105820" lon="10.5188090">
	<ele>2398.60</ele>
	<time>2023-08-07T06:10:59.000Z</time>
</trkpt>
<trkpt lat="46.1105870" lon="10.5188150">
	<ele>2398.80</ele>
	<time>2023-08-07T06:11:00.000Z</time>
</trkpt>
<trkpt lat="46.1105910" lon="10.5188210">
	<ele>2399.00</ele>
	<time>2023-08-07T06:11:01.000Z</time>
</trkpt>
<trkpt lat="46.1105940" lon="10.5188260">
	<ele>2399.00</ele>
	<time>2023-08-07T06:11:02.000Z</time>
</trkpt>
<trkpt lat="46.1105980" lon="10.5188310">
	<ele>2399.40</ele>
	<time>2023-08-07T06:11:03.000Z</time>
</trkpt>
<trkpt lat="46.1106010" lon="10.5188350">
	<ele>2399.40</ele>
	<time>2023-08-07T06:11:04.000Z</time>
</trkpt>
<trkpt lat="46.1106030" lon="10.5188380">
	<ele>2399.60</ele>
	<time>2023-08-07T06:11:05.000Z</time>
</trkpt>
<trkpt lat="46.1106050" lon="10.5188400">
	<ele>2399.60</ele>
	<time>2023-08-07T06:11:06.000Z</time>
</trkpt>
<trkpt lat="46.1106070" lon="10.5188410">
	<ele>2399.80</ele>
	<time>2023-08-07T06:11:07.000Z</time>
</trkpt>
<trkpt lat="46.1106100" lon="10.5188420">
	<ele>2399.80</ele>
	<time>2023-08-07T06:11:08.000Z</time>
</trkpt>
<trkpt lat="46.1106140" lon="10.5188430">
	<ele>2399.80</ele>
	<time>2023-08-07T06:11:09.000Z</time>
</trkpt>
<trkpt lat="46.1106160" lon="10.5188440">
	<ele>2400.00</ele>
	<time>2023-08-07T06:11:10.000Z</time>
</trkpt>
<trkpt lat="46.1106200" lon="10.5188440">
	<ele>2400.00</ele>
	<time>2023-08-07T06:11:11.000Z</time>
</trkpt>
<trkpt lat="46.1106230" lon="10.5188440">
	<ele>2400.00</ele>
	<time>2023-08-07T06:11:12.000Z</time>
</trkpt>
<trkpt lat="46.1106260" lon="10.5188450">
	<ele>2400.40</ele>
	<time>2023-08-07T06:11:13.000Z</time>
</trkpt>
<trkpt lat="46.1106290" lon="10.5188450">
	<ele>2400.80</ele>
	<time>2023-08-07T06:11:14.000Z</time>
</trkpt>
<trkpt lat="46.1106320" lon="10.5188450">
	<ele>2401.00</ele>
	<time>2023-08-07T06:11:15.000Z</time>
</trkpt>
<trkpt lat="46.1106350" lon="10.5188460">
	<ele>2401.00</ele>
	<time>2023-08-07T06:11:16.000Z</time>
</trkpt>
<trkpt lat="46.1106390" lon="10.5188460">
	<ele>2401.00</ele>
	<time>2023-08-07T06:11:17.000Z</time>
</trkpt>
<trkpt lat="46.1106420" lon="10.5188470">
	<ele>2401.00</ele>
	<time>2023-08-07T06:11:18.000Z</time>
</trkpt>
<trkpt lat="46.1106450" lon="10.5188470">
	<ele>2401.00</ele>
	<time>2023-08-07T06:11:19.000Z</time>
</trkpt>
<trkpt lat="46.1106490" lon="10.5188470">
	<ele>2401.00</ele>
	<time>2023-08-07T06:11:20.000Z</time>
</trkpt>
<trkpt lat="46.1106530" lon="10.5188480">
	<ele>2401.00</ele>
	<time>2023-08-07T06:11:21.000Z</time>
</trkpt>
<trkpt lat="46.1106560" lon="10.5188470">
	<ele>2401.20</ele>
	<time>2023-08-07T06:11:22.000Z</time>
</trkpt>
<trkpt lat="46.1106580" lon="10.5188470">
	<ele>2401.20</ele>
	<time>2023-08-07T06:11:23.000Z</time>
</trkpt>
<trkpt lat="46.1106600" lon="10.5188470">
	<ele>2401.40</ele>
	<time>2023-08-07T06:11:24.000Z</time>
</trkpt>
<trkpt lat="46.1106620" lon="10.5188470">
	<ele>2401.60</ele>
	<time>2023-08-07T06:11:25.000Z</time>
</trkpt>
<trkpt lat="46.1106630" lon="10.5188470">
	<ele>2401.80</ele>
	<time>2023-08-07T06:11:26.000Z</time>
</trkpt>
<trkpt lat="46.1106650" lon="10.5188470">
	<ele>2402.00</ele>
	<time>2023-08-07T06:11:27.000Z</time>
</trkpt>
<trkpt lat="46.1106670" lon="10.5188470">
	<ele>2402.00</ele>
	<time>2023-08-07T06:11:28.000Z</time>
</trkpt>
<trkpt lat="46.1106690" lon="10.5188470">
	<ele>2402.20</ele>
	<time>2023-08-07T06:11:29.000Z</time>
</trkpt>
<trkpt lat="46.1106720" lon="10.5188470">
	<ele>2402.40</ele>
	<time>2023-08-07T06:11:30.000Z</time>
</trkpt>
<trkpt lat="46.1106750" lon="10.5188470">
	<ele>2402.60</ele>
	<time>2023-08-07T06:11:31.000Z</time>
</trkpt>
<trkpt lat="46.1106780" lon="10.5188460">
	<ele>2402.60</ele>
	<time>2023-08-07T06:11:32.000Z</time>
</trkpt>
<trkpt lat="46.1106820" lon="10.5188460">
	<ele>2402.80</ele>
	<time>2023-08-07T06:11:33.000Z</time>
</trkpt>
<trkpt lat="46.1106850" lon="10.5188450">
	<ele>2402.80</ele>
	<time>2023-08-07T06:11:34.000Z</time>
</trkpt>
<trkpt lat="46.1106880" lon="10.5188450">
	<ele>2403.00</ele>
	<time>2023-08-07T06:11:35.000Z</time>
</trkpt>
<trkpt lat="46.1106920" lon="10.5188450">
	<ele>2403.00</ele>
	<time>2023-08-07T06:11:36.000Z</time>
</trkpt>
<trkpt lat="46.1106940" lon="10.5188440">
	<ele>2403.20</ele>
	<time>2023-08-07T06:11:37.000Z</time>
</trkpt>
<trkpt lat="46.1106970" lon="10.5188440">
	<ele>2403.40</ele>
	<time>2023-08-07T06:11:38.000Z</time>
</trkpt>
<trkpt lat="46.1107000" lon="10.5188430">
	<ele>2403.60</ele>
	<time>2023-08-07T06:11:39.000Z</time>
</trkpt>
<trkpt lat="46.1107020" lon="10.5188430">
	<ele>2403.60</ele>
	<time>2023-08-07T06:11:40.000Z</time>
</trkpt>
<trkpt lat="46.1107040" lon="10.5188420">
	<ele>2403.80</ele>
	<time>2023-08-07T06:11:41.000Z</time>
</trkpt>
<trkpt lat="46.1107060" lon="10.5188410">
	<ele>2404.00</ele>
	<time>2023-08-07T06:11:42.000Z</time>
</trkpt>
<trkpt lat="46.1107070" lon="10.5188410">
	<ele>2404.20</ele>
	<time>2023-08-07T06:11:43.000Z</time>
</trkpt>
<trkpt lat="46.1107090" lon="10.5188400">
	<ele>2404.40</ele>
	<time>2023-08-07T06:11:44.000Z</time>
</trkpt>
<trkpt lat="46.1107100" lon="10.5188400">
	<ele>2404.60</ele>
	<time>2023-08-07T06:11:45.000Z</time>
</trkpt>
<trkpt lat="46.1107110" lon="10.5188400">
	<ele>2404.80</ele>
	<time>2023-08-07T06:11:46.000Z</time>
</trkpt>
<trkpt lat="46.1107130" lon="10.5188390">
	<ele>2404.80</ele>
	<time>2023-08-07T06:11:47.000Z</time>
</trkpt>
<trkpt lat="46.1107140" lon="10.5188390">
	<ele>2405.00</ele>
	<time>2023-08-07T06:11:48.000Z</time>
</trkpt>
<trkpt lat="46.1107150" lon="10.5188390">
	<ele>2405.00</ele>
	<time>2023-08-07T06:11:49.000Z</time>
</trkpt>
<trkpt lat="46.1107160" lon="10.5188380">
	<ele>2405.20</ele>
	<time>2023-08-07T06:11:50.000Z</time>
</trkpt>
<trkpt lat="46.1107180" lon="10.5188380">
	<ele>2405.40</ele>
	<time>2023-08-07T06:11:51.000Z</time>
</trkpt>
<trkpt lat="46.1107190" lon="10.5188370">
	<ele>2405.60</ele>
	<time>2023-08-07T06:11:52.000Z</time>
</trkpt>
<trkpt lat="46.1107200" lon="10.5188370">
	<ele>2405.80</ele>
	<time>2023-08-07T06:11:53.000Z</time>
</trkpt>
<trkpt lat="46.1107210" lon="10.5188370">
	<ele>2405.80</ele>
	<time>2023-08-07T06:11:54.000Z</time>
</trkpt>
<trkpt lat="46.1107220" lon="10.5188360">
	<ele>2406.00</ele>
	<time>2023-08-07T06:11:55.000Z</time>
</trkpt>
<trkpt lat="46.1107230" lon="10.5188360">
	<ele>2406.40</ele>
	<time>2023-08-07T06:11:56.000Z</time>
</trkpt>
<trkpt lat="46.1107240" lon="10.5188360">
	<ele>2406.60</ele>
	<time>2023-08-07T06:11:57.000Z</time>
</trkpt>
<trkpt lat="46.1107250" lon="10.5188350">
	<ele>2406.60</ele>
	<time>2023-08-07T06:11:58.000Z</time>
</trkpt>
<trkpt lat="46.1107270" lon="10.5188350">
	<ele>2406.60</ele>
	<time>2023-08-07T06:11:59.000Z</time>
</trkpt>
<trkpt lat="46.1107280" lon="10.5188350">
	<ele>2406.80</ele>
	<time>2023-08-07T06:12:00.000Z</time>
</trkpt>
<trkpt lat="46.1107290" lon="10.5188340">
	<ele>2406.80</ele>
	<time>2023-08-07T06:12:01.000Z</time>
</trkpt>
<trkpt lat="46.1107310" lon="10.5188330">
	<ele>2406.80</ele>
	<time>2023-08-07T06:12:02.000Z</time>
</trkpt>
<trkpt lat="46.1107320" lon="10.5188310">
	<ele>2406.80</ele>
	<time>2023-08-07T06:12:03.000Z</time>
</trkpt>
<trkpt lat="46.1107330" lon="10.5188300">
	<ele>2407.00</ele>
	<time>2023-08-07T06:12:04.000Z</time>
</trkpt>
<trkpt lat="46.1107350" lon="10.5188290">
	<ele>2407.20</ele>
	<time>2023-08-07T06:12:05.000Z</time>
</trkpt>
<trkpt lat="46.1107360" lon="10.5188280">
	<ele>2407.80</ele>
	<time>2023-08-07T06:12:06.000Z</time>
</trkpt>
<trkpt lat="46.1107380" lon="10.5188270">
	<ele>2408.20</ele>
	<time>2023-08-07T06:12:07.000Z</time>
</trkpt>
<trkpt lat="46.1107390" lon="10.5188260">
	<ele>2408.40</ele>
	<time>2023-08-07T06:12:08.000Z</time>
</trkpt>
<trkpt lat="46.1107410" lon="10.5188250">
	<ele>2408.60</ele>
	<time>2023-08-07T06:12:09.000Z</time>
</trkpt>
<trkpt lat="46.1107430" lon="10.5188240">
	<ele>2408.60</ele>
	<time>2023-08-07T06:12:10.000Z</time>
</trkpt>
<trkpt lat="46.1107440" lon="10.5188230">
	<ele>2408.80</ele>
	<time>2023-08-07T06:12:11.000Z</time>
</trkpt>
<trkpt lat="46.1107450" lon="10.5188220">
	<ele>2408.80</ele>
	<time>2023-08-07T06:12:12.000Z</time>
</trkpt>
<trkpt lat="46.1107460" lon="10.5188210">
	<ele>2409.00</ele>
	<time>2023-08-07T06:12:13.000Z</time>
</trkpt>
<trkpt lat="46.1107470" lon="10.5188200">
	<ele>2409.00</ele>
	<time>2023-08-07T06:12:14.000Z</time>
</trkpt>
<trkpt lat="46.1107480" lon="10.5188200">
	<ele>2409.20</ele>
	<time>2023-08-07T06:12:15.000Z</time>
</trkpt>
<trkpt lat="46.1107490" lon="10.5188190">
	<ele>2409.20</ele>
	<time>2023-08-07T06:12:16.000Z</time>
</trkpt>
<trkpt lat="46.1107500" lon="10.5188190">
	<ele>2409.40</ele>
	<time>2023-08-07T06:12:17.000Z</time>
</trkpt>
<trkpt lat="46.1107500" lon="10.5188190">
	<ele>2409.40</ele>
	<time>2023-08-07T06:12:18.000Z</time>
</trkpt>
<trkpt lat="46.1107500" lon="10.5188190">
	<ele>2409.60</ele>
	<time>2023-08-07T06:12:19.000Z</time>
</trkpt>
<trkpt lat="46.1107500" lon="10.5188190">
	<ele>2409.60</ele>
	<time>2023-08-07T06:12:20.000Z</time>
</trkpt>
<trkpt lat="46.1107500" lon="10.5188180">
	<ele>2409.80</ele>
	<time>2023-08-07T06:12:21.000Z</time>
</trkpt>
<trkpt lat="46.1107590" lon="10.5188130">
	<ele>2410.00</ele>
	<time>2023-08-07T06:12:22.000Z</time>
</trkpt>
<trkpt lat="46.1107690" lon="10.5188050">
	<ele>2410.00</ele>
	<time>2023-08-07T06:12:23.000Z</time>
</trkpt>
<trkpt lat="46.1107790" lon="10.5188010">
	<ele>2410.00</ele>
	<time>2023-08-07T06:12:24.000Z</time>
</trkpt>
<trkpt lat="46.1107900" lon="10.5187950">
	<ele>2410.00</ele>
	<time>2023-08-07T06:12:25.000Z</time>
</trkpt>
<trkpt lat="46.1108010" lon="10.5187840">
	<ele>2410.00</ele>
	<time>2023-08-07T06:12:26.000Z</time>
</trkpt>
<trkpt lat="46.1108120" lon="10.5187790">
	<ele>2410.00</ele>
	<time>2023-08-07T06:12:27.000Z</time>
</trkpt>
<trkpt lat="46.1108220" lon="10.5187730">
	<ele>2410.20</ele>
	<time>2023-08-07T06:12:28.000Z</time>
</trkpt>
<trkpt lat="46.1108330" lon="10.5187680">
	<ele>2410.20</ele>
	<time>2023-08-07T06:12:29.000Z</time>
</trkpt>
<trkpt lat="46.1108430" lon="10.5187620">
	<ele>2410.40</ele>
	<time>2023-08-07T06:12:30.000Z</time>
</trkpt>
<trkpt lat="46.1108540" lon="10.5187540">
	<ele>2410.40</ele>
	<time>2023-08-07T06:12:31.000Z</time>
</trkpt>
<trkpt lat="46.1108560" lon="10.5187540">
	<ele>2410.60</ele>
	<time>2023-08-07T06:12:32.000Z</time>
</trkpt>
<trkpt lat="46.1108560" lon="10.5187560">
	<ele>2410.60</ele>
	<time>2023-08-07T06:12:33.000Z</time>
</trkpt>
<trkpt lat="46.1108560" lon="10.5187610">
	<ele>2410.80</ele>
	<time>2023-08-07T06:12:34.000Z</time>
</trkpt>
<trkpt lat="46.1108570" lon="10.5187630">
	<ele>2411.00</ele>
	<time>2023-08-07T06:12:35.000Z</time>
</trkpt>
<trkpt lat="46.1108570" lon="10.5187610">
	<ele>2411.00</ele>
	<time>2023-08-07T06:12:36.000Z</time>
</trkpt>
<trkpt lat="46.1108590" lon="10.5187600">
	<ele>2411.20</ele>
	<time>2023-08-07T06:12:37.000Z</time>
</trkpt>
<trkpt lat="46.1108600" lon="10.5187630">
	<ele>2411.20</ele>
	<time>2023-08-07T06:12:38.000Z</time>
</trkpt>
<trkpt lat="46.1108600" lon="10.5187630">
	<ele>2411.40</ele>
	<time>2023-08-07T06:12:39.000Z</time>
</trkpt>
<trkpt lat="46.1108610" lon="10.5187640">
	<ele>2411.40</ele>
	<time>2023-08-07T06:12:40.000Z</time>
</trkpt>
<trkpt lat="46.1108640" lon="10.5187630">
	<ele>2411.60</ele>
	<time>2023-08-07T06:12:41.000Z</time>
</trkpt>
<trkpt lat="46.1108700" lon="10.5187620">
	<ele>2411.80</ele>
	<time>2023-08-07T06:12:42.000Z</time>
</trkpt>
<trkpt lat="46.1108700" lon="10.5187610">
	<ele>2411.80</ele>
	<time>2023-08-07T06:12:43.000Z</time>
</trkpt>
<trkpt lat="46.1108700" lon="10.5187620">
	<ele>2412.00</ele>
	<time>2023-08-07T06:12:44.000Z</time>
</trkpt>
<trkpt lat="46.1108700" lon="10.5187620">
	<ele>2412.00</ele>
	<time>2023-08-07T06:12:45.000Z</time>
</trkpt>
<trkpt lat="46.1108680" lon="10.5187630">
	<ele>2412.20</ele>
	<time>2023-08-07T06:12:46.000Z</time>
</trkpt>
<trkpt lat="46.1108690" lon="10.5187590">
	<ele>2412.40</ele>
	<time>2023-08-07T06:12:47.000Z</time>
</trkpt>
<trkpt lat="46.1108700" lon="10.5187550">
	<ele>2412.40</ele>
	<time>2023-08-07T06:12:48.000Z</time>
</trkpt>
<trkpt lat="46.1108700" lon="10.5187520">
	<ele>2412.60</ele>
	<time>2023-08-07T06:12:49.000Z</time>
</trkpt>
<trkpt lat="46.1108720" lon="10.5187470">
	<ele>2412.80</ele>
	<time>2023-08-07T06:12:50.000Z</time>
</trkpt>
<trkpt lat="46.1108730" lon="10.5187470">
	<ele>2413.00</ele>
	<time>2023-08-07T06:12:51.000Z</time>
</trkpt>
<trkpt lat="46.1108750" lon="10.5187480">
	<ele>2413.00</ele>
	<time>2023-08-07T06:12:52.000Z</time>
</trkpt>
<trkpt lat="46.1108740" lon="10.5187540">
	<ele>2413.20</ele>
	<time>2023-08-07T06:12:53.000Z</time>
</trkpt>
<trkpt lat="46.1108730" lon="10.5187600">
	<ele>2413.20</ele>
	<time>2023-08-07T06:12:54.000Z</time>
</trkpt>
<trkpt lat="46.1108760" lon="10.5187670">
	<ele>2413.20</ele>
	<time>2023-08-07T06:12:55.000Z</time>
</trkpt>
<trkpt lat="46.1108780" lon="10.5187700">
	<ele>2413.40</ele>
	<time>2023-08-07T06:12:56.000Z</time>
</trkpt>
<trkpt lat="46.1108810" lon="10.5187690">
	<ele>2413.40</ele>
	<time>2023-08-07T06:12:57.000Z</time>
</trkpt>
<trkpt lat="46.1108820" lon="10.5187670">
	<ele>2413.40</ele>
	<time>2023-08-07T06:12:58.000Z</time>
</trkpt>
<trkpt lat="46.1108830" lon="10.5187640">
	<ele>2413.40</ele>
	<time>2023-08-07T06:12:59.000Z</time>
</trkpt>
<trkpt lat="46.1108830" lon="10.5187630">
	<ele>2413.60</ele>
	<time>2023-08-07T06:13:00.000Z</time>
</trkpt>
<trkpt lat="46.1108830" lon="10.5187620">
	<ele>2413.60</ele>
	<time>2023-08-07T06:13:01.000Z</time>
</trkpt>
<trkpt lat="46.1108860" lon="10.5187590">
	<ele>2413.60</ele>
	<time>2023-08-07T06:13:02.000Z</time>
</trkpt>
<trkpt lat="46.1108900" lon="10.5187610">
	<ele>2413.80</ele>
	<time>2023-08-07T06:13:03.000Z</time>
</trkpt>
<trkpt lat="46.1108920" lon="10.5187630">
	<ele>2413.80</ele>
	<time>2023-08-07T06:13:04.000Z</time>
</trkpt>
<trkpt lat="46.1108920" lon="10.5187640">
	<ele>2414.00</ele>
	<time>2023-08-07T06:13:05.000Z</time>
</trkpt>
<trkpt lat="46.1108910" lon="10.5187640">
	<ele>2414.00</ele>
	<time>2023-08-07T06:13:06.000Z</time>
</trkpt>
<trkpt lat="46.1108900" lon="10.5187630">
	<ele>2414.00</ele>
	<time>2023-08-07T06:13:07.000Z</time>
</trkpt>
<trkpt lat="46.1108880" lon="10.5187610">
	<ele>2414.00</ele>
	<time>2023-08-07T06:13:08.000Z</time>
</trkpt>
<trkpt lat="46.1108870" lon="10.5187570">
	<ele>2414.00</ele>
	<time>2023-08-07T06:13:09.000Z</time>
</trkpt>
<trkpt lat="46.1108870" lon="10.5187530">
	<ele>2414.20</ele>
	<time>2023-08-07T06:13:10.000Z</time>
</trkpt>
<trkpt lat="46.1108870" lon="10.5187460">
	<ele>2414.20</ele>
	<time>2023-08-07T06:13:11.000Z</time>
</trkpt>
<trkpt lat="46.1108910" lon="10.5187430">
	<ele>2414.80</ele>
	<time>2023-08-07T06:13:12.000Z</time>
</trkpt>
<trkpt lat="46.1108920" lon="10.5187420">
	<ele>2415.20</ele>
	<time>2023-08-07T06:13:13.000Z</time>
</trkpt>
<trkpt lat="46.1108930" lon="10.5187410">
	<ele>2415.40</ele>
	<time>2023-08-07T06:13:14.000Z</time>
</trkpt>
<trkpt lat="46.1108950" lon="10.5187410">
	<ele>2415.60</ele>
	<time>2023-08-07T06:13:15.000Z</time>
</trkpt>
<trkpt lat="46.1108970" lon="10.5187380">
	<ele>2415.80</ele>
	<time>2023-08-07T06:13:16.000Z</time>
</trkpt>
<trkpt lat="46.1109010" lon="10.5187360">
	<ele>2415.80</ele>
	<time>2023-08-07T06:13:17.000Z</time>
</trkpt>
<trkpt lat="46.1109030" lon="10.5187350">
	<ele>2416.00</ele>
	<time>2023-08-07T06:13:18.000Z</time>
</trkpt>
<trkpt lat="46.1109040" lon="10.5187340">
	<ele>2416.20</ele>
	<time>2023-08-07T06:13:19.000Z</time>
</trkpt>
<trkpt lat="46.1109050" lon="10.5187340">
	<ele>2416.40</ele>
	<time>2023-08-07T06:13:20.000Z</time>
</trkpt>
<trkpt lat="46.1109060" lon="10.5187340">
	<ele>2416.40</ele>
	<time>2023-08-07T06:13:21.000Z</time>
</trkpt>
<trkpt lat="46.1109100" lon="10.5187330">
	<ele>2416.60</ele>
	<time>2023-08-07T06:13:22.000Z</time>
</trkpt>
<trkpt lat="46.1109130" lon="10.5187310">
	<ele>2416.60</ele>
	<time>2023-08-07T06:13:23.000Z</time>
</trkpt>
<trkpt lat="46.1109180" lon="10.5187320">
	<ele>2416.80</ele>
	<time>2023-08-07T06:13:24.000Z</time>
</trkpt>
<trkpt lat="46.1109210" lon="10.5187350">
	<ele>2417.00</ele>
	<time>2023-08-07T06:13:25.000Z</time>
</trkpt>
<trkpt lat="46.1109280" lon="10.5187360">
	<ele>2417.20</ele>
	<time>2023-08-07T06:13:26.000Z</time>
</trkpt>
<trkpt lat="46.1109280" lon="10.5187360">
	<ele>2417.20</ele>
	<time>2023-08-07T06:13:27.000Z</time>
</trkpt>
<trkpt lat="46.1109320" lon="10.5187380">
	<ele>2417.40</ele>
	<time>2023-08-07T06:13:28.000Z</time>
</trkpt>
<trkpt lat="46.1109360" lon="10.5187410">
	<ele>2417.40</ele>
	<time>2023-08-07T06:13:29.000Z</time>
</trkpt>
<trkpt lat="46.1109380" lon="10.5187430">
	<ele>2417.60</ele>
	<time>2023-08-07T06:13:30.000Z</time>
</trkpt>
<trkpt lat="46.1109400" lon="10.5187430">
	<ele>2418.00</ele>
	<time>2023-08-07T06:13:31.000Z</time>
</trkpt>
<trkpt lat="46.1109400" lon="10.5187430">
	<ele>2418.20</ele>
	<time>2023-08-07T06:13:32.000Z</time>
</trkpt>
<trkpt lat="46.1109410" lon="10.5187400">
	<ele>2418.40</ele>
	<time>2023-08-07T06:13:33.000Z</time>
</trkpt>
<trkpt lat="46.1109420" lon="10.5187400">
	<ele>2418.40</ele>
	<time>2023-08-07T06:13:34.000Z</time>
</trkpt>
<trkpt lat="46.1109430" lon="10.5187390">
	<ele>2418.60</ele>
	<time>2023-08-07T06:13:35.000Z</time>
</trkpt>
<trkpt lat="46.1109450" lon="10.5187350">
	<ele>2418.80</ele>
	<time>2023-08-07T06:13:36.000Z</time>
</trkpt>
<trkpt lat="46.1109460" lon="10.5187320">
	<ele>2419.00</ele>
	<time>2023-08-07T06:13:37.000Z</time>
</trkpt>
<trkpt lat="46.1109440" lon="10.5187290">
	<ele>2419.00</ele>
	<time>2023-08-07T06:13:38.000Z</time>
</trkpt>
<trkpt lat="46.1109430" lon="10.5187250">
	<ele>2419.20</ele>
	<time>2023-08-07T06:13:39.000Z</time>
</trkpt>
<trkpt lat="46.1109470" lon="10.5187210">
	<ele>2419.20</ele>
	<time>2023-08-07T06:13:40.000Z</time>
</trkpt>
<trkpt lat="46.1109460" lon="10.5187150">
	<ele>2419.40</ele>
	<time>2023-08-07T06:13:41.000Z</time>
</trkpt>
<trkpt lat="46.1109440" lon="10.5187130">
	<ele>2419.40</ele>
	<time>2023-08-07T06:13:42.000Z</time>
</trkpt>
<trkpt lat="46.1109440" lon="10.5187080">
	<ele>2419.40</ele>
	<time>2023-08-07T06:13:43.000Z</time>
</trkpt>
<trkpt lat="46.1109430" lon="10.5187060">
	<ele>2419.20</ele>
	<time>2023-08-07T06:13:44.000Z</time>
</trkpt>
<trkpt lat="46.1109430" lon="10.5187060">
	<ele>2419.60</ele>
	<time>2023-08-07T06:13:45.000Z</time>
</trkpt>
<trkpt lat="46.1109450" lon="10.5187010">
	<ele>2419.80</ele>
	<time>2023-08-07T06:13:46.000Z</time>
</trkpt>
<trkpt lat="46.1109500" lon="10.5186960">
	<ele>2419.80</ele>
	<time>2023-08-07T06:13:47.000Z</time>
</trkpt>
<trkpt lat="46.1109500" lon="10.5186910">
	<ele>2420.00</ele>
	<time>2023-08-07T06:13:48.000Z</time>
</trkpt>
<trkpt lat="46.1109490" lon="10.5186830">
	<ele>2420.00</ele>
	<time>2023-08-07T06:13:49.000Z</time>
</trkpt>
<trkpt lat="46.1109520" lon="10.5186710">
	<ele>2420.20</ele>
	<time>2023-08-07T06:13:50.000Z</time>
</trkpt>
<trkpt lat="46.1109550" lon="10.5186670">
	<ele>2420.40</ele>
	<time>2023-08-07T06:13:51.000Z</time>
</trkpt>
<trkpt lat="46.1109570" lon="10.5186650">
	<ele>2420.60</ele>
	<time>2023-08-07T06:13:52.000Z</time>
</trkpt>
<trkpt lat="46.1109590" lon="10.5186630">
	<ele>2420.60</ele>
	<time>2023-08-07T06:13:53.000Z</time>
</trkpt>
<trkpt lat="46.1109600" lon="10.5186630">
	<ele>2420.80</ele>
	<time>2023-08-07T06:13:54.000Z</time>
</trkpt>
<trkpt lat="46.1109610" lon="10.5186640">
	<ele>2421.00</ele>
	<time>2023-08-07T06:13:55.000Z</time>
</trkpt>
<trkpt lat="46.1109650" lon="10.5186690">
	<ele>2421.00</ele>
	<time>2023-08-07T06:13:56.000Z</time>
</trkpt>
<trkpt lat="46.1109670" lon="10.5186700">
	<ele>2421.00</ele>
	<time>2023-08-07T06:13:57.000Z</time>
</trkpt>
<trkpt lat="46.1109740" lon="10.5186710">
	<ele>2421.20</ele>
	<time>2023-08-07T06:13:58.000Z</time>
</trkpt>
<trkpt lat="46.1109760" lon="10.5186740">
	<ele>2421.20</ele>
	<time>2023-08-07T06:13:59.000Z</time>
</trkpt>
<trkpt lat="46.1109820" lon="10.5186770">
	<ele>2421.40</ele>
	<time>2023-08-07T06:14:00.000Z</time>
</trkpt>
<trkpt lat="46.1109900" lon="10.5186780">
	<ele>2421.40</ele>
	<time>2023-08-07T06:14:01.000Z</time>
</trkpt>
<trkpt lat="46.1109910" lon="10.5186820">
	<ele>2421.40</ele>
	<time>2023-08-07T06:14:02.000Z</time>
</trkpt>
<trkpt lat="46.1109950" lon="10.5186840">
	<ele>2421.40</ele>
	<time>2023-08-07T06:14:03.000Z</time>
</trkpt>
<trkpt lat="46.1109980" lon="10.5186850">
	<ele>2421.40</ele>
	<time>2023-08-07T06:14:04.000Z</time>
</trkpt>
<trkpt lat="46.1110030" lon="10.5186850">
	<ele>2421.40</ele>
	<time>2023-08-07T06:14:05.000Z</time>
</trkpt>
<trkpt lat="46.1110030" lon="10.5186760">
	<ele>2421.60</ele>
	<time>2023-08-07T06:14:06.000Z</time>
</trkpt>
<trkpt lat="46.1110060" lon="10.5186750">
	<ele>2422.00</ele>
	<time>2023-08-07T06:14:07.000Z</time>
</trkpt>
<trkpt lat="46.1110070" lon="10.5186720">
	<ele>2422.40</ele>
	<time>2023-08-07T06:14:08.000Z</time>
</trkpt>
<trkpt lat="46.1110090" lon="10.5186700">
	<ele>2422.60</ele>
	<time>2023-08-07T06:14:09.000Z</time>
</trkpt>
<trkpt lat="46.1110100" lon="10.5186690">
	<ele>2422.60</ele>
	<time>2023-08-07T06:14:10.000Z</time>
</trkpt>
<trkpt lat="46.1110100" lon="10.5186640">
	<ele>2422.80</ele>
	<time>2023-08-07T06:14:11.000Z</time>
</trkpt>
<trkpt lat="46.1110090" lon="10.5186580">
	<ele>2423.00</ele>
	<time>2023-08-07T06:14:12.000Z</time>
</trkpt>
<trkpt lat="46.1110100" lon="10.5186550">
	<ele>2423.00</ele>
	<time>2023-08-07T06:14:13.000Z</time>
</trkpt>
<trkpt lat="46.1110110" lon="10.5186530">
	<ele>2423.20</ele>
	<time>2023-08-07T06:14:14.000Z</time>
</trkpt>
<trkpt lat="46.1110090" lon="10.5186490">
	<ele>2423.40</ele>
	<time>2023-08-07T06:14:15.000Z</time>
</trkpt>
<trkpt lat="46.1110090" lon="10.5186460">
	<ele>2423.40</ele>
	<time>2023-08-07T06:14:16.000Z</time>
</trkpt>
<trkpt lat="46.1110110" lon="10.5186420">
	<ele>2423.60</ele>
	<time>2023-08-07T06:14:17.000Z</time>
</trkpt>
<trkpt lat="46.1110140" lon="10.5186330">
	<ele>2423.80</ele>
	<time>2023-08-07T06:14:18.000Z</time>
</trkpt>
<trkpt lat="46.1110160" lon="10.5186290">
	<ele>2424.40</ele>
	<time>2023-08-07T06:14:19.000Z</time>
</trkpt>
<trkpt lat="46.1110150" lon="10.5186240">
	<ele>2424.60</ele>
	<time>2023-08-07T06:14:20.000Z</time>
</trkpt>
<trkpt lat="46.1110160" lon="10.5186200">
	<ele>2424.80</ele>
	<time>2023-08-07T06:14:21.000Z</time>
</trkpt>
<trkpt lat="46.1110170" lon="10.5186200">
	<ele>2425.00</ele>
	<time>2023-08-07T06:14:22.000Z</time>
</trkpt>
<trkpt lat="46.1110180" lon="10.5186160">
	<ele>2425.00</ele>
	<time>2023-08-07T06:14:23.000Z</time>
</trkpt>
<trkpt lat="46.1110190" lon="10.5186090">
	<ele>2425.20</ele>
	<time>2023-08-07T06:14:24.000Z</time>
</trkpt>
<trkpt lat="46.1110190" lon="10.5186090">
	<ele>2425.20</ele>
	<time>2023-08-07T06:14:25.000Z</time>
</trkpt>
<trkpt lat="46.1110180" lon="10.5186070">
	<ele>2425.20</ele>
	<time>2023-08-07T06:14:26.000Z</time>
</trkpt>
<trkpt lat="46.1110190" lon="10.5186050">
	<ele>2425.20</ele>
	<time>2023-08-07T06:14:27.000Z</time>
</trkpt>
<trkpt lat="46.1110210" lon="10.5186000">
	<ele>2425.40</ele>
	<time>2023-08-07T06:14:28.000Z</time>
</trkpt>
<trkpt lat="46.1110260" lon="10.5185980">
	<ele>2425.80</ele>
	<time>2023-08-07T06:14:29.000Z</time>
</trkpt>
<trkpt lat="46.1110310" lon="10.5185950">
	<ele>2426.00</ele>
	<time>2023-08-07T06:14:30.000Z</time>
</trkpt>
<trkpt lat="46.1110340" lon="10.5185960">
	<ele>2426.00</ele>
	<time>2023-08-07T06:14:31.000Z</time>
</trkpt>
<trkpt lat="46.1110390" lon="10.5185970">
	<ele>2426.20</ele>
	<time>2023-08-07T06:14:32.000Z</time>
</trkpt>
<trkpt lat="46.1110460" lon="10.5185950">
	<ele>2426.20</ele>
	<time>2023-08-07T06:14:33.000Z</time>
</trkpt>
<trkpt lat="46.1110480" lon="10.5185940">
	<ele>2426.40</ele>
	<time>2023-08-07T06:14:34.000Z</time>
</trkpt>
<trkpt lat="46.1110500" lon="10.5185950">
	<ele>2426.40</ele>
	<time>2023-08-07T06:14:35.000Z</time>
</trkpt>
<trkpt lat="46.1110520" lon="10.5185960">
	<ele>2426.60</ele>
	<time>2023-08-07T06:14:36.000Z</time>
</trkpt>
<trkpt lat="46.1110540" lon="10.5185950">
	<ele>2426.60</ele>
	<time>2023-08-07T06:14:37.000Z</time>
</trkpt>
<trkpt lat="46.1110560" lon="10.5185990">
	<ele>2426.60</ele>
	<time>2023-08-07T06:14:38.000Z</time>
</trkpt>
<trkpt lat="46.1110580" lon="10.5186010">
	<ele>2426.80</ele>
	<time>2023-08-07T06:14:39.000Z</time>
</trkpt>
<trkpt lat="46.1110620" lon="10.5185960">
	<ele>2426.80</ele>
	<time>2023-08-07T06:14:40.000Z</time>
</trkpt>
<trkpt lat="46.1110650" lon="10.5185940">
	<ele>2427.00</ele>
	<time>2023-08-07T06:14:41.000Z</time>
</trkpt>
<trkpt lat="46.1110660" lon="10.5185940">
	<ele>2427.20</ele>
	<time>2023-08-07T06:14:42.000Z</time>
</trkpt>
<trkpt lat="46.1110650" lon="10.5185940">
	<ele>2427.40</ele>
	<time>2023-08-07T06:14:43.000Z</time>
</trkpt>
<trkpt lat="46.1110640" lon="10.5185930">
	<ele>2427.40</ele>
	<time>2023-08-07T06:14:44.000Z</time>
</trkpt>
<trkpt lat="46.1110630" lon="10.5185920">
	<ele>2427.60</ele>
	<time>2023-08-07T06:14:45.000Z</time>
</trkpt>
<trkpt lat="46.1110650" lon="10.5185880">
	<ele>2427.60</ele>
	<time>2023-08-07T06:14:46.000Z</time>
</trkpt>
<trkpt lat="46.1110660" lon="10.5185820">
	<ele>2427.80</ele>
	<time>2023-08-07T06:14:47.000Z</time>
</trkpt>
<trkpt lat="46.1110690" lon="10.5185800">
	<ele>2427.80</ele>
	<time>2023-08-07T06:14:48.000Z</time>
</trkpt>
<trkpt lat="46.1110690" lon="10.5185750">
	<ele>2428.00</ele>
	<time>2023-08-07T06:14:49.000Z</time>
</trkpt>
<trkpt lat="46.1110680" lon="10.5185690">
	<ele>2428.20</ele>
	<time>2023-08-07T06:14:50.000Z</time>
</trkpt>
<trkpt lat="46.1110700" lon="10.5185650">
	<ele>2428.40</ele>
	<time>2023-08-07T06:14:51.000Z</time>
</trkpt>
<trkpt lat="46.1110730" lon="10.5185640">
	<ele>2428.60</ele>
	<time>2023-08-07T06:14:52.000Z</time>
</trkpt>
<trkpt lat="46.1110740" lon="10.5185630">
	<ele>2428.80</ele>
	<time>2023-08-07T06:14:53.000Z</time>
</trkpt>
<trkpt lat="46.1110790" lon="10.5185600">
	<ele>2428.80</ele>
	<time>2023-08-07T06:14:54.000Z</time>
</trkpt>
<trkpt lat="46.1110800" lon="10.5185580">
	<ele>2428.80</ele>
	<time>2023-08-07T06:14:55.000Z</time>
</trkpt>
<trkpt lat="46.1110800" lon="10.5185560">
	<ele>2428.80</ele>
	<time>2023-08-07T06:14:56.000Z</time>
</trkpt>
<trkpt lat="46.1110820" lon="10.5185530">
	<ele>2429.00</ele>
	<time>2023-08-07T06:14:57.000Z</time>
</trkpt>
<trkpt lat="46.1110850" lon="10.5185440">
	<ele>2429.20</ele>
	<time>2023-08-07T06:14:58.000Z</time>
</trkpt>
<trkpt lat="46.1110850" lon="10.5185380">
	<ele>2429.40</ele>
	<time>2023-08-07T06:14:59.000Z</time>
</trkpt>
<trkpt lat="46.1110850" lon="10.5185340">
	<ele>2429.60</ele>
	<time>2023-08-07T06:15:00.000Z</time>
</trkpt>
<trkpt lat="46.1110850" lon="10.5185310">
	<ele>2429.60</ele>
	<time>2023-08-07T06:15:01.000Z</time>
</trkpt>
<trkpt lat="46.1110850" lon="10.5185280">
	<ele>2429.60</ele>
	<time>2023-08-07T06:15:02.000Z</time>
</trkpt>
<trkpt lat="46.1110870" lon="10.5185210">
	<ele>2429.80</ele>
	<time>2023-08-07T06:15:03.000Z</time>
</trkpt>
<trkpt lat="46.1110870" lon="10.5185160">
	<ele>2430.00</ele>
	<time>2023-08-07T06:15:04.000Z</time>
</trkpt>
<trkpt lat="46.1110860" lon="10.5185130">
	<ele>2430.20</ele>
	<time>2023-08-07T06:15:05.000Z</time>
</trkpt>
<trkpt lat="46.1110840" lon="10.5185120">
	<ele>2430.20</ele>
	<time>2023-08-07T06:15:06.000Z</time>
</trkpt>
<trkpt lat="46.1110810" lon="10.5185090">
	<ele>2430.40</ele>
	<time>2023-08-07T06:15:07.000Z</time>
</trkpt>
<trkpt lat="46.1110830" lon="10.5185020">
	<ele>2430.40</ele>
	<time>2023-08-07T06:15:08.000Z</time>
</trkpt>
<trkpt lat="46.1110850" lon="10.5184950">
	<ele>2430.60</ele>
	<time>2023-08-07T06:15:09.000Z</time>
</trkpt>
<trkpt lat="46.1110840" lon="10.5184880">
	<ele>2431.20</ele>
	<time>2023-08-07T06:15:10.000Z</time>
</trkpt>
<trkpt lat="46.1110840" lon="10.5184820">
	<ele>2431.40</ele>
	<time>2023-08-07T06:15:11.000Z</time>
</trkpt>
<trkpt lat="46.1110870" lon="10.5184780">
	<ele>2431.60</ele>
	<time>2023-08-07T06:15:12.000Z</time>
</trkpt>
<trkpt lat="46.1110940" lon="10.5184760">
	<ele>2431.60</ele>
	<time>2023-08-07T06:15:13.000Z</time>
</trkpt>
<trkpt lat="46.1110980" lon="10.5184760">
	<ele>2431.80</ele>
	<time>2023-08-07T06:15:14.000Z</time>
</trkpt>
<trkpt lat="46.1110990" lon="10.5184780">
	<ele>2432.00</ele>
	<time>2023-08-07T06:15:15.000Z</time>
</trkpt>
<trkpt lat="46.1110990" lon="10.5184800">
	<ele>2432.00</ele>
	<time>2023-08-07T06:15:16.000Z</time>
</trkpt>
<trkpt lat="46.1110960" lon="10.5184830">
	<ele>2432.00</ele>
	<time>2023-08-07T06:15:17.000Z</time>
</trkpt>
<trkpt lat="46.1110990" lon="10.5184850">
	<ele>2432.00</ele>
	<time>2023-08-07T06:15:18.000Z</time>
</trkpt>
<trkpt lat="46.1111030" lon="10.5184840">
	<ele>2432.00</ele>
	<time>2023-08-07T06:15:19.000Z</time>
</trkpt>
<trkpt lat="46.1111060" lon="10.5184830">
	<ele>2432.00</ele>
	<time>2023-08-07T06:15:20.000Z</time>
</trkpt>
<trkpt lat="46.1111090" lon="10.5184820">
	<ele>2432.00</ele>
	<time>2023-08-07T06:15:21.000Z</time>
</trkpt>
<trkpt lat="46.1111110" lon="10.5184810">
	<ele>2432.00</ele>
	<time>2023-08-07T06:15:22.000Z</time>
</trkpt>
<trkpt lat="46.1111140" lon="10.5184770">
	<ele>2432.00</ele>
	<time>2023-08-07T06:15:23.000Z</time>
</trkpt>
<trkpt lat="46.1111160" lon="10.5184750">
	<ele>2432.00</ele>
	<time>2023-08-07T06:15:24.000Z</time>
</trkpt>
<trkpt lat="46.1111180" lon="10.5184730">
	<ele>2432.00</ele>
	<time>2023-08-07T06:15:25.000Z</time>
</trkpt>
<trkpt lat="46.1111160" lon="10.5184690">
	<ele>2432.00</ele>
	<time>2023-08-07T06:15:26.000Z</time>
</trkpt>
<trkpt lat="46.1111200" lon="10.5184690">
	<ele>2432.00</ele>
	<time>2023-08-07T06:15:27.000Z</time>
</trkpt>
<trkpt lat="46.1111230" lon="10.5184690">
	<ele>2432.00</ele>
	<time>2023-08-07T06:15:28.000Z</time>
</trkpt>
<trkpt lat="46.1111250" lon="10.5184680">
	<ele>2432.00</ele>
	<time>2023-08-07T06:15:29.000Z</time>
</trkpt>
<trkpt lat="46.1111260" lon="10.5184680">
	<ele>2432.00</ele>
	<time>2023-08-07T06:15:30.000Z</time>
</trkpt>
<trkpt lat="46.1111270" lon="10.5184670">
	<ele>2432.00</ele>
	<time>2023-08-07T06:15:31.000Z</time>
</trkpt>
<trkpt lat="46.1111300" lon="10.5184680">
	<ele>2432.20</ele>
	<time>2023-08-07T06:15:32.000Z</time>
</trkpt>
<trkpt lat="46.1111330" lon="10.5184700">
	<ele>2432.20</ele>
	<time>2023-08-07T06:15:33.000Z</time>
</trkpt>
<trkpt lat="46.1111360" lon="10.5184710">
	<ele>2432.40</ele>
	<time>2023-08-07T06:15:34.000Z</time>
</trkpt>
<trkpt lat="46.1111380" lon="10.5184710">
	<ele>2432.60</ele>
	<time>2023-08-07T06:15:35.000Z</time>
</trkpt>
<trkpt lat="46.1111390" lon="10.5184700">
	<ele>2432.80</ele>
	<time>2023-08-07T06:15:36.000Z</time>
</trkpt>
<trkpt lat="46.1111400" lon="10.5184700">
	<ele>2433.00</ele>
	<time>2023-08-07T06:15:37.000Z</time>
</trkpt>
<trkpt lat="46.1111400" lon="10.5184700">
	<ele>2433.20</ele>
	<time>2023-08-07T06:15:38.000Z</time>
</trkpt>
<trkpt lat="46.1111410" lon="10.5184700">
	<ele>2433.40</ele>
	<time>2023-08-07T06:15:39.000Z</time>
</trkpt>
<trkpt lat="46.1111450" lon="10.5184730">
	<ele>2433.40</ele>
	<time>2023-08-07T06:15:40.000Z</time>
</trkpt>
<trkpt lat="46.1111490" lon="10.5184750">
	<ele>2433.40</ele>
	<time>2023-08-07T06:15:41.000Z</time>
</trkpt>
<trkpt lat="46.1111560" lon="10.5184760">
	<ele>2433.40</ele>
	<time>2023-08-07T06:15:42.000Z</time>
</trkpt>
<trkpt lat="46.1111630" lon="10.5184730">
	<ele>2433.60</ele>
	<time>2023-08-07T06:15:43.000Z</time>
</trkpt>
<trkpt lat="46.1111670" lon="10.5184730">
	<ele>2433.80</ele>
	<time>2023-08-07T06:15:44.000Z</time>
</trkpt>
<trkpt lat="46.1111730" lon="10.5184730">
	<ele>2433.80</ele>
	<time>2023-08-07T06:15:45.000Z</time>
</trkpt>
<trkpt lat="46.1111790" lon="10.5184800">
	<ele>2434.00</ele>
	<time>2023-08-07T06:15:46.000Z</time>
</trkpt>
<trkpt lat="46.1111840" lon="10.5184840">
	<ele>2434.20</ele>
	<time>2023-08-07T06:15:47.000Z</time>
</trkpt>
<trkpt lat="46.1111870" lon="10.5184850">
	<ele>2434.40</ele>
	<time>2023-08-07T06:15:48.000Z</time>
</trkpt>
<trkpt lat="46.1111910" lon="10.5184850">
	<ele>2434.40</ele>
	<time>2023-08-07T06:15:49.000Z</time>
</trkpt>
<trkpt lat="46.1111940" lon="10.5184840">
	<ele>2434.60</ele>
	<time>2023-08-07T06:15:50.000Z</time>
</trkpt>
<trkpt lat="46.1111950" lon="10.5184810">
	<ele>2434.80</ele>
	<time>2023-08-07T06:15:51.000Z</time>
</trkpt>
<trkpt lat="46.1111990" lon="10.5184770">
	<ele>2434.80</ele>
	<time>2023-08-07T06:15:52.000Z</time>
</trkpt>
<trkpt lat="46.1112010" lon="10.5184760">
	<ele>2435.00</ele>
	<time>2023-08-07T06:15:53.000Z</time>
</trkpt>
<trkpt lat="46.1112030" lon="10.5184750">
	<ele>2435.20</ele>
	<time>2023-08-07T06:15:54.000Z</time>
</trkpt>
<trkpt lat="46.1112010" lon="10.5184760">
	<ele>2435.60</ele>
	<time>2023-08-07T06:15:55.000Z</time>
</trkpt>
<trkpt lat="46.1112050" lon="10.5184790">
	<ele>2435.80</ele>
	<time>2023-08-07T06:15:56.000Z</time>
</trkpt>
<trkpt lat="46.1112080" lon="10.5184800">
	<ele>2435.80</ele>
	<time>2023-08-07T06:15:57.000Z</time>
</trkpt>
<trkpt lat="46.1112110" lon="10.5184800">
	<ele>2435.80</ele>
	<time>2023-08-07T06:15:58.000Z</time>
</trkpt>
<trkpt lat="46.1112140" lon="10.5184870">
	<ele>2435.80</ele>
	<time>2023-08-07T06:15:59.000Z</time>
</trkpt>
<trkpt lat="46.1112160" lon="10.5184880">
	<ele>2436.00</ele>
	<time>2023-08-07T06:16:00.000Z</time>
</trkpt>
<trkpt lat="46.1112160" lon="10.5184880">
	<ele>2436.00</ele>
	<time>2023-08-07T06:16:01.000Z</time>
</trkpt>
<trkpt lat="46.1112230" lon="10.5184910">
	<ele>2436.00</ele>
	<time>2023-08-07T06:16:02.000Z</time>
</trkpt>
<trkpt lat="46.1112290" lon="10.5184890">
	<ele>2436.20</ele>
	<time>2023-08-07T06:16:03.000Z</time>
</trkpt>
<trkpt lat="46.1112330" lon="10.5184880">
	<ele>2436.40</ele>
	<time>2023-08-07T06:16:04.000Z</time>
</trkpt>
<trkpt lat="46.1112360" lon="10.5184890">
	<ele>2436.60</ele>
	<time>2023-08-07T06:16:05.000Z</time>
</trkpt>
<trkpt lat="46.1112390" lon="10.5184880">
	<ele>2436.80</ele>
	<time>2023-08-07T06:16:06.000Z</time>
</trkpt>
<trkpt lat="46.1112380" lon="10.5184840">
	<ele>2437.00</ele>
	<time>2023-08-07T06:16:07.000Z</time>
</trkpt>
<trkpt lat="46.1112360" lon="10.5184770">
	<ele>2437.20</ele>
	<time>2023-08-07T06:16:08.000Z</time>
</trkpt>
<trkpt lat="46.1112370" lon="10.5184680">
	<ele>2437.20</ele>
	<time>2023-08-07T06:16:09.000Z</time>
</trkpt>
<trkpt lat="46.1112370" lon="10.5184620">
	<ele>2437.40</ele>
	<time>2023-08-07T06:16:10.000Z</time>
</trkpt>
<trkpt lat="46.1112390" lon="10.5184590">
	<ele>2437.80</ele>
	<time>2023-08-07T06:16:11.000Z</time>
</trkpt>
<trkpt lat="46.1112410" lon="10.5184580">
	<ele>2438.00</ele>
	<time>2023-08-07T06:16:12.000Z</time>
</trkpt>
<trkpt lat="46.1112400" lon="10.5184620">
	<ele>2438.00</ele>
	<time>2023-08-07T06:16:13.000Z</time>
</trkpt>
<trkpt lat="46.1112360" lon="10.5184650">
	<ele>2438.20</ele>
	<time>2023-08-07T06:16:14.000Z</time>
</trkpt>
<trkpt lat="46.1112360" lon="10.5184630">
	<ele>2438.20</ele>
	<time>2023-08-07T06:16:15.000Z</time>
</trkpt>
<trkpt lat="46.1112370" lon="10.5184620">
	<ele>2438.20</ele>
	<time>2023-08-07T06:16:16.000Z</time>
</trkpt>
<trkpt lat="46.1112400" lon="10.5184590">
	<ele>2438.40</ele>
	<time>2023-08-07T06:16:17.000Z</time>
</trkpt>
<trkpt lat="46.1112430" lon="10.5184590">
	<ele>2438.60</ele>
	<time>2023-08-07T06:16:18.000Z</time>
</trkpt>
<trkpt lat="46.1112450" lon="10.5184570">
	<ele>2438.60</ele>
	<time>2023-08-07T06:16:19.000Z</time>
</trkpt>
<trkpt lat="46.1112460" lon="10.5184550">
	<ele>2439.00</ele>
	<time>2023-08-07T06:16:20.000Z</time>
</trkpt>
<trkpt lat="46.1112480" lon="10.5184570">
	<ele>2439.20</ele>
	<time>2023-08-07T06:16:21.000Z</time>
</trkpt>
<trkpt lat="46.1112520" lon="10.5184540">
	<ele>2439.40</ele>
	<time>2023-08-07T06:16:22.000Z</time>
</trkpt>
<trkpt lat="46.1112540" lon="10.5184530">
	<ele>2439.60</ele>
	<time>2023-08-07T06:16:23.000Z</time>
</trkpt>
<trkpt lat="46.1112530" lon="10.5184450">
	<ele>2439.80</ele>
	<time>2023-08-07T06:16:24.000Z</time>
</trkpt>
<trkpt lat="46.1112530" lon="10.5184410">
	<ele>2439.80</ele>
	<time>2023-08-07T06:16:25.000Z</time>
</trkpt>
<trkpt lat="46.1112510" lon="10.5184360">
	<ele>2440.20</ele>
	<time>2023-08-07T06:16:26.000Z</time>
</trkpt>
<trkpt lat="46.1112520" lon="10.5184310">
	<ele>2440.40</ele>
	<time>2023-08-07T06:16:27.000Z</time>
</trkpt>
<trkpt lat="46.1112530" lon="10.5184280">
	<ele>2440.60</ele>
	<time>2023-08-07T06:16:28.000Z</time>
</trkpt>
<trkpt lat="46.1112530" lon="10.5184280">
	<ele>2440.80</ele>
	<time>2023-08-07T06:16:29.000Z</time>
</trkpt>
<trkpt lat="46.1112540" lon="10.5184270">
	<ele>2440.80</ele>
	<time>2023-08-07T06:16:30.000Z</time>
</trkpt>
<trkpt lat="46.1112560" lon="10.5184230">
	<ele>2440.80</ele>
	<time>2023-08-07T06:16:31.000Z</time>
</trkpt>
<trkpt lat="46.1112590" lon="10.5184190">
	<ele>2440.60</ele>
	<time>2023-08-07T06:16:32.000Z</time>
</trkpt>
<trkpt lat="46.1112590" lon="10.5184200">
	<ele>2440.40</ele>
	<time>2023-08-07T06:16:33.000Z</time>
</trkpt>
<trkpt lat="46.1112610" lon="10.5184210">
	<ele>2440.20</ele>
	<time>2023-08-07T06:16:34.000Z</time>
</trkpt>
<trkpt lat="46.1112620" lon="10.5184180">
	<ele>2439.80</ele>
	<time>2023-08-07T06:16:35.000Z</time>
</trkpt>
<trkpt lat="46.1112610" lon="10.5184150">
	<ele>2439.80</ele>
	<time>2023-08-07T06:16:36.000Z</time>
</trkpt>
<trkpt lat="46.1112590" lon="10.5184080">
	<ele>2439.60</ele>
	<time>2023-08-07T06:16:37.000Z</time>
</trkpt>
<trkpt lat="46.1112570" lon="10.5184030">
	<ele>2439.60</ele>
	<time>2023-08-07T06:16:38.000Z</time>
</trkpt>
<trkpt lat="46.1112580" lon="10.5184020">
	<ele>2440.00</ele>
	<time>2023-08-07T06:16:39.000Z</time>
</trkpt>
<trkpt lat="46.1112570" lon="10.5184010">
	<ele>2440.40</ele>
	<time>2023-08-07T06:16:40.000Z</time>
</trkpt>
<trkpt lat="46.1112550" lon="10.5183980">
	<ele>2440.40</ele>
	<time>2023-08-07T06:16:41.000Z</time>
</trkpt>
<trkpt lat="46.1112550" lon="10.5183960">
	<ele>2440.80</ele>
	<time>2023-08-07T06:16:42.000Z</time>
</trkpt>
<trkpt lat="46.1112550" lon="10.5183910">
	<ele>2441.00</ele>
	<time>2023-08-07T06:16:43.000Z</time>
</trkpt>
<trkpt lat="46.1112570" lon="10.5183880">
	<ele>2441.20</ele>
	<time>2023-08-07T06:16:44.000Z</time>
</trkpt>
<trkpt lat="46.1112610" lon="10.5183840">
	<ele>2441.40</ele>
	<time>2023-08-07T06:16:45.000Z</time>
</trkpt>
<trkpt lat="46.1112620" lon="10.5183840">
	<ele>2441.40</ele>
	<time>2023-08-07T06:16:46.000Z</time>
</trkpt>
<trkpt lat="46.1112650" lon="10.5183840">
	<ele>2441.60</ele>
	<time>2023-08-07T06:16:47.000Z</time>
</trkpt>
<trkpt lat="46.1112680" lon="10.5183830">
	<ele>2441.60</ele>
	<time>2023-08-07T06:16:48.000Z</time>
</trkpt>
<trkpt lat="46.1112710" lon="10.5183840">
	<ele>2441.60</ele>
	<time>2023-08-07T06:16:49.000Z</time>
</trkpt>
<trkpt lat="46.1112740" lon="10.5183840">
	<ele>2441.60</ele>
	<time>2023-08-07T06:16:50.000Z</time>
</trkpt>
<trkpt lat="46.1112750" lon="10.5183810">
	<ele>2441.60</ele>
	<time>2023-08-07T06:16:51.000Z</time>
</trkpt>
<trkpt lat="46.1112760" lon="10.5183790">
	<ele>2441.60</ele>
	<time>2023-08-07T06:16:52.000Z</time>
</trkpt>
<trkpt lat="46.1112780" lon="10.5183780">
	<ele>2442.00</ele>
	<time>2023-08-07T06:16:53.000Z</time>
</trkpt>
<trkpt lat="46.1112810" lon="10.5183770">
	<ele>2442.20</ele>
	<time>2023-08-07T06:16:54.000Z</time>
</trkpt>
<trkpt lat="46.1112830" lon="10.5183750">
	<ele>2442.40</ele>
	<time>2023-08-07T06:16:55.000Z</time>
</trkpt>
<trkpt lat="46.1112830" lon="10.5183750">
	<ele>2442.40</ele>
	<time>2023-08-07T06:16:56.000Z</time>
</trkpt>
<trkpt lat="46.1112820" lon="10.5183750">
	<ele>2442.60</ele>
	<time>2023-08-07T06:16:57.000Z</time>
</trkpt>
<trkpt lat="46.1112820" lon="10.5183750">
	<ele>2442.60</ele>
	<time>2023-08-07T06:16:58.000Z</time>
</trkpt>
<trkpt lat="46.1112820" lon="10.5183710">
	<ele>2442.60</ele>
	<time>2023-08-07T06:16:59.000Z</time>
</trkpt>
<trkpt lat="46.1112830" lon="10.5183670">
	<ele>2442.80</ele>
	<time>2023-08-07T06:17:00.000Z</time>
</trkpt>
<trkpt lat="46.1112840" lon="10.5183660">
	<ele>2442.80</ele>
	<time>2023-08-07T06:17:01.000Z</time>
</trkpt>
<trkpt lat="46.1112880" lon="10.5183670">
	<ele>2443.20</ele>
	<time>2023-08-07T06:17:02.000Z</time>
</trkpt>
<trkpt lat="46.1112900" lon="10.5183670">
	<ele>2443.60</ele>
	<time>2023-08-07T06:17:03.000Z</time>
</trkpt>
<trkpt lat="46.1112910" lon="10.5183670">
	<ele>2444.00</ele>
	<time>2023-08-07T06:17:04.000Z</time>
</trkpt>
<trkpt lat="46.1112980" lon="10.5183670">
	<ele>2444.20</ele>
	<time>2023-08-07T06:17:05.000Z</time>
</trkpt>
<trkpt lat="46.1113010" lon="10.5183660">
	<ele>2444.20</ele>
	<time>2023-08-07T06:17:06.000Z</time>
</trkpt>
<trkpt lat="46.1113010" lon="10.5183640">
	<ele>2444.40</ele>
	<time>2023-08-07T06:17:07.000Z</time>
</trkpt>
<trkpt lat="46.1113030" lon="10.5183670">
	<ele>2444.60</ele>
	<time>2023-08-07T06:17:08.000Z</time>
</trkpt>
<trkpt lat="46.1113030" lon="10.5183650">
	<ele>2444.80</ele>
	<time>2023-08-07T06:17:09.000Z</time>
</trkpt>
<trkpt lat="46.1113000" lon="10.5183600">
	<ele>2445.00</ele>
	<time>2023-08-07T06:17:10.000Z</time>
</trkpt>
<trkpt lat="46.1112980" lon="10.5183550">
	<ele>2445.20</ele>
	<time>2023-08-07T06:17:11.000Z</time>
</trkpt>
<trkpt lat="46.1112950" lon="10.5183480">
	<ele>2445.40</ele>
	<time>2023-08-07T06:17:12.000Z</time>
</trkpt>
<trkpt lat="46.1112940" lon="10.5183450">
	<ele>2445.60</ele>
	<time>2023-08-07T06:17:13.000Z</time>
</trkpt>
<trkpt lat="46.1112920" lon="10.5183430">
	<ele>2445.80</ele>
	<time>2023-08-07T06:17:14.000Z</time>
</trkpt>
<trkpt lat="46.1112920" lon="10.5183400">
	<ele>2445.80</ele>
	<time>2023-08-07T06:17:15.000Z</time>
</trkpt>
<trkpt lat="46.1112920" lon="10.5183340">
	<ele>2446.00</ele>
	<time>2023-08-07T06:17:16.000Z</time>
</trkpt>
<trkpt lat="46.1112950" lon="10.5183300">
	<ele>2446.00</ele>
	<time>2023-08-07T06:17:17.000Z</time>
</trkpt>
<trkpt lat="46.1112990" lon="10.5183310">
	<ele>2446.20</ele>
	<time>2023-08-07T06:17:18.000Z</time>
</trkpt>
<trkpt lat="46.1113010" lon="10.5183300">
	<ele>2446.40</ele>
	<time>2023-08-07T06:17:19.000Z</time>
</trkpt>
<trkpt lat="46.1113040" lon="10.5183290">
	<ele>2446.60</ele>
	<time>2023-08-07T06:17:20.000Z</time>
</trkpt>
<trkpt lat="46.1113030" lon="10.5183260">
	<ele>2446.60</ele>
	<time>2023-08-07T06:17:21.000Z</time>
</trkpt>
<trkpt lat="46.1113040" lon="10.5183210">
	<ele>2446.60</ele>
	<time>2023-08-07T06:17:22.000Z</time>
</trkpt>
<trkpt lat="46.1113010" lon="10.5183140">
	<ele>2446.80</ele>
	<time>2023-08-07T06:17:23.000Z</time>
</trkpt>
<trkpt lat="46.1113000" lon="10.5183100">
	<ele>2446.80</ele>
	<time>2023-08-07T06:17:24.000Z</time>
</trkpt>
<trkpt lat="46.1113000" lon="10.5183140">
	<ele>2447.00</ele>
	<time>2023-08-07T06:17:25.000Z</time>
</trkpt>
<trkpt lat="46.1113030" lon="10.5183160">
	<ele>2447.00</ele>
	<time>2023-08-07T06:17:26.000Z</time>
</trkpt>
<trkpt lat="46.1113050" lon="10.5183180">
	<ele>2447.00</ele>
	<time>2023-08-07T06:17:27.000Z</time>
</trkpt>
<trkpt lat="46.1113070" lon="10.5183190">
	<ele>2447.00</ele>
	<time>2023-08-07T06:17:28.000Z</time>
</trkpt>
<trkpt lat="46.1113060" lon="10.5183180">
	<ele>2447.20</ele>
	<time>2023-08-07T06:17:29.000Z</time>
</trkpt>
<trkpt lat="46.1113110" lon="10.5183150">
	<ele>2447.20</ele>
	<time>2023-08-07T06:17:30.000Z</time>
</trkpt>
<trkpt lat="46.1113170" lon="10.5183130">
	<ele>2447.20</ele>
	<time>2023-08-07T06:17:31.000Z</time>
</trkpt>
<trkpt lat="46.1113200" lon="10.5183100">
	<ele>2447.40</ele>
	<time>2023-08-07T06:17:32.000Z</time>
</trkpt>
<trkpt lat="46.1113210" lon="10.5183140">
	<ele>2447.60</ele>
	<time>2023-08-07T06:17:33.000Z</time>
</trkpt>
<trkpt lat="46.1113220" lon="10.5183150">
	<ele>2447.80</ele>
	<time>2023-08-07T06:17:34.000Z</time>
</trkpt>
<trkpt lat="46.1113260" lon="10.5183140">
	<ele>2448.00</ele>
	<time>2023-08-07T06:17:35.000Z</time>
</trkpt>
<trkpt lat="46.1113290" lon="10.5183150">
	<ele>2448.00</ele>
	<time>2023-08-07T06:17:36.000Z</time>
</trkpt>
<trkpt lat="46.1113330" lon="10.5183120">
	<ele>2448.20</ele>
	<time>2023-08-07T06:17:37.000Z</time>
</trkpt>
<trkpt lat="46.1113350" lon="10.5183050">
	<ele>2448.20</ele>
	<time>2023-08-07T06:17:38.000Z</time>
</trkpt>
<trkpt lat="46.1113360" lon="10.5183030">
	<ele>2448.20</ele>
	<time>2023-08-07T06:17:39.000Z</time>
</trkpt>
<trkpt lat="46.1113380" lon="10.5182980">
	<ele>2448.60</ele>
	<time>2023-08-07T06:17:40.000Z</time>
</trkpt>
<trkpt lat="46.1113380" lon="10.5182950">
	<ele>2449.00</ele>
	<time>2023-08-07T06:17:41.000Z</time>
</trkpt>
<trkpt lat="46.1113370" lon="10.5182930">
	<ele>2449.20</ele>
	<time>2023-08-07T06:17:42.000Z</time>
</trkpt>
<trkpt lat="46.1113360" lon="10.5182890">
	<ele>2449.20</ele>
	<time>2023-08-07T06:17:43.000Z</time>
</trkpt>
<trkpt lat="46.1113350" lon="10.5182850">
	<ele>2449.40</ele>
	<time>2023-08-07T06:17:44.000Z</time>
</trkpt>
<trkpt lat="46.1113350" lon="10.5182810">
	<ele>2449.60</ele>
	<time>2023-08-07T06:17:45.000Z</time>
</trkpt>
<trkpt lat="46.1113360" lon="10.5182720">
	<ele>2450.00</ele>
	<time>2023-08-07T06:17:46.000Z</time>
</trkpt>
<trkpt lat="46.1113380" lon="10.5182670">
	<ele>2450.40</ele>
	<time>2023-08-07T06:17:47.000Z</time>
</trkpt>
<trkpt lat="46.1113400" lon="10.5182660">
	<ele>2450.80</ele>
	<time>2023-08-07T06:17:48.000Z</time>
</trkpt>
<trkpt lat="46.1113460" lon="10.5182680">
	<ele>2451.00</ele>
	<time>2023-08-07T06:17:49.000Z</time>
</trkpt>
<trkpt lat="46.1113510" lon="10.5182670">
	<ele>2451.40</ele>
	<time>2023-08-07T06:17:50.000Z</time>
</trkpt>
<trkpt lat="46.1113540" lon="10.5182680">
	<ele>2451.60</ele>
	<time>2023-08-07T06:17:51.000Z</time>
</trkpt>
<trkpt lat="46.1113590" lon="10.5182630">
	<ele>2451.60</ele>
	<time>2023-08-07T06:17:52.000Z</time>
</trkpt>
<trkpt lat="46.1113640" lon="10.5182600">
	<ele>2451.80</ele>
	<time>2023-08-07T06:17:53.000Z</time>
</trkpt>
<trkpt lat="46.1113640" lon="10.5182520">
	<ele>2451.80</ele>
	<time>2023-08-07T06:17:54.000Z</time>
</trkpt>
<trkpt lat="46.1113630" lon="10.5182480">
	<ele>2451.80</ele>
	<time>2023-08-07T06:17:55.000Z</time>
</trkpt>
<trkpt lat="46.1113630" lon="10.5182450">
	<ele>2451.60</ele>
	<time>2023-08-07T06:17:56.000Z</time>
</trkpt>
<trkpt lat="46.1113660" lon="10.5182410">
	<ele>2451.40</ele>
	<time>2023-08-07T06:17:57.000Z</time>
</trkpt>
<trkpt lat="46.1113680" lon="10.5182420">
	<ele>2451.00</ele>
	<time>2023-08-07T06:17:58.000Z</time>
</trkpt>
<trkpt lat="46.1113710" lon="10.5182470">
	<ele>2450.80</ele>
	<time>2023-08-07T06:17:59.000Z</time>
</trkpt>
<trkpt lat="46.1113770" lon="10.5182500">
	<ele>2450.60</ele>
	<time>2023-08-07T06:18:00.000Z</time>
</trkpt>
<trkpt lat="46.1113830" lon="10.5182510">
	<ele>2450.60</ele>
	<time>2023-08-07T06:18:01.000Z</time>
</trkpt>
<trkpt lat="46.1113890" lon="10.5182510">
	<ele>2450.60</ele>
	<time>2023-08-07T06:18:02.000Z</time>
</trkpt>
<trkpt lat="46.1113930" lon="10.5182520">
	<ele>2450.60</ele>
	<time>2023-08-07T06:18:03.000Z</time>
</trkpt>
<trkpt lat="46.1113980" lon="10.5182520">
	<ele>2450.60</ele>
	<time>2023-08-07T06:18:04.000Z</time>
</trkpt>
<trkpt lat="46.1114000" lon="10.5182500">
	<ele>2450.60</ele>
	<time>2023-08-07T06:18:05.000Z</time>
</trkpt>
<trkpt lat="46.1114040" lon="10.5182440">
	<ele>2450.60</ele>
	<time>2023-08-07T06:18:06.000Z</time>
</trkpt>
<trkpt lat="46.1114090" lon="10.5182440">
	<ele>2450.60</ele>
	<time>2023-08-07T06:18:07.000Z</time>
</trkpt>
<trkpt lat="46.1114130" lon="10.5182460">
	<ele>2450.60</ele>
	<time>2023-08-07T06:18:08.000Z</time>
</trkpt>
<trkpt lat="46.1114150" lon="10.5182460">
	<ele>2450.40</ele>
	<time>2023-08-07T06:18:09.000Z</time>
</trkpt>
<trkpt lat="46.1114150" lon="10.5182470">
	<ele>2450.40</ele>
	<time>2023-08-07T06:18:10.000Z</time>
</trkpt>
<trkpt lat="46.1114160" lon="10.5182480">
	<ele>2450.40</ele>
	<time>2023-08-07T06:18:11.000Z</time>
</trkpt>
<trkpt lat="46.1114180" lon="10.5182490">
	<ele>2450.40</ele>
	<time>2023-08-07T06:18:12.000Z</time>
</trkpt>
<trkpt lat="46.1114170" lon="10.5182500">
	<ele>2450.40</ele>
	<time>2023-08-07T06:18:13.000Z</time>
</trkpt>
<trkpt lat="46.1114160" lon="10.5182500">
	<ele>2450.40</ele>
	<time>2023-08-07T06:18:14.000Z</time>
</trkpt>
<trkpt lat="46.1114160" lon="10.5182490">
	<ele>2450.40</ele>
	<time>2023-08-07T06:18:15.000Z</time>
</trkpt>
<trkpt lat="46.1114150" lon="10.5182500">
	<ele>2450.40</ele>
	<time>2023-08-07T06:18:16.000Z</time>
</trkpt>
<trkpt lat="46.1114130" lon="10.5182520">
	<ele>2450.40</ele>
	<time>2023-08-07T06:18:17.000Z</time>
</trkpt>
<trkpt lat="46.1114120" lon="10.5182530">
	<ele>2450.60</ele>
	<time>2023-08-07T06:18:18.000Z</time>
</trkpt>
<trkpt lat="46.1114120" lon="10.5182550">
	<ele>2450.60</ele>
	<time>2023-08-07T06:18:19.000Z</time>
</trkpt>
<trkpt lat="46.1114100" lon="10.5182550">
	<ele>2450.60</ele>
	<time>2023-08-07T06:18:20.000Z</time>
</trkpt>
<trkpt lat="46.1114090" lon="10.5182520">
	<ele>2450.60</ele>
	<time>2023-08-07T06:18:21.000Z</time>
</trkpt>
<trkpt lat="46.1114120" lon="10.5182510">
	<ele>2450.60</ele>
	<time>2023-08-07T06:18:22.000Z</time>
</trkpt>
<trkpt lat="46.1114130" lon="10.5182490">
	<ele>2450.60</ele>
	<time>2023-08-07T06:18:23.000Z</time>
</trkpt>
<trkpt lat="46.1114150" lon="10.5182450">
	<ele>2450.60</ele>
	<time>2023-08-07T06:18:24.000Z</time>
</trkpt>
<trkpt lat="46.1114180" lon="10.5182420">
	<ele>2450.60</ele>
	<time>2023-08-07T06:18:25.000Z</time>
</trkpt>
<trkpt lat="46.1114190" lon="10.5182380">
	<ele>2450.40</ele>
	<time>2023-08-07T06:18:26.000Z</time>
</trkpt>
<trkpt lat="46.1114210" lon="10.5182360">
	<ele>2450.60</ele>
	<time>2023-08-07T06:18:27.000Z</time>
</trkpt>
<trkpt lat="46.1114210" lon="10.5182330">
	<ele>2450.60</ele>
	<time>2023-08-07T06:18:28.000Z</time>
</trkpt>
<trkpt lat="46.1114200" lon="10.5182290">
	<ele>2450.80</ele>
	<time>2023-08-07T06:18:29.000Z</time>
</trkpt>
<trkpt lat="46.1114220" lon="10.5182270">
	<ele>2450.80</ele>
	<time>2023-08-07T06:18:30.000Z</time>
</trkpt>
<trkpt lat="46.1114230" lon="10.5182300">
	<ele>2451.20</ele>
	<time>2023-08-07T06:18:31.000Z</time>
</trkpt>
<trkpt lat="46.1114220" lon="10.5182270">
	<ele>2451.40</ele>
	<time>2023-08-07T06:18:32.000Z</time>
</trkpt>
<trkpt lat="46.1114230" lon="10.5182270">
	<ele>2451.60</ele>
	<time>2023-08-07T06:18:33.000Z</time>
</trkpt>
<trkpt lat="46.1114240" lon="10.5182250">
	<ele>2452.00</ele>
	<time>2023-08-07T06:18:34.000Z</time>
</trkpt>
<trkpt lat="46.1114270" lon="10.5182220">
	<ele>2452.20</ele>
	<time>2023-08-07T06:18:35.000Z</time>
</trkpt>
<trkpt lat="46.1114290" lon="10.5182160">
	<ele>2452.40</ele>
	<time>2023-08-07T06:18:36.000Z</time>
</trkpt>
<trkpt lat="46.1114340" lon="10.5182130">
	<ele>2452.80</ele>
	<time>2023-08-07T06:18:37.000Z</time>
</trkpt>
<trkpt lat="46.1114390" lon="10.5182130">
	<ele>2453.00</ele>
	<time>2023-08-07T06:18:38.000Z</time>
</trkpt>
<trkpt lat="46.1114400" lon="10.5182180">
	<ele>2453.40</ele>
	<time>2023-08-07T06:18:39.000Z</time>
</trkpt>
<trkpt lat="46.1114420" lon="10.5182150">
	<ele>2453.40</ele>
	<time>2023-08-07T06:18:40.000Z</time>
</trkpt>
<trkpt lat="46.1114470" lon="10.5182150">
	<ele>2453.60</ele>
	<time>2023-08-07T06:18:41.000Z</time>
</trkpt>
<trkpt lat="46.1114510" lon="10.5182160">
	<ele>2453.60</ele>
	<time>2023-08-07T06:18:42.000Z</time>
</trkpt>
<trkpt lat="46.1114530" lon="10.5182180">
	<ele>2454.00</ele>
	<time>2023-08-07T06:18:43.000Z</time>
</trkpt>
<trkpt lat="46.1114550" lon="10.5182190">
	<ele>2454.40</ele>
	<time>2023-08-07T06:18:44.000Z</time>
</trkpt>
<trkpt lat="46.1114540" lon="10.5182180">
	<ele>2454.40</ele>
	<time>2023-08-07T06:18:45.000Z</time>
</trkpt>
<trkpt lat="46.1114560" lon="10.5182140">
	<ele>2454.60</ele>
	<time>2023-08-07T06:18:46.000Z</time>
</trkpt>
<trkpt lat="46.1114570" lon="10.5182110">
	<ele>2454.80</ele>
	<time>2023-08-07T06:18:47.000Z</time>
</trkpt>
<trkpt lat="46.1114570" lon="10.5182040">
	<ele>2455.00</ele>
	<time>2023-08-07T06:18:48.000Z</time>
</trkpt>
<trkpt lat="46.1114560" lon="10.5181970">
	<ele>2455.20</ele>
	<time>2023-08-07T06:18:49.000Z</time>
</trkpt>
<trkpt lat="46.1114570" lon="10.5181940">
	<ele>2455.40</ele>
	<time>2023-08-07T06:18:50.000Z</time>
</trkpt>
<trkpt lat="46.1114580" lon="10.5181920">
	<ele>2455.60</ele>
	<time>2023-08-07T06:18:51.000Z</time>
</trkpt>
<trkpt lat="46.1114560" lon="10.5181900">
	<ele>2455.80</ele>
	<time>2023-08-07T06:18:52.000Z</time>
</trkpt>
<trkpt lat="46.1114560" lon="10.5181910">
	<ele>2456.00</ele>
	<time>2023-08-07T06:18:53.000Z</time>
</trkpt>
<trkpt lat="46.1114580" lon="10.5181910">
	<ele>2456.00</ele>
	<time>2023-08-07T06:18:54.000Z</time>
</trkpt>
<trkpt lat="46.1114610" lon="10.5181900">
	<ele>2456.20</ele>
	<time>2023-08-07T06:18:55.000Z</time>
</trkpt>
<trkpt lat="46.1114640" lon="10.5181910">
	<ele>2456.20</ele>
	<time>2023-08-07T06:18:56.000Z</time>
</trkpt>
<trkpt lat="46.1114670" lon="10.5181920">
	<ele>2456.60</ele>
	<time>2023-08-07T06:18:57.000Z</time>
</trkpt>
<trkpt lat="46.1114710" lon="10.5181920">
	<ele>2457.00</ele>
	<time>2023-08-07T06:18:58.000Z</time>
</trkpt>
<trkpt lat="46.1114740" lon="10.5181940">
	<ele>2457.20</ele>
	<time>2023-08-07T06:18:59.000Z</time>
</trkpt>
<trkpt lat="46.1114770" lon="10.5181940">
	<ele>2457.20</ele>
	<time>2023-08-07T06:19:00.000Z</time>
</trkpt>
<trkpt lat="46.1114780" lon="10.5181930">
	<ele>2457.20</ele>
	<time>2023-08-07T06:19:01.000Z</time>
</trkpt>
<trkpt lat="46.1114790" lon="10.5181920">
	<ele>2457.40</ele>
	<time>2023-08-07T06:19:02.000Z</time>
</trkpt>
<trkpt lat="46.1114800" lon="10.5181900">
	<ele>2457.40</ele>
	<time>2023-08-07T06:19:03.000Z</time>
</trkpt>
<trkpt lat="46.1114800" lon="10.5181910">
	<ele>2457.40</ele>
	<time>2023-08-07T06:19:04.000Z</time>
</trkpt>
<trkpt lat="46.1114790" lon="10.5181890">
	<ele>2457.60</ele>
	<time>2023-08-07T06:19:05.000Z</time>
</trkpt>
<trkpt lat="46.1114790" lon="10.5181850">
	<ele>2457.80</ele>
	<time>2023-08-07T06:19:06.000Z</time>
</trkpt>
<trkpt lat="46.1114780" lon="10.5181830">
	<ele>2458.00</ele>
	<time>2023-08-07T06:19:07.000Z</time>
</trkpt>
<trkpt lat="46.1114760" lon="10.5181830">
	<ele>2458.00</ele>
	<time>2023-08-07T06:19:08.000Z</time>
</trkpt>
<trkpt lat="46.1114740" lon="10.5181810">
	<ele>2458.20</ele>
	<time>2023-08-07T06:19:09.000Z</time>
</trkpt>
<trkpt lat="46.1114710" lon="10.5181840">
	<ele>2458.20</ele>
	<time>2023-08-07T06:19:10.000Z</time>
</trkpt>
<trkpt lat="46.1114690" lon="10.5181860">
	<ele>2458.20</ele>
	<time>2023-08-07T06:19:11.000Z</time>
</trkpt>
<trkpt lat="46.1114670" lon="10.5181880">
	<ele>2458.20</ele>
	<time>2023-08-07T06:19:12.000Z</time>
</trkpt>
<trkpt lat="46.1114650" lon="10.5181860">
	<ele>2458.40</ele>
	<time>2023-08-07T06:19:13.000Z</time>
</trkpt>
<trkpt lat="46.1114660" lon="10.5181790">
	<ele>2458.40</ele>
	<time>2023-08-07T06:19:14.000Z</time>
</trkpt>
<trkpt lat="46.1114690" lon="10.5181720">
	<ele>2458.80</ele>
	<time>2023-08-07T06:19:15.000Z</time>
</trkpt>
<trkpt lat="46.1114740" lon="10.5181710">
	<ele>2458.80</ele>
	<time>2023-08-07T06:19:16.000Z</time>
</trkpt>
<trkpt lat="46.1114760" lon="10.5181720">
	<ele>2459.00</ele>
	<time>2023-08-07T06:19:17.000Z</time>
</trkpt>
<trkpt lat="46.1114780" lon="10.5181740">
	<ele>2459.20</ele>
	<time>2023-08-07T06:19:18.000Z</time>
</trkpt>
<trkpt lat="46.1114840" lon="10.5181760">
	<ele>2459.40</ele>
	<time>2023-08-07T06:19:19.000Z</time>
</trkpt>
<trkpt lat="46.1114860" lon="10.5181760">
	<ele>2459.60</ele>
	<time>2023-08-07T06:19:20.000Z</time>
</trkpt>
<trkpt lat="46.1114880" lon="10.5181770">
	<ele>2459.80</ele>
	<time>2023-08-07T06:19:21.000Z</time>
</trkpt>
<trkpt lat="46.1114900" lon="10.5181760">
	<ele>2460.00</ele>
	<time>2023-08-07T06:19:22.000Z</time>
</trkpt>
<trkpt lat="46.1114950" lon="10.5181790">
	<ele>2460.00</ele>
	<time>2023-08-07T06:19:23.000Z</time>
</trkpt>
<trkpt lat="46.1115020" lon="10.5181820">
	<ele>2460.20</ele>
	<time>2023-08-07T06:19:24.000Z</time>
</trkpt>
<trkpt lat="46.1115060" lon="10.5181840">
	<ele>2460.40</ele>
	<time>2023-08-07T06:19:25.000Z</time>
</trkpt>
<trkpt lat="46.1115090" lon="10.5181820">
	<ele>2460.40</ele>
	<time>2023-08-07T06:19:26.000Z</time>
</trkpt>
<trkpt lat="46.1115100" lon="10.5181800">
	<ele>2460.40</ele>
	<time>2023-08-07T06:19:27.000Z</time>
</trkpt>
<trkpt lat="46.1115120" lon="10.5181780">
	<ele>2460.60</ele>
	<time>2023-08-07T06:19:28.000Z</time>
</trkpt>
<trkpt lat="46.1115120" lon="10.5181710">
	<ele>2460.60</ele>
	<time>2023-08-07T06:19:29.000Z</time>
</trkpt>
<trkpt lat="46.1115140" lon="10.5181620">
	<ele>2460.80</ele>
	<time>2023-08-07T06:19:30.000Z</time>
</trkpt>
<trkpt lat="46.1115130" lon="10.5181560">
	<ele>2460.80</ele>
	<time>2023-08-07T06:19:31.000Z</time>
</trkpt>
<trkpt lat="46.1115120" lon="10.5181530">
	<ele>2461.20</ele>
	<time>2023-08-07T06:19:32.000Z</time>
</trkpt>
<trkpt lat="46.1115110" lon="10.5181520">
	<ele>2461.40</ele>
	<time>2023-08-07T06:19:33.000Z</time>
</trkpt>
<trkpt lat="46.1115090" lon="10.5181510">
	<ele>2461.40</ele>
	<time>2023-08-07T06:19:34.000Z</time>
</trkpt>
<trkpt lat="46.1115070" lon="10.5181510">
	<ele>2461.60</ele>
	<time>2023-08-07T06:19:35.000Z</time>
</trkpt>
<trkpt lat="46.1115050" lon="10.5181490">
	<ele>2461.60</ele>
	<time>2023-08-07T06:19:36.000Z</time>
</trkpt>
<trkpt lat="46.1115050" lon="10.5181430">
	<ele>2461.60</ele>
	<time>2023-08-07T06:19:37.000Z</time>
</trkpt>
<trkpt lat="46.1115060" lon="10.5181370">
	<ele>2461.60</ele>
	<time>2023-08-07T06:19:38.000Z</time>
</trkpt>
<trkpt lat="46.1115100" lon="10.5181320">
	<ele>2462.00</ele>
	<time>2023-08-07T06:19:39.000Z</time>
</trkpt>
<trkpt lat="46.1115120" lon="10.5181300">
	<ele>2462.20</ele>
	<time>2023-08-07T06:19:40.000Z</time>
</trkpt>
<trkpt lat="46.1115130" lon="10.5181260">
	<ele>2462.20</ele>
	<time>2023-08-07T06:19:41.000Z</time>
</trkpt>
<trkpt lat="46.1115150" lon="10.5181270">
	<ele>2462.40</ele>
	<time>2023-08-07T06:19:42.000Z</time>
</trkpt>
<trkpt lat="46.1115170" lon="10.5181260">
	<ele>2462.40</ele>
	<time>2023-08-07T06:19:43.000Z</time>
</trkpt>
<trkpt lat="46.1115210" lon="10.5181260">
	<ele>2462.60</ele>
	<time>2023-08-07T06:19:44.000Z</time>
</trkpt>
<trkpt lat="46.1115240" lon="10.5181260">
	<ele>2462.60</ele>
	<time>2023-08-07T06:19:45.000Z</time>
</trkpt>
<trkpt lat="46.1115270" lon="10.5181270">
	<ele>2462.60</ele>
	<time>2023-08-07T06:19:46.000Z</time>
</trkpt>
<trkpt lat="46.1115300" lon="10.5181290">
	<ele>2462.60</ele>
	<time>2023-08-07T06:19:47.000Z</time>
</trkpt>
<trkpt lat="46.1115320" lon="10.5181320">
	<ele>2462.60</ele>
	<time>2023-08-07T06:19:48.000Z</time>
</trkpt>
<trkpt lat="46.1115330" lon="10.5181350">
	<ele>2462.80</ele>
	<time>2023-08-07T06:19:49.000Z</time>
</trkpt>
<trkpt lat="46.1115350" lon="10.5181410">
	<ele>2463.00</ele>
	<time>2023-08-07T06:19:50.000Z</time>
</trkpt>
<trkpt lat="46.1115370" lon="10.5181420">
	<ele>2463.00</ele>
	<time>2023-08-07T06:19:51.000Z</time>
</trkpt>
<trkpt lat="46.1115370" lon="10.5181450">
	<ele>2463.00</ele>
	<time>2023-08-07T06:19:52.000Z</time>
</trkpt>
<trkpt lat="46.1115400" lon="10.5181470">
	<ele>2463.20</ele>
	<time>2023-08-07T06:19:53.000Z</time>
</trkpt>
<trkpt lat="46.1115420" lon="10.5181470">
	<ele>2463.20</ele>
	<time>2023-08-07T06:19:54.000Z</time>
</trkpt>
<trkpt lat="46.1115440" lon="10.5181470">
	<ele>2463.60</ele>
	<time>2023-08-07T06:19:55.000Z</time>
</trkpt>
<trkpt lat="46.1115450" lon="10.5181480">
	<ele>2463.60</ele>
	<time>2023-08-07T06:19:56.000Z</time>
</trkpt>
<trkpt lat="46.1115440" lon="10.5181490">
	<ele>2463.80</ele>
	<time>2023-08-07T06:19:57.000Z</time>
</trkpt>
<trkpt lat="46.1115440" lon="10.5181490">
	<ele>2464.00</ele>
	<time>2023-08-07T06:19:58.000Z</time>
</trkpt>
<trkpt lat="46.1115440" lon="10.5181490">
	<ele>2464.00</ele>
	<time>2023-08-07T06:19:59.000Z</time>
</trkpt>
<trkpt lat="46.1115440" lon="10.5181480">
	<ele>2464.20</ele>
	<time>2023-08-07T06:20:00.000Z</time>
</trkpt>
<trkpt lat="46.1115400" lon="10.5181490">
	<ele>2464.40</ele>
	<time>2023-08-07T06:20:01.000Z</time>
</trkpt>
<trkpt lat="46.1115390" lon="10.5181420">
	<ele>2464.40</ele>
	<time>2023-08-07T06:20:02.000Z</time>
</trkpt>
<trkpt lat="46.1115380" lon="10.5181380">
	<ele>2464.60</ele>
	<time>2023-08-07T06:20:03.000Z</time>
</trkpt>
<trkpt lat="46.1115360" lon="10.5181340">
	<ele>2464.80</ele>
	<time>2023-08-07T06:20:04.000Z</time>
</trkpt>
<trkpt lat="46.1115320" lon="10.5181320">
	<ele>2465.20</ele>
	<time>2023-08-07T06:20:05.000Z</time>
</trkpt>
<trkpt lat="46.1115290" lon="10.5181260">
	<ele>2465.20</ele>
	<time>2023-08-07T06:20:06.000Z</time>
</trkpt>
<trkpt lat="46.1115280" lon="10.5181200">
	<ele>2465.40</ele>
	<time>2023-08-07T06:20:07.000Z</time>
</trkpt>
<trkpt lat="46.1115250" lon="10.5181150">
	<ele>2465.80</ele>
	<time>2023-08-07T06:20:08.000Z</time>
</trkpt>
<trkpt lat="46.1115240" lon="10.5181090">
	<ele>2466.00</ele>
	<time>2023-08-07T06:20:09.000Z</time>
</trkpt>
<trkpt lat="46.1115230" lon="10.5181040">
	<ele>2466.20</ele>
	<time>2023-08-07T06:20:10.000Z</time>
</trkpt>
<trkpt lat="46.1115230" lon="10.5180950">
	<ele>2466.40</ele>
	<time>2023-08-07T06:20:11.000Z</time>
</trkpt>
<trkpt lat="46.1115240" lon="10.5180870">
	<ele>2466.60</ele>
	<time>2023-08-07T06:20:12.000Z</time>
</trkpt>
<trkpt lat="46.1115260" lon="10.5180830">
	<ele>2466.60</ele>
	<time>2023-08-07T06:20:13.000Z</time>
</trkpt>
<trkpt lat="46.1115280" lon="10.5180800">
	<ele>2467.00</ele>
	<time>2023-08-07T06:20:14.000Z</time>
</trkpt>
<trkpt lat="46.1115250" lon="10.5180740">
	<ele>2467.20</ele>
	<time>2023-08-07T06:20:15.000Z</time>
</trkpt>
<trkpt lat="46.1115250" lon="10.5180740">
	<ele>2467.20</ele>
	<time>2023-08-07T06:20:16.000Z</time>
</trkpt>
<trkpt lat="46.1115270" lon="10.5180720">
	<ele>2467.20</ele>
	<time>2023-08-07T06:20:17.000Z</time>
</trkpt>
<trkpt lat="46.1115280" lon="10.5180670">
	<ele>2467.40</ele>
	<time>2023-08-07T06:20:18.000Z</time>
</trkpt>
<trkpt lat="46.1115290" lon="10.5180610">
	<ele>2467.60</ele>
	<time>2023-08-07T06:20:19.000Z</time>
</trkpt>
<trkpt lat="46.1115290" lon="10.5180560">
	<ele>2467.80</ele>
	<time>2023-08-07T06:20:20.000Z</time>
</trkpt>
<trkpt lat="46.1115280" lon="10.5180540">
	<ele>2468.00</ele>
	<time>2023-08-07T06:20:21.000Z</time>
</trkpt>
<trkpt lat="46.1115280" lon="10.5180530">
	<ele>2468.20</ele>
	<time>2023-08-07T06:20:22.000Z</time>
</trkpt>
<trkpt lat="46.1115350" lon="10.5180520">
	<ele>2468.20</ele>
	<time>2023-08-07T06:20:23.000Z</time>
</trkpt>
<trkpt lat="46.1115370" lon="10.5180460">
	<ele>2468.20</ele>
	<time>2023-08-07T06:20:24.000Z</time>
</trkpt>
<trkpt lat="46.1115380" lon="10.5180400">
	<ele>2468.40</ele>
	<time>2023-08-07T06:20:25.000Z</time>
</trkpt>
<trkpt lat="46.1115390" lon="10.5180340">
	<ele>2468.40</ele>
	<time>2023-08-07T06:20:26.000Z</time>
</trkpt>
<trkpt lat="46.1115380" lon="10.5180310">
	<ele>2468.60</ele>
	<time>2023-08-07T06:20:27.000Z</time>
</trkpt>
<trkpt lat="46.1115400" lon="10.5180310">
	<ele>2468.60</ele>
	<time>2023-08-07T06:20:28.000Z</time>
</trkpt>
<trkpt lat="46.1115440" lon="10.5180330">
	<ele>2468.80</ele>
	<time>2023-08-07T06:20:29.000Z</time>
</trkpt>
<trkpt lat="46.1115470" lon="10.5180380">
	<ele>2468.80</ele>
	<time>2023-08-07T06:20:30.000Z</time>
</trkpt>
<trkpt lat="46.1115490" lon="10.5180380">
	<ele>2469.00</ele>
	<time>2023-08-07T06:20:31.000Z</time>
</trkpt>
<trkpt lat="46.1115500" lon="10.5180430">
	<ele>2469.00</ele>
	<time>2023-08-07T06:20:32.000Z</time>
</trkpt>
<trkpt lat="46.1115510" lon="10.5180520">
	<ele>2469.20</ele>
	<time>2023-08-07T06:20:33.000Z</time>
</trkpt>
<trkpt lat="46.1115560" lon="10.5180610">
	<ele>2469.40</ele>
	<time>2023-08-07T06:20:34.000Z</time>
</trkpt>
<trkpt lat="46.1115570" lon="10.5180680">
	<ele>2469.60</ele>
	<time>2023-08-07T06:20:35.000Z</time>
</trkpt>
<trkpt lat="46.1115590" lon="10.5180710">
	<ele>2469.60</ele>
	<time>2023-08-07T06:20:36.000Z</time>
</trkpt>
<trkpt lat="46.1115660" lon="10.5180750">
	<ele>2469.80</ele>
	<time>2023-08-07T06:20:37.000Z</time>
</trkpt>
<trkpt lat="46.1115680" lon="10.5180750">
	<ele>2470.00</ele>
	<time>2023-08-07T06:20:38.000Z</time>
</trkpt>
<trkpt lat="46.1115710" lon="10.5180780">
	<ele>2470.00</ele>
	<time>2023-08-07T06:20:39.000Z</time>
</trkpt>
<trkpt lat="46.1115740" lon="10.5180800">
	<ele>2470.00</ele>
	<time>2023-08-07T06:20:40.000Z</time>
</trkpt>
<trkpt lat="46.1115760" lon="10.5180830">
	<ele>2470.20</ele>
	<time>2023-08-07T06:20:41.000Z</time>
</trkpt>
<trkpt lat="46.1115770" lon="10.5180820">
	<ele>2470.20</ele>
	<time>2023-08-07T06:20:42.000Z</time>
</trkpt>
<trkpt lat="46.1115800" lon="10.5180810">
	<ele>2470.40</ele>
	<time>2023-08-07T06:20:43.000Z</time>
</trkpt>
<trkpt lat="46.1115880" lon="10.5180810">
	<ele>2470.40</ele>
	<time>2023-08-07T06:20:44.000Z</time>
</trkpt>
<trkpt lat="46.1115940" lon="10.5180800">
	<ele>2470.60</ele>
	<time>2023-08-07T06:20:45.000Z</time>
</trkpt>
<trkpt lat="46.1115980" lon="10.5180840">
	<ele>2470.80</ele>
	<time>2023-08-07T06:20:46.000Z</time>
</trkpt>
<trkpt lat="46.1116010" lon="10.5180880">
	<ele>2470.80</ele>
	<time>2023-08-07T06:20:47.000Z</time>
</trkpt>
<trkpt lat="46.1116020" lon="10.5180880">
	<ele>2471.00</ele>
	<time>2023-08-07T06:20:48.000Z</time>
</trkpt>
<trkpt lat="46.1116040" lon="10.5180870">
	<ele>2471.00</ele>
	<time>2023-08-07T06:20:49.000Z</time>
</trkpt>
<trkpt lat="46.1116070" lon="10.5180840">
	<ele>2471.00</ele>
	<time>2023-08-07T06:20:50.000Z</time>
</trkpt>
<trkpt lat="46.1116080" lon="10.5180810">
	<ele>2471.20</ele>
	<time>2023-08-07T06:20:51.000Z</time>
</trkpt>
<trkpt lat="46.1116090" lon="10.5180770">
	<ele>2471.40</ele>
	<time>2023-08-07T06:20:52.000Z</time>
</trkpt>
<trkpt lat="46.1116080" lon="10.5180750">
	<ele>2471.60</ele>
	<time>2023-08-07T06:20:53.000Z</time>
</trkpt>
<trkpt lat="46.1116080" lon="10.5180720">
	<ele>2471.60</ele>
	<time>2023-08-07T06:20:54.000Z</time>
</trkpt>
<trkpt lat="46.1116120" lon="10.5180680">
	<ele>2471.80</ele>
	<time>2023-08-07T06:20:55.000Z</time>
</trkpt>
<trkpt lat="46.1116170" lon="10.5180650">
	<ele>2471.80</ele>
	<time>2023-08-07T06:20:56.000Z</time>
</trkpt>
<trkpt lat="46.1116170" lon="10.5180640">
	<ele>2472.00</ele>
	<time>2023-08-07T06:20:57.000Z</time>
</trkpt>
<trkpt lat="46.1116150" lon="10.5180640">
	<ele>2472.00</ele>
	<time>2023-08-07T06:20:58.000Z</time>
</trkpt>
<trkpt lat="46.1116140" lon="10.5180660">
	<ele>2472.00</ele>
	<time>2023-08-07T06:20:59.000Z</time>
</trkpt>
<trkpt lat="46.1116170" lon="10.5180670">
	<ele>2472.00</ele>
	<time>2023-08-07T06:21:00.000Z</time>
</trkpt>
<trkpt lat="46.1116180" lon="10.5180650">
	<ele>2472.20</ele>
	<time>2023-08-07T06:21:01.000Z</time>
</trkpt>
<trkpt lat="46.1116180" lon="10.5180610">
	<ele>2472.20</ele>
	<time>2023-08-07T06:21:02.000Z</time>
</trkpt>
<trkpt lat="46.1116230" lon="10.5180570">
	<ele>2472.20</ele>
	<time>2023-08-07T06:21:03.000Z</time>
</trkpt>
<trkpt lat="46.1116250" lon="10.5180520">
	<ele>2472.20</ele>
	<time>2023-08-07T06:21:04.000Z</time>
</trkpt>
<trkpt lat="46.1116240" lon="10.5180470">
	<ele>2472.20</ele>
	<time>2023-08-07T06:21:05.000Z</time>
</trkpt>
<trkpt lat="46.1116210" lon="10.5180410">
	<ele>2472.40</ele>
	<time>2023-08-07T06:21:06.000Z</time>
</trkpt>
<trkpt lat="46.1116180" lon="10.5180370">
	<ele>2472.40</ele>
	<time>2023-08-07T06:21:07.000Z</time>
</trkpt>
<trkpt lat="46.1116170" lon="10.5180360">
	<ele>2472.40</ele>
	<time>2023-08-07T06:21:08.000Z</time>
</trkpt>
<trkpt lat="46.1116170" lon="10.5180360">
	<ele>2472.80</ele>
	<time>2023-08-07T06:21:09.000Z</time>
</trkpt>
<trkpt lat="46.1116170" lon="10.5180360">
	<ele>2473.00</ele>
	<time>2023-08-07T06:21:10.000Z</time>
</trkpt>
<trkpt lat="46.1116170" lon="10.5180360">
	<ele>2473.20</ele>
	<time>2023-08-07T06:21:11.000Z</time>
</trkpt>
<trkpt lat="46.1116170" lon="10.5180360">
	<ele>2473.40</ele>
	<time>2023-08-07T06:21:12.000Z</time>
</trkpt>
<trkpt lat="46.1116170" lon="10.5180360">
	<ele>2473.40</ele>
	<time>2023-08-07T06:21:13.000Z</time>
</trkpt>
<trkpt lat="46.1116170" lon="10.5180360">
	<ele>2473.40</ele>
	<time>2023-08-07T06:21:14.000Z</time>
</trkpt>
<trkpt lat="46.1116170" lon="10.5180360">
	<ele>2473.60</ele>
	<time>2023-08-07T06:21:15.000Z</time>
</trkpt>
<trkpt lat="46.1116170" lon="10.5180360">
	<ele>2473.80</ele>
	<time>2023-08-07T06:21:16.000Z</time>
</trkpt>
<trkpt lat="46.1116170" lon="10.5180360">
	<ele>2474.00</ele>
	<time>2023-08-07T06:21:17.000Z</time>
</trkpt>
<trkpt lat="46.1116170" lon="10.5180360">
	<ele>2474.20</ele>
	<time>2023-08-07T06:21:18.000Z</time>
</trkpt>
<trkpt lat="46.1116180" lon="10.5180360">
	<ele>2474.20</ele>
	<time>2023-08-07T06:21:19.000Z</time>
</trkpt>
<trkpt lat="46.1116180" lon="10.5180360">
	<ele>2474.40</ele>
	<time>2023-08-07T06:21:20.000Z</time>
</trkpt>
<trkpt lat="46.1116180" lon="10.5180360">
	<ele>2474.40</ele>
	<time>2023-08-07T06:21:21.000Z</time>
</trkpt>
<trkpt lat="46.1116180" lon="10.5180360">
	<ele>2474.40</ele>
	<time>2023-08-07T06:21:22.000Z</time>
</trkpt>
<trkpt lat="46.1116190" lon="10.5180360">
	<ele>2474.40</ele>
	<time>2023-08-07T06:21:23.000Z</time>
</trkpt>
<trkpt lat="46.1116210" lon="10.5180310">
	<ele>2474.40</ele>
	<time>2023-08-07T06:21:24.000Z</time>
</trkpt>
<trkpt lat="46.1116210" lon="10.5180240">
	<ele>2474.60</ele>
	<time>2023-08-07T06:21:25.000Z</time>
</trkpt>
<trkpt lat="46.1116220" lon="10.5180150">
	<ele>2474.60</ele>
	<time>2023-08-07T06:21:26.000Z</time>
</trkpt>
<trkpt lat="46.1116240" lon="10.5180130">
	<ele>2474.60</ele>
	<time>2023-08-07T06:21:27.000Z</time>
</trkpt>
<trkpt lat="46.1116240" lon="10.5180090">
	<ele>2474.60</ele>
	<time>2023-08-07T06:21:28.000Z</time>
</trkpt>
<trkpt lat="46.1116250" lon="10.5180080">
	<ele>2474.80</ele>
	<time>2023-08-07T06:21:29.000Z</time>
</trkpt>
<trkpt lat="46.1116270" lon="10.5180070">
	<ele>2475.00</ele>
	<time>2023-08-07T06:21:30.000Z</time>
</trkpt>
<trkpt lat="46.1116330" lon="10.5180060">
	<ele>2475.20</ele>
	<time>2023-08-07T06:21:31.000Z</time>
</trkpt>
<trkpt lat="46.1116380" lon="10.5180040">
	<ele>2475.40</ele>
	<time>2023-08-07T06:21:32.000Z</time>
</trkpt>
<trkpt lat="46.1116420" lon="10.5180040">
	<ele>2475.40</ele>
	<time>2023-08-07T06:21:33.000Z</time>
</trkpt>
<trkpt lat="46.1116430" lon="10.5180030">
	<ele>2475.40</ele>
	<time>2023-08-07T06:21:34.000Z</time>
</trkpt>
<trkpt lat="46.1116480" lon="10.5180030">
	<ele>2475.60</ele>
	<time>2023-08-07T06:21:35.000Z</time>
</trkpt>
<trkpt lat="46.1116520" lon="10.5180020">
	<ele>2475.80</ele>
	<time>2023-08-07T06:21:36.000Z</time>
</trkpt>
<trkpt lat="46.1116560" lon="10.5180020">
	<ele>2475.80</ele>
	<time>2023-08-07T06:21:37.000Z</time>
</trkpt>
<trkpt lat="46.1116620" lon="10.5180010">
	<ele>2476.00</ele>
	<time>2023-08-07T06:21:38.000Z</time>
</trkpt>
<trkpt lat="46.1116660" lon="10.5180010">
	<ele>2476.00</ele>
	<time>2023-08-07T06:21:39.000Z</time>
</trkpt>
<trkpt lat="46.1116710" lon="10.5179990">
	<ele>2476.00</ele>
	<time>2023-08-07T06:21:40.000Z</time>
</trkpt>
<trkpt lat="46.1116770" lon="10.5179980">
	<ele>2476.20</ele>
	<time>2023-08-07T06:21:41.000Z</time>
</trkpt>
<trkpt lat="46.1116840" lon="10.5180040">
	<ele>2476.20</ele>
	<time>2023-08-07T06:21:42.000Z</time>
</trkpt>
<trkpt lat="46.1116910" lon="10.5180100">
	<ele>2476.40</ele>
	<time>2023-08-07T06:21:43.000Z</time>
</trkpt>
<trkpt lat="46.1116960" lon="10.5180170">
	<ele>2476.40</ele>
	<time>2023-08-07T06:21:44.000Z</time>
</trkpt>
<trkpt lat="46.1117030" lon="10.5180210">
	<ele>2476.60</ele>
	<time>2023-08-07T06:21:45.000Z</time>
</trkpt>
<trkpt lat="46.1117110" lon="10.5180270">
	<ele>2476.80</ele>
	<time>2023-08-07T06:21:46.000Z</time>
</trkpt>
<trkpt lat="46.1117150" lon="10.5180360">
	<ele>2476.80</ele>
	<time>2023-08-07T06:21:47.000Z</time>
</trkpt>
<trkpt lat="46.1117200" lon="10.5180410">
	<ele>2477.00</ele>
	<time>2023-08-07T06:21:48.000Z</time>
</trkpt>
<trkpt lat="46.1117250" lon="10.5180450">
	<ele>2477.20</ele>
	<time>2023-08-07T06:21:49.000Z</time>
</trkpt>
<trkpt lat="46.1117290" lon="10.5180470">
	<ele>2477.20</ele>
	<time>2023-08-07T06:21:50.000Z</time>
</trkpt>
<trkpt lat="46.1117310" lon="10.5180490">
	<ele>2477.20</ele>
	<time>2023-08-07T06:21:51.000Z</time>
</trkpt>
<trkpt lat="46.1117340" lon="10.5180510">
	<ele>2477.40</ele>
	<time>2023-08-07T06:21:52.000Z</time>
</trkpt>
<trkpt lat="46.1117380" lon="10.5180540">
	<ele>2477.40</ele>
	<time>2023-08-07T06:21:53.000Z</time>
</trkpt>
<trkpt lat="46.1117400" lon="10.5180550">
	<ele>2477.60</ele>
	<time>2023-08-07T06:21:54.000Z</time>
</trkpt>
<trkpt lat="46.1117430" lon="10.5180570">
	<ele>2477.80</ele>
	<time>2023-08-07T06:21:55.000Z</time>
</trkpt>
<trkpt lat="46.1117450" lon="10.5180570">
	<ele>2478.00</ele>
	<time>2023-08-07T06:21:56.000Z</time>
</trkpt>
<trkpt lat="46.1117490" lon="10.5180590">
	<ele>2478.20</ele>
	<time>2023-08-07T06:21:57.000Z</time>
</trkpt>
<trkpt lat="46.1117530" lon="10.5180650">
	<ele>2478.20</ele>
	<time>2023-08-07T06:21:58.000Z</time>
</trkpt>
<trkpt lat="46.1117520" lon="10.5180720">
	<ele>2478.40</ele>
	<time>2023-08-07T06:21:59.000Z</time>
</trkpt>
<trkpt lat="46.1117530" lon="10.5180750">
	<ele>2478.40</ele>
	<time>2023-08-07T06:22:00.000Z</time>
</trkpt>
<trkpt lat="46.1117540" lon="10.5180800">
	<ele>2478.60</ele>
	<time>2023-08-07T06:22:01.000Z</time>
</trkpt>
<trkpt lat="46.1117550" lon="10.5180860">
	<ele>2478.80</ele>
	<time>2023-08-07T06:22:02.000Z</time>
</trkpt>
<trkpt lat="46.1117580" lon="10.5180910">
	<ele>2479.00</ele>
	<time>2023-08-07T06:22:03.000Z</time>
</trkpt>
<trkpt lat="46.1117620" lon="10.5180980">
	<ele>2479.00</ele>
	<time>2023-08-07T06:22:04.000Z</time>
</trkpt>
<trkpt lat="46.1117620" lon="10.5181060">
	<ele>2479.20</ele>
	<time>2023-08-07T06:22:05.000Z</time>
</trkpt>
<trkpt lat="46.1117650" lon="10.5181090">
	<ele>2479.20</ele>
	<time>2023-08-07T06:22:06.000Z</time>
</trkpt>
<trkpt lat="46.1117650" lon="10.5181080">
	<ele>2479.20</ele>
	<time>2023-08-07T06:22:07.000Z</time>
</trkpt>
<trkpt lat="46.1117660" lon="10.5181120">
	<ele>2479.40</ele>
	<time>2023-08-07T06:22:08.000Z</time>
</trkpt>
<trkpt lat="46.1117680" lon="10.5181180">
	<ele>2479.40</ele>
	<time>2023-08-07T06:22:09.000Z</time>
</trkpt>
<trkpt lat="46.1117680" lon="10.5181200">
	<ele>2479.60</ele>
	<time>2023-08-07T06:22:10.000Z</time>
</trkpt>
<trkpt lat="46.1117670" lon="10.5181230">
	<ele>2479.80</ele>
	<time>2023-08-07T06:22:11.000Z</time>
</trkpt>
<trkpt lat="46.1117680" lon="10.5181220">
	<ele>2479.80</ele>
	<time>2023-08-07T06:22:12.000Z</time>
</trkpt>
<trkpt lat="46.1117680" lon="10.5181200">
	<ele>2479.80</ele>
	<time>2023-08-07T06:22:13.000Z</time>
</trkpt>
<trkpt lat="46.1117680" lon="10.5181160">
	<ele>2480.00</ele>
	<time>2023-08-07T06:22:14.000Z</time>
</trkpt>
<trkpt lat="46.1117720" lon="10.5181100">
	<ele>2480.20</ele>
	<time>2023-08-07T06:22:15.000Z</time>
</trkpt>
<trkpt lat="46.1117730" lon="10.5181060">
	<ele>2480.20</ele>
	<time>2023-08-07T06:22:16.000Z</time>
</trkpt>
<trkpt lat="46.1117750" lon="10.5181050">
	<ele>2480.40</ele>
	<time>2023-08-07T06:22:17.000Z</time>
</trkpt>
<trkpt lat="46.1117770" lon="10.5181040">
	<ele>2480.40</ele>
	<time>2023-08-07T06:22:18.000Z</time>
</trkpt>
<trkpt lat="46.1117800" lon="10.5181020">
	<ele>2480.60</ele>
	<time>2023-08-07T06:22:19.000Z</time>
</trkpt>
<trkpt lat="46.1117830" lon="10.5181020">
	<ele>2480.80</ele>
	<time>2023-08-07T06:22:20.000Z</time>
</trkpt>
<trkpt lat="46.1117900" lon="10.5181000">
	<ele>2481.00</ele>
	<time>2023-08-07T06:22:21.000Z</time>
</trkpt>
<trkpt lat="46.1117960" lon="10.5181060">
	<ele>2481.20</ele>
	<time>2023-08-07T06:22:22.000Z</time>
</trkpt>
<trkpt lat="46.1118010" lon="10.5181110">
	<ele>2481.20</ele>
	<time>2023-08-07T06:22:23.000Z</time>
</trkpt>
<trkpt lat="46.1118030" lon="10.5181130">
	<ele>2481.40</ele>
	<time>2023-08-07T06:22:24.000Z</time>
</trkpt>
<trkpt lat="46.1118040" lon="10.5181120">
	<ele>2481.60</ele>
	<time>2023-08-07T06:22:25.000Z</time>
</trkpt>
<trkpt lat="46.1118060" lon="10.5181110">
	<ele>2481.60</ele>
	<time>2023-08-07T06:22:26.000Z</time>
</trkpt>
<trkpt lat="46.1118090" lon="10.5181120">
	<ele>2481.80</ele>
	<time>2023-08-07T06:22:27.000Z</time>
</trkpt>
<trkpt lat="46.1118090" lon="10.5181140">
	<ele>2481.80</ele>
	<time>2023-08-07T06:22:28.000Z</time>
</trkpt>
<trkpt lat="46.1118080" lon="10.5181150">
	<ele>2482.00</ele>
	<time>2023-08-07T06:22:29.000Z</time>
</trkpt>
<trkpt lat="46.1118110" lon="10.5181150">
	<ele>2482.00</ele>
	<time>2023-08-07T06:22:30.000Z</time>
</trkpt>
<trkpt lat="46.1118170" lon="10.5181190">
	<ele>2482.00</ele>
	<time>2023-08-07T06:22:31.000Z</time>
</trkpt>
<trkpt lat="46.1118220" lon="10.5181240">
	<ele>2482.20</ele>
	<time>2023-08-07T06:22:32.000Z</time>
</trkpt>
<trkpt lat="46.1118240" lon="10.5181290">
	<ele>2482.60</ele>
	<time>2023-08-07T06:22:33.000Z</time>
</trkpt>
<trkpt lat="46.1118240" lon="10.5181320">
	<ele>2482.80</ele>
	<time>2023-08-07T06:22:34.000Z</time>
</trkpt>
<trkpt lat="46.1118260" lon="10.5181350">
	<ele>2483.00</ele>
	<time>2023-08-07T06:22:35.000Z</time>
</trkpt>
<trkpt lat="46.1118290" lon="10.5181420">
	<ele>2483.20</ele>
	<time>2023-08-07T06:22:36.000Z</time>
</trkpt>
<trkpt lat="46.1118310" lon="10.5181480">
	<ele>2483.40</ele>
	<time>2023-08-07T06:22:37.000Z</time>
</trkpt>
<trkpt lat="46.1118320" lon="10.5181530">
	<ele>2483.80</ele>
	<time>2023-08-07T06:22:38.000Z</time>
</trkpt>
<trkpt lat="46.1118330" lon="10.5181560">
	<ele>2484.00</ele>
	<time>2023-08-07T06:22:39.000Z</time>
</trkpt>
<trkpt lat="46.1118350" lon="10.5181590">
	<ele>2484.20</ele>
	<time>2023-08-07T06:22:40.000Z</time>
</trkpt>
<trkpt lat="46.1118400" lon="10.5181650">
	<ele>2484.40</ele>
	<time>2023-08-07T06:22:41.000Z</time>
</trkpt>
<trkpt lat="46.1118440" lon="10.5181720">
	<ele>2484.60</ele>
	<time>2023-08-07T06:22:42.000Z</time>
</trkpt>
<trkpt lat="46.1118480" lon="10.5181810">
	<ele>2484.60</ele>
	<time>2023-08-07T06:22:43.000Z</time>
</trkpt>
<trkpt lat="46.1118510" lon="10.5181860">
	<ele>2484.80</ele>
	<time>2023-08-07T06:22:44.000Z</time>
</trkpt>
<trkpt lat="46.1118510" lon="10.5181890">
	<ele>2484.80</ele>
	<time>2023-08-07T06:22:45.000Z</time>
</trkpt>
<trkpt lat="46.1118500" lon="10.5181930">
	<ele>2484.80</ele>
	<time>2023-08-07T06:22:46.000Z</time>
</trkpt>
<trkpt lat="46.1118530" lon="10.5181980">
	<ele>2485.00</ele>
	<time>2023-08-07T06:22:47.000Z</time>
</trkpt>
<trkpt lat="46.1118570" lon="10.5182030">
	<ele>2485.00</ele>
	<time>2023-08-07T06:22:48.000Z</time>
</trkpt>
<trkpt lat="46.1118600" lon="10.5182060">
	<ele>2485.60</ele>
	<time>2023-08-07T06:22:49.000Z</time>
</trkpt>
<trkpt lat="46.1118640" lon="10.5182090">
	<ele>2485.80</ele>
	<time>2023-08-07T06:22:50.000Z</time>
</trkpt>
<trkpt lat="46.1118660" lon="10.5182100">
	<ele>2486.20</ele>
	<time>2023-08-07T06:22:51.000Z</time>
</trkpt>
<trkpt lat="46.1118670" lon="10.5182140">
	<ele>2486.20</ele>
	<time>2023-08-07T06:22:52.000Z</time>
</trkpt>
<trkpt lat="46.1118690" lon="10.5182200">
	<ele>2486.40</ele>
	<time>2023-08-07T06:22:53.000Z</time>
</trkpt>
<trkpt lat="46.1118700" lon="10.5182250">
	<ele>2486.40</ele>
	<time>2023-08-07T06:22:54.000Z</time>
</trkpt>
<trkpt lat="46.1118710" lon="10.5182300">
	<ele>2486.20</ele>
	<time>2023-08-07T06:22:55.000Z</time>
</trkpt>
<trkpt lat="46.1118750" lon="10.5182350">
	<ele>2485.80</ele>
	<time>2023-08-07T06:22:56.000Z</time>
</trkpt>
<trkpt lat="46.1118740" lon="10.5182440">
	<ele>2485.80</ele>
	<time>2023-08-07T06:22:57.000Z</time>
</trkpt>
<trkpt lat="46.1118710" lon="10.5182510">
	<ele>2485.60</ele>
	<time>2023-08-07T06:22:58.000Z</time>
</trkpt>
<trkpt lat="46.1118720" lon="10.5182530">
	<ele>2485.60</ele>
	<time>2023-08-07T06:22:59.000Z</time>
</trkpt>
<trkpt lat="46.1118720" lon="10.5182560">
	<ele>2485.60</ele>
	<time>2023-08-07T06:23:00.000Z</time>
</trkpt>
<trkpt lat="46.1118710" lon="10.5182570">
	<ele>2485.60</ele>
	<time>2023-08-07T06:23:01.000Z</time>
</trkpt>
<trkpt lat="46.1118700" lon="10.5182590">
	<ele>2485.60</ele>
	<time>2023-08-07T06:23:02.000Z</time>
</trkpt>
<trkpt lat="46.1118710" lon="10.5182620">
	<ele>2485.60</ele>
	<time>2023-08-07T06:23:03.000Z</time>
</trkpt>
<trkpt lat="46.1118700" lon="10.5182640">
	<ele>2485.60</ele>
	<time>2023-08-07T06:23:04.000Z</time>
</trkpt>
<trkpt lat="46.1118710" lon="10.5182660">
	<ele>2485.60</ele>
	<time>2023-08-07T06:23:05.000Z</time>
</trkpt>
<trkpt lat="46.1118710" lon="10.5182680">
	<ele>2485.60</ele>
	<time>2023-08-07T06:23:06.000Z</time>
</trkpt>
<trkpt lat="46.1118730" lon="10.5182740">
	<ele>2485.60</ele>
	<time>2023-08-07T06:23:07.000Z</time>
</trkpt>
<trkpt lat="46.1118750" lon="10.5182800">
	<ele>2485.80</ele>
	<time>2023-08-07T06:23:08.000Z</time>
</trkpt>
<trkpt lat="46.1118770" lon="10.5182840">
	<ele>2485.80</ele>
	<time>2023-08-07T06:23:09.000Z</time>
</trkpt>
<trkpt lat="46.1118730" lon="10.5182910">
	<ele>2486.00</ele>
	<time>2023-08-07T06:23:10.000Z</time>
</trkpt>
<trkpt lat="46.1118700" lon="10.5182950">
	<ele>2486.00</ele>
	<time>2023-08-07T06:23:11.000Z</time>
</trkpt>
<trkpt lat="46.1118700" lon="10.5182960">
	<ele>2486.00</ele>
	<time>2023-08-07T06:23:12.000Z</time>
</trkpt>
<trkpt lat="46.1118700" lon="10.5182950">
	<ele>2486.20</ele>
	<time>2023-08-07T06:23:13.000Z</time>
</trkpt>
<trkpt lat="46.1118710" lon="10.5182920">
	<ele>2486.20</ele>
	<time>2023-08-07T06:23:14.000Z</time>
</trkpt>
<trkpt lat="46.1118710" lon="10.5182920">
	<ele>2486.20</ele>
	<time>2023-08-07T06:23:15.000Z</time>
</trkpt>
<trkpt lat="46.1118710" lon="10.5182910">
	<ele>2486.20</ele>
	<time>2023-08-07T06:23:16.000Z</time>
</trkpt>
<trkpt lat="46.1118700" lon="10.5182920">
	<ele>2486.40</ele>
	<time>2023-08-07T06:23:17.000Z</time>
</trkpt>
<trkpt lat="46.1118700" lon="10.5182930">
	<ele>2486.40</ele>
	<time>2023-08-07T06:23:18.000Z</time>
</trkpt>
<trkpt lat="46.1118700" lon="10.5182930">
	<ele>2486.60</ele>
	<time>2023-08-07T06:23:19.000Z</time>
</trkpt>
<trkpt lat="46.1118700" lon="10.5182930">
	<ele>2486.60</ele>
	<time>2023-08-07T06:23:20.000Z</time>
</trkpt>
<trkpt lat="46.1118700" lon="10.5182930">
	<ele>2486.60</ele>
	<time>2023-08-07T06:23:21.000Z</time>
</trkpt>
<trkpt lat="46.1118700" lon="10.5182930">
	<ele>2486.60</ele>
	<time>2023-08-07T06:23:22.000Z</time>
</trkpt>
<trkpt lat="46.1118700" lon="10.5182930">
	<ele>2486.60</ele>
	<time>2023-08-07T06:23:23.000Z</time>
</trkpt>
<trkpt lat="46.1118700" lon="10.5182930">
	<ele>2486.60</ele>
	<time>2023-08-07T06:23:24.000Z</time>
</trkpt>
<trkpt lat="46.1118700" lon="10.5182930">
	<ele>2486.40</ele>
	<time>2023-08-07T06:23:25.000Z</time>
</trkpt>
<trkpt lat="46.1118700" lon="10.5182930">
	<ele>2486.40</ele>
	<time>2023-08-07T06:23:26.000Z</time>
</trkpt>
<trkpt lat="46.1118700" lon="10.5182930">
	<ele>2486.40</ele>
	<time>2023-08-07T06:23:27.000Z</time>
</trkpt>
<trkpt lat="46.1118700" lon="10.5182930">
	<ele>2486.40</ele>
	<time>2023-08-07T06:23:28.000Z</time>
</trkpt>
<trkpt lat="46.1118700" lon="10.5182920">
	<ele>2486.60</ele>
	<time>2023-08-07T06:23:29.000Z</time>
</trkpt>
<trkpt lat="46.1118700" lon="10.5182920">
	<ele>2486.60</ele>
	<time>2023-08-07T06:23:30.000Z</time>
</trkpt>
<trkpt lat="46.1118700" lon="10.5182920">
	<ele>2486.60</ele>
	<time>2023-08-07T06:23:31.000Z</time>
</trkpt>
<trkpt lat="46.1118700" lon="10.5182920">
	<ele>2486.60</ele>
	<time>2023-08-07T06:23:32.000Z</time>
</trkpt>
<trkpt lat="46.1118700" lon="10.5182910">
	<ele>2486.60</ele>
	<time>2023-08-07T06:23:33.000Z</time>
</trkpt>
<trkpt lat="46.1118700" lon="10.5182910">
	<ele>2486.60</ele>
	<time>2023-08-07T06:23:34.000Z</time>
</trkpt>
<trkpt lat="46.1118700" lon="10.5182910">
	<ele>2486.60</ele>
	<time>2023-08-07T06:23:35.000Z</time>
</trkpt>
<trkpt lat="46.1118700" lon="10.5182900">
	<ele>2486.60</ele>
	<time>2023-08-07T06:23:36.000Z</time>
</trkpt>
<trkpt lat="46.1118700" lon="10.5182900">
	<ele>2486.60</ele>
	<time>2023-08-07T06:23:37.000Z</time>
</trkpt>
<trkpt lat="46.1118700" lon="10.5182890">
	<ele>2486.80</ele>
	<time>2023-08-07T06:23:38.000Z</time>
</trkpt>
<trkpt lat="46.1118710" lon="10.5182880">
	<ele>2486.80</ele>
	<time>2023-08-07T06:23:39.000Z</time>
</trkpt>
<trkpt lat="46.1118710" lon="10.5182860">
	<ele>2486.80</ele>
	<time>2023-08-07T06:23:40.000Z</time>
</trkpt>
<trkpt lat="46.1118710" lon="10.5182830">
	<ele>2486.80</ele>
	<time>2023-08-07T06:23:41.000Z</time>
</trkpt>
<trkpt lat="46.1118710" lon="10.5182820">
	<ele>2486.80</ele>
	<time>2023-08-07T06:23:42.000Z</time>
</trkpt>
<trkpt lat="46.1118710" lon="10.5182820">
	<ele>2487.00</ele>
	<time>2023-08-07T06:23:43.000Z</time>
</trkpt>
<trkpt lat="46.1118710" lon="10.5182810">
	<ele>2487.20</ele>
	<time>2023-08-07T06:23:44.000Z</time>
</trkpt>
<trkpt lat="46.1118710" lon="10.5182800">
	<ele>2487.20</ele>
	<time>2023-08-07T06:23:45.000Z</time>
</trkpt>
<trkpt lat="46.1118730" lon="10.5182800">
	<ele>2487.60</ele>
	<time>2023-08-07T06:23:46.000Z</time>
</trkpt>
<trkpt lat="46.1118760" lon="10.5182830">
	<ele>2487.80</ele>
	<time>2023-08-07T06:23:47.000Z</time>
</trkpt>
<trkpt lat="46.1118810" lon="10.5182840">
	<ele>2488.00</ele>
	<time>2023-08-07T06:23:48.000Z</time>
</trkpt>
<trkpt lat="46.1118860" lon="10.5182910">
	<ele>2488.00</ele>
	<time>2023-08-07T06:23:49.000Z</time>
</trkpt>
<trkpt lat="46.1118900" lon="10.5182930">
	<ele>2488.00</ele>
	<time>2023-08-07T06:23:50.000Z</time>
</trkpt>
<trkpt lat="46.1118950" lon="10.5182940">
	<ele>2488.20</ele>
	<time>2023-08-07T06:23:51.000Z</time>
</trkpt>
<trkpt lat="46.1118990" lon="10.5182930">
	<ele>2488.20</ele>
	<time>2023-08-07T06:23:52.000Z</time>
</trkpt>
<trkpt lat="46.1119030" lon="10.5182910">
	<ele>2488.20</ele>
	<time>2023-08-07T06:23:53.000Z</time>
</trkpt>
<trkpt lat="46.1119060" lon="10.5182900">
	<ele>2488.20</ele>
	<time>2023-08-07T06:23:54.000Z</time>
</trkpt>
<trkpt lat="46.1119080" lon="10.5182890">
	<ele>2488.20</ele>
	<time>2023-08-07T06:23:55.000Z</time>
</trkpt>
<trkpt lat="46.1119070" lon="10.5182920">
	<ele>2488.20</ele>
	<time>2023-08-07T06:23:56.000Z</time>
</trkpt>
<trkpt lat="46.1119070" lon="10.5182910">
	<ele>2488.20</ele>
	<time>2023-08-07T06:23:57.000Z</time>
</trkpt>
<trkpt lat="46.1119070" lon="10.5182870">
	<ele>2488.20</ele>
	<time>2023-08-07T06:23:58.000Z</time>
</trkpt>
<trkpt lat="46.1119080" lon="10.5182830">
	<ele>2488.20</ele>
	<time>2023-08-07T06:23:59.000Z</time>
</trkpt>
<trkpt lat="46.1119080" lon="10.5182770">
	<ele>2488.20</ele>
	<time>2023-08-07T06:24:00.000Z</time>
</trkpt>
<trkpt lat="46.1119090" lon="10.5182750">
	<ele>2488.60</ele>
	<time>2023-08-07T06:24:01.000Z</time>
</trkpt>
<trkpt lat="46.1119110" lon="10.5182740">
	<ele>2488.60</ele>
	<time>2023-08-07T06:24:02.000Z</time>
</trkpt>
<trkpt lat="46.1119140" lon="10.5182730">
	<ele>2488.80</ele>
	<time>2023-08-07T06:24:03.000Z</time>
</trkpt>
<trkpt lat="46.1119140" lon="10.5182700">
	<ele>2489.00</ele>
	<time>2023-08-07T06:24:04.000Z</time>
</trkpt>
<trkpt lat="46.1119160" lon="10.5182700">
	<ele>2489.00</ele>
	<time>2023-08-07T06:24:05.000Z</time>
</trkpt>
<trkpt lat="46.1119160" lon="10.5182710">
	<ele>2489.40</ele>
	<time>2023-08-07T06:24:06.000Z</time>
</trkpt>
<trkpt lat="46.1119150" lon="10.5182680">
	<ele>2489.60</ele>
	<time>2023-08-07T06:24:07.000Z</time>
</trkpt>
<trkpt lat="46.1119150" lon="10.5182680">
	<ele>2489.60</ele>
	<time>2023-08-07T06:24:08.000Z</time>
</trkpt>
<trkpt lat="46.1119150" lon="10.5182680">
	<ele>2490.00</ele>
	<time>2023-08-07T06:24:09.000Z</time>
</trkpt>
<trkpt lat="46.1119150" lon="10.5182680">
	<ele>2490.00</ele>
	<time>2023-08-07T06:24:10.000Z</time>
</trkpt>
<trkpt lat="46.1119150" lon="10.5182680">
	<ele>2490.40</ele>
	<time>2023-08-07T06:24:11.000Z</time>
</trkpt>
<trkpt lat="46.1119150" lon="10.5182680">
	<ele>2490.40</ele>
	<time>2023-08-07T06:24:12.000Z</time>
</trkpt>
<trkpt lat="46.1119150" lon="10.5182680">
	<ele>2490.60</ele>
	<time>2023-08-07T06:24:13.000Z</time>
</trkpt>
<trkpt lat="46.1119150" lon="10.5182680">
	<ele>2490.60</ele>
	<time>2023-08-07T06:24:14.000Z</time>
</trkpt>
<trkpt lat="46.1119150" lon="10.5182680">
	<ele>2490.80</ele>
	<time>2023-08-07T06:24:15.000Z</time>
</trkpt>
<trkpt lat="46.1119150" lon="10.5182680">
	<ele>2490.80</ele>
	<time>2023-08-07T06:24:16.000Z</time>
</trkpt>
<trkpt lat="46.1119150" lon="10.5182680">
	<ele>2490.80</ele>
	<time>2023-08-07T06:24:17.000Z</time>
</trkpt>
<trkpt lat="46.1119150" lon="10.5182680">
	<ele>2491.00</ele>
	<time>2023-08-07T06:24:18.000Z</time>
</trkpt>
<trkpt lat="46.1119150" lon="10.5182680">
	<ele>2491.20</ele>
	<time>2023-08-07T06:24:19.000Z</time>
</trkpt>
<trkpt lat="46.1119150" lon="10.5182680">
	<ele>2491.60</ele>
	<time>2023-08-07T06:24:20.000Z</time>
</trkpt>
<trkpt lat="46.1119160" lon="10.5182680">
	<ele>2491.80</ele>
	<time>2023-08-07T06:24:21.000Z</time>
</trkpt>
<trkpt lat="46.1119160" lon="10.5182680">
	<ele>2491.80</ele>
	<time>2023-08-07T06:24:22.000Z</time>
</trkpt>
<trkpt lat="46.1119160" lon="10.5182650">
	<ele>2492.00</ele>
	<time>2023-08-07T06:24:23.000Z</time>
</trkpt>
<trkpt lat="46.1119160" lon="10.5182610">
	<ele>2492.20</ele>
	<time>2023-08-07T06:24:24.000Z</time>
</trkpt>
<trkpt lat="46.1119170" lon="10.5182570">
	<ele>2492.20</ele>
	<time>2023-08-07T06:24:25.000Z</time>
</trkpt>
<trkpt lat="46.1119180" lon="10.5182560">
	<ele>2492.60</ele>
	<time>2023-08-07T06:24:26.000Z</time>
</trkpt>
<trkpt lat="46.1119190" lon="10.5182490">
	<ele>2492.80</ele>
	<time>2023-08-07T06:24:27.000Z</time>
</trkpt>
<trkpt lat="46.1119190" lon="10.5182480">
	<ele>2493.00</ele>
	<time>2023-08-07T06:24:28.000Z</time>
</trkpt>
<trkpt lat="46.1119190" lon="10.5182470">
	<ele>2493.00</ele>
	<time>2023-08-07T06:24:29.000Z</time>
</trkpt>
<trkpt lat="46.1119190" lon="10.5182440">
	<ele>2493.20</ele>
	<time>2023-08-07T06:24:30.000Z</time>
</trkpt>
<trkpt lat="46.1119200" lon="10.5182420">
	<ele>2493.40</ele>
	<time>2023-08-07T06:24:31.000Z</time>
</trkpt>
<trkpt lat="46.1119240" lon="10.5182390">
	<ele>2493.60</ele>
	<time>2023-08-07T06:24:32.000Z</time>
</trkpt>
<trkpt lat="46.1119260" lon="10.5182380">
	<ele>2493.80</ele>
	<time>2023-08-07T06:24:33.000Z</time>
</trkpt>
<trkpt lat="46.1119280" lon="10.5182380">
	<ele>2493.80</ele>
	<time>2023-08-07T06:24:34.000Z</time>
</trkpt>
<trkpt lat="46.1119310" lon="10.5182380">
	<ele>2494.00</ele>
	<time>2023-08-07T06:24:35.000Z</time>
</trkpt>
<trkpt lat="46.1119320" lon="10.5182380">
	<ele>2494.20</ele>
	<time>2023-08-07T06:24:36.000Z</time>
</trkpt>
<trkpt lat="46.1119320" lon="10.5182380">
	<ele>2494.20</ele>
	<time>2023-08-07T06:24:37.000Z</time>
</trkpt>
<trkpt lat="46.1119350" lon="10.5182380">
	<ele>2494.20</ele>
	<time>2023-08-07T06:24:38.000Z</time>
</trkpt>
<trkpt lat="46.1119390" lon="10.5182380">
	<ele>2494.20</ele>
	<time>2023-08-07T06:24:39.000Z</time>
</trkpt>
<trkpt lat="46.1119430" lon="10.5182380">
	<ele>2494.40</ele>
	<time>2023-08-07T06:24:40.000Z</time>
</trkpt>
<trkpt lat="46.1119460" lon="10.5182380">
	<ele>2494.60</ele>
	<time>2023-08-07T06:24:41.000Z</time>
</trkpt>
<trkpt lat="46.1119480" lon="10.5182380">
	<ele>2494.60</ele>
	<time>2023-08-07T06:24:42.000Z</time>
</trkpt>
<trkpt lat="46.1119500" lon="10.5182380">
	<ele>2494.80</ele>
	<time>2023-08-07T06:24:43.000Z</time>
</trkpt>
<trkpt lat="46.1119510" lon="10.5182380">
	<ele>2494.80</ele>
	<time>2023-08-07T06:24:44.000Z</time>
</trkpt>
<trkpt lat="46.1119520" lon="10.5182380">
	<ele>2495.00</ele>
	<time>2023-08-07T06:24:45.000Z</time>
</trkpt>
<trkpt lat="46.1119520" lon="10.5182380">
	<ele>2495.00</ele>
	<time>2023-08-07T06:24:46.000Z</time>
</trkpt>
<trkpt lat="46.1119520" lon="10.5182400">
	<ele>2495.20</ele>
	<time>2023-08-07T06:24:47.000Z</time>
</trkpt>
<trkpt lat="46.1119520" lon="10.5182450">
	<ele>2495.40</ele>
	<time>2023-08-07T06:24:48.000Z</time>
</trkpt>
<trkpt lat="46.1119520" lon="10.5182490">
	<ele>2495.80</ele>
	<time>2023-08-07T06:24:49.000Z</time>
</trkpt>
<trkpt lat="46.1119530" lon="10.5182500">
	<ele>2496.20</ele>
	<time>2023-08-07T06:24:50.000Z</time>
</trkpt>
<trkpt lat="46.1119530" lon="10.5182520">
	<ele>2496.40</ele>
	<time>2023-08-07T06:24:51.000Z</time>
</trkpt>
<trkpt lat="46.1119550" lon="10.5182520">
	<ele>2496.60</ele>
	<time>2023-08-07T06:24:52.000Z</time>
</trkpt>
<trkpt lat="46.1119560" lon="10.5182550">
	<ele>2496.60</ele>
	<time>2023-08-07T06:24:53.000Z</time>
</trkpt>
<trkpt lat="46.1119570" lon="10.5182560">
	<ele>2496.60</ele>
	<time>2023-08-07T06:24:54.000Z</time>
</trkpt>
<trkpt lat="46.1119570" lon="10.5182580">
	<ele>2496.80</ele>
	<time>2023-08-07T06:24:55.000Z</time>
</trkpt>
<trkpt lat="46.1119580" lon="10.5182590">
	<ele>2497.00</ele>
	<time>2023-08-07T06:24:56.000Z</time>
</trkpt>
<trkpt lat="46.1119580" lon="10.5182600">
	<ele>2497.20</ele>
	<time>2023-08-07T06:24:57.000Z</time>
</trkpt>
<trkpt lat="46.1119590" lon="10.5182600">
	<ele>2497.20</ele>
	<time>2023-08-07T06:24:58.000Z</time>
</trkpt>
<trkpt lat="46.1119590" lon="10.5182600">
	<ele>2497.40</ele>
	<time>2023-08-07T06:24:59.000Z</time>
</trkpt>
<trkpt lat="46.1119590" lon="10.5182600">
	<ele>2497.80</ele>
	<time>2023-08-07T06:25:00.000Z</time>
</trkpt>
<trkpt lat="46.1119590" lon="10.5182600">
	<ele>2497.80</ele>
	<time>2023-08-07T06:25:01.000Z</time>
</trkpt>
<trkpt lat="46.1119600" lon="10.5182600">
	<ele>2498.00</ele>
	<time>2023-08-07T06:25:02.000Z</time>
</trkpt>
<trkpt lat="46.1119600" lon="10.5182600">
	<ele>2498.20</ele>
	<time>2023-08-07T06:25:03.000Z</time>
</trkpt>
<trkpt lat="46.1119610" lon="10.5182610">
	<ele>2498.20</ele>
	<time>2023-08-07T06:25:04.000Z</time>
</trkpt>
<trkpt lat="46.1119630" lon="10.5182610">
	<ele>2498.20</ele>
	<time>2023-08-07T06:25:05.000Z</time>
</trkpt>
<trkpt lat="46.1119630" lon="10.5182610">
	<ele>2498.40</ele>
	<time>2023-08-07T06:25:06.000Z</time>
</trkpt>
<trkpt lat="46.1119640" lon="10.5182610">
	<ele>2498.40</ele>
	<time>2023-08-07T06:25:07.000Z</time>
</trkpt>
<trkpt lat="46.1119650" lon="10.5182610">
	<ele>2498.60</ele>
	<time>2023-08-07T06:25:08.000Z</time>
</trkpt>
<trkpt lat="46.1119660" lon="10.5182610">
	<ele>2498.80</ele>
	<time>2023-08-07T06:25:09.000Z</time>
</trkpt>
<trkpt lat="46.1119680" lon="10.5182610">
	<ele>2499.00</ele>
	<time>2023-08-07T06:25:10.000Z</time>
</trkpt>
<trkpt lat="46.1119700" lon="10.5182600">
	<ele>2499.40</ele>
	<time>2023-08-07T06:25:11.000Z</time>
</trkpt>
<trkpt lat="46.1119730" lon="10.5182600">
	<ele>2499.60</ele>
	<time>2023-08-07T06:25:12.000Z</time>
</trkpt>
<trkpt lat="46.1119750" lon="10.5182600">
	<ele>2499.80</ele>
	<time>2023-08-07T06:25:13.000Z</time>
</trkpt>
<trkpt lat="46.1119770" lon="10.5182580">
	<ele>2500.00</ele>
	<time>2023-08-07T06:25:14.000Z</time>
</trkpt>
<trkpt lat="46.1119800" lon="10.5182570">
	<ele>2500.00</ele>
	<time>2023-08-07T06:25:15.000Z</time>
</trkpt>
<trkpt lat="46.1119800" lon="10.5182570">
	<ele>2500.20</ele>
	<time>2023-08-07T06:25:16.000Z</time>
</trkpt>
<trkpt lat="46.1119800" lon="10.5182570">
	<ele>2500.20</ele>
	<time>2023-08-07T06:25:17.000Z</time>
</trkpt>
<trkpt lat="46.1119800" lon="10.5182570">
	<ele>2500.20</ele>
	<time>2023-08-07T06:25:18.000Z</time>
</trkpt>
<trkpt lat="46.1119800" lon="10.5182570">
	<ele>2500.20</ele>
	<time>2023-08-07T06:25:19.000Z</time>
</trkpt>
<trkpt lat="46.1119800" lon="10.5182570">
	<ele>2500.40</ele>
	<time>2023-08-07T06:25:20.000Z</time>
</trkpt>
<trkpt lat="46.1119800" lon="10.5182570">
	<ele>2500.40</ele>
	<time>2023-08-07T06:25:21.000Z</time>
</trkpt>
<trkpt lat="46.1119850" lon="10.5182570">
	<ele>2500.40</ele>
	<time>2023-08-07T06:25:22.000Z</time>
</trkpt>
<trkpt lat="46.1119860" lon="10.5182570">
	<ele>2500.40</ele>
	<time>2023-08-07T06:25:23.000Z</time>
</trkpt>
<trkpt lat="46.1119890" lon="10.5182570">
	<ele>2500.40</ele>
	<time>2023-08-07T06:25:24.000Z</time>
</trkpt>
<trkpt lat="46.1119950" lon="10.5182650">
	<ele>2500.60</ele>
	<time>2023-08-07T06:25:25.000Z</time>
</trkpt>
<trkpt lat="46.1119990" lon="10.5182690">
	<ele>2500.80</ele>
	<time>2023-08-07T06:25:26.000Z</time>
</trkpt>
<trkpt lat="46.1120010" lon="10.5182700">
	<ele>2501.20</ele>
	<time>2023-08-07T06:25:27.000Z</time>
</trkpt>
<trkpt lat="46.1120010" lon="10.5182700">
	<ele>2501.40</ele>
	<time>2023-08-07T06:25:28.000Z</time>
</trkpt>
<trkpt lat="46.1120010" lon="10.5182700">
	<ele>2501.40</ele>
	<time>2023-08-07T06:25:29.000Z</time>
</trkpt>
<trkpt lat="46.1120010" lon="10.5182700">
	<ele>2501.40</ele>
	<time>2023-08-07T06:25:30.000Z</time>
</trkpt>
<trkpt lat="46.1120010" lon="10.5182700">
	<ele>2501.40</ele>
	<time>2023-08-07T06:25:31.000Z</time>
</trkpt>
<trkpt lat="46.1120010" lon="10.5182700">
	<ele>2501.60</ele>
	<time>2023-08-07T06:25:32.000Z</time>
</trkpt>
<trkpt lat="46.1120010" lon="10.5182700">
	<ele>2501.60</ele>
	<time>2023-08-07T06:25:33.000Z</time>
</trkpt>
<trkpt lat="46.1120010" lon="10.5182700">
	<ele>2501.80</ele>
	<time>2023-08-07T06:25:34.000Z</time>
</trkpt>
<trkpt lat="46.1120010" lon="10.5182700">
	<ele>2501.80</ele>
	<time>2023-08-07T06:25:35.000Z</time>
</trkpt>
<trkpt lat="46.1120010" lon="10.5182690">
	<ele>2502.00</ele>
	<time>2023-08-07T06:25:36.000Z</time>
</trkpt>
<trkpt lat="46.1120010" lon="10.5182690">
	<ele>2502.00</ele>
	<time>2023-08-07T06:25:37.000Z</time>
</trkpt>
<trkpt lat="46.1120040" lon="10.5182690">
	<ele>2502.00</ele>
	<time>2023-08-07T06:25:38.000Z</time>
</trkpt>
<trkpt lat="46.1120090" lon="10.5182690">
	<ele>2502.00</ele>
	<time>2023-08-07T06:25:39.000Z</time>
</trkpt>
<trkpt lat="46.1120110" lon="10.5182690">
	<ele>2502.00</ele>
	<time>2023-08-07T06:25:40.000Z</time>
</trkpt>
<trkpt lat="46.1120120" lon="10.5182690">
	<ele>2502.00</ele>
	<time>2023-08-07T06:25:41.000Z</time>
</trkpt>
<trkpt lat="46.1120130" lon="10.5182690">
	<ele>2502.00</ele>
	<time>2023-08-07T06:25:42.000Z</time>
</trkpt>
<trkpt lat="46.1120130" lon="10.5182690">
	<ele>2502.00</ele>
	<time>2023-08-07T06:25:43.000Z</time>
</trkpt>
<trkpt lat="46.1120130" lon="10.5182690">
	<ele>2502.00</ele>
	<time>2023-08-07T06:25:44.000Z</time>
</trkpt>
<trkpt lat="46.1120140" lon="10.5182690">
	<ele>2502.20</ele>
	<time>2023-08-07T06:25:45.000Z</time>
</trkpt>
<trkpt lat="46.1120140" lon="10.5182690">
	<ele>2502.20</ele>
	<time>2023-08-07T06:25:46.000Z</time>
</trkpt>
<trkpt lat="46.1120140" lon="10.5182690">
	<ele>2502.20</ele>
	<time>2023-08-07T06:25:47.000Z</time>
</trkpt>
<trkpt lat="46.1120150" lon="10.5182690">
	<ele>2502.00</ele>
	<time>2023-08-07T06:25:48.000Z</time>
</trkpt>
<trkpt lat="46.1120150" lon="10.5182690">
	<ele>2501.80</ele>
	<time>2023-08-07T06:25:49.000Z</time>
</trkpt>
<trkpt lat="46.1120150" lon="10.5182700">
	<ele>2501.80</ele>
	<time>2023-08-07T06:25:50.000Z</time>
</trkpt>
<trkpt lat="46.1120150" lon="10.5182710">
	<ele>2501.80</ele>
	<time>2023-08-07T06:25:51.000Z</time>
</trkpt>
<trkpt lat="46.1120150" lon="10.5182720">
	<ele>2501.80</ele>
	<time>2023-08-07T06:25:52.000Z</time>
</trkpt>
<trkpt lat="46.1120150" lon="10.5182730">
	<ele>2501.80</ele>
	<time>2023-08-07T06:25:53.000Z</time>
</trkpt>
<trkpt lat="46.1120150" lon="10.5182730">
	<ele>2501.80</ele>
	<time>2023-08-07T06:25:54.000Z</time>
</trkpt>
<trkpt lat="46.1120150" lon="10.5182730">
	<ele>2501.80</ele>
	<time>2023-08-07T06:25:55.000Z</time>
</trkpt>
<trkpt lat="46.1120150" lon="10.5182730">
	<ele>2501.40</ele>
	<time>2023-08-07T06:25:56.000Z</time>
</trkpt>
<trkpt lat="46.1120160" lon="10.5182730">
	<ele>2501.20</ele>
	<time>2023-08-07T06:25:57.000Z</time>
</trkpt>
<trkpt lat="46.1120170" lon="10.5182730">
	<ele>2501.20</ele>
	<time>2023-08-07T06:25:58.000Z</time>
</trkpt>
<trkpt lat="46.1120180" lon="10.5182730">
	<ele>2501.00</ele>
	<time>2023-08-07T06:25:59.000Z</time>
</trkpt>
<trkpt lat="46.1120180" lon="10.5182730">
	<ele>2501.00</ele>
	<time>2023-08-07T06:26:00.000Z</time>
</trkpt>
<trkpt lat="46.1120190" lon="10.5182730">
	<ele>2501.00</ele>
	<time>2023-08-07T06:26:01.000Z</time>
</trkpt>
<trkpt lat="46.1120190" lon="10.5182730">
	<ele>2501.00</ele>
	<time>2023-08-07T06:26:02.000Z</time>
</trkpt>
<trkpt lat="46.1120190" lon="10.5182730">
	<ele>2501.20</ele>
	<time>2023-08-07T06:26:03.000Z</time>
</trkpt>
<trkpt lat="46.1120190" lon="10.5182730">
	<ele>2501.40</ele>
	<time>2023-08-07T06:26:04.000Z</time>
</trkpt>
<trkpt lat="46.1120190" lon="10.5182730">
	<ele>2501.40</ele>
	<time>2023-08-07T06:26:05.000Z</time>
</trkpt>
<trkpt lat="46.1120200" lon="10.5182730">
	<ele>2501.60</ele>
	<time>2023-08-07T06:26:06.000Z</time>
</trkpt>
<trkpt lat="46.1120200" lon="10.5182720">
	<ele>2501.60</ele>
	<time>2023-08-07T06:26:07.000Z</time>
</trkpt>
<trkpt lat="46.1120200" lon="10.5182710">
	<ele>2501.60</ele>
	<time>2023-08-07T06:26:08.000Z</time>
</trkpt>
<trkpt lat="46.1120200" lon="10.5182710">
	<ele>2501.40</ele>
	<time>2023-08-07T06:26:09.000Z</time>
</trkpt>
<trkpt lat="46.1120210" lon="10.5182700">
	<ele>2501.20</ele>
	<time>2023-08-07T06:26:10.000Z</time>
</trkpt>
<trkpt lat="46.1120210" lon="10.5182690">
	<ele>2501.00</ele>
	<time>2023-08-07T06:26:11.000Z</time>
</trkpt>
<trkpt lat="46.1120210" lon="10.5182690">
	<ele>2501.00</ele>
	<time>2023-08-07T06:26:12.000Z</time>
</trkpt>
<trkpt lat="46.1120210" lon="10.5182690">
	<ele>2501.00</ele>
	<time>2023-08-07T06:26:13.000Z</time>
</trkpt>
<trkpt lat="46.1120220" lon="10.5182690">
	<ele>2500.80</ele>
	<time>2023-08-07T06:26:14.000Z</time>
</trkpt>
<trkpt lat="46.1120230" lon="10.5182690">
	<ele>2500.80</ele>
	<time>2023-08-07T06:26:15.000Z</time>
</trkpt>
<trkpt lat="46.1120230" lon="10.5182690">
	<ele>2500.80</ele>
	<time>2023-08-07T06:26:16.000Z</time>
</trkpt>
<trkpt lat="46.1120240" lon="10.5182690">
	<ele>2500.80</ele>
	<time>2023-08-07T06:26:17.000Z</time>
</trkpt>
<trkpt lat="46.1120240" lon="10.5182690">
	<ele>2500.80</ele>
	<time>2023-08-07T06:26:18.000Z</time>
</trkpt>
<trkpt lat="46.1120250" lon="10.5182680">
	<ele>2500.80</ele>
	<time>2023-08-07T06:26:19.000Z</time>
</trkpt>
<trkpt lat="46.1120250" lon="10.5182680">
	<ele>2500.80</ele>
	<time>2023-08-07T06:26:20.000Z</time>
</trkpt>
<trkpt lat="46.1120260" lon="10.5182680">
	<ele>2500.80</ele>
	<time>2023-08-07T06:26:21.000Z</time>
</trkpt>
<trkpt lat="46.1120270" lon="10.5182680">
	<ele>2501.00</ele>
	<time>2023-08-07T06:26:22.000Z</time>
</trkpt>
<trkpt lat="46.1120270" lon="10.5182680">
	<ele>2501.00</ele>
	<time>2023-08-07T06:26:23.000Z</time>
</trkpt>
<trkpt lat="46.1120270" lon="10.5182680">
	<ele>2501.20</ele>
	<time>2023-08-07T06:26:24.000Z</time>
</trkpt>
<trkpt lat="46.1120280" lon="10.5182680">
	<ele>2501.20</ele>
	<time>2023-08-07T06:26:25.000Z</time>
</trkpt>
<trkpt lat="46.1120280" lon="10.5182680">
	<ele>2501.20</ele>
	<time>2023-08-07T06:26:26.000Z</time>
</trkpt>
<trkpt lat="46.1120280" lon="10.5182670">
	<ele>2501.20</ele>
	<time>2023-08-07T06:26:27.000Z</time>
</trkpt>
<trkpt lat="46.1120280" lon="10.5182670">
	<ele>2501.60</ele>
	<time>2023-08-07T06:26:28.000Z</time>
</trkpt>
<trkpt lat="46.1120290" lon="10.5182660">
	<ele>2501.80</ele>
	<time>2023-08-07T06:26:29.000Z</time>
</trkpt>
<trkpt lat="46.1120290" lon="10.5182660">
	<ele>2501.80</ele>
	<time>2023-08-07T06:26:30.000Z</time>
</trkpt>
<trkpt lat="46.1120290" lon="10.5182660">
	<ele>2501.80</ele>
	<time>2023-08-07T06:26:31.000Z</time>
</trkpt>
<trkpt lat="46.1120300" lon="10.5182660">
	<ele>2501.40</ele>
	<time>2023-08-07T06:26:32.000Z</time>
</trkpt>
<trkpt lat="46.1120310" lon="10.5182660">
	<ele>2501.20</ele>
	<time>2023-08-07T06:26:33.000Z</time>
</trkpt>
<trkpt lat="46.1120310" lon="10.5182660">
	<ele>2501.00</ele>
	<time>2023-08-07T06:26:34.000Z</time>
</trkpt>
<trkpt lat="46.1120310" lon="10.5182660">
	<ele>2501.00</ele>
	<time>2023-08-07T06:26:35.000Z</time>
</trkpt>
<trkpt lat="46.1120310" lon="10.5182660">
	<ele>2501.00</ele>
	<time>2023-08-07T06:26:36.000Z</time>
</trkpt>
<trkpt lat="46.1120310" lon="10.5182650">
	<ele>2501.00</ele>
	<time>2023-08-07T06:26:37.000Z</time>
</trkpt>
<trkpt lat="46.1120310" lon="10.5182640">
	<ele>2501.00</ele>
	<time>2023-08-07T06:26:38.000Z</time>
</trkpt>
<trkpt lat="46.1120310" lon="10.5182640">
	<ele>2501.00</ele>
	<time>2023-08-07T06:26:39.000Z</time>
</trkpt>
<trkpt lat="46.1120310" lon="10.5182640">
	<ele>2501.00</ele>
	<time>2023-08-07T06:26:40.000Z</time>
</trkpt>
<trkpt lat="46.1120310" lon="10.5182630">
	<ele>2500.60</ele>
	<time>2023-08-07T06:26:41.000Z</time>
</trkpt>
<trkpt lat="46.1120310" lon="10.5182630">
	<ele>2500.60</ele>
	<time>2023-08-07T06:26:42.000Z</time>
</trkpt>
<trkpt lat="46.1120310" lon="10.5182630">
	<ele>2500.40</ele>
	<time>2023-08-07T06:26:43.000Z</time>
</trkpt>
<trkpt lat="46.1120310" lon="10.5182630">
	<ele>2500.40</ele>
	<time>2023-08-07T06:26:44.000Z</time>
</trkpt>
<trkpt lat="46.1120310" lon="10.5182630">
	<ele>2500.20</ele>
	<time>2023-08-07T06:26:45.000Z</time>
</trkpt>
<trkpt lat="46.1120320" lon="10.5182630">
	<ele>2500.20</ele>
	<time>2023-08-07T06:26:46.000Z</time>
</trkpt>
<trkpt lat="46.1120320" lon="10.5182620">
	<ele>2500.40</ele>
	<time>2023-08-07T06:26:47.000Z</time>
</trkpt>
<trkpt lat="46.1120320" lon="10.5182620">
	<ele>2500.40</ele>
	<time>2023-08-07T06:26:48.000Z</time>
</trkpt>
<trkpt lat="46.1120320" lon="10.5182620">
	<ele>2500.40</ele>
	<time>2023-08-07T06:26:49.000Z</time>
</trkpt>
<trkpt lat="46.1120320" lon="10.5182610">
	<ele>2500.40</ele>
	<time>2023-08-07T06:26:50.000Z</time>
</trkpt>
<trkpt lat="46.1120320" lon="10.5182600">
	<ele>2500.60</ele>
	<time>2023-08-07T06:26:51.000Z</time>
</trkpt>
<trkpt lat="46.1120320" lon="10.5182600">
	<ele>2500.60</ele>
	<time>2023-08-07T06:26:52.000Z</time>
</trkpt>
<trkpt lat="46.1120320" lon="10.5182600">
	<ele>2500.60</ele>
	<time>2023-08-07T06:26:53.000Z</time>
</trkpt>
<trkpt lat="46.1120320" lon="10.5182600">
	<ele>2500.60</ele>
	<time>2023-08-07T06:26:54.000Z</time>
</trkpt>
<trkpt lat="46.1120320" lon="10.5182590">
	<ele>2500.40</ele>
	<time>2023-08-07T06:26:55.000Z</time>
</trkpt>
<trkpt lat="46.1120320" lon="10.5182590">
	<ele>2500.40</ele>
	<time>2023-08-07T06:26:56.000Z</time>
</trkpt>
<trkpt lat="46.1120320" lon="10.5182590">
	<ele>2500.40</ele>
	<time>2023-08-07T06:26:57.000Z</time>
</trkpt>
<trkpt lat="46.1120320" lon="10.5182590">
	<ele>2500.20</ele>
	<time>2023-08-07T06:26:58.000Z</time>
</trkpt>
<trkpt lat="46.1120320" lon="10.5182530">
	<ele>2500.20</ele>
	<time>2023-08-07T06:26:59.000Z</time>
</trkpt>
<trkpt lat="46.1120320" lon="10.5182440">
	<ele>2500.00</ele>
	<time>2023-08-07T06:27:00.000Z</time>
</trkpt>
<trkpt lat="46.1120320" lon="10.5182390">
	<ele>2500.00</ele>
	<time>2023-08-07T06:27:01.000Z</time>
</trkpt>
<trkpt lat="46.1120330" lon="10.5182360">
	<ele>2499.80</ele>
	<time>2023-08-07T06:27:02.000Z</time>
</trkpt>
<trkpt lat="46.1120330" lon="10.5182350">
	<ele>2499.80</ele>
	<time>2023-08-07T06:27:03.000Z</time>
</trkpt>
<trkpt lat="46.1120330" lon="10.5182340">
	<ele>2499.80</ele>
	<time>2023-08-07T06:27:04.000Z</time>
</trkpt>
<trkpt lat="46.1120330" lon="10.5182330">
	<ele>2499.80</ele>
	<time>2023-08-07T06:27:05.000Z</time>
</trkpt>
<trkpt lat="46.1120330" lon="10.5182330">
	<ele>2499.80</ele>
	<time>2023-08-07T06:27:06.000Z</time>
</trkpt>
<trkpt lat="46.1120330" lon="10.5182330">
	<ele>2499.80</ele>
	<time>2023-08-07T06:27:07.000Z</time>
</trkpt>
<trkpt lat="46.1120330" lon="10.5182330">
	<ele>2499.80</ele>
	<time>2023-08-07T06:27:08.000Z</time>
</trkpt>
<trkpt lat="46.1120330" lon="10.5182330">
	<ele>2499.80</ele>
	<time>2023-08-07T06:27:09.000Z</time>
</trkpt>
<trkpt lat="46.1120330" lon="10.5182330">
	<ele>2499.80</ele>
	<time>2023-08-07T06:27:10.000Z</time>
</trkpt>
<trkpt lat="46.1120330" lon="10.5182320">
	<ele>2499.80</ele>
	<time>2023-08-07T06:27:11.000Z</time>
</trkpt>
<trkpt lat="46.1120330" lon="10.5182320">
	<ele>2499.80</ele>
	<time>2023-08-07T06:27:12.000Z</time>
</trkpt>
<trkpt lat="46.1120330" lon="10.5182320">
	<ele>2499.80</ele>
	<time>2023-08-07T06:27:13.000Z</time>
</trkpt>
<trkpt lat="46.1120330" lon="10.5182310">
	<ele>2500.00</ele>
	<time>2023-08-07T06:27:14.000Z</time>
</trkpt>
<trkpt lat="46.1120330" lon="10.5182310">
	<ele>2500.00</ele>
	<time>2023-08-07T06:27:15.000Z</time>
</trkpt>
<trkpt lat="46.1120330" lon="10.5182310">
	<ele>2500.00</ele>
	<time>2023-08-07T06:27:16.000Z</time>
</trkpt>
<trkpt lat="46.1120330" lon="10.5182310">
	<ele>2500.00</ele>
	<time>2023-08-07T06:27:17.000Z</time>
</trkpt>
<trkpt lat="46.1120320" lon="10.5182310">
	<ele>2500.00</ele>
	<time>2023-08-07T06:27:18.000Z</time>
</trkpt>
<trkpt lat="46.1120310" lon="10.5182310">
	<ele>2500.00</ele>
	<time>2023-08-07T06:27:19.000Z</time>
</trkpt>
<trkpt lat="46.1120300" lon="10.5182310">
	<ele>2500.00</ele>
	<time>2023-08-07T06:27:20.000Z</time>
</trkpt>
<trkpt lat="46.1120290" lon="10.5182310">
	<ele>2500.00</ele>
	<time>2023-08-07T06:27:21.000Z</time>
</trkpt>
<trkpt lat="46.1120290" lon="10.5182310">
	<ele>2500.20</ele>
	<time>2023-08-07T06:27:22.000Z</time>
</trkpt>
<trkpt lat="46.1120290" lon="10.5182310">
	<ele>2500.20</ele>
	<time>2023-08-07T06:27:23.000Z</time>
</trkpt>
<trkpt lat="46.1120280" lon="10.5182310">
	<ele>2500.20</ele>
	<time>2023-08-07T06:27:24.000Z</time>
</trkpt>
<trkpt lat="46.1120280" lon="10.5182310">
	<ele>2500.20</ele>
	<time>2023-08-07T06:27:25.000Z</time>
</trkpt>
<trkpt lat="46.1120280" lon="10.5182310">
	<ele>2500.20</ele>
	<time>2023-08-07T06:27:26.000Z</time>
</trkpt>
<trkpt lat="46.1120280" lon="10.5182310">
	<ele>2500.20</ele>
	<time>2023-08-07T06:27:27.000Z</time>
</trkpt>
<trkpt lat="46.1120280" lon="10.5182310">
	<ele>2500.20</ele>
	<time>2023-08-07T06:27:28.000Z</time>
</trkpt>
<trkpt lat="46.1120280" lon="10.5182310">
	<ele>2500.20</ele>
	<time>2023-08-07T06:27:29.000Z</time>
</trkpt>
<trkpt lat="46.1120280" lon="10.5182310">
	<ele>2500.20</ele>
	<time>2023-08-07T06:27:30.000Z</time>
</trkpt>
<trkpt lat="46.1120280" lon="10.5182310">
	<ele>2500.20</ele>
	<time>2023-08-07T06:27:31.000Z</time>
</trkpt>
<trkpt lat="46.1120280" lon="10.5182310">
	<ele>2500.20</ele>
	<time>2023-08-07T06:27:32.000Z</time>
</trkpt>
<trkpt lat="46.1120280" lon="10.5182320">
	<ele>2500.00</ele>
	<time>2023-08-07T06:27:33.000Z</time>
</trkpt>
<trkpt lat="46.1120280" lon="10.5182320">
	<ele>2500.00</ele>
	<time>2023-08-07T06:27:34.000Z</time>
</trkpt>
<trkpt lat="46.1120280" lon="10.5182330">
	<ele>2500.00</ele>
	<time>2023-08-07T06:27:35.000Z</time>
</trkpt>
<trkpt lat="46.1120290" lon="10.5182350">
	<ele>2500.00</ele>
	<time>2023-08-07T06:27:36.000Z</time>
</trkpt>
<trkpt lat="46.1120290" lon="10.5182370">
	<ele>2500.00</ele>
	<time>2023-08-07T06:27:37.000Z</time>
</trkpt>
<trkpt lat="46.1120290" lon="10.5182380">
	<ele>2500.00</ele>
	<time>2023-08-07T06:27:38.000Z</time>
</trkpt>
<trkpt lat="46.1120300" lon="10.5182380">
	<ele>2499.80</ele>
	<time>2023-08-07T06:27:39.000Z</time>
</trkpt>
<trkpt lat="46.1120330" lon="10.5182390">
	<ele>2499.80</ele>
	<time>2023-08-07T06:27:40.000Z</time>
</trkpt>
<trkpt lat="46.1120350" lon="10.5182390">
	<ele>2499.80</ele>
	<time>2023-08-07T06:27:41.000Z</time>
</trkpt>
<trkpt lat="46.1120360" lon="10.5182390">
	<ele>2499.80</ele>
	<time>2023-08-07T06:27:42.000Z</time>
</trkpt>
<trkpt lat="46.1120370" lon="10.5182390">
	<ele>2499.80</ele>
	<time>2023-08-07T06:27:43.000Z</time>
</trkpt>
<trkpt lat="46.1120380" lon="10.5182400">
	<ele>2499.80</ele>
	<time>2023-08-07T06:27:44.000Z</time>
</trkpt>
<trkpt lat="46.1120390" lon="10.5182400">
	<ele>2499.80</ele>
	<time>2023-08-07T06:27:45.000Z</time>
</trkpt>
<trkpt lat="46.1120400" lon="10.5182400">
	<ele>2499.80</ele>
	<time>2023-08-07T06:27:46.000Z</time>
</trkpt>
<trkpt lat="46.1120400" lon="10.5182400">
	<ele>2499.80</ele>
	<time>2023-08-07T06:27:47.000Z</time>
</trkpt>
<trkpt lat="46.1120400" lon="10.5182410">
	<ele>2499.80</ele>
	<time>2023-08-07T06:27:48.000Z</time>
</trkpt>
<trkpt lat="46.1120410" lon="10.5182430">
	<ele>2499.80</ele>
	<time>2023-08-07T06:27:49.000Z</time>
</trkpt>
<trkpt lat="46.1120410" lon="10.5182450">
	<ele>2499.80</ele>
	<time>2023-08-07T06:27:50.000Z</time>
</trkpt>
<trkpt lat="46.1120410" lon="10.5182470">
	<ele>2499.80</ele>
	<time>2023-08-07T06:27:51.000Z</time>
</trkpt>
<trkpt lat="46.1120410" lon="10.5182480">
	<ele>2499.80</ele>
	<time>2023-08-07T06:27:52.000Z</time>
</trkpt>
<trkpt lat="46.1120410" lon="10.5182490">
	<ele>2499.80</ele>
	<time>2023-08-07T06:27:53.000Z</time>
</trkpt>
<trkpt lat="46.1120410" lon="10.5182500">
	<ele>2499.80</ele>
	<time>2023-08-07T06:27:54.000Z</time>
</trkpt>
<trkpt lat="46.1120410" lon="10.5182510">
	<ele>2500.00</ele>
	<time>2023-08-07T06:27:55.000Z</time>
</trkpt>
<trkpt lat="46.1120420" lon="10.5182510">
	<ele>2500.00</ele>
	<time>2023-08-07T06:27:56.000Z</time>
</trkpt>
<trkpt lat="46.1120420" lon="10.5182520">
	<ele>2500.00</ele>
	<time>2023-08-07T06:27:57.000Z</time>
</trkpt>
<trkpt lat="46.1120420" lon="10.5182520">
	<ele>2500.00</ele>
	<time>2023-08-07T06:27:58.000Z</time>
</trkpt>
<trkpt lat="46.1120430" lon="10.5182530">
	<ele>2500.20</ele>
	<time>2023-08-07T06:27:59.000Z</time>
</trkpt>
<trkpt lat="46.1120430" lon="10.5182530">
	<ele>2500.20</ele>
	<time>2023-08-07T06:28:00.000Z</time>
</trkpt>
<trkpt lat="46.1120440" lon="10.5182530">
	<ele>2500.20</ele>
	<time>2023-08-07T06:28:01.000Z</time>
</trkpt>
<trkpt lat="46.1120450" lon="10.5182540">
	<ele>2500.20</ele>
	<time>2023-08-07T06:28:02.000Z</time>
</trkpt>
<trkpt lat="46.1120460" lon="10.5182540">
	<ele>2500.20</ele>
	<time>2023-08-07T06:28:03.000Z</time>
</trkpt>
<trkpt lat="46.1120470" lon="10.5182530">
	<ele>2500.20</ele>
	<time>2023-08-07T06:28:04.000Z</time>
</trkpt>
<trkpt lat="46.1120470" lon="10.5182530">
	<ele>2500.40</ele>
	<time>2023-08-07T06:28:05.000Z</time>
</trkpt>
<trkpt lat="46.1120480" lon="10.5182530">
	<ele>2500.40</ele>
	<time>2023-08-07T06:28:06.000Z</time>
</trkpt>
<trkpt lat="46.1120480" lon="10.5182530">
	<ele>2500.40</ele>
	<time>2023-08-07T06:28:07.000Z</time>
</trkpt>
<trkpt lat="46.1120490" lon="10.5182530">
	<ele>2500.40</ele>
	<time>2023-08-07T06:28:08.000Z</time>
</trkpt>
<trkpt lat="46.1120490" lon="10.5182530">
	<ele>2500.60</ele>
	<time>2023-08-07T06:28:09.000Z</time>
</trkpt>
<trkpt lat="46.1120480" lon="10.5182530">
	<ele>2500.60</ele>
	<time>2023-08-07T06:28:10.000Z</time>
</trkpt>
<trkpt lat="46.1120480" lon="10.5182530">
	<ele>2500.60</ele>
	<time>2023-08-07T06:28:11.000Z</time>
</trkpt>
<trkpt lat="46.1120480" lon="10.5182530">
	<ele>2500.60</ele>
	<time>2023-08-07T06:28:12.000Z</time>
</trkpt>
<trkpt lat="46.1120470" lon="10.5182530">
	<ele>2500.60</ele>
	<time>2023-08-07T06:28:13.000Z</time>
</trkpt>
<trkpt lat="46.1120470" lon="10.5182530">
	<ele>2500.60</ele>
	<time>2023-08-07T06:28:14.000Z</time>
</trkpt>
<trkpt lat="46.1120470" lon="10.5182530">
	<ele>2500.60</ele>
	<time>2023-08-07T06:28:15.000Z</time>
</trkpt>
<trkpt lat="46.1120470" lon="10.5182530">
	<ele>2500.60</ele>
	<time>2023-08-07T06:28:16.000Z</time>
</trkpt>
<trkpt lat="46.1120460" lon="10.5182530">
	<ele>2500.60</ele>
	<time>2023-08-07T06:28:17.000Z</time>
</trkpt>
<trkpt lat="46.1120460" lon="10.5182530">
	<ele>2500.60</ele>
	<time>2023-08-07T06:28:18.000Z</time>
</trkpt>
<trkpt lat="46.1120460" lon="10.5182530">
	<ele>2500.60</ele>
	<time>2023-08-07T06:28:19.000Z</time>
</trkpt>
<trkpt lat="46.1120460" lon="10.5182530">
	<ele>2500.60</ele>
	<time>2023-08-07T06:28:20.000Z</time>
</trkpt>
<trkpt lat="46.1120460" lon="10.5182520">
	<ele>2500.60</ele>
	<time>2023-08-07T06:28:21.000Z</time>
</trkpt>
<trkpt lat="46.1120460" lon="10.5182510">
	<ele>2500.60</ele>
	<time>2023-08-07T06:28:22.000Z</time>
</trkpt>
<trkpt lat="46.1120460" lon="10.5182500">
	<ele>2500.60</ele>
	<time>2023-08-07T06:28:23.000Z</time>
</trkpt>
<trkpt lat="46.1120460" lon="10.5182490">
	<ele>2500.60</ele>
	<time>2023-08-07T06:28:24.000Z</time>
</trkpt>
<trkpt lat="46.1120450" lon="10.5182480">
	<ele>2500.60</ele>
	<time>2023-08-07T06:28:25.000Z</time>
</trkpt>
<trkpt lat="46.1120450" lon="10.5182480">
	<ele>2500.60</ele>
	<time>2023-08-07T06:28:26.000Z</time>
</trkpt>
<trkpt lat="46.1120450" lon="10.5182470">
	<ele>2500.60</ele>
	<time>2023-08-07T06:28:27.000Z</time>
</trkpt>
<trkpt lat="46.1120440" lon="10.5182470">
	<ele>2500.60</ele>
	<time>2023-08-07T06:28:28.000Z</time>
</trkpt>
<trkpt lat="46.1120440" lon="10.5182460">
	<ele>2500.60</ele>
	<time>2023-08-07T06:28:29.000Z</time>
</trkpt>
<trkpt lat="46.1120440" lon="10.5182460">
	<ele>2500.60</ele>
	<time>2023-08-07T06:28:30.000Z</time>
</trkpt>
<trkpt lat="46.1120440" lon="10.5182450">
	<ele>2500.60</ele>
	<time>2023-08-07T06:28:31.000Z</time>
</trkpt>
<trkpt lat="46.1120440" lon="10.5182450">
	<ele>2500.40</ele>
	<time>2023-08-07T06:28:32.000Z</time>
</trkpt>
<trkpt lat="46.1120430" lon="10.5182450">
	<ele>2500.60</ele>
	<time>2023-08-07T06:28:33.000Z</time>
</trkpt>
<trkpt lat="46.1120430" lon="10.5182440">
	<ele>2500.60</ele>
	<time>2023-08-07T06:28:34.000Z</time>
</trkpt>
<trkpt lat="46.1120430" lon="10.5182440">
	<ele>2500.60</ele>
	<time>2023-08-07T06:28:35.000Z</time>
</trkpt>
<trkpt lat="46.1120420" lon="10.5182440">
	<ele>2500.60</ele>
	<time>2023-08-07T06:28:36.000Z</time>
</trkpt>
<trkpt lat="46.1120420" lon="10.5182440">
	<ele>2500.60</ele>
	<time>2023-08-07T06:28:37.000Z</time>
</trkpt>
<trkpt lat="46.1120420" lon="10.5182440">
	<ele>2500.60</ele>
	<time>2023-08-07T06:28:38.000Z</time>
</trkpt>
<trkpt lat="46.1120410" lon="10.5182440">
	<ele>2500.60</ele>
	<time>2023-08-07T06:28:39.000Z</time>
</trkpt>
<trkpt lat="46.1120410" lon="10.5182430">
	<ele>2500.60</ele>
	<time>2023-08-07T06:28:40.000Z</time>
</trkpt>
<trkpt lat="46.1120410" lon="10.5182430">
	<ele>2500.80</ele>
	<time>2023-08-07T06:28:41.000Z</time>
</trkpt>
<trkpt lat="46.1120410" lon="10.5182430">
	<ele>2500.80</ele>
	<time>2023-08-07T06:28:42.000Z</time>
</trkpt>
<trkpt lat="46.1120400" lon="10.5182430">
	<ele>2500.80</ele>
	<time>2023-08-07T06:28:43.000Z</time>
</trkpt>
<trkpt lat="46.1120400" lon="10.5182430">
	<ele>2501.00</ele>
	<time>2023-08-07T06:28:44.000Z</time>
</trkpt>
<trkpt lat="46.1120400" lon="10.5182430">
	<ele>2501.00</ele>
	<time>2023-08-07T06:28:45.000Z</time>
</trkpt>
<trkpt lat="46.1120400" lon="10.5182430">
	<ele>2501.00</ele>
	<time>2023-08-07T06:28:46.000Z</time>
</trkpt>
<trkpt lat="46.1120400" lon="10.5182430">
	<ele>2501.40</ele>
	<time>2023-08-07T06:28:47.000Z</time>
</trkpt>
<trkpt lat="46.1120400" lon="10.5182430">
	<ele>2501.60</ele>
	<time>2023-08-07T06:28:48.000Z</time>
</trkpt>
<trkpt lat="46.1120400" lon="10.5182430">
	<ele>2501.60</ele>
	<time>2023-08-07T06:28:49.000Z</time>
</trkpt>
<trkpt lat="46.1120400" lon="10.5182430">
	<ele>2501.80</ele>
	<time>2023-08-07T06:28:50.000Z</time>
</trkpt>
<trkpt lat="46.1120400" lon="10.5182430">
	<ele>2502.00</ele>
	<time>2023-08-07T06:28:51.000Z</time>
</trkpt>
<trkpt lat="46.1120400" lon="10.5182430">
	<ele>2502.00</ele>
	<time>2023-08-07T06:28:52.000Z</time>
</trkpt>
<trkpt lat="46.1120400" lon="10.5182440">
	<ele>2501.80</ele>
	<time>2023-08-07T06:28:53.000Z</time>
</trkpt>
<trkpt lat="46.1120400" lon="10.5182440">
	<ele>2501.80</ele>
	<time>2023-08-07T06:28:54.000Z</time>
</trkpt>
<trkpt lat="46.1120400" lon="10.5182440">
	<ele>2501.80</ele>
	<time>2023-08-07T06:28:55.000Z</time>
</trkpt>
<trkpt lat="46.1120400" lon="10.5182440">
	<ele>2501.80</ele>
	<time>2023-08-07T06:28:56.000Z</time>
</trkpt>
<trkpt lat="46.1120400" lon="10.5182440">
	<ele>2501.80</ele>
	<time>2023-08-07T06:28:57.000Z</time>
</trkpt>
<trkpt lat="46.1120400" lon="10.5182440">
	<ele>2501.80</ele>
	<time>2023-08-07T06:28:58.000Z</time>
</trkpt>
<trkpt lat="46.1120400" lon="10.5182440">
	<ele>2501.80</ele>
	<time>2023-08-07T06:28:59.000Z</time>
</trkpt>
<trkpt lat="46.1120400" lon="10.5182440">
	<ele>2501.80</ele>
	<time>2023-08-07T06:29:00.000Z</time>
</trkpt>
<trkpt lat="46.1120400" lon="10.5182440">
	<ele>2501.80</ele>
	<time>2023-08-07T06:29:01.000Z</time>
</trkpt>
<trkpt lat="46.1120400" lon="10.5182440">
	<ele>2501.80</ele>
	<time>2023-08-07T06:29:02.000Z</time>
</trkpt>
<trkpt lat="46.1120400" lon="10.5182440">
	<ele>2502.20</ele>
	<time>2023-08-07T06:29:03.000Z</time>
</trkpt>
<trkpt lat="46.1120410" lon="10.5182440">
	<ele>2502.60</ele>
	<time>2023-08-07T06:29:04.000Z</time>
</trkpt>
<trkpt lat="46.1120410" lon="10.5182440">
	<ele>2502.60</ele>
	<time>2023-08-07T06:29:05.000Z</time>
</trkpt>
<trkpt lat="46.1120410" lon="10.5182440">
	<ele>2502.80</ele>
	<time>2023-08-07T06:29:06.000Z</time>
</trkpt>
<trkpt lat="46.1120410" lon="10.5182440">
	<ele>2502.80</ele>
	<time>2023-08-07T06:29:07.000Z</time>
</trkpt>
<trkpt lat="46.1120410" lon="10.5182440">
	<ele>2502.80</ele>
	<time>2023-08-07T06:29:08.000Z</time>
</trkpt>
<trkpt lat="46.1120410" lon="10.5182440">
	<ele>2502.80</ele>
	<time>2023-08-07T06:29:09.000Z</time>
</trkpt>
<trkpt lat="46.1120410" lon="10.5182440">
	<ele>2503.00</ele>
	<time>2023-08-07T06:29:10.000Z</time>
</trkpt>
<trkpt lat="46.1120410" lon="10.5182450">
	<ele>2503.00</ele>
	<time>2023-08-07T06:29:11.000Z</time>
</trkpt>
<trkpt lat="46.1120410" lon="10.5182450">
	<ele>2503.20</ele>
	<time>2023-08-07T06:29:12.000Z</time>
</trkpt>
<trkpt lat="46.1120410" lon="10.5182450">
	<ele>2503.20</ele>
	<time>2023-08-07T06:29:13.000Z</time>
</trkpt>
<trkpt lat="46.1120410" lon="10.5182450">
	<ele>2503.20</ele>
	<time>2023-08-07T06:29:14.000Z</time>
</trkpt>
<trkpt lat="46.1120410" lon="10.5182450">
	<ele>2503.40</ele>
	<time>2023-08-07T06:29:15.000Z</time>
</trkpt>
<trkpt lat="46.1120410" lon="10.5182450">
	<ele>2503.60</ele>
	<time>2023-08-07T06:29:16.000Z</time>
</trkpt>
<trkpt lat="46.1120410" lon="10.5182450">
	<ele>2503.60</ele>
	<time>2023-08-07T06:29:17.000Z</time>
</trkpt>
<trkpt lat="46.1120410" lon="10.5182450">
	<ele>2503.80</ele>
	<time>2023-08-07T06:29:18.000Z</time>
</trkpt>
<trkpt lat="46.1120420" lon="10.5182450">
	<ele>2504.00</ele>
	<time>2023-08-07T06:29:19.000Z</time>
</trkpt>
<trkpt lat="46.1120420" lon="10.5182450">
	<ele>2504.20</ele>
	<time>2023-08-07T06:29:20.000Z</time>
</trkpt>
<trkpt lat="46.1120420" lon="10.5182450">
	<ele>2504.20</ele>
	<time>2023-08-07T06:29:21.000Z</time>
</trkpt>
<trkpt lat="46.1120420" lon="10.5182460">
	<ele>2504.20</ele>
	<time>2023-08-07T06:29:22.000Z</time>
</trkpt>
<trkpt lat="46.1120420" lon="10.5182460">
	<ele>2504.20</ele>
	<time>2023-08-07T06:29:23.000Z</time>
</trkpt>
<trkpt lat="46.1120420" lon="10.5182460">
	<ele>2504.20</ele>
	<time>2023-08-07T06:29:24.000Z</time>
</trkpt>
<trkpt lat="46.1120420" lon="10.5182460">
	<ele>2504.20</ele>
	<time>2023-08-07T06:29:25.000Z</time>
</trkpt>
<trkpt lat="46.1120420" lon="10.5182460">
	<ele>2504.20</ele>
	<time>2023-08-07T06:29:26.000Z</time>
</trkpt>
<trkpt lat="46.1120420" lon="10.5182460">
	<ele>2504.20</ele>
	<time>2023-08-07T06:29:27.000Z</time>
</trkpt>
<trkpt lat="46.1120420" lon="10.5182460">
	<ele>2504.20</ele>
	<time>2023-08-07T06:29:28.000Z</time>
</trkpt>
<trkpt lat="46.1120420" lon="10.5182460">
	<ele>2504.20</ele>
	<time>2023-08-07T06:29:29.000Z</time>
</trkpt>
<trkpt lat="46.1120430" lon="10.5182460">
	<ele>2504.40</ele>
	<time>2023-08-07T06:29:30.000Z</time>
</trkpt>
<trkpt lat="46.1120430" lon="10.5182460">
	<ele>2504.40</ele>
	<time>2023-08-07T06:29:31.000Z</time>
</trkpt>
<trkpt lat="46.1120430" lon="10.5182460">
	<ele>2504.40</ele>
	<time>2023-08-07T06:29:32.000Z</time>
</trkpt>
<trkpt lat="46.1120430" lon="10.5182460">
	<ele>2504.40</ele>
	<time>2023-08-07T06:29:33.000Z</time>
</trkpt>
<trkpt lat="46.1120430" lon="10.5182460">
	<ele>2504.40</ele>
	<time>2023-08-07T06:29:34.000Z</time>
</trkpt>
<trkpt lat="46.1120440" lon="10.5182460">
	<ele>2504.40</ele>
	<time>2023-08-07T06:29:35.000Z</time>
</trkpt>
<trkpt lat="46.1120440" lon="10.5182460">
	<ele>2504.40</ele>
	<time>2023-08-07T06:29:36.000Z</time>
</trkpt>
<trkpt lat="46.1120440" lon="10.5182450">
	<ele>2504.40</ele>
	<time>2023-08-07T06:29:37.000Z</time>
</trkpt>
<trkpt lat="46.1120440" lon="10.5182450">
	<ele>2504.40</ele>
	<time>2023-08-07T06:29:38.000Z</time>
</trkpt>
<trkpt lat="46.1120440" lon="10.5182440">
	<ele>2504.40</ele>
	<time>2023-08-07T06:29:39.000Z</time>
</trkpt>
<trkpt lat="46.1120440" lon="10.5182440">
	<ele>2504.40</ele>
	<time>2023-08-07T06:29:40.000Z</time>
</trkpt>
<trkpt lat="46.1120440" lon="10.5182440">
	<ele>2504.40</ele>
	<time>2023-08-07T06:29:41.000Z</time>
</trkpt>
<trkpt lat="46.1120440" lon="10.5182440">
	<ele>2504.40</ele>
	<time>2023-08-07T06:29:42.000Z</time>
</trkpt>
<trkpt lat="46.1120440" lon="10.5182440">
	<ele>2504.40</ele>
	<time>2023-08-07T06:29:43.000Z</time>
</trkpt>
<trkpt lat="46.1120440" lon="10.5182440">
	<ele>2504.40</ele>
	<time>2023-08-07T06:29:44.000Z</time>
</trkpt>
<trkpt lat="46.1120440" lon="10.5182450">
	<ele>2504.40</ele>
	<time>2023-08-07T06:29:45.000Z</time>
</trkpt>
<trkpt lat="46.1120440" lon="10.5182450">
	<ele>2504.60</ele>
	<time>2023-08-07T06:29:46.000Z</time>
</trkpt>
<trkpt lat="46.1120440" lon="10.5182450">
	<ele>2504.40</ele>
	<time>2023-08-07T06:29:47.000Z</time>
</trkpt>
<trkpt lat="46.1120440" lon="10.5182450">
	<ele>2504.40</ele>
	<time>2023-08-07T06:29:48.000Z</time>
</trkpt>
<trkpt lat="46.1120440" lon="10.5182450">
	<ele>2504.40</ele>
	<time>2023-08-07T06:29:49.000Z</time>
</trkpt>
<trkpt lat="46.1120440" lon="10.5182450">
	<ele>2504.60</ele>
	<time>2023-08-07T06:29:50.000Z</time>
</trkpt>
<trkpt lat="46.1120450" lon="10.5182450">
	<ele>2505.00</ele>
	<time>2023-08-07T06:29:51.000Z</time>
</trkpt>
<trkpt lat="46.1120450" lon="10.5182450">
	<ele>2505.20</ele>
	<time>2023-08-07T06:29:52.000Z</time>
</trkpt>
<trkpt lat="46.1120450" lon="10.5182450">
	<ele>2505.40</ele>
	<time>2023-08-07T06:29:53.000Z</time>
</trkpt>
<trkpt lat="46.1120450" lon="10.5182450">
	<ele>2505.60</ele>
	<time>2023-08-07T06:29:54.000Z</time>
</trkpt>
<trkpt lat="46.1120450" lon="10.5182450">
	<ele>2505.80</ele>
	<time>2023-08-07T06:29:55.000Z</time>
</trkpt>
<trkpt lat="46.1120450" lon="10.5182450">
	<ele>2505.80</ele>
	<time>2023-08-07T06:29:56.000Z</time>
</trkpt>
<trkpt lat="46.1120450" lon="10.5182450">
	<ele>2505.80</ele>
	<time>2023-08-07T06:29:57.000Z</time>
</trkpt>
<trkpt lat="46.1120450" lon="10.5182460">
	<ele>2506.00</ele>
	<time>2023-08-07T06:29:58.000Z</time>
</trkpt>
<trkpt lat="46.1120460" lon="10.5182460">
	<ele>2506.40</ele>
	<time>2023-08-07T06:29:59.000Z</time>
</trkpt>
<trkpt lat="46.1120460" lon="10.5182460">
	<ele>2506.60</ele>
	<time>2023-08-07T06:30:00.000Z</time>
</trkpt>
<trkpt lat="46.1120460" lon="10.5182460">
	<ele>2506.60</ele>
	<time>2023-08-07T06:30:01.000Z</time>
</trkpt>
<trkpt lat="46.1120460" lon="10.5182460">
	<ele>2506.80</ele>
	<time>2023-08-07T06:30:02.000Z</time>
</trkpt>
<trkpt lat="46.1120460" lon="10.5182460">
	<ele>2507.20</ele>
	<time>2023-08-07T06:30:03.000Z</time>
</trkpt>
<trkpt lat="46.1120460" lon="10.5182460">
	<ele>2507.40</ele>
	<time>2023-08-07T06:30:04.000Z</time>
</trkpt>
<trkpt lat="46.1120460" lon="10.5182460">
	<ele>2507.60</ele>
	<time>2023-08-07T06:30:05.000Z</time>
</trkpt>
<trkpt lat="46.1120460" lon="10.5182460">
	<ele>2507.60</ele>
	<time>2023-08-07T06:30:06.000Z</time>
</trkpt>
<trkpt lat="46.1120460" lon="10.5182470">
	<ele>2507.80</ele>
	<time>2023-08-07T06:30:07.000Z</time>
</trkpt>
<trkpt lat="46.1120460" lon="10.5182470">
	<ele>2508.00</ele>
	<time>2023-08-07T06:30:08.000Z</time>
</trkpt>
<trkpt lat="46.1120470" lon="10.5182470">
	<ele>2508.20</ele>
	<time>2023-08-07T06:30:09.000Z</time>
</trkpt>
<trkpt lat="46.1120470" lon="10.5182470">
	<ele>2508.40</ele>
	<time>2023-08-07T06:30:10.000Z</time>
</trkpt>
<trkpt lat="46.1120470" lon="10.5182470">
	<ele>2508.80</ele>
	<time>2023-08-07T06:30:11.000Z</time>
</trkpt>
<trkpt lat="46.1120470" lon="10.5182470">
	<ele>2509.00</ele>
	<time>2023-08-07T06:30:12.000Z</time>
</trkpt>
<trkpt lat="46.1120470" lon="10.5182470">
	<ele>2509.20</ele>
	<time>2023-08-07T06:30:13.000Z</time>
</trkpt>
<trkpt lat="46.1120470" lon="10.5182470">
	<ele>2509.20</ele>
	<time>2023-08-07T06:30:14.000Z</time>
</trkpt>
<trkpt lat="46.1120470" lon="10.5182470">
	<ele>2509.40</ele>
	<time>2023-08-07T06:30:15.000Z</time>
</trkpt>
<trkpt lat="46.1120470" lon="10.5182470">
	<ele>2509.60</ele>
	<time>2023-08-07T06:30:16.000Z</time>
</trkpt>
<trkpt lat="46.1120470" lon="10.5182470">
	<ele>2509.60</ele>
	<time>2023-08-07T06:30:17.000Z</time>
</trkpt>
<trkpt lat="46.1120470" lon="10.5182470">
	<ele>2509.80</ele>
	<time>2023-08-07T06:30:18.000Z</time>
</trkpt>
<trkpt lat="46.1120480" lon="10.5182470">
	<ele>2509.80</ele>
	<time>2023-08-07T06:30:19.000Z</time>
</trkpt>
<trkpt lat="46.1120480" lon="10.5182470">
	<ele>2510.00</ele>
	<time>2023-08-07T06:30:20.000Z</time>
</trkpt>
<trkpt lat="46.1120480" lon="10.5182470">
	<ele>2510.00</ele>
	<time>2023-08-07T06:30:21.000Z</time>
</trkpt>
<trkpt lat="46.1120480" lon="10.5182470">
	<ele>2510.20</ele>
	<time>2023-08-07T06:30:22.000Z</time>
</trkpt>
<trkpt lat="46.1120480" lon="10.5182480">
	<ele>2510.60</ele>
	<time>2023-08-07T06:30:23.000Z</time>
</trkpt>
<trkpt lat="46.1120480" lon="10.5182480">
	<ele>2510.80</ele>
	<time>2023-08-07T06:30:24.000Z</time>
</trkpt>
<trkpt lat="46.1120550" lon="10.5182560">
	<ele>2511.00</ele>
	<time>2023-08-07T06:30:25.000Z</time>
</trkpt>
<trkpt lat="46.1120630" lon="10.5182650">
	<ele>2511.20</ele>
	<time>2023-08-07T06:30:26.000Z</time>
</trkpt>
<trkpt lat="46.1120700" lon="10.5182730">
	<ele>2511.20</ele>
	<time>2023-08-07T06:30:27.000Z</time>
</trkpt>
<trkpt lat="46.1120780" lon="10.5182830">
	<ele>2511.40</ele>
	<time>2023-08-07T06:30:28.000Z</time>
</trkpt>
<trkpt lat="46.1120860" lon="10.5182890">
	<ele>2511.40</ele>
	<time>2023-08-07T06:30:29.000Z</time>
</trkpt>
<trkpt lat="46.1120950" lon="10.5182990">
	<ele>2511.40</ele>
	<time>2023-08-07T06:30:30.000Z</time>
</trkpt>
<trkpt lat="46.1121020" lon="10.5183090">
	<ele>2511.60</ele>
	<time>2023-08-07T06:30:31.000Z</time>
</trkpt>
<trkpt lat="46.1121020" lon="10.5183090">
	<ele>2511.60</ele>
	<time>2023-08-07T06:30:32.000Z</time>
</trkpt>
<trkpt lat="46.1121020" lon="10.5183090">
	<ele>2511.80</ele>
	<time>2023-08-07T06:30:33.000Z</time>
</trkpt>
<trkpt lat="46.1121020" lon="10.5183090">
	<ele>2512.20</ele>
	<time>2023-08-07T06:30:34.000Z</time>
</trkpt>
<trkpt lat="46.1121020" lon="10.5183090">
	<ele>2512.40</ele>
	<time>2023-08-07T06:30:35.000Z</time>
</trkpt>
<trkpt lat="46.1121020" lon="10.5183090">
	<ele>2512.40</ele>
	<time>2023-08-07T06:30:36.000Z</time>
</trkpt>
<trkpt lat="46.1121020" lon="10.5183090">
	<ele>2512.60</ele>
	<time>2023-08-07T06:30:37.000Z</time>
</trkpt>
<trkpt lat="46.1121130" lon="10.5183120">
	<ele>2512.80</ele>
	<time>2023-08-07T06:30:38.000Z</time>
</trkpt>
<trkpt lat="46.1121140" lon="10.5183120">
	<ele>2513.00</ele>
	<time>2023-08-07T06:30:39.000Z</time>
</trkpt>
<trkpt lat="46.1121150" lon="10.5183130">
	<ele>2513.20</ele>
	<time>2023-08-07T06:30:40.000Z</time>
</trkpt>
<trkpt lat="46.1121170" lon="10.5183140">
	<ele>2513.20</ele>
	<time>2023-08-07T06:30:41.000Z</time>
</trkpt>
<trkpt lat="46.1121170" lon="10.5183180">
	<ele>2513.20</ele>
	<time>2023-08-07T06:30:42.000Z</time>
</trkpt>
<trkpt lat="46.1121180" lon="10.5183180">
	<ele>2513.20</ele>
	<time>2023-08-07T06:30:43.000Z</time>
</trkpt>
<trkpt lat="46.1121200" lon="10.5183180">
	<ele>2513.20</ele>
	<time>2023-08-07T06:30:44.000Z</time>
</trkpt>
<trkpt lat="46.1121210" lon="10.5183180">
	<ele>2513.60</ele>
	<time>2023-08-07T06:30:45.000Z</time>
</trkpt>
<trkpt lat="46.1121220" lon="10.5183180">
	<ele>2513.60</ele>
	<time>2023-08-07T06:30:46.000Z</time>
</trkpt>
<trkpt lat="46.1121230" lon="10.5183180">
	<ele>2513.80</ele>
	<time>2023-08-07T06:30:47.000Z</time>
</trkpt>
<trkpt lat="46.1121250" lon="10.5183180">
	<ele>2513.80</ele>
	<time>2023-08-07T06:30:48.000Z</time>
</trkpt>
<trkpt lat="46.1121250" lon="10.5183180">
	<ele>2513.80</ele>
	<time>2023-08-07T06:30:49.000Z</time>
</trkpt>
<trkpt lat="46.1121300" lon="10.5183210">
	<ele>2514.00</ele>
	<time>2023-08-07T06:30:50.000Z</time>
</trkpt>
<trkpt lat="46.1121330" lon="10.5183240">
	<ele>2514.00</ele>
	<time>2023-08-07T06:30:51.000Z</time>
</trkpt>
<trkpt lat="46.1121360" lon="10.5183240">
	<ele>2514.00</ele>
	<time>2023-08-07T06:30:52.000Z</time>
</trkpt>
<trkpt lat="46.1121380" lon="10.5183240">
	<ele>2514.00</ele>
	<time>2023-08-07T06:30:53.000Z</time>
</trkpt>
<trkpt lat="46.1121390" lon="10.5183240">
	<ele>2514.20</ele>
	<time>2023-08-07T06:30:54.000Z</time>
</trkpt>
<trkpt lat="46.1121400" lon="10.5183240">
	<ele>2514.00</ele>
	<time>2023-08-07T06:30:55.000Z</time>
</trkpt>
<trkpt lat="46.1121460" lon="10.5183240">
	<ele>2513.80</ele>
	<time>2023-08-07T06:30:56.000Z</time>
</trkpt>
<trkpt lat="46.1121490" lon="10.5183240">
	<ele>2513.80</ele>
	<time>2023-08-07T06:30:57.000Z</time>
</trkpt>
<trkpt lat="46.1121510" lon="10.5183240">
	<ele>2513.80</ele>
	<time>2023-08-07T06:30:58.000Z</time>
</trkpt>
<trkpt lat="46.1121520" lon="10.5183240">
	<ele>2513.40</ele>
	<time>2023-08-07T06:30:59.000Z</time>
</trkpt>
<trkpt lat="46.1121530" lon="10.5183240">
	<ele>2513.40</ele>
	<time>2023-08-07T06:31:00.000Z</time>
</trkpt>
<trkpt lat="46.1121540" lon="10.5183240">
	<ele>2513.40</ele>
	<time>2023-08-07T06:31:01.000Z</time>
</trkpt>
<trkpt lat="46.1121540" lon="10.5183240">
	<ele>2513.60</ele>
	<time>2023-08-07T06:31:02.000Z</time>
</trkpt>
<trkpt lat="46.1121550" lon="10.5183260">
	<ele>2513.40</ele>
	<time>2023-08-07T06:31:03.000Z</time>
</trkpt>
<trkpt lat="46.1121600" lon="10.5183260">
	<ele>2513.40</ele>
	<time>2023-08-07T06:31:04.000Z</time>
</trkpt>
<trkpt lat="46.1121630" lon="10.5183260">
	<ele>2513.40</ele>
	<time>2023-08-07T06:31:05.000Z</time>
</trkpt>
<trkpt lat="46.1121650" lon="10.5183250">
	<ele>2513.60</ele>
	<time>2023-08-07T06:31:06.000Z</time>
</trkpt>
<trkpt lat="46.1121640" lon="10.5183130">
	<ele>2513.60</ele>
	<time>2023-08-07T06:31:07.000Z</time>
</trkpt>
<trkpt lat="46.1121670" lon="10.5183070">
	<ele>2513.60</ele>
	<time>2023-08-07T06:31:08.000Z</time>
</trkpt>
<trkpt lat="46.1121720" lon="10.5183010">
	<ele>2514.00</ele>
	<time>2023-08-07T06:31:09.000Z</time>
</trkpt>
<trkpt lat="46.1121750" lon="10.5182960">
	<ele>2514.20</ele>
	<time>2023-08-07T06:31:10.000Z</time>
</trkpt>
<trkpt lat="46.1121780" lon="10.5182920">
	<ele>2514.40</ele>
	<time>2023-08-07T06:31:11.000Z</time>
</trkpt>
<trkpt lat="46.1121810" lon="10.5182920">
	<ele>2514.80</ele>
	<time>2023-08-07T06:31:12.000Z</time>
</trkpt>
<trkpt lat="46.1121860" lon="10.5182950">
	<ele>2515.00</ele>
	<time>2023-08-07T06:31:13.000Z</time>
</trkpt>
<trkpt lat="46.1121880" lon="10.5182970">
	<ele>2515.20</ele>
	<time>2023-08-07T06:31:14.000Z</time>
</trkpt>
<trkpt lat="46.1121910" lon="10.5182970">
	<ele>2515.40</ele>
	<time>2023-08-07T06:31:15.000Z</time>
</trkpt>
<trkpt lat="46.1121900" lon="10.5182990">
	<ele>2515.60</ele>
	<time>2023-08-07T06:31:16.000Z</time>
</trkpt>
<trkpt lat="46.1121860" lon="10.5183050">
	<ele>2515.60</ele>
	<time>2023-08-07T06:31:17.000Z</time>
</trkpt>
<trkpt lat="46.1121860" lon="10.5183110">
	<ele>2515.80</ele>
	<time>2023-08-07T06:31:18.000Z</time>
</trkpt>
<trkpt lat="46.1121860" lon="10.5183140">
	<ele>2515.80</ele>
	<time>2023-08-07T06:31:19.000Z</time>
</trkpt>
<trkpt lat="46.1121860" lon="10.5183100">
	<ele>2516.00</ele>
	<time>2023-08-07T06:31:20.000Z</time>
</trkpt>
<trkpt lat="46.1121860" lon="10.5183100">
	<ele>2516.20</ele>
	<time>2023-08-07T06:31:21.000Z</time>
</trkpt>
<trkpt lat="46.1121860" lon="10.5183100">
	<ele>2516.20</ele>
	<time>2023-08-07T06:31:22.000Z</time>
</trkpt>
<trkpt lat="46.1121860" lon="10.5183100">
	<ele>2516.40</ele>
	<time>2023-08-07T06:31:23.000Z</time>
</trkpt>
<trkpt lat="46.1121860" lon="10.5183100">
	<ele>2516.40</ele>
	<time>2023-08-07T06:31:24.000Z</time>
</trkpt>
<trkpt lat="46.1121860" lon="10.5183100">
	<ele>2516.60</ele>
	<time>2023-08-07T06:31:25.000Z</time>
</trkpt>
<trkpt lat="46.1121860" lon="10.5183100">
	<ele>2516.60</ele>
	<time>2023-08-07T06:31:26.000Z</time>
</trkpt>
<trkpt lat="46.1121860" lon="10.5183100">
	<ele>2517.00</ele>
	<time>2023-08-07T06:31:27.000Z</time>
</trkpt>
<trkpt lat="46.1121860" lon="10.5183100">
	<ele>2517.00</ele>
	<time>2023-08-07T06:31:28.000Z</time>
</trkpt>
<trkpt lat="46.1121860" lon="10.5183100">
	<ele>2517.00</ele>
	<time>2023-08-07T06:31:29.000Z</time>
</trkpt>
<trkpt lat="46.1121860" lon="10.5183100">
	<ele>2517.20</ele>
	<time>2023-08-07T06:31:30.000Z</time>
</trkpt>
<trkpt lat="46.1121860" lon="10.5183100">
	<ele>2517.20</ele>
	<time>2023-08-07T06:31:31.000Z</time>
</trkpt>
<trkpt lat="46.1121860" lon="10.5183100">
	<ele>2517.20</ele>
	<time>2023-08-07T06:31:32.000Z</time>
</trkpt>
<trkpt lat="46.1121880" lon="10.5183100">
	<ele>2517.20</ele>
	<time>2023-08-07T06:31:33.000Z</time>
</trkpt>
<trkpt lat="46.1121890" lon="10.5183110">
	<ele>2517.20</ele>
	<time>2023-08-07T06:31:34.000Z</time>
</trkpt>
<trkpt lat="46.1121900" lon="10.5183120">
	<ele>2517.20</ele>
	<time>2023-08-07T06:31:35.000Z</time>
</trkpt>
<trkpt lat="46.1121900" lon="10.5183140">
	<ele>2517.40</ele>
	<time>2023-08-07T06:31:36.000Z</time>
</trkpt>
<trkpt lat="46.1121910" lon="10.5183140">
	<ele>2517.60</ele>
	<time>2023-08-07T06:31:37.000Z</time>
</trkpt>
<trkpt lat="46.1121910" lon="10.5183140">
	<ele>2517.60</ele>
	<time>2023-08-07T06:31:38.000Z</time>
</trkpt>
<trkpt lat="46.1121930" lon="10.5183150">
	<ele>2517.80</ele>
	<time>2023-08-07T06:31:39.000Z</time>
</trkpt>
<trkpt lat="46.1121950" lon="10.5183150">
	<ele>2517.80</ele>
	<time>2023-08-07T06:31:40.000Z</time>
</trkpt>
<trkpt lat="46.1121940" lon="10.5183120">
	<ele>2518.00</ele>
	<time>2023-08-07T06:31:41.000Z</time>
</trkpt>
<trkpt lat="46.1121930" lon="10.5183020">
	<ele>2518.20</ele>
	<time>2023-08-07T06:31:42.000Z</time>
</trkpt>
<trkpt lat="46.1121940" lon="10.5182950">
	<ele>2518.20</ele>
	<time>2023-08-07T06:31:43.000Z</time>
</trkpt>
<trkpt lat="46.1121920" lon="10.5182890">
	<ele>2518.40</ele>
	<time>2023-08-07T06:31:44.000Z</time>
</trkpt>
<trkpt lat="46.1121910" lon="10.5182820">
	<ele>2518.40</ele>
	<time>2023-08-07T06:31:45.000Z</time>
</trkpt>
<trkpt lat="46.1121900" lon="10.5182730">
	<ele>2518.40</ele>
	<time>2023-08-07T06:31:46.000Z</time>
</trkpt>
<trkpt lat="46.1121920" lon="10.5182620">
	<ele>2518.40</ele>
	<time>2023-08-07T06:31:47.000Z</time>
</trkpt>
<trkpt lat="46.1121930" lon="10.5182540">
	<ele>2518.40</ele>
	<time>2023-08-07T06:31:48.000Z</time>
</trkpt>
<trkpt lat="46.1121980" lon="10.5182490">
	<ele>2518.60</ele>
	<time>2023-08-07T06:31:49.000Z</time>
</trkpt>
<trkpt lat="46.1121990" lon="10.5182450">
	<ele>2518.80</ele>
	<time>2023-08-07T06:31:50.000Z</time>
</trkpt>
<trkpt lat="46.1122010" lon="10.5182460">
	<ele>2519.00</ele>
	<time>2023-08-07T06:31:51.000Z</time>
</trkpt>
<trkpt lat="46.1122040" lon="10.5182440">
	<ele>2519.20</ele>
	<time>2023-08-07T06:31:52.000Z</time>
</trkpt>
<trkpt lat="46.1122060" lon="10.5182420">
	<ele>2519.40</ele>
	<time>2023-08-07T06:31:53.000Z</time>
</trkpt>
<trkpt lat="46.1122060" lon="10.5182430">
	<ele>2519.60</ele>
	<time>2023-08-07T06:31:54.000Z</time>
</trkpt>
<trkpt lat="46.1122070" lon="10.5182440">
	<ele>2519.60</ele>
	<time>2023-08-07T06:31:55.000Z</time>
</trkpt>
<trkpt lat="46.1122080" lon="10.5182430">
	<ele>2519.60</ele>
	<time>2023-08-07T06:31:56.000Z</time>
</trkpt>
<trkpt lat="46.1122080" lon="10.5182430">
	<ele>2519.80</ele>
	<time>2023-08-07T06:31:57.000Z</time>
</trkpt>
<trkpt lat="46.1122080" lon="10.5182430">
	<ele>2519.80</ele>
	<time>2023-08-07T06:31:58.000Z</time>
</trkpt>
<trkpt lat="46.1122080" lon="10.5182430">
	<ele>2519.80</ele>
	<time>2023-08-07T06:31:59.000Z</time>
</trkpt>
<trkpt lat="46.1122080" lon="10.5182430">
	<ele>2519.80</ele>
	<time>2023-08-07T06:32:00.000Z</time>
</trkpt>
<trkpt lat="46.1122080" lon="10.5182430">
	<ele>2520.20</ele>
	<time>2023-08-07T06:32:01.000Z</time>
</trkpt>
<trkpt lat="46.1122080" lon="10.5182430">
	<ele>2520.40</ele>
	<time>2023-08-07T06:32:02.000Z</time>
</trkpt>
<trkpt lat="46.1122080" lon="10.5182430">
	<ele>2520.40</ele>
	<time>2023-08-07T06:32:03.000Z</time>
</trkpt>
<trkpt lat="46.1122080" lon="10.5182430">
	<ele>2520.60</ele>
	<time>2023-08-07T06:32:04.000Z</time>
</trkpt>
<trkpt lat="46.1122080" lon="10.5182430">
	<ele>2520.60</ele>
	<time>2023-08-07T06:32:05.000Z</time>
</trkpt>
<trkpt lat="46.1122080" lon="10.5182430">
	<ele>2520.60</ele>
	<time>2023-08-07T06:32:06.000Z</time>
</trkpt>
<trkpt lat="46.1122080" lon="10.5182430">
	<ele>2520.60</ele>
	<time>2023-08-07T06:32:07.000Z</time>
</trkpt>
<trkpt lat="46.1122080" lon="10.5182430">
	<ele>2520.60</ele>
	<time>2023-08-07T06:32:08.000Z</time>
</trkpt>
<trkpt lat="46.1122080" lon="10.5182430">
	<ele>2520.60</ele>
	<time>2023-08-07T06:32:09.000Z</time>
</trkpt>
<trkpt lat="46.1122080" lon="10.5182430">
	<ele>2520.80</ele>
	<time>2023-08-07T06:32:10.000Z</time>
</trkpt>
<trkpt lat="46.1122080" lon="10.5182430">
	<ele>2521.00</ele>
	<time>2023-08-07T06:32:11.000Z</time>
</trkpt>
<trkpt lat="46.1122080" lon="10.5182420">
	<ele>2521.00</ele>
	<time>2023-08-07T06:32:12.000Z</time>
</trkpt>
<trkpt lat="46.1122090" lon="10.5182410">
	<ele>2521.00</ele>
	<time>2023-08-07T06:32:13.000Z</time>
</trkpt>
<trkpt lat="46.1122090" lon="10.5182410">
	<ele>2521.20</ele>
	<time>2023-08-07T06:32:14.000Z</time>
</trkpt>
<trkpt lat="46.1122090" lon="10.5182400">
	<ele>2521.40</ele>
	<time>2023-08-07T06:32:15.000Z</time>
</trkpt>
<trkpt lat="46.1122090" lon="10.5182400">
	<ele>2521.80</ele>
	<time>2023-08-07T06:32:16.000Z</time>
</trkpt>
<trkpt lat="46.1122090" lon="10.5182380">
	<ele>2521.80</ele>
	<time>2023-08-07T06:32:17.000Z</time>
</trkpt>
<trkpt lat="46.1122100" lon="10.5182380">
	<ele>2522.20</ele>
	<time>2023-08-07T06:32:18.000Z</time>
</trkpt>
<trkpt lat="46.1122110" lon="10.5182370">
	<ele>2522.20</ele>
	<time>2023-08-07T06:32:19.000Z</time>
</trkpt>
<trkpt lat="46.1122110" lon="10.5182370">
	<ele>2522.40</ele>
	<time>2023-08-07T06:32:20.000Z</time>
</trkpt>
<trkpt lat="46.1122110" lon="10.5182340">
	<ele>2522.40</ele>
	<time>2023-08-07T06:32:21.000Z</time>
</trkpt>
<trkpt lat="46.1122110" lon="10.5182340">
	<ele>2522.60</ele>
	<time>2023-08-07T06:32:22.000Z</time>
</trkpt>
<trkpt lat="46.1122120" lon="10.5182330">
	<ele>2522.60</ele>
	<time>2023-08-07T06:32:23.000Z</time>
</trkpt>
<trkpt lat="46.1122120" lon="10.5182330">
	<ele>2522.80</ele>
	<time>2023-08-07T06:32:24.000Z</time>
</trkpt>
<trkpt lat="46.1122120" lon="10.5182320">
	<ele>2522.80</ele>
	<time>2023-08-07T06:32:25.000Z</time>
</trkpt>
<trkpt lat="46.1122130" lon="10.5182310">
	<ele>2523.00</ele>
	<time>2023-08-07T06:32:26.000Z</time>
</trkpt>
<trkpt lat="46.1122130" lon="10.5182300">
	<ele>2523.00</ele>
	<time>2023-08-07T06:32:27.000Z</time>
</trkpt>
<trkpt lat="46.1122140" lon="10.5182260">
	<ele>2523.00</ele>
	<time>2023-08-07T06:32:28.000Z</time>
</trkpt>
<trkpt lat="46.1122140" lon="10.5182220">
	<ele>2523.20</ele>
	<time>2023-08-07T06:32:29.000Z</time>
</trkpt>
<trkpt lat="46.1122140" lon="10.5182160">
	<ele>2523.20</ele>
	<time>2023-08-07T06:32:30.000Z</time>
</trkpt>
<trkpt lat="46.1122140" lon="10.5182140">
	<ele>2523.20</ele>
	<time>2023-08-07T06:32:31.000Z</time>
</trkpt>
<trkpt lat="46.1122140" lon="10.5182120">
	<ele>2523.40</ele>
	<time>2023-08-07T06:32:32.000Z</time>
</trkpt>
<trkpt lat="46.1122140" lon="10.5182090">
	<ele>2523.40</ele>
	<time>2023-08-07T06:32:33.000Z</time>
</trkpt>
<trkpt lat="46.1122140" lon="10.5182040">
	<ele>2523.60</ele>
	<time>2023-08-07T06:32:34.000Z</time>
</trkpt>
<trkpt lat="46.1122150" lon="10.5182040">
	<ele>2523.80</ele>
	<time>2023-08-07T06:32:35.000Z</time>
</trkpt>
<trkpt lat="46.1122150" lon="10.5182030">
	<ele>2524.00</ele>
	<time>2023-08-07T06:32:36.000Z</time>
</trkpt>
<trkpt lat="46.1122170" lon="10.5182030">
	<ele>2524.00</ele>
	<time>2023-08-07T06:32:37.000Z</time>
</trkpt>
<trkpt lat="46.1122180" lon="10.5182030">
	<ele>2524.20</ele>
	<time>2023-08-07T06:32:38.000Z</time>
</trkpt>
<trkpt lat="46.1122190" lon="10.5182030">
	<ele>2524.40</ele>
	<time>2023-08-07T06:32:39.000Z</time>
</trkpt>
<trkpt lat="46.1122190" lon="10.5182000">
	<ele>2524.60</ele>
	<time>2023-08-07T06:32:40.000Z</time>
</trkpt>
<trkpt lat="46.1122200" lon="10.5181960">
	<ele>2524.80</ele>
	<time>2023-08-07T06:32:41.000Z</time>
</trkpt>
<trkpt lat="46.1122200" lon="10.5181930">
	<ele>2524.80</ele>
	<time>2023-08-07T06:32:42.000Z</time>
</trkpt>
<trkpt lat="46.1122210" lon="10.5181890">
	<ele>2525.00</ele>
	<time>2023-08-07T06:32:43.000Z</time>
</trkpt>
<trkpt lat="46.1122220" lon="10.5181880">
	<ele>2525.00</ele>
	<time>2023-08-07T06:32:44.000Z</time>
</trkpt>
<trkpt lat="46.1122220" lon="10.5181870">
	<ele>2525.20</ele>
	<time>2023-08-07T06:32:45.000Z</time>
</trkpt>
<trkpt lat="46.1122230" lon="10.5181870">
	<ele>2525.40</ele>
	<time>2023-08-07T06:32:46.000Z</time>
</trkpt>
<trkpt lat="46.1122230" lon="10.5181850">
	<ele>2525.40</ele>
	<time>2023-08-07T06:32:47.000Z</time>
</trkpt>
<trkpt lat="46.1122230" lon="10.5181850">
	<ele>2525.60</ele>
	<time>2023-08-07T06:32:48.000Z</time>
</trkpt>
<trkpt lat="46.1122240" lon="10.5181820">
	<ele>2525.60</ele>
	<time>2023-08-07T06:32:49.000Z</time>
</trkpt>
<trkpt lat="46.1122250" lon="10.5181790">
	<ele>2525.60</ele>
	<time>2023-08-07T06:32:50.000Z</time>
</trkpt>
<trkpt lat="46.1122250" lon="10.5181770">
	<ele>2525.80</ele>
	<time>2023-08-07T06:32:51.000Z</time>
</trkpt>
<trkpt lat="46.1122250" lon="10.5181760">
	<ele>2525.80</ele>
	<time>2023-08-07T06:32:52.000Z</time>
</trkpt>
<trkpt lat="46.1122260" lon="10.5181740">
	<ele>2526.00</ele>
	<time>2023-08-07T06:32:53.000Z</time>
</trkpt>
<trkpt lat="46.1122260" lon="10.5181730">
	<ele>2526.20</ele>
	<time>2023-08-07T06:32:54.000Z</time>
</trkpt>
<trkpt lat="46.1122270" lon="10.5181720">
	<ele>2526.40</ele>
	<time>2023-08-07T06:32:55.000Z</time>
</trkpt>
<trkpt lat="46.1122280" lon="10.5181720">
	<ele>2526.60</ele>
	<time>2023-08-07T06:32:56.000Z</time>
</trkpt>
<trkpt lat="46.1122280" lon="10.5181710">
	<ele>2526.60</ele>
	<time>2023-08-07T06:32:57.000Z</time>
</trkpt>
<trkpt lat="46.1122280" lon="10.5181710">
	<ele>2526.60</ele>
	<time>2023-08-07T06:32:58.000Z</time>
</trkpt>
<trkpt lat="46.1122280" lon="10.5181710">
	<ele>2526.80</ele>
	<time>2023-08-07T06:32:59.000Z</time>
</trkpt>
<trkpt lat="46.1122280" lon="10.5181710">
	<ele>2526.80</ele>
	<time>2023-08-07T06:33:00.000Z</time>
</trkpt>
<trkpt lat="46.1122280" lon="10.5181700">
	<ele>2527.00</ele>
	<time>2023-08-07T06:33:01.000Z</time>
</trkpt>
<trkpt lat="46.1122280" lon="10.5181700">
	<ele>2527.00</ele>
	<time>2023-08-07T06:33:02.000Z</time>
</trkpt>
<trkpt lat="46.1122280" lon="10.5181690">
	<ele>2527.00</ele>
	<time>2023-08-07T06:33:03.000Z</time>
</trkpt>
<trkpt lat="46.1122280" lon="10.5181690">
	<ele>2527.00</ele>
	<time>2023-08-07T06:33:04.000Z</time>
</trkpt>
<trkpt lat="46.1122280" lon="10.5181680">
	<ele>2527.00</ele>
	<time>2023-08-07T06:33:05.000Z</time>
</trkpt>
<trkpt lat="46.1122280" lon="10.5181680">
	<ele>2527.20</ele>
	<time>2023-08-07T06:33:06.000Z</time>
</trkpt>
<trkpt lat="46.1122290" lon="10.5181680">
	<ele>2527.40</ele>
	<time>2023-08-07T06:33:07.000Z</time>
</trkpt>
<trkpt lat="46.1122290" lon="10.5181670">
	<ele>2527.40</ele>
	<time>2023-08-07T06:33:08.000Z</time>
</trkpt>
<trkpt lat="46.1122310" lon="10.5181660">
	<ele>2527.60</ele>
	<time>2023-08-07T06:33:09.000Z</time>
</trkpt>
<trkpt lat="46.1122350" lon="10.5181680">
	<ele>2527.80</ele>
	<time>2023-08-07T06:33:10.000Z</time>
</trkpt>
<trkpt lat="46.1122370" lon="10.5181690">
	<ele>2528.00</ele>
	<time>2023-08-07T06:33:11.000Z</time>
</trkpt>
<trkpt lat="46.1122390" lon="10.5181700">
	<ele>2528.20</ele>
	<time>2023-08-07T06:33:12.000Z</time>
</trkpt>
<trkpt lat="46.1122400" lon="10.5181750">
	<ele>2528.40</ele>
	<time>2023-08-07T06:33:13.000Z</time>
</trkpt>
<trkpt lat="46.1122420" lon="10.5181790">
	<ele>2528.40</ele>
	<time>2023-08-07T06:33:14.000Z</time>
</trkpt>
<trkpt lat="46.1122460" lon="10.5181830">
	<ele>2528.60</ele>
	<time>2023-08-07T06:33:15.000Z</time>
</trkpt>
<trkpt lat="46.1122500" lon="10.5181920">
	<ele>2528.60</ele>
	<time>2023-08-07T06:33:16.000Z</time>
</trkpt>
<trkpt lat="46.1122510" lon="10.5181970">
	<ele>2528.60</ele>
	<time>2023-08-07T06:33:17.000Z</time>
</trkpt>
<trkpt lat="46.1122530" lon="10.5182010">
	<ele>2528.80</ele>
	<time>2023-08-07T06:33:18.000Z</time>
</trkpt>
<trkpt lat="46.1122540" lon="10.5182030">
	<ele>2528.80</ele>
	<time>2023-08-07T06:33:19.000Z</time>
</trkpt>
<trkpt lat="46.1122560" lon="10.5182070">
	<ele>2528.80</ele>
	<time>2023-08-07T06:33:20.000Z</time>
</trkpt>
<trkpt lat="46.1122580" lon="10.5182130">
	<ele>2529.00</ele>
	<time>2023-08-07T06:33:21.000Z</time>
</trkpt>
<trkpt lat="46.1122590" lon="10.5182150">
	<ele>2529.20</ele>
	<time>2023-08-07T06:33:22.000Z</time>
</trkpt>
<trkpt lat="46.1122600" lon="10.5182200">
	<ele>2529.40</ele>
	<time>2023-08-07T06:33:23.000Z</time>
</trkpt>
<trkpt lat="46.1122620" lon="10.5182210">
	<ele>2529.40</ele>
	<time>2023-08-07T06:33:24.000Z</time>
</trkpt>
<trkpt lat="46.1122630" lon="10.5182240">
	<ele>2529.60</ele>
	<time>2023-08-07T06:33:25.000Z</time>
</trkpt>
<trkpt lat="46.1122640" lon="10.5182230">
	<ele>2529.60</ele>
	<time>2023-08-07T06:33:26.000Z</time>
</trkpt>
<trkpt lat="46.1122630" lon="10.5182220">
	<ele>2529.80</ele>
	<time>2023-08-07T06:33:27.000Z</time>
</trkpt>
<trkpt lat="46.1122630" lon="10.5182210">
	<ele>2529.80</ele>
	<time>2023-08-07T06:33:28.000Z</time>
</trkpt>
<trkpt lat="46.1122640" lon="10.5182180">
	<ele>2530.00</ele>
	<time>2023-08-07T06:33:29.000Z</time>
</trkpt>
<trkpt lat="46.1122620" lon="10.5182110">
	<ele>2530.00</ele>
	<time>2023-08-07T06:33:30.000Z</time>
</trkpt>
<trkpt lat="46.1122650" lon="10.5182070">
	<ele>2530.00</ele>
	<time>2023-08-07T06:33:31.000Z</time>
</trkpt>
<trkpt lat="46.1122680" lon="10.5182030">
	<ele>2530.20</ele>
	<time>2023-08-07T06:33:32.000Z</time>
</trkpt>
<trkpt lat="46.1122720" lon="10.5182040">
	<ele>2530.40</ele>
	<time>2023-08-07T06:33:33.000Z</time>
</trkpt>
<trkpt lat="46.1122740" lon="10.5182070">
	<ele>2530.60</ele>
	<time>2023-08-07T06:33:34.000Z</time>
</trkpt>
<trkpt lat="46.1122760" lon="10.5182070">
	<ele>2530.60</ele>
	<time>2023-08-07T06:33:35.000Z</time>
</trkpt>
<trkpt lat="46.1122790" lon="10.5182040">
	<ele>2530.60</ele>
	<time>2023-08-07T06:33:36.000Z</time>
</trkpt>
<trkpt lat="46.1122820" lon="10.5182020">
	<ele>2530.80</ele>
	<time>2023-08-07T06:33:37.000Z</time>
</trkpt>
<trkpt lat="46.1122830" lon="10.5181980">
	<ele>2531.00</ele>
	<time>2023-08-07T06:33:38.000Z</time>
</trkpt>
<trkpt lat="46.1122840" lon="10.5181980">
	<ele>2531.20</ele>
	<time>2023-08-07T06:33:39.000Z</time>
</trkpt>
<trkpt lat="46.1122850" lon="10.5182000">
	<ele>2531.40</ele>
	<time>2023-08-07T06:33:40.000Z</time>
</trkpt>
<trkpt lat="46.1122870" lon="10.5182000">
	<ele>2531.40</ele>
	<time>2023-08-07T06:33:41.000Z</time>
</trkpt>
<trkpt lat="46.1122920" lon="10.5181940">
	<ele>2531.60</ele>
	<time>2023-08-07T06:33:42.000Z</time>
</trkpt>
<trkpt lat="46.1122940" lon="10.5181930">
	<ele>2531.60</ele>
	<time>2023-08-07T06:33:43.000Z</time>
</trkpt>
<trkpt lat="46.1122940" lon="10.5181940">
	<ele>2531.80</ele>
	<time>2023-08-07T06:33:44.000Z</time>
</trkpt>
<trkpt lat="46.1122960" lon="10.5181950">
	<ele>2531.80</ele>
	<time>2023-08-07T06:33:45.000Z</time>
</trkpt>
<trkpt lat="46.1122990" lon="10.5181940">
	<ele>2532.00</ele>
	<time>2023-08-07T06:33:46.000Z</time>
</trkpt>
<trkpt lat="46.1123010" lon="10.5181910">
	<ele>2532.20</ele>
	<time>2023-08-07T06:33:47.000Z</time>
</trkpt>
<trkpt lat="46.1123020" lon="10.5181910">
	<ele>2532.60</ele>
	<time>2023-08-07T06:33:48.000Z</time>
</trkpt>
<trkpt lat="46.1123030" lon="10.5181910">
	<ele>2532.80</ele>
	<time>2023-08-07T06:33:49.000Z</time>
</trkpt>
<trkpt lat="46.1123030" lon="10.5181910">
	<ele>2533.00</ele>
	<time>2023-08-07T06:33:50.000Z</time>
</trkpt>
<trkpt lat="46.1123030" lon="10.5181910">
	<ele>2533.00</ele>
	<time>2023-08-07T06:33:51.000Z</time>
</trkpt>
<trkpt lat="46.1123030" lon="10.5181910">
	<ele>2533.00</ele>
	<time>2023-08-07T06:33:52.000Z</time>
</trkpt>
<trkpt lat="46.1123030" lon="10.5181910">
	<ele>2533.20</ele>
	<time>2023-08-07T06:33:53.000Z</time>
</trkpt>
<trkpt lat="46.1123030" lon="10.5181910">
	<ele>2533.40</ele>
	<time>2023-08-07T06:33:54.000Z</time>
</trkpt>
<trkpt lat="46.1123030" lon="10.5181910">
	<ele>2533.40</ele>
	<time>2023-08-07T06:33:55.000Z</time>
</trkpt>
<trkpt lat="46.1123030" lon="10.5181910">
	<ele>2533.60</ele>
	<time>2023-08-07T06:33:56.000Z</time>
</trkpt>
<trkpt lat="46.1123030" lon="10.5181910">
	<ele>2533.60</ele>
	<time>2023-08-07T06:33:57.000Z</time>
</trkpt>
<trkpt lat="46.1123030" lon="10.5181910">
	<ele>2533.60</ele>
	<time>2023-08-07T06:33:58.000Z</time>
</trkpt>
<trkpt lat="46.1123030" lon="10.5181910">
	<ele>2533.80</ele>
	<time>2023-08-07T06:33:59.000Z</time>
</trkpt>
<trkpt lat="46.1123030" lon="10.5181910">
	<ele>2533.80</ele>
	<time>2023-08-07T06:34:00.000Z</time>
</trkpt>
<trkpt lat="46.1123030" lon="10.5181910">
	<ele>2534.00</ele>
	<time>2023-08-07T06:34:01.000Z</time>
</trkpt>
<trkpt lat="46.1123030" lon="10.5181910">
	<ele>2534.00</ele>
	<time>2023-08-07T06:34:02.000Z</time>
</trkpt>
<trkpt lat="46.1123030" lon="10.5181910">
	<ele>2534.20</ele>
	<time>2023-08-07T06:34:03.000Z</time>
</trkpt>
<trkpt lat="46.1123030" lon="10.5181910">
	<ele>2534.40</ele>
	<time>2023-08-07T06:34:04.000Z</time>
</trkpt>
<trkpt lat="46.1123030" lon="10.5181910">
	<ele>2534.60</ele>
	<time>2023-08-07T06:34:05.000Z</time>
</trkpt>
<trkpt lat="46.1123030" lon="10.5181910">
	<ele>2534.80</ele>
	<time>2023-08-07T06:34:06.000Z</time>
</trkpt>
<trkpt lat="46.1123030" lon="10.5181870">
	<ele>2534.80</ele>
	<time>2023-08-07T06:34:07.000Z</time>
</trkpt>
<trkpt lat="46.1123030" lon="10.5181830">
	<ele>2534.80</ele>
	<time>2023-08-07T06:34:08.000Z</time>
</trkpt>
<trkpt lat="46.1123040" lon="10.5181800">
	<ele>2534.80</ele>
	<time>2023-08-07T06:34:09.000Z</time>
</trkpt>
<trkpt lat="46.1123040" lon="10.5181760">
	<ele>2535.00</ele>
	<time>2023-08-07T06:34:10.000Z</time>
</trkpt>
<trkpt lat="46.1123040" lon="10.5181740">
	<ele>2535.00</ele>
	<time>2023-08-07T06:34:11.000Z</time>
</trkpt>
<trkpt lat="46.1123050" lon="10.5181730">
	<ele>2535.00</ele>
	<time>2023-08-07T06:34:12.000Z</time>
</trkpt>
<trkpt lat="46.1123060" lon="10.5181710">
	<ele>2535.20</ele>
	<time>2023-08-07T06:34:13.000Z</time>
</trkpt>
<trkpt lat="46.1123120" lon="10.5181670">
	<ele>2535.40</ele>
	<time>2023-08-07T06:34:14.000Z</time>
</trkpt>
<trkpt lat="46.1123160" lon="10.5181650">
	<ele>2535.40</ele>
	<time>2023-08-07T06:34:15.000Z</time>
</trkpt>
<trkpt lat="46.1123220" lon="10.5181630">
	<ele>2535.60</ele>
	<time>2023-08-07T06:34:16.000Z</time>
</trkpt>
<trkpt lat="46.1123250" lon="10.5181620">
	<ele>2535.80</ele>
	<time>2023-08-07T06:34:17.000Z</time>
</trkpt>
<trkpt lat="46.1123270" lon="10.5181600">
	<ele>2535.80</ele>
	<time>2023-08-07T06:34:18.000Z</time>
</trkpt>
<trkpt lat="46.1123270" lon="10.5181590">
	<ele>2536.00</ele>
	<time>2023-08-07T06:34:19.000Z</time>
</trkpt>
<trkpt lat="46.1123280" lon="10.5181580">
	<ele>2536.00</ele>
	<time>2023-08-07T06:34:20.000Z</time>
</trkpt>
<trkpt lat="46.1123310" lon="10.5181580">
	<ele>2536.20</ele>
	<time>2023-08-07T06:34:21.000Z</time>
</trkpt>
<trkpt lat="46.1123340" lon="10.5181570">
	<ele>2536.20</ele>
	<time>2023-08-07T06:34:22.000Z</time>
</trkpt>
<trkpt lat="46.1123360" lon="10.5181570">
	<ele>2536.20</ele>
	<time>2023-08-07T06:34:23.000Z</time>
</trkpt>
<trkpt lat="46.1123360" lon="10.5181560">
	<ele>2536.20</ele>
	<time>2023-08-07T06:34:24.000Z</time>
</trkpt>
<trkpt lat="46.1123370" lon="10.5181540">
	<ele>2536.40</ele>
	<time>2023-08-07T06:34:25.000Z</time>
</trkpt>
<trkpt lat="46.1123370" lon="10.5181500">
	<ele>2536.60</ele>
	<time>2023-08-07T06:34:26.000Z</time>
</trkpt>
<trkpt lat="46.1123380" lon="10.5181440">
	<ele>2536.60</ele>
	<time>2023-08-07T06:34:27.000Z</time>
</trkpt>
<trkpt lat="46.1123390" lon="10.5181380">
	<ele>2536.80</ele>
	<time>2023-08-07T06:34:28.000Z</time>
</trkpt>
<trkpt lat="46.1123400" lon="10.5181340">
	<ele>2537.00</ele>
	<time>2023-08-07T06:34:29.000Z</time>
</trkpt>
<trkpt lat="46.1123430" lon="10.5181330">
	<ele>2537.00</ele>
	<time>2023-08-07T06:34:30.000Z</time>
</trkpt>
<trkpt lat="46.1123460" lon="10.5181330">
	<ele>2537.40</ele>
	<time>2023-08-07T06:34:31.000Z</time>
</trkpt>
<trkpt lat="46.1123480" lon="10.5181320">
	<ele>2537.60</ele>
	<time>2023-08-07T06:34:32.000Z</time>
</trkpt>
<trkpt lat="46.1123500" lon="10.5181300">
	<ele>2537.80</ele>
	<time>2023-08-07T06:34:33.000Z</time>
</trkpt>
<trkpt lat="46.1123550" lon="10.5181260">
	<ele>2538.00</ele>
	<time>2023-08-07T06:34:34.000Z</time>
</trkpt>
<trkpt lat="46.1123580" lon="10.5181230">
	<ele>2538.20</ele>
	<time>2023-08-07T06:34:35.000Z</time>
</trkpt>
<trkpt lat="46.1123600" lon="10.5181220">
	<ele>2538.20</ele>
	<time>2023-08-07T06:34:36.000Z</time>
</trkpt>
<trkpt lat="46.1123620" lon="10.5181210">
	<ele>2538.40</ele>
	<time>2023-08-07T06:34:37.000Z</time>
</trkpt>
<trkpt lat="46.1123640" lon="10.5181210">
	<ele>2538.40</ele>
	<time>2023-08-07T06:34:38.000Z</time>
</trkpt>
<trkpt lat="46.1123670" lon="10.5181180">
	<ele>2538.60</ele>
	<time>2023-08-07T06:34:39.000Z</time>
</trkpt>
<trkpt lat="46.1123700" lon="10.5181160">
	<ele>2538.60</ele>
	<time>2023-08-07T06:34:40.000Z</time>
</trkpt>
<trkpt lat="46.1123720" lon="10.5181130">
	<ele>2538.80</ele>
	<time>2023-08-07T06:34:41.000Z</time>
</trkpt>
<trkpt lat="46.1123730" lon="10.5181120">
	<ele>2538.80</ele>
	<time>2023-08-07T06:34:42.000Z</time>
</trkpt>
<trkpt lat="46.1123740" lon="10.5181100">
	<ele>2538.80</ele>
	<time>2023-08-07T06:34:43.000Z</time>
</trkpt>
<trkpt lat="46.1123770" lon="10.5181090">
	<ele>2539.00</ele>
	<time>2023-08-07T06:34:44.000Z</time>
</trkpt>
<trkpt lat="46.1123790" lon="10.5181060">
	<ele>2539.20</ele>
	<time>2023-08-07T06:34:45.000Z</time>
</trkpt>
<trkpt lat="46.1123820" lon="10.5181020">
	<ele>2539.20</ele>
	<time>2023-08-07T06:34:46.000Z</time>
</trkpt>
<trkpt lat="46.1123830" lon="10.5180980">
	<ele>2539.40</ele>
	<time>2023-08-07T06:34:47.000Z</time>
</trkpt>
<trkpt lat="46.1123880" lon="10.5180920">
	<ele>2539.60</ele>
	<time>2023-08-07T06:34:48.000Z</time>
</trkpt>
<trkpt lat="46.1123930" lon="10.5180880">
	<ele>2539.80</ele>
	<time>2023-08-07T06:34:49.000Z</time>
</trkpt>
<trkpt lat="46.1123990" lon="10.5180850">
	<ele>2539.80</ele>
	<time>2023-08-07T06:34:50.000Z</time>
</trkpt>
<trkpt lat="46.1124030" lon="10.5180830">
	<ele>2540.00</ele>
	<time>2023-08-07T06:34:51.000Z</time>
</trkpt>
<trkpt lat="46.1124070" lon="10.5180820">
	<ele>2540.00</ele>
	<time>2023-08-07T06:34:52.000Z</time>
</trkpt>
<trkpt lat="46.1124100" lon="10.5180810">
	<ele>2540.20</ele>
	<time>2023-08-07T06:34:53.000Z</time>
</trkpt>
<trkpt lat="46.1124110" lon="10.5180800">
	<ele>2540.20</ele>
	<time>2023-08-07T06:34:54.000Z</time>
</trkpt>
<trkpt lat="46.1124140" lon="10.5180790">
	<ele>2540.20</ele>
	<time>2023-08-07T06:34:55.000Z</time>
</trkpt>
<trkpt lat="46.1124190" lon="10.5180780">
	<ele>2540.20</ele>
	<time>2023-08-07T06:34:56.000Z</time>
</trkpt>
<trkpt lat="46.1124230" lon="10.5180770">
	<ele>2540.20</ele>
	<time>2023-08-07T06:34:57.000Z</time>
</trkpt>
<trkpt lat="46.1124260" lon="10.5180770">
	<ele>2540.40</ele>
	<time>2023-08-07T06:34:58.000Z</time>
</trkpt>
<trkpt lat="46.1124270" lon="10.5180760">
	<ele>2540.40</ele>
	<time>2023-08-07T06:34:59.000Z</time>
</trkpt>
<trkpt lat="46.1124270" lon="10.5180760">
	<ele>2540.60</ele>
	<time>2023-08-07T06:35:00.000Z</time>
</trkpt>
<trkpt lat="46.1124270" lon="10.5180760">
	<ele>2540.60</ele>
	<time>2023-08-07T06:35:01.000Z</time>
</trkpt>
<trkpt lat="46.1124270" lon="10.5180740">
	<ele>2540.80</ele>
	<time>2023-08-07T06:35:02.000Z</time>
</trkpt>
<trkpt lat="46.1124270" lon="10.5180740">
	<ele>2540.80</ele>
	<time>2023-08-07T06:35:03.000Z</time>
</trkpt>
<trkpt lat="46.1124270" lon="10.5180740">
	<ele>2540.80</ele>
	<time>2023-08-07T06:35:04.000Z</time>
</trkpt>
<trkpt lat="46.1124270" lon="10.5180730">
	<ele>2541.00</ele>
	<time>2023-08-07T06:35:05.000Z</time>
</trkpt>
<trkpt lat="46.1124270" lon="10.5180720">
	<ele>2541.20</ele>
	<time>2023-08-07T06:35:06.000Z</time>
</trkpt>
<trkpt lat="46.1124270" lon="10.5180710">
	<ele>2541.20</ele>
	<time>2023-08-07T06:35:07.000Z</time>
</trkpt>
<trkpt lat="46.1124270" lon="10.5180700">
	<ele>2541.40</ele>
	<time>2023-08-07T06:35:08.000Z</time>
</trkpt>
<trkpt lat="46.1124270" lon="10.5180680">
	<ele>2541.60</ele>
	<time>2023-08-07T06:35:09.000Z</time>
</trkpt>
<trkpt lat="46.1124270" lon="10.5180670">
	<ele>2541.60</ele>
	<time>2023-08-07T06:35:10.000Z</time>
</trkpt>
<trkpt lat="46.1124270" lon="10.5180620">
	<ele>2541.60</ele>
	<time>2023-08-07T06:35:11.000Z</time>
</trkpt>
<trkpt lat="46.1124270" lon="10.5180560">
	<ele>2541.60</ele>
	<time>2023-08-07T06:35:12.000Z</time>
</trkpt>
<trkpt lat="46.1124270" lon="10.5180480">
	<ele>2541.60</ele>
	<time>2023-08-07T06:35:13.000Z</time>
</trkpt>
<trkpt lat="46.1124250" lon="10.5180410">
	<ele>2541.60</ele>
	<time>2023-08-07T06:35:14.000Z</time>
</trkpt>
<trkpt lat="46.1124230" lon="10.5180350">
	<ele>2541.80</ele>
	<time>2023-08-07T06:35:15.000Z</time>
</trkpt>
<trkpt lat="46.1124210" lon="10.5180330">
	<ele>2541.80</ele>
	<time>2023-08-07T06:35:16.000Z</time>
</trkpt>
<trkpt lat="46.1124180" lon="10.5180310">
	<ele>2542.20</ele>
	<time>2023-08-07T06:35:17.000Z</time>
</trkpt>
<trkpt lat="46.1124130" lon="10.5180270">
	<ele>2542.40</ele>
	<time>2023-08-07T06:35:18.000Z</time>
</trkpt>
<trkpt lat="46.1124080" lon="10.5180210">
	<ele>2542.40</ele>
	<time>2023-08-07T06:35:19.000Z</time>
</trkpt>
<trkpt lat="46.1124030" lon="10.5180180">
	<ele>2542.80</ele>
	<time>2023-08-07T06:35:20.000Z</time>
</trkpt>
<trkpt lat="46.1124010" lon="10.5180150">
	<ele>2543.20</ele>
	<time>2023-08-07T06:35:21.000Z</time>
</trkpt>
<trkpt lat="46.1124000" lon="10.5180110">
	<ele>2543.20</ele>
	<time>2023-08-07T06:35:22.000Z</time>
</trkpt>
<trkpt lat="46.1123990" lon="10.5180060">
	<ele>2543.20</ele>
	<time>2023-08-07T06:35:23.000Z</time>
</trkpt>
<trkpt lat="46.1123990" lon="10.5179990">
	<ele>2543.40</ele>
	<time>2023-08-07T06:35:24.000Z</time>
</trkpt>
<trkpt lat="46.1123990" lon="10.5179930">
	<ele>2543.40</ele>
	<time>2023-08-07T06:35:25.000Z</time>
</trkpt>
<trkpt lat="46.1123990" lon="10.5179900">
	<ele>2543.40</ele>
	<time>2023-08-07T06:35:26.000Z</time>
</trkpt>
<trkpt lat="46.1123990" lon="10.5179860">
	<ele>2543.40</ele>
	<time>2023-08-07T06:35:27.000Z</time>
</trkpt>
<trkpt lat="46.1123990" lon="10.5179810">
	<ele>2543.40</ele>
	<time>2023-08-07T06:35:28.000Z</time>
</trkpt>
<trkpt lat="46.1123990" lon="10.5179740">
	<ele>2543.40</ele>
	<time>2023-08-07T06:35:29.000Z</time>
</trkpt>
<trkpt lat="46.1123990" lon="10.5179690">
	<ele>2543.40</ele>
	<time>2023-08-07T06:35:30.000Z</time>
</trkpt>
<trkpt lat="46.1123990" lon="10.5179670">
	<ele>2543.20</ele>
	<time>2023-08-07T06:35:31.000Z</time>
</trkpt>
<trkpt lat="46.1123990" lon="10.5179650">
	<ele>2543.20</ele>
	<time>2023-08-07T06:35:32.000Z</time>
</trkpt>
<trkpt lat="46.1123990" lon="10.5179640">
	<ele>2543.20</ele>
	<time>2023-08-07T06:35:33.000Z</time>
</trkpt>
<trkpt lat="46.1123990" lon="10.5179640">
	<ele>2543.20</ele>
	<time>2023-08-07T06:35:34.000Z</time>
</trkpt>
<trkpt lat="46.1124000" lon="10.5179630">
	<ele>2543.20</ele>
	<time>2023-08-07T06:35:35.000Z</time>
</trkpt>
<trkpt lat="46.1124010" lon="10.5179630">
	<ele>2543.40</ele>
	<time>2023-08-07T06:35:36.000Z</time>
</trkpt>
<trkpt lat="46.1124020" lon="10.5179620">
	<ele>2543.60</ele>
	<time>2023-08-07T06:35:37.000Z</time>
</trkpt>
<trkpt lat="46.1124040" lon="10.5179620">
	<ele>2543.80</ele>
	<time>2023-08-07T06:35:38.000Z</time>
</trkpt>
<trkpt lat="46.1124060" lon="10.5179620">
	<ele>2544.00</ele>
	<time>2023-08-07T06:35:39.000Z</time>
</trkpt>
<trkpt lat="46.1124090" lon="10.5179600">
	<ele>2544.00</ele>
	<time>2023-08-07T06:35:40.000Z</time>
</trkpt>
<trkpt lat="46.1124120" lon="10.5179590">
	<ele>2544.00</ele>
	<time>2023-08-07T06:35:41.000Z</time>
</trkpt>
<trkpt lat="46.1124140" lon="10.5179570">
	<ele>2544.20</ele>
	<time>2023-08-07T06:35:42.000Z</time>
</trkpt>
<trkpt lat="46.1124150" lon="10.5179560">
	<ele>2544.20</ele>
	<time>2023-08-07T06:35:43.000Z</time>
</trkpt>
<trkpt lat="46.1124160" lon="10.5179560">
	<ele>2544.20</ele>
	<time>2023-08-07T06:35:44.000Z</time>
</trkpt>
<trkpt lat="46.1124170" lon="10.5179550">
	<ele>2544.40</ele>
	<time>2023-08-07T06:35:45.000Z</time>
</trkpt>
<trkpt lat="46.1124170" lon="10.5179530">
	<ele>2544.60</ele>
	<time>2023-08-07T06:35:46.000Z</time>
</trkpt>
<trkpt lat="46.1124180" lon="10.5179490">
	<ele>2545.00</ele>
	<time>2023-08-07T06:35:47.000Z</time>
</trkpt>
<trkpt lat="46.1124190" lon="10.5179410">
	<ele>2545.40</ele>
	<time>2023-08-07T06:35:48.000Z</time>
</trkpt>
<trkpt lat="46.1124190" lon="10.5179340">
	<ele>2545.60</ele>
	<time>2023-08-07T06:35:49.000Z</time>
</trkpt>
<trkpt lat="46.1124210" lon="10.5179260">
	<ele>2545.60</ele>
	<time>2023-08-07T06:35:50.000Z</time>
</trkpt>
<trkpt lat="46.1124220" lon="10.5179200">
	<ele>2545.80</ele>
	<time>2023-08-07T06:35:51.000Z</time>
</trkpt>
<trkpt lat="46.1124230" lon="10.5179150">
	<ele>2545.80</ele>
	<time>2023-08-07T06:35:52.000Z</time>
</trkpt>
<trkpt lat="46.1124260" lon="10.5179080">
	<ele>2545.80</ele>
	<time>2023-08-07T06:35:53.000Z</time>
</trkpt>
<trkpt lat="46.1124270" lon="10.5179020">
	<ele>2546.00</ele>
	<time>2023-08-07T06:35:54.000Z</time>
</trkpt>
<trkpt lat="46.1124290" lon="10.5178960">
	<ele>2546.20</ele>
	<time>2023-08-07T06:35:55.000Z</time>
</trkpt>
<trkpt lat="46.1124300" lon="10.5178920">
	<ele>2546.60</ele>
	<time>2023-08-07T06:35:56.000Z</time>
</trkpt>
<trkpt lat="46.1124320" lon="10.5178890">
	<ele>2546.80</ele>
	<time>2023-08-07T06:35:57.000Z</time>
</trkpt>
<trkpt lat="46.1124340" lon="10.5178870">
	<ele>2547.20</ele>
	<time>2023-08-07T06:35:58.000Z</time>
</trkpt>
<trkpt lat="46.1124340" lon="10.5178850">
	<ele>2547.20</ele>
	<time>2023-08-07T06:35:59.000Z</time>
</trkpt>
<trkpt lat="46.1124350" lon="10.5178840">
	<ele>2547.40</ele>
	<time>2023-08-07T06:36:00.000Z</time>
</trkpt>
<trkpt lat="46.1124370" lon="10.5178830">
	<ele>2547.60</ele>
	<time>2023-08-07T06:36:01.000Z</time>
</trkpt>
<trkpt lat="46.1124390" lon="10.5178820">
	<ele>2547.60</ele>
	<time>2023-08-07T06:36:02.000Z</time>
</trkpt>
<trkpt lat="46.1124420" lon="10.5178810">
	<ele>2547.60</ele>
	<time>2023-08-07T06:36:03.000Z</time>
</trkpt>
<trkpt lat="46.1124460" lon="10.5178810">
	<ele>2547.60</ele>
	<time>2023-08-07T06:36:04.000Z</time>
</trkpt>
<trkpt lat="46.1124500" lon="10.5178800">
	<ele>2547.60</ele>
	<time>2023-08-07T06:36:05.000Z</time>
</trkpt>
<trkpt lat="46.1124540" lon="10.5178800">
	<ele>2547.60</ele>
	<time>2023-08-07T06:36:06.000Z</time>
</trkpt>
<trkpt lat="46.1124570" lon="10.5178790">
	<ele>2547.60</ele>
	<time>2023-08-07T06:36:07.000Z</time>
</trkpt>
<trkpt lat="46.1124610" lon="10.5178790">
	<ele>2547.60</ele>
	<time>2023-08-07T06:36:08.000Z</time>
</trkpt>
<trkpt lat="46.1124650" lon="10.5178790">
	<ele>2547.60</ele>
	<time>2023-08-07T06:36:09.000Z</time>
</trkpt>
<trkpt lat="46.1124700" lon="10.5178790">
	<ele>2547.60</ele>
	<time>2023-08-07T06:36:10.000Z</time>
</trkpt>
<trkpt lat="46.1124730" lon="10.5178790">
	<ele>2547.40</ele>
	<time>2023-08-07T06:36:11.000Z</time>
</trkpt>
<trkpt lat="46.1124760" lon="10.5178780">
	<ele>2547.40</ele>
	<time>2023-08-07T06:36:12.000Z</time>
</trkpt>
<trkpt lat="46.1124780" lon="10.5178780">
	<ele>2547.20</ele>
	<time>2023-08-07T06:36:13.000Z</time>
</trkpt>
<trkpt lat="46.1124800" lon="10.5178780">
	<ele>2547.00</ele>
	<time>2023-08-07T06:36:14.000Z</time>
</trkpt>
<trkpt lat="46.1124820" lon="10.5178780">
	<ele>2547.00</ele>
	<time>2023-08-07T06:36:15.000Z</time>
</trkpt>
<trkpt lat="46.1124840" lon="10.5178780">
	<ele>2546.80</ele>
	<time>2023-08-07T06:36:16.000Z</time>
</trkpt>
<trkpt lat="46.1124850" lon="10.5178780">
	<ele>2546.80</ele>
	<time>2023-08-07T06:36:17.000Z</time>
</trkpt>
<trkpt lat="46.1124870" lon="10.5178780">
	<ele>2547.00</ele>
	<time>2023-08-07T06:36:18.000Z</time>
</trkpt>
<trkpt lat="46.1124880" lon="10.5178780">
	<ele>2547.20</ele>
	<time>2023-08-07T06:36:19.000Z</time>
</trkpt>
<trkpt lat="46.1124890" lon="10.5178770">
	<ele>2547.40</ele>
	<time>2023-08-07T06:36:20.000Z</time>
</trkpt>
<trkpt lat="46.1124910" lon="10.5178760">
	<ele>2547.40</ele>
	<time>2023-08-07T06:36:21.000Z</time>
</trkpt>
<trkpt lat="46.1124920" lon="10.5178720">
	<ele>2547.60</ele>
	<time>2023-08-07T06:36:22.000Z</time>
</trkpt>
<trkpt lat="46.1124930" lon="10.5178690">
	<ele>2547.80</ele>
	<time>2023-08-07T06:36:23.000Z</time>
</trkpt>
<trkpt lat="46.1124950" lon="10.5178650">
	<ele>2547.80</ele>
	<time>2023-08-07T06:36:24.000Z</time>
</trkpt>
<trkpt lat="46.1124960" lon="10.5178630">
	<ele>2548.00</ele>
	<time>2023-08-07T06:36:25.000Z</time>
</trkpt>
<trkpt lat="46.1124980" lon="10.5178610">
	<ele>2548.20</ele>
	<time>2023-08-07T06:36:26.000Z</time>
</trkpt>
<trkpt lat="46.1124990" lon="10.5178590">
	<ele>2548.40</ele>
	<time>2023-08-07T06:36:27.000Z</time>
</trkpt>
<trkpt lat="46.1125000" lon="10.5178570">
	<ele>2548.60</ele>
	<time>2023-08-07T06:36:28.000Z</time>
</trkpt>
<trkpt lat="46.1125010" lon="10.5178550">
	<ele>2548.60</ele>
	<time>2023-08-07T06:36:29.000Z</time>
</trkpt>
<trkpt lat="46.1125020" lon="10.5178530">
	<ele>2549.00</ele>
	<time>2023-08-07T06:36:30.000Z</time>
</trkpt>
<trkpt lat="46.1125030" lon="10.5178500">
	<ele>2549.20</ele>
	<time>2023-08-07T06:36:31.000Z</time>
</trkpt>
<trkpt lat="46.1125040" lon="10.5178480">
	<ele>2549.40</ele>
	<time>2023-08-07T06:36:32.000Z</time>
</trkpt>
<trkpt lat="46.1125040" lon="10.5178460">
	<ele>2549.40</ele>
	<time>2023-08-07T06:36:33.000Z</time>
</trkpt>
<trkpt lat="46.1125050" lon="10.5178430">
	<ele>2549.60</ele>
	<time>2023-08-07T06:36:34.000Z</time>
</trkpt>
<trkpt lat="46.1125050" lon="10.5178400">
	<ele>2549.60</ele>
	<time>2023-08-07T06:36:35.000Z</time>
</trkpt>
<trkpt lat="46.1125060" lon="10.5178350">
	<ele>2549.80</ele>
	<time>2023-08-07T06:36:36.000Z</time>
</trkpt>
<trkpt lat="46.1125070" lon="10.5178300">
	<ele>2550.00</ele>
	<time>2023-08-07T06:36:37.000Z</time>
</trkpt>
<trkpt lat="46.1125070" lon="10.5178250">
	<ele>2550.20</ele>
	<time>2023-08-07T06:36:38.000Z</time>
</trkpt>
<trkpt lat="46.1125080" lon="10.5178210">
	<ele>2550.40</ele>
	<time>2023-08-07T06:36:39.000Z</time>
</trkpt>
<trkpt lat="46.1125080" lon="10.5178160">
	<ele>2550.60</ele>
	<time>2023-08-07T06:36:40.000Z</time>
</trkpt>
<trkpt lat="46.1125090" lon="10.5178100">
	<ele>2550.60</ele>
	<time>2023-08-07T06:36:41.000Z</time>
</trkpt>
<trkpt lat="46.1125090" lon="10.5178040">
	<ele>2550.80</ele>
	<time>2023-08-07T06:36:42.000Z</time>
</trkpt>
<trkpt lat="46.1125100" lon="10.5177980">
	<ele>2551.00</ele>
	<time>2023-08-07T06:36:43.000Z</time>
</trkpt>
<trkpt lat="46.1125110" lon="10.5177930">
	<ele>2551.20</ele>
	<time>2023-08-07T06:36:44.000Z</time>
</trkpt>
<trkpt lat="46.1125110" lon="10.5177880">
	<ele>2551.40</ele>
	<time>2023-08-07T06:36:45.000Z</time>
</trkpt>
<trkpt lat="46.1125120" lon="10.5177840">
	<ele>2551.40</ele>
	<time>2023-08-07T06:36:46.000Z</time>
</trkpt>
<trkpt lat="46.1125130" lon="10.5177810">
	<ele>2551.60</ele>
	<time>2023-08-07T06:36:47.000Z</time>
</trkpt>
<trkpt lat="46.1125140" lon="10.5177780">
	<ele>2551.80</ele>
	<time>2023-08-07T06:36:48.000Z</time>
</trkpt>
<trkpt lat="46.1125150" lon="10.5177750">
	<ele>2552.00</ele>
	<time>2023-08-07T06:36:49.000Z</time>
</trkpt>
<trkpt lat="46.1125170" lon="10.5177730">
	<ele>2552.20</ele>
	<time>2023-08-07T06:36:50.000Z</time>
</trkpt>
<trkpt lat="46.1125180" lon="10.5177710">
	<ele>2552.20</ele>
	<time>2023-08-07T06:36:51.000Z</time>
</trkpt>
<trkpt lat="46.1125200" lon="10.5177690">
	<ele>2552.40</ele>
	<time>2023-08-07T06:36:52.000Z</time>
</trkpt>
<trkpt lat="46.1125210" lon="10.5177670">
	<ele>2552.60</ele>
	<time>2023-08-07T06:36:53.000Z</time>
</trkpt>
<trkpt lat="46.1125220" lon="10.5177650">
	<ele>2552.60</ele>
	<time>2023-08-07T06:36:54.000Z</time>
</trkpt>
<trkpt lat="46.1125230" lon="10.5177630">
	<ele>2552.80</ele>
	<time>2023-08-07T06:36:55.000Z</time>
</trkpt>
<trkpt lat="46.1125240" lon="10.5177610">
	<ele>2553.00</ele>
	<time>2023-08-07T06:36:56.000Z</time>
</trkpt>
<trkpt lat="46.1125250" lon="10.5177590">
	<ele>2553.20</ele>
	<time>2023-08-07T06:36:57.000Z</time>
</trkpt>
<trkpt lat="46.1125260" lon="10.5177570">
	<ele>2553.40</ele>
	<time>2023-08-07T06:36:58.000Z</time>
</trkpt>
<trkpt lat="46.1125260" lon="10.5177550">
	<ele>2553.40</ele>
	<time>2023-08-07T06:36:59.000Z</time>
</trkpt>
<trkpt lat="46.1125270" lon="10.5177530">
	<ele>2553.60</ele>
	<time>2023-08-07T06:37:00.000Z</time>
</trkpt>
<trkpt lat="46.1125270" lon="10.5177510">
	<ele>2553.80</ele>
	<time>2023-08-07T06:37:01.000Z</time>
</trkpt>
<trkpt lat="46.1125280" lon="10.5177490">
	<ele>2554.00</ele>
	<time>2023-08-07T06:37:02.000Z</time>
</trkpt>
<trkpt lat="46.1125280" lon="10.5177470">
	<ele>2554.20</ele>
	<time>2023-08-07T06:37:03.000Z</time>
</trkpt>
<trkpt lat="46.1125290" lon="10.5177460">
	<ele>2554.20</ele>
	<time>2023-08-07T06:37:04.000Z</time>
</trkpt>
<trkpt lat="46.1125290" lon="10.5177440">
	<ele>2554.40</ele>
	<time>2023-08-07T06:37:05.000Z</time>
</trkpt>
<trkpt lat="46.1125290" lon="10.5177430">
	<ele>2554.80</ele>
	<time>2023-08-07T06:37:06.000Z</time>
</trkpt>
<trkpt lat="46.1125300" lon="10.5177430">
	<ele>2555.00</ele>
	<time>2023-08-07T06:37:07.000Z</time>
</trkpt>
<trkpt lat="46.1125300" lon="10.5177420">
	<ele>2555.00</ele>
	<time>2023-08-07T06:37:08.000Z</time>
</trkpt>
<trkpt lat="46.1125300" lon="10.5177420">
	<ele>2555.00</ele>
	<time>2023-08-07T06:37:09.000Z</time>
</trkpt>
<trkpt lat="46.1125300" lon="10.5177410">
	<ele>2555.00</ele>
	<time>2023-08-07T06:37:10.000Z</time>
</trkpt>
<trkpt lat="46.1125310" lon="10.5177410">
	<ele>2555.00</ele>
	<time>2023-08-07T06:37:11.000Z</time>
</trkpt>
<trkpt lat="46.1125310" lon="10.5177410">
	<ele>2555.00</ele>
	<time>2023-08-07T06:37:12.000Z</time>
</trkpt>
<trkpt lat="46.1125310" lon="10.5177410">
	<ele>2555.00</ele>
	<time>2023-08-07T06:37:13.000Z</time>
</trkpt>
<trkpt lat="46.1125310" lon="10.5177410">
	<ele>2555.00</ele>
	<time>2023-08-07T06:37:14.000Z</time>
</trkpt>
<trkpt lat="46.1125310" lon="10.5177410">
	<ele>2555.00</ele>
	<time>2023-08-07T06:37:15.000Z</time>
</trkpt>
<trkpt lat="46.1125320" lon="10.5177400">
	<ele>2555.00</ele>
	<time>2023-08-07T06:37:16.000Z</time>
</trkpt>
<trkpt lat="46.1125320" lon="10.5177400">
	<ele>2554.80</ele>
	<time>2023-08-07T06:37:17.000Z</time>
</trkpt>
<trkpt lat="46.1125320" lon="10.5177390">
	<ele>2554.80</ele>
	<time>2023-08-07T06:37:18.000Z</time>
</trkpt>
<trkpt lat="46.1125320" lon="10.5177390">
	<ele>2554.80</ele>
	<time>2023-08-07T06:37:19.000Z</time>
</trkpt>
<trkpt lat="46.1125320" lon="10.5177380">
	<ele>2554.80</ele>
	<time>2023-08-07T06:37:20.000Z</time>
</trkpt>
<trkpt lat="46.1125320" lon="10.5177380">
	<ele>2554.80</ele>
	<time>2023-08-07T06:37:21.000Z</time>
</trkpt>
<trkpt lat="46.1125330" lon="10.5177380">
	<ele>2554.80</ele>
	<time>2023-08-07T06:37:22.000Z</time>
</trkpt>
<trkpt lat="46.1125330" lon="10.5177380">
	<ele>2554.80</ele>
	<time>2023-08-07T06:37:23.000Z</time>
</trkpt>
<trkpt lat="46.1125330" lon="10.5177370">
	<ele>2554.80</ele>
	<time>2023-08-07T06:37:24.000Z</time>
</trkpt>
<trkpt lat="46.1125330" lon="10.5177370">
	<ele>2554.80</ele>
	<time>2023-08-07T06:37:25.000Z</time>
</trkpt>
<trkpt lat="46.1125460" lon="10.5177150">
	<ele>2554.80</ele>
	<time>2023-08-07T06:37:26.000Z</time>
</trkpt>
<trkpt lat="46.1125630" lon="10.5176940">
	<ele>2555.00</ele>
	<time>2023-08-07T06:37:27.000Z</time>
</trkpt>
<trkpt lat="46.1125850" lon="10.5176740">
	<ele>2555.00</ele>
	<time>2023-08-07T06:37:28.000Z</time>
</trkpt>
<trkpt lat="46.1126040" lon="10.5176500">
	<ele>2555.00</ele>
	<time>2023-08-07T06:37:29.000Z</time>
</trkpt>
<trkpt lat="46.1126190" lon="10.5176300">
	<ele>2555.20</ele>
	<time>2023-08-07T06:37:30.000Z</time>
</trkpt>
<trkpt lat="46.1126340" lon="10.5176050">
	<ele>2555.20</ele>
	<time>2023-08-07T06:37:31.000Z</time>
</trkpt>
<trkpt lat="46.1126480" lon="10.5175770">
	<ele>2555.40</ele>
	<time>2023-08-07T06:37:32.000Z</time>
</trkpt>
<trkpt lat="46.1126640" lon="10.5175470">
	<ele>2555.80</ele>
	<time>2023-08-07T06:37:33.000Z</time>
</trkpt>
<trkpt lat="46.1126820" lon="10.5175200">
	<ele>2556.00</ele>
	<time>2023-08-07T06:37:34.000Z</time>
</trkpt>
<trkpt lat="46.1126990" lon="10.5174880">
	<ele>2556.20</ele>
	<time>2023-08-07T06:37:35.000Z</time>
</trkpt>
<trkpt lat="46.1127010" lon="10.5174810">
	<ele>2556.40</ele>
	<time>2023-08-07T06:37:36.000Z</time>
</trkpt>
<trkpt lat="46.1127030" lon="10.5174770">
	<ele>2556.60</ele>
	<time>2023-08-07T06:37:37.000Z</time>
</trkpt>
<trkpt lat="46.1127040" lon="10.5174730">
	<ele>2556.60</ele>
	<time>2023-08-07T06:37:38.000Z</time>
</trkpt>
<trkpt lat="46.1127060" lon="10.5174660">
	<ele>2556.60</ele>
	<time>2023-08-07T06:37:39.000Z</time>
</trkpt>
<trkpt lat="46.1127100" lon="10.5174590">
	<ele>2556.80</ele>
	<time>2023-08-07T06:37:40.000Z</time>
</trkpt>
<trkpt lat="46.1127120" lon="10.5174580">
	<ele>2556.80</ele>
	<time>2023-08-07T06:37:41.000Z</time>
</trkpt>
<trkpt lat="46.1127120" lon="10.5174570">
	<ele>2556.80</ele>
	<time>2023-08-07T06:37:42.000Z</time>
</trkpt>
<trkpt lat="46.1127100" lon="10.5174530">
	<ele>2556.80</ele>
	<time>2023-08-07T06:37:43.000Z</time>
</trkpt>
<trkpt lat="46.1127110" lon="10.5174480">
	<ele>2556.80</ele>
	<time>2023-08-07T06:37:44.000Z</time>
</trkpt>
<trkpt lat="46.1127080" lon="10.5174390">
	<ele>2556.80</ele>
	<time>2023-08-07T06:37:45.000Z</time>
</trkpt>
<trkpt lat="46.1127040" lon="10.5174330">
	<ele>2557.00</ele>
	<time>2023-08-07T06:37:46.000Z</time>
</trkpt>
<trkpt lat="46.1126990" lon="10.5174280">
	<ele>2557.00</ele>
	<time>2023-08-07T06:37:47.000Z</time>
</trkpt>
<trkpt lat="46.1126950" lon="10.5174200">
	<ele>2557.20</ele>
	<time>2023-08-07T06:37:48.000Z</time>
</trkpt>
<trkpt lat="46.1126930" lon="10.5174140">
	<ele>2557.40</ele>
	<time>2023-08-07T06:37:49.000Z</time>
</trkpt>
<trkpt lat="46.1126900" lon="10.5174110">
	<ele>2557.40</ele>
	<time>2023-08-07T06:37:50.000Z</time>
</trkpt>
<trkpt lat="46.1126860" lon="10.5174050">
	<ele>2557.40</ele>
	<time>2023-08-07T06:37:51.000Z</time>
</trkpt>
<trkpt lat="46.1126840" lon="10.5174030">
	<ele>2557.60</ele>
	<time>2023-08-07T06:37:52.000Z</time>
</trkpt>
<trkpt lat="46.1126820" lon="10.5173970">
	<ele>2557.60</ele>
	<time>2023-08-07T06:37:53.000Z</time>
</trkpt>
<trkpt lat="46.1126780" lon="10.5173860">
	<ele>2558.40</ele>
	<time>2023-08-07T06:37:54.000Z</time>
</trkpt>
<trkpt lat="46.1126760" lon="10.5173820">
	<ele>2558.80</ele>
	<time>2023-08-07T06:37:55.000Z</time>
</trkpt>
<trkpt lat="46.1126740" lon="10.5173800">
	<ele>2559.00</ele>
	<time>2023-08-07T06:37:56.000Z</time>
</trkpt>
<trkpt lat="46.1126730" lon="10.5173770">
	<ele>2559.20</ele>
	<time>2023-08-07T06:37:57.000Z</time>
</trkpt>
<trkpt lat="46.1126740" lon="10.5173760">
	<ele>2559.20</ele>
	<time>2023-08-07T06:37:58.000Z</time>
</trkpt>
<trkpt lat="46.1126750" lon="10.5173750">
	<ele>2559.40</ele>
	<time>2023-08-07T06:37:59.000Z</time>
</trkpt>
<trkpt lat="46.1126770" lon="10.5173720">
	<ele>2559.60</ele>
	<time>2023-08-07T06:38:00.000Z</time>
</trkpt>
<trkpt lat="46.1126750" lon="10.5173650">
	<ele>2559.60</ele>
	<time>2023-08-07T06:38:01.000Z</time>
</trkpt>
<trkpt lat="46.1126740" lon="10.5173620">
	<ele>2559.80</ele>
	<time>2023-08-07T06:38:02.000Z</time>
</trkpt>
<trkpt lat="46.1126690" lon="10.5173640">
	<ele>2559.80</ele>
	<time>2023-08-07T06:38:03.000Z</time>
</trkpt>
<trkpt lat="46.1126660" lon="10.5173660">
	<ele>2559.80</ele>
	<time>2023-08-07T06:38:04.000Z</time>
</trkpt>
<trkpt lat="46.1126640" lon="10.5173610">
	<ele>2559.80</ele>
	<time>2023-08-07T06:38:05.000Z</time>
</trkpt>
<trkpt lat="46.1126570" lon="10.5173530">
	<ele>2559.80</ele>
	<time>2023-08-07T06:38:06.000Z</time>
</trkpt>
<trkpt lat="46.1126530" lon="10.5173500">
	<ele>2559.80</ele>
	<time>2023-08-07T06:38:07.000Z</time>
</trkpt>
<trkpt lat="46.1126500" lon="10.5173430">
	<ele>2559.80</ele>
	<time>2023-08-07T06:38:08.000Z</time>
</trkpt>
<trkpt lat="46.1126440" lon="10.5173330">
	<ele>2560.00</ele>
	<time>2023-08-07T06:38:09.000Z</time>
</trkpt>
<trkpt lat="46.1126430" lon="10.5173270">
	<ele>2560.20</ele>
	<time>2023-08-07T06:38:10.000Z</time>
</trkpt>
<trkpt lat="46.1126410" lon="10.5173240">
	<ele>2560.60</ele>
	<time>2023-08-07T06:38:11.000Z</time>
</trkpt>
<trkpt lat="46.1126380" lon="10.5173260">
	<ele>2560.80</ele>
	<time>2023-08-07T06:38:12.000Z</time>
</trkpt>
<trkpt lat="46.1126360" lon="10.5173270">
	<ele>2560.80</ele>
	<time>2023-08-07T06:38:13.000Z</time>
</trkpt>
<trkpt lat="46.1126330" lon="10.5173270">
	<ele>2561.00</ele>
	<time>2023-08-07T06:38:14.000Z</time>
</trkpt>
<trkpt lat="46.1126310" lon="10.5173290">
	<ele>2561.00</ele>
	<time>2023-08-07T06:38:15.000Z</time>
</trkpt>
<trkpt lat="46.1126260" lon="10.5173300">
	<ele>2561.00</ele>
	<time>2023-08-07T06:38:16.000Z</time>
</trkpt>
<trkpt lat="46.1126210" lon="10.5173310">
	<ele>2561.20</ele>
	<time>2023-08-07T06:38:17.000Z</time>
</trkpt>
<trkpt lat="46.1126150" lon="10.5173300">
	<ele>2561.40</ele>
	<time>2023-08-07T06:38:18.000Z</time>
</trkpt>
<trkpt lat="46.1126130" lon="10.5173290">
	<ele>2561.80</ele>
	<time>2023-08-07T06:38:19.000Z</time>
</trkpt>
<trkpt lat="46.1126100" lon="10.5173310">
	<ele>2562.20</ele>
	<time>2023-08-07T06:38:20.000Z</time>
</trkpt>
<trkpt lat="46.1126090" lon="10.5173330">
	<ele>2562.40</ele>
	<time>2023-08-07T06:38:21.000Z</time>
</trkpt>
<trkpt lat="46.1126070" lon="10.5173350">
	<ele>2562.60</ele>
	<time>2023-08-07T06:38:22.000Z</time>
</trkpt>
<trkpt lat="46.1126010" lon="10.5173470">
	<ele>2562.60</ele>
	<time>2023-08-07T06:38:23.000Z</time>
</trkpt>
<trkpt lat="46.1125960" lon="10.5173520">
	<ele>2562.80</ele>
	<time>2023-08-07T06:38:24.000Z</time>
</trkpt>
<trkpt lat="46.1125910" lon="10.5173490">
	<ele>2562.80</ele>
	<time>2023-08-07T06:38:25.000Z</time>
</trkpt>
<trkpt lat="46.1125870" lon="10.5173480">
	<ele>2563.00</ele>
	<time>2023-08-07T06:38:26.000Z</time>
</trkpt>
<trkpt lat="46.1125840" lon="10.5173510">
	<ele>2563.00</ele>
	<time>2023-08-07T06:38:27.000Z</time>
</trkpt>
<trkpt lat="46.1125810" lon="10.5173550">
	<ele>2563.20</ele>
	<time>2023-08-07T06:38:28.000Z</time>
</trkpt>
<trkpt lat="46.1125770" lon="10.5173510">
	<ele>2563.20</ele>
	<time>2023-08-07T06:38:29.000Z</time>
</trkpt>
<trkpt lat="46.1125750" lon="10.5173420">
	<ele>2563.40</ele>
	<time>2023-08-07T06:38:30.000Z</time>
</trkpt>
<trkpt lat="46.1125730" lon="10.5173370">
	<ele>2563.60</ele>
	<time>2023-08-07T06:38:31.000Z</time>
</trkpt>
<trkpt lat="46.1125720" lon="10.5173350">
	<ele>2564.00</ele>
	<time>2023-08-07T06:38:32.000Z</time>
</trkpt>
<trkpt lat="46.1125750" lon="10.5173310">
	<ele>2564.20</ele>
	<time>2023-08-07T06:38:33.000Z</time>
</trkpt>
<trkpt lat="46.1125750" lon="10.5173300">
	<ele>2564.40</ele>
	<time>2023-08-07T06:38:34.000Z</time>
</trkpt>
<trkpt lat="46.1125730" lon="10.5173240">
	<ele>2564.40</ele>
	<time>2023-08-07T06:38:35.000Z</time>
</trkpt>
<trkpt lat="46.1125720" lon="10.5173200">
	<ele>2564.60</ele>
	<time>2023-08-07T06:38:36.000Z</time>
</trkpt>
<trkpt lat="46.1125710" lon="10.5173180">
	<ele>2564.60</ele>
	<time>2023-08-07T06:38:37.000Z</time>
</trkpt>
<trkpt lat="46.1125700" lon="10.5173170">
	<ele>2565.00</ele>
	<time>2023-08-07T06:38:38.000Z</time>
</trkpt>
<trkpt lat="46.1125700" lon="10.5173170">
	<ele>2565.00</ele>
	<time>2023-08-07T06:38:39.000Z</time>
</trkpt>
<trkpt lat="46.1125700" lon="10.5173170">
	<ele>2565.20</ele>
	<time>2023-08-07T06:38:40.000Z</time>
</trkpt>
<trkpt lat="46.1125700" lon="10.5173170">
	<ele>2565.20</ele>
	<time>2023-08-07T06:38:41.000Z</time>
</trkpt>
<trkpt lat="46.1125700" lon="10.5173170">
	<ele>2565.20</ele>
	<time>2023-08-07T06:38:42.000Z</time>
</trkpt>
<trkpt lat="46.1125700" lon="10.5173170">
	<ele>2565.40</ele>
	<time>2023-08-07T06:38:43.000Z</time>
</trkpt>
<trkpt lat="46.1125700" lon="10.5173170">
	<ele>2565.60</ele>
	<time>2023-08-07T06:38:44.000Z</time>
</trkpt>
<trkpt lat="46.1125700" lon="10.5173170">
	<ele>2565.60</ele>
	<time>2023-08-07T06:38:45.000Z</time>
</trkpt>
<trkpt lat="46.1125700" lon="10.5173170">
	<ele>2565.60</ele>
	<time>2023-08-07T06:38:46.000Z</time>
</trkpt>
<trkpt lat="46.1125700" lon="10.5173170">
	<ele>2565.60</ele>
	<time>2023-08-07T06:38:47.000Z</time>
</trkpt>
<trkpt lat="46.1125700" lon="10.5173170">
	<ele>2565.60</ele>
	<time>2023-08-07T06:38:48.000Z</time>
</trkpt>
<trkpt lat="46.1125700" lon="10.5173170">
	<ele>2565.60</ele>
	<time>2023-08-07T06:38:49.000Z</time>
</trkpt>
<trkpt lat="46.1125700" lon="10.5173170">
	<ele>2565.80</ele>
	<time>2023-08-07T06:38:50.000Z</time>
</trkpt>
<trkpt lat="46.1125700" lon="10.5173170">
	<ele>2566.00</ele>
	<time>2023-08-07T06:38:51.000Z</time>
</trkpt>
<trkpt lat="46.1125700" lon="10.5173170">
	<ele>2566.00</ele>
	<time>2023-08-07T06:38:52.000Z</time>
</trkpt>
<trkpt lat="46.1125700" lon="10.5173170">
	<ele>2566.20</ele>
	<time>2023-08-07T06:38:53.000Z</time>
</trkpt>
<trkpt lat="46.1125690" lon="10.5173170">
	<ele>2566.40</ele>
	<time>2023-08-07T06:38:54.000Z</time>
</trkpt>
<trkpt lat="46.1125660" lon="10.5173130">
	<ele>2566.60</ele>
	<time>2023-08-07T06:38:55.000Z</time>
</trkpt>
<trkpt lat="46.1125590" lon="10.5173120">
	<ele>2566.80</ele>
	<time>2023-08-07T06:38:56.000Z</time>
</trkpt>
<trkpt lat="46.1125520" lon="10.5173120">
	<ele>2566.80</ele>
	<time>2023-08-07T06:38:57.000Z</time>
</trkpt>
<trkpt lat="46.1125490" lon="10.5173110">
	<ele>2567.00</ele>
	<time>2023-08-07T06:38:58.000Z</time>
</trkpt>
<trkpt lat="46.1125480" lon="10.5173080">
	<ele>2567.00</ele>
	<time>2023-08-07T06:38:59.000Z</time>
</trkpt>
<trkpt lat="46.1125450" lon="10.5173060">
	<ele>2567.00</ele>
	<time>2023-08-07T06:39:00.000Z</time>
</trkpt>
<trkpt lat="46.1125390" lon="10.5173050">
	<ele>2567.00</ele>
	<time>2023-08-07T06:39:01.000Z</time>
</trkpt>
<trkpt lat="46.1125350" lon="10.5173040">
	<ele>2567.20</ele>
	<time>2023-08-07T06:39:02.000Z</time>
</trkpt>
<trkpt lat="46.1125330" lon="10.5173000">
	<ele>2567.40</ele>
	<time>2023-08-07T06:39:03.000Z</time>
</trkpt>
<trkpt lat="46.1125310" lon="10.5172970">
	<ele>2567.60</ele>
	<time>2023-08-07T06:39:04.000Z</time>
</trkpt>
<trkpt lat="46.1125270" lon="10.5172960">
	<ele>2567.60</ele>
	<time>2023-08-07T06:39:05.000Z</time>
</trkpt>
<trkpt lat="46.1125230" lon="10.5172940">
	<ele>2567.60</ele>
	<time>2023-08-07T06:39:06.000Z</time>
</trkpt>
<trkpt lat="46.1125180" lon="10.5172940">
	<ele>2567.60</ele>
	<time>2023-08-07T06:39:07.000Z</time>
</trkpt>
<trkpt lat="46.1125150" lon="10.5172930">
	<ele>2567.60</ele>
	<time>2023-08-07T06:39:08.000Z</time>
</trkpt>
<trkpt lat="46.1125140" lon="10.5172930">
	<ele>2567.80</ele>
	<time>2023-08-07T06:39:09.000Z</time>
</trkpt>
<trkpt lat="46.1125130" lon="10.5172870">
	<ele>2567.80</ele>
	<time>2023-08-07T06:39:10.000Z</time>
</trkpt>
<trkpt lat="46.1125130" lon="10.5172860">
	<ele>2567.80</ele>
	<time>2023-08-07T06:39:11.000Z</time>
</trkpt>
<trkpt lat="46.1125120" lon="10.5172770">
	<ele>2568.20</ele>
	<time>2023-08-07T06:39:12.000Z</time>
</trkpt>
<trkpt lat="46.1125100" lon="10.5172720">
	<ele>2568.40</ele>
	<time>2023-08-07T06:39:13.000Z</time>
</trkpt>
<trkpt lat="46.1125070" lon="10.5172710">
	<ele>2568.60</ele>
	<time>2023-08-07T06:39:14.000Z</time>
</trkpt>
<trkpt lat="46.1125020" lon="10.5172710">
	<ele>2568.60</ele>
	<time>2023-08-07T06:39:15.000Z</time>
</trkpt>
<trkpt lat="46.1124980" lon="10.5172690">
	<ele>2568.60</ele>
	<time>2023-08-07T06:39:16.000Z</time>
</trkpt>
<trkpt lat="46.1124920" lon="10.5172660">
	<ele>2568.60</ele>
	<time>2023-08-07T06:39:17.000Z</time>
</trkpt>
<trkpt lat="46.1124880" lon="10.5172650">
	<ele>2568.80</ele>
	<time>2023-08-07T06:39:18.000Z</time>
</trkpt>
<trkpt lat="46.1124830" lon="10.5172650">
	<ele>2568.80</ele>
	<time>2023-08-07T06:39:19.000Z</time>
</trkpt>
<trkpt lat="46.1124800" lon="10.5172580">
	<ele>2568.80</ele>
	<time>2023-08-07T06:39:20.000Z</time>
</trkpt>
<trkpt lat="46.1124710" lon="10.5172470">
	<ele>2568.80</ele>
	<time>2023-08-07T06:39:21.000Z</time>
</trkpt>
<trkpt lat="46.1124630" lon="10.5172390">
	<ele>2568.80</ele>
	<time>2023-08-07T06:39:22.000Z</time>
</trkpt>
<trkpt lat="46.1124560" lon="10.5172310">
	<ele>2568.80</ele>
	<time>2023-08-07T06:39:23.000Z</time>
</trkpt>
<trkpt lat="46.1124470" lon="10.5172190">
	<ele>2568.80</ele>
	<time>2023-08-07T06:39:24.000Z</time>
</trkpt>
<trkpt lat="46.1124350" lon="10.5172130">
	<ele>2569.00</ele>
	<time>2023-08-07T06:39:25.000Z</time>
</trkpt>
<trkpt lat="46.1124270" lon="10.5172030">
	<ele>2569.20</ele>
	<time>2023-08-07T06:39:26.000Z</time>
</trkpt>
<trkpt lat="46.1124180" lon="10.5171990">
	<ele>2569.20</ele>
	<time>2023-08-07T06:39:27.000Z</time>
</trkpt>
<trkpt lat="46.1124100" lon="10.5171870">
	<ele>2569.40</ele>
	<time>2023-08-07T06:39:28.000Z</time>
</trkpt>
<trkpt lat="46.1124020" lon="10.5171720">
	<ele>2569.60</ele>
	<time>2023-08-07T06:39:29.000Z</time>
</trkpt>
<trkpt lat="46.1123960" lon="10.5171630">
	<ele>2569.60</ele>
	<time>2023-08-07T06:39:30.000Z</time>
</trkpt>
<trkpt lat="46.1123920" lon="10.5171550">
	<ele>2569.60</ele>
	<time>2023-08-07T06:39:31.000Z</time>
</trkpt>
<trkpt lat="46.1123860" lon="10.5171520">
	<ele>2569.80</ele>
	<time>2023-08-07T06:39:32.000Z</time>
</trkpt>
<trkpt lat="46.1123810" lon="10.5171470">
	<ele>2569.80</ele>
	<time>2023-08-07T06:39:33.000Z</time>
</trkpt>
<trkpt lat="46.1123760" lon="10.5171400">
	<ele>2570.00</ele>
	<time>2023-08-07T06:39:34.000Z</time>
</trkpt>
<trkpt lat="46.1123710" lon="10.5171340">
	<ele>2570.20</ele>
	<time>2023-08-07T06:39:35.000Z</time>
</trkpt>
<trkpt lat="46.1123670" lon="10.5171290">
	<ele>2570.20</ele>
	<time>2023-08-07T06:39:36.000Z</time>
</trkpt>
<trkpt lat="46.1123640" lon="10.5171240">
	<ele>2570.40</ele>
	<time>2023-08-07T06:39:37.000Z</time>
</trkpt>
<trkpt lat="46.1123560" lon="10.5171220">
	<ele>2570.40</ele>
	<time>2023-08-07T06:39:38.000Z</time>
</trkpt>
<trkpt lat="46.1123500" lon="10.5171190">
	<ele>2570.40</ele>
	<time>2023-08-07T06:39:39.000Z</time>
</trkpt>
<trkpt lat="46.1123470" lon="10.5171110">
	<ele>2570.40</ele>
	<time>2023-08-07T06:39:40.000Z</time>
</trkpt>
<trkpt lat="46.1123430" lon="10.5171060">
	<ele>2570.20</ele>
	<time>2023-08-07T06:39:41.000Z</time>
</trkpt>
<trkpt lat="46.1123370" lon="10.5171000">
	<ele>2570.20</ele>
	<time>2023-08-07T06:39:42.000Z</time>
</trkpt>
<trkpt lat="46.1123320" lon="10.5170940">
	<ele>2570.20</ele>
	<time>2023-08-07T06:39:43.000Z</time>
</trkpt>
<trkpt lat="46.1123260" lon="10.5170920">
	<ele>2570.20</ele>
	<time>2023-08-07T06:39:44.000Z</time>
</trkpt>
<trkpt lat="46.1123190" lon="10.5170880">
	<ele>2570.20</ele>
	<time>2023-08-07T06:39:45.000Z</time>
</trkpt>
<trkpt lat="46.1123140" lon="10.5170790">
	<ele>2570.20</ele>
	<time>2023-08-07T06:39:46.000Z</time>
</trkpt>
<trkpt lat="46.1123080" lon="10.5170710">
	<ele>2570.20</ele>
	<time>2023-08-07T06:39:47.000Z</time>
</trkpt>
<trkpt lat="46.1123020" lon="10.5170660">
	<ele>2570.20</ele>
	<time>2023-08-07T06:39:48.000Z</time>
</trkpt>
<trkpt lat="46.1122960" lon="10.5170600">
	<ele>2570.20</ele>
	<time>2023-08-07T06:39:49.000Z</time>
</trkpt>
<trkpt lat="46.1122930" lon="10.5170530">
	<ele>2570.40</ele>
	<time>2023-08-07T06:39:50.000Z</time>
</trkpt>
<trkpt lat="46.1122900" lon="10.5170430">
	<ele>2570.60</ele>
	<time>2023-08-07T06:39:51.000Z</time>
</trkpt>
<trkpt lat="46.1122880" lon="10.5170350">
	<ele>2570.60</ele>
	<time>2023-08-07T06:39:52.000Z</time>
</trkpt>
<trkpt lat="46.1122850" lon="10.5170280">
	<ele>2570.60</ele>
	<time>2023-08-07T06:39:53.000Z</time>
</trkpt>
<trkpt lat="46.1122760" lon="10.5170300">
	<ele>2570.80</ele>
	<time>2023-08-07T06:39:54.000Z</time>
</trkpt>
<trkpt lat="46.1122690" lon="10.5170280">
	<ele>2570.80</ele>
	<time>2023-08-07T06:39:55.000Z</time>
</trkpt>
<trkpt lat="46.1122630" lon="10.5170230">
	<ele>2570.80</ele>
	<time>2023-08-07T06:39:56.000Z</time>
</trkpt>
<trkpt lat="46.1122570" lon="10.5170160">
	<ele>2570.80</ele>
	<time>2023-08-07T06:39:57.000Z</time>
</trkpt>
<trkpt lat="46.1122530" lon="10.5170120">
	<ele>2570.60</ele>
	<time>2023-08-07T06:39:58.000Z</time>
</trkpt>
<trkpt lat="46.1122490" lon="10.5170050">
	<ele>2570.40</ele>
	<time>2023-08-07T06:39:59.000Z</time>
</trkpt>
<trkpt lat="46.1122420" lon="10.5170050">
	<ele>2570.40</ele>
	<time>2023-08-07T06:40:00.000Z</time>
</trkpt>
<trkpt lat="46.1122360" lon="10.5170040">
	<ele>2570.20</ele>
	<time>2023-08-07T06:40:01.000Z</time>
</trkpt>
<trkpt lat="46.1122280" lon="10.5170080">
	<ele>2570.60</ele>
	<time>2023-08-07T06:40:02.000Z</time>
</trkpt>
<trkpt lat="46.1122230" lon="10.5170080">
	<ele>2571.00</ele>
	<time>2023-08-07T06:40:03.000Z</time>
</trkpt>
<trkpt lat="46.1122180" lon="10.5170070">
	<ele>2571.40</ele>
	<time>2023-08-07T06:40:04.000Z</time>
</trkpt>
<trkpt lat="46.1122140" lon="10.5170070">
	<ele>2571.60</ele>
	<time>2023-08-07T06:40:05.000Z</time>
</trkpt>
<trkpt lat="46.1122130" lon="10.5170070">
	<ele>2571.80</ele>
	<time>2023-08-07T06:40:06.000Z</time>
</trkpt>
<trkpt lat="46.1122110" lon="10.5170040">
	<ele>2572.00</ele>
	<time>2023-08-07T06:40:07.000Z</time>
</trkpt>
<trkpt lat="46.1122090" lon="10.5169980">
	<ele>2572.40</ele>
	<time>2023-08-07T06:40:08.000Z</time>
</trkpt>
<trkpt lat="46.1122080" lon="10.5169890">
	<ele>2572.60</ele>
	<time>2023-08-07T06:40:09.000Z</time>
</trkpt>
<trkpt lat="46.1122050" lon="10.5169780">
	<ele>2572.80</ele>
	<time>2023-08-07T06:40:10.000Z</time>
</trkpt>
<trkpt lat="46.1122020" lon="10.5169740">
	<ele>2572.80</ele>
	<time>2023-08-07T06:40:11.000Z</time>
</trkpt>
<trkpt lat="46.1122000" lon="10.5169700">
	<ele>2572.80</ele>
	<time>2023-08-07T06:40:12.000Z</time>
</trkpt>
<trkpt lat="46.1121980" lon="10.5169670">
	<ele>2573.00</ele>
	<time>2023-08-07T06:40:13.000Z</time>
</trkpt>
<trkpt lat="46.1121950" lon="10.5169600">
	<ele>2573.20</ele>
	<time>2023-08-07T06:40:14.000Z</time>
</trkpt>
<trkpt lat="46.1121950" lon="10.5169510">
	<ele>2573.20</ele>
	<time>2023-08-07T06:40:15.000Z</time>
</trkpt>
<trkpt lat="46.1121920" lon="10.5169460">
	<ele>2573.40</ele>
	<time>2023-08-07T06:40:16.000Z</time>
</trkpt>
<trkpt lat="46.1121900" lon="10.5169410">
	<ele>2573.60</ele>
	<time>2023-08-07T06:40:17.000Z</time>
</trkpt>
<trkpt lat="46.1121890" lon="10.5169330">
	<ele>2573.60</ele>
	<time>2023-08-07T06:40:18.000Z</time>
</trkpt>
<trkpt lat="46.1121870" lon="10.5169280">
	<ele>2573.80</ele>
	<time>2023-08-07T06:40:19.000Z</time>
</trkpt>
<trkpt lat="46.1121840" lon="10.5169280">
	<ele>2574.00</ele>
	<time>2023-08-07T06:40:20.000Z</time>
</trkpt>
<trkpt lat="46.1121810" lon="10.5169240">
	<ele>2574.00</ele>
	<time>2023-08-07T06:40:21.000Z</time>
</trkpt>
<trkpt lat="46.1121800" lon="10.5169180">
	<ele>2574.00</ele>
	<time>2023-08-07T06:40:22.000Z</time>
</trkpt>
<trkpt lat="46.1121810" lon="10.5169060">
	<ele>2574.20</ele>
	<time>2023-08-07T06:40:23.000Z</time>
</trkpt>
<trkpt lat="46.1121800" lon="10.5168980">
	<ele>2574.40</ele>
	<time>2023-08-07T06:40:24.000Z</time>
</trkpt>
<trkpt lat="46.1121780" lon="10.5168880">
	<ele>2574.60</ele>
	<time>2023-08-07T06:40:25.000Z</time>
</trkpt>
<trkpt lat="46.1121770" lon="10.5168830">
	<ele>2574.80</ele>
	<time>2023-08-07T06:40:26.000Z</time>
</trkpt>
<trkpt lat="46.1121750" lon="10.5168780">
	<ele>2574.80</ele>
	<time>2023-08-07T06:40:27.000Z</time>
</trkpt>
<trkpt lat="46.1121750" lon="10.5168700">
	<ele>2575.00</ele>
	<time>2023-08-07T06:40:28.000Z</time>
</trkpt>
<trkpt lat="46.1121760" lon="10.5168640">
	<ele>2575.00</ele>
	<time>2023-08-07T06:40:29.000Z</time>
</trkpt>
<trkpt lat="46.1121780" lon="10.5168610">
	<ele>2575.20</ele>
	<time>2023-08-07T06:40:30.000Z</time>
</trkpt>
<trkpt lat="46.1121790" lon="10.5168570">
	<ele>2575.40</ele>
	<time>2023-08-07T06:40:31.000Z</time>
</trkpt>
<trkpt lat="46.1121860" lon="10.5168480">
	<ele>2575.60</ele>
	<time>2023-08-07T06:40:32.000Z</time>
</trkpt>
<trkpt lat="46.1121880" lon="10.5168500">
	<ele>2575.60</ele>
	<time>2023-08-07T06:40:33.000Z</time>
</trkpt>
<trkpt lat="46.1121910" lon="10.5168510">
	<ele>2575.80</ele>
	<time>2023-08-07T06:40:34.000Z</time>
</trkpt>
<trkpt lat="46.1121970" lon="10.5168470">
	<ele>2575.80</ele>
	<time>2023-08-07T06:40:35.000Z</time>
</trkpt>
<trkpt lat="46.1122000" lon="10.5168490">
	<ele>2576.00</ele>
	<time>2023-08-07T06:40:36.000Z</time>
</trkpt>
<trkpt lat="46.1122030" lon="10.5168490">
	<ele>2576.20</ele>
	<time>2023-08-07T06:40:37.000Z</time>
</trkpt>
<trkpt lat="46.1122050" lon="10.5168490">
	<ele>2576.20</ele>
	<time>2023-08-07T06:40:38.000Z</time>
</trkpt>
<trkpt lat="46.1122070" lon="10.5168500">
	<ele>2576.40</ele>
	<time>2023-08-07T06:40:39.000Z</time>
</trkpt>
<trkpt lat="46.1122090" lon="10.5168490">
	<ele>2576.60</ele>
	<time>2023-08-07T06:40:40.000Z</time>
</trkpt>
<trkpt lat="46.1122110" lon="10.5168500">
	<ele>2576.60</ele>
	<time>2023-08-07T06:40:41.000Z</time>
</trkpt>
<trkpt lat="46.1122120" lon="10.5168500">
	<ele>2576.80</ele>
	<time>2023-08-07T06:40:42.000Z</time>
</trkpt>
<trkpt lat="46.1122130" lon="10.5168510">
	<ele>2577.00</ele>
	<time>2023-08-07T06:40:43.000Z</time>
</trkpt>
<trkpt lat="46.1122130" lon="10.5168500">
	<ele>2577.20</ele>
	<time>2023-08-07T06:40:44.000Z</time>
</trkpt>
<trkpt lat="46.1122160" lon="10.5168480">
	<ele>2577.40</ele>
	<time>2023-08-07T06:40:45.000Z</time>
</trkpt>
<trkpt lat="46.1122180" lon="10.5168470">
	<ele>2577.40</ele>
	<time>2023-08-07T06:40:46.000Z</time>
</trkpt>
<trkpt lat="46.1122180" lon="10.5168460">
	<ele>2577.40</ele>
	<time>2023-08-07T06:40:47.000Z</time>
</trkpt>
<trkpt lat="46.1122190" lon="10.5168440">
	<ele>2577.60</ele>
	<time>2023-08-07T06:40:48.000Z</time>
</trkpt>
<trkpt lat="46.1122230" lon="10.5168380">
	<ele>2577.80</ele>
	<time>2023-08-07T06:40:49.000Z</time>
</trkpt>
<trkpt lat="46.1122260" lon="10.5168390">
	<ele>2578.00</ele>
	<time>2023-08-07T06:40:50.000Z</time>
</trkpt>
<trkpt lat="46.1122290" lon="10.5168400">
	<ele>2578.00</ele>
	<time>2023-08-07T06:40:51.000Z</time>
</trkpt>
<trkpt lat="46.1122320" lon="10.5168410">
	<ele>2578.00</ele>
	<time>2023-08-07T06:40:52.000Z</time>
</trkpt>
<trkpt lat="46.1122340" lon="10.5168380">
	<ele>2578.20</ele>
	<time>2023-08-07T06:40:53.000Z</time>
</trkpt>
<trkpt lat="46.1122410" lon="10.5168330">
	<ele>2578.20</ele>
	<time>2023-08-07T06:40:54.000Z</time>
</trkpt>
<trkpt lat="46.1122470" lon="10.5168320">
	<ele>2578.40</ele>
	<time>2023-08-07T06:40:55.000Z</time>
</trkpt>
<trkpt lat="46.1122510" lon="10.5168410">
	<ele>2578.60</ele>
	<time>2023-08-07T06:40:56.000Z</time>
</trkpt>
<trkpt lat="46.1122540" lon="10.5168430">
	<ele>2578.80</ele>
	<time>2023-08-07T06:40:57.000Z</time>
</trkpt>
<trkpt lat="46.1122560" lon="10.5168440">
	<ele>2579.00</ele>
	<time>2023-08-07T06:40:58.000Z</time>
</trkpt>
<trkpt lat="46.1122580" lon="10.5168400">
	<ele>2579.20</ele>
	<time>2023-08-07T06:40:59.000Z</time>
</trkpt>
<trkpt lat="46.1122620" lon="10.5168380">
	<ele>2579.40</ele>
	<time>2023-08-07T06:41:00.000Z</time>
</trkpt>
<trkpt lat="46.1122670" lon="10.5168370">
	<ele>2579.40</ele>
	<time>2023-08-07T06:41:01.000Z</time>
</trkpt>
<trkpt lat="46.1122690" lon="10.5168370">
	<ele>2579.60</ele>
	<time>2023-08-07T06:41:02.000Z</time>
</trkpt>
<trkpt lat="46.1122720" lon="10.5168380">
	<ele>2579.60</ele>
	<time>2023-08-07T06:41:03.000Z</time>
</trkpt>
<trkpt lat="46.1122790" lon="10.5168350">
	<ele>2579.80</ele>
	<time>2023-08-07T06:41:04.000Z</time>
</trkpt>
<trkpt lat="46.1122830" lon="10.5168360">
	<ele>2579.80</ele>
	<time>2023-08-07T06:41:05.000Z</time>
</trkpt>
<trkpt lat="46.1122880" lon="10.5168350">
	<ele>2579.80</ele>
	<time>2023-08-07T06:41:06.000Z</time>
</trkpt>
<trkpt lat="46.1122940" lon="10.5168310">
	<ele>2579.80</ele>
	<time>2023-08-07T06:41:07.000Z</time>
</trkpt>
<trkpt lat="46.1123020" lon="10.5168280">
	<ele>2580.00</ele>
	<time>2023-08-07T06:41:08.000Z</time>
</trkpt>
<trkpt lat="46.1123060" lon="10.5168230">
	<ele>2580.00</ele>
	<time>2023-08-07T06:41:09.000Z</time>
</trkpt>
<trkpt lat="46.1123070" lon="10.5168200">
	<ele>2580.20</ele>
	<time>2023-08-07T06:41:10.000Z</time>
</trkpt>
<trkpt lat="46.1123100" lon="10.5168170">
	<ele>2580.20</ele>
	<time>2023-08-07T06:41:11.000Z</time>
</trkpt>
<trkpt lat="46.1123140" lon="10.5168170">
	<ele>2580.40</ele>
	<time>2023-08-07T06:41:12.000Z</time>
</trkpt>
<trkpt lat="46.1123190" lon="10.5168160">
	<ele>2580.80</ele>
	<time>2023-08-07T06:41:13.000Z</time>
</trkpt>
<trkpt lat="46.1123220" lon="10.5168180">
	<ele>2581.00</ele>
	<time>2023-08-07T06:41:14.000Z</time>
</trkpt>
<trkpt lat="46.1123200" lon="10.5168190">
	<ele>2581.00</ele>
	<time>2023-08-07T06:41:15.000Z</time>
</trkpt>
<trkpt lat="46.1123240" lon="10.5168250">
	<ele>2581.20</ele>
	<time>2023-08-07T06:41:16.000Z</time>
</trkpt>
<trkpt lat="46.1123310" lon="10.5168280">
	<ele>2581.20</ele>
	<time>2023-08-07T06:41:17.000Z</time>
</trkpt>
<trkpt lat="46.1123350" lon="10.5168280">
	<ele>2581.20</ele>
	<time>2023-08-07T06:41:18.000Z</time>
</trkpt>
<trkpt lat="46.1123380" lon="10.5168290">
	<ele>2581.40</ele>
	<time>2023-08-07T06:41:19.000Z</time>
</trkpt>
<trkpt lat="46.1123420" lon="10.5168290">
	<ele>2581.40</ele>
	<time>2023-08-07T06:41:20.000Z</time>
</trkpt>
<trkpt lat="46.1123460" lon="10.5168290">
	<ele>2581.60</ele>
	<time>2023-08-07T06:41:21.000Z</time>
</trkpt>
<trkpt lat="46.1123570" lon="10.5168230">
	<ele>2581.80</ele>
	<time>2023-08-07T06:41:22.000Z</time>
</trkpt>
<trkpt lat="46.1123640" lon="10.5168260">
	<ele>2581.80</ele>
	<time>2023-08-07T06:41:23.000Z</time>
</trkpt>
<trkpt lat="46.1123720" lon="10.5168250">
	<ele>2581.80</ele>
	<time>2023-08-07T06:41:24.000Z</time>
</trkpt>
<trkpt lat="46.1123730" lon="10.5168220">
	<ele>2581.80</ele>
	<time>2023-08-07T06:41:25.000Z</time>
</trkpt>
<trkpt lat="46.1123740" lon="10.5168220">
	<ele>2581.80</ele>
	<time>2023-08-07T06:41:26.000Z</time>
</trkpt>
<trkpt lat="46.1123810" lon="10.5168230">
	<ele>2581.80</ele>
	<time>2023-08-07T06:41:27.000Z</time>
</trkpt>
<trkpt lat="46.1123810" lon="10.5168250">
	<ele>2582.00</ele>
	<time>2023-08-07T06:41:28.000Z</time>
</trkpt>
<trkpt lat="46.1123790" lon="10.5168240">
	<ele>2582.00</ele>
	<time>2023-08-07T06:41:29.000Z</time>
</trkpt>
<trkpt lat="46.1123790" lon="10.5168260">
	<ele>2582.00</ele>
	<time>2023-08-07T06:41:30.000Z</time>
</trkpt>
<trkpt lat="46.1123780" lon="10.5168290">
	<ele>2582.00</ele>
	<time>2023-08-07T06:41:31.000Z</time>
</trkpt>
<trkpt lat="46.1123790" lon="10.5168280">
	<ele>2582.00</ele>
	<time>2023-08-07T06:41:32.000Z</time>
</trkpt>
<trkpt lat="46.1123780" lon="10.5168280">
	<ele>2582.00</ele>
	<time>2023-08-07T06:41:33.000Z</time>
</trkpt>
<trkpt lat="46.1123780" lon="10.5168280">
	<ele>2582.20</ele>
	<time>2023-08-07T06:41:34.000Z</time>
</trkpt>
<trkpt lat="46.1123770" lon="10.5168280">
	<ele>2582.20</ele>
	<time>2023-08-07T06:41:35.000Z</time>
</trkpt>
<trkpt lat="46.1123770" lon="10.5168280">
	<ele>2582.20</ele>
	<time>2023-08-07T06:41:36.000Z</time>
</trkpt>
<trkpt lat="46.1123770" lon="10.5168280">
	<ele>2582.20</ele>
	<time>2023-08-07T06:41:37.000Z</time>
</trkpt>
<trkpt lat="46.1123770" lon="10.5168280">
	<ele>2582.40</ele>
	<time>2023-08-07T06:41:38.000Z</time>
</trkpt>
<trkpt lat="46.1123770" lon="10.5168280">
	<ele>2582.20</ele>
	<time>2023-08-07T06:41:39.000Z</time>
</trkpt>
<trkpt lat="46.1123770" lon="10.5168280">
	<ele>2582.00</ele>
	<time>2023-08-07T06:41:40.000Z</time>
</trkpt>
<trkpt lat="46.1123770" lon="10.5168280">
	<ele>2582.00</ele>
	<time>2023-08-07T06:41:41.000Z</time>
</trkpt>
<trkpt lat="46.1123770" lon="10.5168280">
	<ele>2581.80</ele>
	<time>2023-08-07T06:41:42.000Z</time>
</trkpt>
<trkpt lat="46.1123770" lon="10.5168280">
	<ele>2581.80</ele>
	<time>2023-08-07T06:41:43.000Z</time>
</trkpt>
<trkpt lat="46.1123770" lon="10.5168280">
	<ele>2581.80</ele>
	<time>2023-08-07T06:41:44.000Z</time>
</trkpt>
<trkpt lat="46.1123780" lon="10.5168290">
	<ele>2581.80</ele>
	<time>2023-08-07T06:41:45.000Z</time>
</trkpt>
<trkpt lat="46.1123830" lon="10.5168250">
	<ele>2582.00</ele>
	<time>2023-08-07T06:41:46.000Z</time>
</trkpt>
<trkpt lat="46.1123830" lon="10.5168220">
	<ele>2582.40</ele>
	<time>2023-08-07T06:41:47.000Z</time>
</trkpt>
<trkpt lat="46.1123810" lon="10.5168210">
	<ele>2582.40</ele>
	<time>2023-08-07T06:41:48.000Z</time>
</trkpt>
<trkpt lat="46.1123780" lon="10.5168190">
	<ele>2582.60</ele>
	<time>2023-08-07T06:41:49.000Z</time>
</trkpt>
<trkpt lat="46.1123760" lon="10.5168130">
	<ele>2582.80</ele>
	<time>2023-08-07T06:41:50.000Z</time>
</trkpt>
<trkpt lat="46.1123770" lon="10.5168070">
	<ele>2583.00</ele>
	<time>2023-08-07T06:41:51.000Z</time>
</trkpt>
<trkpt lat="46.1123790" lon="10.5168010">
	<ele>2583.20</ele>
	<time>2023-08-07T06:41:52.000Z</time>
</trkpt>
<trkpt lat="46.1123800" lon="10.5167950">
	<ele>2583.20</ele>
	<time>2023-08-07T06:41:53.000Z</time>
</trkpt>
<trkpt lat="46.1123810" lon="10.5167830">
	<ele>2583.40</ele>
	<time>2023-08-07T06:41:54.000Z</time>
</trkpt>
<trkpt lat="46.1123850" lon="10.5167750">
	<ele>2583.60</ele>
	<time>2023-08-07T06:41:55.000Z</time>
</trkpt>
<trkpt lat="46.1123920" lon="10.5167700">
	<ele>2583.60</ele>
	<time>2023-08-07T06:41:56.000Z</time>
</trkpt>
<trkpt lat="46.1123990" lon="10.5167620">
	<ele>2583.80</ele>
	<time>2023-08-07T06:41:57.000Z</time>
</trkpt>
<trkpt lat="46.1124040" lon="10.5167580">
	<ele>2583.80</ele>
	<time>2023-08-07T06:41:58.000Z</time>
</trkpt>
<trkpt lat="46.1124080" lon="10.5167580">
	<ele>2583.80</ele>
	<time>2023-08-07T06:41:59.000Z</time>
</trkpt>
<trkpt lat="46.1124110" lon="10.5167570">
	<ele>2584.00</ele>
	<time>2023-08-07T06:42:00.000Z</time>
</trkpt>
<trkpt lat="46.1124120" lon="10.5167600">
	<ele>2584.20</ele>
	<time>2023-08-07T06:42:01.000Z</time>
</trkpt>
<trkpt lat="46.1124140" lon="10.5167590">
	<ele>2584.20</ele>
	<time>2023-08-07T06:42:02.000Z</time>
</trkpt>
<trkpt lat="46.1124150" lon="10.5167570">
	<ele>2584.40</ele>
	<time>2023-08-07T06:42:03.000Z</time>
</trkpt>
<trkpt lat="46.1124190" lon="10.5167550">
	<ele>2584.40</ele>
	<time>2023-08-07T06:42:04.000Z</time>
</trkpt>
<trkpt lat="46.1124180" lon="10.5167470">
	<ele>2584.60</ele>
	<time>2023-08-07T06:42:05.000Z</time>
</trkpt>
<trkpt lat="46.1124150" lon="10.5167400">
	<ele>2584.80</ele>
	<time>2023-08-07T06:42:06.000Z</time>
</trkpt>
<trkpt lat="46.1124160" lon="10.5167370">
	<ele>2585.00</ele>
	<time>2023-08-07T06:42:07.000Z</time>
</trkpt>
<trkpt lat="46.1124180" lon="10.5167340">
	<ele>2585.20</ele>
	<time>2023-08-07T06:42:08.000Z</time>
</trkpt>
<trkpt lat="46.1124210" lon="10.5167300">
	<ele>2585.20</ele>
	<time>2023-08-07T06:42:09.000Z</time>
</trkpt>
<trkpt lat="46.1124270" lon="10.5167260">
	<ele>2585.40</ele>
	<time>2023-08-07T06:42:10.000Z</time>
</trkpt>
<trkpt lat="46.1124320" lon="10.5167190">
	<ele>2585.60</ele>
	<time>2023-08-07T06:42:11.000Z</time>
</trkpt>
<trkpt lat="46.1124320" lon="10.5167080">
	<ele>2585.60</ele>
	<time>2023-08-07T06:42:12.000Z</time>
</trkpt>
<trkpt lat="46.1124290" lon="10.5167000">
	<ele>2585.60</ele>
	<time>2023-08-07T06:42:13.000Z</time>
</trkpt>
<trkpt lat="46.1124280" lon="10.5166940">
	<ele>2585.60</ele>
	<time>2023-08-07T06:42:14.000Z</time>
</trkpt>
<trkpt lat="46.1124280" lon="10.5166860">
	<ele>2585.80</ele>
	<time>2023-08-07T06:42:15.000Z</time>
</trkpt>
<trkpt lat="46.1124270" lon="10.5166820">
	<ele>2585.80</ele>
	<time>2023-08-07T06:42:16.000Z</time>
</trkpt>
<trkpt lat="46.1124270" lon="10.5166790">
	<ele>2585.80</ele>
	<time>2023-08-07T06:42:17.000Z</time>
</trkpt>
<trkpt lat="46.1124290" lon="10.5166780">
	<ele>2586.00</ele>
	<time>2023-08-07T06:42:18.000Z</time>
</trkpt>
<trkpt lat="46.1124310" lon="10.5166770">
	<ele>2586.00</ele>
	<time>2023-08-07T06:42:19.000Z</time>
</trkpt>
<trkpt lat="46.1124310" lon="10.5166730">
	<ele>2586.20</ele>
	<time>2023-08-07T06:42:20.000Z</time>
</trkpt>
<trkpt lat="46.1124300" lon="10.5166700">
	<ele>2586.40</ele>
	<time>2023-08-07T06:42:21.000Z</time>
</trkpt>
<trkpt lat="46.1124270" lon="10.5166620">
	<ele>2586.60</ele>
	<time>2023-08-07T06:42:22.000Z</time>
</trkpt>
<trkpt lat="46.1124290" lon="10.5166550">
	<ele>2586.60</ele>
	<time>2023-08-07T06:42:23.000Z</time>
</trkpt>
<trkpt lat="46.1124320" lon="10.5166480">
	<ele>2586.80</ele>
	<time>2023-08-07T06:42:24.000Z</time>
</trkpt>
<trkpt lat="46.1124330" lon="10.5166430">
	<ele>2587.00</ele>
	<time>2023-08-07T06:42:25.000Z</time>
</trkpt>
<trkpt lat="46.1124320" lon="10.5166410">
	<ele>2587.00</ele>
	<time>2023-08-07T06:42:26.000Z</time>
</trkpt>
<trkpt lat="46.1124330" lon="10.5166370">
	<ele>2587.20</ele>
	<time>2023-08-07T06:42:27.000Z</time>
</trkpt>
<trkpt lat="46.1124340" lon="10.5166300">
	<ele>2587.40</ele>
	<time>2023-08-07T06:42:28.000Z</time>
</trkpt>
<trkpt lat="46.1124340" lon="10.5166230">
	<ele>2587.40</ele>
	<time>2023-08-07T06:42:29.000Z</time>
</trkpt>
<trkpt lat="46.1124330" lon="10.5166170">
	<ele>2587.40</ele>
	<time>2023-08-07T06:42:30.000Z</time>
</trkpt>
<trkpt lat="46.1124320" lon="10.5166090">
	<ele>2587.40</ele>
	<time>2023-08-07T06:42:31.000Z</time>
</trkpt>
<trkpt lat="46.1124320" lon="10.5166040">
	<ele>2587.60</ele>
	<time>2023-08-07T06:42:32.000Z</time>
</trkpt>
<trkpt lat="46.1124320" lon="10.5165970">
	<ele>2587.60</ele>
	<time>2023-08-07T06:42:33.000Z</time>
</trkpt>
<trkpt lat="46.1124330" lon="10.5165930">
	<ele>2587.80</ele>
	<time>2023-08-07T06:42:34.000Z</time>
</trkpt>
<trkpt lat="46.1124360" lon="10.5165880">
	<ele>2587.80</ele>
	<time>2023-08-07T06:42:35.000Z</time>
</trkpt>
<trkpt lat="46.1124360" lon="10.5165830">
	<ele>2588.00</ele>
	<time>2023-08-07T06:42:36.000Z</time>
</trkpt>
<trkpt lat="46.1124360" lon="10.5165810">
	<ele>2588.00</ele>
	<time>2023-08-07T06:42:37.000Z</time>
</trkpt>
<trkpt lat="46.1124380" lon="10.5165800">
	<ele>2588.00</ele>
	<time>2023-08-07T06:42:38.000Z</time>
</trkpt>
<trkpt lat="46.1124380" lon="10.5165720">
	<ele>2588.20</ele>
	<time>2023-08-07T06:42:39.000Z</time>
</trkpt>
<trkpt lat="46.1124390" lon="10.5165610">
	<ele>2588.20</ele>
	<time>2023-08-07T06:42:40.000Z</time>
</trkpt>
<trkpt lat="46.1124360" lon="10.5165540">
	<ele>2588.40</ele>
	<time>2023-08-07T06:42:41.000Z</time>
</trkpt>
<trkpt lat="46.1124330" lon="10.5165510">
	<ele>2588.40</ele>
	<time>2023-08-07T06:42:42.000Z</time>
</trkpt>
<trkpt lat="46.1124300" lon="10.5165490">
	<ele>2588.60</ele>
	<time>2023-08-07T06:42:43.000Z</time>
</trkpt>
<trkpt lat="46.1124300" lon="10.5165460">
	<ele>2588.60</ele>
	<time>2023-08-07T06:42:44.000Z</time>
</trkpt>
<trkpt lat="46.1124280" lon="10.5165410">
	<ele>2588.80</ele>
	<time>2023-08-07T06:42:45.000Z</time>
</trkpt>
<trkpt lat="46.1124250" lon="10.5165360">
	<ele>2589.00</ele>
	<time>2023-08-07T06:42:46.000Z</time>
</trkpt>
<trkpt lat="46.1124240" lon="10.5165360">
	<ele>2589.00</ele>
	<time>2023-08-07T06:42:47.000Z</time>
</trkpt>
<trkpt lat="46.1124260" lon="10.5165330">
	<ele>2589.00</ele>
	<time>2023-08-07T06:42:48.000Z</time>
</trkpt>
<trkpt lat="46.1124300" lon="10.5165290">
	<ele>2589.40</ele>
	<time>2023-08-07T06:42:49.000Z</time>
</trkpt>
<trkpt lat="46.1124320" lon="10.5165260">
	<ele>2589.80</ele>
	<time>2023-08-07T06:42:50.000Z</time>
</trkpt>
<trkpt lat="46.1124350" lon="10.5165220">
	<ele>2590.00</ele>
	<time>2023-08-07T06:42:51.000Z</time>
</trkpt>
<trkpt lat="46.1124370" lon="10.5165170">
	<ele>2590.00</ele>
	<time>2023-08-07T06:42:52.000Z</time>
</trkpt>
<trkpt lat="46.1124430" lon="10.5165180">
	<ele>2590.40</ele>
	<time>2023-08-07T06:42:53.000Z</time>
</trkpt>
<trkpt lat="46.1124500" lon="10.5165130">
	<ele>2590.40</ele>
	<time>2023-08-07T06:42:54.000Z</time>
</trkpt>
<trkpt lat="46.1124520" lon="10.5165110">
	<ele>2590.60</ele>
	<time>2023-08-07T06:42:55.000Z</time>
</trkpt>
<trkpt lat="46.1124520" lon="10.5165110">
	<ele>2590.80</ele>
	<time>2023-08-07T06:42:56.000Z</time>
</trkpt>
<trkpt lat="46.1124520" lon="10.5165110">
	<ele>2590.80</ele>
	<time>2023-08-07T06:42:57.000Z</time>
</trkpt>
<trkpt lat="46.1124520" lon="10.5165110">
	<ele>2591.00</ele>
	<time>2023-08-07T06:42:58.000Z</time>
</trkpt>
<trkpt lat="46.1124520" lon="10.5165110">
	<ele>2591.00</ele>
	<time>2023-08-07T06:42:59.000Z</time>
</trkpt>
<trkpt lat="46.1124520" lon="10.5165110">
	<ele>2591.20</ele>
	<time>2023-08-07T06:43:00.000Z</time>
</trkpt>
<trkpt lat="46.1124520" lon="10.5165110">
	<ele>2591.20</ele>
	<time>2023-08-07T06:43:01.000Z</time>
</trkpt>
<trkpt lat="46.1124520" lon="10.5165110">
	<ele>2591.40</ele>
	<time>2023-08-07T06:43:02.000Z</time>
</trkpt>
<trkpt lat="46.1124520" lon="10.5165110">
	<ele>2591.60</ele>
	<time>2023-08-07T06:43:03.000Z</time>
</trkpt>
<trkpt lat="46.1124520" lon="10.5165110">
	<ele>2591.80</ele>
	<time>2023-08-07T06:43:04.000Z</time>
</trkpt>
<trkpt lat="46.1124520" lon="10.5165110">
	<ele>2591.80</ele>
	<time>2023-08-07T06:43:05.000Z</time>
</trkpt>
<trkpt lat="46.1124520" lon="10.5165110">
	<ele>2592.00</ele>
	<time>2023-08-07T06:43:06.000Z</time>
</trkpt>
<trkpt lat="46.1124520" lon="10.5165110">
	<ele>2592.00</ele>
	<time>2023-08-07T06:43:07.000Z</time>
</trkpt>
<trkpt lat="46.1124520" lon="10.5165110">
	<ele>2592.20</ele>
	<time>2023-08-07T06:43:08.000Z</time>
</trkpt>
<trkpt lat="46.1124520" lon="10.5165110">
	<ele>2592.20</ele>
	<time>2023-08-07T06:43:09.000Z</time>
</trkpt>
<trkpt lat="46.1124520" lon="10.5165110">
	<ele>2592.40</ele>
	<time>2023-08-07T06:43:10.000Z</time>
</trkpt>
<trkpt lat="46.1124520" lon="10.5165090">
	<ele>2592.60</ele>
	<time>2023-08-07T06:43:11.000Z</time>
</trkpt>
<trkpt lat="46.1124520" lon="10.5165020">
	<ele>2592.80</ele>
	<time>2023-08-07T06:43:12.000Z</time>
</trkpt>
<trkpt lat="46.1124530" lon="10.5164940">
	<ele>2593.00</ele>
	<time>2023-08-07T06:43:13.000Z</time>
</trkpt>
<trkpt lat="46.1124540" lon="10.5164930">
	<ele>2593.20</ele>
	<time>2023-08-07T06:43:14.000Z</time>
</trkpt>
<trkpt lat="46.1124560" lon="10.5164910">
	<ele>2593.20</ele>
	<time>2023-08-07T06:43:15.000Z</time>
</trkpt>
<trkpt lat="46.1124570" lon="10.5164900">
	<ele>2593.40</ele>
	<time>2023-08-07T06:43:16.000Z</time>
</trkpt>
<trkpt lat="46.1124590" lon="10.5164860">
	<ele>2593.40</ele>
	<time>2023-08-07T06:43:17.000Z</time>
</trkpt>
<trkpt lat="46.1124620" lon="10.5164850">
	<ele>2593.80</ele>
	<time>2023-08-07T06:43:18.000Z</time>
</trkpt>
<trkpt lat="46.1124650" lon="10.5164850">
	<ele>2593.80</ele>
	<time>2023-08-07T06:43:19.000Z</time>
</trkpt>
<trkpt lat="46.1124680" lon="10.5164850">
	<ele>2594.00</ele>
	<time>2023-08-07T06:43:20.000Z</time>
</trkpt>
<trkpt lat="46.1124740" lon="10.5164850">
	<ele>2594.00</ele>
	<time>2023-08-07T06:43:21.000Z</time>
</trkpt>
<trkpt lat="46.1124790" lon="10.5164850">
	<ele>2594.20</ele>
	<time>2023-08-07T06:43:22.000Z</time>
</trkpt>
<trkpt lat="46.1124830" lon="10.5164850">
	<ele>2594.20</ele>
	<time>2023-08-07T06:43:23.000Z</time>
</trkpt>
<trkpt lat="46.1124860" lon="10.5164850">
	<ele>2594.20</ele>
	<time>2023-08-07T06:43:24.000Z</time>
</trkpt>
<trkpt lat="46.1124870" lon="10.5164840">
	<ele>2594.40</ele>
	<time>2023-08-07T06:43:25.000Z</time>
</trkpt>
<trkpt lat="46.1124920" lon="10.5164840">
	<ele>2594.60</ele>
	<time>2023-08-07T06:43:26.000Z</time>
</trkpt>
<trkpt lat="46.1124960" lon="10.5164830">
	<ele>2594.80</ele>
	<time>2023-08-07T06:43:27.000Z</time>
</trkpt>
<trkpt lat="46.1125000" lon="10.5164830">
	<ele>2595.00</ele>
	<time>2023-08-07T06:43:28.000Z</time>
</trkpt>
<trkpt lat="46.1125030" lon="10.5164810">
	<ele>2595.00</ele>
	<time>2023-08-07T06:43:29.000Z</time>
</trkpt>
<trkpt lat="46.1125070" lon="10.5164800">
	<ele>2595.00</ele>
	<time>2023-08-07T06:43:30.000Z</time>
</trkpt>
<trkpt lat="46.1125100" lon="10.5164800">
	<ele>2595.00</ele>
	<time>2023-08-07T06:43:31.000Z</time>
</trkpt>
<trkpt lat="46.1125150" lon="10.5164800">
	<ele>2595.20</ele>
	<time>2023-08-07T06:43:32.000Z</time>
</trkpt>
<trkpt lat="46.1125190" lon="10.5164820">
	<ele>2595.20</ele>
	<time>2023-08-07T06:43:33.000Z</time>
</trkpt>
<trkpt lat="46.1125210" lon="10.5164830">
	<ele>2595.40</ele>
	<time>2023-08-07T06:43:34.000Z</time>
</trkpt>
<trkpt lat="46.1125230" lon="10.5164830">
	<ele>2595.40</ele>
	<time>2023-08-07T06:43:35.000Z</time>
</trkpt>
<trkpt lat="46.1125250" lon="10.5164830">
	<ele>2595.60</ele>
	<time>2023-08-07T06:43:36.000Z</time>
</trkpt>
<trkpt lat="46.1125270" lon="10.5164830">
	<ele>2595.80</ele>
	<time>2023-08-07T06:43:37.000Z</time>
</trkpt>
<trkpt lat="46.1125320" lon="10.5164830">
	<ele>2595.80</ele>
	<time>2023-08-07T06:43:38.000Z</time>
</trkpt>
<trkpt lat="46.1125360" lon="10.5164830">
	<ele>2596.20</ele>
	<time>2023-08-07T06:43:39.000Z</time>
</trkpt>
<trkpt lat="46.1125390" lon="10.5164830">
	<ele>2596.20</ele>
	<time>2023-08-07T06:43:40.000Z</time>
</trkpt>
<trkpt lat="46.1125420" lon="10.5164830">
	<ele>2596.40</ele>
	<time>2023-08-07T06:43:41.000Z</time>
</trkpt>
<trkpt lat="46.1125480" lon="10.5164830">
	<ele>2596.40</ele>
	<time>2023-08-07T06:43:42.000Z</time>
</trkpt>
<trkpt lat="46.1125530" lon="10.5164830">
	<ele>2596.60</ele>
	<time>2023-08-07T06:43:43.000Z</time>
</trkpt>
<trkpt lat="46.1125570" lon="10.5164820">
	<ele>2597.00</ele>
	<time>2023-08-07T06:43:44.000Z</time>
</trkpt>
<trkpt lat="46.1125590" lon="10.5164800">
	<ele>2597.20</ele>
	<time>2023-08-07T06:43:45.000Z</time>
</trkpt>
<trkpt lat="46.1125600" lon="10.5164790">
	<ele>2597.40</ele>
	<time>2023-08-07T06:43:46.000Z</time>
</trkpt>
<trkpt lat="46.1125630" lon="10.5164790">
	<ele>2597.60</ele>
	<time>2023-08-07T06:43:47.000Z</time>
</trkpt>
<trkpt lat="46.1125640" lon="10.5164780">
	<ele>2597.80</ele>
	<time>2023-08-07T06:43:48.000Z</time>
</trkpt>
<trkpt lat="46.1125660" lon="10.5164770">
	<ele>2598.00</ele>
	<time>2023-08-07T06:43:49.000Z</time>
</trkpt>
<trkpt lat="46.1125670" lon="10.5164760">
	<ele>2598.00</ele>
	<time>2023-08-07T06:43:50.000Z</time>
</trkpt>
<trkpt lat="46.1125680" lon="10.5164760">
	<ele>2598.00</ele>
	<time>2023-08-07T06:43:51.000Z</time>
</trkpt>
<trkpt lat="46.1125680" lon="10.5164760">
	<ele>2598.20</ele>
	<time>2023-08-07T06:43:52.000Z</time>
</trkpt>
<trkpt lat="46.1125680" lon="10.5164730">
	<ele>2598.60</ele>
	<time>2023-08-07T06:43:53.000Z</time>
</trkpt>
<trkpt lat="46.1125690" lon="10.5164700">
	<ele>2598.80</ele>
	<time>2023-08-07T06:43:54.000Z</time>
</trkpt>
<trkpt lat="46.1125690" lon="10.5164680">
	<ele>2598.80</ele>
	<time>2023-08-07T06:43:55.000Z</time>
</trkpt>
<trkpt lat="46.1125690" lon="10.5164630">
	<ele>2599.00</ele>
	<time>2023-08-07T06:43:56.000Z</time>
</trkpt>
<trkpt lat="46.1125700" lon="10.5164570">
	<ele>2599.20</ele>
	<time>2023-08-07T06:43:57.000Z</time>
</trkpt>
<trkpt lat="46.1125710" lon="10.5164510">
	<ele>2599.40</ele>
	<time>2023-08-07T06:43:58.000Z</time>
</trkpt>
<trkpt lat="46.1125710" lon="10.5164480">
	<ele>2599.60</ele>
	<time>2023-08-07T06:43:59.000Z</time>
</trkpt>
<trkpt lat="46.1125720" lon="10.5164460">
	<ele>2599.80</ele>
	<time>2023-08-07T06:44:00.000Z</time>
</trkpt>
<trkpt lat="46.1125720" lon="10.5164430">
	<ele>2599.80</ele>
	<time>2023-08-07T06:44:01.000Z</time>
</trkpt>
<trkpt lat="46.1125720" lon="10.5164390">
	<ele>2599.80</ele>
	<time>2023-08-07T06:44:02.000Z</time>
</trkpt>
<trkpt lat="46.1125740" lon="10.5164320">
	<ele>2600.00</ele>
	<time>2023-08-07T06:44:03.000Z</time>
</trkpt>
<trkpt lat="46.1125760" lon="10.5164280">
	<ele>2600.00</ele>
	<time>2023-08-07T06:44:04.000Z</time>
</trkpt>
<trkpt lat="46.1125790" lon="10.5164250">
	<ele>2600.00</ele>
	<time>2023-08-07T06:44:05.000Z</time>
</trkpt>
<trkpt lat="46.1125820" lon="10.5164210">
	<ele>2600.00</ele>
	<time>2023-08-07T06:44:06.000Z</time>
</trkpt>
<trkpt lat="46.1125870" lon="10.5164170">
	<ele>2600.00</ele>
	<time>2023-08-07T06:44:07.000Z</time>
</trkpt>
<trkpt lat="46.1125910" lon="10.5164150">
	<ele>2600.40</ele>
	<time>2023-08-07T06:44:08.000Z</time>
</trkpt>
<trkpt lat="46.1125940" lon="10.5164140">
	<ele>2600.40</ele>
	<time>2023-08-07T06:44:09.000Z</time>
</trkpt>
<trkpt lat="46.1125980" lon="10.5164050">
	<ele>2600.60</ele>
	<time>2023-08-07T06:44:10.000Z</time>
</trkpt>
<trkpt lat="46.1126030" lon="10.5163920">
	<ele>2600.60</ele>
	<time>2023-08-07T06:44:11.000Z</time>
</trkpt>
<trkpt lat="46.1126080" lon="10.5163770">
	<ele>2600.80</ele>
	<time>2023-08-07T06:44:12.000Z</time>
</trkpt>
<trkpt lat="46.1126120" lon="10.5163620">
	<ele>2600.80</ele>
	<time>2023-08-07T06:44:13.000Z</time>
</trkpt>
<trkpt lat="46.1126180" lon="10.5163460">
	<ele>2601.00</ele>
	<time>2023-08-07T06:44:14.000Z</time>
</trkpt>
<trkpt lat="46.1126250" lon="10.5163330">
	<ele>2601.00</ele>
	<time>2023-08-07T06:44:15.000Z</time>
</trkpt>
<trkpt lat="46.1126320" lon="10.5163130">
	<ele>2601.00</ele>
	<time>2023-08-07T06:44:16.000Z</time>
</trkpt>
<trkpt lat="46.1126410" lon="10.5162990">
	<ele>2601.20</ele>
	<time>2023-08-07T06:44:17.000Z</time>
</trkpt>
<trkpt lat="46.1126500" lon="10.5162890">
	<ele>2601.40</ele>
	<time>2023-08-07T06:44:18.000Z</time>
</trkpt>
<trkpt lat="46.1126580" lon="10.5162810">
	<ele>2601.40</ele>
	<time>2023-08-07T06:44:19.000Z</time>
</trkpt>
<trkpt lat="46.1126550" lon="10.5162880">
	<ele>2601.60</ele>
	<time>2023-08-07T06:44:20.000Z</time>
</trkpt>
<trkpt lat="46.1126550" lon="10.5162890">
	<ele>2601.80</ele>
	<time>2023-08-07T06:44:21.000Z</time>
</trkpt>
<trkpt lat="46.1126550" lon="10.5162840">
	<ele>2601.80</ele>
	<time>2023-08-07T06:44:22.000Z</time>
</trkpt>
<trkpt lat="46.1126550" lon="10.5162780">
	<ele>2602.00</ele>
	<time>2023-08-07T06:44:23.000Z</time>
</trkpt>
<trkpt lat="46.1126540" lon="10.5162720">
	<ele>2602.20</ele>
	<time>2023-08-07T06:44:24.000Z</time>
</trkpt>
<trkpt lat="46.1126540" lon="10.5162680">
	<ele>2602.40</ele>
	<time>2023-08-07T06:44:25.000Z</time>
</trkpt>
<trkpt lat="46.1126560" lon="10.5162640">
	<ele>2602.80</ele>
	<time>2023-08-07T06:44:26.000Z</time>
</trkpt>
<trkpt lat="46.1126570" lon="10.5162620">
	<ele>2603.20</ele>
	<time>2023-08-07T06:44:27.000Z</time>
</trkpt>
<trkpt lat="46.1126590" lon="10.5162610">
	<ele>2603.40</ele>
	<time>2023-08-07T06:44:28.000Z</time>
</trkpt>
<trkpt lat="46.1126610" lon="10.5162590">
	<ele>2603.40</ele>
	<time>2023-08-07T06:44:29.000Z</time>
</trkpt>
<trkpt lat="46.1126620" lon="10.5162580">
	<ele>2603.60</ele>
	<time>2023-08-07T06:44:30.000Z</time>
</trkpt>
<trkpt lat="46.1126640" lon="10.5162460">
	<ele>2603.60</ele>
	<time>2023-08-07T06:44:31.000Z</time>
</trkpt>
<trkpt lat="46.1126650" lon="10.5162370">
	<ele>2603.60</ele>
	<time>2023-08-07T06:44:32.000Z</time>
</trkpt>
<trkpt lat="46.1126630" lon="10.5162300">
	<ele>2603.80</ele>
	<time>2023-08-07T06:44:33.000Z</time>
</trkpt>
<trkpt lat="46.1126650" lon="10.5162240">
	<ele>2603.80</ele>
	<time>2023-08-07T06:44:34.000Z</time>
</trkpt>
<trkpt lat="46.1126690" lon="10.5162160">
	<ele>2603.80</ele>
	<time>2023-08-07T06:44:35.000Z</time>
</trkpt>
<trkpt lat="46.1126700" lon="10.5162120">
	<ele>2603.80</ele>
	<time>2023-08-07T06:44:36.000Z</time>
</trkpt>
<trkpt lat="46.1126700" lon="10.5162090">
	<ele>2603.80</ele>
	<time>2023-08-07T06:44:37.000Z</time>
</trkpt>
<trkpt lat="46.1126690" lon="10.5162070">
	<ele>2603.80</ele>
	<time>2023-08-07T06:44:38.000Z</time>
</trkpt>
<trkpt lat="46.1126700" lon="10.5162030">
	<ele>2604.20</ele>
	<time>2023-08-07T06:44:39.000Z</time>
</trkpt>
<trkpt lat="46.1126730" lon="10.5161980">
	<ele>2604.40</ele>
	<time>2023-08-07T06:44:40.000Z</time>
</trkpt>
<trkpt lat="46.1126760" lon="10.5161960">
	<ele>2604.80</ele>
	<time>2023-08-07T06:44:41.000Z</time>
</trkpt>
<trkpt lat="46.1126770" lon="10.5161940">
	<ele>2604.80</ele>
	<time>2023-08-07T06:44:42.000Z</time>
</trkpt>
<trkpt lat="46.1126810" lon="10.5161950">
	<ele>2605.00</ele>
	<time>2023-08-07T06:44:43.000Z</time>
</trkpt>
<trkpt lat="46.1126870" lon="10.5161950">
	<ele>2605.20</ele>
	<time>2023-08-07T06:44:44.000Z</time>
</trkpt>
<trkpt lat="46.1126900" lon="10.5161920">
	<ele>2605.60</ele>
	<time>2023-08-07T06:44:45.000Z</time>
</trkpt>
<trkpt lat="46.1126920" lon="10.5161920">
	<ele>2605.80</ele>
	<time>2023-08-07T06:44:46.000Z</time>
</trkpt>
<trkpt lat="46.1126920" lon="10.5161950">
	<ele>2605.80</ele>
	<time>2023-08-07T06:44:47.000Z</time>
</trkpt>
<trkpt lat="46.1126940" lon="10.5161940">
	<ele>2606.00</ele>
	<time>2023-08-07T06:44:48.000Z</time>
</trkpt>
<trkpt lat="46.1126940" lon="10.5161940">
	<ele>2606.00</ele>
	<time>2023-08-07T06:44:49.000Z</time>
</trkpt>
<trkpt lat="46.1126940" lon="10.5161940">
	<ele>2606.20</ele>
	<time>2023-08-07T06:44:50.000Z</time>
</trkpt>
<trkpt lat="46.1126940" lon="10.5161940">
	<ele>2606.20</ele>
	<time>2023-08-07T06:44:51.000Z</time>
</trkpt>
<trkpt lat="46.1126940" lon="10.5161940">
	<ele>2606.20</ele>
	<time>2023-08-07T06:44:52.000Z</time>
</trkpt>
<trkpt lat="46.1126940" lon="10.5161940">
	<ele>2606.40</ele>
	<time>2023-08-07T06:44:53.000Z</time>
</trkpt>
<trkpt lat="46.1126940" lon="10.5161940">
	<ele>2606.40</ele>
	<time>2023-08-07T06:44:54.000Z</time>
</trkpt>
<trkpt lat="46.1126940" lon="10.5161940">
	<ele>2606.40</ele>
	<time>2023-08-07T06:44:55.000Z</time>
</trkpt>
<trkpt lat="46.1126940" lon="10.5161940">
	<ele>2606.60</ele>
	<time>2023-08-07T06:44:56.000Z</time>
</trkpt>
<trkpt lat="46.1126940" lon="10.5161940">
	<ele>2606.60</ele>
	<time>2023-08-07T06:44:57.000Z</time>
</trkpt>
<trkpt lat="46.1126940" lon="10.5161940">
	<ele>2606.80</ele>
	<time>2023-08-07T06:44:58.000Z</time>
</trkpt>
<trkpt lat="46.1126940" lon="10.5161940">
	<ele>2607.00</ele>
	<time>2023-08-07T06:44:59.000Z</time>
</trkpt>
<trkpt lat="46.1126940" lon="10.5161940">
	<ele>2607.20</ele>
	<time>2023-08-07T06:45:00.000Z</time>
</trkpt>
<trkpt lat="46.1126940" lon="10.5161940">
	<ele>2607.20</ele>
	<time>2023-08-07T06:45:01.000Z</time>
</trkpt>
<trkpt lat="46.1126940" lon="10.5161920">
	<ele>2607.40</ele>
	<time>2023-08-07T06:45:02.000Z</time>
</trkpt>
<trkpt lat="46.1126940" lon="10.5161920">
	<ele>2607.40</ele>
	<time>2023-08-07T06:45:03.000Z</time>
</trkpt>
<trkpt lat="46.1126940" lon="10.5161870">
	<ele>2607.40</ele>
	<time>2023-08-07T06:45:04.000Z</time>
</trkpt>
<trkpt lat="46.1127000" lon="10.5161820">
	<ele>2607.60</ele>
	<time>2023-08-07T06:45:05.000Z</time>
</trkpt>
<trkpt lat="46.1127040" lon="10.5161780">
	<ele>2607.80</ele>
	<time>2023-08-07T06:45:06.000Z</time>
</trkpt>
<trkpt lat="46.1127070" lon="10.5161770">
	<ele>2608.00</ele>
	<time>2023-08-07T06:45:07.000Z</time>
</trkpt>
<trkpt lat="46.1127130" lon="10.5161760">
	<ele>2608.20</ele>
	<time>2023-08-07T06:45:08.000Z</time>
</trkpt>
<trkpt lat="46.1127190" lon="10.5161750">
	<ele>2608.40</ele>
	<time>2023-08-07T06:45:09.000Z</time>
</trkpt>
<trkpt lat="46.1127220" lon="10.5161750">
	<ele>2608.60</ele>
	<time>2023-08-07T06:45:10.000Z</time>
</trkpt>
<trkpt lat="46.1127240" lon="10.5161750">
	<ele>2608.60</ele>
	<time>2023-08-07T06:45:11.000Z</time>
</trkpt>
<trkpt lat="46.1127260" lon="10.5161740">
	<ele>2608.80</ele>
	<time>2023-08-07T06:45:12.000Z</time>
</trkpt>
<trkpt lat="46.1127300" lon="10.5161740">
	<ele>2608.80</ele>
	<time>2023-08-07T06:45:13.000Z</time>
</trkpt>
<trkpt lat="46.1127340" lon="10.5161730">
	<ele>2609.00</ele>
	<time>2023-08-07T06:45:14.000Z</time>
</trkpt>
<trkpt lat="46.1127360" lon="10.5161720">
	<ele>2609.00</ele>
	<time>2023-08-07T06:45:15.000Z</time>
</trkpt>
<trkpt lat="46.1127370" lon="10.5161700">
	<ele>2609.20</ele>
	<time>2023-08-07T06:45:16.000Z</time>
</trkpt>
<trkpt lat="46.1127380" lon="10.5161680">
	<ele>2609.40</ele>
	<time>2023-08-07T06:45:17.000Z</time>
</trkpt>
<trkpt lat="46.1127400" lon="10.5161660">
	<ele>2609.60</ele>
	<time>2023-08-07T06:45:18.000Z</time>
</trkpt>
<trkpt lat="46.1127410" lon="10.5161630">
	<ele>2610.00</ele>
	<time>2023-08-07T06:45:19.000Z</time>
</trkpt>
<trkpt lat="46.1127430" lon="10.5161610">
	<ele>2610.20</ele>
	<time>2023-08-07T06:45:20.000Z</time>
</trkpt>
<trkpt lat="46.1127450" lon="10.5161570">
	<ele>2610.20</ele>
	<time>2023-08-07T06:45:21.000Z</time>
</trkpt>
<trkpt lat="46.1127460" lon="10.5161530">
	<ele>2610.40</ele>
	<time>2023-08-07T06:45:22.000Z</time>
</trkpt>
<trkpt lat="46.1127480" lon="10.5161500">
	<ele>2610.40</ele>
	<time>2023-08-07T06:45:23.000Z</time>
</trkpt>
<trkpt lat="46.1127490" lon="10.5161450">
	<ele>2610.60</ele>
	<time>2023-08-07T06:45:24.000Z</time>
</trkpt>
<trkpt lat="46.1127510" lon="10.5161370">
	<ele>2610.60</ele>
	<time>2023-08-07T06:45:25.000Z</time>
</trkpt>
<trkpt lat="46.1127520" lon="10.5161340">
	<ele>2610.60</ele>
	<time>2023-08-07T06:45:26.000Z</time>
</trkpt>
<trkpt lat="46.1127520" lon="10.5161320">
	<ele>2610.80</ele>
	<time>2023-08-07T06:45:27.000Z</time>
</trkpt>
<trkpt lat="46.1127530" lon="10.5161260">
	<ele>2611.00</ele>
	<time>2023-08-07T06:45:28.000Z</time>
</trkpt>
<trkpt lat="46.1127530" lon="10.5161200">
	<ele>2611.00</ele>
	<time>2023-08-07T06:45:29.000Z</time>
</trkpt>
<trkpt lat="46.1127540" lon="10.5161140">
	<ele>2611.20</ele>
	<time>2023-08-07T06:45:30.000Z</time>
</trkpt>
<trkpt lat="46.1127540" lon="10.5161080">
	<ele>2611.20</ele>
	<time>2023-08-07T06:45:31.000Z</time>
</trkpt>
<trkpt lat="46.1127540" lon="10.5161020">
	<ele>2611.20</ele>
	<time>2023-08-07T06:45:32.000Z</time>
</trkpt>
<trkpt lat="46.1127560" lon="10.5160970">
	<ele>2611.20</ele>
	<time>2023-08-07T06:45:33.000Z</time>
</trkpt>
<trkpt lat="46.1127590" lon="10.5160940">
	<ele>2611.40</ele>
	<time>2023-08-07T06:45:34.000Z</time>
</trkpt>
<trkpt lat="46.1127610" lon="10.5160900">
	<ele>2611.40</ele>
	<time>2023-08-07T06:45:35.000Z</time>
</trkpt>
<trkpt lat="46.1127620" lon="10.5160870">
	<ele>2611.40</ele>
	<time>2023-08-07T06:45:36.000Z</time>
</trkpt>
<trkpt lat="46.1127640" lon="10.5160850">
	<ele>2611.60</ele>
	<time>2023-08-07T06:45:37.000Z</time>
</trkpt>
<trkpt lat="46.1127690" lon="10.5160800">
	<ele>2611.60</ele>
	<time>2023-08-07T06:45:38.000Z</time>
</trkpt>
<trkpt lat="46.1127730" lon="10.5160760">
	<ele>2611.80</ele>
	<time>2023-08-07T06:45:39.000Z</time>
</trkpt>
<trkpt lat="46.1127780" lon="10.5160730">
	<ele>2611.80</ele>
	<time>2023-08-07T06:45:40.000Z</time>
</trkpt>
<trkpt lat="46.1127830" lon="10.5160690">
	<ele>2612.20</ele>
	<time>2023-08-07T06:45:41.000Z</time>
</trkpt>
<trkpt lat="46.1127860" lon="10.5160660">
	<ele>2612.20</ele>
	<time>2023-08-07T06:45:42.000Z</time>
</trkpt>
<trkpt lat="46.1127900" lon="10.5160620">
	<ele>2612.40</ele>
	<time>2023-08-07T06:45:43.000Z</time>
</trkpt>
<trkpt lat="46.1127920" lon="10.5160590">
	<ele>2612.40</ele>
	<time>2023-08-07T06:45:44.000Z</time>
</trkpt>
<trkpt lat="46.1127930" lon="10.5160580">
	<ele>2612.40</ele>
	<time>2023-08-07T06:45:45.000Z</time>
</trkpt>
<trkpt lat="46.1127950" lon="10.5160580">
	<ele>2612.60</ele>
	<time>2023-08-07T06:45:46.000Z</time>
</trkpt>
<trkpt lat="46.1127970" lon="10.5160560">
	<ele>2612.80</ele>
	<time>2023-08-07T06:45:47.000Z</time>
</trkpt>
<trkpt lat="46.1128000" lon="10.5160530">
	<ele>2612.80</ele>
	<time>2023-08-07T06:45:48.000Z</time>
</trkpt>
<trkpt lat="46.1128040" lon="10.5160510">
	<ele>2612.80</ele>
	<time>2023-08-07T06:45:49.000Z</time>
</trkpt>
<trkpt lat="46.1128050" lon="10.5160490">
	<ele>2612.80</ele>
	<time>2023-08-07T06:45:50.000Z</time>
</trkpt>
<trkpt lat="46.1128070" lon="10.5160480">
	<ele>2613.00</ele>
	<time>2023-08-07T06:45:51.000Z</time>
</trkpt>
<trkpt lat="46.1128080" lon="10.5160470">
	<ele>2613.00</ele>
	<time>2023-08-07T06:45:52.000Z</time>
</trkpt>
<trkpt lat="46.1128080" lon="10.5160470">
	<ele>2613.20</ele>
	<time>2023-08-07T06:45:53.000Z</time>
</trkpt>
<trkpt lat="46.1128090" lon="10.5160460">
	<ele>2613.20</ele>
	<time>2023-08-07T06:45:54.000Z</time>
</trkpt>
<trkpt lat="46.1128110" lon="10.5160450">
	<ele>2613.40</ele>
	<time>2023-08-07T06:45:55.000Z</time>
</trkpt>
<trkpt lat="46.1128130" lon="10.5160440">
	<ele>2613.40</ele>
	<time>2023-08-07T06:45:56.000Z</time>
</trkpt>
<trkpt lat="46.1128140" lon="10.5160410">
	<ele>2613.40</ele>
	<time>2023-08-07T06:45:57.000Z</time>
</trkpt>
<trkpt lat="46.1128150" lon="10.5160410">
	<ele>2613.40</ele>
	<time>2023-08-07T06:45:58.000Z</time>
</trkpt>
<trkpt lat="46.1128180" lon="10.5160400">
	<ele>2613.40</ele>
	<time>2023-08-07T06:45:59.000Z</time>
</trkpt>
<trkpt lat="46.1128210" lon="10.5160390">
	<ele>2613.40</ele>
	<time>2023-08-07T06:46:00.000Z</time>
</trkpt>
<trkpt lat="46.1128240" lon="10.5160390">
	<ele>2613.60</ele>
	<time>2023-08-07T06:46:01.000Z</time>
</trkpt>
<trkpt lat="46.1128270" lon="10.5160380">
	<ele>2613.80</ele>
	<time>2023-08-07T06:46:02.000Z</time>
</trkpt>
<trkpt lat="46.1128290" lon="10.5160380">
	<ele>2613.80</ele>
	<time>2023-08-07T06:46:03.000Z</time>
</trkpt>
<trkpt lat="46.1128310" lon="10.5160380">
	<ele>2613.80</ele>
	<time>2023-08-07T06:46:04.000Z</time>
</trkpt>
<trkpt lat="46.1128330" lon="10.5160380">
	<ele>2613.80</ele>
	<time>2023-08-07T06:46:05.000Z</time>
</trkpt>
<trkpt lat="46.1128350" lon="10.5160380">
	<ele>2613.80</ele>
	<time>2023-08-07T06:46:06.000Z</time>
</trkpt>
<trkpt lat="46.1128370" lon="10.5160380">
	<ele>2613.80</ele>
	<time>2023-08-07T06:46:07.000Z</time>
</trkpt>
<trkpt lat="46.1128410" lon="10.5160380">
	<ele>2613.80</ele>
	<time>2023-08-07T06:46:08.000Z</time>
</trkpt>
<trkpt lat="46.1128440" lon="10.5160380">
	<ele>2613.60</ele>
	<time>2023-08-07T06:46:09.000Z</time>
</trkpt>
<trkpt lat="46.1128450" lon="10.5160380">
	<ele>2613.60</ele>
	<time>2023-08-07T06:46:10.000Z</time>
</trkpt>
<trkpt lat="46.1128460" lon="10.5160380">
	<ele>2613.40</ele>
	<time>2023-08-07T06:46:11.000Z</time>
</trkpt>
<trkpt lat="46.1128470" lon="10.5160380">
	<ele>2613.20</ele>
	<time>2023-08-07T06:46:12.000Z</time>
</trkpt>
<trkpt lat="46.1128470" lon="10.5160380">
	<ele>2613.20</ele>
	<time>2023-08-07T06:46:13.000Z</time>
</trkpt>
<trkpt lat="46.1128470" lon="10.5160380">
	<ele>2613.20</ele>
	<time>2023-08-07T06:46:14.000Z</time>
</trkpt>
<trkpt lat="46.1128470" lon="10.5160380">
	<ele>2613.20</ele>
	<time>2023-08-07T06:46:15.000Z</time>
</trkpt>
<trkpt lat="46.1128470" lon="10.5160380">
	<ele>2613.20</ele>
	<time>2023-08-07T06:46:16.000Z</time>
</trkpt>
<trkpt lat="46.1128470" lon="10.5160390">
	<ele>2613.20</ele>
	<time>2023-08-07T06:46:17.000Z</time>
</trkpt>
<trkpt lat="46.1128470" lon="10.5160390">
	<ele>2613.00</ele>
	<time>2023-08-07T06:46:18.000Z</time>
</trkpt>
<trkpt lat="46.1128470" lon="10.5160390">
	<ele>2613.00</ele>
	<time>2023-08-07T06:46:19.000Z</time>
</trkpt>
<trkpt lat="46.1128480" lon="10.5160390">
	<ele>2613.00</ele>
	<time>2023-08-07T06:46:20.000Z</time>
</trkpt>
<trkpt lat="46.1128480" lon="10.5160390">
	<ele>2613.00</ele>
	<time>2023-08-07T06:46:21.000Z</time>
</trkpt>
<trkpt lat="46.1128480" lon="10.5160390">
	<ele>2613.00</ele>
	<time>2023-08-07T06:46:22.000Z</time>
</trkpt>
<trkpt lat="46.1128480" lon="10.5160390">
	<ele>2613.00</ele>
	<time>2023-08-07T06:46:23.000Z</time>
</trkpt>
<trkpt lat="46.1128480" lon="10.5160390">
	<ele>2613.00</ele>
	<time>2023-08-07T06:46:24.000Z</time>
</trkpt>
<trkpt lat="46.1128490" lon="10.5160390">
	<ele>2613.00</ele>
	<time>2023-08-07T06:46:25.000Z</time>
</trkpt>
<trkpt lat="46.1128490" lon="10.5160390">
	<ele>2613.20</ele>
	<time>2023-08-07T06:46:26.000Z</time>
</trkpt>
<trkpt lat="46.1128490" lon="10.5160390">
	<ele>2613.20</ele>
	<time>2023-08-07T06:46:27.000Z</time>
</trkpt>
<trkpt lat="46.1128490" lon="10.5160390">
	<ele>2613.20</ele>
	<time>2023-08-07T06:46:28.000Z</time>
</trkpt>
<trkpt lat="46.1128490" lon="10.5160390">
	<ele>2613.20</ele>
	<time>2023-08-07T06:46:29.000Z</time>
</trkpt>
<trkpt lat="46.1128490" lon="10.5160380">
	<ele>2613.20</ele>
	<time>2023-08-07T06:46:30.000Z</time>
</trkpt>
<trkpt lat="46.1128490" lon="10.5160380">
	<ele>2613.20</ele>
	<time>2023-08-07T06:46:31.000Z</time>
</trkpt>
<trkpt lat="46.1128500" lon="10.5160380">
	<ele>2613.00</ele>
	<time>2023-08-07T06:46:32.000Z</time>
</trkpt>
<trkpt lat="46.1128510" lon="10.5160370">
	<ele>2613.00</ele>
	<time>2023-08-07T06:46:33.000Z</time>
</trkpt>
<trkpt lat="46.1128510" lon="10.5160360">
	<ele>2612.80</ele>
	<time>2023-08-07T06:46:34.000Z</time>
</trkpt>
<trkpt lat="46.1128510" lon="10.5160360">
	<ele>2612.80</ele>
	<time>2023-08-07T06:46:35.000Z</time>
</trkpt>
<trkpt lat="46.1128510" lon="10.5160360">
	<ele>2612.80</ele>
	<time>2023-08-07T06:46:36.000Z</time>
</trkpt>
<trkpt lat="46.1128520" lon="10.5160360">
	<ele>2612.80</ele>
	<time>2023-08-07T06:46:37.000Z</time>
</trkpt>
<trkpt lat="46.1128520" lon="10.5160350">
	<ele>2612.80</ele>
	<time>2023-08-07T06:46:38.000Z</time>
</trkpt>
<trkpt lat="46.1128520" lon="10.5160350">
	<ele>2612.80</ele>
	<time>2023-08-07T06:46:39.000Z</time>
</trkpt>
<trkpt lat="46.1128520" lon="10.5160350">
	<ele>2612.80</ele>
	<time>2023-08-07T06:46:40.000Z</time>
</trkpt>
<trkpt lat="46.1128520" lon="10.5160350">
	<ele>2612.80</ele>
	<time>2023-08-07T06:46:41.000Z</time>
</trkpt>
<trkpt lat="46.1128520" lon="10.5160350">
	<ele>2612.80</ele>
	<time>2023-08-07T06:46:42.000Z</time>
</trkpt>
<trkpt lat="46.1128520" lon="10.5160350">
	<ele>2612.80</ele>
	<time>2023-08-07T06:46:43.000Z</time>
</trkpt>
<trkpt lat="46.1128520" lon="10.5160350">
	<ele>2612.80</ele>
	<time>2023-08-07T06:46:44.000Z</time>
</trkpt>
<trkpt lat="46.1128520" lon="10.5160350">
	<ele>2612.80</ele>
	<time>2023-08-07T06:46:45.000Z</time>
</trkpt>
<trkpt lat="46.1128530" lon="10.5160350">
	<ele>2612.80</ele>
	<time>2023-08-07T06:46:46.000Z</time>
</trkpt>
<trkpt lat="46.1128530" lon="10.5160350">
	<ele>2612.80</ele>
	<time>2023-08-07T06:46:47.000Z</time>
</trkpt>
<trkpt lat="46.1128530" lon="10.5160350">
	<ele>2612.80</ele>
	<time>2023-08-07T06:46:48.000Z</time>
</trkpt>
<trkpt lat="46.1128540" lon="10.5160350">
	<ele>2612.80</ele>
	<time>2023-08-07T06:46:49.000Z</time>
</trkpt>
<trkpt lat="46.1128540" lon="10.5160350">
	<ele>2612.80</ele>
	<time>2023-08-07T06:46:50.000Z</time>
</trkpt>
<trkpt lat="46.1128540" lon="10.5160350">
	<ele>2612.80</ele>
	<time>2023-08-07T06:46:51.000Z</time>
</trkpt>
<trkpt lat="46.1128540" lon="10.5160350">
	<ele>2613.00</ele>
	<time>2023-08-07T06:46:52.000Z</time>
</trkpt>
<trkpt lat="46.1128550" lon="10.5160350">
	<ele>2613.20</ele>
	<time>2023-08-07T06:46:53.000Z</time>
</trkpt>
<trkpt lat="46.1128550" lon="10.5160350">
	<ele>2613.20</ele>
	<time>2023-08-07T06:46:54.000Z</time>
</trkpt>
<trkpt lat="46.1128550" lon="10.5160350">
	<ele>2613.40</ele>
	<time>2023-08-07T06:46:55.000Z</time>
</trkpt>
<trkpt lat="46.1128550" lon="10.5160350">
	<ele>2613.60</ele>
	<time>2023-08-07T06:46:56.000Z</time>
</trkpt>
<trkpt lat="46.1128550" lon="10.5160350">
	<ele>2613.60</ele>
	<time>2023-08-07T06:46:57.000Z</time>
</trkpt>
<trkpt lat="46.1128550" lon="10.5160350">
	<ele>2614.00</ele>
	<time>2023-08-07T06:46:58.000Z</time>
</trkpt>
<trkpt lat="46.1128550" lon="10.5160350">
	<ele>2614.20</ele>
	<time>2023-08-07T06:46:59.000Z</time>
</trkpt>
<trkpt lat="46.1128550" lon="10.5160350">
	<ele>2614.20</ele>
	<time>2023-08-07T06:47:00.000Z</time>
</trkpt>
<trkpt lat="46.1128550" lon="10.5160350">
	<ele>2614.60</ele>
	<time>2023-08-07T06:47:01.000Z</time>
</trkpt>
<trkpt lat="46.1128550" lon="10.5160350">
	<ele>2614.80</ele>
	<time>2023-08-07T06:47:02.000Z</time>
</trkpt>
<trkpt lat="46.1128550" lon="10.5160350">
	<ele>2615.00</ele>
	<time>2023-08-07T06:47:03.000Z</time>
</trkpt>
<trkpt lat="46.1128560" lon="10.5160340">
	<ele>2615.00</ele>
	<time>2023-08-07T06:47:04.000Z</time>
</trkpt>
<trkpt lat="46.1128570" lon="10.5160340">
	<ele>2615.00</ele>
	<time>2023-08-07T06:47:05.000Z</time>
</trkpt>
<trkpt lat="46.1128580" lon="10.5160330">
	<ele>2615.00</ele>
	<time>2023-08-07T06:47:06.000Z</time>
</trkpt>
<trkpt lat="46.1128600" lon="10.5160330">
	<ele>2615.00</ele>
	<time>2023-08-07T06:47:07.000Z</time>
</trkpt>
<trkpt lat="46.1128620" lon="10.5160330">
	<ele>2615.00</ele>
	<time>2023-08-07T06:47:08.000Z</time>
</trkpt>
<trkpt lat="46.1128650" lon="10.5160330">
	<ele>2615.00</ele>
	<time>2023-08-07T06:47:09.000Z</time>
</trkpt>
<trkpt lat="46.1128680" lon="10.5160330">
	<ele>2615.00</ele>
	<time>2023-08-07T06:47:10.000Z</time>
</trkpt>
<trkpt lat="46.1128700" lon="10.5160330">
	<ele>2615.20</ele>
	<time>2023-08-07T06:47:11.000Z</time>
</trkpt>
<trkpt lat="46.1128710" lon="10.5160330">
	<ele>2615.20</ele>
	<time>2023-08-07T06:47:12.000Z</time>
</trkpt>
<trkpt lat="46.1128730" lon="10.5160330">
	<ele>2615.40</ele>
	<time>2023-08-07T06:47:13.000Z</time>
</trkpt>
<trkpt lat="46.1128760" lon="10.5160330">
	<ele>2615.60</ele>
	<time>2023-08-07T06:47:14.000Z</time>
</trkpt>
<trkpt lat="46.1128790" lon="10.5160330">
	<ele>2615.60</ele>
	<time>2023-08-07T06:47:15.000Z</time>
</trkpt>
<trkpt lat="46.1128820" lon="10.5160330">
	<ele>2615.80</ele>
	<time>2023-08-07T06:47:16.000Z</time>
</trkpt>
<trkpt lat="46.1128840" lon="10.5160330">
	<ele>2616.00</ele>
	<time>2023-08-07T06:47:17.000Z</time>
</trkpt>
<trkpt lat="46.1128860" lon="10.5160330">
	<ele>2616.00</ele>
	<time>2023-08-07T06:47:18.000Z</time>
</trkpt>
<trkpt lat="46.1128870" lon="10.5160330">
	<ele>2616.20</ele>
	<time>2023-08-07T06:47:19.000Z</time>
</trkpt>
<trkpt lat="46.1128890" lon="10.5160330">
	<ele>2616.20</ele>
	<time>2023-08-07T06:47:20.000Z</time>
</trkpt>
<trkpt lat="46.1128910" lon="10.5160340">
	<ele>2616.20</ele>
	<time>2023-08-07T06:47:21.000Z</time>
</trkpt>
<trkpt lat="46.1128930" lon="10.5160380">
	<ele>2616.40</ele>
	<time>2023-08-07T06:47:22.000Z</time>
</trkpt>
<trkpt lat="46.1128950" lon="10.5160440">
	<ele>2616.40</ele>
	<time>2023-08-07T06:47:23.000Z</time>
</trkpt>
<trkpt lat="46.1128970" lon="10.5160490">
	<ele>2616.60</ele>
	<time>2023-08-07T06:47:24.000Z</time>
</trkpt>
<trkpt lat="46.1128990" lon="10.5160540">
	<ele>2616.80</ele>
	<time>2023-08-07T06:47:25.000Z</time>
</trkpt>
<trkpt lat="46.1129020" lon="10.5160580">
	<ele>2616.80</ele>
	<time>2023-08-07T06:47:26.000Z</time>
</trkpt>
<trkpt lat="46.1129040" lon="10.5160610">
	<ele>2617.00</ele>
	<time>2023-08-07T06:47:27.000Z</time>
</trkpt>
<trkpt lat="46.1129060" lon="10.5160640">
	<ele>2617.00</ele>
	<time>2023-08-07T06:47:28.000Z</time>
</trkpt>
<trkpt lat="46.1129080" lon="10.5160690">
	<ele>2617.20</ele>
	<time>2023-08-07T06:47:29.000Z</time>
</trkpt>
<trkpt lat="46.1129090" lon="10.5160750">
	<ele>2617.20</ele>
	<time>2023-08-07T06:47:30.000Z</time>
</trkpt>
<trkpt lat="46.1129100" lon="10.5160790">
	<ele>2617.20</ele>
	<time>2023-08-07T06:47:31.000Z</time>
</trkpt>
<trkpt lat="46.1129110" lon="10.5160830">
	<ele>2617.40</ele>
	<time>2023-08-07T06:47:32.000Z</time>
</trkpt>
<trkpt lat="46.1129120" lon="10.5160880">
	<ele>2617.40</ele>
	<time>2023-08-07T06:47:33.000Z</time>
</trkpt>
<trkpt lat="46.1129130" lon="10.5160920">
	<ele>2617.40</ele>
	<time>2023-08-07T06:47:34.000Z</time>
</trkpt>
<trkpt lat="46.1129140" lon="10.5160950">
	<ele>2617.40</ele>
	<time>2023-08-07T06:47:35.000Z</time>
</trkpt>
<trkpt lat="46.1129150" lon="10.5160980">
	<ele>2617.60</ele>
	<time>2023-08-07T06:47:36.000Z</time>
</trkpt>
<trkpt lat="46.1129150" lon="10.5161000">
	<ele>2617.60</ele>
	<time>2023-08-07T06:47:37.000Z</time>
</trkpt>
<trkpt lat="46.1129160" lon="10.5161030">
	<ele>2617.80</ele>
	<time>2023-08-07T06:47:38.000Z</time>
</trkpt>
<trkpt lat="46.1129170" lon="10.5161050">
	<ele>2618.00</ele>
	<time>2023-08-07T06:47:39.000Z</time>
</trkpt>
<trkpt lat="46.1129170" lon="10.5161090">
	<ele>2618.20</ele>
	<time>2023-08-07T06:47:40.000Z</time>
</trkpt>
<trkpt lat="46.1129180" lon="10.5161120">
	<ele>2618.20</ele>
	<time>2023-08-07T06:47:41.000Z</time>
</trkpt>
<trkpt lat="46.1129180" lon="10.5161150">
	<ele>2618.40</ele>
	<time>2023-08-07T06:47:42.000Z</time>
</trkpt>
<trkpt lat="46.1129190" lon="10.5161180">
	<ele>2618.40</ele>
	<time>2023-08-07T06:47:43.000Z</time>
</trkpt>
<trkpt lat="46.1129190" lon="10.5161200">
	<ele>2618.60</ele>
	<time>2023-08-07T06:47:44.000Z</time>
</trkpt>
<trkpt lat="46.1129200" lon="10.5161210">
	<ele>2618.80</ele>
	<time>2023-08-07T06:47:45.000Z</time>
</trkpt>
<trkpt lat="46.1129200" lon="10.5161230">
	<ele>2619.00</ele>
	<time>2023-08-07T06:47:46.000Z</time>
</trkpt>
<trkpt lat="46.1129210" lon="10.5161240">
	<ele>2619.00</ele>
	<time>2023-08-07T06:47:47.000Z</time>
</trkpt>
<trkpt lat="46.1129210" lon="10.5161250">
	<ele>2619.00</ele>
	<time>2023-08-07T06:47:48.000Z</time>
</trkpt>
<trkpt lat="46.1129220" lon="10.5161260">
	<ele>2619.20</ele>
	<time>2023-08-07T06:47:49.000Z</time>
</trkpt>
<trkpt lat="46.1129230" lon="10.5161270">
	<ele>2619.20</ele>
	<time>2023-08-07T06:47:50.000Z</time>
</trkpt>
<trkpt lat="46.1129240" lon="10.5161270">
	<ele>2619.40</ele>
	<time>2023-08-07T06:47:51.000Z</time>
</trkpt>
<trkpt lat="46.1129240" lon="10.5161280">
	<ele>2619.60</ele>
	<time>2023-08-07T06:47:52.000Z</time>
</trkpt>
<trkpt lat="46.1129250" lon="10.5161280">
	<ele>2619.60</ele>
	<time>2023-08-07T06:47:53.000Z</time>
</trkpt>
<trkpt lat="46.1129260" lon="10.5161290">
	<ele>2619.80</ele>
	<time>2023-08-07T06:47:54.000Z</time>
</trkpt>
<trkpt lat="46.1129280" lon="10.5161290">
	<ele>2619.80</ele>
	<time>2023-08-07T06:47:55.000Z</time>
</trkpt>
<trkpt lat="46.1129290" lon="10.5161290">
	<ele>2619.80</ele>
	<time>2023-08-07T06:47:56.000Z</time>
</trkpt>
<trkpt lat="46.1129300" lon="10.5161290">
	<ele>2619.80</ele>
	<time>2023-08-07T06:47:57.000Z</time>
</trkpt>
<trkpt lat="46.1129310" lon="10.5161290">
	<ele>2620.00</ele>
	<time>2023-08-07T06:47:58.000Z</time>
</trkpt>
<trkpt lat="46.1129320" lon="10.5161290">
	<ele>2620.20</ele>
	<time>2023-08-07T06:47:59.000Z</time>
</trkpt>
<trkpt lat="46.1129330" lon="10.5161290">
	<ele>2620.40</ele>
	<time>2023-08-07T06:48:00.000Z</time>
</trkpt>
<trkpt lat="46.1129340" lon="10.5161290">
	<ele>2620.60</ele>
	<time>2023-08-07T06:48:01.000Z</time>
</trkpt>
<trkpt lat="46.1129350" lon="10.5161290">
	<ele>2620.60</ele>
	<time>2023-08-07T06:48:02.000Z</time>
</trkpt>
<trkpt lat="46.1129360" lon="10.5161290">
	<ele>2620.60</ele>
	<time>2023-08-07T06:48:03.000Z</time>
</trkpt>
<trkpt lat="46.1129370" lon="10.5161290">
	<ele>2620.60</ele>
	<time>2023-08-07T06:48:04.000Z</time>
</trkpt>
<trkpt lat="46.1129370" lon="10.5161290">
	<ele>2620.60</ele>
	<time>2023-08-07T06:48:05.000Z</time>
</trkpt>
<trkpt lat="46.1129380" lon="10.5161290">
	<ele>2620.60</ele>
	<time>2023-08-07T06:48:06.000Z</time>
</trkpt>
<trkpt lat="46.1129380" lon="10.5161290">
	<ele>2620.60</ele>
	<time>2023-08-07T06:48:07.000Z</time>
</trkpt>
<trkpt lat="46.1129390" lon="10.5161290">
	<ele>2620.60</ele>
	<time>2023-08-07T06:48:08.000Z</time>
</trkpt>
<trkpt lat="46.1129390" lon="10.5161290">
	<ele>2620.40</ele>
	<time>2023-08-07T06:48:09.000Z</time>
</trkpt>
<trkpt lat="46.1129390" lon="10.5161290">
	<ele>2620.40</ele>
	<time>2023-08-07T06:48:10.000Z</time>
</trkpt>
<trkpt lat="46.1129390" lon="10.5161290">
	<ele>2620.20</ele>
	<time>2023-08-07T06:48:11.000Z</time>
</trkpt>
<trkpt lat="46.1129390" lon="10.5161290">
	<ele>2620.20</ele>
	<time>2023-08-07T06:48:12.000Z</time>
</trkpt>
<trkpt lat="46.1129390" lon="10.5161290">
	<ele>2620.00</ele>
	<time>2023-08-07T06:48:13.000Z</time>
</trkpt>
<trkpt lat="46.1129390" lon="10.5161290">
	<ele>2620.00</ele>
	<time>2023-08-07T06:48:14.000Z</time>
</trkpt>
<trkpt lat="46.1129390" lon="10.5161290">
	<ele>2620.00</ele>
	<time>2023-08-07T06:48:15.000Z</time>
</trkpt>
<trkpt lat="46.1129390" lon="10.5161290">
	<ele>2620.00</ele>
	<time>2023-08-07T06:48:16.000Z</time>
</trkpt>
<trkpt lat="46.1129390" lon="10.5161290">
	<ele>2620.00</ele>
	<time>2023-08-07T06:48:17.000Z</time>
</trkpt>
<trkpt lat="46.1129390" lon="10.5161290">
	<ele>2620.00</ele>
	<time>2023-08-07T06:48:18.000Z</time>
</trkpt>
<trkpt lat="46.1129390" lon="10.5161290">
	<ele>2620.00</ele>
	<time>2023-08-07T06:48:19.000Z</time>
</trkpt>
<trkpt lat="46.1129390" lon="10.5161290">
	<ele>2620.20</ele>
	<time>2023-08-07T06:48:20.000Z</time>
</trkpt>
<trkpt lat="46.1129390" lon="10.5161290">
	<ele>2620.20</ele>
	<time>2023-08-07T06:48:21.000Z</time>
</trkpt>
<trkpt lat="46.1129400" lon="10.5161290">
	<ele>2620.20</ele>
	<time>2023-08-07T06:48:22.000Z</time>
</trkpt>
<trkpt lat="46.1129400" lon="10.5161290">
	<ele>2620.20</ele>
	<time>2023-08-07T06:48:23.000Z</time>
</trkpt>
<trkpt lat="46.1129400" lon="10.5161290">
	<ele>2620.20</ele>
	<time>2023-08-07T06:48:24.000Z</time>
</trkpt>
<trkpt lat="46.1129400" lon="10.5161290">
	<ele>2620.20</ele>
	<time>2023-08-07T06:48:25.000Z</time>
</trkpt>
<trkpt lat="46.1129400" lon="10.5161290">
	<ele>2620.20</ele>
	<time>2023-08-07T06:48:26.000Z</time>
</trkpt>
<trkpt lat="46.1129400" lon="10.5161290">
	<ele>2620.20</ele>
	<time>2023-08-07T06:48:27.000Z</time>
</trkpt>
<trkpt lat="46.1129400" lon="10.5161290">
	<ele>2620.00</ele>
	<time>2023-08-07T06:48:28.000Z</time>
</trkpt>
<trkpt lat="46.1129400" lon="10.5161290">
	<ele>2619.80</ele>
	<time>2023-08-07T06:48:29.000Z</time>
</trkpt>
<trkpt lat="46.1129400" lon="10.5161290">
	<ele>2619.80</ele>
	<time>2023-08-07T06:48:30.000Z</time>
</trkpt>
<trkpt lat="46.1129400" lon="10.5161290">
	<ele>2619.80</ele>
	<time>2023-08-07T06:48:31.000Z</time>
</trkpt>
<trkpt lat="46.1129400" lon="10.5161290">
	<ele>2619.60</ele>
	<time>2023-08-07T06:48:32.000Z</time>
</trkpt>
<trkpt lat="46.1129410" lon="10.5161290">
	<ele>2619.60</ele>
	<time>2023-08-07T06:48:33.000Z</time>
</trkpt>
<trkpt lat="46.1129410" lon="10.5161290">
	<ele>2620.00</ele>
	<time>2023-08-07T06:48:34.000Z</time>
</trkpt>
<trkpt lat="46.1129410" lon="10.5161290">
	<ele>2620.20</ele>
	<time>2023-08-07T06:48:35.000Z</time>
</trkpt>
<trkpt lat="46.1129410" lon="10.5161290">
	<ele>2620.20</ele>
	<time>2023-08-07T06:48:36.000Z</time>
</trkpt>
<trkpt lat="46.1129410" lon="10.5161290">
	<ele>2620.40</ele>
	<time>2023-08-07T06:48:37.000Z</time>
</trkpt>
<trkpt lat="46.1129410" lon="10.5161290">
	<ele>2620.40</ele>
	<time>2023-08-07T06:48:38.000Z</time>
</trkpt>
<trkpt lat="46.1129410" lon="10.5161290">
	<ele>2620.40</ele>
	<time>2023-08-07T06:48:39.000Z</time>
</trkpt>
<trkpt lat="46.1129410" lon="10.5161290">
	<ele>2620.40</ele>
	<time>2023-08-07T06:48:40.000Z</time>
</trkpt>
<trkpt lat="46.1129420" lon="10.5161290">
	<ele>2620.20</ele>
	<time>2023-08-07T06:48:41.000Z</time>
</trkpt>
<trkpt lat="46.1129420" lon="10.5161290">
	<ele>2620.20</ele>
	<time>2023-08-07T06:48:42.000Z</time>
</trkpt>
<trkpt lat="46.1129420" lon="10.5161290">
	<ele>2620.20</ele>
	<time>2023-08-07T06:48:43.000Z</time>
</trkpt>
<trkpt lat="46.1129420" lon="10.5161290">
	<ele>2620.20</ele>
	<time>2023-08-07T06:48:44.000Z</time>
</trkpt>
<trkpt lat="46.1129420" lon="10.5161290">
	<ele>2620.20</ele>
	<time>2023-08-07T06:48:45.000Z</time>
</trkpt>
<trkpt lat="46.1129420" lon="10.5161290">
	<ele>2620.20</ele>
	<time>2023-08-07T06:48:46.000Z</time>
</trkpt>
<trkpt lat="46.1129420" lon="10.5161290">
	<ele>2620.20</ele>
	<time>2023-08-07T06:48:47.000Z</time>
</trkpt>
<trkpt lat="46.1129420" lon="10.5161290">
	<ele>2620.20</ele>
	<time>2023-08-07T06:48:48.000Z</time>
</trkpt>
<trkpt lat="46.1129420" lon="10.5161290">
	<ele>2620.20</ele>
	<time>2023-08-07T06:48:49.000Z</time>
</trkpt>
<trkpt lat="46.1129420" lon="10.5161290">
	<ele>2620.40</ele>
	<time>2023-08-07T06:48:50.000Z</time>
</trkpt>
<trkpt lat="46.1129420" lon="10.5161290">
	<ele>2620.40</ele>
	<time>2023-08-07T06:48:51.000Z</time>
</trkpt>
<trkpt lat="46.1129420" lon="10.5161290">
	<ele>2620.40</ele>
	<time>2023-08-07T06:48:52.000Z</time>
</trkpt>
<trkpt lat="46.1129420" lon="10.5161290">
	<ele>2620.20</ele>
	<time>2023-08-07T06:48:53.000Z</time>
</trkpt>
<trkpt lat="46.1129420" lon="10.5161280">
	<ele>2620.00</ele>
	<time>2023-08-07T06:48:54.000Z</time>
</trkpt>
<trkpt lat="46.1129430" lon="10.5161280">
	<ele>2620.00</ele>
	<time>2023-08-07T06:48:55.000Z</time>
</trkpt>
<trkpt lat="46.1129420" lon="10.5161290">
	<ele>2619.80</ele>
	<time>2023-08-07T06:48:56.000Z</time>
</trkpt>
<trkpt lat="46.1129420" lon="10.5161290">
	<ele>2619.80</ele>
	<time>2023-08-07T06:48:57.000Z</time>
</trkpt>
<trkpt lat="46.1129430" lon="10.5161290">
	<ele>2619.80</ele>
	<time>2023-08-07T06:48:58.000Z</time>
</trkpt>
<trkpt lat="46.1129430" lon="10.5161290">
	<ele>2619.80</ele>
	<time>2023-08-07T06:48:59.000Z</time>
</trkpt>
<trkpt lat="46.1129430" lon="10.5161280">
	<ele>2619.80</ele>
	<time>2023-08-07T06:49:00.000Z</time>
</trkpt>
<trkpt lat="46.1129440" lon="10.5161280">
	<ele>2619.80</ele>
	<time>2023-08-07T06:49:01.000Z</time>
</trkpt>
<trkpt lat="46.1129440" lon="10.5161270">
	<ele>2619.80</ele>
	<time>2023-08-07T06:49:02.000Z</time>
</trkpt>
<trkpt lat="46.1129440" lon="10.5161270">
	<ele>2619.80</ele>
	<time>2023-08-07T06:49:03.000Z</time>
</trkpt>
<trkpt lat="46.1129440" lon="10.5161270">
	<ele>2619.80</ele>
	<time>2023-08-07T06:49:04.000Z</time>
</trkpt>
<trkpt lat="46.1129450" lon="10.5161270">
	<ele>2619.80</ele>
	<time>2023-08-07T06:49:05.000Z</time>
</trkpt>
<trkpt lat="46.1129450" lon="10.5161260">
	<ele>2619.80</ele>
	<time>2023-08-07T06:49:06.000Z</time>
</trkpt>
<trkpt lat="46.1129450" lon="10.5161260">
	<ele>2619.60</ele>
	<time>2023-08-07T06:49:07.000Z</time>
</trkpt>
<trkpt lat="46.1129450" lon="10.5161260">
	<ele>2619.60</ele>
	<time>2023-08-07T06:49:08.000Z</time>
</trkpt>
<trkpt lat="46.1129450" lon="10.5161260">
	<ele>2619.60</ele>
	<time>2023-08-07T06:49:09.000Z</time>
</trkpt>
<trkpt lat="46.1129450" lon="10.5161270">
	<ele>2619.60</ele>
	<time>2023-08-07T06:49:10.000Z</time>
</trkpt>
<trkpt lat="46.1129450" lon="10.5161270">
	<ele>2619.40</ele>
	<time>2023-08-07T06:49:11.000Z</time>
</trkpt>
<trkpt lat="46.1129450" lon="10.5161270">
	<ele>2619.40</ele>
	<time>2023-08-07T06:49:12.000Z</time>
</trkpt>
<trkpt lat="46.1129450" lon="10.5161270">
	<ele>2619.40</ele>
	<time>2023-08-07T06:49:13.000Z</time>
</trkpt>
<trkpt lat="46.1129450" lon="10.5161270">
	<ele>2619.40</ele>
	<time>2023-08-07T06:49:14.000Z</time>
</trkpt>
<trkpt lat="46.1129450" lon="10.5161270">
	<ele>2619.40</ele>
	<time>2023-08-07T06:49:15.000Z</time>
</trkpt>
<trkpt lat="46.1129450" lon="10.5161260">
	<ele>2619.40</ele>
	<time>2023-08-07T06:49:16.000Z</time>
</trkpt>
<trkpt lat="46.1129450" lon="10.5161260">
	<ele>2619.40</ele>
	<time>2023-08-07T06:49:17.000Z</time>
</trkpt>
<trkpt lat="46.1129450" lon="10.5161260">
	<ele>2619.20</ele>
	<time>2023-08-07T06:49:18.000Z</time>
</trkpt>
<trkpt lat="46.1129450" lon="10.5161260">
	<ele>2619.40</ele>
	<time>2023-08-07T06:49:19.000Z</time>
</trkpt>
<trkpt lat="46.1129460" lon="10.5161260">
	<ele>2619.40</ele>
	<time>2023-08-07T06:49:20.000Z</time>
</trkpt>
<trkpt lat="46.1129460" lon="10.5161260">
	<ele>2619.40</ele>
	<time>2023-08-07T06:49:21.000Z</time>
</trkpt>
<trkpt lat="46.1129460" lon="10.5161260">
	<ele>2619.40</ele>
	<time>2023-08-07T06:49:22.000Z</time>
</trkpt>
<trkpt lat="46.1129460" lon="10.5161260">
	<ele>2619.60</ele>
	<time>2023-08-07T06:49:23.000Z</time>
</trkpt>
<trkpt lat="46.1129460" lon="10.5161260">
	<ele>2619.80</ele>
	<time>2023-08-07T06:49:24.000Z</time>
</trkpt>
<trkpt lat="46.1129460" lon="10.5161260">
	<ele>2619.80</ele>
	<time>2023-08-07T06:49:25.000Z</time>
</trkpt>
<trkpt lat="46.1129460" lon="10.5161260">
	<ele>2619.80</ele>
	<time>2023-08-07T06:49:26.000Z</time>
</trkpt>
<trkpt lat="46.1129460" lon="10.5161260">
	<ele>2619.80</ele>
	<time>2023-08-07T06:49:27.000Z</time>
</trkpt>
<trkpt lat="46.1129460" lon="10.5161250">
	<ele>2620.00</ele>
	<time>2023-08-07T06:49:28.000Z</time>
</trkpt>
<trkpt lat="46.1129490" lon="10.5161240">
	<ele>2619.80</ele>
	<time>2023-08-07T06:49:29.000Z</time>
</trkpt>
<trkpt lat="46.1129560" lon="10.5161170">
	<ele>2620.00</ele>
	<time>2023-08-07T06:49:30.000Z</time>
</trkpt>
<trkpt lat="46.1129610" lon="10.5161050">
	<ele>2620.00</ele>
	<time>2023-08-07T06:49:31.000Z</time>
</trkpt>
<trkpt lat="46.1129710" lon="10.5160830">
	<ele>2620.00</ele>
	<time>2023-08-07T06:49:32.000Z</time>
</trkpt>
<trkpt lat="46.1129810" lon="10.5160720">
	<ele>2620.20</ele>
	<time>2023-08-07T06:49:33.000Z</time>
</trkpt>
<trkpt lat="46.1129850" lon="10.5160650">
	<ele>2620.40</ele>
	<time>2023-08-07T06:49:34.000Z</time>
</trkpt>
<trkpt lat="46.1129890" lon="10.5160590">
	<ele>2620.60</ele>
	<time>2023-08-07T06:49:35.000Z</time>
</trkpt>
<trkpt lat="46.1129940" lon="10.5160620">
	<ele>2620.80</ele>
	<time>2023-08-07T06:49:36.000Z</time>
</trkpt>
<trkpt lat="46.1130010" lon="10.5160530">
	<ele>2620.80</ele>
	<time>2023-08-07T06:49:37.000Z</time>
</trkpt>
<trkpt lat="46.1130100" lon="10.5160410">
	<ele>2621.00</ele>
	<time>2023-08-07T06:49:38.000Z</time>
</trkpt>
<trkpt lat="46.1130130" lon="10.5160360">
	<ele>2621.00</ele>
	<time>2023-08-07T06:49:39.000Z</time>
</trkpt>
<trkpt lat="46.1130180" lon="10.5160200">
	<ele>2621.00</ele>
	<time>2023-08-07T06:49:40.000Z</time>
</trkpt>
<trkpt lat="46.1130210" lon="10.5160110">
	<ele>2621.00</ele>
	<time>2023-08-07T06:49:41.000Z</time>
</trkpt>
<trkpt lat="46.1130240" lon="10.5160040">
	<ele>2621.00</ele>
	<time>2023-08-07T06:49:42.000Z</time>
</trkpt>
<trkpt lat="46.1130300" lon="10.5159930">
	<ele>2620.80</ele>
	<time>2023-08-07T06:49:43.000Z</time>
</trkpt>
<trkpt lat="46.1130330" lon="10.5159850">
	<ele>2620.60</ele>
	<time>2023-08-07T06:49:44.000Z</time>
</trkpt>
<trkpt lat="46.1130370" lon="10.5159730">
	<ele>2620.60</ele>
	<time>2023-08-07T06:49:45.000Z</time>
</trkpt>
<trkpt lat="46.1130400" lon="10.5159610">
	<ele>2620.60</ele>
	<time>2023-08-07T06:49:46.000Z</time>
</trkpt>
<trkpt lat="46.1130420" lon="10.5159490">
	<ele>2620.60</ele>
	<time>2023-08-07T06:49:47.000Z</time>
</trkpt>
<trkpt lat="46.1130430" lon="10.5159460">
	<ele>2620.80</ele>
	<time>2023-08-07T06:49:48.000Z</time>
</trkpt>
<trkpt lat="46.1130440" lon="10.5159400">
	<ele>2620.80</ele>
	<time>2023-08-07T06:49:49.000Z</time>
</trkpt>
<trkpt lat="46.1130430" lon="10.5159370">
	<ele>2621.00</ele>
	<time>2023-08-07T06:49:50.000Z</time>
</trkpt>
<trkpt lat="46.1130420" lon="10.5159330">
	<ele>2621.00</ele>
	<time>2023-08-07T06:49:51.000Z</time>
</trkpt>
<trkpt lat="46.1130450" lon="10.5159280">
	<ele>2621.00</ele>
	<time>2023-08-07T06:49:52.000Z</time>
</trkpt>
<trkpt lat="46.1130480" lon="10.5159250">
	<ele>2621.00</ele>
	<time>2023-08-07T06:49:53.000Z</time>
</trkpt>
<trkpt lat="46.1130530" lon="10.5159250">
	<ele>2621.20</ele>
	<time>2023-08-07T06:49:54.000Z</time>
</trkpt>
<trkpt lat="46.1130540" lon="10.5159180">
	<ele>2621.20</ele>
	<time>2023-08-07T06:49:55.000Z</time>
</trkpt>
<trkpt lat="46.1130590" lon="10.5159050">
	<ele>2621.40</ele>
	<time>2023-08-07T06:49:56.000Z</time>
</trkpt>
<trkpt lat="46.1130640" lon="10.5158940">
	<ele>2621.40</ele>
	<time>2023-08-07T06:49:57.000Z</time>
</trkpt>
<trkpt lat="46.1130680" lon="10.5158910">
	<ele>2621.60</ele>
	<time>2023-08-07T06:49:58.000Z</time>
</trkpt>
<trkpt lat="46.1130710" lon="10.5158900">
	<ele>2621.60</ele>
	<time>2023-08-07T06:49:59.000Z</time>
</trkpt>
<trkpt lat="46.1130710" lon="10.5158820">
	<ele>2621.80</ele>
	<time>2023-08-07T06:50:00.000Z</time>
</trkpt>
<trkpt lat="46.1130740" lon="10.5158690">
	<ele>2622.00</ele>
	<time>2023-08-07T06:50:01.000Z</time>
</trkpt>
<trkpt lat="46.1130760" lon="10.5158630">
	<ele>2622.40</ele>
	<time>2023-08-07T06:50:02.000Z</time>
</trkpt>
<trkpt lat="46.1130770" lon="10.5158620">
	<ele>2622.60</ele>
	<time>2023-08-07T06:50:03.000Z</time>
</trkpt>
<trkpt lat="46.1130830" lon="10.5158520">
	<ele>2622.60</ele>
	<time>2023-08-07T06:50:04.000Z</time>
</trkpt>
<trkpt lat="46.1130940" lon="10.5158410">
	<ele>2622.80</ele>
	<time>2023-08-07T06:50:05.000Z</time>
</trkpt>
<trkpt lat="46.1130990" lon="10.5158350">
	<ele>2622.80</ele>
	<time>2023-08-07T06:50:06.000Z</time>
</trkpt>
<trkpt lat="46.1131010" lon="10.5158350">
	<ele>2622.80</ele>
	<time>2023-08-07T06:50:07.000Z</time>
</trkpt>
<trkpt lat="46.1131040" lon="10.5158330">
	<ele>2622.80</ele>
	<time>2023-08-07T06:50:08.000Z</time>
</trkpt>
<trkpt lat="46.1131070" lon="10.5158280">
	<ele>2623.00</ele>
	<time>2023-08-07T06:50:09.000Z</time>
</trkpt>
<trkpt lat="46.1131080" lon="10.5158370">
	<ele>2623.20</ele>
	<time>2023-08-07T06:50:10.000Z</time>
</trkpt>
<trkpt lat="46.1131110" lon="10.5158320">
	<ele>2623.40</ele>
	<time>2023-08-07T06:50:11.000Z</time>
</trkpt>
<trkpt lat="46.1131140" lon="10.5158230">
	<ele>2623.40</ele>
	<time>2023-08-07T06:50:12.000Z</time>
</trkpt>
<trkpt lat="46.1131160" lon="10.5158170">
	<ele>2623.60</ele>
	<time>2023-08-07T06:50:13.000Z</time>
</trkpt>
<trkpt lat="46.1131170" lon="10.5158140">
	<ele>2623.80</ele>
	<time>2023-08-07T06:50:14.000Z</time>
</trkpt>
<trkpt lat="46.1131180" lon="10.5158110">
	<ele>2624.00</ele>
	<time>2023-08-07T06:50:15.000Z</time>
</trkpt>
<trkpt lat="46.1131170" lon="10.5158110">
	<ele>2624.20</ele>
	<time>2023-08-07T06:50:16.000Z</time>
</trkpt>
<trkpt lat="46.1131190" lon="10.5158130">
	<ele>2624.40</ele>
	<time>2023-08-07T06:50:17.000Z</time>
</trkpt>
<trkpt lat="46.1131210" lon="10.5158090">
	<ele>2624.60</ele>
	<time>2023-08-07T06:50:18.000Z</time>
</trkpt>
<trkpt lat="46.1131210" lon="10.5158080">
	<ele>2624.80</ele>
	<time>2023-08-07T06:50:19.000Z</time>
</trkpt>
<trkpt lat="46.1131210" lon="10.5158090">
	<ele>2624.80</ele>
	<time>2023-08-07T06:50:20.000Z</time>
</trkpt>
<trkpt lat="46.1131250" lon="10.5158060">
	<ele>2624.80</ele>
	<time>2023-08-07T06:50:21.000Z</time>
</trkpt>
<trkpt lat="46.1131290" lon="10.5157990">
	<ele>2625.00</ele>
	<time>2023-08-07T06:50:22.000Z</time>
</trkpt>
<trkpt lat="46.1131340" lon="10.5157940">
	<ele>2625.20</ele>
	<time>2023-08-07T06:50:23.000Z</time>
</trkpt>
<trkpt lat="46.1131410" lon="10.5157820">
	<ele>2625.40</ele>
	<time>2023-08-07T06:50:24.000Z</time>
</trkpt>
<trkpt lat="46.1131460" lon="10.5157780">
	<ele>2625.60</ele>
	<time>2023-08-07T06:50:25.000Z</time>
</trkpt>
<trkpt lat="46.1131500" lon="10.5157800">
	<ele>2625.80</ele>
	<time>2023-08-07T06:50:26.000Z</time>
</trkpt>
<trkpt lat="46.1131540" lon="10.5157800">
	<ele>2625.80</ele>
	<time>2023-08-07T06:50:27.000Z</time>
</trkpt>
<trkpt lat="46.1131550" lon="10.5157810">
	<ele>2626.00</ele>
	<time>2023-08-07T06:50:28.000Z</time>
</trkpt>
<trkpt lat="46.1131570" lon="10.5157840">
	<ele>2626.00</ele>
	<time>2023-08-07T06:50:29.000Z</time>
</trkpt>
<trkpt lat="46.1131670" lon="10.5157850">
	<ele>2626.40</ele>
	<time>2023-08-07T06:50:30.000Z</time>
</trkpt>
<trkpt lat="46.1131750" lon="10.5157880">
	<ele>2626.40</ele>
	<time>2023-08-07T06:50:31.000Z</time>
</trkpt>
<trkpt lat="46.1131790" lon="10.5157870">
	<ele>2626.60</ele>
	<time>2023-08-07T06:50:32.000Z</time>
</trkpt>
<trkpt lat="46.1131800" lon="10.5157830">
	<ele>2626.60</ele>
	<time>2023-08-07T06:50:33.000Z</time>
</trkpt>
<trkpt lat="46.1131840" lon="10.5157820">
	<ele>2626.80</ele>
	<time>2023-08-07T06:50:34.000Z</time>
</trkpt>
<trkpt lat="46.1131870" lon="10.5157790">
	<ele>2627.00</ele>
	<time>2023-08-07T06:50:35.000Z</time>
</trkpt>
<trkpt lat="46.1131860" lon="10.5157730">
	<ele>2627.00</ele>
	<time>2023-08-07T06:50:36.000Z</time>
</trkpt>
<trkpt lat="46.1131880" lon="10.5157690">
	<ele>2627.20</ele>
	<time>2023-08-07T06:50:37.000Z</time>
</trkpt>
<trkpt lat="46.1131900" lon="10.5157660">
	<ele>2627.40</ele>
	<time>2023-08-07T06:50:38.000Z</time>
</trkpt>
<trkpt lat="46.1131940" lon="10.5157640">
	<ele>2627.40</ele>
	<time>2023-08-07T06:50:39.000Z</time>
</trkpt>
<trkpt lat="46.1131950" lon="10.5157620">
	<ele>2627.60</ele>
	<time>2023-08-07T06:50:40.000Z</time>
</trkpt>
<trkpt lat="46.1131950" lon="10.5157590">
	<ele>2627.60</ele>
	<time>2023-08-07T06:50:41.000Z</time>
</trkpt>
<trkpt lat="46.1131980" lon="10.5157530">
	<ele>2627.80</ele>
	<time>2023-08-07T06:50:42.000Z</time>
</trkpt>
<trkpt lat="46.1131980" lon="10.5157490">
	<ele>2627.80</ele>
	<time>2023-08-07T06:50:43.000Z</time>
</trkpt>
<trkpt lat="46.1131990" lon="10.5157450">
	<ele>2627.80</ele>
	<time>2023-08-07T06:50:44.000Z</time>
</trkpt>
<trkpt lat="46.1132000" lon="10.5157330">
	<ele>2628.00</ele>
	<time>2023-08-07T06:50:45.000Z</time>
</trkpt>
<trkpt lat="46.1132030" lon="10.5157270">
	<ele>2628.20</ele>
	<time>2023-08-07T06:50:46.000Z</time>
</trkpt>
<trkpt lat="46.1132060" lon="10.5157240">
	<ele>2628.20</ele>
	<time>2023-08-07T06:50:47.000Z</time>
</trkpt>
<trkpt lat="46.1132050" lon="10.5157170">
	<ele>2628.40</ele>
	<time>2023-08-07T06:50:48.000Z</time>
</trkpt>
<trkpt lat="46.1132050" lon="10.5157060">
	<ele>2628.40</ele>
	<time>2023-08-07T06:50:49.000Z</time>
</trkpt>
<trkpt lat="46.1132060" lon="10.5156990">
	<ele>2628.60</ele>
	<time>2023-08-07T06:50:50.000Z</time>
</trkpt>
<trkpt lat="46.1132080" lon="10.5156930">
	<ele>2629.00</ele>
	<time>2023-08-07T06:50:51.000Z</time>
</trkpt>
<trkpt lat="46.1132090" lon="10.5156910">
	<ele>2629.20</ele>
	<time>2023-08-07T06:50:52.000Z</time>
</trkpt>
<trkpt lat="46.1132120" lon="10.5156890">
	<ele>2629.40</ele>
	<time>2023-08-07T06:50:53.000Z</time>
</trkpt>
<trkpt lat="46.1132130" lon="10.5156880">
	<ele>2629.40</ele>
	<time>2023-08-07T06:50:54.000Z</time>
</trkpt>
<trkpt lat="46.1132120" lon="10.5156880">
	<ele>2629.60</ele>
	<time>2023-08-07T06:50:55.000Z</time>
</trkpt>
<trkpt lat="46.1132100" lon="10.5156880">
	<ele>2629.60</ele>
	<time>2023-08-07T06:50:56.000Z</time>
</trkpt>
<trkpt lat="46.1132120" lon="10.5156830">
	<ele>2629.60</ele>
	<time>2023-08-07T06:50:57.000Z</time>
</trkpt>
<trkpt lat="46.1132140" lon="10.5156800">
	<ele>2629.60</ele>
	<time>2023-08-07T06:50:58.000Z</time>
</trkpt>
<trkpt lat="46.1132170" lon="10.5156790">
	<ele>2629.80</ele>
	<time>2023-08-07T06:50:59.000Z</time>
</trkpt>
<trkpt lat="46.1132180" lon="10.5156790">
	<ele>2630.00</ele>
	<time>2023-08-07T06:51:00.000Z</time>
</trkpt>
<trkpt lat="46.1132190" lon="10.5156770">
	<ele>2630.20</ele>
	<time>2023-08-07T06:51:01.000Z</time>
</trkpt>
<trkpt lat="46.1132210" lon="10.5156730">
	<ele>2630.40</ele>
	<time>2023-08-07T06:51:02.000Z</time>
</trkpt>
<trkpt lat="46.1132210" lon="10.5156680">
	<ele>2630.40</ele>
	<time>2023-08-07T06:51:03.000Z</time>
</trkpt>
<trkpt lat="46.1132200" lon="10.5156650">
	<ele>2630.60</ele>
	<time>2023-08-07T06:51:04.000Z</time>
</trkpt>
<trkpt lat="46.1132250" lon="10.5156590">
	<ele>2630.60</ele>
	<time>2023-08-07T06:51:05.000Z</time>
</trkpt>
<trkpt lat="46.1132310" lon="10.5156520">
	<ele>2630.80</ele>
	<time>2023-08-07T06:51:06.000Z</time>
</trkpt>
<trkpt lat="46.1132370" lon="10.5156490">
	<ele>2630.80</ele>
	<time>2023-08-07T06:51:07.000Z</time>
</trkpt>
<trkpt lat="46.1132370" lon="10.5156410">
	<ele>2631.00</ele>
	<time>2023-08-07T06:51:08.000Z</time>
</trkpt>
<trkpt lat="46.1132360" lon="10.5156320">
	<ele>2631.20</ele>
	<time>2023-08-07T06:51:09.000Z</time>
</trkpt>
<trkpt lat="46.1132390" lon="10.5156290">
	<ele>2631.20</ele>
	<time>2023-08-07T06:51:10.000Z</time>
</trkpt>
<trkpt lat="46.1132400" lon="10.5156260">
	<ele>2631.40</ele>
	<time>2023-08-07T06:51:11.000Z</time>
</trkpt>
<trkpt lat="46.1132430" lon="10.5156280">
	<ele>2631.60</ele>
	<time>2023-08-07T06:51:12.000Z</time>
</trkpt>
<trkpt lat="46.1132480" lon="10.5156220">
	<ele>2631.60</ele>
	<time>2023-08-07T06:51:13.000Z</time>
</trkpt>
<trkpt lat="46.1132510" lon="10.5156180">
	<ele>2631.60</ele>
	<time>2023-08-07T06:51:14.000Z</time>
</trkpt>
<trkpt lat="46.1132540" lon="10.5156070">
	<ele>2631.80</ele>
	<time>2023-08-07T06:51:15.000Z</time>
</trkpt>
<trkpt lat="46.1132560" lon="10.5156040">
	<ele>2632.00</ele>
	<time>2023-08-07T06:51:16.000Z</time>
</trkpt>
<trkpt lat="46.1132570" lon="10.5156040">
	<ele>2632.00</ele>
	<time>2023-08-07T06:51:17.000Z</time>
</trkpt>
<trkpt lat="46.1132570" lon="10.5156040">
	<ele>2632.20</ele>
	<time>2023-08-07T06:51:18.000Z</time>
</trkpt>
<trkpt lat="46.1132590" lon="10.5156020">
	<ele>2632.20</ele>
	<time>2023-08-07T06:51:19.000Z</time>
</trkpt>
<trkpt lat="46.1132640" lon="10.5155960">
	<ele>2632.40</ele>
	<time>2023-08-07T06:51:20.000Z</time>
</trkpt>
<trkpt lat="46.1132670" lon="10.5155940">
	<ele>2632.40</ele>
	<time>2023-08-07T06:51:21.000Z</time>
</trkpt>
<trkpt lat="46.1132690" lon="10.5155970">
	<ele>2632.60</ele>
	<time>2023-08-07T06:51:22.000Z</time>
</trkpt>
<trkpt lat="46.1132710" lon="10.5155960">
	<ele>2632.80</ele>
	<time>2023-08-07T06:51:23.000Z</time>
</trkpt>
<trkpt lat="46.1132780" lon="10.5155950">
	<ele>2632.80</ele>
	<time>2023-08-07T06:51:24.000Z</time>
</trkpt>
<trkpt lat="46.1132820" lon="10.5155970">
	<ele>2633.20</ele>
	<time>2023-08-07T06:51:25.000Z</time>
</trkpt>
<trkpt lat="46.1132840" lon="10.5155960">
	<ele>2633.40</ele>
	<time>2023-08-07T06:51:26.000Z</time>
</trkpt>
<trkpt lat="46.1132850" lon="10.5155950">
	<ele>2633.60</ele>
	<time>2023-08-07T06:51:27.000Z</time>
</trkpt>
<trkpt lat="46.1132860" lon="10.5155960">
	<ele>2633.80</ele>
	<time>2023-08-07T06:51:28.000Z</time>
</trkpt>
<trkpt lat="46.1132850" lon="10.5155980">
	<ele>2633.80</ele>
	<time>2023-08-07T06:51:29.000Z</time>
</trkpt>
<trkpt lat="46.1132840" lon="10.5155990">
	<ele>2633.80</ele>
	<time>2023-08-07T06:51:30.000Z</time>
</trkpt>
<trkpt lat="46.1132810" lon="10.5156000">
	<ele>2633.60</ele>
	<time>2023-08-07T06:51:31.000Z</time>
</trkpt>
<trkpt lat="46.1132810" lon="10.5156020">
	<ele>2633.40</ele>
	<time>2023-08-07T06:51:32.000Z</time>
</trkpt>
<trkpt lat="46.1132840" lon="10.5156020">
	<ele>2633.20</ele>
	<time>2023-08-07T06:51:33.000Z</time>
</trkpt>
<trkpt lat="46.1132850" lon="10.5156030">
	<ele>2633.20</ele>
	<time>2023-08-07T06:51:34.000Z</time>
</trkpt>
<trkpt lat="46.1132850" lon="10.5156020">
	<ele>2633.20</ele>
	<time>2023-08-07T06:51:35.000Z</time>
</trkpt>
<trkpt lat="46.1132850" lon="10.5156020">
	<ele>2633.40</ele>
	<time>2023-08-07T06:51:36.000Z</time>
</trkpt>
<trkpt lat="46.1132850" lon="10.5156020">
	<ele>2633.60</ele>
	<time>2023-08-07T06:51:37.000Z</time>
</trkpt>
<trkpt lat="46.1132850" lon="10.5156020">
	<ele>2633.60</ele>
	<time>2023-08-07T06:51:38.000Z</time>
</trkpt>
<trkpt lat="46.1132850" lon="10.5156020">
	<ele>2633.60</ele>
	<time>2023-08-07T06:51:39.000Z</time>
</trkpt>
<trkpt lat="46.1132850" lon="10.5156020">
	<ele>2633.80</ele>
	<time>2023-08-07T06:51:40.000Z</time>
</trkpt>
<trkpt lat="46.1132850" lon="10.5156020">
	<ele>2633.80</ele>
	<time>2023-08-07T06:51:41.000Z</time>
</trkpt>
<trkpt lat="46.1132850" lon="10.5156020">
	<ele>2633.80</ele>
	<time>2023-08-07T06:51:42.000Z</time>
</trkpt>
<trkpt lat="46.1132850" lon="10.5156020">
	<ele>2633.80</ele>
	<time>2023-08-07T06:51:43.000Z</time>
</trkpt>
<trkpt lat="46.1132850" lon="10.5156020">
	<ele>2634.00</ele>
	<time>2023-08-07T06:51:44.000Z</time>
</trkpt>
<trkpt lat="46.1132850" lon="10.5156020">
	<ele>2634.00</ele>
	<time>2023-08-07T06:51:45.000Z</time>
</trkpt>
<trkpt lat="46.1132850" lon="10.5156020">
	<ele>2634.00</ele>
	<time>2023-08-07T06:51:46.000Z</time>
</trkpt>
<trkpt lat="46.1132850" lon="10.5156020">
	<ele>2634.00</ele>
	<time>2023-08-07T06:51:47.000Z</time>
</trkpt>
<trkpt lat="46.1132850" lon="10.5156020">
	<ele>2634.00</ele>
	<time>2023-08-07T06:51:48.000Z</time>
</trkpt>
<trkpt lat="46.1132850" lon="10.5156020">
	<ele>2633.80</ele>
	<time>2023-08-07T06:51:49.000Z</time>
</trkpt>
<trkpt lat="46.1132850" lon="10.5156020">
	<ele>2633.40</ele>
	<time>2023-08-07T06:51:50.000Z</time>
</trkpt>
<trkpt lat="46.1132860" lon="10.5156020">
	<ele>2633.20</ele>
	<time>2023-08-07T06:51:51.000Z</time>
</trkpt>
<trkpt lat="46.1132860" lon="10.5156020">
	<ele>2633.20</ele>
	<time>2023-08-07T06:51:52.000Z</time>
</trkpt>
<trkpt lat="46.1132860" lon="10.5156020">
	<ele>2633.20</ele>
	<time>2023-08-07T06:51:53.000Z</time>
</trkpt>
<trkpt lat="46.1132870" lon="10.5156020">
	<ele>2633.20</ele>
	<time>2023-08-07T06:51:54.000Z</time>
</trkpt>
<trkpt lat="46.1132870" lon="10.5156020">
	<ele>2633.20</ele>
	<time>2023-08-07T06:51:55.000Z</time>
</trkpt>
<trkpt lat="46.1132870" lon="10.5156020">
	<ele>2633.20</ele>
	<time>2023-08-07T06:51:56.000Z</time>
</trkpt>
<trkpt lat="46.1132880" lon="10.5156020">
	<ele>2633.40</ele>
	<time>2023-08-07T06:51:57.000Z</time>
</trkpt>
<trkpt lat="46.1132890" lon="10.5156020">
	<ele>2633.60</ele>
	<time>2023-08-07T06:51:58.000Z</time>
</trkpt>
<trkpt lat="46.1132890" lon="10.5156030">
	<ele>2633.60</ele>
	<time>2023-08-07T06:51:59.000Z</time>
</trkpt>
<trkpt lat="46.1132890" lon="10.5156030">
	<ele>2633.60</ele>
	<time>2023-08-07T06:52:00.000Z</time>
</trkpt>
<trkpt lat="46.1132900" lon="10.5156040">
	<ele>2633.80</ele>
	<time>2023-08-07T06:52:01.000Z</time>
</trkpt>
<trkpt lat="46.1132900" lon="10.5156050">
	<ele>2634.00</ele>
	<time>2023-08-07T06:52:02.000Z</time>
</trkpt>
<trkpt lat="46.1132910" lon="10.5156050">
	<ele>2634.00</ele>
	<time>2023-08-07T06:52:03.000Z</time>
</trkpt>
<trkpt lat="46.1132910" lon="10.5156060">
	<ele>2634.00</ele>
	<time>2023-08-07T06:52:04.000Z</time>
</trkpt>
<trkpt lat="46.1132920" lon="10.5156060">
	<ele>2634.20</ele>
	<time>2023-08-07T06:52:05.000Z</time>
</trkpt>
<trkpt lat="46.1132920" lon="10.5156060">
	<ele>2634.40</ele>
	<time>2023-08-07T06:52:06.000Z</time>
</trkpt>
<trkpt lat="46.1132920" lon="10.5156060">
	<ele>2634.40</ele>
	<time>2023-08-07T06:52:07.000Z</time>
</trkpt>
<trkpt lat="46.1132920" lon="10.5156060">
	<ele>2634.80</ele>
	<time>2023-08-07T06:52:08.000Z</time>
</trkpt>
<trkpt lat="46.1132920" lon="10.5156060">
	<ele>2635.00</ele>
	<time>2023-08-07T06:52:09.000Z</time>
</trkpt>
<trkpt lat="46.1132920" lon="10.5156060">
	<ele>2635.20</ele>
	<time>2023-08-07T06:52:10.000Z</time>
</trkpt>
<trkpt lat="46.1132920" lon="10.5156060">
	<ele>2635.20</ele>
	<time>2023-08-07T06:52:11.000Z</time>
</trkpt>
<trkpt lat="46.1132920" lon="10.5156060">
	<ele>2635.40</ele>
	<time>2023-08-07T06:52:12.000Z</time>
</trkpt>
<trkpt lat="46.1132910" lon="10.5156060">
	<ele>2635.40</ele>
	<time>2023-08-07T06:52:13.000Z</time>
</trkpt>
<trkpt lat="46.1132900" lon="10.5156060">
	<ele>2635.60</ele>
	<time>2023-08-07T06:52:14.000Z</time>
</trkpt>
<trkpt lat="46.1132900" lon="10.5156060">
	<ele>2635.80</ele>
	<time>2023-08-07T06:52:15.000Z</time>
</trkpt>
<trkpt lat="46.1132890" lon="10.5156060">
	<ele>2636.00</ele>
	<time>2023-08-07T06:52:16.000Z</time>
</trkpt>
<trkpt lat="46.1132890" lon="10.5156060">
	<ele>2636.20</ele>
	<time>2023-08-07T06:52:17.000Z</time>
</trkpt>
<trkpt lat="46.1132890" lon="10.5156060">
	<ele>2636.40</ele>
	<time>2023-08-07T06:52:18.000Z</time>
</trkpt>
<trkpt lat="46.1132890" lon="10.5156050">
	<ele>2636.40</ele>
	<time>2023-08-07T06:52:19.000Z</time>
</trkpt>
<trkpt lat="46.1132890" lon="10.5156000">
	<ele>2636.40</ele>
	<time>2023-08-07T06:52:20.000Z</time>
</trkpt>
<trkpt lat="46.1132890" lon="10.5155920">
	<ele>2636.60</ele>
	<time>2023-08-07T06:52:21.000Z</time>
</trkpt>
<trkpt lat="46.1132900" lon="10.5155860">
	<ele>2636.80</ele>
	<time>2023-08-07T06:52:22.000Z</time>
</trkpt>
<trkpt lat="46.1132910" lon="10.5155840">
	<ele>2636.80</ele>
	<time>2023-08-07T06:52:23.000Z</time>
</trkpt>
<trkpt lat="46.1132910" lon="10.5155830">
	<ele>2637.00</ele>
	<time>2023-08-07T06:52:24.000Z</time>
</trkpt>
<trkpt lat="46.1132910" lon="10.5155800">
	<ele>2637.20</ele>
	<time>2023-08-07T06:52:25.000Z</time>
</trkpt>
<trkpt lat="46.1132910" lon="10.5155700">
	<ele>2637.40</ele>
	<time>2023-08-07T06:52:26.000Z</time>
</trkpt>
<trkpt lat="46.1132910" lon="10.5155600">
	<ele>2637.60</ele>
	<time>2023-08-07T06:52:27.000Z</time>
</trkpt>
<trkpt lat="46.1132910" lon="10.5155560">
	<ele>2637.80</ele>
	<time>2023-08-07T06:52:28.000Z</time>
</trkpt>
<trkpt lat="46.1132910" lon="10.5155520">
	<ele>2637.80</ele>
	<time>2023-08-07T06:52:29.000Z</time>
</trkpt>
<trkpt lat="46.1132910" lon="10.5155470">
	<ele>2637.80</ele>
	<time>2023-08-07T06:52:30.000Z</time>
</trkpt>
<trkpt lat="46.1132910" lon="10.5155410">
	<ele>2638.00</ele>
	<time>2023-08-07T06:52:31.000Z</time>
</trkpt>
<trkpt lat="46.1132910" lon="10.5155370">
	<ele>2638.00</ele>
	<time>2023-08-07T06:52:32.000Z</time>
</trkpt>
<trkpt lat="46.1132910" lon="10.5155290">
	<ele>2638.00</ele>
	<time>2023-08-07T06:52:33.000Z</time>
</trkpt>
<trkpt lat="46.1132910" lon="10.5155200">
	<ele>2638.00</ele>
	<time>2023-08-07T06:52:34.000Z</time>
</trkpt>
<trkpt lat="46.1132910" lon="10.5155110">
	<ele>2638.20</ele>
	<time>2023-08-07T06:52:35.000Z</time>
</trkpt>
<trkpt lat="46.1132910" lon="10.5155050">
	<ele>2638.40</ele>
	<time>2023-08-07T06:52:36.000Z</time>
</trkpt>
<trkpt lat="46.1132930" lon="10.5155030">
	<ele>2638.60</ele>
	<time>2023-08-07T06:52:37.000Z</time>
</trkpt>
<trkpt lat="46.1132950" lon="10.5155020">
	<ele>2638.80</ele>
	<time>2023-08-07T06:52:38.000Z</time>
</trkpt>
<trkpt lat="46.1133010" lon="10.5155000">
	<ele>2639.00</ele>
	<time>2023-08-07T06:52:39.000Z</time>
</trkpt>
<trkpt lat="46.1133070" lon="10.5154990">
	<ele>2639.20</ele>
	<time>2023-08-07T06:52:40.000Z</time>
</trkpt>
<trkpt lat="46.1133100" lon="10.5154970">
	<ele>2639.20</ele>
	<time>2023-08-07T06:52:41.000Z</time>
</trkpt>
<trkpt lat="46.1133150" lon="10.5154960">
	<ele>2639.40</ele>
	<time>2023-08-07T06:52:42.000Z</time>
</trkpt>
<trkpt lat="46.1133190" lon="10.5154950">
	<ele>2639.60</ele>
	<time>2023-08-07T06:52:43.000Z</time>
</trkpt>
<trkpt lat="46.1133210" lon="10.5154950">
	<ele>2639.80</ele>
	<time>2023-08-07T06:52:44.000Z</time>
</trkpt>
<trkpt lat="46.1133240" lon="10.5154930">
	<ele>2639.80</ele>
	<time>2023-08-07T06:52:45.000Z</time>
</trkpt>
<trkpt lat="46.1133260" lon="10.5154920">
	<ele>2640.00</ele>
	<time>2023-08-07T06:52:46.000Z</time>
</trkpt>
<trkpt lat="46.1133270" lon="10.5154890">
	<ele>2640.00</ele>
	<time>2023-08-07T06:52:47.000Z</time>
</trkpt>
<trkpt lat="46.1133280" lon="10.5154850">
	<ele>2640.20</ele>
	<time>2023-08-07T06:52:48.000Z</time>
</trkpt>
<trkpt lat="46.1133280" lon="10.5154780">
	<ele>2640.20</ele>
	<time>2023-08-07T06:52:49.000Z</time>
</trkpt>
<trkpt lat="46.1133300" lon="10.5154720">
	<ele>2640.40</ele>
	<time>2023-08-07T06:52:50.000Z</time>
</trkpt>
<trkpt lat="46.1133310" lon="10.5154650">
	<ele>2640.40</ele>
	<time>2023-08-07T06:52:51.000Z</time>
</trkpt>
<trkpt lat="46.1133320" lon="10.5154610">
	<ele>2640.40</ele>
	<time>2023-08-07T06:52:52.000Z</time>
</trkpt>
<trkpt lat="46.1133320" lon="10.5154580">
	<ele>2640.60</ele>
	<time>2023-08-07T06:52:53.000Z</time>
</trkpt>
<trkpt lat="46.1133330" lon="10.5154550">
	<ele>2640.60</ele>
	<time>2023-08-07T06:52:54.000Z</time>
</trkpt>
<trkpt lat="46.1133330" lon="10.5154530">
	<ele>2640.80</ele>
	<time>2023-08-07T06:52:55.000Z</time>
</trkpt>
<trkpt lat="46.1133340" lon="10.5154520">
	<ele>2640.80</ele>
	<time>2023-08-07T06:52:56.000Z</time>
</trkpt>
<trkpt lat="46.1133350" lon="10.5154510">
	<ele>2641.00</ele>
	<time>2023-08-07T06:52:57.000Z</time>
</trkpt>
<trkpt lat="46.1133370" lon="10.5154480">
	<ele>2641.20</ele>
	<time>2023-08-07T06:52:58.000Z</time>
</trkpt>
<trkpt lat="46.1133380" lon="10.5154440">
	<ele>2641.40</ele>
	<time>2023-08-07T06:52:59.000Z</time>
</trkpt>
<trkpt lat="46.1133380" lon="10.5154390">
	<ele>2641.40</ele>
	<time>2023-08-07T06:53:00.000Z</time>
</trkpt>
<trkpt lat="46.1133380" lon="10.5154350">
	<ele>2641.60</ele>
	<time>2023-08-07T06:53:01.000Z</time>
</trkpt>
<trkpt lat="46.1133380" lon="10.5154330">
	<ele>2641.80</ele>
	<time>2023-08-07T06:53:02.000Z</time>
</trkpt>
<trkpt lat="46.1133380" lon="10.5154320">
	<ele>2641.80</ele>
	<time>2023-08-07T06:53:03.000Z</time>
</trkpt>
<trkpt lat="46.1133380" lon="10.5154280">
	<ele>2641.80</ele>
	<time>2023-08-07T06:53:04.000Z</time>
</trkpt>
<trkpt lat="46.1133380" lon="10.5154230">
	<ele>2642.00</ele>
	<time>2023-08-07T06:53:05.000Z</time>
</trkpt>
<trkpt lat="46.1133380" lon="10.5154200">
	<ele>2642.20</ele>
	<time>2023-08-07T06:53:06.000Z</time>
</trkpt>
<trkpt lat="46.1133380" lon="10.5154170">
	<ele>2642.40</ele>
	<time>2023-08-07T06:53:07.000Z</time>
</trkpt>
<trkpt lat="46.1133380" lon="10.5154140">
	<ele>2642.60</ele>
	<time>2023-08-07T06:53:08.000Z</time>
</trkpt>
<trkpt lat="46.1133380" lon="10.5154130">
	<ele>2642.80</ele>
	<time>2023-08-07T06:53:09.000Z</time>
</trkpt>
<trkpt lat="46.1133390" lon="10.5154120">
	<ele>2642.80</ele>
	<time>2023-08-07T06:53:10.000Z</time>
</trkpt>
<trkpt lat="46.1133390" lon="10.5154110">
	<ele>2643.00</ele>
	<time>2023-08-07T06:53:11.000Z</time>
</trkpt>
<trkpt lat="46.1133390" lon="10.5154110">
	<ele>2643.20</ele>
	<time>2023-08-07T06:53:12.000Z</time>
</trkpt>
<trkpt lat="46.1133390" lon="10.5154110">
	<ele>2643.40</ele>
	<time>2023-08-07T06:53:13.000Z</time>
</trkpt>
<trkpt lat="46.1133390" lon="10.5154110">
	<ele>2643.60</ele>
	<time>2023-08-07T06:53:14.000Z</time>
</trkpt>
<trkpt lat="46.1133400" lon="10.5154070">
	<ele>2643.80</ele>
	<time>2023-08-07T06:53:15.000Z</time>
</trkpt>
<trkpt lat="46.1133400" lon="10.5154030">
	<ele>2644.00</ele>
	<time>2023-08-07T06:53:16.000Z</time>
</trkpt>
<trkpt lat="46.1133400" lon="10.5154000">
	<ele>2644.00</ele>
	<time>2023-08-07T06:53:17.000Z</time>
</trkpt>
<trkpt lat="46.1133400" lon="10.5153980">
	<ele>2644.20</ele>
	<time>2023-08-07T06:53:18.000Z</time>
</trkpt>
<trkpt lat="46.1133400" lon="10.5153950">
	<ele>2644.20</ele>
	<time>2023-08-07T06:53:19.000Z</time>
</trkpt>
<trkpt lat="46.1133400" lon="10.5153920">
	<ele>2644.40</ele>
	<time>2023-08-07T06:53:20.000Z</time>
</trkpt>
<trkpt lat="46.1133400" lon="10.5153860">
	<ele>2644.60</ele>
	<time>2023-08-07T06:53:21.000Z</time>
</trkpt>
<trkpt lat="46.1133400" lon="10.5153810">
	<ele>2644.80</ele>
	<time>2023-08-07T06:53:22.000Z</time>
</trkpt>
<trkpt lat="46.1133400" lon="10.5153760">
	<ele>2644.80</ele>
	<time>2023-08-07T06:53:23.000Z</time>
</trkpt>
<trkpt lat="46.1133400" lon="10.5153720">
	<ele>2645.00</ele>
	<time>2023-08-07T06:53:24.000Z</time>
</trkpt>
<trkpt lat="46.1133410" lon="10.5153680">
	<ele>2645.20</ele>
	<time>2023-08-07T06:53:25.000Z</time>
</trkpt>
<trkpt lat="46.1133410" lon="10.5153650">
	<ele>2645.40</ele>
	<time>2023-08-07T06:53:26.000Z</time>
</trkpt>
<trkpt lat="46.1133430" lon="10.5153620">
	<ele>2645.60</ele>
	<time>2023-08-07T06:53:27.000Z</time>
</trkpt>
<trkpt lat="46.1133450" lon="10.5153600">
	<ele>2645.80</ele>
	<time>2023-08-07T06:53:28.000Z</time>
</trkpt>
<trkpt lat="46.1133480" lon="10.5153580">
	<ele>2645.80</ele>
	<time>2023-08-07T06:53:29.000Z</time>
</trkpt>
<trkpt lat="46.1133510" lon="10.5153540">
	<ele>2645.80</ele>
	<time>2023-08-07T06:53:30.000Z</time>
</trkpt>
<trkpt lat="46.1133530" lon="10.5153510">
	<ele>2645.60</ele>
	<time>2023-08-07T06:53:31.000Z</time>
</trkpt>
<trkpt lat="46.1133550" lon="10.5153480">
	<ele>2645.60</ele>
	<time>2023-08-07T06:53:32.000Z</time>
</trkpt>
<trkpt lat="46.1133580" lon="10.5153410">
	<ele>2645.60</ele>
	<time>2023-08-07T06:53:33.000Z</time>
</trkpt>
<trkpt lat="46.1133620" lon="10.5153340">
	<ele>2645.60</ele>
	<time>2023-08-07T06:53:34.000Z</time>
</trkpt>
<trkpt lat="46.1133650" lon="10.5153300">
	<ele>2645.60</ele>
	<time>2023-08-07T06:53:35.000Z</time>
</trkpt>
<trkpt lat="46.1133690" lon="10.5153270">
	<ele>2645.60</ele>
	<time>2023-08-07T06:53:36.000Z</time>
</trkpt>
<trkpt lat="46.1133720" lon="10.5153260">
	<ele>2645.60</ele>
	<time>2023-08-07T06:53:37.000Z</time>
</trkpt>
<trkpt lat="46.1133770" lon="10.5153250">
	<ele>2645.60</ele>
	<time>2023-08-07T06:53:38.000Z</time>
</trkpt>
<trkpt lat="46.1133810" lon="10.5153240">
	<ele>2645.40</ele>
	<time>2023-08-07T06:53:39.000Z</time>
</trkpt>
<trkpt lat="46.1133850" lon="10.5153240">
	<ele>2645.40</ele>
	<time>2023-08-07T06:53:40.000Z</time>
</trkpt>
<trkpt lat="46.1133890" lon="10.5153240">
	<ele>2645.40</ele>
	<time>2023-08-07T06:53:41.000Z</time>
</trkpt>
<trkpt lat="46.1133940" lon="10.5153240">
	<ele>2645.20</ele>
	<time>2023-08-07T06:53:42.000Z</time>
</trkpt>
<trkpt lat="46.1133990" lon="10.5153230">
	<ele>2645.00</ele>
	<time>2023-08-07T06:53:43.000Z</time>
</trkpt>
<trkpt lat="46.1134030" lon="10.5153230">
	<ele>2644.80</ele>
	<time>2023-08-07T06:53:44.000Z</time>
</trkpt>
<trkpt lat="46.1134080" lon="10.5153230">
	<ele>2644.60</ele>
	<time>2023-08-07T06:53:45.000Z</time>
</trkpt>
<trkpt lat="46.1134140" lon="10.5153230">
	<ele>2644.60</ele>
	<time>2023-08-07T06:53:46.000Z</time>
</trkpt>
<trkpt lat="46.1134200" lon="10.5153230">
	<ele>2644.60</ele>
	<time>2023-08-07T06:53:47.000Z</time>
</trkpt>
<trkpt lat="46.1134240" lon="10.5153230">
	<ele>2644.60</ele>
	<time>2023-08-07T06:53:48.000Z</time>
</trkpt>
<trkpt lat="46.1134270" lon="10.5153260">
	<ele>2644.60</ele>
	<time>2023-08-07T06:53:49.000Z</time>
</trkpt>
<trkpt lat="46.1134300" lon="10.5153270">
	<ele>2644.60</ele>
	<time>2023-08-07T06:53:50.000Z</time>
</trkpt>
<trkpt lat="46.1134330" lon="10.5153290">
	<ele>2644.80</ele>
	<time>2023-08-07T06:53:51.000Z</time>
</trkpt>
<trkpt lat="46.1134370" lon="10.5153310">
	<ele>2644.80</ele>
	<time>2023-08-07T06:53:52.000Z</time>
</trkpt>
<trkpt lat="46.1134410" lon="10.5153340">
	<ele>2644.60</ele>
	<time>2023-08-07T06:53:53.000Z</time>
</trkpt>
<trkpt lat="46.1134440" lon="10.5153370">
	<ele>2644.20</ele>
	<time>2023-08-07T06:53:54.000Z</time>
</trkpt>
<trkpt lat="46.1134460" lon="10.5153420">
	<ele>2644.00</ele>
	<time>2023-08-07T06:53:55.000Z</time>
</trkpt>
<trkpt lat="46.1134480" lon="10.5153460">
	<ele>2643.80</ele>
	<time>2023-08-07T06:53:56.000Z</time>
</trkpt>
<trkpt lat="46.1134500" lon="10.5153500">
	<ele>2643.80</ele>
	<time>2023-08-07T06:53:57.000Z</time>
</trkpt>
<trkpt lat="46.1134530" lon="10.5153520">
	<ele>2643.80</ele>
	<time>2023-08-07T06:53:58.000Z</time>
</trkpt>
<trkpt lat="46.1134540" lon="10.5153540">
	<ele>2643.60</ele>
	<time>2023-08-07T06:53:59.000Z</time>
</trkpt>
<trkpt lat="46.1134560" lon="10.5153550">
	<ele>2643.60</ele>
	<time>2023-08-07T06:54:00.000Z</time>
</trkpt>
<trkpt lat="46.1134570" lon="10.5153570">
	<ele>2643.60</ele>
	<time>2023-08-07T06:54:01.000Z</time>
</trkpt>
<trkpt lat="46.1134590" lon="10.5153580">
	<ele>2643.60</ele>
	<time>2023-08-07T06:54:02.000Z</time>
</trkpt>
<trkpt lat="46.1134600" lon="10.5153590">
	<ele>2643.60</ele>
	<time>2023-08-07T06:54:03.000Z</time>
</trkpt>
<trkpt lat="46.1134610" lon="10.5153600">
	<ele>2643.60</ele>
	<time>2023-08-07T06:54:04.000Z</time>
</trkpt>
<trkpt lat="46.1134620" lon="10.5153600">
	<ele>2643.60</ele>
	<time>2023-08-07T06:54:05.000Z</time>
</trkpt>
<trkpt lat="46.1134630" lon="10.5153610">
	<ele>2643.60</ele>
	<time>2023-08-07T06:54:06.000Z</time>
</trkpt>
<trkpt lat="46.1134640" lon="10.5153610">
	<ele>2643.60</ele>
	<time>2023-08-07T06:54:07.000Z</time>
</trkpt>
<trkpt lat="46.1134640" lon="10.5153620">
	<ele>2643.60</ele>
	<time>2023-08-07T06:54:08.000Z</time>
</trkpt>
<trkpt lat="46.1134650" lon="10.5153620">
	<ele>2643.80</ele>
	<time>2023-08-07T06:54:09.000Z</time>
</trkpt>
<trkpt lat="46.1134650" lon="10.5153620">
	<ele>2643.80</ele>
	<time>2023-08-07T06:54:10.000Z</time>
</trkpt>
<trkpt lat="46.1134650" lon="10.5153630">
	<ele>2643.80</ele>
	<time>2023-08-07T06:54:11.000Z</time>
</trkpt>
<trkpt lat="46.1134660" lon="10.5153630">
	<ele>2643.80</ele>
	<time>2023-08-07T06:54:12.000Z</time>
</trkpt>
<trkpt lat="46.1134660" lon="10.5153630">
	<ele>2643.80</ele>
	<time>2023-08-07T06:54:13.000Z</time>
</trkpt>
<trkpt lat="46.1134670" lon="10.5153630">
	<ele>2644.00</ele>
	<time>2023-08-07T06:54:14.000Z</time>
</trkpt>
<trkpt lat="46.1134670" lon="10.5153640">
	<ele>2644.00</ele>
	<time>2023-08-07T06:54:15.000Z</time>
</trkpt>
<trkpt lat="46.1134750" lon="10.5153690">
	<ele>2644.40</ele>
	<time>2023-08-07T06:54:16.000Z</time>
</trkpt>
<trkpt lat="46.1134850" lon="10.5153730">
	<ele>2644.60</ele>
	<time>2023-08-07T06:54:17.000Z</time>
</trkpt>
<trkpt lat="46.1134930" lon="10.5153770">
	<ele>2644.60</ele>
	<time>2023-08-07T06:54:18.000Z</time>
</trkpt>
<trkpt lat="46.1135000" lon="10.5153800">
	<ele>2644.80</ele>
	<time>2023-08-07T06:54:19.000Z</time>
</trkpt>
<trkpt lat="46.1135090" lon="10.5153850">
	<ele>2644.80</ele>
	<time>2023-08-07T06:54:20.000Z</time>
</trkpt>
<trkpt lat="46.1135190" lon="10.5153900">
	<ele>2644.80</ele>
	<time>2023-08-07T06:54:21.000Z</time>
</trkpt>
<trkpt lat="46.1135280" lon="10.5153940">
	<ele>2645.00</ele>
	<time>2023-08-07T06:54:22.000Z</time>
</trkpt>
<trkpt lat="46.1135350" lon="10.5154020">
	<ele>2645.20</ele>
	<time>2023-08-07T06:54:23.000Z</time>
</trkpt>
<trkpt lat="46.1135460" lon="10.5154110">
	<ele>2645.40</ele>
	<time>2023-08-07T06:54:24.000Z</time>
</trkpt>
<trkpt lat="46.1135590" lon="10.5154200">
	<ele>2645.40</ele>
	<time>2023-08-07T06:54:25.000Z</time>
</trkpt>
<trkpt lat="46.1135620" lon="10.5154210">
	<ele>2645.60</ele>
	<time>2023-08-07T06:54:26.000Z</time>
</trkpt>
<trkpt lat="46.1135630" lon="10.5154220">
	<ele>2645.60</ele>
	<time>2023-08-07T06:54:27.000Z</time>
</trkpt>
<trkpt lat="46.1135650" lon="10.5154230">
	<ele>2645.60</ele>
	<time>2023-08-07T06:54:28.000Z</time>
</trkpt>
<trkpt lat="46.1135710" lon="10.5154190">
	<ele>2645.80</ele>
	<time>2023-08-07T06:54:29.000Z</time>
</trkpt>
<trkpt lat="46.1135780" lon="10.5154170">
	<ele>2645.80</ele>
	<time>2023-08-07T06:54:30.000Z</time>
</trkpt>
<trkpt lat="46.1135830" lon="10.5154200">
	<ele>2646.20</ele>
	<time>2023-08-07T06:54:31.000Z</time>
</trkpt>
<trkpt lat="46.1135860" lon="10.5154240">
	<ele>2646.40</ele>
	<time>2023-08-07T06:54:32.000Z</time>
</trkpt>
<trkpt lat="46.1135900" lon="10.5154370">
	<ele>2646.40</ele>
	<time>2023-08-07T06:54:33.000Z</time>
</trkpt>
<trkpt lat="46.1135950" lon="10.5154420">
	<ele>2646.60</ele>
	<time>2023-08-07T06:54:34.000Z</time>
</trkpt>
<trkpt lat="46.1135990" lon="10.5154460">
	<ele>2646.60</ele>
	<time>2023-08-07T06:54:35.000Z</time>
</trkpt>
<trkpt lat="46.1136020" lon="10.5154460">
	<ele>2647.00</ele>
	<time>2023-08-07T06:54:36.000Z</time>
</trkpt>
<trkpt lat="46.1136070" lon="10.5154470">
	<ele>2647.00</ele>
	<time>2023-08-07T06:54:37.000Z</time>
</trkpt>
<trkpt lat="46.1136110" lon="10.5154460">
	<ele>2647.20</ele>
	<time>2023-08-07T06:54:38.000Z</time>
</trkpt>
<trkpt lat="46.1136140" lon="10.5154420">
	<ele>2647.40</ele>
	<time>2023-08-07T06:54:39.000Z</time>
</trkpt>
<trkpt lat="46.1136140" lon="10.5154370">
	<ele>2647.40</ele>
	<time>2023-08-07T06:54:40.000Z</time>
</trkpt>
<trkpt lat="46.1136160" lon="10.5154330">
	<ele>2647.40</ele>
	<time>2023-08-07T06:54:41.000Z</time>
</trkpt>
<trkpt lat="46.1136180" lon="10.5154300">
	<ele>2647.60</ele>
	<time>2023-08-07T06:54:42.000Z</time>
</trkpt>
<trkpt lat="46.1136210" lon="10.5154220">
	<ele>2647.60</ele>
	<time>2023-08-07T06:54:43.000Z</time>
</trkpt>
<trkpt lat="46.1136240" lon="10.5154150">
	<ele>2647.60</ele>
	<time>2023-08-07T06:54:44.000Z</time>
</trkpt>
<trkpt lat="46.1136280" lon="10.5154090">
	<ele>2647.60</ele>
	<time>2023-08-07T06:54:45.000Z</time>
</trkpt>
<trkpt lat="46.1136300" lon="10.5154060">
	<ele>2647.60</ele>
	<time>2023-08-07T06:54:46.000Z</time>
</trkpt>
<trkpt lat="46.1136310" lon="10.5154010">
	<ele>2647.80</ele>
	<time>2023-08-07T06:54:47.000Z</time>
</trkpt>
<trkpt lat="46.1136340" lon="10.5153980">
	<ele>2647.80</ele>
	<time>2023-08-07T06:54:48.000Z</time>
</trkpt>
<trkpt lat="46.1136350" lon="10.5153950">
	<ele>2648.00</ele>
	<time>2023-08-07T06:54:49.000Z</time>
</trkpt>
<trkpt lat="46.1136390" lon="10.5153880">
	<ele>2648.00</ele>
	<time>2023-08-07T06:54:50.000Z</time>
</trkpt>
<trkpt lat="46.1136440" lon="10.5153850">
	<ele>2648.20</ele>
	<time>2023-08-07T06:54:51.000Z</time>
</trkpt>
<trkpt lat="46.1136510" lon="10.5153810">
	<ele>2648.40</ele>
	<time>2023-08-07T06:54:52.000Z</time>
</trkpt>
<trkpt lat="46.1136550" lon="10.5153780">
	<ele>2648.40</ele>
	<time>2023-08-07T06:54:53.000Z</time>
</trkpt>
<trkpt lat="46.1136590" lon="10.5153760">
	<ele>2648.40</ele>
	<time>2023-08-07T06:54:54.000Z</time>
</trkpt>
<trkpt lat="46.1136610" lon="10.5153780">
	<ele>2648.40</ele>
	<time>2023-08-07T06:54:55.000Z</time>
</trkpt>
<trkpt lat="46.1136680" lon="10.5153830">
	<ele>2648.40</ele>
	<time>2023-08-07T06:54:56.000Z</time>
</trkpt>
<trkpt lat="46.1136760" lon="10.5153900">
	<ele>2648.60</ele>
	<time>2023-08-07T06:54:57.000Z</time>
</trkpt>
<trkpt lat="46.1136780" lon="10.5153920">
	<ele>2648.60</ele>
	<time>2023-08-07T06:54:58.000Z</time>
</trkpt>
<trkpt lat="46.1136810" lon="10.5153900">
	<ele>2648.80</ele>
	<time>2023-08-07T06:54:59.000Z</time>
</trkpt>
<trkpt lat="46.1136820" lon="10.5153890">
	<ele>2648.60</ele>
	<time>2023-08-07T06:55:00.000Z</time>
</trkpt>
<trkpt lat="46.1136880" lon="10.5153890">
	<ele>2648.60</ele>
	<time>2023-08-07T06:55:01.000Z</time>
</trkpt>
<trkpt lat="46.1136930" lon="10.5153860">
	<ele>2648.80</ele>
	<time>2023-08-07T06:55:02.000Z</time>
</trkpt>
<trkpt lat="46.1136980" lon="10.5153850">
	<ele>2648.60</ele>
	<time>2023-08-07T06:55:03.000Z</time>
</trkpt>
<trkpt lat="46.1137020" lon="10.5153830">
	<ele>2648.60</ele>
	<time>2023-08-07T06:55:04.000Z</time>
</trkpt>
<trkpt lat="46.1137040" lon="10.5153840">
	<ele>2648.80</ele>
	<time>2023-08-07T06:55:05.000Z</time>
</trkpt>
<trkpt lat="46.1137050" lon="10.5153790">
	<ele>2648.80</ele>
	<time>2023-08-07T06:55:06.000Z</time>
</trkpt>
<trkpt lat="46.1137080" lon="10.5153750">
	<ele>2648.80</ele>
	<time>2023-08-07T06:55:07.000Z</time>
</trkpt>
<trkpt lat="46.1137120" lon="10.5153710">
	<ele>2648.80</ele>
	<time>2023-08-07T06:55:08.000Z</time>
</trkpt>
<trkpt lat="46.1137190" lon="10.5153710">
	<ele>2649.00</ele>
	<time>2023-08-07T06:55:09.000Z</time>
</trkpt>
<trkpt lat="46.1137250" lon="10.5153690">
	<ele>2649.00</ele>
	<time>2023-08-07T06:55:10.000Z</time>
</trkpt>
<trkpt lat="46.1137330" lon="10.5153700">
	<ele>2649.20</ele>
	<time>2023-08-07T06:55:11.000Z</time>
</trkpt>
<trkpt lat="46.1137380" lon="10.5153730">
	<ele>2649.20</ele>
	<time>2023-08-07T06:55:12.000Z</time>
</trkpt>
<trkpt lat="46.1137400" lon="10.5153740">
	<ele>2649.40</ele>
	<time>2023-08-07T06:55:13.000Z</time>
</trkpt>
<trkpt lat="46.1137410" lon="10.5153740">
	<ele>2649.60</ele>
	<time>2023-08-07T06:55:14.000Z</time>
</trkpt>
<trkpt lat="46.1137430" lon="10.5153730">
	<ele>2649.80</ele>
	<time>2023-08-07T06:55:15.000Z</time>
</trkpt>
<trkpt lat="46.1137440" lon="10.5153720">
	<ele>2650.20</ele>
	<time>2023-08-07T06:55:16.000Z</time>
</trkpt>
<trkpt lat="46.1137430" lon="10.5153740">
	<ele>2650.20</ele>
	<time>2023-08-07T06:55:17.000Z</time>
</trkpt>
<trkpt lat="46.1137440" lon="10.5153740">
	<ele>2650.40</ele>
	<time>2023-08-07T06:55:18.000Z</time>
</trkpt>
<trkpt lat="46.1137460" lon="10.5153710">
	<ele>2650.60</ele>
	<time>2023-08-07T06:55:19.000Z</time>
</trkpt>
<trkpt lat="46.1137480" lon="10.5153700">
	<ele>2650.60</ele>
	<time>2023-08-07T06:55:20.000Z</time>
</trkpt>
<trkpt lat="46.1137510" lon="10.5153700">
	<ele>2650.80</ele>
	<time>2023-08-07T06:55:21.000Z</time>
</trkpt>
<trkpt lat="46.1137500" lon="10.5153700">
	<ele>2651.00</ele>
	<time>2023-08-07T06:55:22.000Z</time>
</trkpt>
<trkpt lat="46.1137500" lon="10.5153700">
	<ele>2651.00</ele>
	<time>2023-08-07T06:55:23.000Z</time>
</trkpt>
<trkpt lat="46.1137490" lon="10.5153690">
	<ele>2651.20</ele>
	<time>2023-08-07T06:55:24.000Z</time>
</trkpt>
<trkpt lat="46.1137520" lon="10.5153670">
	<ele>2651.40</ele>
	<time>2023-08-07T06:55:25.000Z</time>
</trkpt>
<trkpt lat="46.1137540" lon="10.5153640">
	<ele>2651.60</ele>
	<time>2023-08-07T06:55:26.000Z</time>
</trkpt>
<trkpt lat="46.1137590" lon="10.5153580">
	<ele>2651.80</ele>
	<time>2023-08-07T06:55:27.000Z</time>
</trkpt>
<trkpt lat="46.1137630" lon="10.5153550">
	<ele>2652.00</ele>
	<time>2023-08-07T06:55:28.000Z</time>
</trkpt>
<trkpt lat="46.1137650" lon="10.5153520">
	<ele>2652.20</ele>
	<time>2023-08-07T06:55:29.000Z</time>
</trkpt>
<trkpt lat="46.1137670" lon="10.5153520">
	<ele>2652.20</ele>
	<time>2023-08-07T06:55:30.000Z</time>
</trkpt>
<trkpt lat="46.1137700" lon="10.5153480">
	<ele>2652.40</ele>
	<time>2023-08-07T06:55:31.000Z</time>
</trkpt>
<trkpt lat="46.1137730" lon="10.5153450">
	<ele>2652.40</ele>
	<time>2023-08-07T06:55:32.000Z</time>
</trkpt>
<trkpt lat="46.1137820" lon="10.5153420">
	<ele>2652.60</ele>
	<time>2023-08-07T06:55:33.000Z</time>
</trkpt>
<trkpt lat="46.1137840" lon="10.5153460">
	<ele>2652.80</ele>
	<time>2023-08-07T06:55:34.000Z</time>
</trkpt>
<trkpt lat="46.1137860" lon="10.5153490">
	<ele>2653.20</ele>
	<time>2023-08-07T06:55:35.000Z</time>
</trkpt>
<trkpt lat="46.1137900" lon="10.5153470">
	<ele>2653.40</ele>
	<time>2023-08-07T06:55:36.000Z</time>
</trkpt>
<trkpt lat="46.1137960" lon="10.5153460">
	<ele>2653.60</ele>
	<time>2023-08-07T06:55:37.000Z</time>
</trkpt>
<trkpt lat="46.1138010" lon="10.5153410">
	<ele>2653.60</ele>
	<time>2023-08-07T06:55:38.000Z</time>
</trkpt>
<trkpt lat="46.1138060" lon="10.5153340">
	<ele>2653.60</ele>
	<time>2023-08-07T06:55:39.000Z</time>
</trkpt>
<trkpt lat="46.1138120" lon="10.5153330">
	<ele>2653.60</ele>
	<time>2023-08-07T06:55:40.000Z</time>
</trkpt>
<trkpt lat="46.1138190" lon="10.5153330">
	<ele>2653.80</ele>
	<time>2023-08-07T06:55:41.000Z</time>
</trkpt>
<trkpt lat="46.1138210" lon="10.5153340">
	<ele>2653.80</ele>
	<time>2023-08-07T06:55:42.000Z</time>
</trkpt>
<trkpt lat="46.1138260" lon="10.5153300">
	<ele>2653.80</ele>
	<time>2023-08-07T06:55:43.000Z</time>
</trkpt>
<trkpt lat="46.1138310" lon="10.5153220">
	<ele>2653.80</ele>
	<time>2023-08-07T06:55:44.000Z</time>
</trkpt>
<trkpt lat="46.1138330" lon="10.5153170">
	<ele>2653.60</ele>
	<time>2023-08-07T06:55:45.000Z</time>
</trkpt>
<trkpt lat="46.1138380" lon="10.5153120">
	<ele>2653.80</ele>
	<time>2023-08-07T06:55:46.000Z</time>
</trkpt>
<trkpt lat="46.1138440" lon="10.5153060">
	<ele>2653.80</ele>
	<time>2023-08-07T06:55:47.000Z</time>
</trkpt>
<trkpt lat="46.1138540" lon="10.5153000">
	<ele>2654.00</ele>
	<time>2023-08-07T06:55:48.000Z</time>
</trkpt>
<trkpt lat="46.1138580" lon="10.5152970">
	<ele>2654.00</ele>
	<time>2023-08-07T06:55:49.000Z</time>
</trkpt>
<trkpt lat="46.1138620" lon="10.5152940">
	<ele>2654.00</ele>
	<time>2023-08-07T06:55:50.000Z</time>
</trkpt>
<trkpt lat="46.1138640" lon="10.5152880">
	<ele>2654.00</ele>
	<time>2023-08-07T06:55:51.000Z</time>
</trkpt>
<trkpt lat="46.1138690" lon="10.5152810">
	<ele>2654.20</ele>
	<time>2023-08-07T06:55:52.000Z</time>
</trkpt>
<trkpt lat="46.1138710" lon="10.5152760">
	<ele>2654.20</ele>
	<time>2023-08-07T06:55:53.000Z</time>
</trkpt>
<trkpt lat="46.1138760" lon="10.5152750">
	<ele>2654.40</ele>
	<time>2023-08-07T06:55:54.000Z</time>
</trkpt>
<trkpt lat="46.1138790" lon="10.5152740">
	<ele>2654.40</ele>
	<time>2023-08-07T06:55:55.000Z</time>
</trkpt>
<trkpt lat="46.1138790" lon="10.5152710">
	<ele>2654.60</ele>
	<time>2023-08-07T06:55:56.000Z</time>
</trkpt>
<trkpt lat="46.1138790" lon="10.5152680">
	<ele>2654.80</ele>
	<time>2023-08-07T06:55:57.000Z</time>
</trkpt>
<trkpt lat="46.1138790" lon="10.5152630">
	<ele>2654.80</ele>
	<time>2023-08-07T06:55:58.000Z</time>
</trkpt>
<trkpt lat="46.1138800" lon="10.5152620">
	<ele>2655.00</ele>
	<time>2023-08-07T06:55:59.000Z</time>
</trkpt>
<trkpt lat="46.1138780" lon="10.5152600">
	<ele>2655.00</ele>
	<time>2023-08-07T06:56:00.000Z</time>
</trkpt>
<trkpt lat="46.1138780" lon="10.5152590">
	<ele>2655.00</ele>
	<time>2023-08-07T06:56:01.000Z</time>
</trkpt>
<trkpt lat="46.1138800" lon="10.5152550">
	<ele>2655.20</ele>
	<time>2023-08-07T06:56:02.000Z</time>
</trkpt>
<trkpt lat="46.1138810" lon="10.5152500">
	<ele>2655.40</ele>
	<time>2023-08-07T06:56:03.000Z</time>
</trkpt>
<trkpt lat="46.1138850" lon="10.5152440">
	<ele>2655.40</ele>
	<time>2023-08-07T06:56:04.000Z</time>
</trkpt>
<trkpt lat="46.1138890" lon="10.5152380">
	<ele>2655.60</ele>
	<time>2023-08-07T06:56:05.000Z</time>
</trkpt>
<trkpt lat="46.1138920" lon="10.5152340">
	<ele>2655.60</ele>
	<time>2023-08-07T06:56:06.000Z</time>
</trkpt>
<trkpt lat="46.1139000" lon="10.5152340">
	<ele>2655.80</ele>
	<time>2023-08-07T06:56:07.000Z</time>
</trkpt>
<trkpt lat="46.1139040" lon="10.5152330">
	<ele>2656.20</ele>
	<time>2023-08-07T06:56:08.000Z</time>
</trkpt>
<trkpt lat="46.1139090" lon="10.5152310">
	<ele>2656.40</ele>
	<time>2023-08-07T06:56:09.000Z</time>
</trkpt>
<trkpt lat="46.1139120" lon="10.5152300">
	<ele>2656.60</ele>
	<time>2023-08-07T06:56:10.000Z</time>
</trkpt>
<trkpt lat="46.1139170" lon="10.5152260">
	<ele>2656.60</ele>
	<time>2023-08-07T06:56:11.000Z</time>
</trkpt>
<trkpt lat="46.1139210" lon="10.5152220">
	<ele>2656.80</ele>
	<time>2023-08-07T06:56:12.000Z</time>
</trkpt>
<trkpt lat="46.1139200" lon="10.5152200">
	<ele>2656.80</ele>
	<time>2023-08-07T06:56:13.000Z</time>
</trkpt>
<trkpt lat="46.1139220" lon="10.5152160">
	<ele>2656.80</ele>
	<time>2023-08-07T06:56:14.000Z</time>
</trkpt>
<trkpt lat="46.1139250" lon="10.5152130">
	<ele>2656.80</ele>
	<time>2023-08-07T06:56:15.000Z</time>
</trkpt>
<trkpt lat="46.1139240" lon="10.5152100">
	<ele>2656.80</ele>
	<time>2023-08-07T06:56:16.000Z</time>
</trkpt>
<trkpt lat="46.1139210" lon="10.5152010">
	<ele>2656.80</ele>
	<time>2023-08-07T06:56:17.000Z</time>
</trkpt>
<trkpt lat="46.1139210" lon="10.5151960">
	<ele>2656.80</ele>
	<time>2023-08-07T06:56:18.000Z</time>
</trkpt>
<trkpt lat="46.1139240" lon="10.5151890">
	<ele>2656.80</ele>
	<time>2023-08-07T06:56:19.000Z</time>
</trkpt>
<trkpt lat="46.1139290" lon="10.5151800">
	<ele>2656.80</ele>
	<time>2023-08-07T06:56:20.000Z</time>
</trkpt>
<trkpt lat="46.1139360" lon="10.5151770">
	<ele>2657.00</ele>
	<time>2023-08-07T06:56:21.000Z</time>
</trkpt>
<trkpt lat="46.1139390" lon="10.5151740">
	<ele>2657.40</ele>
	<time>2023-08-07T06:56:22.000Z</time>
</trkpt>
<trkpt lat="46.1139410" lon="10.5151720">
	<ele>2657.60</ele>
	<time>2023-08-07T06:56:23.000Z</time>
</trkpt>
<trkpt lat="46.1139440" lon="10.5151730">
	<ele>2657.80</ele>
	<time>2023-08-07T06:56:24.000Z</time>
</trkpt>
<trkpt lat="46.1139500" lon="10.5151740">
	<ele>2658.00</ele>
	<time>2023-08-07T06:56:25.000Z</time>
</trkpt>
<trkpt lat="46.1139550" lon="10.5151750">
	<ele>2658.00</ele>
	<time>2023-08-07T06:56:26.000Z</time>
</trkpt>
<trkpt lat="46.1139580" lon="10.5151760">
	<ele>2658.00</ele>
	<time>2023-08-07T06:56:27.000Z</time>
</trkpt>
<trkpt lat="46.1139650" lon="10.5151780">
	<ele>2658.20</ele>
	<time>2023-08-07T06:56:28.000Z</time>
</trkpt>
<trkpt lat="46.1139660" lon="10.5151760">
	<ele>2658.20</ele>
	<time>2023-08-07T06:56:29.000Z</time>
</trkpt>
<trkpt lat="46.1139690" lon="10.5151780">
	<ele>2658.20</ele>
	<time>2023-08-07T06:56:30.000Z</time>
</trkpt>
<trkpt lat="46.1139720" lon="10.5151770">
	<ele>2658.20</ele>
	<time>2023-08-07T06:56:31.000Z</time>
</trkpt>
<trkpt lat="46.1139740" lon="10.5151760">
	<ele>2658.20</ele>
	<time>2023-08-07T06:56:32.000Z</time>
</trkpt>
<trkpt lat="46.1139800" lon="10.5151730">
	<ele>2658.20</ele>
	<time>2023-08-07T06:56:33.000Z</time>
</trkpt>
<trkpt lat="46.1139850" lon="10.5151730">
	<ele>2658.40</ele>
	<time>2023-08-07T06:56:34.000Z</time>
</trkpt>
<trkpt lat="46.1139900" lon="10.5151740">
	<ele>2658.60</ele>
	<time>2023-08-07T06:56:35.000Z</time>
</trkpt>
<trkpt lat="46.1139930" lon="10.5151730">
	<ele>2658.60</ele>
	<time>2023-08-07T06:56:36.000Z</time>
</trkpt>
<trkpt lat="46.1139970" lon="10.5151740">
	<ele>2658.60</ele>
	<time>2023-08-07T06:56:37.000Z</time>
</trkpt>
<trkpt lat="46.1140010" lon="10.5151750">
	<ele>2658.80</ele>
	<time>2023-08-07T06:56:38.000Z</time>
</trkpt>
<trkpt lat="46.1140050" lon="10.5151760">
	<ele>2658.80</ele>
	<time>2023-08-07T06:56:39.000Z</time>
</trkpt>
<trkpt lat="46.1140080" lon="10.5151780">
	<ele>2659.00</ele>
	<time>2023-08-07T06:56:40.000Z</time>
</trkpt>
<trkpt lat="46.1140100" lon="10.5151790">
	<ele>2659.00</ele>
	<time>2023-08-07T06:56:41.000Z</time>
</trkpt>
<trkpt lat="46.1140090" lon="10.5151800">
	<ele>2659.00</ele>
	<time>2023-08-07T06:56:42.000Z</time>
</trkpt>
<trkpt lat="46.1140130" lon="10.5151780">
	<ele>2659.00</ele>
	<time>2023-08-07T06:56:43.000Z</time>
</trkpt>
<trkpt lat="46.1140150" lon="10.5151790">
	<ele>2659.20</ele>
	<time>2023-08-07T06:56:44.000Z</time>
</trkpt>
<trkpt lat="46.1140170" lon="10.5151800">
	<ele>2659.20</ele>
	<time>2023-08-07T06:56:45.000Z</time>
</trkpt>
<trkpt lat="46.1140230" lon="10.5151770">
	<ele>2659.20</ele>
	<time>2023-08-07T06:56:46.000Z</time>
</trkpt>
<trkpt lat="46.1140240" lon="10.5151750">
	<ele>2659.20</ele>
	<time>2023-08-07T06:56:47.000Z</time>
</trkpt>
<trkpt lat="46.1140260" lon="10.5151740">
	<ele>2659.20</ele>
	<time>2023-08-07T06:56:48.000Z</time>
</trkpt>
<trkpt lat="46.1140260" lon="10.5151740">
	<ele>2659.20</ele>
	<time>2023-08-07T06:56:49.000Z</time>
</trkpt>
<trkpt lat="46.1140260" lon="10.5151740">
	<ele>2659.20</ele>
	<time>2023-08-07T06:56:50.000Z</time>
</trkpt>
<trkpt lat="46.1140260" lon="10.5151740">
	<ele>2659.20</ele>
	<time>2023-08-07T06:56:51.000Z</time>
</trkpt>
<trkpt lat="46.1140260" lon="10.5151740">
	<ele>2659.60</ele>
	<time>2023-08-07T06:56:52.000Z</time>
</trkpt>
<trkpt lat="46.1140260" lon="10.5151740">
	<ele>2659.80</ele>
	<time>2023-08-07T06:56:53.000Z</time>
</trkpt>
<trkpt lat="46.1140260" lon="10.5151740">
	<ele>2660.00</ele>
	<time>2023-08-07T06:56:54.000Z</time>
</trkpt>
<trkpt lat="46.1140260" lon="10.5151740">
	<ele>2660.20</ele>
	<time>2023-08-07T06:56:55.000Z</time>
</trkpt>
<trkpt lat="46.1140260" lon="10.5151740">
	<ele>2660.20</ele>
	<time>2023-08-07T06:56:56.000Z</time>
</trkpt>
<trkpt lat="46.1140260" lon="10.5151740">
	<ele>2660.40</ele>
	<time>2023-08-07T06:56:57.000Z</time>
</trkpt>
<trkpt lat="46.1140260" lon="10.5151740">
	<ele>2660.40</ele>
	<time>2023-08-07T06:56:58.000Z</time>
</trkpt>
<trkpt lat="46.1140260" lon="10.5151740">
	<ele>2660.40</ele>
	<time>2023-08-07T06:56:59.000Z</time>
</trkpt>
<trkpt lat="46.1140260" lon="10.5151740">
	<ele>2660.60</ele>
	<time>2023-08-07T06:57:00.000Z</time>
</trkpt>
<trkpt lat="46.1140260" lon="10.5151740">
	<ele>2660.80</ele>
	<time>2023-08-07T06:57:01.000Z</time>
</trkpt>
<trkpt lat="46.1140260" lon="10.5151740">
	<ele>2661.20</ele>
	<time>2023-08-07T06:57:02.000Z</time>
</trkpt>
<trkpt lat="46.1140260" lon="10.5151740">
	<ele>2661.40</ele>
	<time>2023-08-07T06:57:03.000Z</time>
</trkpt>
<trkpt lat="46.1140270" lon="10.5151740">
	<ele>2661.40</ele>
	<time>2023-08-07T06:57:04.000Z</time>
</trkpt>
<trkpt lat="46.1140270" lon="10.5151740">
	<ele>2661.60</ele>
	<time>2023-08-07T06:57:05.000Z</time>
</trkpt>
<trkpt lat="46.1140320" lon="10.5151740">
	<ele>2661.60</ele>
	<time>2023-08-07T06:57:06.000Z</time>
</trkpt>
<trkpt lat="46.1140360" lon="10.5151740">
	<ele>2661.60</ele>
	<time>2023-08-07T06:57:07.000Z</time>
</trkpt>
<trkpt lat="46.1140370" lon="10.5151740">
	<ele>2661.80</ele>
	<time>2023-08-07T06:57:08.000Z</time>
</trkpt>
<trkpt lat="46.1140370" lon="10.5151750">
	<ele>2661.80</ele>
	<time>2023-08-07T06:57:09.000Z</time>
</trkpt>
<trkpt lat="46.1140370" lon="10.5151750">
	<ele>2662.00</ele>
	<time>2023-08-07T06:57:10.000Z</time>
</trkpt>
<trkpt lat="46.1140370" lon="10.5151750">
	<ele>2662.20</ele>
	<time>2023-08-07T06:57:11.000Z</time>
</trkpt>
<trkpt lat="46.1140380" lon="10.5151750">
	<ele>2662.40</ele>
	<time>2023-08-07T06:57:12.000Z</time>
</trkpt>
<trkpt lat="46.1140390" lon="10.5151750">
	<ele>2662.40</ele>
	<time>2023-08-07T06:57:13.000Z</time>
</trkpt>
<trkpt lat="46.1140410" lon="10.5151750">
	<ele>2662.60</ele>
	<time>2023-08-07T06:57:14.000Z</time>
</trkpt>
<trkpt lat="46.1140420" lon="10.5151750">
	<ele>2662.80</ele>
	<time>2023-08-07T06:57:15.000Z</time>
</trkpt>
<trkpt lat="46.1140420" lon="10.5151750">
	<ele>2662.80</ele>
	<time>2023-08-07T06:57:16.000Z</time>
</trkpt>
<trkpt lat="46.1140440" lon="10.5151780">
	<ele>2663.00</ele>
	<time>2023-08-07T06:57:17.000Z</time>
</trkpt>
<trkpt lat="46.1140450" lon="10.5151800">
	<ele>2663.00</ele>
	<time>2023-08-07T06:57:18.000Z</time>
</trkpt>
<trkpt lat="46.1140450" lon="10.5151800">
	<ele>2663.00</ele>
	<time>2023-08-07T06:57:19.000Z</time>
</trkpt>
<trkpt lat="46.1140460" lon="10.5151810">
	<ele>2663.20</ele>
	<time>2023-08-07T06:57:20.000Z</time>
</trkpt>
<trkpt lat="46.1140480" lon="10.5151810">
	<ele>2663.20</ele>
	<time>2023-08-07T06:57:21.000Z</time>
</trkpt>
<trkpt lat="46.1140530" lon="10.5151830">
	<ele>2663.20</ele>
	<time>2023-08-07T06:57:22.000Z</time>
</trkpt>
<trkpt lat="46.1140580" lon="10.5151830">
	<ele>2663.20</ele>
	<time>2023-08-07T06:57:23.000Z</time>
</trkpt>
<trkpt lat="46.1140620" lon="10.5151840">
	<ele>2663.40</ele>
	<time>2023-08-07T06:57:24.000Z</time>
</trkpt>
<trkpt lat="46.1140640" lon="10.5151850">
	<ele>2663.40</ele>
	<time>2023-08-07T06:57:25.000Z</time>
</trkpt>
<trkpt lat="46.1140650" lon="10.5151850">
	<ele>2663.40</ele>
	<time>2023-08-07T06:57:26.000Z</time>
</trkpt>
<trkpt lat="46.1140660" lon="10.5151850">
	<ele>2663.40</ele>
	<time>2023-08-07T06:57:27.000Z</time>
</trkpt>
<trkpt lat="46.1140690" lon="10.5151850">
	<ele>2663.40</ele>
	<time>2023-08-07T06:57:28.000Z</time>
</trkpt>
<trkpt lat="46.1140720" lon="10.5151850">
	<ele>2663.60</ele>
	<time>2023-08-07T06:57:29.000Z</time>
</trkpt>
<trkpt lat="46.1140730" lon="10.5151850">
	<ele>2663.60</ele>
	<time>2023-08-07T06:57:30.000Z</time>
</trkpt>
<trkpt lat="46.1140750" lon="10.5151850">
	<ele>2663.60</ele>
	<time>2023-08-07T06:57:31.000Z</time>
</trkpt>
<trkpt lat="46.1140770" lon="10.5151850">
	<ele>2663.60</ele>
	<time>2023-08-07T06:57:32.000Z</time>
</trkpt>
<trkpt lat="46.1140780" lon="10.5151850">
	<ele>2663.80</ele>
	<time>2023-08-07T06:57:33.000Z</time>
</trkpt>
<trkpt lat="46.1140790" lon="10.5151840">
	<ele>2663.80</ele>
	<time>2023-08-07T06:57:34.000Z</time>
</trkpt>
<trkpt lat="46.1140810" lon="10.5151840">
	<ele>2664.00</ele>
	<time>2023-08-07T06:57:35.000Z</time>
</trkpt>
<trkpt lat="46.1140810" lon="10.5151830">
	<ele>2664.20</ele>
	<time>2023-08-07T06:57:36.000Z</time>
</trkpt>
<trkpt lat="46.1140840" lon="10.5151830">
	<ele>2664.40</ele>
	<time>2023-08-07T06:57:37.000Z</time>
</trkpt>
<trkpt lat="46.1140890" lon="10.5151830">
	<ele>2664.60</ele>
	<time>2023-08-07T06:57:38.000Z</time>
</trkpt>
<trkpt lat="46.1140940" lon="10.5151830">
	<ele>2664.80</ele>
	<time>2023-08-07T06:57:39.000Z</time>
</trkpt>
<trkpt lat="46.1140970" lon="10.5151830">
	<ele>2664.80</ele>
	<time>2023-08-07T06:57:40.000Z</time>
</trkpt>
<trkpt lat="46.1141000" lon="10.5151820">
	<ele>2664.80</ele>
	<time>2023-08-07T06:57:41.000Z</time>
</trkpt>
<trkpt lat="46.1141050" lon="10.5151810">
	<ele>2664.80</ele>
	<time>2023-08-07T06:57:42.000Z</time>
</trkpt>
<trkpt lat="46.1141120" lon="10.5151780">
	<ele>2664.80</ele>
	<time>2023-08-07T06:57:43.000Z</time>
</trkpt>
<trkpt lat="46.1141170" lon="10.5151740">
	<ele>2664.80</ele>
	<time>2023-08-07T06:57:44.000Z</time>
</trkpt>
<trkpt lat="46.1141230" lon="10.5151720">
	<ele>2665.00</ele>
	<time>2023-08-07T06:57:45.000Z</time>
</trkpt>
<trkpt lat="46.1141250" lon="10.5151700">
	<ele>2665.00</ele>
	<time>2023-08-07T06:57:46.000Z</time>
</trkpt>
<trkpt lat="46.1141290" lon="10.5151690">
	<ele>2665.00</ele>
	<time>2023-08-07T06:57:47.000Z</time>
</trkpt>
<trkpt lat="46.1141320" lon="10.5151670">
	<ele>2665.20</ele>
	<time>2023-08-07T06:57:48.000Z</time>
</trkpt>
<trkpt lat="46.1141350" lon="10.5151640">
	<ele>2665.20</ele>
	<time>2023-08-07T06:57:49.000Z</time>
</trkpt>
<trkpt lat="46.1141410" lon="10.5151630">
	<ele>2665.20</ele>
	<time>2023-08-07T06:57:50.000Z</time>
</trkpt>
<trkpt lat="46.1141420" lon="10.5151630">
	<ele>2665.20</ele>
	<time>2023-08-07T06:57:51.000Z</time>
</trkpt>
<trkpt lat="46.1141430" lon="10.5151630">
	<ele>2665.20</ele>
	<time>2023-08-07T06:57:52.000Z</time>
</trkpt>
<trkpt lat="46.1141430" lon="10.5151630">
	<ele>2665.20</ele>
	<time>2023-08-07T06:57:53.000Z</time>
</trkpt>
<trkpt lat="46.1141430" lon="10.5151630">
	<ele>2665.20</ele>
	<time>2023-08-07T06:57:54.000Z</time>
</trkpt>
<trkpt lat="46.1141430" lon="10.5151630">
	<ele>2665.20</ele>
	<time>2023-08-07T06:57:55.000Z</time>
</trkpt>
<trkpt lat="46.1141430" lon="10.5151630">
	<ele>2665.40</ele>
	<time>2023-08-07T06:57:56.000Z</time>
</trkpt>
<trkpt lat="46.1141430" lon="10.5151630">
	<ele>2665.40</ele>
	<time>2023-08-07T06:57:57.000Z</time>
</trkpt>
<trkpt lat="46.1141430" lon="10.5151620">
	<ele>2665.40</ele>
	<time>2023-08-07T06:57:58.000Z</time>
</trkpt>
<trkpt lat="46.1141430" lon="10.5151620">
	<ele>2665.40</ele>
	<time>2023-08-07T06:57:59.000Z</time>
</trkpt>
<trkpt lat="46.1141430" lon="10.5151620">
	<ele>2665.40</ele>
	<time>2023-08-07T06:58:00.000Z</time>
</trkpt>
<trkpt lat="46.1141430" lon="10.5151620">
	<ele>2665.40</ele>
	<time>2023-08-07T06:58:01.000Z</time>
</trkpt>
<trkpt lat="46.1141430" lon="10.5151620">
	<ele>2665.40</ele>
	<time>2023-08-07T06:58:02.000Z</time>
</trkpt>
<trkpt lat="46.1141430" lon="10.5151610">
	<ele>2665.40</ele>
	<time>2023-08-07T06:58:03.000Z</time>
</trkpt>
<trkpt lat="46.1141430" lon="10.5151600">
	<ele>2665.40</ele>
	<time>2023-08-07T06:58:04.000Z</time>
</trkpt>
<trkpt lat="46.1141410" lon="10.5151600">
	<ele>2665.80</ele>
	<time>2023-08-07T06:58:05.000Z</time>
</trkpt>
<trkpt lat="46.1141390" lon="10.5151590">
	<ele>2666.00</ele>
	<time>2023-08-07T06:58:06.000Z</time>
</trkpt>
<trkpt lat="46.1141380" lon="10.5151590">
	<ele>2666.20</ele>
	<time>2023-08-07T06:58:07.000Z</time>
</trkpt>
<trkpt lat="46.1141370" lon="10.5151590">
	<ele>2666.20</ele>
	<time>2023-08-07T06:58:08.000Z</time>
</trkpt>
<trkpt lat="46.1141350" lon="10.5151580">
	<ele>2666.40</ele>
	<time>2023-08-07T06:58:09.000Z</time>
</trkpt>
<trkpt lat="46.1141320" lon="10.5151580">
	<ele>2666.60</ele>
	<time>2023-08-07T06:58:10.000Z</time>
</trkpt>
<trkpt lat="46.1141310" lon="10.5151580">
	<ele>2666.60</ele>
	<time>2023-08-07T06:58:11.000Z</time>
</trkpt>
<trkpt lat="46.1141300" lon="10.5151570">
	<ele>2666.80</ele>
	<time>2023-08-07T06:58:12.000Z</time>
</trkpt>
<trkpt lat="46.1141300" lon="10.5151560">
	<ele>2667.00</ele>
	<time>2023-08-07T06:58:13.000Z</time>
</trkpt>
<trkpt lat="46.1141300" lon="10.5151530">
	<ele>2667.20</ele>
	<time>2023-08-07T06:58:14.000Z</time>
</trkpt>
<trkpt lat="46.1141300" lon="10.5151490">
	<ele>2667.20</ele>
	<time>2023-08-07T06:58:15.000Z</time>
</trkpt>
<trkpt lat="46.1141300" lon="10.5151440">
	<ele>2667.40</ele>
	<time>2023-08-07T06:58:16.000Z</time>
</trkpt>
<trkpt lat="46.1141300" lon="10.5151400">
	<ele>2667.60</ele>
	<time>2023-08-07T06:58:17.000Z</time>
</trkpt>
<trkpt lat="46.1141300" lon="10.5151380">
	<ele>2667.60</ele>
	<time>2023-08-07T06:58:18.000Z</time>
</trkpt>
<trkpt lat="46.1141300" lon="10.5151330">
	<ele>2667.80</ele>
	<time>2023-08-07T06:58:19.000Z</time>
</trkpt>
<trkpt lat="46.1141300" lon="10.5151270">
	<ele>2667.80</ele>
	<time>2023-08-07T06:58:20.000Z</time>
</trkpt>
<trkpt lat="46.1141300" lon="10.5151230">
	<ele>2667.80</ele>
	<time>2023-08-07T06:58:21.000Z</time>
</trkpt>
<trkpt lat="46.1141300" lon="10.5151180">
	<ele>2668.00</ele>
	<time>2023-08-07T06:58:22.000Z</time>
</trkpt>
<trkpt lat="46.1141300" lon="10.5151130">
	<ele>2668.20</ele>
	<time>2023-08-07T06:58:23.000Z</time>
</trkpt>
<trkpt lat="46.1141300" lon="10.5151100">
	<ele>2668.40</ele>
	<time>2023-08-07T06:58:24.000Z</time>
</trkpt>
<trkpt lat="46.1141300" lon="10.5151070">
	<ele>2668.60</ele>
	<time>2023-08-07T06:58:25.000Z</time>
</trkpt>
<trkpt lat="46.1141310" lon="10.5151050">
	<ele>2668.60</ele>
	<time>2023-08-07T06:58:26.000Z</time>
</trkpt>
<trkpt lat="46.1141320" lon="10.5151040">
	<ele>2669.00</ele>
	<time>2023-08-07T06:58:27.000Z</time>
</trkpt>
<trkpt lat="46.1141330" lon="10.5151040">
	<ele>2669.20</ele>
	<time>2023-08-07T06:58:28.000Z</time>
</trkpt>
<trkpt lat="46.1141350" lon="10.5151030">
	<ele>2669.20</ele>
	<time>2023-08-07T06:58:29.000Z</time>
</trkpt>
<trkpt lat="46.1141370" lon="10.5151030">
	<ele>2669.40</ele>
	<time>2023-08-07T06:58:30.000Z</time>
</trkpt>
<trkpt lat="46.1141390" lon="10.5151030">
	<ele>2669.60</ele>
	<time>2023-08-07T06:58:31.000Z</time>
</trkpt>
<trkpt lat="46.1141400" lon="10.5151030">
	<ele>2669.60</ele>
	<time>2023-08-07T06:58:32.000Z</time>
</trkpt>
<trkpt lat="46.1141410" lon="10.5151020">
	<ele>2669.60</ele>
	<time>2023-08-07T06:58:33.000Z</time>
</trkpt>
<trkpt lat="46.1141420" lon="10.5151020">
	<ele>2669.80</ele>
	<time>2023-08-07T06:58:34.000Z</time>
</trkpt>
<trkpt lat="46.1141420" lon="10.5151020">
	<ele>2669.80</ele>
	<time>2023-08-07T06:58:35.000Z</time>
</trkpt>
<trkpt lat="46.1141420" lon="10.5151010">
	<ele>2669.80</ele>
	<time>2023-08-07T06:58:36.000Z</time>
</trkpt>
<trkpt lat="46.1141430" lon="10.5150990">
	<ele>2669.80</ele>
	<time>2023-08-07T06:58:37.000Z</time>
</trkpt>
<trkpt lat="46.1141430" lon="10.5150980">
	<ele>2669.80</ele>
	<time>2023-08-07T06:58:38.000Z</time>
</trkpt>
<trkpt lat="46.1141430" lon="10.5150970">
	<ele>2670.20</ele>
	<time>2023-08-07T06:58:39.000Z</time>
</trkpt>
<trkpt lat="46.1141430" lon="10.5150960">
	<ele>2670.40</ele>
	<time>2023-08-07T06:58:40.000Z</time>
</trkpt>
<trkpt lat="46.1141440" lon="10.5150950">
	<ele>2670.60</ele>
	<time>2023-08-07T06:58:41.000Z</time>
</trkpt>
<trkpt lat="46.1141440" lon="10.5150940">
	<ele>2670.80</ele>
	<time>2023-08-07T06:58:42.000Z</time>
</trkpt>
<trkpt lat="46.1141450" lon="10.5150930">
	<ele>2670.80</ele>
	<time>2023-08-07T06:58:43.000Z</time>
</trkpt>
<trkpt lat="46.1141460" lon="10.5150910">
	<ele>2670.80</ele>
	<time>2023-08-07T06:58:44.000Z</time>
</trkpt>
<trkpt lat="46.1141470" lon="10.5150900">
	<ele>2671.00</ele>
	<time>2023-08-07T06:58:45.000Z</time>
</trkpt>
<trkpt lat="46.1141470" lon="10.5150880">
	<ele>2671.00</ele>
	<time>2023-08-07T06:58:46.000Z</time>
</trkpt>
<trkpt lat="46.1141480" lon="10.5150880">
	<ele>2671.00</ele>
	<time>2023-08-07T06:58:47.000Z</time>
</trkpt>
<trkpt lat="46.1141480" lon="10.5150870">
	<ele>2671.00</ele>
	<time>2023-08-07T06:58:48.000Z</time>
</trkpt>
<trkpt lat="46.1141500" lon="10.5150860">
	<ele>2671.00</ele>
	<time>2023-08-07T06:58:49.000Z</time>
</trkpt>
<trkpt lat="46.1141510" lon="10.5150860">
	<ele>2671.00</ele>
	<time>2023-08-07T06:58:50.000Z</time>
</trkpt>
<trkpt lat="46.1141530" lon="10.5150830">
	<ele>2671.00</ele>
	<time>2023-08-07T06:58:51.000Z</time>
</trkpt>
<trkpt lat="46.1141550" lon="10.5150800">
	<ele>2671.20</ele>
	<time>2023-08-07T06:58:52.000Z</time>
</trkpt>
<trkpt lat="46.1141560" lon="10.5150760">
	<ele>2671.20</ele>
	<time>2023-08-07T06:58:53.000Z</time>
</trkpt>
<trkpt lat="46.1141560" lon="10.5150730">
	<ele>2671.40</ele>
	<time>2023-08-07T06:58:54.000Z</time>
</trkpt>
<trkpt lat="46.1141570" lon="10.5150700">
	<ele>2671.40</ele>
	<time>2023-08-07T06:58:55.000Z</time>
</trkpt>
<trkpt lat="46.1141570" lon="10.5150680">
	<ele>2671.40</ele>
	<time>2023-08-07T06:58:56.000Z</time>
</trkpt>
<trkpt lat="46.1141570" lon="10.5150650">
	<ele>2671.60</ele>
	<time>2023-08-07T06:58:57.000Z</time>
</trkpt>
<trkpt lat="46.1141570" lon="10.5150600">
	<ele>2671.60</ele>
	<time>2023-08-07T06:58:58.000Z</time>
</trkpt>
<trkpt lat="46.1141570" lon="10.5150570">
	<ele>2671.60</ele>
	<time>2023-08-07T06:58:59.000Z</time>
</trkpt>
<trkpt lat="46.1141570" lon="10.5150540">
	<ele>2671.80</ele>
	<time>2023-08-07T06:59:00.000Z</time>
</trkpt>
<trkpt lat="46.1141580" lon="10.5150520">
	<ele>2671.80</ele>
	<time>2023-08-07T06:59:01.000Z</time>
</trkpt>
<trkpt lat="46.1141580" lon="10.5150500">
	<ele>2671.80</ele>
	<time>2023-08-07T06:59:02.000Z</time>
</trkpt>
<trkpt lat="46.1141580" lon="10.5150490">
	<ele>2672.00</ele>
	<time>2023-08-07T06:59:03.000Z</time>
</trkpt>
<trkpt lat="46.1141580" lon="10.5150480">
	<ele>2672.20</ele>
	<time>2023-08-07T06:59:04.000Z</time>
</trkpt>
<trkpt lat="46.1141580" lon="10.5150470">
	<ele>2672.40</ele>
	<time>2023-08-07T06:59:05.000Z</time>
</trkpt>
<trkpt lat="46.1141580" lon="10.5150460">
	<ele>2672.80</ele>
	<time>2023-08-07T06:59:06.000Z</time>
</trkpt>
<trkpt lat="46.1141570" lon="10.5150450">
	<ele>2673.00</ele>
	<time>2023-08-07T06:59:07.000Z</time>
</trkpt>
<trkpt lat="46.1141560" lon="10.5150430">
	<ele>2673.20</ele>
	<time>2023-08-07T06:59:08.000Z</time>
</trkpt>
<trkpt lat="46.1141560" lon="10.5150420">
	<ele>2673.40</ele>
	<time>2023-08-07T06:59:09.000Z</time>
</trkpt>
<trkpt lat="46.1141550" lon="10.5150400">
	<ele>2673.40</ele>
	<time>2023-08-07T06:59:10.000Z</time>
</trkpt>
<trkpt lat="46.1141550" lon="10.5150380">
	<ele>2673.40</ele>
	<time>2023-08-07T06:59:11.000Z</time>
</trkpt>
<trkpt lat="46.1141550" lon="10.5150350">
	<ele>2673.60</ele>
	<time>2023-08-07T06:59:12.000Z</time>
</trkpt>
<trkpt lat="46.1141550" lon="10.5150320">
	<ele>2673.60</ele>
	<time>2023-08-07T06:59:13.000Z</time>
</trkpt>
<trkpt lat="46.1141550" lon="10.5150280">
	<ele>2673.80</ele>
	<time>2023-08-07T06:59:14.000Z</time>
</trkpt>
<trkpt lat="46.1141550" lon="10.5150240">
	<ele>2673.80</ele>
	<time>2023-08-07T06:59:15.000Z</time>
</trkpt>
<trkpt lat="46.1141570" lon="10.5150180">
	<ele>2674.00</ele>
	<time>2023-08-07T06:59:16.000Z</time>
</trkpt>
<trkpt lat="46.1141630" lon="10.5150120">
	<ele>2674.20</ele>
	<time>2023-08-07T06:59:17.000Z</time>
</trkpt>
<trkpt lat="46.1141680" lon="10.5150100">
	<ele>2674.40</ele>
	<time>2023-08-07T06:59:18.000Z</time>
</trkpt>
<trkpt lat="46.1141720" lon="10.5150070">
	<ele>2674.40</ele>
	<time>2023-08-07T06:59:19.000Z</time>
</trkpt>
<trkpt lat="46.1141780" lon="10.5150020">
	<ele>2674.40</ele>
	<time>2023-08-07T06:59:20.000Z</time>
</trkpt>
<trkpt lat="46.1141780" lon="10.5149910">
	<ele>2674.60</ele>
	<time>2023-08-07T06:59:21.000Z</time>
</trkpt>
<trkpt lat="46.1141790" lon="10.5149830">
	<ele>2674.80</ele>
	<time>2023-08-07T06:59:22.000Z</time>
</trkpt>
<trkpt lat="46.1141830" lon="10.5149720">
	<ele>2674.80</ele>
	<time>2023-08-07T06:59:23.000Z</time>
</trkpt>
<trkpt lat="46.1141860" lon="10.5149610">
	<ele>2674.80</ele>
	<time>2023-08-07T06:59:24.000Z</time>
</trkpt>
<trkpt lat="46.1141890" lon="10.5149560">
	<ele>2674.80</ele>
	<time>2023-08-07T06:59:25.000Z</time>
</trkpt>
<trkpt lat="46.1141910" lon="10.5149540">
	<ele>2674.80</ele>
	<time>2023-08-07T06:59:26.000Z</time>
</trkpt>
<trkpt lat="46.1141930" lon="10.5149480">
	<ele>2675.00</ele>
	<time>2023-08-07T06:59:27.000Z</time>
</trkpt>
<trkpt lat="46.1141930" lon="10.5149420">
	<ele>2675.00</ele>
	<time>2023-08-07T06:59:28.000Z</time>
</trkpt>
<trkpt lat="46.1141930" lon="10.5149370">
	<ele>2675.40</ele>
	<time>2023-08-07T06:59:29.000Z</time>
</trkpt>
<trkpt lat="46.1141940" lon="10.5149350">
	<ele>2675.80</ele>
	<time>2023-08-07T06:59:30.000Z</time>
</trkpt>
<trkpt lat="46.1141960" lon="10.5149300">
	<ele>2675.80</ele>
	<time>2023-08-07T06:59:31.000Z</time>
</trkpt>
<trkpt lat="46.1141960" lon="10.5149290">
	<ele>2676.20</ele>
	<time>2023-08-07T06:59:32.000Z</time>
</trkpt>
<trkpt lat="46.1141970" lon="10.5149270">
	<ele>2676.40</ele>
	<time>2023-08-07T06:59:33.000Z</time>
</trkpt>
<trkpt lat="46.1141970" lon="10.5149260">
	<ele>2676.40</ele>
	<time>2023-08-07T06:59:34.000Z</time>
</trkpt>
<trkpt lat="46.1141990" lon="10.5149250">
	<ele>2676.60</ele>
	<time>2023-08-07T06:59:35.000Z</time>
</trkpt>
<trkpt lat="46.1142010" lon="10.5149240">
	<ele>2676.60</ele>
	<time>2023-08-07T06:59:36.000Z</time>
</trkpt>
<trkpt lat="46.1142030" lon="10.5149230">
	<ele>2676.60</ele>
	<time>2023-08-07T06:59:37.000Z</time>
</trkpt>
<trkpt lat="46.1142040" lon="10.5149220">
	<ele>2676.60</ele>
	<time>2023-08-07T06:59:38.000Z</time>
</trkpt>
<trkpt lat="46.1142050" lon="10.5149160">
	<ele>2676.60</ele>
	<time>2023-08-07T06:59:39.000Z</time>
</trkpt>
<trkpt lat="46.1142060" lon="10.5149100">
	<ele>2676.80</ele>
	<time>2023-08-07T06:59:40.000Z</time>
</trkpt>
<trkpt lat="46.1142080" lon="10.5149110">
	<ele>2676.80</ele>
	<time>2023-08-07T06:59:41.000Z</time>
</trkpt>
<trkpt lat="46.1142100" lon="10.5149100">
	<ele>2677.00</ele>
	<time>2023-08-07T06:59:42.000Z</time>
</trkpt>
<trkpt lat="46.1142110" lon="10.5149070">
	<ele>2677.40</ele>
	<time>2023-08-07T06:59:43.000Z</time>
</trkpt>
<trkpt lat="46.1142120" lon="10.5149050">
	<ele>2677.40</ele>
	<time>2023-08-07T06:59:44.000Z</time>
</trkpt>
<trkpt lat="46.1142140" lon="10.5149060">
	<ele>2677.60</ele>
	<time>2023-08-07T06:59:45.000Z</time>
</trkpt>
<trkpt lat="46.1142190" lon="10.5149070">
	<ele>2677.80</ele>
	<time>2023-08-07T06:59:46.000Z</time>
</trkpt>
<trkpt lat="46.1142220" lon="10.5149050">
	<ele>2677.80</ele>
	<time>2023-08-07T06:59:47.000Z</time>
</trkpt>
<trkpt lat="46.1142240" lon="10.5149030">
	<ele>2677.80</ele>
	<time>2023-08-07T06:59:48.000Z</time>
</trkpt>
<trkpt lat="46.1142260" lon="10.5149010">
	<ele>2678.00</ele>
	<time>2023-08-07T06:59:49.000Z</time>
</trkpt>
<trkpt lat="46.1142290" lon="10.5148990">
	<ele>2678.00</ele>
	<time>2023-08-07T06:59:50.000Z</time>
</trkpt>
<trkpt lat="46.1142310" lon="10.5148970">
	<ele>2678.00</ele>
	<time>2023-08-07T06:59:51.000Z</time>
</trkpt>
<trkpt lat="46.1142330" lon="10.5148960">
	<ele>2678.00</ele>
	<time>2023-08-07T06:59:52.000Z</time>
</trkpt>
<trkpt lat="46.1142350" lon="10.5148960">
	<ele>2678.00</ele>
	<time>2023-08-07T06:59:53.000Z</time>
</trkpt>
<trkpt lat="46.1142360" lon="10.5148940">
	<ele>2678.20</ele>
	<time>2023-08-07T06:59:54.000Z</time>
</trkpt>
<trkpt lat="46.1142350" lon="10.5148900">
	<ele>2678.20</ele>
	<time>2023-08-07T06:59:55.000Z</time>
</trkpt>
<trkpt lat="46.1142360" lon="10.5148910">
	<ele>2678.20</ele>
	<time>2023-08-07T06:59:56.000Z</time>
</trkpt>
<trkpt lat="46.1142340" lon="10.5148980">
	<ele>2678.20</ele>
	<time>2023-08-07T06:59:57.000Z</time>
</trkpt>
<trkpt lat="46.1142360" lon="10.5148970">
	<ele>2678.60</ele>
	<time>2023-08-07T06:59:58.000Z</time>
</trkpt>
<trkpt lat="46.1142350" lon="10.5148950">
	<ele>2678.80</ele>
	<time>2023-08-07T06:59:59.000Z</time>
</trkpt>
<trkpt lat="46.1142330" lon="10.5148930">
	<ele>2678.80</ele>
	<time>2023-08-07T07:00:00.000Z</time>
</trkpt>
<trkpt lat="46.1142330" lon="10.5148910">
	<ele>2679.00</ele>
	<time>2023-08-07T07:00:01.000Z</time>
</trkpt>
<trkpt lat="46.1142360" lon="10.5148910">
	<ele>2679.00</ele>
	<time>2023-08-07T07:00:02.000Z</time>
</trkpt>
<trkpt lat="46.1142350" lon="10.5148910">
	<ele>2679.00</ele>
	<time>2023-08-07T07:00:03.000Z</time>
</trkpt>
<trkpt lat="46.1142370" lon="10.5148890">
	<ele>2679.00</ele>
	<time>2023-08-07T07:00:04.000Z</time>
</trkpt>
<trkpt lat="46.1142380" lon="10.5148850">
	<ele>2679.00</ele>
	<time>2023-08-07T07:00:05.000Z</time>
</trkpt>
<trkpt lat="46.1142400" lon="10.5148820">
	<ele>2679.20</ele>
	<time>2023-08-07T07:00:06.000Z</time>
</trkpt>
<trkpt lat="46.1142410" lon="10.5148790">
	<ele>2679.20</ele>
	<time>2023-08-07T07:00:07.000Z</time>
</trkpt>
<trkpt lat="46.1142410" lon="10.5148780">
	<ele>2679.40</ele>
	<time>2023-08-07T07:00:08.000Z</time>
</trkpt>
<trkpt lat="46.1142420" lon="10.5148760">
	<ele>2679.40</ele>
	<time>2023-08-07T07:00:09.000Z</time>
</trkpt>
<trkpt lat="46.1142400" lon="10.5148800">
	<ele>2679.60</ele>
	<time>2023-08-07T07:00:10.000Z</time>
</trkpt>
<trkpt lat="46.1142400" lon="10.5148820">
	<ele>2679.80</ele>
	<time>2023-08-07T07:00:11.000Z</time>
</trkpt>
<trkpt lat="46.1142440" lon="10.5148840">
	<ele>2679.80</ele>
	<time>2023-08-07T07:00:12.000Z</time>
</trkpt>
<trkpt lat="46.1142460" lon="10.5148850">
	<ele>2679.80</ele>
	<time>2023-08-07T07:00:13.000Z</time>
</trkpt>
<trkpt lat="46.1142490" lon="10.5148870">
	<ele>2679.80</ele>
	<time>2023-08-07T07:00:14.000Z</time>
</trkpt>
<trkpt lat="46.1142500" lon="10.5148880">
	<ele>2679.80</ele>
	<time>2023-08-07T07:00:15.000Z</time>
</trkpt>
<trkpt lat="46.1142510" lon="10.5148910">
	<ele>2679.80</ele>
	<time>2023-08-07T07:00:16.000Z</time>
</trkpt>
<trkpt lat="46.1142550" lon="10.5148950">
	<ele>2679.80</ele>
	<time>2023-08-07T07:00:17.000Z</time>
</trkpt>
<trkpt lat="46.1142600" lon="10.5148990">
	<ele>2680.00</ele>
	<time>2023-08-07T07:00:18.000Z</time>
</trkpt>
<trkpt lat="46.1142630" lon="10.5148970">
	<ele>2680.00</ele>
	<time>2023-08-07T07:00:19.000Z</time>
</trkpt>
<trkpt lat="46.1142660" lon="10.5148960">
	<ele>2680.00</ele>
	<time>2023-08-07T07:00:20.000Z</time>
</trkpt>
<trkpt lat="46.1142720" lon="10.5148880">
	<ele>2680.00</ele>
	<time>2023-08-07T07:00:21.000Z</time>
</trkpt>
<trkpt lat="46.1142770" lon="10.5148860">
	<ele>2680.20</ele>
	<time>2023-08-07T07:00:22.000Z</time>
</trkpt>
<trkpt lat="46.1142810" lon="10.5148840">
	<ele>2680.20</ele>
	<time>2023-08-07T07:00:23.000Z</time>
</trkpt>
<trkpt lat="46.1142830" lon="10.5148810">
	<ele>2680.20</ele>
	<time>2023-08-07T07:00:24.000Z</time>
</trkpt>
<trkpt lat="46.1142860" lon="10.5148820">
	<ele>2680.20</ele>
	<time>2023-08-07T07:00:25.000Z</time>
</trkpt>
<trkpt lat="46.1142880" lon="10.5148800">
	<ele>2680.20</ele>
	<time>2023-08-07T07:00:26.000Z</time>
</trkpt>
<trkpt lat="46.1142980" lon="10.5148800">
	<ele>2680.20</ele>
	<time>2023-08-07T07:00:27.000Z</time>
</trkpt>
<trkpt lat="46.1143030" lon="10.5148820">
	<ele>2680.40</ele>
	<time>2023-08-07T07:00:28.000Z</time>
</trkpt>
<trkpt lat="46.1143060" lon="10.5148820">
	<ele>2680.40</ele>
	<time>2023-08-07T07:00:29.000Z</time>
</trkpt>
<trkpt lat="46.1143090" lon="10.5148800">
	<ele>2680.40</ele>
	<time>2023-08-07T07:00:30.000Z</time>
</trkpt>
<trkpt lat="46.1143110" lon="10.5148790">
	<ele>2680.40</ele>
	<time>2023-08-07T07:00:31.000Z</time>
</trkpt>
<trkpt lat="46.1143140" lon="10.5148760">
	<ele>2680.40</ele>
	<time>2023-08-07T07:00:32.000Z</time>
</trkpt>
<trkpt lat="46.1143160" lon="10.5148740">
	<ele>2680.40</ele>
	<time>2023-08-07T07:00:33.000Z</time>
</trkpt>
<trkpt lat="46.1143190" lon="10.5148710">
	<ele>2680.40</ele>
	<time>2023-08-07T07:00:34.000Z</time>
</trkpt>
<trkpt lat="46.1143220" lon="10.5148670">
	<ele>2680.40</ele>
	<time>2023-08-07T07:00:35.000Z</time>
</trkpt>
<trkpt lat="46.1143230" lon="10.5148630">
	<ele>2680.40</ele>
	<time>2023-08-07T07:00:36.000Z</time>
</trkpt>
<trkpt lat="46.1143280" lon="10.5148670">
	<ele>2680.60</ele>
	<time>2023-08-07T07:00:37.000Z</time>
</trkpt>
<trkpt lat="46.1143300" lon="10.5148670">
	<ele>2680.60</ele>
	<time>2023-08-07T07:00:38.000Z</time>
</trkpt>
<trkpt lat="46.1143330" lon="10.5148670">
	<ele>2680.60</ele>
	<time>2023-08-07T07:00:39.000Z</time>
</trkpt>
<trkpt lat="46.1143360" lon="10.5148670">
	<ele>2680.80</ele>
	<time>2023-08-07T07:00:40.000Z</time>
</trkpt>
<trkpt lat="46.1143380" lon="10.5148670">
	<ele>2680.80</ele>
	<time>2023-08-07T07:00:41.000Z</time>
</trkpt>
<trkpt lat="46.1143400" lon="10.5148660">
	<ele>2681.00</ele>
	<time>2023-08-07T07:00:42.000Z</time>
</trkpt>
<trkpt lat="46.1143420" lon="10.5148640">
	<ele>2681.20</ele>
	<time>2023-08-07T07:00:43.000Z</time>
</trkpt>
<trkpt lat="46.1143430" lon="10.5148660">
	<ele>2681.20</ele>
	<time>2023-08-07T07:00:44.000Z</time>
</trkpt>
<trkpt lat="46.1143440" lon="10.5148650">
	<ele>2681.40</ele>
	<time>2023-08-07T07:00:45.000Z</time>
</trkpt>
<trkpt lat="46.1143430" lon="10.5148660">
	<ele>2681.60</ele>
	<time>2023-08-07T07:00:46.000Z</time>
</trkpt>
<trkpt lat="46.1143430" lon="10.5148650">
	<ele>2681.60</ele>
	<time>2023-08-07T07:00:47.000Z</time>
</trkpt>
<trkpt lat="46.1143430" lon="10.5148670">
	<ele>2681.80</ele>
	<time>2023-08-07T07:00:48.000Z</time>
</trkpt>
<trkpt lat="46.1143440" lon="10.5148690">
	<ele>2681.80</ele>
	<time>2023-08-07T07:00:49.000Z</time>
</trkpt>
<trkpt lat="46.1143430" lon="10.5148680">
	<ele>2681.80</ele>
	<time>2023-08-07T07:00:50.000Z</time>
</trkpt>
<trkpt lat="46.1143420" lon="10.5148680">
	<ele>2682.00</ele>
	<time>2023-08-07T07:00:51.000Z</time>
</trkpt>
<trkpt lat="46.1143410" lon="10.5148650">
	<ele>2682.00</ele>
	<time>2023-08-07T07:00:52.000Z</time>
</trkpt>
<trkpt lat="46.1143420" lon="10.5148630">
	<ele>2682.00</ele>
	<time>2023-08-07T07:00:53.000Z</time>
</trkpt>
<trkpt lat="46.1143400" lon="10.5148670">
	<ele>2682.00</ele>
	<time>2023-08-07T07:00:54.000Z</time>
</trkpt>
<trkpt lat="46.1143400" lon="10.5148670">
	<ele>2682.00</ele>
	<time>2023-08-07T07:00:55.000Z</time>
</trkpt>
<trkpt lat="46.1143400" lon="10.5148640">
	<ele>2682.00</ele>
	<time>2023-08-07T07:00:56.000Z</time>
</trkpt>
<trkpt lat="46.1143400" lon="10.5148610">
	<ele>2682.00</ele>
	<time>2023-08-07T07:00:57.000Z</time>
</trkpt>
<trkpt lat="46.1143400" lon="10.5148600">
	<ele>2682.00</ele>
	<time>2023-08-07T07:00:58.000Z</time>
</trkpt>
<trkpt lat="46.1143400" lon="10.5148600">
	<ele>2682.20</ele>
	<time>2023-08-07T07:00:59.000Z</time>
</trkpt>
<trkpt lat="46.1143400" lon="10.5148600">
	<ele>2682.40</ele>
	<time>2023-08-07T07:01:00.000Z</time>
</trkpt>
<trkpt lat="46.1143400" lon="10.5148600">
	<ele>2682.60</ele>
	<time>2023-08-07T07:01:01.000Z</time>
</trkpt>
<trkpt lat="46.1143400" lon="10.5148600">
	<ele>2682.60</ele>
	<time>2023-08-07T07:01:02.000Z</time>
</trkpt>
<trkpt lat="46.1143400" lon="10.5148600">
	<ele>2682.80</ele>
	<time>2023-08-07T07:01:03.000Z</time>
</trkpt>
<trkpt lat="46.1143400" lon="10.5148600">
	<ele>2683.00</ele>
	<time>2023-08-07T07:01:04.000Z</time>
</trkpt>
<trkpt lat="46.1143400" lon="10.5148600">
	<ele>2683.20</ele>
	<time>2023-08-07T07:01:05.000Z</time>
</trkpt>
<trkpt lat="46.1143400" lon="10.5148610">
	<ele>2683.40</ele>
	<time>2023-08-07T07:01:06.000Z</time>
</trkpt>
<trkpt lat="46.1143400" lon="10.5148630">
	<ele>2683.40</ele>
	<time>2023-08-07T07:01:07.000Z</time>
</trkpt>
<trkpt lat="46.1143400" lon="10.5148640">
	<ele>2683.60</ele>
	<time>2023-08-07T07:01:08.000Z</time>
</trkpt>
<trkpt lat="46.1143400" lon="10.5148640">
	<ele>2683.80</ele>
	<time>2023-08-07T07:01:09.000Z</time>
</trkpt>
<trkpt lat="46.1143410" lon="10.5148650">
	<ele>2683.80</ele>
	<time>2023-08-07T07:01:10.000Z</time>
</trkpt>
<trkpt lat="46.1143420" lon="10.5148660">
	<ele>2684.00</ele>
	<time>2023-08-07T07:01:11.000Z</time>
</trkpt>
<trkpt lat="46.1143420" lon="10.5148670">
	<ele>2684.00</ele>
	<time>2023-08-07T07:01:12.000Z</time>
</trkpt>
<trkpt lat="46.1143430" lon="10.5148670">
	<ele>2684.20</ele>
	<time>2023-08-07T07:01:13.000Z</time>
</trkpt>
<trkpt lat="46.1143430" lon="10.5148670">
	<ele>2684.20</ele>
	<time>2023-08-07T07:01:14.000Z</time>
</trkpt>
<trkpt lat="46.1143430" lon="10.5148670">
	<ele>2684.40</ele>
	<time>2023-08-07T07:01:15.000Z</time>
</trkpt>
<trkpt lat="46.1143460" lon="10.5148670">
	<ele>2684.60</ele>
	<time>2023-08-07T07:01:16.000Z</time>
</trkpt>
<trkpt lat="46.1143480" lon="10.5148670">
	<ele>2684.60</ele>
	<time>2023-08-07T07:01:17.000Z</time>
</trkpt>
<trkpt lat="46.1143490" lon="10.5148650">
	<ele>2685.00</ele>
	<time>2023-08-07T07:01:18.000Z</time>
</trkpt>
<trkpt lat="46.1143550" lon="10.5148680">
	<ele>2685.00</ele>
	<time>2023-08-07T07:01:19.000Z</time>
</trkpt>
<trkpt lat="46.1143570" lon="10.5148680">
	<ele>2685.20</ele>
	<time>2023-08-07T07:01:20.000Z</time>
</trkpt>
<trkpt lat="46.1143580" lon="10.5148670">
	<ele>2685.20</ele>
	<time>2023-08-07T07:01:21.000Z</time>
</trkpt>
<trkpt lat="46.1143650" lon="10.5148660">
	<ele>2685.40</ele>
	<time>2023-08-07T07:01:22.000Z</time>
</trkpt>
<trkpt lat="46.1143670" lon="10.5148630">
	<ele>2685.60</ele>
	<time>2023-08-07T07:01:23.000Z</time>
</trkpt>
<trkpt lat="46.1143690" lon="10.5148610">
	<ele>2685.60</ele>
	<time>2023-08-07T07:01:24.000Z</time>
</trkpt>
<trkpt lat="46.1143690" lon="10.5148610">
	<ele>2685.60</ele>
	<time>2023-08-07T07:01:25.000Z</time>
</trkpt>
<trkpt lat="46.1143690" lon="10.5148610">
	<ele>2685.80</ele>
	<time>2023-08-07T07:01:26.000Z</time>
</trkpt>
<trkpt lat="46.1143690" lon="10.5148610">
	<ele>2685.80</ele>
	<time>2023-08-07T07:01:27.000Z</time>
</trkpt>
<trkpt lat="46.1143690" lon="10.5148610">
	<ele>2686.00</ele>
	<time>2023-08-07T07:01:28.000Z</time>
</trkpt>
<trkpt lat="46.1143690" lon="10.5148610">
	<ele>2686.20</ele>
	<time>2023-08-07T07:01:29.000Z</time>
</trkpt>
<trkpt lat="46.1143690" lon="10.5148610">
	<ele>2686.40</ele>
	<time>2023-08-07T07:01:30.000Z</time>
</trkpt>
<trkpt lat="46.1143690" lon="10.5148580">
	<ele>2686.60</ele>
	<time>2023-08-07T07:01:31.000Z</time>
</trkpt>
<trkpt lat="46.1143690" lon="10.5148580">
	<ele>2686.60</ele>
	<time>2023-08-07T07:01:32.000Z</time>
</trkpt>
<trkpt lat="46.1143690" lon="10.5148570">
	<ele>2687.00</ele>
	<time>2023-08-07T07:01:33.000Z</time>
</trkpt>
<trkpt lat="46.1143690" lon="10.5148570">
	<ele>2687.20</ele>
	<time>2023-08-07T07:01:34.000Z</time>
</trkpt>
<trkpt lat="46.1143690" lon="10.5148570">
	<ele>2687.40</ele>
	<time>2023-08-07T07:01:35.000Z</time>
</trkpt>
<trkpt lat="46.1143690" lon="10.5148570">
	<ele>2687.40</ele>
	<time>2023-08-07T07:01:36.000Z</time>
</trkpt>
<trkpt lat="46.1143720" lon="10.5148560">
	<ele>2687.60</ele>
	<time>2023-08-07T07:01:37.000Z</time>
</trkpt>
<trkpt lat="46.1143730" lon="10.5148560">
	<ele>2687.60</ele>
	<time>2023-08-07T07:01:38.000Z</time>
</trkpt>
<trkpt lat="46.1143740" lon="10.5148560">
	<ele>2687.80</ele>
	<time>2023-08-07T07:01:39.000Z</time>
</trkpt>
<trkpt lat="46.1143760" lon="10.5148560">
	<ele>2688.00</ele>
	<time>2023-08-07T07:01:40.000Z</time>
</trkpt>
<trkpt lat="46.1143790" lon="10.5148560">
	<ele>2688.20</ele>
	<time>2023-08-07T07:01:41.000Z</time>
</trkpt>
<trkpt lat="46.1143810" lon="10.5148550">
	<ele>2688.40</ele>
	<time>2023-08-07T07:01:42.000Z</time>
</trkpt>
<trkpt lat="46.1143830" lon="10.5148550">
	<ele>2688.60</ele>
	<time>2023-08-07T07:01:43.000Z</time>
</trkpt>
<trkpt lat="46.1143900" lon="10.5148540">
	<ele>2688.60</ele>
	<time>2023-08-07T07:01:44.000Z</time>
</trkpt>
<trkpt lat="46.1143930" lon="10.5148530">
	<ele>2688.60</ele>
	<time>2023-08-07T07:01:45.000Z</time>
</trkpt>
<trkpt lat="46.1143990" lon="10.5148530">
	<ele>2688.80</ele>
	<time>2023-08-07T07:01:46.000Z</time>
</trkpt>
<trkpt lat="46.1144030" lon="10.5148530">
	<ele>2689.00</ele>
	<time>2023-08-07T07:01:47.000Z</time>
</trkpt>
<trkpt lat="46.1144050" lon="10.5148530">
	<ele>2689.20</ele>
	<time>2023-08-07T07:01:48.000Z</time>
</trkpt>
<trkpt lat="46.1144160" lon="10.5148450">
	<ele>2689.20</ele>
	<time>2023-08-07T07:01:49.000Z</time>
</trkpt>
<trkpt lat="46.1144200" lon="10.5148430">
	<ele>2689.40</ele>
	<time>2023-08-07T07:01:50.000Z</time>
</trkpt>
<trkpt lat="46.1144230" lon="10.5148420">
	<ele>2689.60</ele>
	<time>2023-08-07T07:01:51.000Z</time>
</trkpt>
<trkpt lat="46.1144300" lon="10.5148330">
	<ele>2689.60</ele>
	<time>2023-08-07T07:01:52.000Z</time>
</trkpt>
<trkpt lat="46.1144350" lon="10.5148310">
	<ele>2689.80</ele>
	<time>2023-08-07T07:01:53.000Z</time>
</trkpt>
<trkpt lat="46.1144390" lon="10.5148300">
	<ele>2689.80</ele>
	<time>2023-08-07T07:01:54.000Z</time>
</trkpt>
<trkpt lat="46.1144430" lon="10.5148300">
	<ele>2689.80</ele>
	<time>2023-08-07T07:01:55.000Z</time>
</trkpt>
<trkpt lat="46.1144470" lon="10.5148300">
	<ele>2689.80</ele>
	<time>2023-08-07T07:01:56.000Z</time>
</trkpt>
<trkpt lat="46.1144500" lon="10.5148290">
	<ele>2689.80</ele>
	<time>2023-08-07T07:01:57.000Z</time>
</trkpt>
<trkpt lat="46.1144530" lon="10.5148290">
	<ele>2690.00</ele>
	<time>2023-08-07T07:01:58.000Z</time>
</trkpt>
<trkpt lat="46.1144560" lon="10.5148290">
	<ele>2690.00</ele>
	<time>2023-08-07T07:01:59.000Z</time>
</trkpt>
<trkpt lat="46.1144580" lon="10.5148290">
	<ele>2690.00</ele>
	<time>2023-08-07T07:02:00.000Z</time>
</trkpt>
<trkpt lat="46.1144610" lon="10.5148280">
	<ele>2690.20</ele>
	<time>2023-08-07T07:02:01.000Z</time>
</trkpt>
<trkpt lat="46.1144640" lon="10.5148280">
	<ele>2690.20</ele>
	<time>2023-08-07T07:02:02.000Z</time>
</trkpt>
<trkpt lat="46.1144680" lon="10.5148270">
	<ele>2690.20</ele>
	<time>2023-08-07T07:02:03.000Z</time>
</trkpt>
<trkpt lat="46.1144690" lon="10.5148270">
	<ele>2690.40</ele>
	<time>2023-08-07T07:02:04.000Z</time>
</trkpt>
<trkpt lat="46.1144700" lon="10.5148270">
	<ele>2690.60</ele>
	<time>2023-08-07T07:02:05.000Z</time>
</trkpt>
<trkpt lat="46.1144700" lon="10.5148270">
	<ele>2690.60</ele>
	<time>2023-08-07T07:02:06.000Z</time>
</trkpt>
<trkpt lat="46.1144720" lon="10.5148260">
	<ele>2690.80</ele>
	<time>2023-08-07T07:02:07.000Z</time>
</trkpt>
<trkpt lat="46.1144720" lon="10.5148260">
	<ele>2690.80</ele>
	<time>2023-08-07T07:02:08.000Z</time>
</trkpt>
<trkpt lat="46.1144730" lon="10.5148260">
	<ele>2691.00</ele>
	<time>2023-08-07T07:02:09.000Z</time>
</trkpt>
<trkpt lat="46.1144730" lon="10.5148250">
	<ele>2691.20</ele>
	<time>2023-08-07T07:02:10.000Z</time>
</trkpt>
<trkpt lat="46.1144730" lon="10.5148240">
	<ele>2691.40</ele>
	<time>2023-08-07T07:02:11.000Z</time>
</trkpt>
<trkpt lat="46.1144730" lon="10.5148230">
	<ele>2691.60</ele>
	<time>2023-08-07T07:02:12.000Z</time>
</trkpt>
<trkpt lat="46.1144740" lon="10.5148210">
	<ele>2691.60</ele>
	<time>2023-08-07T07:02:13.000Z</time>
</trkpt>
<trkpt lat="46.1144740" lon="10.5148170">
	<ele>2691.80</ele>
	<time>2023-08-07T07:02:14.000Z</time>
</trkpt>
<trkpt lat="46.1144740" lon="10.5148120">
	<ele>2691.80</ele>
	<time>2023-08-07T07:02:15.000Z</time>
</trkpt>
<trkpt lat="46.1144750" lon="10.5148090">
	<ele>2692.00</ele>
	<time>2023-08-07T07:02:16.000Z</time>
</trkpt>
<trkpt lat="46.1144750" lon="10.5148030">
	<ele>2692.00</ele>
	<time>2023-08-07T07:02:17.000Z</time>
</trkpt>
<trkpt lat="46.1144770" lon="10.5147970">
	<ele>2692.20</ele>
	<time>2023-08-07T07:02:18.000Z</time>
</trkpt>
<trkpt lat="46.1144800" lon="10.5147930">
	<ele>2692.20</ele>
	<time>2023-08-07T07:02:19.000Z</time>
</trkpt>
<trkpt lat="46.1144800" lon="10.5147910">
	<ele>2692.40</ele>
	<time>2023-08-07T07:02:20.000Z</time>
</trkpt>
<trkpt lat="46.1144810" lon="10.5147880">
	<ele>2692.40</ele>
	<time>2023-08-07T07:02:21.000Z</time>
</trkpt>
<trkpt lat="46.1144810" lon="10.5147850">
	<ele>2692.60</ele>
	<time>2023-08-07T07:02:22.000Z</time>
</trkpt>
<trkpt lat="46.1144810" lon="10.5147810">
	<ele>2692.80</ele>
	<time>2023-08-07T07:02:23.000Z</time>
</trkpt>
<trkpt lat="46.1144810" lon="10.5147790">
	<ele>2693.00</ele>
	<time>2023-08-07T07:02:24.000Z</time>
</trkpt>
<trkpt lat="46.1144820" lon="10.5147760">
	<ele>2693.00</ele>
	<time>2023-08-07T07:02:25.000Z</time>
</trkpt>
<trkpt lat="46.1144820" lon="10.5147730">
	<ele>2693.00</ele>
	<time>2023-08-07T07:02:26.000Z</time>
</trkpt>
<trkpt lat="46.1144820" lon="10.5147700">
	<ele>2693.20</ele>
	<time>2023-08-07T07:02:27.000Z</time>
</trkpt>
<trkpt lat="46.1144830" lon="10.5147680">
	<ele>2693.20</ele>
	<time>2023-08-07T07:02:28.000Z</time>
</trkpt>
<trkpt lat="46.1144830" lon="10.5147670">
	<ele>2693.20</ele>
	<time>2023-08-07T07:02:29.000Z</time>
</trkpt>
<trkpt lat="46.1144830" lon="10.5147660">
	<ele>2693.40</ele>
	<time>2023-08-07T07:02:30.000Z</time>
</trkpt>
<trkpt lat="46.1144850" lon="10.5147640">
	<ele>2693.60</ele>
	<time>2023-08-07T07:02:31.000Z</time>
</trkpt>
<trkpt lat="46.1144860" lon="10.5147620">
	<ele>2693.60</ele>
	<time>2023-08-07T07:02:32.000Z</time>
</trkpt>
<trkpt lat="46.1144860" lon="10.5147620">
	<ele>2693.80</ele>
	<time>2023-08-07T07:02:33.000Z</time>
</trkpt>
<trkpt lat="46.1144870" lon="10.5147600">
	<ele>2694.00</ele>
	<time>2023-08-07T07:02:34.000Z</time>
</trkpt>
<trkpt lat="46.1144870" lon="10.5147590">
	<ele>2694.00</ele>
	<time>2023-08-07T07:02:35.000Z</time>
</trkpt>
<trkpt lat="46.1144870" lon="10.5147570">
	<ele>2694.20</ele>
	<time>2023-08-07T07:02:36.000Z</time>
</trkpt>
<trkpt lat="46.1144870" lon="10.5147560">
	<ele>2694.40</ele>
	<time>2023-08-07T07:02:37.000Z</time>
</trkpt>
<trkpt lat="46.1144870" lon="10.5147520">
	<ele>2694.40</ele>
	<time>2023-08-07T07:02:38.000Z</time>
</trkpt>
<trkpt lat="46.1144870" lon="10.5147480">
	<ele>2694.60</ele>
	<time>2023-08-07T07:02:39.000Z</time>
</trkpt>
<trkpt lat="46.1144870" lon="10.5147440">
	<ele>2694.60</ele>
	<time>2023-08-07T07:02:40.000Z</time>
</trkpt>
<trkpt lat="46.1144870" lon="10.5147420">
	<ele>2694.80</ele>
	<time>2023-08-07T07:02:41.000Z</time>
</trkpt>
<trkpt lat="46.1144870" lon="10.5147400">
	<ele>2694.80</ele>
	<time>2023-08-07T07:02:42.000Z</time>
</trkpt>
<trkpt lat="46.1144870" lon="10.5147390">
	<ele>2694.80</ele>
	<time>2023-08-07T07:02:43.000Z</time>
</trkpt>
<trkpt lat="46.1144870" lon="10.5147380">
	<ele>2694.80</ele>
	<time>2023-08-07T07:02:44.000Z</time>
</trkpt>
<trkpt lat="46.1144870" lon="10.5147380">
	<ele>2694.80</ele>
	<time>2023-08-07T07:02:45.000Z</time>
</trkpt>
<trkpt lat="46.1144850" lon="10.5147370">
	<ele>2694.80</ele>
	<time>2023-08-07T07:02:46.000Z</time>
</trkpt>
<trkpt lat="46.1144840" lon="10.5147360">
	<ele>2694.80</ele>
	<time>2023-08-07T07:02:47.000Z</time>
</trkpt>
<trkpt lat="46.1144830" lon="10.5147350">
	<ele>2695.00</ele>
	<time>2023-08-07T07:02:48.000Z</time>
</trkpt>
<trkpt lat="46.1144830" lon="10.5147340">
	<ele>2695.20</ele>
	<time>2023-08-07T07:02:49.000Z</time>
</trkpt>
<trkpt lat="46.1144830" lon="10.5147330">
	<ele>2695.20</ele>
	<time>2023-08-07T07:02:50.000Z</time>
</trkpt>
<trkpt lat="46.1144830" lon="10.5147320">
	<ele>2695.40</ele>
	<time>2023-08-07T07:02:51.000Z</time>
</trkpt>
<trkpt lat="46.1144830" lon="10.5147320">
	<ele>2695.40</ele>
	<time>2023-08-07T07:02:52.000Z</time>
</trkpt>
<trkpt lat="46.1144830" lon="10.5147310">
	<ele>2695.40</ele>
	<time>2023-08-07T07:02:53.000Z</time>
</trkpt>
<trkpt lat="46.1144830" lon="10.5147310">
	<ele>2695.80</ele>
	<time>2023-08-07T07:02:54.000Z</time>
</trkpt>
<trkpt lat="46.1144830" lon="10.5147310">
	<ele>2696.20</ele>
	<time>2023-08-07T07:02:55.000Z</time>
</trkpt>
<trkpt lat="46.1144830" lon="10.5147310">
	<ele>2696.40</ele>
	<time>2023-08-07T07:02:56.000Z</time>
</trkpt>
<trkpt lat="46.1144830" lon="10.5147300">
	<ele>2696.60</ele>
	<time>2023-08-07T07:02:57.000Z</time>
</trkpt>
<trkpt lat="46.1144860" lon="10.5147220">
	<ele>2696.80</ele>
	<time>2023-08-07T07:02:58.000Z</time>
</trkpt>
<trkpt lat="46.1144900" lon="10.5147080">
	<ele>2697.00</ele>
	<time>2023-08-07T07:02:59.000Z</time>
</trkpt>
<trkpt lat="46.1144930" lon="10.5146970">
	<ele>2697.00</ele>
	<time>2023-08-07T07:03:00.000Z</time>
</trkpt>
<trkpt lat="46.1144950" lon="10.5146880">
	<ele>2697.20</ele>
	<time>2023-08-07T07:03:01.000Z</time>
</trkpt>
<trkpt lat="46.1145000" lon="10.5146790">
	<ele>2697.20</ele>
	<time>2023-08-07T07:03:02.000Z</time>
</trkpt>
<trkpt lat="46.1145080" lon="10.5146620">
	<ele>2697.40</ele>
	<time>2023-08-07T07:03:03.000Z</time>
</trkpt>
<trkpt lat="46.1145160" lon="10.5146460">
	<ele>2697.40</ele>
	<time>2023-08-07T07:03:04.000Z</time>
</trkpt>
<trkpt lat="46.1145210" lon="10.5146370">
	<ele>2697.40</ele>
	<time>2023-08-07T07:03:05.000Z</time>
</trkpt>
<trkpt lat="46.1145250" lon="10.5146300">
	<ele>2697.60</ele>
	<time>2023-08-07T07:03:06.000Z</time>
</trkpt>
<trkpt lat="46.1145260" lon="10.5146230">
	<ele>2697.60</ele>
	<time>2023-08-07T07:03:07.000Z</time>
</trkpt>
<trkpt lat="46.1145270" lon="10.5146210">
	<ele>2697.80</ele>
	<time>2023-08-07T07:03:08.000Z</time>
</trkpt>
<trkpt lat="46.1145290" lon="10.5146190">
	<ele>2698.00</ele>
	<time>2023-08-07T07:03:09.000Z</time>
</trkpt>
<trkpt lat="46.1145310" lon="10.5146170">
	<ele>2698.20</ele>
	<time>2023-08-07T07:03:10.000Z</time>
</trkpt>
<trkpt lat="46.1145340" lon="10.5146150">
	<ele>2698.60</ele>
	<time>2023-08-07T07:03:11.000Z</time>
</trkpt>
<trkpt lat="46.1145350" lon="10.5146130">
	<ele>2698.80</ele>
	<time>2023-08-07T07:03:12.000Z</time>
</trkpt>
<trkpt lat="46.1145370" lon="10.5146100">
	<ele>2698.80</ele>
	<time>2023-08-07T07:03:13.000Z</time>
</trkpt>
<trkpt lat="46.1145400" lon="10.5146090">
	<ele>2699.00</ele>
	<time>2023-08-07T07:03:14.000Z</time>
</trkpt>
<trkpt lat="46.1145480" lon="10.5146120">
	<ele>2699.00</ele>
	<time>2023-08-07T07:03:15.000Z</time>
</trkpt>
<trkpt lat="46.1145510" lon="10.5146100">
	<ele>2699.20</ele>
	<time>2023-08-07T07:03:16.000Z</time>
</trkpt>
<trkpt lat="46.1145550" lon="10.5146120">
	<ele>2699.20</ele>
	<time>2023-08-07T07:03:17.000Z</time>
</trkpt>
<trkpt lat="46.1145570" lon="10.5146100">
	<ele>2699.40</ele>
	<time>2023-08-07T07:03:18.000Z</time>
</trkpt>
<trkpt lat="46.1145620" lon="10.5146060">
	<ele>2699.60</ele>
	<time>2023-08-07T07:03:19.000Z</time>
</trkpt>
<trkpt lat="46.1145620" lon="10.5146050">
	<ele>2699.60</ele>
	<time>2023-08-07T07:03:20.000Z</time>
</trkpt>
<trkpt lat="46.1145650" lon="10.5146040">
	<ele>2699.80</ele>
	<time>2023-08-07T07:03:21.000Z</time>
</trkpt>
<trkpt lat="46.1145650" lon="10.5146060">
	<ele>2699.80</ele>
	<time>2023-08-07T07:03:22.000Z</time>
</trkpt>
<trkpt lat="46.1145610" lon="10.5146090">
	<ele>2699.80</ele>
	<time>2023-08-07T07:03:23.000Z</time>
</trkpt>
<trkpt lat="46.1145620" lon="10.5146100">
	<ele>2700.00</ele>
	<time>2023-08-07T07:03:24.000Z</time>
</trkpt>
<trkpt lat="46.1145650" lon="10.5146100">
	<ele>2700.00</ele>
	<time>2023-08-07T07:03:25.000Z</time>
</trkpt>
<trkpt lat="46.1145690" lon="10.5146090">
	<ele>2700.20</ele>
	<time>2023-08-07T07:03:26.000Z</time>
</trkpt>
<trkpt lat="46.1145710" lon="10.5146100">
	<ele>2700.40</ele>
	<time>2023-08-07T07:03:27.000Z</time>
</trkpt>
<trkpt lat="46.1145740" lon="10.5146070">
	<ele>2700.60</ele>
	<time>2023-08-07T07:03:28.000Z</time>
</trkpt>
<trkpt lat="46.1145780" lon="10.5146020">
	<ele>2700.80</ele>
	<time>2023-08-07T07:03:29.000Z</time>
</trkpt>
<trkpt lat="46.1145820" lon="10.5145990">
	<ele>2700.80</ele>
	<time>2023-08-07T07:03:30.000Z</time>
</trkpt>
<trkpt lat="46.1145830" lon="10.5146000">
	<ele>2700.80</ele>
	<time>2023-08-07T07:03:31.000Z</time>
</trkpt>
<trkpt lat="46.1145840" lon="10.5146100">
	<ele>2701.00</ele>
	<time>2023-08-07T07:03:32.000Z</time>
</trkpt>
<trkpt lat="46.1145840" lon="10.5146140">
	<ele>2701.20</ele>
	<time>2023-08-07T07:03:33.000Z</time>
</trkpt>
<trkpt lat="46.1145840" lon="10.5146140">
	<ele>2701.20</ele>
	<time>2023-08-07T07:03:34.000Z</time>
</trkpt>
<trkpt lat="46.1145840" lon="10.5146140">
	<ele>2701.20</ele>
	<time>2023-08-07T07:03:35.000Z</time>
</trkpt>
<trkpt lat="46.1145840" lon="10.5146140">
	<ele>2701.20</ele>
	<time>2023-08-07T07:03:36.000Z</time>
</trkpt>
<trkpt lat="46.1145840" lon="10.5146140">
	<ele>2701.20</ele>
	<time>2023-08-07T07:03:37.000Z</time>
</trkpt>
<trkpt lat="46.1145840" lon="10.5146140">
	<ele>2701.00</ele>
	<time>2023-08-07T07:03:38.000Z</time>
</trkpt>
<trkpt lat="46.1145840" lon="10.5146140">
	<ele>2701.00</ele>
	<time>2023-08-07T07:03:39.000Z</time>
</trkpt>
<trkpt lat="46.1145840" lon="10.5146140">
	<ele>2701.00</ele>
	<time>2023-08-07T07:03:40.000Z</time>
</trkpt>
<trkpt lat="46.1145840" lon="10.5146140">
	<ele>2701.20</ele>
	<time>2023-08-07T07:03:41.000Z</time>
</trkpt>
<trkpt lat="46.1145840" lon="10.5146140">
	<ele>2701.40</ele>
	<time>2023-08-07T07:03:42.000Z</time>
</trkpt>
<trkpt lat="46.1145840" lon="10.5146140">
	<ele>2701.40</ele>
	<time>2023-08-07T07:03:43.000Z</time>
</trkpt>
<trkpt lat="46.1145840" lon="10.5146140">
	<ele>2701.60</ele>
	<time>2023-08-07T07:03:44.000Z</time>
</trkpt>
<trkpt lat="46.1145830" lon="10.5146140">
	<ele>2701.60</ele>
	<time>2023-08-07T07:03:45.000Z</time>
</trkpt>
<trkpt lat="46.1145830" lon="10.5146140">
	<ele>2701.60</ele>
	<time>2023-08-07T07:03:46.000Z</time>
</trkpt>
<trkpt lat="46.1145830" lon="10.5146140">
	<ele>2701.60</ele>
	<time>2023-08-07T07:03:47.000Z</time>
</trkpt>
<trkpt lat="46.1145830" lon="10.5146140">
	<ele>2701.60</ele>
	<time>2023-08-07T07:03:48.000Z</time>
</trkpt>
<trkpt lat="46.1145820" lon="10.5146140">
	<ele>2701.60</ele>
	<time>2023-08-07T07:03:49.000Z</time>
</trkpt>
<trkpt lat="46.1145820" lon="10.5146180">
	<ele>2701.40</ele>
	<time>2023-08-07T07:03:50.000Z</time>
</trkpt>
<trkpt lat="46.1145820" lon="10.5146220">
	<ele>2701.20</ele>
	<time>2023-08-07T07:03:51.000Z</time>
</trkpt>
<trkpt lat="46.1145820" lon="10.5146230">
	<ele>2701.20</ele>
	<time>2023-08-07T07:03:52.000Z</time>
</trkpt>
<trkpt lat="46.1145820" lon="10.5146230">
	<ele>2701.20</ele>
	<time>2023-08-07T07:03:53.000Z</time>
</trkpt>
<trkpt lat="46.1145820" lon="10.5146230">
	<ele>2701.20</ele>
	<time>2023-08-07T07:03:54.000Z</time>
</trkpt>
<trkpt lat="46.1145820" lon="10.5146240">
	<ele>2701.20</ele>
	<time>2023-08-07T07:03:55.000Z</time>
</trkpt>
<trkpt lat="46.1145820" lon="10.5146240">
	<ele>2701.20</ele>
	<time>2023-08-07T07:03:56.000Z</time>
</trkpt>
<trkpt lat="46.1145820" lon="10.5146250">
	<ele>2701.00</ele>
	<time>2023-08-07T07:03:57.000Z</time>
</trkpt>
<trkpt lat="46.1145820" lon="10.5146260">
	<ele>2701.00</ele>
	<time>2023-08-07T07:03:58.000Z</time>
</trkpt>
<trkpt lat="46.1145820" lon="10.5146270">
	<ele>2701.00</ele>
	<time>2023-08-07T07:03:59.000Z</time>
</trkpt>
<trkpt lat="46.1145820" lon="10.5146280">
	<ele>2700.80</ele>
	<time>2023-08-07T07:04:00.000Z</time>
</trkpt>
<trkpt lat="46.1145810" lon="10.5146280">
	<ele>2701.00</ele>
	<time>2023-08-07T07:04:01.000Z</time>
</trkpt>
<trkpt lat="46.1145800" lon="10.5146360">
	<ele>2701.00</ele>
	<time>2023-08-07T07:04:02.000Z</time>
</trkpt>
<trkpt lat="46.1145780" lon="10.5146400">
	<ele>2701.00</ele>
	<time>2023-08-07T07:04:03.000Z</time>
</trkpt>
<trkpt lat="46.1145780" lon="10.5146410">
	<ele>2701.00</ele>
	<time>2023-08-07T07:04:04.000Z</time>
</trkpt>
<trkpt lat="46.1145770" lon="10.5146430">
	<ele>2701.00</ele>
	<time>2023-08-07T07:04:05.000Z</time>
</trkpt>
<trkpt lat="46.1145770" lon="10.5146430">
	<ele>2701.00</ele>
	<time>2023-08-07T07:04:06.000Z</time>
</trkpt>
<trkpt lat="46.1145770" lon="10.5146430">
	<ele>2701.00</ele>
	<time>2023-08-07T07:04:07.000Z</time>
</trkpt>
<trkpt lat="46.1145770" lon="10.5146430">
	<ele>2701.00</ele>
	<time>2023-08-07T07:04:08.000Z</time>
</trkpt>
<trkpt lat="46.1145760" lon="10.5146440">
	<ele>2701.20</ele>
	<time>2023-08-07T07:04:09.000Z</time>
</trkpt>
<trkpt lat="46.1145760" lon="10.5146440">
	<ele>2701.20</ele>
	<time>2023-08-07T07:04:10.000Z</time>
</trkpt>
<trkpt lat="46.1145760" lon="10.5146440">
	<ele>2701.20</ele>
	<time>2023-08-07T07:04:11.000Z</time>
</trkpt>
<trkpt lat="46.1145760" lon="10.5146440">
	<ele>2701.20</ele>
	<time>2023-08-07T07:04:12.000Z</time>
</trkpt>
<trkpt lat="46.1145760" lon="10.5146440">
	<ele>2701.20</ele>
	<time>2023-08-07T07:04:13.000Z</time>
</trkpt>
<trkpt lat="46.1145760" lon="10.5146440">
	<ele>2701.20</ele>
	<time>2023-08-07T07:04:14.000Z</time>
</trkpt>
<trkpt lat="46.1145760" lon="10.5146450">
	<ele>2701.40</ele>
	<time>2023-08-07T07:04:15.000Z</time>
</trkpt>
<trkpt lat="46.1145760" lon="10.5146450">
	<ele>2701.40</ele>
	<time>2023-08-07T07:04:16.000Z</time>
</trkpt>
<trkpt lat="46.1145760" lon="10.5146460">
	<ele>2701.40</ele>
	<time>2023-08-07T07:04:17.000Z</time>
</trkpt>
<trkpt lat="46.1145760" lon="10.5146460">
	<ele>2701.40</ele>
	<time>2023-08-07T07:04:18.000Z</time>
</trkpt>
<trkpt lat="46.1145760" lon="10.5146470">
	<ele>2701.40</ele>
	<time>2023-08-07T07:04:19.000Z</time>
</trkpt>
<trkpt lat="46.1145760" lon="10.5146470">
	<ele>2701.40</ele>
	<time>2023-08-07T07:04:20.000Z</time>
</trkpt>
<trkpt lat="46.1145760" lon="10.5146480">
	<ele>2701.40</ele>
	<time>2023-08-07T07:04:21.000Z</time>
</trkpt>
<trkpt lat="46.1145760" lon="10.5146480">
	<ele>2701.40</ele>
	<time>2023-08-07T07:04:22.000Z</time>
</trkpt>
<trkpt lat="46.1145760" lon="10.5146490">
	<ele>2701.20</ele>
	<time>2023-08-07T07:04:23.000Z</time>
</trkpt>
<trkpt lat="46.1145760" lon="10.5146490">
	<ele>2701.20</ele>
	<time>2023-08-07T07:04:24.000Z</time>
</trkpt>
<trkpt lat="46.1145760" lon="10.5146500">
	<ele>2701.40</ele>
	<time>2023-08-07T07:04:25.000Z</time>
</trkpt>
<trkpt lat="46.1145760" lon="10.5146500">
	<ele>2701.40</ele>
	<time>2023-08-07T07:04:26.000Z</time>
</trkpt>
<trkpt lat="46.1145760" lon="10.5146510">
	<ele>2701.60</ele>
	<time>2023-08-07T07:04:27.000Z</time>
</trkpt>
<trkpt lat="46.1145760" lon="10.5146520">
	<ele>2701.80</ele>
	<time>2023-08-07T07:04:28.000Z</time>
</trkpt>
<trkpt lat="46.1145760" lon="10.5146530">
	<ele>2701.80</ele>
	<time>2023-08-07T07:04:29.000Z</time>
</trkpt>
<trkpt lat="46.1145760" lon="10.5146540">
	<ele>2701.80</ele>
	<time>2023-08-07T07:04:30.000Z</time>
</trkpt>
<trkpt lat="46.1145770" lon="10.5146570">
	<ele>2701.60</ele>
	<time>2023-08-07T07:04:31.000Z</time>
</trkpt>
<trkpt lat="46.1145780" lon="10.5146580">
	<ele>2701.60</ele>
	<time>2023-08-07T07:04:32.000Z</time>
</trkpt>
<trkpt lat="46.1145790" lon="10.5146580">
	<ele>2701.40</ele>
	<time>2023-08-07T07:04:33.000Z</time>
</trkpt>
<trkpt lat="46.1145790" lon="10.5146580">
	<ele>2701.20</ele>
	<time>2023-08-07T07:04:34.000Z</time>
</trkpt>
<trkpt lat="46.1145790" lon="10.5146580">
	<ele>2701.20</ele>
	<time>2023-08-07T07:04:35.000Z</time>
</trkpt>
<trkpt lat="46.1145790" lon="10.5146580">
	<ele>2701.00</ele>
	<time>2023-08-07T07:04:36.000Z</time>
</trkpt>
<trkpt lat="46.1145800" lon="10.5146580">
	<ele>2701.00</ele>
	<time>2023-08-07T07:04:37.000Z</time>
</trkpt>
<trkpt lat="46.1145800" lon="10.5146580">
	<ele>2701.00</ele>
	<time>2023-08-07T07:04:38.000Z</time>
</trkpt>
<trkpt lat="46.1145800" lon="10.5146580">
	<ele>2701.00</ele>
	<time>2023-08-07T07:04:39.000Z</time>
</trkpt>
<trkpt lat="46.1145800" lon="10.5146590">
	<ele>2701.00</ele>
	<time>2023-08-07T07:04:40.000Z</time>
</trkpt>
<trkpt lat="46.1145800" lon="10.5146590">
	<ele>2701.00</ele>
	<time>2023-08-07T07:04:41.000Z</time>
</trkpt>
<trkpt lat="46.1145800" lon="10.5146590">
	<ele>2701.00</ele>
	<time>2023-08-07T07:04:42.000Z</time>
</trkpt>
<trkpt lat="46.1145800" lon="10.5146590">
	<ele>2701.00</ele>
	<time>2023-08-07T07:04:43.000Z</time>
</trkpt>
<trkpt lat="46.1145800" lon="10.5146590">
	<ele>2701.00</ele>
	<time>2023-08-07T07:04:44.000Z</time>
</trkpt>
<trkpt lat="46.1145800" lon="10.5146590">
	<ele>2701.00</ele>
	<time>2023-08-07T07:04:45.000Z</time>
</trkpt>
<trkpt lat="46.1145800" lon="10.5146590">
	<ele>2701.20</ele>
	<time>2023-08-07T07:04:46.000Z</time>
</trkpt>
<trkpt lat="46.1145800" lon="10.5146590">
	<ele>2701.20</ele>
	<time>2023-08-07T07:04:47.000Z</time>
</trkpt>
<trkpt lat="46.1145800" lon="10.5146590">
	<ele>2701.20</ele>
	<time>2023-08-07T07:04:48.000Z</time>
</trkpt>
<trkpt lat="46.1145800" lon="10.5146590">
	<ele>2701.00</ele>
	<time>2023-08-07T07:04:49.000Z</time>
</trkpt>
<trkpt lat="46.1145800" lon="10.5146590">
	<ele>2701.00</ele>
	<time>2023-08-07T07:04:50.000Z</time>
</trkpt>
<trkpt lat="46.1145800" lon="10.5146590">
	<ele>2701.00</ele>
	<time>2023-08-07T07:04:51.000Z</time>
</trkpt>
<trkpt lat="46.1145800" lon="10.5146590">
	<ele>2701.00</ele>
	<time>2023-08-07T07:04:52.000Z</time>
</trkpt>
<trkpt lat="46.1145800" lon="10.5146580">
	<ele>2700.80</ele>
	<time>2023-08-07T07:04:53.000Z</time>
</trkpt>
<trkpt lat="46.1145800" lon="10.5146580">
	<ele>2700.60</ele>
	<time>2023-08-07T07:04:54.000Z</time>
</trkpt>
<trkpt lat="46.1145800" lon="10.5146580">
	<ele>2700.40</ele>
	<time>2023-08-07T07:04:55.000Z</time>
</trkpt>
<trkpt lat="46.1145800" lon="10.5146580">
	<ele>2700.40</ele>
	<time>2023-08-07T07:04:56.000Z</time>
</trkpt>
<trkpt lat="46.1145810" lon="10.5146570">
	<ele>2700.20</ele>
	<time>2023-08-07T07:04:57.000Z</time>
</trkpt>
<trkpt lat="46.1145810" lon="10.5146570">
	<ele>2700.00</ele>
	<time>2023-08-07T07:04:58.000Z</time>
</trkpt>
<trkpt lat="46.1145800" lon="10.5146570">
	<ele>2700.00</ele>
	<time>2023-08-07T07:04:59.000Z</time>
</trkpt>
<trkpt lat="46.1145800" lon="10.5146570">
	<ele>2700.00</ele>
	<time>2023-08-07T07:05:00.000Z</time>
</trkpt>
<trkpt lat="46.1145800" lon="10.5146560">
	<ele>2700.00</ele>
	<time>2023-08-07T07:05:01.000Z</time>
</trkpt>
<trkpt lat="46.1145800" lon="10.5146560">
	<ele>2700.00</ele>
	<time>2023-08-07T07:05:02.000Z</time>
</trkpt>
<trkpt lat="46.1145800" lon="10.5146560">
	<ele>2700.00</ele>
	<time>2023-08-07T07:05:03.000Z</time>
</trkpt>
<trkpt lat="46.1145800" lon="10.5146560">
	<ele>2700.00</ele>
	<time>2023-08-07T07:05:04.000Z</time>
</trkpt>
<trkpt lat="46.1145800" lon="10.5146560">
	<ele>2700.00</ele>
	<time>2023-08-07T07:05:05.000Z</time>
</trkpt>
<trkpt lat="46.1145800" lon="10.5146560">
	<ele>2700.00</ele>
	<time>2023-08-07T07:05:06.000Z</time>
</trkpt>
<trkpt lat="46.1145790" lon="10.5146570">
	<ele>2700.00</ele>
	<time>2023-08-07T07:05:07.000Z</time>
</trkpt>
<trkpt lat="46.1145790" lon="10.5146570">
	<ele>2700.20</ele>
	<time>2023-08-07T07:05:08.000Z</time>
</trkpt>
<trkpt lat="46.1145790" lon="10.5146560">
	<ele>2700.40</ele>
	<time>2023-08-07T07:05:09.000Z</time>
</trkpt>
<trkpt lat="46.1145790" lon="10.5146560">
	<ele>2700.40</ele>
	<time>2023-08-07T07:05:10.000Z</time>
</trkpt>
<trkpt lat="46.1145780" lon="10.5146560">
	<ele>2700.60</ele>
	<time>2023-08-07T07:05:11.000Z</time>
</trkpt>
<trkpt lat="46.1145770" lon="10.5146560">
	<ele>2700.60</ele>
	<time>2023-08-07T07:05:12.000Z</time>
</trkpt>
<trkpt lat="46.1145770" lon="10.5146560">
	<ele>2700.80</ele>
	<time>2023-08-07T07:05:13.000Z</time>
</trkpt>
<trkpt lat="46.1145760" lon="10.5146570">
	<ele>2700.80</ele>
	<time>2023-08-07T07:05:14.000Z</time>
</trkpt>
<trkpt lat="46.1145750" lon="10.5146570">
	<ele>2701.00</ele>
	<time>2023-08-07T07:05:15.000Z</time>
</trkpt>
<trkpt lat="46.1145720" lon="10.5146570">
	<ele>2701.20</ele>
	<time>2023-08-07T07:05:16.000Z</time>
</trkpt>
<trkpt lat="46.1145700" lon="10.5146570">
	<ele>2701.20</ele>
	<time>2023-08-07T07:05:17.000Z</time>
</trkpt>
<trkpt lat="46.1145700" lon="10.5146570">
	<ele>2701.60</ele>
	<time>2023-08-07T07:05:18.000Z</time>
</trkpt>
<trkpt lat="46.1145690" lon="10.5146570">
	<ele>2701.80</ele>
	<time>2023-08-07T07:05:19.000Z</time>
</trkpt>
<trkpt lat="46.1145690" lon="10.5146570">
	<ele>2702.00</ele>
	<time>2023-08-07T07:05:20.000Z</time>
</trkpt>
<trkpt lat="46.1145690" lon="10.5146570">
	<ele>2702.00</ele>
	<time>2023-08-07T07:05:21.000Z</time>
</trkpt>
<trkpt lat="46.1145690" lon="10.5146570">
	<ele>2702.20</ele>
	<time>2023-08-07T07:05:22.000Z</time>
</trkpt>
<trkpt lat="46.1145690" lon="10.5146570">
	<ele>2702.20</ele>
	<time>2023-08-07T07:05:23.000Z</time>
</trkpt>
<trkpt lat="46.1145690" lon="10.5146580">
	<ele>2702.40</ele>
	<time>2023-08-07T07:05:24.000Z</time>
</trkpt>
<trkpt lat="46.1145690" lon="10.5146580">
	<ele>2702.60</ele>
	<time>2023-08-07T07:05:25.000Z</time>
</trkpt>
<trkpt lat="46.1145690" lon="10.5146590">
	<ele>2702.60</ele>
	<time>2023-08-07T07:05:26.000Z</time>
</trkpt>
<trkpt lat="46.1145690" lon="10.5146600">
	<ele>2702.60</ele>
	<time>2023-08-07T07:05:27.000Z</time>
</trkpt>
<trkpt lat="46.1145690" lon="10.5146600">
	<ele>2702.60</ele>
	<time>2023-08-07T07:05:28.000Z</time>
</trkpt>
<trkpt lat="46.1145690" lon="10.5146610">
	<ele>2702.80</ele>
	<time>2023-08-07T07:05:29.000Z</time>
</trkpt>
<trkpt lat="46.1145690" lon="10.5146610">
	<ele>2703.00</ele>
	<time>2023-08-07T07:05:30.000Z</time>
</trkpt>
<trkpt lat="46.1145690" lon="10.5146620">
	<ele>2702.80</ele>
	<time>2023-08-07T07:05:31.000Z</time>
</trkpt>
<trkpt lat="46.1145760" lon="10.5146660">
	<ele>2702.80</ele>
	<time>2023-08-07T07:05:32.000Z</time>
</trkpt>
<trkpt lat="46.1145910" lon="10.5146710">
	<ele>2703.00</ele>
	<time>2023-08-07T07:05:33.000Z</time>
</trkpt>
<trkpt lat="46.1146030" lon="10.5146820">
	<ele>2702.80</ele>
	<time>2023-08-07T07:05:34.000Z</time>
</trkpt>
<trkpt lat="46.1146150" lon="10.5146900">
	<ele>2703.00</ele>
	<time>2023-08-07T07:05:35.000Z</time>
</trkpt>
<trkpt lat="46.1146270" lon="10.5146940">
	<ele>2703.00</ele>
	<time>2023-08-07T07:05:36.000Z</time>
</trkpt>
<trkpt lat="46.1146430" lon="10.5146960">
	<ele>2703.00</ele>
	<time>2023-08-07T07:05:37.000Z</time>
</trkpt>
<trkpt lat="46.1146580" lon="10.5146990">
	<ele>2703.00</ele>
	<time>2023-08-07T07:05:38.000Z</time>
</trkpt>
<trkpt lat="46.1146680" lon="10.5147080">
	<ele>2703.00</ele>
	<time>2023-08-07T07:05:39.000Z</time>
</trkpt>
<trkpt lat="46.1146790" lon="10.5147160">
	<ele>2703.00</ele>
	<time>2023-08-07T07:05:40.000Z</time>
</trkpt>
<trkpt lat="46.1146910" lon="10.5147250">
	<ele>2703.20</ele>
	<time>2023-08-07T07:05:41.000Z</time>
</trkpt>
<trkpt lat="46.1146940" lon="10.5147310">
	<ele>2703.20</ele>
	<time>2023-08-07T07:05:42.000Z</time>
</trkpt>
<trkpt lat="46.1146970" lon="10.5147340">
	<ele>2703.40</ele>
	<time>2023-08-07T07:05:43.000Z</time>
</trkpt>
<trkpt lat="46.1147030" lon="10.5147310">
	<ele>2703.60</ele>
	<time>2023-08-07T07:05:44.000Z</time>
</trkpt>
<trkpt lat="46.1147080" lon="10.5147330">
	<ele>2703.60</ele>
	<time>2023-08-07T07:05:45.000Z</time>
</trkpt>
<trkpt lat="46.1147110" lon="10.5147330">
	<ele>2703.60</ele>
	<time>2023-08-07T07:05:46.000Z</time>
</trkpt>
<trkpt lat="46.1147140" lon="10.5147360">
	<ele>2703.80</ele>
	<time>2023-08-07T07:05:47.000Z</time>
</trkpt>
<trkpt lat="46.1147160" lon="10.5147370">
	<ele>2704.00</ele>
	<time>2023-08-07T07:05:48.000Z</time>
</trkpt>
<trkpt lat="46.1147170" lon="10.5147380">
	<ele>2704.20</ele>
	<time>2023-08-07T07:05:49.000Z</time>
</trkpt>
<trkpt lat="46.1147210" lon="10.5147430">
	<ele>2704.40</ele>
	<time>2023-08-07T07:05:50.000Z</time>
</trkpt>
<trkpt lat="46.1147270" lon="10.5147480">
	<ele>2704.60</ele>
	<time>2023-08-07T07:05:51.000Z</time>
</trkpt>
<trkpt lat="46.1147330" lon="10.5147510">
	<ele>2704.60</ele>
	<time>2023-08-07T07:05:52.000Z</time>
</trkpt>
<trkpt lat="46.1147370" lon="10.5147510">
	<ele>2704.60</ele>
	<time>2023-08-07T07:05:53.000Z</time>
</trkpt>
<trkpt lat="46.1147390" lon="10.5147510">
	<ele>2704.60</ele>
	<time>2023-08-07T07:05:54.000Z</time>
</trkpt>
<trkpt lat="46.1147420" lon="10.5147530">
	<ele>2704.60</ele>
	<time>2023-08-07T07:05:55.000Z</time>
</trkpt>
<trkpt lat="46.1147470" lon="10.5147540">
	<ele>2704.80</ele>
	<time>2023-08-07T07:05:56.000Z</time>
</trkpt>
<trkpt lat="46.1147510" lon="10.5147570">
	<ele>2704.80</ele>
	<time>2023-08-07T07:05:57.000Z</time>
</trkpt>
<trkpt lat="46.1147500" lon="10.5147570">
	<ele>2705.00</ele>
	<time>2023-08-07T07:05:58.000Z</time>
</trkpt>
<trkpt lat="46.1147490" lon="10.5147550">
	<ele>2705.00</ele>
	<time>2023-08-07T07:05:59.000Z</time>
</trkpt>
<trkpt lat="46.1147500" lon="10.5147530">
	<ele>2705.20</ele>
	<time>2023-08-07T07:06:00.000Z</time>
</trkpt>
<trkpt lat="46.1147560" lon="10.5147430">
	<ele>2705.40</ele>
	<time>2023-08-07T07:06:01.000Z</time>
</trkpt>
<trkpt lat="46.1147640" lon="10.5147310">
	<ele>2705.40</ele>
	<time>2023-08-07T07:06:02.000Z</time>
</trkpt>
<trkpt lat="46.1147660" lon="10.5147250">
	<ele>2705.40</ele>
	<time>2023-08-07T07:06:03.000Z</time>
</trkpt>
<trkpt lat="46.1147680" lon="10.5147210">
	<ele>2705.80</ele>
	<time>2023-08-07T07:06:04.000Z</time>
</trkpt>
<trkpt lat="46.1147690" lon="10.5147180">
	<ele>2706.00</ele>
	<time>2023-08-07T07:06:05.000Z</time>
</trkpt>
<trkpt lat="46.1147700" lon="10.5147150">
	<ele>2706.20</ele>
	<time>2023-08-07T07:06:06.000Z</time>
</trkpt>
<trkpt lat="46.1147710" lon="10.5147110">
	<ele>2706.40</ele>
	<time>2023-08-07T07:06:07.000Z</time>
</trkpt>
<trkpt lat="46.1147690" lon="10.5147060">
	<ele>2706.40</ele>
	<time>2023-08-07T07:06:08.000Z</time>
</trkpt>
<trkpt lat="46.1147690" lon="10.5147030">
	<ele>2706.60</ele>
	<time>2023-08-07T07:06:09.000Z</time>
</trkpt>
<trkpt lat="46.1147690" lon="10.5147030">
	<ele>2706.60</ele>
	<time>2023-08-07T07:06:10.000Z</time>
</trkpt>
<trkpt lat="46.1147700" lon="10.5146990">
	<ele>2706.60</ele>
	<time>2023-08-07T07:06:11.000Z</time>
</trkpt>
<trkpt lat="46.1147720" lon="10.5146940">
	<ele>2706.80</ele>
	<time>2023-08-07T07:06:12.000Z</time>
</trkpt>
<trkpt lat="46.1147740" lon="10.5146890">
	<ele>2707.00</ele>
	<time>2023-08-07T07:06:13.000Z</time>
</trkpt>
<trkpt lat="46.1147770" lon="10.5146830">
	<ele>2707.20</ele>
	<time>2023-08-07T07:06:14.000Z</time>
</trkpt>
<trkpt lat="46.1147810" lon="10.5146830">
	<ele>2707.20</ele>
	<time>2023-08-07T07:06:15.000Z</time>
</trkpt>
<trkpt lat="46.1147820" lon="10.5146820">
	<ele>2707.60</ele>
	<time>2023-08-07T07:06:16.000Z</time>
</trkpt>
<trkpt lat="46.1147830" lon="10.5146840">
	<ele>2707.80</ele>
	<time>2023-08-07T07:06:17.000Z</time>
</trkpt>
<trkpt lat="46.1147870" lon="10.5146840">
	<ele>2707.80</ele>
	<time>2023-08-07T07:06:18.000Z</time>
</trkpt>
<trkpt lat="46.1147870" lon="10.5146840">
	<ele>2708.00</ele>
	<time>2023-08-07T07:06:19.000Z</time>
</trkpt>
<trkpt lat="46.1147870" lon="10.5146870">
	<ele>2708.00</ele>
	<time>2023-08-07T07:06:20.000Z</time>
</trkpt>
<trkpt lat="46.1147870" lon="10.5146960">
	<ele>2708.20</ele>
	<time>2023-08-07T07:06:21.000Z</time>
</trkpt>
<trkpt lat="46.1147860" lon="10.5146960">
	<ele>2708.60</ele>
	<time>2023-08-07T07:06:22.000Z</time>
</trkpt>
<trkpt lat="46.1147860" lon="10.5146960">
	<ele>2708.80</ele>
	<time>2023-08-07T07:06:23.000Z</time>
</trkpt>
<trkpt lat="46.1147860" lon="10.5146960">
	<ele>2709.00</ele>
	<time>2023-08-07T07:06:24.000Z</time>
</trkpt>
<trkpt lat="46.1147860" lon="10.5146960">
	<ele>2709.20</ele>
	<time>2023-08-07T07:06:25.000Z</time>
</trkpt>
<trkpt lat="46.1147860" lon="10.5146960">
	<ele>2709.20</ele>
	<time>2023-08-07T07:06:26.000Z</time>
</trkpt>
<trkpt lat="46.1147860" lon="10.5146960">
	<ele>2709.40</ele>
	<time>2023-08-07T07:06:27.000Z</time>
</trkpt>
<trkpt lat="46.1147860" lon="10.5146960">
	<ele>2709.40</ele>
	<time>2023-08-07T07:06:28.000Z</time>
</trkpt>
<trkpt lat="46.1147860" lon="10.5146960">
	<ele>2709.60</ele>
	<time>2023-08-07T07:06:29.000Z</time>
</trkpt>
<trkpt lat="46.1147860" lon="10.5146960">
	<ele>2709.60</ele>
	<time>2023-08-07T07:06:30.000Z</time>
</trkpt>
<trkpt lat="46.1147860" lon="10.5146880">
	<ele>2709.80</ele>
	<time>2023-08-07T07:06:31.000Z</time>
</trkpt>
<trkpt lat="46.1147860" lon="10.5146870">
	<ele>2709.80</ele>
	<time>2023-08-07T07:06:32.000Z</time>
</trkpt>
<trkpt lat="46.1147860" lon="10.5146840">
	<ele>2710.00</ele>
	<time>2023-08-07T07:06:33.000Z</time>
</trkpt>
<trkpt lat="46.1147870" lon="10.5146840">
	<ele>2710.20</ele>
	<time>2023-08-07T07:06:34.000Z</time>
</trkpt>
<trkpt lat="46.1147870" lon="10.5146840">
	<ele>2710.20</ele>
	<time>2023-08-07T07:06:35.000Z</time>
</trkpt>
<trkpt lat="46.1147870" lon="10.5146830">
	<ele>2710.40</ele>
	<time>2023-08-07T07:06:36.000Z</time>
</trkpt>
<trkpt lat="46.1147870" lon="10.5146830">
	<ele>2710.80</ele>
	<time>2023-08-07T07:06:37.000Z</time>
</trkpt>
<trkpt lat="46.1147880" lon="10.5146830">
	<ele>2711.00</ele>
	<time>2023-08-07T07:06:38.000Z</time>
</trkpt>
<trkpt lat="46.1147890" lon="10.5146820">
	<ele>2711.00</ele>
	<time>2023-08-07T07:06:39.000Z</time>
</trkpt>
<trkpt lat="46.1147890" lon="10.5146790">
	<ele>2711.20</ele>
	<time>2023-08-07T07:06:40.000Z</time>
</trkpt>
<trkpt lat="46.1147900" lon="10.5146770">
	<ele>2711.20</ele>
	<time>2023-08-07T07:06:41.000Z</time>
</trkpt>
<trkpt lat="46.1147920" lon="10.5146760">
	<ele>2711.60</ele>
	<time>2023-08-07T07:06:42.000Z</time>
</trkpt>
<trkpt lat="46.1147950" lon="10.5146740">
	<ele>2711.80</ele>
	<time>2023-08-07T07:06:43.000Z</time>
</trkpt>
<trkpt lat="46.1147970" lon="10.5146740">
	<ele>2712.00</ele>
	<time>2023-08-07T07:06:44.000Z</time>
</trkpt>
<trkpt lat="46.1147980" lon="10.5146710">
	<ele>2712.00</ele>
	<time>2023-08-07T07:06:45.000Z</time>
</trkpt>
<trkpt lat="46.1147980" lon="10.5146680">
	<ele>2712.20</ele>
	<time>2023-08-07T07:06:46.000Z</time>
</trkpt>
<trkpt lat="46.1147980" lon="10.5146590">
	<ele>2712.20</ele>
	<time>2023-08-07T07:06:47.000Z</time>
</trkpt>
<trkpt lat="46.1148000" lon="10.5146570">
	<ele>2712.40</ele>
	<time>2023-08-07T07:06:48.000Z</time>
</trkpt>
<trkpt lat="46.1148000" lon="10.5146560">
	<ele>2712.40</ele>
	<time>2023-08-07T07:06:49.000Z</time>
</trkpt>
<trkpt lat="46.1148030" lon="10.5146550">
	<ele>2712.60</ele>
	<time>2023-08-07T07:06:50.000Z</time>
</trkpt>
<trkpt lat="46.1148040" lon="10.5146530">
	<ele>2712.80</ele>
	<time>2023-08-07T07:06:51.000Z</time>
</trkpt>
<trkpt lat="46.1148060" lon="10.5146520">
	<ele>2713.00</ele>
	<time>2023-08-07T07:06:52.000Z</time>
</trkpt>
<trkpt lat="46.1148060" lon="10.5146520">
	<ele>2713.00</ele>
	<time>2023-08-07T07:06:53.000Z</time>
</trkpt>
<trkpt lat="46.1148090" lon="10.5146520">
	<ele>2713.20</ele>
	<time>2023-08-07T07:06:54.000Z</time>
</trkpt>
<trkpt lat="46.1148100" lon="10.5146520">
	<ele>2713.20</ele>
	<time>2023-08-07T07:06:55.000Z</time>
</trkpt>
<trkpt lat="46.1148120" lon="10.5146510">
	<ele>2713.40</ele>
	<time>2023-08-07T07:06:56.000Z</time>
</trkpt>
<trkpt lat="46.1148130" lon="10.5146500">
	<ele>2713.40</ele>
	<time>2023-08-07T07:06:57.000Z</time>
</trkpt>
<trkpt lat="46.1148140" lon="10.5146500">
	<ele>2713.60</ele>
	<time>2023-08-07T07:06:58.000Z</time>
</trkpt>
<trkpt lat="46.1148140" lon="10.5146500">
	<ele>2713.80</ele>
	<time>2023-08-07T07:06:59.000Z</time>
</trkpt>
<trkpt lat="46.1148140" lon="10.5146490">
	<ele>2714.00</ele>
	<time>2023-08-07T07:07:00.000Z</time>
</trkpt>
<trkpt lat="46.1148150" lon="10.5146490">
	<ele>2714.00</ele>
	<time>2023-08-07T07:07:01.000Z</time>
</trkpt>
<trkpt lat="46.1148170" lon="10.5146490">
	<ele>2714.20</ele>
	<time>2023-08-07T07:07:02.000Z</time>
</trkpt>
<trkpt lat="46.1148180" lon="10.5146480">
	<ele>2714.20</ele>
	<time>2023-08-07T07:07:03.000Z</time>
</trkpt>
<trkpt lat="46.1148180" lon="10.5146480">
	<ele>2714.40</ele>
	<time>2023-08-07T07:07:04.000Z</time>
</trkpt>
<trkpt lat="46.1148210" lon="10.5146420">
	<ele>2714.60</ele>
	<time>2023-08-07T07:07:05.000Z</time>
</trkpt>
<trkpt lat="46.1148250" lon="10.5146350">
	<ele>2714.80</ele>
	<time>2023-08-07T07:07:06.000Z</time>
</trkpt>
<trkpt lat="46.1148270" lon="10.5146340">
	<ele>2714.80</ele>
	<time>2023-08-07T07:07:07.000Z</time>
</trkpt>
<trkpt lat="46.1148290" lon="10.5146290">
	<ele>2714.80</ele>
	<time>2023-08-07T07:07:08.000Z</time>
</trkpt>
<trkpt lat="46.1148300" lon="10.5146260">
	<ele>2715.00</ele>
	<time>2023-08-07T07:07:09.000Z</time>
</trkpt>
<trkpt lat="46.1148310" lon="10.5146230">
	<ele>2715.20</ele>
	<time>2023-08-07T07:07:10.000Z</time>
</trkpt>
<trkpt lat="46.1148320" lon="10.5146210">
	<ele>2715.40</ele>
	<time>2023-08-07T07:07:11.000Z</time>
</trkpt>
<trkpt lat="46.1148360" lon="10.5146160">
	<ele>2715.60</ele>
	<time>2023-08-07T07:07:12.000Z</time>
</trkpt>
<trkpt lat="46.1148370" lon="10.5146140">
	<ele>2715.80</ele>
	<time>2023-08-07T07:07:13.000Z</time>
</trkpt>
<trkpt lat="46.1148380" lon="10.5146110">
	<ele>2715.80</ele>
	<time>2023-08-07T07:07:14.000Z</time>
</trkpt>
<trkpt lat="46.1148390" lon="10.5146090">
	<ele>2716.00</ele>
	<time>2023-08-07T07:07:15.000Z</time>
</trkpt>
<trkpt lat="46.1148400" lon="10.5146090">
	<ele>2716.00</ele>
	<time>2023-08-07T07:07:16.000Z</time>
</trkpt>
<trkpt lat="46.1148440" lon="10.5146080">
	<ele>2716.00</ele>
	<time>2023-08-07T07:07:17.000Z</time>
</trkpt>
<trkpt lat="46.1148470" lon="10.5146070">
	<ele>2716.00</ele>
	<time>2023-08-07T07:07:18.000Z</time>
</trkpt>
<trkpt lat="46.1148500" lon="10.5146070">
	<ele>2716.20</ele>
	<time>2023-08-07T07:07:19.000Z</time>
</trkpt>
<trkpt lat="46.1148520" lon="10.5146060">
	<ele>2716.40</ele>
	<time>2023-08-07T07:07:20.000Z</time>
</trkpt>
<trkpt lat="46.1148580" lon="10.5146010">
	<ele>2716.60</ele>
	<time>2023-08-07T07:07:21.000Z</time>
</trkpt>
<trkpt lat="46.1148620" lon="10.5145990">
	<ele>2716.80</ele>
	<time>2023-08-07T07:07:22.000Z</time>
</trkpt>
<trkpt lat="46.1148680" lon="10.5145960">
	<ele>2716.80</ele>
	<time>2023-08-07T07:07:23.000Z</time>
</trkpt>
<trkpt lat="46.1148760" lon="10.5145950">
	<ele>2717.00</ele>
	<time>2023-08-07T07:07:24.000Z</time>
</trkpt>
<trkpt lat="46.1148840" lon="10.5145950">
	<ele>2717.00</ele>
	<time>2023-08-07T07:07:25.000Z</time>
</trkpt>
<trkpt lat="46.1148890" lon="10.5145940">
	<ele>2717.00</ele>
	<time>2023-08-07T07:07:26.000Z</time>
</trkpt>
<trkpt lat="46.1148930" lon="10.5145930">
	<ele>2717.20</ele>
	<time>2023-08-07T07:07:27.000Z</time>
</trkpt>
<trkpt lat="46.1148960" lon="10.5145930">
	<ele>2717.40</ele>
	<time>2023-08-07T07:07:28.000Z</time>
</trkpt>
<trkpt lat="46.1148980" lon="10.5145930">
	<ele>2717.40</ele>
	<time>2023-08-07T07:07:29.000Z</time>
</trkpt>
<trkpt lat="46.1148990" lon="10.5145930">
	<ele>2717.60</ele>
	<time>2023-08-07T07:07:30.000Z</time>
</trkpt>
<trkpt lat="46.1149000" lon="10.5145930">
	<ele>2717.60</ele>
	<time>2023-08-07T07:07:31.000Z</time>
</trkpt>
<trkpt lat="46.1149010" lon="10.5145930">
	<ele>2717.60</ele>
	<time>2023-08-07T07:07:32.000Z</time>
</trkpt>
<trkpt lat="46.1149030" lon="10.5145930">
	<ele>2717.60</ele>
	<time>2023-08-07T07:07:33.000Z</time>
</trkpt>
<trkpt lat="46.1149070" lon="10.5145930">
	<ele>2717.60</ele>
	<time>2023-08-07T07:07:34.000Z</time>
</trkpt>
<trkpt lat="46.1149090" lon="10.5145930">
	<ele>2717.60</ele>
	<time>2023-08-07T07:07:35.000Z</time>
</trkpt>
<trkpt lat="46.1149110" lon="10.5145930">
	<ele>2717.80</ele>
	<time>2023-08-07T07:07:36.000Z</time>
</trkpt>
<trkpt lat="46.1149130" lon="10.5145930">
	<ele>2717.80</ele>
	<time>2023-08-07T07:07:37.000Z</time>
</trkpt>
<trkpt lat="46.1149160" lon="10.5145930">
	<ele>2718.00</ele>
	<time>2023-08-07T07:07:38.000Z</time>
</trkpt>
<trkpt lat="46.1149180" lon="10.5145940">
	<ele>2718.00</ele>
	<time>2023-08-07T07:07:39.000Z</time>
</trkpt>
<trkpt lat="46.1149220" lon="10.5145940">
	<ele>2718.00</ele>
	<time>2023-08-07T07:07:40.000Z</time>
</trkpt>
<trkpt lat="46.1149250" lon="10.5145940">
	<ele>2718.20</ele>
	<time>2023-08-07T07:07:41.000Z</time>
</trkpt>
<trkpt lat="46.1149280" lon="10.5145950">
	<ele>2718.20</ele>
	<time>2023-08-07T07:07:42.000Z</time>
</trkpt>
<trkpt lat="46.1149300" lon="10.5145970">
	<ele>2718.40</ele>
	<time>2023-08-07T07:07:43.000Z</time>
</trkpt>
<trkpt lat="46.1149350" lon="10.5145980">
	<ele>2718.40</ele>
	<time>2023-08-07T07:07:44.000Z</time>
</trkpt>
<trkpt lat="46.1149380" lon="10.5145980">
	<ele>2718.40</ele>
	<time>2023-08-07T07:07:45.000Z</time>
</trkpt>
<trkpt lat="46.1149420" lon="10.5145990">
	<ele>2718.60</ele>
	<time>2023-08-07T07:07:46.000Z</time>
</trkpt>
<trkpt lat="46.1149440" lon="10.5146000">
	<ele>2718.80</ele>
	<time>2023-08-07T07:07:47.000Z</time>
</trkpt>
<trkpt lat="46.1149480" lon="10.5146000">
	<ele>2718.80</ele>
	<time>2023-08-07T07:07:48.000Z</time>
</trkpt>
<trkpt lat="46.1149530" lon="10.5146000">
	<ele>2719.00</ele>
	<time>2023-08-07T07:07:49.000Z</time>
</trkpt>
<trkpt lat="46.1149580" lon="10.5146000">
	<ele>2719.00</ele>
	<time>2023-08-07T07:07:50.000Z</time>
</trkpt>
<trkpt lat="46.1149640" lon="10.5146000">
	<ele>2719.00</ele>
	<time>2023-08-07T07:07:51.000Z</time>
</trkpt>
<trkpt lat="46.1149710" lon="10.5146010">
	<ele>2719.20</ele>
	<time>2023-08-07T07:07:52.000Z</time>
</trkpt>
<trkpt lat="46.1149770" lon="10.5146010">
	<ele>2719.20</ele>
	<time>2023-08-07T07:07:53.000Z</time>
</trkpt>
<trkpt lat="46.1149800" lon="10.5146010">
	<ele>2719.20</ele>
	<time>2023-08-07T07:07:54.000Z</time>
</trkpt>
<trkpt lat="46.1149820" lon="10.5146020">
	<ele>2719.20</ele>
	<time>2023-08-07T07:07:55.000Z</time>
</trkpt>
<trkpt lat="46.1149850" lon="10.5146020">
	<ele>2719.40</ele>
	<time>2023-08-07T07:07:56.000Z</time>
</trkpt>
<trkpt lat="46.1149890" lon="10.5146020">
	<ele>2719.40</ele>
	<time>2023-08-07T07:07:57.000Z</time>
</trkpt>
<trkpt lat="46.1149930" lon="10.5146030">
	<ele>2719.40</ele>
	<time>2023-08-07T07:07:58.000Z</time>
</trkpt>
<trkpt lat="46.1149980" lon="10.5146040">
	<ele>2719.60</ele>
	<time>2023-08-07T07:07:59.000Z</time>
</trkpt>
<trkpt lat="46.1150020" lon="10.5146050">
	<ele>2719.60</ele>
	<time>2023-08-07T07:08:00.000Z</time>
</trkpt>
<trkpt lat="46.1150040" lon="10.5146050">
	<ele>2719.60</ele>
	<time>2023-08-07T07:08:01.000Z</time>
</trkpt>
<trkpt lat="46.1150060" lon="10.5146100">
	<ele>2719.60</ele>
	<time>2023-08-07T07:08:02.000Z</time>
</trkpt>
<trkpt lat="46.1150070" lon="10.5146140">
	<ele>2719.60</ele>
	<time>2023-08-07T07:08:03.000Z</time>
</trkpt>
<trkpt lat="46.1150080" lon="10.5146170">
	<ele>2719.60</ele>
	<time>2023-08-07T07:08:04.000Z</time>
</trkpt>
<trkpt lat="46.1150090" lon="10.5146180">
	<ele>2719.60</ele>
	<time>2023-08-07T07:08:05.000Z</time>
</trkpt>
<trkpt lat="46.1150110" lon="10.5146200">
	<ele>2719.60</ele>
	<time>2023-08-07T07:08:06.000Z</time>
</trkpt>
<trkpt lat="46.1150130" lon="10.5146230">
	<ele>2719.60</ele>
	<time>2023-08-07T07:08:07.000Z</time>
</trkpt>
<trkpt lat="46.1150150" lon="10.5146280">
	<ele>2719.40</ele>
	<time>2023-08-07T07:08:08.000Z</time>
</trkpt>
<trkpt lat="46.1150190" lon="10.5146330">
	<ele>2719.40</ele>
	<time>2023-08-07T07:08:09.000Z</time>
</trkpt>
<trkpt lat="46.1150230" lon="10.5146360">
	<ele>2719.40</ele>
	<time>2023-08-07T07:08:10.000Z</time>
</trkpt>
<trkpt lat="46.1150260" lon="10.5146390">
	<ele>2719.40</ele>
	<time>2023-08-07T07:08:11.000Z</time>
</trkpt>
<trkpt lat="46.1150290" lon="10.5146440">
	<ele>2719.40</ele>
	<time>2023-08-07T07:08:12.000Z</time>
</trkpt>
<trkpt lat="46.1150330" lon="10.5146470">
	<ele>2719.60</ele>
	<time>2023-08-07T07:08:13.000Z</time>
</trkpt>
<trkpt lat="46.1150370" lon="10.5146500">
	<ele>2719.60</ele>
	<time>2023-08-07T07:08:14.000Z</time>
</trkpt>
<trkpt lat="46.1150420" lon="10.5146520">
	<ele>2719.60</ele>
	<time>2023-08-07T07:08:15.000Z</time>
</trkpt>
<trkpt lat="46.1150450" lon="10.5146530">
	<ele>2719.60</ele>
	<time>2023-08-07T07:08:16.000Z</time>
</trkpt>
<trkpt lat="46.1150490" lon="10.5146540">
	<ele>2719.60</ele>
	<time>2023-08-07T07:08:17.000Z</time>
</trkpt>
<trkpt lat="46.1150530" lon="10.5146560">
	<ele>2719.40</ele>
	<time>2023-08-07T07:08:18.000Z</time>
</trkpt>
<trkpt lat="46.1150570" lon="10.5146570">
	<ele>2719.40</ele>
	<time>2023-08-07T07:08:19.000Z</time>
</trkpt>
<trkpt lat="46.1150640" lon="10.5146610">
	<ele>2719.40</ele>
	<time>2023-08-07T07:08:20.000Z</time>
</trkpt>
<trkpt lat="46.1150720" lon="10.5146650">
	<ele>2719.20</ele>
	<time>2023-08-07T07:08:21.000Z</time>
</trkpt>
<trkpt lat="46.1150810" lon="10.5146690">
	<ele>2719.20</ele>
	<time>2023-08-07T07:08:22.000Z</time>
</trkpt>
<trkpt lat="46.1150900" lon="10.5146730">
	<ele>2719.00</ele>
	<time>2023-08-07T07:08:23.000Z</time>
</trkpt>
<trkpt lat="46.1150970" lon="10.5146810">
	<ele>2719.00</ele>
	<time>2023-08-07T07:08:24.000Z</time>
</trkpt>
<trkpt lat="46.1151060" lon="10.5146880">
	<ele>2719.00</ele>
	<time>2023-08-07T07:08:25.000Z</time>
</trkpt>
<trkpt lat="46.1151150" lon="10.5146930">
	<ele>2719.20</ele>
	<time>2023-08-07T07:08:26.000Z</time>
</trkpt>
<trkpt lat="46.1151270" lon="10.5147020">
	<ele>2719.40</ele>
	<time>2023-08-07T07:08:27.000Z</time>
</trkpt>
<trkpt lat="46.1151400" lon="10.5147030">
	<ele>2719.40</ele>
	<time>2023-08-07T07:08:28.000Z</time>
</trkpt>
<trkpt lat="46.1151530" lon="10.5147060">
	<ele>2719.40</ele>
	<time>2023-08-07T07:08:29.000Z</time>
</trkpt>
<trkpt lat="46.1151600" lon="10.5146990">
	<ele>2719.60</ele>
	<time>2023-08-07T07:08:30.000Z</time>
</trkpt>
<trkpt lat="46.1151620" lon="10.5147040">
	<ele>2719.60</ele>
	<time>2023-08-07T07:08:31.000Z</time>
</trkpt>
<trkpt lat="46.1151660" lon="10.5147040">
	<ele>2719.60</ele>
	<time>2023-08-07T07:08:32.000Z</time>
</trkpt>
<trkpt lat="46.1151710" lon="10.5147050">
	<ele>2719.60</ele>
	<time>2023-08-07T07:08:33.000Z</time>
</trkpt>
<trkpt lat="46.1151740" lon="10.5147040">
	<ele>2719.80</ele>
	<time>2023-08-07T07:08:34.000Z</time>
</trkpt>
<trkpt lat="46.1151800" lon="10.5146990">
	<ele>2719.80</ele>
	<time>2023-08-07T07:08:35.000Z</time>
</trkpt>
<trkpt lat="46.1151820" lon="10.5146890">
	<ele>2719.80</ele>
	<time>2023-08-07T07:08:36.000Z</time>
</trkpt>
<trkpt lat="46.1151860" lon="10.5146850">
	<ele>2720.00</ele>
	<time>2023-08-07T07:08:37.000Z</time>
</trkpt>
<trkpt lat="46.1151940" lon="10.5146840">
	<ele>2720.20</ele>
	<time>2023-08-07T07:08:38.000Z</time>
</trkpt>
<trkpt lat="46.1152040" lon="10.5146800">
	<ele>2720.60</ele>
	<time>2023-08-07T07:08:39.000Z</time>
</trkpt>
<trkpt lat="46.1152080" lon="10.5146790">
	<ele>2720.80</ele>
	<time>2023-08-07T07:08:40.000Z</time>
</trkpt>
<trkpt lat="46.1152140" lon="10.5146730">
	<ele>2721.00</ele>
	<time>2023-08-07T07:08:41.000Z</time>
</trkpt>
<trkpt lat="46.1152140" lon="10.5146690">
	<ele>2721.00</ele>
	<time>2023-08-07T07:08:42.000Z</time>
</trkpt>
<trkpt lat="46.1152170" lon="10.5146660">
	<ele>2721.20</ele>
	<time>2023-08-07T07:08:43.000Z</time>
</trkpt>
<trkpt lat="46.1152140" lon="10.5146720">
	<ele>2721.20</ele>
	<time>2023-08-07T07:08:44.000Z</time>
</trkpt>
<trkpt lat="46.1152130" lon="10.5146730">
	<ele>2721.20</ele>
	<time>2023-08-07T07:08:45.000Z</time>
</trkpt>
<trkpt lat="46.1152130" lon="10.5146710">
	<ele>2721.20</ele>
	<time>2023-08-07T07:08:46.000Z</time>
</trkpt>
<trkpt lat="46.1152130" lon="10.5146650">
	<ele>2721.40</ele>
	<time>2023-08-07T07:08:47.000Z</time>
</trkpt>
<trkpt lat="46.1152140" lon="10.5146610">
	<ele>2721.40</ele>
	<time>2023-08-07T07:08:48.000Z</time>
</trkpt>
<trkpt lat="46.1152140" lon="10.5146580">
	<ele>2721.80</ele>
	<time>2023-08-07T07:08:49.000Z</time>
</trkpt>
<trkpt lat="46.1152160" lon="10.5146550">
	<ele>2722.00</ele>
	<time>2023-08-07T07:08:50.000Z</time>
</trkpt>
<trkpt lat="46.1152180" lon="10.5146540">
	<ele>2722.20</ele>
	<time>2023-08-07T07:08:51.000Z</time>
</trkpt>
<trkpt lat="46.1152220" lon="10.5146570">
	<ele>2722.20</ele>
	<time>2023-08-07T07:08:52.000Z</time>
</trkpt>
<trkpt lat="46.1152290" lon="10.5146520">
	<ele>2722.40</ele>
	<time>2023-08-07T07:08:53.000Z</time>
</trkpt>
<trkpt lat="46.1152360" lon="10.5146520">
	<ele>2722.40</ele>
	<time>2023-08-07T07:08:54.000Z</time>
</trkpt>
<trkpt lat="46.1152380" lon="10.5146530">
	<ele>2722.60</ele>
	<time>2023-08-07T07:08:55.000Z</time>
</trkpt>
<trkpt lat="46.1152420" lon="10.5146510">
	<ele>2722.60</ele>
	<time>2023-08-07T07:08:56.000Z</time>
</trkpt>
<trkpt lat="46.1152440" lon="10.5146530">
	<ele>2722.80</ele>
	<time>2023-08-07T07:08:57.000Z</time>
</trkpt>
<trkpt lat="46.1152460" lon="10.5146570">
	<ele>2723.00</ele>
	<time>2023-08-07T07:08:58.000Z</time>
</trkpt>
<trkpt lat="46.1152470" lon="10.5146580">
	<ele>2723.00</ele>
	<time>2023-08-07T07:08:59.000Z</time>
</trkpt>
<trkpt lat="46.1152480" lon="10.5146570">
	<ele>2723.00</ele>
	<time>2023-08-07T07:09:00.000Z</time>
</trkpt>
<trkpt lat="46.1152510" lon="10.5146570">
	<ele>2723.20</ele>
	<time>2023-08-07T07:09:01.000Z</time>
</trkpt>
<trkpt lat="46.1152550" lon="10.5146580">
	<ele>2723.40</ele>
	<time>2023-08-07T07:09:02.000Z</time>
</trkpt>
<trkpt lat="46.1152580" lon="10.5146570">
	<ele>2723.40</ele>
	<time>2023-08-07T07:09:03.000Z</time>
</trkpt>
<trkpt lat="46.1152600" lon="10.5146570">
	<ele>2723.40</ele>
	<time>2023-08-07T07:09:04.000Z</time>
</trkpt>
<trkpt lat="46.1152630" lon="10.5146560">
	<ele>2723.60</ele>
	<time>2023-08-07T07:09:05.000Z</time>
</trkpt>
<trkpt lat="46.1152650" lon="10.5146590">
	<ele>2723.80</ele>
	<time>2023-08-07T07:09:06.000Z</time>
</trkpt>
<trkpt lat="46.1152680" lon="10.5146620">
	<ele>2724.00</ele>
	<time>2023-08-07T07:09:07.000Z</time>
</trkpt>
<trkpt lat="46.1152720" lon="10.5146580">
	<ele>2724.20</ele>
	<time>2023-08-07T07:09:08.000Z</time>
</trkpt>
<trkpt lat="46.1152740" lon="10.5146590">
	<ele>2724.20</ele>
	<time>2023-08-07T07:09:09.000Z</time>
</trkpt>
<trkpt lat="46.1152770" lon="10.5146580">
	<ele>2724.40</ele>
	<time>2023-08-07T07:09:10.000Z</time>
</trkpt>
<trkpt lat="46.1152780" lon="10.5146600">
	<ele>2724.60</ele>
	<time>2023-08-07T07:09:11.000Z</time>
</trkpt>
<trkpt lat="46.1152790" lon="10.5146610">
	<ele>2724.80</ele>
	<time>2023-08-07T07:09:12.000Z</time>
</trkpt>
<trkpt lat="46.1152800" lon="10.5146620">
	<ele>2725.00</ele>
	<time>2023-08-07T07:09:13.000Z</time>
</trkpt>
<trkpt lat="46.1152820" lon="10.5146710">
	<ele>2725.00</ele>
	<time>2023-08-07T07:09:14.000Z</time>
</trkpt>
<trkpt lat="46.1152880" lon="10.5146800">
	<ele>2725.00</ele>
	<time>2023-08-07T07:09:15.000Z</time>
</trkpt>
<trkpt lat="46.1152920" lon="10.5146830">
	<ele>2725.20</ele>
	<time>2023-08-07T07:09:16.000Z</time>
</trkpt>
<trkpt lat="46.1152950" lon="10.5146870">
	<ele>2725.40</ele>
	<time>2023-08-07T07:09:17.000Z</time>
</trkpt>
<trkpt lat="46.1152970" lon="10.5146900">
	<ele>2725.40</ele>
	<time>2023-08-07T07:09:18.000Z</time>
</trkpt>
<trkpt lat="46.1153000" lon="10.5146940">
	<ele>2725.60</ele>
	<time>2023-08-07T07:09:19.000Z</time>
</trkpt>
<trkpt lat="46.1153010" lon="10.5146960">
	<ele>2725.80</ele>
	<time>2023-08-07T07:09:20.000Z</time>
</trkpt>
<trkpt lat="46.1153020" lon="10.5147000">
	<ele>2725.80</ele>
	<time>2023-08-07T07:09:21.000Z</time>
</trkpt>
<trkpt lat="46.1153030" lon="10.5147080">
	<ele>2726.00</ele>
	<time>2023-08-07T07:09:22.000Z</time>
</trkpt>
<trkpt lat="46.1153030" lon="10.5147120">
	<ele>2726.00</ele>
	<time>2023-08-07T07:09:23.000Z</time>
</trkpt>
<trkpt lat="46.1153070" lon="10.5147130">
	<ele>2726.20</ele>
	<time>2023-08-07T07:09:24.000Z</time>
</trkpt>
<trkpt lat="46.1153110" lon="10.5147130">
	<ele>2726.40</ele>
	<time>2023-08-07T07:09:25.000Z</time>
</trkpt>
<trkpt lat="46.1153140" lon="10.5147130">
	<ele>2726.60</ele>
	<time>2023-08-07T07:09:26.000Z</time>
</trkpt>
<trkpt lat="46.1153160" lon="10.5147130">
	<ele>2726.80</ele>
	<time>2023-08-07T07:09:27.000Z</time>
</trkpt>
<trkpt lat="46.1153180" lon="10.5147100">
	<ele>2726.80</ele>
	<time>2023-08-07T07:09:28.000Z</time>
</trkpt>
<trkpt lat="46.1153170" lon="10.5147120">
	<ele>2727.00</ele>
	<time>2023-08-07T07:09:29.000Z</time>
</trkpt>
<trkpt lat="46.1153150" lon="10.5147120">
	<ele>2727.00</ele>
	<time>2023-08-07T07:09:30.000Z</time>
</trkpt>
<trkpt lat="46.1153090" lon="10.5147110">
	<ele>2727.00</ele>
	<time>2023-08-07T07:09:31.000Z</time>
</trkpt>
<trkpt lat="46.1153100" lon="10.5147100">
	<ele>2727.20</ele>
	<time>2023-08-07T07:09:32.000Z</time>
</trkpt>
<trkpt lat="46.1153100" lon="10.5147070">
	<ele>2727.60</ele>
	<time>2023-08-07T07:09:33.000Z</time>
</trkpt>
<trkpt lat="46.1153100" lon="10.5147000">
	<ele>2727.60</ele>
	<time>2023-08-07T07:09:34.000Z</time>
</trkpt>
<trkpt lat="46.1153060" lon="10.5146960">
	<ele>2727.80</ele>
	<time>2023-08-07T07:09:35.000Z</time>
</trkpt>
<trkpt lat="46.1153000" lon="10.5147000">
	<ele>2728.00</ele>
	<time>2023-08-07T07:09:36.000Z</time>
</trkpt>
<trkpt lat="46.1153010" lon="10.5147040">
	<ele>2728.20</ele>
	<time>2023-08-07T07:09:37.000Z</time>
</trkpt>
<trkpt lat="46.1153020" lon="10.5147050">
	<ele>2728.20</ele>
	<time>2023-08-07T07:09:38.000Z</time>
</trkpt>
<trkpt lat="46.1153020" lon="10.5147050">
	<ele>2728.40</ele>
	<time>2023-08-07T07:09:39.000Z</time>
</trkpt>
<trkpt lat="46.1153020" lon="10.5147050">
	<ele>2728.40</ele>
	<time>2023-08-07T07:09:40.000Z</time>
</trkpt>
<trkpt lat="46.1153020" lon="10.5147050">
	<ele>2728.60</ele>
	<time>2023-08-07T07:09:41.000Z</time>
</trkpt>
<trkpt lat="46.1153020" lon="10.5147050">
	<ele>2728.60</ele>
	<time>2023-08-07T07:09:42.000Z</time>
</trkpt>
<trkpt lat="46.1153020" lon="10.5147050">
	<ele>2728.60</ele>
	<time>2023-08-07T07:09:43.000Z</time>
</trkpt>
<trkpt lat="46.1153020" lon="10.5147050">
	<ele>2728.60</ele>
	<time>2023-08-07T07:09:44.000Z</time>
</trkpt>
<trkpt lat="46.1153020" lon="10.5147050">
	<ele>2728.60</ele>
	<time>2023-08-07T07:09:45.000Z</time>
</trkpt>
<trkpt lat="46.1153020" lon="10.5147050">
	<ele>2728.40</ele>
	<time>2023-08-07T07:09:46.000Z</time>
</trkpt>
<trkpt lat="46.1153020" lon="10.5147050">
	<ele>2728.20</ele>
	<time>2023-08-07T07:09:47.000Z</time>
</trkpt>
<trkpt lat="46.1153020" lon="10.5147050">
	<ele>2727.80</ele>
	<time>2023-08-07T07:09:48.000Z</time>
</trkpt>
<trkpt lat="46.1153020" lon="10.5147050">
	<ele>2727.60</ele>
	<time>2023-08-07T07:09:49.000Z</time>
</trkpt>
<trkpt lat="46.1153020" lon="10.5147050">
	<ele>2727.60</ele>
	<time>2023-08-07T07:09:50.000Z</time>
</trkpt>
<trkpt lat="46.1153020" lon="10.5147050">
	<ele>2727.40</ele>
	<time>2023-08-07T07:09:51.000Z</time>
</trkpt>
<trkpt lat="46.1153010" lon="10.5147050">
	<ele>2727.60</ele>
	<time>2023-08-07T07:09:52.000Z</time>
</trkpt>
<trkpt lat="46.1153010" lon="10.5147050">
	<ele>2727.60</ele>
	<time>2023-08-07T07:09:53.000Z</time>
</trkpt>
<trkpt lat="46.1153010" lon="10.5147050">
	<ele>2727.80</ele>
	<time>2023-08-07T07:09:54.000Z</time>
</trkpt>
<trkpt lat="46.1153010" lon="10.5147050">
	<ele>2727.80</ele>
	<time>2023-08-07T07:09:55.000Z</time>
</trkpt>
<trkpt lat="46.1153010" lon="10.5147050">
	<ele>2728.00</ele>
	<time>2023-08-07T07:09:56.000Z</time>
</trkpt>
<trkpt lat="46.1153010" lon="10.5147050">
	<ele>2728.20</ele>
	<time>2023-08-07T07:09:57.000Z</time>
</trkpt>
<trkpt lat="46.1153010" lon="10.5147050">
	<ele>2728.40</ele>
	<time>2023-08-07T07:09:58.000Z</time>
</trkpt>
<trkpt lat="46.1153010" lon="10.5147050">
	<ele>2728.60</ele>
	<time>2023-08-07T07:09:59.000Z</time>
</trkpt>
<trkpt lat="46.1153010" lon="10.5147050">
	<ele>2728.60</ele>
	<time>2023-08-07T07:10:00.000Z</time>
</trkpt>
<trkpt lat="46.1153010" lon="10.5147040">
	<ele>2728.80</ele>
	<time>2023-08-07T07:10:01.000Z</time>
</trkpt>
<trkpt lat="46.1153010" lon="10.5147040">
	<ele>2728.80</ele>
	<time>2023-08-07T07:10:02.000Z</time>
</trkpt>
<trkpt lat="46.1153010" lon="10.5147040">
	<ele>2728.80</ele>
	<time>2023-08-07T07:10:03.000Z</time>
</trkpt>
<trkpt lat="46.1153010" lon="10.5147040">
	<ele>2728.80</ele>
	<time>2023-08-07T07:10:04.000Z</time>
</trkpt>
<trkpt lat="46.1153010" lon="10.5147050">
	<ele>2729.00</ele>
	<time>2023-08-07T07:10:05.000Z</time>
</trkpt>
<trkpt lat="46.1153010" lon="10.5147050">
	<ele>2729.00</ele>
	<time>2023-08-07T07:10:06.000Z</time>
</trkpt>
<trkpt lat="46.1153010" lon="10.5147050">
	<ele>2729.20</ele>
	<time>2023-08-07T07:10:07.000Z</time>
</trkpt>
<trkpt lat="46.1153000" lon="10.5147050">
	<ele>2729.20</ele>
	<time>2023-08-07T07:10:08.000Z</time>
</trkpt>
<trkpt lat="46.1153000" lon="10.5147050">
	<ele>2729.40</ele>
	<time>2023-08-07T07:10:09.000Z</time>
</trkpt>
<trkpt lat="46.1152990" lon="10.5147050">
	<ele>2729.80</ele>
	<time>2023-08-07T07:10:10.000Z</time>
</trkpt>
<trkpt lat="46.1152990" lon="10.5147050">
	<ele>2729.80</ele>
	<time>2023-08-07T07:10:11.000Z</time>
</trkpt>
<trkpt lat="46.1152990" lon="10.5147050">
	<ele>2730.00</ele>
	<time>2023-08-07T07:10:12.000Z</time>
</trkpt>
<trkpt lat="46.1152990" lon="10.5147050">
	<ele>2730.00</ele>
	<time>2023-08-07T07:10:13.000Z</time>
</trkpt>
<trkpt lat="46.1152990" lon="10.5147050">
	<ele>2730.20</ele>
	<time>2023-08-07T07:10:14.000Z</time>
</trkpt>
<trkpt lat="46.1153000" lon="10.5147050">
	<ele>2730.20</ele>
	<time>2023-08-07T07:10:15.000Z</time>
</trkpt>
<trkpt lat="46.1153000" lon="10.5147050">
	<ele>2730.20</ele>
	<time>2023-08-07T07:10:16.000Z</time>
</trkpt>
<trkpt lat="46.1153000" lon="10.5147060">
	<ele>2730.60</ele>
	<time>2023-08-07T07:10:17.000Z</time>
</trkpt>
<trkpt lat="46.1153010" lon="10.5147060">
	<ele>2731.00</ele>
	<time>2023-08-07T07:10:18.000Z</time>
</trkpt>
<trkpt lat="46.1153010" lon="10.5147090">
	<ele>2731.20</ele>
	<time>2023-08-07T07:10:19.000Z</time>
</trkpt>
<trkpt lat="46.1153020" lon="10.5147090">
	<ele>2731.40</ele>
	<time>2023-08-07T07:10:20.000Z</time>
</trkpt>
<trkpt lat="46.1153040" lon="10.5147100">
	<ele>2731.40</ele>
	<time>2023-08-07T07:10:21.000Z</time>
</trkpt>
<trkpt lat="46.1153040" lon="10.5147100">
	<ele>2731.80</ele>
	<time>2023-08-07T07:10:22.000Z</time>
</trkpt>
<trkpt lat="46.1153050" lon="10.5147100">
	<ele>2732.00</ele>
	<time>2023-08-07T07:10:23.000Z</time>
</trkpt>
<trkpt lat="46.1153060" lon="10.5147100">
	<ele>2732.00</ele>
	<time>2023-08-07T07:10:24.000Z</time>
</trkpt>
<trkpt lat="46.1153060" lon="10.5147100">
	<ele>2732.20</ele>
	<time>2023-08-07T07:10:25.000Z</time>
</trkpt>
<trkpt lat="46.1153070" lon="10.5147100">
	<ele>2732.20</ele>
	<time>2023-08-07T07:10:26.000Z</time>
</trkpt>
<trkpt lat="46.1153070" lon="10.5147100">
	<ele>2732.20</ele>
	<time>2023-08-07T07:10:27.000Z</time>
</trkpt>
<trkpt lat="46.1153070" lon="10.5147100">
	<ele>2732.60</ele>
	<time>2023-08-07T07:10:28.000Z</time>
</trkpt>
<trkpt lat="46.1153070" lon="10.5147100">
	<ele>2732.80</ele>
	<time>2023-08-07T07:10:29.000Z</time>
</trkpt>
<trkpt lat="46.1153070" lon="10.5147100">
	<ele>2733.00</ele>
	<time>2023-08-07T07:10:30.000Z</time>
</trkpt>
<trkpt lat="46.1153070" lon="10.5147100">
	<ele>2733.20</ele>
	<time>2023-08-07T07:10:31.000Z</time>
</trkpt>
<trkpt lat="46.1153080" lon="10.5147090">
	<ele>2733.20</ele>
	<time>2023-08-07T07:10:32.000Z</time>
</trkpt>
<trkpt lat="46.1153080" lon="10.5147070">
	<ele>2733.40</ele>
	<time>2023-08-07T07:10:33.000Z</time>
</trkpt>
<trkpt lat="46.1153090" lon="10.5147050">
	<ele>2733.60</ele>
	<time>2023-08-07T07:10:34.000Z</time>
</trkpt>
<trkpt lat="46.1153110" lon="10.5147040">
	<ele>2733.80</ele>
	<time>2023-08-07T07:10:35.000Z</time>
</trkpt>
<trkpt lat="46.1153140" lon="10.5147030">
	<ele>2733.80</ele>
	<time>2023-08-07T07:10:36.000Z</time>
</trkpt>
<trkpt lat="46.1153150" lon="10.5147010">
	<ele>2734.00</ele>
	<time>2023-08-07T07:10:37.000Z</time>
</trkpt>
<trkpt lat="46.1153160" lon="10.5147000">
	<ele>2734.20</ele>
	<time>2023-08-07T07:10:38.000Z</time>
</trkpt>
<trkpt lat="46.1153180" lon="10.5146980">
	<ele>2734.20</ele>
	<time>2023-08-07T07:10:39.000Z</time>
</trkpt>
<trkpt lat="46.1153220" lon="10.5146960">
	<ele>2734.40</ele>
	<time>2023-08-07T07:10:40.000Z</time>
</trkpt>
<trkpt lat="46.1153240" lon="10.5146920">
	<ele>2734.80</ele>
	<time>2023-08-07T07:10:41.000Z</time>
</trkpt>
<trkpt lat="46.1153280" lon="10.5146860">
	<ele>2735.00</ele>
	<time>2023-08-07T07:10:42.000Z</time>
</trkpt>
<trkpt lat="46.1153310" lon="10.5146780">
	<ele>2735.20</ele>
	<time>2023-08-07T07:10:43.000Z</time>
</trkpt>
<trkpt lat="46.1153330" lon="10.5146760">
	<ele>2735.20</ele>
	<time>2023-08-07T07:10:44.000Z</time>
</trkpt>
<trkpt lat="46.1153360" lon="10.5146680">
	<ele>2735.20</ele>
	<time>2023-08-07T07:10:45.000Z</time>
</trkpt>
<trkpt lat="46.1153440" lon="10.5146570">
	<ele>2735.40</ele>
	<time>2023-08-07T07:10:46.000Z</time>
</trkpt>
<trkpt lat="46.1153480" lon="10.5146520">
	<ele>2735.40</ele>
	<time>2023-08-07T07:10:47.000Z</time>
</trkpt>
<trkpt lat="46.1153550" lon="10.5146440">
	<ele>2735.40</ele>
	<time>2023-08-07T07:10:48.000Z</time>
</trkpt>
<trkpt lat="46.1153560" lon="10.5146380">
	<ele>2735.40</ele>
	<time>2023-08-07T07:10:49.000Z</time>
</trkpt>
<trkpt lat="46.1153590" lon="10.5146370">
	<ele>2735.60</ele>
	<time>2023-08-07T07:10:50.000Z</time>
</trkpt>
<trkpt lat="46.1153570" lon="10.5146380">
	<ele>2735.80</ele>
	<time>2023-08-07T07:10:51.000Z</time>
</trkpt>
<trkpt lat="46.1153590" lon="10.5146330">
	<ele>2736.00</ele>
	<time>2023-08-07T07:10:52.000Z</time>
</trkpt>
<trkpt lat="46.1153580" lon="10.5146270">
	<ele>2736.00</ele>
	<time>2023-08-07T07:10:53.000Z</time>
</trkpt>
<trkpt lat="46.1153600" lon="10.5146250">
	<ele>2736.40</ele>
	<time>2023-08-07T07:10:54.000Z</time>
</trkpt>
<trkpt lat="46.1153610" lon="10.5146260">
	<ele>2736.60</ele>
	<time>2023-08-07T07:10:55.000Z</time>
</trkpt>
<trkpt lat="46.1153630" lon="10.5146230">
	<ele>2736.80</ele>
	<time>2023-08-07T07:10:56.000Z</time>
</trkpt>
<trkpt lat="46.1153690" lon="10.5146100">
	<ele>2737.00</ele>
	<time>2023-08-07T07:10:57.000Z</time>
</trkpt>
<trkpt lat="46.1153720" lon="10.5146050">
	<ele>2737.40</ele>
	<time>2023-08-07T07:10:58.000Z</time>
</trkpt>
<trkpt lat="46.1153790" lon="10.5145970">
	<ele>2737.40</ele>
	<time>2023-08-07T07:10:59.000Z</time>
</trkpt>
<trkpt lat="46.1153860" lon="10.5145930">
	<ele>2737.60</ele>
	<time>2023-08-07T07:11:00.000Z</time>
</trkpt>
<trkpt lat="46.1153890" lon="10.5145900">
	<ele>2737.60</ele>
	<time>2023-08-07T07:11:01.000Z</time>
</trkpt>
<trkpt lat="46.1153890" lon="10.5145940">
	<ele>2737.60</ele>
	<time>2023-08-07T07:11:02.000Z</time>
</trkpt>
<trkpt lat="46.1153920" lon="10.5145960">
	<ele>2737.80</ele>
	<time>2023-08-07T07:11:03.000Z</time>
</trkpt>
<trkpt lat="46.1153950" lon="10.5145920">
	<ele>2737.80</ele>
	<time>2023-08-07T07:11:04.000Z</time>
</trkpt>
<trkpt lat="46.1153980" lon="10.5145890">
	<ele>2738.00</ele>
	<time>2023-08-07T07:11:05.000Z</time>
</trkpt>
<trkpt lat="46.1154040" lon="10.5145900">
	<ele>2738.20</ele>
	<time>2023-08-07T07:11:06.000Z</time>
</trkpt>
<trkpt lat="46.1154100" lon="10.5145970">
	<ele>2738.20</ele>
	<time>2023-08-07T07:11:07.000Z</time>
</trkpt>
<trkpt lat="46.1154160" lon="10.5145990">
	<ele>2738.40</ele>
	<time>2023-08-07T07:11:08.000Z</time>
</trkpt>
<trkpt lat="46.1154200" lon="10.5146000">
	<ele>2738.40</ele>
	<time>2023-08-07T07:11:09.000Z</time>
</trkpt>
<trkpt lat="46.1154220" lon="10.5146090">
	<ele>2738.40</ele>
	<time>2023-08-07T07:11:10.000Z</time>
</trkpt>
<trkpt lat="46.1154240" lon="10.5146110">
	<ele>2738.40</ele>
	<time>2023-08-07T07:11:11.000Z</time>
</trkpt>
<trkpt lat="46.1154270" lon="10.5146180">
	<ele>2738.40</ele>
	<time>2023-08-07T07:11:12.000Z</time>
</trkpt>
<trkpt lat="46.1154290" lon="10.5146180">
	<ele>2738.40</ele>
	<time>2023-08-07T07:11:13.000Z</time>
</trkpt>
<trkpt lat="46.1154300" lon="10.5146190">
	<ele>2738.60</ele>
	<time>2023-08-07T07:11:14.000Z</time>
</trkpt>
<trkpt lat="46.1154310" lon="10.5146170">
	<ele>2738.60</ele>
	<time>2023-08-07T07:11:15.000Z</time>
</trkpt>
<trkpt lat="46.1154320" lon="10.5146160">
	<ele>2738.60</ele>
	<time>2023-08-07T07:11:16.000Z</time>
</trkpt>
<trkpt lat="46.1154330" lon="10.5146130">
	<ele>2738.60</ele>
	<time>2023-08-07T07:11:17.000Z</time>
</trkpt>
<trkpt lat="46.1154340" lon="10.5146130">
	<ele>2738.80</ele>
	<time>2023-08-07T07:11:18.000Z</time>
</trkpt>
<trkpt lat="46.1154330" lon="10.5146140">
	<ele>2739.00</ele>
	<time>2023-08-07T07:11:19.000Z</time>
</trkpt>
<trkpt lat="46.1154330" lon="10.5146140">
	<ele>2739.40</ele>
	<time>2023-08-07T07:11:20.000Z</time>
</trkpt>
<trkpt lat="46.1154330" lon="10.5146140">
	<ele>2739.60</ele>
	<time>2023-08-07T07:11:21.000Z</time>
</trkpt>
<trkpt lat="46.1154330" lon="10.5146140">
	<ele>2740.00</ele>
	<time>2023-08-07T07:11:22.000Z</time>
</trkpt>
<trkpt lat="46.1154330" lon="10.5146140">
	<ele>2740.00</ele>
	<time>2023-08-07T07:11:23.000Z</time>
</trkpt>
<trkpt lat="46.1154330" lon="10.5146140">
	<ele>2740.00</ele>
	<time>2023-08-07T07:11:24.000Z</time>
</trkpt>
<trkpt lat="46.1154330" lon="10.5146140">
	<ele>2740.20</ele>
	<time>2023-08-07T07:11:25.000Z</time>
</trkpt>
<trkpt lat="46.1154330" lon="10.5146140">
	<ele>2740.20</ele>
	<time>2023-08-07T07:11:26.000Z</time>
</trkpt>
<trkpt lat="46.1154330" lon="10.5146140">
	<ele>2740.20</ele>
	<time>2023-08-07T07:11:27.000Z</time>
</trkpt>
<trkpt lat="46.1154330" lon="10.5146140">
	<ele>2740.20</ele>
	<time>2023-08-07T07:11:28.000Z</time>
</trkpt>
<trkpt lat="46.1154330" lon="10.5146140">
	<ele>2740.20</ele>
	<time>2023-08-07T07:11:29.000Z</time>
</trkpt>
<trkpt lat="46.1154330" lon="10.5146140">
	<ele>2740.20</ele>
	<time>2023-08-07T07:11:30.000Z</time>
</trkpt>
<trkpt lat="46.1154330" lon="10.5146140">
	<ele>2740.40</ele>
	<time>2023-08-07T07:11:31.000Z</time>
</trkpt>
<trkpt lat="46.1154330" lon="10.5146130">
	<ele>2740.60</ele>
	<time>2023-08-07T07:11:32.000Z</time>
</trkpt>
<trkpt lat="46.1154350" lon="10.5146110">
	<ele>2740.60</ele>
	<time>2023-08-07T07:11:33.000Z</time>
</trkpt>
<trkpt lat="46.1154410" lon="10.5146100">
	<ele>2740.60</ele>
	<time>2023-08-07T07:11:34.000Z</time>
</trkpt>
<trkpt lat="46.1154520" lon="10.5146020">
	<ele>2740.80</ele>
	<time>2023-08-07T07:11:35.000Z</time>
</trkpt>
<trkpt lat="46.1154600" lon="10.5145990">
	<ele>2740.80</ele>
	<time>2023-08-07T07:11:36.000Z</time>
</trkpt>
<trkpt lat="46.1154650" lon="10.5145950">
	<ele>2741.20</ele>
	<time>2023-08-07T07:11:37.000Z</time>
</trkpt>
<trkpt lat="46.1154670" lon="10.5145950">
	<ele>2741.40</ele>
	<time>2023-08-07T07:11:38.000Z</time>
</trkpt>
<trkpt lat="46.1154720" lon="10.5145920">
	<ele>2741.60</ele>
	<time>2023-08-07T07:11:39.000Z</time>
</trkpt>
<trkpt lat="46.1154760" lon="10.5145860">
	<ele>2741.80</ele>
	<time>2023-08-07T07:11:40.000Z</time>
</trkpt>
<trkpt lat="46.1154810" lon="10.5145800">
	<ele>2742.00</ele>
	<time>2023-08-07T07:11:41.000Z</time>
</trkpt>
<trkpt lat="46.1154830" lon="10.5145710">
	<ele>2742.00</ele>
	<time>2023-08-07T07:11:42.000Z</time>
</trkpt>
<trkpt lat="46.1154840" lon="10.5145670">
	<ele>2742.40</ele>
	<time>2023-08-07T07:11:43.000Z</time>
</trkpt>
<trkpt lat="46.1154850" lon="10.5145630">
	<ele>2742.60</ele>
	<time>2023-08-07T07:11:44.000Z</time>
</trkpt>
<trkpt lat="46.1154890" lon="10.5145590">
	<ele>2742.80</ele>
	<time>2023-08-07T07:11:45.000Z</time>
</trkpt>
<trkpt lat="46.1154930" lon="10.5145550">
	<ele>2743.00</ele>
	<time>2023-08-07T07:11:46.000Z</time>
</trkpt>
<trkpt lat="46.1154970" lon="10.5145540">
	<ele>2743.00</ele>
	<time>2023-08-07T07:11:47.000Z</time>
</trkpt>
<trkpt lat="46.1154950" lon="10.5145570">
	<ele>2743.20</ele>
	<time>2023-08-07T07:11:48.000Z</time>
</trkpt>
<trkpt lat="46.1154960" lon="10.5145600">
	<ele>2743.20</ele>
	<time>2023-08-07T07:11:49.000Z</time>
</trkpt>
<trkpt lat="46.1154970" lon="10.5145640">
	<ele>2743.40</ele>
	<time>2023-08-07T07:11:50.000Z</time>
</trkpt>
<trkpt lat="46.1154980" lon="10.5145660">
	<ele>2743.40</ele>
	<time>2023-08-07T07:11:51.000Z</time>
</trkpt>
<trkpt lat="46.1155000" lon="10.5145670">
	<ele>2743.40</ele>
	<time>2023-08-07T07:11:52.000Z</time>
</trkpt>
<trkpt lat="46.1154970" lon="10.5145640">
	<ele>2743.60</ele>
	<time>2023-08-07T07:11:53.000Z</time>
</trkpt>
<trkpt lat="46.1154980" lon="10.5145680">
	<ele>2743.60</ele>
	<time>2023-08-07T07:11:54.000Z</time>
</trkpt>
<trkpt lat="46.1155030" lon="10.5145640">
	<ele>2743.60</ele>
	<time>2023-08-07T07:11:55.000Z</time>
</trkpt>
<trkpt lat="46.1155080" lon="10.5145660">
	<ele>2743.80</ele>
	<time>2023-08-07T07:11:56.000Z</time>
</trkpt>
<trkpt lat="46.1155110" lon="10.5145690">
	<ele>2744.00</ele>
	<time>2023-08-07T07:11:57.000Z</time>
</trkpt>
<trkpt lat="46.1155130" lon="10.5145710">
	<ele>2744.00</ele>
	<time>2023-08-07T07:11:58.000Z</time>
</trkpt>
<trkpt lat="46.1155120" lon="10.5145720">
	<ele>2744.20</ele>
	<time>2023-08-07T07:11:59.000Z</time>
</trkpt>
<trkpt lat="46.1155120" lon="10.5145760">
	<ele>2744.20</ele>
	<time>2023-08-07T07:12:00.000Z</time>
</trkpt>
<trkpt lat="46.1155110" lon="10.5145800">
	<ele>2744.40</ele>
	<time>2023-08-07T07:12:01.000Z</time>
</trkpt>
<trkpt lat="46.1155110" lon="10.5145800">
	<ele>2744.60</ele>
	<time>2023-08-07T07:12:02.000Z</time>
</trkpt>
<trkpt lat="46.1155110" lon="10.5145850">
	<ele>2744.60</ele>
	<time>2023-08-07T07:12:03.000Z</time>
</trkpt>
<trkpt lat="46.1155130" lon="10.5145870">
	<ele>2744.80</ele>
	<time>2023-08-07T07:12:04.000Z</time>
</trkpt>
<trkpt lat="46.1155170" lon="10.5145880">
	<ele>2745.00</ele>
	<time>2023-08-07T07:12:05.000Z</time>
</trkpt>
<trkpt lat="46.1155210" lon="10.5145870">
	<ele>2745.00</ele>
	<time>2023-08-07T07:12:06.000Z</time>
</trkpt>
<trkpt lat="46.1155240" lon="10.5145880">
	<ele>2745.20</ele>
	<time>2023-08-07T07:12:07.000Z</time>
</trkpt>
<trkpt lat="46.1155250" lon="10.5145890">
	<ele>2745.20</ele>
	<time>2023-08-07T07:12:08.000Z</time>
</trkpt>
<trkpt lat="46.1155260" lon="10.5145850">
	<ele>2745.20</ele>
	<time>2023-08-07T07:12:09.000Z</time>
</trkpt>
<trkpt lat="46.1155300" lon="10.5145840">
	<ele>2745.20</ele>
	<time>2023-08-07T07:12:10.000Z</time>
</trkpt>
<trkpt lat="46.1155340" lon="10.5145810">
	<ele>2745.40</ele>
	<time>2023-08-07T07:12:11.000Z</time>
</trkpt>
<trkpt lat="46.1155350" lon="10.5145790">
	<ele>2745.40</ele>
	<time>2023-08-07T07:12:12.000Z</time>
</trkpt>
<trkpt lat="46.1155360" lon="10.5145750">
	<ele>2745.40</ele>
	<time>2023-08-07T07:12:13.000Z</time>
</trkpt>
<trkpt lat="46.1155370" lon="10.5145770">
	<ele>2745.40</ele>
	<time>2023-08-07T07:12:14.000Z</time>
</trkpt>
<trkpt lat="46.1155390" lon="10.5145780">
	<ele>2745.60</ele>
	<time>2023-08-07T07:12:15.000Z</time>
</trkpt>
<trkpt lat="46.1155410" lon="10.5145850">
	<ele>2745.60</ele>
	<time>2023-08-07T07:12:16.000Z</time>
</trkpt>
<trkpt lat="46.1155440" lon="10.5145880">
	<ele>2745.80</ele>
	<time>2023-08-07T07:12:17.000Z</time>
</trkpt>
<trkpt lat="46.1155430" lon="10.5145980">
	<ele>2746.00</ele>
	<time>2023-08-07T07:12:18.000Z</time>
</trkpt>
<trkpt lat="46.1155450" lon="10.5146010">
	<ele>2746.00</ele>
	<time>2023-08-07T07:12:19.000Z</time>
</trkpt>
<trkpt lat="46.1155450" lon="10.5146010">
	<ele>2746.20</ele>
	<time>2023-08-07T07:12:20.000Z</time>
</trkpt>
<trkpt lat="46.1155420" lon="10.5146000">
	<ele>2746.20</ele>
	<time>2023-08-07T07:12:21.000Z</time>
</trkpt>
<trkpt lat="46.1155410" lon="10.5146020">
	<ele>2746.40</ele>
	<time>2023-08-07T07:12:22.000Z</time>
</trkpt>
<trkpt lat="46.1155430" lon="10.5145990">
	<ele>2746.40</ele>
	<time>2023-08-07T07:12:23.000Z</time>
</trkpt>
<trkpt lat="46.1155430" lon="10.5145980">
	<ele>2746.60</ele>
	<time>2023-08-07T07:12:24.000Z</time>
</trkpt>
<trkpt lat="46.1155450" lon="10.5145980">
	<ele>2746.80</ele>
	<time>2023-08-07T07:12:25.000Z</time>
</trkpt>
<trkpt lat="46.1155440" lon="10.5145950">
	<ele>2747.00</ele>
	<time>2023-08-07T07:12:26.000Z</time>
</trkpt>
<trkpt lat="46.1155440" lon="10.5145950">
	<ele>2747.00</ele>
	<time>2023-08-07T07:12:27.000Z</time>
</trkpt>
<trkpt lat="46.1155440" lon="10.5145950">
	<ele>2747.20</ele>
	<time>2023-08-07T07:12:28.000Z</time>
</trkpt>
<trkpt lat="46.1155440" lon="10.5145950">
	<ele>2747.20</ele>
	<time>2023-08-07T07:12:29.000Z</time>
</trkpt>
<trkpt lat="46.1155440" lon="10.5145950">
	<ele>2747.20</ele>
	<time>2023-08-07T07:12:30.000Z</time>
</trkpt>
<trkpt lat="46.1155440" lon="10.5145950">
	<ele>2747.40</ele>
	<time>2023-08-07T07:12:31.000Z</time>
</trkpt>
<trkpt lat="46.1155440" lon="10.5145950">
	<ele>2747.40</ele>
	<time>2023-08-07T07:12:32.000Z</time>
</trkpt>
<trkpt lat="46.1155440" lon="10.5145950">
	<ele>2747.40</ele>
	<time>2023-08-07T07:12:33.000Z</time>
</trkpt>
<trkpt lat="46.1155440" lon="10.5145950">
	<ele>2747.60</ele>
	<time>2023-08-07T07:12:34.000Z</time>
</trkpt>
<trkpt lat="46.1155440" lon="10.5145950">
	<ele>2747.80</ele>
	<time>2023-08-07T07:12:35.000Z</time>
</trkpt>
<trkpt lat="46.1155440" lon="10.5145950">
	<ele>2748.00</ele>
	<time>2023-08-07T07:12:36.000Z</time>
</trkpt>
<trkpt lat="46.1155440" lon="10.5145950">
	<ele>2748.20</ele>
	<time>2023-08-07T07:12:37.000Z</time>
</trkpt>
<trkpt lat="46.1155440" lon="10.5145950">
	<ele>2748.20</ele>
	<time>2023-08-07T07:12:38.000Z</time>
</trkpt>
<trkpt lat="46.1155440" lon="10.5145950">
	<ele>2748.20</ele>
	<time>2023-08-07T07:12:39.000Z</time>
</trkpt>
<trkpt lat="46.1155430" lon="10.5145950">
	<ele>2748.40</ele>
	<time>2023-08-07T07:12:40.000Z</time>
</trkpt>
<trkpt lat="46.1155430" lon="10.5145950">
	<ele>2748.60</ele>
	<time>2023-08-07T07:12:41.000Z</time>
</trkpt>
<trkpt lat="46.1155430" lon="10.5145950">
	<ele>2748.60</ele>
	<time>2023-08-07T07:12:42.000Z</time>
</trkpt>
<trkpt lat="46.1155430" lon="10.5145940">
	<ele>2748.80</ele>
	<time>2023-08-07T07:12:43.000Z</time>
</trkpt>
<trkpt lat="46.1155430" lon="10.5145940">
	<ele>2748.80</ele>
	<time>2023-08-07T07:12:44.000Z</time>
</trkpt>
<trkpt lat="46.1155430" lon="10.5145940">
	<ele>2749.00</ele>
	<time>2023-08-07T07:12:45.000Z</time>
</trkpt>
<trkpt lat="46.1155430" lon="10.5145920">
	<ele>2749.00</ele>
	<time>2023-08-07T07:12:46.000Z</time>
</trkpt>
<trkpt lat="46.1155430" lon="10.5145910">
	<ele>2749.20</ele>
	<time>2023-08-07T07:12:47.000Z</time>
</trkpt>
<trkpt lat="46.1155430" lon="10.5145910">
	<ele>2749.40</ele>
	<time>2023-08-07T07:12:48.000Z</time>
</trkpt>
<trkpt lat="46.1155430" lon="10.5145900">
	<ele>2749.60</ele>
	<time>2023-08-07T07:12:49.000Z</time>
</trkpt>
<trkpt lat="46.1155430" lon="10.5145880">
	<ele>2749.80</ele>
	<time>2023-08-07T07:12:50.000Z</time>
</trkpt>
<trkpt lat="46.1155440" lon="10.5145820">
	<ele>2750.00</ele>
	<time>2023-08-07T07:12:51.000Z</time>
</trkpt>
<trkpt lat="46.1155440" lon="10.5145770">
	<ele>2750.00</ele>
	<time>2023-08-07T07:12:52.000Z</time>
</trkpt>
<trkpt lat="46.1155440" lon="10.5145720">
	<ele>2750.20</ele>
	<time>2023-08-07T07:12:53.000Z</time>
</trkpt>
<trkpt lat="46.1155450" lon="10.5145660">
	<ele>2750.40</ele>
	<time>2023-08-07T07:12:54.000Z</time>
</trkpt>
<trkpt lat="46.1155450" lon="10.5145640">
	<ele>2750.60</ele>
	<time>2023-08-07T07:12:55.000Z</time>
</trkpt>
<trkpt lat="46.1155480" lon="10.5145640">
	<ele>2750.80</ele>
	<time>2023-08-07T07:12:56.000Z</time>
</trkpt>
<trkpt lat="46.1155500" lon="10.5145630">
	<ele>2751.00</ele>
	<time>2023-08-07T07:12:57.000Z</time>
</trkpt>
<trkpt lat="46.1155520" lon="10.5145630">
	<ele>2751.20</ele>
	<time>2023-08-07T07:12:58.000Z</time>
</trkpt>
<trkpt lat="46.1155550" lon="10.5145630">
	<ele>2751.20</ele>
	<time>2023-08-07T07:12:59.000Z</time>
</trkpt>
<trkpt lat="46.1155590" lon="10.5145620">
	<ele>2751.20</ele>
	<time>2023-08-07T07:13:00.000Z</time>
</trkpt>
<trkpt lat="46.1155610" lon="10.5145610">
	<ele>2751.40</ele>
	<time>2023-08-07T07:13:01.000Z</time>
</trkpt>
<trkpt lat="46.1155630" lon="10.5145570">
	<ele>2751.40</ele>
	<time>2023-08-07T07:13:02.000Z</time>
</trkpt>
<trkpt lat="46.1155660" lon="10.5145510">
	<ele>2751.40</ele>
	<time>2023-08-07T07:13:03.000Z</time>
</trkpt>
<trkpt lat="46.1155680" lon="10.5145450">
	<ele>2751.60</ele>
	<time>2023-08-07T07:13:04.000Z</time>
</trkpt>
<trkpt lat="46.1155700" lon="10.5145390">
	<ele>2751.80</ele>
	<time>2023-08-07T07:13:05.000Z</time>
</trkpt>
<trkpt lat="46.1155740" lon="10.5145270">
	<ele>2751.80</ele>
	<time>2023-08-07T07:13:06.000Z</time>
</trkpt>
<trkpt lat="46.1155810" lon="10.5145200">
	<ele>2752.00</ele>
	<time>2023-08-07T07:13:07.000Z</time>
</trkpt>
<trkpt lat="46.1155850" lon="10.5145160">
	<ele>2752.20</ele>
	<time>2023-08-07T07:13:08.000Z</time>
</trkpt>
<trkpt lat="46.1155890" lon="10.5145110">
	<ele>2752.40</ele>
	<time>2023-08-07T07:13:09.000Z</time>
</trkpt>
<trkpt lat="46.1155930" lon="10.5145060">
	<ele>2752.60</ele>
	<time>2023-08-07T07:13:10.000Z</time>
</trkpt>
<trkpt lat="46.1155990" lon="10.5145020">
	<ele>2752.60</ele>
	<time>2023-08-07T07:13:11.000Z</time>
</trkpt>
<trkpt lat="46.1156040" lon="10.5145020">
	<ele>2752.80</ele>
	<time>2023-08-07T07:13:12.000Z</time>
</trkpt>
<trkpt lat="46.1156070" lon="10.5145010">
	<ele>2753.00</ele>
	<time>2023-08-07T07:13:13.000Z</time>
</trkpt>
<trkpt lat="46.1156020" lon="10.5144980">
	<ele>2753.00</ele>
	<time>2023-08-07T07:13:14.000Z</time>
</trkpt>
<trkpt lat="46.1156010" lon="10.5144980">
	<ele>2753.20</ele>
	<time>2023-08-07T07:13:15.000Z</time>
</trkpt>
<trkpt lat="46.1155960" lon="10.5144980">
	<ele>2753.20</ele>
	<time>2023-08-07T07:13:16.000Z</time>
</trkpt>
<trkpt lat="46.1155910" lon="10.5144890">
	<ele>2753.40</ele>
	<time>2023-08-07T07:13:17.000Z</time>
</trkpt>
<trkpt lat="46.1155920" lon="10.5144840">
	<ele>2753.80</ele>
	<time>2023-08-07T07:13:18.000Z</time>
</trkpt>
<trkpt lat="46.1155910" lon="10.5144820">
	<ele>2754.00</ele>
	<time>2023-08-07T07:13:19.000Z</time>
</trkpt>
<trkpt lat="46.1155920" lon="10.5144810">
	<ele>2754.00</ele>
	<time>2023-08-07T07:13:20.000Z</time>
</trkpt>
<trkpt lat="46.1155940" lon="10.5144810">
	<ele>2754.20</ele>
	<time>2023-08-07T07:13:21.000Z</time>
</trkpt>
<trkpt lat="46.1155950" lon="10.5144790">
	<ele>2754.20</ele>
	<time>2023-08-07T07:13:22.000Z</time>
</trkpt>
<trkpt lat="46.1156000" lon="10.5144740">
	<ele>2754.40</ele>
	<time>2023-08-07T07:13:23.000Z</time>
</trkpt>
<trkpt lat="46.1156010" lon="10.5144700">
	<ele>2754.40</ele>
	<time>2023-08-07T07:13:24.000Z</time>
</trkpt>
<trkpt lat="46.1156020" lon="10.5144670">
	<ele>2754.60</ele>
	<time>2023-08-07T07:13:25.000Z</time>
</trkpt>
<trkpt lat="46.1156020" lon="10.5144620">
	<ele>2754.80</ele>
	<time>2023-08-07T07:13:26.000Z</time>
</trkpt>
<trkpt lat="46.1156040" lon="10.5144560">
	<ele>2755.00</ele>
	<time>2023-08-07T07:13:27.000Z</time>
</trkpt>
<trkpt lat="46.1156050" lon="10.5144530">
	<ele>2755.00</ele>
	<time>2023-08-07T07:13:28.000Z</time>
</trkpt>
<trkpt lat="46.1156050" lon="10.5144520">
	<ele>2755.20</ele>
	<time>2023-08-07T07:13:29.000Z</time>
</trkpt>
<trkpt lat="46.1156040" lon="10.5144530">
	<ele>2755.20</ele>
	<time>2023-08-07T07:13:30.000Z</time>
</trkpt>
<trkpt lat="46.1156040" lon="10.5144540">
	<ele>2755.20</ele>
	<time>2023-08-07T07:13:31.000Z</time>
</trkpt>
<trkpt lat="46.1156040" lon="10.5144540">
	<ele>2755.20</ele>
	<time>2023-08-07T07:13:32.000Z</time>
</trkpt>
<trkpt lat="46.1156040" lon="10.5144540">
	<ele>2755.40</ele>
	<time>2023-08-07T07:13:33.000Z</time>
</trkpt>
<trkpt lat="46.1156040" lon="10.5144540">
	<ele>2755.60</ele>
	<time>2023-08-07T07:13:34.000Z</time>
</trkpt>
<trkpt lat="46.1156040" lon="10.5144540">
	<ele>2755.60</ele>
	<time>2023-08-07T07:13:35.000Z</time>
</trkpt>
<trkpt lat="46.1156040" lon="10.5144540">
	<ele>2755.80</ele>
	<time>2023-08-07T07:13:36.000Z</time>
</trkpt>
<trkpt lat="46.1156040" lon="10.5144540">
	<ele>2756.00</ele>
	<time>2023-08-07T07:13:37.000Z</time>
</trkpt>
<trkpt lat="46.1156040" lon="10.5144540">
	<ele>2756.00</ele>
	<time>2023-08-07T07:13:38.000Z</time>
</trkpt>
<trkpt lat="46.1156040" lon="10.5144540">
	<ele>2756.20</ele>
	<time>2023-08-07T07:13:39.000Z</time>
</trkpt>
<trkpt lat="46.1156040" lon="10.5144540">
	<ele>2756.20</ele>
	<time>2023-08-07T07:13:40.000Z</time>
</trkpt>
<trkpt lat="46.1156040" lon="10.5144540">
	<ele>2756.20</ele>
	<time>2023-08-07T07:13:41.000Z</time>
</trkpt>
<trkpt lat="46.1156040" lon="10.5144540">
	<ele>2756.40</ele>
	<time>2023-08-07T07:13:42.000Z</time>
</trkpt>
<trkpt lat="46.1156040" lon="10.5144540">
	<ele>2756.60</ele>
	<time>2023-08-07T07:13:43.000Z</time>
</trkpt>
<trkpt lat="46.1156040" lon="10.5144540">
	<ele>2756.60</ele>
	<time>2023-08-07T07:13:44.000Z</time>
</trkpt>
<trkpt lat="46.1156050" lon="10.5144540">
	<ele>2756.80</ele>
	<time>2023-08-07T07:13:45.000Z</time>
</trkpt>
<trkpt lat="46.1156050" lon="10.5144540">
	<ele>2756.80</ele>
	<time>2023-08-07T07:13:46.000Z</time>
</trkpt>
<trkpt lat="46.1156070" lon="10.5144540">
	<ele>2756.80</ele>
	<time>2023-08-07T07:13:47.000Z</time>
</trkpt>
<trkpt lat="46.1156070" lon="10.5144530">
	<ele>2757.00</ele>
	<time>2023-08-07T07:13:48.000Z</time>
</trkpt>
<trkpt lat="46.1156070" lon="10.5144530">
	<ele>2757.00</ele>
	<time>2023-08-07T07:13:49.000Z</time>
</trkpt>
<trkpt lat="46.1156080" lon="10.5144530">
	<ele>2757.20</ele>
	<time>2023-08-07T07:13:50.000Z</time>
</trkpt>
<trkpt lat="46.1156080" lon="10.5144530">
	<ele>2757.40</ele>
	<time>2023-08-07T07:13:51.000Z</time>
</trkpt>
<trkpt lat="46.1156090" lon="10.5144530">
	<ele>2757.60</ele>
	<time>2023-08-07T07:13:52.000Z</time>
</trkpt>
<trkpt lat="46.1156090" lon="10.5144510">
	<ele>2757.60</ele>
	<time>2023-08-07T07:13:53.000Z</time>
</trkpt>
<trkpt lat="46.1156100" lon="10.5144510">
	<ele>2757.80</ele>
	<time>2023-08-07T07:13:54.000Z</time>
</trkpt>
<trkpt lat="46.1156100" lon="10.5144500">
	<ele>2757.80</ele>
	<time>2023-08-07T07:13:55.000Z</time>
</trkpt>
<trkpt lat="46.1156110" lon="10.5144470">
	<ele>2757.80</ele>
	<time>2023-08-07T07:13:56.000Z</time>
</trkpt>
<trkpt lat="46.1156110" lon="10.5144450">
	<ele>2757.80</ele>
	<time>2023-08-07T07:13:57.000Z</time>
</trkpt>
<trkpt lat="46.1156110" lon="10.5144450">
	<ele>2758.00</ele>
	<time>2023-08-07T07:13:58.000Z</time>
</trkpt>
<trkpt lat="46.1156110" lon="10.5144450">
	<ele>2758.20</ele>
	<time>2023-08-07T07:13:59.000Z</time>
</trkpt>
<trkpt lat="46.1156110" lon="10.5144440">
	<ele>2758.40</ele>
	<time>2023-08-07T07:14:00.000Z</time>
</trkpt>
<trkpt lat="46.1156110" lon="10.5144430">
	<ele>2758.40</ele>
	<time>2023-08-07T07:14:01.000Z</time>
</trkpt>
<trkpt lat="46.1156110" lon="10.5144430">
	<ele>2758.80</ele>
	<time>2023-08-07T07:14:02.000Z</time>
</trkpt>
<trkpt lat="46.1156110" lon="10.5144420">
	<ele>2758.80</ele>
	<time>2023-08-07T07:14:03.000Z</time>
</trkpt>
<trkpt lat="46.1156110" lon="10.5144420">
	<ele>2759.00</ele>
	<time>2023-08-07T07:14:04.000Z</time>
</trkpt>
<trkpt lat="46.1156110" lon="10.5144420">
	<ele>2759.00</ele>
	<time>2023-08-07T07:14:05.000Z</time>
</trkpt>
<trkpt lat="46.1156110" lon="10.5144410">
	<ele>2759.20</ele>
	<time>2023-08-07T07:14:06.000Z</time>
</trkpt>
<trkpt lat="46.1156120" lon="10.5144380">
	<ele>2759.40</ele>
	<time>2023-08-07T07:14:07.000Z</time>
</trkpt>
<trkpt lat="46.1156120" lon="10.5144340">
	<ele>2759.40</ele>
	<time>2023-08-07T07:14:08.000Z</time>
</trkpt>
<trkpt lat="46.1156130" lon="10.5144310">
	<ele>2759.60</ele>
	<time>2023-08-07T07:14:09.000Z</time>
</trkpt>
<trkpt lat="46.1156130" lon="10.5144270">
	<ele>2759.80</ele>
	<time>2023-08-07T07:14:10.000Z</time>
</trkpt>
<trkpt lat="46.1156130" lon="10.5144240">
	<ele>2759.80</ele>
	<time>2023-08-07T07:14:11.000Z</time>
</trkpt>
<trkpt lat="46.1156140" lon="10.5144230">
	<ele>2759.80</ele>
	<time>2023-08-07T07:14:12.000Z</time>
</trkpt>
<trkpt lat="46.1156140" lon="10.5144200">
	<ele>2760.00</ele>
	<time>2023-08-07T07:14:13.000Z</time>
</trkpt>
<trkpt lat="46.1156150" lon="10.5144170">
	<ele>2760.20</ele>
	<time>2023-08-07T07:14:14.000Z</time>
</trkpt>
<trkpt lat="46.1156150" lon="10.5144130">
	<ele>2760.40</ele>
	<time>2023-08-07T07:14:15.000Z</time>
</trkpt>
<trkpt lat="46.1156160" lon="10.5144100">
	<ele>2760.40</ele>
	<time>2023-08-07T07:14:16.000Z</time>
</trkpt>
<trkpt lat="46.1156160" lon="10.5144090">
	<ele>2760.60</ele>
	<time>2023-08-07T07:14:17.000Z</time>
</trkpt>
<trkpt lat="46.1156170" lon="10.5144050">
	<ele>2760.80</ele>
	<time>2023-08-07T07:14:18.000Z</time>
</trkpt>
<trkpt lat="46.1156170" lon="10.5144020">
	<ele>2760.80</ele>
	<time>2023-08-07T07:14:19.000Z</time>
</trkpt>
<trkpt lat="46.1156170" lon="10.5143970">
	<ele>2761.00</ele>
	<time>2023-08-07T07:14:20.000Z</time>
</trkpt>
<trkpt lat="46.1156180" lon="10.5143940">
	<ele>2761.20</ele>
	<time>2023-08-07T07:14:21.000Z</time>
</trkpt>
<trkpt lat="46.1156180" lon="10.5143920">
	<ele>2761.40</ele>
	<time>2023-08-07T07:14:22.000Z</time>
</trkpt>
<trkpt lat="46.1156240" lon="10.5143920">
	<ele>2761.40</ele>
	<time>2023-08-07T07:14:23.000Z</time>
</trkpt>
<trkpt lat="46.1156330" lon="10.5143930">
	<ele>2761.80</ele>
	<time>2023-08-07T07:14:24.000Z</time>
</trkpt>
<trkpt lat="46.1156420" lon="10.5143930">
	<ele>2761.80</ele>
	<time>2023-08-07T07:14:25.000Z</time>
</trkpt>
<trkpt lat="46.1156500" lon="10.5143920">
	<ele>2762.00</ele>
	<time>2023-08-07T07:14:26.000Z</time>
</trkpt>
<trkpt lat="46.1156570" lon="10.5143910">
	<ele>2762.20</ele>
	<time>2023-08-07T07:14:27.000Z</time>
</trkpt>
<trkpt lat="46.1156590" lon="10.5143860">
	<ele>2762.40</ele>
	<time>2023-08-07T07:14:28.000Z</time>
</trkpt>
<trkpt lat="46.1156600" lon="10.5143820">
	<ele>2762.60</ele>
	<time>2023-08-07T07:14:29.000Z</time>
</trkpt>
<trkpt lat="46.1156650" lon="10.5143770">
	<ele>2762.80</ele>
	<time>2023-08-07T07:14:30.000Z</time>
</trkpt>
<trkpt lat="46.1156710" lon="10.5143750">
	<ele>2762.80</ele>
	<time>2023-08-07T07:14:31.000Z</time>
</trkpt>
<trkpt lat="46.1156800" lon="10.5143740">
	<ele>2763.00</ele>
	<time>2023-08-07T07:14:32.000Z</time>
</trkpt>
<trkpt lat="46.1156790" lon="10.5143650">
	<ele>2763.20</ele>
	<time>2023-08-07T07:14:33.000Z</time>
</trkpt>
<trkpt lat="46.1156750" lon="10.5143580">
	<ele>2763.40</ele>
	<time>2023-08-07T07:14:34.000Z</time>
</trkpt>
<trkpt lat="46.1156750" lon="10.5143540">
	<ele>2763.60</ele>
	<time>2023-08-07T07:14:35.000Z</time>
</trkpt>
<trkpt lat="46.1156780" lon="10.5143530">
	<ele>2763.80</ele>
	<time>2023-08-07T07:14:36.000Z</time>
</trkpt>
<trkpt lat="46.1156770" lon="10.5143470">
	<ele>2763.80</ele>
	<time>2023-08-07T07:14:37.000Z</time>
</trkpt>
<trkpt lat="46.1156780" lon="10.5143430">
	<ele>2764.00</ele>
	<time>2023-08-07T07:14:38.000Z</time>
</trkpt>
<trkpt lat="46.1156810" lon="10.5143410">
	<ele>2764.20</ele>
	<time>2023-08-07T07:14:39.000Z</time>
</trkpt>
<trkpt lat="46.1156860" lon="10.5143450">
	<ele>2764.40</ele>
	<time>2023-08-07T07:14:40.000Z</time>
</trkpt>
<trkpt lat="46.1156900" lon="10.5143460">
	<ele>2764.40</ele>
	<time>2023-08-07T07:14:41.000Z</time>
</trkpt>
<trkpt lat="46.1156840" lon="10.5143390">
	<ele>2764.60</ele>
	<time>2023-08-07T07:14:42.000Z</time>
</trkpt>
<trkpt lat="46.1156840" lon="10.5143360">
	<ele>2764.80</ele>
	<time>2023-08-07T07:14:43.000Z</time>
</trkpt>
<trkpt lat="46.1156780" lon="10.5143260">
	<ele>2765.00</ele>
	<time>2023-08-07T07:14:44.000Z</time>
</trkpt>
<trkpt lat="46.1156790" lon="10.5143220">
	<ele>2765.40</ele>
	<time>2023-08-07T07:14:45.000Z</time>
</trkpt>
<trkpt lat="46.1156810" lon="10.5143190">
	<ele>2765.80</ele>
	<time>2023-08-07T07:14:46.000Z</time>
</trkpt>
<trkpt lat="46.1156780" lon="10.5143070">
	<ele>2766.00</ele>
	<time>2023-08-07T07:14:47.000Z</time>
</trkpt>
<trkpt lat="46.1156790" lon="10.5143090">
	<ele>2766.00</ele>
	<time>2023-08-07T07:14:48.000Z</time>
</trkpt>
<trkpt lat="46.1156790" lon="10.5143100">
	<ele>2766.20</ele>
	<time>2023-08-07T07:14:49.000Z</time>
</trkpt>
<trkpt lat="46.1156790" lon="10.5143100">
	<ele>2766.20</ele>
	<time>2023-08-07T07:14:50.000Z</time>
</trkpt>
<trkpt lat="46.1156790" lon="10.5143100">
	<ele>2766.20</ele>
	<time>2023-08-07T07:14:51.000Z</time>
</trkpt>
<trkpt lat="46.1156790" lon="10.5143100">
	<ele>2766.20</ele>
	<time>2023-08-07T07:14:52.000Z</time>
</trkpt>
<trkpt lat="46.1156790" lon="10.5143100">
	<ele>2766.20</ele>
	<time>2023-08-07T07:14:53.000Z</time>
</trkpt>
<trkpt lat="46.1156790" lon="10.5143100">
	<ele>2766.20</ele>
	<time>2023-08-07T07:14:54.000Z</time>
</trkpt>
<trkpt lat="46.1156790" lon="10.5143100">
	<ele>2766.20</ele>
	<time>2023-08-07T07:14:55.000Z</time>
</trkpt>
<trkpt lat="46.1156790" lon="10.5143100">
	<ele>2766.20</ele>
	<time>2023-08-07T07:14:56.000Z</time>
</trkpt>
<trkpt lat="46.1156790" lon="10.5143100">
	<ele>2766.20</ele>
	<time>2023-08-07T07:14:57.000Z</time>
</trkpt>
<trkpt lat="46.1156790" lon="10.5143100">
	<ele>2766.20</ele>
	<time>2023-08-07T07:14:58.000Z</time>
</trkpt>
<trkpt lat="46.1156790" lon="10.5143100">
	<ele>2766.20</ele>
	<time>2023-08-07T07:14:59.000Z</time>
</trkpt>
<trkpt lat="46.1156790" lon="10.5143100">
	<ele>2766.20</ele>
	<time>2023-08-07T07:15:00.000Z</time>
</trkpt>
<trkpt lat="46.1156790" lon="10.5143100">
	<ele>2766.20</ele>
	<time>2023-08-07T07:15:01.000Z</time>
</trkpt>
<trkpt lat="46.1156800" lon="10.5143100">
	<ele>2766.20</ele>
	<time>2023-08-07T07:15:02.000Z</time>
</trkpt>
<trkpt lat="46.1156810" lon="10.5143100">
	<ele>2766.20</ele>
	<time>2023-08-07T07:15:03.000Z</time>
</trkpt>
<trkpt lat="46.1156810" lon="10.5143100">
	<ele>2766.00</ele>
	<time>2023-08-07T07:15:04.000Z</time>
</trkpt>
<trkpt lat="46.1156810" lon="10.5143100">
	<ele>2766.20</ele>
	<time>2023-08-07T07:15:05.000Z</time>
</trkpt>
<trkpt lat="46.1156830" lon="10.5143090">
	<ele>2766.60</ele>
	<time>2023-08-07T07:15:06.000Z</time>
</trkpt>
<trkpt lat="46.1156840" lon="10.5143080">
	<ele>2766.80</ele>
	<time>2023-08-07T07:15:07.000Z</time>
</trkpt>
<trkpt lat="46.1156840" lon="10.5143070">
	<ele>2766.40</ele>
	<time>2023-08-07T07:15:08.000Z</time>
</trkpt>
<trkpt lat="46.1156900" lon="10.5143060">
	<ele>2766.00</ele>
	<time>2023-08-07T07:15:09.000Z</time>
</trkpt>
<trkpt lat="46.1156910" lon="10.5143020">
	<ele>2765.60</ele>
	<time>2023-08-07T07:15:10.000Z</time>
</trkpt>
<trkpt lat="46.1156930" lon="10.5143020">
	<ele>2765.20</ele>
	<time>2023-08-07T07:15:11.000Z</time>
</trkpt>
<trkpt lat="46.1156940" lon="10.5143020">
	<ele>2765.00</ele>
	<time>2023-08-07T07:15:12.000Z</time>
</trkpt>
<trkpt lat="46.1156940" lon="10.5143010">
	<ele>2765.00</ele>
	<time>2023-08-07T07:15:13.000Z</time>
</trkpt>
<trkpt lat="46.1156950" lon="10.5143010">
	<ele>2765.00</ele>
	<time>2023-08-07T07:15:14.000Z</time>
</trkpt>
<trkpt lat="46.1156950" lon="10.5143010">
	<ele>2765.60</ele>
	<time>2023-08-07T07:15:15.000Z</time>
</trkpt>
<trkpt lat="46.1156950" lon="10.5143010">
	<ele>2766.00</ele>
	<time>2023-08-07T07:15:16.000Z</time>
</trkpt>
<trkpt lat="46.1156960" lon="10.5143000">
	<ele>2766.40</ele>
	<time>2023-08-07T07:15:17.000Z</time>
</trkpt>
<trkpt lat="46.1156960" lon="10.5143000">
	<ele>2766.40</ele>
	<time>2023-08-07T07:15:18.000Z</time>
</trkpt>
<trkpt lat="46.1156970" lon="10.5143000">
	<ele>2766.60</ele>
	<time>2023-08-07T07:15:19.000Z</time>
</trkpt>
<trkpt lat="46.1156980" lon="10.5143000">
	<ele>2766.60</ele>
	<time>2023-08-07T07:15:20.000Z</time>
</trkpt>
<trkpt lat="46.1156990" lon="10.5143000">
	<ele>2766.60</ele>
	<time>2023-08-07T07:15:21.000Z</time>
</trkpt>
<trkpt lat="46.1156990" lon="10.5142990">
	<ele>2766.40</ele>
	<time>2023-08-07T07:15:22.000Z</time>
</trkpt>
<trkpt lat="46.1157000" lon="10.5142990">
	<ele>2766.40</ele>
	<time>2023-08-07T07:15:23.000Z</time>
</trkpt>
<trkpt lat="46.1157000" lon="10.5142980">
	<ele>2766.40</ele>
	<time>2023-08-07T07:15:24.000Z</time>
</trkpt>
<trkpt lat="46.1157050" lon="10.5142970">
	<ele>2766.60</ele>
	<time>2023-08-07T07:15:25.000Z</time>
</trkpt>
<trkpt lat="46.1157060" lon="10.5142970">
	<ele>2766.60</ele>
	<time>2023-08-07T07:15:26.000Z</time>
</trkpt>
<trkpt lat="46.1157060" lon="10.5142970">
	<ele>2766.60</ele>
	<time>2023-08-07T07:15:27.000Z</time>
</trkpt>
<trkpt lat="46.1157060" lon="10.5142970">
	<ele>2766.60</ele>
	<time>2023-08-07T07:15:28.000Z</time>
</trkpt>
<trkpt lat="46.1157060" lon="10.5142970">
	<ele>2766.60</ele>
	<time>2023-08-07T07:15:29.000Z</time>
</trkpt>
<trkpt lat="46.1157060" lon="10.5142970">
	<ele>2766.60</ele>
	<time>2023-08-07T07:15:30.000Z</time>
</trkpt>
<trkpt lat="46.1157070" lon="10.5142970">
	<ele>2766.60</ele>
	<time>2023-08-07T07:15:31.000Z</time>
</trkpt>
<trkpt lat="46.1157070" lon="10.5142970">
	<ele>2766.60</ele>
	<time>2023-08-07T07:15:32.000Z</time>
</trkpt>
<trkpt lat="46.1157070" lon="10.5142970">
	<ele>2766.40</ele>
	<time>2023-08-07T07:15:33.000Z</time>
</trkpt>
<trkpt lat="46.1157070" lon="10.5142970">
	<ele>2766.40</ele>
	<time>2023-08-07T07:15:34.000Z</time>
</trkpt>
<trkpt lat="46.1157070" lon="10.5142970">
	<ele>2766.40</ele>
	<time>2023-08-07T07:15:35.000Z</time>
</trkpt>
<trkpt lat="46.1157080" lon="10.5142960">
	<ele>2766.40</ele>
	<time>2023-08-07T07:15:36.000Z</time>
</trkpt>
<trkpt lat="46.1157080" lon="10.5142960">
	<ele>2766.40</ele>
	<time>2023-08-07T07:15:37.000Z</time>
</trkpt>
<trkpt lat="46.1157080" lon="10.5142960">
	<ele>2766.60</ele>
	<time>2023-08-07T07:15:38.000Z</time>
</trkpt>
<trkpt lat="46.1157080" lon="10.5142950">
	<ele>2766.80</ele>
	<time>2023-08-07T07:15:39.000Z</time>
</trkpt>
<trkpt lat="46.1157080" lon="10.5142950">
	<ele>2767.00</ele>
	<time>2023-08-07T07:15:40.000Z</time>
</trkpt>
<trkpt lat="46.1157080" lon="10.5142950">
	<ele>2767.00</ele>
	<time>2023-08-07T07:15:41.000Z</time>
</trkpt>
<trkpt lat="46.1157080" lon="10.5142950">
	<ele>2767.20</ele>
	<time>2023-08-07T07:15:42.000Z</time>
</trkpt>
<trkpt lat="46.1157080" lon="10.5142950">
	<ele>2767.20</ele>
	<time>2023-08-07T07:15:43.000Z</time>
</trkpt>
<trkpt lat="46.1157080" lon="10.5142950">
	<ele>2767.20</ele>
	<time>2023-08-07T07:15:44.000Z</time>
</trkpt>
<trkpt lat="46.1157080" lon="10.5142950">
	<ele>2767.20</ele>
	<time>2023-08-07T07:15:45.000Z</time>
</trkpt>
<trkpt lat="46.1157080" lon="10.5142950">
	<ele>2767.20</ele>
	<time>2023-08-07T07:15:46.000Z</time>
</trkpt>
<trkpt lat="46.1157080" lon="10.5142950">
	<ele>2767.20</ele>
	<time>2023-08-07T07:15:47.000Z</time>
</trkpt>
<trkpt lat="46.1157080" lon="10.5142960">
	<ele>2767.20</ele>
	<time>2023-08-07T07:15:48.000Z</time>
</trkpt>
<trkpt lat="46.1157080" lon="10.5142960">
	<ele>2767.20</ele>
	<time>2023-08-07T07:15:49.000Z</time>
</trkpt>
<trkpt lat="46.1157090" lon="10.5142960">
	<ele>2767.20</ele>
	<time>2023-08-07T07:15:50.000Z</time>
</trkpt>
<trkpt lat="46.1157090" lon="10.5142960">
	<ele>2767.20</ele>
	<time>2023-08-07T07:15:51.000Z</time>
</trkpt>
<trkpt lat="46.1157090" lon="10.5142960">
	<ele>2767.40</ele>
	<time>2023-08-07T07:15:52.000Z</time>
</trkpt>
<trkpt lat="46.1157090" lon="10.5142960">
	<ele>2767.40</ele>
	<time>2023-08-07T07:15:53.000Z</time>
</trkpt>
<trkpt lat="46.1157090" lon="10.5142960">
	<ele>2767.60</ele>
	<time>2023-08-07T07:15:54.000Z</time>
</trkpt>
<trkpt lat="46.1157090" lon="10.5142960">
	<ele>2767.60</ele>
	<time>2023-08-07T07:15:55.000Z</time>
</trkpt>
<trkpt lat="46.1157090" lon="10.5142960">
	<ele>2767.60</ele>
	<time>2023-08-07T07:15:56.000Z</time>
</trkpt>
<trkpt lat="46.1157090" lon="10.5142960">
	<ele>2767.60</ele>
	<time>2023-08-07T07:15:57.000Z</time>
</trkpt>
<trkpt lat="46.1157090" lon="10.5142950">
	<ele>2767.40</ele>
	<time>2023-08-07T07:15:58.000Z</time>
</trkpt>
<trkpt lat="46.1157090" lon="10.5142940">
	<ele>2767.20</ele>
	<time>2023-08-07T07:15:59.000Z</time>
</trkpt>
<trkpt lat="46.1157090" lon="10.5142920">
	<ele>2767.00</ele>
	<time>2023-08-07T07:16:00.000Z</time>
</trkpt>
<trkpt lat="46.1157090" lon="10.5142920">
	<ele>2767.00</ele>
	<time>2023-08-07T07:16:01.000Z</time>
</trkpt>
<trkpt lat="46.1157090" lon="10.5142900">
	<ele>2766.80</ele>
	<time>2023-08-07T07:16:02.000Z</time>
</trkpt>
<trkpt lat="46.1157090" lon="10.5142900">
	<ele>2766.80</ele>
	<time>2023-08-07T07:16:03.000Z</time>
</trkpt>
<trkpt lat="46.1157080" lon="10.5142880">
	<ele>2766.80</ele>
	<time>2023-08-07T07:16:04.000Z</time>
</trkpt>
<trkpt lat="46.1157080" lon="10.5142870">
	<ele>2766.80</ele>
	<time>2023-08-07T07:16:05.000Z</time>
</trkpt>
<trkpt lat="46.1157080" lon="10.5142870">
	<ele>2766.80</ele>
	<time>2023-08-07T07:16:06.000Z</time>
</trkpt>
<trkpt lat="46.1157080" lon="10.5142870">
	<ele>2766.80</ele>
	<time>2023-08-07T07:16:07.000Z</time>
</trkpt>
<trkpt lat="46.1157080" lon="10.5142860">
	<ele>2766.80</ele>
	<time>2023-08-07T07:16:08.000Z</time>
</trkpt>
<trkpt lat="46.1157060" lon="10.5142860">
	<ele>2767.00</ele>
	<time>2023-08-07T07:16:09.000Z</time>
</trkpt>
<trkpt lat="46.1157050" lon="10.5142860">
	<ele>2767.00</ele>
	<time>2023-08-07T07:16:10.000Z</time>
</trkpt>
<trkpt lat="46.1157020" lon="10.5142850">
	<ele>2767.00</ele>
	<time>2023-08-07T07:16:11.000Z</time>
</trkpt>
<trkpt lat="46.1157010" lon="10.5142850">
	<ele>2767.20</ele>
	<time>2023-08-07T07:16:12.000Z</time>
</trkpt>
<trkpt lat="46.1156950" lon="10.5142850">
	<ele>2767.20</ele>
	<time>2023-08-07T07:16:13.000Z</time>
</trkpt>
<trkpt lat="46.1156920" lon="10.5142850">
	<ele>2767.20</ele>
	<time>2023-08-07T07:16:14.000Z</time>
</trkpt>
<trkpt lat="46.1156910" lon="10.5142850">
	<ele>2767.40</ele>
	<time>2023-08-07T07:16:15.000Z</time>
</trkpt>
<trkpt lat="46.1156910" lon="10.5142850">
	<ele>2767.40</ele>
	<time>2023-08-07T07:16:16.000Z</time>
</trkpt>
<trkpt lat="46.1156900" lon="10.5142850">
	<ele>2767.40</ele>
	<time>2023-08-07T07:16:17.000Z</time>
</trkpt>
<trkpt lat="46.1156900" lon="10.5142850">
	<ele>2767.40</ele>
	<time>2023-08-07T07:16:18.000Z</time>
</trkpt>
<trkpt lat="46.1156900" lon="10.5142850">
	<ele>2767.40</ele>
	<time>2023-08-07T07:16:19.000Z</time>
</trkpt>
<trkpt lat="46.1156890" lon="10.5142850">
	<ele>2767.40</ele>
	<time>2023-08-07T07:16:20.000Z</time>
</trkpt>
<trkpt lat="46.1156890" lon="10.5142850">
	<ele>2767.40</ele>
	<time>2023-08-07T07:16:21.000Z</time>
</trkpt>
<trkpt lat="46.1156890" lon="10.5142850">
	<ele>2767.40</ele>
	<time>2023-08-07T07:16:22.000Z</time>
</trkpt>
<trkpt lat="46.1156890" lon="10.5142840">
	<ele>2767.40</ele>
	<time>2023-08-07T07:16:23.000Z</time>
</trkpt>
<trkpt lat="46.1156890" lon="10.5142840">
	<ele>2767.40</ele>
	<time>2023-08-07T07:16:24.000Z</time>
</trkpt>
<trkpt lat="46.1156890" lon="10.5142840">
	<ele>2767.40</ele>
	<time>2023-08-07T07:16:25.000Z</time>
</trkpt>
<trkpt lat="46.1156890" lon="10.5142840">
	<ele>2767.40</ele>
	<time>2023-08-07T07:16:26.000Z</time>
</trkpt>
<trkpt lat="46.1156890" lon="10.5142830">
	<ele>2767.40</ele>
	<time>2023-08-07T07:16:27.000Z</time>
</trkpt>
<trkpt lat="46.1156880" lon="10.5142830">
	<ele>2767.40</ele>
	<time>2023-08-07T07:16:28.000Z</time>
</trkpt>
<trkpt lat="46.1156880" lon="10.5142830">
	<ele>2767.40</ele>
	<time>2023-08-07T07:16:29.000Z</time>
</trkpt>
<trkpt lat="46.1156870" lon="10.5142830">
	<ele>2767.40</ele>
	<time>2023-08-07T07:16:30.000Z</time>
</trkpt>
<trkpt lat="46.1156840" lon="10.5142830">
	<ele>2767.40</ele>
	<time>2023-08-07T07:16:31.000Z</time>
</trkpt>
<trkpt lat="46.1156820" lon="10.5142830">
	<ele>2767.80</ele>
	<time>2023-08-07T07:16:32.000Z</time>
</trkpt>
<trkpt lat="46.1156810" lon="10.5142830">
	<ele>2767.60</ele>
	<time>2023-08-07T07:16:33.000Z</time>
</trkpt>
<trkpt lat="46.1156800" lon="10.5142830">
	<ele>2767.60</ele>
	<time>2023-08-07T07:16:34.000Z</time>
</trkpt>
<trkpt lat="46.1156770" lon="10.5142800">
	<ele>2767.80</ele>
	<time>2023-08-07T07:16:35.000Z</time>
</trkpt>
<trkpt lat="46.1156750" lon="10.5142790">
	<ele>2768.00</ele>
	<time>2023-08-07T07:16:36.000Z</time>
</trkpt>
<trkpt lat="46.1156720" lon="10.5142770">
	<ele>2768.00</ele>
	<time>2023-08-07T07:16:37.000Z</time>
</trkpt>
<trkpt lat="46.1156680" lon="10.5142740">
	<ele>2768.00</ele>
	<time>2023-08-07T07:16:38.000Z</time>
</trkpt>
<trkpt lat="46.1156660" lon="10.5142730">
	<ele>2768.00</ele>
	<time>2023-08-07T07:16:39.000Z</time>
</trkpt>
<trkpt lat="46.1156650" lon="10.5142710">
	<ele>2768.00</ele>
	<time>2023-08-07T07:16:40.000Z</time>
</trkpt>
<trkpt lat="46.1156640" lon="10.5142700">
	<ele>2767.80</ele>
	<time>2023-08-07T07:16:41.000Z</time>
</trkpt>
<trkpt lat="46.1156630" lon="10.5142690">
	<ele>2767.80</ele>
	<time>2023-08-07T07:16:42.000Z</time>
</trkpt>
<trkpt lat="46.1156630" lon="10.5142680">
	<ele>2767.60</ele>
	<time>2023-08-07T07:16:43.000Z</time>
</trkpt>
<trkpt lat="46.1156620" lon="10.5142680">
	<ele>2767.60</ele>
	<time>2023-08-07T07:16:44.000Z</time>
</trkpt>
<trkpt lat="46.1156620" lon="10.5142670">
	<ele>2767.40</ele>
	<time>2023-08-07T07:16:45.000Z</time>
</trkpt>
<trkpt lat="46.1156620" lon="10.5142660">
	<ele>2767.40</ele>
	<time>2023-08-07T07:16:46.000Z</time>
</trkpt>
<trkpt lat="46.1156620" lon="10.5142660">
	<ele>2767.20</ele>
	<time>2023-08-07T07:16:47.000Z</time>
</trkpt>
<trkpt lat="46.1156610" lon="10.5142650">
	<ele>2767.20</ele>
	<time>2023-08-07T07:16:48.000Z</time>
</trkpt>
<trkpt lat="46.1156610" lon="10.5142650">
	<ele>2767.20</ele>
	<time>2023-08-07T07:16:49.000Z</time>
</trkpt>
<trkpt lat="46.1156610" lon="10.5142640">
	<ele>2767.20</ele>
	<time>2023-08-07T07:16:50.000Z</time>
</trkpt>
<trkpt lat="46.1156610" lon="10.5142610">
	<ele>2767.20</ele>
	<time>2023-08-07T07:16:51.000Z</time>
</trkpt>
<trkpt lat="46.1156600" lon="10.5142600">
	<ele>2767.20</ele>
	<time>2023-08-07T07:16:52.000Z</time>
</trkpt>
<trkpt lat="46.1156600" lon="10.5142590">
	<ele>2767.20</ele>
	<time>2023-08-07T07:16:53.000Z</time>
</trkpt>
<trkpt lat="46.1156600" lon="10.5142580">
	<ele>2767.20</ele>
	<time>2023-08-07T07:16:54.000Z</time>
</trkpt>
<trkpt lat="46.1156590" lon="10.5142570">
	<ele>2767.20</ele>
	<time>2023-08-07T07:16:55.000Z</time>
</trkpt>
<trkpt lat="46.1156590" lon="10.5142570">
	<ele>2767.40</ele>
	<time>2023-08-07T07:16:56.000Z</time>
</trkpt>
<trkpt lat="46.1156590" lon="10.5142570">
	<ele>2767.40</ele>
	<time>2023-08-07T07:16:57.000Z</time>
</trkpt>
<trkpt lat="46.1156590" lon="10.5142560">
	<ele>2767.40</ele>
	<time>2023-08-07T07:16:58.000Z</time>
</trkpt>
<trkpt lat="46.1156590" lon="10.5142560">
	<ele>2767.40</ele>
	<time>2023-08-07T07:16:59.000Z</time>
</trkpt>
<trkpt lat="46.1156590" lon="10.5142560">
	<ele>2767.40</ele>
	<time>2023-08-07T07:17:00.000Z</time>
</trkpt>
<trkpt lat="46.1156580" lon="10.5142550">
	<ele>2767.40</ele>
	<time>2023-08-07T07:17:01.000Z</time>
</trkpt>
<trkpt lat="46.1156580" lon="10.5142550">
	<ele>2767.40</ele>
	<time>2023-08-07T07:17:02.000Z</time>
</trkpt>
<trkpt lat="46.1156570" lon="10.5142550">
	<ele>2767.40</ele>
	<time>2023-08-07T07:17:03.000Z</time>
</trkpt>
<trkpt lat="46.1156570" lon="10.5142550">
	<ele>2767.40</ele>
	<time>2023-08-07T07:17:04.000Z</time>
</trkpt>
<trkpt lat="46.1156560" lon="10.5142550">
	<ele>2767.20</ele>
	<time>2023-08-07T07:17:05.000Z</time>
</trkpt>
<trkpt lat="46.1156560" lon="10.5142550">
	<ele>2767.20</ele>
	<time>2023-08-07T07:17:06.000Z</time>
</trkpt>
<trkpt lat="46.1156550" lon="10.5142550">
	<ele>2767.20</ele>
	<time>2023-08-07T07:17:07.000Z</time>
</trkpt>
<trkpt lat="46.1156550" lon="10.5142550">
	<ele>2767.20</ele>
	<time>2023-08-07T07:17:08.000Z</time>
</trkpt>
<trkpt lat="46.1156550" lon="10.5142550">
	<ele>2767.00</ele>
	<time>2023-08-07T07:17:09.000Z</time>
</trkpt>
<trkpt lat="46.1156540" lon="10.5142550">
	<ele>2767.00</ele>
	<time>2023-08-07T07:17:10.000Z</time>
</trkpt>
<trkpt lat="46.1156540" lon="10.5142560">
	<ele>2767.00</ele>
	<time>2023-08-07T07:17:11.000Z</time>
</trkpt>
<trkpt lat="46.1156540" lon="10.5142560">
	<ele>2767.00</ele>
	<time>2023-08-07T07:17:12.000Z</time>
</trkpt>
<trkpt lat="46.1156530" lon="10.5142560">
	<ele>2766.80</ele>
	<time>2023-08-07T07:17:13.000Z</time>
</trkpt>
<trkpt lat="46.1156520" lon="10.5142570">
	<ele>2767.00</ele>
	<time>2023-08-07T07:17:14.000Z</time>
</trkpt>
<trkpt lat="46.1156510" lon="10.5142570">
	<ele>2767.00</ele>
	<time>2023-08-07T07:17:15.000Z</time>
</trkpt>
<trkpt lat="46.1156510" lon="10.5142570">
	<ele>2767.00</ele>
	<time>2023-08-07T07:17:16.000Z</time>
</trkpt>
<trkpt lat="46.1156510" lon="10.5142570">
	<ele>2767.00</ele>
	<time>2023-08-07T07:17:17.000Z</time>
</trkpt>
<trkpt lat="46.1156500" lon="10.5142570">
	<ele>2767.00</ele>
	<time>2023-08-07T07:17:18.000Z</time>
</trkpt>
<trkpt lat="46.1156500" lon="10.5142580">
	<ele>2767.00</ele>
	<time>2023-08-07T07:17:19.000Z</time>
</trkpt>
<trkpt lat="46.1156500" lon="10.5142580">
	<ele>2767.00</ele>
	<time>2023-08-07T07:17:20.000Z</time>
</trkpt>
<trkpt lat="46.1156490" lon="10.5142580">
	<ele>2767.00</ele>
	<time>2023-08-07T07:17:21.000Z</time>
</trkpt>
<trkpt lat="46.1156490" lon="10.5142580">
	<ele>2766.80</ele>
	<time>2023-08-07T07:17:22.000Z</time>
</trkpt>
<trkpt lat="46.1156490" lon="10.5142580">
	<ele>2766.60</ele>
	<time>2023-08-07T07:17:23.000Z</time>
</trkpt>
<trkpt lat="46.1156490" lon="10.5142590">
	<ele>2766.60</ele>
	<time>2023-08-07T07:17:24.000Z</time>
</trkpt>
<trkpt lat="46.1156490" lon="10.5142590">
	<ele>2766.60</ele>
	<time>2023-08-07T07:17:25.000Z</time>
</trkpt>
<trkpt lat="46.1156490" lon="10.5142590">
	<ele>2766.60</ele>
	<time>2023-08-07T07:17:26.000Z</time>
</trkpt>
<trkpt lat="46.1156490" lon="10.5142590">
	<ele>2766.60</ele>
	<time>2023-08-07T07:17:27.000Z</time>
</trkpt>
<trkpt lat="46.1156490" lon="10.5142590">
	<ele>2766.40</ele>
	<time>2023-08-07T07:17:28.000Z</time>
</trkpt>
<trkpt lat="46.1156490" lon="10.5142590">
	<ele>2766.40</ele>
	<time>2023-08-07T07:17:29.000Z</time>
</trkpt>
<trkpt lat="46.1156490" lon="10.5142590">
	<ele>2766.40</ele>
	<time>2023-08-07T07:17:30.000Z</time>
</trkpt>
<trkpt lat="46.1156490" lon="10.5142590">
	<ele>2766.40</ele>
	<time>2023-08-07T07:17:31.000Z</time>
</trkpt>
<trkpt lat="46.1156490" lon="10.5142590">
	<ele>2766.40</ele>
	<time>2023-08-07T07:17:32.000Z</time>
</trkpt>
<trkpt lat="46.1156490" lon="10.5142590">
	<ele>2766.40</ele>
	<time>2023-08-07T07:17:33.000Z</time>
</trkpt>
<trkpt lat="46.1156490" lon="10.5142590">
	<ele>2766.20</ele>
	<time>2023-08-07T07:17:34.000Z</time>
</trkpt>
<trkpt lat="46.1156490" lon="10.5142590">
	<ele>2766.20</ele>
	<time>2023-08-07T07:17:35.000Z</time>
</trkpt>
<trkpt lat="46.1156500" lon="10.5142590">
	<ele>2766.20</ele>
	<time>2023-08-07T07:17:36.000Z</time>
</trkpt>
<trkpt lat="46.1156500" lon="10.5142590">
	<ele>2766.20</ele>
	<time>2023-08-07T07:17:37.000Z</time>
</trkpt>
<trkpt lat="46.1156500" lon="10.5142590">
	<ele>2766.20</ele>
	<time>2023-08-07T07:17:38.000Z</time>
</trkpt>
<trkpt lat="46.1156500" lon="10.5142590">
	<ele>2766.20</ele>
	<time>2023-08-07T07:17:39.000Z</time>
</trkpt>
<trkpt lat="46.1156510" lon="10.5142590">
	<ele>2766.00</ele>
	<time>2023-08-07T07:17:40.000Z</time>
</trkpt>
<trkpt lat="46.1156510" lon="10.5142590">
	<ele>2766.20</ele>
	<time>2023-08-07T07:17:41.000Z</time>
</trkpt>
<trkpt lat="46.1156510" lon="10.5142590">
	<ele>2766.20</ele>
	<time>2023-08-07T07:17:42.000Z</time>
</trkpt>
<trkpt lat="46.1156510" lon="10.5142590">
	<ele>2766.20</ele>
	<time>2023-08-07T07:17:43.000Z</time>
</trkpt>
<trkpt lat="46.1156510" lon="10.5142590">
	<ele>2766.00</ele>
	<time>2023-08-07T07:17:44.000Z</time>
</trkpt>
<trkpt lat="46.1156520" lon="10.5142590">
	<ele>2766.20</ele>
	<time>2023-08-07T07:17:45.000Z</time>
</trkpt>
<trkpt lat="46.1156520" lon="10.5142590">
	<ele>2766.20</ele>
	<time>2023-08-07T07:17:46.000Z</time>
</trkpt>
<trkpt lat="46.1156520" lon="10.5142580">
	<ele>2766.00</ele>
	<time>2023-08-07T07:17:47.000Z</time>
</trkpt>
<trkpt lat="46.1156520" lon="10.5142580">
	<ele>2766.00</ele>
	<time>2023-08-07T07:17:48.000Z</time>
</trkpt>
<trkpt lat="46.1156520" lon="10.5142580">
	<ele>2766.00</ele>
	<time>2023-08-07T07:17:49.000Z</time>
</trkpt>
<trkpt lat="46.1156520" lon="10.5142580">
	<ele>2765.80</ele>
	<time>2023-08-07T07:17:50.000Z</time>
</trkpt>
<trkpt lat="46.1156520" lon="10.5142580">
	<ele>2765.80</ele>
	<time>2023-08-07T07:17:51.000Z</time>
</trkpt>
<trkpt lat="46.1156530" lon="10.5142580">
	<ele>2765.80</ele>
	<time>2023-08-07T07:17:52.000Z</time>
</trkpt>
<trkpt lat="46.1156530" lon="10.5142580">
	<ele>2765.80</ele>
	<time>2023-08-07T07:17:53.000Z</time>
</trkpt>
<trkpt lat="46.1156530" lon="10.5142580">
	<ele>2765.80</ele>
	<time>2023-08-07T07:17:54.000Z</time>
</trkpt>
<trkpt lat="46.1156530" lon="10.5142580">
	<ele>2765.80</ele>
	<time>2023-08-07T07:17:55.000Z</time>
</trkpt>
<trkpt lat="46.1156530" lon="10.5142580">
	<ele>2765.80</ele>
	<time>2023-08-07T07:17:56.000Z</time>
</trkpt>
<trkpt lat="46.1156530" lon="10.5142580">
	<ele>2765.60</ele>
	<time>2023-08-07T07:17:57.000Z</time>
</trkpt>
<trkpt lat="46.1156530" lon="10.5142570">
	<ele>2765.80</ele>
	<time>2023-08-07T07:17:58.000Z</time>
</trkpt>
<trkpt lat="46.1156540" lon="10.5142570">
	<ele>2765.80</ele>
	<time>2023-08-07T07:17:59.000Z</time>
</trkpt>
<trkpt lat="46.1156540" lon="10.5142570">
	<ele>2765.80</ele>
	<time>2023-08-07T07:18:00.000Z</time>
</trkpt>
<trkpt lat="46.1156540" lon="10.5142570">
	<ele>2765.80</ele>
	<time>2023-08-07T07:18:01.000Z</time>
</trkpt>
<trkpt lat="46.1156540" lon="10.5142570">
	<ele>2765.80</ele>
	<time>2023-08-07T07:18:02.000Z</time>
</trkpt>
<trkpt lat="46.1156540" lon="10.5142570">
	<ele>2765.80</ele>
	<time>2023-08-07T07:18:03.000Z</time>
</trkpt>
<trkpt lat="46.1156540" lon="10.5142570">
	<ele>2765.80</ele>
	<time>2023-08-07T07:18:04.000Z</time>
</trkpt>
<trkpt lat="46.1156540" lon="10.5142570">
	<ele>2765.80</ele>
	<time>2023-08-07T07:18:05.000Z</time>
</trkpt>
<trkpt lat="46.1156550" lon="10.5142570">
	<ele>2765.80</ele>
	<time>2023-08-07T07:18:06.000Z</time>
</trkpt>
<trkpt lat="46.1156550" lon="10.5142570">
	<ele>2765.80</ele>
	<time>2023-08-07T07:18:07.000Z</time>
</trkpt>
<trkpt lat="46.1156550" lon="10.5142570">
	<ele>2765.80</ele>
	<time>2023-08-07T07:18:08.000Z</time>
</trkpt>
<trkpt lat="46.1156550" lon="10.5142570">
	<ele>2765.80</ele>
	<time>2023-08-07T07:18:09.000Z</time>
</trkpt>
<trkpt lat="46.1156550" lon="10.5142570">
	<ele>2765.80</ele>
	<time>2023-08-07T07:18:10.000Z</time>
</trkpt>
<trkpt lat="46.1156550" lon="10.5142570">
	<ele>2765.80</ele>
	<time>2023-08-07T07:18:11.000Z</time>
</trkpt>
<trkpt lat="46.1156550" lon="10.5142570">
	<ele>2765.80</ele>
	<time>2023-08-07T07:18:12.000Z</time>
</trkpt>
<trkpt lat="46.1156550" lon="10.5142570">
	<ele>2765.80</ele>
	<time>2023-08-07T07:18:13.000Z</time>
</trkpt>
<trkpt lat="46.1156550" lon="10.5142570">
	<ele>2765.80</ele>
	<time>2023-08-07T07:18:14.000Z</time>
</trkpt>
<trkpt lat="46.1156550" lon="10.5142570">
	<ele>2765.80</ele>
	<time>2023-08-07T07:18:15.000Z</time>
</trkpt>
<trkpt lat="46.1156550" lon="10.5142570">
	<ele>2765.60</ele>
	<time>2023-08-07T07:18:16.000Z</time>
</trkpt>
<trkpt lat="46.1156550" lon="10.5142570">
	<ele>2765.60</ele>
	<time>2023-08-07T07:18:17.000Z</time>
</trkpt>
<trkpt lat="46.1156550" lon="10.5142570">
	<ele>2765.60</ele>
	<time>2023-08-07T07:18:18.000Z</time>
</trkpt>
<trkpt lat="46.1156550" lon="10.5142570">
	<ele>2765.60</ele>
	<time>2023-08-07T07:18:19.000Z</time>
</trkpt>
<trkpt lat="46.1156550" lon="10.5142570">
	<ele>2765.60</ele>
	<time>2023-08-07T07:18:20.000Z</time>
</trkpt>
<trkpt lat="46.1156550" lon="10.5142570">
	<ele>2765.60</ele>
	<time>2023-08-07T07:18:21.000Z</time>
</trkpt>
<trkpt lat="46.1156550" lon="10.5142560">
	<ele>2765.40</ele>
	<time>2023-08-07T07:18:22.000Z</time>
</trkpt>
<trkpt lat="46.1156550" lon="10.5142560">
	<ele>2765.40</ele>
	<time>2023-08-07T07:18:23.000Z</time>
</trkpt>
<trkpt lat="46.1156550" lon="10.5142560">
	<ele>2765.40</ele>
	<time>2023-08-07T07:18:24.000Z</time>
</trkpt>
<trkpt lat="46.1156550" lon="10.5142560">
	<ele>2765.40</ele>
	<time>2023-08-07T07:18:25.000Z</time>
</trkpt>
<trkpt lat="46.1156550" lon="10.5142560">
	<ele>2765.40</ele>
	<time>2023-08-07T07:18:26.000Z</time>
</trkpt>
<trkpt lat="46.1156550" lon="10.5142560">
	<ele>2765.40</ele>
	<time>2023-08-07T07:18:27.000Z</time>
</trkpt>
<trkpt lat="46.1156550" lon="10.5142560">
	<ele>2765.40</ele>
	<time>2023-08-07T07:18:28.000Z</time>
</trkpt>
<trkpt lat="46.1156550" lon="10.5142560">
	<ele>2765.40</ele>
	<time>2023-08-07T07:18:29.000Z</time>
</trkpt>
<trkpt lat="46.1156550" lon="10.5142560">
	<ele>2765.60</ele>
	<time>2023-08-07T07:18:30.000Z</time>
</trkpt>
<trkpt lat="46.1156550" lon="10.5142560">
	<ele>2765.60</ele>
	<time>2023-08-07T07:18:31.000Z</time>
</trkpt>
<trkpt lat="46.1156550" lon="10.5142560">
	<ele>2765.60</ele>
	<time>2023-08-07T07:18:32.000Z</time>
</trkpt>
<trkpt lat="46.1156550" lon="10.5142560">
	<ele>2765.60</ele>
	<time>2023-08-07T07:18:33.000Z</time>
</trkpt>
<trkpt lat="46.1156550" lon="10.5142560">
	<ele>2765.60</ele>
	<time>2023-08-07T07:18:34.000Z</time>
</trkpt>
<trkpt lat="46.1156550" lon="10.5142560">
	<ele>2765.60</ele>
	<time>2023-08-07T07:18:35.000Z</time>
</trkpt>
<trkpt lat="46.1156550" lon="10.5142560">
	<ele>2765.60</ele>
	<time>2023-08-07T07:18:36.000Z</time>
</trkpt>
<trkpt lat="46.1156550" lon="10.5142560">
	<ele>2765.60</ele>
	<time>2023-08-07T07:18:37.000Z</time>
</trkpt>
<trkpt lat="46.1156550" lon="10.5142560">
	<ele>2765.60</ele>
	<time>2023-08-07T07:18:38.000Z</time>
</trkpt>
<trkpt lat="46.1156550" lon="10.5142560">
	<ele>2765.60</ele>
	<time>2023-08-07T07:18:39.000Z</time>
</trkpt>
<trkpt lat="46.1156560" lon="10.5142560">
	<ele>2765.60</ele>
	<time>2023-08-07T07:18:40.000Z</time>
</trkpt>
<trkpt lat="46.1156560" lon="10.5142560">
	<ele>2765.80</ele>
	<time>2023-08-07T07:18:41.000Z</time>
</trkpt>
<trkpt lat="46.1156560" lon="10.5142560">
	<ele>2765.80</ele>
	<time>2023-08-07T07:18:42.000Z</time>
</trkpt>
<trkpt lat="46.1156560" lon="10.5142560">
	<ele>2765.80</ele>
	<time>2023-08-07T07:18:43.000Z</time>
</trkpt>
<trkpt lat="46.1156560" lon="10.5142560">
	<ele>2765.80</ele>
	<time>2023-08-07T07:18:44.000Z</time>
</trkpt>
<trkpt lat="46.1156550" lon="10.5142560">
	<ele>2766.00</ele>
	<time>2023-08-07T07:18:45.000Z</time>
</trkpt>
<trkpt lat="46.1156550" lon="10.5142560">
	<ele>2766.00</ele>
	<time>2023-08-07T07:18:46.000Z</time>
</trkpt>
<trkpt lat="46.1156550" lon="10.5142560">
	<ele>2766.00</ele>
	<time>2023-08-07T07:18:47.000Z</time>
</trkpt>
<trkpt lat="46.1156550" lon="10.5142560">
	<ele>2766.00</ele>
	<time>2023-08-07T07:18:48.000Z</time>
</trkpt>
<trkpt lat="46.1156550" lon="10.5142560">
	<ele>2766.00</ele>
	<time>2023-08-07T07:18:49.000Z</time>
</trkpt>
<trkpt lat="46.1156550" lon="10.5142560">
	<ele>2766.00</ele>
	<time>2023-08-07T07:18:50.000Z</time>
</trkpt>
<trkpt lat="46.1156550" lon="10.5142560">
	<ele>2765.80</ele>
	<time>2023-08-07T07:18:51.000Z</time>
</trkpt>
<trkpt lat="46.1156550" lon="10.5142560">
	<ele>2765.80</ele>
	<time>2023-08-07T07:18:52.000Z</time>
</trkpt>
<trkpt lat="46.1156550" lon="10.5142560">
	<ele>2765.60</ele>
	<time>2023-08-07T07:18:53.000Z</time>
</trkpt>
<trkpt lat="46.1156550" lon="10.5142560">
	<ele>2765.40</ele>
	<time>2023-08-07T07:18:54.000Z</time>
</trkpt>
<trkpt lat="46.1156550" lon="10.5142560">
	<ele>2765.20</ele>
	<time>2023-08-07T07:18:55.000Z</time>
</trkpt>
<trkpt lat="46.1156550" lon="10.5142560">
	<ele>2765.20</ele>
	<time>2023-08-07T07:18:56.000Z</time>
</trkpt>
<trkpt lat="46.1156550" lon="10.5142560">
	<ele>2765.20</ele>
	<time>2023-08-07T07:18:57.000Z</time>
</trkpt>
<trkpt lat="46.1156550" lon="10.5142550">
	<ele>2765.00</ele>
	<time>2023-08-07T07:18:58.000Z</time>
</trkpt>
<trkpt lat="46.1156550" lon="10.5142550">
	<ele>2765.20</ele>
	<time>2023-08-07T07:18:59.000Z</time>
</trkpt>
<trkpt lat="46.1156550" lon="10.5142550">
	<ele>2765.20</ele>
	<time>2023-08-07T07:19:00.000Z</time>
</trkpt>
<trkpt lat="46.1156550" lon="10.5142550">
	<ele>2765.20</ele>
	<time>2023-08-07T07:19:01.000Z</time>
</trkpt>
<trkpt lat="46.1156550" lon="10.5142550">
	<ele>2765.20</ele>
	<time>2023-08-07T07:19:02.000Z</time>
</trkpt>
<trkpt lat="46.1156550" lon="10.5142550">
	<ele>2765.00</ele>
	<time>2023-08-07T07:19:03.000Z</time>
</trkpt>
<trkpt lat="46.1156550" lon="10.5142550">
	<ele>2765.00</ele>
	<time>2023-08-07T07:19:04.000Z</time>
</trkpt>
<trkpt lat="46.1156550" lon="10.5142550">
	<ele>2765.00</ele>
	<time>2023-08-07T07:19:05.000Z</time>
</trkpt>
<trkpt lat="46.1156550" lon="10.5142550">
	<ele>2765.20</ele>
	<time>2023-08-07T07:19:06.000Z</time>
</trkpt>
<trkpt lat="46.1156550" lon="10.5142550">
	<ele>2765.20</ele>
	<time>2023-08-07T07:19:07.000Z</time>
</trkpt>
<trkpt lat="46.1156550" lon="10.5142550">
	<ele>2765.60</ele>
	<time>2023-08-07T07:19:08.000Z</time>
</trkpt>
<trkpt lat="46.1156550" lon="10.5142550">
	<ele>2765.60</ele>
	<time>2023-08-07T07:19:09.000Z</time>
</trkpt>
<trkpt lat="46.1156550" lon="10.5142550">
	<ele>2765.80</ele>
	<time>2023-08-07T07:19:10.000Z</time>
</trkpt>
<trkpt lat="46.1156550" lon="10.5142560">
	<ele>2765.80</ele>
	<time>2023-08-07T07:19:11.000Z</time>
</trkpt>
<trkpt lat="46.1156550" lon="10.5142560">
	<ele>2765.80</ele>
	<time>2023-08-07T07:19:12.000Z</time>
</trkpt>
<trkpt lat="46.1156550" lon="10.5142560">
	<ele>2765.80</ele>
	<time>2023-08-07T07:19:13.000Z</time>
</trkpt>
<trkpt lat="46.1156550" lon="10.5142560">
	<ele>2765.80</ele>
	<time>2023-08-07T07:19:14.000Z</time>
</trkpt>
<trkpt lat="46.1156550" lon="10.5142560">
	<ele>2765.60</ele>
	<time>2023-08-07T07:19:15.000Z</time>
</trkpt>
<trkpt lat="46.1156550" lon="10.5142560">
	<ele>2765.40</ele>
	<time>2023-08-07T07:19:16.000Z</time>
</trkpt>
<trkpt lat="46.1156550" lon="10.5142560">
	<ele>2765.20</ele>
	<time>2023-08-07T07:19:17.000Z</time>
</trkpt>
<trkpt lat="46.1156550" lon="10.5142560">
	<ele>2765.20</ele>
	<time>2023-08-07T07:19:18.000Z</time>
</trkpt>
<trkpt lat="46.1156550" lon="10.5142560">
	<ele>2765.20</ele>
	<time>2023-08-07T07:19:19.000Z</time>
</trkpt>
<trkpt lat="46.1156550" lon="10.5142560">
	<ele>2765.20</ele>
	<time>2023-08-07T07:19:20.000Z</time>
</trkpt>
<trkpt lat="46.1156540" lon="10.5142560">
	<ele>2765.00</ele>
	<time>2023-08-07T07:19:21.000Z</time>
</trkpt>
<trkpt lat="46.1156540" lon="10.5142560">
	<ele>2765.00</ele>
	<time>2023-08-07T07:19:22.000Z</time>
</trkpt>
<trkpt lat="46.1156540" lon="10.5142560">
	<ele>2765.00</ele>
	<time>2023-08-07T07:19:23.000Z</time>
</trkpt>
<trkpt lat="46.1156540" lon="10.5142560">
	<ele>2764.80</ele>
	<time>2023-08-07T07:19:24.000Z</time>
</trkpt>
<trkpt lat="46.1156540" lon="10.5142560">
	<ele>2764.80</ele>
	<time>2023-08-07T07:19:25.000Z</time>
</trkpt>
<trkpt lat="46.1156540" lon="10.5142560">
	<ele>2764.80</ele>
	<time>2023-08-07T07:19:26.000Z</time>
</trkpt>
<trkpt lat="46.1156540" lon="10.5142560">
	<ele>2764.80</ele>
	<time>2023-08-07T07:19:27.000Z</time>
</trkpt>
<trkpt lat="46.1156540" lon="10.5142560">
	<ele>2765.00</ele>
	<time>2023-08-07T07:19:28.000Z</time>
</trkpt>
<trkpt lat="46.1156540" lon="10.5142560">
	<ele>2765.00</ele>
	<time>2023-08-07T07:19:29.000Z</time>
</trkpt>
<trkpt lat="46.1156540" lon="10.5142560">
	<ele>2765.20</ele>
	<time>2023-08-07T07:19:30.000Z</time>
</trkpt>
<trkpt lat="46.1156540" lon="10.5142560">
	<ele>2765.20</ele>
	<time>2023-08-07T07:19:31.000Z</time>
</trkpt>
<trkpt lat="46.1156540" lon="10.5142560">
	<ele>2765.20</ele>
	<time>2023-08-07T07:19:32.000Z</time>
</trkpt>
<trkpt lat="46.1156540" lon="10.5142560">
	<ele>2765.20</ele>
	<time>2023-08-07T07:19:33.000Z</time>
</trkpt>
<trkpt lat="46.1156540" lon="10.5142550">
	<ele>2765.20</ele>
	<time>2023-08-07T07:19:34.000Z</time>
</trkpt>
<trkpt lat="46.1156540" lon="10.5142560">
	<ele>2765.20</ele>
	<time>2023-08-07T07:19:35.000Z</time>
</trkpt>
<trkpt lat="46.1156540" lon="10.5142560">
	<ele>2765.20</ele>
	<time>2023-08-07T07:19:36.000Z</time>
</trkpt>
<trkpt lat="46.1156540" lon="10.5142560">
	<ele>2765.00</ele>
	<time>2023-08-07T07:19:37.000Z</time>
</trkpt>
<trkpt lat="46.1156530" lon="10.5142560">
	<ele>2765.60</ele>
	<time>2023-08-07T07:19:38.000Z</time>
</trkpt>
<trkpt lat="46.1156530" lon="10.5142560">
	<ele>2765.60</ele>
	<time>2023-08-07T07:19:39.000Z</time>
</trkpt>
<trkpt lat="46.1156530" lon="10.5142560">
	<ele>2765.60</ele>
	<time>2023-08-07T07:19:40.000Z</time>
</trkpt>
<trkpt lat="46.1156530" lon="10.5142560">
	<ele>2765.60</ele>
	<time>2023-08-07T07:19:41.000Z</time>
</trkpt>
<trkpt lat="46.1156530" lon="10.5142560">
	<ele>2765.60</ele>
	<time>2023-08-07T07:19:42.000Z</time>
</trkpt>
<trkpt lat="46.1156520" lon="10.5142560">
	<ele>2765.60</ele>
	<time>2023-08-07T07:19:43.000Z</time>
</trkpt>
<trkpt lat="46.1156520" lon="10.5142560">
	<ele>2765.60</ele>
	<time>2023-08-07T07:19:44.000Z</time>
</trkpt>
<trkpt lat="46.1156520" lon="10.5142560">
	<ele>2765.60</ele>
	<time>2023-08-07T07:19:45.000Z</time>
</trkpt>
<trkpt lat="46.1156520" lon="10.5142560">
	<ele>2765.60</ele>
	<time>2023-08-07T07:19:46.000Z</time>
</trkpt>
<trkpt lat="46.1156520" lon="10.5142560">
	<ele>2765.60</ele>
	<time>2023-08-07T07:19:47.000Z</time>
</trkpt>
<trkpt lat="46.1156520" lon="10.5142570">
	<ele>2765.60</ele>
	<time>2023-08-07T07:19:48.000Z</time>
</trkpt>
<trkpt lat="46.1156520" lon="10.5142570">
	<ele>2765.60</ele>
	<time>2023-08-07T07:19:49.000Z</time>
</trkpt>
<trkpt lat="46.1156520" lon="10.5142570">
	<ele>2765.60</ele>
	<time>2023-08-07T07:19:50.000Z</time>
</trkpt>
<trkpt lat="46.1156520" lon="10.5142570">
	<ele>2765.60</ele>
	<time>2023-08-07T07:19:51.000Z</time>
</trkpt>
<trkpt lat="46.1156520" lon="10.5142560">
	<ele>2765.60</ele>
	<time>2023-08-07T07:19:52.000Z</time>
</trkpt>
<trkpt lat="46.1156520" lon="10.5142560">
	<ele>2765.60</ele>
	<time>2023-08-07T07:19:53.000Z</time>
</trkpt>
<trkpt lat="46.1156520" lon="10.5142560">
	<ele>2765.60</ele>
	<time>2023-08-07T07:19:54.000Z</time>
</trkpt>
<trkpt lat="46.1156520" lon="10.5142560">
	<ele>2765.60</ele>
	<time>2023-08-07T07:19:55.000Z</time>
</trkpt>
<trkpt lat="46.1156520" lon="10.5142560">
	<ele>2765.60</ele>
	<time>2023-08-07T07:19:56.000Z</time>
</trkpt>
<trkpt lat="46.1156520" lon="10.5142560">
	<ele>2765.60</ele>
	<time>2023-08-07T07:19:57.000Z</time>
</trkpt>
<trkpt lat="46.1156520" lon="10.5142560">
	<ele>2765.60</ele>
	<time>2023-08-07T07:19:58.000Z</time>
</trkpt>
<trkpt lat="46.1156520" lon="10.5142550">
	<ele>2765.60</ele>
	<time>2023-08-07T07:19:59.000Z</time>
</trkpt>
<trkpt lat="46.1156520" lon="10.5142550">
	<ele>2765.60</ele>
	<time>2023-08-07T07:20:00.000Z</time>
</trkpt>
<trkpt lat="46.1156520" lon="10.5142550">
	<ele>2765.60</ele>
	<time>2023-08-07T07:20:01.000Z</time>
</trkpt>
<trkpt lat="46.1156520" lon="10.5142550">
	<ele>2765.60</ele>
	<time>2023-08-07T07:20:02.000Z</time>
</trkpt>
<trkpt lat="46.1156520" lon="10.5142550">
	<ele>2765.60</ele>
	<time>2023-08-07T07:20:03.000Z</time>
</trkpt>
<trkpt lat="46.1156520" lon="10.5142550">
	<ele>2765.60</ele>
	<time>2023-08-07T07:20:04.000Z</time>
</trkpt>
<trkpt lat="46.1156520" lon="10.5142550">
	<ele>2765.60</ele>
	<time>2023-08-07T07:20:05.000Z</time>
</trkpt>
<trkpt lat="46.1156520" lon="10.5142550">
	<ele>2765.60</ele>
	<time>2023-08-07T07:20:06.000Z</time>
</trkpt>
<trkpt lat="46.1156520" lon="10.5142550">
	<ele>2765.60</ele>
	<time>2023-08-07T07:20:07.000Z</time>
</trkpt>
<trkpt lat="46.1156520" lon="10.5142550">
	<ele>2765.60</ele>
	<time>2023-08-07T07:20:08.000Z</time>
</trkpt>
<trkpt lat="46.1156520" lon="10.5142550">
	<ele>2765.60</ele>
	<time>2023-08-07T07:20:09.000Z</time>
</trkpt>
<trkpt lat="46.1156520" lon="10.5142540">
	<ele>2765.60</ele>
	<time>2023-08-07T07:20:10.000Z</time>
</trkpt>
<trkpt lat="46.1156520" lon="10.5142540">
	<ele>2765.60</ele>
	<time>2023-08-07T07:20:11.000Z</time>
</trkpt>
<trkpt lat="46.1156520" lon="10.5142540">
	<ele>2765.60</ele>
	<time>2023-08-07T07:20:12.000Z</time>
</trkpt>
<trkpt lat="46.1156520" lon="10.5142540">
	<ele>2765.60</ele>
	<time>2023-08-07T07:20:13.000Z</time>
</trkpt>
<trkpt lat="46.1156520" lon="10.5142540">
	<ele>2765.60</ele>
	<time>2023-08-07T07:20:14.000Z</time>
</trkpt>
<trkpt lat="46.1156520" lon="10.5142540">
	<ele>2765.60</ele>
	<time>2023-08-07T07:20:15.000Z</time>
</trkpt>
<trkpt lat="46.1156520" lon="10.5142540">
	<ele>2765.60</ele>
	<time>2023-08-07T07:20:16.000Z</time>
</trkpt>
<trkpt lat="46.1156520" lon="10.5142540">
	<ele>2765.60</ele>
	<time>2023-08-07T07:20:17.000Z</time>
</trkpt>
<trkpt lat="46.1156520" lon="10.5142540">
	<ele>2765.60</ele>
	<time>2023-08-07T07:20:18.000Z</time>
</trkpt>
<trkpt lat="46.1156520" lon="10.5142540">
	<ele>2765.60</ele>
	<time>2023-08-07T07:20:19.000Z</time>
</trkpt>
<trkpt lat="46.1156520" lon="10.5142540">
	<ele>2765.60</ele>
	<time>2023-08-07T07:20:20.000Z</time>
</trkpt>
<trkpt lat="46.1156520" lon="10.5142540">
	<ele>2765.60</ele>
	<time>2023-08-07T07:20:21.000Z</time>
</trkpt>
<trkpt lat="46.1156520" lon="10.5142540">
	<ele>2765.60</ele>
	<time>2023-08-07T07:20:22.000Z</time>
</trkpt>
<trkpt lat="46.1156520" lon="10.5142540">
	<ele>2765.60</ele>
	<time>2023-08-07T07:20:23.000Z</time>
</trkpt>
<trkpt lat="46.1156520" lon="10.5142540">
	<ele>2765.60</ele>
	<time>2023-08-07T07:20:24.000Z</time>
</trkpt>
<trkpt lat="46.1156520" lon="10.5142540">
	<ele>2765.60</ele>
	<time>2023-08-07T07:20:25.000Z</time>
</trkpt>
<trkpt lat="46.1156520" lon="10.5142540">
	<ele>2765.60</ele>
	<time>2023-08-07T07:20:26.000Z</time>
</trkpt>
<trkpt lat="46.1156520" lon="10.5142540">
	<ele>2765.60</ele>
	<time>2023-08-07T07:20:27.000Z</time>
</trkpt>
<trkpt lat="46.1156520" lon="10.5142540">
	<ele>2765.60</ele>
	<time>2023-08-07T07:20:28.000Z</time>
</trkpt>
<trkpt lat="46.1156520" lon="10.5142540">
	<ele>2765.60</ele>
	<time>2023-08-07T07:20:29.000Z</time>
</trkpt>
<trkpt lat="46.1156520" lon="10.5142540">
	<ele>2765.60</ele>
	<time>2023-08-07T07:20:30.000Z</time>
</trkpt>
<trkpt lat="46.1156520" lon="10.5142540">
	<ele>2765.60</ele>
	<time>2023-08-07T07:20:31.000Z</time>
</trkpt>
<trkpt lat="46.1156520" lon="10.5142540">
	<ele>2765.60</ele>
	<time>2023-08-07T07:20:32.000Z</time>
</trkpt>
<trkpt lat="46.1156520" lon="10.5142540">
	<ele>2765.60</ele>
	<time>2023-08-07T07:20:33.000Z</time>
</trkpt>
<trkpt lat="46.1156520" lon="10.5142540">
	<ele>2765.60</ele>
	<time>2023-08-07T07:20:34.000Z</time>
</trkpt>
<trkpt lat="46.1156520" lon="10.5142550">
	<ele>2765.60</ele>
	<time>2023-08-07T07:20:35.000Z</time>
</trkpt>
<trkpt lat="46.1156520" lon="10.5142550">
	<ele>2765.60</ele>
	<time>2023-08-07T07:20:36.000Z</time>
</trkpt>
<trkpt lat="46.1156520" lon="10.5142550">
	<ele>2765.60</ele>
	<time>2023-08-07T07:20:37.000Z</time>
</trkpt>
<trkpt lat="46.1156520" lon="10.5142550">
	<ele>2765.60</ele>
	<time>2023-08-07T07:20:38.000Z</time>
</trkpt>
<trkpt lat="46.1156530" lon="10.5142550">
	<ele>2765.60</ele>
	<time>2023-08-07T07:20:39.000Z</time>
</trkpt>
<trkpt lat="46.1156530" lon="10.5142550">
	<ele>2765.60</ele>
	<time>2023-08-07T07:20:40.000Z</time>
</trkpt>
<trkpt lat="46.1156530" lon="10.5142550">
	<ele>2765.60</ele>
	<time>2023-08-07T07:20:41.000Z</time>
</trkpt>
<trkpt lat="46.1156530" lon="10.5142550">
	<ele>2765.60</ele>
	<time>2023-08-07T07:20:42.000Z</time>
</trkpt>
<trkpt lat="46.1156530" lon="10.5142550">
	<ele>2765.60</ele>
	<time>2023-08-07T07:20:43.000Z</time>
</trkpt>
<trkpt lat="46.1156530" lon="10.5142550">
	<ele>2765.60</ele>
	<time>2023-08-07T07:20:44.000Z</time>
</trkpt>
<trkpt lat="46.1156530" lon="10.5142550">
	<ele>2765.60</ele>
	<time>2023-08-07T07:20:45.000Z</time>
</trkpt>
<trkpt lat="46.1156530" lon="10.5142540">
	<ele>2765.60</ele>
	<time>2023-08-07T07:20:46.000Z</time>
</trkpt>
<trkpt lat="46.1156530" lon="10.5142540">
	<ele>2765.60</ele>
	<time>2023-08-07T07:20:47.000Z</time>
</trkpt>
<trkpt lat="46.1156530" lon="10.5142540">
	<ele>2765.60</ele>
	<time>2023-08-07T07:20:48.000Z</time>
</trkpt>
<trkpt lat="46.1156530" lon="10.5142540">
	<ele>2765.60</ele>
	<time>2023-08-07T07:20:49.000Z</time>
</trkpt>
<trkpt lat="46.1156530" lon="10.5142540">
	<ele>2765.60</ele>
	<time>2023-08-07T07:20:50.000Z</time>
</trkpt>
<trkpt lat="46.1156530" lon="10.5142540">
	<ele>2765.60</ele>
	<time>2023-08-07T07:20:51.000Z</time>
</trkpt>
<trkpt lat="46.1156530" lon="10.5142540">
	<ele>2765.60</ele>
	<time>2023-08-07T07:20:52.000Z</time>
</trkpt>
<trkpt lat="46.1156530" lon="10.5142540">
	<ele>2765.60</ele>
	<time>2023-08-07T07:20:53.000Z</time>
</trkpt>
<trkpt lat="46.1156530" lon="10.5142540">
	<ele>2765.60</ele>
	<time>2023-08-07T07:20:54.000Z</time>
</trkpt>
<trkpt lat="46.1156530" lon="10.5142540">
	<ele>2765.60</ele>
	<time>2023-08-07T07:20:55.000Z</time>
</trkpt>
<trkpt lat="46.1156530" lon="10.5142540">
	<ele>2765.60</ele>
	<time>2023-08-07T07:20:56.000Z</time>
</trkpt>
<trkpt lat="46.1156530" lon="10.5142530">
	<ele>2765.60</ele>
	<time>2023-08-07T07:20:57.000Z</time>
</trkpt>
<trkpt lat="46.1156530" lon="10.5142530">
	<ele>2765.60</ele>
	<time>2023-08-07T07:20:58.000Z</time>
</trkpt>
<trkpt lat="46.1156530" lon="10.5142530">
	<ele>2765.60</ele>
	<time>2023-08-07T07:20:59.000Z</time>
</trkpt>
<trkpt lat="46.1156530" lon="10.5142530">
	<ele>2765.60</ele>
	<time>2023-08-07T07:21:00.000Z</time>
</trkpt>
<trkpt lat="46.1156530" lon="10.5142530">
	<ele>2765.60</ele>
	<time>2023-08-07T07:21:01.000Z</time>
</trkpt>
<trkpt lat="46.1156530" lon="10.5142530">
	<ele>2765.60</ele>
	<time>2023-08-07T07:21:02.000Z</time>
</trkpt>
<trkpt lat="46.1156530" lon="10.5142530">
	<ele>2765.60</ele>
	<time>2023-08-07T07:21:03.000Z</time>
</trkpt>
<trkpt lat="46.1156530" lon="10.5142530">
	<ele>2765.60</ele>
	<time>2023-08-07T07:21:04.000Z</time>
</trkpt>
<trkpt lat="46.1156530" lon="10.5142530">
	<ele>2765.60</ele>
	<time>2023-08-07T07:21:05.000Z</time>
</trkpt>
<trkpt lat="46.1156530" lon="10.5142530">
	<ele>2765.60</ele>
	<time>2023-08-07T07:21:06.000Z</time>
</trkpt>
<trkpt lat="46.1156530" lon="10.5142530">
	<ele>2765.60</ele>
	<time>2023-08-07T07:21:07.000Z</time>
</trkpt>
<trkpt lat="46.1156530" lon="10.5142530">
	<ele>2765.60</ele>
	<time>2023-08-07T07:21:08.000Z</time>
</trkpt>
<trkpt lat="46.1156530" lon="10.5142530">
	<ele>2765.60</ele>
	<time>2023-08-07T07:21:09.000Z</time>
</trkpt>
<trkpt lat="46.1156530" lon="10.5142530">
	<ele>2765.60</ele>
	<time>2023-08-07T07:21:10.000Z</time>
</trkpt>
<trkpt lat="46.1156530" lon="10.5142530">
	<ele>2765.60</ele>
	<time>2023-08-07T07:21:11.000Z</time>
</trkpt>
<trkpt lat="46.1156530" lon="10.5142530">
	<ele>2765.60</ele>
	<time>2023-08-07T07:21:12.000Z</time>
</trkpt>
<trkpt lat="46.1156530" lon="10.5142530">
	<ele>2765.60</ele>
	<time>2023-08-07T07:21:13.000Z</time>
</trkpt>
<trkpt lat="46.1156530" lon="10.5142530">
	<ele>2765.60</ele>
	<time>2023-08-07T07:21:14.000Z</time>
</trkpt>
<trkpt lat="46.1156530" lon="10.5142530">
	<ele>2765.60</ele>
	<time>2023-08-07T07:21:15.000Z</time>
</trkpt>
<trkpt lat="46.1156530" lon="10.5142530">
	<ele>2765.60</ele>
	<time>2023-08-07T07:21:16.000Z</time>
</trkpt>
<trkpt lat="46.1156520" lon="10.5142520">
	<ele>2765.60</ele>
	<time>2023-08-07T07:21:17.000Z</time>
</trkpt>
<trkpt lat="46.1156520" lon="10.5142520">
	<ele>2765.60</ele>
	<time>2023-08-07T07:21:18.000Z</time>
</trkpt>
<trkpt lat="46.1156530" lon="10.5142530">
	<ele>2765.60</ele>
	<time>2023-08-07T07:21:19.000Z</time>
</trkpt>
<trkpt lat="46.1156530" lon="10.5142530">
	<ele>2765.60</ele>
	<time>2023-08-07T07:21:20.000Z</time>
</trkpt>
<trkpt lat="46.1156530" lon="10.5142530">
	<ele>2765.60</ele>
	<time>2023-08-07T07:21:21.000Z</time>
</trkpt>
<trkpt lat="46.1156520" lon="10.5142530">
	<ele>2765.60</ele>
	<time>2023-08-07T07:21:22.000Z</time>
</trkpt>
<trkpt lat="46.1156520" lon="10.5142530">
	<ele>2765.60</ele>
	<time>2023-08-07T07:21:23.000Z</time>
</trkpt>
<trkpt lat="46.1156520" lon="10.5142530">
	<ele>2765.60</ele>
	<time>2023-08-07T07:21:24.000Z</time>
</trkpt>
<trkpt lat="46.1156520" lon="10.5142530">
	<ele>2765.60</ele>
	<time>2023-08-07T07:21:25.000Z</time>
</trkpt>
<trkpt lat="46.1156520" lon="10.5142530">
	<ele>2765.60</ele>
	<time>2023-08-07T07:21:26.000Z</time>
</trkpt>
<trkpt lat="46.1156520" lon="10.5142530">
	<ele>2765.60</ele>
	<time>2023-08-07T07:21:27.000Z</time>
</trkpt>
<trkpt lat="46.1156530" lon="10.5142530">
	<ele>2765.60</ele>
	<time>2023-08-07T07:21:28.000Z</time>
</trkpt>
<trkpt lat="46.1156530" lon="10.5142530">
	<ele>2765.60</ele>
	<time>2023-08-07T07:21:29.000Z</time>
</trkpt>
<trkpt lat="46.1156530" lon="10.5142530">
	<ele>2765.60</ele>
	<time>2023-08-07T07:21:30.000Z</time>
</trkpt>
<trkpt lat="46.1156530" lon="10.5142530">
	<ele>2765.60</ele>
	<time>2023-08-07T07:21:31.000Z</time>
</trkpt>
<trkpt lat="46.1156530" lon="10.5142530">
	<ele>2765.60</ele>
	<time>2023-08-07T07:21:32.000Z</time>
</trkpt>
<trkpt lat="46.1156530" lon="10.5142530">
	<ele>2765.60</ele>
	<time>2023-08-07T07:21:33.000Z</time>
</trkpt>
<trkpt lat="46.1156530" lon="10.5142530">
	<ele>2765.60</ele>
	<time>2023-08-07T07:21:34.000Z</time>
</trkpt>
<trkpt lat="46.1156530" lon="10.5142530">
	<ele>2765.60</ele>
	<time>2023-08-07T07:21:35.000Z</time>
</trkpt>
<trkpt lat="46.1156530" lon="10.5142530">
	<ele>2765.60</ele>
	<time>2023-08-07T07:21:36.000Z</time>
</trkpt>
<trkpt lat="46.1156530" lon="10.5142530">
	<ele>2765.60</ele>
	<time>2023-08-07T07:21:37.000Z</time>
</trkpt>
<trkpt lat="46.1156530" lon="10.5142530">
	<ele>2765.60</ele>
	<time>2023-08-07T07:21:38.000Z</time>
</trkpt>
<trkpt lat="46.1156530" lon="10.5142530">
	<ele>2765.60</ele>
	<time>2023-08-07T07:21:39.000Z</time>
</trkpt>
<trkpt lat="46.1156520" lon="10.5142530">
	<ele>2765.60</ele>
	<time>2023-08-07T07:21:40.000Z</time>
</trkpt>
<trkpt lat="46.1156520" lon="10.5142530">
	<ele>2765.60</ele>
	<time>2023-08-07T07:21:41.000Z</time>
</trkpt>
<trkpt lat="46.1156520" lon="10.5142530">
	<ele>2765.60</ele>
	<time>2023-08-07T07:21:42.000Z</time>
</trkpt>
<trkpt lat="46.1156520" lon="10.5142530">
	<ele>2765.60</ele>
	<time>2023-08-07T07:21:43.000Z</time>
</trkpt>
<trkpt lat="46.1156520" lon="10.5142530">
	<ele>2765.60</ele>
	<time>2023-08-07T07:21:44.000Z</time>
</trkpt>
<trkpt lat="46.1156520" lon="10.5142530">
	<ele>2765.60</ele>
	<time>2023-08-07T07:21:45.000Z</time>
</trkpt>
<trkpt lat="46.1156520" lon="10.5142530">
	<ele>2765.60</ele>
	<time>2023-08-07T07:21:46.000Z</time>
</trkpt>
<trkpt lat="46.1156520" lon="10.5142530">
	<ele>2765.60</ele>
	<time>2023-08-07T07:21:47.000Z</time>
</trkpt>
<trkpt lat="46.1156520" lon="10.5142530">
	<ele>2765.60</ele>
	<time>2023-08-07T07:21:48.000Z</time>
</trkpt>
<trkpt lat="46.1156520" lon="10.5142530">
	<ele>2765.60</ele>
	<time>2023-08-07T07:21:49.000Z</time>
</trkpt>
<trkpt lat="46.1156520" lon="10.5142530">
	<ele>2765.60</ele>
	<time>2023-08-07T07:21:50.000Z</time>
</trkpt>
<trkpt lat="46.1156520" lon="10.5142520">
	<ele>2765.60</ele>
	<time>2023-08-07T07:21:51.000Z</time>
</trkpt>
<trkpt lat="46.1156520" lon="10.5142520">
	<ele>2765.60</ele>
	<time>2023-08-07T07:21:52.000Z</time>
</trkpt>
<trkpt lat="46.1156520" lon="10.5142530">
	<ele>2765.60</ele>
	<time>2023-08-07T07:21:53.000Z</time>
</trkpt>
<trkpt lat="46.1156520" lon="10.5142530">
	<ele>2765.60</ele>
	<time>2023-08-07T07:21:54.000Z</time>
</trkpt>
<trkpt lat="46.1156520" lon="10.5142520">
	<ele>2765.60</ele>
	<time>2023-08-07T07:21:55.000Z</time>
</trkpt>
<trkpt lat="46.1156520" lon="10.5142520">
	<ele>2765.60</ele>
	<time>2023-08-07T07:21:56.000Z</time>
</trkpt>
<trkpt lat="46.1156520" lon="10.5142520">
	<ele>2765.60</ele>
	<time>2023-08-07T07:21:57.000Z</time>
</trkpt>
<trkpt lat="46.1156520" lon="10.5142520">
	<ele>2765.60</ele>
	<time>2023-08-07T07:21:58.000Z</time>
</trkpt>
<trkpt lat="46.1156520" lon="10.5142520">
	<ele>2765.60</ele>
	<time>2023-08-07T07:21:59.000Z</time>
</trkpt>
<trkpt lat="46.1156520" lon="10.5142520">
	<ele>2765.60</ele>
	<time>2023-08-07T07:22:00.000Z</time>
</trkpt>
<trkpt lat="46.1156520" lon="10.5142520">
	<ele>2765.60</ele>
	<time>2023-08-07T07:22:01.000Z</time>
</trkpt>
<trkpt lat="46.1156520" lon="10.5142520">
	<ele>2765.60</ele>
	<time>2023-08-07T07:22:02.000Z</time>
</trkpt>
<trkpt lat="46.1156530" lon="10.5142520">
	<ele>2765.60</ele>
	<time>2023-08-07T07:22:03.000Z</time>
</trkpt>
<trkpt lat="46.1156530" lon="10.5142520">
	<ele>2765.60</ele>
	<time>2023-08-07T07:22:04.000Z</time>
</trkpt>
<trkpt lat="46.1156530" lon="10.5142520">
	<ele>2765.60</ele>
	<time>2023-08-07T07:22:05.000Z</time>
</trkpt>
<trkpt lat="46.1156530" lon="10.5142520">
	<ele>2765.60</ele>
	<time>2023-08-07T07:22:06.000Z</time>
</trkpt>
<trkpt lat="46.1156530" lon="10.5142520">
	<ele>2765.60</ele>
	<time>2023-08-07T07:22:07.000Z</time>
</trkpt>
<trkpt lat="46.1156530" lon="10.5142520">
	<ele>2765.60</ele>
	<time>2023-08-07T07:22:08.000Z</time>
</trkpt>
<trkpt lat="46.1156530" lon="10.5142510">
	<ele>2765.60</ele>
	<time>2023-08-07T07:22:09.000Z</time>
</trkpt>
<trkpt lat="46.1156530" lon="10.5142520">
	<ele>2765.60</ele>
	<time>2023-08-07T07:22:10.000Z</time>
</trkpt>
<trkpt lat="46.1156530" lon="10.5142520">
	<ele>2765.60</ele>
	<time>2023-08-07T07:22:11.000Z</time>
</trkpt>
<trkpt lat="46.1156530" lon="10.5142520">
	<ele>2765.60</ele>
	<time>2023-08-07T07:22:12.000Z</time>
</trkpt>
<trkpt lat="46.1156530" lon="10.5142520">
	<ele>2765.60</ele>
	<time>2023-08-07T07:22:13.000Z</time>
</trkpt>
<trkpt lat="46.1156530" lon="10.5142520">
	<ele>2765.60</ele>
	<time>2023-08-07T07:22:14.000Z</time>
</trkpt>
<trkpt lat="46.1156530" lon="10.5142520">
	<ele>2765.60</ele>
	<time>2023-08-07T07:22:15.000Z</time>
</trkpt>
<trkpt lat="46.1156530" lon="10.5142510">
	<ele>2765.60</ele>
	<time>2023-08-07T07:22:16.000Z</time>
</trkpt>
<trkpt lat="46.1156530" lon="10.5142510">
	<ele>2765.60</ele>
	<time>2023-08-07T07:22:17.000Z</time>
</trkpt>
<trkpt lat="46.1156530" lon="10.5142510">
	<ele>2765.60</ele>
	<time>2023-08-07T07:22:18.000Z</time>
</trkpt>
<trkpt lat="46.1156530" lon="10.5142510">
	<ele>2765.60</ele>
	<time>2023-08-07T07:22:19.000Z</time>
</trkpt>
<trkpt lat="46.1156530" lon="10.5142510">
	<ele>2765.60</ele>
	<time>2023-08-07T07:22:20.000Z</time>
</trkpt>
<trkpt lat="46.1156530" lon="10.5142510">
	<ele>2765.60</ele>
	<time>2023-08-07T07:22:21.000Z</time>
</trkpt>
<trkpt lat="46.1156530" lon="10.5142510">
	<ele>2765.60</ele>
	<time>2023-08-07T07:22:22.000Z</time>
</trkpt>
<trkpt lat="46.1156520" lon="10.5142510">
	<ele>2765.60</ele>
	<time>2023-08-07T07:22:23.000Z</time>
</trkpt>
<trkpt lat="46.1156520" lon="10.5142510">
	<ele>2765.60</ele>
	<time>2023-08-07T07:22:24.000Z</time>
</trkpt>
<trkpt lat="46.1156530" lon="10.5142510">
	<ele>2765.60</ele>
	<time>2023-08-07T07:22:25.000Z</time>
</trkpt>
<trkpt lat="46.1156530" lon="10.5142510">
	<ele>2765.60</ele>
	<time>2023-08-07T07:22:26.000Z</time>
</trkpt>
<trkpt lat="46.1156530" lon="10.5142510">
	<ele>2765.60</ele>
	<time>2023-08-07T07:22:27.000Z</time>
</trkpt>
<trkpt lat="46.1156530" lon="10.5142510">
	<ele>2765.60</ele>
	<time>2023-08-07T07:22:28.000Z</time>
</trkpt>
<trkpt lat="46.1156530" lon="10.5142510">
	<ele>2765.60</ele>
	<time>2023-08-07T07:22:29.000Z</time>
</trkpt>
<trkpt lat="46.1156530" lon="10.5142510">
	<ele>2765.60</ele>
	<time>2023-08-07T07:22:30.000Z</time>
</trkpt>
<trkpt lat="46.1156530" lon="10.5142510">
	<ele>2765.60</ele>
	<time>2023-08-07T07:22:31.000Z</time>
</trkpt>
<trkpt lat="46.1156530" lon="10.5142510">
	<ele>2765.60</ele>
	<time>2023-08-07T07:22:32.000Z</time>
</trkpt>
<trkpt lat="46.1156530" lon="10.5142520">
	<ele>2765.60</ele>
	<time>2023-08-07T07:22:33.000Z</time>
</trkpt>
<trkpt lat="46.1156530" lon="10.5142520">
	<ele>2765.60</ele>
	<time>2023-08-07T07:22:34.000Z</time>
</trkpt>
<trkpt lat="46.1156530" lon="10.5142520">
	<ele>2765.60</ele>
	<time>2023-08-07T07:22:35.000Z</time>
</trkpt>
<trkpt lat="46.1156530" lon="10.5142520">
	<ele>2765.60</ele>
	<time>2023-08-07T07:22:36.000Z</time>
</trkpt>
<trkpt lat="46.1156530" lon="10.5142520">
	<ele>2765.60</ele>
	<time>2023-08-07T07:22:37.000Z</time>
</trkpt>
<trkpt lat="46.1156530" lon="10.5142520">
	<ele>2765.60</ele>
	<time>2023-08-07T07:22:38.000Z</time>
</trkpt>
<trkpt lat="46.1156530" lon="10.5142520">
	<ele>2765.60</ele>
	<time>2023-08-07T07:22:39.000Z</time>
</trkpt>
<trkpt lat="46.1156530" lon="10.5142510">
	<ele>2765.60</ele>
	<time>2023-08-07T07:22:40.000Z</time>
</trkpt>
<trkpt lat="46.1156530" lon="10.5142510">
	<ele>2765.60</ele>
	<time>2023-08-07T07:22:41.000Z</time>
</trkpt>
<trkpt lat="46.1156520" lon="10.5142510">
	<ele>2765.60</ele>
	<time>2023-08-07T07:22:42.000Z</time>
</trkpt>
<trkpt lat="46.1156530" lon="10.5142520">
	<ele>2765.60</ele>
	<time>2023-08-07T07:22:43.000Z</time>
</trkpt>
<trkpt lat="46.1156520" lon="10.5142520">
	<ele>2765.60</ele>
	<time>2023-08-07T07:22:44.000Z</time>
</trkpt>
<trkpt lat="46.1156520" lon="10.5142520">
	<ele>2765.60</ele>
	<time>2023-08-07T07:22:45.000Z</time>
</trkpt>
<trkpt lat="46.1156520" lon="10.5142520">
	<ele>2765.60</ele>
	<time>2023-08-07T07:22:46.000Z</time>
</trkpt>
<trkpt lat="46.1156520" lon="10.5142520">
	<ele>2765.60</ele>
	<time>2023-08-07T07:22:47.000Z</time>
</trkpt>
<trkpt lat="46.1156520" lon="10.5142520">
	<ele>2765.60</ele>
	<time>2023-08-07T07:22:48.000Z</time>
</trkpt>
<trkpt lat="46.1156520" lon="10.5142520">
	<ele>2765.60</ele>
	<time>2023-08-07T07:22:49.000Z</time>
</trkpt>
<trkpt lat="46.1156520" lon="10.5142520">
	<ele>2765.60</ele>
	<time>2023-08-07T07:22:50.000Z</time>
</trkpt>
<trkpt lat="46.1156520" lon="10.5142520">
	<ele>2765.60</ele>
	<time>2023-08-07T07:22:51.000Z</time>
</trkpt>
<trkpt lat="46.1156520" lon="10.5142520">
	<ele>2765.60</ele>
	<time>2023-08-07T07:22:52.000Z</time>
</trkpt>
<trkpt lat="46.1156520" lon="10.5142520">
	<ele>2765.60</ele>
	<time>2023-08-07T07:22:53.000Z</time>
</trkpt>
<trkpt lat="46.1156520" lon="10.5142520">
	<ele>2765.60</ele>
	<time>2023-08-07T07:22:54.000Z</time>
</trkpt>
<trkpt lat="46.1156520" lon="10.5142520">
	<ele>2765.60</ele>
	<time>2023-08-07T07:22:55.000Z</time>
</trkpt>
<trkpt lat="46.1156520" lon="10.5142520">
	<ele>2765.60</ele>
	<time>2023-08-07T07:22:56.000Z</time>
</trkpt>
<trkpt lat="46.1156520" lon="10.5142520">
	<ele>2765.60</ele>
	<time>2023-08-07T07:22:57.000Z</time>
</trkpt>
<trkpt lat="46.1156520" lon="10.5142520">
	<ele>2765.60</ele>
	<time>2023-08-07T07:22:58.000Z</time>
</trkpt>
<trkpt lat="46.1156520" lon="10.5142520">
	<ele>2765.60</ele>
	<time>2023-08-07T07:22:59.000Z</time>
</trkpt>
<trkpt lat="46.1156520" lon="10.5142520">
	<ele>2765.60</ele>
	<time>2023-08-07T07:23:00.000Z</time>
</trkpt>
<trkpt lat="46.1156530" lon="10.5142520">
	<ele>2765.60</ele>
	<time>2023-08-07T07:23:01.000Z</time>
</trkpt>
<trkpt lat="46.1156520" lon="10.5142520">
	<ele>2765.60</ele>
	<time>2023-08-07T07:23:02.000Z</time>
</trkpt>
<trkpt lat="46.1156530" lon="10.5142520">
	<ele>2765.60</ele>
	<time>2023-08-07T07:23:03.000Z</time>
</trkpt>
<trkpt lat="46.1156520" lon="10.5142520">
	<ele>2765.60</ele>
	<time>2023-08-07T07:23:04.000Z</time>
</trkpt>
<trkpt lat="46.1156520" lon="10.5142520">
	<ele>2765.60</ele>
	<time>2023-08-07T07:23:05.000Z</time>
</trkpt>
<trkpt lat="46.1156520" lon="10.5142520">
	<ele>2765.60</ele>
	<time>2023-08-07T07:23:06.000Z</time>
</trkpt>
<trkpt lat="46.1156520" lon="10.5142520">
	<ele>2765.60</ele>
	<time>2023-08-07T07:23:07.000Z</time>
</trkpt>
<trkpt lat="46.1156520" lon="10.5142520">
	<ele>2765.60</ele>
	<time>2023-08-07T07:23:08.000Z</time>
</trkpt>
<trkpt lat="46.1156520" lon="10.5142520">
	<ele>2765.60</ele>
	<time>2023-08-07T07:23:09.000Z</time>
</trkpt>
<trkpt lat="46.1156520" lon="10.5142520">
	<ele>2765.60</ele>
	<time>2023-08-07T07:23:10.000Z</time>
</trkpt>
<trkpt lat="46.1156520" lon="10.5142520">
	<ele>2765.60</ele>
	<time>2023-08-07T07:23:11.000Z</time>
</trkpt>
<trkpt lat="46.1156520" lon="10.5142520">
	<ele>2765.60</ele>
	<time>2023-08-07T07:23:12.000Z</time>
</trkpt>
<trkpt lat="46.1156520" lon="10.5142520">
	<ele>2765.60</ele>
	<time>2023-08-07T07:23:13.000Z</time>
</trkpt>
<trkpt lat="46.1156520" lon="10.5142520">
	<ele>2765.60</ele>
	<time>2023-08-07T07:23:14.000Z</time>
</trkpt>
<trkpt lat="46.1156520" lon="10.5142520">
	<ele>2765.60</ele>
	<time>2023-08-07T07:23:15.000Z</time>
</trkpt>
<trkpt lat="46.1156520" lon="10.5142520">
	<ele>2765.60</ele>
	<time>2023-08-07T07:23:16.000Z</time>
</trkpt>
<trkpt lat="46.1156520" lon="10.5142520">
	<ele>2765.60</ele>
	<time>2023-08-07T07:23:17.000Z</time>
</trkpt>
<trkpt lat="46.1156520" lon="10.5142520">
	<ele>2765.60</ele>
	<time>2023-08-07T07:23:18.000Z</time>
</trkpt>
<trkpt lat="46.1156520" lon="10.5142520">
	<ele>2765.60</ele>
	<time>2023-08-07T07:23:19.000Z</time>
</trkpt>
<trkpt lat="46.1156520" lon="10.5142520">
	<ele>2765.60</ele>
	<time>2023-08-07T07:23:20.000Z</time>
</trkpt>
<trkpt lat="46.1156520" lon="10.5142520">
	<ele>2765.60</ele>
	<time>2023-08-07T07:23:21.000Z</time>
</trkpt>
<trkpt lat="46.1156520" lon="10.5142520">
	<ele>2765.60</ele>
	<time>2023-08-07T07:23:22.000Z</time>
</trkpt>
<trkpt lat="46.1156520" lon="10.5142520">
	<ele>2765.60</ele>
	<time>2023-08-07T07:23:23.000Z</time>
</trkpt>
<trkpt lat="46.1156520" lon="10.5142520">
	<ele>2765.60</ele>
	<time>2023-08-07T07:23:24.000Z</time>
</trkpt>
<trkpt lat="46.1156520" lon="10.5142520">
	<ele>2765.60</ele>
	<time>2023-08-07T07:23:25.000Z</time>
</trkpt>
<trkpt lat="46.1156520" lon="10.5142520">
	<ele>2765.60</ele>
	<time>2023-08-07T07:23:26.000Z</time>
</trkpt>
<trkpt lat="46.1156520" lon="10.5142520">
	<ele>2765.60</ele>
	<time>2023-08-07T07:23:27.000Z</time>
</trkpt>
<trkpt lat="46.1156520" lon="10.5142520">
	<ele>2765.60</ele>
	<time>2023-08-07T07:23:28.000Z</time>
</trkpt>
<trkpt lat="46.1156520" lon="10.5142520">
	<ele>2765.60</ele>
	<time>2023-08-07T07:23:29.000Z</time>
</trkpt>
<trkpt lat="46.1156520" lon="10.5142520">
	<ele>2765.60</ele>
	<time>2023-08-07T07:23:30.000Z</time>
</trkpt>
<trkpt lat="46.1156520" lon="10.5142520">
	<ele>2765.60</ele>
	<time>2023-08-07T07:23:31.000Z</time>
</trkpt>
<trkpt lat="46.1156520" lon="10.5142520">
	<ele>2765.60</ele>
	<time>2023-08-07T07:23:32.000Z</time>
</trkpt>
<trkpt lat="46.1156520" lon="10.5142520">
	<ele>2765.60</ele>
	<time>2023-08-07T07:23:33.000Z</time>
</trkpt>
<trkpt lat="46.1156520" lon="10.5142520">
	<ele>2765.60</ele>
	<time>2023-08-07T07:23:34.000Z</time>
</trkpt>
<trkpt lat="46.1156520" lon="10.5142520">
	<ele>2765.60</ele>
	<time>2023-08-07T07:23:35.000Z</time>
</trkpt>
<trkpt lat="46.1156520" lon="10.5142520">
	<ele>2765.60</ele>
	<time>2023-08-07T07:23:36.000Z</time>
</trkpt>
<trkpt lat="46.1156520" lon="10.5142520">
	<ele>2765.60</ele>
	<time>2023-08-07T07:23:37.000Z</time>
</trkpt>
<trkpt lat="46.1156520" lon="10.5142520">
	<ele>2765.60</ele>
	<time>2023-08-07T07:23:38.000Z</time>
</trkpt>
<trkpt lat="46.1156520" lon="10.5142520">
	<ele>2765.60</ele>
	<time>2023-08-07T07:23:39.000Z</time>
</trkpt>
<trkpt lat="46.1156520" lon="10.5142520">
	<ele>2765.60</ele>
	<time>2023-08-07T07:23:40.000Z</time>
</trkpt>
<trkpt lat="46.1156520" lon="10.5142520">
	<ele>2765.60</ele>
	<time>2023-08-07T07:23:41.000Z</time>
</trkpt>
<trkpt lat="46.1156520" lon="10.5142520">
	<ele>2765.60</ele>
	<time>2023-08-07T07:23:42.000Z</time>
</trkpt>
<trkpt lat="46.1156510" lon="10.5142520">
	<ele>2765.60</ele>
	<time>2023-08-07T07:23:43.000Z</time>
</trkpt>
<trkpt lat="46.1156510" lon="10.5142520">
	<ele>2765.60</ele>
	<time>2023-08-07T07:23:44.000Z</time>
</trkpt>
<trkpt lat="46.1156510" lon="10.5142520">
	<ele>2765.60</ele>
	<time>2023-08-07T07:23:45.000Z</time>
</trkpt>
<trkpt lat="46.1156510" lon="10.5142520">
	<ele>2765.60</ele>
	<time>2023-08-07T07:23:46.000Z</time>
</trkpt>
<trkpt lat="46.1156510" lon="10.5142520">
	<ele>2765.60</ele>
	<time>2023-08-07T07:23:47.000Z</time>
</trkpt>
<trkpt lat="46.1156510" lon="10.5142520">
	<ele>2765.60</ele>
	<time>2023-08-07T07:23:48.000Z</time>
</trkpt>
<trkpt lat="46.1156510" lon="10.5142520">
	<ele>2765.60</ele>
	<time>2023-08-07T07:23:49.000Z</time>
</trkpt>
<trkpt lat="46.1156510" lon="10.5142520">
	<ele>2765.60</ele>
	<time>2023-08-07T07:23:50.000Z</time>
</trkpt>
<trkpt lat="46.1156510" lon="10.5142520">
	<ele>2765.60</ele>
	<time>2023-08-07T07:23:51.000Z</time>
</trkpt>
<trkpt lat="46.1156510" lon="10.5142520">
	<ele>2765.60</ele>
	<time>2023-08-07T07:23:52.000Z</time>
</trkpt>
<trkpt lat="46.1156510" lon="10.5142520">
	<ele>2765.60</ele>
	<time>2023-08-07T07:23:53.000Z</time>
</trkpt>
<trkpt lat="46.1156510" lon="10.5142520">
	<ele>2765.60</ele>
	<time>2023-08-07T07:23:54.000Z</time>
</trkpt>
<trkpt lat="46.1156510" lon="10.5142520">
	<ele>2765.60</ele>
	<time>2023-08-07T07:23:55.000Z</time>
</trkpt>
<trkpt lat="46.1156510" lon="10.5142520">
	<ele>2765.60</ele>
	<time>2023-08-07T07:23:56.000Z</time>
</trkpt>
<trkpt lat="46.1156510" lon="10.5142520">
	<ele>2765.60</ele>
	<time>2023-08-07T07:23:57.000Z</time>
</trkpt>
<trkpt lat="46.1156510" lon="10.5142520">
	<ele>2765.60</ele>
	<time>2023-08-07T07:23:58.000Z</time>
</trkpt>
<trkpt lat="46.1156510" lon="10.5142520">
	<ele>2765.60</ele>
	<time>2023-08-07T07:23:59.000Z</time>
</trkpt>
<trkpt lat="46.1156510" lon="10.5142520">
	<ele>2765.60</ele>
	<time>2023-08-07T07:24:00.000Z</time>
</trkpt>
<trkpt lat="46.1156510" lon="10.5142520">
	<ele>2765.60</ele>
	<time>2023-08-07T07:24:01.000Z</time>
</trkpt>
<trkpt lat="46.1156510" lon="10.5142510">
	<ele>2765.60</ele>
	<time>2023-08-07T07:24:02.000Z</time>
</trkpt>
<trkpt lat="46.1156510" lon="10.5142510">
	<ele>2765.60</ele>
	<time>2023-08-07T07:24:03.000Z</time>
</trkpt>
<trkpt lat="46.1156510" lon="10.5142510">
	<ele>2765.60</ele>
	<time>2023-08-07T07:24:04.000Z</time>
</trkpt>
<trkpt lat="46.1156510" lon="10.5142510">
	<ele>2765.60</ele>
	<time>2023-08-07T07:24:05.000Z</time>
</trkpt>
<trkpt lat="46.1156510" lon="10.5142510">
	<ele>2765.60</ele>
	<time>2023-08-07T07:24:06.000Z</time>
</trkpt>
<trkpt lat="46.1156510" lon="10.5142510">
	<ele>2765.60</ele>
	<time>2023-08-07T07:24:07.000Z</time>
</trkpt>
<trkpt lat="46.1156510" lon="10.5142510">
	<ele>2765.60</ele>
	<time>2023-08-07T07:24:08.000Z</time>
</trkpt>
<trkpt lat="46.1156510" lon="10.5142510">
	<ele>2765.60</ele>
	<time>2023-08-07T07:24:09.000Z</time>
</trkpt>
<trkpt lat="46.1156510" lon="10.5142510">
	<ele>2765.60</ele>
	<time>2023-08-07T07:24:10.000Z</time>
</trkpt>
<trkpt lat="46.1156510" lon="10.5142510">
	<ele>2765.60</ele>
	<time>2023-08-07T07:24:11.000Z</time>
</trkpt>
<trkpt lat="46.1156510" lon="10.5142510">
	<ele>2765.60</ele>
	<time>2023-08-07T07:24:12.000Z</time>
</trkpt>
<trkpt lat="46.1156510" lon="10.5142510">
	<ele>2765.60</ele>
	<time>2023-08-07T07:24:13.000Z</time>
</trkpt>
<trkpt lat="46.1156510" lon="10.5142510">
	<ele>2765.60</ele>
	<time>2023-08-07T07:24:14.000Z</time>
</trkpt>
<trkpt lat="46.1156500" lon="10.5142510">
	<ele>2765.60</ele>
	<time>2023-08-07T07:24:15.000Z</time>
</trkpt>
<trkpt lat="46.1156510" lon="10.5142510">
	<ele>2765.60</ele>
	<time>2023-08-07T07:24:16.000Z</time>
</trkpt>
<trkpt lat="46.1156520" lon="10.5142510">
	<ele>2765.60</ele>
	<time>2023-08-07T07:24:17.000Z</time>
</trkpt>
<trkpt lat="46.1156520" lon="10.5142510">
	<ele>2765.60</ele>
	<time>2023-08-07T07:24:18.000Z</time>
</trkpt>
<trkpt lat="46.1156520" lon="10.5142510">
	<ele>2765.60</ele>
	<time>2023-08-07T07:24:19.000Z</time>
</trkpt>
<trkpt lat="46.1156520" lon="10.5142510">
	<ele>2765.60</ele>
	<time>2023-08-07T07:24:20.000Z</time>
</trkpt>
<trkpt lat="46.1156520" lon="10.5142510">
	<ele>2765.60</ele>
	<time>2023-08-07T07:24:21.000Z</time>
</trkpt>
<trkpt lat="46.1156520" lon="10.5142510">
	<ele>2765.60</ele>
	<time>2023-08-07T07:24:22.000Z</time>
</trkpt>
<trkpt lat="46.1156520" lon="10.5142510">
	<ele>2765.60</ele>
	<time>2023-08-07T07:24:23.000Z</time>
</trkpt>
<trkpt lat="46.1156520" lon="10.5142510">
	<ele>2765.60</ele>
	<time>2023-08-07T07:24:24.000Z</time>
</trkpt>
<trkpt lat="46.1156520" lon="10.5142510">
	<ele>2765.60</ele>
	<time>2023-08-07T07:24:25.000Z</time>
</trkpt>
<trkpt lat="46.1156520" lon="10.5142510">
	<ele>2765.60</ele>
	<time>2023-08-07T07:24:26.000Z</time>
</trkpt>
<trkpt lat="46.1156520" lon="10.5142510">
	<ele>2765.60</ele>
	<time>2023-08-07T07:24:27.000Z</time>
</trkpt>
<trkpt lat="46.1156520" lon="10.5142510">
	<ele>2765.60</ele>
	<time>2023-08-07T07:24:28.000Z</time>
</trkpt>
<trkpt lat="46.1156520" lon="10.5142510">
	<ele>2765.60</ele>
	<time>2023-08-07T07:24:29.000Z</time>
</trkpt>
<trkpt lat="46.1156520" lon="10.5142510">
	<ele>2765.60</ele>
	<time>2023-08-07T07:24:30.000Z</time>
</trkpt>
<trkpt lat="46.1156520" lon="10.5142510">
	<ele>2765.60</ele>
	<time>2023-08-07T07:24:31.000Z</time>
</trkpt>
<trkpt lat="46.1156520" lon="10.5142510">
	<ele>2765.60</ele>
	<time>2023-08-07T07:24:32.000Z</time>
</trkpt>
<trkpt lat="46.1156520" lon="10.5142510">
	<ele>2765.60</ele>
	<time>2023-08-07T07:24:33.000Z</time>
</trkpt>
<trkpt lat="46.1156410" lon="10.5142510">
	<ele>2765.60</ele>
	<time>2023-08-07T07:24:34.000Z</time>
</trkpt>
<trkpt lat="46.1156390" lon="10.5142470">
	<ele>2765.60</ele>
	<time>2023-08-07T07:24:35.000Z</time>
</trkpt>
<trkpt lat="46.1156390" lon="10.5142430">
	<ele>2765.60</ele>
	<time>2023-08-07T07:24:36.000Z</time>
</trkpt>
<trkpt lat="46.1156360" lon="10.5142420">
	<ele>2765.60</ele>
	<time>2023-08-07T07:24:37.000Z</time>
</trkpt>
<trkpt lat="46.1156300" lon="10.5142410">
	<ele>2765.60</ele>
	<time>2023-08-07T07:24:38.000Z</time>
</trkpt>
<trkpt lat="46.1156260" lon="10.5142400">
	<ele>2765.60</ele>
	<time>2023-08-07T07:24:39.000Z</time>
</trkpt>
<trkpt lat="46.1156320" lon="10.5142400">
	<ele>2765.60</ele>
	<time>2023-08-07T07:24:40.000Z</time>
</trkpt>
<trkpt lat="46.1156310" lon="10.5142350">
	<ele>2765.60</ele>
	<time>2023-08-07T07:24:41.000Z</time>
</trkpt>
<trkpt lat="46.1156250" lon="10.5142340">
	<ele>2765.60</ele>
	<time>2023-08-07T07:24:42.000Z</time>
</trkpt>
<trkpt lat="46.1156160" lon="10.5142370">
	<ele>2765.60</ele>
	<time>2023-08-07T07:24:43.000Z</time>
</trkpt>
<trkpt lat="46.1156120" lon="10.5142370">
	<ele>2765.60</ele>
	<time>2023-08-07T07:24:44.000Z</time>
</trkpt>
<trkpt lat="46.1156070" lon="10.5142360">
	<ele>2765.60</ele>
	<time>2023-08-07T07:24:45.000Z</time>
</trkpt>
<trkpt lat="46.1156030" lon="10.5142340">
	<ele>2765.60</ele>
	<time>2023-08-07T07:24:46.000Z</time>
</trkpt>
<trkpt lat="46.1156020" lon="10.5142320">
	<ele>2765.60</ele>
	<time>2023-08-07T07:24:47.000Z</time>
</trkpt>
<trkpt lat="46.1156040" lon="10.5142310">
	<ele>2765.60</ele>
	<time>2023-08-07T07:24:48.000Z</time>
</trkpt>
<trkpt lat="46.1156040" lon="10.5142310">
	<ele>2765.60</ele>
	<time>2023-08-07T07:24:49.000Z</time>
</trkpt>
<trkpt lat="46.1156040" lon="10.5142310">
	<ele>2765.60</ele>
	<time>2023-08-07T07:24:50.000Z</time>
</trkpt>
<trkpt lat="46.1156040" lon="10.5142310">
	<ele>2765.60</ele>
	<time>2023-08-07T07:24:51.000Z</time>
</trkpt>
<trkpt lat="46.1156040" lon="10.5142310">
	<ele>2765.60</ele>
	<time>2023-08-07T07:24:52.000Z</time>
</trkpt>
<trkpt lat="46.1156040" lon="10.5142310">
	<ele>2765.60</ele>
	<time>2023-08-07T07:24:53.000Z</time>
</trkpt>
<trkpt lat="46.1156070" lon="10.5142290">
	<ele>2765.60</ele>
	<time>2023-08-07T07:24:54.000Z</time>
</trkpt>
<trkpt lat="46.1156190" lon="10.5142330">
	<ele>2765.60</ele>
	<time>2023-08-07T07:24:55.000Z</time>
</trkpt>
<trkpt lat="46.1156250" lon="10.5142350">
	<ele>2765.60</ele>
	<time>2023-08-07T07:24:56.000Z</time>
</trkpt>
<trkpt lat="46.1156330" lon="10.5142340">
	<ele>2765.60</ele>
	<time>2023-08-07T07:24:57.000Z</time>
</trkpt>
<trkpt lat="46.1156410" lon="10.5142330">
	<ele>2765.60</ele>
	<time>2023-08-07T07:24:58.000Z</time>
</trkpt>
<trkpt lat="46.1156520" lon="10.5142280">
	<ele>2765.60</ele>
	<time>2023-08-07T07:24:59.000Z</time>
</trkpt>
<trkpt lat="46.1156630" lon="10.5142210">
	<ele>2765.60</ele>
	<time>2023-08-07T07:25:00.000Z</time>
</trkpt>
<trkpt lat="46.1156720" lon="10.5142150">
	<ele>2765.60</ele>
	<time>2023-08-07T07:25:01.000Z</time>
</trkpt>
<trkpt lat="46.1156780" lon="10.5142040">
	<ele>2765.60</ele>
	<time>2023-08-07T07:25:02.000Z</time>
</trkpt>
<trkpt lat="46.1156820" lon="10.5142020">
	<ele>2765.60</ele>
	<time>2023-08-07T07:25:03.000Z</time>
</trkpt>
<trkpt lat="46.1156850" lon="10.5142060">
	<ele>2765.60</ele>
	<time>2023-08-07T07:25:04.000Z</time>
</trkpt>
<trkpt lat="46.1156840" lon="10.5142090">
	<ele>2765.60</ele>
	<time>2023-08-07T07:25:05.000Z</time>
</trkpt>
<trkpt lat="46.1156820" lon="10.5142120">
	<ele>2765.60</ele>
	<time>2023-08-07T07:25:06.000Z</time>
</trkpt>
<trkpt lat="46.1156840" lon="10.5142030">
	<ele>2765.60</ele>
	<time>2023-08-07T07:25:07.000Z</time>
</trkpt>
<trkpt lat="46.1156820" lon="10.5142020">
	<ele>2765.60</ele>
	<time>2023-08-07T07:25:08.000Z</time>
</trkpt>
<trkpt lat="46.1156790" lon="10.5142010">
	<ele>2765.60</ele>
	<time>2023-08-07T07:25:09.000Z</time>
</trkpt>
<trkpt lat="46.1156940" lon="10.5141920">
	<ele>2765.60</ele>
	<time>2023-08-07T07:25:10.000Z</time>
</trkpt>
<trkpt lat="46.1157070" lon="10.5141820">
	<ele>2765.60</ele>
	<time>2023-08-07T07:25:11.000Z</time>
</trkpt>
<trkpt lat="46.1157210" lon="10.5141820">
	<ele>2765.60</ele>
	<time>2023-08-07T07:25:12.000Z</time>
</trkpt>
<trkpt lat="46.1157220" lon="10.5141820">
	<ele>2765.60</ele>
	<time>2023-08-07T07:25:13.000Z</time>
</trkpt>
<trkpt lat="46.1157240" lon="10.5141770">
	<ele>2765.60</ele>
	<time>2023-08-07T07:25:14.000Z</time>
</trkpt>
<trkpt lat="46.1157330" lon="10.5141720">
	<ele>2765.60</ele>
	<time>2023-08-07T07:25:15.000Z</time>
</trkpt>
<trkpt lat="46.1157360" lon="10.5141730">
	<ele>2765.60</ele>
	<time>2023-08-07T07:25:16.000Z</time>
</trkpt>
<trkpt lat="46.1157410" lon="10.5141710">
	<ele>2765.60</ele>
	<time>2023-08-07T07:25:17.000Z</time>
</trkpt>
<trkpt lat="46.1157430" lon="10.5141720">
	<ele>2765.60</ele>
	<time>2023-08-07T07:25:18.000Z</time>
</trkpt>
<trkpt lat="46.1157390" lon="10.5141760">
	<ele>2765.60</ele>
	<time>2023-08-07T07:25:19.000Z</time>
</trkpt>
<trkpt lat="46.1157430" lon="10.5141770">
	<ele>2765.60</ele>
	<time>2023-08-07T07:25:20.000Z</time>
</trkpt>
<trkpt lat="46.1157450" lon="10.5141770">
	<ele>2765.60</ele>
	<time>2023-08-07T07:25:21.000Z</time>
</trkpt>
<trkpt lat="46.1157490" lon="10.5141800">
	<ele>2765.60</ele>
	<time>2023-08-07T07:25:22.000Z</time>
</trkpt>
<trkpt lat="46.1157470" lon="10.5141810">
	<ele>2765.60</ele>
	<time>2023-08-07T07:25:23.000Z</time>
</trkpt>
<trkpt lat="46.1157480" lon="10.5141820">
	<ele>2765.60</ele>
	<time>2023-08-07T07:25:24.000Z</time>
</trkpt>
<trkpt lat="46.1157470" lon="10.5141830">
	<ele>2765.60</ele>
	<time>2023-08-07T07:25:25.000Z</time>
</trkpt>
<trkpt lat="46.1157460" lon="10.5141840">
	<ele>2765.60</ele>
	<time>2023-08-07T07:25:26.000Z</time>
</trkpt>
<trkpt lat="46.1157410" lon="10.5141830">
	<ele>2765.60</ele>
	<time>2023-08-07T07:25:27.000Z</time>
</trkpt>
<trkpt lat="46.1157420" lon="10.5141780">
	<ele>2765.60</ele>
	<time>2023-08-07T07:25:28.000Z</time>
</trkpt>
<trkpt lat="46.1157420" lon="10.5141740">
	<ele>2765.60</ele>
	<time>2023-08-07T07:25:29.000Z</time>
</trkpt>
<trkpt lat="46.1157410" lon="10.5141670">
	<ele>2765.60</ele>
	<time>2023-08-07T07:25:30.000Z</time>
</trkpt>
<trkpt lat="46.1157440" lon="10.5141680">
	<ele>2765.60</ele>
	<time>2023-08-07T07:25:31.000Z</time>
</trkpt>
<trkpt lat="46.1157470" lon="10.5141670">
	<ele>2765.60</ele>
	<time>2023-08-07T07:25:32.000Z</time>
</trkpt>
<trkpt lat="46.1157470" lon="10.5141650">
	<ele>2765.60</ele>
	<time>2023-08-07T07:25:33.000Z</time>
</trkpt>
<trkpt lat="46.1157450" lon="10.5141630">
	<ele>2765.60</ele>
	<time>2023-08-07T07:25:34.000Z</time>
</trkpt>
<trkpt lat="46.1157440" lon="10.5141620">
	<ele>2765.60</ele>
	<time>2023-08-07T07:25:35.000Z</time>
</trkpt>
<trkpt lat="46.1157460" lon="10.5141750">
	<ele>2765.60</ele>
	<time>2023-08-07T07:25:36.000Z</time>
</trkpt>
<trkpt lat="46.1157520" lon="10.5141820">
	<ele>2765.60</ele>
	<time>2023-08-07T07:25:37.000Z</time>
</trkpt>
<trkpt lat="46.1157620" lon="10.5141910">
	<ele>2765.60</ele>
	<time>2023-08-07T07:25:38.000Z</time>
</trkpt>
<trkpt lat="46.1157600" lon="10.5141940">
	<ele>2765.60</ele>
	<time>2023-08-07T07:25:39.000Z</time>
</trkpt>
<trkpt lat="46.1157550" lon="10.5141970">
	<ele>2765.60</ele>
	<time>2023-08-07T07:25:40.000Z</time>
</trkpt>
<trkpt lat="46.1157450" lon="10.5142040">
	<ele>2765.60</ele>
	<time>2023-08-07T07:25:41.000Z</time>
</trkpt>
<trkpt lat="46.1157420" lon="10.5142080">
	<ele>2765.60</ele>
	<time>2023-08-07T07:25:42.000Z</time>
</trkpt>
<trkpt lat="46.1157450" lon="10.5142080">
	<ele>2765.60</ele>
	<time>2023-08-07T07:25:43.000Z</time>
</trkpt>
<trkpt lat="46.1157480" lon="10.5142100">
	<ele>2765.60</ele>
	<time>2023-08-07T07:25:44.000Z</time>
</trkpt>
<trkpt lat="46.1157480" lon="10.5142180">
	<ele>2765.60</ele>
	<time>2023-08-07T07:25:45.000Z</time>
</trkpt>
<trkpt lat="46.1157540" lon="10.5142310">
	<ele>2765.60</ele>
	<time>2023-08-07T07:25:46.000Z</time>
</trkpt>
<trkpt lat="46.1157560" lon="10.5142400">
	<ele>2765.60</ele>
	<time>2023-08-07T07:25:47.000Z</time>
</trkpt>
<trkpt lat="46.1157470" lon="10.5142460">
	<ele>2765.60</ele>
	<time>2023-08-07T07:25:48.000Z</time>
</trkpt>
<trkpt lat="46.1157450" lon="10.5142440">
	<ele>2765.60</ele>
	<time>2023-08-07T07:25:49.000Z</time>
</trkpt>
<trkpt lat="46.1157420" lon="10.5142450">
	<ele>2765.60</ele>
	<time>2023-08-07T07:25:50.000Z</time>
</trkpt>
<trkpt lat="46.1157420" lon="10.5142460">
	<ele>2765.60</ele>
	<time>2023-08-07T07:25:51.000Z</time>
</trkpt>
<trkpt lat="46.1157440" lon="10.5142490">
	<ele>2765.60</ele>
	<time>2023-08-07T07:25:52.000Z</time>
</trkpt>
<trkpt lat="46.1157440" lon="10.5142530">
	<ele>2765.60</ele>
	<time>2023-08-07T07:25:53.000Z</time>
</trkpt>
<trkpt lat="46.1157380" lon="10.5142580">
	<ele>2765.60</ele>
	<time>2023-08-07T07:25:54.000Z</time>
</trkpt>
<trkpt lat="46.1157390" lon="10.5142590">
	<ele>2765.60</ele>
	<time>2023-08-07T07:25:55.000Z</time>
</trkpt>
<trkpt lat="46.1157340" lon="10.5142630">
	<ele>2765.60</ele>
	<time>2023-08-07T07:25:56.000Z</time>
</trkpt>
<trkpt lat="46.1157280" lon="10.5142630">
	<ele>2765.60</ele>
	<time>2023-08-07T07:25:57.000Z</time>
</trkpt>
<trkpt lat="46.1157280" lon="10.5142640">
	<ele>2765.60</ele>
	<time>2023-08-07T07:25:58.000Z</time>
</trkpt>
<trkpt lat="46.1157290" lon="10.5142650">
	<ele>2765.60</ele>
	<time>2023-08-07T07:25:59.000Z</time>
</trkpt>
<trkpt lat="46.1157300" lon="10.5142650">
	<ele>2765.60</ele>
	<time>2023-08-07T07:26:00.000Z</time>
</trkpt>
<trkpt lat="46.1157370" lon="10.5142570">
	<ele>2765.60</ele>
	<time>2023-08-07T07:26:01.000Z</time>
</trkpt>
<trkpt lat="46.1157380" lon="10.5142530">
	<ele>2765.60</ele>
	<time>2023-08-07T07:26:02.000Z</time>
</trkpt>
<trkpt lat="46.1157330" lon="10.5142540">
	<ele>2765.60</ele>
	<time>2023-08-07T07:26:03.000Z</time>
</trkpt>
<trkpt lat="46.1157360" lon="10.5142540">
	<ele>2765.60</ele>
	<time>2023-08-07T07:26:04.000Z</time>
</trkpt>
<trkpt lat="46.1157410" lon="10.5142540">
	<ele>2765.60</ele>
	<time>2023-08-07T07:26:05.000Z</time>
</trkpt>
<trkpt lat="46.1157410" lon="10.5142540">
	<ele>2765.60</ele>
	<time>2023-08-07T07:26:06.000Z</time>
</trkpt>
<trkpt lat="46.1157410" lon="10.5142540">
	<ele>2765.60</ele>
	<time>2023-08-07T07:26:07.000Z</time>
</trkpt>
<trkpt lat="46.1157410" lon="10.5142540">
	<ele>2765.60</ele>
	<time>2023-08-07T07:26:08.000Z</time>
</trkpt>
<trkpt lat="46.1157410" lon="10.5142540">
	<ele>2765.60</ele>
	<time>2023-08-07T07:26:09.000Z</time>
</trkpt>
<trkpt lat="46.1157410" lon="10.5142540">
	<ele>2765.60</ele>
	<time>2023-08-07T07:26:10.000Z</time>
</trkpt>
<trkpt lat="46.1157410" lon="10.5142540">
	<ele>2765.60</ele>
	<time>2023-08-07T07:26:11.000Z</time>
</trkpt>
<trkpt lat="46.1157410" lon="10.5142540">
	<ele>2765.60</ele>
	<time>2023-08-07T07:26:12.000Z</time>
</trkpt>
<trkpt lat="46.1157410" lon="10.5142540">
	<ele>2765.60</ele>
	<time>2023-08-07T07:26:13.000Z</time>
</trkpt>
<trkpt lat="46.1157410" lon="10.5142540">
	<ele>2765.60</ele>
	<time>2023-08-07T07:26:14.000Z</time>
</trkpt>
<trkpt lat="46.1157410" lon="10.5142540">
	<ele>2765.60</ele>
	<time>2023-08-07T07:26:15.000Z</time>
</trkpt>
<trkpt lat="46.1157410" lon="10.5142540">
	<ele>2765.60</ele>
	<time>2023-08-07T07:26:16.000Z</time>
</trkpt>
<trkpt lat="46.1157410" lon="10.5142540">
	<ele>2765.60</ele>
	<time>2023-08-07T07:26:17.000Z</time>
</trkpt>
<trkpt lat="46.1157400" lon="10.5142550">
	<ele>2765.60</ele>
	<time>2023-08-07T07:26:18.000Z</time>
</trkpt>
<trkpt lat="46.1157390" lon="10.5142550">
	<ele>2765.60</ele>
	<time>2023-08-07T07:26:19.000Z</time>
</trkpt>
<trkpt lat="46.1157390" lon="10.5142550">
	<ele>2765.60</ele>
	<time>2023-08-07T07:26:20.000Z</time>
</trkpt>
<trkpt lat="46.1157390" lon="10.5142550">
	<ele>2765.60</ele>
	<time>2023-08-07T07:26:21.000Z</time>
</trkpt>
<trkpt lat="46.1157380" lon="10.5142550">
	<ele>2765.60</ele>
	<time>2023-08-07T07:26:22.000Z</time>
</trkpt>
<trkpt lat="46.1157380" lon="10.5142550">
	<ele>2765.60</ele>
	<time>2023-08-07T07:26:23.000Z</time>
</trkpt>
<trkpt lat="46.1157380" lon="10.5142550">
	<ele>2765.60</ele>
	<time>2023-08-07T07:26:24.000Z</time>
</trkpt>
<trkpt lat="46.1157370" lon="10.5142550">
	<ele>2765.60</ele>
	<time>2023-08-07T07:26:25.000Z</time>
</trkpt>
<trkpt lat="46.1157360" lon="10.5142550">
	<ele>2765.60</ele>
	<time>2023-08-07T07:26:26.000Z</time>
</trkpt>
<trkpt lat="46.1157360" lon="10.5142550">
	<ele>2765.60</ele>
	<time>2023-08-07T07:26:27.000Z</time>
</trkpt>
<trkpt lat="46.1157360" lon="10.5142540">
	<ele>2765.60</ele>
	<time>2023-08-07T07:26:28.000Z</time>
</trkpt>
<trkpt lat="46.1157360" lon="10.5142540">
	<ele>2765.60</ele>
	<time>2023-08-07T07:26:29.000Z</time>
</trkpt>
<trkpt lat="46.1157360" lon="10.5142540">
	<ele>2765.60</ele>
	<time>2023-08-07T07:26:30.000Z</time>
</trkpt>
<trkpt lat="46.1157340" lon="10.5142540">
	<ele>2765.60</ele>
	<time>2023-08-07T07:26:31.000Z</time>
</trkpt>
<trkpt lat="46.1157330" lon="10.5142540">
	<ele>2765.60</ele>
	<time>2023-08-07T07:26:32.000Z</time>
</trkpt>
<trkpt lat="46.1157320" lon="10.5142540">
	<ele>2765.60</ele>
	<time>2023-08-07T07:26:33.000Z</time>
</trkpt>
<trkpt lat="46.1157310" lon="10.5142540">
	<ele>2765.60</ele>
	<time>2023-08-07T07:26:34.000Z</time>
</trkpt>
<trkpt lat="46.1157300" lon="10.5142540">
	<ele>2765.60</ele>
	<time>2023-08-07T07:26:35.000Z</time>
</trkpt>
<trkpt lat="46.1157300" lon="10.5142540">
	<ele>2765.60</ele>
	<time>2023-08-07T07:26:36.000Z</time>
</trkpt>
<trkpt lat="46.1157290" lon="10.5142530">
	<ele>2765.60</ele>
	<time>2023-08-07T07:26:37.000Z</time>
</trkpt>
<trkpt lat="46.1157290" lon="10.5142520">
	<ele>2765.60</ele>
	<time>2023-08-07T07:26:38.000Z</time>
</trkpt>
<trkpt lat="46.1157280" lon="10.5142520">
	<ele>2765.60</ele>
	<time>2023-08-07T07:26:39.000Z</time>
</trkpt>
<trkpt lat="46.1157280" lon="10.5142510">
	<ele>2765.60</ele>
	<time>2023-08-07T07:26:40.000Z</time>
</trkpt>
<trkpt lat="46.1157280" lon="10.5142510">
	<ele>2765.60</ele>
	<time>2023-08-07T07:26:41.000Z</time>
</trkpt>
<trkpt lat="46.1157270" lon="10.5142500">
	<ele>2765.60</ele>
	<time>2023-08-07T07:26:42.000Z</time>
</trkpt>
<trkpt lat="46.1157260" lon="10.5142500">
	<ele>2765.60</ele>
	<time>2023-08-07T07:26:43.000Z</time>
</trkpt>
<trkpt lat="46.1157250" lon="10.5142490">
	<ele>2765.60</ele>
	<time>2023-08-07T07:26:44.000Z</time>
</trkpt>
<trkpt lat="46.1157240" lon="10.5142490">
	<ele>2765.60</ele>
	<time>2023-08-07T07:26:45.000Z</time>
</trkpt>
<trkpt lat="46.1157240" lon="10.5142490">
	<ele>2765.60</ele>
	<time>2023-08-07T07:26:46.000Z</time>
</trkpt>
<trkpt lat="46.1157230" lon="10.5142490">
	<ele>2765.60</ele>
	<time>2023-08-07T07:26:47.000Z</time>
</trkpt>
<trkpt lat="46.1157230" lon="10.5142490">
	<ele>2765.60</ele>
	<time>2023-08-07T07:26:48.000Z</time>
</trkpt>
<trkpt lat="46.1157230" lon="10.5142490">
	<ele>2765.60</ele>
	<time>2023-08-07T07:26:49.000Z</time>
</trkpt>
<trkpt lat="46.1157230" lon="10.5142490">
	<ele>2765.60</ele>
	<time>2023-08-07T07:26:50.000Z</time>
</trkpt>
<trkpt lat="46.1157230" lon="10.5142500">
	<ele>2765.60</ele>
	<time>2023-08-07T07:26:51.000Z</time>
</trkpt>
<trkpt lat="46.1157220" lon="10.5142500">
	<ele>2765.60</ele>
	<time>2023-08-07T07:26:52.000Z</time>
</trkpt>
<trkpt lat="46.1157220" lon="10.5142500">
	<ele>2765.60</ele>
	<time>2023-08-07T07:26:53.000Z</time>
</trkpt>
<trkpt lat="46.1157210" lon="10.5142500">
	<ele>2765.60</ele>
	<time>2023-08-07T07:26:54.000Z</time>
</trkpt>
<trkpt lat="46.1157200" lon="10.5142500">
	<ele>2765.60</ele>
	<time>2023-08-07T07:26:55.000Z</time>
</trkpt>
<trkpt lat="46.1157200" lon="10.5142500">
	<ele>2765.60</ele>
	<time>2023-08-07T07:26:56.000Z</time>
</trkpt>
<trkpt lat="46.1157180" lon="10.5142500">
	<ele>2765.60</ele>
	<time>2023-08-07T07:26:57.000Z</time>
</trkpt>
<trkpt lat="46.1157180" lon="10.5142500">
	<ele>2765.60</ele>
	<time>2023-08-07T07:26:58.000Z</time>
</trkpt>
<trkpt lat="46.1157170" lon="10.5142500">
	<ele>2765.60</ele>
	<time>2023-08-07T07:26:59.000Z</time>
</trkpt>
<trkpt lat="46.1157110" lon="10.5142530">
	<ele>2765.60</ele>
	<time>2023-08-07T07:27:00.000Z</time>
</trkpt>
<trkpt lat="46.1157080" lon="10.5142540">
	<ele>2765.60</ele>
	<time>2023-08-07T07:27:01.000Z</time>
</trkpt>
<trkpt lat="46.1157050" lon="10.5142540">
	<ele>2765.60</ele>
	<time>2023-08-07T07:27:02.000Z</time>
</trkpt>
<trkpt lat="46.1157030" lon="10.5142550">
	<ele>2765.60</ele>
	<time>2023-08-07T07:27:03.000Z</time>
</trkpt>
<trkpt lat="46.1157020" lon="10.5142560">
	<ele>2765.60</ele>
	<time>2023-08-07T07:27:04.000Z</time>
</trkpt>
<trkpt lat="46.1156990" lon="10.5142570">
	<ele>2765.60</ele>
	<time>2023-08-07T07:27:05.000Z</time>
</trkpt>
<trkpt lat="46.1156980" lon="10.5142580">
	<ele>2765.60</ele>
	<time>2023-08-07T07:27:06.000Z</time>
</trkpt>
<trkpt lat="46.1156900" lon="10.5142590">
	<ele>2765.60</ele>
	<time>2023-08-07T07:27:07.000Z</time>
</trkpt>
<trkpt lat="46.1156870" lon="10.5142600">
	<ele>2765.60</ele>
	<time>2023-08-07T07:27:08.000Z</time>
</trkpt>
<trkpt lat="46.1156850" lon="10.5142620">
	<ele>2765.60</ele>
	<time>2023-08-07T07:27:09.000Z</time>
</trkpt>
<trkpt lat="46.1156850" lon="10.5142630">
	<ele>2765.60</ele>
	<time>2023-08-07T07:27:10.000Z</time>
</trkpt>
<trkpt lat="46.1156840" lon="10.5142640">
	<ele>2765.60</ele>
	<time>2023-08-07T07:27:11.000Z</time>
</trkpt>
<trkpt lat="46.1156840" lon="10.5142650">
	<ele>2765.60</ele>
	<time>2023-08-07T07:27:12.000Z</time>
</trkpt>
<trkpt lat="46.1156840" lon="10.5142650">
	<ele>2765.60</ele>
	<time>2023-08-07T07:27:13.000Z</time>
</trkpt>
<trkpt lat="46.1156840" lon="10.5142650">
	<ele>2765.60</ele>
	<time>2023-08-07T07:27:14.000Z</time>
</trkpt>
<trkpt lat="46.1156840" lon="10.5142650">
	<ele>2765.60</ele>
	<time>2023-08-07T07:27:15.000Z</time>
</trkpt>
<trkpt lat="46.1156840" lon="10.5142650">
	<ele>2765.60</ele>
	<time>2023-08-07T07:27:16.000Z</time>
</trkpt>
<trkpt lat="46.1156840" lon="10.5142660">
	<ele>2765.60</ele>
	<time>2023-08-07T07:27:17.000Z</time>
</trkpt>
<trkpt lat="46.1156840" lon="10.5142660">
	<ele>2765.60</ele>
	<time>2023-08-07T07:27:18.000Z</time>
</trkpt>
<trkpt lat="46.1156840" lon="10.5142660">
	<ele>2765.60</ele>
	<time>2023-08-07T07:27:19.000Z</time>
</trkpt>
<trkpt lat="46.1156840" lon="10.5142660">
	<ele>2765.60</ele>
	<time>2023-08-07T07:27:20.000Z</time>
</trkpt>
<trkpt lat="46.1156840" lon="10.5142660">
	<ele>2765.60</ele>
	<time>2023-08-07T07:27:21.000Z</time>
</trkpt>
<trkpt lat="46.1156840" lon="10.5142670">
	<ele>2765.60</ele>
	<time>2023-08-07T07:27:22.000Z</time>
</trkpt>
<trkpt lat="46.1156840" lon="10.5142670">
	<ele>2765.60</ele>
	<time>2023-08-07T07:27:23.000Z</time>
</trkpt>
<trkpt lat="46.1156840" lon="10.5142670">
	<ele>2765.60</ele>
	<time>2023-08-07T07:27:24.000Z</time>
</trkpt>
<trkpt lat="46.1156830" lon="10.5142700">
	<ele>2765.60</ele>
	<time>2023-08-07T07:27:25.000Z</time>
</trkpt>
<trkpt lat="46.1156760" lon="10.5142670">
	<ele>2765.60</ele>
	<time>2023-08-07T07:27:26.000Z</time>
</trkpt>
<trkpt lat="46.1156710" lon="10.5142670">
	<ele>2765.60</ele>
	<time>2023-08-07T07:27:27.000Z</time>
</trkpt>
<trkpt lat="46.1156650" lon="10.5142710">
	<ele>2765.60</ele>
	<time>2023-08-07T07:27:28.000Z</time>
</trkpt>
<trkpt lat="46.1156600" lon="10.5142700">
	<ele>2765.60</ele>
	<time>2023-08-07T07:27:29.000Z</time>
</trkpt>
<trkpt lat="46.1156560" lon="10.5142710">
	<ele>2765.60</ele>
	<time>2023-08-07T07:27:30.000Z</time>
</trkpt>
<trkpt lat="46.1156530" lon="10.5142750">
	<ele>2765.60</ele>
	<time>2023-08-07T07:27:31.000Z</time>
</trkpt>
<trkpt lat="46.1156490" lon="10.5142640">
	<ele>2765.60</ele>
	<time>2023-08-07T07:27:32.000Z</time>
</trkpt>
<trkpt lat="46.1156450" lon="10.5142640">
	<ele>2765.60</ele>
	<time>2023-08-07T07:27:33.000Z</time>
</trkpt>
<trkpt lat="46.1156460" lon="10.5142630">
	<ele>2765.60</ele>
	<time>2023-08-07T07:27:34.000Z</time>
</trkpt>
<trkpt lat="46.1156430" lon="10.5142630">
	<ele>2765.60</ele>
	<time>2023-08-07T07:27:35.000Z</time>
</trkpt>
<trkpt lat="46.1156370" lon="10.5142670">
	<ele>2765.60</ele>
	<time>2023-08-07T07:27:36.000Z</time>
</trkpt>
<trkpt lat="46.1156310" lon="10.5142650">
	<ele>2765.60</ele>
	<time>2023-08-07T07:27:37.000Z</time>
</trkpt>
<trkpt lat="46.1156230" lon="10.5142560">
	<ele>2765.60</ele>
	<time>2023-08-07T07:27:38.000Z</time>
</trkpt>
<trkpt lat="46.1156120" lon="10.5142460">
	<ele>2765.60</ele>
	<time>2023-08-07T07:27:39.000Z</time>
</trkpt>
<trkpt lat="46.1156120" lon="10.5142430">
	<ele>2765.60</ele>
	<time>2023-08-07T07:27:40.000Z</time>
</trkpt>
<trkpt lat="46.1156110" lon="10.5142420">
	<ele>2765.60</ele>
	<time>2023-08-07T07:27:41.000Z</time>
</trkpt>
<trkpt lat="46.1156080" lon="10.5142430">
	<ele>2765.60</ele>
	<time>2023-08-07T07:27:42.000Z</time>
</trkpt>
<trkpt lat="46.1156040" lon="10.5142410">
	<ele>2765.60</ele>
	<time>2023-08-07T07:27:43.000Z</time>
</trkpt>
<trkpt lat="46.1156090" lon="10.5142520">
	<ele>2765.60</ele>
	<time>2023-08-07T07:27:44.000Z</time>
</trkpt>
<trkpt lat="46.1156110" lon="10.5142490">
	<ele>2765.60</ele>
	<time>2023-08-07T07:27:45.000Z</time>
</trkpt>
<trkpt lat="46.1156120" lon="10.5142500">
	<ele>2765.60</ele>
	<time>2023-08-07T07:27:46.000Z</time>
</trkpt>
<trkpt lat="46.1156130" lon="10.5142510">
	<ele>2765.60</ele>
	<time>2023-08-07T07:27:47.000Z</time>
</trkpt>
<trkpt lat="46.1156140" lon="10.5142500">
	<ele>2765.60</ele>
	<time>2023-08-07T07:27:48.000Z</time>
</trkpt>
<trkpt lat="46.1156130" lon="10.5142470">
	<ele>2765.60</ele>
	<time>2023-08-07T07:27:49.000Z</time>
</trkpt>
<trkpt lat="46.1156130" lon="10.5142470">
	<ele>2765.60</ele>
	<time>2023-08-07T07:27:50.000Z</time>
</trkpt>
<trkpt lat="46.1156040" lon="10.5142520">
	<ele>2765.60</ele>
	<time>2023-08-07T07:27:51.000Z</time>
</trkpt>
<trkpt lat="46.1156070" lon="10.5142590">
	<ele>2765.60</ele>
	<time>2023-08-07T07:27:52.000Z</time>
</trkpt>
<trkpt lat="46.1156100" lon="10.5142610">
	<ele>2765.60</ele>
	<time>2023-08-07T07:27:53.000Z</time>
</trkpt>
<trkpt lat="46.1156140" lon="10.5142640">
	<ele>2765.60</ele>
	<time>2023-08-07T07:27:54.000Z</time>
</trkpt>
<trkpt lat="46.1156200" lon="10.5142640">
	<ele>2765.60</ele>
	<time>2023-08-07T07:27:55.000Z</time>
</trkpt>
<trkpt lat="46.1156240" lon="10.5142670">
	<ele>2765.60</ele>
	<time>2023-08-07T07:27:56.000Z</time>
</trkpt>
<trkpt lat="46.1156240" lon="10.5142670">
	<ele>2765.60</ele>
	<time>2023-08-07T07:27:57.000Z</time>
</trkpt>
<trkpt lat="46.1156230" lon="10.5142700">
	<ele>2765.60</ele>
	<time>2023-08-07T07:27:58.000Z</time>
</trkpt>
<trkpt lat="46.1156250" lon="10.5142690">
	<ele>2765.60</ele>
	<time>2023-08-07T07:27:59.000Z</time>
</trkpt>
<trkpt lat="46.1156260" lon="10.5142670">
	<ele>2765.60</ele>
	<time>2023-08-07T07:28:00.000Z</time>
</trkpt>
<trkpt lat="46.1156260" lon="10.5142670">
	<ele>2765.60</ele>
	<time>2023-08-07T07:28:01.000Z</time>
</trkpt>
<trkpt lat="46.1156260" lon="10.5142670">
	<ele>2765.60</ele>
	<time>2023-08-07T07:28:02.000Z</time>
</trkpt>
<trkpt lat="46.1156260" lon="10.5142670">
	<ele>2765.60</ele>
	<time>2023-08-07T07:28:03.000Z</time>
</trkpt>
<trkpt lat="46.1156260" lon="10.5142670">
	<ele>2765.60</ele>
	<time>2023-08-07T07:28:04.000Z</time>
</trkpt>
<trkpt lat="46.1156260" lon="10.5142670">
	<ele>2765.60</ele>
	<time>2023-08-07T07:28:05.000Z</time>
</trkpt>
<trkpt lat="46.1156260" lon="10.5142670">
	<ele>2765.60</ele>
	<time>2023-08-07T07:28:06.000Z</time>
</trkpt>
<trkpt lat="46.1156260" lon="10.5142670">
	<ele>2765.60</ele>
	<time>2023-08-07T07:28:07.000Z</time>
</trkpt>
<trkpt lat="46.1156260" lon="10.5142670">
	<ele>2765.60</ele>
	<time>2023-08-07T07:28:08.000Z</time>
</trkpt>
<trkpt lat="46.1156260" lon="10.5142670">
	<ele>2765.60</ele>
	<time>2023-08-07T07:28:09.000Z</time>
</trkpt>
<trkpt lat="46.1156260" lon="10.5142670">
	<ele>2765.60</ele>
	<time>2023-08-07T07:28:10.000Z</time>
</trkpt>
<trkpt lat="46.1156260" lon="10.5142670">
	<ele>2765.60</ele>
	<time>2023-08-07T07:28:11.000Z</time>
</trkpt>
<trkpt lat="46.1156260" lon="10.5142670">
	<ele>2765.60</ele>
	<time>2023-08-07T07:28:12.000Z</time>
</trkpt>
<trkpt lat="46.1156260" lon="10.5142670">
	<ele>2765.60</ele>
	<time>2023-08-07T07:28:13.000Z</time>
</trkpt>
<trkpt lat="46.1156260" lon="10.5142670">
	<ele>2765.60</ele>
	<time>2023-08-07T07:28:14.000Z</time>
</trkpt>
<trkpt lat="46.1156260" lon="10.5142670">
	<ele>2765.60</ele>
	<time>2023-08-07T07:28:15.000Z</time>
</trkpt>
<trkpt lat="46.1156260" lon="10.5142670">
	<ele>2765.60</ele>
	<time>2023-08-07T07:28:16.000Z</time>
</trkpt>
<trkpt lat="46.1156260" lon="10.5142670">
	<ele>2765.60</ele>
	<time>2023-08-07T07:28:17.000Z</time>
</trkpt>
<trkpt lat="46.1156260" lon="10.5142670">
	<ele>2765.60</ele>
	<time>2023-08-07T07:28:18.000Z</time>
</trkpt>
<trkpt lat="46.1156260" lon="10.5142670">
	<ele>2765.60</ele>
	<time>2023-08-07T07:28:19.000Z</time>
</trkpt>
<trkpt lat="46.1156260" lon="10.5142690">
	<ele>2765.60</ele>
	<time>2023-08-07T07:28:20.000Z</time>
</trkpt>
<trkpt lat="46.1156260" lon="10.5142700">
	<ele>2765.60</ele>
	<time>2023-08-07T07:28:21.000Z</time>
</trkpt>
<trkpt lat="46.1156280" lon="10.5142700">
	<ele>2765.60</ele>
	<time>2023-08-07T07:28:22.000Z</time>
</trkpt>
<trkpt lat="46.1156290" lon="10.5142700">
	<ele>2765.60</ele>
	<time>2023-08-07T07:28:23.000Z</time>
</trkpt>
<trkpt lat="46.1156290" lon="10.5142710">
	<ele>2765.60</ele>
	<time>2023-08-07T07:28:24.000Z</time>
</trkpt>
<trkpt lat="46.1156300" lon="10.5142710">
	<ele>2765.60</ele>
	<time>2023-08-07T07:28:25.000Z</time>
</trkpt>
<trkpt lat="46.1156310" lon="10.5142720">
	<ele>2765.60</ele>
	<time>2023-08-07T07:28:26.000Z</time>
</trkpt>
<trkpt lat="46.1156350" lon="10.5142740">
	<ele>2765.60</ele>
	<time>2023-08-07T07:28:27.000Z</time>
</trkpt>
<trkpt lat="46.1156350" lon="10.5142750">
	<ele>2765.60</ele>
	<time>2023-08-07T07:28:28.000Z</time>
</trkpt>
<trkpt lat="46.1156360" lon="10.5142780">
	<ele>2765.60</ele>
	<time>2023-08-07T07:28:29.000Z</time>
</trkpt>
<trkpt lat="46.1156360" lon="10.5142820">
	<ele>2765.60</ele>
	<time>2023-08-07T07:28:30.000Z</time>
</trkpt>
<trkpt lat="46.1156360" lon="10.5142890">
	<ele>2765.60</ele>
	<time>2023-08-07T07:28:31.000Z</time>
</trkpt>
<trkpt lat="46.1156370" lon="10.5142990">
	<ele>2765.60</ele>
	<time>2023-08-07T07:28:32.000Z</time>
</trkpt>
<trkpt lat="46.1156370" lon="10.5143030">
	<ele>2765.60</ele>
	<time>2023-08-07T07:28:33.000Z</time>
</trkpt>
<trkpt lat="46.1156370" lon="10.5143040">
	<ele>2765.60</ele>
	<time>2023-08-07T07:28:34.000Z</time>
</trkpt>
<trkpt lat="46.1156370" lon="10.5143050">
	<ele>2765.60</ele>
	<time>2023-08-07T07:28:35.000Z</time>
</trkpt>
<trkpt lat="46.1156390" lon="10.5143050">
	<ele>2765.60</ele>
	<time>2023-08-07T07:28:36.000Z</time>
</trkpt>
<trkpt lat="46.1156400" lon="10.5143060">
	<ele>2765.60</ele>
	<time>2023-08-07T07:28:37.000Z</time>
</trkpt>
<trkpt lat="46.1156410" lon="10.5143060">
	<ele>2765.60</ele>
	<time>2023-08-07T07:28:38.000Z</time>
</trkpt>
<trkpt lat="46.1156430" lon="10.5143060">
	<ele>2765.60</ele>
	<time>2023-08-07T07:28:39.000Z</time>
</trkpt>
<trkpt lat="46.1156440" lon="10.5143070">
	<ele>2765.60</ele>
	<time>2023-08-07T07:28:40.000Z</time>
</trkpt>
<trkpt lat="46.1156450" lon="10.5143070">
	<ele>2765.60</ele>
	<time>2023-08-07T07:28:41.000Z</time>
</trkpt>
<trkpt lat="46.1156450" lon="10.5143070">
	<ele>2765.60</ele>
	<time>2023-08-07T07:28:42.000Z</time>
</trkpt>
<trkpt lat="46.1156450" lon="10.5143070">
	<ele>2765.60</ele>
	<time>2023-08-07T07:28:43.000Z</time>
</trkpt>
<trkpt lat="46.1156470" lon="10.5143120">
	<ele>2765.60</ele>
	<time>2023-08-07T07:28:44.000Z</time>
</trkpt>
<trkpt lat="46.1156580" lon="10.5143250">
	<ele>2765.60</ele>
	<time>2023-08-07T07:28:45.000Z</time>
</trkpt>
<trkpt lat="46.1156720" lon="10.5143420">
	<ele>2765.60</ele>
	<time>2023-08-07T07:28:46.000Z</time>
</trkpt>
<trkpt lat="46.1156890" lon="10.5143530">
	<ele>2765.60</ele>
	<time>2023-08-07T07:28:47.000Z</time>
</trkpt>
<trkpt lat="46.1157050" lon="10.5143620">
	<ele>2765.60</ele>
	<time>2023-08-07T07:28:48.000Z</time>
</trkpt>
<trkpt lat="46.1157220" lon="10.5143730">
	<ele>2765.60</ele>
	<time>2023-08-07T07:28:49.000Z</time>
</trkpt>
<trkpt lat="46.1157330" lon="10.5143820">
	<ele>2765.60</ele>
	<time>2023-08-07T07:28:50.000Z</time>
</trkpt>
<trkpt lat="46.1157360" lon="10.5143900">
	<ele>2765.60</ele>
	<time>2023-08-07T07:28:51.000Z</time>
</trkpt>
<trkpt lat="46.1157480" lon="10.5144060">
	<ele>2765.60</ele>
	<time>2023-08-07T07:28:52.000Z</time>
</trkpt>
<trkpt lat="46.1157560" lon="10.5144190">
	<ele>2765.60</ele>
	<time>2023-08-07T07:28:53.000Z</time>
</trkpt>
<trkpt lat="46.1157630" lon="10.5144240">
	<ele>2765.60</ele>
	<time>2023-08-07T07:28:54.000Z</time>
</trkpt>
<trkpt lat="46.1157720" lon="10.5144320">
	<ele>2763.00</ele>
	<time>2023-08-07T07:28:55.000Z</time>
</trkpt>
<trkpt lat="46.1157740" lon="10.5144410">
	<ele>2761.80</ele>
	<time>2023-08-07T07:28:56.000Z</time>
</trkpt>
<trkpt lat="46.1157750" lon="10.5144470">
	<ele>2761.00</ele>
	<time>2023-08-07T07:28:57.000Z</time>
</trkpt>
<trkpt lat="46.1157770" lon="10.5144530">
	<ele>2760.80</ele>
	<time>2023-08-07T07:28:58.000Z</time>
</trkpt>
<trkpt lat="46.1157750" lon="10.5144580">
	<ele>2760.60</ele>
	<time>2023-08-07T07:28:59.000Z</time>
</trkpt>
<trkpt lat="46.1157740" lon="10.5144600">
	<ele>2760.40</ele>
	<time>2023-08-07T07:29:00.000Z</time>
</trkpt>
<trkpt lat="46.1157750" lon="10.5144650">
	<ele>2760.40</ele>
	<time>2023-08-07T07:29:01.000Z</time>
</trkpt>
<trkpt lat="46.1157750" lon="10.5144700">
	<ele>2760.40</ele>
	<time>2023-08-07T07:29:02.000Z</time>
</trkpt>
<trkpt lat="46.1157750" lon="10.5144730">
	<ele>2760.40</ele>
	<time>2023-08-07T07:29:03.000Z</time>
</trkpt>
<trkpt lat="46.1157730" lon="10.5144770">
	<ele>2760.80</ele>
	<time>2023-08-07T07:29:04.000Z</time>
</trkpt>
<trkpt lat="46.1157730" lon="10.5144800">
	<ele>2761.00</ele>
	<time>2023-08-07T07:29:05.000Z</time>
</trkpt>
<trkpt lat="46.1157720" lon="10.5144720">
	<ele>2761.20</ele>
	<time>2023-08-07T07:29:06.000Z</time>
</trkpt>
<trkpt lat="46.1157730" lon="10.5144660">
	<ele>2761.20</ele>
	<time>2023-08-07T07:29:07.000Z</time>
</trkpt>
<trkpt lat="46.1157760" lon="10.5144640">
	<ele>2761.40</ele>
	<time>2023-08-07T07:29:08.000Z</time>
</trkpt>
<trkpt lat="46.1157780" lon="10.5144630">
	<ele>2761.40</ele>
	<time>2023-08-07T07:29:09.000Z</time>
</trkpt>
<trkpt lat="46.1157790" lon="10.5144610">
	<ele>2761.20</ele>
	<time>2023-08-07T07:29:10.000Z</time>
</trkpt>
<trkpt lat="46.1157810" lon="10.5144540">
	<ele>2760.80</ele>
	<time>2023-08-07T07:29:11.000Z</time>
</trkpt>
<trkpt lat="46.1157830" lon="10.5144470">
	<ele>2760.40</ele>
	<time>2023-08-07T07:29:12.000Z</time>
</trkpt>
<trkpt lat="46.1157860" lon="10.5144430">
	<ele>2760.20</ele>
	<time>2023-08-07T07:29:13.000Z</time>
</trkpt>
<trkpt lat="46.1157900" lon="10.5144400">
	<ele>2760.20</ele>
	<time>2023-08-07T07:29:14.000Z</time>
</trkpt>
<trkpt lat="46.1157950" lon="10.5144390">
	<ele>2760.00</ele>
	<time>2023-08-07T07:29:15.000Z</time>
</trkpt>
<trkpt lat="46.1157940" lon="10.5144470">
	<ele>2760.00</ele>
	<time>2023-08-07T07:29:16.000Z</time>
</trkpt>
<trkpt lat="46.1157960" lon="10.5144470">
	<ele>2759.40</ele>
	<time>2023-08-07T07:29:17.000Z</time>
</trkpt>
<trkpt lat="46.1157980" lon="10.5144500">
	<ele>2759.20</ele>
	<time>2023-08-07T07:29:18.000Z</time>
</trkpt>
<trkpt lat="46.1157980" lon="10.5144480">
	<ele>2758.80</ele>
	<time>2023-08-07T07:29:19.000Z</time>
</trkpt>
<trkpt lat="46.1157980" lon="10.5144450">
	<ele>2758.40</ele>
	<time>2023-08-07T07:29:20.000Z</time>
</trkpt>
<trkpt lat="46.1158010" lon="10.5144390">
	<ele>2758.00</ele>
	<time>2023-08-07T07:29:21.000Z</time>
</trkpt>
<trkpt lat="46.1158030" lon="10.5144390">
	<ele>2757.80</ele>
	<time>2023-08-07T07:29:22.000Z</time>
</trkpt>
<trkpt lat="46.1158030" lon="10.5144380">
	<ele>2757.60</ele>
	<time>2023-08-07T07:29:23.000Z</time>
</trkpt>
<trkpt lat="46.1158060" lon="10.5144360">
	<ele>2757.40</ele>
	<time>2023-08-07T07:29:24.000Z</time>
</trkpt>
<trkpt lat="46.1158060" lon="10.5144340">
	<ele>2757.20</ele>
	<time>2023-08-07T07:29:25.000Z</time>
</trkpt>
<trkpt lat="46.1158070" lon="10.5144300">
	<ele>2757.00</ele>
	<time>2023-08-07T07:29:26.000Z</time>
</trkpt>
<trkpt lat="46.1158070" lon="10.5144290">
	<ele>2756.80</ele>
	<time>2023-08-07T07:29:27.000Z</time>
</trkpt>
<trkpt lat="46.1158070" lon="10.5144290">
	<ele>2756.80</ele>
	<time>2023-08-07T07:29:28.000Z</time>
</trkpt>
<trkpt lat="46.1158090" lon="10.5144300">
	<ele>2756.60</ele>
	<time>2023-08-07T07:29:29.000Z</time>
</trkpt>
<trkpt lat="46.1158110" lon="10.5144280">
	<ele>2756.40</ele>
	<time>2023-08-07T07:29:30.000Z</time>
</trkpt>
<trkpt lat="46.1158130" lon="10.5144250">
	<ele>2756.20</ele>
	<time>2023-08-07T07:29:31.000Z</time>
</trkpt>
<trkpt lat="46.1158140" lon="10.5144300">
	<ele>2756.20</ele>
	<time>2023-08-07T07:29:32.000Z</time>
</trkpt>
<trkpt lat="46.1158150" lon="10.5144320">
	<ele>2756.20</ele>
	<time>2023-08-07T07:29:33.000Z</time>
</trkpt>
<trkpt lat="46.1158110" lon="10.5144310">
	<ele>2756.20</ele>
	<time>2023-08-07T07:29:34.000Z</time>
</trkpt>
<trkpt lat="46.1158120" lon="10.5144300">
	<ele>2756.00</ele>
	<time>2023-08-07T07:29:35.000Z</time>
</trkpt>
<trkpt lat="46.1158140" lon="10.5144290">
	<ele>2756.00</ele>
	<time>2023-08-07T07:29:36.000Z</time>
</trkpt>
<trkpt lat="46.1158170" lon="10.5144260">
	<ele>2755.60</ele>
	<time>2023-08-07T07:29:37.000Z</time>
</trkpt>
<trkpt lat="46.1158210" lon="10.5144250">
	<ele>2755.20</ele>
	<time>2023-08-07T07:29:38.000Z</time>
</trkpt>
<trkpt lat="46.1158230" lon="10.5144260">
	<ele>2754.80</ele>
	<time>2023-08-07T07:29:39.000Z</time>
</trkpt>
<trkpt lat="46.1158260" lon="10.5144280">
	<ele>2754.40</ele>
	<time>2023-08-07T07:29:40.000Z</time>
</trkpt>
<trkpt lat="46.1158280" lon="10.5144310">
	<ele>2753.80</ele>
	<time>2023-08-07T07:29:41.000Z</time>
</trkpt>
<trkpt lat="46.1158300" lon="10.5144350">
	<ele>2753.20</ele>
	<time>2023-08-07T07:29:42.000Z</time>
</trkpt>
<trkpt lat="46.1158330" lon="10.5144360">
	<ele>2752.80</ele>
	<time>2023-08-07T07:29:43.000Z</time>
</trkpt>
<trkpt lat="46.1158340" lon="10.5144370">
	<ele>2752.60</ele>
	<time>2023-08-07T07:29:44.000Z</time>
</trkpt>
<trkpt lat="46.1158360" lon="10.5144370">
	<ele>2752.60</ele>
	<time>2023-08-07T07:29:45.000Z</time>
</trkpt>
<trkpt lat="46.1158390" lon="10.5144360">
	<ele>2752.60</ele>
	<time>2023-08-07T07:29:46.000Z</time>
</trkpt>
<trkpt lat="46.1158420" lon="10.5144370">
	<ele>2752.40</ele>
	<time>2023-08-07T07:29:47.000Z</time>
</trkpt>
<trkpt lat="46.1158440" lon="10.5144370">
	<ele>2752.40</ele>
	<time>2023-08-07T07:29:48.000Z</time>
</trkpt>
<trkpt lat="46.1158440" lon="10.5144370">
	<ele>2752.20</ele>
	<time>2023-08-07T07:29:49.000Z</time>
</trkpt>
<trkpt lat="46.1158440" lon="10.5144370">
	<ele>2752.20</ele>
	<time>2023-08-07T07:29:50.000Z</time>
</trkpt>
<trkpt lat="46.1158440" lon="10.5144370">
	<ele>2752.00</ele>
	<time>2023-08-07T07:29:51.000Z</time>
</trkpt>
<trkpt lat="46.1158440" lon="10.5144370">
	<ele>2751.80</ele>
	<time>2023-08-07T07:29:52.000Z</time>
</trkpt>
<trkpt lat="46.1158440" lon="10.5144370">
	<ele>2751.60</ele>
	<time>2023-08-07T07:29:53.000Z</time>
</trkpt>
<trkpt lat="46.1158440" lon="10.5144370">
	<ele>2751.40</ele>
	<time>2023-08-07T07:29:54.000Z</time>
</trkpt>
<trkpt lat="46.1158440" lon="10.5144370">
	<ele>2751.40</ele>
	<time>2023-08-07T07:29:55.000Z</time>
</trkpt>
<trkpt lat="46.1158420" lon="10.5144370">
	<ele>2751.40</ele>
	<time>2023-08-07T07:29:56.000Z</time>
</trkpt>
<trkpt lat="46.1158420" lon="10.5144370">
	<ele>2751.40</ele>
	<time>2023-08-07T07:29:57.000Z</time>
</trkpt>
<trkpt lat="46.1158420" lon="10.5144370">
	<ele>2751.40</ele>
	<time>2023-08-07T07:29:58.000Z</time>
</trkpt>
<trkpt lat="46.1158420" lon="10.5144360">
	<ele>2751.20</ele>
	<time>2023-08-07T07:29:59.000Z</time>
</trkpt>
<trkpt lat="46.1158420" lon="10.5144360">
	<ele>2751.00</ele>
	<time>2023-08-07T07:30:00.000Z</time>
</trkpt>
<trkpt lat="46.1158420" lon="10.5144350">
	<ele>2750.40</ele>
	<time>2023-08-07T07:30:01.000Z</time>
</trkpt>
<trkpt lat="46.1158420" lon="10.5144340">
	<ele>2750.00</ele>
	<time>2023-08-07T07:30:02.000Z</time>
</trkpt>
<trkpt lat="46.1158420" lon="10.5144310">
	<ele>2749.80</ele>
	<time>2023-08-07T07:30:03.000Z</time>
</trkpt>
<trkpt lat="46.1158420" lon="10.5144280">
	<ele>2749.60</ele>
	<time>2023-08-07T07:30:04.000Z</time>
</trkpt>
<trkpt lat="46.1158420" lon="10.5144260">
	<ele>2749.60</ele>
	<time>2023-08-07T07:30:05.000Z</time>
</trkpt>
<trkpt lat="46.1158420" lon="10.5144220">
	<ele>2749.40</ele>
	<time>2023-08-07T07:30:06.000Z</time>
</trkpt>
<trkpt lat="46.1158420" lon="10.5144180">
	<ele>2749.40</ele>
	<time>2023-08-07T07:30:07.000Z</time>
</trkpt>
<trkpt lat="46.1158420" lon="10.5144130">
	<ele>2749.40</ele>
	<time>2023-08-07T07:30:08.000Z</time>
</trkpt>
<trkpt lat="46.1158420" lon="10.5144100">
	<ele>2749.00</ele>
	<time>2023-08-07T07:30:09.000Z</time>
</trkpt>
<trkpt lat="46.1158440" lon="10.5144090">
	<ele>2748.80</ele>
	<time>2023-08-07T07:30:10.000Z</time>
</trkpt>
<trkpt lat="46.1158450" lon="10.5144090">
	<ele>2748.60</ele>
	<time>2023-08-07T07:30:11.000Z</time>
</trkpt>
<trkpt lat="46.1158480" lon="10.5144080">
	<ele>2748.40</ele>
	<time>2023-08-07T07:30:12.000Z</time>
</trkpt>
<trkpt lat="46.1158490" lon="10.5144060">
	<ele>2748.00</ele>
	<time>2023-08-07T07:30:13.000Z</time>
</trkpt>
<trkpt lat="46.1158500" lon="10.5144050">
	<ele>2747.80</ele>
	<time>2023-08-07T07:30:14.000Z</time>
</trkpt>
<trkpt lat="46.1158510" lon="10.5144040">
	<ele>2747.40</ele>
	<time>2023-08-07T07:30:15.000Z</time>
</trkpt>
<trkpt lat="46.1158520" lon="10.5144040">
	<ele>2747.20</ele>
	<time>2023-08-07T07:30:16.000Z</time>
</trkpt>
<trkpt lat="46.1158530" lon="10.5144040">
	<ele>2747.00</ele>
	<time>2023-08-07T07:30:17.000Z</time>
</trkpt>
<trkpt lat="46.1158560" lon="10.5144040">
	<ele>2746.80</ele>
	<time>2023-08-07T07:30:18.000Z</time>
</trkpt>
<trkpt lat="46.1158580" lon="10.5144040">
	<ele>2746.80</ele>
	<time>2023-08-07T07:30:19.000Z</time>
</trkpt>
<trkpt lat="46.1158590" lon="10.5144040">
	<ele>2746.60</ele>
	<time>2023-08-07T07:30:20.000Z</time>
</trkpt>
<trkpt lat="46.1158620" lon="10.5144040">
	<ele>2746.60</ele>
	<time>2023-08-07T07:30:21.000Z</time>
</trkpt>
<trkpt lat="46.1158640" lon="10.5144040">
	<ele>2746.40</ele>
	<time>2023-08-07T07:30:22.000Z</time>
</trkpt>
<trkpt lat="46.1158670" lon="10.5144040">
	<ele>2746.40</ele>
	<time>2023-08-07T07:30:23.000Z</time>
</trkpt>
<trkpt lat="46.1158730" lon="10.5144040">
	<ele>2746.20</ele>
	<time>2023-08-07T07:30:24.000Z</time>
</trkpt>
<trkpt lat="46.1158750" lon="10.5144040">
	<ele>2746.00</ele>
	<time>2023-08-07T07:30:25.000Z</time>
</trkpt>
<trkpt lat="46.1158780" lon="10.5144040">
	<ele>2745.80</ele>
	<time>2023-08-07T07:30:26.000Z</time>
</trkpt>
<trkpt lat="46.1158830" lon="10.5144050">
	<ele>2745.60</ele>
	<time>2023-08-07T07:30:27.000Z</time>
</trkpt>
<trkpt lat="46.1158880" lon="10.5144060">
	<ele>2745.20</ele>
	<time>2023-08-07T07:30:28.000Z</time>
</trkpt>
<trkpt lat="46.1158930" lon="10.5144060">
	<ele>2744.80</ele>
	<time>2023-08-07T07:30:29.000Z</time>
</trkpt>
<trkpt lat="46.1158950" lon="10.5144060">
	<ele>2744.60</ele>
	<time>2023-08-07T07:30:30.000Z</time>
</trkpt>
<trkpt lat="46.1158960" lon="10.5144060">
	<ele>2744.60</ele>
	<time>2023-08-07T07:30:31.000Z</time>
</trkpt>
<trkpt lat="46.1158980" lon="10.5144070">
	<ele>2744.40</ele>
	<time>2023-08-07T07:30:32.000Z</time>
</trkpt>
<trkpt lat="46.1159000" lon="10.5144070">
	<ele>2744.40</ele>
	<time>2023-08-07T07:30:33.000Z</time>
</trkpt>
<trkpt lat="46.1159030" lon="10.5144070">
	<ele>2744.20</ele>
	<time>2023-08-07T07:30:34.000Z</time>
</trkpt>
<trkpt lat="46.1159050" lon="10.5144070">
	<ele>2744.20</ele>
	<time>2023-08-07T07:30:35.000Z</time>
</trkpt>
<trkpt lat="46.1159080" lon="10.5144070">
	<ele>2744.20</ele>
	<time>2023-08-07T07:30:36.000Z</time>
</trkpt>
<trkpt lat="46.1159090" lon="10.5144070">
	<ele>2744.20</ele>
	<time>2023-08-07T07:30:37.000Z</time>
</trkpt>
<trkpt lat="46.1159130" lon="10.5144080">
	<ele>2744.20</ele>
	<time>2023-08-07T07:30:38.000Z</time>
</trkpt>
<trkpt lat="46.1159150" lon="10.5144090">
	<ele>2744.20</ele>
	<time>2023-08-07T07:30:39.000Z</time>
</trkpt>
<trkpt lat="46.1159200" lon="10.5144100">
	<ele>2744.40</ele>
	<time>2023-08-07T07:30:40.000Z</time>
</trkpt>
<trkpt lat="46.1159240" lon="10.5144110">
	<ele>2744.40</ele>
	<time>2023-08-07T07:30:41.000Z</time>
</trkpt>
<trkpt lat="46.1159280" lon="10.5144120">
	<ele>2744.40</ele>
	<time>2023-08-07T07:30:42.000Z</time>
</trkpt>
<trkpt lat="46.1159330" lon="10.5144130">
	<ele>2744.40</ele>
	<time>2023-08-07T07:30:43.000Z</time>
</trkpt>
<trkpt lat="46.1159360" lon="10.5144140">
	<ele>2744.40</ele>
	<time>2023-08-07T07:30:44.000Z</time>
</trkpt>
<trkpt lat="46.1159400" lon="10.5144140">
	<ele>2744.40</ele>
	<time>2023-08-07T07:30:45.000Z</time>
</trkpt>
<trkpt lat="46.1159470" lon="10.5144150">
	<ele>2744.80</ele>
	<time>2023-08-07T07:30:46.000Z</time>
</trkpt>
<trkpt lat="46.1159510" lon="10.5144150">
	<ele>2744.80</ele>
	<time>2023-08-07T07:30:47.000Z</time>
</trkpt>
<trkpt lat="46.1159540" lon="10.5144150">
	<ele>2744.80</ele>
	<time>2023-08-07T07:30:48.000Z</time>
</trkpt>
<trkpt lat="46.1159590" lon="10.5144160">
	<ele>2744.80</ele>
	<time>2023-08-07T07:30:49.000Z</time>
</trkpt>
<trkpt lat="46.1159610" lon="10.5144200">
	<ele>2744.80</ele>
	<time>2023-08-07T07:30:50.000Z</time>
</trkpt>
<trkpt lat="46.1159620" lon="10.5144280">
	<ele>2744.80</ele>
	<time>2023-08-07T07:30:51.000Z</time>
</trkpt>
<trkpt lat="46.1159630" lon="10.5144340">
	<ele>2744.60</ele>
	<time>2023-08-07T07:30:52.000Z</time>
</trkpt>
<trkpt lat="46.1159630" lon="10.5144420">
	<ele>2744.60</ele>
	<time>2023-08-07T07:30:53.000Z</time>
</trkpt>
<trkpt lat="46.1159640" lon="10.5144480">
	<ele>2744.60</ele>
	<time>2023-08-07T07:30:54.000Z</time>
</trkpt>
<trkpt lat="46.1159660" lon="10.5144520">
	<ele>2744.40</ele>
	<time>2023-08-07T07:30:55.000Z</time>
</trkpt>
<trkpt lat="46.1159670" lon="10.5144560">
	<ele>2744.40</ele>
	<time>2023-08-07T07:30:56.000Z</time>
</trkpt>
<trkpt lat="46.1159680" lon="10.5144620">
	<ele>2744.40</ele>
	<time>2023-08-07T07:30:57.000Z</time>
</trkpt>
<trkpt lat="46.1159690" lon="10.5144670">
	<ele>2744.40</ele>
	<time>2023-08-07T07:30:58.000Z</time>
</trkpt>
<trkpt lat="46.1159700" lon="10.5144710">
	<ele>2744.40</ele>
	<time>2023-08-07T07:30:59.000Z</time>
</trkpt>
<trkpt lat="46.1159720" lon="10.5144730">
	<ele>2744.40</ele>
	<time>2023-08-07T07:31:00.000Z</time>
</trkpt>
<trkpt lat="46.1159740" lon="10.5144750">
	<ele>2744.40</ele>
	<time>2023-08-07T07:31:01.000Z</time>
</trkpt>
<trkpt lat="46.1159770" lon="10.5144760">
	<ele>2744.40</ele>
	<time>2023-08-07T07:31:02.000Z</time>
</trkpt>
<trkpt lat="46.1159800" lon="10.5144780">
	<ele>2744.40</ele>
	<time>2023-08-07T07:31:03.000Z</time>
</trkpt>
<trkpt lat="46.1159820" lon="10.5144790">
	<ele>2744.40</ele>
	<time>2023-08-07T07:31:04.000Z</time>
</trkpt>
<trkpt lat="46.1159850" lon="10.5144790">
	<ele>2744.20</ele>
	<time>2023-08-07T07:31:05.000Z</time>
</trkpt>
<trkpt lat="46.1159880" lon="10.5144810">
	<ele>2744.20</ele>
	<time>2023-08-07T07:31:06.000Z</time>
</trkpt>
<trkpt lat="46.1159900" lon="10.5144820">
	<ele>2744.20</ele>
	<time>2023-08-07T07:31:07.000Z</time>
</trkpt>
<trkpt lat="46.1159920" lon="10.5144820">
	<ele>2744.20</ele>
	<time>2023-08-07T07:31:08.000Z</time>
</trkpt>
<trkpt lat="46.1159940" lon="10.5144830">
	<ele>2744.00</ele>
	<time>2023-08-07T07:31:09.000Z</time>
</trkpt>
<trkpt lat="46.1159970" lon="10.5144830">
	<ele>2744.00</ele>
	<time>2023-08-07T07:31:10.000Z</time>
</trkpt>
<trkpt lat="46.1160000" lon="10.5144830">
	<ele>2744.00</ele>
	<time>2023-08-07T07:31:11.000Z</time>
</trkpt>
<trkpt lat="46.1160020" lon="10.5144840">
	<ele>2744.00</ele>
	<time>2023-08-07T07:31:12.000Z</time>
</trkpt>
<trkpt lat="46.1160040" lon="10.5144840">
	<ele>2744.20</ele>
	<time>2023-08-07T07:31:13.000Z</time>
</trkpt>
<trkpt lat="46.1160050" lon="10.5144850">
	<ele>2744.20</ele>
	<time>2023-08-07T07:31:14.000Z</time>
</trkpt>
<trkpt lat="46.1160060" lon="10.5144860">
	<ele>2744.20</ele>
	<time>2023-08-07T07:31:15.000Z</time>
</trkpt>
<trkpt lat="46.1160060" lon="10.5144860">
	<ele>2744.40</ele>
	<time>2023-08-07T07:31:16.000Z</time>
</trkpt>
<trkpt lat="46.1160070" lon="10.5144880">
	<ele>2744.40</ele>
	<time>2023-08-07T07:31:17.000Z</time>
</trkpt>
<trkpt lat="46.1160080" lon="10.5144900">
	<ele>2744.40</ele>
	<time>2023-08-07T07:31:18.000Z</time>
</trkpt>
<trkpt lat="46.1160080" lon="10.5144910">
	<ele>2744.60</ele>
	<time>2023-08-07T07:31:19.000Z</time>
</trkpt>
<trkpt lat="46.1160080" lon="10.5144930">
	<ele>2744.60</ele>
	<time>2023-08-07T07:31:20.000Z</time>
</trkpt>
<trkpt lat="46.1160090" lon="10.5144950">
	<ele>2744.80</ele>
	<time>2023-08-07T07:31:21.000Z</time>
</trkpt>
<trkpt lat="46.1160090" lon="10.5144970">
	<ele>2744.80</ele>
	<time>2023-08-07T07:31:22.000Z</time>
</trkpt>
<trkpt lat="46.1160100" lon="10.5144980">
	<ele>2744.80</ele>
	<time>2023-08-07T07:31:23.000Z</time>
</trkpt>
<trkpt lat="46.1160100" lon="10.5145000">
	<ele>2744.80</ele>
	<time>2023-08-07T07:31:24.000Z</time>
</trkpt>
<trkpt lat="46.1160100" lon="10.5145020">
	<ele>2744.60</ele>
	<time>2023-08-07T07:31:25.000Z</time>
</trkpt>
<trkpt lat="46.1160100" lon="10.5145040">
	<ele>2744.60</ele>
	<time>2023-08-07T07:31:26.000Z</time>
</trkpt>
<trkpt lat="46.1160110" lon="10.5145060">
	<ele>2744.60</ele>
	<time>2023-08-07T07:31:27.000Z</time>
</trkpt>
<trkpt lat="46.1160120" lon="10.5145080">
	<ele>2744.40</ele>
	<time>2023-08-07T07:31:28.000Z</time>
</trkpt>
<trkpt lat="46.1160130" lon="10.5145090">
	<ele>2744.40</ele>
	<time>2023-08-07T07:31:29.000Z</time>
</trkpt>
<trkpt lat="46.1160150" lon="10.5145090">
	<ele>2744.40</ele>
	<time>2023-08-07T07:31:30.000Z</time>
</trkpt>
<trkpt lat="46.1160160" lon="10.5145100">
	<ele>2744.40</ele>
	<time>2023-08-07T07:31:31.000Z</time>
</trkpt>
<trkpt lat="46.1160180" lon="10.5145110">
	<ele>2744.40</ele>
	<time>2023-08-07T07:31:32.000Z</time>
</trkpt>
<trkpt lat="46.1160190" lon="10.5145110">
	<ele>2744.40</ele>
	<time>2023-08-07T07:31:33.000Z</time>
</trkpt>
<trkpt lat="46.1160210" lon="10.5145120">
	<ele>2744.60</ele>
	<time>2023-08-07T07:31:34.000Z</time>
</trkpt>
<trkpt lat="46.1160220" lon="10.5145120">
	<ele>2744.60</ele>
	<time>2023-08-07T07:31:35.000Z</time>
</trkpt>
<trkpt lat="46.1160230" lon="10.5145120">
	<ele>2744.60</ele>
	<time>2023-08-07T07:31:36.000Z</time>
</trkpt>
<trkpt lat="46.1160250" lon="10.5145120">
	<ele>2744.60</ele>
	<time>2023-08-07T07:31:37.000Z</time>
</trkpt>
<trkpt lat="46.1160280" lon="10.5145130">
	<ele>2744.60</ele>
	<time>2023-08-07T07:31:38.000Z</time>
</trkpt>
<trkpt lat="46.1160320" lon="10.5145130">
	<ele>2744.60</ele>
	<time>2023-08-07T07:31:39.000Z</time>
</trkpt>
<trkpt lat="46.1160350" lon="10.5145130">
	<ele>2744.60</ele>
	<time>2023-08-07T07:31:40.000Z</time>
</trkpt>
<trkpt lat="46.1160380" lon="10.5145130">
	<ele>2744.40</ele>
	<time>2023-08-07T07:31:41.000Z</time>
</trkpt>
<trkpt lat="46.1160390" lon="10.5145130">
	<ele>2744.20</ele>
	<time>2023-08-07T07:31:42.000Z</time>
</trkpt>
<trkpt lat="46.1160410" lon="10.5145130">
	<ele>2744.20</ele>
	<time>2023-08-07T07:31:43.000Z</time>
</trkpt>
<trkpt lat="46.1160410" lon="10.5145130">
	<ele>2744.00</ele>
	<time>2023-08-07T07:31:44.000Z</time>
</trkpt>
<trkpt lat="46.1160420" lon="10.5145130">
	<ele>2744.00</ele>
	<time>2023-08-07T07:31:45.000Z</time>
</trkpt>
<trkpt lat="46.1160420" lon="10.5145130">
	<ele>2744.00</ele>
	<time>2023-08-07T07:31:46.000Z</time>
</trkpt>
<trkpt lat="46.1160420" lon="10.5145130">
	<ele>2744.00</ele>
	<time>2023-08-07T07:31:47.000Z</time>
</trkpt>
<trkpt lat="46.1160430" lon="10.5145130">
	<ele>2744.00</ele>
	<time>2023-08-07T07:31:48.000Z</time>
</trkpt>
<trkpt lat="46.1160430" lon="10.5145130">
	<ele>2744.00</ele>
	<time>2023-08-07T07:31:49.000Z</time>
</trkpt>
<trkpt lat="46.1160430" lon="10.5145130">
	<ele>2744.00</ele>
	<time>2023-08-07T07:31:50.000Z</time>
</trkpt>
<trkpt lat="46.1160430" lon="10.5145130">
	<ele>2744.20</ele>
	<time>2023-08-07T07:31:51.000Z</time>
</trkpt>
<trkpt lat="46.1160430" lon="10.5145120">
	<ele>2744.20</ele>
	<time>2023-08-07T07:31:52.000Z</time>
</trkpt>
<trkpt lat="46.1160470" lon="10.5145120">
	<ele>2744.20</ele>
	<time>2023-08-07T07:31:53.000Z</time>
</trkpt>
<trkpt lat="46.1160510" lon="10.5145110">
	<ele>2744.20</ele>
	<time>2023-08-07T07:31:54.000Z</time>
</trkpt>
<trkpt lat="46.1160560" lon="10.5145110">
	<ele>2744.20</ele>
	<time>2023-08-07T07:31:55.000Z</time>
</trkpt>
<trkpt lat="46.1160600" lon="10.5145100">
	<ele>2744.20</ele>
	<time>2023-08-07T07:31:56.000Z</time>
</trkpt>
<trkpt lat="46.1160650" lon="10.5145090">
	<ele>2744.20</ele>
	<time>2023-08-07T07:31:57.000Z</time>
</trkpt>
<trkpt lat="46.1160710" lon="10.5145090">
	<ele>2744.40</ele>
	<time>2023-08-07T07:31:58.000Z</time>
</trkpt>
<trkpt lat="46.1160770" lon="10.5145080">
	<ele>2744.40</ele>
	<time>2023-08-07T07:31:59.000Z</time>
</trkpt>
<trkpt lat="46.1160830" lon="10.5145080">
	<ele>2744.40</ele>
	<time>2023-08-07T07:32:00.000Z</time>
</trkpt>
<trkpt lat="46.1160900" lon="10.5145080">
	<ele>2744.40</ele>
	<time>2023-08-07T07:32:01.000Z</time>
</trkpt>
<trkpt lat="46.1160950" lon="10.5145080">
	<ele>2744.40</ele>
	<time>2023-08-07T07:32:02.000Z</time>
</trkpt>
<trkpt lat="46.1161000" lon="10.5145080">
	<ele>2744.40</ele>
	<time>2023-08-07T07:32:03.000Z</time>
</trkpt>
<trkpt lat="46.1161040" lon="10.5145070">
	<ele>2744.40</ele>
	<time>2023-08-07T07:32:04.000Z</time>
</trkpt>
<trkpt lat="46.1161080" lon="10.5145070">
	<ele>2744.40</ele>
	<time>2023-08-07T07:32:05.000Z</time>
</trkpt>
<trkpt lat="46.1161110" lon="10.5145070">
	<ele>2744.40</ele>
	<time>2023-08-07T07:32:06.000Z</time>
</trkpt>
<trkpt lat="46.1161150" lon="10.5145070">
	<ele>2744.40</ele>
	<time>2023-08-07T07:32:07.000Z</time>
</trkpt>
<trkpt lat="46.1161180" lon="10.5145060">
	<ele>2744.40</ele>
	<time>2023-08-07T07:32:08.000Z</time>
</trkpt>
<trkpt lat="46.1161220" lon="10.5145060">
	<ele>2744.40</ele>
	<time>2023-08-07T07:32:09.000Z</time>
</trkpt>
<trkpt lat="46.1161250" lon="10.5145050">
	<ele>2744.40</ele>
	<time>2023-08-07T07:32:10.000Z</time>
</trkpt>
<trkpt lat="46.1161290" lon="10.5145050">
	<ele>2744.40</ele>
	<time>2023-08-07T07:32:11.000Z</time>
</trkpt>
<trkpt lat="46.1161310" lon="10.5145050">
	<ele>2744.40</ele>
	<time>2023-08-07T07:32:12.000Z</time>
</trkpt>
<trkpt lat="46.1161340" lon="10.5145040">
	<ele>2744.40</ele>
	<time>2023-08-07T07:32:13.000Z</time>
</trkpt>
<trkpt lat="46.1161360" lon="10.5145030">
	<ele>2744.40</ele>
	<time>2023-08-07T07:32:14.000Z</time>
</trkpt>
<trkpt lat="46.1161390" lon="10.5145020">
	<ele>2744.40</ele>
	<time>2023-08-07T07:32:15.000Z</time>
</trkpt>
<trkpt lat="46.1161420" lon="10.5145000">
	<ele>2744.40</ele>
	<time>2023-08-07T07:32:16.000Z</time>
</trkpt>
<trkpt lat="46.1161450" lon="10.5144990">
	<ele>2744.40</ele>
	<time>2023-08-07T07:32:17.000Z</time>
</trkpt>
<trkpt lat="46.1161470" lon="10.5144980">
	<ele>2744.40</ele>
	<time>2023-08-07T07:32:18.000Z</time>
</trkpt>
<trkpt lat="46.1161490" lon="10.5144970">
	<ele>2744.40</ele>
	<time>2023-08-07T07:32:19.000Z</time>
</trkpt>
<trkpt lat="46.1161500" lon="10.5144960">
	<ele>2744.40</ele>
	<time>2023-08-07T07:32:20.000Z</time>
</trkpt>
<trkpt lat="46.1161510" lon="10.5144950">
	<ele>2744.40</ele>
	<time>2023-08-07T07:32:21.000Z</time>
</trkpt>
<trkpt lat="46.1161520" lon="10.5144950">
	<ele>2744.40</ele>
	<time>2023-08-07T07:32:22.000Z</time>
</trkpt>
<trkpt lat="46.1161530" lon="10.5144940">
	<ele>2744.40</ele>
	<time>2023-08-07T07:32:23.000Z</time>
</trkpt>
<trkpt lat="46.1161540" lon="10.5144940">
	<ele>2744.40</ele>
	<time>2023-08-07T07:32:24.000Z</time>
</trkpt>
<trkpt lat="46.1161550" lon="10.5144940">
	<ele>2744.40</ele>
	<time>2023-08-07T07:32:25.000Z</time>
</trkpt>
<trkpt lat="46.1161560" lon="10.5144930">
	<ele>2744.40</ele>
	<time>2023-08-07T07:32:26.000Z</time>
</trkpt>
<trkpt lat="46.1161570" lon="10.5144930">
	<ele>2744.40</ele>
	<time>2023-08-07T07:32:27.000Z</time>
</trkpt>
<trkpt lat="46.1161580" lon="10.5144930">
	<ele>2744.40</ele>
	<time>2023-08-07T07:32:28.000Z</time>
</trkpt>
<trkpt lat="46.1161580" lon="10.5144920">
	<ele>2744.40</ele>
	<time>2023-08-07T07:32:29.000Z</time>
</trkpt>
<trkpt lat="46.1161590" lon="10.5144920">
	<ele>2744.40</ele>
	<time>2023-08-07T07:32:30.000Z</time>
</trkpt>
<trkpt lat="46.1161600" lon="10.5144900">
	<ele>2744.40</ele>
	<time>2023-08-07T07:32:31.000Z</time>
</trkpt>
<trkpt lat="46.1161610" lon="10.5144890">
	<ele>2744.40</ele>
	<time>2023-08-07T07:32:32.000Z</time>
</trkpt>
<trkpt lat="46.1161620" lon="10.5144880">
	<ele>2744.40</ele>
	<time>2023-08-07T07:32:33.000Z</time>
</trkpt>
<trkpt lat="46.1161630" lon="10.5144870">
	<ele>2744.40</ele>
	<time>2023-08-07T07:32:34.000Z</time>
</trkpt>
<trkpt lat="46.1161640" lon="10.5144860">
	<ele>2744.40</ele>
	<time>2023-08-07T07:32:35.000Z</time>
</trkpt>
<trkpt lat="46.1161640" lon="10.5144840">
	<ele>2744.40</ele>
	<time>2023-08-07T07:32:36.000Z</time>
</trkpt>
<trkpt lat="46.1161650" lon="10.5144830">
	<ele>2744.40</ele>
	<time>2023-08-07T07:32:37.000Z</time>
</trkpt>
<trkpt lat="46.1161660" lon="10.5144820">
	<ele>2744.40</ele>
	<time>2023-08-07T07:32:38.000Z</time>
</trkpt>
<trkpt lat="46.1161660" lon="10.5144810">
	<ele>2744.40</ele>
	<time>2023-08-07T07:32:39.000Z</time>
</trkpt>
<trkpt lat="46.1161670" lon="10.5144800">
	<ele>2744.40</ele>
	<time>2023-08-07T07:32:40.000Z</time>
</trkpt>
<trkpt lat="46.1161670" lon="10.5144790">
	<ele>2744.40</ele>
	<time>2023-08-07T07:32:41.000Z</time>
</trkpt>
<trkpt lat="46.1161680" lon="10.5144770">
	<ele>2744.40</ele>
	<time>2023-08-07T07:32:42.000Z</time>
</trkpt>
<trkpt lat="46.1161680" lon="10.5144760">
	<ele>2744.40</ele>
	<time>2023-08-07T07:32:43.000Z</time>
</trkpt>
<trkpt lat="46.1161690" lon="10.5144750">
	<ele>2744.40</ele>
	<time>2023-08-07T07:32:44.000Z</time>
</trkpt>
<trkpt lat="46.1161690" lon="10.5144740">
	<ele>2744.40</ele>
	<time>2023-08-07T07:32:45.000Z</time>
</trkpt>
<trkpt lat="46.1161700" lon="10.5144720">
	<ele>2744.40</ele>
	<time>2023-08-07T07:32:46.000Z</time>
</trkpt>
<trkpt lat="46.1161720" lon="10.5144710">
	<ele>2744.40</ele>
	<time>2023-08-07T07:32:47.000Z</time>
</trkpt>
<trkpt lat="46.1161730" lon="10.5144700">
	<ele>2744.40</ele>
	<time>2023-08-07T07:32:48.000Z</time>
</trkpt>
<trkpt lat="46.1161740" lon="10.5144690">
	<ele>2744.40</ele>
	<time>2023-08-07T07:32:49.000Z</time>
</trkpt>
<trkpt lat="46.1161760" lon="10.5144670">
	<ele>2744.40</ele>
	<time>2023-08-07T07:32:50.000Z</time>
</trkpt>
<trkpt lat="46.1161770" lon="10.5144660">
	<ele>2744.40</ele>
	<time>2023-08-07T07:32:51.000Z</time>
</trkpt>
<trkpt lat="46.1161780" lon="10.5144640">
	<ele>2744.40</ele>
	<time>2023-08-07T07:32:52.000Z</time>
</trkpt>
<trkpt lat="46.1161800" lon="10.5144620">
	<ele>2744.40</ele>
	<time>2023-08-07T07:32:53.000Z</time>
</trkpt>
<trkpt lat="46.1161810" lon="10.5144600">
	<ele>2744.40</ele>
	<time>2023-08-07T07:32:54.000Z</time>
</trkpt>
<trkpt lat="46.1161820" lon="10.5144590">
	<ele>2744.40</ele>
	<time>2023-08-07T07:32:55.000Z</time>
</trkpt>
<trkpt lat="46.1161830" lon="10.5144570">
	<ele>2744.40</ele>
	<time>2023-08-07T07:32:56.000Z</time>
</trkpt>
<trkpt lat="46.1161840" lon="10.5144550">
	<ele>2744.40</ele>
	<time>2023-08-07T07:32:57.000Z</time>
</trkpt>
<trkpt lat="46.1161850" lon="10.5144540">
	<ele>2744.40</ele>
	<time>2023-08-07T07:32:58.000Z</time>
</trkpt>
<trkpt lat="46.1161860" lon="10.5144530">
	<ele>2741.00</ele>
	<time>2023-08-07T07:32:59.000Z</time>
</trkpt>
<trkpt lat="46.1161860" lon="10.5144520">
	<ele>2741.00</ele>
	<time>2023-08-07T07:33:00.000Z</time>
</trkpt>
<trkpt lat="46.1161870" lon="10.5144510">
	<ele>2741.00</ele>
	<time>2023-08-07T07:33:01.000Z</time>
</trkpt>
<trkpt lat="46.1161870" lon="10.5144510">
	<ele>2741.00</ele>
	<time>2023-08-07T07:33:02.000Z</time>
</trkpt>
<trkpt lat="46.1161880" lon="10.5144500">
	<ele>2741.00</ele>
	<time>2023-08-07T07:33:03.000Z</time>
</trkpt>
<trkpt lat="46.1161880" lon="10.5144500">
	<ele>2741.00</ele>
	<time>2023-08-07T07:33:04.000Z</time>
</trkpt>
<trkpt lat="46.1161880" lon="10.5144490">
	<ele>2741.00</ele>
	<time>2023-08-07T07:33:05.000Z</time>
</trkpt>
<trkpt lat="46.1161880" lon="10.5144490">
	<ele>2741.00</ele>
	<time>2023-08-07T07:33:06.000Z</time>
</trkpt>
<trkpt lat="46.1161890" lon="10.5144490">
	<ele>2741.00</ele>
	<time>2023-08-07T07:33:07.000Z</time>
</trkpt>
<trkpt lat="46.1161890" lon="10.5144490">
	<ele>2741.00</ele>
	<time>2023-08-07T07:33:08.000Z</time>
</trkpt>
<trkpt lat="46.1161890" lon="10.5144490">
	<ele>2741.00</ele>
	<time>2023-08-07T07:33:09.000Z</time>
</trkpt>
<trkpt lat="46.1161890" lon="10.5144490">
	<ele>2741.00</ele>
	<time>2023-08-07T07:33:10.000Z</time>
</trkpt>
<trkpt lat="46.1161890" lon="10.5144480">
	<ele>2741.00</ele>
	<time>2023-08-07T07:33:11.000Z</time>
</trkpt>
<trkpt lat="46.1161890" lon="10.5144480">
	<ele>2741.00</ele>
	<time>2023-08-07T07:33:12.000Z</time>
</trkpt>
<trkpt lat="46.1161890" lon="10.5144480">
	<ele>2741.00</ele>
	<time>2023-08-07T07:33:13.000Z</time>
</trkpt>
<trkpt lat="46.1161890" lon="10.5144480">
	<ele>2741.00</ele>
	<time>2023-08-07T07:33:14.000Z</time>
</trkpt>
<trkpt lat="46.1161890" lon="10.5144480">
	<ele>2741.00</ele>
	<time>2023-08-07T07:33:15.000Z</time>
</trkpt>
<trkpt lat="46.1161890" lon="10.5144470">
	<ele>2741.00</ele>
	<time>2023-08-07T07:33:16.000Z</time>
</trkpt>
<trkpt lat="46.1161890" lon="10.5144470">
	<ele>2741.00</ele>
	<time>2023-08-07T07:33:17.000Z</time>
</trkpt>
<trkpt lat="46.1161880" lon="10.5144470">
	<ele>2741.00</ele>
	<time>2023-08-07T07:33:18.000Z</time>
</trkpt>
<trkpt lat="46.1161880" lon="10.5144470">
	<ele>2741.00</ele>
	<time>2023-08-07T07:33:19.000Z</time>
</trkpt>
<trkpt lat="46.1161880" lon="10.5144470">
	<ele>2741.00</ele>
	<time>2023-08-07T07:33:20.000Z</time>
</trkpt>
<trkpt lat="46.1161880" lon="10.5144470">
	<ele>2741.00</ele>
	<time>2023-08-07T07:33:21.000Z</time>
</trkpt>
<trkpt lat="46.1161880" lon="10.5144470">
	<ele>2741.00</ele>
	<time>2023-08-07T07:33:22.000Z</time>
</trkpt>
<trkpt lat="46.1161880" lon="10.5144470">
	<ele>2741.00</ele>
	<time>2023-08-07T07:33:23.000Z</time>
</trkpt>
<trkpt lat="46.1161880" lon="10.5144470">
	<ele>2740.80</ele>
	<time>2023-08-07T07:33:24.000Z</time>
</trkpt>
<trkpt lat="46.1161880" lon="10.5144470">
	<ele>2740.80</ele>
	<time>2023-08-07T07:33:25.000Z</time>
</trkpt>
<trkpt lat="46.1161880" lon="10.5144470">
	<ele>2740.60</ele>
	<time>2023-08-07T07:33:26.000Z</time>
</trkpt>
<trkpt lat="46.1161880" lon="10.5144460">
	<ele>2740.40</ele>
	<time>2023-08-07T07:33:27.000Z</time>
</trkpt>
<trkpt lat="46.1161880" lon="10.5144460">
	<ele>2740.20</ele>
	<time>2023-08-07T07:33:28.000Z</time>
</trkpt>
<trkpt lat="46.1161880" lon="10.5144450">
	<ele>2740.20</ele>
	<time>2023-08-07T07:33:29.000Z</time>
</trkpt>
<trkpt lat="46.1161880" lon="10.5144450">
	<ele>2740.00</ele>
	<time>2023-08-07T07:33:30.000Z</time>
</trkpt>
<trkpt lat="46.1161880" lon="10.5144450">
	<ele>2739.80</ele>
	<time>2023-08-07T07:33:31.000Z</time>
</trkpt>
<trkpt lat="46.1161890" lon="10.5144450">
	<ele>2739.80</ele>
	<time>2023-08-07T07:33:32.000Z</time>
</trkpt>
<trkpt lat="46.1161890" lon="10.5144450">
	<ele>2739.80</ele>
	<time>2023-08-07T07:33:33.000Z</time>
</trkpt>
<trkpt lat="46.1161890" lon="10.5144440">
	<ele>2739.80</ele>
	<time>2023-08-07T07:33:34.000Z</time>
</trkpt>
<trkpt lat="46.1161890" lon="10.5144440">
	<ele>2739.80</ele>
	<time>2023-08-07T07:33:35.000Z</time>
</trkpt>
<trkpt lat="46.1161890" lon="10.5144440">
	<ele>2739.60</ele>
	<time>2023-08-07T07:33:36.000Z</time>
</trkpt>
<trkpt lat="46.1161890" lon="10.5144440">
	<ele>2739.60</ele>
	<time>2023-08-07T07:33:37.000Z</time>
</trkpt>
<trkpt lat="46.1161890" lon="10.5144430">
	<ele>2739.60</ele>
	<time>2023-08-07T07:33:38.000Z</time>
</trkpt>
<trkpt lat="46.1161890" lon="10.5144430">
	<ele>2739.40</ele>
	<time>2023-08-07T07:33:39.000Z</time>
</trkpt>
<trkpt lat="46.1161890" lon="10.5144430">
	<ele>2739.40</ele>
	<time>2023-08-07T07:33:40.000Z</time>
</trkpt>
<trkpt lat="46.1161890" lon="10.5144430">
	<ele>2739.20</ele>
	<time>2023-08-07T07:33:41.000Z</time>
</trkpt>
<trkpt lat="46.1161890" lon="10.5144430">
	<ele>2739.20</ele>
	<time>2023-08-07T07:33:42.000Z</time>
</trkpt>
<trkpt lat="46.1161890" lon="10.5144430">
	<ele>2739.20</ele>
	<time>2023-08-07T07:33:43.000Z</time>
</trkpt>
<trkpt lat="46.1161900" lon="10.5144430">
	<ele>2739.20</ele>
	<time>2023-08-07T07:33:44.000Z</time>
</trkpt>
<trkpt lat="46.1161900" lon="10.5144430">
	<ele>2739.20</ele>
	<time>2023-08-07T07:33:45.000Z</time>
</trkpt>
<trkpt lat="46.1161900" lon="10.5144430">
	<ele>2739.20</ele>
	<time>2023-08-07T07:33:46.000Z</time>
</trkpt>
<trkpt lat="46.1161900" lon="10.5144430">
	<ele>2739.00</ele>
	<time>2023-08-07T07:33:47.000Z</time>
</trkpt>
<trkpt lat="46.1161900" lon="10.5144430">
	<ele>2739.20</ele>
	<time>2023-08-07T07:33:48.000Z</time>
</trkpt>
<trkpt lat="46.1161910" lon="10.5144430">
	<ele>2739.20</ele>
	<time>2023-08-07T07:33:49.000Z</time>
</trkpt>
<trkpt lat="46.1161910" lon="10.5144420">
	<ele>2739.00</ele>
	<time>2023-08-07T07:33:50.000Z</time>
</trkpt>
<trkpt lat="46.1161910" lon="10.5144420">
	<ele>2739.00</ele>
	<time>2023-08-07T07:33:51.000Z</time>
</trkpt>
<trkpt lat="46.1161910" lon="10.5144420">
	<ele>2739.00</ele>
	<time>2023-08-07T07:33:52.000Z</time>
</trkpt>
<trkpt lat="46.1161910" lon="10.5144420">
	<ele>2739.00</ele>
	<time>2023-08-07T07:33:53.000Z</time>
</trkpt>
<trkpt lat="46.1161910" lon="10.5144420">
	<ele>2739.00</ele>
	<time>2023-08-07T07:33:54.000Z</time>
</trkpt>
<trkpt lat="46.1161920" lon="10.5144420">
	<ele>2738.80</ele>
	<time>2023-08-07T07:33:55.000Z</time>
</trkpt>
<trkpt lat="46.1161920" lon="10.5144420">
	<ele>2738.60</ele>
	<time>2023-08-07T07:33:56.000Z</time>
</trkpt>
<trkpt lat="46.1161920" lon="10.5144410">
	<ele>2738.60</ele>
	<time>2023-08-07T07:33:57.000Z</time>
</trkpt>
<trkpt lat="46.1161920" lon="10.5144410">
	<ele>2738.20</ele>
	<time>2023-08-07T07:33:58.000Z</time>
</trkpt>
<trkpt lat="46.1161930" lon="10.5144410">
	<ele>2738.20</ele>
	<time>2023-08-07T07:33:59.000Z</time>
</trkpt>
<trkpt lat="46.1161930" lon="10.5144410">
	<ele>2738.00</ele>
	<time>2023-08-07T07:34:00.000Z</time>
</trkpt>
<trkpt lat="46.1161930" lon="10.5144410">
	<ele>2737.80</ele>
	<time>2023-08-07T07:34:01.000Z</time>
</trkpt>
<trkpt lat="46.1161930" lon="10.5144410">
	<ele>2737.80</ele>
	<time>2023-08-07T07:34:02.000Z</time>
</trkpt>
<trkpt lat="46.1161930" lon="10.5144410">
	<ele>2737.80</ele>
	<time>2023-08-07T07:34:03.000Z</time>
</trkpt>
<trkpt lat="46.1161940" lon="10.5144410">
	<ele>2737.60</ele>
	<time>2023-08-07T07:34:04.000Z</time>
</trkpt>
<trkpt lat="46.1161940" lon="10.5144410">
	<ele>2737.60</ele>
	<time>2023-08-07T07:34:05.000Z</time>
</trkpt>
<trkpt lat="46.1161940" lon="10.5144410">
	<ele>2737.60</ele>
	<time>2023-08-07T07:34:06.000Z</time>
</trkpt>
<trkpt lat="46.1161940" lon="10.5144410">
	<ele>2737.60</ele>
	<time>2023-08-07T07:34:07.000Z</time>
</trkpt>
<trkpt lat="46.1161950" lon="10.5144400">
	<ele>2737.60</ele>
	<time>2023-08-07T07:34:08.000Z</time>
</trkpt>
<trkpt lat="46.1161950" lon="10.5144400">
	<ele>2737.60</ele>
	<time>2023-08-07T07:34:09.000Z</time>
</trkpt>
<trkpt lat="46.1161950" lon="10.5144400">
	<ele>2737.60</ele>
	<time>2023-08-07T07:34:10.000Z</time>
</trkpt>
<trkpt lat="46.1161950" lon="10.5144400">
	<ele>2737.60</ele>
	<time>2023-08-07T07:34:11.000Z</time>
</trkpt>
<trkpt lat="46.1161960" lon="10.5144400">
	<ele>2737.60</ele>
	<time>2023-08-07T07:34:12.000Z</time>
</trkpt>
<trkpt lat="46.1161960" lon="10.5144400">
	<ele>2737.40</ele>
	<time>2023-08-07T07:34:13.000Z</time>
</trkpt>
<trkpt lat="46.1161960" lon="10.5144400">
	<ele>2737.20</ele>
	<time>2023-08-07T07:34:14.000Z</time>
</trkpt>
<trkpt lat="46.1161960" lon="10.5144400">
	<ele>2737.00</ele>
	<time>2023-08-07T07:34:15.000Z</time>
</trkpt>
<trkpt lat="46.1161970" lon="10.5144400">
	<ele>2736.80</ele>
	<time>2023-08-07T07:34:16.000Z</time>
</trkpt>
<trkpt lat="46.1161970" lon="10.5144400">
	<ele>2736.80</ele>
	<time>2023-08-07T07:34:17.000Z</time>
</trkpt>
<trkpt lat="46.1161970" lon="10.5144400">
	<ele>2736.80</ele>
	<time>2023-08-07T07:34:18.000Z</time>
</trkpt>
<trkpt lat="46.1161970" lon="10.5144400">
	<ele>2736.60</ele>
	<time>2023-08-07T07:34:19.000Z</time>
</trkpt>
<trkpt lat="46.1161980" lon="10.5144400">
	<ele>2736.60</ele>
	<time>2023-08-07T07:34:20.000Z</time>
</trkpt>
<trkpt lat="46.1161980" lon="10.5144390">
	<ele>2736.40</ele>
	<time>2023-08-07T07:34:21.000Z</time>
</trkpt>
<trkpt lat="46.1161980" lon="10.5144390">
	<ele>2736.40</ele>
	<time>2023-08-07T07:34:22.000Z</time>
</trkpt>
<trkpt lat="46.1161980" lon="10.5144390">
	<ele>2736.20</ele>
	<time>2023-08-07T07:34:23.000Z</time>
</trkpt>
<trkpt lat="46.1161990" lon="10.5144390">
	<ele>2736.20</ele>
	<time>2023-08-07T07:34:24.000Z</time>
</trkpt>
<trkpt lat="46.1161990" lon="10.5144390">
	<ele>2736.00</ele>
	<time>2023-08-07T07:34:25.000Z</time>
</trkpt>
<trkpt lat="46.1161990" lon="10.5144390">
	<ele>2735.80</ele>
	<time>2023-08-07T07:34:26.000Z</time>
</trkpt>
<trkpt lat="46.1161990" lon="10.5144390">
	<ele>2735.80</ele>
	<time>2023-08-07T07:34:27.000Z</time>
</trkpt>
<trkpt lat="46.1161990" lon="10.5144390">
	<ele>2735.80</ele>
	<time>2023-08-07T07:34:28.000Z</time>
</trkpt>
<trkpt lat="46.1162000" lon="10.5144380">
	<ele>2735.80</ele>
	<time>2023-08-07T07:34:29.000Z</time>
</trkpt>
<trkpt lat="46.1162000" lon="10.5144380">
	<ele>2735.60</ele>
	<time>2023-08-07T07:34:30.000Z</time>
</trkpt>
<trkpt lat="46.1162000" lon="10.5144380">
	<ele>2735.40</ele>
	<time>2023-08-07T07:34:31.000Z</time>
</trkpt>
<trkpt lat="46.1162000" lon="10.5144380">
	<ele>2735.40</ele>
	<time>2023-08-07T07:34:32.000Z</time>
</trkpt>
<trkpt lat="46.1162010" lon="10.5144380">
	<ele>2735.40</ele>
	<time>2023-08-07T07:34:33.000Z</time>
</trkpt>
<trkpt lat="46.1162010" lon="10.5144370">
	<ele>2735.20</ele>
	<time>2023-08-07T07:34:34.000Z</time>
</trkpt>
<trkpt lat="46.1162010" lon="10.5144370">
	<ele>2735.20</ele>
	<time>2023-08-07T07:34:35.000Z</time>
</trkpt>
<trkpt lat="46.1162010" lon="10.5144370">
	<ele>2735.00</ele>
	<time>2023-08-07T07:34:36.000Z</time>
</trkpt>
<trkpt lat="46.1162020" lon="10.5144370">
	<ele>2734.80</ele>
	<time>2023-08-07T07:34:37.000Z</time>
</trkpt>
<trkpt lat="46.1162020" lon="10.5144370">
	<ele>2734.60</ele>
	<time>2023-08-07T07:34:38.000Z</time>
</trkpt>
<trkpt lat="46.1162020" lon="10.5144370">
	<ele>2734.60</ele>
	<time>2023-08-07T07:34:39.000Z</time>
</trkpt>
<trkpt lat="46.1162020" lon="10.5144370">
	<ele>2734.60</ele>
	<time>2023-08-07T07:34:40.000Z</time>
</trkpt>
<trkpt lat="46.1162030" lon="10.5144360">
	<ele>2734.80</ele>
	<time>2023-08-07T07:34:41.000Z</time>
</trkpt>
<trkpt lat="46.1162030" lon="10.5144360">
	<ele>2735.00</ele>
	<time>2023-08-07T07:34:42.000Z</time>
</trkpt>
<trkpt lat="46.1162030" lon="10.5144360">
	<ele>2735.20</ele>
	<time>2023-08-07T07:34:43.000Z</time>
</trkpt>
<trkpt lat="46.1162040" lon="10.5144360">
	<ele>2735.40</ele>
	<time>2023-08-07T07:34:44.000Z</time>
</trkpt>
<trkpt lat="46.1162040" lon="10.5144360">
	<ele>2735.40</ele>
	<time>2023-08-07T07:34:45.000Z</time>
</trkpt>
<trkpt lat="46.1162040" lon="10.5144360">
	<ele>2735.40</ele>
	<time>2023-08-07T07:34:46.000Z</time>
</trkpt>
<trkpt lat="46.1162050" lon="10.5144360">
	<ele>2735.40</ele>
	<time>2023-08-07T07:34:47.000Z</time>
</trkpt>
<trkpt lat="46.1162050" lon="10.5144360">
	<ele>2735.40</ele>
	<time>2023-08-07T07:34:48.000Z</time>
</trkpt>
<trkpt lat="46.1162050" lon="10.5144360">
	<ele>2735.60</ele>
	<time>2023-08-07T07:34:49.000Z</time>
</trkpt>
<trkpt lat="46.1162050" lon="10.5144350">
	<ele>2735.60</ele>
	<time>2023-08-07T07:34:50.000Z</time>
</trkpt>
<trkpt lat="46.1162060" lon="10.5144350">
	<ele>2735.60</ele>
	<time>2023-08-07T07:34:51.000Z</time>
</trkpt>
<trkpt lat="46.1162060" lon="10.5144350">
	<ele>2735.60</ele>
	<time>2023-08-07T07:34:52.000Z</time>
</trkpt>
<trkpt lat="46.1162060" lon="10.5144350">
	<ele>2735.60</ele>
	<time>2023-08-07T07:34:53.000Z</time>
</trkpt>
<trkpt lat="46.1162070" lon="10.5144350">
	<ele>2735.60</ele>
	<time>2023-08-07T07:34:54.000Z</time>
</trkpt>
<trkpt lat="46.1162070" lon="10.5144350">
	<ele>2735.40</ele>
	<time>2023-08-07T07:34:55.000Z</time>
</trkpt>
<trkpt lat="46.1162070" lon="10.5144350">
	<ele>2735.40</ele>
	<time>2023-08-07T07:34:56.000Z</time>
</trkpt>
<trkpt lat="46.1162070" lon="10.5144350">
	<ele>2735.40</ele>
	<time>2023-08-07T07:34:57.000Z</time>
</trkpt>
<trkpt lat="46.1162070" lon="10.5144350">
	<ele>2735.20</ele>
	<time>2023-08-07T07:34:58.000Z</time>
</trkpt>
<trkpt lat="46.1162080" lon="10.5144350">
	<ele>2735.20</ele>
	<time>2023-08-07T07:34:59.000Z</time>
</trkpt>
<trkpt lat="46.1162080" lon="10.5144350">
	<ele>2735.00</ele>
	<time>2023-08-07T07:35:00.000Z</time>
</trkpt>
<trkpt lat="46.1162080" lon="10.5144350">
	<ele>2735.00</ele>
	<time>2023-08-07T07:35:01.000Z</time>
</trkpt>
<trkpt lat="46.1162080" lon="10.5144350">
	<ele>2735.20</ele>
	<time>2023-08-07T07:35:02.000Z</time>
</trkpt>
<trkpt lat="46.1162090" lon="10.5144340">
	<ele>2735.40</ele>
	<time>2023-08-07T07:35:03.000Z</time>
</trkpt>
<trkpt lat="46.1162090" lon="10.5144340">
	<ele>2735.60</ele>
	<time>2023-08-07T07:35:04.000Z</time>
</trkpt>
<trkpt lat="46.1162090" lon="10.5144340">
	<ele>2735.60</ele>
	<time>2023-08-07T07:35:05.000Z</time>
</trkpt>
<trkpt lat="46.1162100" lon="10.5144340">
	<ele>2735.60</ele>
	<time>2023-08-07T07:35:06.000Z</time>
</trkpt>
<trkpt lat="46.1162100" lon="10.5144340">
	<ele>2735.20</ele>
	<time>2023-08-07T07:35:07.000Z</time>
</trkpt>
<trkpt lat="46.1162100" lon="10.5144340">
	<ele>2735.00</ele>
	<time>2023-08-07T07:35:08.000Z</time>
</trkpt>
<trkpt lat="46.1162100" lon="10.5144340">
	<ele>2734.80</ele>
	<time>2023-08-07T07:35:09.000Z</time>
</trkpt>
<trkpt lat="46.1162110" lon="10.5144330">
	<ele>2734.80</ele>
	<time>2023-08-07T07:35:10.000Z</time>
</trkpt>
<trkpt lat="46.1162110" lon="10.5144330">
	<ele>2734.80</ele>
	<time>2023-08-07T07:35:11.000Z</time>
</trkpt>
<trkpt lat="46.1162110" lon="10.5144330">
	<ele>2734.80</ele>
	<time>2023-08-07T07:35:12.000Z</time>
</trkpt>
<trkpt lat="46.1162110" lon="10.5144330">
	<ele>2734.80</ele>
	<time>2023-08-07T07:35:13.000Z</time>
</trkpt>
<trkpt lat="46.1162120" lon="10.5144330">
	<ele>2734.80</ele>
	<time>2023-08-07T07:35:14.000Z</time>
</trkpt>
<trkpt lat="46.1162120" lon="10.5144320">
	<ele>2734.80</ele>
	<time>2023-08-07T07:35:15.000Z</time>
</trkpt>
<trkpt lat="46.1162120" lon="10.5144320">
	<ele>2734.80</ele>
	<time>2023-08-07T07:35:16.000Z</time>
</trkpt>
<trkpt lat="46.1162120" lon="10.5144320">
	<ele>2734.60</ele>
	<time>2023-08-07T07:35:17.000Z</time>
</trkpt>
<trkpt lat="46.1162120" lon="10.5144320">
	<ele>2734.60</ele>
	<time>2023-08-07T07:35:18.000Z</time>
</trkpt>
<trkpt lat="46.1162130" lon="10.5144320">
	<ele>2734.40</ele>
	<time>2023-08-07T07:35:19.000Z</time>
</trkpt>
<trkpt lat="46.1162130" lon="10.5144310">
	<ele>2734.40</ele>
	<time>2023-08-07T07:35:20.000Z</time>
</trkpt>
<trkpt lat="46.1162130" lon="10.5144310">
	<ele>2734.20</ele>
	<time>2023-08-07T07:35:21.000Z</time>
</trkpt>
<trkpt lat="46.1162130" lon="10.5144300">
	<ele>2734.20</ele>
	<time>2023-08-07T07:35:22.000Z</time>
</trkpt>
<trkpt lat="46.1162130" lon="10.5144300">
	<ele>2734.00</ele>
	<time>2023-08-07T07:35:23.000Z</time>
</trkpt>
<trkpt lat="46.1162140" lon="10.5144300">
	<ele>2733.60</ele>
	<time>2023-08-07T07:35:24.000Z</time>
</trkpt>
<trkpt lat="46.1162140" lon="10.5144300">
	<ele>2733.40</ele>
	<time>2023-08-07T07:35:25.000Z</time>
</trkpt>
<trkpt lat="46.1162140" lon="10.5144300">
	<ele>2733.20</ele>
	<time>2023-08-07T07:35:26.000Z</time>
</trkpt>
<trkpt lat="46.1162140" lon="10.5144300">
	<ele>2733.20</ele>
	<time>2023-08-07T07:35:27.000Z</time>
</trkpt>
<trkpt lat="46.1162150" lon="10.5144290">
	<ele>2732.80</ele>
	<time>2023-08-07T07:35:28.000Z</time>
</trkpt>
<trkpt lat="46.1162150" lon="10.5144290">
	<ele>2732.80</ele>
	<time>2023-08-07T07:35:29.000Z</time>
</trkpt>
<trkpt lat="46.1162150" lon="10.5144290">
	<ele>2732.60</ele>
	<time>2023-08-07T07:35:30.000Z</time>
</trkpt>
<trkpt lat="46.1162150" lon="10.5144290">
	<ele>2732.40</ele>
	<time>2023-08-07T07:35:31.000Z</time>
</trkpt>
<trkpt lat="46.1162160" lon="10.5144290">
	<ele>2732.40</ele>
	<time>2023-08-07T07:35:32.000Z</time>
</trkpt>
<trkpt lat="46.1162160" lon="10.5144290">
	<ele>2732.40</ele>
	<time>2023-08-07T07:35:33.000Z</time>
</trkpt>
<trkpt lat="46.1162170" lon="10.5144290">
	<ele>2732.20</ele>
	<time>2023-08-07T07:35:34.000Z</time>
</trkpt>
<trkpt lat="46.1162170" lon="10.5144280">
	<ele>2732.20</ele>
	<time>2023-08-07T07:35:35.000Z</time>
</trkpt>
<trkpt lat="46.1162170" lon="10.5144280">
	<ele>2732.00</ele>
	<time>2023-08-07T07:35:36.000Z</time>
</trkpt>
<trkpt lat="46.1162170" lon="10.5144280">
	<ele>2732.00</ele>
	<time>2023-08-07T07:35:37.000Z</time>
</trkpt>
<trkpt lat="46.1162180" lon="10.5144280">
	<ele>2731.80</ele>
	<time>2023-08-07T07:35:38.000Z</time>
</trkpt>
<trkpt lat="46.1162180" lon="10.5144280">
	<ele>2731.80</ele>
	<time>2023-08-07T07:35:39.000Z</time>
</trkpt>
<trkpt lat="46.1162180" lon="10.5144270">
	<ele>2731.80</ele>
	<time>2023-08-07T07:35:40.000Z</time>
</trkpt>
<trkpt lat="46.1162190" lon="10.5144270">
	<ele>2731.80</ele>
	<time>2023-08-07T07:35:41.000Z</time>
</trkpt>
<trkpt lat="46.1162190" lon="10.5144270">
	<ele>2731.60</ele>
	<time>2023-08-07T07:35:42.000Z</time>
</trkpt>
<trkpt lat="46.1162190" lon="10.5144270">
	<ele>2731.60</ele>
	<time>2023-08-07T07:35:43.000Z</time>
</trkpt>
<trkpt lat="46.1162190" lon="10.5144260">
	<ele>2731.40</ele>
	<time>2023-08-07T07:35:44.000Z</time>
</trkpt>
<trkpt lat="46.1162200" lon="10.5144260">
	<ele>2731.40</ele>
	<time>2023-08-07T07:35:45.000Z</time>
</trkpt>
<trkpt lat="46.1162200" lon="10.5144250">
	<ele>2731.40</ele>
	<time>2023-08-07T07:35:46.000Z</time>
</trkpt>
<trkpt lat="46.1162200" lon="10.5144250">
	<ele>2731.40</ele>
	<time>2023-08-07T07:35:47.000Z</time>
</trkpt>
<trkpt lat="46.1162210" lon="10.5144250">
	<ele>2731.40</ele>
	<time>2023-08-07T07:35:48.000Z</time>
</trkpt>
<trkpt lat="46.1162210" lon="10.5144250">
	<ele>2731.20</ele>
	<time>2023-08-07T07:35:49.000Z</time>
</trkpt>
<trkpt lat="46.1162210" lon="10.5144250">
	<ele>2731.20</ele>
	<time>2023-08-07T07:35:50.000Z</time>
</trkpt>
<trkpt lat="46.1162210" lon="10.5144240">
	<ele>2731.20</ele>
	<time>2023-08-07T07:35:51.000Z</time>
</trkpt>
<trkpt lat="46.1162220" lon="10.5144240">
	<ele>2731.20</ele>
	<time>2023-08-07T07:35:52.000Z</time>
</trkpt>
<trkpt lat="46.1162220" lon="10.5144240">
	<ele>2731.20</ele>
	<time>2023-08-07T07:35:53.000Z</time>
</trkpt>
<trkpt lat="46.1162230" lon="10.5144240">
	<ele>2731.20</ele>
	<time>2023-08-07T07:35:54.000Z</time>
</trkpt>
<trkpt lat="46.1162230" lon="10.5144230">
	<ele>2731.20</ele>
	<time>2023-08-07T07:35:55.000Z</time>
</trkpt>
<trkpt lat="46.1162230" lon="10.5144230">
	<ele>2731.00</ele>
	<time>2023-08-07T07:35:56.000Z</time>
</trkpt>
<trkpt lat="46.1162240" lon="10.5144230">
	<ele>2731.00</ele>
	<time>2023-08-07T07:35:57.000Z</time>
</trkpt>
<trkpt lat="46.1162240" lon="10.5144230">
	<ele>2731.00</ele>
	<time>2023-08-07T07:35:58.000Z</time>
</trkpt>
<trkpt lat="46.1162240" lon="10.5144220">
	<ele>2730.80</ele>
	<time>2023-08-07T07:35:59.000Z</time>
</trkpt>
<trkpt lat="46.1162240" lon="10.5144220">
	<ele>2730.40</ele>
	<time>2023-08-07T07:36:00.000Z</time>
</trkpt>
<trkpt lat="46.1162250" lon="10.5144220">
	<ele>2730.20</ele>
	<time>2023-08-07T07:36:01.000Z</time>
</trkpt>
<trkpt lat="46.1162250" lon="10.5144210">
	<ele>2730.00</ele>
	<time>2023-08-07T07:36:02.000Z</time>
</trkpt>
<trkpt lat="46.1162250" lon="10.5144210">
	<ele>2730.00</ele>
	<time>2023-08-07T07:36:03.000Z</time>
</trkpt>
<trkpt lat="46.1162260" lon="10.5144210">
	<ele>2729.80</ele>
	<time>2023-08-07T07:36:04.000Z</time>
</trkpt>
<trkpt lat="46.1162260" lon="10.5144200">
	<ele>2729.80</ele>
	<time>2023-08-07T07:36:05.000Z</time>
</trkpt>
<trkpt lat="46.1162260" lon="10.5144200">
	<ele>2729.80</ele>
	<time>2023-08-07T07:36:06.000Z</time>
</trkpt>
<trkpt lat="46.1162270" lon="10.5144200">
	<ele>2729.60</ele>
	<time>2023-08-07T07:36:07.000Z</time>
</trkpt>
<trkpt lat="46.1162270" lon="10.5144200">
	<ele>2729.60</ele>
	<time>2023-08-07T07:36:08.000Z</time>
</trkpt>
<trkpt lat="46.1162270" lon="10.5144190">
	<ele>2729.60</ele>
	<time>2023-08-07T07:36:09.000Z</time>
</trkpt>
<trkpt lat="46.1162280" lon="10.5144190">
	<ele>2729.40</ele>
	<time>2023-08-07T07:36:10.000Z</time>
</trkpt>
<trkpt lat="46.1162280" lon="10.5144190">
	<ele>2729.40</ele>
	<time>2023-08-07T07:36:11.000Z</time>
</trkpt>
<trkpt lat="46.1162280" lon="10.5144180">
	<ele>2729.20</ele>
	<time>2023-08-07T07:36:12.000Z</time>
</trkpt>
<trkpt lat="46.1162290" lon="10.5144180">
	<ele>2729.20</ele>
	<time>2023-08-07T07:36:13.000Z</time>
</trkpt>
<trkpt lat="46.1162290" lon="10.5144180">
	<ele>2729.00</ele>
	<time>2023-08-07T07:36:14.000Z</time>
</trkpt>
<trkpt lat="46.1162290" lon="10.5144170">
	<ele>2728.80</ele>
	<time>2023-08-07T07:36:15.000Z</time>
</trkpt>
<trkpt lat="46.1162300" lon="10.5144170">
	<ele>2728.80</ele>
	<time>2023-08-07T07:36:16.000Z</time>
</trkpt>
<trkpt lat="46.1162300" lon="10.5144170">
	<ele>2728.60</ele>
	<time>2023-08-07T07:36:17.000Z</time>
</trkpt>
<trkpt lat="46.1162300" lon="10.5144160">
	<ele>2728.40</ele>
	<time>2023-08-07T07:36:18.000Z</time>
</trkpt>
<trkpt lat="46.1162300" lon="10.5144160">
	<ele>2728.40</ele>
	<time>2023-08-07T07:36:19.000Z</time>
</trkpt>
<trkpt lat="46.1162310" lon="10.5144160">
	<ele>2728.40</ele>
	<time>2023-08-07T07:36:20.000Z</time>
</trkpt>
<trkpt lat="46.1162310" lon="10.5144150">
	<ele>2728.20</ele>
	<time>2023-08-07T07:36:21.000Z</time>
</trkpt>
<trkpt lat="46.1162320" lon="10.5144150">
	<ele>2728.20</ele>
	<time>2023-08-07T07:36:22.000Z</time>
</trkpt>
<trkpt lat="46.1162320" lon="10.5144140">
	<ele>2728.20</ele>
	<time>2023-08-07T07:36:23.000Z</time>
</trkpt>
<trkpt lat="46.1162320" lon="10.5144140">
	<ele>2728.20</ele>
	<time>2023-08-07T07:36:24.000Z</time>
</trkpt>
<trkpt lat="46.1162330" lon="10.5144140">
	<ele>2728.20</ele>
	<time>2023-08-07T07:36:25.000Z</time>
</trkpt>
<trkpt lat="46.1162330" lon="10.5144130">
	<ele>2727.80</ele>
	<time>2023-08-07T07:36:26.000Z</time>
</trkpt>
<trkpt lat="46.1162330" lon="10.5144130">
	<ele>2727.60</ele>
	<time>2023-08-07T07:36:27.000Z</time>
</trkpt>
<trkpt lat="46.1162340" lon="10.5144130">
	<ele>2727.40</ele>
	<time>2023-08-07T07:36:28.000Z</time>
</trkpt>
<trkpt lat="46.1162340" lon="10.5144120">
	<ele>2727.20</ele>
	<time>2023-08-07T07:36:29.000Z</time>
</trkpt>
<trkpt lat="46.1162340" lon="10.5144120">
	<ele>2727.20</ele>
	<time>2023-08-07T07:36:30.000Z</time>
</trkpt>
<trkpt lat="46.1162340" lon="10.5144110">
	<ele>2727.00</ele>
	<time>2023-08-07T07:36:31.000Z</time>
</trkpt>
<trkpt lat="46.1162350" lon="10.5144110">
	<ele>2727.00</ele>
	<time>2023-08-07T07:36:32.000Z</time>
</trkpt>
<trkpt lat="46.1162350" lon="10.5144100">
	<ele>2726.80</ele>
	<time>2023-08-07T07:36:33.000Z</time>
</trkpt>
<trkpt lat="46.1162350" lon="10.5144100">
	<ele>2726.80</ele>
	<time>2023-08-07T07:36:34.000Z</time>
</trkpt>
<trkpt lat="46.1162360" lon="10.5144100">
	<ele>2726.60</ele>
	<time>2023-08-07T07:36:35.000Z</time>
</trkpt>
<trkpt lat="46.1162360" lon="10.5144090">
	<ele>2726.60</ele>
	<time>2023-08-07T07:36:36.000Z</time>
</trkpt>
<trkpt lat="46.1162360" lon="10.5144090">
	<ele>2726.60</ele>
	<time>2023-08-07T07:36:37.000Z</time>
</trkpt>
<trkpt lat="46.1162360" lon="10.5144090">
	<ele>2726.40</ele>
	<time>2023-08-07T07:36:38.000Z</time>
</trkpt>
<trkpt lat="46.1162370" lon="10.5144080">
	<ele>2726.40</ele>
	<time>2023-08-07T07:36:39.000Z</time>
</trkpt>
<trkpt lat="46.1162370" lon="10.5144080">
	<ele>2726.20</ele>
	<time>2023-08-07T07:36:40.000Z</time>
</trkpt>
<trkpt lat="46.1162370" lon="10.5144070">
	<ele>2726.00</ele>
	<time>2023-08-07T07:36:41.000Z</time>
</trkpt>
<trkpt lat="46.1162380" lon="10.5144070">
	<ele>2726.00</ele>
	<time>2023-08-07T07:36:42.000Z</time>
</trkpt>
<trkpt lat="46.1162380" lon="10.5144060">
	<ele>2725.80</ele>
	<time>2023-08-07T07:36:43.000Z</time>
</trkpt>
<trkpt lat="46.1162380" lon="10.5144060">
	<ele>2725.60</ele>
	<time>2023-08-07T07:36:44.000Z</time>
</trkpt>
<trkpt lat="46.1162390" lon="10.5144060">
	<ele>2725.60</ele>
	<time>2023-08-07T07:36:45.000Z</time>
</trkpt>
<trkpt lat="46.1162390" lon="10.5144050">
	<ele>2725.40</ele>
	<time>2023-08-07T07:36:46.000Z</time>
</trkpt>
<trkpt lat="46.1162390" lon="10.5144050">
	<ele>2725.40</ele>
	<time>2023-08-07T07:36:47.000Z</time>
</trkpt>
<trkpt lat="46.1162400" lon="10.5144040">
	<ele>2725.60</ele>
	<time>2023-08-07T07:36:48.000Z</time>
</trkpt>
<trkpt lat="46.1162400" lon="10.5144040">
	<ele>2725.60</ele>
	<time>2023-08-07T07:36:49.000Z</time>
</trkpt>
<trkpt lat="46.1162410" lon="10.5144030">
	<ele>2725.60</ele>
	<time>2023-08-07T07:36:50.000Z</time>
</trkpt>
<trkpt lat="46.1162410" lon="10.5144030">
	<ele>2725.60</ele>
	<time>2023-08-07T07:36:51.000Z</time>
</trkpt>
<trkpt lat="46.1162410" lon="10.5144020">
	<ele>2725.40</ele>
	<time>2023-08-07T07:36:52.000Z</time>
</trkpt>
<trkpt lat="46.1162410" lon="10.5144020">
	<ele>2725.40</ele>
	<time>2023-08-07T07:36:53.000Z</time>
</trkpt>
<trkpt lat="46.1162420" lon="10.5144010">
	<ele>2725.40</ele>
	<time>2023-08-07T07:36:54.000Z</time>
</trkpt>
<trkpt lat="46.1162420" lon="10.5144010">
	<ele>2725.40</ele>
	<time>2023-08-07T07:36:55.000Z</time>
</trkpt>
<trkpt lat="46.1162420" lon="10.5144000">
	<ele>2725.20</ele>
	<time>2023-08-07T07:36:56.000Z</time>
</trkpt>
<trkpt lat="46.1162430" lon="10.5144000">
	<ele>2725.20</ele>
	<time>2023-08-07T07:36:57.000Z</time>
</trkpt>
<trkpt lat="46.1162430" lon="10.5144000">
	<ele>2725.20</ele>
	<time>2023-08-07T07:36:58.000Z</time>
</trkpt>
<trkpt lat="46.1162440" lon="10.5143990">
	<ele>2725.20</ele>
	<time>2023-08-07T07:36:59.000Z</time>
</trkpt>
<trkpt lat="46.1162440" lon="10.5143990">
	<ele>2725.20</ele>
	<time>2023-08-07T07:37:00.000Z</time>
</trkpt>
<trkpt lat="46.1162440" lon="10.5143990">
	<ele>2725.20</ele>
	<time>2023-08-07T07:37:01.000Z</time>
</trkpt>
<trkpt lat="46.1162450" lon="10.5143980">
	<ele>2725.20</ele>
	<time>2023-08-07T07:37:02.000Z</time>
</trkpt>
<trkpt lat="46.1162450" lon="10.5143980">
	<ele>2725.20</ele>
	<time>2023-08-07T07:37:03.000Z</time>
</trkpt>
<trkpt lat="46.1162450" lon="10.5143970">
	<ele>2725.20</ele>
	<time>2023-08-07T07:37:04.000Z</time>
</trkpt>
<trkpt lat="46.1162460" lon="10.5143970">
	<ele>2725.20</ele>
	<time>2023-08-07T07:37:05.000Z</time>
</trkpt>
<trkpt lat="46.1162460" lon="10.5143960">
	<ele>2725.00</ele>
	<time>2023-08-07T07:37:06.000Z</time>
</trkpt>
<trkpt lat="46.1162460" lon="10.5143960">
	<ele>2724.80</ele>
	<time>2023-08-07T07:37:07.000Z</time>
</trkpt>
<trkpt lat="46.1162470" lon="10.5143960">
	<ele>2724.60</ele>
	<time>2023-08-07T07:37:08.000Z</time>
</trkpt>
<trkpt lat="46.1162470" lon="10.5143950">
	<ele>2724.60</ele>
	<time>2023-08-07T07:37:09.000Z</time>
</trkpt>
<trkpt lat="46.1162470" lon="10.5143950">
	<ele>2724.40</ele>
	<time>2023-08-07T07:37:10.000Z</time>
</trkpt>
<trkpt lat="46.1162480" lon="10.5143940">
	<ele>2724.20</ele>
	<time>2023-08-07T07:37:11.000Z</time>
</trkpt>
<trkpt lat="46.1162480" lon="10.5143940">
	<ele>2724.20</ele>
	<time>2023-08-07T07:37:12.000Z</time>
</trkpt>
<trkpt lat="46.1162490" lon="10.5143940">
	<ele>2724.00</ele>
	<time>2023-08-07T07:37:13.000Z</time>
</trkpt>
<trkpt lat="46.1162490" lon="10.5143930">
	<ele>2724.00</ele>
	<time>2023-08-07T07:37:14.000Z</time>
</trkpt>
<trkpt lat="46.1162490" lon="10.5143930">
	<ele>2724.00</ele>
	<time>2023-08-07T07:37:15.000Z</time>
</trkpt>
<trkpt lat="46.1162500" lon="10.5143930">
	<ele>2723.80</ele>
	<time>2023-08-07T07:37:16.000Z</time>
</trkpt>
<trkpt lat="46.1162500" lon="10.5143920">
	<ele>2723.80</ele>
	<time>2023-08-07T07:37:17.000Z</time>
</trkpt>
<trkpt lat="46.1162500" lon="10.5143910">
	<ele>2723.60</ele>
	<time>2023-08-07T07:37:18.000Z</time>
</trkpt>
<trkpt lat="46.1162510" lon="10.5143910">
	<ele>2723.40</ele>
	<time>2023-08-07T07:37:19.000Z</time>
</trkpt>
<trkpt lat="46.1162510" lon="10.5143910">
	<ele>2723.20</ele>
	<time>2023-08-07T07:37:20.000Z</time>
</trkpt>
<trkpt lat="46.1162510" lon="10.5143900">
	<ele>2723.00</ele>
	<time>2023-08-07T07:37:21.000Z</time>
</trkpt>
<trkpt lat="46.1162520" lon="10.5143900">
	<ele>2723.00</ele>
	<time>2023-08-07T07:37:22.000Z</time>
</trkpt>
<trkpt lat="46.1162520" lon="10.5143890">
	<ele>2723.00</ele>
	<time>2023-08-07T07:37:23.000Z</time>
</trkpt>
<trkpt lat="46.1162530" lon="10.5143890">
	<ele>2723.00</ele>
	<time>2023-08-07T07:37:24.000Z</time>
</trkpt>
<trkpt lat="46.1162530" lon="10.5143880">
	<ele>2722.80</ele>
	<time>2023-08-07T07:37:25.000Z</time>
</trkpt>
<trkpt lat="46.1162530" lon="10.5143880">
	<ele>2722.80</ele>
	<time>2023-08-07T07:37:26.000Z</time>
</trkpt>
<trkpt lat="46.1162540" lon="10.5143870">
	<ele>2722.60</ele>
	<time>2023-08-07T07:37:27.000Z</time>
</trkpt>
<trkpt lat="46.1162540" lon="10.5143870">
	<ele>2722.60</ele>
	<time>2023-08-07T07:37:28.000Z</time>
</trkpt>
<trkpt lat="46.1162540" lon="10.5143860">
	<ele>2722.40</ele>
	<time>2023-08-07T07:37:29.000Z</time>
</trkpt>
<trkpt lat="46.1162550" lon="10.5143860">
	<ele>2722.20</ele>
	<time>2023-08-07T07:37:30.000Z</time>
</trkpt>
<trkpt lat="46.1162550" lon="10.5143850">
	<ele>2722.20</ele>
	<time>2023-08-07T07:37:31.000Z</time>
</trkpt>
<trkpt lat="46.1162560" lon="10.5143850">
	<ele>2722.20</ele>
	<time>2023-08-07T07:37:32.000Z</time>
</trkpt>
<trkpt lat="46.1162560" lon="10.5143840">
	<ele>2722.20</ele>
	<time>2023-08-07T07:37:33.000Z</time>
</trkpt>
<trkpt lat="46.1162560" lon="10.5143840">
	<ele>2722.00</ele>
	<time>2023-08-07T07:37:34.000Z</time>
</trkpt>
<trkpt lat="46.1162570" lon="10.5143830">
	<ele>2722.00</ele>
	<time>2023-08-07T07:37:35.000Z</time>
</trkpt>
<trkpt lat="46.1162570" lon="10.5143830">
	<ele>2722.00</ele>
	<time>2023-08-07T07:37:36.000Z</time>
</trkpt>
<trkpt lat="46.1162570" lon="10.5143830">
	<ele>2721.80</ele>
	<time>2023-08-07T07:37:37.000Z</time>
</trkpt>
<trkpt lat="46.1162570" lon="10.5143820">
	<ele>2721.60</ele>
	<time>2023-08-07T07:37:38.000Z</time>
</trkpt>
<trkpt lat="46.1162580" lon="10.5143820">
	<ele>2721.60</ele>
	<time>2023-08-07T07:37:39.000Z</time>
</trkpt>
<trkpt lat="46.1162580" lon="10.5143810">
	<ele>2721.60</ele>
	<time>2023-08-07T07:37:40.000Z</time>
</trkpt>
<trkpt lat="46.1162580" lon="10.5143800">
	<ele>2721.60</ele>
	<time>2023-08-07T07:37:41.000Z</time>
</trkpt>
<trkpt lat="46.1162590" lon="10.5143790">
	<ele>2721.60</ele>
	<time>2023-08-07T07:37:42.000Z</time>
</trkpt>
<trkpt lat="46.1162590" lon="10.5143790">
	<ele>2721.60</ele>
	<time>2023-08-07T07:37:43.000Z</time>
</trkpt>
<trkpt lat="46.1162590" lon="10.5143780">
	<ele>2721.60</ele>
	<time>2023-08-07T07:37:44.000Z</time>
</trkpt>
<trkpt lat="46.1162600" lon="10.5143780">
	<ele>2721.60</ele>
	<time>2023-08-07T07:37:45.000Z</time>
</trkpt>
<trkpt lat="46.1162600" lon="10.5143770">
	<ele>2721.60</ele>
	<time>2023-08-07T07:37:46.000Z</time>
</trkpt>
<trkpt lat="46.1162600" lon="10.5143770">
	<ele>2721.60</ele>
	<time>2023-08-07T07:37:47.000Z</time>
</trkpt>
<trkpt lat="46.1162610" lon="10.5143770">
	<ele>2721.60</ele>
	<time>2023-08-07T07:37:48.000Z</time>
</trkpt>
<trkpt lat="46.1162610" lon="10.5143760">
	<ele>2721.40</ele>
	<time>2023-08-07T07:37:49.000Z</time>
</trkpt>
<trkpt lat="46.1162610" lon="10.5143760">
	<ele>2721.40</ele>
	<time>2023-08-07T07:37:50.000Z</time>
</trkpt>
<trkpt lat="46.1162610" lon="10.5143750">
	<ele>2721.40</ele>
	<time>2023-08-07T07:37:51.000Z</time>
</trkpt>
<trkpt lat="46.1162620" lon="10.5143740">
	<ele>2721.40</ele>
	<time>2023-08-07T07:37:52.000Z</time>
</trkpt>
<trkpt lat="46.1162620" lon="10.5143740">
	<ele>2721.20</ele>
	<time>2023-08-07T07:37:53.000Z</time>
</trkpt>
<trkpt lat="46.1162630" lon="10.5143730">
	<ele>2721.00</ele>
	<time>2023-08-07T07:37:54.000Z</time>
</trkpt>
<trkpt lat="46.1162630" lon="10.5143730">
	<ele>2721.00</ele>
	<time>2023-08-07T07:37:55.000Z</time>
</trkpt>
<trkpt lat="46.1162630" lon="10.5143720">
	<ele>2721.00</ele>
	<time>2023-08-07T07:37:56.000Z</time>
</trkpt>
<trkpt lat="46.1162640" lon="10.5143720">
	<ele>2720.80</ele>
	<time>2023-08-07T07:37:57.000Z</time>
</trkpt>
<trkpt lat="46.1162640" lon="10.5143710">
	<ele>2720.80</ele>
	<time>2023-08-07T07:37:58.000Z</time>
</trkpt>
<trkpt lat="46.1162640" lon="10.5143700">
	<ele>2720.80</ele>
	<time>2023-08-07T07:37:59.000Z</time>
</trkpt>
<trkpt lat="46.1162650" lon="10.5143700">
	<ele>2720.80</ele>
	<time>2023-08-07T07:38:00.000Z</time>
</trkpt>
<trkpt lat="46.1162650" lon="10.5143690">
	<ele>2720.60</ele>
	<time>2023-08-07T07:38:01.000Z</time>
</trkpt>
<trkpt lat="46.1162650" lon="10.5143680">
	<ele>2720.60</ele>
	<time>2023-08-07T07:38:02.000Z</time>
</trkpt>
<trkpt lat="46.1162660" lon="10.5143680">
	<ele>2720.40</ele>
	<time>2023-08-07T07:38:03.000Z</time>
</trkpt>
<trkpt lat="46.1162660" lon="10.5143670">
	<ele>2720.40</ele>
	<time>2023-08-07T07:38:04.000Z</time>
</trkpt>
<trkpt lat="46.1162660" lon="10.5143670">
	<ele>2720.40</ele>
	<time>2023-08-07T07:38:05.000Z</time>
</trkpt>
<trkpt lat="46.1162670" lon="10.5143660">
	<ele>2720.20</ele>
	<time>2023-08-07T07:38:06.000Z</time>
</trkpt>
<trkpt lat="46.1162670" lon="10.5143650">
	<ele>2720.20</ele>
	<time>2023-08-07T07:38:07.000Z</time>
</trkpt>
<trkpt lat="46.1162680" lon="10.5143650">
	<ele>2720.20</ele>
	<time>2023-08-07T07:38:08.000Z</time>
</trkpt>
<trkpt lat="46.1162680" lon="10.5143640">
	<ele>2720.20</ele>
	<time>2023-08-07T07:38:09.000Z</time>
</trkpt>
<trkpt lat="46.1162680" lon="10.5143630">
	<ele>2720.20</ele>
	<time>2023-08-07T07:38:10.000Z</time>
</trkpt>
<trkpt lat="46.1162690" lon="10.5143620">
	<ele>2720.00</ele>
	<time>2023-08-07T07:38:11.000Z</time>
</trkpt>
<trkpt lat="46.1162690" lon="10.5143620">
	<ele>2719.80</ele>
	<time>2023-08-07T07:38:12.000Z</time>
</trkpt>
<trkpt lat="46.1162690" lon="10.5143610">
	<ele>2719.60</ele>
	<time>2023-08-07T07:38:13.000Z</time>
</trkpt>
<trkpt lat="46.1162700" lon="10.5143610">
	<ele>2719.60</ele>
	<time>2023-08-07T07:38:14.000Z</time>
</trkpt>
<trkpt lat="46.1162700" lon="10.5143600">
	<ele>2719.60</ele>
	<time>2023-08-07T07:38:15.000Z</time>
</trkpt>
<trkpt lat="46.1162710" lon="10.5143600">
	<ele>2719.60</ele>
	<time>2023-08-07T07:38:16.000Z</time>
</trkpt>
<trkpt lat="46.1162710" lon="10.5143590">
	<ele>2719.60</ele>
	<time>2023-08-07T07:38:17.000Z</time>
</trkpt>
<trkpt lat="46.1162710" lon="10.5143590">
	<ele>2719.80</ele>
	<time>2023-08-07T07:38:18.000Z</time>
</trkpt>
<trkpt lat="46.1162720" lon="10.5143580">
	<ele>2719.80</ele>
	<time>2023-08-07T07:38:19.000Z</time>
</trkpt>
<trkpt lat="46.1162720" lon="10.5143570">
	<ele>2719.80</ele>
	<time>2023-08-07T07:38:20.000Z</time>
</trkpt>
<trkpt lat="46.1162730" lon="10.5143570">
	<ele>2719.80</ele>
	<time>2023-08-07T07:38:21.000Z</time>
</trkpt>
<trkpt lat="46.1162730" lon="10.5143560">
	<ele>2719.40</ele>
	<time>2023-08-07T07:38:22.000Z</time>
</trkpt>
<trkpt lat="46.1162730" lon="10.5143550">
	<ele>2719.40</ele>
	<time>2023-08-07T07:38:23.000Z</time>
</trkpt>
<trkpt lat="46.1162740" lon="10.5143550">
	<ele>2719.20</ele>
	<time>2023-08-07T07:38:24.000Z</time>
</trkpt>
<trkpt lat="46.1162740" lon="10.5143550">
	<ele>2719.20</ele>
	<time>2023-08-07T07:38:25.000Z</time>
</trkpt>
<trkpt lat="46.1162750" lon="10.5143540">
	<ele>2719.20</ele>
	<time>2023-08-07T07:38:26.000Z</time>
</trkpt>
<trkpt lat="46.1162750" lon="10.5143530">
	<ele>2719.40</ele>
	<time>2023-08-07T07:38:27.000Z</time>
</trkpt>
<trkpt lat="46.1162760" lon="10.5143530">
	<ele>2719.60</ele>
	<time>2023-08-07T07:38:28.000Z</time>
</trkpt>
<trkpt lat="46.1162760" lon="10.5143520">
	<ele>2719.60</ele>
	<time>2023-08-07T07:38:29.000Z</time>
</trkpt>
<trkpt lat="46.1162770" lon="10.5143520">
	<ele>2719.60</ele>
	<time>2023-08-07T07:38:30.000Z</time>
</trkpt>
<trkpt lat="46.1162770" lon="10.5143510">
	<ele>2719.80</ele>
	<time>2023-08-07T07:38:31.000Z</time>
</trkpt>
<trkpt lat="46.1162780" lon="10.5143510">
	<ele>2720.00</ele>
	<time>2023-08-07T07:38:32.000Z</time>
</trkpt>
<trkpt lat="46.1162780" lon="10.5143500">
	<ele>2720.00</ele>
	<time>2023-08-07T07:38:33.000Z</time>
</trkpt>
<trkpt lat="46.1162790" lon="10.5143490">
	<ele>2720.00</ele>
	<time>2023-08-07T07:38:34.000Z</time>
</trkpt>
<trkpt lat="46.1162790" lon="10.5143490">
	<ele>2720.00</ele>
	<time>2023-08-07T07:38:35.000Z</time>
</trkpt>
<trkpt lat="46.1162800" lon="10.5143480">
	<ele>2720.00</ele>
	<time>2023-08-07T07:38:36.000Z</time>
</trkpt>
<trkpt lat="46.1162800" lon="10.5143470">
	<ele>2719.80</ele>
	<time>2023-08-07T07:38:37.000Z</time>
</trkpt>
<trkpt lat="46.1162800" lon="10.5143470">
	<ele>2719.60</ele>
	<time>2023-08-07T07:38:38.000Z</time>
</trkpt>
<trkpt lat="46.1162810" lon="10.5143460">
	<ele>2719.40</ele>
	<time>2023-08-07T07:38:39.000Z</time>
</trkpt>
<trkpt lat="46.1162810" lon="10.5143460">
	<ele>2719.20</ele>
	<time>2023-08-07T07:38:40.000Z</time>
</trkpt>
<trkpt lat="46.1162820" lon="10.5143450">
	<ele>2719.20</ele>
	<time>2023-08-07T07:38:41.000Z</time>
</trkpt>
<trkpt lat="46.1162820" lon="10.5143450">
	<ele>2719.20</ele>
	<time>2023-08-07T07:38:42.000Z</time>
</trkpt>
<trkpt lat="46.1162830" lon="10.5143440">
	<ele>2719.20</ele>
	<time>2023-08-07T07:38:43.000Z</time>
</trkpt>
<trkpt lat="46.1162830" lon="10.5143440">
	<ele>2719.20</ele>
	<time>2023-08-07T07:38:44.000Z</time>
</trkpt>
<trkpt lat="46.1162830" lon="10.5143430">
	<ele>2719.20</ele>
	<time>2023-08-07T07:38:45.000Z</time>
</trkpt>
<trkpt lat="46.1162840" lon="10.5143430">
	<ele>2719.20</ele>
	<time>2023-08-07T07:38:46.000Z</time>
</trkpt>
<trkpt lat="46.1162840" lon="10.5143420">
	<ele>2719.20</ele>
	<time>2023-08-07T07:38:47.000Z</time>
</trkpt>
<trkpt lat="46.1162850" lon="10.5143410">
	<ele>2719.00</ele>
	<time>2023-08-07T07:38:48.000Z</time>
</trkpt>
<trkpt lat="46.1162850" lon="10.5143410">
	<ele>2718.80</ele>
	<time>2023-08-07T07:38:49.000Z</time>
</trkpt>
<trkpt lat="46.1162850" lon="10.5143400">
	<ele>2718.60</ele>
	<time>2023-08-07T07:38:50.000Z</time>
</trkpt>
<trkpt lat="46.1162860" lon="10.5143400">
	<ele>2718.60</ele>
	<time>2023-08-07T07:38:51.000Z</time>
</trkpt>
<trkpt lat="46.1162860" lon="10.5143400">
	<ele>2718.40</ele>
	<time>2023-08-07T07:38:52.000Z</time>
</trkpt>
<trkpt lat="46.1162870" lon="10.5143390">
	<ele>2718.40</ele>
	<time>2023-08-07T07:38:53.000Z</time>
</trkpt>
<trkpt lat="46.1162870" lon="10.5143390">
	<ele>2718.40</ele>
	<time>2023-08-07T07:38:54.000Z</time>
</trkpt>
<trkpt lat="46.1162870" lon="10.5143380">
	<ele>2718.40</ele>
	<time>2023-08-07T07:38:55.000Z</time>
</trkpt>
<trkpt lat="46.1162880" lon="10.5143370">
	<ele>2718.40</ele>
	<time>2023-08-07T07:38:56.000Z</time>
</trkpt>
<trkpt lat="46.1162880" lon="10.5143370">
	<ele>2718.20</ele>
	<time>2023-08-07T07:38:57.000Z</time>
</trkpt>
<trkpt lat="46.1162880" lon="10.5143370">
	<ele>2718.00</ele>
	<time>2023-08-07T07:38:58.000Z</time>
</trkpt>
<trkpt lat="46.1162890" lon="10.5143360">
	<ele>2718.00</ele>
	<time>2023-08-07T07:38:59.000Z</time>
</trkpt>
<trkpt lat="46.1162890" lon="10.5143360">
	<ele>2717.60</ele>
	<time>2023-08-07T07:39:00.000Z</time>
</trkpt>
<trkpt lat="46.1162900" lon="10.5143350">
	<ele>2717.40</ele>
	<time>2023-08-07T07:39:01.000Z</time>
</trkpt>
<trkpt lat="46.1162900" lon="10.5143340">
	<ele>2717.40</ele>
	<time>2023-08-07T07:39:02.000Z</time>
</trkpt>
<trkpt lat="46.1162910" lon="10.5143340">
	<ele>2717.20</ele>
	<time>2023-08-07T07:39:03.000Z</time>
</trkpt>
<trkpt lat="46.1162910" lon="10.5143330">
	<ele>2717.00</ele>
	<time>2023-08-07T07:39:04.000Z</time>
</trkpt>
<trkpt lat="46.1162910" lon="10.5143330">
	<ele>2716.80</ele>
	<time>2023-08-07T07:39:05.000Z</time>
</trkpt>
<trkpt lat="46.1162920" lon="10.5143320">
	<ele>2716.80</ele>
	<time>2023-08-07T07:39:06.000Z</time>
</trkpt>
<trkpt lat="46.1162920" lon="10.5143320">
	<ele>2716.60</ele>
	<time>2023-08-07T07:39:07.000Z</time>
</trkpt>
<trkpt lat="46.1162920" lon="10.5143310">
	<ele>2716.60</ele>
	<time>2023-08-07T07:39:08.000Z</time>
</trkpt>
<trkpt lat="46.1162930" lon="10.5143310">
	<ele>2716.40</ele>
	<time>2023-08-07T07:39:09.000Z</time>
</trkpt>
<trkpt lat="46.1162930" lon="10.5143300">
	<ele>2716.20</ele>
	<time>2023-08-07T07:39:10.000Z</time>
</trkpt>
<trkpt lat="46.1162940" lon="10.5143300">
	<ele>2716.00</ele>
	<time>2023-08-07T07:39:11.000Z</time>
</trkpt>
<trkpt lat="46.1162940" lon="10.5143290">
	<ele>2716.00</ele>
	<time>2023-08-07T07:39:12.000Z</time>
</trkpt>
<trkpt lat="46.1162940" lon="10.5143280">
	<ele>2715.80</ele>
	<time>2023-08-07T07:39:13.000Z</time>
</trkpt>
<trkpt lat="46.1162950" lon="10.5143280">
	<ele>2715.60</ele>
	<time>2023-08-07T07:39:14.000Z</time>
</trkpt>
<trkpt lat="46.1162950" lon="10.5143270">
	<ele>2715.40</ele>
	<time>2023-08-07T07:39:15.000Z</time>
</trkpt>
<trkpt lat="46.1162950" lon="10.5143260">
	<ele>2715.40</ele>
	<time>2023-08-07T07:39:16.000Z</time>
</trkpt>
<trkpt lat="46.1162960" lon="10.5143260">
	<ele>2715.20</ele>
	<time>2023-08-07T07:39:17.000Z</time>
</trkpt>
<trkpt lat="46.1162960" lon="10.5143250">
	<ele>2715.20</ele>
	<time>2023-08-07T07:39:18.000Z</time>
</trkpt>
<trkpt lat="46.1162970" lon="10.5143250">
	<ele>2715.00</ele>
	<time>2023-08-07T07:39:19.000Z</time>
</trkpt>
<trkpt lat="46.1162970" lon="10.5143240">
	<ele>2715.00</ele>
	<time>2023-08-07T07:39:20.000Z</time>
</trkpt>
<trkpt lat="46.1162970" lon="10.5143230">
	<ele>2714.80</ele>
	<time>2023-08-07T07:39:21.000Z</time>
</trkpt>
<trkpt lat="46.1162980" lon="10.5143230">
	<ele>2714.80</ele>
	<time>2023-08-07T07:39:22.000Z</time>
</trkpt>
<trkpt lat="46.1162980" lon="10.5143220">
	<ele>2714.60</ele>
	<time>2023-08-07T07:39:23.000Z</time>
</trkpt>
<trkpt lat="46.1162980" lon="10.5143210">
	<ele>2714.40</ele>
	<time>2023-08-07T07:39:24.000Z</time>
</trkpt>
<trkpt lat="46.1162990" lon="10.5143210">
	<ele>2714.20</ele>
	<time>2023-08-07T07:39:25.000Z</time>
</trkpt>
<trkpt lat="46.1162990" lon="10.5143200">
	<ele>2714.20</ele>
	<time>2023-08-07T07:39:26.000Z</time>
</trkpt>
<trkpt lat="46.1162990" lon="10.5143190">
	<ele>2714.00</ele>
	<time>2023-08-07T07:39:27.000Z</time>
</trkpt>
<trkpt lat="46.1163000" lon="10.5143180">
	<ele>2714.00</ele>
	<time>2023-08-07T07:39:28.000Z</time>
</trkpt>
<trkpt lat="46.1163000" lon="10.5143180">
	<ele>2714.00</ele>
	<time>2023-08-07T07:39:29.000Z</time>
</trkpt>
<trkpt lat="46.1163000" lon="10.5143170">
	<ele>2713.80</ele>
	<time>2023-08-07T07:39:30.000Z</time>
</trkpt>
<trkpt lat="46.1163010" lon="10.5143160">
	<ele>2713.80</ele>
	<time>2023-08-07T07:39:31.000Z</time>
</trkpt>
<trkpt lat="46.1163010" lon="10.5143160">
	<ele>2713.60</ele>
	<time>2023-08-07T07:39:32.000Z</time>
</trkpt>
<trkpt lat="46.1163010" lon="10.5143150">
	<ele>2713.40</ele>
	<time>2023-08-07T07:39:33.000Z</time>
</trkpt>
<trkpt lat="46.1163020" lon="10.5143140">
	<ele>2713.20</ele>
	<time>2023-08-07T07:39:34.000Z</time>
</trkpt>
<trkpt lat="46.1163020" lon="10.5143140">
	<ele>2713.20</ele>
	<time>2023-08-07T07:39:35.000Z</time>
</trkpt>
<trkpt lat="46.1163030" lon="10.5143130">
	<ele>2713.00</ele>
	<time>2023-08-07T07:39:36.000Z</time>
</trkpt>
<trkpt lat="46.1163030" lon="10.5143120">
	<ele>2713.00</ele>
	<time>2023-08-07T07:39:37.000Z</time>
</trkpt>
<trkpt lat="46.1163030" lon="10.5143120">
	<ele>2712.80</ele>
	<time>2023-08-07T07:39:38.000Z</time>
</trkpt>
<trkpt lat="46.1163040" lon="10.5143110">
	<ele>2712.80</ele>
	<time>2023-08-07T07:39:39.000Z</time>
</trkpt>
<trkpt lat="46.1163040" lon="10.5143100">
	<ele>2712.80</ele>
	<time>2023-08-07T07:39:40.000Z</time>
</trkpt>
<trkpt lat="46.1163040" lon="10.5143090">
	<ele>2712.60</ele>
	<time>2023-08-07T07:39:41.000Z</time>
</trkpt>
<trkpt lat="46.1163050" lon="10.5143090">
	<ele>2712.60</ele>
	<time>2023-08-07T07:39:42.000Z</time>
</trkpt>
<trkpt lat="46.1163050" lon="10.5143080">
	<ele>2712.60</ele>
	<time>2023-08-07T07:39:43.000Z</time>
</trkpt>
<trkpt lat="46.1163060" lon="10.5143070">
	<ele>2712.40</ele>
	<time>2023-08-07T07:39:44.000Z</time>
</trkpt>
<trkpt lat="46.1163060" lon="10.5143070">
	<ele>2712.40</ele>
	<time>2023-08-07T07:39:45.000Z</time>
</trkpt>
<trkpt lat="46.1163070" lon="10.5143060">
	<ele>2712.40</ele>
	<time>2023-08-07T07:39:46.000Z</time>
</trkpt>
<trkpt lat="46.1163070" lon="10.5143050">
	<ele>2712.40</ele>
	<time>2023-08-07T07:39:47.000Z</time>
</trkpt>
<trkpt lat="46.1163070" lon="10.5143040">
	<ele>2712.20</ele>
	<time>2023-08-07T07:39:48.000Z</time>
</trkpt>
<trkpt lat="46.1163080" lon="10.5143040">
	<ele>2712.20</ele>
	<time>2023-08-07T07:39:49.000Z</time>
</trkpt>
<trkpt lat="46.1163080" lon="10.5143030">
	<ele>2712.20</ele>
	<time>2023-08-07T07:39:50.000Z</time>
</trkpt>
<trkpt lat="46.1163080" lon="10.5143020">
	<ele>2712.00</ele>
	<time>2023-08-07T07:39:51.000Z</time>
</trkpt>
<trkpt lat="46.1163090" lon="10.5143010">
	<ele>2712.00</ele>
	<time>2023-08-07T07:39:52.000Z</time>
</trkpt>
<trkpt lat="46.1163090" lon="10.5143010">
	<ele>2712.00</ele>
	<time>2023-08-07T07:39:53.000Z</time>
</trkpt>
<trkpt lat="46.1163100" lon="10.5143000">
	<ele>2712.00</ele>
	<time>2023-08-07T07:39:54.000Z</time>
</trkpt>
<trkpt lat="46.1163100" lon="10.5142990">
	<ele>2712.00</ele>
	<time>2023-08-07T07:39:55.000Z</time>
</trkpt>
<trkpt lat="46.1163100" lon="10.5142980">
	<ele>2712.00</ele>
	<time>2023-08-07T07:39:56.000Z</time>
</trkpt>
<trkpt lat="46.1163110" lon="10.5142970">
	<ele>2712.00</ele>
	<time>2023-08-07T07:39:57.000Z</time>
</trkpt>
<trkpt lat="46.1163110" lon="10.5142970">
	<ele>2712.00</ele>
	<time>2023-08-07T07:39:58.000Z</time>
</trkpt>
<trkpt lat="46.1163110" lon="10.5142960">
	<ele>2712.00</ele>
	<time>2023-08-07T07:39:59.000Z</time>
</trkpt>
<trkpt lat="46.1163120" lon="10.5142950">
	<ele>2712.00</ele>
	<time>2023-08-07T07:40:00.000Z</time>
</trkpt>
<trkpt lat="46.1163120" lon="10.5142940">
	<ele>2712.00</ele>
	<time>2023-08-07T07:40:01.000Z</time>
</trkpt>
<trkpt lat="46.1163120" lon="10.5142930">
	<ele>2712.00</ele>
	<time>2023-08-07T07:40:02.000Z</time>
</trkpt>
<trkpt lat="46.1163130" lon="10.5142920">
	<ele>2712.20</ele>
	<time>2023-08-07T07:40:03.000Z</time>
</trkpt>
<trkpt lat="46.1163130" lon="10.5142920">
	<ele>2712.40</ele>
	<time>2023-08-07T07:40:04.000Z</time>
</trkpt>
<trkpt lat="46.1163140" lon="10.5142910">
	<ele>2712.40</ele>
	<time>2023-08-07T07:40:05.000Z</time>
</trkpt>
<trkpt lat="46.1163140" lon="10.5142900">
	<ele>2712.60</ele>
	<time>2023-08-07T07:40:06.000Z</time>
</trkpt>
<trkpt lat="46.1163140" lon="10.5142890">
	<ele>2712.60</ele>
	<time>2023-08-07T07:40:07.000Z</time>
</trkpt>
<trkpt lat="46.1163150" lon="10.5142880">
	<ele>2712.60</ele>
	<time>2023-08-07T07:40:08.000Z</time>
</trkpt>
<trkpt lat="46.1163150" lon="10.5142880">
	<ele>2712.60</ele>
	<time>2023-08-07T07:40:09.000Z</time>
</trkpt>
<trkpt lat="46.1163160" lon="10.5142870">
	<ele>2712.60</ele>
	<time>2023-08-07T07:40:10.000Z</time>
</trkpt>
<trkpt lat="46.1163160" lon="10.5142860">
	<ele>2712.40</ele>
	<time>2023-08-07T07:40:11.000Z</time>
</trkpt>
<trkpt lat="46.1163160" lon="10.5142850">
	<ele>2712.40</ele>
	<time>2023-08-07T07:40:12.000Z</time>
</trkpt>
<trkpt lat="46.1163170" lon="10.5142840">
	<ele>2712.20</ele>
	<time>2023-08-07T07:40:13.000Z</time>
</trkpt>
<trkpt lat="46.1163170" lon="10.5142840">
	<ele>2712.20</ele>
	<time>2023-08-07T07:40:14.000Z</time>
</trkpt>
<trkpt lat="46.1163170" lon="10.5142830">
	<ele>2712.00</ele>
	<time>2023-08-07T07:40:15.000Z</time>
</trkpt>
<trkpt lat="46.1163180" lon="10.5142820">
	<ele>2712.00</ele>
	<time>2023-08-07T07:40:16.000Z</time>
</trkpt>
<trkpt lat="46.1163550" lon="10.5142010">
	<ele>2712.00</ele>
	<time>2023-08-07T07:40:17.000Z</time>
</trkpt>
<trkpt lat="46.1163930" lon="10.5141180">
	<ele>2711.80</ele>
	<time>2023-08-07T07:40:18.000Z</time>
</trkpt>
<trkpt lat="46.1164290" lon="10.5140330">
	<ele>2711.80</ele>
	<time>2023-08-07T07:40:19.000Z</time>
</trkpt>
<trkpt lat="46.1164620" lon="10.5139480">
	<ele>2711.80</ele>
	<time>2023-08-07T07:40:20.000Z</time>
</trkpt>
<trkpt lat="46.1164960" lon="10.5138640">
	<ele>2711.80</ele>
	<time>2023-08-07T07:40:21.000Z</time>
</trkpt>
<trkpt lat="46.1165310" lon="10.5137780">
	<ele>2711.80</ele>
	<time>2023-08-07T07:40:22.000Z</time>
</trkpt>
<trkpt lat="46.1165660" lon="10.5136920">
	<ele>2711.60</ele>
	<time>2023-08-07T07:40:23.000Z</time>
</trkpt>
<trkpt lat="46.1166060" lon="10.5136050">
	<ele>2711.40</ele>
	<time>2023-08-07T07:40:24.000Z</time>
</trkpt>
<trkpt lat="46.1166400" lon="10.5135210">
	<ele>2711.40</ele>
	<time>2023-08-07T07:40:25.000Z</time>
</trkpt>
<trkpt lat="46.1166740" lon="10.5134380">
	<ele>2711.20</ele>
	<time>2023-08-07T07:40:26.000Z</time>
</trkpt>
<trkpt lat="46.1166710" lon="10.5134390">
	<ele>2711.00</ele>
	<time>2023-08-07T07:40:27.000Z</time>
</trkpt>
<trkpt lat="46.1166720" lon="10.5134310">
	<ele>2710.80</ele>
	<time>2023-08-07T07:40:28.000Z</time>
</trkpt>
<trkpt lat="46.1166710" lon="10.5134220">
	<ele>2710.80</ele>
	<time>2023-08-07T07:40:29.000Z</time>
</trkpt>
<trkpt lat="46.1166690" lon="10.5134150">
	<ele>2710.60</ele>
	<time>2023-08-07T07:40:30.000Z</time>
</trkpt>
<trkpt lat="46.1166690" lon="10.5134080">
	<ele>2710.40</ele>
	<time>2023-08-07T07:40:31.000Z</time>
</trkpt>
<trkpt lat="46.1166670" lon="10.5134040">
	<ele>2710.40</ele>
	<time>2023-08-07T07:40:32.000Z</time>
</trkpt>
<trkpt lat="46.1166680" lon="10.5133950">
	<ele>2710.20</ele>
	<time>2023-08-07T07:40:33.000Z</time>
</trkpt>
<trkpt lat="46.1166700" lon="10.5133870">
	<ele>2710.20</ele>
	<time>2023-08-07T07:40:34.000Z</time>
</trkpt>
<trkpt lat="46.1166740" lon="10.5133670">
	<ele>2710.20</ele>
	<time>2023-08-07T07:40:35.000Z</time>
</trkpt>
<trkpt lat="46.1166670" lon="10.5133590">
	<ele>2710.00</ele>
	<time>2023-08-07T07:40:36.000Z</time>
</trkpt>
<trkpt lat="46.1166630" lon="10.5133620">
	<ele>2709.80</ele>
	<time>2023-08-07T07:40:37.000Z</time>
</trkpt>
<trkpt lat="46.1166600" lon="10.5133670">
	<ele>2709.80</ele>
	<time>2023-08-07T07:40:38.000Z</time>
</trkpt>
<trkpt lat="46.1166710" lon="10.5133610">
	<ele>2709.60</ele>
	<time>2023-08-07T07:40:39.000Z</time>
</trkpt>
<trkpt lat="46.1166730" lon="10.5133560">
	<ele>2709.60</ele>
	<time>2023-08-07T07:40:40.000Z</time>
</trkpt>
<trkpt lat="46.1166710" lon="10.5133510">
	<ele>2709.60</ele>
	<time>2023-08-07T07:40:41.000Z</time>
</trkpt>
<trkpt lat="46.1166700" lon="10.5133450">
	<ele>2709.60</ele>
	<time>2023-08-07T07:40:42.000Z</time>
</trkpt>
<trkpt lat="46.1166660" lon="10.5133410">
	<ele>2709.60</ele>
	<time>2023-08-07T07:40:43.000Z</time>
</trkpt>
<trkpt lat="46.1166670" lon="10.5133360">
	<ele>2709.60</ele>
	<time>2023-08-07T07:40:44.000Z</time>
</trkpt>
<trkpt lat="46.1166690" lon="10.5133320">
	<ele>2709.40</ele>
	<time>2023-08-07T07:40:45.000Z</time>
</trkpt>
<trkpt lat="46.1166760" lon="10.5133220">
	<ele>2709.40</ele>
	<time>2023-08-07T07:40:46.000Z</time>
</trkpt>
<trkpt lat="46.1166850" lon="10.5133110">
	<ele>2709.20</ele>
	<time>2023-08-07T07:40:47.000Z</time>
</trkpt>
<trkpt lat="46.1166940" lon="10.5133050">
	<ele>2709.00</ele>
	<time>2023-08-07T07:40:48.000Z</time>
</trkpt>
<trkpt lat="46.1167000" lon="10.5133000">
	<ele>2709.00</ele>
	<time>2023-08-07T07:40:49.000Z</time>
</trkpt>
<trkpt lat="46.1167050" lon="10.5132960">
	<ele>2708.80</ele>
	<time>2023-08-07T07:40:50.000Z</time>
</trkpt>
<trkpt lat="46.1167110" lon="10.5132850">
	<ele>2708.80</ele>
	<time>2023-08-07T07:40:51.000Z</time>
</trkpt>
<trkpt lat="46.1167130" lon="10.5132800">
	<ele>2708.60</ele>
	<time>2023-08-07T07:40:52.000Z</time>
</trkpt>
<trkpt lat="46.1167110" lon="10.5132720">
	<ele>2708.40</ele>
	<time>2023-08-07T07:40:53.000Z</time>
</trkpt>
<trkpt lat="46.1167070" lon="10.5132680">
	<ele>2708.40</ele>
	<time>2023-08-07T07:40:54.000Z</time>
</trkpt>
<trkpt lat="46.1167030" lon="10.5132600">
	<ele>2708.40</ele>
	<time>2023-08-07T07:40:55.000Z</time>
</trkpt>
<trkpt lat="46.1166980" lon="10.5132450">
	<ele>2708.20</ele>
	<time>2023-08-07T07:40:56.000Z</time>
</trkpt>
<trkpt lat="46.1166930" lon="10.5132320">
	<ele>2708.20</ele>
	<time>2023-08-07T07:40:57.000Z</time>
</trkpt>
<trkpt lat="46.1166920" lon="10.5132220">
	<ele>2708.20</ele>
	<time>2023-08-07T07:40:58.000Z</time>
</trkpt>
<trkpt lat="46.1166990" lon="10.5132130">
	<ele>2708.00</ele>
	<time>2023-08-07T07:40:59.000Z</time>
</trkpt>
<trkpt lat="46.1167130" lon="10.5131970">
	<ele>2708.00</ele>
	<time>2023-08-07T07:41:00.000Z</time>
</trkpt>
<trkpt lat="46.1167200" lon="10.5131890">
	<ele>2707.80</ele>
	<time>2023-08-07T07:41:01.000Z</time>
</trkpt>
<trkpt lat="46.1167220" lon="10.5131860">
	<ele>2707.60</ele>
	<time>2023-08-07T07:41:02.000Z</time>
</trkpt>
<trkpt lat="46.1167260" lon="10.5131870">
	<ele>2707.40</ele>
	<time>2023-08-07T07:41:03.000Z</time>
</trkpt>
<trkpt lat="46.1167330" lon="10.5131910">
	<ele>2707.20</ele>
	<time>2023-08-07T07:41:04.000Z</time>
</trkpt>
<trkpt lat="46.1167410" lon="10.5131770">
	<ele>2707.20</ele>
	<time>2023-08-07T07:41:05.000Z</time>
</trkpt>
<trkpt lat="46.1167450" lon="10.5131720">
	<ele>2707.00</ele>
	<time>2023-08-07T07:41:06.000Z</time>
</trkpt>
<trkpt lat="46.1167410" lon="10.5131640">
	<ele>2707.00</ele>
	<time>2023-08-07T07:41:07.000Z</time>
</trkpt>
<trkpt lat="46.1167430" lon="10.5131570">
	<ele>2707.00</ele>
	<time>2023-08-07T07:41:08.000Z</time>
</trkpt>
<trkpt lat="46.1167390" lon="10.5131490">
	<ele>2707.00</ele>
	<time>2023-08-07T07:41:09.000Z</time>
</trkpt>
<trkpt lat="46.1167370" lon="10.5131440">
	<ele>2707.00</ele>
	<time>2023-08-07T07:41:10.000Z</time>
</trkpt>
<trkpt lat="46.1167370" lon="10.5131360">
	<ele>2706.80</ele>
	<time>2023-08-07T07:41:11.000Z</time>
</trkpt>
<trkpt lat="46.1167360" lon="10.5131280">
	<ele>2706.60</ele>
	<time>2023-08-07T07:41:12.000Z</time>
</trkpt>
<trkpt lat="46.1167300" lon="10.5131230">
	<ele>2706.40</ele>
	<time>2023-08-07T07:41:13.000Z</time>
</trkpt>
<trkpt lat="46.1167290" lon="10.5131160">
	<ele>2706.40</ele>
	<time>2023-08-07T07:41:14.000Z</time>
</trkpt>
<trkpt lat="46.1167270" lon="10.5131130">
	<ele>2706.20</ele>
	<time>2023-08-07T07:41:15.000Z</time>
</trkpt>
<trkpt lat="46.1167300" lon="10.5131030">
	<ele>2706.20</ele>
	<time>2023-08-07T07:41:16.000Z</time>
</trkpt>
<trkpt lat="46.1167230" lon="10.5131020">
	<ele>2706.20</ele>
	<time>2023-08-07T07:41:17.000Z</time>
</trkpt>
<trkpt lat="46.1167180" lon="10.5130910">
	<ele>2706.20</ele>
	<time>2023-08-07T07:41:18.000Z</time>
</trkpt>
<trkpt lat="46.1167200" lon="10.5130840">
	<ele>2706.20</ele>
	<time>2023-08-07T07:41:19.000Z</time>
</trkpt>
<trkpt lat="46.1167200" lon="10.5130780">
	<ele>2706.20</ele>
	<time>2023-08-07T07:41:20.000Z</time>
</trkpt>
<trkpt lat="46.1167210" lon="10.5130700">
	<ele>2706.20</ele>
	<time>2023-08-07T07:41:21.000Z</time>
</trkpt>
<trkpt lat="46.1167220" lon="10.5130630">
	<ele>2706.20</ele>
	<time>2023-08-07T07:41:22.000Z</time>
</trkpt>
<trkpt lat="46.1167240" lon="10.5130590">
	<ele>2706.40</ele>
	<time>2023-08-07T07:41:23.000Z</time>
</trkpt>
<trkpt lat="46.1167280" lon="10.5130530">
	<ele>2706.20</ele>
	<time>2023-08-07T07:41:24.000Z</time>
</trkpt>
<trkpt lat="46.1167330" lon="10.5130440">
	<ele>2706.20</ele>
	<time>2023-08-07T07:41:25.000Z</time>
</trkpt>
<trkpt lat="46.1167350" lon="10.5130390">
	<ele>2706.20</ele>
	<time>2023-08-07T07:41:26.000Z</time>
</trkpt>
<trkpt lat="46.1167360" lon="10.5130350">
	<ele>2706.20</ele>
	<time>2023-08-07T07:41:27.000Z</time>
</trkpt>
<trkpt lat="46.1167330" lon="10.5130330">
	<ele>2706.20</ele>
	<time>2023-08-07T07:41:28.000Z</time>
</trkpt>
<trkpt lat="46.1167280" lon="10.5130310">
	<ele>2706.40</ele>
	<time>2023-08-07T07:41:29.000Z</time>
</trkpt>
<trkpt lat="46.1167320" lon="10.5130240">
	<ele>2706.40</ele>
	<time>2023-08-07T07:41:30.000Z</time>
</trkpt>
<trkpt lat="46.1167330" lon="10.5130160">
	<ele>2706.40</ele>
	<time>2023-08-07T07:41:31.000Z</time>
</trkpt>
<trkpt lat="46.1167340" lon="10.5130040">
	<ele>2706.40</ele>
	<time>2023-08-07T07:41:32.000Z</time>
</trkpt>
<trkpt lat="46.1167290" lon="10.5129960">
	<ele>2706.20</ele>
	<time>2023-08-07T07:41:33.000Z</time>
</trkpt>
<trkpt lat="46.1167280" lon="10.5129840">
	<ele>2706.20</ele>
	<time>2023-08-07T07:41:34.000Z</time>
</trkpt>
<trkpt lat="46.1167290" lon="10.5129740">
	<ele>2706.00</ele>
	<time>2023-08-07T07:41:35.000Z</time>
</trkpt>
<trkpt lat="46.1167300" lon="10.5129690">
	<ele>2706.00</ele>
	<time>2023-08-07T07:41:36.000Z</time>
</trkpt>
<trkpt lat="46.1167310" lon="10.5129630">
	<ele>2706.00</ele>
	<time>2023-08-07T07:41:37.000Z</time>
</trkpt>
<trkpt lat="46.1167300" lon="10.5129570">
	<ele>2705.80</ele>
	<time>2023-08-07T07:41:38.000Z</time>
</trkpt>
<trkpt lat="46.1167280" lon="10.5129510">
	<ele>2705.80</ele>
	<time>2023-08-07T07:41:39.000Z</time>
</trkpt>
<trkpt lat="46.1167280" lon="10.5129480">
	<ele>2705.80</ele>
	<time>2023-08-07T07:41:40.000Z</time>
</trkpt>
<trkpt lat="46.1167310" lon="10.5129410">
	<ele>2705.60</ele>
	<time>2023-08-07T07:41:41.000Z</time>
</trkpt>
<trkpt lat="46.1167320" lon="10.5129360">
	<ele>2705.40</ele>
	<time>2023-08-07T07:41:42.000Z</time>
</trkpt>
<trkpt lat="46.1167330" lon="10.5129320">
	<ele>2705.20</ele>
	<time>2023-08-07T07:41:43.000Z</time>
</trkpt>
<trkpt lat="46.1167320" lon="10.5129260">
	<ele>2705.20</ele>
	<time>2023-08-07T07:41:44.000Z</time>
</trkpt>
<trkpt lat="46.1167270" lon="10.5129190">
	<ele>2705.20</ele>
	<time>2023-08-07T07:41:45.000Z</time>
</trkpt>
<trkpt lat="46.1167270" lon="10.5129100">
	<ele>2705.20</ele>
	<time>2023-08-07T07:41:46.000Z</time>
</trkpt>
<trkpt lat="46.1167220" lon="10.5129050">
	<ele>2705.20</ele>
	<time>2023-08-07T07:41:47.000Z</time>
</trkpt>
<trkpt lat="46.1167190" lon="10.5128990">
	<ele>2705.40</ele>
	<time>2023-08-07T07:41:48.000Z</time>
</trkpt>
<trkpt lat="46.1167170" lon="10.5128930">
	<ele>2705.40</ele>
	<time>2023-08-07T07:41:49.000Z</time>
</trkpt>
<trkpt lat="46.1167160" lon="10.5128840">
	<ele>2705.40</ele>
	<time>2023-08-07T07:41:50.000Z</time>
</trkpt>
<trkpt lat="46.1167190" lon="10.5128700">
	<ele>2705.40</ele>
	<time>2023-08-07T07:41:51.000Z</time>
</trkpt>
<trkpt lat="46.1167180" lon="10.5128600">
	<ele>2705.40</ele>
	<time>2023-08-07T07:41:52.000Z</time>
</trkpt>
<trkpt lat="46.1167220" lon="10.5128490">
	<ele>2705.40</ele>
	<time>2023-08-07T07:41:53.000Z</time>
</trkpt>
<trkpt lat="46.1167240" lon="10.5128430">
	<ele>2705.20</ele>
	<time>2023-08-07T07:41:54.000Z</time>
</trkpt>
<trkpt lat="46.1167280" lon="10.5128390">
	<ele>2705.20</ele>
	<time>2023-08-07T07:41:55.000Z</time>
</trkpt>
<trkpt lat="46.1167320" lon="10.5128360">
	<ele>2705.20</ele>
	<time>2023-08-07T07:41:56.000Z</time>
</trkpt>
<trkpt lat="46.1167380" lon="10.5128290">
	<ele>2705.20</ele>
	<time>2023-08-07T07:41:57.000Z</time>
</trkpt>
<trkpt lat="46.1167480" lon="10.5128220">
	<ele>2705.20</ele>
	<time>2023-08-07T07:41:58.000Z</time>
</trkpt>
<trkpt lat="46.1167510" lon="10.5128160">
	<ele>2704.80</ele>
	<time>2023-08-07T07:41:59.000Z</time>
</trkpt>
<trkpt lat="46.1167490" lon="10.5128090">
	<ele>2704.80</ele>
	<time>2023-08-07T07:42:00.000Z</time>
</trkpt>
<trkpt lat="46.1167480" lon="10.5128030">
	<ele>2704.60</ele>
	<time>2023-08-07T07:42:01.000Z</time>
</trkpt>
<trkpt lat="46.1167530" lon="10.5127930">
	<ele>2704.40</ele>
	<time>2023-08-07T07:42:02.000Z</time>
</trkpt>
<trkpt lat="46.1167570" lon="10.5127860">
	<ele>2704.40</ele>
	<time>2023-08-07T07:42:03.000Z</time>
</trkpt>
<trkpt lat="46.1167600" lon="10.5127770">
	<ele>2704.20</ele>
	<time>2023-08-07T07:42:04.000Z</time>
</trkpt>
<trkpt lat="46.1167640" lon="10.5127670">
	<ele>2704.00</ele>
	<time>2023-08-07T07:42:05.000Z</time>
</trkpt>
<trkpt lat="46.1167670" lon="10.5127600">
	<ele>2704.00</ele>
	<time>2023-08-07T07:42:06.000Z</time>
</trkpt>
<trkpt lat="46.1167680" lon="10.5127550">
	<ele>2704.00</ele>
	<time>2023-08-07T07:42:07.000Z</time>
</trkpt>
<trkpt lat="46.1167700" lon="10.5127500">
	<ele>2704.00</ele>
	<time>2023-08-07T07:42:08.000Z</time>
</trkpt>
<trkpt lat="46.1167690" lon="10.5127440">
	<ele>2703.80</ele>
	<time>2023-08-07T07:42:09.000Z</time>
</trkpt>
<trkpt lat="46.1167700" lon="10.5127390">
	<ele>2703.60</ele>
	<time>2023-08-07T07:42:10.000Z</time>
</trkpt>
<trkpt lat="46.1167700" lon="10.5127370">
	<ele>2703.40</ele>
	<time>2023-08-07T07:42:11.000Z</time>
</trkpt>
<trkpt lat="46.1167770" lon="10.5127310">
	<ele>2703.20</ele>
	<time>2023-08-07T07:42:12.000Z</time>
</trkpt>
<trkpt lat="46.1167770" lon="10.5127280">
	<ele>2703.00</ele>
	<time>2023-08-07T07:42:13.000Z</time>
</trkpt>
<trkpt lat="46.1167790" lon="10.5127200">
	<ele>2703.00</ele>
	<time>2023-08-07T07:42:14.000Z</time>
</trkpt>
<trkpt lat="46.1167770" lon="10.5127130">
	<ele>2703.00</ele>
	<time>2023-08-07T07:42:15.000Z</time>
</trkpt>
<trkpt lat="46.1167770" lon="10.5127100">
	<ele>2702.80</ele>
	<time>2023-08-07T07:42:16.000Z</time>
</trkpt>
<trkpt lat="46.1167780" lon="10.5127050">
	<ele>2702.80</ele>
	<time>2023-08-07T07:42:17.000Z</time>
</trkpt>
<trkpt lat="46.1167790" lon="10.5126950">
	<ele>2702.60</ele>
	<time>2023-08-07T07:42:18.000Z</time>
</trkpt>
<trkpt lat="46.1167800" lon="10.5126870">
	<ele>2702.40</ele>
	<time>2023-08-07T07:42:19.000Z</time>
</trkpt>
<trkpt lat="46.1167870" lon="10.5126820">
	<ele>2702.20</ele>
	<time>2023-08-07T07:42:20.000Z</time>
</trkpt>
<trkpt lat="46.1167920" lon="10.5126820">
	<ele>2701.80</ele>
	<time>2023-08-07T07:42:21.000Z</time>
</trkpt>
<trkpt lat="46.1167960" lon="10.5126840">
	<ele>2701.80</ele>
	<time>2023-08-07T07:42:22.000Z</time>
</trkpt>
<trkpt lat="46.1167980" lon="10.5126880">
	<ele>2701.40</ele>
	<time>2023-08-07T07:42:23.000Z</time>
</trkpt>
<trkpt lat="46.1167970" lon="10.5126900">
	<ele>2701.20</ele>
	<time>2023-08-07T07:42:24.000Z</time>
</trkpt>
<trkpt lat="46.1168020" lon="10.5126860">
	<ele>2701.20</ele>
	<time>2023-08-07T07:42:25.000Z</time>
</trkpt>
<trkpt lat="46.1168020" lon="10.5126810">
	<ele>2701.00</ele>
	<time>2023-08-07T07:42:26.000Z</time>
</trkpt>
<trkpt lat="46.1168080" lon="10.5126740">
	<ele>2700.80</ele>
	<time>2023-08-07T07:42:27.000Z</time>
</trkpt>
<trkpt lat="46.1168100" lon="10.5126700">
	<ele>2700.80</ele>
	<time>2023-08-07T07:42:28.000Z</time>
</trkpt>
<trkpt lat="46.1168100" lon="10.5126650">
	<ele>2700.60</ele>
	<time>2023-08-07T07:42:29.000Z</time>
</trkpt>
<trkpt lat="46.1168140" lon="10.5126610">
	<ele>2700.60</ele>
	<time>2023-08-07T07:42:30.000Z</time>
</trkpt>
<trkpt lat="46.1168190" lon="10.5126570">
	<ele>2700.20</ele>
	<time>2023-08-07T07:42:31.000Z</time>
</trkpt>
<trkpt lat="46.1168210" lon="10.5126540">
	<ele>2700.20</ele>
	<time>2023-08-07T07:42:32.000Z</time>
</trkpt>
<trkpt lat="46.1168260" lon="10.5126490">
	<ele>2700.00</ele>
	<time>2023-08-07T07:42:33.000Z</time>
</trkpt>
<trkpt lat="46.1168310" lon="10.5126430">
	<ele>2700.00</ele>
	<time>2023-08-07T07:42:34.000Z</time>
</trkpt>
<trkpt lat="46.1168230" lon="10.5126400">
	<ele>2699.60</ele>
	<time>2023-08-07T07:42:35.000Z</time>
</trkpt>
<trkpt lat="46.1168240" lon="10.5126330">
	<ele>2699.40</ele>
	<time>2023-08-07T07:42:36.000Z</time>
</trkpt>
<trkpt lat="46.1168250" lon="10.5126240">
	<ele>2699.40</ele>
	<time>2023-08-07T07:42:37.000Z</time>
</trkpt>
<trkpt lat="46.1168310" lon="10.5126160">
	<ele>2699.20</ele>
	<time>2023-08-07T07:42:38.000Z</time>
</trkpt>
<trkpt lat="46.1168350" lon="10.5126180">
	<ele>2698.80</ele>
	<time>2023-08-07T07:42:39.000Z</time>
</trkpt>
<trkpt lat="46.1168350" lon="10.5126180">
	<ele>2698.80</ele>
	<time>2023-08-07T07:42:40.000Z</time>
</trkpt>
<trkpt lat="46.1168340" lon="10.5126170">
	<ele>2698.80</ele>
	<time>2023-08-07T07:42:41.000Z</time>
</trkpt>
<trkpt lat="46.1168330" lon="10.5126170">
	<ele>2698.60</ele>
	<time>2023-08-07T07:42:42.000Z</time>
</trkpt>
<trkpt lat="46.1168300" lon="10.5126170">
	<ele>2698.60</ele>
	<time>2023-08-07T07:42:43.000Z</time>
</trkpt>
<trkpt lat="46.1168280" lon="10.5126170">
	<ele>2698.60</ele>
	<time>2023-08-07T07:42:44.000Z</time>
</trkpt>
<trkpt lat="46.1168270" lon="10.5126160">
	<ele>2698.60</ele>
	<time>2023-08-07T07:42:45.000Z</time>
</trkpt>
<trkpt lat="46.1168270" lon="10.5126170">
	<ele>2698.80</ele>
	<time>2023-08-07T07:42:46.000Z</time>
</trkpt>
<trkpt lat="46.1168270" lon="10.5126170">
	<ele>2698.80</ele>
	<time>2023-08-07T07:42:47.000Z</time>
</trkpt>
<trkpt lat="46.1168270" lon="10.5126170">
	<ele>2698.80</ele>
	<time>2023-08-07T07:42:48.000Z</time>
</trkpt>
<trkpt lat="46.1168270" lon="10.5126170">
	<ele>2698.80</ele>
	<time>2023-08-07T07:42:49.000Z</time>
</trkpt>
<trkpt lat="46.1168270" lon="10.5126170">
	<ele>2698.80</ele>
	<time>2023-08-07T07:42:50.000Z</time>
</trkpt>
<trkpt lat="46.1168270" lon="10.5126170">
	<ele>2698.80</ele>
	<time>2023-08-07T07:42:51.000Z</time>
</trkpt>
<trkpt lat="46.1168270" lon="10.5126170">
	<ele>2698.80</ele>
	<time>2023-08-07T07:42:52.000Z</time>
</trkpt>
<trkpt lat="46.1168270" lon="10.5126170">
	<ele>2698.80</ele>
	<time>2023-08-07T07:42:53.000Z</time>
</trkpt>
<trkpt lat="46.1168270" lon="10.5126170">
	<ele>2698.80</ele>
	<time>2023-08-07T07:42:54.000Z</time>
</trkpt>
<trkpt lat="46.1168270" lon="10.5126170">
	<ele>2699.00</ele>
	<time>2023-08-07T07:42:55.000Z</time>
</trkpt>
<trkpt lat="46.1168270" lon="10.5126170">
	<ele>2699.00</ele>
	<time>2023-08-07T07:42:56.000Z</time>
</trkpt>
<trkpt lat="46.1168270" lon="10.5126170">
	<ele>2699.00</ele>
	<time>2023-08-07T07:42:57.000Z</time>
</trkpt>
<trkpt lat="46.1168270" lon="10.5126170">
	<ele>2699.00</ele>
	<time>2023-08-07T07:42:58.000Z</time>
</trkpt>
<trkpt lat="46.1168270" lon="10.5126170">
	<ele>2699.00</ele>
	<time>2023-08-07T07:42:59.000Z</time>
</trkpt>
<trkpt lat="46.1168270" lon="10.5126180">
	<ele>2699.20</ele>
	<time>2023-08-07T07:43:00.000Z</time>
</trkpt>
<trkpt lat="46.1168270" lon="10.5126180">
	<ele>2699.20</ele>
	<time>2023-08-07T07:43:01.000Z</time>
</trkpt>
<trkpt lat="46.1168280" lon="10.5126180">
	<ele>2699.20</ele>
	<time>2023-08-07T07:43:02.000Z</time>
</trkpt>
<trkpt lat="46.1168280" lon="10.5126200">
	<ele>2699.20</ele>
	<time>2023-08-07T07:43:03.000Z</time>
</trkpt>
<trkpt lat="46.1168300" lon="10.5126210">
	<ele>2699.20</ele>
	<time>2023-08-07T07:43:04.000Z</time>
</trkpt>
<trkpt lat="46.1168310" lon="10.5126250">
	<ele>2699.20</ele>
	<time>2023-08-07T07:43:05.000Z</time>
</trkpt>
<trkpt lat="46.1168310" lon="10.5126260">
	<ele>2699.20</ele>
	<time>2023-08-07T07:43:06.000Z</time>
</trkpt>
<trkpt lat="46.1168310" lon="10.5126260">
	<ele>2699.00</ele>
	<time>2023-08-07T07:43:07.000Z</time>
</trkpt>
<trkpt lat="46.1168310" lon="10.5126260">
	<ele>2698.80</ele>
	<time>2023-08-07T07:43:08.000Z</time>
</trkpt>
<trkpt lat="46.1168310" lon="10.5126260">
	<ele>2698.60</ele>
	<time>2023-08-07T07:43:09.000Z</time>
</trkpt>
<trkpt lat="46.1168310" lon="10.5126260">
	<ele>2698.20</ele>
	<time>2023-08-07T07:43:10.000Z</time>
</trkpt>
<trkpt lat="46.1168310" lon="10.5126260">
	<ele>2698.20</ele>
	<time>2023-08-07T07:43:11.000Z</time>
</trkpt>
<trkpt lat="46.1168310" lon="10.5126260">
	<ele>2698.00</ele>
	<time>2023-08-07T07:43:12.000Z</time>
</trkpt>
<trkpt lat="46.1168330" lon="10.5126260">
	<ele>2698.00</ele>
	<time>2023-08-07T07:43:13.000Z</time>
</trkpt>
<trkpt lat="46.1168330" lon="10.5126260">
	<ele>2698.00</ele>
	<time>2023-08-07T07:43:14.000Z</time>
</trkpt>
<trkpt lat="46.1168330" lon="10.5126260">
	<ele>2698.00</ele>
	<time>2023-08-07T07:43:15.000Z</time>
</trkpt>
<trkpt lat="46.1168330" lon="10.5126260">
	<ele>2698.00</ele>
	<time>2023-08-07T07:43:16.000Z</time>
</trkpt>
<trkpt lat="46.1168330" lon="10.5126260">
	<ele>2698.00</ele>
	<time>2023-08-07T07:43:17.000Z</time>
</trkpt>
<trkpt lat="46.1168330" lon="10.5126220">
	<ele>2698.00</ele>
	<time>2023-08-07T07:43:18.000Z</time>
</trkpt>
<trkpt lat="46.1168320" lon="10.5126180">
	<ele>2698.00</ele>
	<time>2023-08-07T07:43:19.000Z</time>
</trkpt>
<trkpt lat="46.1168300" lon="10.5126150">
	<ele>2698.00</ele>
	<time>2023-08-07T07:43:20.000Z</time>
</trkpt>
<trkpt lat="46.1168280" lon="10.5126130">
	<ele>2697.80</ele>
	<time>2023-08-07T07:43:21.000Z</time>
</trkpt>
<trkpt lat="46.1168320" lon="10.5126110">
	<ele>2697.80</ele>
	<time>2023-08-07T07:43:22.000Z</time>
</trkpt>
<trkpt lat="46.1168300" lon="10.5126060">
	<ele>2697.60</ele>
	<time>2023-08-07T07:43:23.000Z</time>
</trkpt>
<trkpt lat="46.1168360" lon="10.5125970">
	<ele>2697.60</ele>
	<time>2023-08-07T07:43:24.000Z</time>
</trkpt>
<trkpt lat="46.1168400" lon="10.5125910">
	<ele>2697.40</ele>
	<time>2023-08-07T07:43:25.000Z</time>
</trkpt>
<trkpt lat="46.1168420" lon="10.5125840">
	<ele>2697.40</ele>
	<time>2023-08-07T07:43:26.000Z</time>
</trkpt>
<trkpt lat="46.1168380" lon="10.5125820">
	<ele>2697.20</ele>
	<time>2023-08-07T07:43:27.000Z</time>
</trkpt>
<trkpt lat="46.1168410" lon="10.5125800">
	<ele>2697.20</ele>
	<time>2023-08-07T07:43:28.000Z</time>
</trkpt>
<trkpt lat="46.1168390" lon="10.5125800">
	<ele>2697.00</ele>
	<time>2023-08-07T07:43:29.000Z</time>
</trkpt>
<trkpt lat="46.1168380" lon="10.5125770">
	<ele>2697.00</ele>
	<time>2023-08-07T07:43:30.000Z</time>
</trkpt>
<trkpt lat="46.1168410" lon="10.5125740">
	<ele>2696.80</ele>
	<time>2023-08-07T07:43:31.000Z</time>
</trkpt>
<trkpt lat="46.1168410" lon="10.5125740">
	<ele>2696.60</ele>
	<time>2023-08-07T07:43:32.000Z</time>
</trkpt>
<trkpt lat="46.1168420" lon="10.5125720">
	<ele>2696.40</ele>
	<time>2023-08-07T07:43:33.000Z</time>
</trkpt>
<trkpt lat="46.1168450" lon="10.5125670">
	<ele>2696.40</ele>
	<time>2023-08-07T07:43:34.000Z</time>
</trkpt>
<trkpt lat="46.1168450" lon="10.5125630">
	<ele>2696.20</ele>
	<time>2023-08-07T07:43:35.000Z</time>
</trkpt>
<trkpt lat="46.1168460" lon="10.5125580">
	<ele>2696.20</ele>
	<time>2023-08-07T07:43:36.000Z</time>
</trkpt>
<trkpt lat="46.1168460" lon="10.5125540">
	<ele>2695.80</ele>
	<time>2023-08-07T07:43:37.000Z</time>
</trkpt>
<trkpt lat="46.1168530" lon="10.5125550">
	<ele>2695.60</ele>
	<time>2023-08-07T07:43:38.000Z</time>
</trkpt>
<trkpt lat="46.1168600" lon="10.5125530">
	<ele>2695.40</ele>
	<time>2023-08-07T07:43:39.000Z</time>
</trkpt>
<trkpt lat="46.1168670" lon="10.5125440">
	<ele>2695.40</ele>
	<time>2023-08-07T07:43:40.000Z</time>
</trkpt>
<trkpt lat="46.1168710" lon="10.5125420">
	<ele>2695.40</ele>
	<time>2023-08-07T07:43:41.000Z</time>
</trkpt>
<trkpt lat="46.1168730" lon="10.5125410">
	<ele>2695.20</ele>
	<time>2023-08-07T07:43:42.000Z</time>
</trkpt>
<trkpt lat="46.1168770" lon="10.5125410">
	<ele>2695.20</ele>
	<time>2023-08-07T07:43:43.000Z</time>
</trkpt>
<trkpt lat="46.1168810" lon="10.5125400">
	<ele>2695.20</ele>
	<time>2023-08-07T07:43:44.000Z</time>
</trkpt>
<trkpt lat="46.1168870" lon="10.5125340">
	<ele>2695.20</ele>
	<time>2023-08-07T07:43:45.000Z</time>
</trkpt>
<trkpt lat="46.1168980" lon="10.5125280">
	<ele>2695.00</ele>
	<time>2023-08-07T07:43:46.000Z</time>
</trkpt>
<trkpt lat="46.1169040" lon="10.5125230">
	<ele>2695.00</ele>
	<time>2023-08-07T07:43:47.000Z</time>
</trkpt>
<trkpt lat="46.1169110" lon="10.5125200">
	<ele>2694.80</ele>
	<time>2023-08-07T07:43:48.000Z</time>
</trkpt>
<trkpt lat="46.1169160" lon="10.5125190">
	<ele>2694.60</ele>
	<time>2023-08-07T07:43:49.000Z</time>
</trkpt>
<trkpt lat="46.1169190" lon="10.5125190">
	<ele>2694.40</ele>
	<time>2023-08-07T07:43:50.000Z</time>
</trkpt>
<trkpt lat="46.1169210" lon="10.5125190">
	<ele>2694.20</ele>
	<time>2023-08-07T07:43:51.000Z</time>
</trkpt>
<trkpt lat="46.1169220" lon="10.5125160">
	<ele>2694.00</ele>
	<time>2023-08-07T07:43:52.000Z</time>
</trkpt>
<trkpt lat="46.1169200" lon="10.5125130">
	<ele>2694.00</ele>
	<time>2023-08-07T07:43:53.000Z</time>
</trkpt>
<trkpt lat="46.1169180" lon="10.5125120">
	<ele>2693.80</ele>
	<time>2023-08-07T07:43:54.000Z</time>
</trkpt>
<trkpt lat="46.1169230" lon="10.5125130">
	<ele>2693.60</ele>
	<time>2023-08-07T07:43:55.000Z</time>
</trkpt>
<trkpt lat="46.1169270" lon="10.5125120">
	<ele>2693.40</ele>
	<time>2023-08-07T07:43:56.000Z</time>
</trkpt>
<trkpt lat="46.1169250" lon="10.5125170">
	<ele>2693.20</ele>
	<time>2023-08-07T07:43:57.000Z</time>
</trkpt>
<trkpt lat="46.1169250" lon="10.5125190">
	<ele>2692.80</ele>
	<time>2023-08-07T07:43:58.000Z</time>
</trkpt>
<trkpt lat="46.1169230" lon="10.5125180">
	<ele>2692.60</ele>
	<time>2023-08-07T07:43:59.000Z</time>
</trkpt>
<trkpt lat="46.1169270" lon="10.5125140">
	<ele>2692.40</ele>
	<time>2023-08-07T07:44:00.000Z</time>
</trkpt>
<trkpt lat="46.1169330" lon="10.5125150">
	<ele>2692.20</ele>
	<time>2023-08-07T07:44:01.000Z</time>
</trkpt>
<trkpt lat="46.1169390" lon="10.5125170">
	<ele>2692.20</ele>
	<time>2023-08-07T07:44:02.000Z</time>
</trkpt>
<trkpt lat="46.1169400" lon="10.5125200">
	<ele>2691.80</ele>
	<time>2023-08-07T07:44:03.000Z</time>
</trkpt>
<trkpt lat="46.1169410" lon="10.5125240">
	<ele>2691.60</ele>
	<time>2023-08-07T07:44:04.000Z</time>
</trkpt>
<trkpt lat="46.1169400" lon="10.5125310">
	<ele>2691.40</ele>
	<time>2023-08-07T07:44:05.000Z</time>
</trkpt>
<trkpt lat="46.1169380" lon="10.5125360">
	<ele>2691.20</ele>
	<time>2023-08-07T07:44:06.000Z</time>
</trkpt>
<trkpt lat="46.1169370" lon="10.5125390">
	<ele>2691.00</ele>
	<time>2023-08-07T07:44:07.000Z</time>
</trkpt>
<trkpt lat="46.1169380" lon="10.5125430">
	<ele>2690.80</ele>
	<time>2023-08-07T07:44:08.000Z</time>
</trkpt>
<trkpt lat="46.1169440" lon="10.5125440">
	<ele>2690.80</ele>
	<time>2023-08-07T07:44:09.000Z</time>
</trkpt>
<trkpt lat="46.1169440" lon="10.5125470">
	<ele>2690.60</ele>
	<time>2023-08-07T07:44:10.000Z</time>
</trkpt>
<trkpt lat="46.1169480" lon="10.5125520">
	<ele>2690.40</ele>
	<time>2023-08-07T07:44:11.000Z</time>
</trkpt>
<trkpt lat="46.1169490" lon="10.5125510">
	<ele>2690.00</ele>
	<time>2023-08-07T07:44:12.000Z</time>
</trkpt>
<trkpt lat="46.1169490" lon="10.5125510">
	<ele>2690.00</ele>
	<time>2023-08-07T07:44:13.000Z</time>
</trkpt>
<trkpt lat="46.1169580" lon="10.5125420">
	<ele>2689.60</ele>
	<time>2023-08-07T07:44:14.000Z</time>
</trkpt>
<trkpt lat="46.1169610" lon="10.5125360">
	<ele>2689.40</ele>
	<time>2023-08-07T07:44:15.000Z</time>
</trkpt>
<trkpt lat="46.1169660" lon="10.5125350">
	<ele>2689.40</ele>
	<time>2023-08-07T07:44:16.000Z</time>
</trkpt>
<trkpt lat="46.1169670" lon="10.5125300">
	<ele>2689.40</ele>
	<time>2023-08-07T07:44:17.000Z</time>
</trkpt>
<trkpt lat="46.1169720" lon="10.5125270">
	<ele>2689.40</ele>
	<time>2023-08-07T07:44:18.000Z</time>
</trkpt>
<trkpt lat="46.1169760" lon="10.5125280">
	<ele>2689.20</ele>
	<time>2023-08-07T07:44:19.000Z</time>
</trkpt>
<trkpt lat="46.1169770" lon="10.5125320">
	<ele>2689.20</ele>
	<time>2023-08-07T07:44:20.000Z</time>
</trkpt>
<trkpt lat="46.1169760" lon="10.5125340">
	<ele>2689.00</ele>
	<time>2023-08-07T07:44:21.000Z</time>
</trkpt>
<trkpt lat="46.1169800" lon="10.5125300">
	<ele>2688.80</ele>
	<time>2023-08-07T07:44:22.000Z</time>
</trkpt>
<trkpt lat="46.1169800" lon="10.5125320">
	<ele>2688.60</ele>
	<time>2023-08-07T07:44:23.000Z</time>
</trkpt>
<trkpt lat="46.1169810" lon="10.5125370">
	<ele>2688.40</ele>
	<time>2023-08-07T07:44:24.000Z</time>
</trkpt>
<trkpt lat="46.1169840" lon="10.5125370">
	<ele>2688.20</ele>
	<time>2023-08-07T07:44:25.000Z</time>
</trkpt>
<trkpt lat="46.1169880" lon="10.5125310">
	<ele>2688.00</ele>
	<time>2023-08-07T07:44:26.000Z</time>
</trkpt>
<trkpt lat="46.1169970" lon="10.5125280">
	<ele>2687.80</ele>
	<time>2023-08-07T07:44:27.000Z</time>
</trkpt>
<trkpt lat="46.1170050" lon="10.5125230">
	<ele>2687.80</ele>
	<time>2023-08-07T07:44:28.000Z</time>
</trkpt>
<trkpt lat="46.1170090" lon="10.5125230">
	<ele>2687.60</ele>
	<time>2023-08-07T07:44:29.000Z</time>
</trkpt>
<trkpt lat="46.1170160" lon="10.5125220">
	<ele>2687.60</ele>
	<time>2023-08-07T07:44:30.000Z</time>
</trkpt>
<trkpt lat="46.1170230" lon="10.5125230">
	<ele>2687.20</ele>
	<time>2023-08-07T07:44:31.000Z</time>
</trkpt>
<trkpt lat="46.1170310" lon="10.5125230">
	<ele>2687.00</ele>
	<time>2023-08-07T07:44:32.000Z</time>
</trkpt>
<trkpt lat="46.1170390" lon="10.5125130">
	<ele>2686.80</ele>
	<time>2023-08-07T07:44:33.000Z</time>
</trkpt>
<trkpt lat="46.1170460" lon="10.5125050">
	<ele>2686.60</ele>
	<time>2023-08-07T07:44:34.000Z</time>
</trkpt>
<trkpt lat="46.1170530" lon="10.5124980">
	<ele>2686.40</ele>
	<time>2023-08-07T07:44:35.000Z</time>
</trkpt>
<trkpt lat="46.1170630" lon="10.5124950">
	<ele>2686.20</ele>
	<time>2023-08-07T07:44:36.000Z</time>
</trkpt>
<trkpt lat="46.1170700" lon="10.5124940">
	<ele>2686.20</ele>
	<time>2023-08-07T07:44:37.000Z</time>
</trkpt>
<trkpt lat="46.1170750" lon="10.5124940">
	<ele>2686.20</ele>
	<time>2023-08-07T07:44:38.000Z</time>
</trkpt>
<trkpt lat="46.1170800" lon="10.5124910">
	<ele>2686.00</ele>
	<time>2023-08-07T07:44:39.000Z</time>
</trkpt>
<trkpt lat="46.1170890" lon="10.5124810">
	<ele>2686.00</ele>
	<time>2023-08-07T07:44:40.000Z</time>
</trkpt>
<trkpt lat="46.1170950" lon="10.5124740">
	<ele>2685.80</ele>
	<time>2023-08-07T07:44:41.000Z</time>
</trkpt>
<trkpt lat="46.1170980" lon="10.5124700">
	<ele>2685.60</ele>
	<time>2023-08-07T07:44:42.000Z</time>
</trkpt>
<trkpt lat="46.1171050" lon="10.5124650">
	<ele>2685.40</ele>
	<time>2023-08-07T07:44:43.000Z</time>
</trkpt>
<trkpt lat="46.1171090" lon="10.5124630">
	<ele>2685.20</ele>
	<time>2023-08-07T07:44:44.000Z</time>
</trkpt>
<trkpt lat="46.1171160" lon="10.5124530">
	<ele>2685.00</ele>
	<time>2023-08-07T07:44:45.000Z</time>
</trkpt>
<trkpt lat="46.1171200" lon="10.5124490">
	<ele>2685.00</ele>
	<time>2023-08-07T07:44:46.000Z</time>
</trkpt>
<trkpt lat="46.1171240" lon="10.5124380">
	<ele>2684.80</ele>
	<time>2023-08-07T07:44:47.000Z</time>
</trkpt>
<trkpt lat="46.1171300" lon="10.5124240">
	<ele>2684.60</ele>
	<time>2023-08-07T07:44:48.000Z</time>
</trkpt>
<trkpt lat="46.1171260" lon="10.5124120">
	<ele>2684.40</ele>
	<time>2023-08-07T07:44:49.000Z</time>
</trkpt>
<trkpt lat="46.1171260" lon="10.5124060">
	<ele>2684.20</ele>
	<time>2023-08-07T07:44:50.000Z</time>
</trkpt>
<trkpt lat="46.1171330" lon="10.5124040">
	<ele>2684.00</ele>
	<time>2023-08-07T07:44:51.000Z</time>
</trkpt>
<trkpt lat="46.1171350" lon="10.5124050">
	<ele>2683.80</ele>
	<time>2023-08-07T07:44:52.000Z</time>
</trkpt>
<trkpt lat="46.1171390" lon="10.5124050">
	<ele>2683.80</ele>
	<time>2023-08-07T07:44:53.000Z</time>
</trkpt>
<trkpt lat="46.1171430" lon="10.5124000">
	<ele>2683.60</ele>
	<time>2023-08-07T07:44:54.000Z</time>
</trkpt>
<trkpt lat="46.1171450" lon="10.5123980">
	<ele>2683.40</ele>
	<time>2023-08-07T07:44:55.000Z</time>
</trkpt>
<trkpt lat="46.1171450" lon="10.5123980">
	<ele>2683.20</ele>
	<time>2023-08-07T07:44:56.000Z</time>
</trkpt>
<trkpt lat="46.1171450" lon="10.5123950">
	<ele>2683.20</ele>
	<time>2023-08-07T07:44:57.000Z</time>
</trkpt>
<trkpt lat="46.1171460" lon="10.5123890">
	<ele>2683.00</ele>
	<time>2023-08-07T07:44:58.000Z</time>
</trkpt>
<trkpt lat="46.1171460" lon="10.5123850">
	<ele>2682.80</ele>
	<time>2023-08-07T07:44:59.000Z</time>
</trkpt>
<trkpt lat="46.1171470" lon="10.5123830">
	<ele>2682.80</ele>
	<time>2023-08-07T07:45:00.000Z</time>
</trkpt>
<trkpt lat="46.1171480" lon="10.5123860">
	<ele>2682.60</ele>
	<time>2023-08-07T07:45:01.000Z</time>
</trkpt>
<trkpt lat="46.1171530" lon="10.5123850">
	<ele>2682.60</ele>
	<time>2023-08-07T07:45:02.000Z</time>
</trkpt>
<trkpt lat="46.1171610" lon="10.5123730">
	<ele>2682.40</ele>
	<time>2023-08-07T07:45:03.000Z</time>
</trkpt>
<trkpt lat="46.1171650" lon="10.5123660">
	<ele>2682.40</ele>
	<time>2023-08-07T07:45:04.000Z</time>
</trkpt>
<trkpt lat="46.1171680" lon="10.5123600">
	<ele>2682.20</ele>
	<time>2023-08-07T07:45:05.000Z</time>
</trkpt>
<trkpt lat="46.1171710" lon="10.5123570">
	<ele>2682.00</ele>
	<time>2023-08-07T07:45:06.000Z</time>
</trkpt>
<trkpt lat="46.1171790" lon="10.5123520">
	<ele>2682.00</ele>
	<time>2023-08-07T07:45:07.000Z</time>
</trkpt>
<trkpt lat="46.1171850" lon="10.5123500">
	<ele>2681.80</ele>
	<time>2023-08-07T07:45:08.000Z</time>
</trkpt>
<trkpt lat="46.1171890" lon="10.5123470">
	<ele>2681.60</ele>
	<time>2023-08-07T07:45:09.000Z</time>
</trkpt>
<trkpt lat="46.1171970" lon="10.5123460">
	<ele>2681.60</ele>
	<time>2023-08-07T07:45:10.000Z</time>
</trkpt>
<trkpt lat="46.1172010" lon="10.5123470">
	<ele>2681.60</ele>
	<time>2023-08-07T07:45:11.000Z</time>
</trkpt>
<trkpt lat="46.1172030" lon="10.5123450">
	<ele>2681.60</ele>
	<time>2023-08-07T07:45:12.000Z</time>
</trkpt>
<trkpt lat="46.1172080" lon="10.5123490">
	<ele>2681.60</ele>
	<time>2023-08-07T07:45:13.000Z</time>
</trkpt>
<trkpt lat="46.1172090" lon="10.5123500">
	<ele>2681.60</ele>
	<time>2023-08-07T07:45:14.000Z</time>
</trkpt>
<trkpt lat="46.1172110" lon="10.5123460">
	<ele>2681.40</ele>
	<time>2023-08-07T07:45:15.000Z</time>
</trkpt>
<trkpt lat="46.1172140" lon="10.5123410">
	<ele>2681.60</ele>
	<time>2023-08-07T07:45:16.000Z</time>
</trkpt>
<trkpt lat="46.1172210" lon="10.5123330">
	<ele>2681.60</ele>
	<time>2023-08-07T07:45:17.000Z</time>
</trkpt>
<trkpt lat="46.1172170" lon="10.5123260">
	<ele>2681.40</ele>
	<time>2023-08-07T07:45:18.000Z</time>
</trkpt>
<trkpt lat="46.1172150" lon="10.5123200">
	<ele>2681.40</ele>
	<time>2023-08-07T07:45:19.000Z</time>
</trkpt>
<trkpt lat="46.1172150" lon="10.5123150">
	<ele>2681.40</ele>
	<time>2023-08-07T07:45:20.000Z</time>
</trkpt>
<trkpt lat="46.1172150" lon="10.5123080">
	<ele>2681.20</ele>
	<time>2023-08-07T07:45:21.000Z</time>
</trkpt>
<trkpt lat="46.1172160" lon="10.5122980">
	<ele>2681.20</ele>
	<time>2023-08-07T07:45:22.000Z</time>
</trkpt>
<trkpt lat="46.1172150" lon="10.5122880">
	<ele>2681.20</ele>
	<time>2023-08-07T07:45:23.000Z</time>
</trkpt>
<trkpt lat="46.1172100" lon="10.5122800">
	<ele>2681.20</ele>
	<time>2023-08-07T07:45:24.000Z</time>
</trkpt>
<trkpt lat="46.1172100" lon="10.5122740">
	<ele>2681.00</ele>
	<time>2023-08-07T07:45:25.000Z</time>
</trkpt>
<trkpt lat="46.1172100" lon="10.5122700">
	<ele>2681.00</ele>
	<time>2023-08-07T07:45:26.000Z</time>
</trkpt>
<trkpt lat="46.1172110" lon="10.5122680">
	<ele>2681.00</ele>
	<time>2023-08-07T07:45:27.000Z</time>
</trkpt>
<trkpt lat="46.1172130" lon="10.5122680">
	<ele>2681.00</ele>
	<time>2023-08-07T07:45:28.000Z</time>
</trkpt>
<trkpt lat="46.1172200" lon="10.5122640">
	<ele>2680.80</ele>
	<time>2023-08-07T07:45:29.000Z</time>
</trkpt>
<trkpt lat="46.1172200" lon="10.5122630">
	<ele>2680.60</ele>
	<time>2023-08-07T07:45:30.000Z</time>
</trkpt>
<trkpt lat="46.1172230" lon="10.5122640">
	<ele>2680.40</ele>
	<time>2023-08-07T07:45:31.000Z</time>
</trkpt>
<trkpt lat="46.1172280" lon="10.5122630">
	<ele>2680.20</ele>
	<time>2023-08-07T07:45:32.000Z</time>
</trkpt>
<trkpt lat="46.1172330" lon="10.5122610">
	<ele>2680.20</ele>
	<time>2023-08-07T07:45:33.000Z</time>
</trkpt>
<trkpt lat="46.1172410" lon="10.5122620">
	<ele>2680.00</ele>
	<time>2023-08-07T07:45:34.000Z</time>
</trkpt>
<trkpt lat="46.1172470" lon="10.5122610">
	<ele>2679.80</ele>
	<time>2023-08-07T07:45:35.000Z</time>
</trkpt>
<trkpt lat="46.1172490" lon="10.5122580">
	<ele>2679.60</ele>
	<time>2023-08-07T07:45:36.000Z</time>
</trkpt>
<trkpt lat="46.1172490" lon="10.5122580">
	<ele>2679.40</ele>
	<time>2023-08-07T07:45:37.000Z</time>
</trkpt>
<trkpt lat="46.1172520" lon="10.5122640">
	<ele>2679.20</ele>
	<time>2023-08-07T07:45:38.000Z</time>
</trkpt>
<trkpt lat="46.1172480" lon="10.5122740">
	<ele>2679.00</ele>
	<time>2023-08-07T07:45:39.000Z</time>
</trkpt>
<trkpt lat="46.1172470" lon="10.5122790">
	<ele>2678.80</ele>
	<time>2023-08-07T07:45:40.000Z</time>
</trkpt>
<trkpt lat="46.1172470" lon="10.5122790">
	<ele>2678.60</ele>
	<time>2023-08-07T07:45:41.000Z</time>
</trkpt>
<trkpt lat="46.1172470" lon="10.5122790">
	<ele>2678.60</ele>
	<time>2023-08-07T07:45:42.000Z</time>
</trkpt>
<trkpt lat="46.1172470" lon="10.5122790">
	<ele>2678.40</ele>
	<time>2023-08-07T07:45:43.000Z</time>
</trkpt>
<trkpt lat="46.1172470" lon="10.5122790">
	<ele>2678.20</ele>
	<time>2023-08-07T07:45:44.000Z</time>
</trkpt>
<trkpt lat="46.1172470" lon="10.5122790">
	<ele>2678.20</ele>
	<time>2023-08-07T07:45:45.000Z</time>
</trkpt>
<trkpt lat="46.1172470" lon="10.5122790">
	<ele>2678.00</ele>
	<time>2023-08-07T07:45:46.000Z</time>
</trkpt>
<trkpt lat="46.1172470" lon="10.5122790">
	<ele>2678.00</ele>
	<time>2023-08-07T07:45:47.000Z</time>
</trkpt>
<trkpt lat="46.1172470" lon="10.5122790">
	<ele>2678.00</ele>
	<time>2023-08-07T07:45:48.000Z</time>
</trkpt>
<trkpt lat="46.1172470" lon="10.5122790">
	<ele>2677.80</ele>
	<time>2023-08-07T07:45:49.000Z</time>
</trkpt>
<trkpt lat="46.1172470" lon="10.5122780">
	<ele>2677.60</ele>
	<time>2023-08-07T07:45:50.000Z</time>
</trkpt>
<trkpt lat="46.1172470" lon="10.5122770">
	<ele>2677.60</ele>
	<time>2023-08-07T07:45:51.000Z</time>
</trkpt>
<trkpt lat="46.1172470" lon="10.5122770">
	<ele>2677.40</ele>
	<time>2023-08-07T07:45:52.000Z</time>
</trkpt>
<trkpt lat="46.1172470" lon="10.5122770">
	<ele>2677.40</ele>
	<time>2023-08-07T07:45:53.000Z</time>
</trkpt>
<trkpt lat="46.1172480" lon="10.5122770">
	<ele>2677.20</ele>
	<time>2023-08-07T07:45:54.000Z</time>
</trkpt>
<trkpt lat="46.1172480" lon="10.5122770">
	<ele>2677.00</ele>
	<time>2023-08-07T07:45:55.000Z</time>
</trkpt>
<trkpt lat="46.1172490" lon="10.5122770">
	<ele>2676.80</ele>
	<time>2023-08-07T07:45:56.000Z</time>
</trkpt>
<trkpt lat="46.1172490" lon="10.5122760">
	<ele>2676.60</ele>
	<time>2023-08-07T07:45:57.000Z</time>
</trkpt>
<trkpt lat="46.1172490" lon="10.5122760">
	<ele>2676.60</ele>
	<time>2023-08-07T07:45:58.000Z</time>
</trkpt>
<trkpt lat="46.1172500" lon="10.5122750">
	<ele>2676.40</ele>
	<time>2023-08-07T07:45:59.000Z</time>
</trkpt>
<trkpt lat="46.1172510" lon="10.5122750">
	<ele>2676.20</ele>
	<time>2023-08-07T07:46:00.000Z</time>
</trkpt>
<trkpt lat="46.1172510" lon="10.5122740">
	<ele>2676.20</ele>
	<time>2023-08-07T07:46:01.000Z</time>
</trkpt>
<trkpt lat="46.1172520" lon="10.5122740">
	<ele>2676.00</ele>
	<time>2023-08-07T07:46:02.000Z</time>
</trkpt>
<trkpt lat="46.1172520" lon="10.5122740">
	<ele>2676.00</ele>
	<time>2023-08-07T07:46:03.000Z</time>
</trkpt>
<trkpt lat="46.1172530" lon="10.5122740">
	<ele>2675.80</ele>
	<time>2023-08-07T07:46:04.000Z</time>
</trkpt>
<trkpt lat="46.1172550" lon="10.5122740">
	<ele>2675.80</ele>
	<time>2023-08-07T07:46:05.000Z</time>
</trkpt>
<trkpt lat="46.1172570" lon="10.5122740">
	<ele>2675.60</ele>
	<time>2023-08-07T07:46:06.000Z</time>
</trkpt>
<trkpt lat="46.1172600" lon="10.5122740">
	<ele>2675.40</ele>
	<time>2023-08-07T07:46:07.000Z</time>
</trkpt>
<trkpt lat="46.1172650" lon="10.5122740">
	<ele>2675.40</ele>
	<time>2023-08-07T07:46:08.000Z</time>
</trkpt>
<trkpt lat="46.1172660" lon="10.5122720">
	<ele>2675.20</ele>
	<time>2023-08-07T07:46:09.000Z</time>
</trkpt>
<trkpt lat="46.1172680" lon="10.5122710">
	<ele>2675.20</ele>
	<time>2023-08-07T07:46:10.000Z</time>
</trkpt>
<trkpt lat="46.1172690" lon="10.5122710">
	<ele>2675.20</ele>
	<time>2023-08-07T07:46:11.000Z</time>
</trkpt>
<trkpt lat="46.1172750" lon="10.5122700">
	<ele>2675.20</ele>
	<time>2023-08-07T07:46:12.000Z</time>
</trkpt>
<trkpt lat="46.1172850" lon="10.5122670">
	<ele>2675.00</ele>
	<time>2023-08-07T07:46:13.000Z</time>
</trkpt>
<trkpt lat="46.1172890" lon="10.5122670">
	<ele>2675.00</ele>
	<time>2023-08-07T07:46:14.000Z</time>
</trkpt>
<trkpt lat="46.1172920" lon="10.5122670">
	<ele>2675.00</ele>
	<time>2023-08-07T07:46:15.000Z</time>
</trkpt>
<trkpt lat="46.1172950" lon="10.5122670">
	<ele>2674.80</ele>
	<time>2023-08-07T07:46:16.000Z</time>
</trkpt>
<trkpt lat="46.1172960" lon="10.5122670">
	<ele>2674.80</ele>
	<time>2023-08-07T07:46:17.000Z</time>
</trkpt>
<trkpt lat="46.1173060" lon="10.5122670">
	<ele>2674.60</ele>
	<time>2023-08-07T07:46:18.000Z</time>
</trkpt>
<trkpt lat="46.1173150" lon="10.5122670">
	<ele>2674.60</ele>
	<time>2023-08-07T07:46:19.000Z</time>
</trkpt>
<trkpt lat="46.1173190" lon="10.5122670">
	<ele>2674.40</ele>
	<time>2023-08-07T07:46:20.000Z</time>
</trkpt>
<trkpt lat="46.1173200" lon="10.5122670">
	<ele>2674.40</ele>
	<time>2023-08-07T07:46:21.000Z</time>
</trkpt>
<trkpt lat="46.1173220" lon="10.5122660">
	<ele>2674.20</ele>
	<time>2023-08-07T07:46:22.000Z</time>
</trkpt>
<trkpt lat="46.1173250" lon="10.5122650">
	<ele>2674.00</ele>
	<time>2023-08-07T07:46:23.000Z</time>
</trkpt>
<trkpt lat="46.1173310" lon="10.5122640">
	<ele>2673.80</ele>
	<time>2023-08-07T07:46:24.000Z</time>
</trkpt>
<trkpt lat="46.1173330" lon="10.5122630">
	<ele>2673.60</ele>
	<time>2023-08-07T07:46:25.000Z</time>
</trkpt>
<trkpt lat="46.1173350" lon="10.5122610">
	<ele>2673.40</ele>
	<time>2023-08-07T07:46:26.000Z</time>
</trkpt>
<trkpt lat="46.1173420" lon="10.5122570">
	<ele>2673.20</ele>
	<time>2023-08-07T07:46:27.000Z</time>
</trkpt>
<trkpt lat="46.1173580" lon="10.5122590">
	<ele>2673.00</ele>
	<time>2023-08-07T07:46:28.000Z</time>
</trkpt>
<trkpt lat="46.1173750" lon="10.5122600">
	<ele>2672.80</ele>
	<time>2023-08-07T07:46:29.000Z</time>
</trkpt>
<trkpt lat="46.1173900" lon="10.5122600">
	<ele>2672.60</ele>
	<time>2023-08-07T07:46:30.000Z</time>
</trkpt>
<trkpt lat="46.1174020" lon="10.5122600">
	<ele>2672.40</ele>
	<time>2023-08-07T07:46:31.000Z</time>
</trkpt>
<trkpt lat="46.1174170" lon="10.5122560">
	<ele>2672.40</ele>
	<time>2023-08-07T07:46:32.000Z</time>
</trkpt>
<trkpt lat="46.1174300" lon="10.5122510">
	<ele>2672.20</ele>
	<time>2023-08-07T07:46:33.000Z</time>
</trkpt>
<trkpt lat="46.1174470" lon="10.5122460">
	<ele>2672.20</ele>
	<time>2023-08-07T07:46:34.000Z</time>
</trkpt>
<trkpt lat="46.1174640" lon="10.5122400">
	<ele>2672.20</ele>
	<time>2023-08-07T07:46:35.000Z</time>
</trkpt>
<trkpt lat="46.1174760" lon="10.5122360">
	<ele>2672.00</ele>
	<time>2023-08-07T07:46:36.000Z</time>
</trkpt>
<trkpt lat="46.1174780" lon="10.5122300">
	<ele>2672.00</ele>
	<time>2023-08-07T07:46:37.000Z</time>
</trkpt>
<trkpt lat="46.1174790" lon="10.5122240">
	<ele>2671.80</ele>
	<time>2023-08-07T07:46:38.000Z</time>
</trkpt>
<trkpt lat="46.1174830" lon="10.5122170">
	<ele>2671.80</ele>
	<time>2023-08-07T07:46:39.000Z</time>
</trkpt>
<trkpt lat="46.1174890" lon="10.5122150">
	<ele>2671.60</ele>
	<time>2023-08-07T07:46:40.000Z</time>
</trkpt>
<trkpt lat="46.1174970" lon="10.5122150">
	<ele>2671.40</ele>
	<time>2023-08-07T07:46:41.000Z</time>
</trkpt>
<trkpt lat="46.1175020" lon="10.5122160">
	<ele>2671.40</ele>
	<time>2023-08-07T07:46:42.000Z</time>
</trkpt>
<trkpt lat="46.1175060" lon="10.5122190">
	<ele>2671.20</ele>
	<time>2023-08-07T07:46:43.000Z</time>
</trkpt>
<trkpt lat="46.1175100" lon="10.5122210">
	<ele>2671.20</ele>
	<time>2023-08-07T07:46:44.000Z</time>
</trkpt>
<trkpt lat="46.1175150" lon="10.5122230">
	<ele>2671.20</ele>
	<time>2023-08-07T07:46:45.000Z</time>
</trkpt>
<trkpt lat="46.1175170" lon="10.5122220">
	<ele>2671.00</ele>
	<time>2023-08-07T07:46:46.000Z</time>
</trkpt>
<trkpt lat="46.1175190" lon="10.5122180">
	<ele>2671.00</ele>
	<time>2023-08-07T07:46:47.000Z</time>
</trkpt>
<trkpt lat="46.1175210" lon="10.5122090">
	<ele>2671.00</ele>
	<time>2023-08-07T07:46:48.000Z</time>
</trkpt>
<trkpt lat="46.1175200" lon="10.5121990">
	<ele>2670.80</ele>
	<time>2023-08-07T07:46:49.000Z</time>
</trkpt>
<trkpt lat="46.1175240" lon="10.5121980">
	<ele>2670.80</ele>
	<time>2023-08-07T07:46:50.000Z</time>
</trkpt>
<trkpt lat="46.1175320" lon="10.5121990">
	<ele>2670.60</ele>
	<time>2023-08-07T07:46:51.000Z</time>
</trkpt>
<trkpt lat="46.1175410" lon="10.5122060">
	<ele>2670.20</ele>
	<time>2023-08-07T07:46:52.000Z</time>
</trkpt>
<trkpt lat="46.1175480" lon="10.5122130">
	<ele>2670.20</ele>
	<time>2023-08-07T07:46:53.000Z</time>
</trkpt>
<trkpt lat="46.1175500" lon="10.5122150">
	<ele>2670.00</ele>
	<time>2023-08-07T07:46:54.000Z</time>
</trkpt>
<trkpt lat="46.1175520" lon="10.5122170">
	<ele>2670.00</ele>
	<time>2023-08-07T07:46:55.000Z</time>
</trkpt>
<trkpt lat="46.1175560" lon="10.5122180">
	<ele>2669.80</ele>
	<time>2023-08-07T07:46:56.000Z</time>
</trkpt>
<trkpt lat="46.1175620" lon="10.5122190">
	<ele>2669.80</ele>
	<time>2023-08-07T07:46:57.000Z</time>
</trkpt>
<trkpt lat="46.1175650" lon="10.5122210">
	<ele>2669.80</ele>
	<time>2023-08-07T07:46:58.000Z</time>
</trkpt>
<trkpt lat="46.1175720" lon="10.5122240">
	<ele>2669.80</ele>
	<time>2023-08-07T07:46:59.000Z</time>
</trkpt>
<trkpt lat="46.1175740" lon="10.5122240">
	<ele>2669.60</ele>
	<time>2023-08-07T07:47:00.000Z</time>
</trkpt>
<trkpt lat="46.1175770" lon="10.5122250">
	<ele>2669.40</ele>
	<time>2023-08-07T07:47:01.000Z</time>
</trkpt>
<trkpt lat="46.1175790" lon="10.5122220">
	<ele>2669.40</ele>
	<time>2023-08-07T07:47:02.000Z</time>
</trkpt>
<trkpt lat="46.1175840" lon="10.5122210">
	<ele>2669.20</ele>
	<time>2023-08-07T07:47:03.000Z</time>
</trkpt>
<trkpt lat="46.1175890" lon="10.5122240">
	<ele>2669.20</ele>
	<time>2023-08-07T07:47:04.000Z</time>
</trkpt>
<trkpt lat="46.1175930" lon="10.5122260">
	<ele>2669.00</ele>
	<time>2023-08-07T07:47:05.000Z</time>
</trkpt>
<trkpt lat="46.1175940" lon="10.5122270">
	<ele>2668.60</ele>
	<time>2023-08-07T07:47:06.000Z</time>
</trkpt>
<trkpt lat="46.1175930" lon="10.5122270">
	<ele>2668.60</ele>
	<time>2023-08-07T07:47:07.000Z</time>
</trkpt>
<trkpt lat="46.1175950" lon="10.5122290">
	<ele>2668.40</ele>
	<time>2023-08-07T07:47:08.000Z</time>
</trkpt>
<trkpt lat="46.1175990" lon="10.5122350">
	<ele>2668.40</ele>
	<time>2023-08-07T07:47:09.000Z</time>
</trkpt>
<trkpt lat="46.1176010" lon="10.5122370">
	<ele>2668.20</ele>
	<time>2023-08-07T07:47:10.000Z</time>
</trkpt>
<trkpt lat="46.1176030" lon="10.5122360">
	<ele>2668.20</ele>
	<time>2023-08-07T07:47:11.000Z</time>
</trkpt>
<trkpt lat="46.1176050" lon="10.5122340">
	<ele>2668.00</ele>
	<time>2023-08-07T07:47:12.000Z</time>
</trkpt>
<trkpt lat="46.1176100" lon="10.5122360">
	<ele>2667.80</ele>
	<time>2023-08-07T07:47:13.000Z</time>
</trkpt>
<trkpt lat="46.1176150" lon="10.5122350">
	<ele>2667.60</ele>
	<time>2023-08-07T07:47:14.000Z</time>
</trkpt>
<trkpt lat="46.1176180" lon="10.5122340">
	<ele>2667.60</ele>
	<time>2023-08-07T07:47:15.000Z</time>
</trkpt>
<trkpt lat="46.1176210" lon="10.5122350">
	<ele>2667.40</ele>
	<time>2023-08-07T07:47:16.000Z</time>
</trkpt>
<trkpt lat="46.1176230" lon="10.5122370">
	<ele>2667.40</ele>
	<time>2023-08-07T07:47:17.000Z</time>
</trkpt>
<trkpt lat="46.1176270" lon="10.5122430">
	<ele>2667.20</ele>
	<time>2023-08-07T07:47:18.000Z</time>
</trkpt>
<trkpt lat="46.1176290" lon="10.5122460">
	<ele>2667.20</ele>
	<time>2023-08-07T07:47:19.000Z</time>
</trkpt>
<trkpt lat="46.1176310" lon="10.5122480">
	<ele>2667.00</ele>
	<time>2023-08-07T07:47:20.000Z</time>
</trkpt>
<trkpt lat="46.1176320" lon="10.5122500">
	<ele>2666.60</ele>
	<time>2023-08-07T07:47:21.000Z</time>
</trkpt>
<trkpt lat="46.1176350" lon="10.5122550">
	<ele>2666.40</ele>
	<time>2023-08-07T07:47:22.000Z</time>
</trkpt>
<trkpt lat="46.1176370" lon="10.5122590">
	<ele>2666.20</ele>
	<time>2023-08-07T07:47:23.000Z</time>
</trkpt>
<trkpt lat="46.1176410" lon="10.5122550">
	<ele>2666.00</ele>
	<time>2023-08-07T07:47:24.000Z</time>
</trkpt>
<trkpt lat="46.1176430" lon="10.5122500">
	<ele>2666.00</ele>
	<time>2023-08-07T07:47:25.000Z</time>
</trkpt>
<trkpt lat="46.1176450" lon="10.5122470">
	<ele>2665.80</ele>
	<time>2023-08-07T07:47:26.000Z</time>
</trkpt>
<trkpt lat="46.1176480" lon="10.5122470">
	<ele>2665.80</ele>
	<time>2023-08-07T07:47:27.000Z</time>
</trkpt>
<trkpt lat="46.1176500" lon="10.5122480">
	<ele>2665.60</ele>
	<time>2023-08-07T07:47:28.000Z</time>
</trkpt>
<trkpt lat="46.1176520" lon="10.5122520">
	<ele>2665.40</ele>
	<time>2023-08-07T07:47:29.000Z</time>
</trkpt>
<trkpt lat="46.1176520" lon="10.5122560">
	<ele>2665.20</ele>
	<time>2023-08-07T07:47:30.000Z</time>
</trkpt>
<trkpt lat="46.1176510" lon="10.5122580">
	<ele>2665.20</ele>
	<time>2023-08-07T07:47:31.000Z</time>
</trkpt>
<trkpt lat="46.1176510" lon="10.5122610">
	<ele>2665.20</ele>
	<time>2023-08-07T07:47:32.000Z</time>
</trkpt>
<trkpt lat="46.1176530" lon="10.5122640">
	<ele>2665.00</ele>
	<time>2023-08-07T07:47:33.000Z</time>
</trkpt>
<trkpt lat="46.1176550" lon="10.5122670">
	<ele>2665.00</ele>
	<time>2023-08-07T07:47:34.000Z</time>
</trkpt>
<trkpt lat="46.1176590" lon="10.5122720">
	<ele>2664.80</ele>
	<time>2023-08-07T07:47:35.000Z</time>
</trkpt>
<trkpt lat="46.1176600" lon="10.5122790">
	<ele>2664.80</ele>
	<time>2023-08-07T07:47:36.000Z</time>
</trkpt>
<trkpt lat="46.1176620" lon="10.5122820">
	<ele>2664.80</ele>
	<time>2023-08-07T07:47:37.000Z</time>
</trkpt>
<trkpt lat="46.1176650" lon="10.5122850">
	<ele>2664.60</ele>
	<time>2023-08-07T07:47:38.000Z</time>
</trkpt>
<trkpt lat="46.1176700" lon="10.5122910">
	<ele>2664.20</ele>
	<time>2023-08-07T07:47:39.000Z</time>
</trkpt>
<trkpt lat="46.1176710" lon="10.5122940">
	<ele>2664.00</ele>
	<time>2023-08-07T07:47:40.000Z</time>
</trkpt>
<trkpt lat="46.1176760" lon="10.5122980">
	<ele>2664.00</ele>
	<time>2023-08-07T07:47:41.000Z</time>
</trkpt>
<trkpt lat="46.1176820" lon="10.5123020">
	<ele>2664.00</ele>
	<time>2023-08-07T07:47:42.000Z</time>
</trkpt>
<trkpt lat="46.1176830" lon="10.5123050">
	<ele>2663.80</ele>
	<time>2023-08-07T07:47:43.000Z</time>
</trkpt>
<trkpt lat="46.1176840" lon="10.5123080">
	<ele>2663.60</ele>
	<time>2023-08-07T07:47:44.000Z</time>
</trkpt>
<trkpt lat="46.1176850" lon="10.5123100">
	<ele>2663.60</ele>
	<time>2023-08-07T07:47:45.000Z</time>
</trkpt>
<trkpt lat="46.1176870" lon="10.5123110">
	<ele>2663.40</ele>
	<time>2023-08-07T07:47:46.000Z</time>
</trkpt>
<trkpt lat="46.1176870" lon="10.5123120">
	<ele>2663.20</ele>
	<time>2023-08-07T07:47:47.000Z</time>
</trkpt>
<trkpt lat="46.1176880" lon="10.5123130">
	<ele>2663.20</ele>
	<time>2023-08-07T07:47:48.000Z</time>
</trkpt>
<trkpt lat="46.1176890" lon="10.5123140">
	<ele>2663.20</ele>
	<time>2023-08-07T07:47:49.000Z</time>
</trkpt>
<trkpt lat="46.1176880" lon="10.5123160">
	<ele>2663.20</ele>
	<time>2023-08-07T07:47:50.000Z</time>
</trkpt>
<trkpt lat="46.1176900" lon="10.5123160">
	<ele>2663.20</ele>
	<time>2023-08-07T07:47:51.000Z</time>
</trkpt>
<trkpt lat="46.1176900" lon="10.5123160">
	<ele>2663.20</ele>
	<time>2023-08-07T07:47:52.000Z</time>
</trkpt>
<trkpt lat="46.1176900" lon="10.5123160">
	<ele>2663.20</ele>
	<time>2023-08-07T07:47:53.000Z</time>
</trkpt>
<trkpt lat="46.1176900" lon="10.5123160">
	<ele>2663.20</ele>
	<time>2023-08-07T07:47:54.000Z</time>
</trkpt>
<trkpt lat="46.1176900" lon="10.5123160">
	<ele>2663.20</ele>
	<time>2023-08-07T07:47:55.000Z</time>
</trkpt>
<trkpt lat="46.1176900" lon="10.5123160">
	<ele>2663.20</ele>
	<time>2023-08-07T07:47:56.000Z</time>
</trkpt>
<trkpt lat="46.1176900" lon="10.5123160">
	<ele>2663.20</ele>
	<time>2023-08-07T07:47:57.000Z</time>
</trkpt>
<trkpt lat="46.1176900" lon="10.5123160">
	<ele>2663.20</ele>
	<time>2023-08-07T07:47:58.000Z</time>
</trkpt>
<trkpt lat="46.1176900" lon="10.5123160">
	<ele>2663.00</ele>
	<time>2023-08-07T07:47:59.000Z</time>
</trkpt>
<trkpt lat="46.1176900" lon="10.5123160">
	<ele>2663.00</ele>
	<time>2023-08-07T07:48:00.000Z</time>
</trkpt>
<trkpt lat="46.1176900" lon="10.5123150">
	<ele>2663.20</ele>
	<time>2023-08-07T07:48:01.000Z</time>
</trkpt>
<trkpt lat="46.1176900" lon="10.5123150">
	<ele>2663.20</ele>
	<time>2023-08-07T07:48:02.000Z</time>
</trkpt>
<trkpt lat="46.1176900" lon="10.5123140">
	<ele>2663.20</ele>
	<time>2023-08-07T07:48:03.000Z</time>
</trkpt>
<trkpt lat="46.1176900" lon="10.5123130">
	<ele>2663.40</ele>
	<time>2023-08-07T07:48:04.000Z</time>
</trkpt>
<trkpt lat="46.1176900" lon="10.5123120">
	<ele>2663.40</ele>
	<time>2023-08-07T07:48:05.000Z</time>
</trkpt>
<trkpt lat="46.1176900" lon="10.5123120">
	<ele>2663.60</ele>
	<time>2023-08-07T07:48:06.000Z</time>
</trkpt>
<trkpt lat="46.1176920" lon="10.5123120">
	<ele>2663.60</ele>
	<time>2023-08-07T07:48:07.000Z</time>
</trkpt>
<trkpt lat="46.1176960" lon="10.5123120">
	<ele>2663.60</ele>
	<time>2023-08-07T07:48:08.000Z</time>
</trkpt>
<trkpt lat="46.1177030" lon="10.5123120">
	<ele>2663.60</ele>
	<time>2023-08-07T07:48:09.000Z</time>
</trkpt>
<trkpt lat="46.1177070" lon="10.5123120">
	<ele>2663.60</ele>
	<time>2023-08-07T07:48:10.000Z</time>
</trkpt>
<trkpt lat="46.1177080" lon="10.5123120">
	<ele>2663.60</ele>
	<time>2023-08-07T07:48:11.000Z</time>
</trkpt>
<trkpt lat="46.1177090" lon="10.5123120">
	<ele>2663.60</ele>
	<time>2023-08-07T07:48:12.000Z</time>
</trkpt>
<trkpt lat="46.1177090" lon="10.5123120">
	<ele>2663.60</ele>
	<time>2023-08-07T07:48:13.000Z</time>
</trkpt>
<trkpt lat="46.1177100" lon="10.5123120">
	<ele>2663.60</ele>
	<time>2023-08-07T07:48:14.000Z</time>
</trkpt>
<trkpt lat="46.1177120" lon="10.5123120">
	<ele>2663.60</ele>
	<time>2023-08-07T07:48:15.000Z</time>
</trkpt>
<trkpt lat="46.1177130" lon="10.5123120">
	<ele>2663.40</ele>
	<time>2023-08-07T07:48:16.000Z</time>
</trkpt>
<trkpt lat="46.1177130" lon="10.5123130">
	<ele>2663.40</ele>
	<time>2023-08-07T07:48:17.000Z</time>
</trkpt>
<trkpt lat="46.1177140" lon="10.5123130">
	<ele>2663.20</ele>
	<time>2023-08-07T07:48:18.000Z</time>
</trkpt>
<trkpt lat="46.1177140" lon="10.5123130">
	<ele>2663.20</ele>
	<time>2023-08-07T07:48:19.000Z</time>
</trkpt>
<trkpt lat="46.1177150" lon="10.5123130">
	<ele>2663.20</ele>
	<time>2023-08-07T07:48:20.000Z</time>
</trkpt>
<trkpt lat="46.1177150" lon="10.5123130">
	<ele>2663.20</ele>
	<time>2023-08-07T07:48:21.000Z</time>
</trkpt>
<trkpt lat="46.1177160" lon="10.5123130">
	<ele>2663.20</ele>
	<time>2023-08-07T07:48:22.000Z</time>
</trkpt>
<trkpt lat="46.1177160" lon="10.5123130">
	<ele>2663.40</ele>
	<time>2023-08-07T07:48:23.000Z</time>
</trkpt>
<trkpt lat="46.1177170" lon="10.5123130">
	<ele>2663.40</ele>
	<time>2023-08-07T07:48:24.000Z</time>
</trkpt>
<trkpt lat="46.1177170" lon="10.5123130">
	<ele>2663.40</ele>
	<time>2023-08-07T07:48:25.000Z</time>
</trkpt>
<trkpt lat="46.1177180" lon="10.5123130">
	<ele>2663.40</ele>
	<time>2023-08-07T07:48:26.000Z</time>
</trkpt>
<trkpt lat="46.1177180" lon="10.5123130">
	<ele>2663.20</ele>
	<time>2023-08-07T07:48:27.000Z</time>
</trkpt>
<trkpt lat="46.1177180" lon="10.5123130">
	<ele>2663.20</ele>
	<time>2023-08-07T07:48:28.000Z</time>
</trkpt>
<trkpt lat="46.1177180" lon="10.5123140">
	<ele>2663.20</ele>
	<time>2023-08-07T07:48:29.000Z</time>
</trkpt>
<trkpt lat="46.1177180" lon="10.5123150">
	<ele>2663.20</ele>
	<time>2023-08-07T07:48:30.000Z</time>
</trkpt>
<trkpt lat="46.1177180" lon="10.5123160">
	<ele>2663.20</ele>
	<time>2023-08-07T07:48:31.000Z</time>
</trkpt>
<trkpt lat="46.1177180" lon="10.5123160">
	<ele>2663.40</ele>
	<time>2023-08-07T07:48:32.000Z</time>
</trkpt>
<trkpt lat="46.1177180" lon="10.5123160">
	<ele>2663.40</ele>
	<time>2023-08-07T07:48:33.000Z</time>
</trkpt>
<trkpt lat="46.1177180" lon="10.5123160">
	<ele>2663.40</ele>
	<time>2023-08-07T07:48:34.000Z</time>
</trkpt>
<trkpt lat="46.1177180" lon="10.5123170">
	<ele>2663.60</ele>
	<time>2023-08-07T07:48:35.000Z</time>
</trkpt>
<trkpt lat="46.1177180" lon="10.5123170">
	<ele>2663.60</ele>
	<time>2023-08-07T07:48:36.000Z</time>
</trkpt>
<trkpt lat="46.1177180" lon="10.5123180">
	<ele>2663.60</ele>
	<time>2023-08-07T07:48:37.000Z</time>
</trkpt>
<trkpt lat="46.1177180" lon="10.5123180">
	<ele>2663.60</ele>
	<time>2023-08-07T07:48:38.000Z</time>
</trkpt>
<trkpt lat="46.1177180" lon="10.5123190">
	<ele>2663.40</ele>
	<time>2023-08-07T07:48:39.000Z</time>
</trkpt>
<trkpt lat="46.1177180" lon="10.5123190">
	<ele>2663.40</ele>
	<time>2023-08-07T07:48:40.000Z</time>
</trkpt>
<trkpt lat="46.1177180" lon="10.5123200">
	<ele>2663.40</ele>
	<time>2023-08-07T07:48:41.000Z</time>
</trkpt>
<trkpt lat="46.1177180" lon="10.5123210">
	<ele>2663.40</ele>
	<time>2023-08-07T07:48:42.000Z</time>
</trkpt>
<trkpt lat="46.1177180" lon="10.5123210">
	<ele>2663.40</ele>
	<time>2023-08-07T07:48:43.000Z</time>
</trkpt>
<trkpt lat="46.1177180" lon="10.5123210">
	<ele>2663.40</ele>
	<time>2023-08-07T07:48:44.000Z</time>
</trkpt>
<trkpt lat="46.1177180" lon="10.5123210">
	<ele>2663.40</ele>
	<time>2023-08-07T07:48:45.000Z</time>
</trkpt>
<trkpt lat="46.1177180" lon="10.5123210">
	<ele>2663.40</ele>
	<time>2023-08-07T07:48:46.000Z</time>
</trkpt>
<trkpt lat="46.1177190" lon="10.5123210">
	<ele>2663.40</ele>
	<time>2023-08-07T07:48:47.000Z</time>
</trkpt>
<trkpt lat="46.1177190" lon="10.5123210">
	<ele>2663.40</ele>
	<time>2023-08-07T07:48:48.000Z</time>
</trkpt>
<trkpt lat="46.1177190" lon="10.5123210">
	<ele>2663.40</ele>
	<time>2023-08-07T07:48:49.000Z</time>
</trkpt>
<trkpt lat="46.1177190" lon="10.5123210">
	<ele>2663.40</ele>
	<time>2023-08-07T07:48:50.000Z</time>
</trkpt>
<trkpt lat="46.1177190" lon="10.5123210">
	<ele>2663.40</ele>
	<time>2023-08-07T07:48:51.000Z</time>
</trkpt>
<trkpt lat="46.1177190" lon="10.5123210">
	<ele>2663.40</ele>
	<time>2023-08-07T07:48:52.000Z</time>
</trkpt>
<trkpt lat="46.1177190" lon="10.5123210">
	<ele>2663.40</ele>
	<time>2023-08-07T07:48:53.000Z</time>
</trkpt>
<trkpt lat="46.1177190" lon="10.5123210">
	<ele>2663.20</ele>
	<time>2023-08-07T07:48:54.000Z</time>
</trkpt>
<trkpt lat="46.1177190" lon="10.5123210">
	<ele>2663.20</ele>
	<time>2023-08-07T07:48:55.000Z</time>
</trkpt>
<trkpt lat="46.1177190" lon="10.5123210">
	<ele>2663.20</ele>
	<time>2023-08-07T07:48:56.000Z</time>
</trkpt>
<trkpt lat="46.1177190" lon="10.5123210">
	<ele>2663.20</ele>
	<time>2023-08-07T07:48:57.000Z</time>
</trkpt>
<trkpt lat="46.1177190" lon="10.5123210">
	<ele>2663.20</ele>
	<time>2023-08-07T07:48:58.000Z</time>
</trkpt>
<trkpt lat="46.1177190" lon="10.5123210">
	<ele>2663.40</ele>
	<time>2023-08-07T07:48:59.000Z</time>
</trkpt>
<trkpt lat="46.1177190" lon="10.5123210">
	<ele>2663.40</ele>
	<time>2023-08-07T07:49:00.000Z</time>
</trkpt>
<trkpt lat="46.1177190" lon="10.5123210">
	<ele>2663.60</ele>
	<time>2023-08-07T07:49:01.000Z</time>
</trkpt>
<trkpt lat="46.1177190" lon="10.5123210">
	<ele>2663.60</ele>
	<time>2023-08-07T07:49:02.000Z</time>
</trkpt>
<trkpt lat="46.1177190" lon="10.5123210">
	<ele>2663.60</ele>
	<time>2023-08-07T07:49:03.000Z</time>
</trkpt>
<trkpt lat="46.1177190" lon="10.5123210">
	<ele>2663.80</ele>
	<time>2023-08-07T07:49:04.000Z</time>
</trkpt>
<trkpt lat="46.1177190" lon="10.5123210">
	<ele>2663.80</ele>
	<time>2023-08-07T07:49:05.000Z</time>
</trkpt>
<trkpt lat="46.1177190" lon="10.5123210">
	<ele>2663.80</ele>
	<time>2023-08-07T07:49:06.000Z</time>
</trkpt>
<trkpt lat="46.1177200" lon="10.5123210">
	<ele>2663.60</ele>
	<time>2023-08-07T07:49:07.000Z</time>
</trkpt>
<trkpt lat="46.1177200" lon="10.5123200">
	<ele>2663.60</ele>
	<time>2023-08-07T07:49:08.000Z</time>
</trkpt>
<trkpt lat="46.1177200" lon="10.5123200">
	<ele>2663.60</ele>
	<time>2023-08-07T07:49:09.000Z</time>
</trkpt>
<trkpt lat="46.1177200" lon="10.5123200">
	<ele>2663.80</ele>
	<time>2023-08-07T07:49:10.000Z</time>
</trkpt>
<trkpt lat="46.1177200" lon="10.5123200">
	<ele>2663.80</ele>
	<time>2023-08-07T07:49:11.000Z</time>
</trkpt>
<trkpt lat="46.1177190" lon="10.5123200">
	<ele>2663.60</ele>
	<time>2023-08-07T07:49:12.000Z</time>
</trkpt>
<trkpt lat="46.1177190" lon="10.5123200">
	<ele>2663.60</ele>
	<time>2023-08-07T07:49:13.000Z</time>
</trkpt>
<trkpt lat="46.1177190" lon="10.5123200">
	<ele>2663.60</ele>
	<time>2023-08-07T07:49:14.000Z</time>
</trkpt>
<trkpt lat="46.1177190" lon="10.5123200">
	<ele>2663.60</ele>
	<time>2023-08-07T07:49:15.000Z</time>
</trkpt>
<trkpt lat="46.1177190" lon="10.5123190">
	<ele>2663.60</ele>
	<time>2023-08-07T07:49:16.000Z</time>
</trkpt>
<trkpt lat="46.1177190" lon="10.5123180">
	<ele>2663.40</ele>
	<time>2023-08-07T07:49:17.000Z</time>
</trkpt>
<trkpt lat="46.1177190" lon="10.5123180">
	<ele>2663.40</ele>
	<time>2023-08-07T07:49:18.000Z</time>
</trkpt>
<trkpt lat="46.1177190" lon="10.5123180">
	<ele>2663.40</ele>
	<time>2023-08-07T07:49:19.000Z</time>
</trkpt>
<trkpt lat="46.1177190" lon="10.5123180">
	<ele>2663.40</ele>
	<time>2023-08-07T07:49:20.000Z</time>
</trkpt>
<trkpt lat="46.1177190" lon="10.5123170">
	<ele>2663.40</ele>
	<time>2023-08-07T07:49:21.000Z</time>
</trkpt>
<trkpt lat="46.1177190" lon="10.5123170">
	<ele>2663.20</ele>
	<time>2023-08-07T07:49:22.000Z</time>
</trkpt>
<trkpt lat="46.1177190" lon="10.5123170">
	<ele>2663.20</ele>
	<time>2023-08-07T07:49:23.000Z</time>
</trkpt>
<trkpt lat="46.1177190" lon="10.5123170">
	<ele>2663.20</ele>
	<time>2023-08-07T07:49:24.000Z</time>
</trkpt>
<trkpt lat="46.1177190" lon="10.5123170">
	<ele>2663.20</ele>
	<time>2023-08-07T07:49:25.000Z</time>
</trkpt>
<trkpt lat="46.1177190" lon="10.5123170">
	<ele>2663.20</ele>
	<time>2023-08-07T07:49:26.000Z</time>
</trkpt>
<trkpt lat="46.1177190" lon="10.5123160">
	<ele>2663.40</ele>
	<time>2023-08-07T07:49:27.000Z</time>
</trkpt>
<trkpt lat="46.1177190" lon="10.5123160">
	<ele>2663.40</ele>
	<time>2023-08-07T07:49:28.000Z</time>
</trkpt>
<trkpt lat="46.1177190" lon="10.5123150">
	<ele>2663.40</ele>
	<time>2023-08-07T07:49:29.000Z</time>
</trkpt>
<trkpt lat="46.1177190" lon="10.5123150">
	<ele>2663.40</ele>
	<time>2023-08-07T07:49:30.000Z</time>
</trkpt>
<trkpt lat="46.1177190" lon="10.5123140">
	<ele>2663.40</ele>
	<time>2023-08-07T07:49:31.000Z</time>
</trkpt>
<trkpt lat="46.1177180" lon="10.5123140">
	<ele>2663.20</ele>
	<time>2023-08-07T07:49:32.000Z</time>
</trkpt>
<trkpt lat="46.1177180" lon="10.5123140">
	<ele>2663.00</ele>
	<time>2023-08-07T07:49:33.000Z</time>
</trkpt>
<trkpt lat="46.1177180" lon="10.5123140">
	<ele>2662.80</ele>
	<time>2023-08-07T07:49:34.000Z</time>
</trkpt>
<trkpt lat="46.1177180" lon="10.5123140">
	<ele>2662.60</ele>
	<time>2023-08-07T07:49:35.000Z</time>
</trkpt>
<trkpt lat="46.1177180" lon="10.5123140">
	<ele>2662.60</ele>
	<time>2023-08-07T07:49:36.000Z</time>
</trkpt>
<trkpt lat="46.1177180" lon="10.5123130">
	<ele>2662.40</ele>
	<time>2023-08-07T07:49:37.000Z</time>
</trkpt>
<trkpt lat="46.1177180" lon="10.5123130">
	<ele>2662.40</ele>
	<time>2023-08-07T07:49:38.000Z</time>
</trkpt>
<trkpt lat="46.1177180" lon="10.5123120">
	<ele>2662.20</ele>
	<time>2023-08-07T07:49:39.000Z</time>
</trkpt>
<trkpt lat="46.1177180" lon="10.5123120">
	<ele>2662.20</ele>
	<time>2023-08-07T07:49:40.000Z</time>
</trkpt>
<trkpt lat="46.1177180" lon="10.5123110">
	<ele>2662.00</ele>
	<time>2023-08-07T07:49:41.000Z</time>
</trkpt>
<trkpt lat="46.1177180" lon="10.5123110">
	<ele>2662.00</ele>
	<time>2023-08-07T07:49:42.000Z</time>
</trkpt>
<trkpt lat="46.1177180" lon="10.5123110">
	<ele>2662.00</ele>
	<time>2023-08-07T07:49:43.000Z</time>
</trkpt>
<trkpt lat="46.1177180" lon="10.5123110">
	<ele>2662.00</ele>
	<time>2023-08-07T07:49:44.000Z</time>
</trkpt>
<trkpt lat="46.1177180" lon="10.5123110">
	<ele>2662.00</ele>
	<time>2023-08-07T07:49:45.000Z</time>
</trkpt>
<trkpt lat="46.1177180" lon="10.5123110">
	<ele>2662.00</ele>
	<time>2023-08-07T07:49:46.000Z</time>
</trkpt>
<trkpt lat="46.1177180" lon="10.5123110">
	<ele>2662.00</ele>
	<time>2023-08-07T07:49:47.000Z</time>
</trkpt>
<trkpt lat="46.1177180" lon="10.5123100">
	<ele>2662.20</ele>
	<time>2023-08-07T07:49:48.000Z</time>
</trkpt>
<trkpt lat="46.1177180" lon="10.5123090">
	<ele>2662.40</ele>
	<time>2023-08-07T07:49:49.000Z</time>
</trkpt>
<trkpt lat="46.1177180" lon="10.5123090">
	<ele>2662.60</ele>
	<time>2023-08-07T07:49:50.000Z</time>
</trkpt>
<trkpt lat="46.1177180" lon="10.5123080">
	<ele>2662.60</ele>
	<time>2023-08-07T07:49:51.000Z</time>
</trkpt>
<trkpt lat="46.1177180" lon="10.5123070">
	<ele>2662.80</ele>
	<time>2023-08-07T07:49:52.000Z</time>
</trkpt>
<trkpt lat="46.1177190" lon="10.5123050">
	<ele>2662.80</ele>
	<time>2023-08-07T07:49:53.000Z</time>
</trkpt>
<trkpt lat="46.1177200" lon="10.5123020">
	<ele>2662.80</ele>
	<time>2023-08-07T07:49:54.000Z</time>
</trkpt>
<trkpt lat="46.1177210" lon="10.5123000">
	<ele>2662.80</ele>
	<time>2023-08-07T07:49:55.000Z</time>
</trkpt>
<trkpt lat="46.1177230" lon="10.5122970">
	<ele>2662.80</ele>
	<time>2023-08-07T07:49:56.000Z</time>
</trkpt>
<trkpt lat="46.1177260" lon="10.5122930">
	<ele>2662.80</ele>
	<time>2023-08-07T07:49:57.000Z</time>
</trkpt>
<trkpt lat="46.1177300" lon="10.5122900">
	<ele>2662.80</ele>
	<time>2023-08-07T07:49:58.000Z</time>
</trkpt>
<trkpt lat="46.1177330" lon="10.5122880">
	<ele>2662.80</ele>
	<time>2023-08-07T07:49:59.000Z</time>
</trkpt>
<trkpt lat="46.1177350" lon="10.5122860">
	<ele>2662.80</ele>
	<time>2023-08-07T07:50:00.000Z</time>
</trkpt>
<trkpt lat="46.1177370" lon="10.5122840">
	<ele>2662.80</ele>
	<time>2023-08-07T07:50:01.000Z</time>
</trkpt>
<trkpt lat="46.1177370" lon="10.5122830">
	<ele>2662.60</ele>
	<time>2023-08-07T07:50:02.000Z</time>
</trkpt>
<trkpt lat="46.1177380" lon="10.5122820">
	<ele>2662.40</ele>
	<time>2023-08-07T07:50:03.000Z</time>
</trkpt>
<trkpt lat="46.1177390" lon="10.5122820">
	<ele>2662.40</ele>
	<time>2023-08-07T07:50:04.000Z</time>
</trkpt>
<trkpt lat="46.1177400" lon="10.5122810">
	<ele>2662.00</ele>
	<time>2023-08-07T07:50:05.000Z</time>
</trkpt>
<trkpt lat="46.1177400" lon="10.5122810">
	<ele>2661.80</ele>
	<time>2023-08-07T07:50:06.000Z</time>
</trkpt>
<trkpt lat="46.1177410" lon="10.5122810">
	<ele>2661.60</ele>
	<time>2023-08-07T07:50:07.000Z</time>
</trkpt>
<trkpt lat="46.1177410" lon="10.5122800">
	<ele>2661.40</ele>
	<time>2023-08-07T07:50:08.000Z</time>
</trkpt>
<trkpt lat="46.1177450" lon="10.5122710">
	<ele>2661.20</ele>
	<time>2023-08-07T07:50:09.000Z</time>
</trkpt>
<trkpt lat="46.1177470" lon="10.5122610">
	<ele>2661.00</ele>
	<time>2023-08-07T07:50:10.000Z</time>
</trkpt>
<trkpt lat="46.1177490" lon="10.5122500">
	<ele>2661.00</ele>
	<time>2023-08-07T07:50:11.000Z</time>
</trkpt>
<trkpt lat="46.1177510" lon="10.5122400">
	<ele>2660.80</ele>
	<time>2023-08-07T07:50:12.000Z</time>
</trkpt>
<trkpt lat="46.1177570" lon="10.5122270">
	<ele>2660.60</ele>
	<time>2023-08-07T07:50:13.000Z</time>
</trkpt>
<trkpt lat="46.1177660" lon="10.5122130">
	<ele>2660.40</ele>
	<time>2023-08-07T07:50:14.000Z</time>
</trkpt>
<trkpt lat="46.1177730" lon="10.5122030">
	<ele>2660.20</ele>
	<time>2023-08-07T07:50:15.000Z</time>
</trkpt>
<trkpt lat="46.1177790" lon="10.5121940">
	<ele>2660.00</ele>
	<time>2023-08-07T07:50:16.000Z</time>
</trkpt>
<trkpt lat="46.1177860" lon="10.5121860">
	<ele>2660.00</ele>
	<time>2023-08-07T07:50:17.000Z</time>
</trkpt>
<trkpt lat="46.1177890" lon="10.5121790">
	<ele>2659.80</ele>
	<time>2023-08-07T07:50:18.000Z</time>
</trkpt>
<trkpt lat="46.1177880" lon="10.5121780">
	<ele>2659.60</ele>
	<time>2023-08-07T07:50:19.000Z</time>
</trkpt>
<trkpt lat="46.1177900" lon="10.5121750">
	<ele>2659.40</ele>
	<time>2023-08-07T07:50:20.000Z</time>
</trkpt>
<trkpt lat="46.1177920" lon="10.5121680">
	<ele>2659.20</ele>
	<time>2023-08-07T07:50:21.000Z</time>
</trkpt>
<trkpt lat="46.1177970" lon="10.5121620">
	<ele>2659.00</ele>
	<time>2023-08-07T07:50:22.000Z</time>
</trkpt>
<trkpt lat="46.1178050" lon="10.5121540">
	<ele>2658.80</ele>
	<time>2023-08-07T07:50:23.000Z</time>
</trkpt>
<trkpt lat="46.1178100" lon="10.5121520">
	<ele>2658.60</ele>
	<time>2023-08-07T07:50:24.000Z</time>
</trkpt>
<trkpt lat="46.1178110" lon="10.5121530">
	<ele>2658.40</ele>
	<time>2023-08-07T07:50:25.000Z</time>
</trkpt>
<trkpt lat="46.1178090" lon="10.5121630">
	<ele>2658.20</ele>
	<time>2023-08-07T07:50:26.000Z</time>
</trkpt>
<trkpt lat="46.1178110" lon="10.5121660">
	<ele>2657.40</ele>
	<time>2023-08-07T07:50:27.000Z</time>
</trkpt>
<trkpt lat="46.1178110" lon="10.5121710">
	<ele>2657.20</ele>
	<time>2023-08-07T07:50:28.000Z</time>
</trkpt>
<trkpt lat="46.1178100" lon="10.5121750">
	<ele>2657.00</ele>
	<time>2023-08-07T07:50:29.000Z</time>
</trkpt>
<trkpt lat="46.1178110" lon="10.5121780">
	<ele>2656.80</ele>
	<time>2023-08-07T07:50:30.000Z</time>
</trkpt>
<trkpt lat="46.1178120" lon="10.5121810">
	<ele>2657.00</ele>
	<time>2023-08-07T07:50:31.000Z</time>
</trkpt>
<trkpt lat="46.1178140" lon="10.5121800">
	<ele>2657.00</ele>
	<time>2023-08-07T07:50:32.000Z</time>
</trkpt>
<trkpt lat="46.1178100" lon="10.5121740">
	<ele>2657.00</ele>
	<time>2023-08-07T07:50:33.000Z</time>
</trkpt>
<trkpt lat="46.1178070" lon="10.5121710">
	<ele>2657.00</ele>
	<time>2023-08-07T07:50:34.000Z</time>
</trkpt>
<trkpt lat="46.1178070" lon="10.5121690">
	<ele>2656.80</ele>
	<time>2023-08-07T07:50:35.000Z</time>
</trkpt>
<trkpt lat="46.1178060" lon="10.5121670">
	<ele>2656.60</ele>
	<time>2023-08-07T07:50:36.000Z</time>
</trkpt>
<trkpt lat="46.1178060" lon="10.5121590">
	<ele>2656.40</ele>
	<time>2023-08-07T07:50:37.000Z</time>
</trkpt>
<trkpt lat="46.1178070" lon="10.5121560">
	<ele>2656.20</ele>
	<time>2023-08-07T07:50:38.000Z</time>
</trkpt>
<trkpt lat="46.1178080" lon="10.5121520">
	<ele>2656.20</ele>
	<time>2023-08-07T07:50:39.000Z</time>
</trkpt>
<trkpt lat="46.1178080" lon="10.5121490">
	<ele>2656.00</ele>
	<time>2023-08-07T07:50:40.000Z</time>
</trkpt>
<trkpt lat="46.1178100" lon="10.5121480">
	<ele>2656.00</ele>
	<time>2023-08-07T07:50:41.000Z</time>
</trkpt>
<trkpt lat="46.1178100" lon="10.5121480">
	<ele>2656.00</ele>
	<time>2023-08-07T07:50:42.000Z</time>
</trkpt>
<trkpt lat="46.1178090" lon="10.5121440">
	<ele>2655.80</ele>
	<time>2023-08-07T07:50:43.000Z</time>
</trkpt>
<trkpt lat="46.1178050" lon="10.5121420">
	<ele>2655.80</ele>
	<time>2023-08-07T07:50:44.000Z</time>
</trkpt>
<trkpt lat="46.1178030" lon="10.5121390">
	<ele>2655.60</ele>
	<time>2023-08-07T07:50:45.000Z</time>
</trkpt>
<trkpt lat="46.1178010" lon="10.5121360">
	<ele>2655.60</ele>
	<time>2023-08-07T07:50:46.000Z</time>
</trkpt>
<trkpt lat="46.1177950" lon="10.5121330">
	<ele>2655.40</ele>
	<time>2023-08-07T07:50:47.000Z</time>
</trkpt>
<trkpt lat="46.1177960" lon="10.5121280">
	<ele>2655.40</ele>
	<time>2023-08-07T07:50:48.000Z</time>
</trkpt>
<trkpt lat="46.1177960" lon="10.5121240">
	<ele>2655.20</ele>
	<time>2023-08-07T07:50:49.000Z</time>
</trkpt>
<trkpt lat="46.1177970" lon="10.5121200">
	<ele>2655.20</ele>
	<time>2023-08-07T07:50:50.000Z</time>
</trkpt>
<trkpt lat="46.1177980" lon="10.5121160">
	<ele>2655.00</ele>
	<time>2023-08-07T07:50:51.000Z</time>
</trkpt>
<trkpt lat="46.1178020" lon="10.5121100">
	<ele>2655.00</ele>
	<time>2023-08-07T07:50:52.000Z</time>
</trkpt>
<trkpt lat="46.1178090" lon="10.5121060">
	<ele>2654.60</ele>
	<time>2023-08-07T07:50:53.000Z</time>
</trkpt>
<trkpt lat="46.1178160" lon="10.5121020">
	<ele>2654.40</ele>
	<time>2023-08-07T07:50:54.000Z</time>
</trkpt>
<trkpt lat="46.1178200" lon="10.5121030">
	<ele>2654.20</ele>
	<time>2023-08-07T07:50:55.000Z</time>
</trkpt>
<trkpt lat="46.1178250" lon="10.5121060">
	<ele>2653.80</ele>
	<time>2023-08-07T07:50:56.000Z</time>
</trkpt>
<trkpt lat="46.1178250" lon="10.5121100">
	<ele>2653.80</ele>
	<time>2023-08-07T07:50:57.000Z</time>
</trkpt>
<trkpt lat="46.1178330" lon="10.5121110">
	<ele>2653.60</ele>
	<time>2023-08-07T07:50:58.000Z</time>
</trkpt>
<trkpt lat="46.1178360" lon="10.5121130">
	<ele>2653.40</ele>
	<time>2023-08-07T07:50:59.000Z</time>
</trkpt>
<trkpt lat="46.1178360" lon="10.5121060">
	<ele>2653.20</ele>
	<time>2023-08-07T07:51:00.000Z</time>
</trkpt>
<trkpt lat="46.1178350" lon="10.5121040">
	<ele>2653.20</ele>
	<time>2023-08-07T07:51:01.000Z</time>
</trkpt>
<trkpt lat="46.1178360" lon="10.5121000">
	<ele>2653.00</ele>
	<time>2023-08-07T07:51:02.000Z</time>
</trkpt>
<trkpt lat="46.1178300" lon="10.5120950">
	<ele>2653.00</ele>
	<time>2023-08-07T07:51:03.000Z</time>
</trkpt>
<trkpt lat="46.1178260" lon="10.5120890">
	<ele>2653.00</ele>
	<time>2023-08-07T07:51:04.000Z</time>
</trkpt>
<trkpt lat="46.1178280" lon="10.5120800">
	<ele>2652.80</ele>
	<time>2023-08-07T07:51:05.000Z</time>
</trkpt>
<trkpt lat="46.1178280" lon="10.5120730">
	<ele>2652.60</ele>
	<time>2023-08-07T07:51:06.000Z</time>
</trkpt>
<trkpt lat="46.1178300" lon="10.5120680">
	<ele>2652.20</ele>
	<time>2023-08-07T07:51:07.000Z</time>
</trkpt>
<trkpt lat="46.1178300" lon="10.5120650">
	<ele>2652.00</ele>
	<time>2023-08-07T07:51:08.000Z</time>
</trkpt>
<trkpt lat="46.1178320" lon="10.5120640">
	<ele>2651.80</ele>
	<time>2023-08-07T07:51:09.000Z</time>
</trkpt>
<trkpt lat="46.1178360" lon="10.5120640">
	<ele>2651.60</ele>
	<time>2023-08-07T07:51:10.000Z</time>
</trkpt>
<trkpt lat="46.1178380" lon="10.5120650">
	<ele>2651.60</ele>
	<time>2023-08-07T07:51:11.000Z</time>
</trkpt>
<trkpt lat="46.1178380" lon="10.5120680">
	<ele>2651.40</ele>
	<time>2023-08-07T07:51:12.000Z</time>
</trkpt>
<trkpt lat="46.1178380" lon="10.5120690">
	<ele>2651.20</ele>
	<time>2023-08-07T07:51:13.000Z</time>
</trkpt>
<trkpt lat="46.1178390" lon="10.5120680">
	<ele>2650.80</ele>
	<time>2023-08-07T07:51:14.000Z</time>
</trkpt>
<trkpt lat="46.1178420" lon="10.5120650">
	<ele>2650.40</ele>
	<time>2023-08-07T07:51:15.000Z</time>
</trkpt>
<trkpt lat="46.1178420" lon="10.5120660">
	<ele>2650.40</ele>
	<time>2023-08-07T07:51:16.000Z</time>
</trkpt>
<trkpt lat="46.1178430" lon="10.5120620">
	<ele>2650.20</ele>
	<time>2023-08-07T07:51:17.000Z</time>
</trkpt>
<trkpt lat="46.1178450" lon="10.5120600">
	<ele>2650.20</ele>
	<time>2023-08-07T07:51:18.000Z</time>
</trkpt>
<trkpt lat="46.1178500" lon="10.5120550">
	<ele>2650.00</ele>
	<time>2023-08-07T07:51:19.000Z</time>
</trkpt>
<trkpt lat="46.1178510" lon="10.5120560">
	<ele>2650.00</ele>
	<time>2023-08-07T07:51:20.000Z</time>
</trkpt>
<trkpt lat="46.1178590" lon="10.5120590">
	<ele>2649.80</ele>
	<time>2023-08-07T07:51:21.000Z</time>
</trkpt>
<trkpt lat="46.1178620" lon="10.5120610">
	<ele>2649.60</ele>
	<time>2023-08-07T07:51:22.000Z</time>
</trkpt>
<trkpt lat="46.1178710" lon="10.5120590">
	<ele>2649.40</ele>
	<time>2023-08-07T07:51:23.000Z</time>
</trkpt>
<trkpt lat="46.1178770" lon="10.5120600">
	<ele>2649.20</ele>
	<time>2023-08-07T07:51:24.000Z</time>
</trkpt>
<trkpt lat="46.1178820" lon="10.5120620">
	<ele>2649.00</ele>
	<time>2023-08-07T07:51:25.000Z</time>
</trkpt>
<trkpt lat="46.1178870" lon="10.5120640">
	<ele>2648.60</ele>
	<time>2023-08-07T07:51:26.000Z</time>
</trkpt>
<trkpt lat="46.1178930" lon="10.5120660">
	<ele>2648.40</ele>
	<time>2023-08-07T07:51:27.000Z</time>
</trkpt>
<trkpt lat="46.1178910" lon="10.5120710">
	<ele>2648.40</ele>
	<time>2023-08-07T07:51:28.000Z</time>
</trkpt>
<trkpt lat="46.1178900" lon="10.5120760">
	<ele>2648.20</ele>
	<time>2023-08-07T07:51:29.000Z</time>
</trkpt>
<trkpt lat="46.1178860" lon="10.5120820">
	<ele>2648.00</ele>
	<time>2023-08-07T07:51:30.000Z</time>
</trkpt>
<trkpt lat="46.1178850" lon="10.5120870">
	<ele>2647.80</ele>
	<time>2023-08-07T07:51:31.000Z</time>
</trkpt>
<trkpt lat="46.1178850" lon="10.5120940">
	<ele>2647.80</ele>
	<time>2023-08-07T07:51:32.000Z</time>
</trkpt>
<trkpt lat="46.1178850" lon="10.5120970">
	<ele>2647.60</ele>
	<time>2023-08-07T07:51:33.000Z</time>
</trkpt>
<trkpt lat="46.1178880" lon="10.5121000">
	<ele>2647.40</ele>
	<time>2023-08-07T07:51:34.000Z</time>
</trkpt>
<trkpt lat="46.1178920" lon="10.5121030">
	<ele>2647.40</ele>
	<time>2023-08-07T07:51:35.000Z</time>
</trkpt>
<trkpt lat="46.1178890" lon="10.5121090">
	<ele>2647.40</ele>
	<time>2023-08-07T07:51:36.000Z</time>
</trkpt>
<trkpt lat="46.1178890" lon="10.5121150">
	<ele>2647.20</ele>
	<time>2023-08-07T07:51:37.000Z</time>
</trkpt>
<trkpt lat="46.1178880" lon="10.5121180">
	<ele>2647.20</ele>
	<time>2023-08-07T07:51:38.000Z</time>
</trkpt>
<trkpt lat="46.1178890" lon="10.5121190">
	<ele>2647.20</ele>
	<time>2023-08-07T07:51:39.000Z</time>
</trkpt>
<trkpt lat="46.1178900" lon="10.5121210">
	<ele>2647.20</ele>
	<time>2023-08-07T07:51:40.000Z</time>
</trkpt>
<trkpt lat="46.1178900" lon="10.5121230">
	<ele>2647.20</ele>
	<time>2023-08-07T07:51:41.000Z</time>
</trkpt>
<trkpt lat="46.1178920" lon="10.5121240">
	<ele>2647.20</ele>
	<time>2023-08-07T07:51:42.000Z</time>
</trkpt>
<trkpt lat="46.1178910" lon="10.5121260">
	<ele>2647.00</ele>
	<time>2023-08-07T07:51:43.000Z</time>
</trkpt>
<trkpt lat="46.1178930" lon="10.5121260">
	<ele>2647.00</ele>
	<time>2023-08-07T07:51:44.000Z</time>
</trkpt>
<trkpt lat="46.1178900" lon="10.5121260">
	<ele>2646.80</ele>
	<time>2023-08-07T07:51:45.000Z</time>
</trkpt>
<trkpt lat="46.1178880" lon="10.5121240">
	<ele>2646.60</ele>
	<time>2023-08-07T07:51:46.000Z</time>
</trkpt>
<trkpt lat="46.1178890" lon="10.5121170">
	<ele>2646.40</ele>
	<time>2023-08-07T07:51:47.000Z</time>
</trkpt>
<trkpt lat="46.1178930" lon="10.5121100">
	<ele>2646.20</ele>
	<time>2023-08-07T07:51:48.000Z</time>
</trkpt>
<trkpt lat="46.1178900" lon="10.5121030">
	<ele>2646.00</ele>
	<time>2023-08-07T07:51:49.000Z</time>
</trkpt>
<trkpt lat="46.1178950" lon="10.5120960">
	<ele>2646.00</ele>
	<time>2023-08-07T07:51:50.000Z</time>
</trkpt>
<trkpt lat="46.1178910" lon="10.5120930">
	<ele>2645.80</ele>
	<time>2023-08-07T07:51:51.000Z</time>
</trkpt>
<trkpt lat="46.1178890" lon="10.5120920">
	<ele>2645.80</ele>
	<time>2023-08-07T07:51:52.000Z</time>
</trkpt>
<trkpt lat="46.1178960" lon="10.5120900">
	<ele>2645.60</ele>
	<time>2023-08-07T07:51:53.000Z</time>
</trkpt>
<trkpt lat="46.1179070" lon="10.5120920">
	<ele>2645.40</ele>
	<time>2023-08-07T07:51:54.000Z</time>
</trkpt>
<trkpt lat="46.1179100" lon="10.5120950">
	<ele>2645.20</ele>
	<time>2023-08-07T07:51:55.000Z</time>
</trkpt>
<trkpt lat="46.1179160" lon="10.5120990">
	<ele>2644.80</ele>
	<time>2023-08-07T07:51:56.000Z</time>
</trkpt>
<trkpt lat="46.1179170" lon="10.5121070">
	<ele>2644.60</ele>
	<time>2023-08-07T07:51:57.000Z</time>
</trkpt>
<trkpt lat="46.1179190" lon="10.5121110">
	<ele>2644.40</ele>
	<time>2023-08-07T07:51:58.000Z</time>
</trkpt>
<trkpt lat="46.1179300" lon="10.5121100">
	<ele>2644.00</ele>
	<time>2023-08-07T07:51:59.000Z</time>
</trkpt>
<trkpt lat="46.1179390" lon="10.5121080">
	<ele>2644.00</ele>
	<time>2023-08-07T07:52:00.000Z</time>
</trkpt>
<trkpt lat="46.1179460" lon="10.5121060">
	<ele>2643.80</ele>
	<time>2023-08-07T07:52:01.000Z</time>
</trkpt>
<trkpt lat="46.1179560" lon="10.5121050">
	<ele>2643.80</ele>
	<time>2023-08-07T07:52:02.000Z</time>
</trkpt>
<trkpt lat="46.1179600" lon="10.5121060">
	<ele>2643.60</ele>
	<time>2023-08-07T07:52:03.000Z</time>
</trkpt>
<trkpt lat="46.1179550" lon="10.5121100">
	<ele>2643.40</ele>
	<time>2023-08-07T07:52:04.000Z</time>
</trkpt>
<trkpt lat="46.1179530" lon="10.5121100">
	<ele>2643.40</ele>
	<time>2023-08-07T07:52:05.000Z</time>
</trkpt>
<trkpt lat="46.1179520" lon="10.5121080">
	<ele>2643.20</ele>
	<time>2023-08-07T07:52:06.000Z</time>
</trkpt>
<trkpt lat="46.1179520" lon="10.5121020">
	<ele>2643.00</ele>
	<time>2023-08-07T07:52:07.000Z</time>
</trkpt>
<trkpt lat="46.1179520" lon="10.5120950">
	<ele>2643.00</ele>
	<time>2023-08-07T07:52:08.000Z</time>
</trkpt>
<trkpt lat="46.1179520" lon="10.5120900">
	<ele>2642.80</ele>
	<time>2023-08-07T07:52:09.000Z</time>
</trkpt>
<trkpt lat="46.1179500" lon="10.5120930">
	<ele>2642.80</ele>
	<time>2023-08-07T07:52:10.000Z</time>
</trkpt>
<trkpt lat="46.1179550" lon="10.5120920">
	<ele>2642.60</ele>
	<time>2023-08-07T07:52:11.000Z</time>
</trkpt>
<trkpt lat="46.1179610" lon="10.5120840">
	<ele>2642.40</ele>
	<time>2023-08-07T07:52:12.000Z</time>
</trkpt>
<trkpt lat="46.1179710" lon="10.5120750">
	<ele>2642.40</ele>
	<time>2023-08-07T07:52:13.000Z</time>
</trkpt>
<trkpt lat="46.1179750" lon="10.5120700">
	<ele>2642.20</ele>
	<time>2023-08-07T07:52:14.000Z</time>
</trkpt>
<trkpt lat="46.1179760" lon="10.5120670">
	<ele>2642.00</ele>
	<time>2023-08-07T07:52:15.000Z</time>
</trkpt>
<trkpt lat="46.1179740" lon="10.5120620">
	<ele>2641.80</ele>
	<time>2023-08-07T07:52:16.000Z</time>
</trkpt>
<trkpt lat="46.1179750" lon="10.5120620">
	<ele>2641.40</ele>
	<time>2023-08-07T07:52:17.000Z</time>
</trkpt>
<trkpt lat="46.1179770" lon="10.5120650">
	<ele>2641.20</ele>
	<time>2023-08-07T07:52:18.000Z</time>
</trkpt>
<trkpt lat="46.1179790" lon="10.5120690">
	<ele>2641.00</ele>
	<time>2023-08-07T07:52:19.000Z</time>
</trkpt>
<trkpt lat="46.1179860" lon="10.5120660">
	<ele>2640.80</ele>
	<time>2023-08-07T07:52:20.000Z</time>
</trkpt>
<trkpt lat="46.1179870" lon="10.5120670">
	<ele>2640.60</ele>
	<time>2023-08-07T07:52:21.000Z</time>
</trkpt>
<trkpt lat="46.1179940" lon="10.5120710">
	<ele>2640.60</ele>
	<time>2023-08-07T07:52:22.000Z</time>
</trkpt>
<trkpt lat="46.1179960" lon="10.5120730">
	<ele>2640.40</ele>
	<time>2023-08-07T07:52:23.000Z</time>
</trkpt>
<trkpt lat="46.1179990" lon="10.5120750">
	<ele>2640.40</ele>
	<time>2023-08-07T07:52:24.000Z</time>
</trkpt>
<trkpt lat="46.1180010" lon="10.5120770">
	<ele>2640.20</ele>
	<time>2023-08-07T07:52:25.000Z</time>
</trkpt>
<trkpt lat="46.1180000" lon="10.5120780">
	<ele>2640.20</ele>
	<time>2023-08-07T07:52:26.000Z</time>
</trkpt>
<trkpt lat="46.1179990" lon="10.5120770">
	<ele>2640.00</ele>
	<time>2023-08-07T07:52:27.000Z</time>
</trkpt>
<trkpt lat="46.1180000" lon="10.5120730">
	<ele>2639.80</ele>
	<time>2023-08-07T07:52:28.000Z</time>
</trkpt>
<trkpt lat="46.1180020" lon="10.5120680">
	<ele>2639.80</ele>
	<time>2023-08-07T07:52:29.000Z</time>
</trkpt>
<trkpt lat="46.1180060" lon="10.5120620">
	<ele>2639.40</ele>
	<time>2023-08-07T07:52:30.000Z</time>
</trkpt>
<trkpt lat="46.1180120" lon="10.5120620">
	<ele>2639.40</ele>
	<time>2023-08-07T07:52:31.000Z</time>
</trkpt>
<trkpt lat="46.1180170" lon="10.5120630">
	<ele>2639.00</ele>
	<time>2023-08-07T07:52:32.000Z</time>
</trkpt>
<trkpt lat="46.1180190" lon="10.5120670">
	<ele>2638.80</ele>
	<time>2023-08-07T07:52:33.000Z</time>
</trkpt>
<trkpt lat="46.1180200" lon="10.5120710">
	<ele>2638.80</ele>
	<time>2023-08-07T07:52:34.000Z</time>
</trkpt>
<trkpt lat="46.1180200" lon="10.5120750">
	<ele>2638.60</ele>
	<time>2023-08-07T07:52:35.000Z</time>
</trkpt>
<trkpt lat="46.1180180" lon="10.5120770">
	<ele>2638.60</ele>
	<time>2023-08-07T07:52:36.000Z</time>
</trkpt>
<trkpt lat="46.1180160" lon="10.5120770">
	<ele>2638.60</ele>
	<time>2023-08-07T07:52:37.000Z</time>
</trkpt>
<trkpt lat="46.1180140" lon="10.5120760">
	<ele>2638.40</ele>
	<time>2023-08-07T07:52:38.000Z</time>
</trkpt>
<trkpt lat="46.1180070" lon="10.5120780">
	<ele>2638.40</ele>
	<time>2023-08-07T07:52:39.000Z</time>
</trkpt>
<trkpt lat="46.1180040" lon="10.5120820">
	<ele>2638.40</ele>
	<time>2023-08-07T07:52:40.000Z</time>
</trkpt>
<trkpt lat="46.1180030" lon="10.5120830">
	<ele>2638.40</ele>
	<time>2023-08-07T07:52:41.000Z</time>
</trkpt>
<trkpt lat="46.1180110" lon="10.5120810">
	<ele>2638.40</ele>
	<time>2023-08-07T07:52:42.000Z</time>
</trkpt>
<trkpt lat="46.1180110" lon="10.5120800">
	<ele>2638.40</ele>
	<time>2023-08-07T07:52:43.000Z</time>
</trkpt>
<trkpt lat="46.1180200" lon="10.5120760">
	<ele>2638.40</ele>
	<time>2023-08-07T07:52:44.000Z</time>
</trkpt>
<trkpt lat="46.1180230" lon="10.5120750">
	<ele>2638.40</ele>
	<time>2023-08-07T07:52:45.000Z</time>
</trkpt>
<trkpt lat="46.1180250" lon="10.5120750">
	<ele>2638.40</ele>
	<time>2023-08-07T07:52:46.000Z</time>
</trkpt>
<trkpt lat="46.1180280" lon="10.5120750">
	<ele>2638.40</ele>
	<time>2023-08-07T07:52:47.000Z</time>
</trkpt>
<trkpt lat="46.1180290" lon="10.5120730">
	<ele>2638.40</ele>
	<time>2023-08-07T07:52:48.000Z</time>
</trkpt>
<trkpt lat="46.1180290" lon="10.5120700">
	<ele>2638.60</ele>
	<time>2023-08-07T07:52:49.000Z</time>
</trkpt>
<trkpt lat="46.1180350" lon="10.5120650">
	<ele>2638.60</ele>
	<time>2023-08-07T07:52:50.000Z</time>
</trkpt>
<trkpt lat="46.1180380" lon="10.5120650">
	<ele>2638.60</ele>
	<time>2023-08-07T07:52:51.000Z</time>
</trkpt>
<trkpt lat="46.1180390" lon="10.5120640">
	<ele>2638.40</ele>
	<time>2023-08-07T07:52:52.000Z</time>
</trkpt>
<trkpt lat="46.1180390" lon="10.5120620">
	<ele>2638.00</ele>
	<time>2023-08-07T07:52:53.000Z</time>
</trkpt>
<trkpt lat="46.1180340" lon="10.5120580">
	<ele>2637.80</ele>
	<time>2023-08-07T07:52:54.000Z</time>
</trkpt>
<trkpt lat="46.1180330" lon="10.5120520">
	<ele>2637.60</ele>
	<time>2023-08-07T07:52:55.000Z</time>
</trkpt>
<trkpt lat="46.1180360" lon="10.5120490">
	<ele>2637.40</ele>
	<time>2023-08-07T07:52:56.000Z</time>
</trkpt>
<trkpt lat="46.1180320" lon="10.5120490">
	<ele>2637.40</ele>
	<time>2023-08-07T07:52:57.000Z</time>
</trkpt>
<trkpt lat="46.1180330" lon="10.5120500">
	<ele>2637.20</ele>
	<time>2023-08-07T07:52:58.000Z</time>
</trkpt>
<trkpt lat="46.1180330" lon="10.5120520">
	<ele>2637.00</ele>
	<time>2023-08-07T07:52:59.000Z</time>
</trkpt>
<trkpt lat="46.1180350" lon="10.5120530">
	<ele>2637.00</ele>
	<time>2023-08-07T07:53:00.000Z</time>
</trkpt>
<trkpt lat="46.1180320" lon="10.5120530">
	<ele>2637.00</ele>
	<time>2023-08-07T07:53:01.000Z</time>
</trkpt>
<trkpt lat="46.1180320" lon="10.5120530">
	<ele>2637.00</ele>
	<time>2023-08-07T07:53:02.000Z</time>
</trkpt>
<trkpt lat="46.1180300" lon="10.5120530">
	<ele>2637.00</ele>
	<time>2023-08-07T07:53:03.000Z</time>
</trkpt>
<trkpt lat="46.1180250" lon="10.5120500">
	<ele>2637.20</ele>
	<time>2023-08-07T07:53:04.000Z</time>
</trkpt>
<trkpt lat="46.1180230" lon="10.5120510">
	<ele>2637.20</ele>
	<time>2023-08-07T07:53:05.000Z</time>
</trkpt>
<trkpt lat="46.1180120" lon="10.5120550">
	<ele>2637.40</ele>
	<time>2023-08-07T07:53:06.000Z</time>
</trkpt>
<trkpt lat="46.1180080" lon="10.5120580">
	<ele>2637.40</ele>
	<time>2023-08-07T07:53:07.000Z</time>
</trkpt>
<trkpt lat="46.1180060" lon="10.5120600">
	<ele>2637.60</ele>
	<time>2023-08-07T07:53:08.000Z</time>
</trkpt>
<trkpt lat="46.1180060" lon="10.5120610">
	<ele>2637.60</ele>
	<time>2023-08-07T07:53:09.000Z</time>
</trkpt>
<trkpt lat="46.1180070" lon="10.5120590">
	<ele>2637.80</ele>
	<time>2023-08-07T07:53:10.000Z</time>
</trkpt>
<trkpt lat="46.1180060" lon="10.5120600">
	<ele>2637.80</ele>
	<time>2023-08-07T07:53:11.000Z</time>
</trkpt>
<trkpt lat="46.1180030" lon="10.5120600">
	<ele>2638.00</ele>
	<time>2023-08-07T07:53:12.000Z</time>
</trkpt>
<trkpt lat="46.1180020" lon="10.5120590">
	<ele>2638.20</ele>
	<time>2023-08-07T07:53:13.000Z</time>
</trkpt>
<trkpt lat="46.1180030" lon="10.5120590">
	<ele>2638.20</ele>
	<time>2023-08-07T07:53:14.000Z</time>
</trkpt>
<trkpt lat="46.1180040" lon="10.5120590">
	<ele>2638.20</ele>
	<time>2023-08-07T07:53:15.000Z</time>
</trkpt>
<trkpt lat="46.1180040" lon="10.5120590">
	<ele>2638.20</ele>
	<time>2023-08-07T07:53:16.000Z</time>
</trkpt>
<trkpt lat="46.1180040" lon="10.5120590">
	<ele>2637.80</ele>
	<time>2023-08-07T07:53:17.000Z</time>
</trkpt>
<trkpt lat="46.1180040" lon="10.5120590">
	<ele>2637.60</ele>
	<time>2023-08-07T07:53:18.000Z</time>
</trkpt>
<trkpt lat="46.1180040" lon="10.5120590">
	<ele>2637.40</ele>
	<time>2023-08-07T07:53:19.000Z</time>
</trkpt>
<trkpt lat="46.1180040" lon="10.5120590">
	<ele>2637.40</ele>
	<time>2023-08-07T07:53:20.000Z</time>
</trkpt>
<trkpt lat="46.1180040" lon="10.5120590">
	<ele>2637.40</ele>
	<time>2023-08-07T07:53:21.000Z</time>
</trkpt>
<trkpt lat="46.1180040" lon="10.5120590">
	<ele>2637.40</ele>
	<time>2023-08-07T07:53:22.000Z</time>
</trkpt>
<trkpt lat="46.1180040" lon="10.5120590">
	<ele>2637.40</ele>
	<time>2023-08-07T07:53:23.000Z</time>
</trkpt>
<trkpt lat="46.1180040" lon="10.5120590">
	<ele>2637.20</ele>
	<time>2023-08-07T07:53:24.000Z</time>
</trkpt>
<trkpt lat="46.1180040" lon="10.5120590">
	<ele>2637.20</ele>
	<time>2023-08-07T07:53:25.000Z</time>
</trkpt>
<trkpt lat="46.1180040" lon="10.5120590">
	<ele>2637.20</ele>
	<time>2023-08-07T07:53:26.000Z</time>
</trkpt>
<trkpt lat="46.1180040" lon="10.5120590">
	<ele>2637.20</ele>
	<time>2023-08-07T07:53:27.000Z</time>
</trkpt>
<trkpt lat="46.1180040" lon="10.5120590">
	<ele>2637.20</ele>
	<time>2023-08-07T07:53:28.000Z</time>
</trkpt>
<trkpt lat="46.1180040" lon="10.5120590">
	<ele>2637.20</ele>
	<time>2023-08-07T07:53:29.000Z</time>
</trkpt>
<trkpt lat="46.1180040" lon="10.5120590">
	<ele>2637.20</ele>
	<time>2023-08-07T07:53:30.000Z</time>
</trkpt>
<trkpt lat="46.1180040" lon="10.5120590">
	<ele>2637.20</ele>
	<time>2023-08-07T07:53:31.000Z</time>
</trkpt>
<trkpt lat="46.1180040" lon="10.5120590">
	<ele>2637.20</ele>
	<time>2023-08-07T07:53:32.000Z</time>
</trkpt>
<trkpt lat="46.1180040" lon="10.5120590">
	<ele>2637.20</ele>
	<time>2023-08-07T07:53:33.000Z</time>
</trkpt>
<trkpt lat="46.1180040" lon="10.5120590">
	<ele>2637.40</ele>
	<time>2023-08-07T07:53:34.000Z</time>
</trkpt>
<trkpt lat="46.1180040" lon="10.5120590">
	<ele>2637.40</ele>
	<time>2023-08-07T07:53:35.000Z</time>
</trkpt>
<trkpt lat="46.1180040" lon="10.5120590">
	<ele>2637.40</ele>
	<time>2023-08-07T07:53:36.000Z</time>
</trkpt>
<trkpt lat="46.1180040" lon="10.5120600">
	<ele>2637.40</ele>
	<time>2023-08-07T07:53:37.000Z</time>
</trkpt>
<trkpt lat="46.1180040" lon="10.5120600">
	<ele>2637.40</ele>
	<time>2023-08-07T07:53:38.000Z</time>
</trkpt>
<trkpt lat="46.1180040" lon="10.5120600">
	<ele>2637.40</ele>
	<time>2023-08-07T07:53:39.000Z</time>
</trkpt>
<trkpt lat="46.1180040" lon="10.5120600">
	<ele>2637.40</ele>
	<time>2023-08-07T07:53:40.000Z</time>
</trkpt>
<trkpt lat="46.1180040" lon="10.5120600">
	<ele>2637.40</ele>
	<time>2023-08-07T07:53:41.000Z</time>
</trkpt>
<trkpt lat="46.1180040" lon="10.5120600">
	<ele>2637.20</ele>
	<time>2023-08-07T07:53:42.000Z</time>
</trkpt>
<trkpt lat="46.1180040" lon="10.5120610">
	<ele>2637.20</ele>
	<time>2023-08-07T07:53:43.000Z</time>
</trkpt>
<trkpt lat="46.1180040" lon="10.5120620">
	<ele>2637.00</ele>
	<time>2023-08-07T07:53:44.000Z</time>
</trkpt>
<trkpt lat="46.1180050" lon="10.5120650">
	<ele>2637.00</ele>
	<time>2023-08-07T07:53:45.000Z</time>
</trkpt>
<trkpt lat="46.1180100" lon="10.5120660">
	<ele>2636.80</ele>
	<time>2023-08-07T07:53:46.000Z</time>
</trkpt>
<trkpt lat="46.1180150" lon="10.5120710">
	<ele>2636.80</ele>
	<time>2023-08-07T07:53:47.000Z</time>
</trkpt>
<trkpt lat="46.1180180" lon="10.5120740">
	<ele>2636.80</ele>
	<time>2023-08-07T07:53:48.000Z</time>
</trkpt>
<trkpt lat="46.1180240" lon="10.5120730">
	<ele>2636.80</ele>
	<time>2023-08-07T07:53:49.000Z</time>
</trkpt>
<trkpt lat="46.1180300" lon="10.5120690">
	<ele>2636.80</ele>
	<time>2023-08-07T07:53:50.000Z</time>
</trkpt>
<trkpt lat="46.1180340" lon="10.5120620">
	<ele>2636.80</ele>
	<time>2023-08-07T07:53:51.000Z</time>
</trkpt>
<trkpt lat="46.1180380" lon="10.5120670">
	<ele>2636.40</ele>
	<time>2023-08-07T07:53:52.000Z</time>
</trkpt>
<trkpt lat="46.1180450" lon="10.5120710">
	<ele>2636.00</ele>
	<time>2023-08-07T07:53:53.000Z</time>
</trkpt>
<trkpt lat="46.1180510" lon="10.5120780">
	<ele>2635.20</ele>
	<time>2023-08-07T07:53:54.000Z</time>
</trkpt>
<trkpt lat="46.1180550" lon="10.5120830">
	<ele>2634.60</ele>
	<time>2023-08-07T07:53:55.000Z</time>
</trkpt>
<trkpt lat="46.1180560" lon="10.5120850">
	<ele>2634.40</ele>
	<time>2023-08-07T07:53:56.000Z</time>
</trkpt>
<trkpt lat="46.1180590" lon="10.5120850">
	<ele>2634.20</ele>
	<time>2023-08-07T07:53:57.000Z</time>
</trkpt>
<trkpt lat="46.1180570" lon="10.5120890">
	<ele>2633.80</ele>
	<time>2023-08-07T07:53:58.000Z</time>
</trkpt>
<trkpt lat="46.1180530" lon="10.5120920">
	<ele>2633.60</ele>
	<time>2023-08-07T07:53:59.000Z</time>
</trkpt>
<trkpt lat="46.1180570" lon="10.5120940">
	<ele>2633.40</ele>
	<time>2023-08-07T07:54:00.000Z</time>
</trkpt>
<trkpt lat="46.1180610" lon="10.5120960">
	<ele>2633.20</ele>
	<time>2023-08-07T07:54:01.000Z</time>
</trkpt>
<trkpt lat="46.1180660" lon="10.5120980">
	<ele>2633.00</ele>
	<time>2023-08-07T07:54:02.000Z</time>
</trkpt>
<trkpt lat="46.1180700" lon="10.5121010">
	<ele>2633.00</ele>
	<time>2023-08-07T07:54:03.000Z</time>
</trkpt>
<trkpt lat="46.1180740" lon="10.5121060">
	<ele>2632.40</ele>
	<time>2023-08-07T07:54:04.000Z</time>
</trkpt>
<trkpt lat="46.1180770" lon="10.5121100">
	<ele>2632.20</ele>
	<time>2023-08-07T07:54:05.000Z</time>
</trkpt>
<trkpt lat="46.1180790" lon="10.5121150">
	<ele>2632.00</ele>
	<time>2023-08-07T07:54:06.000Z</time>
</trkpt>
<trkpt lat="46.1180810" lon="10.5121200">
	<ele>2631.60</ele>
	<time>2023-08-07T07:54:07.000Z</time>
</trkpt>
<trkpt lat="46.1180840" lon="10.5121210">
	<ele>2631.40</ele>
	<time>2023-08-07T07:54:08.000Z</time>
</trkpt>
<trkpt lat="46.1180860" lon="10.5121230">
	<ele>2631.60</ele>
	<time>2023-08-07T07:54:09.000Z</time>
</trkpt>
<trkpt lat="46.1180910" lon="10.5121220">
	<ele>2631.60</ele>
	<time>2023-08-07T07:54:10.000Z</time>
</trkpt>
<trkpt lat="46.1180890" lon="10.5121170">
	<ele>2631.60</ele>
	<time>2023-08-07T07:54:11.000Z</time>
</trkpt>
<trkpt lat="46.1180860" lon="10.5121160">
	<ele>2631.60</ele>
	<time>2023-08-07T07:54:12.000Z</time>
</trkpt>
<trkpt lat="46.1180900" lon="10.5121090">
	<ele>2631.60</ele>
	<time>2023-08-07T07:54:13.000Z</time>
</trkpt>
<trkpt lat="46.1180950" lon="10.5121010">
	<ele>2631.60</ele>
	<time>2023-08-07T07:54:14.000Z</time>
</trkpt>
<trkpt lat="46.1181040" lon="10.5120950">
	<ele>2631.40</ele>
	<time>2023-08-07T07:54:15.000Z</time>
</trkpt>
<trkpt lat="46.1181110" lon="10.5120910">
	<ele>2631.20</ele>
	<time>2023-08-07T07:54:16.000Z</time>
</trkpt>
<trkpt lat="46.1181130" lon="10.5120900">
	<ele>2631.20</ele>
	<time>2023-08-07T07:54:17.000Z</time>
</trkpt>
<trkpt lat="46.1181120" lon="10.5120880">
	<ele>2631.00</ele>
	<time>2023-08-07T07:54:18.000Z</time>
</trkpt>
<trkpt lat="46.1181090" lon="10.5120830">
	<ele>2631.00</ele>
	<time>2023-08-07T07:54:19.000Z</time>
</trkpt>
<trkpt lat="46.1181130" lon="10.5120770">
	<ele>2630.80</ele>
	<time>2023-08-07T07:54:20.000Z</time>
</trkpt>
<trkpt lat="46.1181180" lon="10.5120740">
	<ele>2630.60</ele>
	<time>2023-08-07T07:54:21.000Z</time>
</trkpt>
<trkpt lat="46.1181250" lon="10.5120820">
	<ele>2630.60</ele>
	<time>2023-08-07T07:54:22.000Z</time>
</trkpt>
<trkpt lat="46.1181360" lon="10.5120830">
	<ele>2630.00</ele>
	<time>2023-08-07T07:54:23.000Z</time>
</trkpt>
<trkpt lat="46.1181390" lon="10.5120840">
	<ele>2629.60</ele>
	<time>2023-08-07T07:54:24.000Z</time>
</trkpt>
<trkpt lat="46.1181420" lon="10.5120850">
	<ele>2629.60</ele>
	<time>2023-08-07T07:54:25.000Z</time>
</trkpt>
<trkpt lat="46.1181430" lon="10.5120830">
	<ele>2629.20</ele>
	<time>2023-08-07T07:54:26.000Z</time>
</trkpt>
<trkpt lat="46.1181460" lon="10.5120750">
	<ele>2629.00</ele>
	<time>2023-08-07T07:54:27.000Z</time>
</trkpt>
<trkpt lat="46.1181490" lon="10.5120730">
	<ele>2628.80</ele>
	<time>2023-08-07T07:54:28.000Z</time>
</trkpt>
<trkpt lat="46.1181520" lon="10.5120720">
	<ele>2628.80</ele>
	<time>2023-08-07T07:54:29.000Z</time>
</trkpt>
<trkpt lat="46.1181530" lon="10.5120750">
	<ele>2628.60</ele>
	<time>2023-08-07T07:54:30.000Z</time>
</trkpt>
<trkpt lat="46.1181560" lon="10.5120770">
	<ele>2628.40</ele>
	<time>2023-08-07T07:54:31.000Z</time>
</trkpt>
<trkpt lat="46.1181620" lon="10.5120790">
	<ele>2628.20</ele>
	<time>2023-08-07T07:54:32.000Z</time>
</trkpt>
<trkpt lat="46.1181620" lon="10.5120820">
	<ele>2628.00</ele>
	<time>2023-08-07T07:54:33.000Z</time>
</trkpt>
<trkpt lat="46.1181640" lon="10.5120840">
	<ele>2627.80</ele>
	<time>2023-08-07T07:54:34.000Z</time>
</trkpt>
<trkpt lat="46.1181690" lon="10.5120850">
	<ele>2627.80</ele>
	<time>2023-08-07T07:54:35.000Z</time>
</trkpt>
<trkpt lat="46.1181690" lon="10.5120860">
	<ele>2627.60</ele>
	<time>2023-08-07T07:54:36.000Z</time>
</trkpt>
<trkpt lat="46.1181690" lon="10.5120870">
	<ele>2627.40</ele>
	<time>2023-08-07T07:54:37.000Z</time>
</trkpt>
<trkpt lat="46.1181690" lon="10.5120890">
	<ele>2627.40</ele>
	<time>2023-08-07T07:54:38.000Z</time>
</trkpt>
<trkpt lat="46.1181690" lon="10.5120940">
	<ele>2627.40</ele>
	<time>2023-08-07T07:54:39.000Z</time>
</trkpt>
<trkpt lat="46.1181710" lon="10.5120970">
	<ele>2627.20</ele>
	<time>2023-08-07T07:54:40.000Z</time>
</trkpt>
<trkpt lat="46.1181730" lon="10.5121020">
	<ele>2627.20</ele>
	<time>2023-08-07T07:54:41.000Z</time>
</trkpt>
<trkpt lat="46.1181730" lon="10.5121040">
	<ele>2627.00</ele>
	<time>2023-08-07T07:54:42.000Z</time>
</trkpt>
<trkpt lat="46.1181740" lon="10.5121070">
	<ele>2626.80</ele>
	<time>2023-08-07T07:54:43.000Z</time>
</trkpt>
<trkpt lat="46.1181760" lon="10.5121060">
	<ele>2626.80</ele>
	<time>2023-08-07T07:54:44.000Z</time>
</trkpt>
<trkpt lat="46.1181810" lon="10.5121040">
	<ele>2626.60</ele>
	<time>2023-08-07T07:54:45.000Z</time>
</trkpt>
<trkpt lat="46.1181810" lon="10.5121020">
	<ele>2626.60</ele>
	<time>2023-08-07T07:54:46.000Z</time>
</trkpt>
<trkpt lat="46.1181810" lon="10.5121020">
	<ele>2626.40</ele>
	<time>2023-08-07T07:54:47.000Z</time>
</trkpt>
<trkpt lat="46.1181830" lon="10.5121020">
	<ele>2626.40</ele>
	<time>2023-08-07T07:54:48.000Z</time>
</trkpt>
<trkpt lat="46.1181920" lon="10.5121070">
	<ele>2626.40</ele>
	<time>2023-08-07T07:54:49.000Z</time>
</trkpt>
<trkpt lat="46.1181980" lon="10.5121110">
	<ele>2626.20</ele>
	<time>2023-08-07T07:54:50.000Z</time>
</trkpt>
<trkpt lat="46.1182030" lon="10.5121150">
	<ele>2625.60</ele>
	<time>2023-08-07T07:54:51.000Z</time>
</trkpt>
<trkpt lat="46.1182070" lon="10.5121190">
	<ele>2625.40</ele>
	<time>2023-08-07T07:54:52.000Z</time>
</trkpt>
<trkpt lat="46.1182080" lon="10.5121220">
	<ele>2625.20</ele>
	<time>2023-08-07T07:54:53.000Z</time>
</trkpt>
<trkpt lat="46.1182110" lon="10.5121330">
	<ele>2625.20</ele>
	<time>2023-08-07T07:54:54.000Z</time>
</trkpt>
<trkpt lat="46.1182130" lon="10.5121370">
	<ele>2625.20</ele>
	<time>2023-08-07T07:54:55.000Z</time>
</trkpt>
<trkpt lat="46.1182170" lon="10.5121380">
	<ele>2625.00</ele>
	<time>2023-08-07T07:54:56.000Z</time>
</trkpt>
<trkpt lat="46.1182200" lon="10.5121370">
	<ele>2625.00</ele>
	<time>2023-08-07T07:54:57.000Z</time>
</trkpt>
<trkpt lat="46.1182230" lon="10.5121320">
	<ele>2624.80</ele>
	<time>2023-08-07T07:54:58.000Z</time>
</trkpt>
<trkpt lat="46.1182270" lon="10.5121310">
	<ele>2624.80</ele>
	<time>2023-08-07T07:54:59.000Z</time>
</trkpt>
<trkpt lat="46.1182310" lon="10.5121300">
	<ele>2624.80</ele>
	<time>2023-08-07T07:55:00.000Z</time>
</trkpt>
<trkpt lat="46.1182350" lon="10.5121310">
	<ele>2624.60</ele>
	<time>2023-08-07T07:55:01.000Z</time>
</trkpt>
<trkpt lat="46.1182360" lon="10.5121310">
	<ele>2624.60</ele>
	<time>2023-08-07T07:55:02.000Z</time>
</trkpt>
<trkpt lat="46.1182340" lon="10.5121230">
	<ele>2624.40</ele>
	<time>2023-08-07T07:55:03.000Z</time>
</trkpt>
<trkpt lat="46.1182350" lon="10.5121150">
	<ele>2624.20</ele>
	<time>2023-08-07T07:55:04.000Z</time>
</trkpt>
<trkpt lat="46.1182390" lon="10.5121110">
	<ele>2624.20</ele>
	<time>2023-08-07T07:55:05.000Z</time>
</trkpt>
<trkpt lat="46.1182460" lon="10.5121090">
	<ele>2624.00</ele>
	<time>2023-08-07T07:55:06.000Z</time>
</trkpt>
<trkpt lat="46.1182540" lon="10.5121110">
	<ele>2623.80</ele>
	<time>2023-08-07T07:55:07.000Z</time>
</trkpt>
<trkpt lat="46.1182570" lon="10.5121150">
	<ele>2623.60</ele>
	<time>2023-08-07T07:55:08.000Z</time>
</trkpt>
<trkpt lat="46.1182550" lon="10.5121210">
	<ele>2623.20</ele>
	<time>2023-08-07T07:55:09.000Z</time>
</trkpt>
<trkpt lat="46.1182510" lon="10.5121240">
	<ele>2623.00</ele>
	<time>2023-08-07T07:55:10.000Z</time>
</trkpt>
<trkpt lat="46.1182500" lon="10.5121300">
	<ele>2622.80</ele>
	<time>2023-08-07T07:55:11.000Z</time>
</trkpt>
<trkpt lat="46.1182550" lon="10.5121370">
	<ele>2622.60</ele>
	<time>2023-08-07T07:55:12.000Z</time>
</trkpt>
<trkpt lat="46.1182590" lon="10.5121400">
	<ele>2622.20</ele>
	<time>2023-08-07T07:55:13.000Z</time>
</trkpt>
<trkpt lat="46.1182580" lon="10.5121430">
	<ele>2622.00</ele>
	<time>2023-08-07T07:55:14.000Z</time>
</trkpt>
<trkpt lat="46.1182660" lon="10.5121450">
	<ele>2621.80</ele>
	<time>2023-08-07T07:55:15.000Z</time>
</trkpt>
<trkpt lat="46.1182710" lon="10.5121460">
	<ele>2621.60</ele>
	<time>2023-08-07T07:55:16.000Z</time>
</trkpt>
<trkpt lat="46.1182750" lon="10.5121460">
	<ele>2621.40</ele>
	<time>2023-08-07T07:55:17.000Z</time>
</trkpt>
<trkpt lat="46.1182780" lon="10.5121500">
	<ele>2621.20</ele>
	<time>2023-08-07T07:55:18.000Z</time>
</trkpt>
<trkpt lat="46.1182810" lon="10.5121540">
	<ele>2621.00</ele>
	<time>2023-08-07T07:55:19.000Z</time>
</trkpt>
<trkpt lat="46.1182840" lon="10.5121570">
	<ele>2621.00</ele>
	<time>2023-08-07T07:55:20.000Z</time>
</trkpt>
<trkpt lat="46.1182860" lon="10.5121610">
	<ele>2620.80</ele>
	<time>2023-08-07T07:55:21.000Z</time>
</trkpt>
<trkpt lat="46.1182860" lon="10.5121630">
	<ele>2620.40</ele>
	<time>2023-08-07T07:55:22.000Z</time>
</trkpt>
<trkpt lat="46.1182900" lon="10.5121680">
	<ele>2620.20</ele>
	<time>2023-08-07T07:55:23.000Z</time>
</trkpt>
<trkpt lat="46.1182910" lon="10.5121690">
	<ele>2620.00</ele>
	<time>2023-08-07T07:55:24.000Z</time>
</trkpt>
<trkpt lat="46.1182940" lon="10.5121690">
	<ele>2620.00</ele>
	<time>2023-08-07T07:55:25.000Z</time>
</trkpt>
<trkpt lat="46.1183030" lon="10.5121650">
	<ele>2619.80</ele>
	<time>2023-08-07T07:55:26.000Z</time>
</trkpt>
<trkpt lat="46.1183140" lon="10.5121650">
	<ele>2619.40</ele>
	<time>2023-08-07T07:55:27.000Z</time>
</trkpt>
<trkpt lat="46.1183250" lon="10.5121670">
	<ele>2619.20</ele>
	<time>2023-08-07T07:55:28.000Z</time>
</trkpt>
<trkpt lat="46.1183300" lon="10.5121720">
	<ele>2619.00</ele>
	<time>2023-08-07T07:55:29.000Z</time>
</trkpt>
<trkpt lat="46.1183370" lon="10.5121740">
	<ele>2618.80</ele>
	<time>2023-08-07T07:55:30.000Z</time>
</trkpt>
<trkpt lat="46.1183370" lon="10.5121740">
	<ele>2618.80</ele>
	<time>2023-08-07T07:55:31.000Z</time>
</trkpt>
<trkpt lat="46.1183400" lon="10.5121730">
	<ele>2618.60</ele>
	<time>2023-08-07T07:55:32.000Z</time>
</trkpt>
<trkpt lat="46.1183470" lon="10.5121660">
	<ele>2618.60</ele>
	<time>2023-08-07T07:55:33.000Z</time>
</trkpt>
<trkpt lat="46.1183550" lon="10.5121650">
	<ele>2618.60</ele>
	<time>2023-08-07T07:55:34.000Z</time>
</trkpt>
<trkpt lat="46.1183580" lon="10.5121670">
	<ele>2618.40</ele>
	<time>2023-08-07T07:55:35.000Z</time>
</trkpt>
<trkpt lat="46.1183570" lon="10.5121660">
	<ele>2618.40</ele>
	<time>2023-08-07T07:55:36.000Z</time>
</trkpt>
<trkpt lat="46.1183580" lon="10.5121660">
	<ele>2618.20</ele>
	<time>2023-08-07T07:55:37.000Z</time>
</trkpt>
<trkpt lat="46.1183570" lon="10.5121640">
	<ele>2618.20</ele>
	<time>2023-08-07T07:55:38.000Z</time>
</trkpt>
<trkpt lat="46.1183580" lon="10.5121610">
	<ele>2618.20</ele>
	<time>2023-08-07T07:55:39.000Z</time>
</trkpt>
<trkpt lat="46.1183510" lon="10.5121480">
	<ele>2618.00</ele>
	<time>2023-08-07T07:55:40.000Z</time>
</trkpt>
<trkpt lat="46.1183510" lon="10.5121400">
	<ele>2618.00</ele>
	<time>2023-08-07T07:55:41.000Z</time>
</trkpt>
<trkpt lat="46.1183540" lon="10.5121290">
	<ele>2617.60</ele>
	<time>2023-08-07T07:55:42.000Z</time>
</trkpt>
<trkpt lat="46.1183560" lon="10.5121240">
	<ele>2617.40</ele>
	<time>2023-08-07T07:55:43.000Z</time>
</trkpt>
<trkpt lat="46.1183610" lon="10.5121210">
	<ele>2617.00</ele>
	<time>2023-08-07T07:55:44.000Z</time>
</trkpt>
<trkpt lat="46.1183650" lon="10.5121230">
	<ele>2616.60</ele>
	<time>2023-08-07T07:55:45.000Z</time>
</trkpt>
<trkpt lat="46.1183730" lon="10.5121250">
	<ele>2616.40</ele>
	<time>2023-08-07T07:55:46.000Z</time>
</trkpt>
<trkpt lat="46.1183810" lon="10.5121280">
	<ele>2616.20</ele>
	<time>2023-08-07T07:55:47.000Z</time>
</trkpt>
<trkpt lat="46.1183880" lon="10.5121300">
	<ele>2616.00</ele>
	<time>2023-08-07T07:55:48.000Z</time>
</trkpt>
<trkpt lat="46.1183920" lon="10.5121350">
	<ele>2615.80</ele>
	<time>2023-08-07T07:55:49.000Z</time>
</trkpt>
<trkpt lat="46.1183970" lon="10.5121400">
	<ele>2615.60</ele>
	<time>2023-08-07T07:55:50.000Z</time>
</trkpt>
<trkpt lat="46.1184040" lon="10.5121410">
	<ele>2615.40</ele>
	<time>2023-08-07T07:55:51.000Z</time>
</trkpt>
<trkpt lat="46.1184140" lon="10.5121430">
	<ele>2615.20</ele>
	<time>2023-08-07T07:55:52.000Z</time>
</trkpt>
<trkpt lat="46.1184230" lon="10.5121450">
	<ele>2615.00</ele>
	<time>2023-08-07T07:55:53.000Z</time>
</trkpt>
<trkpt lat="46.1184240" lon="10.5121500">
	<ele>2614.80</ele>
	<time>2023-08-07T07:55:54.000Z</time>
</trkpt>
<trkpt lat="46.1184280" lon="10.5121540">
	<ele>2614.60</ele>
	<time>2023-08-07T07:55:55.000Z</time>
</trkpt>
<trkpt lat="46.1184240" lon="10.5121570">
	<ele>2614.40</ele>
	<time>2023-08-07T07:55:56.000Z</time>
</trkpt>
<trkpt lat="46.1184230" lon="10.5121580">
	<ele>2614.40</ele>
	<time>2023-08-07T07:55:57.000Z</time>
</trkpt>
<trkpt lat="46.1184230" lon="10.5121560">
	<ele>2614.20</ele>
	<time>2023-08-07T07:55:58.000Z</time>
</trkpt>
<trkpt lat="46.1184250" lon="10.5121530">
	<ele>2614.00</ele>
	<time>2023-08-07T07:55:59.000Z</time>
</trkpt>
<trkpt lat="46.1184270" lon="10.5121520">
	<ele>2613.80</ele>
	<time>2023-08-07T07:56:00.000Z</time>
</trkpt>
<trkpt lat="46.1184270" lon="10.5121630">
	<ele>2613.60</ele>
	<time>2023-08-07T07:56:01.000Z</time>
</trkpt>
<trkpt lat="46.1184290" lon="10.5121640">
	<ele>2613.60</ele>
	<time>2023-08-07T07:56:02.000Z</time>
</trkpt>
<trkpt lat="46.1184310" lon="10.5121640">
	<ele>2613.40</ele>
	<time>2023-08-07T07:56:03.000Z</time>
</trkpt>
<trkpt lat="46.1184290" lon="10.5121620">
	<ele>2613.20</ele>
	<time>2023-08-07T07:56:04.000Z</time>
</trkpt>
<trkpt lat="46.1184320" lon="10.5121600">
	<ele>2613.20</ele>
	<time>2023-08-07T07:56:05.000Z</time>
</trkpt>
<trkpt lat="46.1184340" lon="10.5121620">
	<ele>2612.80</ele>
	<time>2023-08-07T07:56:06.000Z</time>
</trkpt>
<trkpt lat="46.1184360" lon="10.5121650">
	<ele>2612.60</ele>
	<time>2023-08-07T07:56:07.000Z</time>
</trkpt>
<trkpt lat="46.1184380" lon="10.5121700">
	<ele>2612.60</ele>
	<time>2023-08-07T07:56:08.000Z</time>
</trkpt>
<trkpt lat="46.1184430" lon="10.5121770">
	<ele>2612.40</ele>
	<time>2023-08-07T07:56:09.000Z</time>
</trkpt>
<trkpt lat="46.1184470" lon="10.5121780">
	<ele>2612.20</ele>
	<time>2023-08-07T07:56:10.000Z</time>
</trkpt>
<trkpt lat="46.1184510" lon="10.5121760">
	<ele>2612.20</ele>
	<time>2023-08-07T07:56:11.000Z</time>
</trkpt>
<trkpt lat="46.1184540" lon="10.5121750">
	<ele>2612.00</ele>
	<time>2023-08-07T07:56:12.000Z</time>
</trkpt>
<trkpt lat="46.1184620" lon="10.5121730">
	<ele>2612.00</ele>
	<time>2023-08-07T07:56:13.000Z</time>
</trkpt>
<trkpt lat="46.1184660" lon="10.5121710">
	<ele>2611.80</ele>
	<time>2023-08-07T07:56:14.000Z</time>
</trkpt>
<trkpt lat="46.1184700" lon="10.5121690">
	<ele>2611.60</ele>
	<time>2023-08-07T07:56:15.000Z</time>
</trkpt>
<trkpt lat="46.1184680" lon="10.5121710">
	<ele>2611.40</ele>
	<time>2023-08-07T07:56:16.000Z</time>
</trkpt>
<trkpt lat="46.1184740" lon="10.5121720">
	<ele>2611.20</ele>
	<time>2023-08-07T07:56:17.000Z</time>
</trkpt>
<trkpt lat="46.1184760" lon="10.5121700">
	<ele>2611.20</ele>
	<time>2023-08-07T07:56:18.000Z</time>
</trkpt>
<trkpt lat="46.1184750" lon="10.5121700">
	<ele>2611.00</ele>
	<time>2023-08-07T07:56:19.000Z</time>
</trkpt>
<trkpt lat="46.1184730" lon="10.5121720">
	<ele>2610.80</ele>
	<time>2023-08-07T07:56:20.000Z</time>
</trkpt>
<trkpt lat="46.1184740" lon="10.5121730">
	<ele>2610.60</ele>
	<time>2023-08-07T07:56:21.000Z</time>
</trkpt>
<trkpt lat="46.1184780" lon="10.5121690">
	<ele>2610.40</ele>
	<time>2023-08-07T07:56:22.000Z</time>
</trkpt>
<trkpt lat="46.1184820" lon="10.5121600">
	<ele>2610.20</ele>
	<time>2023-08-07T07:56:23.000Z</time>
</trkpt>
<trkpt lat="46.1184880" lon="10.5121520">
	<ele>2610.00</ele>
	<time>2023-08-07T07:56:24.000Z</time>
</trkpt>
<trkpt lat="46.1184900" lon="10.5121490">
	<ele>2610.00</ele>
	<time>2023-08-07T07:56:25.000Z</time>
</trkpt>
<trkpt lat="46.1184900" lon="10.5121500">
	<ele>2609.80</ele>
	<time>2023-08-07T07:56:26.000Z</time>
</trkpt>
<trkpt lat="46.1184890" lon="10.5121580">
	<ele>2609.80</ele>
	<time>2023-08-07T07:56:27.000Z</time>
</trkpt>
<trkpt lat="46.1184900" lon="10.5121630">
	<ele>2609.40</ele>
	<time>2023-08-07T07:56:28.000Z</time>
</trkpt>
<trkpt lat="46.1184900" lon="10.5121670">
	<ele>2609.40</ele>
	<time>2023-08-07T07:56:29.000Z</time>
</trkpt>
<trkpt lat="46.1184920" lon="10.5121730">
	<ele>2609.20</ele>
	<time>2023-08-07T07:56:30.000Z</time>
</trkpt>
<trkpt lat="46.1184960" lon="10.5121730">
	<ele>2609.20</ele>
	<time>2023-08-07T07:56:31.000Z</time>
</trkpt>
<trkpt lat="46.1185000" lon="10.5121720">
	<ele>2609.20</ele>
	<time>2023-08-07T07:56:32.000Z</time>
</trkpt>
<trkpt lat="46.1185020" lon="10.5121710">
	<ele>2609.20</ele>
	<time>2023-08-07T07:56:33.000Z</time>
</trkpt>
<trkpt lat="46.1185020" lon="10.5121710">
	<ele>2609.20</ele>
	<time>2023-08-07T07:56:34.000Z</time>
</trkpt>
<trkpt lat="46.1185020" lon="10.5121710">
	<ele>2609.00</ele>
	<time>2023-08-07T07:56:35.000Z</time>
</trkpt>
<trkpt lat="46.1185020" lon="10.5121710">
	<ele>2609.00</ele>
	<time>2023-08-07T07:56:36.000Z</time>
</trkpt>
<trkpt lat="46.1185020" lon="10.5121710">
	<ele>2609.00</ele>
	<time>2023-08-07T07:56:37.000Z</time>
</trkpt>
<trkpt lat="46.1185020" lon="10.5121710">
	<ele>2608.40</ele>
	<time>2023-08-07T07:56:38.000Z</time>
</trkpt>
<trkpt lat="46.1185040" lon="10.5121690">
	<ele>2608.00</ele>
	<time>2023-08-07T07:56:39.000Z</time>
</trkpt>
<trkpt lat="46.1185100" lon="10.5121680">
	<ele>2607.80</ele>
	<time>2023-08-07T07:56:40.000Z</time>
</trkpt>
<trkpt lat="46.1185130" lon="10.5121630">
	<ele>2607.60</ele>
	<time>2023-08-07T07:56:41.000Z</time>
</trkpt>
<trkpt lat="46.1185180" lon="10.5121580">
	<ele>2607.20</ele>
	<time>2023-08-07T07:56:42.000Z</time>
</trkpt>
<trkpt lat="46.1185210" lon="10.5121520">
	<ele>2607.20</ele>
	<time>2023-08-07T07:56:43.000Z</time>
</trkpt>
<trkpt lat="46.1185130" lon="10.5121460">
	<ele>2607.00</ele>
	<time>2023-08-07T07:56:44.000Z</time>
</trkpt>
<trkpt lat="46.1185130" lon="10.5121390">
	<ele>2606.80</ele>
	<time>2023-08-07T07:56:45.000Z</time>
</trkpt>
<trkpt lat="46.1185120" lon="10.5121290">
	<ele>2606.80</ele>
	<time>2023-08-07T07:56:46.000Z</time>
</trkpt>
<trkpt lat="46.1185170" lon="10.5121170">
	<ele>2606.80</ele>
	<time>2023-08-07T07:56:47.000Z</time>
</trkpt>
<trkpt lat="46.1185240" lon="10.5121090">
	<ele>2606.60</ele>
	<time>2023-08-07T07:56:48.000Z</time>
</trkpt>
<trkpt lat="46.1185280" lon="10.5121090">
	<ele>2606.40</ele>
	<time>2023-08-07T07:56:49.000Z</time>
</trkpt>
<trkpt lat="46.1185290" lon="10.5121140">
	<ele>2606.40</ele>
	<time>2023-08-07T07:56:50.000Z</time>
</trkpt>
<trkpt lat="46.1185310" lon="10.5121150">
	<ele>2606.20</ele>
	<time>2023-08-07T07:56:51.000Z</time>
</trkpt>
<trkpt lat="46.1185310" lon="10.5121150">
	<ele>2606.00</ele>
	<time>2023-08-07T07:56:52.000Z</time>
</trkpt>
<trkpt lat="46.1185310" lon="10.5121150">
	<ele>2606.00</ele>
	<time>2023-08-07T07:56:53.000Z</time>
</trkpt>
<trkpt lat="46.1185310" lon="10.5121150">
	<ele>2605.60</ele>
	<time>2023-08-07T07:56:54.000Z</time>
</trkpt>
<trkpt lat="46.1185310" lon="10.5121150">
	<ele>2605.40</ele>
	<time>2023-08-07T07:56:55.000Z</time>
</trkpt>
<trkpt lat="46.1185300" lon="10.5121160">
	<ele>2605.20</ele>
	<time>2023-08-07T07:56:56.000Z</time>
</trkpt>
<trkpt lat="46.1185270" lon="10.5121160">
	<ele>2605.00</ele>
	<time>2023-08-07T07:56:57.000Z</time>
</trkpt>
<trkpt lat="46.1185200" lon="10.5121180">
	<ele>2604.80</ele>
	<time>2023-08-07T07:56:58.000Z</time>
</trkpt>
<trkpt lat="46.1185180" lon="10.5121190">
	<ele>2604.80</ele>
	<time>2023-08-07T07:56:59.000Z</time>
</trkpt>
<trkpt lat="46.1185210" lon="10.5121190">
	<ele>2604.60</ele>
	<time>2023-08-07T07:57:00.000Z</time>
</trkpt>
<trkpt lat="46.1185230" lon="10.5121210">
	<ele>2604.60</ele>
	<time>2023-08-07T07:57:01.000Z</time>
</trkpt>
<trkpt lat="46.1185250" lon="10.5121260">
	<ele>2604.40</ele>
	<time>2023-08-07T07:57:02.000Z</time>
</trkpt>
<trkpt lat="46.1185230" lon="10.5121370">
	<ele>2603.60</ele>
	<time>2023-08-07T07:57:03.000Z</time>
</trkpt>
<trkpt lat="46.1185220" lon="10.5121470">
	<ele>2603.40</ele>
	<time>2023-08-07T07:57:04.000Z</time>
</trkpt>
<trkpt lat="46.1185250" lon="10.5121510">
	<ele>2603.00</ele>
	<time>2023-08-07T07:57:05.000Z</time>
</trkpt>
<trkpt lat="46.1185290" lon="10.5121470">
	<ele>2603.00</ele>
	<time>2023-08-07T07:57:06.000Z</time>
</trkpt>
<trkpt lat="46.1185320" lon="10.5121440">
	<ele>2602.80</ele>
	<time>2023-08-07T07:57:07.000Z</time>
</trkpt>
<trkpt lat="46.1185340" lon="10.5121430">
	<ele>2603.00</ele>
	<time>2023-08-07T07:57:08.000Z</time>
</trkpt>
<trkpt lat="46.1185340" lon="10.5121350">
	<ele>2603.20</ele>
	<time>2023-08-07T07:57:09.000Z</time>
</trkpt>
<trkpt lat="46.1185310" lon="10.5121260">
	<ele>2603.20</ele>
	<time>2023-08-07T07:57:10.000Z</time>
</trkpt>
<trkpt lat="46.1185270" lon="10.5121200">
	<ele>2602.80</ele>
	<time>2023-08-07T07:57:11.000Z</time>
</trkpt>
<trkpt lat="46.1185250" lon="10.5121130">
	<ele>2602.60</ele>
	<time>2023-08-07T07:57:12.000Z</time>
</trkpt>
<trkpt lat="46.1185280" lon="10.5121080">
	<ele>2602.40</ele>
	<time>2023-08-07T07:57:13.000Z</time>
</trkpt>
<trkpt lat="46.1185420" lon="10.5121100">
	<ele>2602.20</ele>
	<time>2023-08-07T07:57:14.000Z</time>
</trkpt>
<trkpt lat="46.1185560" lon="10.5121170">
	<ele>2602.20</ele>
	<time>2023-08-07T07:57:15.000Z</time>
</trkpt>
<trkpt lat="46.1185600" lon="10.5121200">
	<ele>2602.00</ele>
	<time>2023-08-07T07:57:16.000Z</time>
</trkpt>
<trkpt lat="46.1185660" lon="10.5121120">
	<ele>2602.00</ele>
	<time>2023-08-07T07:57:17.000Z</time>
</trkpt>
<trkpt lat="46.1185670" lon="10.5121080">
	<ele>2602.00</ele>
	<time>2023-08-07T07:57:18.000Z</time>
</trkpt>
<trkpt lat="46.1185710" lon="10.5121040">
	<ele>2602.00</ele>
	<time>2023-08-07T07:57:19.000Z</time>
</trkpt>
<trkpt lat="46.1185740" lon="10.5121010">
	<ele>2601.80</ele>
	<time>2023-08-07T07:57:20.000Z</time>
</trkpt>
<trkpt lat="46.1185780" lon="10.5121000">
	<ele>2601.40</ele>
	<time>2023-08-07T07:57:21.000Z</time>
</trkpt>
<trkpt lat="46.1185800" lon="10.5120990">
	<ele>2601.20</ele>
	<time>2023-08-07T07:57:22.000Z</time>
</trkpt>
<trkpt lat="46.1185810" lon="10.5121010">
	<ele>2601.00</ele>
	<time>2023-08-07T07:57:23.000Z</time>
</trkpt>
<trkpt lat="46.1185820" lon="10.5121010">
	<ele>2600.40</ele>
	<time>2023-08-07T07:57:24.000Z</time>
</trkpt>
<trkpt lat="46.1185890" lon="10.5121040">
	<ele>2600.20</ele>
	<time>2023-08-07T07:57:25.000Z</time>
</trkpt>
<trkpt lat="46.1185910" lon="10.5121050">
	<ele>2600.00</ele>
	<time>2023-08-07T07:57:26.000Z</time>
</trkpt>
<trkpt lat="46.1185910" lon="10.5121060">
	<ele>2600.00</ele>
	<time>2023-08-07T07:57:27.000Z</time>
</trkpt>
<trkpt lat="46.1185910" lon="10.5121020">
	<ele>2600.00</ele>
	<time>2023-08-07T07:57:28.000Z</time>
</trkpt>
<trkpt lat="46.1185910" lon="10.5120960">
	<ele>2600.00</ele>
	<time>2023-08-07T07:57:29.000Z</time>
</trkpt>
<trkpt lat="46.1185900" lon="10.5120900">
	<ele>2600.00</ele>
	<time>2023-08-07T07:57:30.000Z</time>
</trkpt>
<trkpt lat="46.1185910" lon="10.5120850">
	<ele>2600.20</ele>
	<time>2023-08-07T07:57:31.000Z</time>
</trkpt>
<trkpt lat="46.1185930" lon="10.5120790">
	<ele>2600.20</ele>
	<time>2023-08-07T07:57:32.000Z</time>
</trkpt>
<trkpt lat="46.1185920" lon="10.5120780">
	<ele>2599.80</ele>
	<time>2023-08-07T07:57:33.000Z</time>
</trkpt>
<trkpt lat="46.1185950" lon="10.5120710">
	<ele>2599.40</ele>
	<time>2023-08-07T07:57:34.000Z</time>
</trkpt>
<trkpt lat="46.1185970" lon="10.5120690">
	<ele>2599.20</ele>
	<time>2023-08-07T07:57:35.000Z</time>
</trkpt>
<trkpt lat="46.1185980" lon="10.5120700">
	<ele>2599.00</ele>
	<time>2023-08-07T07:57:36.000Z</time>
</trkpt>
<trkpt lat="46.1185980" lon="10.5120700">
	<ele>2598.80</ele>
	<time>2023-08-07T07:57:37.000Z</time>
</trkpt>
<trkpt lat="46.1185980" lon="10.5120700">
	<ele>2598.60</ele>
	<time>2023-08-07T07:57:38.000Z</time>
</trkpt>
<trkpt lat="46.1185980" lon="10.5120700">
	<ele>2598.60</ele>
	<time>2023-08-07T07:57:39.000Z</time>
</trkpt>
<trkpt lat="46.1185980" lon="10.5120700">
	<ele>2598.40</ele>
	<time>2023-08-07T07:57:40.000Z</time>
</trkpt>
<trkpt lat="46.1185980" lon="10.5120700">
	<ele>2598.40</ele>
	<time>2023-08-07T07:57:41.000Z</time>
</trkpt>
<trkpt lat="46.1185980" lon="10.5120700">
	<ele>2598.20</ele>
	<time>2023-08-07T07:57:42.000Z</time>
</trkpt>
<trkpt lat="46.1185980" lon="10.5120700">
	<ele>2598.20</ele>
	<time>2023-08-07T07:57:43.000Z</time>
</trkpt>
<trkpt lat="46.1185980" lon="10.5120700">
	<ele>2598.00</ele>
	<time>2023-08-07T07:57:44.000Z</time>
</trkpt>
<trkpt lat="46.1185980" lon="10.5120700">
	<ele>2597.80</ele>
	<time>2023-08-07T07:57:45.000Z</time>
</trkpt>
<trkpt lat="46.1185980" lon="10.5120700">
	<ele>2597.80</ele>
	<time>2023-08-07T07:57:46.000Z</time>
</trkpt>
<trkpt lat="46.1185980" lon="10.5120700">
	<ele>2597.60</ele>
	<time>2023-08-07T07:57:47.000Z</time>
</trkpt>
<trkpt lat="46.1185980" lon="10.5120700">
	<ele>2597.60</ele>
	<time>2023-08-07T07:57:48.000Z</time>
</trkpt>
<trkpt lat="46.1185980" lon="10.5120700">
	<ele>2597.60</ele>
	<time>2023-08-07T07:57:49.000Z</time>
</trkpt>
<trkpt lat="46.1185980" lon="10.5120700">
	<ele>2597.60</ele>
	<time>2023-08-07T07:57:50.000Z</time>
</trkpt>
<trkpt lat="46.1185980" lon="10.5120700">
	<ele>2597.40</ele>
	<time>2023-08-07T07:57:51.000Z</time>
</trkpt>
<trkpt lat="46.1185980" lon="10.5120700">
	<ele>2597.40</ele>
	<time>2023-08-07T07:57:52.000Z</time>
</trkpt>
<trkpt lat="46.1185980" lon="10.5120700">
	<ele>2597.40</ele>
	<time>2023-08-07T07:57:53.000Z</time>
</trkpt>
<trkpt lat="46.1186020" lon="10.5120690">
	<ele>2597.20</ele>
	<time>2023-08-07T07:57:54.000Z</time>
</trkpt>
<trkpt lat="46.1186040" lon="10.5120660">
	<ele>2597.00</ele>
	<time>2023-08-07T07:57:55.000Z</time>
</trkpt>
<trkpt lat="46.1186040" lon="10.5120620">
	<ele>2597.00</ele>
	<time>2023-08-07T07:57:56.000Z</time>
</trkpt>
<trkpt lat="46.1186050" lon="10.5120590">
	<ele>2596.80</ele>
	<time>2023-08-07T07:57:57.000Z</time>
</trkpt>
<trkpt lat="46.1186050" lon="10.5120570">
	<ele>2596.60</ele>
	<time>2023-08-07T07:57:58.000Z</time>
</trkpt>
<trkpt lat="46.1186060" lon="10.5120540">
	<ele>2596.60</ele>
	<time>2023-08-07T07:57:59.000Z</time>
</trkpt>
<trkpt lat="46.1186080" lon="10.5120480">
	<ele>2596.40</ele>
	<time>2023-08-07T07:58:00.000Z</time>
</trkpt>
<trkpt lat="46.1186080" lon="10.5120400">
	<ele>2596.20</ele>
	<time>2023-08-07T07:58:01.000Z</time>
</trkpt>
<trkpt lat="46.1186080" lon="10.5120300">
	<ele>2596.00</ele>
	<time>2023-08-07T07:58:02.000Z</time>
</trkpt>
<trkpt lat="46.1186080" lon="10.5120210">
	<ele>2595.80</ele>
	<time>2023-08-07T07:58:03.000Z</time>
</trkpt>
<trkpt lat="46.1186080" lon="10.5120170">
	<ele>2595.80</ele>
	<time>2023-08-07T07:58:04.000Z</time>
</trkpt>
<trkpt lat="46.1186080" lon="10.5120140">
	<ele>2595.60</ele>
	<time>2023-08-07T07:58:05.000Z</time>
</trkpt>
<trkpt lat="46.1186090" lon="10.5120120">
	<ele>2595.60</ele>
	<time>2023-08-07T07:58:06.000Z</time>
</trkpt>
<trkpt lat="46.1186090" lon="10.5120050">
	<ele>2595.40</ele>
	<time>2023-08-07T07:58:07.000Z</time>
</trkpt>
<trkpt lat="46.1186090" lon="10.5120000">
	<ele>2595.20</ele>
	<time>2023-08-07T07:58:08.000Z</time>
</trkpt>
<trkpt lat="46.1186090" lon="10.5119840">
	<ele>2595.00</ele>
	<time>2023-08-07T07:58:09.000Z</time>
</trkpt>
<trkpt lat="46.1186100" lon="10.5119690">
	<ele>2595.00</ele>
	<time>2023-08-07T07:58:10.000Z</time>
</trkpt>
<trkpt lat="46.1186100" lon="10.5119640">
	<ele>2594.80</ele>
	<time>2023-08-07T07:58:11.000Z</time>
</trkpt>
<trkpt lat="46.1186110" lon="10.5119590">
	<ele>2594.80</ele>
	<time>2023-08-07T07:58:12.000Z</time>
</trkpt>
<trkpt lat="46.1186120" lon="10.5119530">
	<ele>2594.80</ele>
	<time>2023-08-07T07:58:13.000Z</time>
</trkpt>
<trkpt lat="46.1186120" lon="10.5119510">
	<ele>2594.60</ele>
	<time>2023-08-07T07:58:14.000Z</time>
</trkpt>
<trkpt lat="46.1186130" lon="10.5119490">
	<ele>2594.60</ele>
	<time>2023-08-07T07:58:15.000Z</time>
</trkpt>
<trkpt lat="46.1186140" lon="10.5119480">
	<ele>2594.40</ele>
	<time>2023-08-07T07:58:16.000Z</time>
</trkpt>
<trkpt lat="46.1186140" lon="10.5119470">
	<ele>2594.00</ele>
	<time>2023-08-07T07:58:17.000Z</time>
</trkpt>
<trkpt lat="46.1186150" lon="10.5119460">
	<ele>2593.60</ele>
	<time>2023-08-07T07:58:18.000Z</time>
</trkpt>
<trkpt lat="46.1186170" lon="10.5119460">
	<ele>2593.40</ele>
	<time>2023-08-07T07:58:19.000Z</time>
</trkpt>
<trkpt lat="46.1186180" lon="10.5119460">
	<ele>2593.20</ele>
	<time>2023-08-07T07:58:20.000Z</time>
</trkpt>
<trkpt lat="46.1186180" lon="10.5119460">
	<ele>2593.00</ele>
	<time>2023-08-07T07:58:21.000Z</time>
</trkpt>
<trkpt lat="46.1186190" lon="10.5119450">
	<ele>2593.00</ele>
	<time>2023-08-07T07:58:22.000Z</time>
</trkpt>
<trkpt lat="46.1186200" lon="10.5119450">
	<ele>2592.80</ele>
	<time>2023-08-07T07:58:23.000Z</time>
</trkpt>
<trkpt lat="46.1186210" lon="10.5119450">
	<ele>2592.60</ele>
	<time>2023-08-07T07:58:24.000Z</time>
</trkpt>
<trkpt lat="46.1186210" lon="10.5119420">
	<ele>2592.40</ele>
	<time>2023-08-07T07:58:25.000Z</time>
</trkpt>
<trkpt lat="46.1186220" lon="10.5119410">
	<ele>2592.20</ele>
	<time>2023-08-07T07:58:26.000Z</time>
</trkpt>
<trkpt lat="46.1186230" lon="10.5119400">
	<ele>2592.20</ele>
	<time>2023-08-07T07:58:27.000Z</time>
</trkpt>
<trkpt lat="46.1186240" lon="10.5119400">
	<ele>2592.00</ele>
	<time>2023-08-07T07:58:28.000Z</time>
</trkpt>
<trkpt lat="46.1186250" lon="10.5119390">
	<ele>2591.80</ele>
	<time>2023-08-07T07:58:29.000Z</time>
</trkpt>
<trkpt lat="46.1186260" lon="10.5119390">
	<ele>2591.80</ele>
	<time>2023-08-07T07:58:30.000Z</time>
</trkpt>
<trkpt lat="46.1186280" lon="10.5119390">
	<ele>2591.60</ele>
	<time>2023-08-07T07:58:31.000Z</time>
</trkpt>
<trkpt lat="46.1186300" lon="10.5119380">
	<ele>2591.60</ele>
	<time>2023-08-07T07:58:32.000Z</time>
</trkpt>
<trkpt lat="46.1186320" lon="10.5119380">
	<ele>2591.60</ele>
	<time>2023-08-07T07:58:33.000Z</time>
</trkpt>
<trkpt lat="46.1186350" lon="10.5119380">
	<ele>2591.40</ele>
	<time>2023-08-07T07:58:34.000Z</time>
</trkpt>
<trkpt lat="46.1186350" lon="10.5119380">
	<ele>2591.40</ele>
	<time>2023-08-07T07:58:35.000Z</time>
</trkpt>
<trkpt lat="46.1186370" lon="10.5119370">
	<ele>2591.20</ele>
	<time>2023-08-07T07:58:36.000Z</time>
</trkpt>
<trkpt lat="46.1186390" lon="10.5119370">
	<ele>2591.00</ele>
	<time>2023-08-07T07:58:37.000Z</time>
</trkpt>
<trkpt lat="46.1186420" lon="10.5119370">
	<ele>2591.00</ele>
	<time>2023-08-07T07:58:38.000Z</time>
</trkpt>
<trkpt lat="46.1186480" lon="10.5119360">
	<ele>2590.80</ele>
	<time>2023-08-07T07:58:39.000Z</time>
</trkpt>
<trkpt lat="46.1186520" lon="10.5119360">
	<ele>2590.60</ele>
	<time>2023-08-07T07:58:40.000Z</time>
</trkpt>
<trkpt lat="46.1186560" lon="10.5119360">
	<ele>2590.40</ele>
	<time>2023-08-07T07:58:41.000Z</time>
</trkpt>
<trkpt lat="46.1186600" lon="10.5119350">
	<ele>2590.20</ele>
	<time>2023-08-07T07:58:42.000Z</time>
</trkpt>
<trkpt lat="46.1186640" lon="10.5119350">
	<ele>2590.20</ele>
	<time>2023-08-07T07:58:43.000Z</time>
</trkpt>
<trkpt lat="46.1186680" lon="10.5119350">
	<ele>2590.00</ele>
	<time>2023-08-07T07:58:44.000Z</time>
</trkpt>
<trkpt lat="46.1186720" lon="10.5119340">
	<ele>2590.00</ele>
	<time>2023-08-07T07:58:45.000Z</time>
</trkpt>
<trkpt lat="46.1186750" lon="10.5119330">
	<ele>2590.00</ele>
	<time>2023-08-07T07:58:46.000Z</time>
</trkpt>
<trkpt lat="46.1186780" lon="10.5119330">
	<ele>2589.80</ele>
	<time>2023-08-07T07:58:47.000Z</time>
</trkpt>
<trkpt lat="46.1186800" lon="10.5119320">
	<ele>2589.60</ele>
	<time>2023-08-07T07:58:48.000Z</time>
</trkpt>
<trkpt lat="46.1186820" lon="10.5119260">
	<ele>2589.40</ele>
	<time>2023-08-07T07:58:49.000Z</time>
</trkpt>
<trkpt lat="46.1186830" lon="10.5119210">
	<ele>2589.20</ele>
	<time>2023-08-07T07:58:50.000Z</time>
</trkpt>
<trkpt lat="46.1186880" lon="10.5119160">
	<ele>2589.00</ele>
	<time>2023-08-07T07:58:51.000Z</time>
</trkpt>
<trkpt lat="46.1186900" lon="10.5119120">
	<ele>2589.00</ele>
	<time>2023-08-07T07:58:52.000Z</time>
</trkpt>
<trkpt lat="46.1186950" lon="10.5119080">
	<ele>2589.00</ele>
	<time>2023-08-07T07:58:53.000Z</time>
</trkpt>
<trkpt lat="46.1186970" lon="10.5119030">
	<ele>2589.20</ele>
	<time>2023-08-07T07:58:54.000Z</time>
</trkpt>
<trkpt lat="46.1186980" lon="10.5118980">
	<ele>2589.20</ele>
	<time>2023-08-07T07:58:55.000Z</time>
</trkpt>
<trkpt lat="46.1186980" lon="10.5118960">
	<ele>2589.40</ele>
	<time>2023-08-07T07:58:56.000Z</time>
</trkpt>
<trkpt lat="46.1186980" lon="10.5118950">
	<ele>2589.40</ele>
	<time>2023-08-07T07:58:57.000Z</time>
</trkpt>
<trkpt lat="46.1186980" lon="10.5118940">
	<ele>2589.40</ele>
	<time>2023-08-07T07:58:58.000Z</time>
</trkpt>
<trkpt lat="46.1186980" lon="10.5118930">
	<ele>2589.40</ele>
	<time>2023-08-07T07:58:59.000Z</time>
</trkpt>
<trkpt lat="46.1186980" lon="10.5118930">
	<ele>2589.60</ele>
	<time>2023-08-07T07:59:00.000Z</time>
</trkpt>
<trkpt lat="46.1186980" lon="10.5118920">
	<ele>2589.60</ele>
	<time>2023-08-07T07:59:01.000Z</time>
</trkpt>
<trkpt lat="46.1186980" lon="10.5118910">
	<ele>2589.60</ele>
	<time>2023-08-07T07:59:02.000Z</time>
</trkpt>
<trkpt lat="46.1186980" lon="10.5118910">
	<ele>2589.60</ele>
	<time>2023-08-07T07:59:03.000Z</time>
</trkpt>
<trkpt lat="46.1186980" lon="10.5118910">
	<ele>2589.60</ele>
	<time>2023-08-07T07:59:04.000Z</time>
</trkpt>
<trkpt lat="46.1186980" lon="10.5118900">
	<ele>2589.20</ele>
	<time>2023-08-07T07:59:05.000Z</time>
</trkpt>
<trkpt lat="46.1186980" lon="10.5118900">
	<ele>2589.20</ele>
	<time>2023-08-07T07:59:06.000Z</time>
</trkpt>
<trkpt lat="46.1186980" lon="10.5118890">
	<ele>2589.20</ele>
	<time>2023-08-07T07:59:07.000Z</time>
</trkpt>
<trkpt lat="46.1186980" lon="10.5118890">
	<ele>2589.00</ele>
	<time>2023-08-07T07:59:08.000Z</time>
</trkpt>
<trkpt lat="46.1186980" lon="10.5118880">
	<ele>2589.00</ele>
	<time>2023-08-07T07:59:09.000Z</time>
</trkpt>
<trkpt lat="46.1186980" lon="10.5118880">
	<ele>2589.00</ele>
	<time>2023-08-07T07:59:10.000Z</time>
</trkpt>
<trkpt lat="46.1186970" lon="10.5118880">
	<ele>2589.00</ele>
	<time>2023-08-07T07:59:11.000Z</time>
</trkpt>
<trkpt lat="46.1186970" lon="10.5118870">
	<ele>2589.00</ele>
	<time>2023-08-07T07:59:12.000Z</time>
</trkpt>
<trkpt lat="46.1186970" lon="10.5118870">
	<ele>2589.00</ele>
	<time>2023-08-07T07:59:13.000Z</time>
</trkpt>
<trkpt lat="46.1186970" lon="10.5118870">
	<ele>2589.00</ele>
	<time>2023-08-07T07:59:14.000Z</time>
</trkpt>
<trkpt lat="46.1186970" lon="10.5118870">
	<ele>2589.00</ele>
	<time>2023-08-07T07:59:15.000Z</time>
</trkpt>
<trkpt lat="46.1186970" lon="10.5118870">
	<ele>2588.80</ele>
	<time>2023-08-07T07:59:16.000Z</time>
</trkpt>
<trkpt lat="46.1186970" lon="10.5118870">
	<ele>2588.80</ele>
	<time>2023-08-07T07:59:17.000Z</time>
</trkpt>
<trkpt lat="46.1186970" lon="10.5118870">
	<ele>2588.60</ele>
	<time>2023-08-07T07:59:18.000Z</time>
</trkpt>
<trkpt lat="46.1186970" lon="10.5118860">
	<ele>2588.40</ele>
	<time>2023-08-07T07:59:19.000Z</time>
</trkpt>
<trkpt lat="46.1186970" lon="10.5118860">
	<ele>2588.00</ele>
	<time>2023-08-07T07:59:20.000Z</time>
</trkpt>
<trkpt lat="46.1186970" lon="10.5118810">
	<ele>2587.80</ele>
	<time>2023-08-07T07:59:21.000Z</time>
</trkpt>
<trkpt lat="46.1186990" lon="10.5118700">
	<ele>2587.60</ele>
	<time>2023-08-07T07:59:22.000Z</time>
</trkpt>
<trkpt lat="46.1187010" lon="10.5118600">
	<ele>2587.40</ele>
	<time>2023-08-07T07:59:23.000Z</time>
</trkpt>
<trkpt lat="46.1187000" lon="10.5118510">
	<ele>2587.40</ele>
	<time>2023-08-07T07:59:24.000Z</time>
</trkpt>
<trkpt lat="46.1187000" lon="10.5118410">
	<ele>2587.20</ele>
	<time>2023-08-07T07:59:25.000Z</time>
</trkpt>
<trkpt lat="46.1187030" lon="10.5118300">
	<ele>2587.20</ele>
	<time>2023-08-07T07:59:26.000Z</time>
</trkpt>
<trkpt lat="46.1187050" lon="10.5118200">
	<ele>2587.20</ele>
	<time>2023-08-07T07:59:27.000Z</time>
</trkpt>
<trkpt lat="46.1187060" lon="10.5118090">
	<ele>2587.00</ele>
	<time>2023-08-07T07:59:28.000Z</time>
</trkpt>
<trkpt lat="46.1187090" lon="10.5118040">
	<ele>2587.20</ele>
	<time>2023-08-07T07:59:29.000Z</time>
</trkpt>
<trkpt lat="46.1187100" lon="10.5117980">
	<ele>2587.20</ele>
	<time>2023-08-07T07:59:30.000Z</time>
</trkpt>
<trkpt lat="46.1187100" lon="10.5117980">
	<ele>2587.20</ele>
	<time>2023-08-07T07:59:31.000Z</time>
</trkpt>
<trkpt lat="46.1187160" lon="10.5117950">
	<ele>2587.20</ele>
	<time>2023-08-07T07:59:32.000Z</time>
</trkpt>
<trkpt lat="46.1187200" lon="10.5117910">
	<ele>2587.20</ele>
	<time>2023-08-07T07:59:33.000Z</time>
</trkpt>
<trkpt lat="46.1187220" lon="10.5117860">
	<ele>2587.20</ele>
	<time>2023-08-07T07:59:34.000Z</time>
</trkpt>
<trkpt lat="46.1187200" lon="10.5117820">
	<ele>2587.00</ele>
	<time>2023-08-07T07:59:35.000Z</time>
</trkpt>
<trkpt lat="46.1187200" lon="10.5117800">
	<ele>2586.60</ele>
	<time>2023-08-07T07:59:36.000Z</time>
</trkpt>
<trkpt lat="46.1187200" lon="10.5117760">
	<ele>2586.40</ele>
	<time>2023-08-07T07:59:37.000Z</time>
</trkpt>
<trkpt lat="46.1187220" lon="10.5117690">
	<ele>2586.20</ele>
	<time>2023-08-07T07:59:38.000Z</time>
</trkpt>
<trkpt lat="46.1187250" lon="10.5117540">
	<ele>2586.00</ele>
	<time>2023-08-07T07:59:39.000Z</time>
</trkpt>
<trkpt lat="46.1187220" lon="10.5117400">
	<ele>2585.80</ele>
	<time>2023-08-07T07:59:40.000Z</time>
</trkpt>
<trkpt lat="46.1187230" lon="10.5117320">
	<ele>2585.80</ele>
	<time>2023-08-07T07:59:41.000Z</time>
</trkpt>
<trkpt lat="46.1187220" lon="10.5117270">
	<ele>2585.40</ele>
	<time>2023-08-07T07:59:42.000Z</time>
</trkpt>
<trkpt lat="46.1187220" lon="10.5117250">
	<ele>2585.20</ele>
	<time>2023-08-07T07:59:43.000Z</time>
</trkpt>
<trkpt lat="46.1187200" lon="10.5117240">
	<ele>2585.00</ele>
	<time>2023-08-07T07:59:44.000Z</time>
</trkpt>
<trkpt lat="46.1187210" lon="10.5117240">
	<ele>2585.00</ele>
	<time>2023-08-07T07:59:45.000Z</time>
</trkpt>
<trkpt lat="46.1187180" lon="10.5117240">
	<ele>2585.00</ele>
	<time>2023-08-07T07:59:46.000Z</time>
</trkpt>
<trkpt lat="46.1187270" lon="10.5117290">
	<ele>2584.80</ele>
	<time>2023-08-07T07:59:47.000Z</time>
</trkpt>
<trkpt lat="46.1187400" lon="10.5117290">
	<ele>2584.80</ele>
	<time>2023-08-07T07:59:48.000Z</time>
</trkpt>
<trkpt lat="46.1187470" lon="10.5117260">
	<ele>2584.60</ele>
	<time>2023-08-07T07:59:49.000Z</time>
</trkpt>
<trkpt lat="46.1187510" lon="10.5117250">
	<ele>2584.40</ele>
	<time>2023-08-07T07:59:50.000Z</time>
</trkpt>
<trkpt lat="46.1187540" lon="10.5117230">
	<ele>2584.20</ele>
	<time>2023-08-07T07:59:51.000Z</time>
</trkpt>
<trkpt lat="46.1187610" lon="10.5117250">
	<ele>2584.20</ele>
	<time>2023-08-07T07:59:52.000Z</time>
</trkpt>
<trkpt lat="46.1187650" lon="10.5117260">
	<ele>2584.00</ele>
	<time>2023-08-07T07:59:53.000Z</time>
</trkpt>
<trkpt lat="46.1187650" lon="10.5117270">
	<ele>2584.00</ele>
	<time>2023-08-07T07:59:54.000Z</time>
</trkpt>
<trkpt lat="46.1187650" lon="10.5117280">
	<ele>2584.00</ele>
	<time>2023-08-07T07:59:55.000Z</time>
</trkpt>
<trkpt lat="46.1187640" lon="10.5117290">
	<ele>2584.00</ele>
	<time>2023-08-07T07:59:56.000Z</time>
</trkpt>
<trkpt lat="46.1187620" lon="10.5117310">
	<ele>2584.00</ele>
	<time>2023-08-07T07:59:57.000Z</time>
</trkpt>
<trkpt lat="46.1187560" lon="10.5117330">
	<ele>2583.80</ele>
	<time>2023-08-07T07:59:58.000Z</time>
</trkpt>
<trkpt lat="46.1187530" lon="10.5117350">
	<ele>2583.80</ele>
	<time>2023-08-07T07:59:59.000Z</time>
</trkpt>
<trkpt lat="46.1187460" lon="10.5117340">
	<ele>2583.80</ele>
	<time>2023-08-07T08:00:00.000Z</time>
</trkpt>
<trkpt lat="46.1187430" lon="10.5117340">
	<ele>2583.80</ele>
	<time>2023-08-07T08:00:01.000Z</time>
</trkpt>
<trkpt lat="46.1187400" lon="10.5117370">
	<ele>2583.60</ele>
	<time>2023-08-07T08:00:02.000Z</time>
</trkpt>
<trkpt lat="46.1187390" lon="10.5117370">
	<ele>2583.60</ele>
	<time>2023-08-07T08:00:03.000Z</time>
</trkpt>
<trkpt lat="46.1187390" lon="10.5117380">
	<ele>2583.60</ele>
	<time>2023-08-07T08:00:04.000Z</time>
</trkpt>
<trkpt lat="46.1187390" lon="10.5117380">
	<ele>2583.80</ele>
	<time>2023-08-07T08:00:05.000Z</time>
</trkpt>
<trkpt lat="46.1187390" lon="10.5117380">
	<ele>2583.80</ele>
	<time>2023-08-07T08:00:06.000Z</time>
</trkpt>
<trkpt lat="46.1187390" lon="10.5117380">
	<ele>2583.80</ele>
	<time>2023-08-07T08:00:07.000Z</time>
</trkpt>
<trkpt lat="46.1187390" lon="10.5117380">
	<ele>2583.80</ele>
	<time>2023-08-07T08:00:08.000Z</time>
</trkpt>
<trkpt lat="46.1187390" lon="10.5117380">
	<ele>2583.60</ele>
	<time>2023-08-07T08:00:09.000Z</time>
</trkpt>
<trkpt lat="46.1187390" lon="10.5117380">
	<ele>2583.60</ele>
	<time>2023-08-07T08:00:10.000Z</time>
</trkpt>
<trkpt lat="46.1187390" lon="10.5117380">
	<ele>2583.60</ele>
	<time>2023-08-07T08:00:11.000Z</time>
</trkpt>
<trkpt lat="46.1187390" lon="10.5117370">
	<ele>2583.60</ele>
	<time>2023-08-07T08:00:12.000Z</time>
</trkpt>
<trkpt lat="46.1187390" lon="10.5117370">
	<ele>2583.60</ele>
	<time>2023-08-07T08:00:13.000Z</time>
</trkpt>
<trkpt lat="46.1187390" lon="10.5117360">
	<ele>2583.60</ele>
	<time>2023-08-07T08:00:14.000Z</time>
</trkpt>
<trkpt lat="46.1187390" lon="10.5117350">
	<ele>2583.60</ele>
	<time>2023-08-07T08:00:15.000Z</time>
</trkpt>
<trkpt lat="46.1187390" lon="10.5117350">
	<ele>2583.60</ele>
	<time>2023-08-07T08:00:16.000Z</time>
</trkpt>
<trkpt lat="46.1187390" lon="10.5117340">
	<ele>2583.80</ele>
	<time>2023-08-07T08:00:17.000Z</time>
</trkpt>
<trkpt lat="46.1187390" lon="10.5117340">
	<ele>2583.80</ele>
	<time>2023-08-07T08:00:18.000Z</time>
</trkpt>
<trkpt lat="46.1187420" lon="10.5117290">
	<ele>2583.80</ele>
	<time>2023-08-07T08:00:19.000Z</time>
</trkpt>
<trkpt lat="46.1187500" lon="10.5117120">
	<ele>2583.80</ele>
	<time>2023-08-07T08:00:20.000Z</time>
</trkpt>
<trkpt lat="46.1187550" lon="10.5117040">
	<ele>2584.00</ele>
	<time>2023-08-07T08:00:21.000Z</time>
</trkpt>
<trkpt lat="46.1187590" lon="10.5116980">
	<ele>2584.00</ele>
	<time>2023-08-07T08:00:22.000Z</time>
</trkpt>
<trkpt lat="46.1187630" lon="10.5116900">
	<ele>2584.00</ele>
	<time>2023-08-07T08:00:23.000Z</time>
</trkpt>
<trkpt lat="46.1187670" lon="10.5116840">
	<ele>2584.20</ele>
	<time>2023-08-07T08:00:24.000Z</time>
</trkpt>
<trkpt lat="46.1187690" lon="10.5116790">
	<ele>2584.20</ele>
	<time>2023-08-07T08:00:25.000Z</time>
</trkpt>
<trkpt lat="46.1187710" lon="10.5116740">
	<ele>2584.00</ele>
	<time>2023-08-07T08:00:26.000Z</time>
</trkpt>
<trkpt lat="46.1187730" lon="10.5116680">
	<ele>2584.00</ele>
	<time>2023-08-07T08:00:27.000Z</time>
</trkpt>
<trkpt lat="46.1187760" lon="10.5116540">
	<ele>2584.00</ele>
	<time>2023-08-07T08:00:28.000Z</time>
</trkpt>
<trkpt lat="46.1187790" lon="10.5116490">
	<ele>2584.00</ele>
	<time>2023-08-07T08:00:29.000Z</time>
</trkpt>
<trkpt lat="46.1187810" lon="10.5116450">
	<ele>2584.00</ele>
	<time>2023-08-07T08:00:30.000Z</time>
</trkpt>
<trkpt lat="46.1187810" lon="10.5116420">
	<ele>2583.80</ele>
	<time>2023-08-07T08:00:31.000Z</time>
</trkpt>
<trkpt lat="46.1187830" lon="10.5116420">
	<ele>2583.80</ele>
	<time>2023-08-07T08:00:32.000Z</time>
</trkpt>
<trkpt lat="46.1187840" lon="10.5116390">
	<ele>2583.60</ele>
	<time>2023-08-07T08:00:33.000Z</time>
</trkpt>
<trkpt lat="46.1187890" lon="10.5116330">
	<ele>2583.60</ele>
	<time>2023-08-07T08:00:34.000Z</time>
</trkpt>
<trkpt lat="46.1187910" lon="10.5116270">
	<ele>2583.40</ele>
	<time>2023-08-07T08:00:35.000Z</time>
</trkpt>
<trkpt lat="46.1187930" lon="10.5116230">
	<ele>2583.40</ele>
	<time>2023-08-07T08:00:36.000Z</time>
</trkpt>
<trkpt lat="46.1187950" lon="10.5116200">
	<ele>2583.20</ele>
	<time>2023-08-07T08:00:37.000Z</time>
</trkpt>
<trkpt lat="46.1187980" lon="10.5116190">
	<ele>2583.20</ele>
	<time>2023-08-07T08:00:38.000Z</time>
</trkpt>
<trkpt lat="46.1188040" lon="10.5116180">
	<ele>2583.20</ele>
	<time>2023-08-07T08:00:39.000Z</time>
</trkpt>
<trkpt lat="46.1188060" lon="10.5116180">
	<ele>2583.00</ele>
	<time>2023-08-07T08:00:40.000Z</time>
</trkpt>
<trkpt lat="46.1188080" lon="10.5116160">
	<ele>2583.00</ele>
	<time>2023-08-07T08:00:41.000Z</time>
</trkpt>
<trkpt lat="46.1188080" lon="10.5116110">
	<ele>2583.00</ele>
	<time>2023-08-07T08:00:42.000Z</time>
</trkpt>
<trkpt lat="46.1188090" lon="10.5116070">
	<ele>2583.00</ele>
	<time>2023-08-07T08:00:43.000Z</time>
</trkpt>
<trkpt lat="46.1188120" lon="10.5116000">
	<ele>2582.80</ele>
	<time>2023-08-07T08:00:44.000Z</time>
</trkpt>
<trkpt lat="46.1188120" lon="10.5116010">
	<ele>2582.60</ele>
	<time>2023-08-07T08:00:45.000Z</time>
</trkpt>
<trkpt lat="46.1188120" lon="10.5116050">
	<ele>2582.60</ele>
	<time>2023-08-07T08:00:46.000Z</time>
</trkpt>
<trkpt lat="46.1188120" lon="10.5116070">
	<ele>2582.40</ele>
	<time>2023-08-07T08:00:47.000Z</time>
</trkpt>
<trkpt lat="46.1188050" lon="10.5116110">
	<ele>2582.20</ele>
	<time>2023-08-07T08:00:48.000Z</time>
</trkpt>
<trkpt lat="46.1187870" lon="10.5116140">
	<ele>2582.20</ele>
	<time>2023-08-07T08:00:49.000Z</time>
</trkpt>
<trkpt lat="46.1187670" lon="10.5116140">
	<ele>2582.00</ele>
	<time>2023-08-07T08:00:50.000Z</time>
</trkpt>
<trkpt lat="46.1187540" lon="10.5116160">
	<ele>2582.00</ele>
	<time>2023-08-07T08:00:51.000Z</time>
</trkpt>
<trkpt lat="46.1187580" lon="10.5116170">
	<ele>2582.00</ele>
	<time>2023-08-07T08:00:52.000Z</time>
</trkpt>
<trkpt lat="46.1187640" lon="10.5116190">
	<ele>2582.00</ele>
	<time>2023-08-07T08:00:53.000Z</time>
</trkpt>
<trkpt lat="46.1187640" lon="10.5116190">
	<ele>2582.20</ele>
	<time>2023-08-07T08:00:54.000Z</time>
</trkpt>
<trkpt lat="46.1187630" lon="10.5116190">
	<ele>2582.20</ele>
	<time>2023-08-07T08:00:55.000Z</time>
</trkpt>
<trkpt lat="46.1187630" lon="10.5116200">
	<ele>2582.40</ele>
	<time>2023-08-07T08:00:56.000Z</time>
</trkpt>
<trkpt lat="46.1187630" lon="10.5116200">
	<ele>2582.60</ele>
	<time>2023-08-07T08:00:57.000Z</time>
</trkpt>
<trkpt lat="46.1187630" lon="10.5116200">
	<ele>2582.60</ele>
	<time>2023-08-07T08:00:58.000Z</time>
</trkpt>
<trkpt lat="46.1187630" lon="10.5116200">
	<ele>2582.60</ele>
	<time>2023-08-07T08:00:59.000Z</time>
</trkpt>
<trkpt lat="46.1187630" lon="10.5116200">
	<ele>2582.80</ele>
	<time>2023-08-07T08:01:00.000Z</time>
</trkpt>
<trkpt lat="46.1187630" lon="10.5116200">
	<ele>2582.80</ele>
	<time>2023-08-07T08:01:01.000Z</time>
</trkpt>
<trkpt lat="46.1187630" lon="10.5116200">
	<ele>2582.80</ele>
	<time>2023-08-07T08:01:02.000Z</time>
</trkpt>
<trkpt lat="46.1187630" lon="10.5116200">
	<ele>2582.80</ele>
	<time>2023-08-07T08:01:03.000Z</time>
</trkpt>
<trkpt lat="46.1187630" lon="10.5116200">
	<ele>2582.80</ele>
	<time>2023-08-07T08:01:04.000Z</time>
</trkpt>
<trkpt lat="46.1187630" lon="10.5116200">
	<ele>2583.00</ele>
	<time>2023-08-07T08:01:05.000Z</time>
</trkpt>
<trkpt lat="46.1187630" lon="10.5116200">
	<ele>2583.00</ele>
	<time>2023-08-07T08:01:06.000Z</time>
</trkpt>
<trkpt lat="46.1187640" lon="10.5116200">
	<ele>2583.20</ele>
	<time>2023-08-07T08:01:07.000Z</time>
</trkpt>
<trkpt lat="46.1187640" lon="10.5116200">
	<ele>2583.20</ele>
	<time>2023-08-07T08:01:08.000Z</time>
</trkpt>
<trkpt lat="46.1187640" lon="10.5116200">
	<ele>2583.20</ele>
	<time>2023-08-07T08:01:09.000Z</time>
</trkpt>
<trkpt lat="46.1187640" lon="10.5116200">
	<ele>2583.40</ele>
	<time>2023-08-07T08:01:10.000Z</time>
</trkpt>
<trkpt lat="46.1187640" lon="10.5116200">
	<ele>2583.40</ele>
	<time>2023-08-07T08:01:11.000Z</time>
</trkpt>
<trkpt lat="46.1187640" lon="10.5116200">
	<ele>2583.40</ele>
	<time>2023-08-07T08:01:12.000Z</time>
</trkpt>
<trkpt lat="46.1187650" lon="10.5116200">
	<ele>2583.20</ele>
	<time>2023-08-07T08:01:13.000Z</time>
</trkpt>
<trkpt lat="46.1187650" lon="10.5116200">
	<ele>2583.20</ele>
	<time>2023-08-07T08:01:14.000Z</time>
</trkpt>
<trkpt lat="46.1187650" lon="10.5116190">
	<ele>2583.00</ele>
	<time>2023-08-07T08:01:15.000Z</time>
</trkpt>
<trkpt lat="46.1187660" lon="10.5116190">
	<ele>2583.20</ele>
	<time>2023-08-07T08:01:16.000Z</time>
</trkpt>
<trkpt lat="46.1187660" lon="10.5116190">
	<ele>2583.20</ele>
	<time>2023-08-07T08:01:17.000Z</time>
</trkpt>
<trkpt lat="46.1187660" lon="10.5116190">
	<ele>2583.20</ele>
	<time>2023-08-07T08:01:18.000Z</time>
</trkpt>
<trkpt lat="46.1187660" lon="10.5116190">
	<ele>2583.20</ele>
	<time>2023-08-07T08:01:19.000Z</time>
</trkpt>
<trkpt lat="46.1187660" lon="10.5116190">
	<ele>2583.20</ele>
	<time>2023-08-07T08:01:20.000Z</time>
</trkpt>
<trkpt lat="46.1187660" lon="10.5116190">
	<ele>2583.20</ele>
	<time>2023-08-07T08:01:21.000Z</time>
</trkpt>
<trkpt lat="46.1187660" lon="10.5116190">
	<ele>2583.20</ele>
	<time>2023-08-07T08:01:22.000Z</time>
</trkpt>
<trkpt lat="46.1187660" lon="10.5116190">
	<ele>2583.20</ele>
	<time>2023-08-07T08:01:23.000Z</time>
</trkpt>
<trkpt lat="46.1187670" lon="10.5116190">
	<ele>2583.20</ele>
	<time>2023-08-07T08:01:24.000Z</time>
</trkpt>
<trkpt lat="46.1187670" lon="10.5116190">
	<ele>2583.20</ele>
	<time>2023-08-07T08:01:25.000Z</time>
</trkpt>
<trkpt lat="46.1187710" lon="10.5116140">
	<ele>2583.20</ele>
	<time>2023-08-07T08:01:26.000Z</time>
</trkpt>
<trkpt lat="46.1187720" lon="10.5116120">
	<ele>2583.20</ele>
	<time>2023-08-07T08:01:27.000Z</time>
</trkpt>
<trkpt lat="46.1187740" lon="10.5116110">
	<ele>2583.20</ele>
	<time>2023-08-07T08:01:28.000Z</time>
</trkpt>
<trkpt lat="46.1187740" lon="10.5116050">
	<ele>2583.20</ele>
	<time>2023-08-07T08:01:29.000Z</time>
</trkpt>
<trkpt lat="46.1187750" lon="10.5115960">
	<ele>2583.20</ele>
	<time>2023-08-07T08:01:30.000Z</time>
</trkpt>
<trkpt lat="46.1187790" lon="10.5115890">
	<ele>2583.20</ele>
	<time>2023-08-07T08:01:31.000Z</time>
</trkpt>
<trkpt lat="46.1187820" lon="10.5115770">
	<ele>2583.00</ele>
	<time>2023-08-07T08:01:32.000Z</time>
</trkpt>
<trkpt lat="46.1187910" lon="10.5115600">
	<ele>2583.00</ele>
	<time>2023-08-07T08:01:33.000Z</time>
</trkpt>
<trkpt lat="46.1188010" lon="10.5115420">
	<ele>2583.00</ele>
	<time>2023-08-07T08:01:34.000Z</time>
</trkpt>
<trkpt lat="46.1188040" lon="10.5115290">
	<ele>2583.20</ele>
	<time>2023-08-07T08:01:35.000Z</time>
</trkpt>
<trkpt lat="46.1188080" lon="10.5115180">
	<ele>2583.20</ele>
	<time>2023-08-07T08:01:36.000Z</time>
</trkpt>
<trkpt lat="46.1188130" lon="10.5115080">
	<ele>2583.20</ele>
	<time>2023-08-07T08:01:37.000Z</time>
</trkpt>
<trkpt lat="46.1188200" lon="10.5114950">
	<ele>2583.00</ele>
	<time>2023-08-07T08:01:38.000Z</time>
</trkpt>
<trkpt lat="46.1188260" lon="10.5114830">
	<ele>2582.80</ele>
	<time>2023-08-07T08:01:39.000Z</time>
</trkpt>
<trkpt lat="46.1188310" lon="10.5114770">
	<ele>2582.80</ele>
	<time>2023-08-07T08:01:40.000Z</time>
</trkpt>
<trkpt lat="46.1188330" lon="10.5114750">
	<ele>2582.60</ele>
	<time>2023-08-07T08:01:41.000Z</time>
</trkpt>
<trkpt lat="46.1188430" lon="10.5114710">
	<ele>2582.60</ele>
	<time>2023-08-07T08:01:42.000Z</time>
</trkpt>
<trkpt lat="46.1188490" lon="10.5114680">
	<ele>2582.40</ele>
	<time>2023-08-07T08:01:43.000Z</time>
</trkpt>
<trkpt lat="46.1188520" lon="10.5114640">
	<ele>2582.20</ele>
	<time>2023-08-07T08:01:44.000Z</time>
</trkpt>
<trkpt lat="46.1188560" lon="10.5114590">
	<ele>2582.00</ele>
	<time>2023-08-07T08:01:45.000Z</time>
</trkpt>
<trkpt lat="46.1188630" lon="10.5114570">
	<ele>2581.60</ele>
	<time>2023-08-07T08:01:46.000Z</time>
</trkpt>
<trkpt lat="46.1188620" lon="10.5114590">
	<ele>2581.40</ele>
	<time>2023-08-07T08:01:47.000Z</time>
</trkpt>
<trkpt lat="46.1188630" lon="10.5114600">
	<ele>2581.20</ele>
	<time>2023-08-07T08:01:48.000Z</time>
</trkpt>
<trkpt lat="46.1188720" lon="10.5114580">
	<ele>2581.00</ele>
	<time>2023-08-07T08:01:49.000Z</time>
</trkpt>
<trkpt lat="46.1188790" lon="10.5114610">
	<ele>2580.80</ele>
	<time>2023-08-07T08:01:50.000Z</time>
</trkpt>
<trkpt lat="46.1188880" lon="10.5114640">
	<ele>2580.60</ele>
	<time>2023-08-07T08:01:51.000Z</time>
</trkpt>
<trkpt lat="46.1188930" lon="10.5114660">
	<ele>2580.40</ele>
	<time>2023-08-07T08:01:52.000Z</time>
</trkpt>
<trkpt lat="46.1189020" lon="10.5114590">
	<ele>2580.20</ele>
	<time>2023-08-07T08:01:53.000Z</time>
</trkpt>
<trkpt lat="46.1189040" lon="10.5114600">
	<ele>2580.00</ele>
	<time>2023-08-07T08:01:54.000Z</time>
</trkpt>
<trkpt lat="46.1189100" lon="10.5114590">
	<ele>2580.00</ele>
	<time>2023-08-07T08:01:55.000Z</time>
</trkpt>
<trkpt lat="46.1189160" lon="10.5114500">
	<ele>2579.80</ele>
	<time>2023-08-07T08:01:56.000Z</time>
</trkpt>
<trkpt lat="46.1189260" lon="10.5114380">
	<ele>2579.80</ele>
	<time>2023-08-07T08:01:57.000Z</time>
</trkpt>
<trkpt lat="46.1189300" lon="10.5114340">
	<ele>2579.80</ele>
	<time>2023-08-07T08:01:58.000Z</time>
</trkpt>
<trkpt lat="46.1189310" lon="10.5114380">
	<ele>2579.60</ele>
	<time>2023-08-07T08:01:59.000Z</time>
</trkpt>
<trkpt lat="46.1189390" lon="10.5114520">
	<ele>2579.40</ele>
	<time>2023-08-07T08:02:00.000Z</time>
</trkpt>
<trkpt lat="46.1189490" lon="10.5114640">
	<ele>2579.40</ele>
	<time>2023-08-07T08:02:01.000Z</time>
</trkpt>
<trkpt lat="46.1189540" lon="10.5114720">
	<ele>2579.00</ele>
	<time>2023-08-07T08:02:02.000Z</time>
</trkpt>
<trkpt lat="46.1189560" lon="10.5114780">
	<ele>2578.60</ele>
	<time>2023-08-07T08:02:03.000Z</time>
</trkpt>
<trkpt lat="46.1189650" lon="10.5114780">
	<ele>2578.60</ele>
	<time>2023-08-07T08:02:04.000Z</time>
</trkpt>
<trkpt lat="46.1189690" lon="10.5114760">
	<ele>2578.40</ele>
	<time>2023-08-07T08:02:05.000Z</time>
</trkpt>
<trkpt lat="46.1189720" lon="10.5114770">
	<ele>2578.20</ele>
	<time>2023-08-07T08:02:06.000Z</time>
</trkpt>
<trkpt lat="46.1189780" lon="10.5114800">
	<ele>2578.00</ele>
	<time>2023-08-07T08:02:07.000Z</time>
</trkpt>
<trkpt lat="46.1189830" lon="10.5114860">
	<ele>2577.80</ele>
	<time>2023-08-07T08:02:08.000Z</time>
</trkpt>
<trkpt lat="46.1189870" lon="10.5114920">
	<ele>2577.80</ele>
	<time>2023-08-07T08:02:09.000Z</time>
</trkpt>
<trkpt lat="46.1189910" lon="10.5115000">
	<ele>2577.80</ele>
	<time>2023-08-07T08:02:10.000Z</time>
</trkpt>
<trkpt lat="46.1189960" lon="10.5115100">
	<ele>2577.60</ele>
	<time>2023-08-07T08:02:11.000Z</time>
</trkpt>
<trkpt lat="46.1189970" lon="10.5115180">
	<ele>2577.60</ele>
	<time>2023-08-07T08:02:12.000Z</time>
</trkpt>
<trkpt lat="46.1189960" lon="10.5115220">
	<ele>2577.60</ele>
	<time>2023-08-07T08:02:13.000Z</time>
</trkpt>
<trkpt lat="46.1189950" lon="10.5115220">
	<ele>2577.60</ele>
	<time>2023-08-07T08:02:14.000Z</time>
</trkpt>
<trkpt lat="46.1189980" lon="10.5115210">
	<ele>2577.40</ele>
	<time>2023-08-07T08:02:15.000Z</time>
</trkpt>
<trkpt lat="46.1190120" lon="10.5115160">
	<ele>2577.20</ele>
	<time>2023-08-07T08:02:16.000Z</time>
</trkpt>
<trkpt lat="46.1190120" lon="10.5115200">
	<ele>2577.00</ele>
	<time>2023-08-07T08:02:17.000Z</time>
</trkpt>
<trkpt lat="46.1190180" lon="10.5115230">
	<ele>2576.60</ele>
	<time>2023-08-07T08:02:18.000Z</time>
</trkpt>
<trkpt lat="46.1190200" lon="10.5115230">
	<ele>2576.20</ele>
	<time>2023-08-07T08:02:19.000Z</time>
</trkpt>
<trkpt lat="46.1190260" lon="10.5115240">
	<ele>2576.00</ele>
	<time>2023-08-07T08:02:20.000Z</time>
</trkpt>
<trkpt lat="46.1190310" lon="10.5115280">
	<ele>2576.00</ele>
	<time>2023-08-07T08:02:21.000Z</time>
</trkpt>
<trkpt lat="46.1190310" lon="10.5115340">
	<ele>2575.60</ele>
	<time>2023-08-07T08:02:22.000Z</time>
</trkpt>
<trkpt lat="46.1190250" lon="10.5115360">
	<ele>2575.40</ele>
	<time>2023-08-07T08:02:23.000Z</time>
</trkpt>
<trkpt lat="46.1190200" lon="10.5115350">
	<ele>2575.20</ele>
	<time>2023-08-07T08:02:24.000Z</time>
</trkpt>
<trkpt lat="46.1190210" lon="10.5115320">
	<ele>2575.00</ele>
	<time>2023-08-07T08:02:25.000Z</time>
</trkpt>
<trkpt lat="46.1190210" lon="10.5115320">
	<ele>2575.00</ele>
	<time>2023-08-07T08:02:26.000Z</time>
</trkpt>
<trkpt lat="46.1190210" lon="10.5115320">
	<ele>2575.00</ele>
	<time>2023-08-07T08:02:27.000Z</time>
</trkpt>
<trkpt lat="46.1190210" lon="10.5115320">
	<ele>2574.80</ele>
	<time>2023-08-07T08:02:28.000Z</time>
</trkpt>
<trkpt lat="46.1190210" lon="10.5115320">
	<ele>2574.60</ele>
	<time>2023-08-07T08:02:29.000Z</time>
</trkpt>
<trkpt lat="46.1190210" lon="10.5115320">
	<ele>2574.40</ele>
	<time>2023-08-07T08:02:30.000Z</time>
</trkpt>
<trkpt lat="46.1190250" lon="10.5115280">
	<ele>2574.00</ele>
	<time>2023-08-07T08:02:31.000Z</time>
</trkpt>
<trkpt lat="46.1190330" lon="10.5115270">
	<ele>2573.80</ele>
	<time>2023-08-07T08:02:32.000Z</time>
</trkpt>
<trkpt lat="46.1190410" lon="10.5115210">
	<ele>2573.80</ele>
	<time>2023-08-07T08:02:33.000Z</time>
</trkpt>
<trkpt lat="46.1190480" lon="10.5115150">
	<ele>2573.60</ele>
	<time>2023-08-07T08:02:34.000Z</time>
</trkpt>
<trkpt lat="46.1190530" lon="10.5115120">
	<ele>2573.40</ele>
	<time>2023-08-07T08:02:35.000Z</time>
</trkpt>
<trkpt lat="46.1190590" lon="10.5115060">
	<ele>2573.40</ele>
	<time>2023-08-07T08:02:36.000Z</time>
</trkpt>
<trkpt lat="46.1190670" lon="10.5114950">
	<ele>2573.20</ele>
	<time>2023-08-07T08:02:37.000Z</time>
</trkpt>
<trkpt lat="46.1190750" lon="10.5114770">
	<ele>2573.20</ele>
	<time>2023-08-07T08:02:38.000Z</time>
</trkpt>
<trkpt lat="46.1190810" lon="10.5114580">
	<ele>2573.00</ele>
	<time>2023-08-07T08:02:39.000Z</time>
</trkpt>
<trkpt lat="46.1190870" lon="10.5114420">
	<ele>2572.80</ele>
	<time>2023-08-07T08:02:40.000Z</time>
</trkpt>
<trkpt lat="46.1190870" lon="10.5114350">
	<ele>2572.80</ele>
	<time>2023-08-07T08:02:41.000Z</time>
</trkpt>
<trkpt lat="46.1190880" lon="10.5114330">
	<ele>2572.60</ele>
	<time>2023-08-07T08:02:42.000Z</time>
</trkpt>
<trkpt lat="46.1190890" lon="10.5114320">
	<ele>2572.40</ele>
	<time>2023-08-07T08:02:43.000Z</time>
</trkpt>
<trkpt lat="46.1190880" lon="10.5114310">
	<ele>2572.20</ele>
	<time>2023-08-07T08:02:44.000Z</time>
</trkpt>
<trkpt lat="46.1190880" lon="10.5114290">
	<ele>2572.20</ele>
	<time>2023-08-07T08:02:45.000Z</time>
</trkpt>
<trkpt lat="46.1190950" lon="10.5114310">
	<ele>2572.20</ele>
	<time>2023-08-07T08:02:46.000Z</time>
</trkpt>
<trkpt lat="46.1190970" lon="10.5114320">
	<ele>2572.20</ele>
	<time>2023-08-07T08:02:47.000Z</time>
</trkpt>
<trkpt lat="46.1190990" lon="10.5114330">
	<ele>2572.20</ele>
	<time>2023-08-07T08:02:48.000Z</time>
</trkpt>
<trkpt lat="46.1191010" lon="10.5114330">
	<ele>2572.40</ele>
	<time>2023-08-07T08:02:49.000Z</time>
</trkpt>
<trkpt lat="46.1191010" lon="10.5114330">
	<ele>2572.60</ele>
	<time>2023-08-07T08:02:50.000Z</time>
</trkpt>
<trkpt lat="46.1191010" lon="10.5114330">
	<ele>2572.60</ele>
	<time>2023-08-07T08:02:51.000Z</time>
</trkpt>
<trkpt lat="46.1191010" lon="10.5114330">
	<ele>2572.60</ele>
	<time>2023-08-07T08:02:52.000Z</time>
</trkpt>
<trkpt lat="46.1191010" lon="10.5114330">
	<ele>2572.80</ele>
	<time>2023-08-07T08:02:53.000Z</time>
</trkpt>
<trkpt lat="46.1191010" lon="10.5114330">
	<ele>2572.80</ele>
	<time>2023-08-07T08:02:54.000Z</time>
</trkpt>
<trkpt lat="46.1191010" lon="10.5114330">
	<ele>2572.80</ele>
	<time>2023-08-07T08:02:55.000Z</time>
</trkpt>
<trkpt lat="46.1191010" lon="10.5114330">
	<ele>2572.80</ele>
	<time>2023-08-07T08:02:56.000Z</time>
</trkpt>
<trkpt lat="46.1191010" lon="10.5114330">
	<ele>2572.80</ele>
	<time>2023-08-07T08:02:57.000Z</time>
</trkpt>
<trkpt lat="46.1191010" lon="10.5114330">
	<ele>2572.80</ele>
	<time>2023-08-07T08:02:58.000Z</time>
</trkpt>
<trkpt lat="46.1191010" lon="10.5114330">
	<ele>2572.80</ele>
	<time>2023-08-07T08:02:59.000Z</time>
</trkpt>
<trkpt lat="46.1191010" lon="10.5114330">
	<ele>2572.60</ele>
	<time>2023-08-07T08:03:00.000Z</time>
</trkpt>
<trkpt lat="46.1191010" lon="10.5114330">
	<ele>2572.60</ele>
	<time>2023-08-07T08:03:01.000Z</time>
</trkpt>
<trkpt lat="46.1191010" lon="10.5114330">
	<ele>2572.60</ele>
	<time>2023-08-07T08:03:02.000Z</time>
</trkpt>
<trkpt lat="46.1191010" lon="10.5114330">
	<ele>2572.60</ele>
	<time>2023-08-07T08:03:03.000Z</time>
</trkpt>
<trkpt lat="46.1191010" lon="10.5114330">
	<ele>2572.60</ele>
	<time>2023-08-07T08:03:04.000Z</time>
</trkpt>
<trkpt lat="46.1191010" lon="10.5114330">
	<ele>2572.60</ele>
	<time>2023-08-07T08:03:05.000Z</time>
</trkpt>
<trkpt lat="46.1191010" lon="10.5114330">
	<ele>2572.40</ele>
	<time>2023-08-07T08:03:06.000Z</time>
</trkpt>
<trkpt lat="46.1191010" lon="10.5114330">
	<ele>2572.00</ele>
	<time>2023-08-07T08:03:07.000Z</time>
</trkpt>
<trkpt lat="46.1191010" lon="10.5114330">
	<ele>2571.80</ele>
	<time>2023-08-07T08:03:08.000Z</time>
</trkpt>
<trkpt lat="46.1191010" lon="10.5114320">
	<ele>2571.60</ele>
	<time>2023-08-07T08:03:09.000Z</time>
</trkpt>
<trkpt lat="46.1191010" lon="10.5114310">
	<ele>2571.40</ele>
	<time>2023-08-07T08:03:10.000Z</time>
</trkpt>
<trkpt lat="46.1191060" lon="10.5114250">
	<ele>2571.40</ele>
	<time>2023-08-07T08:03:11.000Z</time>
</trkpt>
<trkpt lat="46.1191130" lon="10.5114070">
	<ele>2571.40</ele>
	<time>2023-08-07T08:03:12.000Z</time>
</trkpt>
<trkpt lat="46.1191190" lon="10.5113880">
	<ele>2571.20</ele>
	<time>2023-08-07T08:03:13.000Z</time>
</trkpt>
<trkpt lat="46.1191220" lon="10.5113720">
	<ele>2571.20</ele>
	<time>2023-08-07T08:03:14.000Z</time>
</trkpt>
<trkpt lat="46.1191320" lon="10.5113580">
	<ele>2571.20</ele>
	<time>2023-08-07T08:03:15.000Z</time>
</trkpt>
<trkpt lat="46.1191460" lon="10.5113410">
	<ele>2571.00</ele>
	<time>2023-08-07T08:03:16.000Z</time>
</trkpt>
<trkpt lat="46.1191600" lon="10.5113260">
	<ele>2571.20</ele>
	<time>2023-08-07T08:03:17.000Z</time>
</trkpt>
<trkpt lat="46.1191770" lon="10.5113130">
	<ele>2571.20</ele>
	<time>2023-08-07T08:03:18.000Z</time>
</trkpt>
<trkpt lat="46.1191960" lon="10.5112980">
	<ele>2571.20</ele>
	<time>2023-08-07T08:03:19.000Z</time>
</trkpt>
<trkpt lat="46.1192170" lon="10.5112780">
	<ele>2571.20</ele>
	<time>2023-08-07T08:03:20.000Z</time>
</trkpt>
<trkpt lat="46.1192240" lon="10.5112770">
	<ele>2571.20</ele>
	<time>2023-08-07T08:03:21.000Z</time>
</trkpt>
<trkpt lat="46.1192290" lon="10.5112800">
	<ele>2571.40</ele>
	<time>2023-08-07T08:03:22.000Z</time>
</trkpt>
<trkpt lat="46.1192360" lon="10.5112840">
	<ele>2571.40</ele>
	<time>2023-08-07T08:03:23.000Z</time>
</trkpt>
<trkpt lat="46.1192400" lon="10.5112920">
	<ele>2571.40</ele>
	<time>2023-08-07T08:03:24.000Z</time>
</trkpt>
<trkpt lat="46.1192460" lon="10.5113030">
	<ele>2571.40</ele>
	<time>2023-08-07T08:03:25.000Z</time>
</trkpt>
<trkpt lat="46.1192520" lon="10.5113150">
	<ele>2571.20</ele>
	<time>2023-08-07T08:03:26.000Z</time>
</trkpt>
<trkpt lat="46.1192590" lon="10.5113310">
	<ele>2571.20</ele>
	<time>2023-08-07T08:03:27.000Z</time>
</trkpt>
<trkpt lat="46.1192650" lon="10.5113420">
	<ele>2571.00</ele>
	<time>2023-08-07T08:03:28.000Z</time>
</trkpt>
<trkpt lat="46.1192670" lon="10.5113520">
	<ele>2571.00</ele>
	<time>2023-08-07T08:03:29.000Z</time>
</trkpt>
<trkpt lat="46.1192770" lon="10.5113600">
	<ele>2570.80</ele>
	<time>2023-08-07T08:03:30.000Z</time>
</trkpt>
<trkpt lat="46.1192830" lon="10.5113650">
	<ele>2570.80</ele>
	<time>2023-08-07T08:03:31.000Z</time>
</trkpt>
<trkpt lat="46.1192850" lon="10.5113770">
	<ele>2570.80</ele>
	<time>2023-08-07T08:03:32.000Z</time>
</trkpt>
<trkpt lat="46.1192910" lon="10.5113880">
	<ele>2570.60</ele>
	<time>2023-08-07T08:03:33.000Z</time>
</trkpt>
<trkpt lat="46.1192920" lon="10.5113930">
	<ele>2570.60</ele>
	<time>2023-08-07T08:03:34.000Z</time>
</trkpt>
<trkpt lat="46.1192910" lon="10.5113950">
	<ele>2570.20</ele>
	<time>2023-08-07T08:03:35.000Z</time>
</trkpt>
<trkpt lat="46.1192960" lon="10.5113930">
	<ele>2570.00</ele>
	<time>2023-08-07T08:03:36.000Z</time>
</trkpt>
<trkpt lat="46.1193050" lon="10.5113920">
	<ele>2569.80</ele>
	<time>2023-08-07T08:03:37.000Z</time>
</trkpt>
<trkpt lat="46.1193120" lon="10.5113940">
	<ele>2569.60</ele>
	<time>2023-08-07T08:03:38.000Z</time>
</trkpt>
<trkpt lat="46.1193160" lon="10.5113900">
	<ele>2569.40</ele>
	<time>2023-08-07T08:03:39.000Z</time>
</trkpt>
<trkpt lat="46.1193200" lon="10.5113840">
	<ele>2569.20</ele>
	<time>2023-08-07T08:03:40.000Z</time>
</trkpt>
<trkpt lat="46.1193220" lon="10.5113740">
	<ele>2569.20</ele>
	<time>2023-08-07T08:03:41.000Z</time>
</trkpt>
<trkpt lat="46.1193320" lon="10.5113600">
	<ele>2569.00</ele>
	<time>2023-08-07T08:03:42.000Z</time>
</trkpt>
<trkpt lat="46.1193340" lon="10.5113480">
	<ele>2568.80</ele>
	<time>2023-08-07T08:03:43.000Z</time>
</trkpt>
<trkpt lat="46.1193390" lon="10.5113440">
	<ele>2568.60</ele>
	<time>2023-08-07T08:03:44.000Z</time>
</trkpt>
<trkpt lat="46.1193500" lon="10.5113360">
	<ele>2568.40</ele>
	<time>2023-08-07T08:03:45.000Z</time>
</trkpt>
<trkpt lat="46.1193580" lon="10.5113270">
	<ele>2568.20</ele>
	<time>2023-08-07T08:03:46.000Z</time>
</trkpt>
<trkpt lat="46.1193620" lon="10.5113200">
	<ele>2568.00</ele>
	<time>2023-08-07T08:03:47.000Z</time>
</trkpt>
<trkpt lat="46.1193650" lon="10.5113090">
	<ele>2567.80</ele>
	<time>2023-08-07T08:03:48.000Z</time>
</trkpt>
<trkpt lat="46.1193710" lon="10.5112980">
	<ele>2567.80</ele>
	<time>2023-08-07T08:03:49.000Z</time>
</trkpt>
<trkpt lat="46.1193820" lon="10.5112880">
	<ele>2567.80</ele>
	<time>2023-08-07T08:03:50.000Z</time>
</trkpt>
<trkpt lat="46.1193870" lon="10.5112770">
	<ele>2567.60</ele>
	<time>2023-08-07T08:03:51.000Z</time>
</trkpt>
<trkpt lat="46.1194000" lon="10.5112640">
	<ele>2567.40</ele>
	<time>2023-08-07T08:03:52.000Z</time>
</trkpt>
<trkpt lat="46.1194000" lon="10.5112610">
	<ele>2567.20</ele>
	<time>2023-08-07T08:03:53.000Z</time>
</trkpt>
<trkpt lat="46.1194000" lon="10.5112580">
	<ele>2567.20</ele>
	<time>2023-08-07T08:03:54.000Z</time>
</trkpt>
<trkpt lat="46.1194180" lon="10.5112580">
	<ele>2567.00</ele>
	<time>2023-08-07T08:03:55.000Z</time>
</trkpt>
<trkpt lat="46.1194220" lon="10.5112600">
	<ele>2566.80</ele>
	<time>2023-08-07T08:03:56.000Z</time>
</trkpt>
<trkpt lat="46.1194230" lon="10.5112620">
	<ele>2566.60</ele>
	<time>2023-08-07T08:03:57.000Z</time>
</trkpt>
<trkpt lat="46.1194240" lon="10.5112630">
	<ele>2566.60</ele>
	<time>2023-08-07T08:03:58.000Z</time>
</trkpt>
<trkpt lat="46.1194310" lon="10.5112630">
	<ele>2566.40</ele>
	<time>2023-08-07T08:03:59.000Z</time>
</trkpt>
<trkpt lat="46.1194340" lon="10.5112610">
	<ele>2566.40</ele>
	<time>2023-08-07T08:04:00.000Z</time>
</trkpt>
<trkpt lat="46.1194370" lon="10.5112610">
	<ele>2566.20</ele>
	<time>2023-08-07T08:04:01.000Z</time>
</trkpt>
<trkpt lat="46.1194390" lon="10.5112620">
	<ele>2565.80</ele>
	<time>2023-08-07T08:04:02.000Z</time>
</trkpt>
<trkpt lat="46.1194380" lon="10.5112640">
	<ele>2565.40</ele>
	<time>2023-08-07T08:04:03.000Z</time>
</trkpt>
<trkpt lat="46.1194390" lon="10.5112680">
	<ele>2565.20</ele>
	<time>2023-08-07T08:04:04.000Z</time>
</trkpt>
<trkpt lat="46.1194350" lon="10.5112730">
	<ele>2564.80</ele>
	<time>2023-08-07T08:04:05.000Z</time>
</trkpt>
<trkpt lat="46.1194280" lon="10.5112790">
	<ele>2564.60</ele>
	<time>2023-08-07T08:04:06.000Z</time>
</trkpt>
<trkpt lat="46.1194230" lon="10.5112860">
	<ele>2564.40</ele>
	<time>2023-08-07T08:04:07.000Z</time>
</trkpt>
<trkpt lat="46.1194200" lon="10.5112920">
	<ele>2564.40</ele>
	<time>2023-08-07T08:04:08.000Z</time>
</trkpt>
<trkpt lat="46.1194190" lon="10.5112960">
	<ele>2564.00</ele>
	<time>2023-08-07T08:04:09.000Z</time>
</trkpt>
<trkpt lat="46.1194240" lon="10.5112940">
	<ele>2563.80</ele>
	<time>2023-08-07T08:04:10.000Z</time>
</trkpt>
<trkpt lat="46.1194250" lon="10.5112900">
	<ele>2563.80</ele>
	<time>2023-08-07T08:04:11.000Z</time>
</trkpt>
<trkpt lat="46.1194270" lon="10.5112800">
	<ele>2563.60</ele>
	<time>2023-08-07T08:04:12.000Z</time>
</trkpt>
<trkpt lat="46.1194270" lon="10.5112730">
	<ele>2563.40</ele>
	<time>2023-08-07T08:04:13.000Z</time>
</trkpt>
<trkpt lat="46.1194280" lon="10.5112690">
	<ele>2563.40</ele>
	<time>2023-08-07T08:04:14.000Z</time>
</trkpt>
<trkpt lat="46.1194320" lon="10.5112670">
	<ele>2563.20</ele>
	<time>2023-08-07T08:04:15.000Z</time>
</trkpt>
<trkpt lat="46.1194330" lon="10.5112620">
	<ele>2563.00</ele>
	<time>2023-08-07T08:04:16.000Z</time>
</trkpt>
<trkpt lat="46.1194420" lon="10.5112590">
	<ele>2562.80</ele>
	<time>2023-08-07T08:04:17.000Z</time>
</trkpt>
<trkpt lat="46.1194530" lon="10.5112550">
	<ele>2562.60</ele>
	<time>2023-08-07T08:04:18.000Z</time>
</trkpt>
<trkpt lat="46.1194620" lon="10.5112540">
	<ele>2562.40</ele>
	<time>2023-08-07T08:04:19.000Z</time>
</trkpt>
<trkpt lat="46.1194670" lon="10.5112470">
	<ele>2562.20</ele>
	<time>2023-08-07T08:04:20.000Z</time>
</trkpt>
<trkpt lat="46.1194690" lon="10.5112510">
	<ele>2562.00</ele>
	<time>2023-08-07T08:04:21.000Z</time>
</trkpt>
<trkpt lat="46.1194700" lon="10.5112500">
	<ele>2561.60</ele>
	<time>2023-08-07T08:04:22.000Z</time>
</trkpt>
<trkpt lat="46.1194780" lon="10.5112440">
	<ele>2561.60</ele>
	<time>2023-08-07T08:04:23.000Z</time>
</trkpt>
<trkpt lat="46.1194830" lon="10.5112390">
	<ele>2561.40</ele>
	<time>2023-08-07T08:04:24.000Z</time>
</trkpt>
<trkpt lat="46.1194830" lon="10.5112350">
	<ele>2561.40</ele>
	<time>2023-08-07T08:04:25.000Z</time>
</trkpt>
<trkpt lat="46.1194820" lon="10.5112350">
	<ele>2561.40</ele>
	<time>2023-08-07T08:04:26.000Z</time>
</trkpt>
<trkpt lat="46.1194900" lon="10.5112340">
	<ele>2561.40</ele>
	<time>2023-08-07T08:04:27.000Z</time>
</trkpt>
<trkpt lat="46.1194910" lon="10.5112360">
	<ele>2561.00</ele>
	<time>2023-08-07T08:04:28.000Z</time>
</trkpt>
<trkpt lat="46.1194990" lon="10.5112330">
	<ele>2561.00</ele>
	<time>2023-08-07T08:04:29.000Z</time>
</trkpt>
<trkpt lat="46.1195070" lon="10.5112290">
	<ele>2560.60</ele>
	<time>2023-08-07T08:04:30.000Z</time>
</trkpt>
<trkpt lat="46.1195160" lon="10.5112240">
	<ele>2560.20</ele>
	<time>2023-08-07T08:04:31.000Z</time>
</trkpt>
<trkpt lat="46.1195250" lon="10.5112160">
	<ele>2560.00</ele>
	<time>2023-08-07T08:04:32.000Z</time>
</trkpt>
<trkpt lat="46.1195390" lon="10.5112030">
	<ele>2559.80</ele>
	<time>2023-08-07T08:04:33.000Z</time>
</trkpt>
<trkpt lat="46.1195430" lon="10.5111920">
	<ele>2559.60</ele>
	<time>2023-08-07T08:04:34.000Z</time>
</trkpt>
<trkpt lat="46.1195440" lon="10.5111840">
	<ele>2559.60</ele>
	<time>2023-08-07T08:04:35.000Z</time>
</trkpt>
<trkpt lat="46.1195460" lon="10.5111810">
	<ele>2559.40</ele>
	<time>2023-08-07T08:04:36.000Z</time>
</trkpt>
<trkpt lat="46.1195480" lon="10.5111730">
	<ele>2559.40</ele>
	<time>2023-08-07T08:04:37.000Z</time>
</trkpt>
<trkpt lat="46.1195560" lon="10.5111700">
	<ele>2559.40</ele>
	<time>2023-08-07T08:04:38.000Z</time>
</trkpt>
<trkpt lat="46.1195600" lon="10.5111680">
	<ele>2559.40</ele>
	<time>2023-08-07T08:04:39.000Z</time>
</trkpt>
<trkpt lat="46.1195760" lon="10.5111650">
	<ele>2559.40</ele>
	<time>2023-08-07T08:04:40.000Z</time>
</trkpt>
<trkpt lat="46.1195780" lon="10.5111650">
	<ele>2559.40</ele>
	<time>2023-08-07T08:04:41.000Z</time>
</trkpt>
<trkpt lat="46.1195820" lon="10.5111590">
	<ele>2559.40</ele>
	<time>2023-08-07T08:04:42.000Z</time>
</trkpt>
<trkpt lat="46.1195850" lon="10.5111550">
	<ele>2559.20</ele>
	<time>2023-08-07T08:04:43.000Z</time>
</trkpt>
<trkpt lat="46.1195940" lon="10.5111500">
	<ele>2559.00</ele>
	<time>2023-08-07T08:04:44.000Z</time>
</trkpt>
<trkpt lat="46.1196020" lon="10.5111450">
	<ele>2558.60</ele>
	<time>2023-08-07T08:04:45.000Z</time>
</trkpt>
<trkpt lat="46.1196060" lon="10.5111410">
	<ele>2558.20</ele>
	<time>2023-08-07T08:04:46.000Z</time>
</trkpt>
<trkpt lat="46.1196160" lon="10.5111460">
	<ele>2558.00</ele>
	<time>2023-08-07T08:04:47.000Z</time>
</trkpt>
<trkpt lat="46.1196270" lon="10.5111530">
	<ele>2557.80</ele>
	<time>2023-08-07T08:04:48.000Z</time>
</trkpt>
<trkpt lat="46.1196310" lon="10.5111500">
	<ele>2557.80</ele>
	<time>2023-08-07T08:04:49.000Z</time>
</trkpt>
<trkpt lat="46.1196320" lon="10.5111490">
	<ele>2557.60</ele>
	<time>2023-08-07T08:04:50.000Z</time>
</trkpt>
<trkpt lat="46.1196340" lon="10.5111490">
	<ele>2557.60</ele>
	<time>2023-08-07T08:04:51.000Z</time>
</trkpt>
<trkpt lat="46.1196310" lon="10.5111510">
	<ele>2557.40</ele>
	<time>2023-08-07T08:04:52.000Z</time>
</trkpt>
<trkpt lat="46.1196360" lon="10.5111530">
	<ele>2557.00</ele>
	<time>2023-08-07T08:04:53.000Z</time>
</trkpt>
<trkpt lat="46.1196360" lon="10.5111550">
	<ele>2556.80</ele>
	<time>2023-08-07T08:04:54.000Z</time>
</trkpt>
<trkpt lat="46.1196360" lon="10.5111540">
	<ele>2556.60</ele>
	<time>2023-08-07T08:04:55.000Z</time>
</trkpt>
<trkpt lat="46.1196390" lon="10.5111490">
	<ele>2556.40</ele>
	<time>2023-08-07T08:04:56.000Z</time>
</trkpt>
<trkpt lat="46.1196410" lon="10.5111480">
	<ele>2556.40</ele>
	<time>2023-08-07T08:04:57.000Z</time>
</trkpt>
<trkpt lat="46.1196440" lon="10.5111460">
	<ele>2556.40</ele>
	<time>2023-08-07T08:04:58.000Z</time>
</trkpt>
<trkpt lat="46.1196440" lon="10.5111440">
	<ele>2556.20</ele>
	<time>2023-08-07T08:04:59.000Z</time>
</trkpt>
<trkpt lat="46.1196430" lon="10.5111390">
	<ele>2556.20</ele>
	<time>2023-08-07T08:05:00.000Z</time>
</trkpt>
<trkpt lat="46.1196400" lon="10.5111370">
	<ele>2556.00</ele>
	<time>2023-08-07T08:05:01.000Z</time>
</trkpt>
<trkpt lat="46.1196390" lon="10.5111300">
	<ele>2555.80</ele>
	<time>2023-08-07T08:05:02.000Z</time>
</trkpt>
<trkpt lat="46.1196380" lon="10.5111210">
	<ele>2555.60</ele>
	<time>2023-08-07T08:05:03.000Z</time>
</trkpt>
<trkpt lat="46.1196360" lon="10.5111150">
	<ele>2555.60</ele>
	<time>2023-08-07T08:05:04.000Z</time>
</trkpt>
<trkpt lat="46.1196330" lon="10.5111080">
	<ele>2555.40</ele>
	<time>2023-08-07T08:05:05.000Z</time>
</trkpt>
<trkpt lat="46.1196340" lon="10.5111030">
	<ele>2555.20</ele>
	<time>2023-08-07T08:05:06.000Z</time>
</trkpt>
<trkpt lat="46.1196350" lon="10.5110980">
	<ele>2554.80</ele>
	<time>2023-08-07T08:05:07.000Z</time>
</trkpt>
<trkpt lat="46.1196370" lon="10.5110930">
	<ele>2554.40</ele>
	<time>2023-08-07T08:05:08.000Z</time>
</trkpt>
<trkpt lat="46.1196400" lon="10.5110830">
	<ele>2554.20</ele>
	<time>2023-08-07T08:05:09.000Z</time>
</trkpt>
<trkpt lat="46.1196410" lon="10.5110740">
	<ele>2554.20</ele>
	<time>2023-08-07T08:05:10.000Z</time>
</trkpt>
<trkpt lat="46.1196480" lon="10.5110700">
	<ele>2553.80</ele>
	<time>2023-08-07T08:05:11.000Z</time>
</trkpt>
<trkpt lat="46.1196520" lon="10.5110690">
	<ele>2553.80</ele>
	<time>2023-08-07T08:05:12.000Z</time>
</trkpt>
<trkpt lat="46.1196610" lon="10.5110710">
	<ele>2553.40</ele>
	<time>2023-08-07T08:05:13.000Z</time>
</trkpt>
<trkpt lat="46.1196660" lon="10.5110790">
	<ele>2553.20</ele>
	<time>2023-08-07T08:05:14.000Z</time>
</trkpt>
<trkpt lat="46.1196680" lon="10.5110880">
	<ele>2552.80</ele>
	<time>2023-08-07T08:05:15.000Z</time>
</trkpt>
<trkpt lat="46.1196710" lon="10.5110930">
	<ele>2552.40</ele>
	<time>2023-08-07T08:05:16.000Z</time>
</trkpt>
<trkpt lat="46.1196710" lon="10.5111020">
	<ele>2552.20</ele>
	<time>2023-08-07T08:05:17.000Z</time>
</trkpt>
<trkpt lat="46.1196720" lon="10.5111060">
	<ele>2552.00</ele>
	<time>2023-08-07T08:05:18.000Z</time>
</trkpt>
<trkpt lat="46.1196740" lon="10.5111080">
	<ele>2551.80</ele>
	<time>2023-08-07T08:05:19.000Z</time>
</trkpt>
<trkpt lat="46.1196740" lon="10.5111090">
	<ele>2551.80</ele>
	<time>2023-08-07T08:05:20.000Z</time>
</trkpt>
<trkpt lat="46.1196740" lon="10.5111090">
	<ele>2551.60</ele>
	<time>2023-08-07T08:05:21.000Z</time>
</trkpt>
<trkpt lat="46.1196740" lon="10.5111090">
	<ele>2551.60</ele>
	<time>2023-08-07T08:05:22.000Z</time>
</trkpt>
<trkpt lat="46.1196740" lon="10.5111090">
	<ele>2551.40</ele>
	<time>2023-08-07T08:05:23.000Z</time>
</trkpt>
<trkpt lat="46.1196740" lon="10.5111090">
	<ele>2551.20</ele>
	<time>2023-08-07T08:05:24.000Z</time>
</trkpt>
<trkpt lat="46.1196740" lon="10.5111090">
	<ele>2551.00</ele>
	<time>2023-08-07T08:05:25.000Z</time>
</trkpt>
<trkpt lat="46.1196740" lon="10.5111090">
	<ele>2550.80</ele>
	<time>2023-08-07T08:05:26.000Z</time>
</trkpt>
<trkpt lat="46.1196740" lon="10.5111090">
	<ele>2550.60</ele>
	<time>2023-08-07T08:05:27.000Z</time>
</trkpt>
<trkpt lat="46.1196740" lon="10.5111080">
	<ele>2550.40</ele>
	<time>2023-08-07T08:05:28.000Z</time>
</trkpt>
<trkpt lat="46.1196740" lon="10.5111080">
	<ele>2550.20</ele>
	<time>2023-08-07T08:05:29.000Z</time>
</trkpt>
<trkpt lat="46.1196740" lon="10.5111080">
	<ele>2550.00</ele>
	<time>2023-08-07T08:05:30.000Z</time>
</trkpt>
<trkpt lat="46.1196740" lon="10.5111080">
	<ele>2550.00</ele>
	<time>2023-08-07T08:05:31.000Z</time>
</trkpt>
<trkpt lat="46.1196740" lon="10.5111080">
	<ele>2549.80</ele>
	<time>2023-08-07T08:05:32.000Z</time>
</trkpt>
<trkpt lat="46.1196740" lon="10.5111080">
	<ele>2549.80</ele>
	<time>2023-08-07T08:05:33.000Z</time>
</trkpt>
<trkpt lat="46.1196740" lon="10.5111080">
	<ele>2549.60</ele>
	<time>2023-08-07T08:05:34.000Z</time>
</trkpt>
<trkpt lat="46.1196740" lon="10.5111080">
	<ele>2549.60</ele>
	<time>2023-08-07T08:05:35.000Z</time>
</trkpt>
<trkpt lat="46.1196740" lon="10.5111080">
	<ele>2549.60</ele>
	<time>2023-08-07T08:05:36.000Z</time>
</trkpt>
<trkpt lat="46.1196750" lon="10.5111080">
	<ele>2549.60</ele>
	<time>2023-08-07T08:05:37.000Z</time>
</trkpt>
<trkpt lat="46.1196760" lon="10.5111080">
	<ele>2549.40</ele>
	<time>2023-08-07T08:05:38.000Z</time>
</trkpt>
<trkpt lat="46.1196770" lon="10.5111080">
	<ele>2549.40</ele>
	<time>2023-08-07T08:05:39.000Z</time>
</trkpt>
<trkpt lat="46.1196860" lon="10.5111080">
	<ele>2549.20</ele>
	<time>2023-08-07T08:05:40.000Z</time>
</trkpt>
<trkpt lat="46.1196930" lon="10.5111080">
	<ele>2549.00</ele>
	<time>2023-08-07T08:05:41.000Z</time>
</trkpt>
<trkpt lat="46.1196990" lon="10.5111080">
	<ele>2548.80</ele>
	<time>2023-08-07T08:05:42.000Z</time>
</trkpt>
<trkpt lat="46.1197010" lon="10.5111080">
	<ele>2548.80</ele>
	<time>2023-08-07T08:05:43.000Z</time>
</trkpt>
<trkpt lat="46.1197030" lon="10.5111080">
	<ele>2548.60</ele>
	<time>2023-08-07T08:05:44.000Z</time>
</trkpt>
<trkpt lat="46.1197030" lon="10.5111080">
	<ele>2548.40</ele>
	<time>2023-08-07T08:05:45.000Z</time>
</trkpt>
<trkpt lat="46.1197040" lon="10.5111080">
	<ele>2548.20</ele>
	<time>2023-08-07T08:05:46.000Z</time>
</trkpt>
<trkpt lat="46.1197070" lon="10.5111080">
	<ele>2548.00</ele>
	<time>2023-08-07T08:05:47.000Z</time>
</trkpt>
<trkpt lat="46.1197100" lon="10.5111080">
	<ele>2547.80</ele>
	<time>2023-08-07T08:05:48.000Z</time>
</trkpt>
<trkpt lat="46.1197160" lon="10.5111080">
	<ele>2547.40</ele>
	<time>2023-08-07T08:05:49.000Z</time>
</trkpt>
<trkpt lat="46.1197250" lon="10.5111070">
	<ele>2547.40</ele>
	<time>2023-08-07T08:05:50.000Z</time>
</trkpt>
<trkpt lat="46.1197330" lon="10.5111040">
	<ele>2547.20</ele>
	<time>2023-08-07T08:05:51.000Z</time>
</trkpt>
<trkpt lat="46.1197410" lon="10.5111030">
	<ele>2546.80</ele>
	<time>2023-08-07T08:05:52.000Z</time>
</trkpt>
<trkpt lat="46.1197450" lon="10.5111030">
	<ele>2546.60</ele>
	<time>2023-08-07T08:05:53.000Z</time>
</trkpt>
<trkpt lat="46.1197500" lon="10.5110990">
	<ele>2546.20</ele>
	<time>2023-08-07T08:05:54.000Z</time>
</trkpt>
<trkpt lat="46.1197600" lon="10.5110990">
	<ele>2546.20</ele>
	<time>2023-08-07T08:05:55.000Z</time>
</trkpt>
<trkpt lat="46.1197680" lon="10.5110980">
	<ele>2546.00</ele>
	<time>2023-08-07T08:05:56.000Z</time>
</trkpt>
<trkpt lat="46.1197710" lon="10.5110960">
	<ele>2545.80</ele>
	<time>2023-08-07T08:05:57.000Z</time>
</trkpt>
<trkpt lat="46.1197750" lon="10.5110940">
	<ele>2545.60</ele>
	<time>2023-08-07T08:05:58.000Z</time>
</trkpt>
<trkpt lat="46.1197820" lon="10.5110900">
	<ele>2545.40</ele>
	<time>2023-08-07T08:05:59.000Z</time>
</trkpt>
<trkpt lat="46.1197890" lon="10.5110800">
	<ele>2545.40</ele>
	<time>2023-08-07T08:06:00.000Z</time>
</trkpt>
<trkpt lat="46.1197920" lon="10.5110730">
	<ele>2545.40</ele>
	<time>2023-08-07T08:06:01.000Z</time>
</trkpt>
<trkpt lat="46.1197930" lon="10.5110710">
	<ele>2545.00</ele>
	<time>2023-08-07T08:06:02.000Z</time>
</trkpt>
<trkpt lat="46.1197930" lon="10.5110680">
	<ele>2544.80</ele>
	<time>2023-08-07T08:06:03.000Z</time>
</trkpt>
<trkpt lat="46.1197950" lon="10.5110660">
	<ele>2544.80</ele>
	<time>2023-08-07T08:06:04.000Z</time>
</trkpt>
<trkpt lat="46.1197960" lon="10.5110630">
	<ele>2544.40</ele>
	<time>2023-08-07T08:06:05.000Z</time>
</trkpt>
<trkpt lat="46.1197980" lon="10.5110550">
	<ele>2544.20</ele>
	<time>2023-08-07T08:06:06.000Z</time>
</trkpt>
<trkpt lat="46.1198000" lon="10.5110500">
	<ele>2544.20</ele>
	<time>2023-08-07T08:06:07.000Z</time>
</trkpt>
<trkpt lat="46.1198070" lon="10.5110440">
	<ele>2544.00</ele>
	<time>2023-08-07T08:06:08.000Z</time>
</trkpt>
<trkpt lat="46.1198170" lon="10.5110340">
	<ele>2543.80</ele>
	<time>2023-08-07T08:06:09.000Z</time>
</trkpt>
<trkpt lat="46.1198300" lon="10.5110300">
	<ele>2543.60</ele>
	<time>2023-08-07T08:06:10.000Z</time>
</trkpt>
<trkpt lat="46.1198370" lon="10.5110270">
	<ele>2543.40</ele>
	<time>2023-08-07T08:06:11.000Z</time>
</trkpt>
<trkpt lat="46.1198410" lon="10.5110240">
	<ele>2543.20</ele>
	<time>2023-08-07T08:06:12.000Z</time>
</trkpt>
<trkpt lat="46.1198510" lon="10.5110200">
	<ele>2543.00</ele>
	<time>2023-08-07T08:06:13.000Z</time>
</trkpt>
<trkpt lat="46.1198650" lon="10.5110150">
	<ele>2542.80</ele>
	<time>2023-08-07T08:06:14.000Z</time>
</trkpt>
<trkpt lat="46.1198820" lon="10.5110100">
	<ele>2542.80</ele>
	<time>2023-08-07T08:06:15.000Z</time>
</trkpt>
<trkpt lat="46.1198940" lon="10.5110060">
	<ele>2542.20</ele>
	<time>2023-08-07T08:06:16.000Z</time>
</trkpt>
<trkpt lat="46.1198990" lon="10.5110130">
	<ele>2541.80</ele>
	<time>2023-08-07T08:06:17.000Z</time>
</trkpt>
<trkpt lat="46.1199020" lon="10.5110190">
	<ele>2541.60</ele>
	<time>2023-08-07T08:06:18.000Z</time>
</trkpt>
<trkpt lat="46.1199020" lon="10.5110270">
	<ele>2541.40</ele>
	<time>2023-08-07T08:06:19.000Z</time>
</trkpt>
<trkpt lat="46.1199070" lon="10.5110380">
	<ele>2541.00</ele>
	<time>2023-08-07T08:06:20.000Z</time>
</trkpt>
<trkpt lat="46.1199150" lon="10.5110430">
	<ele>2541.00</ele>
	<time>2023-08-07T08:06:21.000Z</time>
</trkpt>
<trkpt lat="46.1199190" lon="10.5110440">
	<ele>2540.80</ele>
	<time>2023-08-07T08:06:22.000Z</time>
</trkpt>
<trkpt lat="46.1199260" lon="10.5110440">
	<ele>2540.60</ele>
	<time>2023-08-07T08:06:23.000Z</time>
</trkpt>
<trkpt lat="46.1199320" lon="10.5110450">
	<ele>2540.60</ele>
	<time>2023-08-07T08:06:24.000Z</time>
</trkpt>
<trkpt lat="46.1199270" lon="10.5110360">
	<ele>2540.60</ele>
	<time>2023-08-07T08:06:25.000Z</time>
</trkpt>
<trkpt lat="46.1199230" lon="10.5110300">
	<ele>2540.40</ele>
	<time>2023-08-07T08:06:26.000Z</time>
</trkpt>
<trkpt lat="46.1199340" lon="10.5110270">
	<ele>2540.40</ele>
	<time>2023-08-07T08:06:27.000Z</time>
</trkpt>
<trkpt lat="46.1199430" lon="10.5110210">
	<ele>2540.20</ele>
	<time>2023-08-07T08:06:28.000Z</time>
</trkpt>
<trkpt lat="46.1199510" lon="10.5110140">
	<ele>2540.00</ele>
	<time>2023-08-07T08:06:29.000Z</time>
</trkpt>
<trkpt lat="46.1199490" lon="10.5110050">
	<ele>2539.80</ele>
	<time>2023-08-07T08:06:30.000Z</time>
</trkpt>
<trkpt lat="46.1199490" lon="10.5110000">
	<ele>2539.60</ele>
	<time>2023-08-07T08:06:31.000Z</time>
</trkpt>
<trkpt lat="46.1199460" lon="10.5109980">
	<ele>2539.40</ele>
	<time>2023-08-07T08:06:32.000Z</time>
</trkpt>
<trkpt lat="46.1199500" lon="10.5109950">
	<ele>2539.40</ele>
	<time>2023-08-07T08:06:33.000Z</time>
</trkpt>
<trkpt lat="46.1199600" lon="10.5109930">
	<ele>2539.20</ele>
	<time>2023-08-07T08:06:34.000Z</time>
</trkpt>
<trkpt lat="46.1199710" lon="10.5109920">
	<ele>2539.00</ele>
	<time>2023-08-07T08:06:35.000Z</time>
</trkpt>
<trkpt lat="46.1199750" lon="10.5109950">
	<ele>2538.40</ele>
	<time>2023-08-07T08:06:36.000Z</time>
</trkpt>
<trkpt lat="46.1199750" lon="10.5110040">
	<ele>2538.20</ele>
	<time>2023-08-07T08:06:37.000Z</time>
</trkpt>
<trkpt lat="46.1199780" lon="10.5110060">
	<ele>2537.80</ele>
	<time>2023-08-07T08:06:38.000Z</time>
</trkpt>
<trkpt lat="46.1199790" lon="10.5110060">
	<ele>2537.40</ele>
	<time>2023-08-07T08:06:39.000Z</time>
</trkpt>
<trkpt lat="46.1199890" lon="10.5109960">
	<ele>2537.40</ele>
	<time>2023-08-07T08:06:40.000Z</time>
</trkpt>
<trkpt lat="46.1199960" lon="10.5109870">
	<ele>2537.20</ele>
	<time>2023-08-07T08:06:41.000Z</time>
</trkpt>
<trkpt lat="46.1200000" lon="10.5109750">
	<ele>2537.20</ele>
	<time>2023-08-07T08:06:42.000Z</time>
</trkpt>
<trkpt lat="46.1200050" lon="10.5109710">
	<ele>2537.00</ele>
	<time>2023-08-07T08:06:43.000Z</time>
</trkpt>
<trkpt lat="46.1200090" lon="10.5109700">
	<ele>2536.80</ele>
	<time>2023-08-07T08:06:44.000Z</time>
</trkpt>
<trkpt lat="46.1200160" lon="10.5109690">
	<ele>2536.40</ele>
	<time>2023-08-07T08:06:45.000Z</time>
</trkpt>
<trkpt lat="46.1200190" lon="10.5109680">
	<ele>2536.20</ele>
	<time>2023-08-07T08:06:46.000Z</time>
</trkpt>
<trkpt lat="46.1200180" lon="10.5109630">
	<ele>2536.00</ele>
	<time>2023-08-07T08:06:47.000Z</time>
</trkpt>
<trkpt lat="46.1200150" lon="10.5109560">
	<ele>2536.00</ele>
	<time>2023-08-07T08:06:48.000Z</time>
</trkpt>
<trkpt lat="46.1200160" lon="10.5109530">
	<ele>2535.80</ele>
	<time>2023-08-07T08:06:49.000Z</time>
</trkpt>
<trkpt lat="46.1200240" lon="10.5109440">
	<ele>2535.80</ele>
	<time>2023-08-07T08:06:50.000Z</time>
</trkpt>
<trkpt lat="46.1200280" lon="10.5109410">
	<ele>2535.80</ele>
	<time>2023-08-07T08:06:51.000Z</time>
</trkpt>
<trkpt lat="46.1200350" lon="10.5109440">
	<ele>2535.60</ele>
	<time>2023-08-07T08:06:52.000Z</time>
</trkpt>
<trkpt lat="46.1200400" lon="10.5109470">
	<ele>2535.20</ele>
	<time>2023-08-07T08:06:53.000Z</time>
</trkpt>
<trkpt lat="46.1200450" lon="10.5109510">
	<ele>2534.60</ele>
	<time>2023-08-07T08:06:54.000Z</time>
</trkpt>
<trkpt lat="46.1200480" lon="10.5109530">
	<ele>2534.00</ele>
	<time>2023-08-07T08:06:55.000Z</time>
</trkpt>
<trkpt lat="46.1200590" lon="10.5109540">
	<ele>2533.60</ele>
	<time>2023-08-07T08:06:56.000Z</time>
</trkpt>
<trkpt lat="46.1200660" lon="10.5109530">
	<ele>2533.40</ele>
	<time>2023-08-07T08:06:57.000Z</time>
</trkpt>
<trkpt lat="46.1200690" lon="10.5109570">
	<ele>2533.20</ele>
	<time>2023-08-07T08:06:58.000Z</time>
</trkpt>
<trkpt lat="46.1200750" lon="10.5109590">
	<ele>2533.20</ele>
	<time>2023-08-07T08:06:59.000Z</time>
</trkpt>
<trkpt lat="46.1200800" lon="10.5109610">
	<ele>2533.00</ele>
	<time>2023-08-07T08:07:00.000Z</time>
</trkpt>
<trkpt lat="46.1200840" lon="10.5109610">
	<ele>2533.00</ele>
	<time>2023-08-07T08:07:01.000Z</time>
</trkpt>
<trkpt lat="46.1200880" lon="10.5109640">
	<ele>2533.20</ele>
	<time>2023-08-07T08:07:02.000Z</time>
</trkpt>
<trkpt lat="46.1200900" lon="10.5109660">
	<ele>2533.20</ele>
	<time>2023-08-07T08:07:03.000Z</time>
</trkpt>
<trkpt lat="46.1200980" lon="10.5109620">
	<ele>2533.00</ele>
	<time>2023-08-07T08:07:04.000Z</time>
</trkpt>
<trkpt lat="46.1201030" lon="10.5109610">
	<ele>2533.00</ele>
	<time>2023-08-07T08:07:05.000Z</time>
</trkpt>
<trkpt lat="46.1201160" lon="10.5109580">
	<ele>2533.00</ele>
	<time>2023-08-07T08:07:06.000Z</time>
</trkpt>
<trkpt lat="46.1201230" lon="10.5109580">
	<ele>2532.80</ele>
	<time>2023-08-07T08:07:07.000Z</time>
</trkpt>
<trkpt lat="46.1201240" lon="10.5109630">
	<ele>2532.80</ele>
	<time>2023-08-07T08:07:08.000Z</time>
</trkpt>
<trkpt lat="46.1201250" lon="10.5109650">
	<ele>2532.60</ele>
	<time>2023-08-07T08:07:09.000Z</time>
</trkpt>
<trkpt lat="46.1201260" lon="10.5109640">
	<ele>2532.40</ele>
	<time>2023-08-07T08:07:10.000Z</time>
</trkpt>
<trkpt lat="46.1201280" lon="10.5109610">
	<ele>2532.20</ele>
	<time>2023-08-07T08:07:11.000Z</time>
</trkpt>
<trkpt lat="46.1201290" lon="10.5109590">
	<ele>2532.20</ele>
	<time>2023-08-07T08:07:12.000Z</time>
</trkpt>
<trkpt lat="46.1201350" lon="10.5109570">
	<ele>2532.00</ele>
	<time>2023-08-07T08:07:13.000Z</time>
</trkpt>
<trkpt lat="46.1201410" lon="10.5109570">
	<ele>2532.00</ele>
	<time>2023-08-07T08:07:14.000Z</time>
</trkpt>
<trkpt lat="46.1201550" lon="10.5109480">
	<ele>2531.60</ele>
	<time>2023-08-07T08:07:15.000Z</time>
</trkpt>
<trkpt lat="46.1201550" lon="10.5109440">
	<ele>2531.40</ele>
	<time>2023-08-07T08:07:16.000Z</time>
</trkpt>
<trkpt lat="46.1201560" lon="10.5109420">
	<ele>2531.00</ele>
	<time>2023-08-07T08:07:17.000Z</time>
</trkpt>
<trkpt lat="46.1201560" lon="10.5109330">
	<ele>2530.80</ele>
	<time>2023-08-07T08:07:18.000Z</time>
</trkpt>
<trkpt lat="46.1201610" lon="10.5109250">
	<ele>2530.60</ele>
	<time>2023-08-07T08:07:19.000Z</time>
</trkpt>
<trkpt lat="46.1201650" lon="10.5109200">
	<ele>2530.60</ele>
	<time>2023-08-07T08:07:20.000Z</time>
</trkpt>
<trkpt lat="46.1201690" lon="10.5109170">
	<ele>2530.20</ele>
	<time>2023-08-07T08:07:21.000Z</time>
</trkpt>
<trkpt lat="46.1201680" lon="10.5109140">
	<ele>2530.00</ele>
	<time>2023-08-07T08:07:22.000Z</time>
</trkpt>
<trkpt lat="46.1201680" lon="10.5109120">
	<ele>2529.80</ele>
	<time>2023-08-07T08:07:23.000Z</time>
</trkpt>
<trkpt lat="46.1201740" lon="10.5109150">
	<ele>2529.60</ele>
	<time>2023-08-07T08:07:24.000Z</time>
</trkpt>
<trkpt lat="46.1201810" lon="10.5109140">
	<ele>2529.40</ele>
	<time>2023-08-07T08:07:25.000Z</time>
</trkpt>
<trkpt lat="46.1201830" lon="10.5109110">
	<ele>2529.20</ele>
	<time>2023-08-07T08:07:26.000Z</time>
</trkpt>
<trkpt lat="46.1201880" lon="10.5109100">
	<ele>2529.20</ele>
	<time>2023-08-07T08:07:27.000Z</time>
</trkpt>
<trkpt lat="46.1201940" lon="10.5109020">
	<ele>2529.00</ele>
	<time>2023-08-07T08:07:28.000Z</time>
</trkpt>
<trkpt lat="46.1201960" lon="10.5108940">
	<ele>2529.00</ele>
	<time>2023-08-07T08:07:29.000Z</time>
</trkpt>
<trkpt lat="46.1201960" lon="10.5108860">
	<ele>2528.60</ele>
	<time>2023-08-07T08:07:30.000Z</time>
</trkpt>
<trkpt lat="46.1201960" lon="10.5108790">
	<ele>2528.60</ele>
	<time>2023-08-07T08:07:31.000Z</time>
</trkpt>
<trkpt lat="46.1202000" lon="10.5108740">
	<ele>2528.40</ele>
	<time>2023-08-07T08:07:32.000Z</time>
</trkpt>
<trkpt lat="46.1202090" lon="10.5108740">
	<ele>2528.20</ele>
	<time>2023-08-07T08:07:33.000Z</time>
</trkpt>
<trkpt lat="46.1202160" lon="10.5108770">
	<ele>2528.00</ele>
	<time>2023-08-07T08:07:34.000Z</time>
</trkpt>
<trkpt lat="46.1202170" lon="10.5108830">
	<ele>2527.80</ele>
	<time>2023-08-07T08:07:35.000Z</time>
</trkpt>
<trkpt lat="46.1202240" lon="10.5108870">
	<ele>2527.60</ele>
	<time>2023-08-07T08:07:36.000Z</time>
</trkpt>
<trkpt lat="46.1202270" lon="10.5108890">
	<ele>2527.40</ele>
	<time>2023-08-07T08:07:37.000Z</time>
</trkpt>
<trkpt lat="46.1202320" lon="10.5108850">
	<ele>2527.40</ele>
	<time>2023-08-07T08:07:38.000Z</time>
</trkpt>
<trkpt lat="46.1202280" lon="10.5108900">
	<ele>2527.20</ele>
	<time>2023-08-07T08:07:39.000Z</time>
</trkpt>
<trkpt lat="46.1202340" lon="10.5108970">
	<ele>2527.00</ele>
	<time>2023-08-07T08:07:40.000Z</time>
</trkpt>
<trkpt lat="46.1202430" lon="10.5109050">
	<ele>2526.60</ele>
	<time>2023-08-07T08:07:41.000Z</time>
</trkpt>
<trkpt lat="46.1202480" lon="10.5109100">
	<ele>2526.40</ele>
	<time>2023-08-07T08:07:42.000Z</time>
</trkpt>
<trkpt lat="46.1202500" lon="10.5109170">
	<ele>2526.20</ele>
	<time>2023-08-07T08:07:43.000Z</time>
</trkpt>
<trkpt lat="46.1202530" lon="10.5109180">
	<ele>2526.00</ele>
	<time>2023-08-07T08:07:44.000Z</time>
</trkpt>
<trkpt lat="46.1202540" lon="10.5109210">
	<ele>2526.00</ele>
	<time>2023-08-07T08:07:45.000Z</time>
</trkpt>
<trkpt lat="46.1202610" lon="10.5109190">
	<ele>2526.00</ele>
	<time>2023-08-07T08:07:46.000Z</time>
</trkpt>
<trkpt lat="46.1202700" lon="10.5109180">
	<ele>2525.80</ele>
	<time>2023-08-07T08:07:47.000Z</time>
</trkpt>
<trkpt lat="46.1202730" lon="10.5109120">
	<ele>2525.80</ele>
	<time>2023-08-07T08:07:48.000Z</time>
</trkpt>
<trkpt lat="46.1202800" lon="10.5109120">
	<ele>2525.60</ele>
	<time>2023-08-07T08:07:49.000Z</time>
</trkpt>
<trkpt lat="46.1202810" lon="10.5109190">
	<ele>2525.40</ele>
	<time>2023-08-07T08:07:50.000Z</time>
</trkpt>
<trkpt lat="46.1202820" lon="10.5109270">
	<ele>2524.80</ele>
	<time>2023-08-07T08:07:51.000Z</time>
</trkpt>
<trkpt lat="46.1202870" lon="10.5109340">
	<ele>2524.60</ele>
	<time>2023-08-07T08:07:52.000Z</time>
</trkpt>
<trkpt lat="46.1202900" lon="10.5109370">
	<ele>2524.40</ele>
	<time>2023-08-07T08:07:53.000Z</time>
</trkpt>
<trkpt lat="46.1202930" lon="10.5109370">
	<ele>2524.20</ele>
	<time>2023-08-07T08:07:54.000Z</time>
</trkpt>
<trkpt lat="46.1202960" lon="10.5109370">
	<ele>2524.20</ele>
	<time>2023-08-07T08:07:55.000Z</time>
</trkpt>
<trkpt lat="46.1202990" lon="10.5109390">
	<ele>2524.00</ele>
	<time>2023-08-07T08:07:56.000Z</time>
</trkpt>
<trkpt lat="46.1203010" lon="10.5109390">
	<ele>2524.00</ele>
	<time>2023-08-07T08:07:57.000Z</time>
</trkpt>
<trkpt lat="46.1203040" lon="10.5109380">
	<ele>2524.00</ele>
	<time>2023-08-07T08:07:58.000Z</time>
</trkpt>
<trkpt lat="46.1203070" lon="10.5109390">
	<ele>2523.80</ele>
	<time>2023-08-07T08:07:59.000Z</time>
</trkpt>
<trkpt lat="46.1203130" lon="10.5109400">
	<ele>2523.80</ele>
	<time>2023-08-07T08:08:00.000Z</time>
</trkpt>
<trkpt lat="46.1203170" lon="10.5109380">
	<ele>2523.40</ele>
	<time>2023-08-07T08:08:01.000Z</time>
</trkpt>
<trkpt lat="46.1203210" lon="10.5109350">
	<ele>2523.20</ele>
	<time>2023-08-07T08:08:02.000Z</time>
</trkpt>
<trkpt lat="46.1203250" lon="10.5109350">
	<ele>2523.00</ele>
	<time>2023-08-07T08:08:03.000Z</time>
</trkpt>
<trkpt lat="46.1203280" lon="10.5109320">
	<ele>2522.80</ele>
	<time>2023-08-07T08:08:04.000Z</time>
</trkpt>
<trkpt lat="46.1203350" lon="10.5109220">
	<ele>2522.60</ele>
	<time>2023-08-07T08:08:05.000Z</time>
</trkpt>
<trkpt lat="46.1203360" lon="10.5109120">
	<ele>2522.40</ele>
	<time>2023-08-07T08:08:06.000Z</time>
</trkpt>
<trkpt lat="46.1203490" lon="10.5109000">
	<ele>2522.20</ele>
	<time>2023-08-07T08:08:07.000Z</time>
</trkpt>
<trkpt lat="46.1203560" lon="10.5108960">
	<ele>2522.00</ele>
	<time>2023-08-07T08:08:08.000Z</time>
</trkpt>
<trkpt lat="46.1203630" lon="10.5108900">
	<ele>2521.80</ele>
	<time>2023-08-07T08:08:09.000Z</time>
</trkpt>
<trkpt lat="46.1203700" lon="10.5108850">
	<ele>2521.80</ele>
	<time>2023-08-07T08:08:10.000Z</time>
</trkpt>
<trkpt lat="46.1203780" lon="10.5108830">
	<ele>2521.60</ele>
	<time>2023-08-07T08:08:11.000Z</time>
</trkpt>
<trkpt lat="46.1203880" lon="10.5108840">
	<ele>2521.20</ele>
	<time>2023-08-07T08:08:12.000Z</time>
</trkpt>
<trkpt lat="46.1203910" lon="10.5108850">
	<ele>2520.80</ele>
	<time>2023-08-07T08:08:13.000Z</time>
</trkpt>
<trkpt lat="46.1203970" lon="10.5108810">
	<ele>2520.60</ele>
	<time>2023-08-07T08:08:14.000Z</time>
</trkpt>
<trkpt lat="46.1204090" lon="10.5108690">
	<ele>2520.40</ele>
	<time>2023-08-07T08:08:15.000Z</time>
</trkpt>
<trkpt lat="46.1204230" lon="10.5108580">
	<ele>2520.20</ele>
	<time>2023-08-07T08:08:16.000Z</time>
</trkpt>
<trkpt lat="46.1204210" lon="10.5108550">
	<ele>2520.00</ele>
	<time>2023-08-07T08:08:17.000Z</time>
</trkpt>
<trkpt lat="46.1204270" lon="10.5108610">
	<ele>2519.80</ele>
	<time>2023-08-07T08:08:18.000Z</time>
</trkpt>
<trkpt lat="46.1204420" lon="10.5108600">
	<ele>2519.80</ele>
	<time>2023-08-07T08:08:19.000Z</time>
</trkpt>
<trkpt lat="46.1204560" lon="10.5108610">
	<ele>2519.60</ele>
	<time>2023-08-07T08:08:20.000Z</time>
</trkpt>
<trkpt lat="46.1204610" lon="10.5108570">
	<ele>2519.60</ele>
	<time>2023-08-07T08:08:21.000Z</time>
</trkpt>
<trkpt lat="46.1204630" lon="10.5108590">
	<ele>2519.60</ele>
	<time>2023-08-07T08:08:22.000Z</time>
</trkpt>
<trkpt lat="46.1204690" lon="10.5108540">
	<ele>2519.20</ele>
	<time>2023-08-07T08:08:23.000Z</time>
</trkpt>
<trkpt lat="46.1204650" lon="10.5108430">
	<ele>2519.00</ele>
	<time>2023-08-07T08:08:24.000Z</time>
</trkpt>
<trkpt lat="46.1204650" lon="10.5108400">
	<ele>2519.00</ele>
	<time>2023-08-07T08:08:25.000Z</time>
</trkpt>
<trkpt lat="46.1204720" lon="10.5108390">
	<ele>2518.80</ele>
	<time>2023-08-07T08:08:26.000Z</time>
</trkpt>
<trkpt lat="46.1204820" lon="10.5108360">
	<ele>2518.80</ele>
	<time>2023-08-07T08:08:27.000Z</time>
</trkpt>
<trkpt lat="46.1204860" lon="10.5108340">
	<ele>2518.40</ele>
	<time>2023-08-07T08:08:28.000Z</time>
</trkpt>
<trkpt lat="46.1204910" lon="10.5108320">
	<ele>2518.20</ele>
	<time>2023-08-07T08:08:29.000Z</time>
</trkpt>
<trkpt lat="46.1204960" lon="10.5108200">
	<ele>2517.80</ele>
	<time>2023-08-07T08:08:30.000Z</time>
</trkpt>
<trkpt lat="46.1204990" lon="10.5108110">
	<ele>2517.80</ele>
	<time>2023-08-07T08:08:31.000Z</time>
</trkpt>
<trkpt lat="46.1205030" lon="10.5108040">
	<ele>2517.80</ele>
	<time>2023-08-07T08:08:32.000Z</time>
</trkpt>
<trkpt lat="46.1205080" lon="10.5108050">
	<ele>2517.80</ele>
	<time>2023-08-07T08:08:33.000Z</time>
</trkpt>
<trkpt lat="46.1205140" lon="10.5108040">
	<ele>2517.80</ele>
	<time>2023-08-07T08:08:34.000Z</time>
</trkpt>
<trkpt lat="46.1205220" lon="10.5108010">
	<ele>2517.40</ele>
	<time>2023-08-07T08:08:35.000Z</time>
</trkpt>
<trkpt lat="46.1205290" lon="10.5107940">
	<ele>2517.20</ele>
	<time>2023-08-07T08:08:36.000Z</time>
</trkpt>
<trkpt lat="46.1205300" lon="10.5107860">
	<ele>2516.80</ele>
	<time>2023-08-07T08:08:37.000Z</time>
</trkpt>
<trkpt lat="46.1205300" lon="10.5107800">
	<ele>2516.80</ele>
	<time>2023-08-07T08:08:38.000Z</time>
</trkpt>
<trkpt lat="46.1205320" lon="10.5107680">
	<ele>2516.60</ele>
	<time>2023-08-07T08:08:39.000Z</time>
</trkpt>
<trkpt lat="46.1205370" lon="10.5107530">
	<ele>2516.40</ele>
	<time>2023-08-07T08:08:40.000Z</time>
</trkpt>
<trkpt lat="46.1205430" lon="10.5107420">
	<ele>2516.20</ele>
	<time>2023-08-07T08:08:41.000Z</time>
</trkpt>
<trkpt lat="46.1205510" lon="10.5107320">
	<ele>2516.00</ele>
	<time>2023-08-07T08:08:42.000Z</time>
</trkpt>
<trkpt lat="46.1205600" lon="10.5107280">
	<ele>2516.00</ele>
	<time>2023-08-07T08:08:43.000Z</time>
</trkpt>
<trkpt lat="46.1205670" lon="10.5107260">
	<ele>2516.00</ele>
	<time>2023-08-07T08:08:44.000Z</time>
</trkpt>
<trkpt lat="46.1205740" lon="10.5107270">
	<ele>2515.80</ele>
	<time>2023-08-07T08:08:45.000Z</time>
</trkpt>
<trkpt lat="46.1205820" lon="10.5107290">
	<ele>2515.60</ele>
	<time>2023-08-07T08:08:46.000Z</time>
</trkpt>
<trkpt lat="46.1205850" lon="10.5107260">
	<ele>2515.40</ele>
	<time>2023-08-07T08:08:47.000Z</time>
</trkpt>
<trkpt lat="46.1205880" lon="10.5107300">
	<ele>2515.20</ele>
	<time>2023-08-07T08:08:48.000Z</time>
</trkpt>
<trkpt lat="46.1205940" lon="10.5107200">
	<ele>2515.00</ele>
	<time>2023-08-07T08:08:49.000Z</time>
</trkpt>
<trkpt lat="46.1205950" lon="10.5107100">
	<ele>2515.00</ele>
	<time>2023-08-07T08:08:50.000Z</time>
</trkpt>
<trkpt lat="46.1205930" lon="10.5107070">
	<ele>2515.00</ele>
	<time>2023-08-07T08:08:51.000Z</time>
</trkpt>
<trkpt lat="46.1205900" lon="10.5107010">
	<ele>2515.00</ele>
	<time>2023-08-07T08:08:52.000Z</time>
</trkpt>
<trkpt lat="46.1205850" lon="10.5106940">
	<ele>2515.00</ele>
	<time>2023-08-07T08:08:53.000Z</time>
</trkpt>
<trkpt lat="46.1205870" lon="10.5106880">
	<ele>2515.20</ele>
	<time>2023-08-07T08:08:54.000Z</time>
</trkpt>
<trkpt lat="46.1205890" lon="10.5106810">
	<ele>2515.00</ele>
	<time>2023-08-07T08:08:55.000Z</time>
</trkpt>
<trkpt lat="46.1205950" lon="10.5106760">
	<ele>2515.00</ele>
	<time>2023-08-07T08:08:56.000Z</time>
</trkpt>
<trkpt lat="46.1206040" lon="10.5106770">
	<ele>2514.80</ele>
	<time>2023-08-07T08:08:57.000Z</time>
</trkpt>
<trkpt lat="46.1206100" lon="10.5106810">
	<ele>2514.60</ele>
	<time>2023-08-07T08:08:58.000Z</time>
</trkpt>
<trkpt lat="46.1206180" lon="10.5106770">
	<ele>2514.40</ele>
	<time>2023-08-07T08:08:59.000Z</time>
</trkpt>
<trkpt lat="46.1206230" lon="10.5106700">
	<ele>2514.20</ele>
	<time>2023-08-07T08:09:00.000Z</time>
</trkpt>
<trkpt lat="46.1206290" lon="10.5106600">
	<ele>2514.20</ele>
	<time>2023-08-07T08:09:01.000Z</time>
</trkpt>
<trkpt lat="46.1206350" lon="10.5106550">
	<ele>2514.00</ele>
	<time>2023-08-07T08:09:02.000Z</time>
</trkpt>
<trkpt lat="46.1206410" lon="10.5106610">
	<ele>2514.00</ele>
	<time>2023-08-07T08:09:03.000Z</time>
</trkpt>
<trkpt lat="46.1206480" lon="10.5106700">
	<ele>2513.40</ele>
	<time>2023-08-07T08:09:04.000Z</time>
</trkpt>
<trkpt lat="46.1206560" lon="10.5106740">
	<ele>2513.00</ele>
	<time>2023-08-07T08:09:05.000Z</time>
</trkpt>
<trkpt lat="46.1206640" lon="10.5106730">
	<ele>2512.80</ele>
	<time>2023-08-07T08:09:06.000Z</time>
</trkpt>
<trkpt lat="46.1206730" lon="10.5106690">
	<ele>2512.60</ele>
	<time>2023-08-07T08:09:07.000Z</time>
</trkpt>
<trkpt lat="46.1206820" lon="10.5106630">
	<ele>2512.40</ele>
	<time>2023-08-07T08:09:08.000Z</time>
</trkpt>
<trkpt lat="46.1206920" lon="10.5106580">
	<ele>2512.20</ele>
	<time>2023-08-07T08:09:09.000Z</time>
</trkpt>
<trkpt lat="46.1207040" lon="10.5106540">
	<ele>2512.00</ele>
	<time>2023-08-07T08:09:10.000Z</time>
</trkpt>
<trkpt lat="46.1207140" lon="10.5106520">
	<ele>2512.00</ele>
	<time>2023-08-07T08:09:11.000Z</time>
</trkpt>
<trkpt lat="46.1207230" lon="10.5106510">
	<ele>2511.80</ele>
	<time>2023-08-07T08:09:12.000Z</time>
</trkpt>
<trkpt lat="46.1207330" lon="10.5106510">
	<ele>2511.80</ele>
	<time>2023-08-07T08:09:13.000Z</time>
</trkpt>
<trkpt lat="46.1207420" lon="10.5106500">
	<ele>2511.80</ele>
	<time>2023-08-07T08:09:14.000Z</time>
</trkpt>
<trkpt lat="46.1207520" lon="10.5106470">
	<ele>2511.60</ele>
	<time>2023-08-07T08:09:15.000Z</time>
</trkpt>
<trkpt lat="46.1207580" lon="10.5106460">
	<ele>2511.60</ele>
	<time>2023-08-07T08:09:16.000Z</time>
</trkpt>
<trkpt lat="46.1207660" lon="10.5106410">
	<ele>2511.60</ele>
	<time>2023-08-07T08:09:17.000Z</time>
</trkpt>
<trkpt lat="46.1207760" lon="10.5106380">
	<ele>2511.60</ele>
	<time>2023-08-07T08:09:18.000Z</time>
</trkpt>
<trkpt lat="46.1207850" lon="10.5106350">
	<ele>2511.40</ele>
	<time>2023-08-07T08:09:19.000Z</time>
</trkpt>
<trkpt lat="46.1207950" lon="10.5106320">
	<ele>2511.40</ele>
	<time>2023-08-07T08:09:20.000Z</time>
</trkpt>
<trkpt lat="46.1208030" lon="10.5106340">
	<ele>2511.20</ele>
	<time>2023-08-07T08:09:21.000Z</time>
</trkpt>
<trkpt lat="46.1208080" lon="10.5106330">
	<ele>2511.00</ele>
	<time>2023-08-07T08:09:22.000Z</time>
</trkpt>
<trkpt lat="46.1208120" lon="10.5106270">
	<ele>2511.00</ele>
	<time>2023-08-07T08:09:23.000Z</time>
</trkpt>
<trkpt lat="46.1208130" lon="10.5106190">
	<ele>2510.80</ele>
	<time>2023-08-07T08:09:24.000Z</time>
</trkpt>
<trkpt lat="46.1208160" lon="10.5106100">
	<ele>2510.60</ele>
	<time>2023-08-07T08:09:25.000Z</time>
</trkpt>
<trkpt lat="46.1208240" lon="10.5106020">
	<ele>2510.20</ele>
	<time>2023-08-07T08:09:26.000Z</time>
</trkpt>
<trkpt lat="46.1208320" lon="10.5105920">
	<ele>2510.00</ele>
	<time>2023-08-07T08:09:27.000Z</time>
</trkpt>
<trkpt lat="46.1208410" lon="10.5105810">
	<ele>2509.80</ele>
	<time>2023-08-07T08:09:28.000Z</time>
</trkpt>
<trkpt lat="46.1208500" lon="10.5105680">
	<ele>2509.80</ele>
	<time>2023-08-07T08:09:29.000Z</time>
</trkpt>
<trkpt lat="46.1208580" lon="10.5105570">
	<ele>2509.60</ele>
	<time>2023-08-07T08:09:30.000Z</time>
</trkpt>
<trkpt lat="46.1208640" lon="10.5105500">
	<ele>2509.60</ele>
	<time>2023-08-07T08:09:31.000Z</time>
</trkpt>
<trkpt lat="46.1208680" lon="10.5105420">
	<ele>2509.40</ele>
	<time>2023-08-07T08:09:32.000Z</time>
</trkpt>
<trkpt lat="46.1208720" lon="10.5105380">
	<ele>2509.40</ele>
	<time>2023-08-07T08:09:33.000Z</time>
</trkpt>
<trkpt lat="46.1208810" lon="10.5105400">
	<ele>2509.40</ele>
	<time>2023-08-07T08:09:34.000Z</time>
</trkpt>
<trkpt lat="46.1208850" lon="10.5105430">
	<ele>2509.20</ele>
	<time>2023-08-07T08:09:35.000Z</time>
</trkpt>
<trkpt lat="46.1208870" lon="10.5105480">
	<ele>2509.00</ele>
	<time>2023-08-07T08:09:36.000Z</time>
</trkpt>
<trkpt lat="46.1208890" lon="10.5105500">
	<ele>2508.80</ele>
	<time>2023-08-07T08:09:37.000Z</time>
</trkpt>
<trkpt lat="46.1208930" lon="10.5105530">
	<ele>2508.60</ele>
	<time>2023-08-07T08:09:38.000Z</time>
</trkpt>
<trkpt lat="46.1208960" lon="10.5105530">
	<ele>2508.60</ele>
	<time>2023-08-07T08:09:39.000Z</time>
</trkpt>
<trkpt lat="46.1209000" lon="10.5105510">
	<ele>2508.60</ele>
	<time>2023-08-07T08:09:40.000Z</time>
</trkpt>
<trkpt lat="46.1209040" lon="10.5105530">
	<ele>2508.60</ele>
	<time>2023-08-07T08:09:41.000Z</time>
</trkpt>
<trkpt lat="46.1209070" lon="10.5105530">
	<ele>2508.40</ele>
	<time>2023-08-07T08:09:42.000Z</time>
</trkpt>
<trkpt lat="46.1209170" lon="10.5105610">
	<ele>2508.40</ele>
	<time>2023-08-07T08:09:43.000Z</time>
</trkpt>
<trkpt lat="46.1209230" lon="10.5105700">
	<ele>2508.20</ele>
	<time>2023-08-07T08:09:44.000Z</time>
</trkpt>
<trkpt lat="46.1209280" lon="10.5105740">
	<ele>2507.80</ele>
	<time>2023-08-07T08:09:45.000Z</time>
</trkpt>
<trkpt lat="46.1209300" lon="10.5105770">
	<ele>2507.80</ele>
	<time>2023-08-07T08:09:46.000Z</time>
</trkpt>
<trkpt lat="46.1209370" lon="10.5105780">
	<ele>2507.60</ele>
	<time>2023-08-07T08:09:47.000Z</time>
</trkpt>
<trkpt lat="46.1209440" lon="10.5105770">
	<ele>2507.60</ele>
	<time>2023-08-07T08:09:48.000Z</time>
</trkpt>
<trkpt lat="46.1209520" lon="10.5105780">
	<ele>2507.40</ele>
	<time>2023-08-07T08:09:49.000Z</time>
</trkpt>
<trkpt lat="46.1209580" lon="10.5105810">
	<ele>2507.00</ele>
	<time>2023-08-07T08:09:50.000Z</time>
</trkpt>
<trkpt lat="46.1209640" lon="10.5105840">
	<ele>2506.60</ele>
	<time>2023-08-07T08:09:51.000Z</time>
</trkpt>
<trkpt lat="46.1209660" lon="10.5105880">
	<ele>2506.40</ele>
	<time>2023-08-07T08:09:52.000Z</time>
</trkpt>
<trkpt lat="46.1209680" lon="10.5105880">
	<ele>2506.20</ele>
	<time>2023-08-07T08:09:53.000Z</time>
</trkpt>
<trkpt lat="46.1209730" lon="10.5105880">
	<ele>2506.00</ele>
	<time>2023-08-07T08:09:54.000Z</time>
</trkpt>
<trkpt lat="46.1209800" lon="10.5105860">
	<ele>2505.80</ele>
	<time>2023-08-07T08:09:55.000Z</time>
</trkpt>
<trkpt lat="46.1209860" lon="10.5105840">
	<ele>2505.80</ele>
	<time>2023-08-07T08:09:56.000Z</time>
</trkpt>
<trkpt lat="46.1209930" lon="10.5105870">
	<ele>2505.80</ele>
	<time>2023-08-07T08:09:57.000Z</time>
</trkpt>
<trkpt lat="46.1210010" lon="10.5105870">
	<ele>2505.40</ele>
	<time>2023-08-07T08:09:58.000Z</time>
</trkpt>
<trkpt lat="46.1210080" lon="10.5105850">
	<ele>2505.20</ele>
	<time>2023-08-07T08:09:59.000Z</time>
</trkpt>
<trkpt lat="46.1210130" lon="10.5105820">
	<ele>2505.00</ele>
	<time>2023-08-07T08:10:00.000Z</time>
</trkpt>
<trkpt lat="46.1210200" lon="10.5105800">
	<ele>2505.00</ele>
	<time>2023-08-07T08:10:01.000Z</time>
</trkpt>
<trkpt lat="46.1210250" lon="10.5105810">
	<ele>2505.00</ele>
	<time>2023-08-07T08:10:02.000Z</time>
</trkpt>
<trkpt lat="46.1210330" lon="10.5105820">
	<ele>2504.80</ele>
	<time>2023-08-07T08:10:03.000Z</time>
</trkpt>
<trkpt lat="46.1210390" lon="10.5105810">
	<ele>2504.80</ele>
	<time>2023-08-07T08:10:04.000Z</time>
</trkpt>
<trkpt lat="46.1210450" lon="10.5105820">
	<ele>2504.60</ele>
	<time>2023-08-07T08:10:05.000Z</time>
</trkpt>
<trkpt lat="46.1210510" lon="10.5105790">
	<ele>2504.40</ele>
	<time>2023-08-07T08:10:06.000Z</time>
</trkpt>
<trkpt lat="46.1210560" lon="10.5105750">
	<ele>2504.40</ele>
	<time>2023-08-07T08:10:07.000Z</time>
</trkpt>
<trkpt lat="46.1210600" lon="10.5105690">
	<ele>2504.20</ele>
	<time>2023-08-07T08:10:08.000Z</time>
</trkpt>
<trkpt lat="46.1210620" lon="10.5105610">
	<ele>2504.20</ele>
	<time>2023-08-07T08:10:09.000Z</time>
</trkpt>
<trkpt lat="46.1210670" lon="10.5105540">
	<ele>2504.00</ele>
	<time>2023-08-07T08:10:10.000Z</time>
</trkpt>
<trkpt lat="46.1210750" lon="10.5105510">
	<ele>2503.80</ele>
	<time>2023-08-07T08:10:11.000Z</time>
</trkpt>
<trkpt lat="46.1210820" lon="10.5105500">
	<ele>2503.80</ele>
	<time>2023-08-07T08:10:12.000Z</time>
</trkpt>
<trkpt lat="46.1210850" lon="10.5105590">
	<ele>2503.60</ele>
	<time>2023-08-07T08:10:13.000Z</time>
</trkpt>
<trkpt lat="46.1210850" lon="10.5105720">
	<ele>2503.20</ele>
	<time>2023-08-07T08:10:14.000Z</time>
</trkpt>
<trkpt lat="46.1210880" lon="10.5105830">
	<ele>2502.60</ele>
	<time>2023-08-07T08:10:15.000Z</time>
</trkpt>
<trkpt lat="46.1210910" lon="10.5105970">
	<ele>2502.00</ele>
	<time>2023-08-07T08:10:16.000Z</time>
</trkpt>
<trkpt lat="46.1210940" lon="10.5106050">
	<ele>2501.60</ele>
	<time>2023-08-07T08:10:17.000Z</time>
</trkpt>
<trkpt lat="46.1210990" lon="10.5106130">
	<ele>2501.40</ele>
	<time>2023-08-07T08:10:18.000Z</time>
</trkpt>
<trkpt lat="46.1211050" lon="10.5106190">
	<ele>2501.20</ele>
	<time>2023-08-07T08:10:19.000Z</time>
</trkpt>
<trkpt lat="46.1211070" lon="10.5106260">
	<ele>2501.20</ele>
	<time>2023-08-07T08:10:20.000Z</time>
</trkpt>
<trkpt lat="46.1211100" lon="10.5106340">
	<ele>2501.00</ele>
	<time>2023-08-07T08:10:21.000Z</time>
</trkpt>
<trkpt lat="46.1211130" lon="10.5106400">
	<ele>2501.00</ele>
	<time>2023-08-07T08:10:22.000Z</time>
</trkpt>
<trkpt lat="46.1211150" lon="10.5106450">
	<ele>2501.00</ele>
	<time>2023-08-07T08:10:23.000Z</time>
</trkpt>
<trkpt lat="46.1211200" lon="10.5106450">
	<ele>2500.80</ele>
	<time>2023-08-07T08:10:24.000Z</time>
</trkpt>
<trkpt lat="46.1211230" lon="10.5106440">
	<ele>2500.60</ele>
	<time>2023-08-07T08:10:25.000Z</time>
</trkpt>
<trkpt lat="46.1211290" lon="10.5106420">
	<ele>2500.40</ele>
	<time>2023-08-07T08:10:26.000Z</time>
</trkpt>
<trkpt lat="46.1211370" lon="10.5106380">
	<ele>2500.20</ele>
	<time>2023-08-07T08:10:27.000Z</time>
</trkpt>
<trkpt lat="46.1211440" lon="10.5106390">
	<ele>2500.00</ele>
	<time>2023-08-07T08:10:28.000Z</time>
</trkpt>
<trkpt lat="46.1211470" lon="10.5106420">
	<ele>2499.80</ele>
	<time>2023-08-07T08:10:29.000Z</time>
</trkpt>
<trkpt lat="46.1211520" lon="10.5106460">
	<ele>2499.60</ele>
	<time>2023-08-07T08:10:30.000Z</time>
</trkpt>
<trkpt lat="46.1211560" lon="10.5106490">
	<ele>2499.60</ele>
	<time>2023-08-07T08:10:31.000Z</time>
</trkpt>
<trkpt lat="46.1211610" lon="10.5106500">
	<ele>2499.40</ele>
	<time>2023-08-07T08:10:32.000Z</time>
</trkpt>
<trkpt lat="46.1211640" lon="10.5106460">
	<ele>2499.40</ele>
	<time>2023-08-07T08:10:33.000Z</time>
</trkpt>
<trkpt lat="46.1211710" lon="10.5106410">
	<ele>2499.20</ele>
	<time>2023-08-07T08:10:34.000Z</time>
</trkpt>
<trkpt lat="46.1211750" lon="10.5106360">
	<ele>2499.00</ele>
	<time>2023-08-07T08:10:35.000Z</time>
</trkpt>
<trkpt lat="46.1211780" lon="10.5106340">
	<ele>2498.60</ele>
	<time>2023-08-07T08:10:36.000Z</time>
</trkpt>
<trkpt lat="46.1211800" lon="10.5106300">
	<ele>2498.60</ele>
	<time>2023-08-07T08:10:37.000Z</time>
</trkpt>
<trkpt lat="46.1211780" lon="10.5106220">
	<ele>2498.40</ele>
	<time>2023-08-07T08:10:38.000Z</time>
</trkpt>
<trkpt lat="46.1211780" lon="10.5106080">
	<ele>2498.20</ele>
	<time>2023-08-07T08:10:39.000Z</time>
</trkpt>
<trkpt lat="46.1211790" lon="10.5105950">
	<ele>2498.00</ele>
	<time>2023-08-07T08:10:40.000Z</time>
</trkpt>
<trkpt lat="46.1211840" lon="10.5105870">
	<ele>2497.80</ele>
	<time>2023-08-07T08:10:41.000Z</time>
</trkpt>
<trkpt lat="46.1211910" lon="10.5105820">
	<ele>2497.80</ele>
	<time>2023-08-07T08:10:42.000Z</time>
</trkpt>
<trkpt lat="46.1211980" lon="10.5105820">
	<ele>2497.60</ele>
	<time>2023-08-07T08:10:43.000Z</time>
</trkpt>
<trkpt lat="46.1212050" lon="10.5105790">
	<ele>2497.40</ele>
	<time>2023-08-07T08:10:44.000Z</time>
</trkpt>
<trkpt lat="46.1212120" lon="10.5105780">
	<ele>2497.20</ele>
	<time>2023-08-07T08:10:45.000Z</time>
</trkpt>
<trkpt lat="46.1212200" lon="10.5105790">
	<ele>2497.00</ele>
	<time>2023-08-07T08:10:46.000Z</time>
</trkpt>
<trkpt lat="46.1212270" lon="10.5105820">
	<ele>2497.00</ele>
	<time>2023-08-07T08:10:47.000Z</time>
</trkpt>
<trkpt lat="46.1212340" lon="10.5105820">
	<ele>2496.80</ele>
	<time>2023-08-07T08:10:48.000Z</time>
</trkpt>
<trkpt lat="46.1212390" lon="10.5105830">
	<ele>2496.80</ele>
	<time>2023-08-07T08:10:49.000Z</time>
</trkpt>
<trkpt lat="46.1212480" lon="10.5105870">
	<ele>2496.60</ele>
	<time>2023-08-07T08:10:50.000Z</time>
</trkpt>
<trkpt lat="46.1212530" lon="10.5105880">
	<ele>2496.60</ele>
	<time>2023-08-07T08:10:51.000Z</time>
</trkpt>
<trkpt lat="46.1212590" lon="10.5105900">
	<ele>2496.60</ele>
	<time>2023-08-07T08:10:52.000Z</time>
</trkpt>
<trkpt lat="46.1212630" lon="10.5105910">
	<ele>2496.60</ele>
	<time>2023-08-07T08:10:53.000Z</time>
</trkpt>
<trkpt lat="46.1212670" lon="10.5105910">
	<ele>2496.40</ele>
	<time>2023-08-07T08:10:54.000Z</time>
</trkpt>
<trkpt lat="46.1212740" lon="10.5105910">
	<ele>2496.20</ele>
	<time>2023-08-07T08:10:55.000Z</time>
</trkpt>
<trkpt lat="46.1212780" lon="10.5105870">
	<ele>2496.00</ele>
	<time>2023-08-07T08:10:56.000Z</time>
</trkpt>
<trkpt lat="46.1212850" lon="10.5105790">
	<ele>2495.80</ele>
	<time>2023-08-07T08:10:57.000Z</time>
</trkpt>
<trkpt lat="46.1212910" lon="10.5105780">
	<ele>2495.60</ele>
	<time>2023-08-07T08:10:58.000Z</time>
</trkpt>
<trkpt lat="46.1212960" lon="10.5105790">
	<ele>2495.40</ele>
	<time>2023-08-07T08:10:59.000Z</time>
</trkpt>
<trkpt lat="46.1213000" lon="10.5105830">
	<ele>2495.20</ele>
	<time>2023-08-07T08:11:00.000Z</time>
</trkpt>
<trkpt lat="46.1213030" lon="10.5105840">
	<ele>2495.00</ele>
	<time>2023-08-07T08:11:01.000Z</time>
</trkpt>
<trkpt lat="46.1213090" lon="10.5105800">
	<ele>2495.00</ele>
	<time>2023-08-07T08:11:02.000Z</time>
</trkpt>
<trkpt lat="46.1213170" lon="10.5105800">
	<ele>2494.40</ele>
	<time>2023-08-07T08:11:03.000Z</time>
</trkpt>
<trkpt lat="46.1213230" lon="10.5105810">
	<ele>2494.20</ele>
	<time>2023-08-07T08:11:04.000Z</time>
</trkpt>
<trkpt lat="46.1213300" lon="10.5105820">
	<ele>2494.00</ele>
	<time>2023-08-07T08:11:05.000Z</time>
</trkpt>
<trkpt lat="46.1213380" lon="10.5105850">
	<ele>2493.80</ele>
	<time>2023-08-07T08:11:06.000Z</time>
</trkpt>
<trkpt lat="46.1213400" lon="10.5105860">
	<ele>2493.60</ele>
	<time>2023-08-07T08:11:07.000Z</time>
</trkpt>
<trkpt lat="46.1213420" lon="10.5105860">
	<ele>2493.20</ele>
	<time>2023-08-07T08:11:08.000Z</time>
</trkpt>
<trkpt lat="46.1213450" lon="10.5105850">
	<ele>2493.20</ele>
	<time>2023-08-07T08:11:09.000Z</time>
</trkpt>
<trkpt lat="46.1213450" lon="10.5105820">
	<ele>2493.00</ele>
	<time>2023-08-07T08:11:10.000Z</time>
</trkpt>
<trkpt lat="46.1213450" lon="10.5105760">
	<ele>2493.00</ele>
	<time>2023-08-07T08:11:11.000Z</time>
</trkpt>
<trkpt lat="46.1213480" lon="10.5105670">
	<ele>2493.00</ele>
	<time>2023-08-07T08:11:12.000Z</time>
</trkpt>
<trkpt lat="46.1213520" lon="10.5105580">
	<ele>2492.80</ele>
	<time>2023-08-07T08:11:13.000Z</time>
</trkpt>
<trkpt lat="46.1213560" lon="10.5105540">
	<ele>2492.40</ele>
	<time>2023-08-07T08:11:14.000Z</time>
</trkpt>
<trkpt lat="46.1213600" lon="10.5105540">
	<ele>2492.20</ele>
	<time>2023-08-07T08:11:15.000Z</time>
</trkpt>
<trkpt lat="46.1213640" lon="10.5105530">
	<ele>2491.80</ele>
	<time>2023-08-07T08:11:16.000Z</time>
</trkpt>
<trkpt lat="46.1213680" lon="10.5105510">
	<ele>2491.40</ele>
	<time>2023-08-07T08:11:17.000Z</time>
</trkpt>
<trkpt lat="46.1213730" lon="10.5105480">
	<ele>2491.40</ele>
	<time>2023-08-07T08:11:18.000Z</time>
</trkpt>
<trkpt lat="46.1213750" lon="10.5105450">
	<ele>2491.20</ele>
	<time>2023-08-07T08:11:19.000Z</time>
</trkpt>
<trkpt lat="46.1213790" lon="10.5105370">
	<ele>2491.00</ele>
	<time>2023-08-07T08:11:20.000Z</time>
</trkpt>
<trkpt lat="46.1213820" lon="10.5105300">
	<ele>2490.80</ele>
	<time>2023-08-07T08:11:21.000Z</time>
</trkpt>
<trkpt lat="46.1213850" lon="10.5105270">
	<ele>2490.60</ele>
	<time>2023-08-07T08:11:22.000Z</time>
</trkpt>
<trkpt lat="46.1213880" lon="10.5105260">
	<ele>2490.40</ele>
	<time>2023-08-07T08:11:23.000Z</time>
</trkpt>
<trkpt lat="46.1213920" lon="10.5105260">
	<ele>2490.20</ele>
	<time>2023-08-07T08:11:24.000Z</time>
</trkpt>
<trkpt lat="46.1213970" lon="10.5105190">
	<ele>2490.00</ele>
	<time>2023-08-07T08:11:25.000Z</time>
</trkpt>
<trkpt lat="46.1214000" lon="10.5105120">
	<ele>2489.80</ele>
	<time>2023-08-07T08:11:26.000Z</time>
</trkpt>
<trkpt lat="46.1214040" lon="10.5105050">
	<ele>2489.60</ele>
	<time>2023-08-07T08:11:27.000Z</time>
</trkpt>
<trkpt lat="46.1214070" lon="10.5105000">
	<ele>2489.40</ele>
	<time>2023-08-07T08:11:28.000Z</time>
</trkpt>
<trkpt lat="46.1214080" lon="10.5104950">
	<ele>2489.40</ele>
	<time>2023-08-07T08:11:29.000Z</time>
</trkpt>
<trkpt lat="46.1214080" lon="10.5104900">
	<ele>2489.20</ele>
	<time>2023-08-07T08:11:30.000Z</time>
</trkpt>
<trkpt lat="46.1214090" lon="10.5104850">
	<ele>2489.00</ele>
	<time>2023-08-07T08:11:31.000Z</time>
</trkpt>
<trkpt lat="46.1214110" lon="10.5104760">
	<ele>2489.00</ele>
	<time>2023-08-07T08:11:32.000Z</time>
</trkpt>
<trkpt lat="46.1214150" lon="10.5104710">
	<ele>2488.80</ele>
	<time>2023-08-07T08:11:33.000Z</time>
</trkpt>
<trkpt lat="46.1214210" lon="10.5104710">
	<ele>2488.60</ele>
	<time>2023-08-07T08:11:34.000Z</time>
</trkpt>
<trkpt lat="46.1214250" lon="10.5104690">
	<ele>2488.60</ele>
	<time>2023-08-07T08:11:35.000Z</time>
</trkpt>
<trkpt lat="46.1214330" lon="10.5104690">
	<ele>2488.40</ele>
	<time>2023-08-07T08:11:36.000Z</time>
</trkpt>
<trkpt lat="46.1214420" lon="10.5104690">
	<ele>2488.20</ele>
	<time>2023-08-07T08:11:37.000Z</time>
</trkpt>
<trkpt lat="46.1214500" lon="10.5104630">
	<ele>2488.00</ele>
	<time>2023-08-07T08:11:38.000Z</time>
</trkpt>
<trkpt lat="46.1214560" lon="10.5104570">
	<ele>2487.60</ele>
	<time>2023-08-07T08:11:39.000Z</time>
</trkpt>
<trkpt lat="46.1214610" lon="10.5104510">
	<ele>2487.40</ele>
	<time>2023-08-07T08:11:40.000Z</time>
</trkpt>
<trkpt lat="46.1214690" lon="10.5104460">
	<ele>2487.20</ele>
	<time>2023-08-07T08:11:41.000Z</time>
</trkpt>
<trkpt lat="46.1214760" lon="10.5104450">
	<ele>2487.00</ele>
	<time>2023-08-07T08:11:42.000Z</time>
</trkpt>
<trkpt lat="46.1214770" lon="10.5104440">
	<ele>2486.80</ele>
	<time>2023-08-07T08:11:43.000Z</time>
</trkpt>
<trkpt lat="46.1214800" lon="10.5104440">
	<ele>2486.40</ele>
	<time>2023-08-07T08:11:44.000Z</time>
</trkpt>
<trkpt lat="46.1214830" lon="10.5104440">
	<ele>2486.20</ele>
	<time>2023-08-07T08:11:45.000Z</time>
</trkpt>
<trkpt lat="46.1214860" lon="10.5104440">
	<ele>2486.00</ele>
	<time>2023-08-07T08:11:46.000Z</time>
</trkpt>
<trkpt lat="46.1214930" lon="10.5104440">
	<ele>2485.80</ele>
	<time>2023-08-07T08:11:47.000Z</time>
</trkpt>
<trkpt lat="46.1214990" lon="10.5104420">
	<ele>2485.40</ele>
	<time>2023-08-07T08:11:48.000Z</time>
</trkpt>
<trkpt lat="46.1215030" lon="10.5104400">
	<ele>2485.20</ele>
	<time>2023-08-07T08:11:49.000Z</time>
</trkpt>
<trkpt lat="46.1215070" lon="10.5104420">
	<ele>2485.00</ele>
	<time>2023-08-07T08:11:50.000Z</time>
</trkpt>
<trkpt lat="46.1215110" lon="10.5104460">
	<ele>2485.00</ele>
	<time>2023-08-07T08:11:51.000Z</time>
</trkpt>
<trkpt lat="46.1215180" lon="10.5104480">
	<ele>2484.60</ele>
	<time>2023-08-07T08:11:52.000Z</time>
</trkpt>
<trkpt lat="46.1215260" lon="10.5104500">
	<ele>2484.40</ele>
	<time>2023-08-07T08:11:53.000Z</time>
</trkpt>
<trkpt lat="46.1215340" lon="10.5104500">
	<ele>2484.00</ele>
	<time>2023-08-07T08:11:54.000Z</time>
</trkpt>
<trkpt lat="46.1215410" lon="10.5104510">
	<ele>2483.80</ele>
	<time>2023-08-07T08:11:55.000Z</time>
</trkpt>
<trkpt lat="46.1215510" lon="10.5104520">
	<ele>2483.40</ele>
	<time>2023-08-07T08:11:56.000Z</time>
</trkpt>
<trkpt lat="46.1215560" lon="10.5104550">
	<ele>2483.20</ele>
	<time>2023-08-07T08:11:57.000Z</time>
</trkpt>
<trkpt lat="46.1215590" lon="10.5104640">
	<ele>2483.00</ele>
	<time>2023-08-07T08:11:58.000Z</time>
</trkpt>
<trkpt lat="46.1215630" lon="10.5104680">
	<ele>2482.80</ele>
	<time>2023-08-07T08:11:59.000Z</time>
</trkpt>
<trkpt lat="46.1215720" lon="10.5104670">
	<ele>2482.60</ele>
	<time>2023-08-07T08:12:00.000Z</time>
</trkpt>
<trkpt lat="46.1215790" lon="10.5104650">
	<ele>2482.40</ele>
	<time>2023-08-07T08:12:01.000Z</time>
</trkpt>
<trkpt lat="46.1215870" lon="10.5104610">
	<ele>2482.20</ele>
	<time>2023-08-07T08:12:02.000Z</time>
</trkpt>
<trkpt lat="46.1215920" lon="10.5104570">
	<ele>2481.80</ele>
	<time>2023-08-07T08:12:03.000Z</time>
</trkpt>
<trkpt lat="46.1215970" lon="10.5104580">
	<ele>2481.80</ele>
	<time>2023-08-07T08:12:04.000Z</time>
</trkpt>
<trkpt lat="46.1216050" lon="10.5104560">
	<ele>2481.60</ele>
	<time>2023-08-07T08:12:05.000Z</time>
</trkpt>
<trkpt lat="46.1216120" lon="10.5104520">
	<ele>2481.40</ele>
	<time>2023-08-07T08:12:06.000Z</time>
</trkpt>
<trkpt lat="46.1216200" lon="10.5104490">
	<ele>2481.20</ele>
	<time>2023-08-07T08:12:07.000Z</time>
</trkpt>
<trkpt lat="46.1216280" lon="10.5104450">
	<ele>2480.80</ele>
	<time>2023-08-07T08:12:08.000Z</time>
</trkpt>
<trkpt lat="46.1216350" lon="10.5104400">
	<ele>2480.40</ele>
	<time>2023-08-07T08:12:09.000Z</time>
</trkpt>
<trkpt lat="46.1216410" lon="10.5104380">
	<ele>2480.20</ele>
	<time>2023-08-07T08:12:10.000Z</time>
</trkpt>
<trkpt lat="46.1216490" lon="10.5104400">
	<ele>2480.00</ele>
	<time>2023-08-07T08:12:11.000Z</time>
</trkpt>
<trkpt lat="46.1216550" lon="10.5104380">
	<ele>2479.80</ele>
	<time>2023-08-07T08:12:12.000Z</time>
</trkpt>
<trkpt lat="46.1216600" lon="10.5104380">
	<ele>2479.40</ele>
	<time>2023-08-07T08:12:13.000Z</time>
</trkpt>
<trkpt lat="46.1216630" lon="10.5104350">
	<ele>2479.20</ele>
	<time>2023-08-07T08:12:14.000Z</time>
</trkpt>
<trkpt lat="46.1216690" lon="10.5104280">
	<ele>2479.20</ele>
	<time>2023-08-07T08:12:15.000Z</time>
</trkpt>
<trkpt lat="46.1216770" lon="10.5104200">
	<ele>2479.00</ele>
	<time>2023-08-07T08:12:16.000Z</time>
</trkpt>
<trkpt lat="46.1216830" lon="10.5104190">
	<ele>2478.80</ele>
	<time>2023-08-07T08:12:17.000Z</time>
</trkpt>
<trkpt lat="46.1216900" lon="10.5104160">
	<ele>2478.60</ele>
	<time>2023-08-07T08:12:18.000Z</time>
</trkpt>
<trkpt lat="46.1216990" lon="10.5104140">
	<ele>2478.60</ele>
	<time>2023-08-07T08:12:19.000Z</time>
</trkpt>
<trkpt lat="46.1217080" lon="10.5104130">
	<ele>2478.40</ele>
	<time>2023-08-07T08:12:20.000Z</time>
</trkpt>
<trkpt lat="46.1217130" lon="10.5104110">
	<ele>2478.00</ele>
	<time>2023-08-07T08:12:21.000Z</time>
</trkpt>
<trkpt lat="46.1217150" lon="10.5104080">
	<ele>2477.80</ele>
	<time>2023-08-07T08:12:22.000Z</time>
</trkpt>
<trkpt lat="46.1217140" lon="10.5104070">
	<ele>2477.60</ele>
	<time>2023-08-07T08:12:23.000Z</time>
</trkpt>
<trkpt lat="46.1217130" lon="10.5104090">
	<ele>2477.40</ele>
	<time>2023-08-07T08:12:24.000Z</time>
</trkpt>
<trkpt lat="46.1217130" lon="10.5104080">
	<ele>2477.20</ele>
	<time>2023-08-07T08:12:25.000Z</time>
</trkpt>
<trkpt lat="46.1217180" lon="10.5104040">
	<ele>2477.20</ele>
	<time>2023-08-07T08:12:26.000Z</time>
</trkpt>
<trkpt lat="46.1217260" lon="10.5103960">
	<ele>2477.00</ele>
	<time>2023-08-07T08:12:27.000Z</time>
</trkpt>
<trkpt lat="46.1217360" lon="10.5103890">
	<ele>2476.60</ele>
	<time>2023-08-07T08:12:28.000Z</time>
</trkpt>
<trkpt lat="46.1217460" lon="10.5103830">
	<ele>2476.40</ele>
	<time>2023-08-07T08:12:29.000Z</time>
</trkpt>
<trkpt lat="46.1217550" lon="10.5103790">
	<ele>2476.00</ele>
	<time>2023-08-07T08:12:30.000Z</time>
</trkpt>
<trkpt lat="46.1217630" lon="10.5103760">
	<ele>2475.80</ele>
	<time>2023-08-07T08:12:31.000Z</time>
</trkpt>
<trkpt lat="46.1217660" lon="10.5103760">
	<ele>2475.80</ele>
	<time>2023-08-07T08:12:32.000Z</time>
</trkpt>
<trkpt lat="46.1217700" lon="10.5103750">
	<ele>2475.60</ele>
	<time>2023-08-07T08:12:33.000Z</time>
</trkpt>
<trkpt lat="46.1217700" lon="10.5103800">
	<ele>2475.40</ele>
	<time>2023-08-07T08:12:34.000Z</time>
</trkpt>
<trkpt lat="46.1217720" lon="10.5103850">
	<ele>2475.20</ele>
	<time>2023-08-07T08:12:35.000Z</time>
</trkpt>
<trkpt lat="46.1217740" lon="10.5103880">
	<ele>2475.00</ele>
	<time>2023-08-07T08:12:36.000Z</time>
</trkpt>
<trkpt lat="46.1217720" lon="10.5103950">
	<ele>2475.00</ele>
	<time>2023-08-07T08:12:37.000Z</time>
</trkpt>
<trkpt lat="46.1217760" lon="10.5103900">
	<ele>2474.80</ele>
	<time>2023-08-07T08:12:38.000Z</time>
</trkpt>
<trkpt lat="46.1217790" lon="10.5103910">
	<ele>2474.20</ele>
	<time>2023-08-07T08:12:39.000Z</time>
</trkpt>
<trkpt lat="46.1217810" lon="10.5103890">
	<ele>2474.00</ele>
	<time>2023-08-07T08:12:40.000Z</time>
</trkpt>
<trkpt lat="46.1217880" lon="10.5103790">
	<ele>2473.80</ele>
	<time>2023-08-07T08:12:41.000Z</time>
</trkpt>
<trkpt lat="46.1217920" lon="10.5103730">
	<ele>2473.40</ele>
	<time>2023-08-07T08:12:42.000Z</time>
</trkpt>
<trkpt lat="46.1218010" lon="10.5103650">
	<ele>2473.20</ele>
	<time>2023-08-07T08:12:43.000Z</time>
</trkpt>
<trkpt lat="46.1218030" lon="10.5103640">
	<ele>2473.00</ele>
	<time>2023-08-07T08:12:44.000Z</time>
</trkpt>
<trkpt lat="46.1218090" lon="10.5103610">
	<ele>2473.00</ele>
	<time>2023-08-07T08:12:45.000Z</time>
</trkpt>
<trkpt lat="46.1218120" lon="10.5103610">
	<ele>2472.80</ele>
	<time>2023-08-07T08:12:46.000Z</time>
</trkpt>
<trkpt lat="46.1218190" lon="10.5103610">
	<ele>2472.80</ele>
	<time>2023-08-07T08:12:47.000Z</time>
</trkpt>
<trkpt lat="46.1218250" lon="10.5103640">
	<ele>2472.80</ele>
	<time>2023-08-07T08:12:48.000Z</time>
</trkpt>
<trkpt lat="46.1218300" lon="10.5103700">
	<ele>2472.60</ele>
	<time>2023-08-07T08:12:49.000Z</time>
</trkpt>
<trkpt lat="46.1218310" lon="10.5103790">
	<ele>2472.40</ele>
	<time>2023-08-07T08:12:50.000Z</time>
</trkpt>
<trkpt lat="46.1218410" lon="10.5103820">
	<ele>2472.20</ele>
	<time>2023-08-07T08:12:51.000Z</time>
</trkpt>
<trkpt lat="46.1218470" lon="10.5103860">
	<ele>2472.00</ele>
	<time>2023-08-07T08:12:52.000Z</time>
</trkpt>
<trkpt lat="46.1218510" lon="10.5103930">
	<ele>2471.80</ele>
	<time>2023-08-07T08:12:53.000Z</time>
</trkpt>
<trkpt lat="46.1218530" lon="10.5103990">
	<ele>2471.60</ele>
	<time>2023-08-07T08:12:54.000Z</time>
</trkpt>
<trkpt lat="46.1218560" lon="10.5104010">
	<ele>2471.20</ele>
	<time>2023-08-07T08:12:55.000Z</time>
</trkpt>
<trkpt lat="46.1218610" lon="10.5104000">
	<ele>2471.00</ele>
	<time>2023-08-07T08:12:56.000Z</time>
</trkpt>
<trkpt lat="46.1218660" lon="10.5103960">
	<ele>2470.80</ele>
	<time>2023-08-07T08:12:57.000Z</time>
</trkpt>
<trkpt lat="46.1218680" lon="10.5103940">
	<ele>2470.80</ele>
	<time>2023-08-07T08:12:58.000Z</time>
</trkpt>
<trkpt lat="46.1218730" lon="10.5103960">
	<ele>2470.80</ele>
	<time>2023-08-07T08:12:59.000Z</time>
</trkpt>
<trkpt lat="46.1218820" lon="10.5103980">
	<ele>2470.60</ele>
	<time>2023-08-07T08:13:00.000Z</time>
</trkpt>
<trkpt lat="46.1218900" lon="10.5104030">
	<ele>2470.60</ele>
	<time>2023-08-07T08:13:01.000Z</time>
</trkpt>
<trkpt lat="46.1218930" lon="10.5104080">
	<ele>2470.20</ele>
	<time>2023-08-07T08:13:02.000Z</time>
</trkpt>
<trkpt lat="46.1218940" lon="10.5104170">
	<ele>2469.80</ele>
	<time>2023-08-07T08:13:03.000Z</time>
</trkpt>
<trkpt lat="46.1218950" lon="10.5104240">
	<ele>2469.60</ele>
	<time>2023-08-07T08:13:04.000Z</time>
</trkpt>
<trkpt lat="46.1218950" lon="10.5104310">
	<ele>2469.40</ele>
	<time>2023-08-07T08:13:05.000Z</time>
</trkpt>
<trkpt lat="46.1218950" lon="10.5104430">
	<ele>2469.20</ele>
	<time>2023-08-07T08:13:06.000Z</time>
</trkpt>
<trkpt lat="46.1218980" lon="10.5104470">
	<ele>2469.00</ele>
	<time>2023-08-07T08:13:07.000Z</time>
</trkpt>
<trkpt lat="46.1219020" lon="10.5104460">
	<ele>2468.80</ele>
	<time>2023-08-07T08:13:08.000Z</time>
</trkpt>
<trkpt lat="46.1219060" lon="10.5104430">
	<ele>2468.60</ele>
	<time>2023-08-07T08:13:09.000Z</time>
</trkpt>
<trkpt lat="46.1219150" lon="10.5104430">
	<ele>2468.60</ele>
	<time>2023-08-07T08:13:10.000Z</time>
</trkpt>
<trkpt lat="46.1219240" lon="10.5104430">
	<ele>2468.40</ele>
	<time>2023-08-07T08:13:11.000Z</time>
</trkpt>
<trkpt lat="46.1219360" lon="10.5104420">
	<ele>2468.20</ele>
	<time>2023-08-07T08:13:12.000Z</time>
</trkpt>
<trkpt lat="46.1219480" lon="10.5104340">
	<ele>2468.00</ele>
	<time>2023-08-07T08:13:13.000Z</time>
</trkpt>
<trkpt lat="46.1219570" lon="10.5104280">
	<ele>2467.80</ele>
	<time>2023-08-07T08:13:14.000Z</time>
</trkpt>
<trkpt lat="46.1219630" lon="10.5104310">
	<ele>2467.60</ele>
	<time>2023-08-07T08:13:15.000Z</time>
</trkpt>
<trkpt lat="46.1219680" lon="10.5104350">
	<ele>2467.40</ele>
	<time>2023-08-07T08:13:16.000Z</time>
</trkpt>
<trkpt lat="46.1219740" lon="10.5104340">
	<ele>2467.20</ele>
	<time>2023-08-07T08:13:17.000Z</time>
</trkpt>
<trkpt lat="46.1219860" lon="10.5104300">
	<ele>2467.00</ele>
	<time>2023-08-07T08:13:18.000Z</time>
</trkpt>
<trkpt lat="46.1219940" lon="10.5104280">
	<ele>2466.60</ele>
	<time>2023-08-07T08:13:19.000Z</time>
</trkpt>
<trkpt lat="46.1220020" lon="10.5104270">
	<ele>2466.40</ele>
	<time>2023-08-07T08:13:20.000Z</time>
</trkpt>
<trkpt lat="46.1220140" lon="10.5104260">
	<ele>2466.20</ele>
	<time>2023-08-07T08:13:21.000Z</time>
</trkpt>
<trkpt lat="46.1220210" lon="10.5104270">
	<ele>2465.80</ele>
	<time>2023-08-07T08:13:22.000Z</time>
</trkpt>
<trkpt lat="46.1220240" lon="10.5104300">
	<ele>2465.80</ele>
	<time>2023-08-07T08:13:23.000Z</time>
</trkpt>
<trkpt lat="46.1220250" lon="10.5104260">
	<ele>2465.60</ele>
	<time>2023-08-07T08:13:24.000Z</time>
</trkpt>
<trkpt lat="46.1220230" lon="10.5104210">
	<ele>2465.20</ele>
	<time>2023-08-07T08:13:25.000Z</time>
</trkpt>
<trkpt lat="46.1220240" lon="10.5104140">
	<ele>2465.20</ele>
	<time>2023-08-07T08:13:26.000Z</time>
</trkpt>
<trkpt lat="46.1220250" lon="10.5104040">
	<ele>2465.00</ele>
	<time>2023-08-07T08:13:27.000Z</time>
</trkpt>
<trkpt lat="46.1220250" lon="10.5103960">
	<ele>2465.00</ele>
	<time>2023-08-07T08:13:28.000Z</time>
</trkpt>
<trkpt lat="46.1220270" lon="10.5103890">
	<ele>2464.80</ele>
	<time>2023-08-07T08:13:29.000Z</time>
</trkpt>
<trkpt lat="46.1220330" lon="10.5103840">
	<ele>2464.60</ele>
	<time>2023-08-07T08:13:30.000Z</time>
</trkpt>
<trkpt lat="46.1220400" lon="10.5103800">
	<ele>2464.40</ele>
	<time>2023-08-07T08:13:31.000Z</time>
</trkpt>
<trkpt lat="46.1220450" lon="10.5103810">
	<ele>2464.20</ele>
	<time>2023-08-07T08:13:32.000Z</time>
</trkpt>
<trkpt lat="46.1220490" lon="10.5103780">
	<ele>2464.00</ele>
	<time>2023-08-07T08:13:33.000Z</time>
</trkpt>
<trkpt lat="46.1220530" lon="10.5103760">
	<ele>2463.80</ele>
	<time>2023-08-07T08:13:34.000Z</time>
</trkpt>
<trkpt lat="46.1220560" lon="10.5103740">
	<ele>2463.60</ele>
	<time>2023-08-07T08:13:35.000Z</time>
</trkpt>
<trkpt lat="46.1220590" lon="10.5103740">
	<ele>2463.40</ele>
	<time>2023-08-07T08:13:36.000Z</time>
</trkpt>
<trkpt lat="46.1220610" lon="10.5103740">
	<ele>2463.40</ele>
	<time>2023-08-07T08:13:37.000Z</time>
</trkpt>
<trkpt lat="46.1220630" lon="10.5103730">
	<ele>2463.20</ele>
	<time>2023-08-07T08:13:38.000Z</time>
</trkpt>
<trkpt lat="46.1220670" lon="10.5103730">
	<ele>2462.80</ele>
	<time>2023-08-07T08:13:39.000Z</time>
</trkpt>
<trkpt lat="46.1220710" lon="10.5103720">
	<ele>2462.60</ele>
	<time>2023-08-07T08:13:40.000Z</time>
</trkpt>
<trkpt lat="46.1220720" lon="10.5103710">
	<ele>2462.40</ele>
	<time>2023-08-07T08:13:41.000Z</time>
</trkpt>
<trkpt lat="46.1220770" lon="10.5103670">
	<ele>2462.20</ele>
	<time>2023-08-07T08:13:42.000Z</time>
</trkpt>
<trkpt lat="46.1220810" lon="10.5103680">
	<ele>2462.20</ele>
	<time>2023-08-07T08:13:43.000Z</time>
</trkpt>
<trkpt lat="46.1220850" lon="10.5103700">
	<ele>2462.00</ele>
	<time>2023-08-07T08:13:44.000Z</time>
</trkpt>
<trkpt lat="46.1220940" lon="10.5103700">
	<ele>2461.40</ele>
	<time>2023-08-07T08:13:45.000Z</time>
</trkpt>
<trkpt lat="46.1220970" lon="10.5103690">
	<ele>2461.20</ele>
	<time>2023-08-07T08:13:46.000Z</time>
</trkpt>
<trkpt lat="46.1221020" lon="10.5103690">
	<ele>2461.00</ele>
	<time>2023-08-07T08:13:47.000Z</time>
</trkpt>
<trkpt lat="46.1221130" lon="10.5103630">
	<ele>2460.80</ele>
	<time>2023-08-07T08:13:48.000Z</time>
</trkpt>
<trkpt lat="46.1221260" lon="10.5103620">
	<ele>2460.60</ele>
	<time>2023-08-07T08:13:49.000Z</time>
</trkpt>
<trkpt lat="46.1221310" lon="10.5103610">
	<ele>2460.40</ele>
	<time>2023-08-07T08:13:50.000Z</time>
</trkpt>
<trkpt lat="46.1221360" lon="10.5103640">
	<ele>2460.40</ele>
	<time>2023-08-07T08:13:51.000Z</time>
</trkpt>
<trkpt lat="46.1221440" lon="10.5103680">
	<ele>2460.00</ele>
	<time>2023-08-07T08:13:52.000Z</time>
</trkpt>
<trkpt lat="46.1221550" lon="10.5103720">
	<ele>2459.80</ele>
	<time>2023-08-07T08:13:53.000Z</time>
</trkpt>
<trkpt lat="46.1221610" lon="10.5103730">
	<ele>2459.40</ele>
	<time>2023-08-07T08:13:54.000Z</time>
</trkpt>
<trkpt lat="46.1221680" lon="10.5103730">
	<ele>2459.20</ele>
	<time>2023-08-07T08:13:55.000Z</time>
</trkpt>
<trkpt lat="46.1221810" lon="10.5103690">
	<ele>2459.00</ele>
	<time>2023-08-07T08:13:56.000Z</time>
</trkpt>
<trkpt lat="46.1221930" lon="10.5103650">
	<ele>2458.80</ele>
	<time>2023-08-07T08:13:57.000Z</time>
</trkpt>
<trkpt lat="46.1222060" lon="10.5103570">
	<ele>2458.80</ele>
	<time>2023-08-07T08:13:58.000Z</time>
</trkpt>
<trkpt lat="46.1222180" lon="10.5103450">
	<ele>2458.60</ele>
	<time>2023-08-07T08:13:59.000Z</time>
</trkpt>
<trkpt lat="46.1222210" lon="10.5103410">
	<ele>2458.40</ele>
	<time>2023-08-07T08:14:00.000Z</time>
</trkpt>
<trkpt lat="46.1222260" lon="10.5103340">
	<ele>2458.40</ele>
	<time>2023-08-07T08:14:01.000Z</time>
</trkpt>
<trkpt lat="46.1222350" lon="10.5103310">
	<ele>2458.40</ele>
	<time>2023-08-07T08:14:02.000Z</time>
</trkpt>
<trkpt lat="46.1222420" lon="10.5103300">
	<ele>2458.20</ele>
	<time>2023-08-07T08:14:03.000Z</time>
</trkpt>
<trkpt lat="46.1222470" lon="10.5103250">
	<ele>2458.20</ele>
	<time>2023-08-07T08:14:04.000Z</time>
</trkpt>
<trkpt lat="46.1222560" lon="10.5103160">
	<ele>2458.20</ele>
	<time>2023-08-07T08:14:05.000Z</time>
</trkpt>
<trkpt lat="46.1222640" lon="10.5103090">
	<ele>2458.20</ele>
	<time>2023-08-07T08:14:06.000Z</time>
</trkpt>
<trkpt lat="46.1222700" lon="10.5102980">
	<ele>2458.20</ele>
	<time>2023-08-07T08:14:07.000Z</time>
</trkpt>
<trkpt lat="46.1222740" lon="10.5102900">
	<ele>2458.40</ele>
	<time>2023-08-07T08:14:08.000Z</time>
</trkpt>
<trkpt lat="46.1222800" lon="10.5102860">
	<ele>2458.40</ele>
	<time>2023-08-07T08:14:09.000Z</time>
</trkpt>
<trkpt lat="46.1222870" lon="10.5102830">
	<ele>2458.40</ele>
	<time>2023-08-07T08:14:10.000Z</time>
</trkpt>
<trkpt lat="46.1222940" lon="10.5102830">
	<ele>2458.20</ele>
	<time>2023-08-07T08:14:11.000Z</time>
</trkpt>
<trkpt lat="46.1223010" lon="10.5102860">
	<ele>2457.60</ele>
	<time>2023-08-07T08:14:12.000Z</time>
</trkpt>
<trkpt lat="46.1223050" lon="10.5102910">
	<ele>2457.40</ele>
	<time>2023-08-07T08:14:13.000Z</time>
</trkpt>
<trkpt lat="46.1223030" lon="10.5102990">
	<ele>2457.00</ele>
	<time>2023-08-07T08:14:14.000Z</time>
</trkpt>
<trkpt lat="46.1223120" lon="10.5103000">
	<ele>2456.80</ele>
	<time>2023-08-07T08:14:15.000Z</time>
</trkpt>
<trkpt lat="46.1223220" lon="10.5103010">
	<ele>2456.60</ele>
	<time>2023-08-07T08:14:16.000Z</time>
</trkpt>
<trkpt lat="46.1223310" lon="10.5103050">
	<ele>2456.40</ele>
	<time>2023-08-07T08:14:17.000Z</time>
</trkpt>
<trkpt lat="46.1223350" lon="10.5103130">
	<ele>2456.40</ele>
	<time>2023-08-07T08:14:18.000Z</time>
</trkpt>
<trkpt lat="46.1223380" lon="10.5103190">
	<ele>2456.00</ele>
	<time>2023-08-07T08:14:19.000Z</time>
</trkpt>
<trkpt lat="46.1223390" lon="10.5103230">
	<ele>2456.00</ele>
	<time>2023-08-07T08:14:20.000Z</time>
</trkpt>
<trkpt lat="46.1223420" lon="10.5103260">
	<ele>2455.60</ele>
	<time>2023-08-07T08:14:21.000Z</time>
</trkpt>
<trkpt lat="46.1223460" lon="10.5103280">
	<ele>2455.40</ele>
	<time>2023-08-07T08:14:22.000Z</time>
</trkpt>
<trkpt lat="46.1223520" lon="10.5103240">
	<ele>2455.40</ele>
	<time>2023-08-07T08:14:23.000Z</time>
</trkpt>
<trkpt lat="46.1223580" lon="10.5103200">
	<ele>2455.20</ele>
	<time>2023-08-07T08:14:24.000Z</time>
</trkpt>
<trkpt lat="46.1223630" lon="10.5103180">
	<ele>2455.20</ele>
	<time>2023-08-07T08:14:25.000Z</time>
</trkpt>
<trkpt lat="46.1223670" lon="10.5103150">
	<ele>2455.20</ele>
	<time>2023-08-07T08:14:26.000Z</time>
</trkpt>
<trkpt lat="46.1223720" lon="10.5103120">
	<ele>2455.20</ele>
	<time>2023-08-07T08:14:27.000Z</time>
</trkpt>
<trkpt lat="46.1223800" lon="10.5103130">
	<ele>2455.20</ele>
	<time>2023-08-07T08:14:28.000Z</time>
</trkpt>
<trkpt lat="46.1223870" lon="10.5103200">
	<ele>2454.60</ele>
	<time>2023-08-07T08:14:29.000Z</time>
</trkpt>
<trkpt lat="46.1223890" lon="10.5103270">
	<ele>2453.40</ele>
	<time>2023-08-07T08:14:30.000Z</time>
</trkpt>
<trkpt lat="46.1223900" lon="10.5103330">
	<ele>2452.80</ele>
	<time>2023-08-07T08:14:31.000Z</time>
</trkpt>
<trkpt lat="46.1223920" lon="10.5103370">
	<ele>2452.20</ele>
	<time>2023-08-07T08:14:32.000Z</time>
</trkpt>
<trkpt lat="46.1223960" lon="10.5103430">
	<ele>2451.80</ele>
	<time>2023-08-07T08:14:33.000Z</time>
</trkpt>
<trkpt lat="46.1224040" lon="10.5103450">
	<ele>2451.60</ele>
	<time>2023-08-07T08:14:34.000Z</time>
</trkpt>
<trkpt lat="46.1224090" lon="10.5103480">
	<ele>2451.60</ele>
	<time>2023-08-07T08:14:35.000Z</time>
</trkpt>
<trkpt lat="46.1224130" lon="10.5103510">
	<ele>2451.60</ele>
	<time>2023-08-07T08:14:36.000Z</time>
</trkpt>
<trkpt lat="46.1224190" lon="10.5103520">
	<ele>2451.60</ele>
	<time>2023-08-07T08:14:37.000Z</time>
</trkpt>
<trkpt lat="46.1224280" lon="10.5103510">
	<ele>2451.40</ele>
	<time>2023-08-07T08:14:38.000Z</time>
</trkpt>
<trkpt lat="46.1224340" lon="10.5103490">
	<ele>2451.40</ele>
	<time>2023-08-07T08:14:39.000Z</time>
</trkpt>
<trkpt lat="46.1224390" lon="10.5103510">
	<ele>2451.40</ele>
	<time>2023-08-07T08:14:40.000Z</time>
</trkpt>
<trkpt lat="46.1224440" lon="10.5103540">
	<ele>2451.40</ele>
	<time>2023-08-07T08:14:41.000Z</time>
</trkpt>
<trkpt lat="46.1224500" lon="10.5103580">
	<ele>2451.00</ele>
	<time>2023-08-07T08:14:42.000Z</time>
</trkpt>
<trkpt lat="46.1224570" lon="10.5103570">
	<ele>2450.40</ele>
	<time>2023-08-07T08:14:43.000Z</time>
</trkpt>
<trkpt lat="46.1224620" lon="10.5103590">
	<ele>2450.00</ele>
	<time>2023-08-07T08:14:44.000Z</time>
</trkpt>
<trkpt lat="46.1224690" lon="10.5103650">
	<ele>2449.80</ele>
	<time>2023-08-07T08:14:45.000Z</time>
</trkpt>
<trkpt lat="46.1224750" lon="10.5103710">
	<ele>2449.60</ele>
	<time>2023-08-07T08:14:46.000Z</time>
</trkpt>
<trkpt lat="46.1224820" lon="10.5103790">
	<ele>2448.80</ele>
	<time>2023-08-07T08:14:47.000Z</time>
</trkpt>
<trkpt lat="46.1224910" lon="10.5103870">
	<ele>2448.40</ele>
	<time>2023-08-07T08:14:48.000Z</time>
</trkpt>
<trkpt lat="46.1225010" lon="10.5103940">
	<ele>2448.20</ele>
	<time>2023-08-07T08:14:49.000Z</time>
</trkpt>
<trkpt lat="46.1225080" lon="10.5104040">
	<ele>2448.20</ele>
	<time>2023-08-07T08:14:50.000Z</time>
</trkpt>
<trkpt lat="46.1225180" lon="10.5104150">
	<ele>2448.00</ele>
	<time>2023-08-07T08:14:51.000Z</time>
</trkpt>
<trkpt lat="46.1225250" lon="10.5104270">
	<ele>2448.00</ele>
	<time>2023-08-07T08:14:52.000Z</time>
</trkpt>
<trkpt lat="46.1225280" lon="10.5104390">
	<ele>2448.20</ele>
	<time>2023-08-07T08:14:53.000Z</time>
</trkpt>
<trkpt lat="46.1225350" lon="10.5104460">
	<ele>2448.40</ele>
	<time>2023-08-07T08:14:54.000Z</time>
</trkpt>
<trkpt lat="46.1225440" lon="10.5104500">
	<ele>2448.40</ele>
	<time>2023-08-07T08:14:55.000Z</time>
</trkpt>
<trkpt lat="46.1225540" lon="10.5104540">
	<ele>2448.60</ele>
	<time>2023-08-07T08:14:56.000Z</time>
</trkpt>
<trkpt lat="46.1225640" lon="10.5104560">
	<ele>2448.60</ele>
	<time>2023-08-07T08:14:57.000Z</time>
</trkpt>
<trkpt lat="46.1225750" lon="10.5104560">
	<ele>2448.60</ele>
	<time>2023-08-07T08:14:58.000Z</time>
</trkpt>
<trkpt lat="46.1225850" lon="10.5104590">
	<ele>2448.40</ele>
	<time>2023-08-07T08:14:59.000Z</time>
</trkpt>
<trkpt lat="46.1225970" lon="10.5104630">
	<ele>2448.20</ele>
	<time>2023-08-07T08:15:00.000Z</time>
</trkpt>
<trkpt lat="46.1226060" lon="10.5104690">
	<ele>2448.00</ele>
	<time>2023-08-07T08:15:01.000Z</time>
</trkpt>
<trkpt lat="46.1226160" lon="10.5104710">
	<ele>2447.80</ele>
	<time>2023-08-07T08:15:02.000Z</time>
</trkpt>
<trkpt lat="46.1226230" lon="10.5104700">
	<ele>2447.80</ele>
	<time>2023-08-07T08:15:03.000Z</time>
</trkpt>
<trkpt lat="46.1226310" lon="10.5104730">
	<ele>2447.60</ele>
	<time>2023-08-07T08:15:04.000Z</time>
</trkpt>
<trkpt lat="46.1226360" lon="10.5104760">
	<ele>2447.40</ele>
	<time>2023-08-07T08:15:05.000Z</time>
</trkpt>
<trkpt lat="46.1226420" lon="10.5104790">
	<ele>2447.40</ele>
	<time>2023-08-07T08:15:06.000Z</time>
</trkpt>
<trkpt lat="46.1226500" lon="10.5104800">
	<ele>2447.20</ele>
	<time>2023-08-07T08:15:07.000Z</time>
</trkpt>
<trkpt lat="46.1226560" lon="10.5104840">
	<ele>2447.00</ele>
	<time>2023-08-07T08:15:08.000Z</time>
</trkpt>
<trkpt lat="46.1226630" lon="10.5104930">
	<ele>2446.60</ele>
	<time>2023-08-07T08:15:09.000Z</time>
</trkpt>
<trkpt lat="46.1226720" lon="10.5105020">
	<ele>2446.20</ele>
	<time>2023-08-07T08:15:10.000Z</time>
</trkpt>
<trkpt lat="46.1226820" lon="10.5105110">
	<ele>2446.00</ele>
	<time>2023-08-07T08:15:11.000Z</time>
</trkpt>
<trkpt lat="46.1226870" lon="10.5105220">
	<ele>2446.00</ele>
	<time>2023-08-07T08:15:12.000Z</time>
</trkpt>
<trkpt lat="46.1226940" lon="10.5105300">
	<ele>2445.80</ele>
	<time>2023-08-07T08:15:13.000Z</time>
</trkpt>
<trkpt lat="46.1227040" lon="10.5105410">
	<ele>2445.60</ele>
	<time>2023-08-07T08:15:14.000Z</time>
</trkpt>
<trkpt lat="46.1227110" lon="10.5105520">
	<ele>2445.80</ele>
	<time>2023-08-07T08:15:15.000Z</time>
</trkpt>
<trkpt lat="46.1227150" lon="10.5105600">
	<ele>2445.80</ele>
	<time>2023-08-07T08:15:16.000Z</time>
</trkpt>
<trkpt lat="46.1227150" lon="10.5105730">
	<ele>2445.80</ele>
	<time>2023-08-07T08:15:17.000Z</time>
</trkpt>
<trkpt lat="46.1227140" lon="10.5105890">
	<ele>2445.60</ele>
	<time>2023-08-07T08:15:18.000Z</time>
</trkpt>
<trkpt lat="46.1227160" lon="10.5106010">
	<ele>2445.40</ele>
	<time>2023-08-07T08:15:19.000Z</time>
</trkpt>
<trkpt lat="46.1227190" lon="10.5106100">
	<ele>2445.20</ele>
	<time>2023-08-07T08:15:20.000Z</time>
</trkpt>
<trkpt lat="46.1227220" lon="10.5106190">
	<ele>2445.20</ele>
	<time>2023-08-07T08:15:21.000Z</time>
</trkpt>
<trkpt lat="46.1227280" lon="10.5106250">
	<ele>2445.20</ele>
	<time>2023-08-07T08:15:22.000Z</time>
</trkpt>
<trkpt lat="46.1227350" lon="10.5106270">
	<ele>2445.20</ele>
	<time>2023-08-07T08:15:23.000Z</time>
</trkpt>
<trkpt lat="46.1227450" lon="10.5106240">
	<ele>2445.60</ele>
	<time>2023-08-07T08:15:24.000Z</time>
</trkpt>
<trkpt lat="46.1227500" lon="10.5106280">
	<ele>2445.80</ele>
	<time>2023-08-07T08:15:25.000Z</time>
</trkpt>
<trkpt lat="46.1227570" lon="10.5106290">
	<ele>2446.00</ele>
	<time>2023-08-07T08:15:26.000Z</time>
</trkpt>
<trkpt lat="46.1227610" lon="10.5106320">
	<ele>2446.20</ele>
	<time>2023-08-07T08:15:27.000Z</time>
</trkpt>
<trkpt lat="46.1227640" lon="10.5106340">
	<ele>2446.60</ele>
	<time>2023-08-07T08:15:28.000Z</time>
</trkpt>
<trkpt lat="46.1227650" lon="10.5106350">
	<ele>2446.80</ele>
	<time>2023-08-07T08:15:29.000Z</time>
</trkpt>
<trkpt lat="46.1227640" lon="10.5106350">
	<ele>2446.80</ele>
	<time>2023-08-07T08:15:30.000Z</time>
</trkpt>
<trkpt lat="46.1227630" lon="10.5106340">
	<ele>2447.00</ele>
	<time>2023-08-07T08:15:31.000Z</time>
</trkpt>
<trkpt lat="46.1227650" lon="10.5106320">
	<ele>2447.00</ele>
	<time>2023-08-07T08:15:32.000Z</time>
</trkpt>
<trkpt lat="46.1227680" lon="10.5106310">
	<ele>2447.00</ele>
	<time>2023-08-07T08:15:33.000Z</time>
</trkpt>
<trkpt lat="46.1227760" lon="10.5106370">
	<ele>2447.00</ele>
	<time>2023-08-07T08:15:34.000Z</time>
</trkpt>
<trkpt lat="46.1227850" lon="10.5106460">
	<ele>2446.60</ele>
	<time>2023-08-07T08:15:35.000Z</time>
</trkpt>
<trkpt lat="46.1227930" lon="10.5106480">
	<ele>2446.40</ele>
	<time>2023-08-07T08:15:36.000Z</time>
</trkpt>
<trkpt lat="46.1227960" lon="10.5106480">
	<ele>2446.20</ele>
	<time>2023-08-07T08:15:37.000Z</time>
</trkpt>
<trkpt lat="46.1227990" lon="10.5106500">
	<ele>2446.20</ele>
	<time>2023-08-07T08:15:38.000Z</time>
</trkpt>
<trkpt lat="46.1228000" lon="10.5106490">
	<ele>2446.00</ele>
	<time>2023-08-07T08:15:39.000Z</time>
</trkpt>
<trkpt lat="46.1228010" lon="10.5106500">
	<ele>2446.20</ele>
	<time>2023-08-07T08:15:40.000Z</time>
</trkpt>
<trkpt lat="46.1228010" lon="10.5106520">
	<ele>2446.20</ele>
	<time>2023-08-07T08:15:41.000Z</time>
</trkpt>
<trkpt lat="46.1228000" lon="10.5106540">
	<ele>2446.20</ele>
	<time>2023-08-07T08:15:42.000Z</time>
</trkpt>
<trkpt lat="46.1228010" lon="10.5106550">
	<ele>2446.20</ele>
	<time>2023-08-07T08:15:43.000Z</time>
</trkpt>
<trkpt lat="46.1227990" lon="10.5106580">
	<ele>2446.20</ele>
	<time>2023-08-07T08:15:44.000Z</time>
</trkpt>
<trkpt lat="46.1227970" lon="10.5106630">
	<ele>2446.40</ele>
	<time>2023-08-07T08:15:45.000Z</time>
</trkpt>
<trkpt lat="46.1227970" lon="10.5106630">
	<ele>2446.60</ele>
	<time>2023-08-07T08:15:46.000Z</time>
</trkpt>
<trkpt lat="46.1227960" lon="10.5106630">
	<ele>2446.60</ele>
	<time>2023-08-07T08:15:47.000Z</time>
</trkpt>
<trkpt lat="46.1227960" lon="10.5106630">
	<ele>2446.80</ele>
	<time>2023-08-07T08:15:48.000Z</time>
</trkpt>
<trkpt lat="46.1227960" lon="10.5106630">
	<ele>2446.80</ele>
	<time>2023-08-07T08:15:49.000Z</time>
</trkpt>
<trkpt lat="46.1227960" lon="10.5106630">
	<ele>2446.80</ele>
	<time>2023-08-07T08:15:50.000Z</time>
</trkpt>
<trkpt lat="46.1227960" lon="10.5106630">
	<ele>2446.60</ele>
	<time>2023-08-07T08:15:51.000Z</time>
</trkpt>
<trkpt lat="46.1227960" lon="10.5106630">
	<ele>2446.40</ele>
	<time>2023-08-07T08:15:52.000Z</time>
</trkpt>
<trkpt lat="46.1227960" lon="10.5106630">
	<ele>2446.40</ele>
	<time>2023-08-07T08:15:53.000Z</time>
</trkpt>
<trkpt lat="46.1227960" lon="10.5106630">
	<ele>2446.40</ele>
	<time>2023-08-07T08:15:54.000Z</time>
</trkpt>
<trkpt lat="46.1227960" lon="10.5106630">
	<ele>2446.00</ele>
	<time>2023-08-07T08:15:55.000Z</time>
</trkpt>
<trkpt lat="46.1227960" lon="10.5106630">
	<ele>2445.80</ele>
	<time>2023-08-07T08:15:56.000Z</time>
</trkpt>
<trkpt lat="46.1227960" lon="10.5106630">
	<ele>2445.60</ele>
	<time>2023-08-07T08:15:57.000Z</time>
</trkpt>
<trkpt lat="46.1227960" lon="10.5106630">
	<ele>2445.40</ele>
	<time>2023-08-07T08:15:58.000Z</time>
</trkpt>
<trkpt lat="46.1227960" lon="10.5106630">
	<ele>2445.00</ele>
	<time>2023-08-07T08:15:59.000Z</time>
</trkpt>
<trkpt lat="46.1227960" lon="10.5106630">
	<ele>2445.20</ele>
	<time>2023-08-07T08:16:00.000Z</time>
</trkpt>
<trkpt lat="46.1227960" lon="10.5106630">
	<ele>2445.20</ele>
	<time>2023-08-07T08:16:01.000Z</time>
</trkpt>
<trkpt lat="46.1227960" lon="10.5106630">
	<ele>2445.20</ele>
	<time>2023-08-07T08:16:02.000Z</time>
</trkpt>
<trkpt lat="46.1227960" lon="10.5106630">
	<ele>2445.20</ele>
	<time>2023-08-07T08:16:03.000Z</time>
</trkpt>
<trkpt lat="46.1227960" lon="10.5106640">
	<ele>2446.00</ele>
	<time>2023-08-07T08:16:04.000Z</time>
</trkpt>
<trkpt lat="46.1227960" lon="10.5106640">
	<ele>2446.20</ele>
	<time>2023-08-07T08:16:05.000Z</time>
</trkpt>
<trkpt lat="46.1227960" lon="10.5106640">
	<ele>2446.20</ele>
	<time>2023-08-07T08:16:06.000Z</time>
</trkpt>
<trkpt lat="46.1227960" lon="10.5106650">
	<ele>2446.20</ele>
	<time>2023-08-07T08:16:07.000Z</time>
</trkpt>
<trkpt lat="46.1227960" lon="10.5106650">
	<ele>2445.80</ele>
	<time>2023-08-07T08:16:08.000Z</time>
</trkpt>
<trkpt lat="46.1227960" lon="10.5106650">
	<ele>2445.60</ele>
	<time>2023-08-07T08:16:09.000Z</time>
</trkpt>
<trkpt lat="46.1227960" lon="10.5106650">
	<ele>2445.40</ele>
	<time>2023-08-07T08:16:10.000Z</time>
</trkpt>
<trkpt lat="46.1227960" lon="10.5106650">
	<ele>2445.40</ele>
	<time>2023-08-07T08:16:11.000Z</time>
</trkpt>
<trkpt lat="46.1227960" lon="10.5106650">
	<ele>2445.40</ele>
	<time>2023-08-07T08:16:12.000Z</time>
</trkpt>
<trkpt lat="46.1227960" lon="10.5106660">
	<ele>2446.00</ele>
	<time>2023-08-07T08:16:13.000Z</time>
</trkpt>
<trkpt lat="46.1227960" lon="10.5106660">
	<ele>2446.20</ele>
	<time>2023-08-07T08:16:14.000Z</time>
</trkpt>
<trkpt lat="46.1227960" lon="10.5106670">
	<ele>2446.40</ele>
	<time>2023-08-07T08:16:15.000Z</time>
</trkpt>
<trkpt lat="46.1227960" lon="10.5106670">
	<ele>2446.80</ele>
	<time>2023-08-07T08:16:16.000Z</time>
</trkpt>
<trkpt lat="46.1227960" lon="10.5106670">
	<ele>2446.60</ele>
	<time>2023-08-07T08:16:17.000Z</time>
</trkpt>
<trkpt lat="46.1227960" lon="10.5106670">
	<ele>2446.60</ele>
	<time>2023-08-07T08:16:18.000Z</time>
</trkpt>
<trkpt lat="46.1227960" lon="10.5106680">
	<ele>2446.60</ele>
	<time>2023-08-07T08:16:19.000Z</time>
</trkpt>
<trkpt lat="46.1227970" lon="10.5106680">
	<ele>2446.60</ele>
	<time>2023-08-07T08:16:20.000Z</time>
</trkpt>
<trkpt lat="46.1227980" lon="10.5106680">
	<ele>2446.40</ele>
	<time>2023-08-07T08:16:21.000Z</time>
</trkpt>
<trkpt lat="46.1227990" lon="10.5106690">
	<ele>2446.40</ele>
	<time>2023-08-07T08:16:22.000Z</time>
</trkpt>
<trkpt lat="46.1228050" lon="10.5106730">
	<ele>2446.40</ele>
	<time>2023-08-07T08:16:23.000Z</time>
</trkpt>
<trkpt lat="46.1228200" lon="10.5106790">
	<ele>2446.20</ele>
	<time>2023-08-07T08:16:24.000Z</time>
</trkpt>
<trkpt lat="46.1228300" lon="10.5106830">
	<ele>2446.20</ele>
	<time>2023-08-07T08:16:25.000Z</time>
</trkpt>
<trkpt lat="46.1228380" lon="10.5106830">
	<ele>2446.20</ele>
	<time>2023-08-07T08:16:26.000Z</time>
</trkpt>
<trkpt lat="46.1228440" lon="10.5106800">
	<ele>2446.20</ele>
	<time>2023-08-07T08:16:27.000Z</time>
</trkpt>
<trkpt lat="46.1228520" lon="10.5106730">
	<ele>2446.20</ele>
	<time>2023-08-07T08:16:28.000Z</time>
</trkpt>
<trkpt lat="46.1228590" lon="10.5106650">
	<ele>2446.20</ele>
	<time>2023-08-07T08:16:29.000Z</time>
</trkpt>
<trkpt lat="46.1228640" lon="10.5106530">
	<ele>2446.20</ele>
	<time>2023-08-07T08:16:30.000Z</time>
</trkpt>
<trkpt lat="46.1228720" lon="10.5106460">
	<ele>2445.80</ele>
	<time>2023-08-07T08:16:31.000Z</time>
</trkpt>
<trkpt lat="46.1228840" lon="10.5106500">
	<ele>2445.40</ele>
	<time>2023-08-07T08:16:32.000Z</time>
</trkpt>
<trkpt lat="46.1228910" lon="10.5106530">
	<ele>2444.80</ele>
	<time>2023-08-07T08:16:33.000Z</time>
</trkpt>
<trkpt lat="46.1228950" lon="10.5106610">
	<ele>2443.40</ele>
	<time>2023-08-07T08:16:34.000Z</time>
</trkpt>
<trkpt lat="46.1229000" lon="10.5106660">
	<ele>2442.60</ele>
	<time>2023-08-07T08:16:35.000Z</time>
</trkpt>
<trkpt lat="46.1229030" lon="10.5106680">
	<ele>2442.20</ele>
	<time>2023-08-07T08:16:36.000Z</time>
</trkpt>
<trkpt lat="46.1229070" lon="10.5106680">
	<ele>2441.80</ele>
	<time>2023-08-07T08:16:37.000Z</time>
</trkpt>
<trkpt lat="46.1229120" lon="10.5106650">
	<ele>2441.20</ele>
	<time>2023-08-07T08:16:38.000Z</time>
</trkpt>
<trkpt lat="46.1229160" lon="10.5106660">
	<ele>2441.00</ele>
	<time>2023-08-07T08:16:39.000Z</time>
</trkpt>
<trkpt lat="46.1229210" lon="10.5106720">
	<ele>2441.00</ele>
	<time>2023-08-07T08:16:40.000Z</time>
</trkpt>
<trkpt lat="46.1229270" lon="10.5106730">
	<ele>2440.80</ele>
	<time>2023-08-07T08:16:41.000Z</time>
</trkpt>
<trkpt lat="46.1229320" lon="10.5106740">
	<ele>2440.60</ele>
	<time>2023-08-07T08:16:42.000Z</time>
</trkpt>
<trkpt lat="46.1229350" lon="10.5106760">
	<ele>2440.40</ele>
	<time>2023-08-07T08:16:43.000Z</time>
</trkpt>
<trkpt lat="46.1229380" lon="10.5106760">
	<ele>2440.20</ele>
	<time>2023-08-07T08:16:44.000Z</time>
</trkpt>
<trkpt lat="46.1229440" lon="10.5106770">
	<ele>2440.20</ele>
	<time>2023-08-07T08:16:45.000Z</time>
</trkpt>
<trkpt lat="46.1229540" lon="10.5106780">
	<ele>2440.20</ele>
	<time>2023-08-07T08:16:46.000Z</time>
</trkpt>
<trkpt lat="46.1229620" lon="10.5106810">
	<ele>2440.20</ele>
	<time>2023-08-07T08:16:47.000Z</time>
</trkpt>
<trkpt lat="46.1229700" lon="10.5106840">
	<ele>2440.00</ele>
	<time>2023-08-07T08:16:48.000Z</time>
</trkpt>
<trkpt lat="46.1229760" lon="10.5106860">
	<ele>2440.00</ele>
	<time>2023-08-07T08:16:49.000Z</time>
</trkpt>
<trkpt lat="46.1229800" lon="10.5106890">
	<ele>2440.00</ele>
	<time>2023-08-07T08:16:50.000Z</time>
</trkpt>
<trkpt lat="46.1229880" lon="10.5106900">
	<ele>2439.80</ele>
	<time>2023-08-07T08:16:51.000Z</time>
</trkpt>
<trkpt lat="46.1229930" lon="10.5106890">
	<ele>2439.80</ele>
	<time>2023-08-07T08:16:52.000Z</time>
</trkpt>
<trkpt lat="46.1229970" lon="10.5106890">
	<ele>2439.60</ele>
	<time>2023-08-07T08:16:53.000Z</time>
</trkpt>
<trkpt lat="46.1230030" lon="10.5106910">
	<ele>2439.40</ele>
	<time>2023-08-07T08:16:54.000Z</time>
</trkpt>
<trkpt lat="46.1230090" lon="10.5106930">
	<ele>2439.00</ele>
	<time>2023-08-07T08:16:55.000Z</time>
</trkpt>
<trkpt lat="46.1230140" lon="10.5106950">
	<ele>2438.60</ele>
	<time>2023-08-07T08:16:56.000Z</time>
</trkpt>
<trkpt lat="46.1230160" lon="10.5106990">
	<ele>2438.40</ele>
	<time>2023-08-07T08:16:57.000Z</time>
</trkpt>
<trkpt lat="46.1230190" lon="10.5107020">
	<ele>2438.20</ele>
	<time>2023-08-07T08:16:58.000Z</time>
</trkpt>
<trkpt lat="46.1230230" lon="10.5107010">
	<ele>2438.20</ele>
	<time>2023-08-07T08:16:59.000Z</time>
</trkpt>
<trkpt lat="46.1230260" lon="10.5107000">
	<ele>2438.00</ele>
	<time>2023-08-07T08:17:00.000Z</time>
</trkpt>
<trkpt lat="46.1230320" lon="10.5107020">
	<ele>2437.60</ele>
	<time>2023-08-07T08:17:01.000Z</time>
</trkpt>
<trkpt lat="46.1230390" lon="10.5107040">
	<ele>2437.40</ele>
	<time>2023-08-07T08:17:02.000Z</time>
</trkpt>
<trkpt lat="46.1230440" lon="10.5107060">
	<ele>2437.20</ele>
	<time>2023-08-07T08:17:03.000Z</time>
</trkpt>
<trkpt lat="46.1230480" lon="10.5107100">
	<ele>2437.00</ele>
	<time>2023-08-07T08:17:04.000Z</time>
</trkpt>
<trkpt lat="46.1230530" lon="10.5107160">
	<ele>2436.80</ele>
	<time>2023-08-07T08:17:05.000Z</time>
</trkpt>
<trkpt lat="46.1230580" lon="10.5107200">
	<ele>2436.40</ele>
	<time>2023-08-07T08:17:06.000Z</time>
</trkpt>
<trkpt lat="46.1230640" lon="10.5107250">
	<ele>2436.20</ele>
	<time>2023-08-07T08:17:07.000Z</time>
</trkpt>
<trkpt lat="46.1230710" lon="10.5107270">
	<ele>2436.20</ele>
	<time>2023-08-07T08:17:08.000Z</time>
</trkpt>
<trkpt lat="46.1230760" lon="10.5107260">
	<ele>2436.00</ele>
	<time>2023-08-07T08:17:09.000Z</time>
</trkpt>
<trkpt lat="46.1230810" lon="10.5107250">
	<ele>2435.60</ele>
	<time>2023-08-07T08:17:10.000Z</time>
</trkpt>
<trkpt lat="46.1230840" lon="10.5107230">
	<ele>2435.40</ele>
	<time>2023-08-07T08:17:11.000Z</time>
</trkpt>
<trkpt lat="46.1230860" lon="10.5107200">
	<ele>2435.00</ele>
	<time>2023-08-07T08:17:12.000Z</time>
</trkpt>
<trkpt lat="46.1230870" lon="10.5107160">
	<ele>2434.80</ele>
	<time>2023-08-07T08:17:13.000Z</time>
</trkpt>
<trkpt lat="46.1230900" lon="10.5107130">
	<ele>2434.60</ele>
	<time>2023-08-07T08:17:14.000Z</time>
</trkpt>
<trkpt lat="46.1230980" lon="10.5107120">
	<ele>2434.40</ele>
	<time>2023-08-07T08:17:15.000Z</time>
</trkpt>
<trkpt lat="46.1231070" lon="10.5107150">
	<ele>2434.20</ele>
	<time>2023-08-07T08:17:16.000Z</time>
</trkpt>
<trkpt lat="46.1231120" lon="10.5107230">
	<ele>2434.20</ele>
	<time>2023-08-07T08:17:17.000Z</time>
</trkpt>
<trkpt lat="46.1231130" lon="10.5107330">
	<ele>2434.00</ele>
	<time>2023-08-07T08:17:18.000Z</time>
</trkpt>
<trkpt lat="46.1231140" lon="10.5107380">
	<ele>2434.00</ele>
	<time>2023-08-07T08:17:19.000Z</time>
</trkpt>
<trkpt lat="46.1231150" lon="10.5107430">
	<ele>2434.00</ele>
	<time>2023-08-07T08:17:20.000Z</time>
</trkpt>
<trkpt lat="46.1231190" lon="10.5107490">
	<ele>2433.80</ele>
	<time>2023-08-07T08:17:21.000Z</time>
</trkpt>
<trkpt lat="46.1231290" lon="10.5107530">
	<ele>2433.80</ele>
	<time>2023-08-07T08:17:22.000Z</time>
</trkpt>
<trkpt lat="46.1231330" lon="10.5107560">
	<ele>2433.60</ele>
	<time>2023-08-07T08:17:23.000Z</time>
</trkpt>
<trkpt lat="46.1231360" lon="10.5107580">
	<ele>2433.60</ele>
	<time>2023-08-07T08:17:24.000Z</time>
</trkpt>
<trkpt lat="46.1231380" lon="10.5107590">
	<ele>2433.40</ele>
	<time>2023-08-07T08:17:25.000Z</time>
</trkpt>
<trkpt lat="46.1231420" lon="10.5107600">
	<ele>2433.20</ele>
	<time>2023-08-07T08:17:26.000Z</time>
</trkpt>
<trkpt lat="46.1231470" lon="10.5107620">
	<ele>2433.00</ele>
	<time>2023-08-07T08:17:27.000Z</time>
</trkpt>
<trkpt lat="46.1231500" lon="10.5107580">
	<ele>2432.80</ele>
	<time>2023-08-07T08:17:28.000Z</time>
</trkpt>
<trkpt lat="46.1231550" lon="10.5107520">
	<ele>2432.40</ele>
	<time>2023-08-07T08:17:29.000Z</time>
</trkpt>
<trkpt lat="46.1231590" lon="10.5107470">
	<ele>2432.20</ele>
	<time>2023-08-07T08:17:30.000Z</time>
</trkpt>
<trkpt lat="46.1231610" lon="10.5107470">
	<ele>2432.20</ele>
	<time>2023-08-07T08:17:31.000Z</time>
</trkpt>
<trkpt lat="46.1231620" lon="10.5107470">
	<ele>2432.20</ele>
	<time>2023-08-07T08:17:32.000Z</time>
</trkpt>
<trkpt lat="46.1231620" lon="10.5107410">
	<ele>2432.00</ele>
	<time>2023-08-07T08:17:33.000Z</time>
</trkpt>
<trkpt lat="46.1231660" lon="10.5107330">
	<ele>2431.80</ele>
	<time>2023-08-07T08:17:34.000Z</time>
</trkpt>
<trkpt lat="46.1231700" lon="10.5107310">
	<ele>2431.60</ele>
	<time>2023-08-07T08:17:35.000Z</time>
</trkpt>
<trkpt lat="46.1231750" lon="10.5107290">
	<ele>2431.20</ele>
	<time>2023-08-07T08:17:36.000Z</time>
</trkpt>
<trkpt lat="46.1231800" lon="10.5107260">
	<ele>2431.00</ele>
	<time>2023-08-07T08:17:37.000Z</time>
</trkpt>
<trkpt lat="46.1231850" lon="10.5107230">
	<ele>2430.80</ele>
	<time>2023-08-07T08:17:38.000Z</time>
</trkpt>
<trkpt lat="46.1231910" lon="10.5107220">
	<ele>2430.40</ele>
	<time>2023-08-07T08:17:39.000Z</time>
</trkpt>
<trkpt lat="46.1231990" lon="10.5107220">
	<ele>2430.00</ele>
	<time>2023-08-07T08:17:40.000Z</time>
</trkpt>
<trkpt lat="46.1232020" lon="10.5107260">
	<ele>2430.00</ele>
	<time>2023-08-07T08:17:41.000Z</time>
</trkpt>
<trkpt lat="46.1232080" lon="10.5107270">
	<ele>2429.80</ele>
	<time>2023-08-07T08:17:42.000Z</time>
</trkpt>
<trkpt lat="46.1232090" lon="10.5107240">
	<ele>2429.60</ele>
	<time>2023-08-07T08:17:43.000Z</time>
</trkpt>
<trkpt lat="46.1232110" lon="10.5107180">
	<ele>2429.20</ele>
	<time>2023-08-07T08:17:44.000Z</time>
</trkpt>
<trkpt lat="46.1232130" lon="10.5107130">
	<ele>2429.20</ele>
	<time>2023-08-07T08:17:45.000Z</time>
</trkpt>
<trkpt lat="46.1232150" lon="10.5107130">
	<ele>2428.60</ele>
	<time>2023-08-07T08:17:46.000Z</time>
</trkpt>
<trkpt lat="46.1232200" lon="10.5107180">
	<ele>2428.40</ele>
	<time>2023-08-07T08:17:47.000Z</time>
</trkpt>
<trkpt lat="46.1232230" lon="10.5107210">
	<ele>2428.20</ele>
	<time>2023-08-07T08:17:48.000Z</time>
</trkpt>
<trkpt lat="46.1232230" lon="10.5107210">
	<ele>2428.00</ele>
	<time>2023-08-07T08:17:49.000Z</time>
</trkpt>
<trkpt lat="46.1232200" lon="10.5107180">
	<ele>2427.80</ele>
	<time>2023-08-07T08:17:50.000Z</time>
</trkpt>
<trkpt lat="46.1232170" lon="10.5107150">
	<ele>2427.60</ele>
	<time>2023-08-07T08:17:51.000Z</time>
</trkpt>
<trkpt lat="46.1232230" lon="10.5107070">
	<ele>2427.60</ele>
	<time>2023-08-07T08:17:52.000Z</time>
</trkpt>
<trkpt lat="46.1232260" lon="10.5107020">
	<ele>2427.40</ele>
	<time>2023-08-07T08:17:53.000Z</time>
</trkpt>
<trkpt lat="46.1232240" lon="10.5107000">
	<ele>2427.20</ele>
	<time>2023-08-07T08:17:54.000Z</time>
</trkpt>
<trkpt lat="46.1232260" lon="10.5106940">
	<ele>2426.80</ele>
	<time>2023-08-07T08:17:55.000Z</time>
</trkpt>
<trkpt lat="46.1232310" lon="10.5106930">
	<ele>2426.40</ele>
	<time>2023-08-07T08:17:56.000Z</time>
</trkpt>
<trkpt lat="46.1232310" lon="10.5106850">
	<ele>2426.20</ele>
	<time>2023-08-07T08:17:57.000Z</time>
</trkpt>
<trkpt lat="46.1232360" lon="10.5106840">
	<ele>2426.20</ele>
	<time>2023-08-07T08:17:58.000Z</time>
</trkpt>
<trkpt lat="46.1232400" lon="10.5106830">
	<ele>2425.80</ele>
	<time>2023-08-07T08:17:59.000Z</time>
</trkpt>
<trkpt lat="46.1232500" lon="10.5106830">
	<ele>2425.60</ele>
	<time>2023-08-07T08:18:00.000Z</time>
</trkpt>
<trkpt lat="46.1232590" lon="10.5106850">
	<ele>2425.20</ele>
	<time>2023-08-07T08:18:01.000Z</time>
</trkpt>
<trkpt lat="46.1232660" lon="10.5106850">
	<ele>2425.00</ele>
	<time>2023-08-07T08:18:02.000Z</time>
</trkpt>
<trkpt lat="46.1232680" lon="10.5106830">
	<ele>2424.80</ele>
	<time>2023-08-07T08:18:03.000Z</time>
</trkpt>
<trkpt lat="46.1232620" lon="10.5106820">
	<ele>2424.80</ele>
	<time>2023-08-07T08:18:04.000Z</time>
</trkpt>
<trkpt lat="46.1232480" lon="10.5106700">
	<ele>2424.60</ele>
	<time>2023-08-07T08:18:05.000Z</time>
</trkpt>
<trkpt lat="46.1232470" lon="10.5106650">
	<ele>2424.40</ele>
	<time>2023-08-07T08:18:06.000Z</time>
</trkpt>
<trkpt lat="46.1232450" lon="10.5106630">
	<ele>2424.20</ele>
	<time>2023-08-07T08:18:07.000Z</time>
</trkpt>
<trkpt lat="46.1232420" lon="10.5106570">
	<ele>2424.00</ele>
	<time>2023-08-07T08:18:08.000Z</time>
</trkpt>
<trkpt lat="46.1232450" lon="10.5106520">
	<ele>2423.80</ele>
	<time>2023-08-07T08:18:09.000Z</time>
</trkpt>
<trkpt lat="46.1232450" lon="10.5106490">
	<ele>2423.60</ele>
	<time>2023-08-07T08:18:10.000Z</time>
</trkpt>
<trkpt lat="46.1232500" lon="10.5106430">
	<ele>2423.40</ele>
	<time>2023-08-07T08:18:11.000Z</time>
</trkpt>
<trkpt lat="46.1232500" lon="10.5106370">
	<ele>2423.20</ele>
	<time>2023-08-07T08:18:12.000Z</time>
</trkpt>
<trkpt lat="46.1232530" lon="10.5106290">
	<ele>2422.80</ele>
	<time>2023-08-07T08:18:13.000Z</time>
</trkpt>
<trkpt lat="46.1232540" lon="10.5106240">
	<ele>2422.40</ele>
	<time>2023-08-07T08:18:14.000Z</time>
</trkpt>
<trkpt lat="46.1232640" lon="10.5106180">
	<ele>2422.20</ele>
	<time>2023-08-07T08:18:15.000Z</time>
</trkpt>
<trkpt lat="46.1232710" lon="10.5106140">
	<ele>2422.00</ele>
	<time>2023-08-07T08:18:16.000Z</time>
</trkpt>
<trkpt lat="46.1232800" lon="10.5106100">
	<ele>2421.80</ele>
	<time>2023-08-07T08:18:17.000Z</time>
</trkpt>
<trkpt lat="46.1232900" lon="10.5106040">
	<ele>2421.40</ele>
	<time>2023-08-07T08:18:18.000Z</time>
</trkpt>
<trkpt lat="46.1232960" lon="10.5105970">
	<ele>2421.20</ele>
	<time>2023-08-07T08:18:19.000Z</time>
</trkpt>
<trkpt lat="46.1233020" lon="10.5105910">
	<ele>2421.00</ele>
	<time>2023-08-07T08:18:20.000Z</time>
</trkpt>
<trkpt lat="46.1233060" lon="10.5105920">
	<ele>2421.00</ele>
	<time>2023-08-07T08:18:21.000Z</time>
</trkpt>
<trkpt lat="46.1233140" lon="10.5105900">
	<ele>2421.00</ele>
	<time>2023-08-07T08:18:22.000Z</time>
</trkpt>
<trkpt lat="46.1233150" lon="10.5105820">
	<ele>2420.80</ele>
	<time>2023-08-07T08:18:23.000Z</time>
</trkpt>
<trkpt lat="46.1233200" lon="10.5105740">
	<ele>2420.60</ele>
	<time>2023-08-07T08:18:24.000Z</time>
</trkpt>
<trkpt lat="46.1233200" lon="10.5105720">
	<ele>2420.20</ele>
	<time>2023-08-07T08:18:25.000Z</time>
</trkpt>
<trkpt lat="46.1233190" lon="10.5105700">
	<ele>2420.00</ele>
	<time>2023-08-07T08:18:26.000Z</time>
</trkpt>
<trkpt lat="46.1233210" lon="10.5105710">
	<ele>2419.80</ele>
	<time>2023-08-07T08:18:27.000Z</time>
</trkpt>
<trkpt lat="46.1233180" lon="10.5105730">
	<ele>2419.60</ele>
	<time>2023-08-07T08:18:28.000Z</time>
</trkpt>
<trkpt lat="46.1233170" lon="10.5105740">
	<ele>2419.40</ele>
	<time>2023-08-07T08:18:29.000Z</time>
</trkpt>
<trkpt lat="46.1233180" lon="10.5105730">
	<ele>2419.40</ele>
	<time>2023-08-07T08:18:30.000Z</time>
</trkpt>
<trkpt lat="46.1233200" lon="10.5105710">
	<ele>2419.20</ele>
	<time>2023-08-07T08:18:31.000Z</time>
</trkpt>
<trkpt lat="46.1233170" lon="10.5105660">
	<ele>2419.00</ele>
	<time>2023-08-07T08:18:32.000Z</time>
</trkpt>
<trkpt lat="46.1233160" lon="10.5105610">
	<ele>2419.00</ele>
	<time>2023-08-07T08:18:33.000Z</time>
</trkpt>
<trkpt lat="46.1233190" lon="10.5105570">
	<ele>2418.80</ele>
	<time>2023-08-07T08:18:34.000Z</time>
</trkpt>
<trkpt lat="46.1233210" lon="10.5105500">
	<ele>2418.60</ele>
	<time>2023-08-07T08:18:35.000Z</time>
</trkpt>
<trkpt lat="46.1233230" lon="10.5105460">
	<ele>2418.20</ele>
	<time>2023-08-07T08:18:36.000Z</time>
</trkpt>
<trkpt lat="46.1233250" lon="10.5105470">
	<ele>2418.00</ele>
	<time>2023-08-07T08:18:37.000Z</time>
</trkpt>
<trkpt lat="46.1233260" lon="10.5105460">
	<ele>2417.60</ele>
	<time>2023-08-07T08:18:38.000Z</time>
</trkpt>
<trkpt lat="46.1233230" lon="10.5105440">
	<ele>2417.40</ele>
	<time>2023-08-07T08:18:39.000Z</time>
</trkpt>
<trkpt lat="46.1233260" lon="10.5105450">
	<ele>2417.40</ele>
	<time>2023-08-07T08:18:40.000Z</time>
</trkpt>
<trkpt lat="46.1233320" lon="10.5105450">
	<ele>2417.20</ele>
	<time>2023-08-07T08:18:41.000Z</time>
</trkpt>
<trkpt lat="46.1233400" lon="10.5105440">
	<ele>2417.00</ele>
	<time>2023-08-07T08:18:42.000Z</time>
</trkpt>
<trkpt lat="46.1233380" lon="10.5105430">
	<ele>2416.80</ele>
	<time>2023-08-07T08:18:43.000Z</time>
</trkpt>
<trkpt lat="46.1233280" lon="10.5105390">
	<ele>2416.60</ele>
	<time>2023-08-07T08:18:44.000Z</time>
</trkpt>
<trkpt lat="46.1233290" lon="10.5105360">
	<ele>2416.40</ele>
	<time>2023-08-07T08:18:45.000Z</time>
</trkpt>
<trkpt lat="46.1233310" lon="10.5105310">
	<ele>2416.20</ele>
	<time>2023-08-07T08:18:46.000Z</time>
</trkpt>
<trkpt lat="46.1233390" lon="10.5105240">
	<ele>2416.20</ele>
	<time>2023-08-07T08:18:47.000Z</time>
</trkpt>
<trkpt lat="46.1233440" lon="10.5105180">
	<ele>2416.00</ele>
	<time>2023-08-07T08:18:48.000Z</time>
</trkpt>
<trkpt lat="46.1233460" lon="10.5105120">
	<ele>2416.00</ele>
	<time>2023-08-07T08:18:49.000Z</time>
</trkpt>
<trkpt lat="46.1233440" lon="10.5105030">
	<ele>2415.80</ele>
	<time>2023-08-07T08:18:50.000Z</time>
</trkpt>
<trkpt lat="46.1233400" lon="10.5104960">
	<ele>2415.80</ele>
	<time>2023-08-07T08:18:51.000Z</time>
</trkpt>
<trkpt lat="46.1233420" lon="10.5104910">
	<ele>2415.60</ele>
	<time>2023-08-07T08:18:52.000Z</time>
</trkpt>
<trkpt lat="46.1233530" lon="10.5104860">
	<ele>2415.40</ele>
	<time>2023-08-07T08:18:53.000Z</time>
</trkpt>
<trkpt lat="46.1233580" lon="10.5104850">
	<ele>2415.20</ele>
	<time>2023-08-07T08:18:54.000Z</time>
</trkpt>
<trkpt lat="46.1233610" lon="10.5104850">
	<ele>2414.60</ele>
	<time>2023-08-07T08:18:55.000Z</time>
</trkpt>
<trkpt lat="46.1233640" lon="10.5104880">
	<ele>2414.40</ele>
	<time>2023-08-07T08:18:56.000Z</time>
</trkpt>
<trkpt lat="46.1233640" lon="10.5104880">
	<ele>2414.20</ele>
	<time>2023-08-07T08:18:57.000Z</time>
</trkpt>
<trkpt lat="46.1233670" lon="10.5104880">
	<ele>2414.00</ele>
	<time>2023-08-07T08:18:58.000Z</time>
</trkpt>
<trkpt lat="46.1233690" lon="10.5104900">
	<ele>2413.60</ele>
	<time>2023-08-07T08:18:59.000Z</time>
</trkpt>
<trkpt lat="46.1233720" lon="10.5104870">
	<ele>2413.40</ele>
	<time>2023-08-07T08:19:00.000Z</time>
</trkpt>
<trkpt lat="46.1233730" lon="10.5104830">
	<ele>2413.20</ele>
	<time>2023-08-07T08:19:01.000Z</time>
</trkpt>
<trkpt lat="46.1233740" lon="10.5104770">
	<ele>2413.20</ele>
	<time>2023-08-07T08:19:02.000Z</time>
</trkpt>
<trkpt lat="46.1233750" lon="10.5104720">
	<ele>2413.00</ele>
	<time>2023-08-07T08:19:03.000Z</time>
</trkpt>
<trkpt lat="46.1233790" lon="10.5104630">
	<ele>2413.00</ele>
	<time>2023-08-07T08:19:04.000Z</time>
</trkpt>
<trkpt lat="46.1233810" lon="10.5104600">
	<ele>2412.80</ele>
	<time>2023-08-07T08:19:05.000Z</time>
</trkpt>
<trkpt lat="46.1233820" lon="10.5104570">
	<ele>2412.60</ele>
	<time>2023-08-07T08:19:06.000Z</time>
</trkpt>
<trkpt lat="46.1233940" lon="10.5104530">
	<ele>2412.20</ele>
	<time>2023-08-07T08:19:07.000Z</time>
</trkpt>
<trkpt lat="46.1234010" lon="10.5104500">
	<ele>2412.00</ele>
	<time>2023-08-07T08:19:08.000Z</time>
</trkpt>
<trkpt lat="46.1234040" lon="10.5104460">
	<ele>2411.60</ele>
	<time>2023-08-07T08:19:09.000Z</time>
</trkpt>
<trkpt lat="46.1234030" lon="10.5104390">
	<ele>2411.40</ele>
	<time>2023-08-07T08:19:10.000Z</time>
</trkpt>
<trkpt lat="46.1233990" lon="10.5104320">
	<ele>2411.20</ele>
	<time>2023-08-07T08:19:11.000Z</time>
</trkpt>
<trkpt lat="46.1234000" lon="10.5104230">
	<ele>2411.00</ele>
	<time>2023-08-07T08:19:12.000Z</time>
</trkpt>
<trkpt lat="46.1234040" lon="10.5104160">
	<ele>2410.80</ele>
	<time>2023-08-07T08:19:13.000Z</time>
</trkpt>
<trkpt lat="46.1234130" lon="10.5104080">
	<ele>2410.60</ele>
	<time>2023-08-07T08:19:14.000Z</time>
</trkpt>
<trkpt lat="46.1234210" lon="10.5104040">
	<ele>2410.40</ele>
	<time>2023-08-07T08:19:15.000Z</time>
</trkpt>
<trkpt lat="46.1234270" lon="10.5103980">
	<ele>2410.00</ele>
	<time>2023-08-07T08:19:16.000Z</time>
</trkpt>
<trkpt lat="46.1234310" lon="10.5103940">
	<ele>2409.80</ele>
	<time>2023-08-07T08:19:17.000Z</time>
</trkpt>
<trkpt lat="46.1234300" lon="10.5103910">
	<ele>2409.60</ele>
	<time>2023-08-07T08:19:18.000Z</time>
</trkpt>
<trkpt lat="46.1234270" lon="10.5103820">
	<ele>2409.40</ele>
	<time>2023-08-07T08:19:19.000Z</time>
</trkpt>
<trkpt lat="46.1234260" lon="10.5103760">
	<ele>2409.20</ele>
	<time>2023-08-07T08:19:20.000Z</time>
</trkpt>
<trkpt lat="46.1234280" lon="10.5103680">
	<ele>2409.20</ele>
	<time>2023-08-07T08:19:21.000Z</time>
</trkpt>
<trkpt lat="46.1234340" lon="10.5103600">
	<ele>2409.00</ele>
	<time>2023-08-07T08:19:22.000Z</time>
</trkpt>
<trkpt lat="46.1234440" lon="10.5103540">
	<ele>2408.80</ele>
	<time>2023-08-07T08:19:23.000Z</time>
</trkpt>
<trkpt lat="46.1234470" lon="10.5103550">
	<ele>2408.40</ele>
	<time>2023-08-07T08:19:24.000Z</time>
</trkpt>
<trkpt lat="46.1234490" lon="10.5103550">
	<ele>2408.20</ele>
	<time>2023-08-07T08:19:25.000Z</time>
</trkpt>
<trkpt lat="46.1234510" lon="10.5103530">
	<ele>2408.00</ele>
	<time>2023-08-07T08:19:26.000Z</time>
</trkpt>
<trkpt lat="46.1234520" lon="10.5103520">
	<ele>2407.80</ele>
	<time>2023-08-07T08:19:27.000Z</time>
</trkpt>
<trkpt lat="46.1234570" lon="10.5103540">
	<ele>2407.60</ele>
	<time>2023-08-07T08:19:28.000Z</time>
</trkpt>
<trkpt lat="46.1234650" lon="10.5103580">
	<ele>2407.20</ele>
	<time>2023-08-07T08:19:29.000Z</time>
</trkpt>
<trkpt lat="46.1234660" lon="10.5103570">
	<ele>2406.80</ele>
	<time>2023-08-07T08:19:30.000Z</time>
</trkpt>
<trkpt lat="46.1234590" lon="10.5103560">
	<ele>2406.60</ele>
	<time>2023-08-07T08:19:31.000Z</time>
</trkpt>
<trkpt lat="46.1234580" lon="10.5103560">
	<ele>2406.20</ele>
	<time>2023-08-07T08:19:32.000Z</time>
</trkpt>
<trkpt lat="46.1234520" lon="10.5103510">
	<ele>2406.00</ele>
	<time>2023-08-07T08:19:33.000Z</time>
</trkpt>
<trkpt lat="46.1234460" lon="10.5103470">
	<ele>2405.80</ele>
	<time>2023-08-07T08:19:34.000Z</time>
</trkpt>
<trkpt lat="46.1234410" lon="10.5103450">
	<ele>2405.80</ele>
	<time>2023-08-07T08:19:35.000Z</time>
</trkpt>
<trkpt lat="46.1234410" lon="10.5103440">
	<ele>2405.60</ele>
	<time>2023-08-07T08:19:36.000Z</time>
</trkpt>
<trkpt lat="46.1234430" lon="10.5103430">
	<ele>2405.20</ele>
	<time>2023-08-07T08:19:37.000Z</time>
</trkpt>
<trkpt lat="46.1234490" lon="10.5103420">
	<ele>2405.00</ele>
	<time>2023-08-07T08:19:38.000Z</time>
</trkpt>
<trkpt lat="46.1234530" lon="10.5103430">
	<ele>2404.80</ele>
	<time>2023-08-07T08:19:39.000Z</time>
</trkpt>
<trkpt lat="46.1234560" lon="10.5103460">
	<ele>2404.40</ele>
	<time>2023-08-07T08:19:40.000Z</time>
</trkpt>
<trkpt lat="46.1234590" lon="10.5103430">
	<ele>2404.20</ele>
	<time>2023-08-07T08:19:41.000Z</time>
</trkpt>
<trkpt lat="46.1234640" lon="10.5103420">
	<ele>2404.00</ele>
	<time>2023-08-07T08:19:42.000Z</time>
</trkpt>
<trkpt lat="46.1234630" lon="10.5103370">
	<ele>2404.00</ele>
	<time>2023-08-07T08:19:43.000Z</time>
</trkpt>
<trkpt lat="46.1234670" lon="10.5103340">
	<ele>2403.80</ele>
	<time>2023-08-07T08:19:44.000Z</time>
</trkpt>
<trkpt lat="46.1234700" lon="10.5103330">
	<ele>2403.60</ele>
	<time>2023-08-07T08:19:45.000Z</time>
</trkpt>
<trkpt lat="46.1234710" lon="10.5103330">
	<ele>2403.40</ele>
	<time>2023-08-07T08:19:46.000Z</time>
</trkpt>
<trkpt lat="46.1234710" lon="10.5103330">
	<ele>2403.20</ele>
	<time>2023-08-07T08:19:47.000Z</time>
</trkpt>
<trkpt lat="46.1234710" lon="10.5103330">
	<ele>2403.00</ele>
	<time>2023-08-07T08:19:48.000Z</time>
</trkpt>
<trkpt lat="46.1234710" lon="10.5103330">
	<ele>2402.80</ele>
	<time>2023-08-07T08:19:49.000Z</time>
</trkpt>
<trkpt lat="46.1234710" lon="10.5103330">
	<ele>2402.80</ele>
	<time>2023-08-07T08:19:50.000Z</time>
</trkpt>
<trkpt lat="46.1234710" lon="10.5103330">
	<ele>2402.80</ele>
	<time>2023-08-07T08:19:51.000Z</time>
</trkpt>
<trkpt lat="46.1234710" lon="10.5103330">
	<ele>2402.60</ele>
	<time>2023-08-07T08:19:52.000Z</time>
</trkpt>
<trkpt lat="46.1234710" lon="10.5103330">
	<ele>2402.40</ele>
	<time>2023-08-07T08:19:53.000Z</time>
</trkpt>
<trkpt lat="46.1234710" lon="10.5103330">
	<ele>2402.20</ele>
	<time>2023-08-07T08:19:54.000Z</time>
</trkpt>
<trkpt lat="46.1234710" lon="10.5103330">
	<ele>2402.00</ele>
	<time>2023-08-07T08:19:55.000Z</time>
</trkpt>
<trkpt lat="46.1234710" lon="10.5103330">
	<ele>2401.60</ele>
	<time>2023-08-07T08:19:56.000Z</time>
</trkpt>
<trkpt lat="46.1234710" lon="10.5103330">
	<ele>2401.40</ele>
	<time>2023-08-07T08:19:57.000Z</time>
</trkpt>
<trkpt lat="46.1234710" lon="10.5103330">
	<ele>2401.20</ele>
	<time>2023-08-07T08:19:58.000Z</time>
</trkpt>
<trkpt lat="46.1234710" lon="10.5103330">
	<ele>2400.80</ele>
	<time>2023-08-07T08:19:59.000Z</time>
</trkpt>
<trkpt lat="46.1234710" lon="10.5103330">
	<ele>2400.40</ele>
	<time>2023-08-07T08:20:00.000Z</time>
</trkpt>
<trkpt lat="46.1234710" lon="10.5103330">
	<ele>2400.00</ele>
	<time>2023-08-07T08:20:01.000Z</time>
</trkpt>
<trkpt lat="46.1234710" lon="10.5103330">
	<ele>2399.60</ele>
	<time>2023-08-07T08:20:02.000Z</time>
</trkpt>
<trkpt lat="46.1234710" lon="10.5103310">
	<ele>2399.20</ele>
	<time>2023-08-07T08:20:03.000Z</time>
</trkpt>
<trkpt lat="46.1234710" lon="10.5103250">
	<ele>2399.00</ele>
	<time>2023-08-07T08:20:04.000Z</time>
</trkpt>
<trkpt lat="46.1234730" lon="10.5103170">
	<ele>2399.00</ele>
	<time>2023-08-07T08:20:05.000Z</time>
</trkpt>
<trkpt lat="46.1234770" lon="10.5103100">
	<ele>2399.00</ele>
	<time>2023-08-07T08:20:06.000Z</time>
</trkpt>
<trkpt lat="46.1234850" lon="10.5103050">
	<ele>2399.00</ele>
	<time>2023-08-07T08:20:07.000Z</time>
</trkpt>
<trkpt lat="46.1234890" lon="10.5103010">
	<ele>2399.00</ele>
	<time>2023-08-07T08:20:08.000Z</time>
</trkpt>
<trkpt lat="46.1234890" lon="10.5102950">
	<ele>2399.20</ele>
	<time>2023-08-07T08:20:09.000Z</time>
</trkpt>
<trkpt lat="46.1234910" lon="10.5102900">
	<ele>2399.20</ele>
	<time>2023-08-07T08:20:10.000Z</time>
</trkpt>
<trkpt lat="46.1234970" lon="10.5102840">
	<ele>2399.20</ele>
	<time>2023-08-07T08:20:11.000Z</time>
</trkpt>
<trkpt lat="46.1235010" lon="10.5102820">
	<ele>2399.20</ele>
	<time>2023-08-07T08:20:12.000Z</time>
</trkpt>
<trkpt lat="46.1235030" lon="10.5102820">
	<ele>2399.20</ele>
	<time>2023-08-07T08:20:13.000Z</time>
</trkpt>
<trkpt lat="46.1235030" lon="10.5102810">
	<ele>2399.20</ele>
	<time>2023-08-07T08:20:14.000Z</time>
</trkpt>
<trkpt lat="46.1235040" lon="10.5102800">
	<ele>2399.20</ele>
	<time>2023-08-07T08:20:15.000Z</time>
</trkpt>
<trkpt lat="46.1235040" lon="10.5102800">
	<ele>2399.20</ele>
	<time>2023-08-07T08:20:16.000Z</time>
</trkpt>
<trkpt lat="46.1235050" lon="10.5102800">
	<ele>2399.20</ele>
	<time>2023-08-07T08:20:17.000Z</time>
</trkpt>
<trkpt lat="46.1235050" lon="10.5102800">
	<ele>2399.20</ele>
	<time>2023-08-07T08:20:18.000Z</time>
</trkpt>
<trkpt lat="46.1235060" lon="10.5102800">
	<ele>2399.00</ele>
	<time>2023-08-07T08:20:19.000Z</time>
</trkpt>
<trkpt lat="46.1235080" lon="10.5102800">
	<ele>2398.80</ele>
	<time>2023-08-07T08:20:20.000Z</time>
</trkpt>
<trkpt lat="46.1235100" lon="10.5102800">
	<ele>2398.60</ele>
	<time>2023-08-07T08:20:21.000Z</time>
</trkpt>
<trkpt lat="46.1235110" lon="10.5102800">
	<ele>2398.40</ele>
	<time>2023-08-07T08:20:22.000Z</time>
</trkpt>
<trkpt lat="46.1235160" lon="10.5102820">
	<ele>2398.40</ele>
	<time>2023-08-07T08:20:23.000Z</time>
</trkpt>
<trkpt lat="46.1235320" lon="10.5102820">
	<ele>2398.20</ele>
	<time>2023-08-07T08:20:24.000Z</time>
</trkpt>
<trkpt lat="46.1235480" lon="10.5102780">
	<ele>2398.00</ele>
	<time>2023-08-07T08:20:25.000Z</time>
</trkpt>
<trkpt lat="46.1235580" lon="10.5102740">
	<ele>2398.00</ele>
	<time>2023-08-07T08:20:26.000Z</time>
</trkpt>
<trkpt lat="46.1235660" lon="10.5102710">
	<ele>2397.60</ele>
	<time>2023-08-07T08:20:27.000Z</time>
</trkpt>
<trkpt lat="46.1235700" lon="10.5102690">
	<ele>2397.20</ele>
	<time>2023-08-07T08:20:28.000Z</time>
</trkpt>
<trkpt lat="46.1235750" lon="10.5102660">
	<ele>2397.00</ele>
	<time>2023-08-07T08:20:29.000Z</time>
</trkpt>
<trkpt lat="46.1235830" lon="10.5102640">
	<ele>2396.80</ele>
	<time>2023-08-07T08:20:30.000Z</time>
</trkpt>
<trkpt lat="46.1235920" lon="10.5102650">
	<ele>2396.80</ele>
	<time>2023-08-07T08:20:31.000Z</time>
</trkpt>
<trkpt lat="46.1235980" lon="10.5102650">
	<ele>2396.60</ele>
	<time>2023-08-07T08:20:32.000Z</time>
</trkpt>
<trkpt lat="46.1235960" lon="10.5102630">
	<ele>2396.40</ele>
	<time>2023-08-07T08:20:33.000Z</time>
</trkpt>
<trkpt lat="46.1235970" lon="10.5102610">
	<ele>2396.20</ele>
	<time>2023-08-07T08:20:34.000Z</time>
</trkpt>
<trkpt lat="46.1236020" lon="10.5102560">
	<ele>2396.00</ele>
	<time>2023-08-07T08:20:35.000Z</time>
</trkpt>
<trkpt lat="46.1236090" lon="10.5102500">
	<ele>2395.80</ele>
	<time>2023-08-07T08:20:36.000Z</time>
</trkpt>
<trkpt lat="46.1236120" lon="10.5102460">
	<ele>2395.40</ele>
	<time>2023-08-07T08:20:37.000Z</time>
</trkpt>
<trkpt lat="46.1236180" lon="10.5102420">
	<ele>2395.20</ele>
	<time>2023-08-07T08:20:38.000Z</time>
</trkpt>
<trkpt lat="46.1236220" lon="10.5102380">
	<ele>2394.80</ele>
	<time>2023-08-07T08:20:39.000Z</time>
</trkpt>
<trkpt lat="46.1236280" lon="10.5102370">
	<ele>2394.60</ele>
	<time>2023-08-07T08:20:40.000Z</time>
</trkpt>
<trkpt lat="46.1236340" lon="10.5102380">
	<ele>2394.40</ele>
	<time>2023-08-07T08:20:41.000Z</time>
</trkpt>
<trkpt lat="46.1236390" lon="10.5102380">
	<ele>2394.20</ele>
	<time>2023-08-07T08:20:42.000Z</time>
</trkpt>
<trkpt lat="46.1236420" lon="10.5102380">
	<ele>2394.00</ele>
	<time>2023-08-07T08:20:43.000Z</time>
</trkpt>
<trkpt lat="46.1236430" lon="10.5102350">
	<ele>2393.60</ele>
	<time>2023-08-07T08:20:44.000Z</time>
</trkpt>
<trkpt lat="46.1236510" lon="10.5102330">
	<ele>2393.40</ele>
	<time>2023-08-07T08:20:45.000Z</time>
</trkpt>
<trkpt lat="46.1236540" lon="10.5102330">
	<ele>2393.00</ele>
	<time>2023-08-07T08:20:46.000Z</time>
</trkpt>
<trkpt lat="46.1236530" lon="10.5102350">
	<ele>2392.80</ele>
	<time>2023-08-07T08:20:47.000Z</time>
</trkpt>
<trkpt lat="46.1236590" lon="10.5102370">
	<ele>2392.60</ele>
	<time>2023-08-07T08:20:48.000Z</time>
</trkpt>
<trkpt lat="46.1236660" lon="10.5102310">
	<ele>2392.40</ele>
	<time>2023-08-07T08:20:49.000Z</time>
</trkpt>
<trkpt lat="46.1236730" lon="10.5102220">
	<ele>2392.20</ele>
	<time>2023-08-07T08:20:50.000Z</time>
</trkpt>
<trkpt lat="46.1236790" lon="10.5102170">
	<ele>2392.00</ele>
	<time>2023-08-07T08:20:51.000Z</time>
</trkpt>
<trkpt lat="46.1236870" lon="10.5102130">
	<ele>2391.80</ele>
	<time>2023-08-07T08:20:52.000Z</time>
</trkpt>
<trkpt lat="46.1236940" lon="10.5102090">
	<ele>2391.40</ele>
	<time>2023-08-07T08:20:53.000Z</time>
</trkpt>
<trkpt lat="46.1237020" lon="10.5102080">
	<ele>2391.00</ele>
	<time>2023-08-07T08:20:54.000Z</time>
</trkpt>
<trkpt lat="46.1237110" lon="10.5102080">
	<ele>2390.80</ele>
	<time>2023-08-07T08:20:55.000Z</time>
</trkpt>
<trkpt lat="46.1237150" lon="10.5102040">
	<ele>2390.80</ele>
	<time>2023-08-07T08:20:56.000Z</time>
</trkpt>
<trkpt lat="46.1237170" lon="10.5102040">
	<ele>2390.60</ele>
	<time>2023-08-07T08:20:57.000Z</time>
</trkpt>
<trkpt lat="46.1237210" lon="10.5102030">
	<ele>2390.40</ele>
	<time>2023-08-07T08:20:58.000Z</time>
</trkpt>
<trkpt lat="46.1237270" lon="10.5102030">
	<ele>2390.20</ele>
	<time>2023-08-07T08:20:59.000Z</time>
</trkpt>
<trkpt lat="46.1237300" lon="10.5102030">
	<ele>2390.00</ele>
	<time>2023-08-07T08:21:00.000Z</time>
</trkpt>
<trkpt lat="46.1237320" lon="10.5101980">
	<ele>2389.80</ele>
	<time>2023-08-07T08:21:01.000Z</time>
</trkpt>
<trkpt lat="46.1237320" lon="10.5101930">
	<ele>2389.80</ele>
	<time>2023-08-07T08:21:02.000Z</time>
</trkpt>
<trkpt lat="46.1237330" lon="10.5101880">
	<ele>2389.60</ele>
	<time>2023-08-07T08:21:03.000Z</time>
</trkpt>
<trkpt lat="46.1237410" lon="10.5101830">
	<ele>2389.40</ele>
	<time>2023-08-07T08:21:04.000Z</time>
</trkpt>
<trkpt lat="46.1237490" lon="10.5101770">
	<ele>2389.20</ele>
	<time>2023-08-07T08:21:05.000Z</time>
</trkpt>
<trkpt lat="46.1237510" lon="10.5101700">
	<ele>2389.00</ele>
	<time>2023-08-07T08:21:06.000Z</time>
</trkpt>
<trkpt lat="46.1237520" lon="10.5101660">
	<ele>2388.60</ele>
	<time>2023-08-07T08:21:07.000Z</time>
</trkpt>
<trkpt lat="46.1237560" lon="10.5101640">
	<ele>2388.40</ele>
	<time>2023-08-07T08:21:08.000Z</time>
</trkpt>
<trkpt lat="46.1237570" lon="10.5101630">
	<ele>2387.80</ele>
	<time>2023-08-07T08:21:09.000Z</time>
</trkpt>
<trkpt lat="46.1237580" lon="10.5101580">
	<ele>2387.40</ele>
	<time>2023-08-07T08:21:10.000Z</time>
</trkpt>
<trkpt lat="46.1237600" lon="10.5101530">
	<ele>2387.00</ele>
	<time>2023-08-07T08:21:11.000Z</time>
</trkpt>
<trkpt lat="46.1237610" lon="10.5101460">
	<ele>2386.80</ele>
	<time>2023-08-07T08:21:12.000Z</time>
</trkpt>
<trkpt lat="46.1237590" lon="10.5101340">
	<ele>2386.60</ele>
	<time>2023-08-07T08:21:13.000Z</time>
</trkpt>
<trkpt lat="46.1237550" lon="10.5101230">
	<ele>2386.40</ele>
	<time>2023-08-07T08:21:14.000Z</time>
</trkpt>
<trkpt lat="46.1237550" lon="10.5101260">
	<ele>2386.40</ele>
	<time>2023-08-07T08:21:15.000Z</time>
</trkpt>
<trkpt lat="46.1237520" lon="10.5101150">
	<ele>2386.20</ele>
	<time>2023-08-07T08:21:16.000Z</time>
</trkpt>
<trkpt lat="46.1237510" lon="10.5101090">
	<ele>2386.00</ele>
	<time>2023-08-07T08:21:17.000Z</time>
</trkpt>
<trkpt lat="46.1237540" lon="10.5101040">
	<ele>2385.80</ele>
	<time>2023-08-07T08:21:18.000Z</time>
</trkpt>
<trkpt lat="46.1237620" lon="10.5101010">
	<ele>2385.60</ele>
	<time>2023-08-07T08:21:19.000Z</time>
</trkpt>
<trkpt lat="46.1237710" lon="10.5101000">
	<ele>2385.40</ele>
	<time>2023-08-07T08:21:20.000Z</time>
</trkpt>
<trkpt lat="46.1237770" lon="10.5101010">
	<ele>2385.20</ele>
	<time>2023-08-07T08:21:21.000Z</time>
</trkpt>
<trkpt lat="46.1237880" lon="10.5100980">
	<ele>2385.00</ele>
	<time>2023-08-07T08:21:22.000Z</time>
</trkpt>
<trkpt lat="46.1238000" lon="10.5100940">
	<ele>2384.60</ele>
	<time>2023-08-07T08:21:23.000Z</time>
</trkpt>
<trkpt lat="46.1238110" lon="10.5100950">
	<ele>2384.20</ele>
	<time>2023-08-07T08:21:24.000Z</time>
</trkpt>
<trkpt lat="46.1238110" lon="10.5101000">
	<ele>2384.00</ele>
	<time>2023-08-07T08:21:25.000Z</time>
</trkpt>
<trkpt lat="46.1238100" lon="10.5101020">
	<ele>2383.80</ele>
	<time>2023-08-07T08:21:26.000Z</time>
</trkpt>
<trkpt lat="46.1238120" lon="10.5101020">
	<ele>2383.80</ele>
	<time>2023-08-07T08:21:27.000Z</time>
</trkpt>
<trkpt lat="46.1238160" lon="10.5101030">
	<ele>2383.60</ele>
	<time>2023-08-07T08:21:28.000Z</time>
</trkpt>
<trkpt lat="46.1238290" lon="10.5101030">
	<ele>2383.20</ele>
	<time>2023-08-07T08:21:29.000Z</time>
</trkpt>
<trkpt lat="46.1238360" lon="10.5101050">
	<ele>2383.00</ele>
	<time>2023-08-07T08:21:30.000Z</time>
</trkpt>
<trkpt lat="46.1238380" lon="10.5101110">
	<ele>2383.00</ele>
	<time>2023-08-07T08:21:31.000Z</time>
</trkpt>
<trkpt lat="46.1238390" lon="10.5101120">
	<ele>2383.00</ele>
	<time>2023-08-07T08:21:32.000Z</time>
</trkpt>
<trkpt lat="46.1238420" lon="10.5101110">
	<ele>2382.80</ele>
	<time>2023-08-07T08:21:33.000Z</time>
</trkpt>
<trkpt lat="46.1238450" lon="10.5101100">
	<ele>2382.60</ele>
	<time>2023-08-07T08:21:34.000Z</time>
</trkpt>
<trkpt lat="46.1238490" lon="10.5101100">
	<ele>2382.40</ele>
	<time>2023-08-07T08:21:35.000Z</time>
</trkpt>
<trkpt lat="46.1238540" lon="10.5101070">
	<ele>2382.20</ele>
	<time>2023-08-07T08:21:36.000Z</time>
</trkpt>
<trkpt lat="46.1238550" lon="10.5100990">
	<ele>2382.00</ele>
	<time>2023-08-07T08:21:37.000Z</time>
</trkpt>
<trkpt lat="46.1238600" lon="10.5100920">
	<ele>2381.80</ele>
	<time>2023-08-07T08:21:38.000Z</time>
</trkpt>
<trkpt lat="46.1238640" lon="10.5100880">
	<ele>2381.60</ele>
	<time>2023-08-07T08:21:39.000Z</time>
</trkpt>
<trkpt lat="46.1238680" lon="10.5100840">
	<ele>2381.40</ele>
	<time>2023-08-07T08:21:40.000Z</time>
</trkpt>
<trkpt lat="46.1238710" lon="10.5100770">
	<ele>2381.40</ele>
	<time>2023-08-07T08:21:41.000Z</time>
</trkpt>
<trkpt lat="46.1238740" lon="10.5100680">
	<ele>2381.00</ele>
	<time>2023-08-07T08:21:42.000Z</time>
</trkpt>
<trkpt lat="46.1238800" lon="10.5100640">
	<ele>2380.80</ele>
	<time>2023-08-07T08:21:43.000Z</time>
</trkpt>
<trkpt lat="46.1238830" lon="10.5100590">
	<ele>2380.40</ele>
	<time>2023-08-07T08:21:44.000Z</time>
</trkpt>
<trkpt lat="46.1238830" lon="10.5100560">
	<ele>2380.20</ele>
	<time>2023-08-07T08:21:45.000Z</time>
</trkpt>
<trkpt lat="46.1238820" lon="10.5100560">
	<ele>2379.80</ele>
	<time>2023-08-07T08:21:46.000Z</time>
</trkpt>
<trkpt lat="46.1238880" lon="10.5100540">
	<ele>2379.60</ele>
	<time>2023-08-07T08:21:47.000Z</time>
</trkpt>
<trkpt lat="46.1238960" lon="10.5100560">
	<ele>2379.60</ele>
	<time>2023-08-07T08:21:48.000Z</time>
</trkpt>
<trkpt lat="46.1239020" lon="10.5100560">
	<ele>2379.40</ele>
	<time>2023-08-07T08:21:49.000Z</time>
</trkpt>
<trkpt lat="46.1239040" lon="10.5100560">
	<ele>2379.20</ele>
	<time>2023-08-07T08:21:50.000Z</time>
</trkpt>
<trkpt lat="46.1239040" lon="10.5100550">
	<ele>2378.80</ele>
	<time>2023-08-07T08:21:51.000Z</time>
</trkpt>
<trkpt lat="46.1239070" lon="10.5100550">
	<ele>2378.60</ele>
	<time>2023-08-07T08:21:52.000Z</time>
</trkpt>
<trkpt lat="46.1239110" lon="10.5100530">
	<ele>2378.60</ele>
	<time>2023-08-07T08:21:53.000Z</time>
</trkpt>
<trkpt lat="46.1239140" lon="10.5100510">
	<ele>2378.40</ele>
	<time>2023-08-07T08:21:54.000Z</time>
</trkpt>
<trkpt lat="46.1239130" lon="10.5100500">
	<ele>2378.20</ele>
	<time>2023-08-07T08:21:55.000Z</time>
</trkpt>
<trkpt lat="46.1239150" lon="10.5100460">
	<ele>2377.80</ele>
	<time>2023-08-07T08:21:56.000Z</time>
</trkpt>
<trkpt lat="46.1239230" lon="10.5100430">
	<ele>2377.60</ele>
	<time>2023-08-07T08:21:57.000Z</time>
</trkpt>
<trkpt lat="46.1239330" lon="10.5100500">
	<ele>2377.40</ele>
	<time>2023-08-07T08:21:58.000Z</time>
</trkpt>
<trkpt lat="46.1239410" lon="10.5100510">
	<ele>2377.00</ele>
	<time>2023-08-07T08:21:59.000Z</time>
</trkpt>
<trkpt lat="46.1239430" lon="10.5100520">
	<ele>2376.80</ele>
	<time>2023-08-07T08:22:00.000Z</time>
</trkpt>
<trkpt lat="46.1239460" lon="10.5100500">
	<ele>2376.40</ele>
	<time>2023-08-07T08:22:01.000Z</time>
</trkpt>
<trkpt lat="46.1239450" lon="10.5100460">
	<ele>2376.20</ele>
	<time>2023-08-07T08:22:02.000Z</time>
</trkpt>
<trkpt lat="46.1239450" lon="10.5100430">
	<ele>2376.00</ele>
	<time>2023-08-07T08:22:03.000Z</time>
</trkpt>
<trkpt lat="46.1239470" lon="10.5100450">
	<ele>2375.80</ele>
	<time>2023-08-07T08:22:04.000Z</time>
</trkpt>
<trkpt lat="46.1239520" lon="10.5100450">
	<ele>2375.40</ele>
	<time>2023-08-07T08:22:05.000Z</time>
</trkpt>
<trkpt lat="46.1239520" lon="10.5100540">
	<ele>2375.20</ele>
	<time>2023-08-07T08:22:06.000Z</time>
</trkpt>
<trkpt lat="46.1239560" lon="10.5100500">
	<ele>2375.00</ele>
	<time>2023-08-07T08:22:07.000Z</time>
</trkpt>
<trkpt lat="46.1239580" lon="10.5100470">
	<ele>2374.60</ele>
	<time>2023-08-07T08:22:08.000Z</time>
</trkpt>
<trkpt lat="46.1239570" lon="10.5100350">
	<ele>2374.20</ele>
	<time>2023-08-07T08:22:09.000Z</time>
</trkpt>
<trkpt lat="46.1239570" lon="10.5100240">
	<ele>2374.00</ele>
	<time>2023-08-07T08:22:10.000Z</time>
</trkpt>
<trkpt lat="46.1239550" lon="10.5100170">
	<ele>2373.80</ele>
	<time>2023-08-07T08:22:11.000Z</time>
</trkpt>
<trkpt lat="46.1239540" lon="10.5100120">
	<ele>2373.60</ele>
	<time>2023-08-07T08:22:12.000Z</time>
</trkpt>
<trkpt lat="46.1239600" lon="10.5100120">
	<ele>2373.40</ele>
	<time>2023-08-07T08:22:13.000Z</time>
</trkpt>
<trkpt lat="46.1239680" lon="10.5100100">
	<ele>2373.40</ele>
	<time>2023-08-07T08:22:14.000Z</time>
</trkpt>
<trkpt lat="46.1239790" lon="10.5100070">
	<ele>2373.20</ele>
	<time>2023-08-07T08:22:15.000Z</time>
</trkpt>
<trkpt lat="46.1239860" lon="10.5100060">
	<ele>2372.80</ele>
	<time>2023-08-07T08:22:16.000Z</time>
</trkpt>
<trkpt lat="46.1239880" lon="10.5099950">
	<ele>2372.60</ele>
	<time>2023-08-07T08:22:17.000Z</time>
</trkpt>
<trkpt lat="46.1239900" lon="10.5099920">
	<ele>2372.40</ele>
	<time>2023-08-07T08:22:18.000Z</time>
</trkpt>
<trkpt lat="46.1239920" lon="10.5099910">
	<ele>2372.00</ele>
	<time>2023-08-07T08:22:19.000Z</time>
</trkpt>
<trkpt lat="46.1239950" lon="10.5099850">
	<ele>2372.00</ele>
	<time>2023-08-07T08:22:20.000Z</time>
</trkpt>
<trkpt lat="46.1240060" lon="10.5099850">
	<ele>2371.80</ele>
	<time>2023-08-07T08:22:21.000Z</time>
</trkpt>
<trkpt lat="46.1240090" lon="10.5099870">
	<ele>2371.60</ele>
	<time>2023-08-07T08:22:22.000Z</time>
</trkpt>
<trkpt lat="46.1240110" lon="10.5099900">
	<ele>2371.60</ele>
	<time>2023-08-07T08:22:23.000Z</time>
</trkpt>
<trkpt lat="46.1240100" lon="10.5099890">
	<ele>2371.40</ele>
	<time>2023-08-07T08:22:24.000Z</time>
</trkpt>
<trkpt lat="46.1240120" lon="10.5099910">
	<ele>2371.00</ele>
	<time>2023-08-07T08:22:25.000Z</time>
</trkpt>
<trkpt lat="46.1240130" lon="10.5099900">
	<ele>2370.80</ele>
	<time>2023-08-07T08:22:26.000Z</time>
</trkpt>
<trkpt lat="46.1240150" lon="10.5099920">
	<ele>2370.60</ele>
	<time>2023-08-07T08:22:27.000Z</time>
</trkpt>
<trkpt lat="46.1240160" lon="10.5099930">
	<ele>2370.40</ele>
	<time>2023-08-07T08:22:28.000Z</time>
</trkpt>
<trkpt lat="46.1240230" lon="10.5099940">
	<ele>2370.20</ele>
	<time>2023-08-07T08:22:29.000Z</time>
</trkpt>
<trkpt lat="46.1240320" lon="10.5099900">
	<ele>2370.00</ele>
	<time>2023-08-07T08:22:30.000Z</time>
</trkpt>
<trkpt lat="46.1240360" lon="10.5099900">
	<ele>2370.00</ele>
	<time>2023-08-07T08:22:31.000Z</time>
</trkpt>
<trkpt lat="46.1240410" lon="10.5099910">
	<ele>2369.80</ele>
	<time>2023-08-07T08:22:32.000Z</time>
</trkpt>
<trkpt lat="46.1240430" lon="10.5099860">
	<ele>2369.40</ele>
	<time>2023-08-07T08:22:33.000Z</time>
</trkpt>
<trkpt lat="46.1240450" lon="10.5099850">
	<ele>2368.80</ele>
	<time>2023-08-07T08:22:34.000Z</time>
</trkpt>
<trkpt lat="46.1240450" lon="10.5099830">
	<ele>2368.60</ele>
	<time>2023-08-07T08:22:35.000Z</time>
</trkpt>
<trkpt lat="46.1240450" lon="10.5099810">
	<ele>2368.40</ele>
	<time>2023-08-07T08:22:36.000Z</time>
</trkpt>
<trkpt lat="46.1240450" lon="10.5099790">
	<ele>2368.20</ele>
	<time>2023-08-07T08:22:37.000Z</time>
</trkpt>
<trkpt lat="46.1240380" lon="10.5099690">
	<ele>2368.00</ele>
	<time>2023-08-07T08:22:38.000Z</time>
</trkpt>
<trkpt lat="46.1240400" lon="10.5099710">
	<ele>2367.80</ele>
	<time>2023-08-07T08:22:39.000Z</time>
</trkpt>
<trkpt lat="46.1240450" lon="10.5099670">
	<ele>2367.60</ele>
	<time>2023-08-07T08:22:40.000Z</time>
</trkpt>
<trkpt lat="46.1240490" lon="10.5099600">
	<ele>2367.60</ele>
	<time>2023-08-07T08:22:41.000Z</time>
</trkpt>
<trkpt lat="46.1240540" lon="10.5099590">
	<ele>2367.40</ele>
	<time>2023-08-07T08:22:42.000Z</time>
</trkpt>
<trkpt lat="46.1240600" lon="10.5099610">
	<ele>2367.20</ele>
	<time>2023-08-07T08:22:43.000Z</time>
</trkpt>
<trkpt lat="46.1240630" lon="10.5099590">
	<ele>2367.00</ele>
	<time>2023-08-07T08:22:44.000Z</time>
</trkpt>
<trkpt lat="46.1240620" lon="10.5099520">
	<ele>2366.80</ele>
	<time>2023-08-07T08:22:45.000Z</time>
</trkpt>
<trkpt lat="46.1240640" lon="10.5099470">
	<ele>2366.60</ele>
	<time>2023-08-07T08:22:46.000Z</time>
</trkpt>
<trkpt lat="46.1240700" lon="10.5099410">
	<ele>2366.60</ele>
	<time>2023-08-07T08:22:47.000Z</time>
</trkpt>
<trkpt lat="46.1240740" lon="10.5099360">
	<ele>2366.40</ele>
	<time>2023-08-07T08:22:48.000Z</time>
</trkpt>
<trkpt lat="46.1240800" lon="10.5099370">
	<ele>2366.20</ele>
	<time>2023-08-07T08:22:49.000Z</time>
</trkpt>
<trkpt lat="46.1240870" lon="10.5099390">
	<ele>2365.60</ele>
	<time>2023-08-07T08:22:50.000Z</time>
</trkpt>
<trkpt lat="46.1240970" lon="10.5099390">
	<ele>2365.20</ele>
	<time>2023-08-07T08:22:51.000Z</time>
</trkpt>
<trkpt lat="46.1241040" lon="10.5099390">
	<ele>2365.00</ele>
	<time>2023-08-07T08:22:52.000Z</time>
</trkpt>
<trkpt lat="46.1241070" lon="10.5099400">
	<ele>2364.80</ele>
	<time>2023-08-07T08:22:53.000Z</time>
</trkpt>
<trkpt lat="46.1241100" lon="10.5099450">
	<ele>2364.60</ele>
	<time>2023-08-07T08:22:54.000Z</time>
</trkpt>
<trkpt lat="46.1241090" lon="10.5099410">
	<ele>2364.40</ele>
	<time>2023-08-07T08:22:55.000Z</time>
</trkpt>
<trkpt lat="46.1241060" lon="10.5099370">
	<ele>2364.40</ele>
	<time>2023-08-07T08:22:56.000Z</time>
</trkpt>
<trkpt lat="46.1240990" lon="10.5099330">
	<ele>2364.20</ele>
	<time>2023-08-07T08:22:57.000Z</time>
</trkpt>
<trkpt lat="46.1240960" lon="10.5099250">
	<ele>2364.20</ele>
	<time>2023-08-07T08:22:58.000Z</time>
</trkpt>
<trkpt lat="46.1240950" lon="10.5099160">
	<ele>2364.00</ele>
	<time>2023-08-07T08:22:59.000Z</time>
</trkpt>
<trkpt lat="46.1240870" lon="10.5099090">
	<ele>2363.80</ele>
	<time>2023-08-07T08:23:00.000Z</time>
</trkpt>
<trkpt lat="46.1240900" lon="10.5099050">
	<ele>2363.60</ele>
	<time>2023-08-07T08:23:01.000Z</time>
</trkpt>
<trkpt lat="46.1240880" lon="10.5099000">
	<ele>2363.60</ele>
	<time>2023-08-07T08:23:02.000Z</time>
</trkpt>
<trkpt lat="46.1240880" lon="10.5098960">
	<ele>2363.40</ele>
	<time>2023-08-07T08:23:03.000Z</time>
</trkpt>
<trkpt lat="46.1240850" lon="10.5098930">
	<ele>2363.40</ele>
	<time>2023-08-07T08:23:04.000Z</time>
</trkpt>
<trkpt lat="46.1240920" lon="10.5098890">
	<ele>2363.20</ele>
	<time>2023-08-07T08:23:05.000Z</time>
</trkpt>
<trkpt lat="46.1240960" lon="10.5098820">
	<ele>2363.00</ele>
	<time>2023-08-07T08:23:06.000Z</time>
</trkpt>
<trkpt lat="46.1241010" lon="10.5098730">
	<ele>2362.80</ele>
	<time>2023-08-07T08:23:07.000Z</time>
</trkpt>
<trkpt lat="46.1241020" lon="10.5098630">
	<ele>2362.60</ele>
	<time>2023-08-07T08:23:08.000Z</time>
</trkpt>
<trkpt lat="46.1241070" lon="10.5098570">
	<ele>2362.40</ele>
	<time>2023-08-07T08:23:09.000Z</time>
</trkpt>
<trkpt lat="46.1241130" lon="10.5098530">
	<ele>2362.20</ele>
	<time>2023-08-07T08:23:10.000Z</time>
</trkpt>
<trkpt lat="46.1241130" lon="10.5098550">
	<ele>2362.00</ele>
	<time>2023-08-07T08:23:11.000Z</time>
</trkpt>
<trkpt lat="46.1241120" lon="10.5098580">
	<ele>2361.40</ele>
	<time>2023-08-07T08:23:12.000Z</time>
</trkpt>
<trkpt lat="46.1241160" lon="10.5098630">
	<ele>2361.00</ele>
	<time>2023-08-07T08:23:13.000Z</time>
</trkpt>
<trkpt lat="46.1241190" lon="10.5098610">
	<ele>2360.60</ele>
	<time>2023-08-07T08:23:14.000Z</time>
</trkpt>
<trkpt lat="46.1241230" lon="10.5098620">
	<ele>2360.40</ele>
	<time>2023-08-07T08:23:15.000Z</time>
</trkpt>
<trkpt lat="46.1241010" lon="10.5098670">
	<ele>2360.20</ele>
	<time>2023-08-07T08:23:16.000Z</time>
</trkpt>
<trkpt lat="46.1241000" lon="10.5098670">
	<ele>2360.20</ele>
	<time>2023-08-07T08:23:17.000Z</time>
</trkpt>
<trkpt lat="46.1241040" lon="10.5098690">
	<ele>2360.20</ele>
	<time>2023-08-07T08:23:18.000Z</time>
</trkpt>
<trkpt lat="46.1241060" lon="10.5098680">
	<ele>2360.00</ele>
	<time>2023-08-07T08:23:19.000Z</time>
</trkpt>
<trkpt lat="46.1241050" lon="10.5098680">
	<ele>2360.00</ele>
	<time>2023-08-07T08:23:20.000Z</time>
</trkpt>
<trkpt lat="46.1241050" lon="10.5098680">
	<ele>2359.80</ele>
	<time>2023-08-07T08:23:21.000Z</time>
</trkpt>
<trkpt lat="46.1241050" lon="10.5098680">
	<ele>2359.80</ele>
	<time>2023-08-07T08:23:22.000Z</time>
</trkpt>
<trkpt lat="46.1241050" lon="10.5098680">
	<ele>2359.60</ele>
	<time>2023-08-07T08:23:23.000Z</time>
</trkpt>
<trkpt lat="46.1241050" lon="10.5098680">
	<ele>2359.20</ele>
	<time>2023-08-07T08:23:24.000Z</time>
</trkpt>
<trkpt lat="46.1241050" lon="10.5098680">
	<ele>2358.80</ele>
	<time>2023-08-07T08:23:25.000Z</time>
</trkpt>
<trkpt lat="46.1241050" lon="10.5098680">
	<ele>2358.40</ele>
	<time>2023-08-07T08:23:26.000Z</time>
</trkpt>
<trkpt lat="46.1241050" lon="10.5098680">
	<ele>2358.20</ele>
	<time>2023-08-07T08:23:27.000Z</time>
</trkpt>
<trkpt lat="46.1241050" lon="10.5098680">
	<ele>2358.20</ele>
	<time>2023-08-07T08:23:28.000Z</time>
</trkpt>
<trkpt lat="46.1241050" lon="10.5098680">
	<ele>2358.00</ele>
	<time>2023-08-07T08:23:29.000Z</time>
</trkpt>
<trkpt lat="46.1241050" lon="10.5098670">
	<ele>2357.60</ele>
	<time>2023-08-07T08:23:30.000Z</time>
</trkpt>
<trkpt lat="46.1241060" lon="10.5098670">
	<ele>2357.20</ele>
	<time>2023-08-07T08:23:31.000Z</time>
</trkpt>
<trkpt lat="46.1241070" lon="10.5098650">
	<ele>2357.00</ele>
	<time>2023-08-07T08:23:32.000Z</time>
</trkpt>
<trkpt lat="46.1241100" lon="10.5098630">
	<ele>2356.80</ele>
	<time>2023-08-07T08:23:33.000Z</time>
</trkpt>
<trkpt lat="46.1241100" lon="10.5098620">
	<ele>2356.60</ele>
	<time>2023-08-07T08:23:34.000Z</time>
</trkpt>
<trkpt lat="46.1241120" lon="10.5098610">
	<ele>2356.40</ele>
	<time>2023-08-07T08:23:35.000Z</time>
</trkpt>
<trkpt lat="46.1241130" lon="10.5098600">
	<ele>2356.00</ele>
	<time>2023-08-07T08:23:36.000Z</time>
</trkpt>
<trkpt lat="46.1241170" lon="10.5098580">
	<ele>2356.00</ele>
	<time>2023-08-07T08:23:37.000Z</time>
</trkpt>
<trkpt lat="46.1241280" lon="10.5098600">
	<ele>2355.60</ele>
	<time>2023-08-07T08:23:38.000Z</time>
</trkpt>
<trkpt lat="46.1241390" lon="10.5098660">
	<ele>2355.40</ele>
	<time>2023-08-07T08:23:39.000Z</time>
</trkpt>
<trkpt lat="46.1241500" lon="10.5098640">
	<ele>2355.20</ele>
	<time>2023-08-07T08:23:40.000Z</time>
</trkpt>
<trkpt lat="46.1241610" lon="10.5098680">
	<ele>2354.80</ele>
	<time>2023-08-07T08:23:41.000Z</time>
</trkpt>
<trkpt lat="46.1241690" lon="10.5098670">
	<ele>2354.60</ele>
	<time>2023-08-07T08:23:42.000Z</time>
</trkpt>
<trkpt lat="46.1241750" lon="10.5098660">
	<ele>2354.40</ele>
	<time>2023-08-07T08:23:43.000Z</time>
</trkpt>
<trkpt lat="46.1241840" lon="10.5098610">
	<ele>2354.40</ele>
	<time>2023-08-07T08:23:44.000Z</time>
</trkpt>
<trkpt lat="46.1241900" lon="10.5098590">
	<ele>2354.20</ele>
	<time>2023-08-07T08:23:45.000Z</time>
</trkpt>
<trkpt lat="46.1241980" lon="10.5098540">
	<ele>2354.00</ele>
	<time>2023-08-07T08:23:46.000Z</time>
</trkpt>
<trkpt lat="46.1242010" lon="10.5098540">
	<ele>2353.80</ele>
	<time>2023-08-07T08:23:47.000Z</time>
</trkpt>
<trkpt lat="46.1242090" lon="10.5098560">
	<ele>2353.60</ele>
	<time>2023-08-07T08:23:48.000Z</time>
</trkpt>
<trkpt lat="46.1242210" lon="10.5098570">
	<ele>2353.40</ele>
	<time>2023-08-07T08:23:49.000Z</time>
</trkpt>
<trkpt lat="46.1242310" lon="10.5098590">
	<ele>2353.20</ele>
	<time>2023-08-07T08:23:50.000Z</time>
</trkpt>
<trkpt lat="46.1242320" lon="10.5098600">
	<ele>2353.00</ele>
	<time>2023-08-07T08:23:51.000Z</time>
</trkpt>
<trkpt lat="46.1242350" lon="10.5098580">
	<ele>2352.80</ele>
	<time>2023-08-07T08:23:52.000Z</time>
</trkpt>
<trkpt lat="46.1242410" lon="10.5098530">
	<ele>2352.60</ele>
	<time>2023-08-07T08:23:53.000Z</time>
</trkpt>
<trkpt lat="46.1242450" lon="10.5098540">
	<ele>2352.60</ele>
	<time>2023-08-07T08:23:54.000Z</time>
</trkpt>
<trkpt lat="46.1242510" lon="10.5098540">
	<ele>2352.40</ele>
	<time>2023-08-07T08:23:55.000Z</time>
</trkpt>
<trkpt lat="46.1242540" lon="10.5098520">
	<ele>2352.20</ele>
	<time>2023-08-07T08:23:56.000Z</time>
</trkpt>
<trkpt lat="46.1242570" lon="10.5098520">
	<ele>2352.00</ele>
	<time>2023-08-07T08:23:57.000Z</time>
</trkpt>
<trkpt lat="46.1242580" lon="10.5098530">
	<ele>2351.80</ele>
	<time>2023-08-07T08:23:58.000Z</time>
</trkpt>
<trkpt lat="46.1242650" lon="10.5098500">
	<ele>2351.60</ele>
	<time>2023-08-07T08:23:59.000Z</time>
</trkpt>
<trkpt lat="46.1242740" lon="10.5098480">
	<ele>2351.40</ele>
	<time>2023-08-07T08:24:00.000Z</time>
</trkpt>
<trkpt lat="46.1242770" lon="10.5098500">
	<ele>2351.40</ele>
	<time>2023-08-07T08:24:01.000Z</time>
</trkpt>
<trkpt lat="46.1242730" lon="10.5098480">
	<ele>2351.00</ele>
	<time>2023-08-07T08:24:02.000Z</time>
</trkpt>
<trkpt lat="46.1242730" lon="10.5098490">
	<ele>2350.80</ele>
	<time>2023-08-07T08:24:03.000Z</time>
</trkpt>
<trkpt lat="46.1242750" lon="10.5098480">
	<ele>2350.60</ele>
	<time>2023-08-07T08:24:04.000Z</time>
</trkpt>
<trkpt lat="46.1242790" lon="10.5098480">
	<ele>2350.40</ele>
	<time>2023-08-07T08:24:05.000Z</time>
</trkpt>
<trkpt lat="46.1242870" lon="10.5098500">
	<ele>2350.40</ele>
	<time>2023-08-07T08:24:06.000Z</time>
</trkpt>
<trkpt lat="46.1242920" lon="10.5098490">
	<ele>2350.20</ele>
	<time>2023-08-07T08:24:07.000Z</time>
</trkpt>
<trkpt lat="46.1243010" lon="10.5098470">
	<ele>2350.00</ele>
	<time>2023-08-07T08:24:08.000Z</time>
</trkpt>
<trkpt lat="46.1243110" lon="10.5098460">
	<ele>2349.60</ele>
	<time>2023-08-07T08:24:09.000Z</time>
</trkpt>
<trkpt lat="46.1243220" lon="10.5098470">
	<ele>2349.40</ele>
	<time>2023-08-07T08:24:10.000Z</time>
</trkpt>
<trkpt lat="46.1243380" lon="10.5098480">
	<ele>2349.20</ele>
	<time>2023-08-07T08:24:11.000Z</time>
</trkpt>
<trkpt lat="46.1243440" lon="10.5098500">
	<ele>2348.80</ele>
	<time>2023-08-07T08:24:12.000Z</time>
</trkpt>
<trkpt lat="46.1243530" lon="10.5098520">
	<ele>2348.60</ele>
	<time>2023-08-07T08:24:13.000Z</time>
</trkpt>
<trkpt lat="46.1243620" lon="10.5098500">
	<ele>2348.40</ele>
	<time>2023-08-07T08:24:14.000Z</time>
</trkpt>
<trkpt lat="46.1243720" lon="10.5098450">
	<ele>2348.20</ele>
	<time>2023-08-07T08:24:15.000Z</time>
</trkpt>
<trkpt lat="46.1243800" lon="10.5098430">
	<ele>2348.00</ele>
	<time>2023-08-07T08:24:16.000Z</time>
</trkpt>
<trkpt lat="46.1243850" lon="10.5098430">
	<ele>2347.80</ele>
	<time>2023-08-07T08:24:17.000Z</time>
</trkpt>
<trkpt lat="46.1243880" lon="10.5098430">
	<ele>2347.80</ele>
	<time>2023-08-07T08:24:18.000Z</time>
</trkpt>
<trkpt lat="46.1243910" lon="10.5098390">
	<ele>2347.60</ele>
	<time>2023-08-07T08:24:19.000Z</time>
</trkpt>
<trkpt lat="46.1243970" lon="10.5098370">
	<ele>2347.60</ele>
	<time>2023-08-07T08:24:20.000Z</time>
</trkpt>
<trkpt lat="46.1243950" lon="10.5098330">
	<ele>2347.40</ele>
	<time>2023-08-07T08:24:21.000Z</time>
</trkpt>
<trkpt lat="46.1243960" lon="10.5098280">
	<ele>2347.20</ele>
	<time>2023-08-07T08:24:22.000Z</time>
</trkpt>
<trkpt lat="46.1244000" lon="10.5098230">
	<ele>2347.20</ele>
	<time>2023-08-07T08:24:23.000Z</time>
</trkpt>
<trkpt lat="46.1244030" lon="10.5098190">
	<ele>2346.80</ele>
	<time>2023-08-07T08:24:24.000Z</time>
</trkpt>
<trkpt lat="46.1244060" lon="10.5098160">
	<ele>2346.40</ele>
	<time>2023-08-07T08:24:25.000Z</time>
</trkpt>
<trkpt lat="46.1244090" lon="10.5098140">
	<ele>2346.20</ele>
	<time>2023-08-07T08:24:26.000Z</time>
</trkpt>
<trkpt lat="46.1244100" lon="10.5098180">
	<ele>2346.00</ele>
	<time>2023-08-07T08:24:27.000Z</time>
</trkpt>
<trkpt lat="46.1244120" lon="10.5098180">
	<ele>2345.60</ele>
	<time>2023-08-07T08:24:28.000Z</time>
</trkpt>
<trkpt lat="46.1244130" lon="10.5098170">
	<ele>2345.20</ele>
	<time>2023-08-07T08:24:29.000Z</time>
</trkpt>
<trkpt lat="46.1244170" lon="10.5098190">
	<ele>2345.00</ele>
	<time>2023-08-07T08:24:30.000Z</time>
</trkpt>
<trkpt lat="46.1244150" lon="10.5098140">
	<ele>2345.00</ele>
	<time>2023-08-07T08:24:31.000Z</time>
</trkpt>
<trkpt lat="46.1244150" lon="10.5098090">
	<ele>2344.80</ele>
	<time>2023-08-07T08:24:32.000Z</time>
</trkpt>
<trkpt lat="46.1244170" lon="10.5098050">
	<ele>2344.80</ele>
	<time>2023-08-07T08:24:33.000Z</time>
</trkpt>
<trkpt lat="46.1244190" lon="10.5097990">
	<ele>2344.60</ele>
	<time>2023-08-07T08:24:34.000Z</time>
</trkpt>
<trkpt lat="46.1244270" lon="10.5097930">
	<ele>2344.60</ele>
	<time>2023-08-07T08:24:35.000Z</time>
</trkpt>
<trkpt lat="46.1244300" lon="10.5097890">
	<ele>2344.60</ele>
	<time>2023-08-07T08:24:36.000Z</time>
</trkpt>
<trkpt lat="46.1244330" lon="10.5097840">
	<ele>2344.40</ele>
	<time>2023-08-07T08:24:37.000Z</time>
</trkpt>
<trkpt lat="46.1244390" lon="10.5097800">
	<ele>2344.20</ele>
	<time>2023-08-07T08:24:38.000Z</time>
</trkpt>
<trkpt lat="46.1244460" lon="10.5097760">
	<ele>2344.00</ele>
	<time>2023-08-07T08:24:39.000Z</time>
</trkpt>
<trkpt lat="46.1244500" lon="10.5097800">
	<ele>2343.80</ele>
	<time>2023-08-07T08:24:40.000Z</time>
</trkpt>
<trkpt lat="46.1244560" lon="10.5097840">
	<ele>2343.60</ele>
	<time>2023-08-07T08:24:41.000Z</time>
</trkpt>
<trkpt lat="46.1244550" lon="10.5097860">
	<ele>2343.40</ele>
	<time>2023-08-07T08:24:42.000Z</time>
</trkpt>
<trkpt lat="46.1244530" lon="10.5097890">
	<ele>2343.20</ele>
	<time>2023-08-07T08:24:43.000Z</time>
</trkpt>
<trkpt lat="46.1244610" lon="10.5097910">
	<ele>2343.00</ele>
	<time>2023-08-07T08:24:44.000Z</time>
</trkpt>
<trkpt lat="46.1244620" lon="10.5097920">
	<ele>2342.80</ele>
	<time>2023-08-07T08:24:45.000Z</time>
</trkpt>
<trkpt lat="46.1244620" lon="10.5097920">
	<ele>2342.20</ele>
	<time>2023-08-07T08:24:46.000Z</time>
</trkpt>
<trkpt lat="46.1244640" lon="10.5097960">
	<ele>2342.00</ele>
	<time>2023-08-07T08:24:47.000Z</time>
</trkpt>
<trkpt lat="46.1244690" lon="10.5097950">
	<ele>2341.60</ele>
	<time>2023-08-07T08:24:48.000Z</time>
</trkpt>
<trkpt lat="46.1244730" lon="10.5097950">
	<ele>2341.60</ele>
	<time>2023-08-07T08:24:49.000Z</time>
</trkpt>
<trkpt lat="46.1244760" lon="10.5097940">
	<ele>2341.40</ele>
	<time>2023-08-07T08:24:50.000Z</time>
</trkpt>
<trkpt lat="46.1244770" lon="10.5097940">
	<ele>2341.40</ele>
	<time>2023-08-07T08:24:51.000Z</time>
</trkpt>
<trkpt lat="46.1244780" lon="10.5097910">
	<ele>2341.20</ele>
	<time>2023-08-07T08:24:52.000Z</time>
</trkpt>
<trkpt lat="46.1244800" lon="10.5097860">
	<ele>2341.20</ele>
	<time>2023-08-07T08:24:53.000Z</time>
</trkpt>
<trkpt lat="46.1244830" lon="10.5097790">
	<ele>2341.00</ele>
	<time>2023-08-07T08:24:54.000Z</time>
</trkpt>
<trkpt lat="46.1244870" lon="10.5097690">
	<ele>2340.80</ele>
	<time>2023-08-07T08:24:55.000Z</time>
</trkpt>
<trkpt lat="46.1244890" lon="10.5097610">
	<ele>2340.80</ele>
	<time>2023-08-07T08:24:56.000Z</time>
</trkpt>
<trkpt lat="46.1244940" lon="10.5097580">
	<ele>2340.60</ele>
	<time>2023-08-07T08:24:57.000Z</time>
</trkpt>
<trkpt lat="46.1245000" lon="10.5097640">
	<ele>2340.60</ele>
	<time>2023-08-07T08:24:58.000Z</time>
</trkpt>
<trkpt lat="46.1245030" lon="10.5097640">
	<ele>2340.40</ele>
	<time>2023-08-07T08:24:59.000Z</time>
</trkpt>
<trkpt lat="46.1245070" lon="10.5097640">
	<ele>2340.00</ele>
	<time>2023-08-07T08:25:00.000Z</time>
</trkpt>
<trkpt lat="46.1245110" lon="10.5097660">
	<ele>2340.00</ele>
	<time>2023-08-07T08:25:01.000Z</time>
</trkpt>
<trkpt lat="46.1245130" lon="10.5097650">
	<ele>2339.80</ele>
	<time>2023-08-07T08:25:02.000Z</time>
</trkpt>
<trkpt lat="46.1245120" lon="10.5097580">
	<ele>2339.80</ele>
	<time>2023-08-07T08:25:03.000Z</time>
</trkpt>
<trkpt lat="46.1245110" lon="10.5097530">
	<ele>2339.60</ele>
	<time>2023-08-07T08:25:04.000Z</time>
</trkpt>
<trkpt lat="46.1245090" lon="10.5097480">
	<ele>2339.20</ele>
	<time>2023-08-07T08:25:05.000Z</time>
</trkpt>
<trkpt lat="46.1245060" lon="10.5097440">
	<ele>2339.00</ele>
	<time>2023-08-07T08:25:06.000Z</time>
</trkpt>
<trkpt lat="46.1245060" lon="10.5097380">
	<ele>2338.80</ele>
	<time>2023-08-07T08:25:07.000Z</time>
</trkpt>
<trkpt lat="46.1245040" lon="10.5097310">
	<ele>2338.60</ele>
	<time>2023-08-07T08:25:08.000Z</time>
</trkpt>
<trkpt lat="46.1245050" lon="10.5097260">
	<ele>2338.60</ele>
	<time>2023-08-07T08:25:09.000Z</time>
</trkpt>
<trkpt lat="46.1245070" lon="10.5097250">
	<ele>2338.40</ele>
	<time>2023-08-07T08:25:10.000Z</time>
</trkpt>
<trkpt lat="46.1245130" lon="10.5097200">
	<ele>2338.40</ele>
	<time>2023-08-07T08:25:11.000Z</time>
</trkpt>
<trkpt lat="46.1245130" lon="10.5097180">
	<ele>2338.00</ele>
	<time>2023-08-07T08:25:12.000Z</time>
</trkpt>
<trkpt lat="46.1245150" lon="10.5097190">
	<ele>2337.80</ele>
	<time>2023-08-07T08:25:13.000Z</time>
</trkpt>
<trkpt lat="46.1245190" lon="10.5097180">
	<ele>2337.60</ele>
	<time>2023-08-07T08:25:14.000Z</time>
</trkpt>
<trkpt lat="46.1245250" lon="10.5097160">
	<ele>2337.60</ele>
	<time>2023-08-07T08:25:15.000Z</time>
</trkpt>
<trkpt lat="46.1245330" lon="10.5097190">
	<ele>2337.40</ele>
	<time>2023-08-07T08:25:16.000Z</time>
</trkpt>
<trkpt lat="46.1245400" lon="10.5097180">
	<ele>2337.20</ele>
	<time>2023-08-07T08:25:17.000Z</time>
</trkpt>
<trkpt lat="46.1245450" lon="10.5097210">
	<ele>2337.00</ele>
	<time>2023-08-07T08:25:18.000Z</time>
</trkpt>
<trkpt lat="46.1245500" lon="10.5097240">
	<ele>2336.80</ele>
	<time>2023-08-07T08:25:19.000Z</time>
</trkpt>
<trkpt lat="46.1245480" lon="10.5097230">
	<ele>2336.60</ele>
	<time>2023-08-07T08:25:20.000Z</time>
</trkpt>
<trkpt lat="46.1245480" lon="10.5097220">
	<ele>2336.40</ele>
	<time>2023-08-07T08:25:21.000Z</time>
</trkpt>
<trkpt lat="46.1245470" lon="10.5097220">
	<ele>2336.40</ele>
	<time>2023-08-07T08:25:22.000Z</time>
</trkpt>
<trkpt lat="46.1245470" lon="10.5097190">
	<ele>2336.20</ele>
	<time>2023-08-07T08:25:23.000Z</time>
</trkpt>
<trkpt lat="46.1245430" lon="10.5097120">
	<ele>2335.80</ele>
	<time>2023-08-07T08:25:24.000Z</time>
</trkpt>
<trkpt lat="46.1245380" lon="10.5097080">
	<ele>2335.60</ele>
	<time>2023-08-07T08:25:25.000Z</time>
</trkpt>
<trkpt lat="46.1245390" lon="10.5097030">
	<ele>2335.40</ele>
	<time>2023-08-07T08:25:26.000Z</time>
</trkpt>
<trkpt lat="46.1245380" lon="10.5096990">
	<ele>2335.20</ele>
	<time>2023-08-07T08:25:27.000Z</time>
</trkpt>
<trkpt lat="46.1245370" lon="10.5096950">
	<ele>2335.20</ele>
	<time>2023-08-07T08:25:28.000Z</time>
</trkpt>
<trkpt lat="46.1245380" lon="10.5096940">
	<ele>2334.80</ele>
	<time>2023-08-07T08:25:29.000Z</time>
</trkpt>
<trkpt lat="46.1245400" lon="10.5096920">
	<ele>2334.40</ele>
	<time>2023-08-07T08:25:30.000Z</time>
</trkpt>
<trkpt lat="46.1245410" lon="10.5096900">
	<ele>2334.20</ele>
	<time>2023-08-07T08:25:31.000Z</time>
</trkpt>
<trkpt lat="46.1245460" lon="10.5096890">
	<ele>2334.20</ele>
	<time>2023-08-07T08:25:32.000Z</time>
</trkpt>
<trkpt lat="46.1245520" lon="10.5096860">
	<ele>2334.00</ele>
	<time>2023-08-07T08:25:33.000Z</time>
</trkpt>
<trkpt lat="46.1245550" lon="10.5096850">
	<ele>2333.80</ele>
	<time>2023-08-07T08:25:34.000Z</time>
</trkpt>
<trkpt lat="46.1245570" lon="10.5096830">
	<ele>2333.80</ele>
	<time>2023-08-07T08:25:35.000Z</time>
</trkpt>
<trkpt lat="46.1245600" lon="10.5096800">
	<ele>2333.60</ele>
	<time>2023-08-07T08:25:36.000Z</time>
</trkpt>
<trkpt lat="46.1245630" lon="10.5096790">
	<ele>2333.60</ele>
	<time>2023-08-07T08:25:37.000Z</time>
</trkpt>
<trkpt lat="46.1245650" lon="10.5096780">
	<ele>2333.40</ele>
	<time>2023-08-07T08:25:38.000Z</time>
</trkpt>
<trkpt lat="46.1245660" lon="10.5096800">
	<ele>2333.20</ele>
	<time>2023-08-07T08:25:39.000Z</time>
</trkpt>
<trkpt lat="46.1245660" lon="10.5096810">
	<ele>2333.00</ele>
	<time>2023-08-07T08:25:40.000Z</time>
</trkpt>
<trkpt lat="46.1245640" lon="10.5096800">
	<ele>2332.80</ele>
	<time>2023-08-07T08:25:41.000Z</time>
</trkpt>
<trkpt lat="46.1245660" lon="10.5096790">
	<ele>2332.80</ele>
	<time>2023-08-07T08:25:42.000Z</time>
</trkpt>
<trkpt lat="46.1245740" lon="10.5096760">
	<ele>2332.60</ele>
	<time>2023-08-07T08:25:43.000Z</time>
</trkpt>
<trkpt lat="46.1245840" lon="10.5096730">
	<ele>2332.40</ele>
	<time>2023-08-07T08:25:44.000Z</time>
</trkpt>
<trkpt lat="46.1245850" lon="10.5096720">
	<ele>2332.20</ele>
	<time>2023-08-07T08:25:45.000Z</time>
</trkpt>
<trkpt lat="46.1245910" lon="10.5096720">
	<ele>2332.00</ele>
	<time>2023-08-07T08:25:46.000Z</time>
</trkpt>
<trkpt lat="46.1245930" lon="10.5096720">
	<ele>2331.80</ele>
	<time>2023-08-07T08:25:47.000Z</time>
</trkpt>
<trkpt lat="46.1245930" lon="10.5096700">
	<ele>2331.60</ele>
	<time>2023-08-07T08:25:48.000Z</time>
</trkpt>
<trkpt lat="46.1245950" lon="10.5096700">
	<ele>2331.40</ele>
	<time>2023-08-07T08:25:49.000Z</time>
</trkpt>
<trkpt lat="46.1245900" lon="10.5096670">
	<ele>2331.00</ele>
	<time>2023-08-07T08:25:50.000Z</time>
</trkpt>
<trkpt lat="46.1245890" lon="10.5096640">
	<ele>2330.80</ele>
	<time>2023-08-07T08:25:51.000Z</time>
</trkpt>
<trkpt lat="46.1245970" lon="10.5096640">
	<ele>2330.80</ele>
	<time>2023-08-07T08:25:52.000Z</time>
</trkpt>
<trkpt lat="46.1246000" lon="10.5096650">
	<ele>2330.60</ele>
	<time>2023-08-07T08:25:53.000Z</time>
</trkpt>
<trkpt lat="46.1246020" lon="10.5096630">
	<ele>2330.40</ele>
	<time>2023-08-07T08:25:54.000Z</time>
</trkpt>
<trkpt lat="46.1246090" lon="10.5096620">
	<ele>2330.40</ele>
	<time>2023-08-07T08:25:55.000Z</time>
</trkpt>
<trkpt lat="46.1246110" lon="10.5096590">
	<ele>2330.40</ele>
	<time>2023-08-07T08:25:56.000Z</time>
</trkpt>
<trkpt lat="46.1246160" lon="10.5096590">
	<ele>2330.40</ele>
	<time>2023-08-07T08:25:57.000Z</time>
</trkpt>
<trkpt lat="46.1246240" lon="10.5096570">
	<ele>2330.20</ele>
	<time>2023-08-07T08:25:58.000Z</time>
</trkpt>
<trkpt lat="46.1246280" lon="10.5096560">
	<ele>2330.20</ele>
	<time>2023-08-07T08:25:59.000Z</time>
</trkpt>
<trkpt lat="46.1246350" lon="10.5096530">
	<ele>2330.00</ele>
	<time>2023-08-07T08:26:00.000Z</time>
</trkpt>
<trkpt lat="46.1246350" lon="10.5096480">
	<ele>2330.00</ele>
	<time>2023-08-07T08:26:01.000Z</time>
</trkpt>
<trkpt lat="46.1246430" lon="10.5096460">
	<ele>2329.80</ele>
	<time>2023-08-07T08:26:02.000Z</time>
</trkpt>
<trkpt lat="46.1246490" lon="10.5096470">
	<ele>2329.60</ele>
	<time>2023-08-07T08:26:03.000Z</time>
</trkpt>
<trkpt lat="46.1246520" lon="10.5096460">
	<ele>2329.60</ele>
	<time>2023-08-07T08:26:04.000Z</time>
</trkpt>
<trkpt lat="46.1246550" lon="10.5096460">
	<ele>2329.40</ele>
	<time>2023-08-07T08:26:05.000Z</time>
</trkpt>
<trkpt lat="46.1246580" lon="10.5096430">
	<ele>2329.40</ele>
	<time>2023-08-07T08:26:06.000Z</time>
</trkpt>
<trkpt lat="46.1246590" lon="10.5096400">
	<ele>2329.40</ele>
	<time>2023-08-07T08:26:07.000Z</time>
</trkpt>
<trkpt lat="46.1246600" lon="10.5096390">
	<ele>2329.20</ele>
	<time>2023-08-07T08:26:08.000Z</time>
</trkpt>
<trkpt lat="46.1246600" lon="10.5096450">
	<ele>2329.20</ele>
	<time>2023-08-07T08:26:09.000Z</time>
</trkpt>
<trkpt lat="46.1246600" lon="10.5096500">
	<ele>2329.20</ele>
	<time>2023-08-07T08:26:10.000Z</time>
</trkpt>
<trkpt lat="46.1246650" lon="10.5096520">
	<ele>2329.20</ele>
	<time>2023-08-07T08:26:11.000Z</time>
</trkpt>
<trkpt lat="46.1246740" lon="10.5096600">
	<ele>2329.00</ele>
	<time>2023-08-07T08:26:12.000Z</time>
</trkpt>
<trkpt lat="46.1246770" lon="10.5096620">
	<ele>2329.00</ele>
	<time>2023-08-07T08:26:13.000Z</time>
</trkpt>
<trkpt lat="46.1246840" lon="10.5096580">
	<ele>2329.00</ele>
	<time>2023-08-07T08:26:14.000Z</time>
</trkpt>
<trkpt lat="46.1246740" lon="10.5096540">
	<ele>2329.00</ele>
	<time>2023-08-07T08:26:15.000Z</time>
</trkpt>
<trkpt lat="46.1246720" lon="10.5096530">
	<ele>2329.00</ele>
	<time>2023-08-07T08:26:16.000Z</time>
</trkpt>
<trkpt lat="46.1246720" lon="10.5096520">
	<ele>2329.20</ele>
	<time>2023-08-07T08:26:17.000Z</time>
</trkpt>
<trkpt lat="46.1246760" lon="10.5096590">
	<ele>2329.40</ele>
	<time>2023-08-07T08:26:18.000Z</time>
</trkpt>
<trkpt lat="46.1246770" lon="10.5096610">
	<ele>2329.40</ele>
	<time>2023-08-07T08:26:19.000Z</time>
</trkpt>
<trkpt lat="46.1246770" lon="10.5096620">
	<ele>2329.40</ele>
	<time>2023-08-07T08:26:20.000Z</time>
</trkpt>
<trkpt lat="46.1246770" lon="10.5096630">
	<ele>2329.60</ele>
	<time>2023-08-07T08:26:21.000Z</time>
</trkpt>
<trkpt lat="46.1246760" lon="10.5096630">
	<ele>2329.80</ele>
	<time>2023-08-07T08:26:22.000Z</time>
</trkpt>
<trkpt lat="46.1246760" lon="10.5096630">
	<ele>2329.80</ele>
	<time>2023-08-07T08:26:23.000Z</time>
</trkpt>
<trkpt lat="46.1246760" lon="10.5096630">
	<ele>2329.80</ele>
	<time>2023-08-07T08:26:24.000Z</time>
</trkpt>
<trkpt lat="46.1246760" lon="10.5096630">
	<ele>2329.80</ele>
	<time>2023-08-07T08:26:25.000Z</time>
</trkpt>
<trkpt lat="46.1246760" lon="10.5096630">
	<ele>2329.60</ele>
	<time>2023-08-07T08:26:26.000Z</time>
</trkpt>
<trkpt lat="46.1246760" lon="10.5096630">
	<ele>2329.60</ele>
	<time>2023-08-07T08:26:27.000Z</time>
</trkpt>
<trkpt lat="46.1246760" lon="10.5096630">
	<ele>2329.60</ele>
	<time>2023-08-07T08:26:28.000Z</time>
</trkpt>
<trkpt lat="46.1246560" lon="10.5096660">
	<ele>2329.60</ele>
	<time>2023-08-07T08:26:29.000Z</time>
</trkpt>
<trkpt lat="46.1246570" lon="10.5096690">
	<ele>2329.60</ele>
	<time>2023-08-07T08:26:30.000Z</time>
</trkpt>
<trkpt lat="46.1246590" lon="10.5096710">
	<ele>2329.60</ele>
	<time>2023-08-07T08:26:31.000Z</time>
</trkpt>
<trkpt lat="46.1246570" lon="10.5096710">
	<ele>2329.60</ele>
	<time>2023-08-07T08:26:32.000Z</time>
</trkpt>
<trkpt lat="46.1246550" lon="10.5096720">
	<ele>2329.60</ele>
	<time>2023-08-07T08:26:33.000Z</time>
</trkpt>
<trkpt lat="46.1246530" lon="10.5096710">
	<ele>2329.60</ele>
	<time>2023-08-07T08:26:34.000Z</time>
</trkpt>
<trkpt lat="46.1246500" lon="10.5096710">
	<ele>2329.60</ele>
	<time>2023-08-07T08:26:35.000Z</time>
</trkpt>
<trkpt lat="46.1246480" lon="10.5096710">
	<ele>2329.60</ele>
	<time>2023-08-07T08:26:36.000Z</time>
</trkpt>
<trkpt lat="46.1246470" lon="10.5096720">
	<ele>2329.60</ele>
	<time>2023-08-07T08:26:37.000Z</time>
</trkpt>
<trkpt lat="46.1246470" lon="10.5096720">
	<ele>2329.60</ele>
	<time>2023-08-07T08:26:38.000Z</time>
</trkpt>
<trkpt lat="46.1246470" lon="10.5096720">
	<ele>2329.60</ele>
	<time>2023-08-07T08:26:39.000Z</time>
</trkpt>
<trkpt lat="46.1246470" lon="10.5096720">
	<ele>2329.60</ele>
	<time>2023-08-07T08:26:40.000Z</time>
</trkpt>
<trkpt lat="46.1246470" lon="10.5096720">
	<ele>2329.60</ele>
	<time>2023-08-07T08:26:41.000Z</time>
</trkpt>
<trkpt lat="46.1246470" lon="10.5096720">
	<ele>2329.60</ele>
	<time>2023-08-07T08:26:42.000Z</time>
</trkpt>
<trkpt lat="46.1246470" lon="10.5096720">
	<ele>2329.60</ele>
	<time>2023-08-07T08:26:43.000Z</time>
</trkpt>
<trkpt lat="46.1246470" lon="10.5096720">
	<ele>2329.40</ele>
	<time>2023-08-07T08:26:44.000Z</time>
</trkpt>
<trkpt lat="46.1246470" lon="10.5096720">
	<ele>2329.40</ele>
	<time>2023-08-07T08:26:45.000Z</time>
</trkpt>
<trkpt lat="46.1246520" lon="10.5096720">
	<ele>2329.20</ele>
	<time>2023-08-07T08:26:46.000Z</time>
</trkpt>
<trkpt lat="46.1246660" lon="10.5096660">
	<ele>2329.00</ele>
	<time>2023-08-07T08:26:47.000Z</time>
</trkpt>
<trkpt lat="46.1246840" lon="10.5096660">
	<ele>2328.80</ele>
	<time>2023-08-07T08:26:48.000Z</time>
</trkpt>
<trkpt lat="46.1246950" lon="10.5096630">
	<ele>2328.80</ele>
	<time>2023-08-07T08:26:49.000Z</time>
</trkpt>
<trkpt lat="46.1247070" lon="10.5096590">
	<ele>2328.80</ele>
	<time>2023-08-07T08:26:50.000Z</time>
</trkpt>
<trkpt lat="46.1247170" lon="10.5096570">
	<ele>2328.60</ele>
	<time>2023-08-07T08:26:51.000Z</time>
</trkpt>
<trkpt lat="46.1247240" lon="10.5096550">
	<ele>2328.60</ele>
	<time>2023-08-07T08:26:52.000Z</time>
</trkpt>
<trkpt lat="46.1247330" lon="10.5096480">
	<ele>2328.60</ele>
	<time>2023-08-07T08:26:53.000Z</time>
</trkpt>
<trkpt lat="46.1247410" lon="10.5096410">
	<ele>2328.60</ele>
	<time>2023-08-07T08:26:54.000Z</time>
</trkpt>
<trkpt lat="46.1247490" lon="10.5096390">
	<ele>2328.40</ele>
	<time>2023-08-07T08:26:55.000Z</time>
</trkpt>
<trkpt lat="46.1247520" lon="10.5096370">
	<ele>2328.20</ele>
	<time>2023-08-07T08:26:56.000Z</time>
</trkpt>
<trkpt lat="46.1247540" lon="10.5096360">
	<ele>2328.00</ele>
	<time>2023-08-07T08:26:57.000Z</time>
</trkpt>
<trkpt lat="46.1247500" lon="10.5096290">
	<ele>2327.80</ele>
	<time>2023-08-07T08:26:58.000Z</time>
</trkpt>
<trkpt lat="46.1247510" lon="10.5096270">
	<ele>2327.80</ele>
	<time>2023-08-07T08:26:59.000Z</time>
</trkpt>
<trkpt lat="46.1247560" lon="10.5096260">
	<ele>2327.60</ele>
	<time>2023-08-07T08:27:00.000Z</time>
</trkpt>
<trkpt lat="46.1247630" lon="10.5096230">
	<ele>2327.40</ele>
	<time>2023-08-07T08:27:01.000Z</time>
</trkpt>
<trkpt lat="46.1247700" lon="10.5096200">
	<ele>2327.00</ele>
	<time>2023-08-07T08:27:02.000Z</time>
</trkpt>
<trkpt lat="46.1247750" lon="10.5096170">
	<ele>2326.60</ele>
	<time>2023-08-07T08:27:03.000Z</time>
</trkpt>
<trkpt lat="46.1247780" lon="10.5096130">
	<ele>2326.40</ele>
	<time>2023-08-07T08:27:04.000Z</time>
</trkpt>
<trkpt lat="46.1247820" lon="10.5096110">
	<ele>2326.20</ele>
	<time>2023-08-07T08:27:05.000Z</time>
</trkpt>
<trkpt lat="46.1247940" lon="10.5096080">
	<ele>2326.00</ele>
	<time>2023-08-07T08:27:06.000Z</time>
</trkpt>
<trkpt lat="46.1247980" lon="10.5096040">
	<ele>2325.80</ele>
	<time>2023-08-07T08:27:07.000Z</time>
</trkpt>
<trkpt lat="46.1247990" lon="10.5096000">
	<ele>2325.60</ele>
	<time>2023-08-07T08:27:08.000Z</time>
</trkpt>
<trkpt lat="46.1247980" lon="10.5095950">
	<ele>2325.20</ele>
	<time>2023-08-07T08:27:09.000Z</time>
</trkpt>
<trkpt lat="46.1247960" lon="10.5095930">
	<ele>2325.00</ele>
	<time>2023-08-07T08:27:10.000Z</time>
</trkpt>
<trkpt lat="46.1247990" lon="10.5095860">
	<ele>2324.80</ele>
	<time>2023-08-07T08:27:11.000Z</time>
</trkpt>
<trkpt lat="46.1247930" lon="10.5095780">
	<ele>2324.60</ele>
	<time>2023-08-07T08:27:12.000Z</time>
</trkpt>
<trkpt lat="46.1247940" lon="10.5095730">
	<ele>2324.40</ele>
	<time>2023-08-07T08:27:13.000Z</time>
</trkpt>
<trkpt lat="46.1247940" lon="10.5095640">
	<ele>2324.40</ele>
	<time>2023-08-07T08:27:14.000Z</time>
</trkpt>
<trkpt lat="46.1247970" lon="10.5095560">
	<ele>2324.20</ele>
	<time>2023-08-07T08:27:15.000Z</time>
</trkpt>
<trkpt lat="46.1247930" lon="10.5095510">
	<ele>2324.00</ele>
	<time>2023-08-07T08:27:16.000Z</time>
</trkpt>
<trkpt lat="46.1247930" lon="10.5095510">
	<ele>2323.80</ele>
	<time>2023-08-07T08:27:17.000Z</time>
</trkpt>
<trkpt lat="46.1247930" lon="10.5095490">
	<ele>2323.40</ele>
	<time>2023-08-07T08:27:18.000Z</time>
</trkpt>
<trkpt lat="46.1247990" lon="10.5095440">
	<ele>2323.20</ele>
	<time>2023-08-07T08:27:19.000Z</time>
</trkpt>
<trkpt lat="46.1248060" lon="10.5095410">
	<ele>2323.20</ele>
	<time>2023-08-07T08:27:20.000Z</time>
</trkpt>
<trkpt lat="46.1248100" lon="10.5095390">
	<ele>2323.00</ele>
	<time>2023-08-07T08:27:21.000Z</time>
</trkpt>
<trkpt lat="46.1248150" lon="10.5095330">
	<ele>2322.80</ele>
	<time>2023-08-07T08:27:22.000Z</time>
</trkpt>
<trkpt lat="46.1248200" lon="10.5095260">
	<ele>2322.80</ele>
	<time>2023-08-07T08:27:23.000Z</time>
</trkpt>
<trkpt lat="46.1248230" lon="10.5095190">
	<ele>2322.60</ele>
	<time>2023-08-07T08:27:24.000Z</time>
</trkpt>
<trkpt lat="46.1248330" lon="10.5095120">
	<ele>2322.40</ele>
	<time>2023-08-07T08:27:25.000Z</time>
</trkpt>
<trkpt lat="46.1248400" lon="10.5095110">
	<ele>2322.20</ele>
	<time>2023-08-07T08:27:26.000Z</time>
</trkpt>
<trkpt lat="46.1248470" lon="10.5095060">
	<ele>2322.00</ele>
	<time>2023-08-07T08:27:27.000Z</time>
</trkpt>
<trkpt lat="46.1248520" lon="10.5095020">
	<ele>2321.60</ele>
	<time>2023-08-07T08:27:28.000Z</time>
</trkpt>
<trkpt lat="46.1248560" lon="10.5094990">
	<ele>2321.00</ele>
	<time>2023-08-07T08:27:29.000Z</time>
</trkpt>
<trkpt lat="46.1248590" lon="10.5094960">
	<ele>2320.80</ele>
	<time>2023-08-07T08:27:30.000Z</time>
</trkpt>
<trkpt lat="46.1248610" lon="10.5094920">
	<ele>2320.40</ele>
	<time>2023-08-07T08:27:31.000Z</time>
</trkpt>
<trkpt lat="46.1248620" lon="10.5094910">
	<ele>2320.40</ele>
	<time>2023-08-07T08:27:32.000Z</time>
</trkpt>
<trkpt lat="46.1248630" lon="10.5094860">
	<ele>2320.20</ele>
	<time>2023-08-07T08:27:33.000Z</time>
</trkpt>
<trkpt lat="46.1248720" lon="10.5094840">
	<ele>2320.00</ele>
	<time>2023-08-07T08:27:34.000Z</time>
</trkpt>
<trkpt lat="46.1248750" lon="10.5094810">
	<ele>2319.80</ele>
	<time>2023-08-07T08:27:35.000Z</time>
</trkpt>
<trkpt lat="46.1248830" lon="10.5094760">
	<ele>2319.60</ele>
	<time>2023-08-07T08:27:36.000Z</time>
</trkpt>
<trkpt lat="46.1248790" lon="10.5094720">
	<ele>2319.40</ele>
	<time>2023-08-07T08:27:37.000Z</time>
</trkpt>
<trkpt lat="46.1248740" lon="10.5094720">
	<ele>2319.40</ele>
	<time>2023-08-07T08:27:38.000Z</time>
</trkpt>
<trkpt lat="46.1248770" lon="10.5094690">
	<ele>2319.20</ele>
	<time>2023-08-07T08:27:39.000Z</time>
</trkpt>
<trkpt lat="46.1248820" lon="10.5094670">
	<ele>2318.80</ele>
	<time>2023-08-07T08:27:40.000Z</time>
</trkpt>
<trkpt lat="46.1248890" lon="10.5094650">
	<ele>2318.80</ele>
	<time>2023-08-07T08:27:41.000Z</time>
</trkpt>
<trkpt lat="46.1248990" lon="10.5094590">
	<ele>2318.60</ele>
	<time>2023-08-07T08:27:42.000Z</time>
</trkpt>
<trkpt lat="46.1248990" lon="10.5094530">
	<ele>2318.40</ele>
	<time>2023-08-07T08:27:43.000Z</time>
</trkpt>
<trkpt lat="46.1249070" lon="10.5094470">
	<ele>2318.20</ele>
	<time>2023-08-07T08:27:44.000Z</time>
</trkpt>
<trkpt lat="46.1249100" lon="10.5094430">
	<ele>2318.20</ele>
	<time>2023-08-07T08:27:45.000Z</time>
</trkpt>
<trkpt lat="46.1249100" lon="10.5094380">
	<ele>2317.60</ele>
	<time>2023-08-07T08:27:46.000Z</time>
</trkpt>
<trkpt lat="46.1249130" lon="10.5094360">
	<ele>2317.40</ele>
	<time>2023-08-07T08:27:47.000Z</time>
</trkpt>
<trkpt lat="46.1249140" lon="10.5094320">
	<ele>2317.20</ele>
	<time>2023-08-07T08:27:48.000Z</time>
</trkpt>
<trkpt lat="46.1249170" lon="10.5094200">
	<ele>2317.20</ele>
	<time>2023-08-07T08:27:49.000Z</time>
</trkpt>
<trkpt lat="46.1249170" lon="10.5094170">
	<ele>2317.00</ele>
	<time>2023-08-07T08:27:50.000Z</time>
</trkpt>
<trkpt lat="46.1249180" lon="10.5094080">
	<ele>2317.00</ele>
	<time>2023-08-07T08:27:51.000Z</time>
</trkpt>
<trkpt lat="46.1249210" lon="10.5094010">
	<ele>2316.80</ele>
	<time>2023-08-07T08:27:52.000Z</time>
</trkpt>
<trkpt lat="46.1249210" lon="10.5093880">
	<ele>2316.40</ele>
	<time>2023-08-07T08:27:53.000Z</time>
</trkpt>
<trkpt lat="46.1249330" lon="10.5093830">
	<ele>2316.20</ele>
	<time>2023-08-07T08:27:54.000Z</time>
</trkpt>
<trkpt lat="46.1249390" lon="10.5093780">
	<ele>2316.00</ele>
	<time>2023-08-07T08:27:55.000Z</time>
</trkpt>
<trkpt lat="46.1249370" lon="10.5093660">
	<ele>2315.80</ele>
	<time>2023-08-07T08:27:56.000Z</time>
</trkpt>
<trkpt lat="46.1249330" lon="10.5093590">
	<ele>2315.40</ele>
	<time>2023-08-07T08:27:57.000Z</time>
</trkpt>
<trkpt lat="46.1249350" lon="10.5093510">
	<ele>2315.20</ele>
	<time>2023-08-07T08:27:58.000Z</time>
</trkpt>
<trkpt lat="46.1249410" lon="10.5093430">
	<ele>2315.00</ele>
	<time>2023-08-07T08:27:59.000Z</time>
</trkpt>
<trkpt lat="46.1249400" lon="10.5093380">
	<ele>2314.80</ele>
	<time>2023-08-07T08:28:00.000Z</time>
</trkpt>
<trkpt lat="46.1249390" lon="10.5093320">
	<ele>2314.80</ele>
	<time>2023-08-07T08:28:01.000Z</time>
</trkpt>
<trkpt lat="46.1249420" lon="10.5093240">
	<ele>2314.40</ele>
	<time>2023-08-07T08:28:02.000Z</time>
</trkpt>
<trkpt lat="46.1249440" lon="10.5093180">
	<ele>2314.20</ele>
	<time>2023-08-07T08:28:03.000Z</time>
</trkpt>
<trkpt lat="46.1249500" lon="10.5093050">
	<ele>2314.20</ele>
	<time>2023-08-07T08:28:04.000Z</time>
</trkpt>
<trkpt lat="46.1249470" lon="10.5092910">
	<ele>2313.80</ele>
	<time>2023-08-07T08:28:05.000Z</time>
</trkpt>
<trkpt lat="46.1249470" lon="10.5092770">
	<ele>2313.60</ele>
	<time>2023-08-07T08:28:06.000Z</time>
</trkpt>
<trkpt lat="46.1249460" lon="10.5092640">
	<ele>2313.40</ele>
	<time>2023-08-07T08:28:07.000Z</time>
</trkpt>
<trkpt lat="46.1249450" lon="10.5092550">
	<ele>2313.00</ele>
	<time>2023-08-07T08:28:08.000Z</time>
</trkpt>
<trkpt lat="46.1249510" lon="10.5092550">
	<ele>2312.80</ele>
	<time>2023-08-07T08:28:09.000Z</time>
</trkpt>
<trkpt lat="46.1249510" lon="10.5092530">
	<ele>2312.60</ele>
	<time>2023-08-07T08:28:10.000Z</time>
</trkpt>
<trkpt lat="46.1249500" lon="10.5092540">
	<ele>2312.40</ele>
	<time>2023-08-07T08:28:11.000Z</time>
</trkpt>
<trkpt lat="46.1249510" lon="10.5092540">
	<ele>2312.00</ele>
	<time>2023-08-07T08:28:12.000Z</time>
</trkpt>
<trkpt lat="46.1249510" lon="10.5092520">
	<ele>2312.00</ele>
	<time>2023-08-07T08:28:13.000Z</time>
</trkpt>
<trkpt lat="46.1249520" lon="10.5092450">
	<ele>2312.00</ele>
	<time>2023-08-07T08:28:14.000Z</time>
</trkpt>
<trkpt lat="46.1249530" lon="10.5092440">
	<ele>2312.00</ele>
	<time>2023-08-07T08:28:15.000Z</time>
</trkpt>
<trkpt lat="46.1249510" lon="10.5092420">
	<ele>2312.00</ele>
	<time>2023-08-07T08:28:16.000Z</time>
</trkpt>
<trkpt lat="46.1249510" lon="10.5092420">
	<ele>2312.20</ele>
	<time>2023-08-07T08:28:17.000Z</time>
</trkpt>
<trkpt lat="46.1249510" lon="10.5092410">
	<ele>2312.20</ele>
	<time>2023-08-07T08:28:18.000Z</time>
</trkpt>
<trkpt lat="46.1249520" lon="10.5092420">
	<ele>2312.20</ele>
	<time>2023-08-07T08:28:19.000Z</time>
</trkpt>
<trkpt lat="46.1249540" lon="10.5092430">
	<ele>2312.40</ele>
	<time>2023-08-07T08:28:20.000Z</time>
</trkpt>
<trkpt lat="46.1249550" lon="10.5092430">
	<ele>2312.40</ele>
	<time>2023-08-07T08:28:21.000Z</time>
</trkpt>
<trkpt lat="46.1249530" lon="10.5092420">
	<ele>2312.40</ele>
	<time>2023-08-07T08:28:22.000Z</time>
</trkpt>
<trkpt lat="46.1249470" lon="10.5092420">
	<ele>2312.40</ele>
	<time>2023-08-07T08:28:23.000Z</time>
</trkpt>
<trkpt lat="46.1249400" lon="10.5092400">
	<ele>2312.20</ele>
	<time>2023-08-07T08:28:24.000Z</time>
</trkpt>
<trkpt lat="46.1249380" lon="10.5092330">
	<ele>2312.00</ele>
	<time>2023-08-07T08:28:25.000Z</time>
</trkpt>
<trkpt lat="46.1249310" lon="10.5092220">
	<ele>2312.00</ele>
	<time>2023-08-07T08:28:26.000Z</time>
</trkpt>
<trkpt lat="46.1249320" lon="10.5092170">
	<ele>2311.80</ele>
	<time>2023-08-07T08:28:27.000Z</time>
</trkpt>
<trkpt lat="46.1249310" lon="10.5092100">
	<ele>2311.60</ele>
	<time>2023-08-07T08:28:28.000Z</time>
</trkpt>
<trkpt lat="46.1249360" lon="10.5092030">
	<ele>2311.40</ele>
	<time>2023-08-07T08:28:29.000Z</time>
</trkpt>
<trkpt lat="46.1249390" lon="10.5091920">
	<ele>2311.20</ele>
	<time>2023-08-07T08:28:30.000Z</time>
</trkpt>
<trkpt lat="46.1249400" lon="10.5091870">
	<ele>2311.00</ele>
	<time>2023-08-07T08:28:31.000Z</time>
</trkpt>
<trkpt lat="46.1249390" lon="10.5091790">
	<ele>2310.40</ele>
	<time>2023-08-07T08:28:32.000Z</time>
</trkpt>
<trkpt lat="46.1249410" lon="10.5091740">
	<ele>2310.00</ele>
	<time>2023-08-07T08:28:33.000Z</time>
</trkpt>
<trkpt lat="46.1249370" lon="10.5091610">
	<ele>2309.80</ele>
	<time>2023-08-07T08:28:34.000Z</time>
</trkpt>
<trkpt lat="46.1249360" lon="10.5091470">
	<ele>2309.60</ele>
	<time>2023-08-07T08:28:35.000Z</time>
</trkpt>
<trkpt lat="46.1249430" lon="10.5091440">
	<ele>2309.40</ele>
	<time>2023-08-07T08:28:36.000Z</time>
</trkpt>
<trkpt lat="46.1249460" lon="10.5091400">
	<ele>2309.40</ele>
	<time>2023-08-07T08:28:37.000Z</time>
</trkpt>
<trkpt lat="46.1249450" lon="10.5091330">
	<ele>2309.20</ele>
	<time>2023-08-07T08:28:38.000Z</time>
</trkpt>
<trkpt lat="46.1249480" lon="10.5091320">
	<ele>2308.80</ele>
	<time>2023-08-07T08:28:39.000Z</time>
</trkpt>
<trkpt lat="46.1249470" lon="10.5091260">
	<ele>2308.80</ele>
	<time>2023-08-07T08:28:40.000Z</time>
</trkpt>
<trkpt lat="46.1249480" lon="10.5091200">
	<ele>2308.40</ele>
	<time>2023-08-07T08:28:41.000Z</time>
</trkpt>
<trkpt lat="46.1249550" lon="10.5091120">
	<ele>2308.00</ele>
	<time>2023-08-07T08:28:42.000Z</time>
</trkpt>
<trkpt lat="46.1249580" lon="10.5091060">
	<ele>2307.80</ele>
	<time>2023-08-07T08:28:43.000Z</time>
</trkpt>
<trkpt lat="46.1249640" lon="10.5091020">
	<ele>2307.80</ele>
	<time>2023-08-07T08:28:44.000Z</time>
</trkpt>
<trkpt lat="46.1249650" lon="10.5090920">
	<ele>2307.60</ele>
	<time>2023-08-07T08:28:45.000Z</time>
</trkpt>
<trkpt lat="46.1249680" lon="10.5090870">
	<ele>2307.60</ele>
	<time>2023-08-07T08:28:46.000Z</time>
</trkpt>
<trkpt lat="46.1249690" lon="10.5090810">
	<ele>2307.40</ele>
	<time>2023-08-07T08:28:47.000Z</time>
</trkpt>
<trkpt lat="46.1249710" lon="10.5090790">
	<ele>2307.00</ele>
	<time>2023-08-07T08:28:48.000Z</time>
</trkpt>
<trkpt lat="46.1249740" lon="10.5090730">
	<ele>2306.80</ele>
	<time>2023-08-07T08:28:49.000Z</time>
</trkpt>
<trkpt lat="46.1249710" lon="10.5090680">
	<ele>2306.60</ele>
	<time>2023-08-07T08:28:50.000Z</time>
</trkpt>
<trkpt lat="46.1249690" lon="10.5090640">
	<ele>2306.20</ele>
	<time>2023-08-07T08:28:51.000Z</time>
</trkpt>
<trkpt lat="46.1249670" lon="10.5090560">
	<ele>2305.80</ele>
	<time>2023-08-07T08:28:52.000Z</time>
</trkpt>
<trkpt lat="46.1249670" lon="10.5090420">
	<ele>2305.60</ele>
	<time>2023-08-07T08:28:53.000Z</time>
</trkpt>
<trkpt lat="46.1249660" lon="10.5090360">
	<ele>2305.20</ele>
	<time>2023-08-07T08:28:54.000Z</time>
</trkpt>
<trkpt lat="46.1249640" lon="10.5090320">
	<ele>2305.20</ele>
	<time>2023-08-07T08:28:55.000Z</time>
</trkpt>
<trkpt lat="46.1249660" lon="10.5090310">
	<ele>2305.00</ele>
	<time>2023-08-07T08:28:56.000Z</time>
</trkpt>
<trkpt lat="46.1249640" lon="10.5090280">
	<ele>2304.80</ele>
	<time>2023-08-07T08:28:57.000Z</time>
</trkpt>
<trkpt lat="46.1249620" lon="10.5090150">
	<ele>2304.60</ele>
	<time>2023-08-07T08:28:58.000Z</time>
</trkpt>
<trkpt lat="46.1249630" lon="10.5090090">
	<ele>2304.60</ele>
	<time>2023-08-07T08:28:59.000Z</time>
</trkpt>
<trkpt lat="46.1249640" lon="10.5090050">
	<ele>2304.20</ele>
	<time>2023-08-07T08:29:00.000Z</time>
</trkpt>
<trkpt lat="46.1249660" lon="10.5089970">
	<ele>2304.20</ele>
	<time>2023-08-07T08:29:01.000Z</time>
</trkpt>
<trkpt lat="46.1249690" lon="10.5089890">
	<ele>2304.00</ele>
	<time>2023-08-07T08:29:02.000Z</time>
</trkpt>
<trkpt lat="46.1249700" lon="10.5089820">
	<ele>2304.00</ele>
	<time>2023-08-07T08:29:03.000Z</time>
</trkpt>
<trkpt lat="46.1249710" lon="10.5089750">
	<ele>2303.80</ele>
	<time>2023-08-07T08:29:04.000Z</time>
</trkpt>
<trkpt lat="46.1249700" lon="10.5089670">
	<ele>2303.80</ele>
	<time>2023-08-07T08:29:05.000Z</time>
</trkpt>
<trkpt lat="46.1249740" lon="10.5089630">
	<ele>2303.60</ele>
	<time>2023-08-07T08:29:06.000Z</time>
</trkpt>
<trkpt lat="46.1249740" lon="10.5089580">
	<ele>2303.40</ele>
	<time>2023-08-07T08:29:07.000Z</time>
</trkpt>
<trkpt lat="46.1249770" lon="10.5089540">
	<ele>2303.40</ele>
	<time>2023-08-07T08:29:08.000Z</time>
</trkpt>
<trkpt lat="46.1249820" lon="10.5089470">
	<ele>2303.20</ele>
	<time>2023-08-07T08:29:09.000Z</time>
</trkpt>
<trkpt lat="46.1249940" lon="10.5089430">
	<ele>2303.20</ele>
	<time>2023-08-07T08:29:10.000Z</time>
</trkpt>
<trkpt lat="46.1250070" lon="10.5089420">
	<ele>2302.80</ele>
	<time>2023-08-07T08:29:11.000Z</time>
</trkpt>
<trkpt lat="46.1250080" lon="10.5089380">
	<ele>2302.60</ele>
	<time>2023-08-07T08:29:12.000Z</time>
</trkpt>
<trkpt lat="46.1250150" lon="10.5089360">
	<ele>2302.40</ele>
	<time>2023-08-07T08:29:13.000Z</time>
</trkpt>
<trkpt lat="46.1250160" lon="10.5089340">
	<ele>2302.20</ele>
	<time>2023-08-07T08:29:14.000Z</time>
</trkpt>
<trkpt lat="46.1250160" lon="10.5089300">
	<ele>2302.20</ele>
	<time>2023-08-07T08:29:15.000Z</time>
</trkpt>
<trkpt lat="46.1250180" lon="10.5089250">
	<ele>2302.20</ele>
	<time>2023-08-07T08:29:16.000Z</time>
</trkpt>
<trkpt lat="46.1250170" lon="10.5089230">
	<ele>2302.20</ele>
	<time>2023-08-07T08:29:17.000Z</time>
</trkpt>
<trkpt lat="46.1250190" lon="10.5089180">
	<ele>2301.80</ele>
	<time>2023-08-07T08:29:18.000Z</time>
</trkpt>
<trkpt lat="46.1250250" lon="10.5089140">
	<ele>2301.60</ele>
	<time>2023-08-07T08:29:19.000Z</time>
</trkpt>
<trkpt lat="46.1250270" lon="10.5089110">
	<ele>2301.60</ele>
	<time>2023-08-07T08:29:20.000Z</time>
</trkpt>
<trkpt lat="46.1250330" lon="10.5089090">
	<ele>2301.40</ele>
	<time>2023-08-07T08:29:21.000Z</time>
</trkpt>
<trkpt lat="46.1250450" lon="10.5089070">
	<ele>2301.00</ele>
	<time>2023-08-07T08:29:22.000Z</time>
</trkpt>
<trkpt lat="46.1250460" lon="10.5089050">
	<ele>2300.80</ele>
	<time>2023-08-07T08:29:23.000Z</time>
</trkpt>
<trkpt lat="46.1250460" lon="10.5089020">
	<ele>2300.60</ele>
	<time>2023-08-07T08:29:24.000Z</time>
</trkpt>
<trkpt lat="46.1250480" lon="10.5088990">
	<ele>2300.40</ele>
	<time>2023-08-07T08:29:25.000Z</time>
</trkpt>
<trkpt lat="46.1250520" lon="10.5088940">
	<ele>2300.20</ele>
	<time>2023-08-07T08:29:26.000Z</time>
</trkpt>
<trkpt lat="46.1250550" lon="10.5088830">
	<ele>2300.00</ele>
	<time>2023-08-07T08:29:27.000Z</time>
</trkpt>
<trkpt lat="46.1250510" lon="10.5088740">
	<ele>2299.80</ele>
	<time>2023-08-07T08:29:28.000Z</time>
</trkpt>
<trkpt lat="46.1250470" lon="10.5088680">
	<ele>2299.60</ele>
	<time>2023-08-07T08:29:29.000Z</time>
</trkpt>
<trkpt lat="46.1250480" lon="10.5088630">
	<ele>2299.60</ele>
	<time>2023-08-07T08:29:30.000Z</time>
</trkpt>
<trkpt lat="46.1250530" lon="10.5088560">
	<ele>2299.40</ele>
	<time>2023-08-07T08:29:31.000Z</time>
</trkpt>
<trkpt lat="46.1250570" lon="10.5088530">
	<ele>2299.40</ele>
	<time>2023-08-07T08:29:32.000Z</time>
</trkpt>
<trkpt lat="46.1250570" lon="10.5088390">
	<ele>2299.00</ele>
	<time>2023-08-07T08:29:33.000Z</time>
</trkpt>
<trkpt lat="46.1250600" lon="10.5088330">
	<ele>2298.80</ele>
	<time>2023-08-07T08:29:34.000Z</time>
</trkpt>
<trkpt lat="46.1250680" lon="10.5088290">
	<ele>2298.60</ele>
	<time>2023-08-07T08:29:35.000Z</time>
</trkpt>
<trkpt lat="46.1250770" lon="10.5088230">
	<ele>2298.40</ele>
	<time>2023-08-07T08:29:36.000Z</time>
</trkpt>
<trkpt lat="46.1250860" lon="10.5088200">
	<ele>2298.20</ele>
	<time>2023-08-07T08:29:37.000Z</time>
</trkpt>
<trkpt lat="46.1250900" lon="10.5088150">
	<ele>2298.20</ele>
	<time>2023-08-07T08:29:38.000Z</time>
</trkpt>
<trkpt lat="46.1250900" lon="10.5088090">
	<ele>2298.00</ele>
	<time>2023-08-07T08:29:39.000Z</time>
</trkpt>
<trkpt lat="46.1250870" lon="10.5088040">
	<ele>2298.00</ele>
	<time>2023-08-07T08:29:40.000Z</time>
</trkpt>
<trkpt lat="46.1250910" lon="10.5088000">
	<ele>2297.80</ele>
	<time>2023-08-07T08:29:41.000Z</time>
</trkpt>
<trkpt lat="46.1250930" lon="10.5087990">
	<ele>2297.80</ele>
	<time>2023-08-07T08:29:42.000Z</time>
</trkpt>
<trkpt lat="46.1250950" lon="10.5087960">
	<ele>2297.80</ele>
	<time>2023-08-07T08:29:43.000Z</time>
</trkpt>
<trkpt lat="46.1250880" lon="10.5087860">
	<ele>2297.20</ele>
	<time>2023-08-07T08:29:44.000Z</time>
</trkpt>
<trkpt lat="46.1250880" lon="10.5087780">
	<ele>2297.00</ele>
	<time>2023-08-07T08:29:45.000Z</time>
</trkpt>
<trkpt lat="46.1250900" lon="10.5087680">
	<ele>2296.80</ele>
	<time>2023-08-07T08:29:46.000Z</time>
</trkpt>
<trkpt lat="46.1250950" lon="10.5087530">
	<ele>2296.60</ele>
	<time>2023-08-07T08:29:47.000Z</time>
</trkpt>
<trkpt lat="46.1251020" lon="10.5087450">
	<ele>2296.40</ele>
	<time>2023-08-07T08:29:48.000Z</time>
</trkpt>
<trkpt lat="46.1251120" lon="10.5087420">
	<ele>2296.40</ele>
	<time>2023-08-07T08:29:49.000Z</time>
</trkpt>
<trkpt lat="46.1251210" lon="10.5087420">
	<ele>2296.20</ele>
	<time>2023-08-07T08:29:50.000Z</time>
</trkpt>
<trkpt lat="46.1251300" lon="10.5087430">
	<ele>2296.00</ele>
	<time>2023-08-07T08:29:51.000Z</time>
</trkpt>
<trkpt lat="46.1251430" lon="10.5087480">
	<ele>2295.80</ele>
	<time>2023-08-07T08:29:52.000Z</time>
</trkpt>
<trkpt lat="46.1251490" lon="10.5087510">
	<ele>2295.60</ele>
	<time>2023-08-07T08:29:53.000Z</time>
</trkpt>
<trkpt lat="46.1251560" lon="10.5087510">
	<ele>2295.40</ele>
	<time>2023-08-07T08:29:54.000Z</time>
</trkpt>
<trkpt lat="46.1251670" lon="10.5087520">
	<ele>2295.20</ele>
	<time>2023-08-07T08:29:55.000Z</time>
</trkpt>
<trkpt lat="46.1251740" lon="10.5087470">
	<ele>2294.80</ele>
	<time>2023-08-07T08:29:56.000Z</time>
</trkpt>
<trkpt lat="46.1251790" lon="10.5087400">
	<ele>2294.60</ele>
	<time>2023-08-07T08:29:57.000Z</time>
</trkpt>
<trkpt lat="46.1251830" lon="10.5087330">
	<ele>2294.40</ele>
	<time>2023-08-07T08:29:58.000Z</time>
</trkpt>
<trkpt lat="46.1251880" lon="10.5087310">
	<ele>2294.20</ele>
	<time>2023-08-07T08:29:59.000Z</time>
</trkpt>
<trkpt lat="46.1251950" lon="10.5087270">
	<ele>2294.00</ele>
	<time>2023-08-07T08:30:00.000Z</time>
</trkpt>
<trkpt lat="46.1252030" lon="10.5087230">
	<ele>2293.80</ele>
	<time>2023-08-07T08:30:01.000Z</time>
</trkpt>
<trkpt lat="46.1252090" lon="10.5087140">
	<ele>2293.40</ele>
	<time>2023-08-07T08:30:02.000Z</time>
</trkpt>
<trkpt lat="46.1252180" lon="10.5087040">
	<ele>2293.00</ele>
	<time>2023-08-07T08:30:03.000Z</time>
</trkpt>
<trkpt lat="46.1252240" lon="10.5086970">
	<ele>2292.80</ele>
	<time>2023-08-07T08:30:04.000Z</time>
</trkpt>
<trkpt lat="46.1252360" lon="10.5086880">
	<ele>2292.40</ele>
	<time>2023-08-07T08:30:05.000Z</time>
</trkpt>
<trkpt lat="46.1252490" lon="10.5086840">
	<ele>2292.20</ele>
	<time>2023-08-07T08:30:06.000Z</time>
</trkpt>
<trkpt lat="46.1252620" lon="10.5086790">
	<ele>2292.00</ele>
	<time>2023-08-07T08:30:07.000Z</time>
</trkpt>
<trkpt lat="46.1252650" lon="10.5086670">
	<ele>2291.60</ele>
	<time>2023-08-07T08:30:08.000Z</time>
</trkpt>
<trkpt lat="46.1252700" lon="10.5086490">
	<ele>2291.20</ele>
	<time>2023-08-07T08:30:09.000Z</time>
</trkpt>
<trkpt lat="46.1252730" lon="10.5086380">
	<ele>2291.00</ele>
	<time>2023-08-07T08:30:10.000Z</time>
</trkpt>
<trkpt lat="46.1252700" lon="10.5086360">
	<ele>2290.80</ele>
	<time>2023-08-07T08:30:11.000Z</time>
</trkpt>
<trkpt lat="46.1252700" lon="10.5086260">
	<ele>2290.80</ele>
	<time>2023-08-07T08:30:12.000Z</time>
</trkpt>
<trkpt lat="46.1252700" lon="10.5086110">
	<ele>2290.60</ele>
	<time>2023-08-07T08:30:13.000Z</time>
</trkpt>
<trkpt lat="46.1252740" lon="10.5086000">
	<ele>2290.20</ele>
	<time>2023-08-07T08:30:14.000Z</time>
</trkpt>
<trkpt lat="46.1252840" lon="10.5085940">
	<ele>2290.00</ele>
	<time>2023-08-07T08:30:15.000Z</time>
</trkpt>
<trkpt lat="46.1252950" lon="10.5085900">
	<ele>2289.60</ele>
	<time>2023-08-07T08:30:16.000Z</time>
</trkpt>
<trkpt lat="46.1253060" lon="10.5085930">
	<ele>2289.40</ele>
	<time>2023-08-07T08:30:17.000Z</time>
</trkpt>
<trkpt lat="46.1253130" lon="10.5085930">
	<ele>2289.20</ele>
	<time>2023-08-07T08:30:18.000Z</time>
</trkpt>
<trkpt lat="46.1253120" lon="10.5085930">
	<ele>2289.20</ele>
	<time>2023-08-07T08:30:19.000Z</time>
</trkpt>
<trkpt lat="46.1253140" lon="10.5085920">
	<ele>2288.80</ele>
	<time>2023-08-07T08:30:20.000Z</time>
</trkpt>
<trkpt lat="46.1253150" lon="10.5085890">
	<ele>2288.60</ele>
	<time>2023-08-07T08:30:21.000Z</time>
</trkpt>
<trkpt lat="46.1253200" lon="10.5085890">
	<ele>2288.60</ele>
	<time>2023-08-07T08:30:22.000Z</time>
</trkpt>
<trkpt lat="46.1253260" lon="10.5085880">
	<ele>2288.20</ele>
	<time>2023-08-07T08:30:23.000Z</time>
</trkpt>
<trkpt lat="46.1253320" lon="10.5085860">
	<ele>2288.00</ele>
	<time>2023-08-07T08:30:24.000Z</time>
</trkpt>
<trkpt lat="46.1253360" lon="10.5085820">
	<ele>2288.00</ele>
	<time>2023-08-07T08:30:25.000Z</time>
</trkpt>
<trkpt lat="46.1253380" lon="10.5085770">
	<ele>2287.80</ele>
	<time>2023-08-07T08:30:26.000Z</time>
</trkpt>
<trkpt lat="46.1253400" lon="10.5085730">
	<ele>2287.80</ele>
	<time>2023-08-07T08:30:27.000Z</time>
</trkpt>
<trkpt lat="46.1253430" lon="10.5085680">
	<ele>2287.60</ele>
	<time>2023-08-07T08:30:28.000Z</time>
</trkpt>
<trkpt lat="46.1253450" lon="10.5085650">
	<ele>2287.40</ele>
	<time>2023-08-07T08:30:29.000Z</time>
</trkpt>
<trkpt lat="46.1253490" lon="10.5085560">
	<ele>2287.20</ele>
	<time>2023-08-07T08:30:30.000Z</time>
</trkpt>
<trkpt lat="46.1253530" lon="10.5085460">
	<ele>2287.00</ele>
	<time>2023-08-07T08:30:31.000Z</time>
</trkpt>
<trkpt lat="46.1253670" lon="10.5085390">
	<ele>2286.60</ele>
	<time>2023-08-07T08:30:32.000Z</time>
</trkpt>
<trkpt lat="46.1253700" lon="10.5085360">
	<ele>2286.60</ele>
	<time>2023-08-07T08:30:33.000Z</time>
</trkpt>
<trkpt lat="46.1253750" lon="10.5085340">
	<ele>2286.40</ele>
	<time>2023-08-07T08:30:34.000Z</time>
</trkpt>
<trkpt lat="46.1253770" lon="10.5085320">
	<ele>2286.20</ele>
	<time>2023-08-07T08:30:35.000Z</time>
</trkpt>
<trkpt lat="46.1253700" lon="10.5085240">
	<ele>2286.20</ele>
	<time>2023-08-07T08:30:36.000Z</time>
</trkpt>
<trkpt lat="46.1253670" lon="10.5085170">
	<ele>2286.00</ele>
	<time>2023-08-07T08:30:37.000Z</time>
</trkpt>
<trkpt lat="46.1253690" lon="10.5085040">
	<ele>2286.00</ele>
	<time>2023-08-07T08:30:38.000Z</time>
</trkpt>
<trkpt lat="46.1253690" lon="10.5084940">
	<ele>2285.80</ele>
	<time>2023-08-07T08:30:39.000Z</time>
</trkpt>
<trkpt lat="46.1253700" lon="10.5084870">
	<ele>2285.60</ele>
	<time>2023-08-07T08:30:40.000Z</time>
</trkpt>
<trkpt lat="46.1253700" lon="10.5084840">
	<ele>2285.40</ele>
	<time>2023-08-07T08:30:41.000Z</time>
</trkpt>
<trkpt lat="46.1253680" lon="10.5084830">
	<ele>2285.40</ele>
	<time>2023-08-07T08:30:42.000Z</time>
</trkpt>
<trkpt lat="46.1253690" lon="10.5084800">
	<ele>2285.40</ele>
	<time>2023-08-07T08:30:43.000Z</time>
</trkpt>
<trkpt lat="46.1253690" lon="10.5084720">
	<ele>2285.20</ele>
	<time>2023-08-07T08:30:44.000Z</time>
</trkpt>
<trkpt lat="46.1253570" lon="10.5084580">
	<ele>2285.20</ele>
	<time>2023-08-07T08:30:45.000Z</time>
</trkpt>
<trkpt lat="46.1253510" lon="10.5084580">
	<ele>2285.00</ele>
	<time>2023-08-07T08:30:46.000Z</time>
</trkpt>
<trkpt lat="46.1253510" lon="10.5084540">
	<ele>2284.80</ele>
	<time>2023-08-07T08:30:47.000Z</time>
</trkpt>
<trkpt lat="46.1253500" lon="10.5084470">
	<ele>2284.40</ele>
	<time>2023-08-07T08:30:48.000Z</time>
</trkpt>
<trkpt lat="46.1253490" lon="10.5084400">
	<ele>2284.20</ele>
	<time>2023-08-07T08:30:49.000Z</time>
</trkpt>
<trkpt lat="46.1253490" lon="10.5084380">
	<ele>2284.00</ele>
	<time>2023-08-07T08:30:50.000Z</time>
</trkpt>
<trkpt lat="46.1253500" lon="10.5084330">
	<ele>2283.60</ele>
	<time>2023-08-07T08:30:51.000Z</time>
</trkpt>
<trkpt lat="46.1253540" lon="10.5084280">
	<ele>2283.20</ele>
	<time>2023-08-07T08:30:52.000Z</time>
</trkpt>
<trkpt lat="46.1253590" lon="10.5084260">
	<ele>2283.00</ele>
	<time>2023-08-07T08:30:53.000Z</time>
</trkpt>
<trkpt lat="46.1253620" lon="10.5084230">
	<ele>2282.80</ele>
	<time>2023-08-07T08:30:54.000Z</time>
</trkpt>
<trkpt lat="46.1253620" lon="10.5084190">
	<ele>2282.60</ele>
	<time>2023-08-07T08:30:55.000Z</time>
</trkpt>
<trkpt lat="46.1253630" lon="10.5084160">
	<ele>2282.40</ele>
	<time>2023-08-07T08:30:56.000Z</time>
</trkpt>
<trkpt lat="46.1253680" lon="10.5084070">
	<ele>2282.20</ele>
	<time>2023-08-07T08:30:57.000Z</time>
</trkpt>
<trkpt lat="46.1253750" lon="10.5084010">
	<ele>2282.00</ele>
	<time>2023-08-07T08:30:58.000Z</time>
</trkpt>
<trkpt lat="46.1253790" lon="10.5083950">
	<ele>2281.40</ele>
	<time>2023-08-07T08:30:59.000Z</time>
</trkpt>
<trkpt lat="46.1253830" lon="10.5083900">
	<ele>2281.20</ele>
	<time>2023-08-07T08:31:00.000Z</time>
</trkpt>
<trkpt lat="46.1253830" lon="10.5083870">
	<ele>2281.00</ele>
	<time>2023-08-07T08:31:01.000Z</time>
</trkpt>
<trkpt lat="46.1253840" lon="10.5083790">
	<ele>2280.60</ele>
	<time>2023-08-07T08:31:02.000Z</time>
</trkpt>
<trkpt lat="46.1253880" lon="10.5083760">
	<ele>2280.60</ele>
	<time>2023-08-07T08:31:03.000Z</time>
</trkpt>
<trkpt lat="46.1253930" lon="10.5083700">
	<ele>2280.40</ele>
	<time>2023-08-07T08:31:04.000Z</time>
</trkpt>
<trkpt lat="46.1253960" lon="10.5083680">
	<ele>2280.20</ele>
	<time>2023-08-07T08:31:05.000Z</time>
</trkpt>
<trkpt lat="46.1253990" lon="10.5083670">
	<ele>2280.20</ele>
	<time>2023-08-07T08:31:06.000Z</time>
</trkpt>
<trkpt lat="46.1253990" lon="10.5083610">
	<ele>2280.20</ele>
	<time>2023-08-07T08:31:07.000Z</time>
</trkpt>
<trkpt lat="46.1254010" lon="10.5083600">
	<ele>2280.00</ele>
	<time>2023-08-07T08:31:08.000Z</time>
</trkpt>
<trkpt lat="46.1254010" lon="10.5083590">
	<ele>2280.00</ele>
	<time>2023-08-07T08:31:09.000Z</time>
</trkpt>
<trkpt lat="46.1254000" lon="10.5083600">
	<ele>2280.00</ele>
	<time>2023-08-07T08:31:10.000Z</time>
</trkpt>
<trkpt lat="46.1254000" lon="10.5083600">
	<ele>2280.00</ele>
	<time>2023-08-07T08:31:11.000Z</time>
</trkpt>
<trkpt lat="46.1253990" lon="10.5083600">
	<ele>2280.00</ele>
	<time>2023-08-07T08:31:12.000Z</time>
</trkpt>
<trkpt lat="46.1253980" lon="10.5083600">
	<ele>2280.00</ele>
	<time>2023-08-07T08:31:13.000Z</time>
</trkpt>
<trkpt lat="46.1253900" lon="10.5083550">
	<ele>2280.20</ele>
	<time>2023-08-07T08:31:14.000Z</time>
</trkpt>
<trkpt lat="46.1253830" lon="10.5083540">
	<ele>2280.20</ele>
	<time>2023-08-07T08:31:15.000Z</time>
</trkpt>
<trkpt lat="46.1253830" lon="10.5083510">
	<ele>2280.40</ele>
	<time>2023-08-07T08:31:16.000Z</time>
</trkpt>
<trkpt lat="46.1253810" lon="10.5083500">
	<ele>2280.40</ele>
	<time>2023-08-07T08:31:17.000Z</time>
</trkpt>
<trkpt lat="46.1253810" lon="10.5083500">
	<ele>2280.60</ele>
	<time>2023-08-07T08:31:18.000Z</time>
</trkpt>
<trkpt lat="46.1253820" lon="10.5083510">
	<ele>2280.80</ele>
	<time>2023-08-07T08:31:19.000Z</time>
</trkpt>
<trkpt lat="46.1253840" lon="10.5083520">
	<ele>2280.80</ele>
	<time>2023-08-07T08:31:20.000Z</time>
</trkpt>
<trkpt lat="46.1253860" lon="10.5083540">
	<ele>2281.00</ele>
	<time>2023-08-07T08:31:21.000Z</time>
</trkpt>
<trkpt lat="46.1253860" lon="10.5083540">
	<ele>2281.00</ele>
	<time>2023-08-07T08:31:22.000Z</time>
</trkpt>
<trkpt lat="46.1253860" lon="10.5083540">
	<ele>2281.00</ele>
	<time>2023-08-07T08:31:23.000Z</time>
</trkpt>
<trkpt lat="46.1253860" lon="10.5083540">
	<ele>2280.80</ele>
	<time>2023-08-07T08:31:24.000Z</time>
</trkpt>
<trkpt lat="46.1253860" lon="10.5083540">
	<ele>2280.40</ele>
	<time>2023-08-07T08:31:25.000Z</time>
</trkpt>
<trkpt lat="46.1253860" lon="10.5083540">
	<ele>2280.40</ele>
	<time>2023-08-07T08:31:26.000Z</time>
</trkpt>
<trkpt lat="46.1253860" lon="10.5083540">
	<ele>2280.00</ele>
	<time>2023-08-07T08:31:27.000Z</time>
</trkpt>
<trkpt lat="46.1253860" lon="10.5083540">
	<ele>2279.80</ele>
	<time>2023-08-07T08:31:28.000Z</time>
</trkpt>
<trkpt lat="46.1253860" lon="10.5083540">
	<ele>2279.60</ele>
	<time>2023-08-07T08:31:29.000Z</time>
</trkpt>
<trkpt lat="46.1253860" lon="10.5083540">
	<ele>2279.40</ele>
	<time>2023-08-07T08:31:30.000Z</time>
</trkpt>
<trkpt lat="46.1253860" lon="10.5083540">
	<ele>2279.20</ele>
	<time>2023-08-07T08:31:31.000Z</time>
</trkpt>
<trkpt lat="46.1253860" lon="10.5083540">
	<ele>2279.20</ele>
	<time>2023-08-07T08:31:32.000Z</time>
</trkpt>
<trkpt lat="46.1253860" lon="10.5083540">
	<ele>2278.80</ele>
	<time>2023-08-07T08:31:33.000Z</time>
</trkpt>
<trkpt lat="46.1253860" lon="10.5083540">
	<ele>2278.80</ele>
	<time>2023-08-07T08:31:34.000Z</time>
</trkpt>
<trkpt lat="46.1253860" lon="10.5083520">
	<ele>2278.60</ele>
	<time>2023-08-07T08:31:35.000Z</time>
</trkpt>
<trkpt lat="46.1253860" lon="10.5083510">
	<ele>2278.60</ele>
	<time>2023-08-07T08:31:36.000Z</time>
</trkpt>
<trkpt lat="46.1253860" lon="10.5083510">
	<ele>2278.40</ele>
	<time>2023-08-07T08:31:37.000Z</time>
</trkpt>
<trkpt lat="46.1253860" lon="10.5083500">
	<ele>2278.20</ele>
	<time>2023-08-07T08:31:38.000Z</time>
</trkpt>
<trkpt lat="46.1253860" lon="10.5083500">
	<ele>2278.00</ele>
	<time>2023-08-07T08:31:39.000Z</time>
</trkpt>
<trkpt lat="46.1253860" lon="10.5083480">
	<ele>2278.00</ele>
	<time>2023-08-07T08:31:40.000Z</time>
</trkpt>
<trkpt lat="46.1253870" lon="10.5083410">
	<ele>2277.80</ele>
	<time>2023-08-07T08:31:41.000Z</time>
</trkpt>
<trkpt lat="46.1253900" lon="10.5083300">
	<ele>2277.60</ele>
	<time>2023-08-07T08:31:42.000Z</time>
</trkpt>
<trkpt lat="46.1253950" lon="10.5083130">
	<ele>2277.60</ele>
	<time>2023-08-07T08:31:43.000Z</time>
</trkpt>
<trkpt lat="46.1253950" lon="10.5082930">
	<ele>2277.40</ele>
	<time>2023-08-07T08:31:44.000Z</time>
</trkpt>
<trkpt lat="46.1253970" lon="10.5082750">
	<ele>2277.20</ele>
	<time>2023-08-07T08:31:45.000Z</time>
</trkpt>
<trkpt lat="46.1254010" lon="10.5082580">
	<ele>2277.20</ele>
	<time>2023-08-07T08:31:46.000Z</time>
</trkpt>
<trkpt lat="46.1254020" lon="10.5082410">
	<ele>2276.80</ele>
	<time>2023-08-07T08:31:47.000Z</time>
</trkpt>
<trkpt lat="46.1254070" lon="10.5082250">
	<ele>2276.40</ele>
	<time>2023-08-07T08:31:48.000Z</time>
</trkpt>
<trkpt lat="46.1254120" lon="10.5082060">
	<ele>2276.20</ele>
	<time>2023-08-07T08:31:49.000Z</time>
</trkpt>
<trkpt lat="46.1254190" lon="10.5081890">
	<ele>2276.00</ele>
	<time>2023-08-07T08:31:50.000Z</time>
</trkpt>
<trkpt lat="46.1254260" lon="10.5081710">
	<ele>2275.60</ele>
	<time>2023-08-07T08:31:51.000Z</time>
</trkpt>
<trkpt lat="46.1254300" lon="10.5081630">
	<ele>2275.40</ele>
	<time>2023-08-07T08:31:52.000Z</time>
</trkpt>
<trkpt lat="46.1254390" lon="10.5081540">
	<ele>2275.20</ele>
	<time>2023-08-07T08:31:53.000Z</time>
</trkpt>
<trkpt lat="46.1254410" lon="10.5081450">
	<ele>2275.20</ele>
	<time>2023-08-07T08:31:54.000Z</time>
</trkpt>
<trkpt lat="46.1254420" lon="10.5081330">
	<ele>2275.00</ele>
	<time>2023-08-07T08:31:55.000Z</time>
</trkpt>
<trkpt lat="46.1254360" lon="10.5081170">
	<ele>2275.00</ele>
	<time>2023-08-07T08:31:56.000Z</time>
</trkpt>
<trkpt lat="46.1254290" lon="10.5080980">
	<ele>2275.00</ele>
	<time>2023-08-07T08:31:57.000Z</time>
</trkpt>
<trkpt lat="46.1254320" lon="10.5080850">
	<ele>2274.80</ele>
	<time>2023-08-07T08:31:58.000Z</time>
</trkpt>
<trkpt lat="46.1254360" lon="10.5080760">
	<ele>2274.80</ele>
	<time>2023-08-07T08:31:59.000Z</time>
</trkpt>
<trkpt lat="46.1254410" lon="10.5080690">
	<ele>2274.80</ele>
	<time>2023-08-07T08:32:00.000Z</time>
</trkpt>
<trkpt lat="46.1254430" lon="10.5080620">
	<ele>2274.60</ele>
	<time>2023-08-07T08:32:01.000Z</time>
</trkpt>
<trkpt lat="46.1254420" lon="10.5080430">
	<ele>2274.40</ele>
	<time>2023-08-07T08:32:02.000Z</time>
</trkpt>
<trkpt lat="46.1254440" lon="10.5080210">
	<ele>2274.20</ele>
	<time>2023-08-07T08:32:03.000Z</time>
</trkpt>
<trkpt lat="46.1254530" lon="10.5080040">
	<ele>2274.00</ele>
	<time>2023-08-07T08:32:04.000Z</time>
</trkpt>
<trkpt lat="46.1254640" lon="10.5079920">
	<ele>2273.60</ele>
	<time>2023-08-07T08:32:05.000Z</time>
</trkpt>
<trkpt lat="46.1254690" lon="10.5079680">
	<ele>2273.40</ele>
	<time>2023-08-07T08:32:06.000Z</time>
</trkpt>
<trkpt lat="46.1254620" lon="10.5079480">
	<ele>2273.20</ele>
	<time>2023-08-07T08:32:07.000Z</time>
</trkpt>
<trkpt lat="46.1254600" lon="10.5079330">
	<ele>2273.00</ele>
	<time>2023-08-07T08:32:08.000Z</time>
</trkpt>
<trkpt lat="46.1254660" lon="10.5079200">
	<ele>2272.80</ele>
	<time>2023-08-07T08:32:09.000Z</time>
</trkpt>
<trkpt lat="46.1254700" lon="10.5079050">
	<ele>2272.60</ele>
	<time>2023-08-07T08:32:10.000Z</time>
</trkpt>
<trkpt lat="46.1254710" lon="10.5078870">
	<ele>2272.40</ele>
	<time>2023-08-07T08:32:11.000Z</time>
</trkpt>
<trkpt lat="46.1254690" lon="10.5078690">
	<ele>2272.20</ele>
	<time>2023-08-07T08:32:12.000Z</time>
</trkpt>
<trkpt lat="46.1254670" lon="10.5078470">
	<ele>2272.20</ele>
	<time>2023-08-07T08:32:13.000Z</time>
</trkpt>
<trkpt lat="46.1254670" lon="10.5078270">
	<ele>2272.00</ele>
	<time>2023-08-07T08:32:14.000Z</time>
</trkpt>
<trkpt lat="46.1254680" lon="10.5078120">
	<ele>2272.00</ele>
	<time>2023-08-07T08:32:15.000Z</time>
</trkpt>
<trkpt lat="46.1254710" lon="10.5078060">
	<ele>2271.80</ele>
	<time>2023-08-07T08:32:16.000Z</time>
</trkpt>
<trkpt lat="46.1254760" lon="10.5077940">
	<ele>2271.80</ele>
	<time>2023-08-07T08:32:17.000Z</time>
</trkpt>
<trkpt lat="46.1254840" lon="10.5077880">
	<ele>2271.80</ele>
	<time>2023-08-07T08:32:18.000Z</time>
</trkpt>
<trkpt lat="46.1254880" lon="10.5077810">
	<ele>2271.60</ele>
	<time>2023-08-07T08:32:19.000Z</time>
</trkpt>
<trkpt lat="46.1254880" lon="10.5077750">
	<ele>2271.60</ele>
	<time>2023-08-07T08:32:20.000Z</time>
</trkpt>
<trkpt lat="46.1254880" lon="10.5077660">
	<ele>2271.60</ele>
	<time>2023-08-07T08:32:21.000Z</time>
</trkpt>
<trkpt lat="46.1254830" lon="10.5077510">
	<ele>2271.40</ele>
	<time>2023-08-07T08:32:22.000Z</time>
</trkpt>
<trkpt lat="46.1254810" lon="10.5077350">
	<ele>2271.20</ele>
	<time>2023-08-07T08:32:23.000Z</time>
</trkpt>
<trkpt lat="46.1254810" lon="10.5077320">
	<ele>2271.00</ele>
	<time>2023-08-07T08:32:24.000Z</time>
</trkpt>
<trkpt lat="46.1254770" lon="10.5077250">
	<ele>2270.80</ele>
	<time>2023-08-07T08:32:25.000Z</time>
</trkpt>
<trkpt lat="46.1254740" lon="10.5077120">
	<ele>2270.60</ele>
	<time>2023-08-07T08:32:26.000Z</time>
</trkpt>
<trkpt lat="46.1254720" lon="10.5077060">
	<ele>2270.60</ele>
	<time>2023-08-07T08:32:27.000Z</time>
</trkpt>
<trkpt lat="46.1254650" lon="10.5077020">
	<ele>2270.40</ele>
	<time>2023-08-07T08:32:28.000Z</time>
</trkpt>
<trkpt lat="46.1254580" lon="10.5076970">
	<ele>2270.40</ele>
	<time>2023-08-07T08:32:29.000Z</time>
</trkpt>
<trkpt lat="46.1254540" lon="10.5076920">
	<ele>2270.40</ele>
	<time>2023-08-07T08:32:30.000Z</time>
</trkpt>
<trkpt lat="46.1254520" lon="10.5076880">
	<ele>2270.20</ele>
	<time>2023-08-07T08:32:31.000Z</time>
</trkpt>
<trkpt lat="46.1254550" lon="10.5076880">
	<ele>2270.00</ele>
	<time>2023-08-07T08:32:32.000Z</time>
</trkpt>
<trkpt lat="46.1254540" lon="10.5076850">
	<ele>2269.80</ele>
	<time>2023-08-07T08:32:33.000Z</time>
</trkpt>
<trkpt lat="46.1254490" lon="10.5076790">
	<ele>2269.60</ele>
	<time>2023-08-07T08:32:34.000Z</time>
</trkpt>
<trkpt lat="46.1254440" lon="10.5076750">
	<ele>2269.60</ele>
	<time>2023-08-07T08:32:35.000Z</time>
</trkpt>
<trkpt lat="46.1254390" lon="10.5076710">
	<ele>2269.40</ele>
	<time>2023-08-07T08:32:36.000Z</time>
</trkpt>
<trkpt lat="46.1254350" lon="10.5076670">
	<ele>2269.20</ele>
	<time>2023-08-07T08:32:37.000Z</time>
</trkpt>
<trkpt lat="46.1254220" lon="10.5076600">
	<ele>2269.20</ele>
	<time>2023-08-07T08:32:38.000Z</time>
</trkpt>
<trkpt lat="46.1254120" lon="10.5076530">
	<ele>2268.80</ele>
	<time>2023-08-07T08:32:39.000Z</time>
</trkpt>
<trkpt lat="46.1254010" lon="10.5076430">
	<ele>2268.40</ele>
	<time>2023-08-07T08:32:40.000Z</time>
</trkpt>
<trkpt lat="46.1253920" lon="10.5076360">
	<ele>2268.20</ele>
	<time>2023-08-07T08:32:41.000Z</time>
</trkpt>
<trkpt lat="46.1253870" lon="10.5076340">
	<ele>2268.20</ele>
	<time>2023-08-07T08:32:42.000Z</time>
</trkpt>
<trkpt lat="46.1253800" lon="10.5076310">
	<ele>2267.80</ele>
	<time>2023-08-07T08:32:43.000Z</time>
</trkpt>
<trkpt lat="46.1253700" lon="10.5076270">
	<ele>2267.80</ele>
	<time>2023-08-07T08:32:44.000Z</time>
</trkpt>
<trkpt lat="46.1253600" lon="10.5076210">
	<ele>2267.60</ele>
	<time>2023-08-07T08:32:45.000Z</time>
</trkpt>
<trkpt lat="46.1253500" lon="10.5076220">
	<ele>2267.40</ele>
	<time>2023-08-07T08:32:46.000Z</time>
</trkpt>
<trkpt lat="46.1253390" lon="10.5076090">
	<ele>2267.20</ele>
	<time>2023-08-07T08:32:47.000Z</time>
</trkpt>
<trkpt lat="46.1253370" lon="10.5075960">
	<ele>2267.00</ele>
	<time>2023-08-07T08:32:48.000Z</time>
</trkpt>
<trkpt lat="46.1253340" lon="10.5075890">
	<ele>2266.80</ele>
	<time>2023-08-07T08:32:49.000Z</time>
</trkpt>
<trkpt lat="46.1253280" lon="10.5075780">
	<ele>2266.60</ele>
	<time>2023-08-07T08:32:50.000Z</time>
</trkpt>
<trkpt lat="46.1253280" lon="10.5075670">
	<ele>2266.40</ele>
	<time>2023-08-07T08:32:51.000Z</time>
</trkpt>
<trkpt lat="46.1253240" lon="10.5075630">
	<ele>2266.20</ele>
	<time>2023-08-07T08:32:52.000Z</time>
</trkpt>
<trkpt lat="46.1253170" lon="10.5075530">
	<ele>2266.00</ele>
	<time>2023-08-07T08:32:53.000Z</time>
</trkpt>
<trkpt lat="46.1253120" lon="10.5075450">
	<ele>2266.00</ele>
	<time>2023-08-07T08:32:54.000Z</time>
</trkpt>
<trkpt lat="46.1253000" lon="10.5075380">
	<ele>2265.80</ele>
	<time>2023-08-07T08:32:55.000Z</time>
</trkpt>
<trkpt lat="46.1252990" lon="10.5075340">
	<ele>2265.80</ele>
	<time>2023-08-07T08:32:56.000Z</time>
</trkpt>
<trkpt lat="46.1252970" lon="10.5075260">
	<ele>2265.60</ele>
	<time>2023-08-07T08:32:57.000Z</time>
</trkpt>
<trkpt lat="46.1253000" lon="10.5075210">
	<ele>2265.60</ele>
	<time>2023-08-07T08:32:58.000Z</time>
</trkpt>
<trkpt lat="46.1252960" lon="10.5075130">
	<ele>2265.40</ele>
	<time>2023-08-07T08:32:59.000Z</time>
</trkpt>
<trkpt lat="46.1252890" lon="10.5075010">
	<ele>2265.20</ele>
	<time>2023-08-07T08:33:00.000Z</time>
</trkpt>
<trkpt lat="46.1252840" lon="10.5074970">
	<ele>2265.00</ele>
	<time>2023-08-07T08:33:01.000Z</time>
</trkpt>
<trkpt lat="46.1252790" lon="10.5074910">
	<ele>2264.60</ele>
	<time>2023-08-07T08:33:02.000Z</time>
</trkpt>
<trkpt lat="46.1252750" lon="10.5074840">
	<ele>2264.40</ele>
	<time>2023-08-07T08:33:03.000Z</time>
</trkpt>
<trkpt lat="46.1252690" lon="10.5074810">
	<ele>2264.40</ele>
	<time>2023-08-07T08:33:04.000Z</time>
</trkpt>
<trkpt lat="46.1252650" lon="10.5074840">
	<ele>2264.20</ele>
	<time>2023-08-07T08:33:05.000Z</time>
</trkpt>
<trkpt lat="46.1252580" lon="10.5074860">
	<ele>2264.20</ele>
	<time>2023-08-07T08:33:06.000Z</time>
</trkpt>
<trkpt lat="46.1252520" lon="10.5074870">
	<ele>2264.00</ele>
	<time>2023-08-07T08:33:07.000Z</time>
</trkpt>
<trkpt lat="46.1252490" lon="10.5074900">
	<ele>2264.00</ele>
	<time>2023-08-07T08:33:08.000Z</time>
</trkpt>
<trkpt lat="46.1252500" lon="10.5074910">
	<ele>2263.60</ele>
	<time>2023-08-07T08:33:09.000Z</time>
</trkpt>
<trkpt lat="46.1252450" lon="10.5074890">
	<ele>2263.40</ele>
	<time>2023-08-07T08:33:10.000Z</time>
</trkpt>
<trkpt lat="46.1252430" lon="10.5074940">
	<ele>2263.00</ele>
	<time>2023-08-07T08:33:11.000Z</time>
</trkpt>
<trkpt lat="46.1252410" lon="10.5074990">
	<ele>2263.00</ele>
	<time>2023-08-07T08:33:12.000Z</time>
</trkpt>
<trkpt lat="46.1252400" lon="10.5074980">
	<ele>2262.80</ele>
	<time>2023-08-07T08:33:13.000Z</time>
</trkpt>
<trkpt lat="46.1252380" lon="10.5074960">
	<ele>2262.40</ele>
	<time>2023-08-07T08:33:14.000Z</time>
</trkpt>
<trkpt lat="46.1252360" lon="10.5074930">
	<ele>2262.00</ele>
	<time>2023-08-07T08:33:15.000Z</time>
</trkpt>
<trkpt lat="46.1252330" lon="10.5074920">
	<ele>2261.60</ele>
	<time>2023-08-07T08:33:16.000Z</time>
</trkpt>
<trkpt lat="46.1252300" lon="10.5074920">
	<ele>2261.40</ele>
	<time>2023-08-07T08:33:17.000Z</time>
</trkpt>
<trkpt lat="46.1252240" lon="10.5074940">
	<ele>2261.20</ele>
	<time>2023-08-07T08:33:18.000Z</time>
</trkpt>
<trkpt lat="46.1252220" lon="10.5074960">
	<ele>2261.00</ele>
	<time>2023-08-07T08:33:19.000Z</time>
</trkpt>
<trkpt lat="46.1252170" lon="10.5074910">
	<ele>2260.80</ele>
	<time>2023-08-07T08:33:20.000Z</time>
</trkpt>
<trkpt lat="46.1252090" lon="10.5074770">
	<ele>2260.60</ele>
	<time>2023-08-07T08:33:21.000Z</time>
</trkpt>
<trkpt lat="46.1252080" lon="10.5074670">
	<ele>2260.20</ele>
	<time>2023-08-07T08:33:22.000Z</time>
</trkpt>
<trkpt lat="46.1252070" lon="10.5074640">
	<ele>2259.80</ele>
	<time>2023-08-07T08:33:23.000Z</time>
</trkpt>
<trkpt lat="46.1252000" lon="10.5074510">
	<ele>2259.40</ele>
	<time>2023-08-07T08:33:24.000Z</time>
</trkpt>
<trkpt lat="46.1251950" lon="10.5074390">
	<ele>2259.40</ele>
	<time>2023-08-07T08:33:25.000Z</time>
</trkpt>
<trkpt lat="46.1251910" lon="10.5074250">
	<ele>2259.20</ele>
	<time>2023-08-07T08:33:26.000Z</time>
</trkpt>
<trkpt lat="46.1251870" lon="10.5074110">
	<ele>2259.00</ele>
	<time>2023-08-07T08:33:27.000Z</time>
</trkpt>
<trkpt lat="46.1251870" lon="10.5073950">
	<ele>2258.80</ele>
	<time>2023-08-07T08:33:28.000Z</time>
</trkpt>
<trkpt lat="46.1251820" lon="10.5073780">
	<ele>2258.60</ele>
	<time>2023-08-07T08:33:29.000Z</time>
</trkpt>
<trkpt lat="46.1251770" lon="10.5073640">
	<ele>2258.60</ele>
	<time>2023-08-07T08:33:30.000Z</time>
</trkpt>
<trkpt lat="46.1251710" lon="10.5073510">
	<ele>2258.40</ele>
	<time>2023-08-07T08:33:31.000Z</time>
</trkpt>
<trkpt lat="46.1251690" lon="10.5073440">
	<ele>2258.20</ele>
	<time>2023-08-07T08:33:32.000Z</time>
</trkpt>
<trkpt lat="46.1251640" lon="10.5073330">
	<ele>2258.20</ele>
	<time>2023-08-07T08:33:33.000Z</time>
</trkpt>
<trkpt lat="46.1251610" lon="10.5073180">
	<ele>2257.80</ele>
	<time>2023-08-07T08:33:34.000Z</time>
</trkpt>
<trkpt lat="46.1251580" lon="10.5073070">
	<ele>2257.60</ele>
	<time>2023-08-07T08:33:35.000Z</time>
</trkpt>
<trkpt lat="46.1251560" lon="10.5072930">
	<ele>2257.40</ele>
	<time>2023-08-07T08:33:36.000Z</time>
</trkpt>
<trkpt lat="46.1251470" lon="10.5072830">
	<ele>2257.20</ele>
	<time>2023-08-07T08:33:37.000Z</time>
</trkpt>
<trkpt lat="46.1251410" lon="10.5072720">
	<ele>2257.00</ele>
	<time>2023-08-07T08:33:38.000Z</time>
</trkpt>
<trkpt lat="46.1251370" lon="10.5072620">
	<ele>2256.80</ele>
	<time>2023-08-07T08:33:39.000Z</time>
</trkpt>
<trkpt lat="46.1251360" lon="10.5072510">
	<ele>2256.60</ele>
	<time>2023-08-07T08:33:40.000Z</time>
</trkpt>
<trkpt lat="46.1251370" lon="10.5072470">
	<ele>2256.40</ele>
	<time>2023-08-07T08:33:41.000Z</time>
</trkpt>
<trkpt lat="46.1251370" lon="10.5072380">
	<ele>2256.20</ele>
	<time>2023-08-07T08:33:42.000Z</time>
</trkpt>
<trkpt lat="46.1251390" lon="10.5072260">
	<ele>2256.00</ele>
	<time>2023-08-07T08:33:43.000Z</time>
</trkpt>
<trkpt lat="46.1251390" lon="10.5072180">
	<ele>2255.80</ele>
	<time>2023-08-07T08:33:44.000Z</time>
</trkpt>
<trkpt lat="46.1251380" lon="10.5072080">
	<ele>2255.60</ele>
	<time>2023-08-07T08:33:45.000Z</time>
</trkpt>
<trkpt lat="46.1251430" lon="10.5071970">
	<ele>2255.40</ele>
	<time>2023-08-07T08:33:46.000Z</time>
</trkpt>
<trkpt lat="46.1251520" lon="10.5071860">
	<ele>2255.20</ele>
	<time>2023-08-07T08:33:47.000Z</time>
</trkpt>
<trkpt lat="46.1251560" lon="10.5071730">
	<ele>2255.00</ele>
	<time>2023-08-07T08:33:48.000Z</time>
</trkpt>
<trkpt lat="46.1251500" lon="10.5071640">
	<ele>2254.80</ele>
	<time>2023-08-07T08:33:49.000Z</time>
</trkpt>
<trkpt lat="46.1251400" lon="10.5071590">
	<ele>2254.60</ele>
	<time>2023-08-07T08:33:50.000Z</time>
</trkpt>
<trkpt lat="46.1251350" lon="10.5071480">
	<ele>2254.40</ele>
	<time>2023-08-07T08:33:51.000Z</time>
</trkpt>
<trkpt lat="46.1251360" lon="10.5071330">
	<ele>2254.20</ele>
	<time>2023-08-07T08:33:52.000Z</time>
</trkpt>
<trkpt lat="46.1251390" lon="10.5071180">
	<ele>2254.00</ele>
	<time>2023-08-07T08:33:53.000Z</time>
</trkpt>
<trkpt lat="46.1251400" lon="10.5071120">
	<ele>2254.00</ele>
	<time>2023-08-07T08:33:54.000Z</time>
</trkpt>
<trkpt lat="46.1251380" lon="10.5071060">
	<ele>2254.00</ele>
	<time>2023-08-07T08:33:55.000Z</time>
</trkpt>
<trkpt lat="46.1251370" lon="10.5071010">
	<ele>2254.00</ele>
	<time>2023-08-07T08:33:56.000Z</time>
</trkpt>
<trkpt lat="46.1251350" lon="10.5070990">
	<ele>2253.80</ele>
	<time>2023-08-07T08:33:57.000Z</time>
</trkpt>
<trkpt lat="46.1251260" lon="10.5070910">
	<ele>2253.40</ele>
	<time>2023-08-07T08:33:58.000Z</time>
</trkpt>
<trkpt lat="46.1251160" lon="10.5070840">
	<ele>2253.20</ele>
	<time>2023-08-07T08:33:59.000Z</time>
</trkpt>
<trkpt lat="46.1251060" lon="10.5070730">
	<ele>2252.60</ele>
	<time>2023-08-07T08:34:00.000Z</time>
</trkpt>
<trkpt lat="46.1251040" lon="10.5070680">
	<ele>2252.20</ele>
	<time>2023-08-07T08:34:01.000Z</time>
</trkpt>
<trkpt lat="46.1250950" lon="10.5070540">
	<ele>2251.80</ele>
	<time>2023-08-07T08:34:02.000Z</time>
</trkpt>
<trkpt lat="46.1250890" lon="10.5070420">
	<ele>2251.60</ele>
	<time>2023-08-07T08:34:03.000Z</time>
</trkpt>
<trkpt lat="46.1250880" lon="10.5070400">
	<ele>2251.20</ele>
	<time>2023-08-07T08:34:04.000Z</time>
</trkpt>
<trkpt lat="46.1250750" lon="10.5070370">
	<ele>2251.00</ele>
	<time>2023-08-07T08:34:05.000Z</time>
</trkpt>
<trkpt lat="46.1250710" lon="10.5070300">
	<ele>2250.80</ele>
	<time>2023-08-07T08:34:06.000Z</time>
</trkpt>
<trkpt lat="46.1250600" lon="10.5070160">
	<ele>2250.60</ele>
	<time>2023-08-07T08:34:07.000Z</time>
</trkpt>
<trkpt lat="46.1250700" lon="10.5070230">
	<ele>2250.40</ele>
	<time>2023-08-07T08:34:08.000Z</time>
</trkpt>
<trkpt lat="46.1250620" lon="10.5070160">
	<ele>2250.00</ele>
	<time>2023-08-07T08:34:09.000Z</time>
</trkpt>
<trkpt lat="46.1250580" lon="10.5070060">
	<ele>2249.60</ele>
	<time>2023-08-07T08:34:10.000Z</time>
</trkpt>
<trkpt lat="46.1250560" lon="10.5070000">
	<ele>2249.40</ele>
	<time>2023-08-07T08:34:11.000Z</time>
</trkpt>
<trkpt lat="46.1250520" lon="10.5069900">
	<ele>2249.40</ele>
	<time>2023-08-07T08:34:12.000Z</time>
</trkpt>
<trkpt lat="46.1250520" lon="10.5069800">
	<ele>2249.20</ele>
	<time>2023-08-07T08:34:13.000Z</time>
</trkpt>
<trkpt lat="46.1250520" lon="10.5069680">
	<ele>2249.00</ele>
	<time>2023-08-07T08:34:14.000Z</time>
</trkpt>
<trkpt lat="46.1250520" lon="10.5069680">
	<ele>2249.00</ele>
	<time>2023-08-07T08:34:15.000Z</time>
</trkpt>
<trkpt lat="46.1250500" lon="10.5069620">
	<ele>2249.00</ele>
	<time>2023-08-07T08:34:16.000Z</time>
</trkpt>
<trkpt lat="46.1250500" lon="10.5069540">
	<ele>2248.80</ele>
	<time>2023-08-07T08:34:17.000Z</time>
</trkpt>
<trkpt lat="46.1250470" lon="10.5069450">
	<ele>2248.80</ele>
	<time>2023-08-07T08:34:18.000Z</time>
</trkpt>
<trkpt lat="46.1250430" lon="10.5069340">
	<ele>2248.60</ele>
	<time>2023-08-07T08:34:19.000Z</time>
</trkpt>
<trkpt lat="46.1250320" lon="10.5069190">
	<ele>2248.60</ele>
	<time>2023-08-07T08:34:20.000Z</time>
</trkpt>
<trkpt lat="46.1250230" lon="10.5069150">
	<ele>2248.40</ele>
	<time>2023-08-07T08:34:21.000Z</time>
</trkpt>
<trkpt lat="46.1250090" lon="10.5069140">
	<ele>2248.20</ele>
	<time>2023-08-07T08:34:22.000Z</time>
</trkpt>
<trkpt lat="46.1249980" lon="10.5069160">
	<ele>2248.20</ele>
	<time>2023-08-07T08:34:23.000Z</time>
</trkpt>
<trkpt lat="46.1249920" lon="10.5069190">
	<ele>2248.00</ele>
	<time>2023-08-07T08:34:24.000Z</time>
</trkpt>
<trkpt lat="46.1249900" lon="10.5069110">
	<ele>2248.00</ele>
	<time>2023-08-07T08:34:25.000Z</time>
</trkpt>
<trkpt lat="46.1249870" lon="10.5068970">
	<ele>2248.00</ele>
	<time>2023-08-07T08:34:26.000Z</time>
</trkpt>
<trkpt lat="46.1249870" lon="10.5068860">
	<ele>2248.00</ele>
	<time>2023-08-07T08:34:27.000Z</time>
</trkpt>
<trkpt lat="46.1249830" lon="10.5068750">
	<ele>2248.00</ele>
	<time>2023-08-07T08:34:28.000Z</time>
</trkpt>
<trkpt lat="46.1249730" lon="10.5068590">
	<ele>2247.80</ele>
	<time>2023-08-07T08:34:29.000Z</time>
</trkpt>
<trkpt lat="46.1249640" lon="10.5068420">
	<ele>2247.60</ele>
	<time>2023-08-07T08:34:30.000Z</time>
</trkpt>
<trkpt lat="46.1249560" lon="10.5068260">
	<ele>2247.40</ele>
	<time>2023-08-07T08:34:31.000Z</time>
</trkpt>
<trkpt lat="46.1249530" lon="10.5068080">
	<ele>2247.40</ele>
	<time>2023-08-07T08:34:32.000Z</time>
</trkpt>
<trkpt lat="46.1249380" lon="10.5067940">
	<ele>2247.20</ele>
	<time>2023-08-07T08:34:33.000Z</time>
</trkpt>
<trkpt lat="46.1249320" lon="10.5067810">
	<ele>2247.20</ele>
	<time>2023-08-07T08:34:34.000Z</time>
</trkpt>
<trkpt lat="46.1249270" lon="10.5067670">
	<ele>2247.00</ele>
	<time>2023-08-07T08:34:35.000Z</time>
</trkpt>
<trkpt lat="46.1249250" lon="10.5067570">
	<ele>2246.80</ele>
	<time>2023-08-07T08:34:36.000Z</time>
</trkpt>
<trkpt lat="46.1249240" lon="10.5067430">
	<ele>2246.80</ele>
	<time>2023-08-07T08:34:37.000Z</time>
</trkpt>
<trkpt lat="46.1249180" lon="10.5067300">
	<ele>2246.80</ele>
	<time>2023-08-07T08:34:38.000Z</time>
</trkpt>
<trkpt lat="46.1249190" lon="10.5067160">
	<ele>2246.80</ele>
	<time>2023-08-07T08:34:39.000Z</time>
</trkpt>
<trkpt lat="46.1249200" lon="10.5067030">
	<ele>2246.80</ele>
	<time>2023-08-07T08:34:40.000Z</time>
</trkpt>
<trkpt lat="46.1249190" lon="10.5066960">
	<ele>2246.80</ele>
	<time>2023-08-07T08:34:41.000Z</time>
</trkpt>
<trkpt lat="46.1249150" lon="10.5066840">
	<ele>2246.80</ele>
	<time>2023-08-07T08:34:42.000Z</time>
</trkpt>
<trkpt lat="46.1249150" lon="10.5066800">
	<ele>2246.80</ele>
	<time>2023-08-07T08:34:43.000Z</time>
</trkpt>
<trkpt lat="46.1249110" lon="10.5066700">
	<ele>2246.80</ele>
	<time>2023-08-07T08:34:44.000Z</time>
</trkpt>
<trkpt lat="46.1249100" lon="10.5066700">
	<ele>2246.80</ele>
	<time>2023-08-07T08:34:45.000Z</time>
</trkpt>
<trkpt lat="46.1249130" lon="10.5066680">
	<ele>2246.80</ele>
	<time>2023-08-07T08:34:46.000Z</time>
</trkpt>
<trkpt lat="46.1249130" lon="10.5066650">
	<ele>2246.80</ele>
	<time>2023-08-07T08:34:47.000Z</time>
</trkpt>
<trkpt lat="46.1249070" lon="10.5066550">
	<ele>2246.80</ele>
	<time>2023-08-07T08:34:48.000Z</time>
</trkpt>
<trkpt lat="46.1249060" lon="10.5066500">
	<ele>2246.80</ele>
	<time>2023-08-07T08:34:49.000Z</time>
</trkpt>
<trkpt lat="46.1249040" lon="10.5066410">
	<ele>2246.60</ele>
	<time>2023-08-07T08:34:50.000Z</time>
</trkpt>
<trkpt lat="46.1249070" lon="10.5066350">
	<ele>2246.60</ele>
	<time>2023-08-07T08:34:51.000Z</time>
</trkpt>
<trkpt lat="46.1249050" lon="10.5066280">
	<ele>2246.60</ele>
	<time>2023-08-07T08:34:52.000Z</time>
</trkpt>
<trkpt lat="46.1249050" lon="10.5066210">
	<ele>2246.60</ele>
	<time>2023-08-07T08:34:53.000Z</time>
</trkpt>
<trkpt lat="46.1249020" lon="10.5066210">
	<ele>2246.60</ele>
	<time>2023-08-07T08:34:54.000Z</time>
</trkpt>
<trkpt lat="46.1248980" lon="10.5066180">
	<ele>2246.40</ele>
	<time>2023-08-07T08:34:55.000Z</time>
</trkpt>
<trkpt lat="46.1248940" lon="10.5066200">
	<ele>2246.20</ele>
	<time>2023-08-07T08:34:56.000Z</time>
</trkpt>
<trkpt lat="46.1248850" lon="10.5066180">
	<ele>2246.00</ele>
	<time>2023-08-07T08:34:57.000Z</time>
</trkpt>
<trkpt lat="46.1248700" lon="10.5066190">
	<ele>2245.60</ele>
	<time>2023-08-07T08:34:58.000Z</time>
</trkpt>
<trkpt lat="46.1248580" lon="10.5066210">
	<ele>2245.40</ele>
	<time>2023-08-07T08:34:59.000Z</time>
</trkpt>
<trkpt lat="46.1248510" lon="10.5066200">
	<ele>2245.00</ele>
	<time>2023-08-07T08:35:00.000Z</time>
</trkpt>
<trkpt lat="46.1248440" lon="10.5066170">
	<ele>2244.80</ele>
	<time>2023-08-07T08:35:01.000Z</time>
</trkpt>
<trkpt lat="46.1248400" lon="10.5066150">
	<ele>2244.40</ele>
	<time>2023-08-07T08:35:02.000Z</time>
</trkpt>
<trkpt lat="46.1248380" lon="10.5066100">
	<ele>2244.00</ele>
	<time>2023-08-07T08:35:03.000Z</time>
</trkpt>
<trkpt lat="46.1248350" lon="10.5066030">
	<ele>2243.60</ele>
	<time>2023-08-07T08:35:04.000Z</time>
</trkpt>
<trkpt lat="46.1248270" lon="10.5065960">
	<ele>2243.20</ele>
	<time>2023-08-07T08:35:05.000Z</time>
</trkpt>
<trkpt lat="46.1248210" lon="10.5065910">
	<ele>2242.80</ele>
	<time>2023-08-07T08:35:06.000Z</time>
</trkpt>
<trkpt lat="46.1248090" lon="10.5065830">
	<ele>2242.60</ele>
	<time>2023-08-07T08:35:07.000Z</time>
</trkpt>
<trkpt lat="46.1248030" lon="10.5065790">
	<ele>2242.40</ele>
	<time>2023-08-07T08:35:08.000Z</time>
</trkpt>
<trkpt lat="46.1247980" lon="10.5065810">
	<ele>2242.20</ele>
	<time>2023-08-07T08:35:09.000Z</time>
</trkpt>
<trkpt lat="46.1247940" lon="10.5065750">
	<ele>2242.00</ele>
	<time>2023-08-07T08:35:10.000Z</time>
</trkpt>
<trkpt lat="46.1247890" lon="10.5065680">
	<ele>2242.00</ele>
	<time>2023-08-07T08:35:11.000Z</time>
</trkpt>
<trkpt lat="46.1247840" lon="10.5065610">
	<ele>2241.80</ele>
	<time>2023-08-07T08:35:12.000Z</time>
</trkpt>
<trkpt lat="46.1247820" lon="10.5065620">
	<ele>2241.80</ele>
	<time>2023-08-07T08:35:13.000Z</time>
</trkpt>
<trkpt lat="46.1247830" lon="10.5065650">
	<ele>2241.80</ele>
	<time>2023-08-07T08:35:14.000Z</time>
</trkpt>
<trkpt lat="46.1247800" lon="10.5065660">
	<ele>2241.80</ele>
	<time>2023-08-07T08:35:15.000Z</time>
</trkpt>
<trkpt lat="46.1247750" lon="10.5065640">
	<ele>2242.00</ele>
	<time>2023-08-07T08:35:16.000Z</time>
</trkpt>
<trkpt lat="46.1247730" lon="10.5065630">
	<ele>2242.20</ele>
	<time>2023-08-07T08:35:17.000Z</time>
</trkpt>
<trkpt lat="46.1247730" lon="10.5065630">
	<ele>2242.40</ele>
	<time>2023-08-07T08:35:18.000Z</time>
</trkpt>
<trkpt lat="46.1247730" lon="10.5065630">
	<ele>2242.60</ele>
	<time>2023-08-07T08:35:19.000Z</time>
</trkpt>
<trkpt lat="46.1247730" lon="10.5065610">
	<ele>2242.80</ele>
	<time>2023-08-07T08:35:20.000Z</time>
</trkpt>
<trkpt lat="46.1247730" lon="10.5065610">
	<ele>2242.80</ele>
	<time>2023-08-07T08:35:21.000Z</time>
</trkpt>
<trkpt lat="46.1247730" lon="10.5065610">
	<ele>2242.80</ele>
	<time>2023-08-07T08:35:22.000Z</time>
</trkpt>
<trkpt lat="46.1247720" lon="10.5065610">
	<ele>2242.80</ele>
	<time>2023-08-07T08:35:23.000Z</time>
</trkpt>
<trkpt lat="46.1247720" lon="10.5065610">
	<ele>2242.80</ele>
	<time>2023-08-07T08:35:24.000Z</time>
</trkpt>
<trkpt lat="46.1247720" lon="10.5065610">
	<ele>2242.80</ele>
	<time>2023-08-07T08:35:25.000Z</time>
</trkpt>
<trkpt lat="46.1247720" lon="10.5065610">
	<ele>2242.80</ele>
	<time>2023-08-07T08:35:26.000Z</time>
</trkpt>
<trkpt lat="46.1247720" lon="10.5065610">
	<ele>2242.80</ele>
	<time>2023-08-07T08:35:27.000Z</time>
</trkpt>
<trkpt lat="46.1247720" lon="10.5065610">
	<ele>2242.80</ele>
	<time>2023-08-07T08:35:28.000Z</time>
</trkpt>
<trkpt lat="46.1247720" lon="10.5065610">
	<ele>2242.60</ele>
	<time>2023-08-07T08:35:29.000Z</time>
</trkpt>
<trkpt lat="46.1247720" lon="10.5065610">
	<ele>2242.40</ele>
	<time>2023-08-07T08:35:30.000Z</time>
</trkpt>
<trkpt lat="46.1247720" lon="10.5065610">
	<ele>2242.20</ele>
	<time>2023-08-07T08:35:31.000Z</time>
</trkpt>
<trkpt lat="46.1247720" lon="10.5065610">
	<ele>2242.20</ele>
	<time>2023-08-07T08:35:32.000Z</time>
</trkpt>
<trkpt lat="46.1247720" lon="10.5065610">
	<ele>2241.80</ele>
	<time>2023-08-07T08:35:33.000Z</time>
</trkpt>
<trkpt lat="46.1247720" lon="10.5065610">
	<ele>2241.60</ele>
	<time>2023-08-07T08:35:34.000Z</time>
</trkpt>
<trkpt lat="46.1247720" lon="10.5065610">
	<ele>2241.40</ele>
	<time>2023-08-07T08:35:35.000Z</time>
</trkpt>
<trkpt lat="46.1247720" lon="10.5065610">
	<ele>2241.20</ele>
	<time>2023-08-07T08:35:36.000Z</time>
</trkpt>
<trkpt lat="46.1247720" lon="10.5065610">
	<ele>2241.20</ele>
	<time>2023-08-07T08:35:37.000Z</time>
</trkpt>
<trkpt lat="46.1247720" lon="10.5065610">
	<ele>2241.20</ele>
	<time>2023-08-07T08:35:38.000Z</time>
</trkpt>
<trkpt lat="46.1247700" lon="10.5065610">
	<ele>2241.00</ele>
	<time>2023-08-07T08:35:39.000Z</time>
</trkpt>
<trkpt lat="46.1247700" lon="10.5065610">
	<ele>2240.80</ele>
	<time>2023-08-07T08:35:40.000Z</time>
</trkpt>
<trkpt lat="46.1247650" lon="10.5065600">
	<ele>2240.60</ele>
	<time>2023-08-07T08:35:41.000Z</time>
</trkpt>
<trkpt lat="46.1247640" lon="10.5065520">
	<ele>2240.40</ele>
	<time>2023-08-07T08:35:42.000Z</time>
</trkpt>
<trkpt lat="46.1247560" lon="10.5065410">
	<ele>2240.20</ele>
	<time>2023-08-07T08:35:43.000Z</time>
</trkpt>
<trkpt lat="46.1247480" lon="10.5065290">
	<ele>2239.80</ele>
	<time>2023-08-07T08:35:44.000Z</time>
</trkpt>
<trkpt lat="46.1247380" lon="10.5065120">
	<ele>2239.40</ele>
	<time>2023-08-07T08:35:45.000Z</time>
</trkpt>
<trkpt lat="46.1247380" lon="10.5064850">
	<ele>2239.20</ele>
	<time>2023-08-07T08:35:46.000Z</time>
</trkpt>
<trkpt lat="46.1247380" lon="10.5064640">
	<ele>2239.00</ele>
	<time>2023-08-07T08:35:47.000Z</time>
</trkpt>
<trkpt lat="46.1247330" lon="10.5064420">
	<ele>2238.80</ele>
	<time>2023-08-07T08:35:48.000Z</time>
</trkpt>
<trkpt lat="46.1247200" lon="10.5064250">
	<ele>2238.80</ele>
	<time>2023-08-07T08:35:49.000Z</time>
</trkpt>
<trkpt lat="46.1247110" lon="10.5064130">
	<ele>2238.60</ele>
	<time>2023-08-07T08:35:50.000Z</time>
</trkpt>
<trkpt lat="46.1246980" lon="10.5063970">
	<ele>2238.40</ele>
	<time>2023-08-07T08:35:51.000Z</time>
</trkpt>
<trkpt lat="46.1246930" lon="10.5063860">
	<ele>2238.20</ele>
	<time>2023-08-07T08:35:52.000Z</time>
</trkpt>
<trkpt lat="46.1246910" lon="10.5063790">
	<ele>2238.00</ele>
	<time>2023-08-07T08:35:53.000Z</time>
</trkpt>
<trkpt lat="46.1246920" lon="10.5063750">
	<ele>2237.80</ele>
	<time>2023-08-07T08:35:54.000Z</time>
</trkpt>
<trkpt lat="46.1246910" lon="10.5063690">
	<ele>2237.60</ele>
	<time>2023-08-07T08:35:55.000Z</time>
</trkpt>
<trkpt lat="46.1246880" lon="10.5063580">
	<ele>2237.60</ele>
	<time>2023-08-07T08:35:56.000Z</time>
</trkpt>
<trkpt lat="46.1246820" lon="10.5063500">
	<ele>2237.40</ele>
	<time>2023-08-07T08:35:57.000Z</time>
</trkpt>
<trkpt lat="46.1246800" lon="10.5063430">
	<ele>2237.40</ele>
	<time>2023-08-07T08:35:58.000Z</time>
</trkpt>
<trkpt lat="46.1246790" lon="10.5063390">
	<ele>2237.20</ele>
	<time>2023-08-07T08:35:59.000Z</time>
</trkpt>
<trkpt lat="46.1246710" lon="10.5063280">
	<ele>2237.00</ele>
	<time>2023-08-07T08:36:00.000Z</time>
</trkpt>
<trkpt lat="46.1246660" lon="10.5063150">
	<ele>2236.80</ele>
	<time>2023-08-07T08:36:01.000Z</time>
</trkpt>
<trkpt lat="46.1246620" lon="10.5062990">
	<ele>2236.60</ele>
	<time>2023-08-07T08:36:02.000Z</time>
</trkpt>
<trkpt lat="46.1246670" lon="10.5062860">
	<ele>2236.60</ele>
	<time>2023-08-07T08:36:03.000Z</time>
</trkpt>
<trkpt lat="46.1246650" lon="10.5062810">
	<ele>2236.40</ele>
	<time>2023-08-07T08:36:04.000Z</time>
</trkpt>
<trkpt lat="46.1246580" lon="10.5062740">
	<ele>2236.40</ele>
	<time>2023-08-07T08:36:05.000Z</time>
</trkpt>
<trkpt lat="46.1246530" lon="10.5062690">
	<ele>2236.20</ele>
	<time>2023-08-07T08:36:06.000Z</time>
</trkpt>
<trkpt lat="46.1246440" lon="10.5062600">
	<ele>2236.20</ele>
	<time>2023-08-07T08:36:07.000Z</time>
</trkpt>
<trkpt lat="46.1246370" lon="10.5062490">
	<ele>2236.00</ele>
	<time>2023-08-07T08:36:08.000Z</time>
</trkpt>
<trkpt lat="46.1246340" lon="10.5062380">
	<ele>2235.80</ele>
	<time>2023-08-07T08:36:09.000Z</time>
</trkpt>
<trkpt lat="46.1246290" lon="10.5062250">
	<ele>2235.80</ele>
	<time>2023-08-07T08:36:10.000Z</time>
</trkpt>
<trkpt lat="46.1246220" lon="10.5062120">
	<ele>2235.80</ele>
	<time>2023-08-07T08:36:11.000Z</time>
</trkpt>
<trkpt lat="46.1246250" lon="10.5062030">
	<ele>2235.60</ele>
	<time>2023-08-07T08:36:12.000Z</time>
</trkpt>
<trkpt lat="46.1246280" lon="10.5061950">
	<ele>2235.60</ele>
	<time>2023-08-07T08:36:13.000Z</time>
</trkpt>
<trkpt lat="46.1246280" lon="10.5061900">
	<ele>2235.40</ele>
	<time>2023-08-07T08:36:14.000Z</time>
</trkpt>
<trkpt lat="46.1246270" lon="10.5061880">
	<ele>2235.40</ele>
	<time>2023-08-07T08:36:15.000Z</time>
</trkpt>
<trkpt lat="46.1246250" lon="10.5061880">
	<ele>2235.20</ele>
	<time>2023-08-07T08:36:16.000Z</time>
</trkpt>
<trkpt lat="46.1246200" lon="10.5061880">
	<ele>2235.00</ele>
	<time>2023-08-07T08:36:17.000Z</time>
</trkpt>
<trkpt lat="46.1246160" lon="10.5061920">
	<ele>2234.80</ele>
	<time>2023-08-07T08:36:18.000Z</time>
</trkpt>
<trkpt lat="46.1246110" lon="10.5061930">
	<ele>2234.60</ele>
	<time>2023-08-07T08:36:19.000Z</time>
</trkpt>
<trkpt lat="46.1246080" lon="10.5061950">
	<ele>2234.40</ele>
	<time>2023-08-07T08:36:20.000Z</time>
</trkpt>
<trkpt lat="46.1246030" lon="10.5061920">
	<ele>2234.40</ele>
	<time>2023-08-07T08:36:21.000Z</time>
</trkpt>
<trkpt lat="46.1246030" lon="10.5061840">
	<ele>2234.20</ele>
	<time>2023-08-07T08:36:22.000Z</time>
</trkpt>
<trkpt lat="46.1246080" lon="10.5061820">
	<ele>2234.00</ele>
	<time>2023-08-07T08:36:23.000Z</time>
</trkpt>
<trkpt lat="46.1246050" lon="10.5061640">
	<ele>2233.80</ele>
	<time>2023-08-07T08:36:24.000Z</time>
</trkpt>
<trkpt lat="46.1246030" lon="10.5061520">
	<ele>2233.40</ele>
	<time>2023-08-07T08:36:25.000Z</time>
</trkpt>
<trkpt lat="46.1245980" lon="10.5061440">
	<ele>2233.20</ele>
	<time>2023-08-07T08:36:26.000Z</time>
</trkpt>
<trkpt lat="46.1245930" lon="10.5061360">
	<ele>2233.00</ele>
	<time>2023-08-07T08:36:27.000Z</time>
</trkpt>
<trkpt lat="46.1245920" lon="10.5061250">
	<ele>2233.00</ele>
	<time>2023-08-07T08:36:28.000Z</time>
</trkpt>
<trkpt lat="46.1245870" lon="10.5061130">
	<ele>2232.80</ele>
	<time>2023-08-07T08:36:29.000Z</time>
</trkpt>
<trkpt lat="46.1245820" lon="10.5061020">
	<ele>2232.80</ele>
	<time>2023-08-07T08:36:30.000Z</time>
</trkpt>
<trkpt lat="46.1245790" lon="10.5060990">
	<ele>2232.80</ele>
	<time>2023-08-07T08:36:31.000Z</time>
</trkpt>
<trkpt lat="46.1245790" lon="10.5060950">
	<ele>2232.80</ele>
	<time>2023-08-07T08:36:32.000Z</time>
</trkpt>
<trkpt lat="46.1245740" lon="10.5060890">
	<ele>2232.80</ele>
	<time>2023-08-07T08:36:33.000Z</time>
</trkpt>
<trkpt lat="46.1245690" lon="10.5060810">
	<ele>2232.80</ele>
	<time>2023-08-07T08:36:34.000Z</time>
</trkpt>
<trkpt lat="46.1245600" lon="10.5060700">
	<ele>2232.80</ele>
	<time>2023-08-07T08:36:35.000Z</time>
</trkpt>
<trkpt lat="46.1245510" lon="10.5060590">
	<ele>2232.80</ele>
	<time>2023-08-07T08:36:36.000Z</time>
</trkpt>
<trkpt lat="46.1245470" lon="10.5060540">
	<ele>2232.80</ele>
	<time>2023-08-07T08:36:37.000Z</time>
</trkpt>
<trkpt lat="46.1245450" lon="10.5060520">
	<ele>2232.80</ele>
	<time>2023-08-07T08:36:38.000Z</time>
</trkpt>
<trkpt lat="46.1245430" lon="10.5060520">
	<ele>2232.80</ele>
	<time>2023-08-07T08:36:39.000Z</time>
</trkpt>
<trkpt lat="46.1245420" lon="10.5060520">
	<ele>2233.00</ele>
	<time>2023-08-07T08:36:40.000Z</time>
</trkpt>
<trkpt lat="46.1245420" lon="10.5060520">
	<ele>2233.00</ele>
	<time>2023-08-07T08:36:41.000Z</time>
</trkpt>
<trkpt lat="46.1245370" lon="10.5060440">
	<ele>2233.00</ele>
	<time>2023-08-07T08:36:42.000Z</time>
</trkpt>
<trkpt lat="46.1245340" lon="10.5060340">
	<ele>2232.80</ele>
	<time>2023-08-07T08:36:43.000Z</time>
</trkpt>
<trkpt lat="46.1245300" lon="10.5060260">
	<ele>2232.60</ele>
	<time>2023-08-07T08:36:44.000Z</time>
</trkpt>
<trkpt lat="46.1245250" lon="10.5060140">
	<ele>2232.40</ele>
	<time>2023-08-07T08:36:45.000Z</time>
</trkpt>
<trkpt lat="46.1245230" lon="10.5060050">
	<ele>2232.00</ele>
	<time>2023-08-07T08:36:46.000Z</time>
</trkpt>
<trkpt lat="46.1245200" lon="10.5059950">
	<ele>2232.00</ele>
	<time>2023-08-07T08:36:47.000Z</time>
</trkpt>
<trkpt lat="46.1245140" lon="10.5059840">
	<ele>2231.80</ele>
	<time>2023-08-07T08:36:48.000Z</time>
</trkpt>
<trkpt lat="46.1245100" lon="10.5059710">
	<ele>2231.40</ele>
	<time>2023-08-07T08:36:49.000Z</time>
</trkpt>
<trkpt lat="46.1245090" lon="10.5059580">
	<ele>2231.20</ele>
	<time>2023-08-07T08:36:50.000Z</time>
</trkpt>
<trkpt lat="46.1245050" lon="10.5059360">
	<ele>2231.20</ele>
	<time>2023-08-07T08:36:51.000Z</time>
</trkpt>
<trkpt lat="46.1244990" lon="10.5059130">
	<ele>2231.20</ele>
	<time>2023-08-07T08:36:52.000Z</time>
</trkpt>
<trkpt lat="46.1244810" lon="10.5058980">
	<ele>2231.00</ele>
	<time>2023-08-07T08:36:53.000Z</time>
</trkpt>
<trkpt lat="46.1244730" lon="10.5058880">
	<ele>2230.80</ele>
	<time>2023-08-07T08:36:54.000Z</time>
</trkpt>
<trkpt lat="46.1244620" lon="10.5058710">
	<ele>2230.60</ele>
	<time>2023-08-07T08:36:55.000Z</time>
</trkpt>
<trkpt lat="46.1244570" lon="10.5058610">
	<ele>2230.40</ele>
	<time>2023-08-07T08:36:56.000Z</time>
</trkpt>
<trkpt lat="46.1244540" lon="10.5058420">
	<ele>2230.40</ele>
	<time>2023-08-07T08:36:57.000Z</time>
</trkpt>
<trkpt lat="46.1244450" lon="10.5058270">
	<ele>2230.40</ele>
	<time>2023-08-07T08:36:58.000Z</time>
</trkpt>
<trkpt lat="46.1244300" lon="10.5058110">
	<ele>2230.20</ele>
	<time>2023-08-07T08:36:59.000Z</time>
</trkpt>
<trkpt lat="46.1244180" lon="10.5057930">
	<ele>2230.20</ele>
	<time>2023-08-07T08:37:00.000Z</time>
</trkpt>
<trkpt lat="46.1244110" lon="10.5057770">
	<ele>2230.20</ele>
	<time>2023-08-07T08:37:01.000Z</time>
</trkpt>
<trkpt lat="46.1244140" lon="10.5057710">
	<ele>2230.00</ele>
	<time>2023-08-07T08:37:02.000Z</time>
</trkpt>
<trkpt lat="46.1244130" lon="10.5057620">
	<ele>2230.00</ele>
	<time>2023-08-07T08:37:03.000Z</time>
</trkpt>
<trkpt lat="46.1244130" lon="10.5057580">
	<ele>2229.80</ele>
	<time>2023-08-07T08:37:04.000Z</time>
</trkpt>
<trkpt lat="46.1244030" lon="10.5057460">
	<ele>2229.80</ele>
	<time>2023-08-07T08:37:05.000Z</time>
</trkpt>
<trkpt lat="46.1243940" lon="10.5057350">
	<ele>2229.60</ele>
	<time>2023-08-07T08:37:06.000Z</time>
</trkpt>
<trkpt lat="46.1243910" lon="10.5057180">
	<ele>2229.20</ele>
	<time>2023-08-07T08:37:07.000Z</time>
</trkpt>
<trkpt lat="46.1243930" lon="10.5056970">
	<ele>2229.00</ele>
	<time>2023-08-07T08:37:08.000Z</time>
</trkpt>
<trkpt lat="46.1243880" lon="10.5056760">
	<ele>2228.80</ele>
	<time>2023-08-07T08:37:09.000Z</time>
</trkpt>
<trkpt lat="46.1243830" lon="10.5056590">
	<ele>2228.60</ele>
	<time>2023-08-07T08:37:10.000Z</time>
</trkpt>
<trkpt lat="46.1243830" lon="10.5056400">
	<ele>2228.40</ele>
	<time>2023-08-07T08:37:11.000Z</time>
</trkpt>
<trkpt lat="46.1243760" lon="10.5056220">
	<ele>2228.20</ele>
	<time>2023-08-07T08:37:12.000Z</time>
</trkpt>
<trkpt lat="46.1243730" lon="10.5056090">
	<ele>2228.00</ele>
	<time>2023-08-07T08:37:13.000Z</time>
</trkpt>
<trkpt lat="46.1243700" lon="10.5056010">
	<ele>2228.00</ele>
	<time>2023-08-07T08:37:14.000Z</time>
</trkpt>
<trkpt lat="46.1243640" lon="10.5055950">
	<ele>2227.80</ele>
	<time>2023-08-07T08:37:15.000Z</time>
</trkpt>
<trkpt lat="46.1243690" lon="10.5055910">
	<ele>2227.80</ele>
	<time>2023-08-07T08:37:16.000Z</time>
</trkpt>
<trkpt lat="46.1243750" lon="10.5055850">
	<ele>2227.80</ele>
	<time>2023-08-07T08:37:17.000Z</time>
</trkpt>
<trkpt lat="46.1243830" lon="10.5055810">
	<ele>2227.80</ele>
	<time>2023-08-07T08:37:18.000Z</time>
</trkpt>
<trkpt lat="46.1243840" lon="10.5055740">
	<ele>2227.80</ele>
	<time>2023-08-07T08:37:19.000Z</time>
</trkpt>
<trkpt lat="46.1243840" lon="10.5055710">
	<ele>2227.80</ele>
	<time>2023-08-07T08:37:20.000Z</time>
</trkpt>
<trkpt lat="46.1243790" lon="10.5055710">
	<ele>2227.80</ele>
	<time>2023-08-07T08:37:21.000Z</time>
</trkpt>
<trkpt lat="46.1243770" lon="10.5055700">
	<ele>2227.80</ele>
	<time>2023-08-07T08:37:22.000Z</time>
</trkpt>
<trkpt lat="46.1243760" lon="10.5055700">
	<ele>2227.80</ele>
	<time>2023-08-07T08:37:23.000Z</time>
</trkpt>
<trkpt lat="46.1243750" lon="10.5055680">
	<ele>2228.00</ele>
	<time>2023-08-07T08:37:24.000Z</time>
</trkpt>
<trkpt lat="46.1243710" lon="10.5055680">
	<ele>2228.00</ele>
	<time>2023-08-07T08:37:25.000Z</time>
</trkpt>
<trkpt lat="46.1243680" lon="10.5055670">
	<ele>2228.00</ele>
	<time>2023-08-07T08:37:26.000Z</time>
</trkpt>
<trkpt lat="46.1243670" lon="10.5055680">
	<ele>2227.80</ele>
	<time>2023-08-07T08:37:27.000Z</time>
</trkpt>
<trkpt lat="46.1243700" lon="10.5055680">
	<ele>2227.80</ele>
	<time>2023-08-07T08:37:28.000Z</time>
</trkpt>
<trkpt lat="46.1243680" lon="10.5055660">
	<ele>2227.80</ele>
	<time>2023-08-07T08:37:29.000Z</time>
</trkpt>
<trkpt lat="46.1243640" lon="10.5055620">
	<ele>2227.80</ele>
	<time>2023-08-07T08:37:30.000Z</time>
</trkpt>
<trkpt lat="46.1243560" lon="10.5055540">
	<ele>2227.60</ele>
	<time>2023-08-07T08:37:31.000Z</time>
</trkpt>
<trkpt lat="46.1243560" lon="10.5055520">
	<ele>2227.60</ele>
	<time>2023-08-07T08:37:32.000Z</time>
</trkpt>
<trkpt lat="46.1243530" lon="10.5055540">
	<ele>2227.60</ele>
	<time>2023-08-07T08:37:33.000Z</time>
</trkpt>
<trkpt lat="46.1243470" lon="10.5055630">
	<ele>2227.60</ele>
	<time>2023-08-07T08:37:34.000Z</time>
</trkpt>
<trkpt lat="46.1243400" lon="10.5055720">
	<ele>2227.40</ele>
	<time>2023-08-07T08:37:35.000Z</time>
</trkpt>
<trkpt lat="46.1243390" lon="10.5055750">
	<ele>2227.40</ele>
	<time>2023-08-07T08:37:36.000Z</time>
</trkpt>
<trkpt lat="46.1243420" lon="10.5055740">
	<ele>2227.40</ele>
	<time>2023-08-07T08:37:37.000Z</time>
</trkpt>
<trkpt lat="46.1243410" lon="10.5055750">
	<ele>2227.40</ele>
	<time>2023-08-07T08:37:38.000Z</time>
</trkpt>
<trkpt lat="46.1243400" lon="10.5055750">
	<ele>2227.40</ele>
	<time>2023-08-07T08:37:39.000Z</time>
</trkpt>
<trkpt lat="46.1243370" lon="10.5055760">
	<ele>2227.40</ele>
	<time>2023-08-07T08:37:40.000Z</time>
</trkpt>
<trkpt lat="46.1243360" lon="10.5055770">
	<ele>2227.40</ele>
	<time>2023-08-07T08:37:41.000Z</time>
</trkpt>
<trkpt lat="46.1243350" lon="10.5055770">
	<ele>2227.40</ele>
	<time>2023-08-07T08:37:42.000Z</time>
</trkpt>
<trkpt lat="46.1243320" lon="10.5055780">
	<ele>2227.40</ele>
	<time>2023-08-07T08:37:43.000Z</time>
</trkpt>
<trkpt lat="46.1243300" lon="10.5055780">
	<ele>2227.60</ele>
	<time>2023-08-07T08:37:44.000Z</time>
</trkpt>
<trkpt lat="46.1243290" lon="10.5055770">
	<ele>2227.60</ele>
	<time>2023-08-07T08:37:45.000Z</time>
</trkpt>
<trkpt lat="46.1243280" lon="10.5055780">
	<ele>2227.60</ele>
	<time>2023-08-07T08:37:46.000Z</time>
</trkpt>
<trkpt lat="46.1243260" lon="10.5055740">
	<ele>2227.60</ele>
	<time>2023-08-07T08:37:47.000Z</time>
</trkpt>
<trkpt lat="46.1243260" lon="10.5055730">
	<ele>2227.40</ele>
	<time>2023-08-07T08:37:48.000Z</time>
</trkpt>
<trkpt lat="46.1243260" lon="10.5055730">
	<ele>2227.40</ele>
	<time>2023-08-07T08:37:49.000Z</time>
</trkpt>
<trkpt lat="46.1243260" lon="10.5055730">
	<ele>2227.20</ele>
	<time>2023-08-07T08:37:50.000Z</time>
</trkpt>
<trkpt lat="46.1243260" lon="10.5055730">
	<ele>2227.00</ele>
	<time>2023-08-07T08:37:51.000Z</time>
</trkpt>
<trkpt lat="46.1243260" lon="10.5055730">
	<ele>2227.00</ele>
	<time>2023-08-07T08:37:52.000Z</time>
</trkpt>
<trkpt lat="46.1243260" lon="10.5055730">
	<ele>2227.00</ele>
	<time>2023-08-07T08:37:53.000Z</time>
</trkpt>
<trkpt lat="46.1243260" lon="10.5055730">
	<ele>2226.80</ele>
	<time>2023-08-07T08:37:54.000Z</time>
</trkpt>
<trkpt lat="46.1243260" lon="10.5055730">
	<ele>2226.80</ele>
	<time>2023-08-07T08:37:55.000Z</time>
</trkpt>
<trkpt lat="46.1243260" lon="10.5055730">
	<ele>2226.80</ele>
	<time>2023-08-07T08:37:56.000Z</time>
</trkpt>
<trkpt lat="46.1243260" lon="10.5055730">
	<ele>2226.80</ele>
	<time>2023-08-07T08:37:57.000Z</time>
</trkpt>
<trkpt lat="46.1243260" lon="10.5055730">
	<ele>2226.60</ele>
	<time>2023-08-07T08:37:58.000Z</time>
</trkpt>
<trkpt lat="46.1243260" lon="10.5055730">
	<ele>2226.40</ele>
	<time>2023-08-07T08:37:59.000Z</time>
</trkpt>
<trkpt lat="46.1243260" lon="10.5055730">
	<ele>2226.40</ele>
	<time>2023-08-07T08:38:00.000Z</time>
</trkpt>
<trkpt lat="46.1243260" lon="10.5055730">
	<ele>2226.20</ele>
	<time>2023-08-07T08:38:01.000Z</time>
</trkpt>
<trkpt lat="46.1243260" lon="10.5055730">
	<ele>2226.20</ele>
	<time>2023-08-07T08:38:02.000Z</time>
</trkpt>
<trkpt lat="46.1243230" lon="10.5055690">
	<ele>2226.00</ele>
	<time>2023-08-07T08:38:03.000Z</time>
</trkpt>
<trkpt lat="46.1243200" lon="10.5055610">
	<ele>2225.80</ele>
	<time>2023-08-07T08:38:04.000Z</time>
</trkpt>
<trkpt lat="46.1243060" lon="10.5055530">
	<ele>2225.80</ele>
	<time>2023-08-07T08:38:05.000Z</time>
</trkpt>
<trkpt lat="46.1243000" lon="10.5055460">
	<ele>2225.80</ele>
	<time>2023-08-07T08:38:06.000Z</time>
</trkpt>
<trkpt lat="46.1242930" lon="10.5055380">
	<ele>2225.60</ele>
	<time>2023-08-07T08:38:07.000Z</time>
</trkpt>
<trkpt lat="46.1242850" lon="10.5055280">
	<ele>2225.40</ele>
	<time>2023-08-07T08:38:08.000Z</time>
</trkpt>
<trkpt lat="46.1242760" lon="10.5055170">
	<ele>2225.40</ele>
	<time>2023-08-07T08:38:09.000Z</time>
</trkpt>
<trkpt lat="46.1242670" lon="10.5055000">
	<ele>2225.20</ele>
	<time>2023-08-07T08:38:10.000Z</time>
</trkpt>
<trkpt lat="46.1242580" lon="10.5054850">
	<ele>2225.00</ele>
	<time>2023-08-07T08:38:11.000Z</time>
</trkpt>
<trkpt lat="46.1242500" lon="10.5054650">
	<ele>2225.00</ele>
	<time>2023-08-07T08:38:12.000Z</time>
</trkpt>
<trkpt lat="46.1242470" lon="10.5054520">
	<ele>2224.80</ele>
	<time>2023-08-07T08:38:13.000Z</time>
</trkpt>
<trkpt lat="46.1242450" lon="10.5054450">
	<ele>2224.80</ele>
	<time>2023-08-07T08:38:14.000Z</time>
</trkpt>
<trkpt lat="46.1242370" lon="10.5054270">
	<ele>2224.60</ele>
	<time>2023-08-07T08:38:15.000Z</time>
</trkpt>
<trkpt lat="46.1242270" lon="10.5054200">
	<ele>2224.60</ele>
	<time>2023-08-07T08:38:16.000Z</time>
</trkpt>
<trkpt lat="46.1242130" lon="10.5054100">
	<ele>2224.40</ele>
	<time>2023-08-07T08:38:17.000Z</time>
</trkpt>
<trkpt lat="46.1242070" lon="10.5054030">
	<ele>2224.20</ele>
	<time>2023-08-07T08:38:18.000Z</time>
</trkpt>
<trkpt lat="46.1242020" lon="10.5053950">
	<ele>2224.00</ele>
	<time>2023-08-07T08:38:19.000Z</time>
</trkpt>
<trkpt lat="46.1241970" lon="10.5053890">
	<ele>2224.00</ele>
	<time>2023-08-07T08:38:20.000Z</time>
</trkpt>
<trkpt lat="46.1241870" lon="10.5053800">
	<ele>2224.00</ele>
	<time>2023-08-07T08:38:21.000Z</time>
</trkpt>
<trkpt lat="46.1241750" lon="10.5053710">
	<ele>2223.80</ele>
	<time>2023-08-07T08:38:22.000Z</time>
</trkpt>
<trkpt lat="46.1241690" lon="10.5053600">
	<ele>2223.80</ele>
	<time>2023-08-07T08:38:23.000Z</time>
</trkpt>
<trkpt lat="46.1241610" lon="10.5053540">
	<ele>2223.60</ele>
	<time>2023-08-07T08:38:24.000Z</time>
</trkpt>
<trkpt lat="46.1241500" lon="10.5053500">
	<ele>2223.60</ele>
	<time>2023-08-07T08:38:25.000Z</time>
</trkpt>
<trkpt lat="46.1241410" lon="10.5053480">
	<ele>2223.60</ele>
	<time>2023-08-07T08:38:26.000Z</time>
</trkpt>
<trkpt lat="46.1241350" lon="10.5053560">
	<ele>2223.60</ele>
	<time>2023-08-07T08:38:27.000Z</time>
</trkpt>
<trkpt lat="46.1241260" lon="10.5053450">
	<ele>2223.40</ele>
	<time>2023-08-07T08:38:28.000Z</time>
</trkpt>
<trkpt lat="46.1241130" lon="10.5053180">
	<ele>2223.40</ele>
	<time>2023-08-07T08:38:29.000Z</time>
</trkpt>
<trkpt lat="46.1241060" lon="10.5052930">
	<ele>2223.20</ele>
	<time>2023-08-07T08:38:30.000Z</time>
</trkpt>
<trkpt lat="46.1241030" lon="10.5052660">
	<ele>2223.20</ele>
	<time>2023-08-07T08:38:31.000Z</time>
</trkpt>
<trkpt lat="46.1241050" lon="10.5052430">
	<ele>2223.20</ele>
	<time>2023-08-07T08:38:32.000Z</time>
</trkpt>
<trkpt lat="46.1240990" lon="10.5052260">
	<ele>2223.20</ele>
	<time>2023-08-07T08:38:33.000Z</time>
</trkpt>
<trkpt lat="46.1241000" lon="10.5052110">
	<ele>2223.20</ele>
	<time>2023-08-07T08:38:34.000Z</time>
</trkpt>
<trkpt lat="46.1241020" lon="10.5052030">
	<ele>2223.20</ele>
	<time>2023-08-07T08:38:35.000Z</time>
</trkpt>
<trkpt lat="46.1241050" lon="10.5051960">
	<ele>2223.40</ele>
	<time>2023-08-07T08:38:36.000Z</time>
</trkpt>
<trkpt lat="46.1241120" lon="10.5051890">
	<ele>2223.60</ele>
	<time>2023-08-07T08:38:37.000Z</time>
</trkpt>
<trkpt lat="46.1241160" lon="10.5051800">
	<ele>2223.80</ele>
	<time>2023-08-07T08:38:38.000Z</time>
</trkpt>
<trkpt lat="46.1241200" lon="10.5051720">
	<ele>2223.80</ele>
	<time>2023-08-07T08:38:39.000Z</time>
</trkpt>
<trkpt lat="46.1241260" lon="10.5051620">
	<ele>2224.00</ele>
	<time>2023-08-07T08:38:40.000Z</time>
</trkpt>
<trkpt lat="46.1241260" lon="10.5051540">
	<ele>2224.20</ele>
	<time>2023-08-07T08:38:41.000Z</time>
</trkpt>
<trkpt lat="46.1241300" lon="10.5051460">
	<ele>2224.40</ele>
	<time>2023-08-07T08:38:42.000Z</time>
</trkpt>
<trkpt lat="46.1241290" lon="10.5051360">
	<ele>2224.40</ele>
	<time>2023-08-07T08:38:43.000Z</time>
</trkpt>
<trkpt lat="46.1241280" lon="10.5051270">
	<ele>2224.40</ele>
	<time>2023-08-07T08:38:44.000Z</time>
</trkpt>
<trkpt lat="46.1241180" lon="10.5051180">
	<ele>2224.40</ele>
	<time>2023-08-07T08:38:45.000Z</time>
</trkpt>
<trkpt lat="46.1241080" lon="10.5051090">
	<ele>2224.20</ele>
	<time>2023-08-07T08:38:46.000Z</time>
</trkpt>
<trkpt lat="46.1241000" lon="10.5051000">
	<ele>2224.20</ele>
	<time>2023-08-07T08:38:47.000Z</time>
</trkpt>
<trkpt lat="46.1240920" lon="10.5050850">
	<ele>2224.00</ele>
	<time>2023-08-07T08:38:48.000Z</time>
</trkpt>
<trkpt lat="46.1240950" lon="10.5050690">
	<ele>2224.00</ele>
	<time>2023-08-07T08:38:49.000Z</time>
</trkpt>
<trkpt lat="46.1240990" lon="10.5050550">
	<ele>2224.00</ele>
	<time>2023-08-07T08:38:50.000Z</time>
</trkpt>
<trkpt lat="46.1240970" lon="10.5050410">
	<ele>2223.80</ele>
	<time>2023-08-07T08:38:51.000Z</time>
</trkpt>
<trkpt lat="46.1240920" lon="10.5050290">
	<ele>2223.60</ele>
	<time>2023-08-07T08:38:52.000Z</time>
</trkpt>
<trkpt lat="46.1240940" lon="10.5050160">
	<ele>2223.60</ele>
	<time>2023-08-07T08:38:53.000Z</time>
</trkpt>
<trkpt lat="46.1240980" lon="10.5050030">
	<ele>2223.40</ele>
	<time>2023-08-07T08:38:54.000Z</time>
</trkpt>
<trkpt lat="46.1241090" lon="10.5049930">
	<ele>2223.40</ele>
	<time>2023-08-07T08:38:55.000Z</time>
</trkpt>
<trkpt lat="46.1241210" lon="10.5049910">
	<ele>2223.20</ele>
	<time>2023-08-07T08:38:56.000Z</time>
</trkpt>
<trkpt lat="46.1241290" lon="10.5049920">
	<ele>2223.20</ele>
	<time>2023-08-07T08:38:57.000Z</time>
</trkpt>
<trkpt lat="46.1241360" lon="10.5049960">
	<ele>2223.20</ele>
	<time>2023-08-07T08:38:58.000Z</time>
</trkpt>
<trkpt lat="46.1241380" lon="10.5049910">
	<ele>2223.20</ele>
	<time>2023-08-07T08:38:59.000Z</time>
</trkpt>
<trkpt lat="46.1241420" lon="10.5049840">
	<ele>2223.20</ele>
	<time>2023-08-07T08:39:00.000Z</time>
</trkpt>
<trkpt lat="46.1241420" lon="10.5049770">
	<ele>2223.20</ele>
	<time>2023-08-07T08:39:01.000Z</time>
</trkpt>
<trkpt lat="46.1241470" lon="10.5049710">
	<ele>2223.20</ele>
	<time>2023-08-07T08:39:02.000Z</time>
</trkpt>
<trkpt lat="46.1241510" lon="10.5049630">
	<ele>2223.20</ele>
	<time>2023-08-07T08:39:03.000Z</time>
</trkpt>
<trkpt lat="46.1241490" lon="10.5049550">
	<ele>2223.00</ele>
	<time>2023-08-07T08:39:04.000Z</time>
</trkpt>
<trkpt lat="46.1241510" lon="10.5049500">
	<ele>2222.60</ele>
	<time>2023-08-07T08:39:05.000Z</time>
</trkpt>
<trkpt lat="46.1241560" lon="10.5049410">
	<ele>2222.20</ele>
	<time>2023-08-07T08:39:06.000Z</time>
</trkpt>
<trkpt lat="46.1241620" lon="10.5049340">
	<ele>2222.00</ele>
	<time>2023-08-07T08:39:07.000Z</time>
</trkpt>
<trkpt lat="46.1241640" lon="10.5049270">
	<ele>2221.80</ele>
	<time>2023-08-07T08:39:08.000Z</time>
</trkpt>
<trkpt lat="46.1241620" lon="10.5049130">
	<ele>2221.80</ele>
	<time>2023-08-07T08:39:09.000Z</time>
</trkpt>
<trkpt lat="46.1241600" lon="10.5048930">
	<ele>2221.60</ele>
	<time>2023-08-07T08:39:10.000Z</time>
</trkpt>
<trkpt lat="46.1241620" lon="10.5048700">
	<ele>2221.40</ele>
	<time>2023-08-07T08:39:11.000Z</time>
</trkpt>
<trkpt lat="46.1241600" lon="10.5048590">
	<ele>2221.20</ele>
	<time>2023-08-07T08:39:12.000Z</time>
</trkpt>
<trkpt lat="46.1241530" lon="10.5048490">
	<ele>2221.00</ele>
	<time>2023-08-07T08:39:13.000Z</time>
</trkpt>
<trkpt lat="46.1241460" lon="10.5048390">
	<ele>2220.80</ele>
	<time>2023-08-07T08:39:14.000Z</time>
</trkpt>
<trkpt lat="46.1241480" lon="10.5048310">
	<ele>2220.60</ele>
	<time>2023-08-07T08:39:15.000Z</time>
</trkpt>
<trkpt lat="46.1241480" lon="10.5048250">
	<ele>2220.40</ele>
	<time>2023-08-07T08:39:16.000Z</time>
</trkpt>
<trkpt lat="46.1241540" lon="10.5048250">
	<ele>2220.40</ele>
	<time>2023-08-07T08:39:17.000Z</time>
</trkpt>
<trkpt lat="46.1241560" lon="10.5048130">
	<ele>2220.40</ele>
	<time>2023-08-07T08:39:18.000Z</time>
</trkpt>
<trkpt lat="46.1241540" lon="10.5048040">
	<ele>2220.20</ele>
	<time>2023-08-07T08:39:19.000Z</time>
</trkpt>
<trkpt lat="46.1241520" lon="10.5047890">
	<ele>2220.20</ele>
	<time>2023-08-07T08:39:20.000Z</time>
</trkpt>
<trkpt lat="46.1241530" lon="10.5047820">
	<ele>2220.00</ele>
	<time>2023-08-07T08:39:21.000Z</time>
</trkpt>
<trkpt lat="46.1241480" lon="10.5047750">
	<ele>2219.80</ele>
	<time>2023-08-07T08:39:22.000Z</time>
</trkpt>
<trkpt lat="46.1241440" lon="10.5047620">
	<ele>2219.60</ele>
	<time>2023-08-07T08:39:23.000Z</time>
</trkpt>
<trkpt lat="46.1241320" lon="10.5047510">
	<ele>2219.40</ele>
	<time>2023-08-07T08:39:24.000Z</time>
</trkpt>
<trkpt lat="46.1241270" lon="10.5047450">
	<ele>2219.20</ele>
	<time>2023-08-07T08:39:25.000Z</time>
</trkpt>
<trkpt lat="46.1241230" lon="10.5047450">
	<ele>2219.20</ele>
	<time>2023-08-07T08:39:26.000Z</time>
</trkpt>
<trkpt lat="46.1241210" lon="10.5047380">
	<ele>2219.00</ele>
	<time>2023-08-07T08:39:27.000Z</time>
</trkpt>
<trkpt lat="46.1241180" lon="10.5047250">
	<ele>2219.00</ele>
	<time>2023-08-07T08:39:28.000Z</time>
</trkpt>
<trkpt lat="46.1241180" lon="10.5047130">
	<ele>2218.80</ele>
	<time>2023-08-07T08:39:29.000Z</time>
</trkpt>
<trkpt lat="46.1241110" lon="10.5046990">
	<ele>2218.80</ele>
	<time>2023-08-07T08:39:30.000Z</time>
</trkpt>
<trkpt lat="46.1241100" lon="10.5046900">
	<ele>2218.80</ele>
	<time>2023-08-07T08:39:31.000Z</time>
</trkpt>
<trkpt lat="46.1241050" lon="10.5046750">
	<ele>2218.80</ele>
	<time>2023-08-07T08:39:32.000Z</time>
</trkpt>
<trkpt lat="46.1240980" lon="10.5046660">
	<ele>2218.80</ele>
	<time>2023-08-07T08:39:33.000Z</time>
</trkpt>
<trkpt lat="46.1240940" lon="10.5046590">
	<ele>2218.80</ele>
	<time>2023-08-07T08:39:34.000Z</time>
</trkpt>
<trkpt lat="46.1240950" lon="10.5046540">
	<ele>2218.60</ele>
	<time>2023-08-07T08:39:35.000Z</time>
</trkpt>
<trkpt lat="46.1240880" lon="10.5046430">
	<ele>2218.60</ele>
	<time>2023-08-07T08:39:36.000Z</time>
</trkpt>
<trkpt lat="46.1240870" lon="10.5046310">
	<ele>2218.60</ele>
	<time>2023-08-07T08:39:37.000Z</time>
</trkpt>
<trkpt lat="46.1240860" lon="10.5046170">
	<ele>2218.40</ele>
	<time>2023-08-07T08:39:38.000Z</time>
</trkpt>
<trkpt lat="46.1240860" lon="10.5046000">
	<ele>2218.40</ele>
	<time>2023-08-07T08:39:39.000Z</time>
</trkpt>
<trkpt lat="46.1240960" lon="10.5045920">
	<ele>2218.40</ele>
	<time>2023-08-07T08:39:40.000Z</time>
</trkpt>
<trkpt lat="46.1240960" lon="10.5045710">
	<ele>2218.40</ele>
	<time>2023-08-07T08:39:41.000Z</time>
</trkpt>
<trkpt lat="46.1240910" lon="10.5045570">
	<ele>2218.40</ele>
	<time>2023-08-07T08:39:42.000Z</time>
</trkpt>
<trkpt lat="46.1240850" lon="10.5045450">
	<ele>2218.40</ele>
	<time>2023-08-07T08:39:43.000Z</time>
</trkpt>
<trkpt lat="46.1240790" lon="10.5045380">
	<ele>2218.40</ele>
	<time>2023-08-07T08:39:44.000Z</time>
</trkpt>
<trkpt lat="46.1240740" lon="10.5045250">
	<ele>2218.40</ele>
	<time>2023-08-07T08:39:45.000Z</time>
</trkpt>
<trkpt lat="46.1240710" lon="10.5045140">
	<ele>2218.40</ele>
	<time>2023-08-07T08:39:46.000Z</time>
</trkpt>
<trkpt lat="46.1240710" lon="10.5045020">
	<ele>2218.20</ele>
	<time>2023-08-07T08:39:47.000Z</time>
</trkpt>
<trkpt lat="46.1240720" lon="10.5044920">
	<ele>2218.20</ele>
	<time>2023-08-07T08:39:48.000Z</time>
</trkpt>
<trkpt lat="46.1240710" lon="10.5044830">
	<ele>2218.00</ele>
	<time>2023-08-07T08:39:49.000Z</time>
</trkpt>
<trkpt lat="46.1240650" lon="10.5044740">
	<ele>2218.00</ele>
	<time>2023-08-07T08:39:50.000Z</time>
</trkpt>
<trkpt lat="46.1240660" lon="10.5044680">
	<ele>2218.00</ele>
	<time>2023-08-07T08:39:51.000Z</time>
</trkpt>
<trkpt lat="46.1240640" lon="10.5044610">
	<ele>2217.80</ele>
	<time>2023-08-07T08:39:52.000Z</time>
</trkpt>
<trkpt lat="46.1240630" lon="10.5044520">
	<ele>2217.80</ele>
	<time>2023-08-07T08:39:53.000Z</time>
</trkpt>
<trkpt lat="46.1240580" lon="10.5044470">
	<ele>2217.60</ele>
	<time>2023-08-07T08:39:54.000Z</time>
</trkpt>
<trkpt lat="46.1240540" lon="10.5044460">
	<ele>2217.60</ele>
	<time>2023-08-07T08:39:55.000Z</time>
</trkpt>
<trkpt lat="46.1240450" lon="10.5044490">
	<ele>2217.60</ele>
	<time>2023-08-07T08:39:56.000Z</time>
</trkpt>
<trkpt lat="46.1240330" lon="10.5044480">
	<ele>2217.60</ele>
	<time>2023-08-07T08:39:57.000Z</time>
</trkpt>
<trkpt lat="46.1240180" lon="10.5044470">
	<ele>2217.60</ele>
	<time>2023-08-07T08:39:58.000Z</time>
</trkpt>
<trkpt lat="46.1240140" lon="10.5044370">
	<ele>2217.20</ele>
	<time>2023-08-07T08:39:59.000Z</time>
</trkpt>
<trkpt lat="46.1240050" lon="10.5044330">
	<ele>2217.20</ele>
	<time>2023-08-07T08:40:00.000Z</time>
</trkpt>
<trkpt lat="46.1239950" lon="10.5044280">
	<ele>2217.00</ele>
	<time>2023-08-07T08:40:01.000Z</time>
</trkpt>
<trkpt lat="46.1239880" lon="10.5044230">
	<ele>2217.00</ele>
	<time>2023-08-07T08:40:02.000Z</time>
</trkpt>
<trkpt lat="46.1239860" lon="10.5044180">
	<ele>2217.00</ele>
	<time>2023-08-07T08:40:03.000Z</time>
</trkpt>
<trkpt lat="46.1239860" lon="10.5044060">
	<ele>2216.80</ele>
	<time>2023-08-07T08:40:04.000Z</time>
</trkpt>
<trkpt lat="46.1239850" lon="10.5043950">
	<ele>2216.80</ele>
	<time>2023-08-07T08:40:05.000Z</time>
</trkpt>
<trkpt lat="46.1239850" lon="10.5043840">
	<ele>2216.80</ele>
	<time>2023-08-07T08:40:06.000Z</time>
</trkpt>
<trkpt lat="46.1239820" lon="10.5043740">
	<ele>2216.60</ele>
	<time>2023-08-07T08:40:07.000Z</time>
</trkpt>
<trkpt lat="46.1239720" lon="10.5043600">
	<ele>2216.40</ele>
	<time>2023-08-07T08:40:08.000Z</time>
</trkpt>
<trkpt lat="46.1239600" lon="10.5043480">
	<ele>2216.40</ele>
	<time>2023-08-07T08:40:09.000Z</time>
</trkpt>
<trkpt lat="46.1239450" lon="10.5043390">
	<ele>2216.20</ele>
	<time>2023-08-07T08:40:10.000Z</time>
</trkpt>
<trkpt lat="46.1239340" lon="10.5043380">
	<ele>2216.20</ele>
	<time>2023-08-07T08:40:11.000Z</time>
</trkpt>
<trkpt lat="46.1239240" lon="10.5043410">
	<ele>2216.00</ele>
	<time>2023-08-07T08:40:12.000Z</time>
</trkpt>
<trkpt lat="46.1239100" lon="10.5043390">
	<ele>2216.00</ele>
	<time>2023-08-07T08:40:13.000Z</time>
</trkpt>
<trkpt lat="46.1239060" lon="10.5043390">
	<ele>2215.80</ele>
	<time>2023-08-07T08:40:14.000Z</time>
</trkpt>
<trkpt lat="46.1239060" lon="10.5043450">
	<ele>2215.60</ele>
	<time>2023-08-07T08:40:15.000Z</time>
</trkpt>
<trkpt lat="46.1238980" lon="10.5043480">
	<ele>2215.60</ele>
	<time>2023-08-07T08:40:16.000Z</time>
</trkpt>
<trkpt lat="46.1238900" lon="10.5043410">
	<ele>2215.60</ele>
	<time>2023-08-07T08:40:17.000Z</time>
</trkpt>
<trkpt lat="46.1238840" lon="10.5043360">
	<ele>2215.40</ele>
	<time>2023-08-07T08:40:18.000Z</time>
</trkpt>
<trkpt lat="46.1238800" lon="10.5043360">
	<ele>2215.40</ele>
	<time>2023-08-07T08:40:19.000Z</time>
</trkpt>
<trkpt lat="46.1238780" lon="10.5043350">
	<ele>2215.40</ele>
	<time>2023-08-07T08:40:20.000Z</time>
</trkpt>
<trkpt lat="46.1238740" lon="10.5043390">
	<ele>2215.40</ele>
	<time>2023-08-07T08:40:21.000Z</time>
</trkpt>
<trkpt lat="46.1238720" lon="10.5043420">
	<ele>2215.40</ele>
	<time>2023-08-07T08:40:22.000Z</time>
</trkpt>
<trkpt lat="46.1238630" lon="10.5043260">
	<ele>2215.40</ele>
	<time>2023-08-07T08:40:23.000Z</time>
</trkpt>
<trkpt lat="46.1238530" lon="10.5043090">
	<ele>2215.40</ele>
	<time>2023-08-07T08:40:24.000Z</time>
</trkpt>
<trkpt lat="46.1238440" lon="10.5042890">
	<ele>2215.40</ele>
	<time>2023-08-07T08:40:25.000Z</time>
</trkpt>
<trkpt lat="46.1238420" lon="10.5042700">
	<ele>2215.40</ele>
	<time>2023-08-07T08:40:26.000Z</time>
</trkpt>
<trkpt lat="46.1238270" lon="10.5042560">
	<ele>2215.40</ele>
	<time>2023-08-07T08:40:27.000Z</time>
</trkpt>
<trkpt lat="46.1238200" lon="10.5042350">
	<ele>2215.60</ele>
	<time>2023-08-07T08:40:28.000Z</time>
</trkpt>
<trkpt lat="46.1238170" lon="10.5042210">
	<ele>2215.80</ele>
	<time>2023-08-07T08:40:29.000Z</time>
</trkpt>
<trkpt lat="46.1238190" lon="10.5042110">
	<ele>2215.80</ele>
	<time>2023-08-07T08:40:30.000Z</time>
</trkpt>
<trkpt lat="46.1238260" lon="10.5041990">
	<ele>2216.00</ele>
	<time>2023-08-07T08:40:31.000Z</time>
</trkpt>
<trkpt lat="46.1238310" lon="10.5041910">
	<ele>2216.20</ele>
	<time>2023-08-07T08:40:32.000Z</time>
</trkpt>
<trkpt lat="46.1238370" lon="10.5041830">
	<ele>2216.20</ele>
	<time>2023-08-07T08:40:33.000Z</time>
</trkpt>
<trkpt lat="46.1238410" lon="10.5041710">
	<ele>2216.40</ele>
	<time>2023-08-07T08:40:34.000Z</time>
</trkpt>
<trkpt lat="46.1238450" lon="10.5041600">
	<ele>2216.40</ele>
	<time>2023-08-07T08:40:35.000Z</time>
</trkpt>
<trkpt lat="46.1238470" lon="10.5041470">
	<ele>2216.40</ele>
	<time>2023-08-07T08:40:36.000Z</time>
</trkpt>
<trkpt lat="46.1238490" lon="10.5041300">
	<ele>2216.40</ele>
	<time>2023-08-07T08:40:37.000Z</time>
</trkpt>
<trkpt lat="46.1238510" lon="10.5041150">
	<ele>2216.40</ele>
	<time>2023-08-07T08:40:38.000Z</time>
</trkpt>
<trkpt lat="46.1238540" lon="10.5041000">
	<ele>2216.40</ele>
	<time>2023-08-07T08:40:39.000Z</time>
</trkpt>
<trkpt lat="46.1238500" lon="10.5040830">
	<ele>2216.40</ele>
	<time>2023-08-07T08:40:40.000Z</time>
</trkpt>
<trkpt lat="46.1238480" lon="10.5040660">
	<ele>2216.20</ele>
	<time>2023-08-07T08:40:41.000Z</time>
</trkpt>
<trkpt lat="46.1238390" lon="10.5040490">
	<ele>2216.20</ele>
	<time>2023-08-07T08:40:42.000Z</time>
</trkpt>
<trkpt lat="46.1238330" lon="10.5040280">
	<ele>2216.20</ele>
	<time>2023-08-07T08:40:43.000Z</time>
</trkpt>
<trkpt lat="46.1238310" lon="10.5040080">
	<ele>2216.00</ele>
	<time>2023-08-07T08:40:44.000Z</time>
</trkpt>
<trkpt lat="46.1238300" lon="10.5039980">
	<ele>2216.00</ele>
	<time>2023-08-07T08:40:45.000Z</time>
</trkpt>
<trkpt lat="46.1238250" lon="10.5039810">
	<ele>2216.20</ele>
	<time>2023-08-07T08:40:46.000Z</time>
</trkpt>
<trkpt lat="46.1238220" lon="10.5039590">
	<ele>2216.00</ele>
	<time>2023-08-07T08:40:47.000Z</time>
</trkpt>
<trkpt lat="46.1238220" lon="10.5039390">
	<ele>2216.00</ele>
	<time>2023-08-07T08:40:48.000Z</time>
</trkpt>
<trkpt lat="46.1238250" lon="10.5039210">
	<ele>2215.80</ele>
	<time>2023-08-07T08:40:49.000Z</time>
</trkpt>
<trkpt lat="46.1238210" lon="10.5038980">
	<ele>2215.80</ele>
	<time>2023-08-07T08:40:50.000Z</time>
</trkpt>
<trkpt lat="46.1238070" lon="10.5038810">
	<ele>2215.80</ele>
	<time>2023-08-07T08:40:51.000Z</time>
</trkpt>
<trkpt lat="46.1237960" lon="10.5038620">
	<ele>2215.80</ele>
	<time>2023-08-07T08:40:52.000Z</time>
</trkpt>
<trkpt lat="46.1237970" lon="10.5038470">
	<ele>2215.80</ele>
	<time>2023-08-07T08:40:53.000Z</time>
</trkpt>
<trkpt lat="46.1237870" lon="10.5038350">
	<ele>2215.80</ele>
	<time>2023-08-07T08:40:54.000Z</time>
</trkpt>
<trkpt lat="46.1237760" lon="10.5038200">
	<ele>2215.80</ele>
	<time>2023-08-07T08:40:55.000Z</time>
</trkpt>
<trkpt lat="46.1237550" lon="10.5038070">
	<ele>2215.80</ele>
	<time>2023-08-07T08:40:56.000Z</time>
</trkpt>
<trkpt lat="46.1237550" lon="10.5037940">
	<ele>2215.80</ele>
	<time>2023-08-07T08:40:57.000Z</time>
</trkpt>
<trkpt lat="46.1237600" lon="10.5037840">
	<ele>2215.80</ele>
	<time>2023-08-07T08:40:58.000Z</time>
</trkpt>
<trkpt lat="46.1237590" lon="10.5037620">
	<ele>2215.80</ele>
	<time>2023-08-07T08:40:59.000Z</time>
</trkpt>
<trkpt lat="46.1237480" lon="10.5037420">
	<ele>2216.00</ele>
	<time>2023-08-07T08:41:00.000Z</time>
</trkpt>
<trkpt lat="46.1237480" lon="10.5037190">
	<ele>2216.20</ele>
	<time>2023-08-07T08:41:01.000Z</time>
</trkpt>
<trkpt lat="46.1237530" lon="10.5037010">
	<ele>2216.20</ele>
	<time>2023-08-07T08:41:02.000Z</time>
</trkpt>
<trkpt lat="46.1237530" lon="10.5036860">
	<ele>2216.40</ele>
	<time>2023-08-07T08:41:03.000Z</time>
</trkpt>
<trkpt lat="46.1237460" lon="10.5036720">
	<ele>2216.40</ele>
	<time>2023-08-07T08:41:04.000Z</time>
</trkpt>
<trkpt lat="46.1237500" lon="10.5036600">
	<ele>2216.40</ele>
	<time>2023-08-07T08:41:05.000Z</time>
</trkpt>
<trkpt lat="46.1237540" lon="10.5036460">
	<ele>2216.60</ele>
	<time>2023-08-07T08:41:06.000Z</time>
</trkpt>
<trkpt lat="46.1237550" lon="10.5036300">
	<ele>2216.60</ele>
	<time>2023-08-07T08:41:07.000Z</time>
</trkpt>
<trkpt lat="46.1237620" lon="10.5036140">
	<ele>2216.40</ele>
	<time>2023-08-07T08:41:08.000Z</time>
</trkpt>
<trkpt lat="46.1237710" lon="10.5035980">
	<ele>2216.20</ele>
	<time>2023-08-07T08:41:09.000Z</time>
</trkpt>
<trkpt lat="46.1237850" lon="10.5035850">
	<ele>2216.00</ele>
	<time>2023-08-07T08:41:10.000Z</time>
</trkpt>
<trkpt lat="46.1237950" lon="10.5035670">
	<ele>2215.80</ele>
	<time>2023-08-07T08:41:11.000Z</time>
</trkpt>
<trkpt lat="46.1237850" lon="10.5035540">
	<ele>2215.60</ele>
	<time>2023-08-07T08:41:12.000Z</time>
</trkpt>
<trkpt lat="46.1237860" lon="10.5035430">
	<ele>2215.60</ele>
	<time>2023-08-07T08:41:13.000Z</time>
</trkpt>
<trkpt lat="46.1237810" lon="10.5035280">
	<ele>2215.60</ele>
	<time>2023-08-07T08:41:14.000Z</time>
</trkpt>
<trkpt lat="46.1237600" lon="10.5035030">
	<ele>2215.60</ele>
	<time>2023-08-07T08:41:15.000Z</time>
</trkpt>
<trkpt lat="46.1237550" lon="10.5034810">
	<ele>2215.60</ele>
	<time>2023-08-07T08:41:16.000Z</time>
</trkpt>
<trkpt lat="46.1237580" lon="10.5034600">
	<ele>2215.60</ele>
	<time>2023-08-07T08:41:17.000Z</time>
</trkpt>
<trkpt lat="46.1237700" lon="10.5034450">
	<ele>2215.80</ele>
	<time>2023-08-07T08:41:18.000Z</time>
</trkpt>
<trkpt lat="46.1237760" lon="10.5034310">
	<ele>2215.80</ele>
	<time>2023-08-07T08:41:19.000Z</time>
</trkpt>
<trkpt lat="46.1237750" lon="10.5034080">
	<ele>2215.60</ele>
	<time>2023-08-07T08:41:20.000Z</time>
</trkpt>
<trkpt lat="46.1237730" lon="10.5033950">
	<ele>2215.20</ele>
	<time>2023-08-07T08:41:21.000Z</time>
</trkpt>
<trkpt lat="46.1237520" lon="10.5033790">
	<ele>2215.20</ele>
	<time>2023-08-07T08:41:22.000Z</time>
</trkpt>
<trkpt lat="46.1237470" lon="10.5033540">
	<ele>2215.00</ele>
	<time>2023-08-07T08:41:23.000Z</time>
</trkpt>
<trkpt lat="46.1237440" lon="10.5033350">
	<ele>2215.00</ele>
	<time>2023-08-07T08:41:24.000Z</time>
</trkpt>
<trkpt lat="46.1237500" lon="10.5033220">
	<ele>2215.00</ele>
	<time>2023-08-07T08:41:25.000Z</time>
</trkpt>
<trkpt lat="46.1237560" lon="10.5033150">
	<ele>2215.20</ele>
	<time>2023-08-07T08:41:26.000Z</time>
</trkpt>
<trkpt lat="46.1237500" lon="10.5032970">
	<ele>2215.20</ele>
	<time>2023-08-07T08:41:27.000Z</time>
</trkpt>
<trkpt lat="46.1237400" lon="10.5032770">
	<ele>2215.20</ele>
	<time>2023-08-07T08:41:28.000Z</time>
</trkpt>
<trkpt lat="46.1237350" lon="10.5032620">
	<ele>2215.20</ele>
	<time>2023-08-07T08:41:29.000Z</time>
</trkpt>
<trkpt lat="46.1237360" lon="10.5032480">
	<ele>2215.20</ele>
	<time>2023-08-07T08:41:30.000Z</time>
</trkpt>
<trkpt lat="46.1237390" lon="10.5032320">
	<ele>2215.20</ele>
	<time>2023-08-07T08:41:31.000Z</time>
</trkpt>
<trkpt lat="46.1237470" lon="10.5032140">
	<ele>2215.20</ele>
	<time>2023-08-07T08:41:32.000Z</time>
</trkpt>
<trkpt lat="46.1237540" lon="10.5031980">
	<ele>2215.00</ele>
	<time>2023-08-07T08:41:33.000Z</time>
</trkpt>
<trkpt lat="46.1237540" lon="10.5031800">
	<ele>2215.00</ele>
	<time>2023-08-07T08:41:34.000Z</time>
</trkpt>
<trkpt lat="46.1237560" lon="10.5031600">
	<ele>2215.00</ele>
	<time>2023-08-07T08:41:35.000Z</time>
</trkpt>
<trkpt lat="46.1237570" lon="10.5031410">
	<ele>2215.00</ele>
	<time>2023-08-07T08:41:36.000Z</time>
</trkpt>
<trkpt lat="46.1237570" lon="10.5031240">
	<ele>2214.80</ele>
	<time>2023-08-07T08:41:37.000Z</time>
</trkpt>
<trkpt lat="46.1237590" lon="10.5031050">
	<ele>2214.80</ele>
	<time>2023-08-07T08:41:38.000Z</time>
</trkpt>
<trkpt lat="46.1237630" lon="10.5030890">
	<ele>2214.80</ele>
	<time>2023-08-07T08:41:39.000Z</time>
</trkpt>
<trkpt lat="46.1237670" lon="10.5030730">
	<ele>2214.80</ele>
	<time>2023-08-07T08:41:40.000Z</time>
</trkpt>
<trkpt lat="46.1237680" lon="10.5030580">
	<ele>2214.80</ele>
	<time>2023-08-07T08:41:41.000Z</time>
</trkpt>
<trkpt lat="46.1237730" lon="10.5030430">
	<ele>2214.60</ele>
	<time>2023-08-07T08:41:42.000Z</time>
</trkpt>
<trkpt lat="46.1237740" lon="10.5030290">
	<ele>2214.60</ele>
	<time>2023-08-07T08:41:43.000Z</time>
</trkpt>
<trkpt lat="46.1237730" lon="10.5030120">
	<ele>2214.60</ele>
	<time>2023-08-07T08:41:44.000Z</time>
</trkpt>
<trkpt lat="46.1237780" lon="10.5029900">
	<ele>2214.60</ele>
	<time>2023-08-07T08:41:45.000Z</time>
</trkpt>
<trkpt lat="46.1237810" lon="10.5029700">
	<ele>2214.40</ele>
	<time>2023-08-07T08:41:46.000Z</time>
</trkpt>
<trkpt lat="46.1237890" lon="10.5029540">
	<ele>2214.40</ele>
	<time>2023-08-07T08:41:47.000Z</time>
</trkpt>
<trkpt lat="46.1238000" lon="10.5029420">
	<ele>2214.40</ele>
	<time>2023-08-07T08:41:48.000Z</time>
</trkpt>
<trkpt lat="46.1238100" lon="10.5029310">
	<ele>2214.40</ele>
	<time>2023-08-07T08:41:49.000Z</time>
</trkpt>
<trkpt lat="46.1238180" lon="10.5029190">
	<ele>2214.40</ele>
	<time>2023-08-07T08:41:50.000Z</time>
</trkpt>
<trkpt lat="46.1238310" lon="10.5029070">
	<ele>2214.20</ele>
	<time>2023-08-07T08:41:51.000Z</time>
</trkpt>
<trkpt lat="46.1238460" lon="10.5028990">
	<ele>2214.20</ele>
	<time>2023-08-07T08:41:52.000Z</time>
</trkpt>
<trkpt lat="46.1238590" lon="10.5028910">
	<ele>2214.00</ele>
	<time>2023-08-07T08:41:53.000Z</time>
</trkpt>
<trkpt lat="46.1238690" lon="10.5028830">
	<ele>2214.00</ele>
	<time>2023-08-07T08:41:54.000Z</time>
</trkpt>
<trkpt lat="46.1238670" lon="10.5028740">
	<ele>2214.00</ele>
	<time>2023-08-07T08:41:55.000Z</time>
</trkpt>
<trkpt lat="46.1238690" lon="10.5028640">
	<ele>2214.00</ele>
	<time>2023-08-07T08:41:56.000Z</time>
</trkpt>
<trkpt lat="46.1238690" lon="10.5028510">
	<ele>2214.00</ele>
	<time>2023-08-07T08:41:57.000Z</time>
</trkpt>
<trkpt lat="46.1238660" lon="10.5028400">
	<ele>2214.20</ele>
	<time>2023-08-07T08:41:58.000Z</time>
</trkpt>
<trkpt lat="46.1238680" lon="10.5028280">
	<ele>2214.60</ele>
	<time>2023-08-07T08:41:59.000Z</time>
</trkpt>
<trkpt lat="46.1238690" lon="10.5028080">
	<ele>2214.80</ele>
	<time>2023-08-07T08:42:00.000Z</time>
</trkpt>
<trkpt lat="46.1238770" lon="10.5027970">
	<ele>2215.00</ele>
	<time>2023-08-07T08:42:01.000Z</time>
</trkpt>
<trkpt lat="46.1238830" lon="10.5027930">
	<ele>2215.00</ele>
	<time>2023-08-07T08:42:02.000Z</time>
</trkpt>
<trkpt lat="46.1238860" lon="10.5027820">
	<ele>2214.80</ele>
	<time>2023-08-07T08:42:03.000Z</time>
</trkpt>
<trkpt lat="46.1238870" lon="10.5027670">
	<ele>2214.60</ele>
	<time>2023-08-07T08:42:04.000Z</time>
</trkpt>
<trkpt lat="46.1238940" lon="10.5027380">
	<ele>2214.40</ele>
	<time>2023-08-07T08:42:05.000Z</time>
</trkpt>
<trkpt lat="46.1238910" lon="10.5027130">
	<ele>2214.20</ele>
	<time>2023-08-07T08:42:06.000Z</time>
</trkpt>
<trkpt lat="46.1238940" lon="10.5026970">
	<ele>2214.00</ele>
	<time>2023-08-07T08:42:07.000Z</time>
</trkpt>
<trkpt lat="46.1238990" lon="10.5026810">
	<ele>2213.80</ele>
	<time>2023-08-07T08:42:08.000Z</time>
</trkpt>
<trkpt lat="46.1239010" lon="10.5026640">
	<ele>2213.80</ele>
	<time>2023-08-07T08:42:09.000Z</time>
</trkpt>
<trkpt lat="46.1239040" lon="10.5026530">
	<ele>2213.60</ele>
	<time>2023-08-07T08:42:10.000Z</time>
</trkpt>
<trkpt lat="46.1239090" lon="10.5026470">
	<ele>2213.60</ele>
	<time>2023-08-07T08:42:11.000Z</time>
</trkpt>
<trkpt lat="46.1239140" lon="10.5026400">
	<ele>2213.60</ele>
	<time>2023-08-07T08:42:12.000Z</time>
</trkpt>
<trkpt lat="46.1239190" lon="10.5026310">
	<ele>2213.60</ele>
	<time>2023-08-07T08:42:13.000Z</time>
</trkpt>
<trkpt lat="46.1239220" lon="10.5026160">
	<ele>2213.60</ele>
	<time>2023-08-07T08:42:14.000Z</time>
</trkpt>
<trkpt lat="46.1239260" lon="10.5025970">
	<ele>2213.60</ele>
	<time>2023-08-07T08:42:15.000Z</time>
</trkpt>
<trkpt lat="46.1239300" lon="10.5025740">
	<ele>2213.60</ele>
	<time>2023-08-07T08:42:16.000Z</time>
</trkpt>
<trkpt lat="46.1239360" lon="10.5025550">
	<ele>2213.60</ele>
	<time>2023-08-07T08:42:17.000Z</time>
</trkpt>
<trkpt lat="46.1239420" lon="10.5025400">
	<ele>2213.60</ele>
	<time>2023-08-07T08:42:18.000Z</time>
</trkpt>
<trkpt lat="46.1239440" lon="10.5025350">
	<ele>2213.40</ele>
	<time>2023-08-07T08:42:19.000Z</time>
</trkpt>
<trkpt lat="46.1239420" lon="10.5025310">
	<ele>2213.40</ele>
	<time>2023-08-07T08:42:20.000Z</time>
</trkpt>
<trkpt lat="46.1239390" lon="10.5025300">
	<ele>2213.20</ele>
	<time>2023-08-07T08:42:21.000Z</time>
</trkpt>
<trkpt lat="46.1239380" lon="10.5025270">
	<ele>2213.20</ele>
	<time>2023-08-07T08:42:22.000Z</time>
</trkpt>
<trkpt lat="46.1239400" lon="10.5025250">
	<ele>2213.20</ele>
	<time>2023-08-07T08:42:23.000Z</time>
</trkpt>
<trkpt lat="46.1239430" lon="10.5025260">
	<ele>2213.20</ele>
	<time>2023-08-07T08:42:24.000Z</time>
</trkpt>
<trkpt lat="46.1239440" lon="10.5025240">
	<ele>2213.60</ele>
	<time>2023-08-07T08:42:25.000Z</time>
</trkpt>
<trkpt lat="46.1239390" lon="10.5025110">
	<ele>2213.60</ele>
	<time>2023-08-07T08:42:26.000Z</time>
</trkpt>
<trkpt lat="46.1239360" lon="10.5024990">
	<ele>2213.80</ele>
	<time>2023-08-07T08:42:27.000Z</time>
</trkpt>
<trkpt lat="46.1239340" lon="10.5024950">
	<ele>2213.80</ele>
	<time>2023-08-07T08:42:28.000Z</time>
</trkpt>
<trkpt lat="46.1239330" lon="10.5024930">
	<ele>2213.80</ele>
	<time>2023-08-07T08:42:29.000Z</time>
</trkpt>
<trkpt lat="46.1239310" lon="10.5024930">
	<ele>2213.80</ele>
	<time>2023-08-07T08:42:30.000Z</time>
</trkpt>
<trkpt lat="46.1239300" lon="10.5024920">
	<ele>2214.00</ele>
	<time>2023-08-07T08:42:31.000Z</time>
</trkpt>
<trkpt lat="46.1239300" lon="10.5024930">
	<ele>2214.00</ele>
	<time>2023-08-07T08:42:32.000Z</time>
</trkpt>
<trkpt lat="46.1239300" lon="10.5024930">
	<ele>2214.00</ele>
	<time>2023-08-07T08:42:33.000Z</time>
</trkpt>
<trkpt lat="46.1239300" lon="10.5024930">
	<ele>2214.00</ele>
	<time>2023-08-07T08:42:34.000Z</time>
</trkpt>
<trkpt lat="46.1239300" lon="10.5024930">
	<ele>2213.80</ele>
	<time>2023-08-07T08:42:35.000Z</time>
</trkpt>
<trkpt lat="46.1239300" lon="10.5024930">
	<ele>2213.80</ele>
	<time>2023-08-07T08:42:36.000Z</time>
</trkpt>
<trkpt lat="46.1239300" lon="10.5024930">
	<ele>2213.60</ele>
	<time>2023-08-07T08:42:37.000Z</time>
</trkpt>
<trkpt lat="46.1239300" lon="10.5024930">
	<ele>2213.40</ele>
	<time>2023-08-07T08:42:38.000Z</time>
</trkpt>
<trkpt lat="46.1239300" lon="10.5024930">
	<ele>2213.20</ele>
	<time>2023-08-07T08:42:39.000Z</time>
</trkpt>
<trkpt lat="46.1239280" lon="10.5024880">
	<ele>2213.00</ele>
	<time>2023-08-07T08:42:40.000Z</time>
</trkpt>
<trkpt lat="46.1239280" lon="10.5024720">
	<ele>2212.80</ele>
	<time>2023-08-07T08:42:41.000Z</time>
</trkpt>
<trkpt lat="46.1239250" lon="10.5024630">
	<ele>2212.60</ele>
	<time>2023-08-07T08:42:42.000Z</time>
</trkpt>
<trkpt lat="46.1239170" lon="10.5024510">
	<ele>2212.40</ele>
	<time>2023-08-07T08:42:43.000Z</time>
</trkpt>
<trkpt lat="46.1239120" lon="10.5024330">
	<ele>2212.40</ele>
	<time>2023-08-07T08:42:44.000Z</time>
</trkpt>
<trkpt lat="46.1239040" lon="10.5024130">
	<ele>2212.20</ele>
	<time>2023-08-07T08:42:45.000Z</time>
</trkpt>
<trkpt lat="46.1238980" lon="10.5024010">
	<ele>2212.20</ele>
	<time>2023-08-07T08:42:46.000Z</time>
</trkpt>
<trkpt lat="46.1239000" lon="10.5023890">
	<ele>2212.00</ele>
	<time>2023-08-07T08:42:47.000Z</time>
</trkpt>
<trkpt lat="46.1239020" lon="10.5023800">
	<ele>2212.00</ele>
	<time>2023-08-07T08:42:48.000Z</time>
</trkpt>
<trkpt lat="46.1239020" lon="10.5023730">
	<ele>2212.00</ele>
	<time>2023-08-07T08:42:49.000Z</time>
</trkpt>
<trkpt lat="46.1239040" lon="10.5023730">
	<ele>2211.80</ele>
	<time>2023-08-07T08:42:50.000Z</time>
</trkpt>
<trkpt lat="46.1239050" lon="10.5023740">
	<ele>2211.80</ele>
	<time>2023-08-07T08:42:51.000Z</time>
</trkpt>
<trkpt lat="46.1239060" lon="10.5023750">
	<ele>2211.80</ele>
	<time>2023-08-07T08:42:52.000Z</time>
</trkpt>
<trkpt lat="46.1239070" lon="10.5023780">
	<ele>2211.60</ele>
	<time>2023-08-07T08:42:53.000Z</time>
</trkpt>
<trkpt lat="46.1239080" lon="10.5023800">
	<ele>2211.60</ele>
	<time>2023-08-07T08:42:54.000Z</time>
</trkpt>
<trkpt lat="46.1239030" lon="10.5023860">
	<ele>2211.60</ele>
	<time>2023-08-07T08:42:55.000Z</time>
</trkpt>
<trkpt lat="46.1238950" lon="10.5023860">
	<ele>2211.60</ele>
	<time>2023-08-07T08:42:56.000Z</time>
</trkpt>
<trkpt lat="46.1238850" lon="10.5023770">
	<ele>2211.60</ele>
	<time>2023-08-07T08:42:57.000Z</time>
</trkpt>
<trkpt lat="46.1238800" lon="10.5023690">
	<ele>2211.40</ele>
	<time>2023-08-07T08:42:58.000Z</time>
</trkpt>
<trkpt lat="46.1238670" lon="10.5023620">
	<ele>2211.40</ele>
	<time>2023-08-07T08:42:59.000Z</time>
</trkpt>
<trkpt lat="46.1238630" lon="10.5023500">
	<ele>2211.20</ele>
	<time>2023-08-07T08:43:00.000Z</time>
</trkpt>
<trkpt lat="46.1238580" lon="10.5023370">
	<ele>2211.20</ele>
	<time>2023-08-07T08:43:01.000Z</time>
</trkpt>
<trkpt lat="46.1238530" lon="10.5023190">
	<ele>2211.20</ele>
	<time>2023-08-07T08:43:02.000Z</time>
</trkpt>
<trkpt lat="46.1238490" lon="10.5022950">
	<ele>2211.00</ele>
	<time>2023-08-07T08:43:03.000Z</time>
</trkpt>
<trkpt lat="46.1238430" lon="10.5022740">
	<ele>2211.00</ele>
	<time>2023-08-07T08:43:04.000Z</time>
</trkpt>
<trkpt lat="46.1238420" lon="10.5022610">
	<ele>2211.00</ele>
	<time>2023-08-07T08:43:05.000Z</time>
</trkpt>
<trkpt lat="46.1238400" lon="10.5022470">
	<ele>2211.00</ele>
	<time>2023-08-07T08:43:06.000Z</time>
</trkpt>
<trkpt lat="46.1238350" lon="10.5022360">
	<ele>2211.00</ele>
	<time>2023-08-07T08:43:07.000Z</time>
</trkpt>
<trkpt lat="46.1238340" lon="10.5022310">
	<ele>2211.00</ele>
	<time>2023-08-07T08:43:08.000Z</time>
</trkpt>
<trkpt lat="46.1238290" lon="10.5022220">
	<ele>2211.00</ele>
	<time>2023-08-07T08:43:09.000Z</time>
</trkpt>
<trkpt lat="46.1238230" lon="10.5022110">
	<ele>2211.00</ele>
	<time>2023-08-07T08:43:10.000Z</time>
</trkpt>
<trkpt lat="46.1238030" lon="10.5021970">
	<ele>2211.00</ele>
	<time>2023-08-07T08:43:11.000Z</time>
</trkpt>
<trkpt lat="46.1237830" lon="10.5021860">
	<ele>2211.00</ele>
	<time>2023-08-07T08:43:12.000Z</time>
</trkpt>
<trkpt lat="46.1237600" lon="10.5021730">
	<ele>2210.80</ele>
	<time>2023-08-07T08:43:13.000Z</time>
</trkpt>
<trkpt lat="46.1237560" lon="10.5021590">
	<ele>2210.60</ele>
	<time>2023-08-07T08:43:14.000Z</time>
</trkpt>
<trkpt lat="46.1237490" lon="10.5021520">
	<ele>2210.40</ele>
	<time>2023-08-07T08:43:15.000Z</time>
</trkpt>
<trkpt lat="46.1237460" lon="10.5021480">
	<ele>2210.40</ele>
	<time>2023-08-07T08:43:16.000Z</time>
</trkpt>
<trkpt lat="46.1237490" lon="10.5021520">
	<ele>2210.20</ele>
	<time>2023-08-07T08:43:17.000Z</time>
</trkpt>
<trkpt lat="46.1237480" lon="10.5021520">
	<ele>2210.20</ele>
	<time>2023-08-07T08:43:18.000Z</time>
</trkpt>
<trkpt lat="46.1237440" lon="10.5021510">
	<ele>2210.20</ele>
	<time>2023-08-07T08:43:19.000Z</time>
</trkpt>
<trkpt lat="46.1237420" lon="10.5021500">
	<ele>2210.20</ele>
	<time>2023-08-07T08:43:20.000Z</time>
</trkpt>
<trkpt lat="46.1237410" lon="10.5021470">
	<ele>2210.20</ele>
	<time>2023-08-07T08:43:21.000Z</time>
</trkpt>
<trkpt lat="46.1237430" lon="10.5021460">
	<ele>2210.20</ele>
	<time>2023-08-07T08:43:22.000Z</time>
</trkpt>
<trkpt lat="46.1237520" lon="10.5021510">
	<ele>2210.20</ele>
	<time>2023-08-07T08:43:23.000Z</time>
</trkpt>
<trkpt lat="46.1237550" lon="10.5021530">
	<ele>2210.00</ele>
	<time>2023-08-07T08:43:24.000Z</time>
</trkpt>
<trkpt lat="46.1237570" lon="10.5021530">
	<ele>2210.20</ele>
	<time>2023-08-07T08:43:25.000Z</time>
</trkpt>
<trkpt lat="46.1237490" lon="10.5021510">
	<ele>2210.20</ele>
	<time>2023-08-07T08:43:26.000Z</time>
</trkpt>
<trkpt lat="46.1237450" lon="10.5021420">
	<ele>2210.40</ele>
	<time>2023-08-07T08:43:27.000Z</time>
</trkpt>
<trkpt lat="46.1237470" lon="10.5021330">
	<ele>2210.40</ele>
	<time>2023-08-07T08:43:28.000Z</time>
</trkpt>
<trkpt lat="46.1237470" lon="10.5021250">
	<ele>2210.40</ele>
	<time>2023-08-07T08:43:29.000Z</time>
</trkpt>
<trkpt lat="46.1237480" lon="10.5021230">
	<ele>2210.60</ele>
	<time>2023-08-07T08:43:30.000Z</time>
</trkpt>
<trkpt lat="46.1237470" lon="10.5021170">
	<ele>2210.60</ele>
	<time>2023-08-07T08:43:31.000Z</time>
</trkpt>
<trkpt lat="46.1237490" lon="10.5021140">
	<ele>2210.60</ele>
	<time>2023-08-07T08:43:32.000Z</time>
</trkpt>
<trkpt lat="46.1237500" lon="10.5021120">
	<ele>2210.60</ele>
	<time>2023-08-07T08:43:33.000Z</time>
</trkpt>
<trkpt lat="46.1237510" lon="10.5021110">
	<ele>2210.80</ele>
	<time>2023-08-07T08:43:34.000Z</time>
</trkpt>
<trkpt lat="46.1237510" lon="10.5021090">
	<ele>2210.80</ele>
	<time>2023-08-07T08:43:35.000Z</time>
</trkpt>
<trkpt lat="46.1237510" lon="10.5021080">
	<ele>2210.80</ele>
	<time>2023-08-07T08:43:36.000Z</time>
</trkpt>
<trkpt lat="46.1237500" lon="10.5021070">
	<ele>2210.80</ele>
	<time>2023-08-07T08:43:37.000Z</time>
</trkpt>
<trkpt lat="46.1237500" lon="10.5021070">
	<ele>2210.80</ele>
	<time>2023-08-07T08:43:38.000Z</time>
</trkpt>
<trkpt lat="46.1237500" lon="10.5021070">
	<ele>2210.80</ele>
	<time>2023-08-07T08:43:39.000Z</time>
</trkpt>
<trkpt lat="46.1237500" lon="10.5021070">
	<ele>2210.80</ele>
	<time>2023-08-07T08:43:40.000Z</time>
</trkpt>
<trkpt lat="46.1237500" lon="10.5021070">
	<ele>2210.60</ele>
	<time>2023-08-07T08:43:41.000Z</time>
</trkpt>
<trkpt lat="46.1237500" lon="10.5021070">
	<ele>2210.60</ele>
	<time>2023-08-07T08:43:42.000Z</time>
</trkpt>
<trkpt lat="46.1237500" lon="10.5021070">
	<ele>2210.60</ele>
	<time>2023-08-07T08:43:43.000Z</time>
</trkpt>
<trkpt lat="46.1237500" lon="10.5021070">
	<ele>2210.40</ele>
	<time>2023-08-07T08:43:44.000Z</time>
</trkpt>
<trkpt lat="46.1237540" lon="10.5021020">
	<ele>2210.40</ele>
	<time>2023-08-07T08:43:45.000Z</time>
</trkpt>
<trkpt lat="46.1237590" lon="10.5020760">
	<ele>2210.20</ele>
	<time>2023-08-07T08:43:46.000Z</time>
</trkpt>
<trkpt lat="46.1237570" lon="10.5020480">
	<ele>2210.20</ele>
	<time>2023-08-07T08:43:47.000Z</time>
</trkpt>
<trkpt lat="46.1237670" lon="10.5020270">
	<ele>2210.00</ele>
	<time>2023-08-07T08:43:48.000Z</time>
</trkpt>
<trkpt lat="46.1237740" lon="10.5020020">
	<ele>2210.00</ele>
	<time>2023-08-07T08:43:49.000Z</time>
</trkpt>
<trkpt lat="46.1237800" lon="10.5019790">
	<ele>2210.00</ele>
	<time>2023-08-07T08:43:50.000Z</time>
</trkpt>
<trkpt lat="46.1237840" lon="10.5019530">
	<ele>2210.00</ele>
	<time>2023-08-07T08:43:51.000Z</time>
</trkpt>
<trkpt lat="46.1237930" lon="10.5019360">
	<ele>2210.00</ele>
	<time>2023-08-07T08:43:52.000Z</time>
</trkpt>
<trkpt lat="46.1238070" lon="10.5019230">
	<ele>2210.00</ele>
	<time>2023-08-07T08:43:53.000Z</time>
</trkpt>
<trkpt lat="46.1238130" lon="10.5019140">
	<ele>2210.00</ele>
	<time>2023-08-07T08:43:54.000Z</time>
</trkpt>
<trkpt lat="46.1238170" lon="10.5019150">
	<ele>2210.00</ele>
	<time>2023-08-07T08:43:55.000Z</time>
</trkpt>
<trkpt lat="46.1238160" lon="10.5019130">
	<ele>2210.20</ele>
	<time>2023-08-07T08:43:56.000Z</time>
</trkpt>
<trkpt lat="46.1238180" lon="10.5019170">
	<ele>2210.20</ele>
	<time>2023-08-07T08:43:57.000Z</time>
</trkpt>
<trkpt lat="46.1238110" lon="10.5019170">
	<ele>2210.20</ele>
	<time>2023-08-07T08:43:58.000Z</time>
</trkpt>
<trkpt lat="46.1237990" lon="10.5019040">
	<ele>2210.20</ele>
	<time>2023-08-07T08:43:59.000Z</time>
</trkpt>
<trkpt lat="46.1237830" lon="10.5018840">
	<ele>2210.20</ele>
	<time>2023-08-07T08:44:00.000Z</time>
</trkpt>
<trkpt lat="46.1237780" lon="10.5018800">
	<ele>2210.20</ele>
	<time>2023-08-07T08:44:01.000Z</time>
</trkpt>
<trkpt lat="46.1237760" lon="10.5018720">
	<ele>2210.20</ele>
	<time>2023-08-07T08:44:02.000Z</time>
</trkpt>
<trkpt lat="46.1237710" lon="10.5018670">
	<ele>2210.20</ele>
	<time>2023-08-07T08:44:03.000Z</time>
</trkpt>
<trkpt lat="46.1237730" lon="10.5018690">
	<ele>2210.20</ele>
	<time>2023-08-07T08:44:04.000Z</time>
</trkpt>
<trkpt lat="46.1237680" lon="10.5018710">
	<ele>2210.20</ele>
	<time>2023-08-07T08:44:05.000Z</time>
</trkpt>
<trkpt lat="46.1237620" lon="10.5018720">
	<ele>2210.20</ele>
	<time>2023-08-07T08:44:06.000Z</time>
</trkpt>
<trkpt lat="46.1237510" lon="10.5018710">
	<ele>2210.20</ele>
	<time>2023-08-07T08:44:07.000Z</time>
</trkpt>
<trkpt lat="46.1237420" lon="10.5018700">
	<ele>2210.20</ele>
	<time>2023-08-07T08:44:08.000Z</time>
</trkpt>
<trkpt lat="46.1237370" lon="10.5018660">
	<ele>2210.20</ele>
	<time>2023-08-07T08:44:09.000Z</time>
</trkpt>
<trkpt lat="46.1237320" lon="10.5018610">
	<ele>2210.20</ele>
	<time>2023-08-07T08:44:10.000Z</time>
</trkpt>
<trkpt lat="46.1237260" lon="10.5018590">
	<ele>2210.00</ele>
	<time>2023-08-07T08:44:11.000Z</time>
</trkpt>
<trkpt lat="46.1237210" lon="10.5018530">
	<ele>2210.00</ele>
	<time>2023-08-07T08:44:12.000Z</time>
</trkpt>
<trkpt lat="46.1237170" lon="10.5018470">
	<ele>2210.00</ele>
	<time>2023-08-07T08:44:13.000Z</time>
</trkpt>
<trkpt lat="46.1237150" lon="10.5018420">
	<ele>2210.00</ele>
	<time>2023-08-07T08:44:14.000Z</time>
</trkpt>
<trkpt lat="46.1237140" lon="10.5018410">
	<ele>2209.80</ele>
	<time>2023-08-07T08:44:15.000Z</time>
</trkpt>
<trkpt lat="46.1237160" lon="10.5018410">
	<ele>2209.80</ele>
	<time>2023-08-07T08:44:16.000Z</time>
</trkpt>
<trkpt lat="46.1237190" lon="10.5018490">
	<ele>2209.80</ele>
	<time>2023-08-07T08:44:17.000Z</time>
</trkpt>
<trkpt lat="46.1237180" lon="10.5018500">
	<ele>2209.80</ele>
	<time>2023-08-07T08:44:18.000Z</time>
</trkpt>
<trkpt lat="46.1237190" lon="10.5018510">
	<ele>2209.80</ele>
	<time>2023-08-07T08:44:19.000Z</time>
</trkpt>
<trkpt lat="46.1237200" lon="10.5018540">
	<ele>2209.80</ele>
	<time>2023-08-07T08:44:20.000Z</time>
</trkpt>
<trkpt lat="46.1237200" lon="10.5018570">
	<ele>2209.80</ele>
	<time>2023-08-07T08:44:21.000Z</time>
</trkpt>
<trkpt lat="46.1237190" lon="10.5018610">
	<ele>2209.80</ele>
	<time>2023-08-07T08:44:22.000Z</time>
</trkpt>
<trkpt lat="46.1237200" lon="10.5018620">
	<ele>2209.60</ele>
	<time>2023-08-07T08:44:23.000Z</time>
</trkpt>
<trkpt lat="46.1237150" lon="10.5018620">
	<ele>2209.60</ele>
	<time>2023-08-07T08:44:24.000Z</time>
</trkpt>
<trkpt lat="46.1237040" lon="10.5018630">
	<ele>2209.60</ele>
	<time>2023-08-07T08:44:25.000Z</time>
</trkpt>
<trkpt lat="46.1236970" lon="10.5018680">
	<ele>2209.60</ele>
	<time>2023-08-07T08:44:26.000Z</time>
</trkpt>
<trkpt lat="46.1236910" lon="10.5018740">
	<ele>2209.60</ele>
	<time>2023-08-07T08:44:27.000Z</time>
</trkpt>
<trkpt lat="46.1236810" lon="10.5018800">
	<ele>2209.60</ele>
	<time>2023-08-07T08:44:28.000Z</time>
</trkpt>
<trkpt lat="46.1236730" lon="10.5018860">
	<ele>2209.60</ele>
	<time>2023-08-07T08:44:29.000Z</time>
</trkpt>
<trkpt lat="46.1236680" lon="10.5018910">
	<ele>2209.60</ele>
	<time>2023-08-07T08:44:30.000Z</time>
</trkpt>
<trkpt lat="46.1236620" lon="10.5018970">
	<ele>2209.40</ele>
	<time>2023-08-07T08:44:31.000Z</time>
</trkpt>
<trkpt lat="46.1236560" lon="10.5019050">
	<ele>2209.20</ele>
	<time>2023-08-07T08:44:32.000Z</time>
</trkpt>
<trkpt lat="46.1236510" lon="10.5019110">
	<ele>2209.20</ele>
	<time>2023-08-07T08:44:33.000Z</time>
</trkpt>
<trkpt lat="46.1236440" lon="10.5019160">
	<ele>2209.20</ele>
	<time>2023-08-07T08:44:34.000Z</time>
</trkpt>
<trkpt lat="46.1236330" lon="10.5019210">
	<ele>2209.20</ele>
	<time>2023-08-07T08:44:35.000Z</time>
</trkpt>
<trkpt lat="46.1236290" lon="10.5019170">
	<ele>2209.40</ele>
	<time>2023-08-07T08:44:36.000Z</time>
</trkpt>
<trkpt lat="46.1236230" lon="10.5019140">
	<ele>2209.60</ele>
	<time>2023-08-07T08:44:37.000Z</time>
</trkpt>
<trkpt lat="46.1236170" lon="10.5019040">
	<ele>2209.60</ele>
	<time>2023-08-07T08:44:38.000Z</time>
</trkpt>
<trkpt lat="46.1236070" lon="10.5019000">
	<ele>2209.60</ele>
	<time>2023-08-07T08:44:39.000Z</time>
</trkpt>
<trkpt lat="46.1236000" lon="10.5018900">
	<ele>2209.80</ele>
	<time>2023-08-07T08:44:40.000Z</time>
</trkpt>
<trkpt lat="46.1235940" lon="10.5018900">
	<ele>2209.80</ele>
	<time>2023-08-07T08:44:41.000Z</time>
</trkpt>
<trkpt lat="46.1235950" lon="10.5018910">
	<ele>2209.80</ele>
	<time>2023-08-07T08:44:42.000Z</time>
</trkpt>
<trkpt lat="46.1235930" lon="10.5018820">
	<ele>2209.80</ele>
	<time>2023-08-07T08:44:43.000Z</time>
</trkpt>
<trkpt lat="46.1235960" lon="10.5018790">
	<ele>2209.80</ele>
	<time>2023-08-07T08:44:44.000Z</time>
</trkpt>
<trkpt lat="46.1235950" lon="10.5018650">
	<ele>2209.80</ele>
	<time>2023-08-07T08:44:45.000Z</time>
</trkpt>
<trkpt lat="46.1235870" lon="10.5018530">
	<ele>2210.00</ele>
	<time>2023-08-07T08:44:46.000Z</time>
</trkpt>
<trkpt lat="46.1235750" lon="10.5018410">
	<ele>2210.00</ele>
	<time>2023-08-07T08:44:47.000Z</time>
</trkpt>
<trkpt lat="46.1235680" lon="10.5018400">
	<ele>2210.20</ele>
	<time>2023-08-07T08:44:48.000Z</time>
</trkpt>
<trkpt lat="46.1235630" lon="10.5018330">
	<ele>2210.40</ele>
	<time>2023-08-07T08:44:49.000Z</time>
</trkpt>
<trkpt lat="46.1235580" lon="10.5018200">
	<ele>2210.40</ele>
	<time>2023-08-07T08:44:50.000Z</time>
</trkpt>
<trkpt lat="46.1235570" lon="10.5018110">
	<ele>2210.60</ele>
	<time>2023-08-07T08:44:51.000Z</time>
</trkpt>
<trkpt lat="46.1235570" lon="10.5017980">
	<ele>2210.60</ele>
	<time>2023-08-07T08:44:52.000Z</time>
</trkpt>
<trkpt lat="46.1235570" lon="10.5017860">
	<ele>2210.60</ele>
	<time>2023-08-07T08:44:53.000Z</time>
</trkpt>
<trkpt lat="46.1235580" lon="10.5017700">
	<ele>2210.60</ele>
	<time>2023-08-07T08:44:54.000Z</time>
</trkpt>
<trkpt lat="46.1235550" lon="10.5017520">
	<ele>2210.60</ele>
	<time>2023-08-07T08:44:55.000Z</time>
</trkpt>
<trkpt lat="46.1235480" lon="10.5017370">
	<ele>2210.60</ele>
	<time>2023-08-07T08:44:56.000Z</time>
</trkpt>
<trkpt lat="46.1235640" lon="10.5017350">
	<ele>2210.60</ele>
	<time>2023-08-07T08:44:57.000Z</time>
</trkpt>
<trkpt lat="46.1235740" lon="10.5017290">
	<ele>2210.80</ele>
	<time>2023-08-07T08:44:58.000Z</time>
</trkpt>
<trkpt lat="46.1235830" lon="10.5017290">
	<ele>2210.80</ele>
	<time>2023-08-07T08:44:59.000Z</time>
</trkpt>
<trkpt lat="46.1235820" lon="10.5017220">
	<ele>2210.80</ele>
	<time>2023-08-07T08:45:00.000Z</time>
</trkpt>
<trkpt lat="46.1235820" lon="10.5017210">
	<ele>2210.80</ele>
	<time>2023-08-07T08:45:01.000Z</time>
</trkpt>
<trkpt lat="46.1235820" lon="10.5017220">
	<ele>2210.80</ele>
	<time>2023-08-07T08:45:02.000Z</time>
</trkpt>
<trkpt lat="46.1235750" lon="10.5017170">
	<ele>2210.80</ele>
	<time>2023-08-07T08:45:03.000Z</time>
</trkpt>
<trkpt lat="46.1235730" lon="10.5017150">
	<ele>2210.60</ele>
	<time>2023-08-07T08:45:04.000Z</time>
</trkpt>
<trkpt lat="46.1235760" lon="10.5017120">
	<ele>2210.60</ele>
	<time>2023-08-07T08:45:05.000Z</time>
</trkpt>
<trkpt lat="46.1235770" lon="10.5017140">
	<ele>2210.60</ele>
	<time>2023-08-07T08:45:06.000Z</time>
</trkpt>
<trkpt lat="46.1235620" lon="10.5017030">
	<ele>2210.60</ele>
	<time>2023-08-07T08:45:07.000Z</time>
</trkpt>
<trkpt lat="46.1235590" lon="10.5017010">
	<ele>2210.80</ele>
	<time>2023-08-07T08:45:08.000Z</time>
</trkpt>
<trkpt lat="46.1235870" lon="10.5017080">
	<ele>2210.80</ele>
	<time>2023-08-07T08:45:09.000Z</time>
</trkpt>
<trkpt lat="46.1235820" lon="10.5017100">
	<ele>2210.80</ele>
	<time>2023-08-07T08:45:10.000Z</time>
</trkpt>
<trkpt lat="46.1235800" lon="10.5017140">
	<ele>2210.80</ele>
	<time>2023-08-07T08:45:11.000Z</time>
</trkpt>
<trkpt lat="46.1235780" lon="10.5017140">
	<ele>2210.80</ele>
	<time>2023-08-07T08:45:12.000Z</time>
</trkpt>
<trkpt lat="46.1235780" lon="10.5017130">
	<ele>2211.00</ele>
	<time>2023-08-07T08:45:13.000Z</time>
</trkpt>
<trkpt lat="46.1235810" lon="10.5017140">
	<ele>2211.20</ele>
	<time>2023-08-07T08:45:14.000Z</time>
</trkpt>
<trkpt lat="46.1235840" lon="10.5017150">
	<ele>2211.20</ele>
	<time>2023-08-07T08:45:15.000Z</time>
</trkpt>
<trkpt lat="46.1235750" lon="10.5017110">
	<ele>2211.20</ele>
	<time>2023-08-07T08:45:16.000Z</time>
</trkpt>
<trkpt lat="46.1235760" lon="10.5017150">
	<ele>2211.20</ele>
	<time>2023-08-07T08:45:17.000Z</time>
</trkpt>
<trkpt lat="46.1235770" lon="10.5017160">
	<ele>2211.20</ele>
	<time>2023-08-07T08:45:18.000Z</time>
</trkpt>
<trkpt lat="46.1235800" lon="10.5017180">
	<ele>2211.20</ele>
	<time>2023-08-07T08:45:19.000Z</time>
</trkpt>
<trkpt lat="46.1235650" lon="10.5017070">
	<ele>2211.20</ele>
	<time>2023-08-07T08:45:20.000Z</time>
</trkpt>
<trkpt lat="46.1235550" lon="10.5016980">
	<ele>2211.00</ele>
	<time>2023-08-07T08:45:21.000Z</time>
</trkpt>
<trkpt lat="46.1235420" lon="10.5016900">
	<ele>2211.00</ele>
	<time>2023-08-07T08:45:22.000Z</time>
</trkpt>
<trkpt lat="46.1235400" lon="10.5016890">
	<ele>2210.80</ele>
	<time>2023-08-07T08:45:23.000Z</time>
</trkpt>
<trkpt lat="46.1235420" lon="10.5016910">
	<ele>2211.00</ele>
	<time>2023-08-07T08:45:24.000Z</time>
</trkpt>
<trkpt lat="46.1235450" lon="10.5016930">
	<ele>2211.00</ele>
	<time>2023-08-07T08:45:25.000Z</time>
</trkpt>
<trkpt lat="46.1235510" lon="10.5016990">
	<ele>2211.00</ele>
	<time>2023-08-07T08:45:26.000Z</time>
</trkpt>
<trkpt lat="46.1235570" lon="10.5017040">
	<ele>2211.00</ele>
	<time>2023-08-07T08:45:27.000Z</time>
</trkpt>
<trkpt lat="46.1235620" lon="10.5017080">
	<ele>2211.00</ele>
	<time>2023-08-07T08:45:28.000Z</time>
</trkpt>
<trkpt lat="46.1235790" lon="10.5017200">
	<ele>2211.00</ele>
	<time>2023-08-07T08:45:29.000Z</time>
</trkpt>
<trkpt lat="46.1235910" lon="10.5017300">
	<ele>2210.80</ele>
	<time>2023-08-07T08:45:30.000Z</time>
</trkpt>
<trkpt lat="46.1235920" lon="10.5017310">
	<ele>2210.80</ele>
	<time>2023-08-07T08:45:31.000Z</time>
</trkpt>
<trkpt lat="46.1235890" lon="10.5017310">
	<ele>2210.80</ele>
	<time>2023-08-07T08:45:32.000Z</time>
</trkpt>
<trkpt lat="46.1235920" lon="10.5017350">
	<ele>2210.80</ele>
	<time>2023-08-07T08:45:33.000Z</time>
</trkpt>
<trkpt lat="46.1235960" lon="10.5017360">
	<ele>2210.80</ele>
	<time>2023-08-07T08:45:34.000Z</time>
</trkpt>
<trkpt lat="46.1236030" lon="10.5017400">
	<ele>2210.80</ele>
	<time>2023-08-07T08:45:35.000Z</time>
</trkpt>
<trkpt lat="46.1235860" lon="10.5017290">
	<ele>2210.80</ele>
	<time>2023-08-07T08:45:36.000Z</time>
</trkpt>
<trkpt lat="46.1235780" lon="10.5017230">
	<ele>2210.80</ele>
	<time>2023-08-07T08:45:37.000Z</time>
</trkpt>
<trkpt lat="46.1235770" lon="10.5017250">
	<ele>2210.80</ele>
	<time>2023-08-07T08:45:38.000Z</time>
</trkpt>
<trkpt lat="46.1235720" lon="10.5017250">
	<ele>2210.80</ele>
	<time>2023-08-07T08:45:39.000Z</time>
</trkpt>
<trkpt lat="46.1235680" lon="10.5017250">
	<ele>2210.80</ele>
	<time>2023-08-07T08:45:40.000Z</time>
</trkpt>
<trkpt lat="46.1235650" lon="10.5017270">
	<ele>2210.80</ele>
	<time>2023-08-07T08:45:41.000Z</time>
</trkpt>
<trkpt lat="46.1235630" lon="10.5017260">
	<ele>2210.80</ele>
	<time>2023-08-07T08:45:42.000Z</time>
</trkpt>
<trkpt lat="46.1235670" lon="10.5017290">
	<ele>2210.80</ele>
	<time>2023-08-07T08:45:43.000Z</time>
</trkpt>
<trkpt lat="46.1235640" lon="10.5017260">
	<ele>2210.80</ele>
	<time>2023-08-07T08:45:44.000Z</time>
</trkpt>
<trkpt lat="46.1235670" lon="10.5017290">
	<ele>2210.80</ele>
	<time>2023-08-07T08:45:45.000Z</time>
</trkpt>
<trkpt lat="46.1235740" lon="10.5017360">
	<ele>2210.80</ele>
	<time>2023-08-07T08:45:46.000Z</time>
</trkpt>
<trkpt lat="46.1235830" lon="10.5017460">
	<ele>2210.80</ele>
	<time>2023-08-07T08:45:47.000Z</time>
</trkpt>
<trkpt lat="46.1235790" lon="10.5017460">
	<ele>2210.80</ele>
	<time>2023-08-07T08:45:48.000Z</time>
</trkpt>
<trkpt lat="46.1235890" lon="10.5017520">
	<ele>2210.80</ele>
	<time>2023-08-07T08:45:49.000Z</time>
</trkpt>
<trkpt lat="46.1235950" lon="10.5017570">
	<ele>2210.80</ele>
	<time>2023-08-07T08:45:50.000Z</time>
</trkpt>
<trkpt lat="46.1236010" lon="10.5017620">
	<ele>2210.80</ele>
	<time>2023-08-07T08:45:51.000Z</time>
</trkpt>
<trkpt lat="46.1236070" lon="10.5017660">
	<ele>2210.80</ele>
	<time>2023-08-07T08:45:52.000Z</time>
</trkpt>
<trkpt lat="46.1236110" lon="10.5017700">
	<ele>2210.80</ele>
	<time>2023-08-07T08:45:53.000Z</time>
</trkpt>
<trkpt lat="46.1236220" lon="10.5017810">
	<ele>2210.80</ele>
	<time>2023-08-07T08:45:54.000Z</time>
</trkpt>
<trkpt lat="46.1236270" lon="10.5017840">
	<ele>2210.80</ele>
	<time>2023-08-07T08:45:55.000Z</time>
</trkpt>
<trkpt lat="46.1236340" lon="10.5017900">
	<ele>2210.80</ele>
	<time>2023-08-07T08:45:56.000Z</time>
</trkpt>
<trkpt lat="46.1236220" lon="10.5017780">
	<ele>2210.80</ele>
	<time>2023-08-07T08:45:57.000Z</time>
</trkpt>
<trkpt lat="46.1236100" lon="10.5017670">
	<ele>2210.80</ele>
	<time>2023-08-07T08:45:58.000Z</time>
</trkpt>
<trkpt lat="46.1236070" lon="10.5017650">
	<ele>2210.80</ele>
	<time>2023-08-07T08:45:59.000Z</time>
</trkpt>
<trkpt lat="46.1236060" lon="10.5017670">
	<ele>2210.80</ele>
	<time>2023-08-07T08:46:00.000Z</time>
</trkpt>
<trkpt lat="46.1236040" lon="10.5017660">
	<ele>2210.80</ele>
	<time>2023-08-07T08:46:01.000Z</time>
</trkpt>
<trkpt lat="46.1236070" lon="10.5017670">
	<ele>2210.80</ele>
	<time>2023-08-07T08:46:02.000Z</time>
</trkpt>
<trkpt lat="46.1236070" lon="10.5017670">
	<ele>2210.80</ele>
	<time>2023-08-07T08:46:03.000Z</time>
</trkpt>
<trkpt lat="46.1236070" lon="10.5017660">
	<ele>2210.80</ele>
	<time>2023-08-07T08:46:04.000Z</time>
</trkpt>
<trkpt lat="46.1236050" lon="10.5017640">
	<ele>2210.80</ele>
	<time>2023-08-07T08:46:05.000Z</time>
</trkpt>
<trkpt lat="46.1236090" lon="10.5017670">
	<ele>2210.80</ele>
	<time>2023-08-07T08:46:06.000Z</time>
</trkpt>
<trkpt lat="46.1236110" lon="10.5017700">
	<ele>2210.80</ele>
	<time>2023-08-07T08:46:07.000Z</time>
</trkpt>
<trkpt lat="46.1236100" lon="10.5017700">
	<ele>2210.80</ele>
	<time>2023-08-07T08:46:08.000Z</time>
</trkpt>
<trkpt lat="46.1236140" lon="10.5017720">
	<ele>2210.80</ele>
	<time>2023-08-07T08:46:09.000Z</time>
</trkpt>
<trkpt lat="46.1236150" lon="10.5017710">
	<ele>2210.80</ele>
	<time>2023-08-07T08:46:10.000Z</time>
</trkpt>
<trkpt lat="46.1236190" lon="10.5017730">
	<ele>2210.80</ele>
	<time>2023-08-07T08:46:11.000Z</time>
</trkpt>
<trkpt lat="46.1236260" lon="10.5017810">
	<ele>2210.80</ele>
	<time>2023-08-07T08:46:12.000Z</time>
</trkpt>
<trkpt lat="46.1236370" lon="10.5017930">
	<ele>2210.80</ele>
	<time>2023-08-07T08:46:13.000Z</time>
</trkpt>
<trkpt lat="46.1236380" lon="10.5017880">
	<ele>2210.80</ele>
	<time>2023-08-07T08:46:14.000Z</time>
</trkpt>
<trkpt lat="46.1236270" lon="10.5017800">
	<ele>2210.80</ele>
	<time>2023-08-07T08:46:15.000Z</time>
</trkpt>
<trkpt lat="46.1236220" lon="10.5017790">
	<ele>2210.80</ele>
	<time>2023-08-07T08:46:16.000Z</time>
</trkpt>
<trkpt lat="46.1236360" lon="10.5017880">
	<ele>2210.80</ele>
	<time>2023-08-07T08:46:17.000Z</time>
</trkpt>
<trkpt lat="46.1236430" lon="10.5017880">
	<ele>2210.80</ele>
	<time>2023-08-07T08:46:18.000Z</time>
</trkpt>
<trkpt lat="46.1236510" lon="10.5017930">
	<ele>2210.80</ele>
	<time>2023-08-07T08:46:19.000Z</time>
</trkpt>
<trkpt lat="46.1236360" lon="10.5017780">
	<ele>2210.80</ele>
	<time>2023-08-07T08:46:20.000Z</time>
</trkpt>
<trkpt lat="46.1236330" lon="10.5017720">
	<ele>2210.80</ele>
	<time>2023-08-07T08:46:21.000Z</time>
</trkpt>
<trkpt lat="46.1236270" lon="10.5017630">
	<ele>2210.80</ele>
	<time>2023-08-07T08:46:22.000Z</time>
</trkpt>
<trkpt lat="46.1236250" lon="10.5017590">
	<ele>2210.80</ele>
	<time>2023-08-07T08:46:23.000Z</time>
</trkpt>
<trkpt lat="46.1236210" lon="10.5017550">
	<ele>2210.80</ele>
	<time>2023-08-07T08:46:24.000Z</time>
</trkpt>
<trkpt lat="46.1236140" lon="10.5017490">
	<ele>2210.80</ele>
	<time>2023-08-07T08:46:25.000Z</time>
</trkpt>
<trkpt lat="46.1236030" lon="10.5017400">
	<ele>2210.80</ele>
	<time>2023-08-07T08:46:26.000Z</time>
</trkpt>
<trkpt lat="46.1235980" lon="10.5017340">
	<ele>2210.80</ele>
	<time>2023-08-07T08:46:27.000Z</time>
</trkpt>
<trkpt lat="46.1235970" lon="10.5017300">
	<ele>2210.80</ele>
	<time>2023-08-07T08:46:28.000Z</time>
</trkpt>
<trkpt lat="46.1236050" lon="10.5017350">
	<ele>2210.80</ele>
	<time>2023-08-07T08:46:29.000Z</time>
</trkpt>
<trkpt lat="46.1236050" lon="10.5017330">
	<ele>2210.80</ele>
	<time>2023-08-07T08:46:30.000Z</time>
</trkpt>
<trkpt lat="46.1236000" lon="10.5017240">
	<ele>2210.80</ele>
	<time>2023-08-07T08:46:31.000Z</time>
</trkpt>
<trkpt lat="46.1236120" lon="10.5017350">
	<ele>2210.80</ele>
	<time>2023-08-07T08:46:32.000Z</time>
</trkpt>
<trkpt lat="46.1236170" lon="10.5017360">
	<ele>2210.80</ele>
	<time>2023-08-07T08:46:33.000Z</time>
</trkpt>
<trkpt lat="46.1236030" lon="10.5017240">
	<ele>2210.80</ele>
	<time>2023-08-07T08:46:34.000Z</time>
</trkpt>
<trkpt lat="46.1235990" lon="10.5017170">
	<ele>2210.80</ele>
	<time>2023-08-07T08:46:35.000Z</time>
</trkpt>
<trkpt lat="46.1236040" lon="10.5017150">
	<ele>2210.80</ele>
	<time>2023-08-07T08:46:36.000Z</time>
</trkpt>
<trkpt lat="46.1236110" lon="10.5017250">
	<ele>2210.80</ele>
	<time>2023-08-07T08:46:37.000Z</time>
</trkpt>
<trkpt lat="46.1236140" lon="10.5017350">
	<ele>2210.80</ele>
	<time>2023-08-07T08:46:38.000Z</time>
</trkpt>
<trkpt lat="46.1236140" lon="10.5017360">
	<ele>2210.80</ele>
	<time>2023-08-07T08:46:39.000Z</time>
</trkpt>
<trkpt lat="46.1236160" lon="10.5017390">
	<ele>2210.80</ele>
	<time>2023-08-07T08:46:40.000Z</time>
</trkpt>
<trkpt lat="46.1236180" lon="10.5017460">
	<ele>2210.80</ele>
	<time>2023-08-07T08:46:41.000Z</time>
</trkpt>
<trkpt lat="46.1236250" lon="10.5017550">
	<ele>2210.80</ele>
	<time>2023-08-07T08:46:42.000Z</time>
</trkpt>
<trkpt lat="46.1236280" lon="10.5017580">
	<ele>2210.80</ele>
	<time>2023-08-07T08:46:43.000Z</time>
</trkpt>
<trkpt lat="46.1236370" lon="10.5017640">
	<ele>2210.80</ele>
	<time>2023-08-07T08:46:44.000Z</time>
</trkpt>
<trkpt lat="46.1236560" lon="10.5017740">
	<ele>2210.80</ele>
	<time>2023-08-07T08:46:45.000Z</time>
</trkpt>
<trkpt lat="46.1236700" lon="10.5017810">
	<ele>2210.80</ele>
	<time>2023-08-07T08:46:46.000Z</time>
</trkpt>
<trkpt lat="46.1236900" lon="10.5017930">
	<ele>2210.80</ele>
	<time>2023-08-07T08:46:47.000Z</time>
</trkpt>
<trkpt lat="46.1237070" lon="10.5018070">
	<ele>2210.80</ele>
	<time>2023-08-07T08:46:48.000Z</time>
</trkpt>
<trkpt lat="46.1237210" lon="10.5018190">
	<ele>2210.80</ele>
	<time>2023-08-07T08:46:49.000Z</time>
</trkpt>
<trkpt lat="46.1237280" lon="10.5018250">
	<ele>2210.80</ele>
	<time>2023-08-07T08:46:50.000Z</time>
</trkpt>
<trkpt lat="46.1237200" lon="10.5018170">
	<ele>2210.80</ele>
	<time>2023-08-07T08:46:51.000Z</time>
</trkpt>
<trkpt lat="46.1237200" lon="10.5018150">
	<ele>2210.80</ele>
	<time>2023-08-07T08:46:52.000Z</time>
</trkpt>
<trkpt lat="46.1237060" lon="10.5018060">
	<ele>2210.80</ele>
	<time>2023-08-07T08:46:53.000Z</time>
</trkpt>
<trkpt lat="46.1237050" lon="10.5018060">
	<ele>2210.80</ele>
	<time>2023-08-07T08:46:54.000Z</time>
</trkpt>
<trkpt lat="46.1236710" lon="10.5017800">
	<ele>2210.80</ele>
	<time>2023-08-07T08:46:55.000Z</time>
</trkpt>
<trkpt lat="46.1236460" lon="10.5017650">
	<ele>2210.80</ele>
	<time>2023-08-07T08:46:56.000Z</time>
</trkpt>
<trkpt lat="46.1236390" lon="10.5017650">
	<ele>2210.80</ele>
	<time>2023-08-07T08:46:57.000Z</time>
</trkpt>
<trkpt lat="46.1236560" lon="10.5017770">
	<ele>2210.80</ele>
	<time>2023-08-07T08:46:58.000Z</time>
</trkpt>
<trkpt lat="46.1236590" lon="10.5017750">
	<ele>2210.80</ele>
	<time>2023-08-07T08:46:59.000Z</time>
</trkpt>
<trkpt lat="46.1236650" lon="10.5017760">
	<ele>2210.80</ele>
	<time>2023-08-07T08:47:00.000Z</time>
</trkpt>
<trkpt lat="46.1236720" lon="10.5017790">
	<ele>2210.80</ele>
	<time>2023-08-07T08:47:01.000Z</time>
</trkpt>
<trkpt lat="46.1236730" lon="10.5017790">
	<ele>2210.80</ele>
	<time>2023-08-07T08:47:02.000Z</time>
</trkpt>
<trkpt lat="46.1236760" lon="10.5017780">
	<ele>2210.80</ele>
	<time>2023-08-07T08:47:03.000Z</time>
</trkpt>
<trkpt lat="46.1236810" lon="10.5017780">
	<ele>2210.80</ele>
	<time>2023-08-07T08:47:04.000Z</time>
</trkpt>
<trkpt lat="46.1236760" lon="10.5017710">
	<ele>2210.80</ele>
	<time>2023-08-07T08:47:05.000Z</time>
</trkpt>
<trkpt lat="46.1236480" lon="10.5017520">
	<ele>2210.80</ele>
	<time>2023-08-07T08:47:06.000Z</time>
</trkpt>
<trkpt lat="46.1236380" lon="10.5017440">
	<ele>2210.80</ele>
	<time>2023-08-07T08:47:07.000Z</time>
</trkpt>
<trkpt lat="46.1236270" lon="10.5017360">
	<ele>2210.80</ele>
	<time>2023-08-07T08:47:08.000Z</time>
</trkpt>
<trkpt lat="46.1236270" lon="10.5017330">
	<ele>2210.80</ele>
	<time>2023-08-07T08:47:09.000Z</time>
</trkpt>
<trkpt lat="46.1236310" lon="10.5017360">
	<ele>2210.80</ele>
	<time>2023-08-07T08:47:10.000Z</time>
</trkpt>
<trkpt lat="46.1236250" lon="10.5017340">
	<ele>2210.80</ele>
	<time>2023-08-07T08:47:11.000Z</time>
</trkpt>
<trkpt lat="46.1236290" lon="10.5017400">
	<ele>2210.80</ele>
	<time>2023-08-07T08:47:12.000Z</time>
</trkpt>
<trkpt lat="46.1236350" lon="10.5017410">
	<ele>2210.80</ele>
	<time>2023-08-07T08:47:13.000Z</time>
</trkpt>
<trkpt lat="46.1236340" lon="10.5017410">
	<ele>2210.80</ele>
	<time>2023-08-07T08:47:14.000Z</time>
</trkpt>
<trkpt lat="46.1236310" lon="10.5017380">
	<ele>2210.80</ele>
	<time>2023-08-07T08:47:15.000Z</time>
</trkpt>
<trkpt lat="46.1236190" lon="10.5017280">
	<ele>2210.80</ele>
	<time>2023-08-07T08:47:16.000Z</time>
</trkpt>
<trkpt lat="46.1236210" lon="10.5017290">
	<ele>2210.80</ele>
	<time>2023-08-07T08:47:17.000Z</time>
</trkpt>
<trkpt lat="46.1236320" lon="10.5017390">
	<ele>2210.80</ele>
	<time>2023-08-07T08:47:18.000Z</time>
</trkpt>
<trkpt lat="46.1236330" lon="10.5017410">
	<ele>2210.80</ele>
	<time>2023-08-07T08:47:19.000Z</time>
</trkpt>
<trkpt lat="46.1236370" lon="10.5017440">
	<ele>2210.80</ele>
	<time>2023-08-07T08:47:20.000Z</time>
</trkpt>
<trkpt lat="46.1236430" lon="10.5017500">
	<ele>2210.80</ele>
	<time>2023-08-07T08:47:21.000Z</time>
</trkpt>
<trkpt lat="46.1236460" lon="10.5017510">
	<ele>2210.80</ele>
	<time>2023-08-07T08:47:22.000Z</time>
</trkpt>
<trkpt lat="46.1236660" lon="10.5017630">
	<ele>2210.80</ele>
	<time>2023-08-07T08:47:23.000Z</time>
</trkpt>
<trkpt lat="46.1236700" lon="10.5017630">
	<ele>2210.80</ele>
	<time>2023-08-07T08:47:24.000Z</time>
</trkpt>
<trkpt lat="46.1236760" lon="10.5017670">
	<ele>2210.80</ele>
	<time>2023-08-07T08:47:25.000Z</time>
</trkpt>
<trkpt lat="46.1236670" lon="10.5017600">
	<ele>2210.80</ele>
	<time>2023-08-07T08:47:26.000Z</time>
</trkpt>
<trkpt lat="46.1236660" lon="10.5017580">
	<ele>2210.80</ele>
	<time>2023-08-07T08:47:27.000Z</time>
</trkpt>
<trkpt lat="46.1236640" lon="10.5017550">
	<ele>2210.80</ele>
	<time>2023-08-07T08:47:28.000Z</time>
</trkpt>
<trkpt lat="46.1236550" lon="10.5017460">
	<ele>2210.80</ele>
	<time>2023-08-07T08:47:29.000Z</time>
</trkpt>
<trkpt lat="46.1236550" lon="10.5017460">
	<ele>2210.80</ele>
	<time>2023-08-07T08:47:30.000Z</time>
</trkpt>
<trkpt lat="46.1236250" lon="10.5017240">
	<ele>2210.80</ele>
	<time>2023-08-07T08:47:31.000Z</time>
</trkpt>
<trkpt lat="46.1236110" lon="10.5017180">
	<ele>2210.80</ele>
	<time>2023-08-07T08:47:32.000Z</time>
</trkpt>
<trkpt lat="46.1236180" lon="10.5017300">
	<ele>2210.80</ele>
	<time>2023-08-07T08:47:33.000Z</time>
</trkpt>
<trkpt lat="46.1236190" lon="10.5017330">
	<ele>2210.80</ele>
	<time>2023-08-07T08:47:34.000Z</time>
</trkpt>
<trkpt lat="46.1236250" lon="10.5017420">
	<ele>2210.80</ele>
	<time>2023-08-07T08:47:35.000Z</time>
</trkpt>
<trkpt lat="46.1236310" lon="10.5017480">
	<ele>2210.80</ele>
	<time>2023-08-07T08:47:36.000Z</time>
</trkpt>
<trkpt lat="46.1236310" lon="10.5017520">
	<ele>2210.80</ele>
	<time>2023-08-07T08:47:37.000Z</time>
</trkpt>
<trkpt lat="46.1236300" lon="10.5017550">
	<ele>2210.80</ele>
	<time>2023-08-07T08:47:38.000Z</time>
</trkpt>
<trkpt lat="46.1236220" lon="10.5017500">
	<ele>2210.80</ele>
	<time>2023-08-07T08:47:39.000Z</time>
</trkpt>
<trkpt lat="46.1236120" lon="10.5017410">
	<ele>2210.80</ele>
	<time>2023-08-07T08:47:40.000Z</time>
</trkpt>
<trkpt lat="46.1236190" lon="10.5017500">
	<ele>2210.80</ele>
	<time>2023-08-07T08:47:41.000Z</time>
</trkpt>
<trkpt lat="46.1236190" lon="10.5017510">
	<ele>2210.80</ele>
	<time>2023-08-07T08:47:42.000Z</time>
</trkpt>
<trkpt lat="46.1236140" lon="10.5017470">
	<ele>2210.80</ele>
	<time>2023-08-07T08:47:43.000Z</time>
</trkpt>
<trkpt lat="46.1236190" lon="10.5017530">
	<ele>2210.80</ele>
	<time>2023-08-07T08:47:44.000Z</time>
</trkpt>
<trkpt lat="46.1236200" lon="10.5017520">
	<ele>2210.80</ele>
	<time>2023-08-07T08:47:45.000Z</time>
</trkpt>
<trkpt lat="46.1236210" lon="10.5017520">
	<ele>2210.80</ele>
	<time>2023-08-07T08:47:46.000Z</time>
</trkpt>
<trkpt lat="46.1236180" lon="10.5017520">
	<ele>2210.80</ele>
	<time>2023-08-07T08:47:47.000Z</time>
</trkpt>
<trkpt lat="46.1236060" lon="10.5017430">
	<ele>2210.80</ele>
	<time>2023-08-07T08:47:48.000Z</time>
</trkpt>
<trkpt lat="46.1236020" lon="10.5017420">
	<ele>2210.80</ele>
	<time>2023-08-07T08:47:49.000Z</time>
</trkpt>
<trkpt lat="46.1236020" lon="10.5017410">
	<ele>2210.80</ele>
	<time>2023-08-07T08:47:50.000Z</time>
</trkpt>
<trkpt lat="46.1235940" lon="10.5017330">
	<ele>2210.80</ele>
	<time>2023-08-07T08:47:51.000Z</time>
</trkpt>
<trkpt lat="46.1235860" lon="10.5017240">
	<ele>2210.80</ele>
	<time>2023-08-07T08:47:52.000Z</time>
</trkpt>
<trkpt lat="46.1235830" lon="10.5017220">
	<ele>2210.80</ele>
	<time>2023-08-07T08:47:53.000Z</time>
</trkpt>
<trkpt lat="46.1235850" lon="10.5017230">
	<ele>2210.80</ele>
	<time>2023-08-07T08:47:54.000Z</time>
</trkpt>
<trkpt lat="46.1235840" lon="10.5017220">
	<ele>2210.80</ele>
	<time>2023-08-07T08:47:55.000Z</time>
</trkpt>
<trkpt lat="46.1235840" lon="10.5017220">
	<ele>2210.80</ele>
	<time>2023-08-07T08:47:56.000Z</time>
</trkpt>
<trkpt lat="46.1235830" lon="10.5017220">
	<ele>2210.80</ele>
	<time>2023-08-07T08:47:57.000Z</time>
</trkpt>
<trkpt lat="46.1235730" lon="10.5017120">
	<ele>2210.80</ele>
	<time>2023-08-07T08:47:58.000Z</time>
</trkpt>
<trkpt lat="46.1235700" lon="10.5017090">
	<ele>2210.80</ele>
	<time>2023-08-07T08:47:59.000Z</time>
</trkpt>
<trkpt lat="46.1235590" lon="10.5017020">
	<ele>2210.80</ele>
	<time>2023-08-07T08:48:00.000Z</time>
</trkpt>
<trkpt lat="46.1235400" lon="10.5016900">
	<ele>2210.80</ele>
	<time>2023-08-07T08:48:01.000Z</time>
</trkpt>
<trkpt lat="46.1235280" lon="10.5016850">
	<ele>2210.80</ele>
	<time>2023-08-07T08:48:02.000Z</time>
</trkpt>
<trkpt lat="46.1235250" lon="10.5016840">
	<ele>2210.80</ele>
	<time>2023-08-07T08:48:03.000Z</time>
</trkpt>
<trkpt lat="46.1235140" lon="10.5016740">
	<ele>2210.80</ele>
	<time>2023-08-07T08:48:04.000Z</time>
</trkpt>
<trkpt lat="46.1235180" lon="10.5016820">
	<ele>2210.80</ele>
	<time>2023-08-07T08:48:05.000Z</time>
</trkpt>
<trkpt lat="46.1235160" lon="10.5016840">
	<ele>2210.80</ele>
	<time>2023-08-07T08:48:06.000Z</time>
</trkpt>
<trkpt lat="46.1235110" lon="10.5016810">
	<ele>2210.80</ele>
	<time>2023-08-07T08:48:07.000Z</time>
</trkpt>
<trkpt lat="46.1235100" lon="10.5016800">
	<ele>2210.80</ele>
	<time>2023-08-07T08:48:08.000Z</time>
</trkpt>
<trkpt lat="46.1235100" lon="10.5016800">
	<ele>2210.80</ele>
	<time>2023-08-07T08:48:09.000Z</time>
</trkpt>
<trkpt lat="46.1235080" lon="10.5016790">
	<ele>2210.80</ele>
	<time>2023-08-07T08:48:10.000Z</time>
</trkpt>
<trkpt lat="46.1235060" lon="10.5016770">
	<ele>2210.80</ele>
	<time>2023-08-07T08:48:11.000Z</time>
</trkpt>
<trkpt lat="46.1235080" lon="10.5016830">
	<ele>2210.80</ele>
	<time>2023-08-07T08:48:12.000Z</time>
</trkpt>
<trkpt lat="46.1235090" lon="10.5016890">
	<ele>2210.80</ele>
	<time>2023-08-07T08:48:13.000Z</time>
</trkpt>
<trkpt lat="46.1235100" lon="10.5016940">
	<ele>2210.80</ele>
	<time>2023-08-07T08:48:14.000Z</time>
</trkpt>
<trkpt lat="46.1235090" lon="10.5016930">
	<ele>2210.80</ele>
	<time>2023-08-07T08:48:15.000Z</time>
</trkpt>
<trkpt lat="46.1235100" lon="10.5016930">
	<ele>2210.80</ele>
	<time>2023-08-07T08:48:16.000Z</time>
</trkpt>
<trkpt lat="46.1235100" lon="10.5016930">
	<ele>2210.80</ele>
	<time>2023-08-07T08:48:17.000Z</time>
</trkpt>
<trkpt lat="46.1235100" lon="10.5016930">
	<ele>2210.80</ele>
	<time>2023-08-07T08:48:18.000Z</time>
</trkpt>
<trkpt lat="46.1235100" lon="10.5016930">
	<ele>2210.80</ele>
	<time>2023-08-07T08:48:19.000Z</time>
</trkpt>
<trkpt lat="46.1235120" lon="10.5016980">
	<ele>2210.80</ele>
	<time>2023-08-07T08:48:20.000Z</time>
</trkpt>
<trkpt lat="46.1235150" lon="10.5017040">
	<ele>2210.80</ele>
	<time>2023-08-07T08:48:21.000Z</time>
</trkpt>
<trkpt lat="46.1235080" lon="10.5016990">
	<ele>2210.80</ele>
	<time>2023-08-07T08:48:22.000Z</time>
</trkpt>
<trkpt lat="46.1234980" lon="10.5016940">
	<ele>2210.80</ele>
	<time>2023-08-07T08:48:23.000Z</time>
</trkpt>
<trkpt lat="46.1234960" lon="10.5016930">
	<ele>2210.80</ele>
	<time>2023-08-07T08:48:24.000Z</time>
</trkpt>
<trkpt lat="46.1234960" lon="10.5016930">
	<ele>2210.80</ele>
	<time>2023-08-07T08:48:25.000Z</time>
</trkpt>
<trkpt lat="46.1234960" lon="10.5016930">
	<ele>2210.80</ele>
	<time>2023-08-07T08:48:26.000Z</time>
</trkpt>
<trkpt lat="46.1234920" lon="10.5016900">
	<ele>2210.80</ele>
	<time>2023-08-07T08:48:27.000Z</time>
</trkpt>
<trkpt lat="46.1234810" lon="10.5016830">
	<ele>2210.80</ele>
	<time>2023-08-07T08:48:28.000Z</time>
</trkpt>
<trkpt lat="46.1234850" lon="10.5016870">
	<ele>2210.80</ele>
	<time>2023-08-07T08:48:29.000Z</time>
</trkpt>
<trkpt lat="46.1234900" lon="10.5016920">
	<ele>2210.80</ele>
	<time>2023-08-07T08:48:30.000Z</time>
</trkpt>
<trkpt lat="46.1234900" lon="10.5016920">
	<ele>2210.80</ele>
	<time>2023-08-07T08:48:31.000Z</time>
</trkpt>
<trkpt lat="46.1234860" lon="10.5016950">
	<ele>2210.80</ele>
	<time>2023-08-07T08:48:32.000Z</time>
</trkpt>
<trkpt lat="46.1234790" lon="10.5016960">
	<ele>2210.80</ele>
	<time>2023-08-07T08:48:33.000Z</time>
</trkpt>
<trkpt lat="46.1234770" lon="10.5016950">
	<ele>2210.80</ele>
	<time>2023-08-07T08:48:34.000Z</time>
</trkpt>
<trkpt lat="46.1234810" lon="10.5016960">
	<ele>2210.80</ele>
	<time>2023-08-07T08:48:35.000Z</time>
</trkpt>
<trkpt lat="46.1234810" lon="10.5016950">
	<ele>2210.80</ele>
	<time>2023-08-07T08:48:36.000Z</time>
</trkpt>
<trkpt lat="46.1235000" lon="10.5017080">
	<ele>2210.80</ele>
	<time>2023-08-07T08:48:37.000Z</time>
</trkpt>
<trkpt lat="46.1235030" lon="10.5017100">
	<ele>2210.80</ele>
	<time>2023-08-07T08:48:38.000Z</time>
</trkpt>
<trkpt lat="46.1235050" lon="10.5017100">
	<ele>2210.80</ele>
	<time>2023-08-07T08:48:39.000Z</time>
</trkpt>
<trkpt lat="46.1235020" lon="10.5017100">
	<ele>2210.80</ele>
	<time>2023-08-07T08:48:40.000Z</time>
</trkpt>
<trkpt lat="46.1234970" lon="10.5017040">
	<ele>2210.80</ele>
	<time>2023-08-07T08:48:41.000Z</time>
</trkpt>
<trkpt lat="46.1234950" lon="10.5017010">
	<ele>2210.80</ele>
	<time>2023-08-07T08:48:42.000Z</time>
</trkpt>
<trkpt lat="46.1234940" lon="10.5016990">
	<ele>2210.80</ele>
	<time>2023-08-07T08:48:43.000Z</time>
</trkpt>
<trkpt lat="46.1234950" lon="10.5017000">
	<ele>2210.80</ele>
	<time>2023-08-07T08:48:44.000Z</time>
</trkpt>
<trkpt lat="46.1234950" lon="10.5017000">
	<ele>2210.80</ele>
	<time>2023-08-07T08:48:45.000Z</time>
</trkpt>
<trkpt lat="46.1234970" lon="10.5017020">
	<ele>2210.80</ele>
	<time>2023-08-07T08:48:46.000Z</time>
</trkpt>
<trkpt lat="46.1234970" lon="10.5017000">
	<ele>2210.80</ele>
	<time>2023-08-07T08:48:47.000Z</time>
</trkpt>
<trkpt lat="46.1234970" lon="10.5017000">
	<ele>2210.80</ele>
	<time>2023-08-07T08:48:48.000Z</time>
</trkpt>
<trkpt lat="46.1234970" lon="10.5017000">
	<ele>2210.80</ele>
	<time>2023-08-07T08:48:49.000Z</time>
</trkpt>
<trkpt lat="46.1234970" lon="10.5017000">
	<ele>2210.80</ele>
	<time>2023-08-07T08:48:50.000Z</time>
</trkpt>
<trkpt lat="46.1234900" lon="10.5016950">
	<ele>2210.80</ele>
	<time>2023-08-07T08:48:51.000Z</time>
</trkpt>
<trkpt lat="46.1234900" lon="10.5017000">
	<ele>2210.80</ele>
	<time>2023-08-07T08:48:52.000Z</time>
</trkpt>
<trkpt lat="46.1234990" lon="10.5017120">
	<ele>2210.80</ele>
	<time>2023-08-07T08:48:53.000Z</time>
</trkpt>
<trkpt lat="46.1235080" lon="10.5017210">
	<ele>2210.80</ele>
	<time>2023-08-07T08:48:54.000Z</time>
</trkpt>
<trkpt lat="46.1235170" lon="10.5017280">
	<ele>2210.80</ele>
	<time>2023-08-07T08:48:55.000Z</time>
</trkpt>
<trkpt lat="46.1235190" lon="10.5017310">
	<ele>2210.80</ele>
	<time>2023-08-07T08:48:56.000Z</time>
</trkpt>
<trkpt lat="46.1235210" lon="10.5017320">
	<ele>2210.80</ele>
	<time>2023-08-07T08:48:57.000Z</time>
</trkpt>
<trkpt lat="46.1235220" lon="10.5017300">
	<ele>2210.80</ele>
	<time>2023-08-07T08:48:58.000Z</time>
</trkpt>
<trkpt lat="46.1235120" lon="10.5017220">
	<ele>2210.80</ele>
	<time>2023-08-07T08:48:59.000Z</time>
</trkpt>
<trkpt lat="46.1235140" lon="10.5017200">
	<ele>2210.80</ele>
	<time>2023-08-07T08:49:00.000Z</time>
</trkpt>
<trkpt lat="46.1235150" lon="10.5017200">
	<ele>2210.80</ele>
	<time>2023-08-07T08:49:01.000Z</time>
</trkpt>
<trkpt lat="46.1235230" lon="10.5017340">
	<ele>2210.80</ele>
	<time>2023-08-07T08:49:02.000Z</time>
</trkpt>
<trkpt lat="46.1235410" lon="10.5017490">
	<ele>2210.80</ele>
	<time>2023-08-07T08:49:03.000Z</time>
</trkpt>
<trkpt lat="46.1235490" lon="10.5017520">
	<ele>2210.80</ele>
	<time>2023-08-07T08:49:04.000Z</time>
</trkpt>
<trkpt lat="46.1235450" lon="10.5017480">
	<ele>2210.80</ele>
	<time>2023-08-07T08:49:05.000Z</time>
</trkpt>
<trkpt lat="46.1235380" lon="10.5017410">
	<ele>2210.80</ele>
	<time>2023-08-07T08:49:06.000Z</time>
</trkpt>
<trkpt lat="46.1235380" lon="10.5017410">
	<ele>2210.80</ele>
	<time>2023-08-07T08:49:07.000Z</time>
</trkpt>
<trkpt lat="46.1235380" lon="10.5017410">
	<ele>2210.80</ele>
	<time>2023-08-07T08:49:08.000Z</time>
</trkpt>
<trkpt lat="46.1235380" lon="10.5017410">
	<ele>2210.80</ele>
	<time>2023-08-07T08:49:09.000Z</time>
</trkpt>
<trkpt lat="46.1235380" lon="10.5017410">
	<ele>2210.80</ele>
	<time>2023-08-07T08:49:10.000Z</time>
</trkpt>
<trkpt lat="46.1235380" lon="10.5017410">
	<ele>2210.80</ele>
	<time>2023-08-07T08:49:11.000Z</time>
</trkpt>
<trkpt lat="46.1235380" lon="10.5017410">
	<ele>2210.80</ele>
	<time>2023-08-07T08:49:12.000Z</time>
</trkpt>
<trkpt lat="46.1235380" lon="10.5017410">
	<ele>2210.80</ele>
	<time>2023-08-07T08:49:13.000Z</time>
</trkpt>
<trkpt lat="46.1235380" lon="10.5017410">
	<ele>2210.80</ele>
	<time>2023-08-07T08:49:14.000Z</time>
</trkpt>
<trkpt lat="46.1235380" lon="10.5017410">
	<ele>2210.80</ele>
	<time>2023-08-07T08:49:15.000Z</time>
</trkpt>
<trkpt lat="46.1235400" lon="10.5017400">
	<ele>2210.80</ele>
	<time>2023-08-07T08:49:16.000Z</time>
</trkpt>
<trkpt lat="46.1235450" lon="10.5017410">
	<ele>2210.80</ele>
	<time>2023-08-07T08:49:17.000Z</time>
</trkpt>
<trkpt lat="46.1235460" lon="10.5017410">
	<ele>2210.80</ele>
	<time>2023-08-07T08:49:18.000Z</time>
</trkpt>
<trkpt lat="46.1235550" lon="10.5017510">
	<ele>2210.80</ele>
	<time>2023-08-07T08:49:19.000Z</time>
</trkpt>
<trkpt lat="46.1235710" lon="10.5017610">
	<ele>2210.80</ele>
	<time>2023-08-07T08:49:20.000Z</time>
</trkpt>
<trkpt lat="46.1235770" lon="10.5017650">
	<ele>2210.80</ele>
	<time>2023-08-07T08:49:21.000Z</time>
</trkpt>
<trkpt lat="46.1235830" lon="10.5017700">
	<ele>2210.80</ele>
	<time>2023-08-07T08:49:22.000Z</time>
</trkpt>
<trkpt lat="46.1235880" lon="10.5017740">
	<ele>2210.80</ele>
	<time>2023-08-07T08:49:23.000Z</time>
</trkpt>
<trkpt lat="46.1235830" lon="10.5017670">
	<ele>2210.80</ele>
	<time>2023-08-07T08:49:24.000Z</time>
</trkpt>
<trkpt lat="46.1235750" lon="10.5017590">
	<ele>2210.80</ele>
	<time>2023-08-07T08:49:25.000Z</time>
</trkpt>
<trkpt lat="46.1235720" lon="10.5017580">
	<ele>2210.80</ele>
	<time>2023-08-07T08:49:26.000Z</time>
</trkpt>
<trkpt lat="46.1235610" lon="10.5017500">
	<ele>2210.80</ele>
	<time>2023-08-07T08:49:27.000Z</time>
</trkpt>
<trkpt lat="46.1235620" lon="10.5017580">
	<ele>2210.80</ele>
	<time>2023-08-07T08:49:28.000Z</time>
</trkpt>
<trkpt lat="46.1235630" lon="10.5017620">
	<ele>2210.80</ele>
	<time>2023-08-07T08:49:29.000Z</time>
</trkpt>
<trkpt lat="46.1235700" lon="10.5017630">
	<ele>2210.80</ele>
	<time>2023-08-07T08:49:30.000Z</time>
</trkpt>
<trkpt lat="46.1235700" lon="10.5017640">
	<ele>2210.80</ele>
	<time>2023-08-07T08:49:31.000Z</time>
</trkpt>
<trkpt lat="46.1235680" lon="10.5017610">
	<ele>2210.80</ele>
	<time>2023-08-07T08:49:32.000Z</time>
</trkpt>
<trkpt lat="46.1235690" lon="10.5017620">
	<ele>2210.80</ele>
	<time>2023-08-07T08:49:33.000Z</time>
</trkpt>
<trkpt lat="46.1235690" lon="10.5017620">
	<ele>2210.80</ele>
	<time>2023-08-07T08:49:34.000Z</time>
</trkpt>
<trkpt lat="46.1235690" lon="10.5017620">
	<ele>2210.80</ele>
	<time>2023-08-07T08:49:35.000Z</time>
</trkpt>
<trkpt lat="46.1235690" lon="10.5017620">
	<ele>2210.80</ele>
	<time>2023-08-07T08:49:36.000Z</time>
</trkpt>
<trkpt lat="46.1235690" lon="10.5017620">
	<ele>2210.80</ele>
	<time>2023-08-07T08:49:37.000Z</time>
</trkpt>
<trkpt lat="46.1235660" lon="10.5017580">
	<ele>2210.80</ele>
	<time>2023-08-07T08:49:38.000Z</time>
</trkpt>
<trkpt lat="46.1235680" lon="10.5017600">
	<ele>2210.80</ele>
	<time>2023-08-07T08:49:39.000Z</time>
</trkpt>
<trkpt lat="46.1235680" lon="10.5017610">
	<ele>2210.80</ele>
	<time>2023-08-07T08:49:40.000Z</time>
</trkpt>
<trkpt lat="46.1235580" lon="10.5017540">
	<ele>2210.80</ele>
	<time>2023-08-07T08:49:41.000Z</time>
</trkpt>
<trkpt lat="46.1235560" lon="10.5017530">
	<ele>2210.80</ele>
	<time>2023-08-07T08:49:42.000Z</time>
</trkpt>
<trkpt lat="46.1235560" lon="10.5017530">
	<ele>2210.80</ele>
	<time>2023-08-07T08:49:43.000Z</time>
</trkpt>
<trkpt lat="46.1235560" lon="10.5017530">
	<ele>2210.80</ele>
	<time>2023-08-07T08:49:44.000Z</time>
</trkpt>
<trkpt lat="46.1235560" lon="10.5017530">
	<ele>2210.80</ele>
	<time>2023-08-07T08:49:45.000Z</time>
</trkpt>
<trkpt lat="46.1235560" lon="10.5017530">
	<ele>2210.80</ele>
	<time>2023-08-07T08:49:46.000Z</time>
</trkpt>
<trkpt lat="46.1235560" lon="10.5017530">
	<ele>2210.80</ele>
	<time>2023-08-07T08:49:47.000Z</time>
</trkpt>
<trkpt lat="46.1235560" lon="10.5017530">
	<ele>2210.80</ele>
	<time>2023-08-07T08:49:48.000Z</time>
</trkpt>
<trkpt lat="46.1235560" lon="10.5017530">
	<ele>2210.80</ele>
	<time>2023-08-07T08:49:49.000Z</time>
</trkpt>
<trkpt lat="46.1235560" lon="10.5017530">
	<ele>2210.80</ele>
	<time>2023-08-07T08:49:50.000Z</time>
</trkpt>
<trkpt lat="46.1235560" lon="10.5017520">
	<ele>2210.80</ele>
	<time>2023-08-07T08:49:51.000Z</time>
</trkpt>
<trkpt lat="46.1235540" lon="10.5017500">
	<ele>2210.80</ele>
	<time>2023-08-07T08:49:52.000Z</time>
</trkpt>
<trkpt lat="46.1235540" lon="10.5017480">
	<ele>2210.80</ele>
	<time>2023-08-07T08:49:53.000Z</time>
</trkpt>
<trkpt lat="46.1235540" lon="10.5017460">
	<ele>2210.80</ele>
	<time>2023-08-07T08:49:54.000Z</time>
</trkpt>
<trkpt lat="46.1235640" lon="10.5017550">
	<ele>2210.80</ele>
	<time>2023-08-07T08:49:55.000Z</time>
</trkpt>
<trkpt lat="46.1235670" lon="10.5017590">
	<ele>2210.80</ele>
	<time>2023-08-07T08:49:56.000Z</time>
</trkpt>
<trkpt lat="46.1235670" lon="10.5017570">
	<ele>2210.80</ele>
	<time>2023-08-07T08:49:57.000Z</time>
</trkpt>
<trkpt lat="46.1235610" lon="10.5017520">
	<ele>2210.80</ele>
	<time>2023-08-07T08:49:58.000Z</time>
</trkpt>
<trkpt lat="46.1235540" lon="10.5017430">
	<ele>2210.80</ele>
	<time>2023-08-07T08:49:59.000Z</time>
</trkpt>
<trkpt lat="46.1235530" lon="10.5017410">
	<ele>2210.80</ele>
	<time>2023-08-07T08:50:00.000Z</time>
</trkpt>
<trkpt lat="46.1235560" lon="10.5017430">
	<ele>2210.80</ele>
	<time>2023-08-07T08:50:01.000Z</time>
</trkpt>
<trkpt lat="46.1235590" lon="10.5017430">
	<ele>2210.80</ele>
	<time>2023-08-07T08:50:02.000Z</time>
</trkpt>
<trkpt lat="46.1235610" lon="10.5017440">
	<ele>2210.80</ele>
	<time>2023-08-07T08:50:03.000Z</time>
</trkpt>
<trkpt lat="46.1235610" lon="10.5017430">
	<ele>2210.80</ele>
	<time>2023-08-07T08:50:04.000Z</time>
</trkpt>
<trkpt lat="46.1235610" lon="10.5017430">
	<ele>2210.80</ele>
	<time>2023-08-07T08:50:05.000Z</time>
</trkpt>
<trkpt lat="46.1235610" lon="10.5017430">
	<ele>2210.80</ele>
	<time>2023-08-07T08:50:06.000Z</time>
</trkpt>
<trkpt lat="46.1235610" lon="10.5017430">
	<ele>2210.80</ele>
	<time>2023-08-07T08:50:07.000Z</time>
</trkpt>
<trkpt lat="46.1235610" lon="10.5017430">
	<ele>2210.80</ele>
	<time>2023-08-07T08:50:08.000Z</time>
</trkpt>
<trkpt lat="46.1235610" lon="10.5017430">
	<ele>2210.80</ele>
	<time>2023-08-07T08:50:09.000Z</time>
</trkpt>
<trkpt lat="46.1235610" lon="10.5017430">
	<ele>2210.80</ele>
	<time>2023-08-07T08:50:10.000Z</time>
</trkpt>
<trkpt lat="46.1235610" lon="10.5017430">
	<ele>2210.80</ele>
	<time>2023-08-07T08:50:11.000Z</time>
</trkpt>
<trkpt lat="46.1235610" lon="10.5017430">
	<ele>2210.80</ele>
	<time>2023-08-07T08:50:12.000Z</time>
</trkpt>
<trkpt lat="46.1235610" lon="10.5017430">
	<ele>2210.80</ele>
	<time>2023-08-07T08:50:13.000Z</time>
</trkpt>
<trkpt lat="46.1235610" lon="10.5017430">
	<ele>2210.80</ele>
	<time>2023-08-07T08:50:14.000Z</time>
</trkpt>
<trkpt lat="46.1235600" lon="10.5017430">
	<ele>2210.80</ele>
	<time>2023-08-07T08:50:15.000Z</time>
</trkpt>
<trkpt lat="46.1235600" lon="10.5017430">
	<ele>2210.80</ele>
	<time>2023-08-07T08:50:16.000Z</time>
</trkpt>
<trkpt lat="46.1235620" lon="10.5017440">
	<ele>2210.80</ele>
	<time>2023-08-07T08:50:17.000Z</time>
</trkpt>
<trkpt lat="46.1235670" lon="10.5017460">
	<ele>2210.80</ele>
	<time>2023-08-07T08:50:18.000Z</time>
</trkpt>
<trkpt lat="46.1235620" lon="10.5017430">
	<ele>2210.80</ele>
	<time>2023-08-07T08:50:19.000Z</time>
</trkpt>
<trkpt lat="46.1235630" lon="10.5017480">
	<ele>2210.80</ele>
	<time>2023-08-07T08:50:20.000Z</time>
</trkpt>
<trkpt lat="46.1235620" lon="10.5017490">
	<ele>2210.80</ele>
	<time>2023-08-07T08:50:21.000Z</time>
</trkpt>
<trkpt lat="46.1235640" lon="10.5017500">
	<ele>2210.80</ele>
	<time>2023-08-07T08:50:22.000Z</time>
</trkpt>
<trkpt lat="46.1235640" lon="10.5017500">
	<ele>2210.80</ele>
	<time>2023-08-07T08:50:23.000Z</time>
</trkpt>
<trkpt lat="46.1235640" lon="10.5017500">
	<ele>2210.80</ele>
	<time>2023-08-07T08:50:24.000Z</time>
</trkpt>
<trkpt lat="46.1235640" lon="10.5017500">
	<ele>2210.80</ele>
	<time>2023-08-07T08:50:25.000Z</time>
</trkpt>
<trkpt lat="46.1235640" lon="10.5017500">
	<ele>2210.80</ele>
	<time>2023-08-07T08:50:26.000Z</time>
</trkpt>
<trkpt lat="46.1235640" lon="10.5017500">
	<ele>2210.80</ele>
	<time>2023-08-07T08:50:27.000Z</time>
</trkpt>
<trkpt lat="46.1235640" lon="10.5017500">
	<ele>2210.80</ele>
	<time>2023-08-07T08:50:28.000Z</time>
</trkpt>
<trkpt lat="46.1235690" lon="10.5017530">
	<ele>2210.80</ele>
	<time>2023-08-07T08:50:29.000Z</time>
</trkpt>
<trkpt lat="46.1235740" lon="10.5017590">
	<ele>2210.80</ele>
	<time>2023-08-07T08:50:30.000Z</time>
</trkpt>
<trkpt lat="46.1235840" lon="10.5017670">
	<ele>2210.80</ele>
	<time>2023-08-07T08:50:31.000Z</time>
</trkpt>
<trkpt lat="46.1235890" lon="10.5017710">
	<ele>2210.80</ele>
	<time>2023-08-07T08:50:32.000Z</time>
</trkpt>
<trkpt lat="46.1235940" lon="10.5017730">
	<ele>2210.80</ele>
	<time>2023-08-07T08:50:33.000Z</time>
</trkpt>
<trkpt lat="46.1235970" lon="10.5017740">
	<ele>2210.80</ele>
	<time>2023-08-07T08:50:34.000Z</time>
</trkpt>
<trkpt lat="46.1236000" lon="10.5017730">
	<ele>2210.80</ele>
	<time>2023-08-07T08:50:35.000Z</time>
</trkpt>
<trkpt lat="46.1236040" lon="10.5017710">
	<ele>2210.80</ele>
	<time>2023-08-07T08:50:36.000Z</time>
</trkpt>
<trkpt lat="46.1236080" lon="10.5017730">
	<ele>2210.80</ele>
	<time>2023-08-07T08:50:37.000Z</time>
</trkpt>
<trkpt lat="46.1236170" lon="10.5017790">
	<ele>2210.80</ele>
	<time>2023-08-07T08:50:38.000Z</time>
</trkpt>
<trkpt lat="46.1236250" lon="10.5017850">
	<ele>2210.80</ele>
	<time>2023-08-07T08:50:39.000Z</time>
</trkpt>
<trkpt lat="46.1236270" lon="10.5017890">
	<ele>2210.80</ele>
	<time>2023-08-07T08:50:40.000Z</time>
</trkpt>
<trkpt lat="46.1236300" lon="10.5017950">
	<ele>2210.80</ele>
	<time>2023-08-07T08:50:41.000Z</time>
</trkpt>
<trkpt lat="46.1236340" lon="10.5017990">
	<ele>2210.80</ele>
	<time>2023-08-07T08:50:42.000Z</time>
</trkpt>
<trkpt lat="46.1236380" lon="10.5018020">
	<ele>2210.80</ele>
	<time>2023-08-07T08:50:43.000Z</time>
</trkpt>
<trkpt lat="46.1236370" lon="10.5017970">
	<ele>2210.80</ele>
	<time>2023-08-07T08:50:44.000Z</time>
</trkpt>
<trkpt lat="46.1236320" lon="10.5017920">
	<ele>2210.80</ele>
	<time>2023-08-07T08:50:45.000Z</time>
</trkpt>
<trkpt lat="46.1236300" lon="10.5017920">
	<ele>2210.80</ele>
	<time>2023-08-07T08:50:46.000Z</time>
</trkpt>
<trkpt lat="46.1236310" lon="10.5017920">
	<ele>2210.80</ele>
	<time>2023-08-07T08:50:47.000Z</time>
</trkpt>
<trkpt lat="46.1236310" lon="10.5017930">
	<ele>2210.80</ele>
	<time>2023-08-07T08:50:48.000Z</time>
</trkpt>
<trkpt lat="46.1236310" lon="10.5017930">
	<ele>2210.80</ele>
	<time>2023-08-07T08:50:49.000Z</time>
</trkpt>
<trkpt lat="46.1236310" lon="10.5017930">
	<ele>2210.80</ele>
	<time>2023-08-07T08:50:50.000Z</time>
</trkpt>
<trkpt lat="46.1236260" lon="10.5017880">
	<ele>2210.80</ele>
	<time>2023-08-07T08:50:51.000Z</time>
</trkpt>
<trkpt lat="46.1236100" lon="10.5017720">
	<ele>2210.80</ele>
	<time>2023-08-07T08:50:52.000Z</time>
</trkpt>
<trkpt lat="46.1236010" lon="10.5017640">
	<ele>2210.80</ele>
	<time>2023-08-07T08:50:53.000Z</time>
</trkpt>
<trkpt lat="46.1235900" lon="10.5017550">
	<ele>2210.80</ele>
	<time>2023-08-07T08:50:54.000Z</time>
</trkpt>
<trkpt lat="46.1235780" lon="10.5017410">
	<ele>2210.80</ele>
	<time>2023-08-07T08:50:55.000Z</time>
</trkpt>
<trkpt lat="46.1235680" lon="10.5017260">
	<ele>2210.80</ele>
	<time>2023-08-07T08:50:56.000Z</time>
</trkpt>
<trkpt lat="46.1235660" lon="10.5017180">
	<ele>2210.80</ele>
	<time>2023-08-07T08:50:57.000Z</time>
</trkpt>
<trkpt lat="46.1235630" lon="10.5017090">
	<ele>2210.80</ele>
	<time>2023-08-07T08:50:58.000Z</time>
</trkpt>
<trkpt lat="46.1235600" lon="10.5017060">
	<ele>2210.80</ele>
	<time>2023-08-07T08:50:59.000Z</time>
</trkpt>
<trkpt lat="46.1235510" lon="10.5016930">
	<ele>2210.80</ele>
	<time>2023-08-07T08:51:00.000Z</time>
</trkpt>
<trkpt lat="46.1235460" lon="10.5016890">
	<ele>2210.80</ele>
	<time>2023-08-07T08:51:01.000Z</time>
</trkpt>
<trkpt lat="46.1235420" lon="10.5016880">
	<ele>2210.80</ele>
	<time>2023-08-07T08:51:02.000Z</time>
</trkpt>
<trkpt lat="46.1235340" lon="10.5016830">
	<ele>2210.80</ele>
	<time>2023-08-07T08:51:03.000Z</time>
</trkpt>
<trkpt lat="46.1235310" lon="10.5016800">
	<ele>2210.80</ele>
	<time>2023-08-07T08:51:04.000Z</time>
</trkpt>
<trkpt lat="46.1235290" lon="10.5016770">
	<ele>2210.80</ele>
	<time>2023-08-07T08:51:05.000Z</time>
</trkpt>
<trkpt lat="46.1235290" lon="10.5016770">
	<ele>2210.80</ele>
	<time>2023-08-07T08:51:06.000Z</time>
</trkpt>
<trkpt lat="46.1235290" lon="10.5016780">
	<ele>2210.80</ele>
	<time>2023-08-07T08:51:07.000Z</time>
</trkpt>
<trkpt lat="46.1235330" lon="10.5016830">
	<ele>2210.80</ele>
	<time>2023-08-07T08:51:08.000Z</time>
</trkpt>
<trkpt lat="46.1235390" lon="10.5016870">
	<ele>2210.80</ele>
	<time>2023-08-07T08:51:09.000Z</time>
</trkpt>
<trkpt lat="46.1235430" lon="10.5016890">
	<ele>2210.80</ele>
	<time>2023-08-07T08:51:10.000Z</time>
</trkpt>
<trkpt lat="46.1235460" lon="10.5016920">
	<ele>2210.80</ele>
	<time>2023-08-07T08:51:11.000Z</time>
</trkpt>
<trkpt lat="46.1235480" lon="10.5016970">
	<ele>2210.80</ele>
	<time>2023-08-07T08:51:12.000Z</time>
</trkpt>
<trkpt lat="46.1235530" lon="10.5017060">
	<ele>2210.80</ele>
	<time>2023-08-07T08:51:13.000Z</time>
</trkpt>
<trkpt lat="46.1235690" lon="10.5017230">
	<ele>2210.80</ele>
	<time>2023-08-07T08:51:14.000Z</time>
</trkpt>
<trkpt lat="46.1235790" lon="10.5017320">
	<ele>2210.80</ele>
	<time>2023-08-07T08:51:15.000Z</time>
</trkpt>
<trkpt lat="46.1235820" lon="10.5017340">
	<ele>2210.80</ele>
	<time>2023-08-07T08:51:16.000Z</time>
</trkpt>
<trkpt lat="46.1235880" lon="10.5017410">
	<ele>2210.80</ele>
	<time>2023-08-07T08:51:17.000Z</time>
</trkpt>
<trkpt lat="46.1235910" lon="10.5017430">
	<ele>2210.80</ele>
	<time>2023-08-07T08:51:18.000Z</time>
</trkpt>
<trkpt lat="46.1235920" lon="10.5017440">
	<ele>2210.80</ele>
	<time>2023-08-07T08:51:19.000Z</time>
</trkpt>
<trkpt lat="46.1235910" lon="10.5017430">
	<ele>2210.80</ele>
	<time>2023-08-07T08:51:20.000Z</time>
</trkpt>
<trkpt lat="46.1235890" lon="10.5017410">
	<ele>2210.80</ele>
	<time>2023-08-07T08:51:21.000Z</time>
</trkpt>
<trkpt lat="46.1235890" lon="10.5017410">
	<ele>2210.80</ele>
	<time>2023-08-07T08:51:22.000Z</time>
</trkpt>
<trkpt lat="46.1235870" lon="10.5017430">
	<ele>2210.80</ele>
	<time>2023-08-07T08:51:23.000Z</time>
</trkpt>
<trkpt lat="46.1235890" lon="10.5017470">
	<ele>2210.80</ele>
	<time>2023-08-07T08:51:24.000Z</time>
</trkpt>
<trkpt lat="46.1235940" lon="10.5017520">
	<ele>2210.80</ele>
	<time>2023-08-07T08:51:25.000Z</time>
</trkpt>
<trkpt lat="46.1235960" lon="10.5017550">
	<ele>2210.80</ele>
	<time>2023-08-07T08:51:26.000Z</time>
</trkpt>
<trkpt lat="46.1235950" lon="10.5017530">
	<ele>2210.80</ele>
	<time>2023-08-07T08:51:27.000Z</time>
</trkpt>
<trkpt lat="46.1235900" lon="10.5017490">
	<ele>2210.80</ele>
	<time>2023-08-07T08:51:28.000Z</time>
</trkpt>
<trkpt lat="46.1235820" lon="10.5017420">
	<ele>2210.80</ele>
	<time>2023-08-07T08:51:29.000Z</time>
</trkpt>
<trkpt lat="46.1235820" lon="10.5017440">
	<ele>2210.80</ele>
	<time>2023-08-07T08:51:30.000Z</time>
</trkpt>
<trkpt lat="46.1235810" lon="10.5017440">
	<ele>2210.80</ele>
	<time>2023-08-07T08:51:31.000Z</time>
</trkpt>
<trkpt lat="46.1235810" lon="10.5017440">
	<ele>2210.80</ele>
	<time>2023-08-07T08:51:32.000Z</time>
</trkpt>
<trkpt lat="46.1235810" lon="10.5017440">
	<ele>2210.80</ele>
	<time>2023-08-07T08:51:33.000Z</time>
</trkpt>
<trkpt lat="46.1235810" lon="10.5017440">
	<ele>2210.80</ele>
	<time>2023-08-07T08:51:34.000Z</time>
</trkpt>
<trkpt lat="46.1235810" lon="10.5017440">
	<ele>2210.80</ele>
	<time>2023-08-07T08:51:35.000Z</time>
</trkpt>
<trkpt lat="46.1235810" lon="10.5017440">
	<ele>2210.80</ele>
	<time>2023-08-07T08:51:36.000Z</time>
</trkpt>
<trkpt lat="46.1235810" lon="10.5017440">
	<ele>2210.80</ele>
	<time>2023-08-07T08:51:37.000Z</time>
</trkpt>
<trkpt lat="46.1235810" lon="10.5017440">
	<ele>2210.80</ele>
	<time>2023-08-07T08:51:38.000Z</time>
</trkpt>
<trkpt lat="46.1235810" lon="10.5017440">
	<ele>2210.80</ele>
	<time>2023-08-07T08:51:39.000Z</time>
</trkpt>
<trkpt lat="46.1235810" lon="10.5017440">
	<ele>2210.80</ele>
	<time>2023-08-07T08:51:40.000Z</time>
</trkpt>
<trkpt lat="46.1235810" lon="10.5017440">
	<ele>2210.80</ele>
	<time>2023-08-07T08:51:41.000Z</time>
</trkpt>
<trkpt lat="46.1235810" lon="10.5017440">
	<ele>2210.80</ele>
	<time>2023-08-07T08:51:42.000Z</time>
</trkpt>
<trkpt lat="46.1235810" lon="10.5017440">
	<ele>2210.80</ele>
	<time>2023-08-07T08:51:43.000Z</time>
</trkpt>
<trkpt lat="46.1235810" lon="10.5017440">
	<ele>2210.80</ele>
	<time>2023-08-07T08:51:44.000Z</time>
</trkpt>
<trkpt lat="46.1235810" lon="10.5017430">
	<ele>2210.80</ele>
	<time>2023-08-07T08:51:45.000Z</time>
</trkpt>
<trkpt lat="46.1235810" lon="10.5017420">
	<ele>2210.80</ele>
	<time>2023-08-07T08:51:46.000Z</time>
</trkpt>
<trkpt lat="46.1235770" lon="10.5017380">
	<ele>2210.80</ele>
	<time>2023-08-07T08:51:47.000Z</time>
</trkpt>
<trkpt lat="46.1235730" lon="10.5017350">
	<ele>2210.80</ele>
	<time>2023-08-07T08:51:48.000Z</time>
</trkpt>
<trkpt lat="46.1235670" lon="10.5017300">
	<ele>2210.80</ele>
	<time>2023-08-07T08:51:49.000Z</time>
</trkpt>
<trkpt lat="46.1235620" lon="10.5017260">
	<ele>2210.80</ele>
	<time>2023-08-07T08:51:50.000Z</time>
</trkpt>
<trkpt lat="46.1235620" lon="10.5017260">
	<ele>2210.80</ele>
	<time>2023-08-07T08:51:51.000Z</time>
</trkpt>
<trkpt lat="46.1235620" lon="10.5017260">
	<ele>2210.80</ele>
	<time>2023-08-07T08:51:52.000Z</time>
</trkpt>
<trkpt lat="46.1235620" lon="10.5017260">
	<ele>2210.80</ele>
	<time>2023-08-07T08:51:53.000Z</time>
</trkpt>
<trkpt lat="46.1235620" lon="10.5017260">
	<ele>2210.80</ele>
	<time>2023-08-07T08:51:54.000Z</time>
</trkpt>
<trkpt lat="46.1235620" lon="10.5017260">
	<ele>2210.80</ele>
	<time>2023-08-07T08:51:55.000Z</time>
</trkpt>
<trkpt lat="46.1235620" lon="10.5017260">
	<ele>2210.80</ele>
	<time>2023-08-07T08:51:56.000Z</time>
</trkpt>
<trkpt lat="46.1235510" lon="10.5017170">
	<ele>2210.80</ele>
	<time>2023-08-07T08:51:57.000Z</time>
</trkpt>
<trkpt lat="46.1235480" lon="10.5017130">
	<ele>2210.80</ele>
	<time>2023-08-07T08:51:58.000Z</time>
</trkpt>
<trkpt lat="46.1235470" lon="10.5017120">
	<ele>2210.80</ele>
	<time>2023-08-07T08:51:59.000Z</time>
</trkpt>
<trkpt lat="46.1235470" lon="10.5017110">
	<ele>2210.80</ele>
	<time>2023-08-07T08:52:00.000Z</time>
</trkpt>
<trkpt lat="46.1235400" lon="10.5017070">
	<ele>2210.80</ele>
	<time>2023-08-07T08:52:01.000Z</time>
</trkpt>
<trkpt lat="46.1235380" lon="10.5017070">
	<ele>2210.80</ele>
	<time>2023-08-07T08:52:02.000Z</time>
</trkpt>
<trkpt lat="46.1235380" lon="10.5017070">
	<ele>2210.80</ele>
	<time>2023-08-07T08:52:03.000Z</time>
</trkpt>
<trkpt lat="46.1235380" lon="10.5017070">
	<ele>2210.80</ele>
	<time>2023-08-07T08:52:04.000Z</time>
</trkpt>
<trkpt lat="46.1235380" lon="10.5017070">
	<ele>2210.80</ele>
	<time>2023-08-07T08:52:05.000Z</time>
</trkpt>
<trkpt lat="46.1235380" lon="10.5017070">
	<ele>2210.80</ele>
	<time>2023-08-07T08:52:06.000Z</time>
</trkpt>
<trkpt lat="46.1235380" lon="10.5017070">
	<ele>2210.80</ele>
	<time>2023-08-07T08:52:07.000Z</time>
</trkpt>
<trkpt lat="46.1235380" lon="10.5017070">
	<ele>2210.80</ele>
	<time>2023-08-07T08:52:08.000Z</time>
</trkpt>
<trkpt lat="46.1235380" lon="10.5017070">
	<ele>2210.80</ele>
	<time>2023-08-07T08:52:09.000Z</time>
</trkpt>
<trkpt lat="46.1235380" lon="10.5017070">
	<ele>2210.80</ele>
	<time>2023-08-07T08:52:10.000Z</time>
</trkpt>
<trkpt lat="46.1235380" lon="10.5017070">
	<ele>2210.80</ele>
	<time>2023-08-07T08:52:11.000Z</time>
</trkpt>
<trkpt lat="46.1235380" lon="10.5017070">
	<ele>2210.80</ele>
	<time>2023-08-07T08:52:12.000Z</time>
</trkpt>
<trkpt lat="46.1235380" lon="10.5017070">
	<ele>2210.80</ele>
	<time>2023-08-07T08:52:13.000Z</time>
</trkpt>
<trkpt lat="46.1235380" lon="10.5017070">
	<ele>2210.80</ele>
	<time>2023-08-07T08:52:14.000Z</time>
</trkpt>
<trkpt lat="46.1235380" lon="10.5017070">
	<ele>2210.80</ele>
	<time>2023-08-07T08:52:15.000Z</time>
</trkpt>
<trkpt lat="46.1235380" lon="10.5017080">
	<ele>2210.80</ele>
	<time>2023-08-07T08:52:16.000Z</time>
</trkpt>
<trkpt lat="46.1235390" lon="10.5017090">
	<ele>2210.80</ele>
	<time>2023-08-07T08:52:17.000Z</time>
</trkpt>
<trkpt lat="46.1235400" lon="10.5017090">
	<ele>2210.80</ele>
	<time>2023-08-07T08:52:18.000Z</time>
</trkpt>
<trkpt lat="46.1235410" lon="10.5017100">
	<ele>2210.80</ele>
	<time>2023-08-07T08:52:19.000Z</time>
</trkpt>
<trkpt lat="46.1235410" lon="10.5017110">
	<ele>2210.80</ele>
	<time>2023-08-07T08:52:20.000Z</time>
</trkpt>
<trkpt lat="46.1235410" lon="10.5017110">
	<ele>2210.80</ele>
	<time>2023-08-07T08:52:21.000Z</time>
</trkpt>
<trkpt lat="46.1235420" lon="10.5017110">
	<ele>2210.80</ele>
	<time>2023-08-07T08:52:22.000Z</time>
</trkpt>
<trkpt lat="46.1235420" lon="10.5017120">
	<ele>2210.80</ele>
	<time>2023-08-07T08:52:23.000Z</time>
</trkpt>
<trkpt lat="46.1235420" lon="10.5017130">
	<ele>2210.80</ele>
	<time>2023-08-07T08:52:24.000Z</time>
</trkpt>
<trkpt lat="46.1235430" lon="10.5017130">
	<ele>2210.80</ele>
	<time>2023-08-07T08:52:25.000Z</time>
</trkpt>
<trkpt lat="46.1235430" lon="10.5017140">
	<ele>2210.80</ele>
	<time>2023-08-07T08:52:26.000Z</time>
</trkpt>
<trkpt lat="46.1235430" lon="10.5017140">
	<ele>2210.80</ele>
	<time>2023-08-07T08:52:27.000Z</time>
</trkpt>
<trkpt lat="46.1235430" lon="10.5017140">
	<ele>2210.80</ele>
	<time>2023-08-07T08:52:28.000Z</time>
</trkpt>
<trkpt lat="46.1235440" lon="10.5017150">
	<ele>2210.80</ele>
	<time>2023-08-07T08:52:29.000Z</time>
</trkpt>
<trkpt lat="46.1235490" lon="10.5017190">
	<ele>2210.80</ele>
	<time>2023-08-07T08:52:30.000Z</time>
</trkpt>
<trkpt lat="46.1235520" lon="10.5017210">
	<ele>2210.80</ele>
	<time>2023-08-07T08:52:31.000Z</time>
</trkpt>
<trkpt lat="46.1235550" lon="10.5017240">
	<ele>2210.80</ele>
	<time>2023-08-07T08:52:32.000Z</time>
</trkpt>
<trkpt lat="46.1235580" lon="10.5017260">
	<ele>2210.80</ele>
	<time>2023-08-07T08:52:33.000Z</time>
</trkpt>
<trkpt lat="46.1235610" lon="10.5017290">
	<ele>2210.80</ele>
	<time>2023-08-07T08:52:34.000Z</time>
</trkpt>
<trkpt lat="46.1235620" lon="10.5017300">
	<ele>2210.80</ele>
	<time>2023-08-07T08:52:35.000Z</time>
</trkpt>
<trkpt lat="46.1235640" lon="10.5017310">
	<ele>2210.80</ele>
	<time>2023-08-07T08:52:36.000Z</time>
</trkpt>
<trkpt lat="46.1235640" lon="10.5017320">
	<ele>2210.80</ele>
	<time>2023-08-07T08:52:37.000Z</time>
</trkpt>
<trkpt lat="46.1235640" lon="10.5017360">
	<ele>2210.80</ele>
	<time>2023-08-07T08:52:38.000Z</time>
</trkpt>
<trkpt lat="46.1235640" lon="10.5017380">
	<ele>2210.80</ele>
	<time>2023-08-07T08:52:39.000Z</time>
</trkpt>
<trkpt lat="46.1235650" lon="10.5017390">
	<ele>2210.80</ele>
	<time>2023-08-07T08:52:40.000Z</time>
</trkpt>
<trkpt lat="46.1235650" lon="10.5017400">
	<ele>2210.80</ele>
	<time>2023-08-07T08:52:41.000Z</time>
</trkpt>
<trkpt lat="46.1235650" lon="10.5017400">
	<ele>2210.80</ele>
	<time>2023-08-07T08:52:42.000Z</time>
</trkpt>
<trkpt lat="46.1235660" lon="10.5017400">
	<ele>2210.80</ele>
	<time>2023-08-07T08:52:43.000Z</time>
</trkpt>
<trkpt lat="46.1235660" lon="10.5017400">
	<ele>2210.80</ele>
	<time>2023-08-07T08:52:44.000Z</time>
</trkpt>
<trkpt lat="46.1235670" lon="10.5017410">
	<ele>2210.80</ele>
	<time>2023-08-07T08:52:45.000Z</time>
</trkpt>
<trkpt lat="46.1235680" lon="10.5017410">
	<ele>2210.80</ele>
	<time>2023-08-07T08:52:46.000Z</time>
</trkpt>
<trkpt lat="46.1235690" lon="10.5017410">
	<ele>2210.80</ele>
	<time>2023-08-07T08:52:47.000Z</time>
</trkpt>
<trkpt lat="46.1235690" lon="10.5017410">
	<ele>2210.80</ele>
	<time>2023-08-07T08:52:48.000Z</time>
</trkpt>
<trkpt lat="46.1235700" lon="10.5017410">
	<ele>2210.80</ele>
	<time>2023-08-07T08:52:49.000Z</time>
</trkpt>
<trkpt lat="46.1235700" lon="10.5017410">
	<ele>2210.80</ele>
	<time>2023-08-07T08:52:50.000Z</time>
</trkpt>
<trkpt lat="46.1235700" lon="10.5017430">
	<ele>2210.80</ele>
	<time>2023-08-07T08:52:51.000Z</time>
</trkpt>
<trkpt lat="46.1235700" lon="10.5017430">
	<ele>2210.80</ele>
	<time>2023-08-07T08:52:52.000Z</time>
</trkpt>
<trkpt lat="46.1235700" lon="10.5017430">
	<ele>2210.80</ele>
	<time>2023-08-07T08:52:53.000Z</time>
</trkpt>
<trkpt lat="46.1235700" lon="10.5017440">
	<ele>2210.80</ele>
	<time>2023-08-07T08:52:54.000Z</time>
</trkpt>
<trkpt lat="46.1235700" lon="10.5017440">
	<ele>2210.80</ele>
	<time>2023-08-07T08:52:55.000Z</time>
</trkpt>
<trkpt lat="46.1235700" lon="10.5017440">
	<ele>2210.80</ele>
	<time>2023-08-07T08:52:56.000Z</time>
</trkpt>
<trkpt lat="46.1235690" lon="10.5017450">
	<ele>2210.80</ele>
	<time>2023-08-07T08:52:57.000Z</time>
</trkpt>
<trkpt lat="46.1235690" lon="10.5017460">
	<ele>2210.80</ele>
	<time>2023-08-07T08:52:58.000Z</time>
</trkpt>
<trkpt lat="46.1235690" lon="10.5017460">
	<ele>2210.80</ele>
	<time>2023-08-07T08:52:59.000Z</time>
</trkpt>
<trkpt lat="46.1235690" lon="10.5017470">
	<ele>2210.80</ele>
	<time>2023-08-07T08:53:00.000Z</time>
</trkpt>
<trkpt lat="46.1235690" lon="10.5017470">
	<ele>2210.80</ele>
	<time>2023-08-07T08:53:01.000Z</time>
</trkpt>
<trkpt lat="46.1235690" lon="10.5017470">
	<ele>2210.80</ele>
	<time>2023-08-07T08:53:02.000Z</time>
</trkpt>
<trkpt lat="46.1235690" lon="10.5017470">
	<ele>2210.80</ele>
	<time>2023-08-07T08:53:03.000Z</time>
</trkpt>
<trkpt lat="46.1235690" lon="10.5017470">
	<ele>2210.80</ele>
	<time>2023-08-07T08:53:04.000Z</time>
</trkpt>
<trkpt lat="46.1235690" lon="10.5017470">
	<ele>2210.80</ele>
	<time>2023-08-07T08:53:05.000Z</time>
</trkpt>
<trkpt lat="46.1235690" lon="10.5017470">
	<ele>2210.80</ele>
	<time>2023-08-07T08:53:06.000Z</time>
</trkpt>
<trkpt lat="46.1235690" lon="10.5017470">
	<ele>2210.80</ele>
	<time>2023-08-07T08:53:07.000Z</time>
</trkpt>
<trkpt lat="46.1235690" lon="10.5017470">
	<ele>2210.80</ele>
	<time>2023-08-07T08:53:08.000Z</time>
</trkpt>
<trkpt lat="46.1235690" lon="10.5017470">
	<ele>2210.80</ele>
	<time>2023-08-07T08:53:09.000Z</time>
</trkpt>
<trkpt lat="46.1235690" lon="10.5017470">
	<ele>2210.80</ele>
	<time>2023-08-07T08:53:10.000Z</time>
</trkpt>
<trkpt lat="46.1235690" lon="10.5017470">
	<ele>2210.80</ele>
	<time>2023-08-07T08:53:11.000Z</time>
</trkpt>
<trkpt lat="46.1235690" lon="10.5017470">
	<ele>2210.80</ele>
	<time>2023-08-07T08:53:12.000Z</time>
</trkpt>
<trkpt lat="46.1235690" lon="10.5017470">
	<ele>2210.80</ele>
	<time>2023-08-07T08:53:13.000Z</time>
</trkpt>
<trkpt lat="46.1235690" lon="10.5017470">
	<ele>2210.80</ele>
	<time>2023-08-07T08:53:14.000Z</time>
</trkpt>
<trkpt lat="46.1235690" lon="10.5017470">
	<ele>2210.80</ele>
	<time>2023-08-07T08:53:15.000Z</time>
</trkpt>
<trkpt lat="46.1235690" lon="10.5017470">
	<ele>2210.80</ele>
	<time>2023-08-07T08:53:16.000Z</time>
</trkpt>
<trkpt lat="46.1235690" lon="10.5017470">
	<ele>2210.80</ele>
	<time>2023-08-07T08:53:17.000Z</time>
</trkpt>
<trkpt lat="46.1235690" lon="10.5017470">
	<ele>2210.80</ele>
	<time>2023-08-07T08:53:18.000Z</time>
</trkpt>
<trkpt lat="46.1235690" lon="10.5017470">
	<ele>2210.80</ele>
	<time>2023-08-07T08:53:19.000Z</time>
</trkpt>
<trkpt lat="46.1235690" lon="10.5017470">
	<ele>2210.80</ele>
	<time>2023-08-07T08:53:20.000Z</time>
</trkpt>
<trkpt lat="46.1235690" lon="10.5017470">
	<ele>2210.80</ele>
	<time>2023-08-07T08:53:21.000Z</time>
</trkpt>
<trkpt lat="46.1235690" lon="10.5017460">
	<ele>2210.80</ele>
	<time>2023-08-07T08:53:22.000Z</time>
</trkpt>
<trkpt lat="46.1235690" lon="10.5017460">
	<ele>2210.80</ele>
	<time>2023-08-07T08:53:23.000Z</time>
</trkpt>
<trkpt lat="46.1235690" lon="10.5017450">
	<ele>2210.80</ele>
	<time>2023-08-07T08:53:24.000Z</time>
</trkpt>
<trkpt lat="46.1235700" lon="10.5017450">
	<ele>2210.80</ele>
	<time>2023-08-07T08:53:25.000Z</time>
</trkpt>
<trkpt lat="46.1235690" lon="10.5017450">
	<ele>2210.80</ele>
	<time>2023-08-07T08:53:26.000Z</time>
</trkpt>
<trkpt lat="46.1235690" lon="10.5017450">
	<ele>2210.80</ele>
	<time>2023-08-07T08:53:27.000Z</time>
</trkpt>
<trkpt lat="46.1235690" lon="10.5017440">
	<ele>2210.80</ele>
	<time>2023-08-07T08:53:28.000Z</time>
</trkpt>
<trkpt lat="46.1235680" lon="10.5017440">
	<ele>2210.80</ele>
	<time>2023-08-07T08:53:29.000Z</time>
</trkpt>
<trkpt lat="46.1235670" lon="10.5017440">
	<ele>2210.80</ele>
	<time>2023-08-07T08:53:30.000Z</time>
</trkpt>
<trkpt lat="46.1235670" lon="10.5017440">
	<ele>2210.80</ele>
	<time>2023-08-07T08:53:31.000Z</time>
</trkpt>
<trkpt lat="46.1235670" lon="10.5017440">
	<ele>2210.80</ele>
	<time>2023-08-07T08:53:32.000Z</time>
</trkpt>
<trkpt lat="46.1235670" lon="10.5017440">
	<ele>2210.80</ele>
	<time>2023-08-07T08:53:33.000Z</time>
</trkpt>
<trkpt lat="46.1235670" lon="10.5017440">
	<ele>2210.80</ele>
	<time>2023-08-07T08:53:34.000Z</time>
</trkpt>
<trkpt lat="46.1235670" lon="10.5017440">
	<ele>2210.80</ele>
	<time>2023-08-07T08:53:35.000Z</time>
</trkpt>
<trkpt lat="46.1235670" lon="10.5017440">
	<ele>2210.80</ele>
	<time>2023-08-07T08:53:36.000Z</time>
</trkpt>
<trkpt lat="46.1235670" lon="10.5017440">
	<ele>2210.80</ele>
	<time>2023-08-07T08:53:37.000Z</time>
</trkpt>
<trkpt lat="46.1235670" lon="10.5017440">
	<ele>2210.80</ele>
	<time>2023-08-07T08:53:38.000Z</time>
</trkpt>
<trkpt lat="46.1235660" lon="10.5017440">
	<ele>2210.80</ele>
	<time>2023-08-07T08:53:39.000Z</time>
</trkpt>
<trkpt lat="46.1235650" lon="10.5017430">
	<ele>2210.80</ele>
	<time>2023-08-07T08:53:40.000Z</time>
</trkpt>
<trkpt lat="46.1235640" lon="10.5017420">
	<ele>2210.80</ele>
	<time>2023-08-07T08:53:41.000Z</time>
</trkpt>
<trkpt lat="46.1235620" lon="10.5017410">
	<ele>2210.80</ele>
	<time>2023-08-07T08:53:42.000Z</time>
</trkpt>
<trkpt lat="46.1235610" lon="10.5017400">
	<ele>2210.80</ele>
	<time>2023-08-07T08:53:43.000Z</time>
</trkpt>
<trkpt lat="46.1235610" lon="10.5017390">
	<ele>2210.80</ele>
	<time>2023-08-07T08:53:44.000Z</time>
</trkpt>
<trkpt lat="46.1235600" lon="10.5017380">
	<ele>2210.80</ele>
	<time>2023-08-07T08:53:45.000Z</time>
</trkpt>
<trkpt lat="46.1235590" lon="10.5017380">
	<ele>2210.80</ele>
	<time>2023-08-07T08:53:46.000Z</time>
</trkpt>
<trkpt lat="46.1235590" lon="10.5017380">
	<ele>2210.80</ele>
	<time>2023-08-07T08:53:47.000Z</time>
</trkpt>
<trkpt lat="46.1235580" lon="10.5017370">
	<ele>2210.80</ele>
	<time>2023-08-07T08:53:48.000Z</time>
</trkpt>
<trkpt lat="46.1235570" lon="10.5017370">
	<ele>2210.80</ele>
	<time>2023-08-07T08:53:49.000Z</time>
</trkpt>
<trkpt lat="46.1235570" lon="10.5017370">
	<ele>2210.80</ele>
	<time>2023-08-07T08:53:50.000Z</time>
</trkpt>
<trkpt lat="46.1235570" lon="10.5017370">
	<ele>2210.80</ele>
	<time>2023-08-07T08:53:51.000Z</time>
</trkpt>
<trkpt lat="46.1235570" lon="10.5017380">
	<ele>2210.80</ele>
	<time>2023-08-07T08:53:52.000Z</time>
</trkpt>
<trkpt lat="46.1235580" lon="10.5017440">
	<ele>2210.80</ele>
	<time>2023-08-07T08:53:53.000Z</time>
</trkpt>
<trkpt lat="46.1235620" lon="10.5017510">
	<ele>2210.80</ele>
	<time>2023-08-07T08:53:54.000Z</time>
</trkpt>
<trkpt lat="46.1235650" lon="10.5017550">
	<ele>2210.80</ele>
	<time>2023-08-07T08:53:55.000Z</time>
</trkpt>
<trkpt lat="46.1235680" lon="10.5017590">
	<ele>2210.80</ele>
	<time>2023-08-07T08:53:56.000Z</time>
</trkpt>
<trkpt lat="46.1235830" lon="10.5017710">
	<ele>2210.80</ele>
	<time>2023-08-07T08:53:57.000Z</time>
</trkpt>
<trkpt lat="46.1235870" lon="10.5017760">
	<ele>2210.80</ele>
	<time>2023-08-07T08:53:58.000Z</time>
</trkpt>
<trkpt lat="46.1235900" lon="10.5017800">
	<ele>2210.80</ele>
	<time>2023-08-07T08:53:59.000Z</time>
</trkpt>
<trkpt lat="46.1235880" lon="10.5017770">
	<ele>2210.80</ele>
	<time>2023-08-07T08:54:00.000Z</time>
</trkpt>
<trkpt lat="46.1235880" lon="10.5017770">
	<ele>2210.80</ele>
	<time>2023-08-07T08:54:01.000Z</time>
</trkpt>
<trkpt lat="46.1235880" lon="10.5017770">
	<ele>2210.80</ele>
	<time>2023-08-07T08:54:02.000Z</time>
</trkpt>
<trkpt lat="46.1235880" lon="10.5017770">
	<ele>2210.80</ele>
	<time>2023-08-07T08:54:03.000Z</time>
</trkpt>
<trkpt lat="46.1235880" lon="10.5017770">
	<ele>2210.80</ele>
	<time>2023-08-07T08:54:04.000Z</time>
</trkpt>
<trkpt lat="46.1235880" lon="10.5017770">
	<ele>2210.80</ele>
	<time>2023-08-07T08:54:05.000Z</time>
</trkpt>
<trkpt lat="46.1235880" lon="10.5017770">
	<ele>2210.80</ele>
	<time>2023-08-07T08:54:06.000Z</time>
</trkpt>
<trkpt lat="46.1235880" lon="10.5017770">
	<ele>2210.80</ele>
	<time>2023-08-07T08:54:07.000Z</time>
</trkpt>
<trkpt lat="46.1235880" lon="10.5017770">
	<ele>2210.80</ele>
	<time>2023-08-07T08:54:08.000Z</time>
</trkpt>
<trkpt lat="46.1235880" lon="10.5017770">
	<ele>2210.80</ele>
	<time>2023-08-07T08:54:09.000Z</time>
</trkpt>
<trkpt lat="46.1235880" lon="10.5017770">
	<ele>2210.80</ele>
	<time>2023-08-07T08:54:10.000Z</time>
</trkpt>
<trkpt lat="46.1235850" lon="10.5017770">
	<ele>2210.80</ele>
	<time>2023-08-07T08:54:11.000Z</time>
</trkpt>
<trkpt lat="46.1235840" lon="10.5017770">
	<ele>2210.80</ele>
	<time>2023-08-07T08:54:12.000Z</time>
</trkpt>
<trkpt lat="46.1235840" lon="10.5017770">
	<ele>2210.80</ele>
	<time>2023-08-07T08:54:13.000Z</time>
</trkpt>
<trkpt lat="46.1235840" lon="10.5017770">
	<ele>2210.80</ele>
	<time>2023-08-07T08:54:14.000Z</time>
</trkpt>
<trkpt lat="46.1235840" lon="10.5017770">
	<ele>2210.80</ele>
	<time>2023-08-07T08:54:15.000Z</time>
</trkpt>
<trkpt lat="46.1235840" lon="10.5017770">
	<ele>2210.80</ele>
	<time>2023-08-07T08:54:16.000Z</time>
</trkpt>
<trkpt lat="46.1235840" lon="10.5017770">
	<ele>2210.80</ele>
	<time>2023-08-07T08:54:17.000Z</time>
</trkpt>
<trkpt lat="46.1235840" lon="10.5017770">
	<ele>2210.80</ele>
	<time>2023-08-07T08:54:18.000Z</time>
</trkpt>
<trkpt lat="46.1235840" lon="10.5017770">
	<ele>2210.80</ele>
	<time>2023-08-07T08:54:19.000Z</time>
</trkpt>
<trkpt lat="46.1235840" lon="10.5017770">
	<ele>2210.80</ele>
	<time>2023-08-07T08:54:20.000Z</time>
</trkpt>
<trkpt lat="46.1235840" lon="10.5017770">
	<ele>2210.80</ele>
	<time>2023-08-07T08:54:21.000Z</time>
</trkpt>
<trkpt lat="46.1235850" lon="10.5017780">
	<ele>2210.80</ele>
	<time>2023-08-07T08:54:22.000Z</time>
</trkpt>
<trkpt lat="46.1235850" lon="10.5017780">
	<ele>2210.80</ele>
	<time>2023-08-07T08:54:23.000Z</time>
</trkpt>
<trkpt lat="46.1235860" lon="10.5017790">
	<ele>2210.80</ele>
	<time>2023-08-07T08:54:24.000Z</time>
</trkpt>
<trkpt lat="46.1235870" lon="10.5017790">
	<ele>2210.80</ele>
	<time>2023-08-07T08:54:25.000Z</time>
</trkpt>
<trkpt lat="46.1235880" lon="10.5017800">
	<ele>2210.80</ele>
	<time>2023-08-07T08:54:26.000Z</time>
</trkpt>
<trkpt lat="46.1235880" lon="10.5017810">
	<ele>2210.80</ele>
	<time>2023-08-07T08:54:27.000Z</time>
</trkpt>
<trkpt lat="46.1235890" lon="10.5017810">
	<ele>2210.80</ele>
	<time>2023-08-07T08:54:28.000Z</time>
</trkpt>
<trkpt lat="46.1235890" lon="10.5017810">
	<ele>2210.80</ele>
	<time>2023-08-07T08:54:29.000Z</time>
</trkpt>
<trkpt lat="46.1235880" lon="10.5017810">
	<ele>2210.80</ele>
	<time>2023-08-07T08:54:30.000Z</time>
</trkpt>
<trkpt lat="46.1235880" lon="10.5017810">
	<ele>2210.80</ele>
	<time>2023-08-07T08:54:31.000Z</time>
</trkpt>
<trkpt lat="46.1235880" lon="10.5017810">
	<ele>2210.80</ele>
	<time>2023-08-07T08:54:32.000Z</time>
</trkpt>
<trkpt lat="46.1235880" lon="10.5017810">
	<ele>2210.80</ele>
	<time>2023-08-07T08:54:33.000Z</time>
</trkpt>
<trkpt lat="46.1235880" lon="10.5017810">
	<ele>2210.80</ele>
	<time>2023-08-07T08:54:34.000Z</time>
</trkpt>
<trkpt lat="46.1235880" lon="10.5017810">
	<ele>2210.80</ele>
	<time>2023-08-07T08:54:35.000Z</time>
</trkpt>
<trkpt lat="46.1235880" lon="10.5017810">
	<ele>2210.80</ele>
	<time>2023-08-07T08:54:36.000Z</time>
</trkpt>
<trkpt lat="46.1235840" lon="10.5017780">
	<ele>2210.80</ele>
	<time>2023-08-07T08:54:37.000Z</time>
</trkpt>
<trkpt lat="46.1235800" lon="10.5017750">
	<ele>2210.80</ele>
	<time>2023-08-07T08:54:38.000Z</time>
</trkpt>
<trkpt lat="46.1235790" lon="10.5017730">
	<ele>2210.80</ele>
	<time>2023-08-07T08:54:39.000Z</time>
</trkpt>
<trkpt lat="46.1235860" lon="10.5017750">
	<ele>2210.80</ele>
	<time>2023-08-07T08:54:40.000Z</time>
</trkpt>
<trkpt lat="46.1235820" lon="10.5017680">
	<ele>2210.80</ele>
	<time>2023-08-07T08:54:41.000Z</time>
</trkpt>
<trkpt lat="46.1235730" lon="10.5017600">
	<ele>2210.80</ele>
	<time>2023-08-07T08:54:42.000Z</time>
</trkpt>
<trkpt lat="46.1235730" lon="10.5017600">
	<ele>2210.80</ele>
	<time>2023-08-07T08:54:43.000Z</time>
</trkpt>
<trkpt lat="46.1235730" lon="10.5017600">
	<ele>2210.80</ele>
	<time>2023-08-07T08:54:44.000Z</time>
</trkpt>
<trkpt lat="46.1235730" lon="10.5017600">
	<ele>2210.80</ele>
	<time>2023-08-07T08:54:45.000Z</time>
</trkpt>
<trkpt lat="46.1235730" lon="10.5017600">
	<ele>2210.80</ele>
	<time>2023-08-07T08:54:46.000Z</time>
</trkpt>
<trkpt lat="46.1235730" lon="10.5017600">
	<ele>2210.80</ele>
	<time>2023-08-07T08:54:47.000Z</time>
</trkpt>
<trkpt lat="46.1235730" lon="10.5017600">
	<ele>2210.80</ele>
	<time>2023-08-07T08:54:48.000Z</time>
</trkpt>
<trkpt lat="46.1235730" lon="10.5017600">
	<ele>2210.80</ele>
	<time>2023-08-07T08:54:49.000Z</time>
</trkpt>
<trkpt lat="46.1235730" lon="10.5017600">
	<ele>2210.80</ele>
	<time>2023-08-07T08:54:50.000Z</time>
</trkpt>
<trkpt lat="46.1235710" lon="10.5017590">
	<ele>2210.80</ele>
	<time>2023-08-07T08:54:51.000Z</time>
</trkpt>
<trkpt lat="46.1235670" lon="10.5017580">
	<ele>2210.80</ele>
	<time>2023-08-07T08:54:52.000Z</time>
</trkpt>
<trkpt lat="46.1235670" lon="10.5017570">
	<ele>2210.80</ele>
	<time>2023-08-07T08:54:53.000Z</time>
</trkpt>
<trkpt lat="46.1235640" lon="10.5017560">
	<ele>2210.80</ele>
	<time>2023-08-07T08:54:54.000Z</time>
</trkpt>
<trkpt lat="46.1235680" lon="10.5017590">
	<ele>2210.80</ele>
	<time>2023-08-07T08:54:55.000Z</time>
</trkpt>
<trkpt lat="46.1235720" lon="10.5017630">
	<ele>2210.80</ele>
	<time>2023-08-07T08:54:56.000Z</time>
</trkpt>
<trkpt lat="46.1235740" lon="10.5017630">
	<ele>2210.80</ele>
	<time>2023-08-07T08:54:57.000Z</time>
</trkpt>
<trkpt lat="46.1235710" lon="10.5017630">
	<ele>2210.80</ele>
	<time>2023-08-07T08:54:58.000Z</time>
</trkpt>
<trkpt lat="46.1235710" lon="10.5017620">
	<ele>2210.80</ele>
	<time>2023-08-07T08:54:59.000Z</time>
</trkpt>
<trkpt lat="46.1235760" lon="10.5017630">
	<ele>2210.80</ele>
	<time>2023-08-07T08:55:00.000Z</time>
</trkpt>
<trkpt lat="46.1235880" lon="10.5017700">
	<ele>2210.80</ele>
	<time>2023-08-07T08:55:01.000Z</time>
</trkpt>
<trkpt lat="46.1235880" lon="10.5017700">
	<ele>2210.80</ele>
	<time>2023-08-07T08:55:02.000Z</time>
</trkpt>
<trkpt lat="46.1235890" lon="10.5017710">
	<ele>2210.80</ele>
	<time>2023-08-07T08:55:03.000Z</time>
</trkpt>
<trkpt lat="46.1235950" lon="10.5017750">
	<ele>2210.80</ele>
	<time>2023-08-07T08:55:04.000Z</time>
</trkpt>
<trkpt lat="46.1235990" lon="10.5017780">
	<ele>2210.80</ele>
	<time>2023-08-07T08:55:05.000Z</time>
</trkpt>
<trkpt lat="46.1236030" lon="10.5017800">
	<ele>2210.80</ele>
	<time>2023-08-07T08:55:06.000Z</time>
</trkpt>
<trkpt lat="46.1236010" lon="10.5017750">
	<ele>2210.80</ele>
	<time>2023-08-07T08:55:07.000Z</time>
</trkpt>
<trkpt lat="46.1236010" lon="10.5017750">
	<ele>2210.80</ele>
	<time>2023-08-07T08:55:08.000Z</time>
</trkpt>
<trkpt lat="46.1236010" lon="10.5017750">
	<ele>2210.80</ele>
	<time>2023-08-07T08:55:09.000Z</time>
</trkpt>
<trkpt lat="46.1236010" lon="10.5017750">
	<ele>2210.80</ele>
	<time>2023-08-07T08:55:10.000Z</time>
</trkpt>
<trkpt lat="46.1236010" lon="10.5017750">
	<ele>2210.80</ele>
	<time>2023-08-07T08:55:11.000Z</time>
</trkpt>
<trkpt lat="46.1236010" lon="10.5017750">
	<ele>2210.80</ele>
	<time>2023-08-07T08:55:12.000Z</time>
</trkpt>
<trkpt lat="46.1236010" lon="10.5017750">
	<ele>2210.80</ele>
	<time>2023-08-07T08:55:13.000Z</time>
</trkpt>
<trkpt lat="46.1235990" lon="10.5017740">
	<ele>2210.80</ele>
	<time>2023-08-07T08:55:14.000Z</time>
</trkpt>
<trkpt lat="46.1235840" lon="10.5017670">
	<ele>2210.80</ele>
	<time>2023-08-07T08:55:15.000Z</time>
</trkpt>
<trkpt lat="46.1235710" lon="10.5017580">
	<ele>2210.80</ele>
	<time>2023-08-07T08:55:16.000Z</time>
</trkpt>
<trkpt lat="46.1235640" lon="10.5017550">
	<ele>2210.80</ele>
	<time>2023-08-07T08:55:17.000Z</time>
</trkpt>
<trkpt lat="46.1235620" lon="10.5017550">
	<ele>2210.80</ele>
	<time>2023-08-07T08:55:18.000Z</time>
</trkpt>
<trkpt lat="46.1235620" lon="10.5017560">
	<ele>2210.80</ele>
	<time>2023-08-07T08:55:19.000Z</time>
</trkpt>
<trkpt lat="46.1235610" lon="10.5017560">
	<ele>2210.80</ele>
	<time>2023-08-07T08:55:20.000Z</time>
</trkpt>
<trkpt lat="46.1235600" lon="10.5017570">
	<ele>2210.80</ele>
	<time>2023-08-07T08:55:21.000Z</time>
</trkpt>
<trkpt lat="46.1235520" lon="10.5017540">
	<ele>2210.80</ele>
	<time>2023-08-07T08:55:22.000Z</time>
</trkpt>
<trkpt lat="46.1235450" lon="10.5017530">
	<ele>2210.80</ele>
	<time>2023-08-07T08:55:23.000Z</time>
</trkpt>
<trkpt lat="46.1235430" lon="10.5017500">
	<ele>2210.80</ele>
	<time>2023-08-07T08:55:24.000Z</time>
</trkpt>
<trkpt lat="46.1235450" lon="10.5017490">
	<ele>2210.80</ele>
	<time>2023-08-07T08:55:25.000Z</time>
</trkpt>
<trkpt lat="46.1235460" lon="10.5017490">
	<ele>2210.80</ele>
	<time>2023-08-07T08:55:26.000Z</time>
</trkpt>
<trkpt lat="46.1235480" lon="10.5017500">
	<ele>2210.80</ele>
	<time>2023-08-07T08:55:27.000Z</time>
</trkpt>
<trkpt lat="46.1235460" lon="10.5017470">
	<ele>2210.80</ele>
	<time>2023-08-07T08:55:28.000Z</time>
</trkpt>
<trkpt lat="46.1235430" lon="10.5017440">
	<ele>2210.80</ele>
	<time>2023-08-07T08:55:29.000Z</time>
</trkpt>
<trkpt lat="46.1235420" lon="10.5017430">
	<ele>2210.80</ele>
	<time>2023-08-07T08:55:30.000Z</time>
</trkpt>
<trkpt lat="46.1235400" lon="10.5017410">
	<ele>2210.80</ele>
	<time>2023-08-07T08:55:31.000Z</time>
</trkpt>
<trkpt lat="46.1235400" lon="10.5017400">
	<ele>2210.80</ele>
	<time>2023-08-07T08:55:32.000Z</time>
</trkpt>
<trkpt lat="46.1235400" lon="10.5017400">
	<ele>2210.80</ele>
	<time>2023-08-07T08:55:33.000Z</time>
</trkpt>
<trkpt lat="46.1235400" lon="10.5017400">
	<ele>2210.80</ele>
	<time>2023-08-07T08:55:34.000Z</time>
</trkpt>
<trkpt lat="46.1235400" lon="10.5017400">
	<ele>2210.80</ele>
	<time>2023-08-07T08:55:35.000Z</time>
</trkpt>
<trkpt lat="46.1235400" lon="10.5017400">
	<ele>2210.80</ele>
	<time>2023-08-07T08:55:36.000Z</time>
</trkpt>
<trkpt lat="46.1235400" lon="10.5017400">
	<ele>2210.80</ele>
	<time>2023-08-07T08:55:37.000Z</time>
</trkpt>
<trkpt lat="46.1235400" lon="10.5017400">
	<ele>2210.80</ele>
	<time>2023-08-07T08:55:38.000Z</time>
</trkpt>
<trkpt lat="46.1235400" lon="10.5017400">
	<ele>2210.80</ele>
	<time>2023-08-07T08:55:39.000Z</time>
</trkpt>
<trkpt lat="46.1235400" lon="10.5017400">
	<ele>2210.80</ele>
	<time>2023-08-07T08:55:40.000Z</time>
</trkpt>
<trkpt lat="46.1235400" lon="10.5017400">
	<ele>2210.80</ele>
	<time>2023-08-07T08:55:41.000Z</time>
</trkpt>
<trkpt lat="46.1235400" lon="10.5017400">
	<ele>2210.80</ele>
	<time>2023-08-07T08:55:42.000Z</time>
</trkpt>
<trkpt lat="46.1235400" lon="10.5017400">
	<ele>2210.80</ele>
	<time>2023-08-07T08:55:43.000Z</time>
</trkpt>
<trkpt lat="46.1235400" lon="10.5017400">
	<ele>2210.80</ele>
	<time>2023-08-07T08:55:44.000Z</time>
</trkpt>
<trkpt lat="46.1235400" lon="10.5017400">
	<ele>2210.80</ele>
	<time>2023-08-07T08:55:45.000Z</time>
</trkpt>
<trkpt lat="46.1235400" lon="10.5017400">
	<ele>2210.80</ele>
	<time>2023-08-07T08:55:46.000Z</time>
</trkpt>
<trkpt lat="46.1235400" lon="10.5017400">
	<ele>2210.80</ele>
	<time>2023-08-07T08:55:47.000Z</time>
</trkpt>
<trkpt lat="46.1235400" lon="10.5017400">
	<ele>2210.80</ele>
	<time>2023-08-07T08:55:48.000Z</time>
</trkpt>
<trkpt lat="46.1235400" lon="10.5017400">
	<ele>2210.80</ele>
	<time>2023-08-07T08:55:49.000Z</time>
</trkpt>
<trkpt lat="46.1235410" lon="10.5017400">
	<ele>2210.80</ele>
	<time>2023-08-07T08:55:50.000Z</time>
</trkpt>
<trkpt lat="46.1235410" lon="10.5017400">
	<ele>2210.80</ele>
	<time>2023-08-07T08:55:51.000Z</time>
</trkpt>
<trkpt lat="46.1235410" lon="10.5017400">
	<ele>2210.80</ele>
	<time>2023-08-07T08:55:52.000Z</time>
</trkpt>
<trkpt lat="46.1235410" lon="10.5017390">
	<ele>2210.80</ele>
	<time>2023-08-07T08:55:53.000Z</time>
</trkpt>
<trkpt lat="46.1235410" lon="10.5017380">
	<ele>2210.80</ele>
	<time>2023-08-07T08:55:54.000Z</time>
</trkpt>
<trkpt lat="46.1235410" lon="10.5017370">
	<ele>2210.80</ele>
	<time>2023-08-07T08:55:55.000Z</time>
</trkpt>
<trkpt lat="46.1235450" lon="10.5017380">
	<ele>2210.80</ele>
	<time>2023-08-07T08:55:56.000Z</time>
</trkpt>
<trkpt lat="46.1235510" lon="10.5017430">
	<ele>2210.80</ele>
	<time>2023-08-07T08:55:57.000Z</time>
</trkpt>
<trkpt lat="46.1235560" lon="10.5017460">
	<ele>2210.80</ele>
	<time>2023-08-07T08:55:58.000Z</time>
</trkpt>
<trkpt lat="46.1235600" lon="10.5017470">
	<ele>2210.80</ele>
	<time>2023-08-07T08:55:59.000Z</time>
</trkpt>
<trkpt lat="46.1235620" lon="10.5017470">
	<ele>2210.80</ele>
	<time>2023-08-07T08:56:00.000Z</time>
</trkpt>
<trkpt lat="46.1235610" lon="10.5017440">
	<ele>2210.80</ele>
	<time>2023-08-07T08:56:01.000Z</time>
</trkpt>
<trkpt lat="46.1235630" lon="10.5017420">
	<ele>2210.80</ele>
	<time>2023-08-07T08:56:02.000Z</time>
</trkpt>
<trkpt lat="46.1235660" lon="10.5017410">
	<ele>2210.80</ele>
	<time>2023-08-07T08:56:03.000Z</time>
</trkpt>
<trkpt lat="46.1235680" lon="10.5017400">
	<ele>2210.80</ele>
	<time>2023-08-07T08:56:04.000Z</time>
</trkpt>
<trkpt lat="46.1235750" lon="10.5017410">
	<ele>2210.80</ele>
	<time>2023-08-07T08:56:05.000Z</time>
</trkpt>
<trkpt lat="46.1235780" lon="10.5017420">
	<ele>2210.80</ele>
	<time>2023-08-07T08:56:06.000Z</time>
</trkpt>
<trkpt lat="46.1235690" lon="10.5017360">
	<ele>2210.80</ele>
	<time>2023-08-07T08:56:07.000Z</time>
</trkpt>
<trkpt lat="46.1235630" lon="10.5017310">
	<ele>2210.80</ele>
	<time>2023-08-07T08:56:08.000Z</time>
</trkpt>
<trkpt lat="46.1235610" lon="10.5017280">
	<ele>2210.80</ele>
	<time>2023-08-07T08:56:09.000Z</time>
</trkpt>
<trkpt lat="46.1235600" lon="10.5017280">
	<ele>2210.80</ele>
	<time>2023-08-07T08:56:10.000Z</time>
</trkpt>
<trkpt lat="46.1235560" lon="10.5017240">
	<ele>2210.80</ele>
	<time>2023-08-07T08:56:11.000Z</time>
</trkpt>
<trkpt lat="46.1235530" lon="10.5017220">
	<ele>2210.80</ele>
	<time>2023-08-07T08:56:12.000Z</time>
</trkpt>
<trkpt lat="46.1235510" lon="10.5017210">
	<ele>2210.80</ele>
	<time>2023-08-07T08:56:13.000Z</time>
</trkpt>
<trkpt lat="46.1235550" lon="10.5017220">
	<ele>2210.80</ele>
	<time>2023-08-07T08:56:14.000Z</time>
</trkpt>
<trkpt lat="46.1235540" lon="10.5017180">
	<ele>2210.80</ele>
	<time>2023-08-07T08:56:15.000Z</time>
</trkpt>
<trkpt lat="46.1235530" lon="10.5017160">
	<ele>2210.80</ele>
	<time>2023-08-07T08:56:16.000Z</time>
</trkpt>
<trkpt lat="46.1235520" lon="10.5017150">
	<ele>2210.80</ele>
	<time>2023-08-07T08:56:17.000Z</time>
</trkpt>
<trkpt lat="46.1235520" lon="10.5017150">
	<ele>2210.80</ele>
	<time>2023-08-07T08:56:18.000Z</time>
</trkpt>
<trkpt lat="46.1235570" lon="10.5017200">
	<ele>2210.80</ele>
	<time>2023-08-07T08:56:19.000Z</time>
</trkpt>
<trkpt lat="46.1235570" lon="10.5017200">
	<ele>2210.80</ele>
	<time>2023-08-07T08:56:20.000Z</time>
</trkpt>
<trkpt lat="46.1235560" lon="10.5017200">
	<ele>2210.80</ele>
	<time>2023-08-07T08:56:21.000Z</time>
</trkpt>
<trkpt lat="46.1235560" lon="10.5017200">
	<ele>2210.80</ele>
	<time>2023-08-07T08:56:22.000Z</time>
</trkpt>
<trkpt lat="46.1235560" lon="10.5017200">
	<ele>2210.80</ele>
	<time>2023-08-07T08:56:23.000Z</time>
</trkpt>
<trkpt lat="46.1235560" lon="10.5017200">
	<ele>2210.80</ele>
	<time>2023-08-07T08:56:24.000Z</time>
</trkpt>
<trkpt lat="46.1235560" lon="10.5017200">
	<ele>2210.80</ele>
	<time>2023-08-07T08:56:25.000Z</time>
</trkpt>
<trkpt lat="46.1235560" lon="10.5017200">
	<ele>2210.80</ele>
	<time>2023-08-07T08:56:26.000Z</time>
</trkpt>
<trkpt lat="46.1235560" lon="10.5017200">
	<ele>2210.80</ele>
	<time>2023-08-07T08:56:27.000Z</time>
</trkpt>
<trkpt lat="46.1235560" lon="10.5017200">
	<ele>2210.80</ele>
	<time>2023-08-07T08:56:28.000Z</time>
</trkpt>
<trkpt lat="46.1235560" lon="10.5017200">
	<ele>2210.80</ele>
	<time>2023-08-07T08:56:29.000Z</time>
</trkpt>
<trkpt lat="46.1235560" lon="10.5017200">
	<ele>2210.80</ele>
	<time>2023-08-07T08:56:30.000Z</time>
</trkpt>
<trkpt lat="46.1235550" lon="10.5017200">
	<ele>2210.80</ele>
	<time>2023-08-07T08:56:31.000Z</time>
</trkpt>
<trkpt lat="46.1235550" lon="10.5017200">
	<ele>2210.80</ele>
	<time>2023-08-07T08:56:32.000Z</time>
</trkpt>
<trkpt lat="46.1235540" lon="10.5017200">
	<ele>2210.80</ele>
	<time>2023-08-07T08:56:33.000Z</time>
</trkpt>
<trkpt lat="46.1235530" lon="10.5017200">
	<ele>2210.80</ele>
	<time>2023-08-07T08:56:34.000Z</time>
</trkpt>
<trkpt lat="46.1235520" lon="10.5017200">
	<ele>2210.80</ele>
	<time>2023-08-07T08:56:35.000Z</time>
</trkpt>
<trkpt lat="46.1235520" lon="10.5017200">
	<ele>2210.80</ele>
	<time>2023-08-07T08:56:36.000Z</time>
</trkpt>
<trkpt lat="46.1235520" lon="10.5017200">
	<ele>2210.80</ele>
	<time>2023-08-07T08:56:37.000Z</time>
</trkpt>
<trkpt lat="46.1235520" lon="10.5017200">
	<ele>2210.80</ele>
	<time>2023-08-07T08:56:38.000Z</time>
</trkpt>
<trkpt lat="46.1235510" lon="10.5017200">
	<ele>2210.80</ele>
	<time>2023-08-07T08:56:39.000Z</time>
</trkpt>
<trkpt lat="46.1235510" lon="10.5017190">
	<ele>2210.80</ele>
	<time>2023-08-07T08:56:40.000Z</time>
</trkpt>
<trkpt lat="46.1235510" lon="10.5017190">
	<ele>2210.80</ele>
	<time>2023-08-07T08:56:41.000Z</time>
</trkpt>
<trkpt lat="46.1235500" lon="10.5017190">
	<ele>2210.80</ele>
	<time>2023-08-07T08:56:42.000Z</time>
</trkpt>
<trkpt lat="46.1235500" lon="10.5017180">
	<ele>2210.80</ele>
	<time>2023-08-07T08:56:43.000Z</time>
</trkpt>
<trkpt lat="46.1235500" lon="10.5017180">
	<ele>2210.80</ele>
	<time>2023-08-07T08:56:44.000Z</time>
</trkpt>
<trkpt lat="46.1235500" lon="10.5017170">
	<ele>2210.80</ele>
	<time>2023-08-07T08:56:45.000Z</time>
</trkpt>
<trkpt lat="46.1235500" lon="10.5017170">
	<ele>2210.80</ele>
	<time>2023-08-07T08:56:46.000Z</time>
</trkpt>
<trkpt lat="46.1235490" lon="10.5017170">
	<ele>2210.80</ele>
	<time>2023-08-07T08:56:47.000Z</time>
</trkpt>
<trkpt lat="46.1235490" lon="10.5017170">
	<ele>2210.80</ele>
	<time>2023-08-07T08:56:48.000Z</time>
</trkpt>
<trkpt lat="46.1235490" lon="10.5017170">
	<ele>2210.80</ele>
	<time>2023-08-07T08:56:49.000Z</time>
</trkpt>
<trkpt lat="46.1235470" lon="10.5017170">
	<ele>2210.80</ele>
	<time>2023-08-07T08:56:50.000Z</time>
</trkpt>
<trkpt lat="46.1235470" lon="10.5017160">
	<ele>2210.80</ele>
	<time>2023-08-07T08:56:51.000Z</time>
</trkpt>
<trkpt lat="46.1235470" lon="10.5017160">
	<ele>2210.80</ele>
	<time>2023-08-07T08:56:52.000Z</time>
</trkpt>
<trkpt lat="46.1235460" lon="10.5017150">
	<ele>2210.80</ele>
	<time>2023-08-07T08:56:53.000Z</time>
</trkpt>
<trkpt lat="46.1235450" lon="10.5017150">
	<ele>2210.80</ele>
	<time>2023-08-07T08:56:54.000Z</time>
</trkpt>
<trkpt lat="46.1235420" lon="10.5017150">
	<ele>2210.80</ele>
	<time>2023-08-07T08:56:55.000Z</time>
</trkpt>
<trkpt lat="46.1235380" lon="10.5017160">
	<ele>2210.80</ele>
	<time>2023-08-07T08:56:56.000Z</time>
</trkpt>
<trkpt lat="46.1235390" lon="10.5017170">
	<ele>2210.80</ele>
	<time>2023-08-07T08:56:57.000Z</time>
</trkpt>
<trkpt lat="46.1235400" lon="10.5017210">
	<ele>2210.80</ele>
	<time>2023-08-07T08:56:58.000Z</time>
</trkpt>
<trkpt lat="46.1235380" lon="10.5017170">
	<ele>2210.80</ele>
	<time>2023-08-07T08:56:59.000Z</time>
</trkpt>
<trkpt lat="46.1235390" lon="10.5017220">
	<ele>2210.80</ele>
	<time>2023-08-07T08:57:00.000Z</time>
</trkpt>
<trkpt lat="46.1235310" lon="10.5017150">
	<ele>2210.80</ele>
	<time>2023-08-07T08:57:01.000Z</time>
</trkpt>
<trkpt lat="46.1235310" lon="10.5017170">
	<ele>2210.80</ele>
	<time>2023-08-07T08:57:02.000Z</time>
</trkpt>
<trkpt lat="46.1235400" lon="10.5017260">
	<ele>2210.80</ele>
	<time>2023-08-07T08:57:03.000Z</time>
</trkpt>
<trkpt lat="46.1235400" lon="10.5017270">
	<ele>2210.80</ele>
	<time>2023-08-07T08:57:04.000Z</time>
</trkpt>
<trkpt lat="46.1235400" lon="10.5017260">
	<ele>2210.80</ele>
	<time>2023-08-07T08:57:05.000Z</time>
</trkpt>
<trkpt lat="46.1235360" lon="10.5017210">
	<ele>2210.80</ele>
	<time>2023-08-07T08:57:06.000Z</time>
</trkpt>
<trkpt lat="46.1235410" lon="10.5017250">
	<ele>2210.80</ele>
	<time>2023-08-07T08:57:07.000Z</time>
</trkpt>
<trkpt lat="46.1235480" lon="10.5017310">
	<ele>2210.80</ele>
	<time>2023-08-07T08:57:08.000Z</time>
</trkpt>
<trkpt lat="46.1235560" lon="10.5017390">
	<ele>2210.80</ele>
	<time>2023-08-07T08:57:09.000Z</time>
</trkpt>
<trkpt lat="46.1235610" lon="10.5017440">
	<ele>2210.80</ele>
	<time>2023-08-07T08:57:10.000Z</time>
</trkpt>
<trkpt lat="46.1235640" lon="10.5017480">
	<ele>2210.80</ele>
	<time>2023-08-07T08:57:11.000Z</time>
</trkpt>
<trkpt lat="46.1235600" lon="10.5017420">
	<ele>2210.80</ele>
	<time>2023-08-07T08:57:12.000Z</time>
</trkpt>
<trkpt lat="46.1235580" lon="10.5017400">
	<ele>2210.80</ele>
	<time>2023-08-07T08:57:13.000Z</time>
</trkpt>
<trkpt lat="46.1235570" lon="10.5017370">
	<ele>2210.80</ele>
	<time>2023-08-07T08:57:14.000Z</time>
</trkpt>
<trkpt lat="46.1235480" lon="10.5017260">
	<ele>2210.80</ele>
	<time>2023-08-07T08:57:15.000Z</time>
</trkpt>
<trkpt lat="46.1235370" lon="10.5017100">
	<ele>2210.80</ele>
	<time>2023-08-07T08:57:16.000Z</time>
</trkpt>
<trkpt lat="46.1235250" lon="10.5016980">
	<ele>2210.80</ele>
	<time>2023-08-07T08:57:17.000Z</time>
</trkpt>
<trkpt lat="46.1235130" lon="10.5016870">
	<ele>2210.80</ele>
	<time>2023-08-07T08:57:18.000Z</time>
</trkpt>
<trkpt lat="46.1235030" lon="10.5016770">
	<ele>2210.80</ele>
	<time>2023-08-07T08:57:19.000Z</time>
</trkpt>
<trkpt lat="46.1234990" lon="10.5016730">
	<ele>2210.80</ele>
	<time>2023-08-07T08:57:20.000Z</time>
</trkpt>
<trkpt lat="46.1235050" lon="10.5016790">
	<ele>2210.80</ele>
	<time>2023-08-07T08:57:21.000Z</time>
</trkpt>
<trkpt lat="46.1235060" lon="10.5016840">
	<ele>2210.80</ele>
	<time>2023-08-07T08:57:22.000Z</time>
</trkpt>
<trkpt lat="46.1235100" lon="10.5016920">
	<ele>2210.80</ele>
	<time>2023-08-07T08:57:23.000Z</time>
</trkpt>
<trkpt lat="46.1235180" lon="10.5017030">
	<ele>2210.80</ele>
	<time>2023-08-07T08:57:24.000Z</time>
</trkpt>
<trkpt lat="46.1235200" lon="10.5017060">
	<ele>2210.80</ele>
	<time>2023-08-07T08:57:25.000Z</time>
</trkpt>
<trkpt lat="46.1235260" lon="10.5017130">
	<ele>2210.80</ele>
	<time>2023-08-07T08:57:26.000Z</time>
</trkpt>
<trkpt lat="46.1235330" lon="10.5017200">
	<ele>2210.80</ele>
	<time>2023-08-07T08:57:27.000Z</time>
</trkpt>
<trkpt lat="46.1235350" lon="10.5017240">
	<ele>2210.80</ele>
	<time>2023-08-07T08:57:28.000Z</time>
</trkpt>
<trkpt lat="46.1235350" lon="10.5017220">
	<ele>2210.80</ele>
	<time>2023-08-07T08:57:29.000Z</time>
</trkpt>
<trkpt lat="46.1235330" lon="10.5017190">
	<ele>2210.80</ele>
	<time>2023-08-07T08:57:30.000Z</time>
</trkpt>
<trkpt lat="46.1235330" lon="10.5017210">
	<ele>2210.80</ele>
	<time>2023-08-07T08:57:31.000Z</time>
</trkpt>
<trkpt lat="46.1235330" lon="10.5017210">
	<ele>2210.80</ele>
	<time>2023-08-07T08:57:32.000Z</time>
</trkpt>
<trkpt lat="46.1235330" lon="10.5017210">
	<ele>2210.80</ele>
	<time>2023-08-07T08:57:33.000Z</time>
</trkpt>
<trkpt lat="46.1235330" lon="10.5017210">
	<ele>2210.80</ele>
	<time>2023-08-07T08:57:34.000Z</time>
</trkpt>
<trkpt lat="46.1235330" lon="10.5017210">
	<ele>2210.80</ele>
	<time>2023-08-07T08:57:35.000Z</time>
</trkpt>
<trkpt lat="46.1235330" lon="10.5017210">
	<ele>2210.80</ele>
	<time>2023-08-07T08:57:36.000Z</time>
</trkpt>
<trkpt lat="46.1235330" lon="10.5017210">
	<ele>2210.80</ele>
	<time>2023-08-07T08:57:37.000Z</time>
</trkpt>
<trkpt lat="46.1235330" lon="10.5017210">
	<ele>2210.80</ele>
	<time>2023-08-07T08:57:38.000Z</time>
</trkpt>
<trkpt lat="46.1235330" lon="10.5017210">
	<ele>2210.80</ele>
	<time>2023-08-07T08:57:39.000Z</time>
</trkpt>
<trkpt lat="46.1235330" lon="10.5017210">
	<ele>2210.80</ele>
	<time>2023-08-07T08:57:40.000Z</time>
</trkpt>
<trkpt lat="46.1235330" lon="10.5017210">
	<ele>2210.80</ele>
	<time>2023-08-07T08:57:41.000Z</time>
</trkpt>
<trkpt lat="46.1235330" lon="10.5017210">
	<ele>2210.80</ele>
	<time>2023-08-07T08:57:42.000Z</time>
</trkpt>
<trkpt lat="46.1235330" lon="10.5017210">
	<ele>2210.80</ele>
	<time>2023-08-07T08:57:43.000Z</time>
</trkpt>
<trkpt lat="46.1235330" lon="10.5017210">
	<ele>2210.80</ele>
	<time>2023-08-07T08:57:44.000Z</time>
</trkpt>
<trkpt lat="46.1235330" lon="10.5017210">
	<ele>2210.80</ele>
	<time>2023-08-07T08:57:45.000Z</time>
</trkpt>
<trkpt lat="46.1235330" lon="10.5017220">
	<ele>2210.80</ele>
	<time>2023-08-07T08:57:46.000Z</time>
</trkpt>
<trkpt lat="46.1235330" lon="10.5017220">
	<ele>2210.80</ele>
	<time>2023-08-07T08:57:47.000Z</time>
</trkpt>
<trkpt lat="46.1235350" lon="10.5017240">
	<ele>2210.80</ele>
	<time>2023-08-07T08:57:48.000Z</time>
</trkpt>
<trkpt lat="46.1235350" lon="10.5017240">
	<ele>2210.80</ele>
	<time>2023-08-07T08:57:49.000Z</time>
</trkpt>
<trkpt lat="46.1235360" lon="10.5017280">
	<ele>2210.80</ele>
	<time>2023-08-07T08:57:50.000Z</time>
</trkpt>
<trkpt lat="46.1235400" lon="10.5017330">
	<ele>2210.80</ele>
	<time>2023-08-07T08:57:51.000Z</time>
</trkpt>
<trkpt lat="46.1235420" lon="10.5017360">
	<ele>2210.80</ele>
	<time>2023-08-07T08:57:52.000Z</time>
</trkpt>
<trkpt lat="46.1235420" lon="10.5017370">
	<ele>2210.80</ele>
	<time>2023-08-07T08:57:53.000Z</time>
</trkpt>
<trkpt lat="46.1235420" lon="10.5017370">
	<ele>2210.80</ele>
	<time>2023-08-07T08:57:54.000Z</time>
</trkpt>
<trkpt lat="46.1235420" lon="10.5017370">
	<ele>2210.80</ele>
	<time>2023-08-07T08:57:55.000Z</time>
</trkpt>
<trkpt lat="46.1235430" lon="10.5017370">
	<ele>2210.80</ele>
	<time>2023-08-07T08:57:56.000Z</time>
</trkpt>
<trkpt lat="46.1235430" lon="10.5017370">
	<ele>2210.80</ele>
	<time>2023-08-07T08:57:57.000Z</time>
</trkpt>
<trkpt lat="46.1235430" lon="10.5017370">
	<ele>2210.80</ele>
	<time>2023-08-07T08:57:58.000Z</time>
</trkpt>
<trkpt lat="46.1235430" lon="10.5017370">
	<ele>2210.80</ele>
	<time>2023-08-07T08:57:59.000Z</time>
</trkpt>
<trkpt lat="46.1235430" lon="10.5017370">
	<ele>2210.80</ele>
	<time>2023-08-07T08:58:00.000Z</time>
</trkpt>
<trkpt lat="46.1235430" lon="10.5017370">
	<ele>2210.80</ele>
	<time>2023-08-07T08:58:01.000Z</time>
</trkpt>
<trkpt lat="46.1235430" lon="10.5017370">
	<ele>2210.80</ele>
	<time>2023-08-07T08:58:02.000Z</time>
</trkpt>
<trkpt lat="46.1235430" lon="10.5017370">
	<ele>2210.80</ele>
	<time>2023-08-07T08:58:03.000Z</time>
</trkpt>
<trkpt lat="46.1235430" lon="10.5017370">
	<ele>2210.80</ele>
	<time>2023-08-07T08:58:04.000Z</time>
</trkpt>
<trkpt lat="46.1235430" lon="10.5017370">
	<ele>2210.80</ele>
	<time>2023-08-07T08:58:05.000Z</time>
</trkpt>
<trkpt lat="46.1235430" lon="10.5017370">
	<ele>2210.80</ele>
	<time>2023-08-07T08:58:06.000Z</time>
</trkpt>
<trkpt lat="46.1235430" lon="10.5017370">
	<ele>2210.80</ele>
	<time>2023-08-07T08:58:07.000Z</time>
</trkpt>
<trkpt lat="46.1235420" lon="10.5017370">
	<ele>2210.80</ele>
	<time>2023-08-07T08:58:08.000Z</time>
</trkpt>
<trkpt lat="46.1235420" lon="10.5017360">
	<ele>2210.80</ele>
	<time>2023-08-07T08:58:09.000Z</time>
</trkpt>
<trkpt lat="46.1235420" lon="10.5017360">
	<ele>2210.80</ele>
	<time>2023-08-07T08:58:10.000Z</time>
</trkpt>
<trkpt lat="46.1235390" lon="10.5017320">
	<ele>2210.80</ele>
	<time>2023-08-07T08:58:11.000Z</time>
</trkpt>
<trkpt lat="46.1235360" lon="10.5017300">
	<ele>2210.80</ele>
	<time>2023-08-07T08:58:12.000Z</time>
</trkpt>
<trkpt lat="46.1235310" lon="10.5017290">
	<ele>2210.80</ele>
	<time>2023-08-07T08:58:13.000Z</time>
</trkpt>
<trkpt lat="46.1235280" lon="10.5017280">
	<ele>2210.80</ele>
	<time>2023-08-07T08:58:14.000Z</time>
</trkpt>
<trkpt lat="46.1235250" lon="10.5017280">
	<ele>2210.80</ele>
	<time>2023-08-07T08:58:15.000Z</time>
</trkpt>
<trkpt lat="46.1235240" lon="10.5017270">
	<ele>2210.80</ele>
	<time>2023-08-07T08:58:16.000Z</time>
</trkpt>
<trkpt lat="46.1235240" lon="10.5017260">
	<ele>2210.80</ele>
	<time>2023-08-07T08:58:17.000Z</time>
</trkpt>
<trkpt lat="46.1235230" lon="10.5017250">
	<ele>2210.80</ele>
	<time>2023-08-07T08:58:18.000Z</time>
</trkpt>
<trkpt lat="46.1235220" lon="10.5017230">
	<ele>2210.80</ele>
	<time>2023-08-07T08:58:19.000Z</time>
</trkpt>
<trkpt lat="46.1235220" lon="10.5017220">
	<ele>2210.80</ele>
	<time>2023-08-07T08:58:20.000Z</time>
</trkpt>
<trkpt lat="46.1235200" lon="10.5017220">
	<ele>2210.80</ele>
	<time>2023-08-07T08:58:21.000Z</time>
</trkpt>
<trkpt lat="46.1235200" lon="10.5017220">
	<ele>2210.80</ele>
	<time>2023-08-07T08:58:22.000Z</time>
</trkpt>
<trkpt lat="46.1235190" lon="10.5017210">
	<ele>2210.80</ele>
	<time>2023-08-07T08:58:23.000Z</time>
</trkpt>
<trkpt lat="46.1235190" lon="10.5017210">
	<ele>2210.80</ele>
	<time>2023-08-07T08:58:24.000Z</time>
</trkpt>
<trkpt lat="46.1235190" lon="10.5017200">
	<ele>2210.80</ele>
	<time>2023-08-07T08:58:25.000Z</time>
</trkpt>
<trkpt lat="46.1235180" lon="10.5017200">
	<ele>2210.80</ele>
	<time>2023-08-07T08:58:26.000Z</time>
</trkpt>
<trkpt lat="46.1235180" lon="10.5017190">
	<ele>2210.80</ele>
	<time>2023-08-07T08:58:27.000Z</time>
</trkpt>
<trkpt lat="46.1235170" lon="10.5017190">
	<ele>2210.80</ele>
	<time>2023-08-07T08:58:28.000Z</time>
</trkpt>
<trkpt lat="46.1235160" lon="10.5017190">
	<ele>2210.80</ele>
	<time>2023-08-07T08:58:29.000Z</time>
</trkpt>
<trkpt lat="46.1235160" lon="10.5017190">
	<ele>2210.80</ele>
	<time>2023-08-07T08:58:30.000Z</time>
</trkpt>
<trkpt lat="46.1235160" lon="10.5017190">
	<ele>2210.80</ele>
	<time>2023-08-07T08:58:31.000Z</time>
</trkpt>
<trkpt lat="46.1235150" lon="10.5017190">
	<ele>2210.80</ele>
	<time>2023-08-07T08:58:32.000Z</time>
</trkpt>
<trkpt lat="46.1235150" lon="10.5017180">
	<ele>2210.80</ele>
	<time>2023-08-07T08:58:33.000Z</time>
</trkpt>
<trkpt lat="46.1235150" lon="10.5017180">
	<ele>2210.80</ele>
	<time>2023-08-07T08:58:34.000Z</time>
</trkpt>
<trkpt lat="46.1235140" lon="10.5017170">
	<ele>2210.80</ele>
	<time>2023-08-07T08:58:35.000Z</time>
</trkpt>
<trkpt lat="46.1235140" lon="10.5017170">
	<ele>2210.80</ele>
	<time>2023-08-07T08:58:36.000Z</time>
</trkpt>
<trkpt lat="46.1235130" lon="10.5017180">
	<ele>2210.80</ele>
	<time>2023-08-07T08:58:37.000Z</time>
</trkpt>
<trkpt lat="46.1235120" lon="10.5017180">
	<ele>2210.80</ele>
	<time>2023-08-07T08:58:38.000Z</time>
</trkpt>
<trkpt lat="46.1235120" lon="10.5017180">
	<ele>2210.80</ele>
	<time>2023-08-07T08:58:39.000Z</time>
</trkpt>
<trkpt lat="46.1235120" lon="10.5017180">
	<ele>2210.80</ele>
	<time>2023-08-07T08:58:40.000Z</time>
</trkpt>
<trkpt lat="46.1235120" lon="10.5017180">
	<ele>2210.80</ele>
	<time>2023-08-07T08:58:41.000Z</time>
</trkpt>
<trkpt lat="46.1235120" lon="10.5017180">
	<ele>2210.80</ele>
	<time>2023-08-07T08:58:42.000Z</time>
</trkpt>
<trkpt lat="46.1235120" lon="10.5017180">
	<ele>2210.80</ele>
	<time>2023-08-07T08:58:43.000Z</time>
</trkpt>
<trkpt lat="46.1235120" lon="10.5017180">
	<ele>2210.80</ele>
	<time>2023-08-07T08:58:44.000Z</time>
</trkpt>
<trkpt lat="46.1235120" lon="10.5017180">
	<ele>2210.80</ele>
	<time>2023-08-07T08:58:45.000Z</time>
</trkpt>
<trkpt lat="46.1235120" lon="10.5017180">
	<ele>2210.80</ele>
	<time>2023-08-07T08:58:46.000Z</time>
</trkpt>
<trkpt lat="46.1235120" lon="10.5017180">
	<ele>2210.80</ele>
	<time>2023-08-07T08:58:47.000Z</time>
</trkpt>
<trkpt lat="46.1235120" lon="10.5017180">
	<ele>2210.80</ele>
	<time>2023-08-07T08:58:48.000Z</time>
</trkpt>
<trkpt lat="46.1235120" lon="10.5017180">
	<ele>2210.80</ele>
	<time>2023-08-07T08:58:49.000Z</time>
</trkpt>
<trkpt lat="46.1235130" lon="10.5017180">
	<ele>2210.80</ele>
	<time>2023-08-07T08:58:50.000Z</time>
</trkpt>
<trkpt lat="46.1235140" lon="10.5017190">
	<ele>2210.80</ele>
	<time>2023-08-07T08:58:51.000Z</time>
</trkpt>
<trkpt lat="46.1235150" lon="10.5017200">
	<ele>2210.80</ele>
	<time>2023-08-07T08:58:52.000Z</time>
</trkpt>
<trkpt lat="46.1235180" lon="10.5017240">
	<ele>2210.80</ele>
	<time>2023-08-07T08:58:53.000Z</time>
</trkpt>
<trkpt lat="46.1235220" lon="10.5017270">
	<ele>2210.80</ele>
	<time>2023-08-07T08:58:54.000Z</time>
</trkpt>
<trkpt lat="46.1235240" lon="10.5017290">
	<ele>2210.80</ele>
	<time>2023-08-07T08:58:55.000Z</time>
</trkpt>
<trkpt lat="46.1235250" lon="10.5017290">
	<ele>2210.80</ele>
	<time>2023-08-07T08:58:56.000Z</time>
</trkpt>
<trkpt lat="46.1235260" lon="10.5017300">
	<ele>2210.80</ele>
	<time>2023-08-07T08:58:57.000Z</time>
</trkpt>
<trkpt lat="46.1235260" lon="10.5017310">
	<ele>2210.80</ele>
	<time>2023-08-07T08:58:58.000Z</time>
</trkpt>
<trkpt lat="46.1235270" lon="10.5017330">
	<ele>2210.80</ele>
	<time>2023-08-07T08:58:59.000Z</time>
</trkpt>
<trkpt lat="46.1235270" lon="10.5017340">
	<ele>2210.80</ele>
	<time>2023-08-07T08:59:00.000Z</time>
</trkpt>
<trkpt lat="46.1235300" lon="10.5017340">
	<ele>2210.80</ele>
	<time>2023-08-07T08:59:01.000Z</time>
</trkpt>
<trkpt lat="46.1235330" lon="10.5017360">
	<ele>2210.80</ele>
	<time>2023-08-07T08:59:02.000Z</time>
</trkpt>
<trkpt lat="46.1235340" lon="10.5017370">
	<ele>2210.80</ele>
	<time>2023-08-07T08:59:03.000Z</time>
</trkpt>
<trkpt lat="46.1235350" lon="10.5017370">
	<ele>2210.80</ele>
	<time>2023-08-07T08:59:04.000Z</time>
</trkpt>
<trkpt lat="46.1235350" lon="10.5017380">
	<ele>2210.80</ele>
	<time>2023-08-07T08:59:05.000Z</time>
</trkpt>
<trkpt lat="46.1235360" lon="10.5017380">
	<ele>2210.80</ele>
	<time>2023-08-07T08:59:06.000Z</time>
</trkpt>
<trkpt lat="46.1235370" lon="10.5017400">
	<ele>2210.80</ele>
	<time>2023-08-07T08:59:07.000Z</time>
</trkpt>
<trkpt lat="46.1235440" lon="10.5017430">
	<ele>2210.80</ele>
	<time>2023-08-07T08:59:08.000Z</time>
</trkpt>
<trkpt lat="46.1235460" lon="10.5017450">
	<ele>2210.80</ele>
	<time>2023-08-07T08:59:09.000Z</time>
</trkpt>
<trkpt lat="46.1235520" lon="10.5017540">
	<ele>2210.80</ele>
	<time>2023-08-07T08:59:10.000Z</time>
</trkpt>
<trkpt lat="46.1235590" lon="10.5017620">
	<ele>2210.80</ele>
	<time>2023-08-07T08:59:11.000Z</time>
</trkpt>
<trkpt lat="46.1235580" lon="10.5017600">
	<ele>2210.80</ele>
	<time>2023-08-07T08:59:12.000Z</time>
</trkpt>
<trkpt lat="46.1235580" lon="10.5017600">
	<ele>2210.80</ele>
	<time>2023-08-07T08:59:13.000Z</time>
</trkpt>
<trkpt lat="46.1235580" lon="10.5017600">
	<ele>2210.80</ele>
	<time>2023-08-07T08:59:14.000Z</time>
</trkpt>
<trkpt lat="46.1235580" lon="10.5017600">
	<ele>2210.80</ele>
	<time>2023-08-07T08:59:15.000Z</time>
</trkpt>
<trkpt lat="46.1235580" lon="10.5017600">
	<ele>2210.80</ele>
	<time>2023-08-07T08:59:16.000Z</time>
</trkpt>
<trkpt lat="46.1235580" lon="10.5017600">
	<ele>2210.80</ele>
	<time>2023-08-07T08:59:17.000Z</time>
</trkpt>
<trkpt lat="46.1235580" lon="10.5017600">
	<ele>2210.80</ele>
	<time>2023-08-07T08:59:18.000Z</time>
</trkpt>
<trkpt lat="46.1235580" lon="10.5017600">
	<ele>2210.80</ele>
	<time>2023-08-07T08:59:19.000Z</time>
</trkpt>
<trkpt lat="46.1235580" lon="10.5017600">
	<ele>2210.80</ele>
	<time>2023-08-07T08:59:20.000Z</time>
</trkpt>
<trkpt lat="46.1235580" lon="10.5017600">
	<ele>2210.80</ele>
	<time>2023-08-07T08:59:21.000Z</time>
</trkpt>
<trkpt lat="46.1235580" lon="10.5017600">
	<ele>2210.80</ele>
	<time>2023-08-07T08:59:22.000Z</time>
</trkpt>
<trkpt lat="46.1235580" lon="10.5017600">
	<ele>2210.80</ele>
	<time>2023-08-07T08:59:23.000Z</time>
</trkpt>
<trkpt lat="46.1235580" lon="10.5017600">
	<ele>2210.80</ele>
	<time>2023-08-07T08:59:24.000Z</time>
</trkpt>
<trkpt lat="46.1235580" lon="10.5017600">
	<ele>2210.80</ele>
	<time>2023-08-07T08:59:25.000Z</time>
</trkpt>
<trkpt lat="46.1235580" lon="10.5017600">
	<ele>2210.80</ele>
	<time>2023-08-07T08:59:26.000Z</time>
</trkpt>
<trkpt lat="46.1235580" lon="10.5017590">
	<ele>2210.80</ele>
	<time>2023-08-07T08:59:27.000Z</time>
</trkpt>
<trkpt lat="46.1235580" lon="10.5017590">
	<ele>2210.80</ele>
	<time>2023-08-07T08:59:28.000Z</time>
</trkpt>
<trkpt lat="46.1235590" lon="10.5017590">
	<ele>2210.80</ele>
	<time>2023-08-07T08:59:29.000Z</time>
</trkpt>
<trkpt lat="46.1235590" lon="10.5017590">
	<ele>2210.80</ele>
	<time>2023-08-07T08:59:30.000Z</time>
</trkpt>
<trkpt lat="46.1235590" lon="10.5017590">
	<ele>2210.80</ele>
	<time>2023-08-07T08:59:31.000Z</time>
</trkpt>
<trkpt lat="46.1235590" lon="10.5017580">
	<ele>2210.80</ele>
	<time>2023-08-07T08:59:32.000Z</time>
</trkpt>
<trkpt lat="46.1235590" lon="10.5017580">
	<ele>2210.80</ele>
	<time>2023-08-07T08:59:33.000Z</time>
</trkpt>
<trkpt lat="46.1235590" lon="10.5017580">
	<ele>2210.80</ele>
	<time>2023-08-07T08:59:34.000Z</time>
</trkpt>
<trkpt lat="46.1235590" lon="10.5017580">
	<ele>2210.80</ele>
	<time>2023-08-07T08:59:35.000Z</time>
</trkpt>
<trkpt lat="46.1235590" lon="10.5017580">
	<ele>2210.80</ele>
	<time>2023-08-07T08:59:36.000Z</time>
</trkpt>
<trkpt lat="46.1235590" lon="10.5017580">
	<ele>2210.80</ele>
	<time>2023-08-07T08:59:37.000Z</time>
</trkpt>
<trkpt lat="46.1235590" lon="10.5017580">
	<ele>2210.80</ele>
	<time>2023-08-07T08:59:38.000Z</time>
</trkpt>
<trkpt lat="46.1235590" lon="10.5017580">
	<ele>2210.80</ele>
	<time>2023-08-07T08:59:39.000Z</time>
</trkpt>
<trkpt lat="46.1235580" lon="10.5017550">
	<ele>2210.80</ele>
	<time>2023-08-07T08:59:40.000Z</time>
</trkpt>
<trkpt lat="46.1235570" lon="10.5017530">
	<ele>2210.80</ele>
	<time>2023-08-07T08:59:41.000Z</time>
</trkpt>
<trkpt lat="46.1235560" lon="10.5017520">
	<ele>2210.80</ele>
	<time>2023-08-07T08:59:42.000Z</time>
</trkpt>
<trkpt lat="46.1235560" lon="10.5017510">
	<ele>2210.80</ele>
	<time>2023-08-07T08:59:43.000Z</time>
</trkpt>
<trkpt lat="46.1235540" lon="10.5017500">
	<ele>2210.80</ele>
	<time>2023-08-07T08:59:44.000Z</time>
</trkpt>
<trkpt lat="46.1235500" lon="10.5017440">
	<ele>2210.80</ele>
	<time>2023-08-07T08:59:45.000Z</time>
</trkpt>
<trkpt lat="46.1235440" lon="10.5017380">
	<ele>2210.80</ele>
	<time>2023-08-07T08:59:46.000Z</time>
</trkpt>
<trkpt lat="46.1235410" lon="10.5017350">
	<ele>2210.80</ele>
	<time>2023-08-07T08:59:47.000Z</time>
</trkpt>
<trkpt lat="46.1235400" lon="10.5017340">
	<ele>2210.80</ele>
	<time>2023-08-07T08:59:48.000Z</time>
</trkpt>
<trkpt lat="46.1235390" lon="10.5017340">
	<ele>2210.80</ele>
	<time>2023-08-07T08:59:49.000Z</time>
</trkpt>
<trkpt lat="46.1235390" lon="10.5017330">
	<ele>2210.80</ele>
	<time>2023-08-07T08:59:50.000Z</time>
</trkpt>
<trkpt lat="46.1235380" lon="10.5017330">
	<ele>2210.80</ele>
	<time>2023-08-07T08:59:51.000Z</time>
</trkpt>
<trkpt lat="46.1235380" lon="10.5017330">
	<ele>2210.80</ele>
	<time>2023-08-07T08:59:52.000Z</time>
</trkpt>
<trkpt lat="46.1235380" lon="10.5017320">
	<ele>2210.80</ele>
	<time>2023-08-07T08:59:53.000Z</time>
</trkpt>
<trkpt lat="46.1235380" lon="10.5017310">
	<ele>2210.80</ele>
	<time>2023-08-07T08:59:54.000Z</time>
</trkpt>
<trkpt lat="46.1235380" lon="10.5017310">
	<ele>2210.80</ele>
	<time>2023-08-07T08:59:55.000Z</time>
</trkpt>
<trkpt lat="46.1235380" lon="10.5017310">
	<ele>2210.80</ele>
	<time>2023-08-07T08:59:56.000Z</time>
</trkpt>
<trkpt lat="46.1235380" lon="10.5017310">
	<ele>2210.80</ele>
	<time>2023-08-07T08:59:57.000Z</time>
</trkpt>
<trkpt lat="46.1235380" lon="10.5017310">
	<ele>2210.80</ele>
	<time>2023-08-07T08:59:58.000Z</time>
</trkpt>
<trkpt lat="46.1235380" lon="10.5017310">
	<ele>2210.80</ele>
	<time>2023-08-07T08:59:59.000Z</time>
</trkpt>
<trkpt lat="46.1235380" lon="10.5017310">
	<ele>2210.80</ele>
	<time>2023-08-07T09:00:00.000Z</time>
</trkpt>
<trkpt lat="46.1235380" lon="10.5017310">
	<ele>2210.80</ele>
	<time>2023-08-07T09:00:01.000Z</time>
</trkpt>
<trkpt lat="46.1235380" lon="10.5017310">
	<ele>2210.80</ele>
	<time>2023-08-07T09:00:02.000Z</time>
</trkpt>
<trkpt lat="46.1235380" lon="10.5017310">
	<ele>2210.80</ele>
	<time>2023-08-07T09:00:03.000Z</time>
</trkpt>
<trkpt lat="46.1235380" lon="10.5017310">
	<ele>2210.80</ele>
	<time>2023-08-07T09:00:04.000Z</time>
</trkpt>
<trkpt lat="46.1235390" lon="10.5017310">
	<ele>2210.80</ele>
	<time>2023-08-07T09:00:05.000Z</time>
</trkpt>
<trkpt lat="46.1235400" lon="10.5017310">
	<ele>2210.80</ele>
	<time>2023-08-07T09:00:06.000Z</time>
</trkpt>
<trkpt lat="46.1235420" lon="10.5017310">
	<ele>2210.80</ele>
	<time>2023-08-07T09:00:07.000Z</time>
</trkpt>
<trkpt lat="46.1235430" lon="10.5017310">
	<ele>2210.80</ele>
	<time>2023-08-07T09:00:08.000Z</time>
</trkpt>
<trkpt lat="46.1235430" lon="10.5017320">
	<ele>2210.80</ele>
	<time>2023-08-07T09:00:09.000Z</time>
</trkpt>
<trkpt lat="46.1235440" lon="10.5017320">
	<ele>2210.80</ele>
	<time>2023-08-07T09:00:10.000Z</time>
</trkpt>
<trkpt lat="46.1235450" lon="10.5017320">
	<ele>2210.80</ele>
	<time>2023-08-07T09:00:11.000Z</time>
</trkpt>
<trkpt lat="46.1235450" lon="10.5017320">
	<ele>2210.80</ele>
	<time>2023-08-07T09:00:12.000Z</time>
</trkpt>
<trkpt lat="46.1235450" lon="10.5017320">
	<ele>2210.80</ele>
	<time>2023-08-07T09:00:13.000Z</time>
</trkpt>
<trkpt lat="46.1235450" lon="10.5017320">
	<ele>2210.80</ele>
	<time>2023-08-07T09:00:14.000Z</time>
</trkpt>
<trkpt lat="46.1235450" lon="10.5017330">
	<ele>2210.80</ele>
	<time>2023-08-07T09:00:15.000Z</time>
</trkpt>
<trkpt lat="46.1235460" lon="10.5017340">
	<ele>2210.80</ele>
	<time>2023-08-07T09:00:16.000Z</time>
</trkpt>
<trkpt lat="46.1235460" lon="10.5017340">
	<ele>2210.80</ele>
	<time>2023-08-07T09:00:17.000Z</time>
</trkpt>
<trkpt lat="46.1235460" lon="10.5017350">
	<ele>2210.80</ele>
	<time>2023-08-07T09:00:18.000Z</time>
</trkpt>
<trkpt lat="46.1235460" lon="10.5017350">
	<ele>2210.80</ele>
	<time>2023-08-07T09:00:19.000Z</time>
</trkpt>
<trkpt lat="46.1235460" lon="10.5017350">
	<ele>2210.80</ele>
	<time>2023-08-07T09:00:20.000Z</time>
</trkpt>
<trkpt lat="46.1235460" lon="10.5017360">
	<ele>2210.80</ele>
	<time>2023-08-07T09:00:21.000Z</time>
</trkpt>
<trkpt lat="46.1235460" lon="10.5017360">
	<ele>2210.80</ele>
	<time>2023-08-07T09:00:22.000Z</time>
</trkpt>
<trkpt lat="46.1235460" lon="10.5017370">
	<ele>2210.80</ele>
	<time>2023-08-07T09:00:23.000Z</time>
</trkpt>
<trkpt lat="46.1235460" lon="10.5017370">
	<ele>2210.80</ele>
	<time>2023-08-07T09:00:24.000Z</time>
</trkpt>
<trkpt lat="46.1235460" lon="10.5017380">
	<ele>2210.80</ele>
	<time>2023-08-07T09:00:25.000Z</time>
</trkpt>
<trkpt lat="46.1235460" lon="10.5017390">
	<ele>2210.80</ele>
	<time>2023-08-07T09:00:26.000Z</time>
</trkpt>
<trkpt lat="46.1235460" lon="10.5017390">
	<ele>2210.80</ele>
	<time>2023-08-07T09:00:27.000Z</time>
</trkpt>
<trkpt lat="46.1235470" lon="10.5017400">
	<ele>2210.80</ele>
	<time>2023-08-07T09:00:28.000Z</time>
</trkpt>
<trkpt lat="46.1235480" lon="10.5017400">
	<ele>2210.80</ele>
	<time>2023-08-07T09:00:29.000Z</time>
</trkpt>
<trkpt lat="46.1235480" lon="10.5017410">
	<ele>2210.80</ele>
	<time>2023-08-07T09:00:30.000Z</time>
</trkpt>
<trkpt lat="46.1235490" lon="10.5017410">
	<ele>2210.80</ele>
	<time>2023-08-07T09:00:31.000Z</time>
</trkpt>
<trkpt lat="46.1235490" lon="10.5017420">
	<ele>2210.80</ele>
	<time>2023-08-07T09:00:32.000Z</time>
</trkpt>
<trkpt lat="46.1235490" lon="10.5017420">
	<ele>2210.80</ele>
	<time>2023-08-07T09:00:33.000Z</time>
</trkpt>
<trkpt lat="46.1235490" lon="10.5017430">
	<ele>2210.80</ele>
	<time>2023-08-07T09:00:34.000Z</time>
</trkpt>
<trkpt lat="46.1235490" lon="10.5017450">
	<ele>2210.80</ele>
	<time>2023-08-07T09:00:35.000Z</time>
</trkpt>
<trkpt lat="46.1235490" lon="10.5017450">
	<ele>2210.80</ele>
	<time>2023-08-07T09:00:36.000Z</time>
</trkpt>
<trkpt lat="46.1235490" lon="10.5017460">
	<ele>2210.80</ele>
	<time>2023-08-07T09:00:37.000Z</time>
</trkpt>
<trkpt lat="46.1235490" lon="10.5017470">
	<ele>2210.80</ele>
	<time>2023-08-07T09:00:38.000Z</time>
</trkpt>
<trkpt lat="46.1235500" lon="10.5017480">
	<ele>2210.80</ele>
	<time>2023-08-07T09:00:39.000Z</time>
</trkpt>
<trkpt lat="46.1235520" lon="10.5017490">
	<ele>2210.80</ele>
	<time>2023-08-07T09:00:40.000Z</time>
</trkpt>
<trkpt lat="46.1235520" lon="10.5017510">
	<ele>2210.80</ele>
	<time>2023-08-07T09:00:41.000Z</time>
</trkpt>
<trkpt lat="46.1235540" lon="10.5017540">
	<ele>2210.80</ele>
	<time>2023-08-07T09:00:42.000Z</time>
</trkpt>
<trkpt lat="46.1235540" lon="10.5017560">
	<ele>2210.80</ele>
	<time>2023-08-07T09:00:43.000Z</time>
</trkpt>
<trkpt lat="46.1235550" lon="10.5017620">
	<ele>2210.80</ele>
	<time>2023-08-07T09:00:44.000Z</time>
</trkpt>
<trkpt lat="46.1235560" lon="10.5017670">
	<ele>2210.80</ele>
	<time>2023-08-07T09:00:45.000Z</time>
</trkpt>
<trkpt lat="46.1235570" lon="10.5017710">
	<ele>2210.80</ele>
	<time>2023-08-07T09:00:46.000Z</time>
</trkpt>
<trkpt lat="46.1235580" lon="10.5017730">
	<ele>2210.80</ele>
	<time>2023-08-07T09:00:47.000Z</time>
</trkpt>
<trkpt lat="46.1235580" lon="10.5017740">
	<ele>2210.80</ele>
	<time>2023-08-07T09:00:48.000Z</time>
</trkpt>
<trkpt lat="46.1235590" lon="10.5017740">
	<ele>2210.80</ele>
	<time>2023-08-07T09:00:49.000Z</time>
</trkpt>
<trkpt lat="46.1235590" lon="10.5017750">
	<ele>2210.80</ele>
	<time>2023-08-07T09:00:50.000Z</time>
</trkpt>
<trkpt lat="46.1235600" lon="10.5017760">
	<ele>2210.80</ele>
	<time>2023-08-07T09:00:51.000Z</time>
</trkpt>
<trkpt lat="46.1235600" lon="10.5017770">
	<ele>2210.80</ele>
	<time>2023-08-07T09:00:52.000Z</time>
</trkpt>
<trkpt lat="46.1235600" lon="10.5017780">
	<ele>2210.80</ele>
	<time>2023-08-07T09:00:53.000Z</time>
</trkpt>
<trkpt lat="46.1235610" lon="10.5017790">
	<ele>2210.80</ele>
	<time>2023-08-07T09:00:54.000Z</time>
</trkpt>
<trkpt lat="46.1235620" lon="10.5017790">
	<ele>2210.80</ele>
	<time>2023-08-07T09:00:55.000Z</time>
</trkpt>
<trkpt lat="46.1235620" lon="10.5017800">
	<ele>2210.80</ele>
	<time>2023-08-07T09:00:56.000Z</time>
</trkpt>
<trkpt lat="46.1235630" lon="10.5017800">
	<ele>2210.80</ele>
	<time>2023-08-07T09:00:57.000Z</time>
</trkpt>
<trkpt lat="46.1235630" lon="10.5017810">
	<ele>2210.80</ele>
	<time>2023-08-07T09:00:58.000Z</time>
</trkpt>
<trkpt lat="46.1235640" lon="10.5017810">
	<ele>2210.80</ele>
	<time>2023-08-07T09:00:59.000Z</time>
</trkpt>
<trkpt lat="46.1235640" lon="10.5017820">
	<ele>2210.80</ele>
	<time>2023-08-07T09:01:00.000Z</time>
</trkpt>
<trkpt lat="46.1235640" lon="10.5017820">
	<ele>2210.80</ele>
	<time>2023-08-07T09:01:01.000Z</time>
</trkpt>
<trkpt lat="46.1235640" lon="10.5017830">
	<ele>2210.80</ele>
	<time>2023-08-07T09:01:02.000Z</time>
</trkpt>
<trkpt lat="46.1235640" lon="10.5017830">
	<ele>2210.80</ele>
	<time>2023-08-07T09:01:03.000Z</time>
</trkpt>
<trkpt lat="46.1235630" lon="10.5017830">
	<ele>2210.80</ele>
	<time>2023-08-07T09:01:04.000Z</time>
</trkpt>
<trkpt lat="46.1235630" lon="10.5017830">
	<ele>2210.80</ele>
	<time>2023-08-07T09:01:05.000Z</time>
</trkpt>
<trkpt lat="46.1235630" lon="10.5017830">
	<ele>2210.80</ele>
	<time>2023-08-07T09:01:06.000Z</time>
</trkpt>
<trkpt lat="46.1235630" lon="10.5017830">
	<ele>2210.80</ele>
	<time>2023-08-07T09:01:07.000Z</time>
</trkpt>
<trkpt lat="46.1235630" lon="10.5017830">
	<ele>2210.80</ele>
	<time>2023-08-07T09:01:08.000Z</time>
</trkpt>
<trkpt lat="46.1235620" lon="10.5017830">
	<ele>2210.80</ele>
	<time>2023-08-07T09:01:09.000Z</time>
</trkpt>
<trkpt lat="46.1235620" lon="10.5017830">
	<ele>2210.80</ele>
	<time>2023-08-07T09:01:10.000Z</time>
</trkpt>
<trkpt lat="46.1235620" lon="10.5017830">
	<ele>2210.80</ele>
	<time>2023-08-07T09:01:11.000Z</time>
</trkpt>
<trkpt lat="46.1235620" lon="10.5017830">
	<ele>2210.80</ele>
	<time>2023-08-07T09:01:12.000Z</time>
</trkpt>
<trkpt lat="46.1235620" lon="10.5017830">
	<ele>2210.80</ele>
	<time>2023-08-07T09:01:13.000Z</time>
</trkpt>
<trkpt lat="46.1235620" lon="10.5017830">
	<ele>2210.80</ele>
	<time>2023-08-07T09:01:14.000Z</time>
</trkpt>
<trkpt lat="46.1235620" lon="10.5017830">
	<ele>2210.80</ele>
	<time>2023-08-07T09:01:15.000Z</time>
</trkpt>
<trkpt lat="46.1235620" lon="10.5017830">
	<ele>2210.80</ele>
	<time>2023-08-07T09:01:16.000Z</time>
</trkpt>
<trkpt lat="46.1235610" lon="10.5017820">
	<ele>2210.80</ele>
	<time>2023-08-07T09:01:17.000Z</time>
</trkpt>
<trkpt lat="46.1235610" lon="10.5017820">
	<ele>2210.80</ele>
	<time>2023-08-07T09:01:18.000Z</time>
</trkpt>
<trkpt lat="46.1235590" lon="10.5017810">
	<ele>2210.80</ele>
	<time>2023-08-07T09:01:19.000Z</time>
</trkpt>
<trkpt lat="46.1235570" lon="10.5017800">
	<ele>2210.80</ele>
	<time>2023-08-07T09:01:20.000Z</time>
</trkpt>
<trkpt lat="46.1235560" lon="10.5017790">
	<ele>2210.80</ele>
	<time>2023-08-07T09:01:21.000Z</time>
</trkpt>
<trkpt lat="46.1235550" lon="10.5017780">
	<ele>2210.80</ele>
	<time>2023-08-07T09:01:22.000Z</time>
</trkpt>
<trkpt lat="46.1235530" lon="10.5017780">
	<ele>2210.80</ele>
	<time>2023-08-07T09:01:23.000Z</time>
</trkpt>
<trkpt lat="46.1235520" lon="10.5017770">
	<ele>2210.80</ele>
	<time>2023-08-07T09:01:24.000Z</time>
</trkpt>
<trkpt lat="46.1235510" lon="10.5017770">
	<ele>2210.80</ele>
	<time>2023-08-07T09:01:25.000Z</time>
</trkpt>
<trkpt lat="46.1235510" lon="10.5017770">
	<ele>2210.80</ele>
	<time>2023-08-07T09:01:26.000Z</time>
</trkpt>
<trkpt lat="46.1235500" lon="10.5017770">
	<ele>2210.80</ele>
	<time>2023-08-07T09:01:27.000Z</time>
</trkpt>
<trkpt lat="46.1235500" lon="10.5017760">
	<ele>2210.80</ele>
	<time>2023-08-07T09:01:28.000Z</time>
</trkpt>
<trkpt lat="46.1235490" lon="10.5017760">
	<ele>2210.80</ele>
	<time>2023-08-07T09:01:29.000Z</time>
</trkpt>
<trkpt lat="46.1235490" lon="10.5017760">
	<ele>2210.80</ele>
	<time>2023-08-07T09:01:30.000Z</time>
</trkpt>
<trkpt lat="46.1235490" lon="10.5017750">
	<ele>2210.80</ele>
	<time>2023-08-07T09:01:31.000Z</time>
</trkpt>
<trkpt lat="46.1235480" lon="10.5017750">
	<ele>2210.80</ele>
	<time>2023-08-07T09:01:32.000Z</time>
</trkpt>
<trkpt lat="46.1235480" lon="10.5017740">
	<ele>2210.80</ele>
	<time>2023-08-07T09:01:33.000Z</time>
</trkpt>
<trkpt lat="46.1235470" lon="10.5017730">
	<ele>2210.80</ele>
	<time>2023-08-07T09:01:34.000Z</time>
</trkpt>
<trkpt lat="46.1235450" lon="10.5017720">
	<ele>2210.80</ele>
	<time>2023-08-07T09:01:35.000Z</time>
</trkpt>
<trkpt lat="46.1235440" lon="10.5017700">
	<ele>2210.80</ele>
	<time>2023-08-07T09:01:36.000Z</time>
</trkpt>
<trkpt lat="46.1235420" lon="10.5017690">
	<ele>2210.80</ele>
	<time>2023-08-07T09:01:37.000Z</time>
</trkpt>
<trkpt lat="46.1235410" lon="10.5017680">
	<ele>2210.80</ele>
	<time>2023-08-07T09:01:38.000Z</time>
</trkpt>
<trkpt lat="46.1235400" lon="10.5017670">
	<ele>2210.80</ele>
	<time>2023-08-07T09:01:39.000Z</time>
</trkpt>
<trkpt lat="46.1235400" lon="10.5017670">
	<ele>2210.80</ele>
	<time>2023-08-07T09:01:40.000Z</time>
</trkpt>
<trkpt lat="46.1235390" lon="10.5017670">
	<ele>2210.80</ele>
	<time>2023-08-07T09:01:41.000Z</time>
</trkpt>
<trkpt lat="46.1235380" lon="10.5017660">
	<ele>2210.80</ele>
	<time>2023-08-07T09:01:42.000Z</time>
</trkpt>
<trkpt lat="46.1235380" lon="10.5017650">
	<ele>2210.80</ele>
	<time>2023-08-07T09:01:43.000Z</time>
</trkpt>
<trkpt lat="46.1235370" lon="10.5017650">
	<ele>2210.80</ele>
	<time>2023-08-07T09:01:44.000Z</time>
</trkpt>
<trkpt lat="46.1235350" lon="10.5017640">
	<ele>2210.80</ele>
	<time>2023-08-07T09:01:45.000Z</time>
</trkpt>
<trkpt lat="46.1235360" lon="10.5017640">
	<ele>2210.80</ele>
	<time>2023-08-07T09:01:46.000Z</time>
</trkpt>
<trkpt lat="46.1235430" lon="10.5017690">
	<ele>2210.80</ele>
	<time>2023-08-07T09:01:47.000Z</time>
</trkpt>
<trkpt lat="46.1235510" lon="10.5017750">
	<ele>2210.80</ele>
	<time>2023-08-07T09:01:48.000Z</time>
</trkpt>
<trkpt lat="46.1235540" lon="10.5017770">
	<ele>2210.80</ele>
	<time>2023-08-07T09:01:49.000Z</time>
</trkpt>
<trkpt lat="46.1235570" lon="10.5017780">
	<ele>2210.80</ele>
	<time>2023-08-07T09:01:50.000Z</time>
</trkpt>
<trkpt lat="46.1235580" lon="10.5017770">
	<ele>2210.80</ele>
	<time>2023-08-07T09:01:51.000Z</time>
</trkpt>
<trkpt lat="46.1235580" lon="10.5017760">
	<ele>2210.80</ele>
	<time>2023-08-07T09:01:52.000Z</time>
</trkpt>
<trkpt lat="46.1235580" lon="10.5017760">
	<ele>2210.80</ele>
	<time>2023-08-07T09:01:53.000Z</time>
</trkpt>
<trkpt lat="46.1235580" lon="10.5017760">
	<ele>2210.80</ele>
	<time>2023-08-07T09:01:54.000Z</time>
</trkpt>
<trkpt lat="46.1235580" lon="10.5017760">
	<ele>2210.80</ele>
	<time>2023-08-07T09:01:55.000Z</time>
</trkpt>
<trkpt lat="46.1235580" lon="10.5017760">
	<ele>2210.80</ele>
	<time>2023-08-07T09:01:56.000Z</time>
</trkpt>
<trkpt lat="46.1235580" lon="10.5017760">
	<ele>2210.80</ele>
	<time>2023-08-07T09:01:57.000Z</time>
</trkpt>
<trkpt lat="46.1235580" lon="10.5017760">
	<ele>2210.80</ele>
	<time>2023-08-07T09:01:58.000Z</time>
</trkpt>
<trkpt lat="46.1235580" lon="10.5017760">
	<ele>2210.80</ele>
	<time>2023-08-07T09:01:59.000Z</time>
</trkpt>
<trkpt lat="46.1235600" lon="10.5017780">
	<ele>2210.80</ele>
	<time>2023-08-07T09:02:00.000Z</time>
</trkpt>
<trkpt lat="46.1235600" lon="10.5017780">
	<ele>2210.80</ele>
	<time>2023-08-07T09:02:01.000Z</time>
</trkpt>
<trkpt lat="46.1235570" lon="10.5017780">
	<ele>2210.80</ele>
	<time>2023-08-07T09:02:02.000Z</time>
</trkpt>
<trkpt lat="46.1235600" lon="10.5017820">
	<ele>2210.80</ele>
	<time>2023-08-07T09:02:03.000Z</time>
</trkpt>
<trkpt lat="46.1235600" lon="10.5017820">
	<ele>2210.80</ele>
	<time>2023-08-07T09:02:04.000Z</time>
</trkpt>
<trkpt lat="46.1235600" lon="10.5017820">
	<ele>2210.80</ele>
	<time>2023-08-07T09:02:05.000Z</time>
</trkpt>
<trkpt lat="46.1235600" lon="10.5017820">
	<ele>2210.80</ele>
	<time>2023-08-07T09:02:06.000Z</time>
</trkpt>
<trkpt lat="46.1235600" lon="10.5017820">
	<ele>2210.80</ele>
	<time>2023-08-07T09:02:07.000Z</time>
</trkpt>
<trkpt lat="46.1235600" lon="10.5017820">
	<ele>2210.80</ele>
	<time>2023-08-07T09:02:08.000Z</time>
</trkpt>
<trkpt lat="46.1235600" lon="10.5017820">
	<ele>2210.80</ele>
	<time>2023-08-07T09:02:09.000Z</time>
</trkpt>
<trkpt lat="46.1235680" lon="10.5017830">
	<ele>2210.80</ele>
	<time>2023-08-07T09:02:10.000Z</time>
</trkpt>
<trkpt lat="46.1235690" lon="10.5017830">
	<ele>2210.80</ele>
	<time>2023-08-07T09:02:11.000Z</time>
</trkpt>
<trkpt lat="46.1235710" lon="10.5017850">
	<ele>2210.80</ele>
	<time>2023-08-07T09:02:12.000Z</time>
</trkpt>
<trkpt lat="46.1235760" lon="10.5017890">
	<ele>2210.80</ele>
	<time>2023-08-07T09:02:13.000Z</time>
</trkpt>
<trkpt lat="46.1235760" lon="10.5017940">
	<ele>2210.80</ele>
	<time>2023-08-07T09:02:14.000Z</time>
</trkpt>
<trkpt lat="46.1235770" lon="10.5017950">
	<ele>2210.80</ele>
	<time>2023-08-07T09:02:15.000Z</time>
</trkpt>
<trkpt lat="46.1235780" lon="10.5017950">
	<ele>2210.80</ele>
	<time>2023-08-07T09:02:16.000Z</time>
</trkpt>
<trkpt lat="46.1235780" lon="10.5017950">
	<ele>2210.80</ele>
	<time>2023-08-07T09:02:17.000Z</time>
</trkpt>
<trkpt lat="46.1235780" lon="10.5017950">
	<ele>2210.80</ele>
	<time>2023-08-07T09:02:18.000Z</time>
</trkpt>
<trkpt lat="46.1235790" lon="10.5017950">
	<ele>2210.80</ele>
	<time>2023-08-07T09:02:19.000Z</time>
</trkpt>
<trkpt lat="46.1235790" lon="10.5017950">
	<ele>2210.80</ele>
	<time>2023-08-07T09:02:20.000Z</time>
</trkpt>
<trkpt lat="46.1235800" lon="10.5017950">
	<ele>2210.80</ele>
	<time>2023-08-07T09:02:21.000Z</time>
</trkpt>
<trkpt lat="46.1235800" lon="10.5017950">
	<ele>2210.80</ele>
	<time>2023-08-07T09:02:22.000Z</time>
</trkpt>
<trkpt lat="46.1235810" lon="10.5017950">
	<ele>2210.80</ele>
	<time>2023-08-07T09:02:23.000Z</time>
</trkpt>
<trkpt lat="46.1235810" lon="10.5017950">
	<ele>2210.80</ele>
	<time>2023-08-07T09:02:24.000Z</time>
</trkpt>
<trkpt lat="46.1235810" lon="10.5017950">
	<ele>2210.80</ele>
	<time>2023-08-07T09:02:25.000Z</time>
</trkpt>
<trkpt lat="46.1235810" lon="10.5017950">
	<ele>2210.80</ele>
	<time>2023-08-07T09:02:26.000Z</time>
</trkpt>
<trkpt lat="46.1235810" lon="10.5017950">
	<ele>2210.80</ele>
	<time>2023-08-07T09:02:27.000Z</time>
</trkpt>
<trkpt lat="46.1235810" lon="10.5017950">
	<ele>2210.80</ele>
	<time>2023-08-07T09:02:28.000Z</time>
</trkpt>
<trkpt lat="46.1235810" lon="10.5017940">
	<ele>2210.80</ele>
	<time>2023-08-07T09:02:29.000Z</time>
</trkpt>
<trkpt lat="46.1235800" lon="10.5017940">
	<ele>2210.80</ele>
	<time>2023-08-07T09:02:30.000Z</time>
</trkpt>
<trkpt lat="46.1235800" lon="10.5017930">
	<ele>2210.80</ele>
	<time>2023-08-07T09:02:31.000Z</time>
</trkpt>
<trkpt lat="46.1235810" lon="10.5017930">
	<ele>2210.80</ele>
	<time>2023-08-07T09:02:32.000Z</time>
</trkpt>
<trkpt lat="46.1235810" lon="10.5017930">
	<ele>2210.80</ele>
	<time>2023-08-07T09:02:33.000Z</time>
</trkpt>
<trkpt lat="46.1235810" lon="10.5017930">
	<ele>2210.80</ele>
	<time>2023-08-07T09:02:34.000Z</time>
</trkpt>
<trkpt lat="46.1235820" lon="10.5017930">
	<ele>2210.80</ele>
	<time>2023-08-07T09:02:35.000Z</time>
</trkpt>
<trkpt lat="46.1235820" lon="10.5017930">
	<ele>2210.80</ele>
	<time>2023-08-07T09:02:36.000Z</time>
</trkpt>
<trkpt lat="46.1235820" lon="10.5017930">
	<ele>2210.80</ele>
	<time>2023-08-07T09:02:37.000Z</time>
</trkpt>
<trkpt lat="46.1235820" lon="10.5017930">
	<ele>2210.80</ele>
	<time>2023-08-07T09:02:38.000Z</time>
</trkpt>
<trkpt lat="46.1235820" lon="10.5017930">
	<ele>2210.80</ele>
	<time>2023-08-07T09:02:39.000Z</time>
</trkpt>
<trkpt lat="46.1235820" lon="10.5017930">
	<ele>2210.80</ele>
	<time>2023-08-07T09:02:40.000Z</time>
</trkpt>
<trkpt lat="46.1235810" lon="10.5017920">
	<ele>2210.80</ele>
	<time>2023-08-07T09:02:41.000Z</time>
</trkpt>
<trkpt lat="46.1235810" lon="10.5017920">
	<ele>2210.80</ele>
	<time>2023-08-07T09:02:42.000Z</time>
</trkpt>
<trkpt lat="46.1235810" lon="10.5017920">
	<ele>2210.80</ele>
	<time>2023-08-07T09:02:43.000Z</time>
</trkpt>
<trkpt lat="46.1235810" lon="10.5017920">
	<ele>2210.80</ele>
	<time>2023-08-07T09:02:44.000Z</time>
</trkpt>
<trkpt lat="46.1235810" lon="10.5017920">
	<ele>2210.80</ele>
	<time>2023-08-07T09:02:45.000Z</time>
</trkpt>
<trkpt lat="46.1235810" lon="10.5017920">
	<ele>2210.80</ele>
	<time>2023-08-07T09:02:46.000Z</time>
</trkpt>
<trkpt lat="46.1235800" lon="10.5017920">
	<ele>2210.80</ele>
	<time>2023-08-07T09:02:47.000Z</time>
</trkpt>
<trkpt lat="46.1235800" lon="10.5017910">
	<ele>2210.80</ele>
	<time>2023-08-07T09:02:48.000Z</time>
</trkpt>
<trkpt lat="46.1235800" lon="10.5017910">
	<ele>2210.80</ele>
	<time>2023-08-07T09:02:49.000Z</time>
</trkpt>
<trkpt lat="46.1235790" lon="10.5017900">
	<ele>2210.80</ele>
	<time>2023-08-07T09:02:50.000Z</time>
</trkpt>
<trkpt lat="46.1235790" lon="10.5017890">
	<ele>2210.80</ele>
	<time>2023-08-07T09:02:51.000Z</time>
</trkpt>
<trkpt lat="46.1235780" lon="10.5017880">
	<ele>2210.80</ele>
	<time>2023-08-07T09:02:52.000Z</time>
</trkpt>
<trkpt lat="46.1235780" lon="10.5017870">
	<ele>2210.80</ele>
	<time>2023-08-07T09:02:53.000Z</time>
</trkpt>
<trkpt lat="46.1235780" lon="10.5017870">
	<ele>2210.80</ele>
	<time>2023-08-07T09:02:54.000Z</time>
</trkpt>
<trkpt lat="46.1235780" lon="10.5017870">
	<ele>2210.80</ele>
	<time>2023-08-07T09:02:55.000Z</time>
</trkpt>
<trkpt lat="46.1235750" lon="10.5017840">
	<ele>2210.80</ele>
	<time>2023-08-07T09:02:56.000Z</time>
</trkpt>
<trkpt lat="46.1235710" lon="10.5017790">
	<ele>2210.80</ele>
	<time>2023-08-07T09:02:57.000Z</time>
</trkpt>
<trkpt lat="46.1235670" lon="10.5017720">
	<ele>2210.80</ele>
	<time>2023-08-07T09:02:58.000Z</time>
</trkpt>
<trkpt lat="46.1235630" lon="10.5017690">
	<ele>2210.80</ele>
	<time>2023-08-07T09:02:59.000Z</time>
</trkpt>
<trkpt lat="46.1235600" lon="10.5017670">
	<ele>2210.80</ele>
	<time>2023-08-07T09:03:00.000Z</time>
</trkpt>
<trkpt lat="46.1235560" lon="10.5017640">
	<ele>2210.80</ele>
	<time>2023-08-07T09:03:01.000Z</time>
</trkpt>
<trkpt lat="46.1235540" lon="10.5017630">
	<ele>2210.80</ele>
	<time>2023-08-07T09:03:02.000Z</time>
</trkpt>
<trkpt lat="46.1235530" lon="10.5017630">
	<ele>2210.80</ele>
	<time>2023-08-07T09:03:03.000Z</time>
</trkpt>
<trkpt lat="46.1235520" lon="10.5017620">
	<ele>2210.80</ele>
	<time>2023-08-07T09:03:04.000Z</time>
</trkpt>
<trkpt lat="46.1235510" lon="10.5017610">
	<ele>2210.80</ele>
	<time>2023-08-07T09:03:05.000Z</time>
</trkpt>
<trkpt lat="46.1235500" lon="10.5017610">
	<ele>2210.80</ele>
	<time>2023-08-07T09:03:06.000Z</time>
</trkpt>
<trkpt lat="46.1235490" lon="10.5017600">
	<ele>2210.80</ele>
	<time>2023-08-07T09:03:07.000Z</time>
</trkpt>
<trkpt lat="46.1235480" lon="10.5017600">
	<ele>2210.80</ele>
	<time>2023-08-07T09:03:08.000Z</time>
</trkpt>
<trkpt lat="46.1235460" lon="10.5017590">
	<ele>2210.80</ele>
	<time>2023-08-07T09:03:09.000Z</time>
</trkpt>
<trkpt lat="46.1235430" lon="10.5017550">
	<ele>2210.80</ele>
	<time>2023-08-07T09:03:10.000Z</time>
</trkpt>
<trkpt lat="46.1235400" lon="10.5017520">
	<ele>2210.80</ele>
	<time>2023-08-07T09:03:11.000Z</time>
</trkpt>
<trkpt lat="46.1235380" lon="10.5017500">
	<ele>2210.80</ele>
	<time>2023-08-07T09:03:12.000Z</time>
</trkpt>
<trkpt lat="46.1235350" lon="10.5017480">
	<ele>2210.80</ele>
	<time>2023-08-07T09:03:13.000Z</time>
</trkpt>
<trkpt lat="46.1235310" lon="10.5017450">
	<ele>2210.80</ele>
	<time>2023-08-07T09:03:14.000Z</time>
</trkpt>
<trkpt lat="46.1235300" lon="10.5017440">
	<ele>2210.80</ele>
	<time>2023-08-07T09:03:15.000Z</time>
</trkpt>
<trkpt lat="46.1235280" lon="10.5017420">
	<ele>2210.80</ele>
	<time>2023-08-07T09:03:16.000Z</time>
</trkpt>
<trkpt lat="46.1235260" lon="10.5017390">
	<ele>2210.80</ele>
	<time>2023-08-07T09:03:17.000Z</time>
</trkpt>
<trkpt lat="46.1235230" lon="10.5017360">
	<ele>2210.80</ele>
	<time>2023-08-07T09:03:18.000Z</time>
</trkpt>
<trkpt lat="46.1235220" lon="10.5017350">
	<ele>2210.80</ele>
	<time>2023-08-07T09:03:19.000Z</time>
</trkpt>
<trkpt lat="46.1235210" lon="10.5017340">
	<ele>2210.80</ele>
	<time>2023-08-07T09:03:20.000Z</time>
</trkpt>
<trkpt lat="46.1235200" lon="10.5017330">
	<ele>2210.80</ele>
	<time>2023-08-07T09:03:21.000Z</time>
</trkpt>
<trkpt lat="46.1235200" lon="10.5017320">
	<ele>2210.80</ele>
	<time>2023-08-07T09:03:22.000Z</time>
</trkpt>
<trkpt lat="46.1235190" lon="10.5017310">
	<ele>2210.80</ele>
	<time>2023-08-07T09:03:23.000Z</time>
</trkpt>
<trkpt lat="46.1235170" lon="10.5017300">
	<ele>2210.80</ele>
	<time>2023-08-07T09:03:24.000Z</time>
</trkpt>
<trkpt lat="46.1235170" lon="10.5017300">
	<ele>2210.80</ele>
	<time>2023-08-07T09:03:25.000Z</time>
</trkpt>
<trkpt lat="46.1235160" lon="10.5017280">
	<ele>2210.80</ele>
	<time>2023-08-07T09:03:26.000Z</time>
</trkpt>
<trkpt lat="46.1235150" lon="10.5017250">
	<ele>2210.80</ele>
	<time>2023-08-07T09:03:27.000Z</time>
</trkpt>
<trkpt lat="46.1235140" lon="10.5017230">
	<ele>2210.80</ele>
	<time>2023-08-07T09:03:28.000Z</time>
</trkpt>
<trkpt lat="46.1235130" lon="10.5017220">
	<ele>2210.80</ele>
	<time>2023-08-07T09:03:29.000Z</time>
</trkpt>
<trkpt lat="46.1235120" lon="10.5017220">
	<ele>2210.80</ele>
	<time>2023-08-07T09:03:30.000Z</time>
</trkpt>
<trkpt lat="46.1235120" lon="10.5017220">
	<ele>2210.80</ele>
	<time>2023-08-07T09:03:31.000Z</time>
</trkpt>
<trkpt lat="46.1235120" lon="10.5017210">
	<ele>2210.80</ele>
	<time>2023-08-07T09:03:32.000Z</time>
</trkpt>
<trkpt lat="46.1235120" lon="10.5017210">
	<ele>2210.80</ele>
	<time>2023-08-07T09:03:33.000Z</time>
</trkpt>
<trkpt lat="46.1235120" lon="10.5017210">
	<ele>2210.80</ele>
	<time>2023-08-07T09:03:34.000Z</time>
</trkpt>
<trkpt lat="46.1235110" lon="10.5017200">
	<ele>2210.80</ele>
	<time>2023-08-07T09:03:35.000Z</time>
</trkpt>
<trkpt lat="46.1235110" lon="10.5017200">
	<ele>2210.80</ele>
	<time>2023-08-07T09:03:36.000Z</time>
</trkpt>
<trkpt lat="46.1235110" lon="10.5017200">
	<ele>2210.80</ele>
	<time>2023-08-07T09:03:37.000Z</time>
</trkpt>
<trkpt lat="46.1235100" lon="10.5017190">
	<ele>2210.80</ele>
	<time>2023-08-07T09:03:38.000Z</time>
</trkpt>
<trkpt lat="46.1235090" lon="10.5017180">
	<ele>2210.80</ele>
	<time>2023-08-07T09:03:39.000Z</time>
</trkpt>
<trkpt lat="46.1235080" lon="10.5017160">
	<ele>2210.80</ele>
	<time>2023-08-07T09:03:40.000Z</time>
</trkpt>
<trkpt lat="46.1235060" lon="10.5017150">
	<ele>2210.80</ele>
	<time>2023-08-07T09:03:41.000Z</time>
</trkpt>
<trkpt lat="46.1235040" lon="10.5017130">
	<ele>2210.80</ele>
	<time>2023-08-07T09:03:42.000Z</time>
</trkpt>
<trkpt lat="46.1235020" lon="10.5017120">
	<ele>2210.80</ele>
	<time>2023-08-07T09:03:43.000Z</time>
</trkpt>
<trkpt lat="46.1235000" lon="10.5017110">
	<ele>2210.80</ele>
	<time>2023-08-07T09:03:44.000Z</time>
</trkpt>
<trkpt lat="46.1234980" lon="10.5017110">
	<ele>2210.80</ele>
	<time>2023-08-07T09:03:45.000Z</time>
</trkpt>
<trkpt lat="46.1234980" lon="10.5017100">
	<ele>2210.80</ele>
	<time>2023-08-07T09:03:46.000Z</time>
</trkpt>
<trkpt lat="46.1234970" lon="10.5017100">
	<ele>2210.80</ele>
	<time>2023-08-07T09:03:47.000Z</time>
</trkpt>
<trkpt lat="46.1234970" lon="10.5017100">
	<ele>2210.80</ele>
	<time>2023-08-07T09:03:48.000Z</time>
</trkpt>
<trkpt lat="46.1234970" lon="10.5017100">
	<ele>2210.80</ele>
	<time>2023-08-07T09:03:49.000Z</time>
</trkpt>
<trkpt lat="46.1234960" lon="10.5017100">
	<ele>2210.80</ele>
	<time>2023-08-07T09:03:50.000Z</time>
</trkpt>
<trkpt lat="46.1234960" lon="10.5017100">
	<ele>2210.80</ele>
	<time>2023-08-07T09:03:51.000Z</time>
</trkpt>
<trkpt lat="46.1234960" lon="10.5017100">
	<ele>2210.80</ele>
	<time>2023-08-07T09:03:52.000Z</time>
</trkpt>
<trkpt lat="46.1234960" lon="10.5017100">
	<ele>2210.80</ele>
	<time>2023-08-07T09:03:53.000Z</time>
</trkpt>
<trkpt lat="46.1234950" lon="10.5017090">
	<ele>2210.80</ele>
	<time>2023-08-07T09:03:54.000Z</time>
</trkpt>
<trkpt lat="46.1234950" lon="10.5017090">
	<ele>2210.80</ele>
	<time>2023-08-07T09:03:55.000Z</time>
</trkpt>
<trkpt lat="46.1234950" lon="10.5017090">
	<ele>2210.80</ele>
	<time>2023-08-07T09:03:56.000Z</time>
</trkpt>
<trkpt lat="46.1234940" lon="10.5017090">
	<ele>2210.80</ele>
	<time>2023-08-07T09:03:57.000Z</time>
</trkpt>
<trkpt lat="46.1234940" lon="10.5017080">
	<ele>2210.80</ele>
	<time>2023-08-07T09:03:58.000Z</time>
</trkpt>
<trkpt lat="46.1234940" lon="10.5017080">
	<ele>2210.80</ele>
	<time>2023-08-07T09:03:59.000Z</time>
</trkpt>
<trkpt lat="46.1234940" lon="10.5017080">
	<ele>2210.80</ele>
	<time>2023-08-07T09:04:00.000Z</time>
</trkpt>
<trkpt lat="46.1234930" lon="10.5017080">
	<ele>2210.80</ele>
	<time>2023-08-07T09:04:01.000Z</time>
</trkpt>
<trkpt lat="46.1234930" lon="10.5017080">
	<ele>2210.80</ele>
	<time>2023-08-07T09:04:02.000Z</time>
</trkpt>
<trkpt lat="46.1234930" lon="10.5017080">
	<ele>2210.80</ele>
	<time>2023-08-07T09:04:03.000Z</time>
</trkpt>
<trkpt lat="46.1234930" lon="10.5017080">
	<ele>2210.80</ele>
	<time>2023-08-07T09:04:04.000Z</time>
</trkpt>
<trkpt lat="46.1234930" lon="10.5017080">
	<ele>2210.80</ele>
	<time>2023-08-07T09:04:05.000Z</time>
</trkpt>
<trkpt lat="46.1234920" lon="10.5017080">
	<ele>2210.80</ele>
	<time>2023-08-07T09:04:06.000Z</time>
</trkpt>
<trkpt lat="46.1234920" lon="10.5017080">
	<ele>2210.80</ele>
	<time>2023-08-07T09:04:07.000Z</time>
</trkpt>
<trkpt lat="46.1234920" lon="10.5017080">
	<ele>2210.80</ele>
	<time>2023-08-07T09:04:08.000Z</time>
</trkpt>
<trkpt lat="46.1234910" lon="10.5017080">
	<ele>2210.80</ele>
	<time>2023-08-07T09:04:09.000Z</time>
</trkpt>
<trkpt lat="46.1234910" lon="10.5017080">
	<ele>2210.80</ele>
	<time>2023-08-07T09:04:10.000Z</time>
</trkpt>
<trkpt lat="46.1234910" lon="10.5017080">
	<ele>2210.80</ele>
	<time>2023-08-07T09:04:11.000Z</time>
</trkpt>
<trkpt lat="46.1234910" lon="10.5017070">
	<ele>2210.80</ele>
	<time>2023-08-07T09:04:12.000Z</time>
</trkpt>
<trkpt lat="46.1234900" lon="10.5017060">
	<ele>2210.80</ele>
	<time>2023-08-07T09:04:13.000Z</time>
</trkpt>
<trkpt lat="46.1234890" lon="10.5017060">
	<ele>2210.80</ele>
	<time>2023-08-07T09:04:14.000Z</time>
</trkpt>
<trkpt lat="46.1234890" lon="10.5017060">
	<ele>2210.80</ele>
	<time>2023-08-07T09:04:15.000Z</time>
</trkpt>
<trkpt lat="46.1234880" lon="10.5017050">
	<ele>2210.80</ele>
	<time>2023-08-07T09:04:16.000Z</time>
</trkpt>
<trkpt lat="46.1234870" lon="10.5017040">
	<ele>2210.80</ele>
	<time>2023-08-07T09:04:17.000Z</time>
</trkpt>
<trkpt lat="46.1234870" lon="10.5017040">
	<ele>2210.80</ele>
	<time>2023-08-07T09:04:18.000Z</time>
</trkpt>
<trkpt lat="46.1234860" lon="10.5017030">
	<ele>2210.80</ele>
	<time>2023-08-07T09:04:19.000Z</time>
</trkpt>
<trkpt lat="46.1234850" lon="10.5017030">
	<ele>2210.80</ele>
	<time>2023-08-07T09:04:20.000Z</time>
</trkpt>
<trkpt lat="46.1234830" lon="10.5017030">
	<ele>2210.80</ele>
	<time>2023-08-07T09:04:21.000Z</time>
</trkpt>
<trkpt lat="46.1234820" lon="10.5017030">
	<ele>2210.80</ele>
	<time>2023-08-07T09:04:22.000Z</time>
</trkpt>
<trkpt lat="46.1234810" lon="10.5017030">
	<ele>2210.80</ele>
	<time>2023-08-07T09:04:23.000Z</time>
</trkpt>
<trkpt lat="46.1234800" lon="10.5017030">
	<ele>2210.80</ele>
	<time>2023-08-07T09:04:24.000Z</time>
</trkpt>
<trkpt lat="46.1234790" lon="10.5017020">
	<ele>2210.80</ele>
	<time>2023-08-07T09:04:25.000Z</time>
</trkpt>
<trkpt lat="46.1234780" lon="10.5017020">
	<ele>2210.80</ele>
	<time>2023-08-07T09:04:26.000Z</time>
</trkpt>
<trkpt lat="46.1234780" lon="10.5017020">
	<ele>2210.80</ele>
	<time>2023-08-07T09:04:27.000Z</time>
</trkpt>
<trkpt lat="46.1234770" lon="10.5017020">
	<ele>2210.80</ele>
	<time>2023-08-07T09:04:28.000Z</time>
</trkpt>
<trkpt lat="46.1234770" lon="10.5017020">
	<ele>2210.80</ele>
	<time>2023-08-07T09:04:29.000Z</time>
</trkpt>
<trkpt lat="46.1234770" lon="10.5017020">
	<ele>2210.80</ele>
	<time>2023-08-07T09:04:30.000Z</time>
</trkpt>
<trkpt lat="46.1234770" lon="10.5017020">
	<ele>2210.80</ele>
	<time>2023-08-07T09:04:31.000Z</time>
</trkpt>
<trkpt lat="46.1234770" lon="10.5017020">
	<ele>2210.80</ele>
	<time>2023-08-07T09:04:32.000Z</time>
</trkpt>
<trkpt lat="46.1234760" lon="10.5017020">
	<ele>2210.80</ele>
	<time>2023-08-07T09:04:33.000Z</time>
</trkpt>
<trkpt lat="46.1234760" lon="10.5017020">
	<ele>2210.80</ele>
	<time>2023-08-07T09:04:34.000Z</time>
</trkpt>
<trkpt lat="46.1234760" lon="10.5017020">
	<ele>2210.80</ele>
	<time>2023-08-07T09:04:35.000Z</time>
</trkpt>
<trkpt lat="46.1234760" lon="10.5017020">
	<ele>2210.80</ele>
	<time>2023-08-07T09:04:36.000Z</time>
</trkpt>
<trkpt lat="46.1234760" lon="10.5017020">
	<ele>2210.80</ele>
	<time>2023-08-07T09:04:37.000Z</time>
</trkpt>
<trkpt lat="46.1234760" lon="10.5017020">
	<ele>2210.80</ele>
	<time>2023-08-07T09:04:38.000Z</time>
</trkpt>
<trkpt lat="46.1234760" lon="10.5017020">
	<ele>2210.80</ele>
	<time>2023-08-07T09:04:39.000Z</time>
</trkpt>
<trkpt lat="46.1234760" lon="10.5017020">
	<ele>2210.80</ele>
	<time>2023-08-07T09:04:40.000Z</time>
</trkpt>
<trkpt lat="46.1234760" lon="10.5017020">
	<ele>2210.80</ele>
	<time>2023-08-07T09:04:41.000Z</time>
</trkpt>
<trkpt lat="46.1234770" lon="10.5017030">
	<ele>2210.80</ele>
	<time>2023-08-07T09:04:42.000Z</time>
</trkpt>
<trkpt lat="46.1234770" lon="10.5017030">
	<ele>2210.80</ele>
	<time>2023-08-07T09:04:43.000Z</time>
</trkpt>
<trkpt lat="46.1234780" lon="10.5017040">
	<ele>2210.80</ele>
	<time>2023-08-07T09:04:44.000Z</time>
</trkpt>
<trkpt lat="46.1234790" lon="10.5017050">
	<ele>2210.80</ele>
	<time>2023-08-07T09:04:45.000Z</time>
</trkpt>
<trkpt lat="46.1234800" lon="10.5017050">
	<ele>2210.80</ele>
	<time>2023-08-07T09:04:46.000Z</time>
</trkpt>
<trkpt lat="46.1234810" lon="10.5017060">
	<ele>2210.80</ele>
	<time>2023-08-07T09:04:47.000Z</time>
</trkpt>
<trkpt lat="46.1234820" lon="10.5017060">
	<ele>2210.80</ele>
	<time>2023-08-07T09:04:48.000Z</time>
</trkpt>
<trkpt lat="46.1234820" lon="10.5017070">
	<ele>2210.80</ele>
	<time>2023-08-07T09:04:49.000Z</time>
</trkpt>
<trkpt lat="46.1234830" lon="10.5017070">
	<ele>2210.80</ele>
	<time>2023-08-07T09:04:50.000Z</time>
</trkpt>
<trkpt lat="46.1234830" lon="10.5017070">
	<ele>2210.80</ele>
	<time>2023-08-07T09:04:51.000Z</time>
</trkpt>
<trkpt lat="46.1234830" lon="10.5017080">
	<ele>2210.80</ele>
	<time>2023-08-07T09:04:52.000Z</time>
</trkpt>
<trkpt lat="46.1234840" lon="10.5017080">
	<ele>2210.80</ele>
	<time>2023-08-07T09:04:53.000Z</time>
</trkpt>
<trkpt lat="46.1234840" lon="10.5017080">
	<ele>2210.80</ele>
	<time>2023-08-07T09:04:54.000Z</time>
</trkpt>
<trkpt lat="46.1234840" lon="10.5017080">
	<ele>2210.80</ele>
	<time>2023-08-07T09:04:55.000Z</time>
</trkpt>
<trkpt lat="46.1234840" lon="10.5017090">
	<ele>2210.80</ele>
	<time>2023-08-07T09:04:56.000Z</time>
</trkpt>
<trkpt lat="46.1234840" lon="10.5017090">
	<ele>2210.80</ele>
	<time>2023-08-07T09:04:57.000Z</time>
</trkpt>
<trkpt lat="46.1234840" lon="10.5017090">
	<ele>2210.80</ele>
	<time>2023-08-07T09:04:58.000Z</time>
</trkpt>
<trkpt lat="46.1234840" lon="10.5017090">
	<ele>2210.80</ele>
	<time>2023-08-07T09:04:59.000Z</time>
</trkpt>
<trkpt lat="46.1234840" lon="10.5017090">
	<ele>2210.80</ele>
	<time>2023-08-07T09:05:00.000Z</time>
</trkpt>
<trkpt lat="46.1234850" lon="10.5017090">
	<ele>2210.80</ele>
	<time>2023-08-07T09:05:01.000Z</time>
</trkpt>
<trkpt lat="46.1234850" lon="10.5017090">
	<ele>2210.80</ele>
	<time>2023-08-07T09:05:02.000Z</time>
</trkpt>
<trkpt lat="46.1234850" lon="10.5017090">
	<ele>2210.80</ele>
	<time>2023-08-07T09:05:03.000Z</time>
</trkpt>
<trkpt lat="46.1234850" lon="10.5017090">
	<ele>2210.80</ele>
	<time>2023-08-07T09:05:04.000Z</time>
</trkpt>
<trkpt lat="46.1234850" lon="10.5017090">
	<ele>2210.80</ele>
	<time>2023-08-07T09:05:05.000Z</time>
</trkpt>
<trkpt lat="46.1234850" lon="10.5017090">
	<ele>2210.80</ele>
	<time>2023-08-07T09:05:06.000Z</time>
</trkpt>
<trkpt lat="46.1234850" lon="10.5017090">
	<ele>2210.80</ele>
	<time>2023-08-07T09:05:07.000Z</time>
</trkpt>
<trkpt lat="46.1234850" lon="10.5017090">
	<ele>2210.80</ele>
	<time>2023-08-07T09:05:08.000Z</time>
</trkpt>
<trkpt lat="46.1234850" lon="10.5017090">
	<ele>2210.80</ele>
	<time>2023-08-07T09:05:09.000Z</time>
</trkpt>
<trkpt lat="46.1234850" lon="10.5017090">
	<ele>2210.80</ele>
	<time>2023-08-07T09:05:10.000Z</time>
</trkpt>
<trkpt lat="46.1234850" lon="10.5017090">
	<ele>2210.80</ele>
	<time>2023-08-07T09:05:11.000Z</time>
</trkpt>
<trkpt lat="46.1234850" lon="10.5017090">
	<ele>2210.80</ele>
	<time>2023-08-07T09:05:12.000Z</time>
</trkpt>
<trkpt lat="46.1234850" lon="10.5017090">
	<ele>2210.80</ele>
	<time>2023-08-07T09:05:13.000Z</time>
</trkpt>
<trkpt lat="46.1234850" lon="10.5017090">
	<ele>2210.80</ele>
	<time>2023-08-07T09:05:14.000Z</time>
</trkpt>
<trkpt lat="46.1234850" lon="10.5017090">
	<ele>2210.80</ele>
	<time>2023-08-07T09:05:15.000Z</time>
</trkpt>
<trkpt lat="46.1234850" lon="10.5017090">
	<ele>2210.80</ele>
	<time>2023-08-07T09:05:16.000Z</time>
</trkpt>
<trkpt lat="46.1234850" lon="10.5017090">
	<ele>2210.80</ele>
	<time>2023-08-07T09:05:17.000Z</time>
</trkpt>
<trkpt lat="46.1234840" lon="10.5017090">
	<ele>2210.80</ele>
	<time>2023-08-07T09:05:18.000Z</time>
</trkpt>
<trkpt lat="46.1234840" lon="10.5017090">
	<ele>2210.80</ele>
	<time>2023-08-07T09:05:19.000Z</time>
</trkpt>
<trkpt lat="46.1234840" lon="10.5017090">
	<ele>2210.80</ele>
	<time>2023-08-07T09:05:20.000Z</time>
</trkpt>
<trkpt lat="46.1234840" lon="10.5017090">
	<ele>2210.80</ele>
	<time>2023-08-07T09:05:21.000Z</time>
</trkpt>
<trkpt lat="46.1234840" lon="10.5017090">
	<ele>2210.80</ele>
	<time>2023-08-07T09:05:22.000Z</time>
</trkpt>
<trkpt lat="46.1234840" lon="10.5017090">
	<ele>2210.80</ele>
	<time>2023-08-07T09:05:23.000Z</time>
</trkpt>
<trkpt lat="46.1234840" lon="10.5017090">
	<ele>2210.80</ele>
	<time>2023-08-07T09:05:24.000Z</time>
</trkpt>
<trkpt lat="46.1234840" lon="10.5017090">
	<ele>2210.80</ele>
	<time>2023-08-07T09:05:25.000Z</time>
</trkpt>
<trkpt lat="46.1234840" lon="10.5017090">
	<ele>2210.80</ele>
	<time>2023-08-07T09:05:26.000Z</time>
</trkpt>
<trkpt lat="46.1234840" lon="10.5017100">
	<ele>2210.80</ele>
	<time>2023-08-07T09:05:27.000Z</time>
</trkpt>
<trkpt lat="46.1234840" lon="10.5017100">
	<ele>2210.80</ele>
	<time>2023-08-07T09:05:28.000Z</time>
</trkpt>
<trkpt lat="46.1234850" lon="10.5017100">
	<ele>2210.80</ele>
	<time>2023-08-07T09:05:29.000Z</time>
</trkpt>
<trkpt lat="46.1234850" lon="10.5017100">
	<ele>2210.80</ele>
	<time>2023-08-07T09:05:30.000Z</time>
</trkpt>
<trkpt lat="46.1234850" lon="10.5017100">
	<ele>2210.80</ele>
	<time>2023-08-07T09:05:31.000Z</time>
</trkpt>
<trkpt lat="46.1234850" lon="10.5017090">
	<ele>2210.80</ele>
	<time>2023-08-07T09:05:32.000Z</time>
</trkpt>
<trkpt lat="46.1234850" lon="10.5017090">
	<ele>2210.80</ele>
	<time>2023-08-07T09:05:33.000Z</time>
</trkpt>
<trkpt lat="46.1234850" lon="10.5017090">
	<ele>2210.80</ele>
	<time>2023-08-07T09:05:34.000Z</time>
</trkpt>
<trkpt lat="46.1234850" lon="10.5017090">
	<ele>2210.80</ele>
	<time>2023-08-07T09:05:35.000Z</time>
</trkpt>
<trkpt lat="46.1234850" lon="10.5017090">
	<ele>2210.80</ele>
	<time>2023-08-07T09:05:36.000Z</time>
</trkpt>
<trkpt lat="46.1234850" lon="10.5017100">
	<ele>2210.80</ele>
	<time>2023-08-07T09:05:37.000Z</time>
</trkpt>
<trkpt lat="46.1234850" lon="10.5017100">
	<ele>2210.80</ele>
	<time>2023-08-07T09:05:38.000Z</time>
</trkpt>
<trkpt lat="46.1234850" lon="10.5017100">
	<ele>2210.80</ele>
	<time>2023-08-07T09:05:39.000Z</time>
</trkpt>
<trkpt lat="46.1234850" lon="10.5017100">
	<ele>2210.80</ele>
	<time>2023-08-07T09:05:40.000Z</time>
</trkpt>
<trkpt lat="46.1234850" lon="10.5017100">
	<ele>2210.80</ele>
	<time>2023-08-07T09:05:41.000Z</time>
</trkpt>
<trkpt lat="46.1234850" lon="10.5017100">
	<ele>2210.80</ele>
	<time>2023-08-07T09:05:42.000Z</time>
</trkpt>
<trkpt lat="46.1234850" lon="10.5017100">
	<ele>2210.80</ele>
	<time>2023-08-07T09:05:43.000Z</time>
</trkpt>
<trkpt lat="46.1234850" lon="10.5017100">
	<ele>2210.80</ele>
	<time>2023-08-07T09:05:44.000Z</time>
</trkpt>
<trkpt lat="46.1234860" lon="10.5017100">
	<ele>2210.80</ele>
	<time>2023-08-07T09:05:45.000Z</time>
</trkpt>
<trkpt lat="46.1234860" lon="10.5017100">
	<ele>2210.80</ele>
	<time>2023-08-07T09:05:46.000Z</time>
</trkpt>
<trkpt lat="46.1234860" lon="10.5017100">
	<ele>2210.80</ele>
	<time>2023-08-07T09:05:47.000Z</time>
</trkpt>
<trkpt lat="46.1234860" lon="10.5017100">
	<ele>2210.80</ele>
	<time>2023-08-07T09:05:48.000Z</time>
</trkpt>
<trkpt lat="46.1234860" lon="10.5017100">
	<ele>2210.80</ele>
	<time>2023-08-07T09:05:49.000Z</time>
</trkpt>
<trkpt lat="46.1234860" lon="10.5017100">
	<ele>2210.80</ele>
	<time>2023-08-07T09:05:50.000Z</time>
</trkpt>
<trkpt lat="46.1234860" lon="10.5017100">
	<ele>2210.80</ele>
	<time>2023-08-07T09:05:51.000Z</time>
</trkpt>
<trkpt lat="46.1234860" lon="10.5017100">
	<ele>2210.80</ele>
	<time>2023-08-07T09:05:52.000Z</time>
</trkpt>
<trkpt lat="46.1234860" lon="10.5017100">
	<ele>2210.80</ele>
	<time>2023-08-07T09:05:53.000Z</time>
</trkpt>
<trkpt lat="46.1234860" lon="10.5017100">
	<ele>2210.80</ele>
	<time>2023-08-07T09:05:54.000Z</time>
</trkpt>
<trkpt lat="46.1234870" lon="10.5017100">
	<ele>2210.80</ele>
	<time>2023-08-07T09:05:55.000Z</time>
</trkpt>
<trkpt lat="46.1234870" lon="10.5017110">
	<ele>2210.80</ele>
	<time>2023-08-07T09:05:56.000Z</time>
</trkpt>
<trkpt lat="46.1234870" lon="10.5017110">
	<ele>2210.80</ele>
	<time>2023-08-07T09:05:57.000Z</time>
</trkpt>
<trkpt lat="46.1234870" lon="10.5017110">
	<ele>2210.80</ele>
	<time>2023-08-07T09:05:58.000Z</time>
</trkpt>
<trkpt lat="46.1234870" lon="10.5017110">
	<ele>2210.80</ele>
	<time>2023-08-07T09:05:59.000Z</time>
</trkpt>
<trkpt lat="46.1234870" lon="10.5017110">
	<ele>2210.80</ele>
	<time>2023-08-07T09:06:00.000Z</time>
</trkpt>
<trkpt lat="46.1234880" lon="10.5017110">
	<ele>2210.80</ele>
	<time>2023-08-07T09:06:01.000Z</time>
</trkpt>
<trkpt lat="46.1234880" lon="10.5017110">
	<ele>2210.80</ele>
	<time>2023-08-07T09:06:02.000Z</time>
</trkpt>
<trkpt lat="46.1234880" lon="10.5017110">
	<ele>2210.80</ele>
	<time>2023-08-07T09:06:03.000Z</time>
</trkpt>
<trkpt lat="46.1234880" lon="10.5017110">
	<ele>2210.80</ele>
	<time>2023-08-07T09:06:04.000Z</time>
</trkpt>
<trkpt lat="46.1234880" lon="10.5017110">
	<ele>2210.80</ele>
	<time>2023-08-07T09:06:05.000Z</time>
</trkpt>
<trkpt lat="46.1234880" lon="10.5017110">
	<ele>2210.80</ele>
	<time>2023-08-07T09:06:06.000Z</time>
</trkpt>
<trkpt lat="46.1234880" lon="10.5017110">
	<ele>2210.80</ele>
	<time>2023-08-07T09:06:07.000Z</time>
</trkpt>
<trkpt lat="46.1234880" lon="10.5017110">
	<ele>2210.80</ele>
	<time>2023-08-07T09:06:08.000Z</time>
</trkpt>
<trkpt lat="46.1234880" lon="10.5017110">
	<ele>2210.80</ele>
	<time>2023-08-07T09:06:09.000Z</time>
</trkpt>
<trkpt lat="46.1234880" lon="10.5017110">
	<ele>2210.80</ele>
	<time>2023-08-07T09:06:10.000Z</time>
</trkpt>
<trkpt lat="46.1234880" lon="10.5017110">
	<ele>2210.80</ele>
	<time>2023-08-07T09:06:11.000Z</time>
</trkpt>
<trkpt lat="46.1234880" lon="10.5017110">
	<ele>2210.80</ele>
	<time>2023-08-07T09:06:12.000Z</time>
</trkpt>
<trkpt lat="46.1234890" lon="10.5017110">
	<ele>2210.80</ele>
	<time>2023-08-07T09:06:13.000Z</time>
</trkpt>
<trkpt lat="46.1234890" lon="10.5017110">
	<ele>2210.80</ele>
	<time>2023-08-07T09:06:14.000Z</time>
</trkpt>
<trkpt lat="46.1234890" lon="10.5017110">
	<ele>2210.80</ele>
	<time>2023-08-07T09:06:15.000Z</time>
</trkpt>
<trkpt lat="46.1234890" lon="10.5017110">
	<ele>2210.80</ele>
	<time>2023-08-07T09:06:16.000Z</time>
</trkpt>
<trkpt lat="46.1234890" lon="10.5017110">
	<ele>2210.80</ele>
	<time>2023-08-07T09:06:17.000Z</time>
</trkpt>
<trkpt lat="46.1234890" lon="10.5017110">
	<ele>2210.80</ele>
	<time>2023-08-07T09:06:18.000Z</time>
</trkpt>
<trkpt lat="46.1234890" lon="10.5017110">
	<ele>2210.80</ele>
	<time>2023-08-07T09:06:19.000Z</time>
</trkpt>
<trkpt lat="46.1234890" lon="10.5017110">
	<ele>2210.80</ele>
	<time>2023-08-07T09:06:20.000Z</time>
</trkpt>
<trkpt lat="46.1234890" lon="10.5017120">
	<ele>2210.80</ele>
	<time>2023-08-07T09:06:21.000Z</time>
</trkpt>
<trkpt lat="46.1234900" lon="10.5017120">
	<ele>2210.80</ele>
	<time>2023-08-07T09:06:22.000Z</time>
</trkpt>
<trkpt lat="46.1234900" lon="10.5017120">
	<ele>2210.80</ele>
	<time>2023-08-07T09:06:23.000Z</time>
</trkpt>
<trkpt lat="46.1234900" lon="10.5017120">
	<ele>2210.80</ele>
	<time>2023-08-07T09:06:24.000Z</time>
</trkpt>
<trkpt lat="46.1234900" lon="10.5017120">
	<ele>2210.80</ele>
	<time>2023-08-07T09:06:25.000Z</time>
</trkpt>
<trkpt lat="46.1234900" lon="10.5017120">
	<ele>2210.80</ele>
	<time>2023-08-07T09:06:26.000Z</time>
</trkpt>
<trkpt lat="46.1234900" lon="10.5017120">
	<ele>2210.80</ele>
	<time>2023-08-07T09:06:27.000Z</time>
</trkpt>
<trkpt lat="46.1234900" lon="10.5017120">
	<ele>2210.80</ele>
	<time>2023-08-07T09:06:28.000Z</time>
</trkpt>
<trkpt lat="46.1234900" lon="10.5017120">
	<ele>2210.80</ele>
	<time>2023-08-07T09:06:29.000Z</time>
</trkpt>
<trkpt lat="46.1234900" lon="10.5017120">
	<ele>2210.80</ele>
	<time>2023-08-07T09:06:30.000Z</time>
</trkpt>
<trkpt lat="46.1234900" lon="10.5017120">
	<ele>2210.80</ele>
	<time>2023-08-07T09:06:31.000Z</time>
</trkpt>
<trkpt lat="46.1234900" lon="10.5017120">
	<ele>2210.80</ele>
	<time>2023-08-07T09:06:32.000Z</time>
</trkpt>
<trkpt lat="46.1234900" lon="10.5017120">
	<ele>2210.80</ele>
	<time>2023-08-07T09:06:33.000Z</time>
</trkpt>
<trkpt lat="46.1234900" lon="10.5017120">
	<ele>2210.80</ele>
	<time>2023-08-07T09:06:34.000Z</time>
</trkpt>
<trkpt lat="46.1234900" lon="10.5017120">
	<ele>2210.80</ele>
	<time>2023-08-07T09:06:35.000Z</time>
</trkpt>
<trkpt lat="46.1234910" lon="10.5017120">
	<ele>2210.80</ele>
	<time>2023-08-07T09:06:36.000Z</time>
</trkpt>
<trkpt lat="46.1234910" lon="10.5017120">
	<ele>2210.80</ele>
	<time>2023-08-07T09:06:37.000Z</time>
</trkpt>
<trkpt lat="46.1234910" lon="10.5017120">
	<ele>2210.80</ele>
	<time>2023-08-07T09:06:38.000Z</time>
</trkpt>
<trkpt lat="46.1234910" lon="10.5017120">
	<ele>2210.80</ele>
	<time>2023-08-07T09:06:39.000Z</time>
</trkpt>
<trkpt lat="46.1234910" lon="10.5017120">
	<ele>2210.80</ele>
	<time>2023-08-07T09:06:40.000Z</time>
</trkpt>
<trkpt lat="46.1234910" lon="10.5017120">
	<ele>2210.80</ele>
	<time>2023-08-07T09:06:41.000Z</time>
</trkpt>
<trkpt lat="46.1234910" lon="10.5017120">
	<ele>2210.80</ele>
	<time>2023-08-07T09:06:42.000Z</time>
</trkpt>
<trkpt lat="46.1234910" lon="10.5017120">
	<ele>2210.80</ele>
	<time>2023-08-07T09:06:43.000Z</time>
</trkpt>
<trkpt lat="46.1234910" lon="10.5017120">
	<ele>2210.80</ele>
	<time>2023-08-07T09:06:44.000Z</time>
</trkpt>
<trkpt lat="46.1234910" lon="10.5017120">
	<ele>2210.80</ele>
	<time>2023-08-07T09:06:45.000Z</time>
</trkpt>
<trkpt lat="46.1234910" lon="10.5017120">
	<ele>2210.80</ele>
	<time>2023-08-07T09:06:46.000Z</time>
</trkpt>
<trkpt lat="46.1234910" lon="10.5017120">
	<ele>2210.80</ele>
	<time>2023-08-07T09:06:47.000Z</time>
</trkpt>
<trkpt lat="46.1234920" lon="10.5017120">
	<ele>2210.80</ele>
	<time>2023-08-07T09:06:48.000Z</time>
</trkpt>
<trkpt lat="46.1234920" lon="10.5017120">
	<ele>2210.80</ele>
	<time>2023-08-07T09:06:49.000Z</time>
</trkpt>
<trkpt lat="46.1234920" lon="10.5017120">
	<ele>2210.80</ele>
	<time>2023-08-07T09:06:50.000Z</time>
</trkpt>
<trkpt lat="46.1234920" lon="10.5017130">
	<ele>2210.80</ele>
	<time>2023-08-07T09:06:51.000Z</time>
</trkpt>
<trkpt lat="46.1234920" lon="10.5017130">
	<ele>2210.80</ele>
	<time>2023-08-07T09:06:52.000Z</time>
</trkpt>
<trkpt lat="46.1234920" lon="10.5017130">
	<ele>2210.80</ele>
	<time>2023-08-07T09:06:53.000Z</time>
</trkpt>
<trkpt lat="46.1234920" lon="10.5017130">
	<ele>2210.80</ele>
	<time>2023-08-07T09:06:54.000Z</time>
</trkpt>
<trkpt lat="46.1234920" lon="10.5017130">
	<ele>2210.80</ele>
	<time>2023-08-07T09:06:55.000Z</time>
</trkpt>
<trkpt lat="46.1234920" lon="10.5017130">
	<ele>2210.80</ele>
	<time>2023-08-07T09:06:56.000Z</time>
</trkpt>
<trkpt lat="46.1234920" lon="10.5017120">
	<ele>2210.80</ele>
	<time>2023-08-07T09:06:57.000Z</time>
</trkpt>
<trkpt lat="46.1234920" lon="10.5017120">
	<ele>2210.80</ele>
	<time>2023-08-07T09:06:58.000Z</time>
</trkpt>
<trkpt lat="46.1234920" lon="10.5017120">
	<ele>2210.80</ele>
	<time>2023-08-07T09:06:59.000Z</time>
</trkpt>
<trkpt lat="46.1234920" lon="10.5017120">
	<ele>2210.80</ele>
	<time>2023-08-07T09:07:00.000Z</time>
</trkpt>
<trkpt lat="46.1234920" lon="10.5017130">
	<ele>2210.80</ele>
	<time>2023-08-07T09:07:01.000Z</time>
</trkpt>
<trkpt lat="46.1234930" lon="10.5017130">
	<ele>2210.80</ele>
	<time>2023-08-07T09:07:02.000Z</time>
</trkpt>
<trkpt lat="46.1234930" lon="10.5017130">
	<ele>2210.80</ele>
	<time>2023-08-07T09:07:03.000Z</time>
</trkpt>
<trkpt lat="46.1234930" lon="10.5017130">
	<ele>2210.80</ele>
	<time>2023-08-07T09:07:04.000Z</time>
</trkpt>
<trkpt lat="46.1234930" lon="10.5017130">
	<ele>2210.80</ele>
	<time>2023-08-07T09:07:05.000Z</time>
</trkpt>
<trkpt lat="46.1234930" lon="10.5017120">
	<ele>2210.80</ele>
	<time>2023-08-07T09:07:06.000Z</time>
</trkpt>
<trkpt lat="46.1234930" lon="10.5017120">
	<ele>2210.80</ele>
	<time>2023-08-07T09:07:07.000Z</time>
</trkpt>
<trkpt lat="46.1234930" lon="10.5017120">
	<ele>2210.80</ele>
	<time>2023-08-07T09:07:08.000Z</time>
</trkpt>
<trkpt lat="46.1234930" lon="10.5017120">
	<ele>2210.80</ele>
	<time>2023-08-07T09:07:09.000Z</time>
</trkpt>
<trkpt lat="46.1234930" lon="10.5017130">
	<ele>2210.80</ele>
	<time>2023-08-07T09:07:10.000Z</time>
</trkpt>
<trkpt lat="46.1234930" lon="10.5017130">
	<ele>2210.80</ele>
	<time>2023-08-07T09:07:11.000Z</time>
</trkpt>
<trkpt lat="46.1234930" lon="10.5017130">
	<ele>2210.80</ele>
	<time>2023-08-07T09:07:12.000Z</time>
</trkpt>
<trkpt lat="46.1234930" lon="10.5017130">
	<ele>2210.80</ele>
	<time>2023-08-07T09:07:13.000Z</time>
</trkpt>
<trkpt lat="46.1234930" lon="10.5017130">
	<ele>2210.80</ele>
	<time>2023-08-07T09:07:14.000Z</time>
</trkpt>
<trkpt lat="46.1234930" lon="10.5017130">
	<ele>2210.80</ele>
	<time>2023-08-07T09:07:15.000Z</time>
</trkpt>
<trkpt lat="46.1234940" lon="10.5017130">
	<ele>2210.80</ele>
	<time>2023-08-07T09:07:16.000Z</time>
</trkpt>
<trkpt lat="46.1234940" lon="10.5017130">
	<ele>2210.80</ele>
	<time>2023-08-07T09:07:17.000Z</time>
</trkpt>
<trkpt lat="46.1234940" lon="10.5017130">
	<ele>2210.80</ele>
	<time>2023-08-07T09:07:18.000Z</time>
</trkpt>
<trkpt lat="46.1234940" lon="10.5017130">
	<ele>2210.80</ele>
	<time>2023-08-07T09:07:19.000Z</time>
</trkpt>
<trkpt lat="46.1234940" lon="10.5017130">
	<ele>2210.80</ele>
	<time>2023-08-07T09:07:20.000Z</time>
</trkpt>
<trkpt lat="46.1234940" lon="10.5017130">
	<ele>2210.80</ele>
	<time>2023-08-07T09:07:21.000Z</time>
</trkpt>
<trkpt lat="46.1234940" lon="10.5017130">
	<ele>2210.80</ele>
	<time>2023-08-07T09:07:22.000Z</time>
</trkpt>
<trkpt lat="46.1234940" lon="10.5017130">
	<ele>2210.80</ele>
	<time>2023-08-07T09:07:23.000Z</time>
</trkpt>
<trkpt lat="46.1234940" lon="10.5017130">
	<ele>2210.80</ele>
	<time>2023-08-07T09:07:24.000Z</time>
</trkpt>
<trkpt lat="46.1234940" lon="10.5017130">
	<ele>2210.80</ele>
	<time>2023-08-07T09:07:25.000Z</time>
</trkpt>
<trkpt lat="46.1234940" lon="10.5017130">
	<ele>2210.80</ele>
	<time>2023-08-07T09:07:26.000Z</time>
</trkpt>
<trkpt lat="46.1234940" lon="10.5017130">
	<ele>2210.80</ele>
	<time>2023-08-07T09:07:27.000Z</time>
</trkpt>
<trkpt lat="46.1234940" lon="10.5017130">
	<ele>2210.80</ele>
	<time>2023-08-07T09:07:28.000Z</time>
</trkpt>
<trkpt lat="46.1234950" lon="10.5017130">
	<ele>2210.80</ele>
	<time>2023-08-07T09:07:29.000Z</time>
</trkpt>
<trkpt lat="46.1234950" lon="10.5017130">
	<ele>2210.80</ele>
	<time>2023-08-07T09:07:30.000Z</time>
</trkpt>
<trkpt lat="46.1234950" lon="10.5017130">
	<ele>2210.80</ele>
	<time>2023-08-07T09:07:31.000Z</time>
</trkpt>
<trkpt lat="46.1234950" lon="10.5017130">
	<ele>2210.80</ele>
	<time>2023-08-07T09:07:32.000Z</time>
</trkpt>
<trkpt lat="46.1234950" lon="10.5017130">
	<ele>2210.80</ele>
	<time>2023-08-07T09:07:33.000Z</time>
</trkpt>
<trkpt lat="46.1234950" lon="10.5017130">
	<ele>2210.80</ele>
	<time>2023-08-07T09:07:34.000Z</time>
</trkpt>
<trkpt lat="46.1234950" lon="10.5017130">
	<ele>2210.80</ele>
	<time>2023-08-07T09:07:35.000Z</time>
</trkpt>
<trkpt lat="46.1234950" lon="10.5017130">
	<ele>2210.80</ele>
	<time>2023-08-07T09:07:36.000Z</time>
</trkpt>
<trkpt lat="46.1234950" lon="10.5017130">
	<ele>2210.80</ele>
	<time>2023-08-07T09:07:37.000Z</time>
</trkpt>
<trkpt lat="46.1234950" lon="10.5017130">
	<ele>2210.80</ele>
	<time>2023-08-07T09:07:38.000Z</time>
</trkpt>
<trkpt lat="46.1234950" lon="10.5017130">
	<ele>2210.80</ele>
	<time>2023-08-07T09:07:39.000Z</time>
</trkpt>
<trkpt lat="46.1234960" lon="10.5017130">
	<ele>2210.80</ele>
	<time>2023-08-07T09:07:40.000Z</time>
</trkpt>
<trkpt lat="46.1234960" lon="10.5017130">
	<ele>2210.80</ele>
	<time>2023-08-07T09:07:41.000Z</time>
</trkpt>
<trkpt lat="46.1234960" lon="10.5017130">
	<ele>2210.80</ele>
	<time>2023-08-07T09:07:42.000Z</time>
</trkpt>
<trkpt lat="46.1234960" lon="10.5017130">
	<ele>2210.80</ele>
	<time>2023-08-07T09:07:43.000Z</time>
</trkpt>
<trkpt lat="46.1234960" lon="10.5017130">
	<ele>2210.80</ele>
	<time>2023-08-07T09:07:44.000Z</time>
</trkpt>
<trkpt lat="46.1234960" lon="10.5017130">
	<ele>2210.80</ele>
	<time>2023-08-07T09:07:45.000Z</time>
</trkpt>
<trkpt lat="46.1234960" lon="10.5017130">
	<ele>2210.80</ele>
	<time>2023-08-07T09:07:46.000Z</time>
</trkpt>
<trkpt lat="46.1234960" lon="10.5017130">
	<ele>2210.80</ele>
	<time>2023-08-07T09:07:47.000Z</time>
</trkpt>
<trkpt lat="46.1234960" lon="10.5017130">
	<ele>2210.80</ele>
	<time>2023-08-07T09:07:48.000Z</time>
</trkpt>
<trkpt lat="46.1234960" lon="10.5017130">
	<ele>2210.80</ele>
	<time>2023-08-07T09:07:49.000Z</time>
</trkpt>
<trkpt lat="46.1234960" lon="10.5017140">
	<ele>2210.80</ele>
	<time>2023-08-07T09:07:50.000Z</time>
</trkpt>
<trkpt lat="46.1234960" lon="10.5017140">
	<ele>2210.80</ele>
	<time>2023-08-07T09:07:51.000Z</time>
</trkpt>
<trkpt lat="46.1234960" lon="10.5017140">
	<ele>2210.80</ele>
	<time>2023-08-07T09:07:52.000Z</time>
</trkpt>
<trkpt lat="46.1234960" lon="10.5017140">
	<ele>2210.80</ele>
	<time>2023-08-07T09:07:53.000Z</time>
</trkpt>
<trkpt lat="46.1234960" lon="10.5017140">
	<ele>2210.80</ele>
	<time>2023-08-07T09:07:54.000Z</time>
</trkpt>
<trkpt lat="46.1234970" lon="10.5017140">
	<ele>2210.80</ele>
	<time>2023-08-07T09:07:55.000Z</time>
</trkpt>
<trkpt lat="46.1234970" lon="10.5017140">
	<ele>2210.80</ele>
	<time>2023-08-07T09:07:56.000Z</time>
</trkpt>
<trkpt lat="46.1234970" lon="10.5017140">
	<ele>2210.80</ele>
	<time>2023-08-07T09:07:57.000Z</time>
</trkpt>
<trkpt lat="46.1234970" lon="10.5017140">
	<ele>2210.80</ele>
	<time>2023-08-07T09:07:58.000Z</time>
</trkpt>
<trkpt lat="46.1234970" lon="10.5017140">
	<ele>2210.80</ele>
	<time>2023-08-07T09:07:59.000Z</time>
</trkpt>
<trkpt lat="46.1234970" lon="10.5017140">
	<ele>2210.80</ele>
	<time>2023-08-07T09:08:00.000Z</time>
</trkpt>
<trkpt lat="46.1234970" lon="10.5017140">
	<ele>2210.80</ele>
	<time>2023-08-07T09:08:01.000Z</time>
</trkpt>
<trkpt lat="46.1234970" lon="10.5017140">
	<ele>2210.80</ele>
	<time>2023-08-07T09:08:02.000Z</time>
</trkpt>
<trkpt lat="46.1234970" lon="10.5017140">
	<ele>2210.80</ele>
	<time>2023-08-07T09:08:03.000Z</time>
</trkpt>
<trkpt lat="46.1234970" lon="10.5017140">
	<ele>2210.80</ele>
	<time>2023-08-07T09:08:04.000Z</time>
</trkpt>
<trkpt lat="46.1234970" lon="10.5017140">
	<ele>2210.80</ele>
	<time>2023-08-07T09:08:05.000Z</time>
</trkpt>
<trkpt lat="46.1234970" lon="10.5017140">
	<ele>2210.80</ele>
	<time>2023-08-07T09:08:06.000Z</time>
</trkpt>
<trkpt lat="46.1234980" lon="10.5017140">
	<ele>2210.80</ele>
	<time>2023-08-07T09:08:07.000Z</time>
</trkpt>
<trkpt lat="46.1234980" lon="10.5017140">
	<ele>2210.80</ele>
	<time>2023-08-07T09:08:08.000Z</time>
</trkpt>
<trkpt lat="46.1234980" lon="10.5017140">
	<ele>2210.80</ele>
	<time>2023-08-07T09:08:09.000Z</time>
</trkpt>
<trkpt lat="46.1234980" lon="10.5017140">
	<ele>2210.80</ele>
	<time>2023-08-07T09:08:10.000Z</time>
</trkpt>
<trkpt lat="46.1234980" lon="10.5017140">
	<ele>2210.80</ele>
	<time>2023-08-07T09:08:11.000Z</time>
</trkpt>
<trkpt lat="46.1234980" lon="10.5017140">
	<ele>2210.80</ele>
	<time>2023-08-07T09:08:12.000Z</time>
</trkpt>
<trkpt lat="46.1234980" lon="10.5017140">
	<ele>2210.80</ele>
	<time>2023-08-07T09:08:13.000Z</time>
</trkpt>
<trkpt lat="46.1234980" lon="10.5017140">
	<ele>2210.80</ele>
	<time>2023-08-07T09:08:14.000Z</time>
</trkpt>
<trkpt lat="46.1234980" lon="10.5017140">
	<ele>2210.80</ele>
	<time>2023-08-07T09:08:15.000Z</time>
</trkpt>
<trkpt lat="46.1234980" lon="10.5017140">
	<ele>2210.80</ele>
	<time>2023-08-07T09:08:16.000Z</time>
</trkpt>
<trkpt lat="46.1234980" lon="10.5017140">
	<ele>2210.80</ele>
	<time>2023-08-07T09:08:17.000Z</time>
</trkpt>
<trkpt lat="46.1234980" lon="10.5017140">
	<ele>2210.80</ele>
	<time>2023-08-07T09:08:18.000Z</time>
</trkpt>
<trkpt lat="46.1234980" lon="10.5017140">
	<ele>2210.80</ele>
	<time>2023-08-07T09:08:19.000Z</time>
</trkpt>
<trkpt lat="46.1234980" lon="10.5017150">
	<ele>2210.80</ele>
	<time>2023-08-07T09:08:20.000Z</time>
</trkpt>
<trkpt lat="46.1234990" lon="10.5017150">
	<ele>2210.80</ele>
	<time>2023-08-07T09:08:21.000Z</time>
</trkpt>
<trkpt lat="46.1234990" lon="10.5017150">
	<ele>2210.80</ele>
	<time>2023-08-07T09:08:22.000Z</time>
</trkpt>
<trkpt lat="46.1234990" lon="10.5017150">
	<ele>2210.80</ele>
	<time>2023-08-07T09:08:23.000Z</time>
</trkpt>
<trkpt lat="46.1234990" lon="10.5017150">
	<ele>2210.80</ele>
	<time>2023-08-07T09:08:24.000Z</time>
</trkpt>
<trkpt lat="46.1234990" lon="10.5017150">
	<ele>2210.80</ele>
	<time>2023-08-07T09:08:25.000Z</time>
</trkpt>
<trkpt lat="46.1234990" lon="10.5017150">
	<ele>2210.80</ele>
	<time>2023-08-07T09:08:26.000Z</time>
</trkpt>
<trkpt lat="46.1234990" lon="10.5017150">
	<ele>2210.80</ele>
	<time>2023-08-07T09:08:27.000Z</time>
</trkpt>
<trkpt lat="46.1234990" lon="10.5017150">
	<ele>2210.80</ele>
	<time>2023-08-07T09:08:28.000Z</time>
</trkpt>
<trkpt lat="46.1234990" lon="10.5017150">
	<ele>2210.80</ele>
	<time>2023-08-07T09:08:29.000Z</time>
</trkpt>
<trkpt lat="46.1234990" lon="10.5017150">
	<ele>2210.80</ele>
	<time>2023-08-07T09:08:30.000Z</time>
</trkpt>
<trkpt lat="46.1234990" lon="10.5017150">
	<ele>2210.80</ele>
	<time>2023-08-07T09:08:31.000Z</time>
</trkpt>
<trkpt lat="46.1234990" lon="10.5017150">
	<ele>2210.80</ele>
	<time>2023-08-07T09:08:32.000Z</time>
</trkpt>
<trkpt lat="46.1234990" lon="10.5017150">
	<ele>2210.80</ele>
	<time>2023-08-07T09:08:33.000Z</time>
</trkpt>
<trkpt lat="46.1234990" lon="10.5017150">
	<ele>2210.80</ele>
	<time>2023-08-07T09:08:34.000Z</time>
</trkpt>
<trkpt lat="46.1234990" lon="10.5017150">
	<ele>2210.80</ele>
	<time>2023-08-07T09:08:35.000Z</time>
</trkpt>
<trkpt lat="46.1234990" lon="10.5017150">
	<ele>2210.80</ele>
	<time>2023-08-07T09:08:36.000Z</time>
</trkpt>
<trkpt lat="46.1234990" lon="10.5017150">
	<ele>2210.80</ele>
	<time>2023-08-07T09:08:37.000Z</time>
</trkpt>
<trkpt lat="46.1234990" lon="10.5017150">
	<ele>2210.80</ele>
	<time>2023-08-07T09:08:38.000Z</time>
</trkpt>
<trkpt lat="46.1234990" lon="10.5017150">
	<ele>2210.80</ele>
	<time>2023-08-07T09:08:39.000Z</time>
</trkpt>
<trkpt lat="46.1234990" lon="10.5017150">
	<ele>2210.80</ele>
	<time>2023-08-07T09:08:40.000Z</time>
</trkpt>
<trkpt lat="46.1234990" lon="10.5017150">
	<ele>2210.80</ele>
	<time>2023-08-07T09:08:41.000Z</time>
</trkpt>
<trkpt lat="46.1234990" lon="10.5017150">
	<ele>2210.80</ele>
	<time>2023-08-07T09:08:42.000Z</time>
</trkpt>
<trkpt lat="46.1235000" lon="10.5017150">
	<ele>2210.80</ele>
	<time>2023-08-07T09:08:43.000Z</time>
</trkpt>
<trkpt lat="46.1235000" lon="10.5017150">
	<ele>2210.80</ele>
	<time>2023-08-07T09:08:44.000Z</time>
</trkpt>
<trkpt lat="46.1235000" lon="10.5017150">
	<ele>2210.80</ele>
	<time>2023-08-07T09:08:45.000Z</time>
</trkpt>
<trkpt lat="46.1235000" lon="10.5017150">
	<ele>2210.80</ele>
	<time>2023-08-07T09:08:46.000Z</time>
</trkpt>
<trkpt lat="46.1235000" lon="10.5017150">
	<ele>2210.80</ele>
	<time>2023-08-07T09:08:47.000Z</time>
</trkpt>
<trkpt lat="46.1235000" lon="10.5017150">
	<ele>2210.80</ele>
	<time>2023-08-07T09:08:48.000Z</time>
</trkpt>
<trkpt lat="46.1235000" lon="10.5017150">
	<ele>2210.80</ele>
	<time>2023-08-07T09:08:49.000Z</time>
</trkpt>
<trkpt lat="46.1235000" lon="10.5017150">
	<ele>2210.80</ele>
	<time>2023-08-07T09:08:50.000Z</time>
</trkpt>
<trkpt lat="46.1235000" lon="10.5017150">
	<ele>2210.80</ele>
	<time>2023-08-07T09:08:51.000Z</time>
</trkpt>
<trkpt lat="46.1235000" lon="10.5017150">
	<ele>2210.80</ele>
	<time>2023-08-07T09:08:52.000Z</time>
</trkpt>
<trkpt lat="46.1235000" lon="10.5017150">
	<ele>2210.80</ele>
	<time>2023-08-07T09:08:53.000Z</time>
</trkpt>
<trkpt lat="46.1235000" lon="10.5017150">
	<ele>2210.80</ele>
	<time>2023-08-07T09:08:54.000Z</time>
</trkpt>
<trkpt lat="46.1235000" lon="10.5017150">
	<ele>2210.80</ele>
	<time>2023-08-07T09:08:55.000Z</time>
</trkpt>
<trkpt lat="46.1235000" lon="10.5017150">
	<ele>2210.80</ele>
	<time>2023-08-07T09:08:56.000Z</time>
</trkpt>
<trkpt lat="46.1235000" lon="10.5017150">
	<ele>2210.80</ele>
	<time>2023-08-07T09:08:57.000Z</time>
</trkpt>
<trkpt lat="46.1235000" lon="10.5017150">
	<ele>2210.80</ele>
	<time>2023-08-07T09:08:58.000Z</time>
</trkpt>
<trkpt lat="46.1235000" lon="10.5017150">
	<ele>2210.80</ele>
	<time>2023-08-07T09:08:59.000Z</time>
</trkpt>
<trkpt lat="46.1235010" lon="10.5017150">
	<ele>2210.80</ele>
	<time>2023-08-07T09:09:00.000Z</time>
</trkpt>
<trkpt lat="46.1235010" lon="10.5017150">
	<ele>2210.80</ele>
	<time>2023-08-07T09:09:01.000Z</time>
</trkpt>
<trkpt lat="46.1235010" lon="10.5017150">
	<ele>2210.80</ele>
	<time>2023-08-07T09:09:02.000Z</time>
</trkpt>
<trkpt lat="46.1235010" lon="10.5017150">
	<ele>2210.80</ele>
	<time>2023-08-07T09:09:03.000Z</time>
</trkpt>
<trkpt lat="46.1235010" lon="10.5017150">
	<ele>2210.80</ele>
	<time>2023-08-07T09:09:04.000Z</time>
</trkpt>
<trkpt lat="46.1235010" lon="10.5017150">
	<ele>2210.80</ele>
	<time>2023-08-07T09:09:05.000Z</time>
</trkpt>
<trkpt lat="46.1235010" lon="10.5017150">
	<ele>2210.80</ele>
	<time>2023-08-07T09:09:06.000Z</time>
</trkpt>
<trkpt lat="46.1235010" lon="10.5017150">
	<ele>2210.80</ele>
	<time>2023-08-07T09:09:07.000Z</time>
</trkpt>
<trkpt lat="46.1235010" lon="10.5017150">
	<ele>2210.80</ele>
	<time>2023-08-07T09:09:08.000Z</time>
</trkpt>
<trkpt lat="46.1235010" lon="10.5017150">
	<ele>2210.80</ele>
	<time>2023-08-07T09:09:09.000Z</time>
</trkpt>
<trkpt lat="46.1235010" lon="10.5017150">
	<ele>2210.80</ele>
	<time>2023-08-07T09:09:10.000Z</time>
</trkpt>
<trkpt lat="46.1235010" lon="10.5017150">
	<ele>2210.80</ele>
	<time>2023-08-07T09:09:11.000Z</time>
</trkpt>
<trkpt lat="46.1235010" lon="10.5017150">
	<ele>2210.80</ele>
	<time>2023-08-07T09:09:12.000Z</time>
</trkpt>
<trkpt lat="46.1235010" lon="10.5017150">
	<ele>2210.80</ele>
	<time>2023-08-07T09:09:13.000Z</time>
</trkpt>
<trkpt lat="46.1235010" lon="10.5017150">
	<ele>2210.80</ele>
	<time>2023-08-07T09:09:14.000Z</time>
</trkpt>
<trkpt lat="46.1235010" lon="10.5017150">
	<ele>2210.80</ele>
	<time>2023-08-07T09:09:15.000Z</time>
</trkpt>
<trkpt lat="46.1235010" lon="10.5017150">
	<ele>2210.80</ele>
	<time>2023-08-07T09:09:16.000Z</time>
</trkpt>
<trkpt lat="46.1235010" lon="10.5017150">
	<ele>2210.80</ele>
	<time>2023-08-07T09:09:17.000Z</time>
</trkpt>
<trkpt lat="46.1235010" lon="10.5017150">
	<ele>2210.80</ele>
	<time>2023-08-07T09:09:18.000Z</time>
</trkpt>
<trkpt lat="46.1235010" lon="10.5017150">
	<ele>2210.80</ele>
	<time>2023-08-07T09:09:19.000Z</time>
</trkpt>
<trkpt lat="46.1235010" lon="10.5017150">
	<ele>2210.80</ele>
	<time>2023-08-07T09:09:20.000Z</time>
</trkpt>
<trkpt lat="46.1235010" lon="10.5017160">
	<ele>2210.80</ele>
	<time>2023-08-07T09:09:21.000Z</time>
</trkpt>
<trkpt lat="46.1235020" lon="10.5017160">
	<ele>2210.80</ele>
	<time>2023-08-07T09:09:22.000Z</time>
</trkpt>
<trkpt lat="46.1235020" lon="10.5017160">
	<ele>2210.80</ele>
	<time>2023-08-07T09:09:23.000Z</time>
</trkpt>
<trkpt lat="46.1235020" lon="10.5017160">
	<ele>2210.80</ele>
	<time>2023-08-07T09:09:24.000Z</time>
</trkpt>
<trkpt lat="46.1235020" lon="10.5017160">
	<ele>2210.80</ele>
	<time>2023-08-07T09:09:25.000Z</time>
</trkpt>
<trkpt lat="46.1235020" lon="10.5017160">
	<ele>2210.80</ele>
	<time>2023-08-07T09:09:26.000Z</time>
</trkpt>
<trkpt lat="46.1235020" lon="10.5017160">
	<ele>2210.80</ele>
	<time>2023-08-07T09:09:27.000Z</time>
</trkpt>
<trkpt lat="46.1235020" lon="10.5017160">
	<ele>2210.80</ele>
	<time>2023-08-07T09:09:28.000Z</time>
</trkpt>
<trkpt lat="46.1235020" lon="10.5017160">
	<ele>2210.80</ele>
	<time>2023-08-07T09:09:29.000Z</time>
</trkpt>
<trkpt lat="46.1235020" lon="10.5017160">
	<ele>2210.80</ele>
	<time>2023-08-07T09:09:30.000Z</time>
</trkpt>
<trkpt lat="46.1235020" lon="10.5017160">
	<ele>2210.80</ele>
	<time>2023-08-07T09:09:31.000Z</time>
</trkpt>
<trkpt lat="46.1235020" lon="10.5017160">
	<ele>2210.80</ele>
	<time>2023-08-07T09:09:32.000Z</time>
</trkpt>
<trkpt lat="46.1235020" lon="10.5017160">
	<ele>2210.80</ele>
	<time>2023-08-07T09:09:33.000Z</time>
</trkpt>
<trkpt lat="46.1235020" lon="10.5017160">
	<ele>2210.80</ele>
	<time>2023-08-07T09:09:34.000Z</time>
</trkpt>
<trkpt lat="46.1235020" lon="10.5017160">
	<ele>2210.80</ele>
	<time>2023-08-07T09:09:35.000Z</time>
</trkpt>
<trkpt lat="46.1235020" lon="10.5017160">
	<ele>2210.80</ele>
	<time>2023-08-07T09:09:36.000Z</time>
</trkpt>
<trkpt lat="46.1235020" lon="10.5017160">
	<ele>2210.80</ele>
	<time>2023-08-07T09:09:37.000Z</time>
</trkpt>
<trkpt lat="46.1235020" lon="10.5017160">
	<ele>2210.80</ele>
	<time>2023-08-07T09:09:38.000Z</time>
</trkpt>
<trkpt lat="46.1235020" lon="10.5017160">
	<ele>2210.80</ele>
	<time>2023-08-07T09:09:39.000Z</time>
</trkpt>
<trkpt lat="46.1235020" lon="10.5017160">
	<ele>2210.80</ele>
	<time>2023-08-07T09:09:40.000Z</time>
</trkpt>
<trkpt lat="46.1235020" lon="10.5017160">
	<ele>2210.80</ele>
	<time>2023-08-07T09:09:41.000Z</time>
</trkpt>
<trkpt lat="46.1235020" lon="10.5017160">
	<ele>2210.80</ele>
	<time>2023-08-07T09:09:42.000Z</time>
</trkpt>
<trkpt lat="46.1235020" lon="10.5017160">
	<ele>2210.80</ele>
	<time>2023-08-07T09:09:43.000Z</time>
</trkpt>
<trkpt lat="46.1235020" lon="10.5017160">
	<ele>2210.80</ele>
	<time>2023-08-07T09:09:44.000Z</time>
</trkpt>
<trkpt lat="46.1235030" lon="10.5017160">
	<ele>2210.80</ele>
	<time>2023-08-07T09:09:45.000Z</time>
</trkpt>
<trkpt lat="46.1235030" lon="10.5017160">
	<ele>2210.80</ele>
	<time>2023-08-07T09:09:46.000Z</time>
</trkpt>
<trkpt lat="46.1235030" lon="10.5017160">
	<ele>2210.80</ele>
	<time>2023-08-07T09:09:47.000Z</time>
</trkpt>
<trkpt lat="46.1235030" lon="10.5017160">
	<ele>2210.80</ele>
	<time>2023-08-07T09:09:48.000Z</time>
</trkpt>
<trkpt lat="46.1235030" lon="10.5017160">
	<ele>2210.80</ele>
	<time>2023-08-07T09:09:49.000Z</time>
</trkpt>
<trkpt lat="46.1235030" lon="10.5017160">
	<ele>2210.80</ele>
	<time>2023-08-07T09:09:50.000Z</time>
</trkpt>
<trkpt lat="46.1235030" lon="10.5017160">
	<ele>2210.80</ele>
	<time>2023-08-07T09:09:51.000Z</time>
</trkpt>
<trkpt lat="46.1235030" lon="10.5017160">
	<ele>2210.80</ele>
	<time>2023-08-07T09:09:52.000Z</time>
</trkpt>
<trkpt lat="46.1235030" lon="10.5017160">
	<ele>2210.80</ele>
	<time>2023-08-07T09:09:53.000Z</time>
</trkpt>
<trkpt lat="46.1235030" lon="10.5017160">
	<ele>2210.80</ele>
	<time>2023-08-07T09:09:54.000Z</time>
</trkpt>
<trkpt lat="46.1235030" lon="10.5017160">
	<ele>2210.80</ele>
	<time>2023-08-07T09:09:55.000Z</time>
</trkpt>
<trkpt lat="46.1235030" lon="10.5017160">
	<ele>2210.80</ele>
	<time>2023-08-07T09:09:56.000Z</time>
</trkpt>
<trkpt lat="46.1235030" lon="10.5017160">
	<ele>2210.80</ele>
	<time>2023-08-07T09:09:57.000Z</time>
</trkpt>
<trkpt lat="46.1235030" lon="10.5017160">
	<ele>2210.80</ele>
	<time>2023-08-07T09:09:58.000Z</time>
</trkpt>
<trkpt lat="46.1235030" lon="10.5017160">
	<ele>2210.80</ele>
	<time>2023-08-07T09:09:59.000Z</time>
</trkpt>
<trkpt lat="46.1235030" lon="10.5017160">
	<ele>2210.80</ele>
	<time>2023-08-07T09:10:00.000Z</time>
</trkpt>
<trkpt lat="46.1235030" lon="10.5017170">
	<ele>2210.80</ele>
	<time>2023-08-07T09:10:01.000Z</time>
</trkpt>
<trkpt lat="46.1235030" lon="10.5017170">
	<ele>2210.80</ele>
	<time>2023-08-07T09:10:02.000Z</time>
</trkpt>
<trkpt lat="46.1235040" lon="10.5017170">
	<ele>2210.80</ele>
	<time>2023-08-07T09:10:03.000Z</time>
</trkpt>
<trkpt lat="46.1235040" lon="10.5017170">
	<ele>2210.80</ele>
	<time>2023-08-07T09:10:04.000Z</time>
</trkpt>
<trkpt lat="46.1235040" lon="10.5017170">
	<ele>2210.80</ele>
	<time>2023-08-07T09:10:05.000Z</time>
</trkpt>
<trkpt lat="46.1235040" lon="10.5017170">
	<ele>2210.80</ele>
	<time>2023-08-07T09:10:06.000Z</time>
</trkpt>
<trkpt lat="46.1235040" lon="10.5017170">
	<ele>2210.80</ele>
	<time>2023-08-07T09:10:07.000Z</time>
</trkpt>
<trkpt lat="46.1235040" lon="10.5017170">
	<ele>2210.80</ele>
	<time>2023-08-07T09:10:08.000Z</time>
</trkpt>
<trkpt lat="46.1235040" lon="10.5017170">
	<ele>2210.80</ele>
	<time>2023-08-07T09:10:09.000Z</time>
</trkpt>
<trkpt lat="46.1235040" lon="10.5017170">
	<ele>2210.80</ele>
	<time>2023-08-07T09:10:10.000Z</time>
</trkpt>
<trkpt lat="46.1235040" lon="10.5017170">
	<ele>2210.80</ele>
	<time>2023-08-07T09:10:11.000Z</time>
</trkpt>
<trkpt lat="46.1235040" lon="10.5017170">
	<ele>2210.80</ele>
	<time>2023-08-07T09:10:12.000Z</time>
</trkpt>
<trkpt lat="46.1235040" lon="10.5017170">
	<ele>2210.80</ele>
	<time>2023-08-07T09:10:13.000Z</time>
</trkpt>
<trkpt lat="46.1235040" lon="10.5017170">
	<ele>2210.80</ele>
	<time>2023-08-07T09:10:14.000Z</time>
</trkpt>
<trkpt lat="46.1235040" lon="10.5017170">
	<ele>2210.80</ele>
	<time>2023-08-07T09:10:15.000Z</time>
</trkpt>
<trkpt lat="46.1235040" lon="10.5017170">
	<ele>2210.80</ele>
	<time>2023-08-07T09:10:16.000Z</time>
</trkpt>
<trkpt lat="46.1235040" lon="10.5017170">
	<ele>2210.80</ele>
	<time>2023-08-07T09:10:17.000Z</time>
</trkpt>
<trkpt lat="46.1235040" lon="10.5017170">
	<ele>2210.80</ele>
	<time>2023-08-07T09:10:18.000Z</time>
</trkpt>
<trkpt lat="46.1235040" lon="10.5017170">
	<ele>2210.80</ele>
	<time>2023-08-07T09:10:19.000Z</time>
</trkpt>
<trkpt lat="46.1235040" lon="10.5017170">
	<ele>2210.80</ele>
	<time>2023-08-07T09:10:20.000Z</time>
</trkpt>
<trkpt lat="46.1235040" lon="10.5017170">
	<ele>2210.80</ele>
	<time>2023-08-07T09:10:21.000Z</time>
</trkpt>
<trkpt lat="46.1235040" lon="10.5017170">
	<ele>2210.80</ele>
	<time>2023-08-07T09:10:22.000Z</time>
</trkpt>
<trkpt lat="46.1235040" lon="10.5017170">
	<ele>2210.80</ele>
	<time>2023-08-07T09:10:23.000Z</time>
</trkpt>
<trkpt lat="46.1235040" lon="10.5017170">
	<ele>2210.80</ele>
	<time>2023-08-07T09:10:24.000Z</time>
</trkpt>
<trkpt lat="46.1235040" lon="10.5017170">
	<ele>2210.80</ele>
	<time>2023-08-07T09:10:25.000Z</time>
</trkpt>
<trkpt lat="46.1235040" lon="10.5017170">
	<ele>2210.80</ele>
	<time>2023-08-07T09:10:26.000Z</time>
</trkpt>
<trkpt lat="46.1235050" lon="10.5017170">
	<ele>2210.80</ele>
	<time>2023-08-07T09:10:27.000Z</time>
</trkpt>
<trkpt lat="46.1235050" lon="10.5017170">
	<ele>2210.80</ele>
	<time>2023-08-07T09:10:28.000Z</time>
</trkpt>
<trkpt lat="46.1235050" lon="10.5017170">
	<ele>2210.80</ele>
	<time>2023-08-07T09:10:29.000Z</time>
</trkpt>
<trkpt lat="46.1235050" lon="10.5017170">
	<ele>2210.80</ele>
	<time>2023-08-07T09:10:30.000Z</time>
</trkpt>
<trkpt lat="46.1235050" lon="10.5017170">
	<ele>2210.80</ele>
	<time>2023-08-07T09:10:31.000Z</time>
</trkpt>
<trkpt lat="46.1235050" lon="10.5017170">
	<ele>2210.80</ele>
	<time>2023-08-07T09:10:32.000Z</time>
</trkpt>
<trkpt lat="46.1235050" lon="10.5017170">
	<ele>2210.80</ele>
	<time>2023-08-07T09:10:33.000Z</time>
</trkpt>
<trkpt lat="46.1235050" lon="10.5017170">
	<ele>2210.80</ele>
	<time>2023-08-07T09:10:34.000Z</time>
</trkpt>
<trkpt lat="46.1235050" lon="10.5017170">
	<ele>2210.80</ele>
	<time>2023-08-07T09:10:35.000Z</time>
</trkpt>
<trkpt lat="46.1235050" lon="10.5017170">
	<ele>2210.80</ele>
	<time>2023-08-07T09:10:36.000Z</time>
</trkpt>
<trkpt lat="46.1235050" lon="10.5017170">
	<ele>2210.80</ele>
	<time>2023-08-07T09:10:37.000Z</time>
</trkpt>
<trkpt lat="46.1235050" lon="10.5017170">
	<ele>2210.80</ele>
	<time>2023-08-07T09:10:38.000Z</time>
</trkpt>
<trkpt lat="46.1235050" lon="10.5017170">
	<ele>2210.80</ele>
	<time>2023-08-07T09:10:39.000Z</time>
</trkpt>
<trkpt lat="46.1235050" lon="10.5017170">
	<ele>2210.80</ele>
	<time>2023-08-07T09:10:40.000Z</time>
</trkpt>
<trkpt lat="46.1235050" lon="10.5017180">
	<ele>2210.80</ele>
	<time>2023-08-07T09:10:41.000Z</time>
</trkpt>
<trkpt lat="46.1235050" lon="10.5017180">
	<ele>2210.80</ele>
	<time>2023-08-07T09:10:42.000Z</time>
</trkpt>
<trkpt lat="46.1235050" lon="10.5017180">
	<ele>2210.80</ele>
	<time>2023-08-07T09:10:43.000Z</time>
</trkpt>
<trkpt lat="46.1235050" lon="10.5017180">
	<ele>2210.80</ele>
	<time>2023-08-07T09:10:44.000Z</time>
</trkpt>
<trkpt lat="46.1235050" lon="10.5017180">
	<ele>2210.80</ele>
	<time>2023-08-07T09:10:45.000Z</time>
</trkpt>
<trkpt lat="46.1235050" lon="10.5017180">
	<ele>2210.80</ele>
	<time>2023-08-07T09:10:46.000Z</time>
</trkpt>
<trkpt lat="46.1235050" lon="10.5017180">
	<ele>2210.80</ele>
	<time>2023-08-07T09:10:47.000Z</time>
</trkpt>
<trkpt lat="46.1235050" lon="10.5017180">
	<ele>2210.80</ele>
	<time>2023-08-07T09:10:48.000Z</time>
</trkpt>
<trkpt lat="46.1235050" lon="10.5017180">
	<ele>2210.80</ele>
	<time>2023-08-07T09:10:49.000Z</time>
</trkpt>
<trkpt lat="46.1235050" lon="10.5017180">
	<ele>2210.80</ele>
	<time>2023-08-07T09:10:50.000Z</time>
</trkpt>
<trkpt lat="46.1235050" lon="10.5017180">
	<ele>2210.80</ele>
	<time>2023-08-07T09:10:51.000Z</time>
</trkpt>
<trkpt lat="46.1235050" lon="10.5017180">
	<ele>2210.80</ele>
	<time>2023-08-07T09:10:52.000Z</time>
</trkpt>
<trkpt lat="46.1235050" lon="10.5017180">
	<ele>2210.80</ele>
	<time>2023-08-07T09:10:53.000Z</time>
</trkpt>
<trkpt lat="46.1235050" lon="10.5017180">
	<ele>2210.80</ele>
	<time>2023-08-07T09:10:54.000Z</time>
</trkpt>
<trkpt lat="46.1235050" lon="10.5017180">
	<ele>2210.80</ele>
	<time>2023-08-07T09:10:55.000Z</time>
</trkpt>
<trkpt lat="46.1235050" lon="10.5017180">
	<ele>2210.80</ele>
	<time>2023-08-07T09:10:56.000Z</time>
</trkpt>
<trkpt lat="46.1235050" lon="10.5017180">
	<ele>2210.80</ele>
	<time>2023-08-07T09:10:57.000Z</time>
</trkpt>
<trkpt lat="46.1235050" lon="10.5017180">
	<ele>2210.80</ele>
	<time>2023-08-07T09:10:58.000Z</time>
</trkpt>
<trkpt lat="46.1235050" lon="10.5017180">
	<ele>2210.80</ele>
	<time>2023-08-07T09:10:59.000Z</time>
</trkpt>
<trkpt lat="46.1235050" lon="10.5017180">
	<ele>2210.80</ele>
	<time>2023-08-07T09:11:00.000Z</time>
</trkpt>
<trkpt lat="46.1235050" lon="10.5017180">
	<ele>2210.80</ele>
	<time>2023-08-07T09:11:01.000Z</time>
</trkpt>
<trkpt lat="46.1235050" lon="10.5017180">
	<ele>2210.80</ele>
	<time>2023-08-07T09:11:02.000Z</time>
</trkpt>
<trkpt lat="46.1235050" lon="10.5017180">
	<ele>2210.80</ele>
	<time>2023-08-07T09:11:03.000Z</time>
</trkpt>
<trkpt lat="46.1235050" lon="10.5017180">
	<ele>2210.80</ele>
	<time>2023-08-07T09:11:04.000Z</time>
</trkpt>
<trkpt lat="46.1235050" lon="10.5017180">
	<ele>2210.80</ele>
	<time>2023-08-07T09:11:05.000Z</time>
</trkpt>
<trkpt lat="46.1235050" lon="10.5017180">
	<ele>2210.80</ele>
	<time>2023-08-07T09:11:06.000Z</time>
</trkpt>
<trkpt lat="46.1235060" lon="10.5017180">
	<ele>2210.80</ele>
	<time>2023-08-07T09:11:07.000Z</time>
</trkpt>
<trkpt lat="46.1235060" lon="10.5017180">
	<ele>2210.80</ele>
	<time>2023-08-07T09:11:08.000Z</time>
</trkpt>
<trkpt lat="46.1235060" lon="10.5017180">
	<ele>2210.80</ele>
	<time>2023-08-07T09:11:09.000Z</time>
</trkpt>
<trkpt lat="46.1235060" lon="10.5017180">
	<ele>2210.80</ele>
	<time>2023-08-07T09:11:10.000Z</time>
</trkpt>
<trkpt lat="46.1235060" lon="10.5017180">
	<ele>2210.80</ele>
	<time>2023-08-07T09:11:11.000Z</time>
</trkpt>
<trkpt lat="46.1235060" lon="10.5017180">
	<ele>2210.80</ele>
	<time>2023-08-07T09:11:12.000Z</time>
</trkpt>
<trkpt lat="46.1235060" lon="10.5017180">
	<ele>2210.80</ele>
	<time>2023-08-07T09:11:13.000Z</time>
</trkpt>
<trkpt lat="46.1235060" lon="10.5017180">
	<ele>2210.80</ele>
	<time>2023-08-07T09:11:14.000Z</time>
</trkpt>
<trkpt lat="46.1235060" lon="10.5017180">
	<ele>2210.80</ele>
	<time>2023-08-07T09:11:15.000Z</time>
</trkpt>
<trkpt lat="46.1235060" lon="10.5017180">
	<ele>2210.80</ele>
	<time>2023-08-07T09:11:16.000Z</time>
</trkpt>
<trkpt lat="46.1235060" lon="10.5017180">
	<ele>2210.80</ele>
	<time>2023-08-07T09:11:17.000Z</time>
</trkpt>
<trkpt lat="46.1235060" lon="10.5017180">
	<ele>2210.80</ele>
	<time>2023-08-07T09:11:18.000Z</time>
</trkpt>
<trkpt lat="46.1235060" lon="10.5017180">
	<ele>2210.80</ele>
	<time>2023-08-07T09:11:19.000Z</time>
</trkpt>
<trkpt lat="46.1235060" lon="10.5017180">
	<ele>2210.80</ele>
	<time>2023-08-07T09:11:20.000Z</time>
</trkpt>
<trkpt lat="46.1235060" lon="10.5017180">
	<ele>2210.80</ele>
	<time>2023-08-07T09:11:21.000Z</time>
</trkpt>
<trkpt lat="46.1235060" lon="10.5017180">
	<ele>2210.80</ele>
	<time>2023-08-07T09:11:22.000Z</time>
</trkpt>
<trkpt lat="46.1235060" lon="10.5017180">
	<ele>2210.80</ele>
	<time>2023-08-07T09:11:23.000Z</time>
</trkpt>
<trkpt lat="46.1235060" lon="10.5017180">
	<ele>2210.80</ele>
	<time>2023-08-07T09:11:24.000Z</time>
</trkpt>
<trkpt lat="46.1235060" lon="10.5017180">
	<ele>2210.80</ele>
	<time>2023-08-07T09:11:25.000Z</time>
</trkpt>
<trkpt lat="46.1235060" lon="10.5017180">
	<ele>2210.80</ele>
	<time>2023-08-07T09:11:26.000Z</time>
</trkpt>
<trkpt lat="46.1235060" lon="10.5017180">
	<ele>2210.80</ele>
	<time>2023-08-07T09:11:27.000Z</time>
</trkpt>
<trkpt lat="46.1235060" lon="10.5017180">
	<ele>2210.80</ele>
	<time>2023-08-07T09:11:28.000Z</time>
</trkpt>
<trkpt lat="46.1235060" lon="10.5017180">
	<ele>2210.80</ele>
	<time>2023-08-07T09:11:29.000Z</time>
</trkpt>
<trkpt lat="46.1235060" lon="10.5017180">
	<ele>2210.80</ele>
	<time>2023-08-07T09:11:30.000Z</time>
</trkpt>
<trkpt lat="46.1235060" lon="10.5017180">
	<ele>2210.80</ele>
	<time>2023-08-07T09:11:31.000Z</time>
</trkpt>
<trkpt lat="46.1235060" lon="10.5017180">
	<ele>2210.80</ele>
	<time>2023-08-07T09:11:32.000Z</time>
</trkpt>
<trkpt lat="46.1235060" lon="10.5017180">
	<ele>2210.80</ele>
	<time>2023-08-07T09:11:33.000Z</time>
</trkpt>
<trkpt lat="46.1235060" lon="10.5017180">
	<ele>2210.80</ele>
	<time>2023-08-07T09:11:34.000Z</time>
</trkpt>
<trkpt lat="46.1235060" lon="10.5017180">
	<ele>2210.80</ele>
	<time>2023-08-07T09:11:35.000Z</time>
</trkpt>
<trkpt lat="46.1235060" lon="10.5017180">
	<ele>2210.80</ele>
	<time>2023-08-07T09:11:36.000Z</time>
</trkpt>
<trkpt lat="46.1235060" lon="10.5017180">
	<ele>2210.80</ele>
	<time>2023-08-07T09:11:37.000Z</time>
</trkpt>
<trkpt lat="46.1235060" lon="10.5017180">
	<ele>2210.80</ele>
	<time>2023-08-07T09:11:38.000Z</time>
</trkpt>
<trkpt lat="46.1235060" lon="10.5017180">
	<ele>2210.80</ele>
	<time>2023-08-07T09:11:39.000Z</time>
</trkpt>
<trkpt lat="46.1235060" lon="10.5017180">
	<ele>2210.80</ele>
	<time>2023-08-07T09:11:40.000Z</time>
</trkpt>
<trkpt lat="46.1235060" lon="10.5017180">
	<ele>2210.80</ele>
	<time>2023-08-07T09:11:41.000Z</time>
</trkpt>
<trkpt lat="46.1235060" lon="10.5017180">
	<ele>2210.80</ele>
	<time>2023-08-07T09:11:42.000Z</time>
</trkpt>
<trkpt lat="46.1235060" lon="10.5017180">
	<ele>2210.80</ele>
	<time>2023-08-07T09:11:43.000Z</time>
</trkpt>
<trkpt lat="46.1235060" lon="10.5017180">
	<ele>2210.80</ele>
	<time>2023-08-07T09:11:44.000Z</time>
</trkpt>
<trkpt lat="46.1235060" lon="10.5017180">
	<ele>2210.80</ele>
	<time>2023-08-07T09:11:45.000Z</time>
</trkpt>
<trkpt lat="46.1235060" lon="10.5017180">
	<ele>2210.80</ele>
	<time>2023-08-07T09:11:46.000Z</time>
</trkpt>
<trkpt lat="46.1235060" lon="10.5017180">
	<ele>2210.80</ele>
	<time>2023-08-07T09:11:47.000Z</time>
</trkpt>
<trkpt lat="46.1235060" lon="10.5017180">
	<ele>2210.80</ele>
	<time>2023-08-07T09:11:48.000Z</time>
</trkpt>
<trkpt lat="46.1235060" lon="10.5017180">
	<ele>2210.80</ele>
	<time>2023-08-07T09:11:49.000Z</time>
</trkpt>
<trkpt lat="46.1235060" lon="10.5017180">
	<ele>2210.80</ele>
	<time>2023-08-07T09:11:50.000Z</time>
</trkpt>
<trkpt lat="46.1235060" lon="10.5017180">
	<ele>2210.80</ele>
	<time>2023-08-07T09:11:51.000Z</time>
</trkpt>
<trkpt lat="46.1235070" lon="10.5017180">
	<ele>2210.80</ele>
	<time>2023-08-07T09:11:52.000Z</time>
</trkpt>
<trkpt lat="46.1235070" lon="10.5017180">
	<ele>2210.80</ele>
	<time>2023-08-07T09:11:53.000Z</time>
</trkpt>
<trkpt lat="46.1235070" lon="10.5017180">
	<ele>2210.80</ele>
	<time>2023-08-07T09:11:54.000Z</time>
</trkpt>
<trkpt lat="46.1235070" lon="10.5017180">
	<ele>2210.80</ele>
	<time>2023-08-07T09:11:55.000Z</time>
</trkpt>
<trkpt lat="46.1235070" lon="10.5017180">
	<ele>2210.80</ele>
	<time>2023-08-07T09:11:56.000Z</time>
</trkpt>
<trkpt lat="46.1235070" lon="10.5017180">
	<ele>2210.80</ele>
	<time>2023-08-07T09:11:57.000Z</time>
</trkpt>
<trkpt lat="46.1235070" lon="10.5017180">
	<ele>2210.80</ele>
	<time>2023-08-07T09:11:58.000Z</time>
</trkpt>
<trkpt lat="46.1235070" lon="10.5017180">
	<ele>2210.80</ele>
	<time>2023-08-07T09:11:59.000Z</time>
</trkpt>
<trkpt lat="46.1235070" lon="10.5017180">
	<ele>2210.80</ele>
	<time>2023-08-07T09:12:00.000Z</time>
</trkpt>
<trkpt lat="46.1235070" lon="10.5017180">
	<ele>2210.80</ele>
	<time>2023-08-07T09:12:01.000Z</time>
</trkpt>
<trkpt lat="46.1235070" lon="10.5017180">
	<ele>2210.80</ele>
	<time>2023-08-07T09:12:02.000Z</time>
</trkpt>
<trkpt lat="46.1235070" lon="10.5017180">
	<ele>2210.80</ele>
	<time>2023-08-07T09:12:03.000Z</time>
</trkpt>
<trkpt lat="46.1235070" lon="10.5017180">
	<ele>2210.80</ele>
	<time>2023-08-07T09:12:04.000Z</time>
</trkpt>
<trkpt lat="46.1235070" lon="10.5017180">
	<ele>2210.80</ele>
	<time>2023-08-07T09:12:05.000Z</time>
</trkpt>
<trkpt lat="46.1235070" lon="10.5017180">
	<ele>2210.80</ele>
	<time>2023-08-07T09:12:06.000Z</time>
</trkpt>
<trkpt lat="46.1235070" lon="10.5017180">
	<ele>2210.80</ele>
	<time>2023-08-07T09:12:07.000Z</time>
</trkpt>
<trkpt lat="46.1235070" lon="10.5017180">
	<ele>2210.80</ele>
	<time>2023-08-07T09:12:08.000Z</time>
</trkpt>
<trkpt lat="46.1235070" lon="10.5017180">
	<ele>2210.80</ele>
	<time>2023-08-07T09:12:09.000Z</time>
</trkpt>
<trkpt lat="46.1235070" lon="10.5017180">
	<ele>2210.80</ele>
	<time>2023-08-07T09:12:10.000Z</time>
</trkpt>
<trkpt lat="46.1235070" lon="10.5017180">
	<ele>2210.80</ele>
	<time>2023-08-07T09:12:11.000Z</time>
</trkpt>
<trkpt lat="46.1235070" lon="10.5017180">
	<ele>2210.80</ele>
	<time>2023-08-07T09:12:12.000Z</time>
</trkpt>
<trkpt lat="46.1235070" lon="10.5017180">
	<ele>2210.80</ele>
	<time>2023-08-07T09:12:13.000Z</time>
</trkpt>
<trkpt lat="46.1235070" lon="10.5017180">
	<ele>2210.80</ele>
	<time>2023-08-07T09:12:14.000Z</time>
</trkpt>
<trkpt lat="46.1235070" lon="10.5017180">
	<ele>2210.80</ele>
	<time>2023-08-07T09:12:15.000Z</time>
</trkpt>
<trkpt lat="46.1235070" lon="10.5017180">
	<ele>2210.80</ele>
	<time>2023-08-07T09:12:16.000Z</time>
</trkpt>
<trkpt lat="46.1235070" lon="10.5017180">
	<ele>2210.80</ele>
	<time>2023-08-07T09:12:17.000Z</time>
</trkpt>
<trkpt lat="46.1235070" lon="10.5017180">
	<ele>2210.80</ele>
	<time>2023-08-07T09:12:18.000Z</time>
</trkpt>
<trkpt lat="46.1235070" lon="10.5017180">
	<ele>2210.80</ele>
	<time>2023-08-07T09:12:19.000Z</time>
</trkpt>
<trkpt lat="46.1235070" lon="10.5017180">
	<ele>2210.80</ele>
	<time>2023-08-07T09:12:20.000Z</time>
</trkpt>
<trkpt lat="46.1235070" lon="10.5017180">
	<ele>2210.80</ele>
	<time>2023-08-07T09:12:21.000Z</time>
</trkpt>
<trkpt lat="46.1235070" lon="10.5017180">
	<ele>2210.80</ele>
	<time>2023-08-07T09:12:22.000Z</time>
</trkpt>
<trkpt lat="46.1235070" lon="10.5017180">
	<ele>2210.80</ele>
	<time>2023-08-07T09:12:23.000Z</time>
</trkpt>
<trkpt lat="46.1235070" lon="10.5017180">
	<ele>2210.80</ele>
	<time>2023-08-07T09:12:24.000Z</time>
</trkpt>
<trkpt lat="46.1235070" lon="10.5017180">
	<ele>2210.80</ele>
	<time>2023-08-07T09:12:25.000Z</time>
</trkpt>
<trkpt lat="46.1235080" lon="10.5017180">
	<ele>2210.80</ele>
	<time>2023-08-07T09:12:26.000Z</time>
</trkpt>
<trkpt lat="46.1235080" lon="10.5017180">
	<ele>2210.80</ele>
	<time>2023-08-07T09:12:27.000Z</time>
</trkpt>
<trkpt lat="46.1235080" lon="10.5017180">
	<ele>2210.80</ele>
	<time>2023-08-07T09:12:28.000Z</time>
</trkpt>
<trkpt lat="46.1235080" lon="10.5017180">
	<ele>2210.80</ele>
	<time>2023-08-07T09:12:29.000Z</time>
</trkpt>
<trkpt lat="46.1235080" lon="10.5017180">
	<ele>2210.80</ele>
	<time>2023-08-07T09:12:30.000Z</time>
</trkpt>
<trkpt lat="46.1235080" lon="10.5017180">
	<ele>2210.80</ele>
	<time>2023-08-07T09:12:31.000Z</time>
</trkpt>
<trkpt lat="46.1235080" lon="10.5017180">
	<ele>2210.80</ele>
	<time>2023-08-07T09:12:32.000Z</time>
</trkpt>
<trkpt lat="46.1235080" lon="10.5017180">
	<ele>2210.80</ele>
	<time>2023-08-07T09:12:33.000Z</time>
</trkpt>
<trkpt lat="46.1235080" lon="10.5017180">
	<ele>2210.80</ele>
	<time>2023-08-07T09:12:34.000Z</time>
</trkpt>
<trkpt lat="46.1235080" lon="10.5017180">
	<ele>2210.80</ele>
	<time>2023-08-07T09:12:35.000Z</time>
</trkpt>
<trkpt lat="46.1235080" lon="10.5017180">
	<ele>2210.80</ele>
	<time>2023-08-07T09:12:36.000Z</time>
</trkpt>
<trkpt lat="46.1235080" lon="10.5017180">
	<ele>2210.80</ele>
	<time>2023-08-07T09:12:37.000Z</time>
</trkpt>
<trkpt lat="46.1235080" lon="10.5017180">
	<ele>2210.80</ele>
	<time>2023-08-07T09:12:38.000Z</time>
</trkpt>
<trkpt lat="46.1235080" lon="10.5017180">
	<ele>2210.80</ele>
	<time>2023-08-07T09:12:39.000Z</time>
</trkpt>
<trkpt lat="46.1235080" lon="10.5017180">
	<ele>2210.80</ele>
	<time>2023-08-07T09:12:40.000Z</time>
</trkpt>
<trkpt lat="46.1235080" lon="10.5017180">
	<ele>2210.80</ele>
	<time>2023-08-07T09:12:41.000Z</time>
</trkpt>
<trkpt lat="46.1235080" lon="10.5017180">
	<ele>2210.80</ele>
	<time>2023-08-07T09:12:42.000Z</time>
</trkpt>
<trkpt lat="46.1235080" lon="10.5017180">
	<ele>2210.80</ele>
	<time>2023-08-07T09:12:43.000Z</time>
</trkpt>
<trkpt lat="46.1235080" lon="10.5017180">
	<ele>2210.80</ele>
	<time>2023-08-07T09:12:44.000Z</time>
</trkpt>
<trkpt lat="46.1235080" lon="10.5017180">
	<ele>2210.80</ele>
	<time>2023-08-07T09:12:45.000Z</time>
</trkpt>
<trkpt lat="46.1235080" lon="10.5017180">
	<ele>2210.80</ele>
	<time>2023-08-07T09:12:46.000Z</time>
</trkpt>
<trkpt lat="46.1235080" lon="10.5017180">
	<ele>2210.80</ele>
	<time>2023-08-07T09:12:47.000Z</time>
</trkpt>
<trkpt lat="46.1235080" lon="10.5017180">
	<ele>2210.80</ele>
	<time>2023-08-07T09:12:48.000Z</time>
</trkpt>
<trkpt lat="46.1235080" lon="10.5017180">
	<ele>2210.80</ele>
	<time>2023-08-07T09:12:49.000Z</time>
</trkpt>
<trkpt lat="46.1235080" lon="10.5017180">
	<ele>2210.80</ele>
	<time>2023-08-07T09:12:50.000Z</time>
</trkpt>
<trkpt lat="46.1235080" lon="10.5017180">
	<ele>2210.80</ele>
	<time>2023-08-07T09:12:51.000Z</time>
</trkpt>
<trkpt lat="46.1235080" lon="10.5017180">
	<ele>2210.80</ele>
	<time>2023-08-07T09:12:52.000Z</time>
</trkpt>
<trkpt lat="46.1235080" lon="10.5017180">
	<ele>2210.80</ele>
	<time>2023-08-07T09:12:53.000Z</time>
</trkpt>
<trkpt lat="46.1235080" lon="10.5017180">
	<ele>2210.80</ele>
	<time>2023-08-07T09:12:54.000Z</time>
</trkpt>
<trkpt lat="46.1235080" lon="10.5017180">
	<ele>2210.80</ele>
	<time>2023-08-07T09:12:55.000Z</time>
</trkpt>
<trkpt lat="46.1235080" lon="10.5017180">
	<ele>2210.80</ele>
	<time>2023-08-07T09:12:56.000Z</time>
</trkpt>
<trkpt lat="46.1235080" lon="10.5017180">
	<ele>2210.80</ele>
	<time>2023-08-07T09:12:57.000Z</time>
</trkpt>
<trkpt lat="46.1235080" lon="10.5017180">
	<ele>2210.80</ele>
	<time>2023-08-07T09:12:58.000Z</time>
</trkpt>
<trkpt lat="46.1235080" lon="10.5017180">
	<ele>2210.80</ele>
	<time>2023-08-07T09:12:59.000Z</time>
</trkpt>
<trkpt lat="46.1235080" lon="10.5017180">
	<ele>2210.80</ele>
	<time>2023-08-07T09:13:00.000Z</time>
</trkpt>
<trkpt lat="46.1235080" lon="10.5017180">
	<ele>2210.80</ele>
	<time>2023-08-07T09:13:01.000Z</time>
</trkpt>
<trkpt lat="46.1235080" lon="10.5017180">
	<ele>2210.80</ele>
	<time>2023-08-07T09:13:02.000Z</time>
</trkpt>
<trkpt lat="46.1235080" lon="10.5017180">
	<ele>2210.80</ele>
	<time>2023-08-07T09:13:03.000Z</time>
</trkpt>
<trkpt lat="46.1235080" lon="10.5017180">
	<ele>2210.80</ele>
	<time>2023-08-07T09:13:04.000Z</time>
</trkpt>
<trkpt lat="46.1235080" lon="10.5017180">
	<ele>2210.80</ele>
	<time>2023-08-07T09:13:05.000Z</time>
</trkpt>
<trkpt lat="46.1235080" lon="10.5017180">
	<ele>2210.80</ele>
	<time>2023-08-07T09:13:06.000Z</time>
</trkpt>
<trkpt lat="46.1235080" lon="10.5017190">
	<ele>2210.80</ele>
	<time>2023-08-07T09:13:07.000Z</time>
</trkpt>
<trkpt lat="46.1235090" lon="10.5017190">
	<ele>2210.80</ele>
	<time>2023-08-07T09:13:08.000Z</time>
</trkpt>
<trkpt lat="46.1235090" lon="10.5017190">
	<ele>2210.80</ele>
	<time>2023-08-07T09:13:09.000Z</time>
</trkpt>
<trkpt lat="46.1235090" lon="10.5017190">
	<ele>2210.80</ele>
	<time>2023-08-07T09:13:10.000Z</time>
</trkpt>
<trkpt lat="46.1235090" lon="10.5017190">
	<ele>2210.80</ele>
	<time>2023-08-07T09:13:11.000Z</time>
</trkpt>
<trkpt lat="46.1235090" lon="10.5017190">
	<ele>2210.80</ele>
	<time>2023-08-07T09:13:12.000Z</time>
</trkpt>
<trkpt lat="46.1235090" lon="10.5017190">
	<ele>2210.80</ele>
	<time>2023-08-07T09:13:13.000Z</time>
</trkpt>
<trkpt lat="46.1235090" lon="10.5017190">
	<ele>2210.80</ele>
	<time>2023-08-07T09:13:14.000Z</time>
</trkpt>
<trkpt lat="46.1235090" lon="10.5017190">
	<ele>2210.80</ele>
	<time>2023-08-07T09:13:15.000Z</time>
</trkpt>
<trkpt lat="46.1235090" lon="10.5017190">
	<ele>2210.80</ele>
	<time>2023-08-07T09:13:16.000Z</time>
</trkpt>
<trkpt lat="46.1235090" lon="10.5017190">
	<ele>2210.80</ele>
	<time>2023-08-07T09:13:17.000Z</time>
</trkpt>
<trkpt lat="46.1235090" lon="10.5017190">
	<ele>2210.80</ele>
	<time>2023-08-07T09:13:18.000Z</time>
</trkpt>
<trkpt lat="46.1235090" lon="10.5017190">
	<ele>2210.80</ele>
	<time>2023-08-07T09:13:19.000Z</time>
</trkpt>
<trkpt lat="46.1235090" lon="10.5017190">
	<ele>2210.80</ele>
	<time>2023-08-07T09:13:20.000Z</time>
</trkpt>
<trkpt lat="46.1235090" lon="10.5017190">
	<ele>2210.80</ele>
	<time>2023-08-07T09:13:21.000Z</time>
</trkpt>
<trkpt lat="46.1235090" lon="10.5017190">
	<ele>2210.80</ele>
	<time>2023-08-07T09:13:22.000Z</time>
</trkpt>
<trkpt lat="46.1235090" lon="10.5017190">
	<ele>2210.80</ele>
	<time>2023-08-07T09:13:23.000Z</time>
</trkpt>
<trkpt lat="46.1235090" lon="10.5017190">
	<ele>2210.80</ele>
	<time>2023-08-07T09:13:24.000Z</time>
</trkpt>
<trkpt lat="46.1235090" lon="10.5017190">
	<ele>2210.80</ele>
	<time>2023-08-07T09:13:25.000Z</time>
</trkpt>
<trkpt lat="46.1235090" lon="10.5017190">
	<ele>2210.80</ele>
	<time>2023-08-07T09:13:26.000Z</time>
</trkpt>
<trkpt lat="46.1235090" lon="10.5017190">
	<ele>2210.80</ele>
	<time>2023-08-07T09:13:27.000Z</time>
</trkpt>
<trkpt lat="46.1235090" lon="10.5017190">
	<ele>2210.80</ele>
	<time>2023-08-07T09:13:28.000Z</time>
</trkpt>
<trkpt lat="46.1235090" lon="10.5017190">
	<ele>2210.80</ele>
	<time>2023-08-07T09:13:29.000Z</time>
</trkpt>
<trkpt lat="46.1235090" lon="10.5017190">
	<ele>2210.80</ele>
	<time>2023-08-07T09:13:30.000Z</time>
</trkpt>
<trkpt lat="46.1235090" lon="10.5017190">
	<ele>2210.80</ele>
	<time>2023-08-07T09:13:31.000Z</time>
</trkpt>
<trkpt lat="46.1235090" lon="10.5017190">
	<ele>2210.80</ele>
	<time>2023-08-07T09:13:32.000Z</time>
</trkpt>
<trkpt lat="46.1235090" lon="10.5017180">
	<ele>2210.80</ele>
	<time>2023-08-07T09:13:33.000Z</time>
</trkpt>
<trkpt lat="46.1235090" lon="10.5017180">
	<ele>2210.80</ele>
	<time>2023-08-07T09:13:34.000Z</time>
</trkpt>
<trkpt lat="46.1235090" lon="10.5017180">
	<ele>2210.80</ele>
	<time>2023-08-07T09:13:35.000Z</time>
</trkpt>
<trkpt lat="46.1235090" lon="10.5017180">
	<ele>2210.80</ele>
	<time>2023-08-07T09:13:36.000Z</time>
</trkpt>
<trkpt lat="46.1235090" lon="10.5017190">
	<ele>2210.80</ele>
	<time>2023-08-07T09:13:37.000Z</time>
</trkpt>
<trkpt lat="46.1235090" lon="10.5017190">
	<ele>2210.80</ele>
	<time>2023-08-07T09:13:38.000Z</time>
</trkpt>
<trkpt lat="46.1235090" lon="10.5017190">
	<ele>2210.80</ele>
	<time>2023-08-07T09:13:39.000Z</time>
</trkpt>
<trkpt lat="46.1235090" lon="10.5017190">
	<ele>2210.80</ele>
	<time>2023-08-07T09:13:40.000Z</time>
</trkpt>
<trkpt lat="46.1235090" lon="10.5017190">
	<ele>2210.80</ele>
	<time>2023-08-07T09:13:41.000Z</time>
</trkpt>
<trkpt lat="46.1235090" lon="10.5017190">
	<ele>2210.80</ele>
	<time>2023-08-07T09:13:42.000Z</time>
</trkpt>
<trkpt lat="46.1235090" lon="10.5017190">
	<ele>2210.80</ele>
	<time>2023-08-07T09:13:43.000Z</time>
</trkpt>
<trkpt lat="46.1235090" lon="10.5017190">
	<ele>2210.80</ele>
	<time>2023-08-07T09:13:44.000Z</time>
</trkpt>
<trkpt lat="46.1235090" lon="10.5017190">
	<ele>2210.80</ele>
	<time>2023-08-07T09:13:45.000Z</time>
</trkpt>
<trkpt lat="46.1235090" lon="10.5017190">
	<ele>2210.80</ele>
	<time>2023-08-07T09:13:46.000Z</time>
</trkpt>
<trkpt lat="46.1235090" lon="10.5017190">
	<ele>2210.80</ele>
	<time>2023-08-07T09:13:47.000Z</time>
</trkpt>
<trkpt lat="46.1235090" lon="10.5017190">
	<ele>2210.80</ele>
	<time>2023-08-07T09:13:48.000Z</time>
</trkpt>
<trkpt lat="46.1235090" lon="10.5017190">
	<ele>2210.80</ele>
	<time>2023-08-07T09:13:49.000Z</time>
</trkpt>
<trkpt lat="46.1235090" lon="10.5017190">
	<ele>2210.80</ele>
	<time>2023-08-07T09:13:50.000Z</time>
</trkpt>
<trkpt lat="46.1235090" lon="10.5017190">
	<ele>2210.80</ele>
	<time>2023-08-07T09:13:51.000Z</time>
</trkpt>
<trkpt lat="46.1235090" lon="10.5017190">
	<ele>2210.80</ele>
	<time>2023-08-07T09:13:52.000Z</time>
</trkpt>
<trkpt lat="46.1235090" lon="10.5017190">
	<ele>2210.80</ele>
	<time>2023-08-07T09:13:53.000Z</time>
</trkpt>
<trkpt lat="46.1235090" lon="10.5017190">
	<ele>2210.80</ele>
	<time>2023-08-07T09:13:54.000Z</time>
</trkpt>
<trkpt lat="46.1235090" lon="10.5017190">
	<ele>2210.80</ele>
	<time>2023-08-07T09:13:55.000Z</time>
</trkpt>
<trkpt lat="46.1235090" lon="10.5017190">
	<ele>2210.80</ele>
	<time>2023-08-07T09:13:56.000Z</time>
</trkpt>
<trkpt lat="46.1235090" lon="10.5017190">
	<ele>2210.80</ele>
	<time>2023-08-07T09:13:57.000Z</time>
</trkpt>
<trkpt lat="46.1235090" lon="10.5017190">
	<ele>2210.80</ele>
	<time>2023-08-07T09:13:58.000Z</time>
</trkpt>
<trkpt lat="46.1235090" lon="10.5017190">
	<ele>2210.80</ele>
	<time>2023-08-07T09:13:59.000Z</time>
</trkpt>
<trkpt lat="46.1235090" lon="10.5017190">
	<ele>2210.80</ele>
	<time>2023-08-07T09:14:00.000Z</time>
</trkpt>
<trkpt lat="46.1235090" lon="10.5017190">
	<ele>2210.80</ele>
	<time>2023-08-07T09:14:01.000Z</time>
</trkpt>
<trkpt lat="46.1235090" lon="10.5017190">
	<ele>2210.80</ele>
	<time>2023-08-07T09:14:02.000Z</time>
</trkpt>
<trkpt lat="46.1235090" lon="10.5017190">
	<ele>2210.80</ele>
	<time>2023-08-07T09:14:03.000Z</time>
</trkpt>
<trkpt lat="46.1235090" lon="10.5017190">
	<ele>2210.80</ele>
	<time>2023-08-07T09:14:04.000Z</time>
</trkpt>
<trkpt lat="46.1235090" lon="10.5017190">
	<ele>2210.80</ele>
	<time>2023-08-07T09:14:05.000Z</time>
</trkpt>
<trkpt lat="46.1235090" lon="10.5017190">
	<ele>2210.80</ele>
	<time>2023-08-07T09:14:06.000Z</time>
</trkpt>
<trkpt lat="46.1235090" lon="10.5017190">
	<ele>2210.80</ele>
	<time>2023-08-07T09:14:07.000Z</time>
</trkpt>
<trkpt lat="46.1235090" lon="10.5017190">
	<ele>2210.80</ele>
	<time>2023-08-07T09:14:08.000Z</time>
</trkpt>
<trkpt lat="46.1235090" lon="10.5017190">
	<ele>2210.80</ele>
	<time>2023-08-07T09:14:09.000Z</time>
</trkpt>
<trkpt lat="46.1235100" lon="10.5017190">
	<ele>2210.80</ele>
	<time>2023-08-07T09:14:10.000Z</time>
</trkpt>
<trkpt lat="46.1235100" lon="10.5017190">
	<ele>2210.80</ele>
	<time>2023-08-07T09:14:11.000Z</time>
</trkpt>
<trkpt lat="46.1235100" lon="10.5017190">
	<ele>2210.80</ele>
	<time>2023-08-07T09:14:12.000Z</time>
</trkpt>
<trkpt lat="46.1235100" lon="10.5017190">
	<ele>2210.80</ele>
	<time>2023-08-07T09:14:13.000Z</time>
</trkpt>
<trkpt lat="46.1235100" lon="10.5017190">
	<ele>2210.80</ele>
	<time>2023-08-07T09:14:14.000Z</time>
</trkpt>
<trkpt lat="46.1235100" lon="10.5017190">
	<ele>2210.80</ele>
	<time>2023-08-07T09:14:15.000Z</time>
</trkpt>
<trkpt lat="46.1235100" lon="10.5017190">
	<ele>2210.80</ele>
	<time>2023-08-07T09:14:16.000Z</time>
</trkpt>
<trkpt lat="46.1235100" lon="10.5017190">
	<ele>2210.80</ele>
	<time>2023-08-07T09:14:17.000Z</time>
</trkpt>
<trkpt lat="46.1235100" lon="10.5017190">
	<ele>2210.80</ele>
	<time>2023-08-07T09:14:18.000Z</time>
</trkpt>
<trkpt lat="46.1235100" lon="10.5017190">
	<ele>2210.80</ele>
	<time>2023-08-07T09:14:19.000Z</time>
</trkpt>
<trkpt lat="46.1235100" lon="10.5017190">
	<ele>2210.80</ele>
	<time>2023-08-07T09:14:20.000Z</time>
</trkpt>
<trkpt lat="46.1235100" lon="10.5017190">
	<ele>2210.80</ele>
	<time>2023-08-07T09:14:21.000Z</time>
</trkpt>
<trkpt lat="46.1235100" lon="10.5017190">
	<ele>2210.80</ele>
	<time>2023-08-07T09:14:22.000Z</time>
</trkpt>
<trkpt lat="46.1235100" lon="10.5017190">
	<ele>2210.80</ele>
	<time>2023-08-07T09:14:23.000Z</time>
</trkpt>
<trkpt lat="46.1235100" lon="10.5017190">
	<ele>2210.80</ele>
	<time>2023-08-07T09:14:24.000Z</time>
</trkpt>
<trkpt lat="46.1235100" lon="10.5017190">
	<ele>2210.80</ele>
	<time>2023-08-07T09:14:25.000Z</time>
</trkpt>
<trkpt lat="46.1235100" lon="10.5017190">
	<ele>2210.80</ele>
	<time>2023-08-07T09:14:26.000Z</time>
</trkpt>
<trkpt lat="46.1235100" lon="10.5017190">
	<ele>2210.80</ele>
	<time>2023-08-07T09:14:27.000Z</time>
</trkpt>
<trkpt lat="46.1235100" lon="10.5017190">
	<ele>2210.80</ele>
	<time>2023-08-07T09:14:28.000Z</time>
</trkpt>
<trkpt lat="46.1235100" lon="10.5017190">
	<ele>2210.80</ele>
	<time>2023-08-07T09:14:29.000Z</time>
</trkpt>
<trkpt lat="46.1235100" lon="10.5017190">
	<ele>2210.80</ele>
	<time>2023-08-07T09:14:30.000Z</time>
</trkpt>
<trkpt lat="46.1235100" lon="10.5017190">
	<ele>2210.80</ele>
	<time>2023-08-07T09:14:31.000Z</time>
</trkpt>
<trkpt lat="46.1235100" lon="10.5017190">
	<ele>2210.80</ele>
	<time>2023-08-07T09:14:32.000Z</time>
</trkpt>
<trkpt lat="46.1235100" lon="10.5017190">
	<ele>2210.80</ele>
	<time>2023-08-07T09:14:33.000Z</time>
</trkpt>
<trkpt lat="46.1235100" lon="10.5017190">
	<ele>2210.80</ele>
	<time>2023-08-07T09:14:34.000Z</time>
</trkpt>
<trkpt lat="46.1235100" lon="10.5017190">
	<ele>2210.80</ele>
	<time>2023-08-07T09:14:35.000Z</time>
</trkpt>
<trkpt lat="46.1235100" lon="10.5017190">
	<ele>2210.80</ele>
	<time>2023-08-07T09:14:36.000Z</time>
</trkpt>
<trkpt lat="46.1235100" lon="10.5017190">
	<ele>2210.80</ele>
	<time>2023-08-07T09:14:37.000Z</time>
</trkpt>
<trkpt lat="46.1235100" lon="10.5017190">
	<ele>2210.80</ele>
	<time>2023-08-07T09:14:38.000Z</time>
</trkpt>
<trkpt lat="46.1235100" lon="10.5017190">
	<ele>2210.80</ele>
	<time>2023-08-07T09:14:39.000Z</time>
</trkpt>
<trkpt lat="46.1235100" lon="10.5017190">
	<ele>2210.80</ele>
	<time>2023-08-07T09:14:40.000Z</time>
</trkpt>
<trkpt lat="46.1235100" lon="10.5017190">
	<ele>2210.80</ele>
	<time>2023-08-07T09:14:41.000Z</time>
</trkpt>
<trkpt lat="46.1235100" lon="10.5017190">
	<ele>2210.80</ele>
	<time>2023-08-07T09:14:42.000Z</time>
</trkpt>
<trkpt lat="46.1235100" lon="10.5017190">
	<ele>2210.80</ele>
	<time>2023-08-07T09:14:43.000Z</time>
</trkpt>
<trkpt lat="46.1235100" lon="10.5017190">
	<ele>2210.80</ele>
	<time>2023-08-07T09:14:44.000Z</time>
</trkpt>
<trkpt lat="46.1235100" lon="10.5017190">
	<ele>2210.80</ele>
	<time>2023-08-07T09:14:45.000Z</time>
</trkpt>
<trkpt lat="46.1235100" lon="10.5017190">
	<ele>2210.80</ele>
	<time>2023-08-07T09:14:46.000Z</time>
</trkpt>
<trkpt lat="46.1235100" lon="10.5017190">
	<ele>2210.80</ele>
	<time>2023-08-07T09:14:47.000Z</time>
</trkpt>
<trkpt lat="46.1235100" lon="10.5017190">
	<ele>2210.80</ele>
	<time>2023-08-07T09:14:48.000Z</time>
</trkpt>
<trkpt lat="46.1235100" lon="10.5017190">
	<ele>2210.80</ele>
	<time>2023-08-07T09:14:49.000Z</time>
</trkpt>
<trkpt lat="46.1235100" lon="10.5017190">
	<ele>2210.80</ele>
	<time>2023-08-07T09:14:50.000Z</time>
</trkpt>
<trkpt lat="46.1235100" lon="10.5017190">
	<ele>2210.80</ele>
	<time>2023-08-07T09:14:51.000Z</time>
</trkpt>
<trkpt lat="46.1235100" lon="10.5017190">
	<ele>2210.80</ele>
	<time>2023-08-07T09:14:52.000Z</time>
</trkpt>
<trkpt lat="46.1235100" lon="10.5017190">
	<ele>2210.80</ele>
	<time>2023-08-07T09:14:53.000Z</time>
</trkpt>
<trkpt lat="46.1235100" lon="10.5017190">
	<ele>2210.80</ele>
	<time>2023-08-07T09:14:54.000Z</time>
</trkpt>
<trkpt lat="46.1235100" lon="10.5017190">
	<ele>2210.80</ele>
	<time>2023-08-07T09:14:55.000Z</time>
</trkpt>
<trkpt lat="46.1235100" lon="10.5017190">
	<ele>2210.80</ele>
	<time>2023-08-07T09:14:56.000Z</time>
</trkpt>
<trkpt lat="46.1235100" lon="10.5017190">
	<ele>2210.80</ele>
	<time>2023-08-07T09:14:57.000Z</time>
</trkpt>
<trkpt lat="46.1235100" lon="10.5017190">
	<ele>2210.80</ele>
	<time>2023-08-07T09:14:58.000Z</time>
</trkpt>
<trkpt lat="46.1235100" lon="10.5017190">
	<ele>2210.80</ele>
	<time>2023-08-07T09:14:59.000Z</time>
</trkpt>
<trkpt lat="46.1235100" lon="10.5017190">
	<ele>2210.80</ele>
	<time>2023-08-07T09:15:00.000Z</time>
</trkpt>
<trkpt lat="46.1235100" lon="10.5017190">
	<ele>2210.80</ele>
	<time>2023-08-07T09:15:01.000Z</time>
</trkpt>
<trkpt lat="46.1235100" lon="10.5017190">
	<ele>2210.80</ele>
	<time>2023-08-07T09:15:02.000Z</time>
</trkpt>
<trkpt lat="46.1235100" lon="10.5017190">
	<ele>2210.80</ele>
	<time>2023-08-07T09:15:03.000Z</time>
</trkpt>
<trkpt lat="46.1235100" lon="10.5017190">
	<ele>2210.80</ele>
	<time>2023-08-07T09:15:04.000Z</time>
</trkpt>
<trkpt lat="46.1235100" lon="10.5017190">
	<ele>2210.80</ele>
	<time>2023-08-07T09:15:05.000Z</time>
</trkpt>
<trkpt lat="46.1235100" lon="10.5017190">
	<ele>2210.80</ele>
	<time>2023-08-07T09:15:06.000Z</time>
</trkpt>
<trkpt lat="46.1235110" lon="10.5017190">
	<ele>2210.80</ele>
	<time>2023-08-07T09:15:07.000Z</time>
</trkpt>
<trkpt lat="46.1235100" lon="10.5017190">
	<ele>2210.80</ele>
	<time>2023-08-07T09:15:08.000Z</time>
</trkpt>
<trkpt lat="46.1235100" lon="10.5017190">
	<ele>2210.80</ele>
	<time>2023-08-07T09:15:09.000Z</time>
</trkpt>
<trkpt lat="46.1235100" lon="10.5017190">
	<ele>2210.80</ele>
	<time>2023-08-07T09:15:10.000Z</time>
</trkpt>
<trkpt lat="46.1235110" lon="10.5017200">
	<ele>2210.80</ele>
	<time>2023-08-07T09:15:11.000Z</time>
</trkpt>
<trkpt lat="46.1235110" lon="10.5017200">
	<ele>2210.80</ele>
	<time>2023-08-07T09:15:12.000Z</time>
</trkpt>
<trkpt lat="46.1235110" lon="10.5017200">
	<ele>2210.80</ele>
	<time>2023-08-07T09:15:13.000Z</time>
</trkpt>
<trkpt lat="46.1235110" lon="10.5017200">
	<ele>2210.80</ele>
	<time>2023-08-07T09:15:14.000Z</time>
</trkpt>
<trkpt lat="46.1235110" lon="10.5017200">
	<ele>2210.80</ele>
	<time>2023-08-07T09:15:15.000Z</time>
</trkpt>
<trkpt lat="46.1235110" lon="10.5017200">
	<ele>2210.80</ele>
	<time>2023-08-07T09:15:16.000Z</time>
</trkpt>
<trkpt lat="46.1235110" lon="10.5017200">
	<ele>2210.80</ele>
	<time>2023-08-07T09:15:17.000Z</time>
</trkpt>
<trkpt lat="46.1235110" lon="10.5017200">
	<ele>2210.80</ele>
	<time>2023-08-07T09:15:18.000Z</time>
</trkpt>
<trkpt lat="46.1235110" lon="10.5017200">
	<ele>2210.80</ele>
	<time>2023-08-07T09:15:19.000Z</time>
</trkpt>
<trkpt lat="46.1235110" lon="10.5017200">
	<ele>2210.80</ele>
	<time>2023-08-07T09:15:20.000Z</time>
</trkpt>
<trkpt lat="46.1235110" lon="10.5017200">
	<ele>2210.80</ele>
	<time>2023-08-07T09:15:21.000Z</time>
</trkpt>
<trkpt lat="46.1235110" lon="10.5017200">
	<ele>2210.80</ele>
	<time>2023-08-07T09:15:22.000Z</time>
</trkpt>
<trkpt lat="46.1235110" lon="10.5017200">
	<ele>2210.80</ele>
	<time>2023-08-07T09:15:23.000Z</time>
</trkpt>
<trkpt lat="46.1235110" lon="10.5017200">
	<ele>2210.80</ele>
	<time>2023-08-07T09:15:24.000Z</time>
</trkpt>
<trkpt lat="46.1235110" lon="10.5017200">
	<ele>2210.80</ele>
	<time>2023-08-07T09:15:25.000Z</time>
</trkpt>
<trkpt lat="46.1235110" lon="10.5017200">
	<ele>2210.80</ele>
	<time>2023-08-07T09:15:26.000Z</time>
</trkpt>
<trkpt lat="46.1235110" lon="10.5017200">
	<ele>2210.80</ele>
	<time>2023-08-07T09:15:27.000Z</time>
</trkpt>
<trkpt lat="46.1235110" lon="10.5017200">
	<ele>2210.80</ele>
	<time>2023-08-07T09:15:28.000Z</time>
</trkpt>
<trkpt lat="46.1235110" lon="10.5017200">
	<ele>2210.80</ele>
	<time>2023-08-07T09:15:29.000Z</time>
</trkpt>
<trkpt lat="46.1235110" lon="10.5017200">
	<ele>2210.80</ele>
	<time>2023-08-07T09:15:30.000Z</time>
</trkpt>
<trkpt lat="46.1235110" lon="10.5017200">
	<ele>2210.80</ele>
	<time>2023-08-07T09:15:31.000Z</time>
</trkpt>
<trkpt lat="46.1235110" lon="10.5017200">
	<ele>2210.80</ele>
	<time>2023-08-07T09:15:32.000Z</time>
</trkpt>
<trkpt lat="46.1235110" lon="10.5017200">
	<ele>2210.80</ele>
	<time>2023-08-07T09:15:33.000Z</time>
</trkpt>
<trkpt lat="46.1235110" lon="10.5017200">
	<ele>2210.80</ele>
	<time>2023-08-07T09:15:34.000Z</time>
</trkpt>
<trkpt lat="46.1235110" lon="10.5017200">
	<ele>2210.80</ele>
	<time>2023-08-07T09:15:35.000Z</time>
</trkpt>
<trkpt lat="46.1235110" lon="10.5017200">
	<ele>2210.80</ele>
	<time>2023-08-07T09:15:36.000Z</time>
</trkpt>
<trkpt lat="46.1235110" lon="10.5017200">
	<ele>2210.80</ele>
	<time>2023-08-07T09:15:37.000Z</time>
</trkpt>
<trkpt lat="46.1235110" lon="10.5017200">
	<ele>2210.80</ele>
	<time>2023-08-07T09:15:38.000Z</time>
</trkpt>
<trkpt lat="46.1235110" lon="10.5017200">
	<ele>2210.80</ele>
	<time>2023-08-07T09:15:39.000Z</time>
</trkpt>
<trkpt lat="46.1235110" lon="10.5017200">
	<ele>2210.80</ele>
	<time>2023-08-07T09:15:40.000Z</time>
</trkpt>
<trkpt lat="46.1235110" lon="10.5017200">
	<ele>2210.80</ele>
	<time>2023-08-07T09:15:41.000Z</time>
</trkpt>
<trkpt lat="46.1235110" lon="10.5017200">
	<ele>2210.80</ele>
	<time>2023-08-07T09:15:42.000Z</time>
</trkpt>
<trkpt lat="46.1235110" lon="10.5017200">
	<ele>2210.80</ele>
	<time>2023-08-07T09:15:43.000Z</time>
</trkpt>
<trkpt lat="46.1235110" lon="10.5017200">
	<ele>2210.80</ele>
	<time>2023-08-07T09:15:44.000Z</time>
</trkpt>
<trkpt lat="46.1235110" lon="10.5017200">
	<ele>2210.80</ele>
	<time>2023-08-07T09:15:45.000Z</time>
</trkpt>
<trkpt lat="46.1235110" lon="10.5017200">
	<ele>2210.80</ele>
	<time>2023-08-07T09:15:46.000Z</time>
</trkpt>
<trkpt lat="46.1235110" lon="10.5017200">
	<ele>2210.80</ele>
	<time>2023-08-07T09:15:47.000Z</time>
</trkpt>
<trkpt lat="46.1235110" lon="10.5017200">
	<ele>2210.80</ele>
	<time>2023-08-07T09:15:48.000Z</time>
</trkpt>
<trkpt lat="46.1235110" lon="10.5017200">
	<ele>2210.80</ele>
	<time>2023-08-07T09:15:49.000Z</time>
</trkpt>
<trkpt lat="46.1235110" lon="10.5017200">
	<ele>2210.80</ele>
	<time>2023-08-07T09:15:50.000Z</time>
</trkpt>
<trkpt lat="46.1235110" lon="10.5017200">
	<ele>2210.80</ele>
	<time>2023-08-07T09:15:51.000Z</time>
</trkpt>
<trkpt lat="46.1235110" lon="10.5017200">
	<ele>2210.80</ele>
	<time>2023-08-07T09:15:52.000Z</time>
</trkpt>
<trkpt lat="46.1235110" lon="10.5017200">
	<ele>2210.80</ele>
	<time>2023-08-07T09:15:53.000Z</time>
</trkpt>
<trkpt lat="46.1235110" lon="10.5017200">
	<ele>2210.80</ele>
	<time>2023-08-07T09:15:54.000Z</time>
</trkpt>
<trkpt lat="46.1235110" lon="10.5017200">
	<ele>2210.80</ele>
	<time>2023-08-07T09:15:55.000Z</time>
</trkpt>
<trkpt lat="46.1235110" lon="10.5017200">
	<ele>2210.80</ele>
	<time>2023-08-07T09:15:56.000Z</time>
</trkpt>
<trkpt lat="46.1235110" lon="10.5017200">
	<ele>2210.80</ele>
	<time>2023-08-07T09:15:57.000Z</time>
</trkpt>
<trkpt lat="46.1235120" lon="10.5017200">
	<ele>2210.80</ele>
	<time>2023-08-07T09:15:58.000Z</time>
</trkpt>
<trkpt lat="46.1235120" lon="10.5017200">
	<ele>2210.80</ele>
	<time>2023-08-07T09:15:59.000Z</time>
</trkpt>
<trkpt lat="46.1235120" lon="10.5017200">
	<ele>2210.80</ele>
	<time>2023-08-07T09:16:00.000Z</time>
</trkpt>
<trkpt lat="46.1235120" lon="10.5017200">
	<ele>2210.80</ele>
	<time>2023-08-07T09:16:01.000Z</time>
</trkpt>
<trkpt lat="46.1235120" lon="10.5017200">
	<ele>2210.80</ele>
	<time>2023-08-07T09:16:02.000Z</time>
</trkpt>
<trkpt lat="46.1235120" lon="10.5017200">
	<ele>2210.80</ele>
	<time>2023-08-07T09:16:03.000Z</time>
</trkpt>
<trkpt lat="46.1235120" lon="10.5017200">
	<ele>2210.80</ele>
	<time>2023-08-07T09:16:04.000Z</time>
</trkpt>
<trkpt lat="46.1235120" lon="10.5017200">
	<ele>2210.80</ele>
	<time>2023-08-07T09:16:05.000Z</time>
</trkpt>
<trkpt lat="46.1235120" lon="10.5017200">
	<ele>2210.80</ele>
	<time>2023-08-07T09:16:06.000Z</time>
</trkpt>
<trkpt lat="46.1235120" lon="10.5017200">
	<ele>2210.80</ele>
	<time>2023-08-07T09:16:07.000Z</time>
</trkpt>
<trkpt lat="46.1235120" lon="10.5017200">
	<ele>2210.80</ele>
	<time>2023-08-07T09:16:08.000Z</time>
</trkpt>
<trkpt lat="46.1235120" lon="10.5017200">
	<ele>2210.80</ele>
	<time>2023-08-07T09:16:09.000Z</time>
</trkpt>
<trkpt lat="46.1235120" lon="10.5017200">
	<ele>2210.80</ele>
	<time>2023-08-07T09:16:10.000Z</time>
</trkpt>
<trkpt lat="46.1235120" lon="10.5017200">
	<ele>2210.80</ele>
	<time>2023-08-07T09:16:11.000Z</time>
</trkpt>
<trkpt lat="46.1235120" lon="10.5017200">
	<ele>2210.80</ele>
	<time>2023-08-07T09:16:12.000Z</time>
</trkpt>
<trkpt lat="46.1235120" lon="10.5017200">
	<ele>2210.80</ele>
	<time>2023-08-07T09:16:13.000Z</time>
</trkpt>
<trkpt lat="46.1235120" lon="10.5017200">
	<ele>2210.80</ele>
	<time>2023-08-07T09:16:14.000Z</time>
</trkpt>
<trkpt lat="46.1235120" lon="10.5017200">
	<ele>2210.80</ele>
	<time>2023-08-07T09:16:15.000Z</time>
</trkpt>
<trkpt lat="46.1235120" lon="10.5017200">
	<ele>2210.80</ele>
	<time>2023-08-07T09:16:16.000Z</time>
</trkpt>
<trkpt lat="46.1235120" lon="10.5017200">
	<ele>2210.80</ele>
	<time>2023-08-07T09:16:17.000Z</time>
</trkpt>
<trkpt lat="46.1235120" lon="10.5017200">
	<ele>2210.80</ele>
	<time>2023-08-07T09:16:18.000Z</time>
</trkpt>
<trkpt lat="46.1235120" lon="10.5017200">
	<ele>2210.80</ele>
	<time>2023-08-07T09:16:19.000Z</time>
</trkpt>
<trkpt lat="46.1235120" lon="10.5017200">
	<ele>2210.80</ele>
	<time>2023-08-07T09:16:20.000Z</time>
</trkpt>
<trkpt lat="46.1235120" lon="10.5017200">
	<ele>2210.80</ele>
	<time>2023-08-07T09:16:21.000Z</time>
</trkpt>
<trkpt lat="46.1235120" lon="10.5017200">
	<ele>2210.80</ele>
	<time>2023-08-07T09:16:22.000Z</time>
</trkpt>
<trkpt lat="46.1235120" lon="10.5017200">
	<ele>2210.80</ele>
	<time>2023-08-07T09:16:23.000Z</time>
</trkpt>
<trkpt lat="46.1235120" lon="10.5017200">
	<ele>2210.80</ele>
	<time>2023-08-07T09:16:24.000Z</time>
</trkpt>
<trkpt lat="46.1235120" lon="10.5017200">
	<ele>2210.80</ele>
	<time>2023-08-07T09:16:25.000Z</time>
</trkpt>
<trkpt lat="46.1235120" lon="10.5017200">
	<ele>2210.80</ele>
	<time>2023-08-07T09:16:26.000Z</time>
</trkpt>
<trkpt lat="46.1235120" lon="10.5017200">
	<ele>2210.80</ele>
	<time>2023-08-07T09:16:27.000Z</time>
</trkpt>
<trkpt lat="46.1235120" lon="10.5017200">
	<ele>2210.80</ele>
	<time>2023-08-07T09:16:28.000Z</time>
</trkpt>
<trkpt lat="46.1235120" lon="10.5017200">
	<ele>2210.80</ele>
	<time>2023-08-07T09:16:29.000Z</time>
</trkpt>
<trkpt lat="46.1235120" lon="10.5017200">
	<ele>2210.80</ele>
	<time>2023-08-07T09:16:30.000Z</time>
</trkpt>
<trkpt lat="46.1235120" lon="10.5017200">
	<ele>2210.80</ele>
	<time>2023-08-07T09:16:31.000Z</time>
</trkpt>
<trkpt lat="46.1235120" lon="10.5017200">
	<ele>2210.80</ele>
	<time>2023-08-07T09:16:32.000Z</time>
</trkpt>
<trkpt lat="46.1235120" lon="10.5017200">
	<ele>2210.80</ele>
	<time>2023-08-07T09:16:33.000Z</time>
</trkpt>
<trkpt lat="46.1235130" lon="10.5017200">
	<ele>2210.80</ele>
	<time>2023-08-07T09:16:34.000Z</time>
</trkpt>
<trkpt lat="46.1235130" lon="10.5017200">
	<ele>2210.80</ele>
	<time>2023-08-07T09:16:35.000Z</time>
</trkpt>
<trkpt lat="46.1235130" lon="10.5017200">
	<ele>2210.80</ele>
	<time>2023-08-07T09:16:36.000Z</time>
</trkpt>
<trkpt lat="46.1235130" lon="10.5017200">
	<ele>2210.80</ele>
	<time>2023-08-07T09:16:37.000Z</time>
</trkpt>
<trkpt lat="46.1235130" lon="10.5017200">
	<ele>2210.80</ele>
	<time>2023-08-07T09:16:38.000Z</time>
</trkpt>
<trkpt lat="46.1235130" lon="10.5017200">
	<ele>2210.80</ele>
	<time>2023-08-07T09:16:39.000Z</time>
</trkpt>
<trkpt lat="46.1235130" lon="10.5017200">
	<ele>2210.80</ele>
	<time>2023-08-07T09:16:40.000Z</time>
</trkpt>
<trkpt lat="46.1235130" lon="10.5017200">
	<ele>2210.80</ele>
	<time>2023-08-07T09:16:41.000Z</time>
</trkpt>
<trkpt lat="46.1235130" lon="10.5017200">
	<ele>2210.80</ele>
	<time>2023-08-07T09:16:42.000Z</time>
</trkpt>
<trkpt lat="46.1235130" lon="10.5017200">
	<ele>2210.80</ele>
	<time>2023-08-07T09:16:43.000Z</time>
</trkpt>
<trkpt lat="46.1235130" lon="10.5017200">
	<ele>2210.80</ele>
	<time>2023-08-07T09:16:44.000Z</time>
</trkpt>
<trkpt lat="46.1235130" lon="10.5017200">
	<ele>2210.80</ele>
	<time>2023-08-07T09:16:45.000Z</time>
</trkpt>
<trkpt lat="46.1235130" lon="10.5017200">
	<ele>2210.80</ele>
	<time>2023-08-07T09:16:46.000Z</time>
</trkpt>
<trkpt lat="46.1235130" lon="10.5017200">
	<ele>2210.80</ele>
	<time>2023-08-07T09:16:47.000Z</time>
</trkpt>
<trkpt lat="46.1235130" lon="10.5017200">
	<ele>2210.80</ele>
	<time>2023-08-07T09:16:48.000Z</time>
</trkpt>
<trkpt lat="46.1235130" lon="10.5017200">
	<ele>2210.80</ele>
	<time>2023-08-07T09:16:49.000Z</time>
</trkpt>
<trkpt lat="46.1235130" lon="10.5017200">
	<ele>2210.80</ele>
	<time>2023-08-07T09:16:50.000Z</time>
</trkpt>
<trkpt lat="46.1235130" lon="10.5017200">
	<ele>2210.80</ele>
	<time>2023-08-07T09:16:51.000Z</time>
</trkpt>
<trkpt lat="46.1235130" lon="10.5017200">
	<ele>2210.80</ele>
	<time>2023-08-07T09:16:52.000Z</time>
</trkpt>
<trkpt lat="46.1235130" lon="10.5017200">
	<ele>2210.80</ele>
	<time>2023-08-07T09:16:53.000Z</time>
</trkpt>
<trkpt lat="46.1235130" lon="10.5017200">
	<ele>2210.80</ele>
	<time>2023-08-07T09:16:54.000Z</time>
</trkpt>
<trkpt lat="46.1235130" lon="10.5017200">
	<ele>2210.80</ele>
	<time>2023-08-07T09:16:55.000Z</time>
</trkpt>
<trkpt lat="46.1235130" lon="10.5017200">
	<ele>2210.80</ele>
	<time>2023-08-07T09:16:56.000Z</time>
</trkpt>
<trkpt lat="46.1235130" lon="10.5017200">
	<ele>2210.80</ele>
	<time>2023-08-07T09:16:57.000Z</time>
</trkpt>
<trkpt lat="46.1235130" lon="10.5017200">
	<ele>2210.80</ele>
	<time>2023-08-07T09:16:58.000Z</time>
</trkpt>
<trkpt lat="46.1235130" lon="10.5017200">
	<ele>2210.80</ele>
	<time>2023-08-07T09:16:59.000Z</time>
</trkpt>
<trkpt lat="46.1235130" lon="10.5017200">
	<ele>2210.80</ele>
	<time>2023-08-07T09:17:00.000Z</time>
</trkpt>
<trkpt lat="46.1235130" lon="10.5017200">
	<ele>2210.80</ele>
	<time>2023-08-07T09:17:01.000Z</time>
</trkpt>
<trkpt lat="46.1235130" lon="10.5017200">
	<ele>2210.80</ele>
	<time>2023-08-07T09:17:02.000Z</time>
</trkpt>
<trkpt lat="46.1235130" lon="10.5017200">
	<ele>2210.80</ele>
	<time>2023-08-07T09:17:03.000Z</time>
</trkpt>
<trkpt lat="46.1235140" lon="10.5017200">
	<ele>2210.80</ele>
	<time>2023-08-07T09:17:04.000Z</time>
</trkpt>
<trkpt lat="46.1235140" lon="10.5017200">
	<ele>2210.80</ele>
	<time>2023-08-07T09:17:05.000Z</time>
</trkpt>
<trkpt lat="46.1235140" lon="10.5017200">
	<ele>2210.80</ele>
	<time>2023-08-07T09:17:06.000Z</time>
</trkpt>
<trkpt lat="46.1235140" lon="10.5017200">
	<ele>2210.80</ele>
	<time>2023-08-07T09:17:07.000Z</time>
</trkpt>
<trkpt lat="46.1235140" lon="10.5017200">
	<ele>2210.80</ele>
	<time>2023-08-07T09:17:08.000Z</time>
</trkpt>
<trkpt lat="46.1235140" lon="10.5017200">
	<ele>2210.80</ele>
	<time>2023-08-07T09:17:09.000Z</time>
</trkpt>
<trkpt lat="46.1235140" lon="10.5017200">
	<ele>2210.80</ele>
	<time>2023-08-07T09:17:10.000Z</time>
</trkpt>
<trkpt lat="46.1235140" lon="10.5017200">
	<ele>2210.80</ele>
	<time>2023-08-07T09:17:11.000Z</time>
</trkpt>
<trkpt lat="46.1235140" lon="10.5017200">
	<ele>2210.80</ele>
	<time>2023-08-07T09:17:12.000Z</time>
</trkpt>
<trkpt lat="46.1235140" lon="10.5017200">
	<ele>2210.80</ele>
	<time>2023-08-07T09:17:13.000Z</time>
</trkpt>
<trkpt lat="46.1235140" lon="10.5017200">
	<ele>2210.80</ele>
	<time>2023-08-07T09:17:14.000Z</time>
</trkpt>
<trkpt lat="46.1235140" lon="10.5017200">
	<ele>2210.80</ele>
	<time>2023-08-07T09:17:15.000Z</time>
</trkpt>
<trkpt lat="46.1235140" lon="10.5017200">
	<ele>2210.80</ele>
	<time>2023-08-07T09:17:16.000Z</time>
</trkpt>
<trkpt lat="46.1235140" lon="10.5017200">
	<ele>2210.80</ele>
	<time>2023-08-07T09:17:17.000Z</time>
</trkpt>
<trkpt lat="46.1235140" lon="10.5017200">
	<ele>2210.80</ele>
	<time>2023-08-07T09:17:18.000Z</time>
</trkpt>
<trkpt lat="46.1235140" lon="10.5017200">
	<ele>2210.80</ele>
	<time>2023-08-07T09:17:19.000Z</time>
</trkpt>
<trkpt lat="46.1235140" lon="10.5017200">
	<ele>2210.80</ele>
	<time>2023-08-07T09:17:20.000Z</time>
</trkpt>
<trkpt lat="46.1235140" lon="10.5017200">
	<ele>2210.80</ele>
	<time>2023-08-07T09:17:21.000Z</time>
</trkpt>
<trkpt lat="46.1235140" lon="10.5017200">
	<ele>2210.80</ele>
	<time>2023-08-07T09:17:22.000Z</time>
</trkpt>
<trkpt lat="46.1235140" lon="10.5017200">
	<ele>2210.80</ele>
	<time>2023-08-07T09:17:23.000Z</time>
</trkpt>
<trkpt lat="46.1235140" lon="10.5017200">
	<ele>2210.80</ele>
	<time>2023-08-07T09:17:24.000Z</time>
</trkpt>
<trkpt lat="46.1235140" lon="10.5017200">
	<ele>2210.80</ele>
	<time>2023-08-07T09:17:25.000Z</time>
</trkpt>
<trkpt lat="46.1235140" lon="10.5017210">
	<ele>2210.80</ele>
	<time>2023-08-07T09:17:26.000Z</time>
</trkpt>
<trkpt lat="46.1235140" lon="10.5017200">
	<ele>2210.80</ele>
	<time>2023-08-07T09:17:27.000Z</time>
</trkpt>
<trkpt lat="46.1235140" lon="10.5017200">
	<ele>2210.80</ele>
	<time>2023-08-07T09:17:28.000Z</time>
</trkpt>
<trkpt lat="46.1235140" lon="10.5017200">
	<ele>2210.80</ele>
	<time>2023-08-07T09:17:29.000Z</time>
</trkpt>
<trkpt lat="46.1235140" lon="10.5017200">
	<ele>2210.80</ele>
	<time>2023-08-07T09:17:30.000Z</time>
</trkpt>
<trkpt lat="46.1235140" lon="10.5017210">
	<ele>2210.80</ele>
	<time>2023-08-07T09:17:31.000Z</time>
</trkpt>
<trkpt lat="46.1235140" lon="10.5017210">
	<ele>2210.80</ele>
	<time>2023-08-07T09:17:32.000Z</time>
</trkpt>
<trkpt lat="46.1235140" lon="10.5017210">
	<ele>2210.80</ele>
	<time>2023-08-07T09:17:33.000Z</time>
</trkpt>
<trkpt lat="46.1235140" lon="10.5017210">
	<ele>2210.80</ele>
	<time>2023-08-07T09:17:34.000Z</time>
</trkpt>
<trkpt lat="46.1235140" lon="10.5017210">
	<ele>2210.80</ele>
	<time>2023-08-07T09:17:35.000Z</time>
</trkpt>
<trkpt lat="46.1235140" lon="10.5017210">
	<ele>2210.80</ele>
	<time>2023-08-07T09:17:36.000Z</time>
</trkpt>
<trkpt lat="46.1235140" lon="10.5017210">
	<ele>2210.80</ele>
	<time>2023-08-07T09:17:37.000Z</time>
</trkpt>
<trkpt lat="46.1235140" lon="10.5017210">
	<ele>2210.80</ele>
	<time>2023-08-07T09:17:38.000Z</time>
</trkpt>
<trkpt lat="46.1235140" lon="10.5017210">
	<ele>2210.80</ele>
	<time>2023-08-07T09:17:39.000Z</time>
</trkpt>
<trkpt lat="46.1235140" lon="10.5017210">
	<ele>2210.80</ele>
	<time>2023-08-07T09:17:40.000Z</time>
</trkpt>
<trkpt lat="46.1235140" lon="10.5017210">
	<ele>2210.80</ele>
	<time>2023-08-07T09:17:41.000Z</time>
</trkpt>
<trkpt lat="46.1235140" lon="10.5017210">
	<ele>2210.80</ele>
	<time>2023-08-07T09:17:42.000Z</time>
</trkpt>
<trkpt lat="46.1235140" lon="10.5017210">
	<ele>2210.80</ele>
	<time>2023-08-07T09:17:43.000Z</time>
</trkpt>
<trkpt lat="46.1235140" lon="10.5017210">
	<ele>2210.80</ele>
	<time>2023-08-07T09:17:44.000Z</time>
</trkpt>
<trkpt lat="46.1235140" lon="10.5017210">
	<ele>2210.80</ele>
	<time>2023-08-07T09:17:45.000Z</time>
</trkpt>
<trkpt lat="46.1235140" lon="10.5017210">
	<ele>2210.80</ele>
	<time>2023-08-07T09:17:46.000Z</time>
</trkpt>
<trkpt lat="46.1235140" lon="10.5017210">
	<ele>2210.80</ele>
	<time>2023-08-07T09:17:47.000Z</time>
</trkpt>
<trkpt lat="46.1235140" lon="10.5017210">
	<ele>2210.80</ele>
	<time>2023-08-07T09:17:48.000Z</time>
</trkpt>
<trkpt lat="46.1235140" lon="10.5017210">
	<ele>2210.80</ele>
	<time>2023-08-07T09:17:49.000Z</time>
</trkpt>
<trkpt lat="46.1235140" lon="10.5017210">
	<ele>2210.80</ele>
	<time>2023-08-07T09:17:50.000Z</time>
</trkpt>
<trkpt lat="46.1235140" lon="10.5017210">
	<ele>2210.80</ele>
	<time>2023-08-07T09:17:51.000Z</time>
</trkpt>
<trkpt lat="46.1235140" lon="10.5017210">
	<ele>2210.80</ele>
	<time>2023-08-07T09:17:52.000Z</time>
</trkpt>
<trkpt lat="46.1235140" lon="10.5017210">
	<ele>2210.80</ele>
	<time>2023-08-07T09:17:53.000Z</time>
</trkpt>
<trkpt lat="46.1235140" lon="10.5017210">
	<ele>2210.80</ele>
	<time>2023-08-07T09:17:54.000Z</time>
</trkpt>
<trkpt lat="46.1235140" lon="10.5017210">
	<ele>2210.80</ele>
	<time>2023-08-07T09:17:55.000Z</time>
</trkpt>
<trkpt lat="46.1235150" lon="10.5017210">
	<ele>2210.80</ele>
	<time>2023-08-07T09:17:56.000Z</time>
</trkpt>
<trkpt lat="46.1235150" lon="10.5017210">
	<ele>2210.80</ele>
	<time>2023-08-07T09:17:57.000Z</time>
</trkpt>
<trkpt lat="46.1235150" lon="10.5017210">
	<ele>2210.80</ele>
	<time>2023-08-07T09:17:58.000Z</time>
</trkpt>
<trkpt lat="46.1235150" lon="10.5017210">
	<ele>2210.80</ele>
	<time>2023-08-07T09:17:59.000Z</time>
</trkpt>
<trkpt lat="46.1235150" lon="10.5017210">
	<ele>2210.80</ele>
	<time>2023-08-07T09:18:00.000Z</time>
</trkpt>
<trkpt lat="46.1235150" lon="10.5017210">
	<ele>2210.80</ele>
	<time>2023-08-07T09:18:01.000Z</time>
</trkpt>
<trkpt lat="46.1235150" lon="10.5017210">
	<ele>2210.80</ele>
	<time>2023-08-07T09:18:02.000Z</time>
</trkpt>
<trkpt lat="46.1235150" lon="10.5017210">
	<ele>2210.80</ele>
	<time>2023-08-07T09:18:03.000Z</time>
</trkpt>
<trkpt lat="46.1235150" lon="10.5017210">
	<ele>2210.80</ele>
	<time>2023-08-07T09:18:04.000Z</time>
</trkpt>
<trkpt lat="46.1235150" lon="10.5017210">
	<ele>2210.80</ele>
	<time>2023-08-07T09:18:05.000Z</time>
</trkpt>
<trkpt lat="46.1235150" lon="10.5017210">
	<ele>2210.80</ele>
	<time>2023-08-07T09:18:06.000Z</time>
</trkpt>
<trkpt lat="46.1235150" lon="10.5017210">
	<ele>2210.80</ele>
	<time>2023-08-07T09:18:07.000Z</time>
</trkpt>
<trkpt lat="46.1235150" lon="10.5017210">
	<ele>2210.80</ele>
	<time>2023-08-07T09:18:08.000Z</time>
</trkpt>
<trkpt lat="46.1235150" lon="10.5017210">
	<ele>2210.80</ele>
	<time>2023-08-07T09:18:09.000Z</time>
</trkpt>
<trkpt lat="46.1235150" lon="10.5017210">
	<ele>2210.80</ele>
	<time>2023-08-07T09:18:10.000Z</time>
</trkpt>
<trkpt lat="46.1235150" lon="10.5017210">
	<ele>2210.80</ele>
	<time>2023-08-07T09:18:11.000Z</time>
</trkpt>
<trkpt lat="46.1235150" lon="10.5017210">
	<ele>2210.80</ele>
	<time>2023-08-07T09:18:12.000Z</time>
</trkpt>
<trkpt lat="46.1235150" lon="10.5017210">
	<ele>2210.80</ele>
	<time>2023-08-07T09:18:13.000Z</time>
</trkpt>
<trkpt lat="46.1235150" lon="10.5017210">
	<ele>2210.80</ele>
	<time>2023-08-07T09:18:14.000Z</time>
</trkpt>
<trkpt lat="46.1235150" lon="10.5017210">
	<ele>2210.80</ele>
	<time>2023-08-07T09:18:15.000Z</time>
</trkpt>
<trkpt lat="46.1235150" lon="10.5017210">
	<ele>2210.80</ele>
	<time>2023-08-07T09:18:16.000Z</time>
</trkpt>
<trkpt lat="46.1235150" lon="10.5017210">
	<ele>2210.80</ele>
	<time>2023-08-07T09:18:17.000Z</time>
</trkpt>
<trkpt lat="46.1235150" lon="10.5017210">
	<ele>2210.80</ele>
	<time>2023-08-07T09:18:18.000Z</time>
</trkpt>
<trkpt lat="46.1235150" lon="10.5017210">
	<ele>2210.80</ele>
	<time>2023-08-07T09:18:19.000Z</time>
</trkpt>
<trkpt lat="46.1235150" lon="10.5017210">
	<ele>2210.80</ele>
	<time>2023-08-07T09:18:20.000Z</time>
</trkpt>
<trkpt lat="46.1235150" lon="10.5017210">
	<ele>2210.80</ele>
	<time>2023-08-07T09:18:21.000Z</time>
</trkpt>
<trkpt lat="46.1235150" lon="10.5017210">
	<ele>2210.80</ele>
	<time>2023-08-07T09:18:22.000Z</time>
</trkpt>
<trkpt lat="46.1235150" lon="10.5017210">
	<ele>2210.80</ele>
	<time>2023-08-07T09:18:23.000Z</time>
</trkpt>
<trkpt lat="46.1235150" lon="10.5017210">
	<ele>2210.80</ele>
	<time>2023-08-07T09:18:24.000Z</time>
</trkpt>
<trkpt lat="46.1235150" lon="10.5017210">
	<ele>2210.80</ele>
	<time>2023-08-07T09:18:25.000Z</time>
</trkpt>
<trkpt lat="46.1235150" lon="10.5017210">
	<ele>2210.80</ele>
	<time>2023-08-07T09:18:26.000Z</time>
</trkpt>
<trkpt lat="46.1235150" lon="10.5017210">
	<ele>2210.80</ele>
	<time>2023-08-07T09:18:27.000Z</time>
</trkpt>
<trkpt lat="46.1235150" lon="10.5017210">
	<ele>2210.80</ele>
	<time>2023-08-07T09:18:28.000Z</time>
</trkpt>
<trkpt lat="46.1235150" lon="10.5017210">
	<ele>2210.80</ele>
	<time>2023-08-07T09:18:29.000Z</time>
</trkpt>
<trkpt lat="46.1235150" lon="10.5017210">
	<ele>2210.80</ele>
	<time>2023-08-07T09:18:30.000Z</time>
</trkpt>
<trkpt lat="46.1235150" lon="10.5017210">
	<ele>2210.80</ele>
	<time>2023-08-07T09:18:31.000Z</time>
</trkpt>
<trkpt lat="46.1235160" lon="10.5017210">
	<ele>2210.80</ele>
	<time>2023-08-07T09:18:32.000Z</time>
</trkpt>
<trkpt lat="46.1235160" lon="10.5017210">
	<ele>2210.80</ele>
	<time>2023-08-07T09:18:33.000Z</time>
</trkpt>
<trkpt lat="46.1235160" lon="10.5017210">
	<ele>2210.80</ele>
	<time>2023-08-07T09:18:34.000Z</time>
</trkpt>
<trkpt lat="46.1235160" lon="10.5017210">
	<ele>2210.80</ele>
	<time>2023-08-07T09:18:35.000Z</time>
</trkpt>
<trkpt lat="46.1235160" lon="10.5017210">
	<ele>2210.80</ele>
	<time>2023-08-07T09:18:36.000Z</time>
</trkpt>
<trkpt lat="46.1235160" lon="10.5017210">
	<ele>2210.80</ele>
	<time>2023-08-07T09:18:37.000Z</time>
</trkpt>
<trkpt lat="46.1235160" lon="10.5017210">
	<ele>2210.80</ele>
	<time>2023-08-07T09:18:38.000Z</time>
</trkpt>
<trkpt lat="46.1235160" lon="10.5017210">
	<ele>2210.80</ele>
	<time>2023-08-07T09:18:39.000Z</time>
</trkpt>
<trkpt lat="46.1235160" lon="10.5017210">
	<ele>2210.80</ele>
	<time>2023-08-07T09:18:40.000Z</time>
</trkpt>
<trkpt lat="46.1235160" lon="10.5017210">
	<ele>2210.80</ele>
	<time>2023-08-07T09:18:41.000Z</time>
</trkpt>
<trkpt lat="46.1235160" lon="10.5017210">
	<ele>2210.80</ele>
	<time>2023-08-07T09:18:42.000Z</time>
</trkpt>
<trkpt lat="46.1235160" lon="10.5017210">
	<ele>2210.80</ele>
	<time>2023-08-07T09:18:43.000Z</time>
</trkpt>
<trkpt lat="46.1235160" lon="10.5017210">
	<ele>2210.80</ele>
	<time>2023-08-07T09:18:44.000Z</time>
</trkpt>
<trkpt lat="46.1235160" lon="10.5017210">
	<ele>2210.80</ele>
	<time>2023-08-07T09:18:45.000Z</time>
</trkpt>
<trkpt lat="46.1235160" lon="10.5017210">
	<ele>2210.80</ele>
	<time>2023-08-07T09:18:46.000Z</time>
</trkpt>
<trkpt lat="46.1235160" lon="10.5017210">
	<ele>2210.80</ele>
	<time>2023-08-07T09:18:47.000Z</time>
</trkpt>
<trkpt lat="46.1235160" lon="10.5017210">
	<ele>2210.80</ele>
	<time>2023-08-07T09:18:48.000Z</time>
</trkpt>
<trkpt lat="46.1235160" lon="10.5017210">
	<ele>2210.80</ele>
	<time>2023-08-07T09:18:49.000Z</time>
</trkpt>
<trkpt lat="46.1235160" lon="10.5017210">
	<ele>2210.80</ele>
	<time>2023-08-07T09:18:50.000Z</time>
</trkpt>
<trkpt lat="46.1235160" lon="10.5017210">
	<ele>2210.80</ele>
	<time>2023-08-07T09:18:51.000Z</time>
</trkpt>
<trkpt lat="46.1235160" lon="10.5017210">
	<ele>2210.80</ele>
	<time>2023-08-07T09:18:52.000Z</time>
</trkpt>
<trkpt lat="46.1235160" lon="10.5017210">
	<ele>2210.80</ele>
	<time>2023-08-07T09:18:53.000Z</time>
</trkpt>
<trkpt lat="46.1235160" lon="10.5017210">
	<ele>2210.80</ele>
	<time>2023-08-07T09:18:54.000Z</time>
</trkpt>
<trkpt lat="46.1235160" lon="10.5017210">
	<ele>2210.80</ele>
	<time>2023-08-07T09:18:55.000Z</time>
</trkpt>
<trkpt lat="46.1235160" lon="10.5017210">
	<ele>2210.80</ele>
	<time>2023-08-07T09:18:56.000Z</time>
</trkpt>
<trkpt lat="46.1235160" lon="10.5017210">
	<ele>2210.80</ele>
	<time>2023-08-07T09:18:57.000Z</time>
</trkpt>
<trkpt lat="46.1235160" lon="10.5017210">
	<ele>2210.80</ele>
	<time>2023-08-07T09:18:58.000Z</time>
</trkpt>
<trkpt lat="46.1235160" lon="10.5017210">
	<ele>2210.80</ele>
	<time>2023-08-07T09:18:59.000Z</time>
</trkpt>
<trkpt lat="46.1235160" lon="10.5017210">
	<ele>2210.80</ele>
	<time>2023-08-07T09:19:00.000Z</time>
</trkpt>
<trkpt lat="46.1235160" lon="10.5017210">
	<ele>2210.80</ele>
	<time>2023-08-07T09:19:01.000Z</time>
</trkpt>
<trkpt lat="46.1235160" lon="10.5017210">
	<ele>2210.80</ele>
	<time>2023-08-07T09:19:02.000Z</time>
</trkpt>
<trkpt lat="46.1235160" lon="10.5017210">
	<ele>2210.80</ele>
	<time>2023-08-07T09:19:03.000Z</time>
</trkpt>
<trkpt lat="46.1235160" lon="10.5017210">
	<ele>2210.80</ele>
	<time>2023-08-07T09:19:04.000Z</time>
</trkpt>
<trkpt lat="46.1235160" lon="10.5017210">
	<ele>2210.80</ele>
	<time>2023-08-07T09:19:05.000Z</time>
</trkpt>
<trkpt lat="46.1235160" lon="10.5017210">
	<ele>2210.80</ele>
	<time>2023-08-07T09:19:06.000Z</time>
</trkpt>
<trkpt lat="46.1235160" lon="10.5017210">
	<ele>2210.80</ele>
	<time>2023-08-07T09:19:07.000Z</time>
</trkpt>
<trkpt lat="46.1235160" lon="10.5017210">
	<ele>2210.80</ele>
	<time>2023-08-07T09:19:08.000Z</time>
</trkpt>
<trkpt lat="46.1235160" lon="10.5017210">
	<ele>2210.80</ele>
	<time>2023-08-07T09:19:09.000Z</time>
</trkpt>
<trkpt lat="46.1235160" lon="10.5017210">
	<ele>2210.80</ele>
	<time>2023-08-07T09:19:10.000Z</time>
</trkpt>
<trkpt lat="46.1235160" lon="10.5017210">
	<ele>2210.80</ele>
	<time>2023-08-07T09:19:11.000Z</time>
</trkpt>
<trkpt lat="46.1235160" lon="10.5017210">
	<ele>2210.80</ele>
	<time>2023-08-07T09:19:12.000Z</time>
</trkpt>
<trkpt lat="46.1235160" lon="10.5017210">
	<ele>2210.80</ele>
	<time>2023-08-07T09:19:13.000Z</time>
</trkpt>
<trkpt lat="46.1235160" lon="10.5017210">
	<ele>2210.80</ele>
	<time>2023-08-07T09:19:14.000Z</time>
</trkpt>
<trkpt lat="46.1235160" lon="10.5017210">
	<ele>2210.80</ele>
	<time>2023-08-07T09:19:15.000Z</time>
</trkpt>
<trkpt lat="46.1235160" lon="10.5017210">
	<ele>2210.80</ele>
	<time>2023-08-07T09:19:16.000Z</time>
</trkpt>
<trkpt lat="46.1235160" lon="10.5017210">
	<ele>2210.80</ele>
	<time>2023-08-07T09:19:17.000Z</time>
</trkpt>
<trkpt lat="46.1235160" lon="10.5017210">
	<ele>2210.80</ele>
	<time>2023-08-07T09:19:18.000Z</time>
</trkpt>
<trkpt lat="46.1235160" lon="10.5017210">
	<ele>2210.80</ele>
	<time>2023-08-07T09:19:19.000Z</time>
</trkpt>
<trkpt lat="46.1235160" lon="10.5017210">
	<ele>2210.80</ele>
	<time>2023-08-07T09:19:20.000Z</time>
</trkpt>
<trkpt lat="46.1235160" lon="10.5017210">
	<ele>2210.80</ele>
	<time>2023-08-07T09:19:21.000Z</time>
</trkpt>
<trkpt lat="46.1235160" lon="10.5017210">
	<ele>2210.80</ele>
	<time>2023-08-07T09:19:22.000Z</time>
</trkpt>
<trkpt lat="46.1235160" lon="10.5017210">
	<ele>2210.80</ele>
	<time>2023-08-07T09:19:23.000Z</time>
</trkpt>
<trkpt lat="46.1235160" lon="10.5017210">
	<ele>2210.80</ele>
	<time>2023-08-07T09:19:24.000Z</time>
</trkpt>
<trkpt lat="46.1235160" lon="10.5017210">
	<ele>2210.80</ele>
	<time>2023-08-07T09:19:25.000Z</time>
</trkpt>
<trkpt lat="46.1235160" lon="10.5017210">
	<ele>2210.80</ele>
	<time>2023-08-07T09:19:26.000Z</time>
</trkpt>
<trkpt lat="46.1235160" lon="10.5017210">
	<ele>2210.80</ele>
	<time>2023-08-07T09:19:27.000Z</time>
</trkpt>
<trkpt lat="46.1235160" lon="10.5017210">
	<ele>2210.80</ele>
	<time>2023-08-07T09:19:28.000Z</time>
</trkpt>
<trkpt lat="46.1235160" lon="10.5017210">
	<ele>2210.80</ele>
	<time>2023-08-07T09:19:29.000Z</time>
</trkpt>
<trkpt lat="46.1235160" lon="10.5017210">
	<ele>2210.80</ele>
	<time>2023-08-07T09:19:30.000Z</time>
</trkpt>
<trkpt lat="46.1235160" lon="10.5017210">
	<ele>2210.80</ele>
	<time>2023-08-07T09:19:31.000Z</time>
</trkpt>
<trkpt lat="46.1235160" lon="10.5017210">
	<ele>2210.80</ele>
	<time>2023-08-07T09:19:32.000Z</time>
</trkpt>
<trkpt lat="46.1235160" lon="10.5017210">
	<ele>2210.80</ele>
	<time>2023-08-07T09:19:33.000Z</time>
</trkpt>
<trkpt lat="46.1235160" lon="10.5017210">
	<ele>2210.80</ele>
	<time>2023-08-07T09:19:34.000Z</time>
</trkpt>
<trkpt lat="46.1235160" lon="10.5017210">
	<ele>2210.80</ele>
	<time>2023-08-07T09:19:35.000Z</time>
</trkpt>
<trkpt lat="46.1235160" lon="10.5017210">
	<ele>2210.80</ele>
	<time>2023-08-07T09:19:36.000Z</time>
</trkpt>
<trkpt lat="46.1235160" lon="10.5017210">
	<ele>2210.80</ele>
	<time>2023-08-07T09:19:37.000Z</time>
</trkpt>
<trkpt lat="46.1235160" lon="10.5017210">
	<ele>2210.80</ele>
	<time>2023-08-07T09:19:38.000Z</time>
</trkpt>
<trkpt lat="46.1235160" lon="10.5017210">
	<ele>2210.80</ele>
	<time>2023-08-07T09:19:39.000Z</time>
</trkpt>
<trkpt lat="46.1235160" lon="10.5017210">
	<ele>2210.80</ele>
	<time>2023-08-07T09:19:40.000Z</time>
</trkpt>
<trkpt lat="46.1235160" lon="10.5017210">
	<ele>2210.80</ele>
	<time>2023-08-07T09:19:41.000Z</time>
</trkpt>
<trkpt lat="46.1235160" lon="10.5017210">
	<ele>2210.80</ele>
	<time>2023-08-07T09:19:42.000Z</time>
</trkpt>
<trkpt lat="46.1235160" lon="10.5017210">
	<ele>2210.80</ele>
	<time>2023-08-07T09:19:43.000Z</time>
</trkpt>
<trkpt lat="46.1235160" lon="10.5017210">
	<ele>2210.80</ele>
	<time>2023-08-07T09:19:44.000Z</time>
</trkpt>
<trkpt lat="46.1235160" lon="10.5017210">
	<ele>2210.80</ele>
	<time>2023-08-07T09:19:45.000Z</time>
</trkpt>
<trkpt lat="46.1235160" lon="10.5017210">
	<ele>2210.80</ele>
	<time>2023-08-07T09:19:46.000Z</time>
</trkpt>
<trkpt lat="46.1235160" lon="10.5017210">
	<ele>2210.80</ele>
	<time>2023-08-07T09:19:47.000Z</time>
</trkpt>
<trkpt lat="46.1235160" lon="10.5017210">
	<ele>2210.80</ele>
	<time>2023-08-07T09:19:48.000Z</time>
</trkpt>
<trkpt lat="46.1235160" lon="10.5017210">
	<ele>2210.80</ele>
	<time>2023-08-07T09:19:49.000Z</time>
</trkpt>
<trkpt lat="46.1235160" lon="10.5017210">
	<ele>2210.80</ele>
	<time>2023-08-07T09:19:50.000Z</time>
</trkpt>
<trkpt lat="46.1235160" lon="10.5017210">
	<ele>2210.80</ele>
	<time>2023-08-07T09:19:51.000Z</time>
</trkpt>
<trkpt lat="46.1235160" lon="10.5017210">
	<ele>2210.80</ele>
	<time>2023-08-07T09:19:52.000Z</time>
</trkpt>
<trkpt lat="46.1235160" lon="10.5017210">
	<ele>2210.80</ele>
	<time>2023-08-07T09:19:53.000Z</time>
</trkpt>
<trkpt lat="46.1235160" lon="10.5017210">
	<ele>2210.80</ele>
	<time>2023-08-07T09:19:54.000Z</time>
</trkpt>
<trkpt lat="46.1235160" lon="10.5017210">
	<ele>2210.80</ele>
	<time>2023-08-07T09:19:55.000Z</time>
</trkpt>
<trkpt lat="46.1235160" lon="10.5017210">
	<ele>2210.80</ele>
	<time>2023-08-07T09:19:56.000Z</time>
</trkpt>
<trkpt lat="46.1235160" lon="10.5017210">
	<ele>2210.80</ele>
	<time>2023-08-07T09:19:57.000Z</time>
</trkpt>
<trkpt lat="46.1235160" lon="10.5017210">
	<ele>2210.80</ele>
	<time>2023-08-07T09:19:58.000Z</time>
</trkpt>
<trkpt lat="46.1235160" lon="10.5017210">
	<ele>2210.80</ele>
	<time>2023-08-07T09:19:59.000Z</time>
</trkpt>
<trkpt lat="46.1235160" lon="10.5017210">
	<ele>2210.80</ele>
	<time>2023-08-07T09:20:00.000Z</time>
</trkpt>
<trkpt lat="46.1235160" lon="10.5017210">
	<ele>2210.80</ele>
	<time>2023-08-07T09:20:01.000Z</time>
</trkpt>
<trkpt lat="46.1235160" lon="10.5017210">
	<ele>2210.80</ele>
	<time>2023-08-07T09:20:02.000Z</time>
</trkpt>
<trkpt lat="46.1235160" lon="10.5017210">
	<ele>2210.80</ele>
	<time>2023-08-07T09:20:03.000Z</time>
</trkpt>
<trkpt lat="46.1235160" lon="10.5017210">
	<ele>2210.80</ele>
	<time>2023-08-07T09:20:04.000Z</time>
</trkpt>
<trkpt lat="46.1235160" lon="10.5017210">
	<ele>2210.80</ele>
	<time>2023-08-07T09:20:05.000Z</time>
</trkpt>
<trkpt lat="46.1235160" lon="10.5017210">
	<ele>2210.80</ele>
	<time>2023-08-07T09:20:06.000Z</time>
</trkpt>
<trkpt lat="46.1235160" lon="10.5017210">
	<ele>2210.80</ele>
	<time>2023-08-07T09:20:07.000Z</time>
</trkpt>
<trkpt lat="46.1235160" lon="10.5017200">
	<ele>2210.80</ele>
	<time>2023-08-07T09:20:08.000Z</time>
</trkpt>
<trkpt lat="46.1235160" lon="10.5017200">
	<ele>2210.80</ele>
	<time>2023-08-07T09:20:09.000Z</time>
</trkpt>
<trkpt lat="46.1235160" lon="10.5017200">
	<ele>2210.80</ele>
	<time>2023-08-07T09:20:10.000Z</time>
</trkpt>
<trkpt lat="46.1235160" lon="10.5017200">
	<ele>2210.80</ele>
	<time>2023-08-07T09:20:11.000Z</time>
</trkpt>
<trkpt lat="46.1235160" lon="10.5017200">
	<ele>2210.80</ele>
	<time>2023-08-07T09:20:12.000Z</time>
</trkpt>
<trkpt lat="46.1235160" lon="10.5017200">
	<ele>2210.80</ele>
	<time>2023-08-07T09:20:13.000Z</time>
</trkpt>
<trkpt lat="46.1235160" lon="10.5017200">
	<ele>2210.80</ele>
	<time>2023-08-07T09:20:14.000Z</time>
</trkpt>
<trkpt lat="46.1235160" lon="10.5017200">
	<ele>2210.80</ele>
	<time>2023-08-07T09:20:15.000Z</time>
</trkpt>
<trkpt lat="46.1235160" lon="10.5017200">
	<ele>2210.80</ele>
	<time>2023-08-07T09:20:16.000Z</time>
</trkpt>
<trkpt lat="46.1235160" lon="10.5017200">
	<ele>2210.80</ele>
	<time>2023-08-07T09:20:17.000Z</time>
</trkpt>
<trkpt lat="46.1235160" lon="10.5017200">
	<ele>2210.80</ele>
	<time>2023-08-07T09:20:18.000Z</time>
</trkpt>
<trkpt lat="46.1235160" lon="10.5017200">
	<ele>2210.80</ele>
	<time>2023-08-07T09:20:19.000Z</time>
</trkpt>
<trkpt lat="46.1235160" lon="10.5017200">
	<ele>2210.80</ele>
	<time>2023-08-07T09:20:20.000Z</time>
</trkpt>
<trkpt lat="46.1235160" lon="10.5017200">
	<ele>2210.80</ele>
	<time>2023-08-07T09:20:21.000Z</time>
</trkpt>
<trkpt lat="46.1235160" lon="10.5017200">
	<ele>2210.80</ele>
	<time>2023-08-07T09:20:22.000Z</time>
</trkpt>
<trkpt lat="46.1235160" lon="10.5017200">
	<ele>2210.80</ele>
	<time>2023-08-07T09:20:23.000Z</time>
</trkpt>
<trkpt lat="46.1235160" lon="10.5017200">
	<ele>2210.80</ele>
	<time>2023-08-07T09:20:24.000Z</time>
</trkpt>
<trkpt lat="46.1235160" lon="10.5017200">
	<ele>2210.80</ele>
	<time>2023-08-07T09:20:25.000Z</time>
</trkpt>
<trkpt lat="46.1235160" lon="10.5017200">
	<ele>2210.80</ele>
	<time>2023-08-07T09:20:26.000Z</time>
</trkpt>
<trkpt lat="46.1235160" lon="10.5017200">
	<ele>2210.80</ele>
	<time>2023-08-07T09:20:27.000Z</time>
</trkpt>
<trkpt lat="46.1235160" lon="10.5017200">
	<ele>2210.80</ele>
	<time>2023-08-07T09:20:28.000Z</time>
</trkpt>
<trkpt lat="46.1235160" lon="10.5017200">
	<ele>2210.80</ele>
	<time>2023-08-07T09:20:29.000Z</time>
</trkpt>
<trkpt lat="46.1235160" lon="10.5017200">
	<ele>2210.80</ele>
	<time>2023-08-07T09:20:30.000Z</time>
</trkpt>
<trkpt lat="46.1235160" lon="10.5017200">
	<ele>2210.80</ele>
	<time>2023-08-07T09:20:31.000Z</time>
</trkpt>
<trkpt lat="46.1235160" lon="10.5017200">
	<ele>2210.80</ele>
	<time>2023-08-07T09:20:32.000Z</time>
</trkpt>
<trkpt lat="46.1235160" lon="10.5017200">
	<ele>2210.80</ele>
	<time>2023-08-07T09:20:33.000Z</time>
</trkpt>
<trkpt lat="46.1235160" lon="10.5017200">
	<ele>2210.80</ele>
	<time>2023-08-07T09:20:34.000Z</time>
</trkpt>
<trkpt lat="46.1235160" lon="10.5017200">
	<ele>2210.80</ele>
	<time>2023-08-07T09:20:35.000Z</time>
</trkpt>
<trkpt lat="46.1235160" lon="10.5017200">
	<ele>2210.80</ele>
	<time>2023-08-07T09:20:36.000Z</time>
</trkpt>
<trkpt lat="46.1235160" lon="10.5017200">
	<ele>2210.80</ele>
	<time>2023-08-07T09:20:37.000Z</time>
</trkpt>
<trkpt lat="46.1235170" lon="10.5017200">
	<ele>2210.80</ele>
	<time>2023-08-07T09:20:38.000Z</time>
</trkpt>
<trkpt lat="46.1235170" lon="10.5017200">
	<ele>2210.80</ele>
	<time>2023-08-07T09:20:39.000Z</time>
</trkpt>
<trkpt lat="46.1235170" lon="10.5017200">
	<ele>2210.80</ele>
	<time>2023-08-07T09:20:40.000Z</time>
</trkpt>
<trkpt lat="46.1235170" lon="10.5017200">
	<ele>2210.80</ele>
	<time>2023-08-07T09:20:41.000Z</time>
</trkpt>
<trkpt lat="46.1235170" lon="10.5017200">
	<ele>2210.80</ele>
	<time>2023-08-07T09:20:42.000Z</time>
</trkpt>
<trkpt lat="46.1235170" lon="10.5017200">
	<ele>2210.80</ele>
	<time>2023-08-07T09:20:43.000Z</time>
</trkpt>
<trkpt lat="46.1235170" lon="10.5017200">
	<ele>2210.80</ele>
	<time>2023-08-07T09:20:44.000Z</time>
</trkpt>
<trkpt lat="46.1235170" lon="10.5017200">
	<ele>2210.80</ele>
	<time>2023-08-07T09:20:45.000Z</time>
</trkpt>
<trkpt lat="46.1235170" lon="10.5017200">
	<ele>2210.80</ele>
	<time>2023-08-07T09:20:46.000Z</time>
</trkpt>
<trkpt lat="46.1235170" lon="10.5017200">
	<ele>2210.80</ele>
	<time>2023-08-07T09:20:47.000Z</time>
</trkpt>
<trkpt lat="46.1235170" lon="10.5017200">
	<ele>2210.80</ele>
	<time>2023-08-07T09:20:48.000Z</time>
</trkpt>
<trkpt lat="46.1235170" lon="10.5017200">
	<ele>2210.80</ele>
	<time>2023-08-07T09:20:49.000Z</time>
</trkpt>
<trkpt lat="46.1235170" lon="10.5017200">
	<ele>2210.80</ele>
	<time>2023-08-07T09:20:50.000Z</time>
</trkpt>
<trkpt lat="46.1235170" lon="10.5017200">
	<ele>2210.80</ele>
	<time>2023-08-07T09:20:51.000Z</time>
</trkpt>
<trkpt lat="46.1235170" lon="10.5017210">
	<ele>2210.80</ele>
	<time>2023-08-07T09:20:52.000Z</time>
</trkpt>
<trkpt lat="46.1235170" lon="10.5017210">
	<ele>2210.80</ele>
	<time>2023-08-07T09:20:53.000Z</time>
</trkpt>
<trkpt lat="46.1235170" lon="10.5017210">
	<ele>2210.80</ele>
	<time>2023-08-07T09:20:54.000Z</time>
</trkpt>
<trkpt lat="46.1235170" lon="10.5017210">
	<ele>2210.80</ele>
	<time>2023-08-07T09:20:55.000Z</time>
</trkpt>
<trkpt lat="46.1235170" lon="10.5017200">
	<ele>2210.80</ele>
	<time>2023-08-07T09:20:56.000Z</time>
</trkpt>
<trkpt lat="46.1235170" lon="10.5017200">
	<ele>2210.80</ele>
	<time>2023-08-07T09:20:57.000Z</time>
</trkpt>
<trkpt lat="46.1235170" lon="10.5017200">
	<ele>2210.80</ele>
	<time>2023-08-07T09:20:58.000Z</time>
</trkpt>
<trkpt lat="46.1235170" lon="10.5017200">
	<ele>2210.80</ele>
	<time>2023-08-07T09:20:59.000Z</time>
</trkpt>
<trkpt lat="46.1235170" lon="10.5017200">
	<ele>2210.80</ele>
	<time>2023-08-07T09:21:00.000Z</time>
</trkpt>
<trkpt lat="46.1235170" lon="10.5017200">
	<ele>2210.80</ele>
	<time>2023-08-07T09:21:01.000Z</time>
</trkpt>
<trkpt lat="46.1235170" lon="10.5017200">
	<ele>2210.80</ele>
	<time>2023-08-07T09:21:02.000Z</time>
</trkpt>
<trkpt lat="46.1235170" lon="10.5017200">
	<ele>2210.80</ele>
	<time>2023-08-07T09:21:03.000Z</time>
</trkpt>
<trkpt lat="46.1235170" lon="10.5017200">
	<ele>2210.80</ele>
	<time>2023-08-07T09:21:04.000Z</time>
</trkpt>
<trkpt lat="46.1235170" lon="10.5017200">
	<ele>2210.80</ele>
	<time>2023-08-07T09:21:05.000Z</time>
</trkpt>
<trkpt lat="46.1235170" lon="10.5017200">
	<ele>2210.80</ele>
	<time>2023-08-07T09:21:06.000Z</time>
</trkpt>
<trkpt lat="46.1235170" lon="10.5017200">
	<ele>2210.80</ele>
	<time>2023-08-07T09:21:07.000Z</time>
</trkpt>
<trkpt lat="46.1235170" lon="10.5017200">
	<ele>2210.80</ele>
	<time>2023-08-07T09:21:08.000Z</time>
</trkpt>
<trkpt lat="46.1235170" lon="10.5017200">
	<ele>2210.80</ele>
	<time>2023-08-07T09:21:09.000Z</time>
</trkpt>
<trkpt lat="46.1235170" lon="10.5017200">
	<ele>2210.80</ele>
	<time>2023-08-07T09:21:10.000Z</time>
</trkpt>
<trkpt lat="46.1235170" lon="10.5017200">
	<ele>2210.80</ele>
	<time>2023-08-07T09:21:11.000Z</time>
</trkpt>
<trkpt lat="46.1235170" lon="10.5017200">
	<ele>2210.80</ele>
	<time>2023-08-07T09:21:12.000Z</time>
</trkpt>
<trkpt lat="46.1235170" lon="10.5017200">
	<ele>2210.80</ele>
	<time>2023-08-07T09:21:13.000Z</time>
</trkpt>
<trkpt lat="46.1235170" lon="10.5017200">
	<ele>2210.80</ele>
	<time>2023-08-07T09:21:14.000Z</time>
</trkpt>
<trkpt lat="46.1235170" lon="10.5017200">
	<ele>2210.80</ele>
	<time>2023-08-07T09:21:15.000Z</time>
</trkpt>
<trkpt lat="46.1235170" lon="10.5017200">
	<ele>2210.80</ele>
	<time>2023-08-07T09:21:16.000Z</time>
</trkpt>
<trkpt lat="46.1235170" lon="10.5017200">
	<ele>2210.80</ele>
	<time>2023-08-07T09:21:17.000Z</time>
</trkpt>
<trkpt lat="46.1235170" lon="10.5017200">
	<ele>2210.80</ele>
	<time>2023-08-07T09:21:18.000Z</time>
</trkpt>
<trkpt lat="46.1235170" lon="10.5017200">
	<ele>2210.80</ele>
	<time>2023-08-07T09:21:19.000Z</time>
</trkpt>
<trkpt lat="46.1235180" lon="10.5017200">
	<ele>2210.80</ele>
	<time>2023-08-07T09:21:20.000Z</time>
</trkpt>
<trkpt lat="46.1235180" lon="10.5017200">
	<ele>2210.80</ele>
	<time>2023-08-07T09:21:21.000Z</time>
</trkpt>
<trkpt lat="46.1235180" lon="10.5017200">
	<ele>2210.80</ele>
	<time>2023-08-07T09:21:22.000Z</time>
</trkpt>
<trkpt lat="46.1235180" lon="10.5017200">
	<ele>2210.80</ele>
	<time>2023-08-07T09:21:23.000Z</time>
</trkpt>
<trkpt lat="46.1235180" lon="10.5017200">
	<ele>2210.80</ele>
	<time>2023-08-07T09:21:24.000Z</time>
</trkpt>
<trkpt lat="46.1235180" lon="10.5017200">
	<ele>2210.80</ele>
	<time>2023-08-07T09:21:25.000Z</time>
</trkpt>
<trkpt lat="46.1235180" lon="10.5017200">
	<ele>2210.80</ele>
	<time>2023-08-07T09:21:26.000Z</time>
</trkpt>
<trkpt lat="46.1235180" lon="10.5017210">
	<ele>2210.80</ele>
	<time>2023-08-07T09:21:27.000Z</time>
</trkpt>
<trkpt lat="46.1235180" lon="10.5017210">
	<ele>2210.80</ele>
	<time>2023-08-07T09:21:28.000Z</time>
</trkpt>
<trkpt lat="46.1235180" lon="10.5017200">
	<ele>2210.80</ele>
	<time>2023-08-07T09:21:29.000Z</time>
</trkpt>
<trkpt lat="46.1235180" lon="10.5017210">
	<ele>2210.80</ele>
	<time>2023-08-07T09:21:30.000Z</time>
</trkpt>
<trkpt lat="46.1235180" lon="10.5017210">
	<ele>2210.80</ele>
	<time>2023-08-07T09:21:31.000Z</time>
</trkpt>
<trkpt lat="46.1235180" lon="10.5017200">
	<ele>2210.80</ele>
	<time>2023-08-07T09:21:32.000Z</time>
</trkpt>
<trkpt lat="46.1235180" lon="10.5017200">
	<ele>2210.80</ele>
	<time>2023-08-07T09:21:33.000Z</time>
</trkpt>
<trkpt lat="46.1235180" lon="10.5017200">
	<ele>2210.80</ele>
	<time>2023-08-07T09:21:34.000Z</time>
</trkpt>
<trkpt lat="46.1235180" lon="10.5017200">
	<ele>2210.80</ele>
	<time>2023-08-07T09:21:35.000Z</time>
</trkpt>
<trkpt lat="46.1235180" lon="10.5017200">
	<ele>2210.80</ele>
	<time>2023-08-07T09:21:36.000Z</time>
</trkpt>
<trkpt lat="46.1235180" lon="10.5017200">
	<ele>2210.80</ele>
	<time>2023-08-07T09:21:37.000Z</time>
</trkpt>
<trkpt lat="46.1235180" lon="10.5017200">
	<ele>2210.80</ele>
	<time>2023-08-07T09:21:38.000Z</time>
</trkpt>
<trkpt lat="46.1235180" lon="10.5017210">
	<ele>2210.80</ele>
	<time>2023-08-07T09:21:39.000Z</time>
</trkpt>
<trkpt lat="46.1235180" lon="10.5017210">
	<ele>2210.80</ele>
	<time>2023-08-07T09:21:40.000Z</time>
</trkpt>
<trkpt lat="46.1235180" lon="10.5017200">
	<ele>2210.80</ele>
	<time>2023-08-07T09:21:41.000Z</time>
</trkpt>
<trkpt lat="46.1235180" lon="10.5017200">
	<ele>2210.80</ele>
	<time>2023-08-07T09:21:42.000Z</time>
</trkpt>
<trkpt lat="46.1235180" lon="10.5017200">
	<ele>2210.80</ele>
	<time>2023-08-07T09:21:43.000Z</time>
</trkpt>
<trkpt lat="46.1235180" lon="10.5017200">
	<ele>2210.80</ele>
	<time>2023-08-07T09:21:44.000Z</time>
</trkpt>
<trkpt lat="46.1235180" lon="10.5017200">
	<ele>2210.80</ele>
	<time>2023-08-07T09:21:45.000Z</time>
</trkpt>
<trkpt lat="46.1235180" lon="10.5017200">
	<ele>2210.80</ele>
	<time>2023-08-07T09:21:46.000Z</time>
</trkpt>
<trkpt lat="46.1235180" lon="10.5017200">
	<ele>2210.80</ele>
	<time>2023-08-07T09:21:47.000Z</time>
</trkpt>
<trkpt lat="46.1235180" lon="10.5017210">
	<ele>2210.80</ele>
	<time>2023-08-07T09:21:48.000Z</time>
</trkpt>
<trkpt lat="46.1235180" lon="10.5017210">
	<ele>2210.80</ele>
	<time>2023-08-07T09:21:49.000Z</time>
</trkpt>
<trkpt lat="46.1235180" lon="10.5017210">
	<ele>2210.80</ele>
	<time>2023-08-07T09:21:50.000Z</time>
</trkpt>
<trkpt lat="46.1235180" lon="10.5017210">
	<ele>2210.80</ele>
	<time>2023-08-07T09:21:51.000Z</time>
</trkpt>
<trkpt lat="46.1235180" lon="10.5017210">
	<ele>2210.80</ele>
	<time>2023-08-07T09:21:52.000Z</time>
</trkpt>
<trkpt lat="46.1235180" lon="10.5017210">
	<ele>2210.80</ele>
	<time>2023-08-07T09:21:53.000Z</time>
</trkpt>
<trkpt lat="46.1235180" lon="10.5017210">
	<ele>2210.80</ele>
	<time>2023-08-07T09:21:54.000Z</time>
</trkpt>
<trkpt lat="46.1235180" lon="10.5017210">
	<ele>2210.80</ele>
	<time>2023-08-07T09:21:55.000Z</time>
</trkpt>
<trkpt lat="46.1235180" lon="10.5017210">
	<ele>2210.80</ele>
	<time>2023-08-07T09:21:56.000Z</time>
</trkpt>
<trkpt lat="46.1235180" lon="10.5017210">
	<ele>2210.80</ele>
	<time>2023-08-07T09:21:57.000Z</time>
</trkpt>
<trkpt lat="46.1235180" lon="10.5017210">
	<ele>2210.80</ele>
	<time>2023-08-07T09:21:58.000Z</time>
</trkpt>
<trkpt lat="46.1235180" lon="10.5017210">
	<ele>2210.80</ele>
	<time>2023-08-07T09:21:59.000Z</time>
</trkpt>
<trkpt lat="46.1235180" lon="10.5017210">
	<ele>2210.80</ele>
	<time>2023-08-07T09:22:00.000Z</time>
</trkpt>
<trkpt lat="46.1235180" lon="10.5017210">
	<ele>2210.80</ele>
	<time>2023-08-07T09:22:01.000Z</time>
</trkpt>
<trkpt lat="46.1235180" lon="10.5017210">
	<ele>2210.80</ele>
	<time>2023-08-07T09:22:02.000Z</time>
</trkpt>
<trkpt lat="46.1235180" lon="10.5017210">
	<ele>2210.80</ele>
	<time>2023-08-07T09:22:03.000Z</time>
</trkpt>
<trkpt lat="46.1235180" lon="10.5017210">
	<ele>2210.80</ele>
	<time>2023-08-07T09:22:04.000Z</time>
</trkpt>
<trkpt lat="46.1235180" lon="10.5017210">
	<ele>2210.80</ele>
	<time>2023-08-07T09:22:05.000Z</time>
</trkpt>
<trkpt lat="46.1235180" lon="10.5017210">
	<ele>2210.80</ele>
	<time>2023-08-07T09:22:06.000Z</time>
</trkpt>
<trkpt lat="46.1235180" lon="10.5017210">
	<ele>2210.80</ele>
	<time>2023-08-07T09:22:07.000Z</time>
</trkpt>
<trkpt lat="46.1235180" lon="10.5017210">
	<ele>2210.80</ele>
	<time>2023-08-07T09:22:08.000Z</time>
</trkpt>
<trkpt lat="46.1235180" lon="10.5017210">
	<ele>2210.80</ele>
	<time>2023-08-07T09:22:09.000Z</time>
</trkpt>
<trkpt lat="46.1235180" lon="10.5017210">
	<ele>2210.80</ele>
	<time>2023-08-07T09:22:10.000Z</time>
</trkpt>
<trkpt lat="46.1235180" lon="10.5017210">
	<ele>2210.80</ele>
	<time>2023-08-07T09:22:11.000Z</time>
</trkpt>
<trkpt lat="46.1235180" lon="10.5017210">
	<ele>2210.80</ele>
	<time>2023-08-07T09:22:12.000Z</time>
</trkpt>
<trkpt lat="46.1235180" lon="10.5017210">
	<ele>2210.80</ele>
	<time>2023-08-07T09:22:13.000Z</time>
</trkpt>
<trkpt lat="46.1235180" lon="10.5017210">
	<ele>2210.80</ele>
	<time>2023-08-07T09:22:14.000Z</time>
</trkpt>
<trkpt lat="46.1235180" lon="10.5017210">
	<ele>2210.80</ele>
	<time>2023-08-07T09:22:15.000Z</time>
</trkpt>
<trkpt lat="46.1235180" lon="10.5017210">
	<ele>2210.80</ele>
	<time>2023-08-07T09:22:16.000Z</time>
</trkpt>
<trkpt lat="46.1235180" lon="10.5017210">
	<ele>2210.80</ele>
	<time>2023-08-07T09:22:17.000Z</time>
</trkpt>
<trkpt lat="46.1235180" lon="10.5017210">
	<ele>2210.80</ele>
	<time>2023-08-07T09:22:18.000Z</time>
</trkpt>
<trkpt lat="46.1235180" lon="10.5017210">
	<ele>2210.80</ele>
	<time>2023-08-07T09:22:19.000Z</time>
</trkpt>
<trkpt lat="46.1235180" lon="10.5017210">
	<ele>2210.80</ele>
	<time>2023-08-07T09:22:20.000Z</time>
</trkpt>
<trkpt lat="46.1235180" lon="10.5017210">
	<ele>2210.80</ele>
	<time>2023-08-07T09:22:21.000Z</time>
</trkpt>
<trkpt lat="46.1235180" lon="10.5017210">
	<ele>2210.80</ele>
	<time>2023-08-07T09:22:22.000Z</time>
</trkpt>
<trkpt lat="46.1235180" lon="10.5017210">
	<ele>2210.80</ele>
	<time>2023-08-07T09:22:23.000Z</time>
</trkpt>
<trkpt lat="46.1235180" lon="10.5017210">
	<ele>2210.80</ele>
	<time>2023-08-07T09:22:24.000Z</time>
</trkpt>
<trkpt lat="46.1235190" lon="10.5017210">
	<ele>2210.80</ele>
	<time>2023-08-07T09:22:25.000Z</time>
</trkpt>
<trkpt lat="46.1235190" lon="10.5017210">
	<ele>2210.80</ele>
	<time>2023-08-07T09:22:26.000Z</time>
</trkpt>
<trkpt lat="46.1235190" lon="10.5017210">
	<ele>2210.80</ele>
	<time>2023-08-07T09:22:27.000Z</time>
</trkpt>
<trkpt lat="46.1235190" lon="10.5017210">
	<ele>2210.80</ele>
	<time>2023-08-07T09:22:28.000Z</time>
</trkpt>
<trkpt lat="46.1235190" lon="10.5017210">
	<ele>2210.80</ele>
	<time>2023-08-07T09:22:29.000Z</time>
</trkpt>
<trkpt lat="46.1235190" lon="10.5017210">
	<ele>2210.80</ele>
	<time>2023-08-07T09:22:30.000Z</time>
</trkpt>
<trkpt lat="46.1235190" lon="10.5017210">
	<ele>2210.80</ele>
	<time>2023-08-07T09:22:31.000Z</time>
</trkpt>
<trkpt lat="46.1235190" lon="10.5017210">
	<ele>2210.80</ele>
	<time>2023-08-07T09:22:32.000Z</time>
</trkpt>
<trkpt lat="46.1235190" lon="10.5017210">
	<ele>2210.80</ele>
	<time>2023-08-07T09:22:33.000Z</time>
</trkpt>
<trkpt lat="46.1235190" lon="10.5017210">
	<ele>2210.80</ele>
	<time>2023-08-07T09:22:34.000Z</time>
</trkpt>
<trkpt lat="46.1235190" lon="10.5017210">
	<ele>2210.80</ele>
	<time>2023-08-07T09:22:35.000Z</time>
</trkpt>
<trkpt lat="46.1235190" lon="10.5017210">
	<ele>2210.80</ele>
	<time>2023-08-07T09:22:36.000Z</time>
</trkpt>
<trkpt lat="46.1235190" lon="10.5017210">
	<ele>2210.80</ele>
	<time>2023-08-07T09:22:37.000Z</time>
</trkpt>
<trkpt lat="46.1235190" lon="10.5017210">
	<ele>2210.80</ele>
	<time>2023-08-07T09:22:38.000Z</time>
</trkpt>
<trkpt lat="46.1235190" lon="10.5017210">
	<ele>2210.80</ele>
	<time>2023-08-07T09:22:39.000Z</time>
</trkpt>
<trkpt lat="46.1235190" lon="10.5017210">
	<ele>2210.80</ele>
	<time>2023-08-07T09:22:40.000Z</time>
</trkpt>
<trkpt lat="46.1235190" lon="10.5017210">
	<ele>2210.80</ele>
	<time>2023-08-07T09:22:41.000Z</time>
</trkpt>
<trkpt lat="46.1235190" lon="10.5017210">
	<ele>2210.80</ele>
	<time>2023-08-07T09:22:42.000Z</time>
</trkpt>
<trkpt lat="46.1235190" lon="10.5017210">
	<ele>2210.80</ele>
	<time>2023-08-07T09:22:43.000Z</time>
</trkpt>
<trkpt lat="46.1235190" lon="10.5017210">
	<ele>2210.80</ele>
	<time>2023-08-07T09:22:44.000Z</time>
</trkpt>
<trkpt lat="46.1235190" lon="10.5017210">
	<ele>2210.80</ele>
	<time>2023-08-07T09:22:45.000Z</time>
</trkpt>
<trkpt lat="46.1235190" lon="10.5017210">
	<ele>2210.80</ele>
	<time>2023-08-07T09:22:46.000Z</time>
</trkpt>
<trkpt lat="46.1235190" lon="10.5017210">
	<ele>2210.80</ele>
	<time>2023-08-07T09:22:47.000Z</time>
</trkpt>
<trkpt lat="46.1235190" lon="10.5017210">
	<ele>2210.80</ele>
	<time>2023-08-07T09:22:48.000Z</time>
</trkpt>
<trkpt lat="46.1235190" lon="10.5017210">
	<ele>2210.80</ele>
	<time>2023-08-07T09:22:49.000Z</time>
</trkpt>
<trkpt lat="46.1235190" lon="10.5017210">
	<ele>2210.80</ele>
	<time>2023-08-07T09:22:50.000Z</time>
</trkpt>
<trkpt lat="46.1235190" lon="10.5017210">
	<ele>2210.80</ele>
	<time>2023-08-07T09:22:51.000Z</time>
</trkpt>
<trkpt lat="46.1235190" lon="10.5017210">
	<ele>2210.80</ele>
	<time>2023-08-07T09:22:52.000Z</time>
</trkpt>
<trkpt lat="46.1235190" lon="10.5017210">
	<ele>2210.80</ele>
	<time>2023-08-07T09:22:53.000Z</time>
</trkpt>
<trkpt lat="46.1235190" lon="10.5017210">
	<ele>2210.80</ele>
	<time>2023-08-07T09:22:54.000Z</time>
</trkpt>
<trkpt lat="46.1235190" lon="10.5017210">
	<ele>2210.80</ele>
	<time>2023-08-07T09:22:55.000Z</time>
</trkpt>
<trkpt lat="46.1235190" lon="10.5017210">
	<ele>2210.80</ele>
	<time>2023-08-07T09:22:56.000Z</time>
</trkpt>
<trkpt lat="46.1235190" lon="10.5017210">
	<ele>2210.80</ele>
	<time>2023-08-07T09:22:57.000Z</time>
</trkpt>
<trkpt lat="46.1235190" lon="10.5017210">
	<ele>2210.80</ele>
	<time>2023-08-07T09:22:58.000Z</time>
</trkpt>
<trkpt lat="46.1235190" lon="10.5017210">
	<ele>2210.80</ele>
	<time>2023-08-07T09:22:59.000Z</time>
</trkpt>
<trkpt lat="46.1235190" lon="10.5017210">
	<ele>2210.80</ele>
	<time>2023-08-07T09:23:00.000Z</time>
</trkpt>
<trkpt lat="46.1235190" lon="10.5017210">
	<ele>2210.80</ele>
	<time>2023-08-07T09:23:01.000Z</time>
</trkpt>
<trkpt lat="46.1235190" lon="10.5017210">
	<ele>2210.80</ele>
	<time>2023-08-07T09:23:02.000Z</time>
</trkpt>
<trkpt lat="46.1235190" lon="10.5017210">
	<ele>2210.80</ele>
	<time>2023-08-07T09:23:03.000Z</time>
</trkpt>
<trkpt lat="46.1235190" lon="10.5017210">
	<ele>2210.80</ele>
	<time>2023-08-07T09:23:04.000Z</time>
</trkpt>
<trkpt lat="46.1235190" lon="10.5017210">
	<ele>2210.80</ele>
	<time>2023-08-07T09:23:05.000Z</time>
</trkpt>
<trkpt lat="46.1235190" lon="10.5017210">
	<ele>2210.80</ele>
	<time>2023-08-07T09:23:06.000Z</time>
</trkpt>
<trkpt lat="46.1235190" lon="10.5017210">
	<ele>2210.80</ele>
	<time>2023-08-07T09:23:07.000Z</time>
</trkpt>
<trkpt lat="46.1235190" lon="10.5017210">
	<ele>2210.80</ele>
	<time>2023-08-07T09:23:08.000Z</time>
</trkpt>
<trkpt lat="46.1235190" lon="10.5017210">
	<ele>2210.80</ele>
	<time>2023-08-07T09:23:09.000Z</time>
</trkpt>
<trkpt lat="46.1235190" lon="10.5017210">
	<ele>2210.80</ele>
	<time>2023-08-07T09:23:10.000Z</time>
</trkpt>
<trkpt lat="46.1235190" lon="10.5017210">
	<ele>2210.80</ele>
	<time>2023-08-07T09:23:11.000Z</time>
</trkpt>
<trkpt lat="46.1235190" lon="10.5017210">
	<ele>2210.80</ele>
	<time>2023-08-07T09:23:12.000Z</time>
</trkpt>
<trkpt lat="46.1235190" lon="10.5017210">
	<ele>2210.80</ele>
	<time>2023-08-07T09:23:13.000Z</time>
</trkpt>
<trkpt lat="46.1235200" lon="10.5017210">
	<ele>2210.80</ele>
	<time>2023-08-07T09:23:14.000Z</time>
</trkpt>
<trkpt lat="46.1235200" lon="10.5017210">
	<ele>2210.80</ele>
	<time>2023-08-07T09:23:15.000Z</time>
</trkpt>
<trkpt lat="46.1235200" lon="10.5017210">
	<ele>2210.80</ele>
	<time>2023-08-07T09:23:16.000Z</time>
</trkpt>
<trkpt lat="46.1235200" lon="10.5017210">
	<ele>2210.80</ele>
	<time>2023-08-07T09:23:17.000Z</time>
</trkpt>
<trkpt lat="46.1235200" lon="10.5017210">
	<ele>2210.80</ele>
	<time>2023-08-07T09:23:18.000Z</time>
</trkpt>
<trkpt lat="46.1235200" lon="10.5017210">
	<ele>2210.80</ele>
	<time>2023-08-07T09:23:19.000Z</time>
</trkpt>
<trkpt lat="46.1235200" lon="10.5017210">
	<ele>2210.80</ele>
	<time>2023-08-07T09:23:20.000Z</time>
</trkpt>
<trkpt lat="46.1235200" lon="10.5017210">
	<ele>2210.80</ele>
	<time>2023-08-07T09:23:21.000Z</time>
</trkpt>
<trkpt lat="46.1235200" lon="10.5017210">
	<ele>2210.80</ele>
	<time>2023-08-07T09:23:22.000Z</time>
</trkpt>
<trkpt lat="46.1235200" lon="10.5017210">
	<ele>2210.80</ele>
	<time>2023-08-07T09:23:23.000Z</time>
</trkpt>
<trkpt lat="46.1235200" lon="10.5017210">
	<ele>2210.80</ele>
	<time>2023-08-07T09:23:24.000Z</time>
</trkpt>
<trkpt lat="46.1235200" lon="10.5017210">
	<ele>2210.80</ele>
	<time>2023-08-07T09:23:25.000Z</time>
</trkpt>
<trkpt lat="46.1235200" lon="10.5017210">
	<ele>2210.80</ele>
	<time>2023-08-07T09:23:26.000Z</time>
</trkpt>
<trkpt lat="46.1235200" lon="10.5017210">
	<ele>2210.80</ele>
	<time>2023-08-07T09:23:27.000Z</time>
</trkpt>
<trkpt lat="46.1235200" lon="10.5017210">
	<ele>2210.80</ele>
	<time>2023-08-07T09:23:28.000Z</time>
</trkpt>
<trkpt lat="46.1235200" lon="10.5017210">
	<ele>2210.80</ele>
	<time>2023-08-07T09:23:29.000Z</time>
</trkpt>
<trkpt lat="46.1235200" lon="10.5017210">
	<ele>2210.80</ele>
	<time>2023-08-07T09:23:30.000Z</time>
</trkpt>
<trkpt lat="46.1235200" lon="10.5017210">
	<ele>2210.80</ele>
	<time>2023-08-07T09:23:31.000Z</time>
</trkpt>
<trkpt lat="46.1235200" lon="10.5017210">
	<ele>2210.80</ele>
	<time>2023-08-07T09:23:32.000Z</time>
</trkpt>
<trkpt lat="46.1235200" lon="10.5017210">
	<ele>2210.80</ele>
	<time>2023-08-07T09:23:33.000Z</time>
</trkpt>
<trkpt lat="46.1235200" lon="10.5017210">
	<ele>2210.80</ele>
	<time>2023-08-07T09:23:34.000Z</time>
</trkpt>
<trkpt lat="46.1235200" lon="10.5017210">
	<ele>2210.80</ele>
	<time>2023-08-07T09:23:35.000Z</time>
</trkpt>
<trkpt lat="46.1235200" lon="10.5017210">
	<ele>2210.80</ele>
	<time>2023-08-07T09:23:36.000Z</time>
</trkpt>
<trkpt lat="46.1235200" lon="10.5017210">
	<ele>2210.80</ele>
	<time>2023-08-07T09:23:37.000Z</time>
</trkpt>
<trkpt lat="46.1235200" lon="10.5017210">
	<ele>2210.80</ele>
	<time>2023-08-07T09:23:38.000Z</time>
</trkpt>
<trkpt lat="46.1235200" lon="10.5017210">
	<ele>2210.80</ele>
	<time>2023-08-07T09:23:39.000Z</time>
</trkpt>
<trkpt lat="46.1235200" lon="10.5017210">
	<ele>2210.80</ele>
	<time>2023-08-07T09:23:40.000Z</time>
</trkpt>
<trkpt lat="46.1235200" lon="10.5017210">
	<ele>2210.80</ele>
	<time>2023-08-07T09:23:41.000Z</time>
</trkpt>
<trkpt lat="46.1235200" lon="10.5017210">
	<ele>2210.80</ele>
	<time>2023-08-07T09:23:42.000Z</time>
</trkpt>
<trkpt lat="46.1235200" lon="10.5017210">
	<ele>2210.80</ele>
	<time>2023-08-07T09:23:43.000Z</time>
</trkpt>
<trkpt lat="46.1235200" lon="10.5017210">
	<ele>2210.80</ele>
	<time>2023-08-07T09:23:44.000Z</time>
</trkpt>
<trkpt lat="46.1235200" lon="10.5017210">
	<ele>2210.80</ele>
	<time>2023-08-07T09:23:45.000Z</time>
</trkpt>
<trkpt lat="46.1235200" lon="10.5017210">
	<ele>2210.80</ele>
	<time>2023-08-07T09:23:46.000Z</time>
</trkpt>
<trkpt lat="46.1235200" lon="10.5017210">
	<ele>2210.80</ele>
	<time>2023-08-07T09:23:47.000Z</time>
</trkpt>
<trkpt lat="46.1235200" lon="10.5017210">
	<ele>2210.80</ele>
	<time>2023-08-07T09:23:48.000Z</time>
</trkpt>
<trkpt lat="46.1235200" lon="10.5017210">
	<ele>2210.80</ele>
	<time>2023-08-07T09:23:49.000Z</time>
</trkpt>
<trkpt lat="46.1235120" lon="10.5017230">
	<ele>2210.80</ele>
	<time>2023-08-07T09:23:50.000Z</time>
</trkpt>
<trkpt lat="46.1235040" lon="10.5017280">
	<ele>2210.80</ele>
	<time>2023-08-07T09:23:51.000Z</time>
</trkpt>
<trkpt lat="46.1234930" lon="10.5017310">
	<ele>2210.80</ele>
	<time>2023-08-07T09:23:52.000Z</time>
</trkpt>
<trkpt lat="46.1234850" lon="10.5017340">
	<ele>2210.80</ele>
	<time>2023-08-07T09:23:53.000Z</time>
</trkpt>
<trkpt lat="46.1234820" lon="10.5017300">
	<ele>2210.80</ele>
	<time>2023-08-07T09:23:54.000Z</time>
</trkpt>
<trkpt lat="46.1234760" lon="10.5017320">
	<ele>2210.80</ele>
	<time>2023-08-07T09:23:55.000Z</time>
</trkpt>
<trkpt lat="46.1234690" lon="10.5017330">
	<ele>2210.80</ele>
	<time>2023-08-07T09:23:56.000Z</time>
</trkpt>
<trkpt lat="46.1234690" lon="10.5017330">
	<ele>2210.80</ele>
	<time>2023-08-07T09:23:57.000Z</time>
</trkpt>
<trkpt lat="46.1234690" lon="10.5017330">
	<ele>2210.80</ele>
	<time>2023-08-07T09:23:58.000Z</time>
</trkpt>
<trkpt lat="46.1234690" lon="10.5017330">
	<ele>2210.80</ele>
	<time>2023-08-07T09:23:59.000Z</time>
</trkpt>
<trkpt lat="46.1234690" lon="10.5017330">
	<ele>2210.80</ele>
	<time>2023-08-07T09:24:00.000Z</time>
</trkpt>
<trkpt lat="46.1234690" lon="10.5017330">
	<ele>2210.80</ele>
	<time>2023-08-07T09:24:01.000Z</time>
</trkpt>
<trkpt lat="46.1234690" lon="10.5017330">
	<ele>2210.80</ele>
	<time>2023-08-07T09:24:02.000Z</time>
</trkpt>
<trkpt lat="46.1234630" lon="10.5017330">
	<ele>2210.80</ele>
	<time>2023-08-07T09:24:03.000Z</time>
</trkpt>
<trkpt lat="46.1234630" lon="10.5017330">
	<ele>2210.80</ele>
	<time>2023-08-07T09:24:04.000Z</time>
</trkpt>
<trkpt lat="46.1234630" lon="10.5017330">
	<ele>2210.80</ele>
	<time>2023-08-07T09:24:05.000Z</time>
</trkpt>
<trkpt lat="46.1234630" lon="10.5017330">
	<ele>2210.80</ele>
	<time>2023-08-07T09:24:06.000Z</time>
</trkpt>
<trkpt lat="46.1234630" lon="10.5017330">
	<ele>2210.80</ele>
	<time>2023-08-07T09:24:07.000Z</time>
</trkpt>
<trkpt lat="46.1234630" lon="10.5017330">
	<ele>2210.80</ele>
	<time>2023-08-07T09:24:08.000Z</time>
</trkpt>
<trkpt lat="46.1234630" lon="10.5017330">
	<ele>2210.80</ele>
	<time>2023-08-07T09:24:09.000Z</time>
</trkpt>
<trkpt lat="46.1234630" lon="10.5017330">
	<ele>2210.80</ele>
	<time>2023-08-07T09:24:10.000Z</time>
</trkpt>
<trkpt lat="46.1234630" lon="10.5017330">
	<ele>2210.80</ele>
	<time>2023-08-07T09:24:11.000Z</time>
</trkpt>
<trkpt lat="46.1234630" lon="10.5017330">
	<ele>2210.80</ele>
	<time>2023-08-07T09:24:12.000Z</time>
</trkpt>
<trkpt lat="46.1234630" lon="10.5017330">
	<ele>2210.80</ele>
	<time>2023-08-07T09:24:13.000Z</time>
</trkpt>
<trkpt lat="46.1234630" lon="10.5017330">
	<ele>2210.80</ele>
	<time>2023-08-07T09:24:14.000Z</time>
</trkpt>
<trkpt lat="46.1234630" lon="10.5017330">
	<ele>2210.80</ele>
	<time>2023-08-07T09:24:15.000Z</time>
</trkpt>
<trkpt lat="46.1234630" lon="10.5017330">
	<ele>2210.80</ele>
	<time>2023-08-07T09:24:16.000Z</time>
</trkpt>
<trkpt lat="46.1234630" lon="10.5017280">
	<ele>2210.80</ele>
	<time>2023-08-07T09:24:17.000Z</time>
</trkpt>
<trkpt lat="46.1234640" lon="10.5017260">
	<ele>2210.80</ele>
	<time>2023-08-07T09:24:18.000Z</time>
</trkpt>
<trkpt lat="46.1234660" lon="10.5017260">
	<ele>2210.80</ele>
	<time>2023-08-07T09:24:19.000Z</time>
</trkpt>
<trkpt lat="46.1234690" lon="10.5017250">
	<ele>2210.80</ele>
	<time>2023-08-07T09:24:20.000Z</time>
</trkpt>
<trkpt lat="46.1234780" lon="10.5017250">
	<ele>2210.80</ele>
	<time>2023-08-07T09:24:21.000Z</time>
</trkpt>
<trkpt lat="46.1234790" lon="10.5017250">
	<ele>2210.80</ele>
	<time>2023-08-07T09:24:22.000Z</time>
</trkpt>
<trkpt lat="46.1234790" lon="10.5017250">
	<ele>2210.80</ele>
	<time>2023-08-07T09:24:23.000Z</time>
</trkpt>
<trkpt lat="46.1234800" lon="10.5017250">
	<ele>2210.80</ele>
	<time>2023-08-07T09:24:24.000Z</time>
</trkpt>
<trkpt lat="46.1234800" lon="10.5017250">
	<ele>2210.80</ele>
	<time>2023-08-07T09:24:25.000Z</time>
</trkpt>
<trkpt lat="46.1234800" lon="10.5017250">
	<ele>2210.80</ele>
	<time>2023-08-07T09:24:26.000Z</time>
</trkpt>
<trkpt lat="46.1234810" lon="10.5017250">
	<ele>2210.80</ele>
	<time>2023-08-07T09:24:27.000Z</time>
</trkpt>
<trkpt lat="46.1234820" lon="10.5017250">
	<ele>2210.80</ele>
	<time>2023-08-07T09:24:28.000Z</time>
</trkpt>
<trkpt lat="46.1234820" lon="10.5017240">
	<ele>2210.80</ele>
	<time>2023-08-07T09:24:29.000Z</time>
</trkpt>
<trkpt lat="46.1234820" lon="10.5017240">
	<ele>2210.80</ele>
	<time>2023-08-07T09:24:30.000Z</time>
</trkpt>
<trkpt lat="46.1234830" lon="10.5017230">
	<ele>2210.80</ele>
	<time>2023-08-07T09:24:31.000Z</time>
</trkpt>
<trkpt lat="46.1234830" lon="10.5017230">
	<ele>2210.80</ele>
	<time>2023-08-07T09:24:32.000Z</time>
</trkpt>
<trkpt lat="46.1234840" lon="10.5017230">
	<ele>2210.80</ele>
	<time>2023-08-07T09:24:33.000Z</time>
</trkpt>
<trkpt lat="46.1234850" lon="10.5017230">
	<ele>2210.80</ele>
	<time>2023-08-07T09:24:34.000Z</time>
</trkpt>
<trkpt lat="46.1234850" lon="10.5017230">
	<ele>2210.80</ele>
	<time>2023-08-07T09:24:35.000Z</time>
</trkpt>
<trkpt lat="46.1234860" lon="10.5017230">
	<ele>2210.80</ele>
	<time>2023-08-07T09:24:36.000Z</time>
</trkpt>
<trkpt lat="46.1234860" lon="10.5017230">
	<ele>2210.80</ele>
	<time>2023-08-07T09:24:37.000Z</time>
</trkpt>
<trkpt lat="46.1234890" lon="10.5017230">
	<ele>2210.80</ele>
	<time>2023-08-07T09:24:38.000Z</time>
</trkpt>
<trkpt lat="46.1234890" lon="10.5017230">
	<ele>2210.80</ele>
	<time>2023-08-07T09:24:39.000Z</time>
</trkpt>
<trkpt lat="46.1234900" lon="10.5017230">
	<ele>2210.80</ele>
	<time>2023-08-07T09:24:40.000Z</time>
</trkpt>
<trkpt lat="46.1234900" lon="10.5017230">
	<ele>2210.80</ele>
	<time>2023-08-07T09:24:41.000Z</time>
</trkpt>
<trkpt lat="46.1234910" lon="10.5017240">
	<ele>2210.80</ele>
	<time>2023-08-07T09:24:42.000Z</time>
</trkpt>
<trkpt lat="46.1234910" lon="10.5017240">
	<ele>2210.80</ele>
	<time>2023-08-07T09:24:43.000Z</time>
</trkpt>
<trkpt lat="46.1234920" lon="10.5017250">
	<ele>2210.80</ele>
	<time>2023-08-07T09:24:44.000Z</time>
</trkpt>
<trkpt lat="46.1234930" lon="10.5017250">
	<ele>2210.80</ele>
	<time>2023-08-07T09:24:45.000Z</time>
</trkpt>
<trkpt lat="46.1234940" lon="10.5017260">
	<ele>2210.80</ele>
	<time>2023-08-07T09:24:46.000Z</time>
</trkpt>
<trkpt lat="46.1234950" lon="10.5017270">
	<ele>2210.80</ele>
	<time>2023-08-07T09:24:47.000Z</time>
</trkpt>
<trkpt lat="46.1234970" lon="10.5017270">
	<ele>2210.80</ele>
	<time>2023-08-07T09:24:48.000Z</time>
</trkpt>
<trkpt lat="46.1235000" lon="10.5017270">
	<ele>2210.80</ele>
	<time>2023-08-07T09:24:49.000Z</time>
</trkpt>
<trkpt lat="46.1235010" lon="10.5017270">
	<ele>2210.80</ele>
	<time>2023-08-07T09:24:50.000Z</time>
</trkpt>
<trkpt lat="46.1235020" lon="10.5017270">
	<ele>2210.80</ele>
	<time>2023-08-07T09:24:51.000Z</time>
</trkpt>
<trkpt lat="46.1235020" lon="10.5017270">
	<ele>2210.80</ele>
	<time>2023-08-07T09:24:52.000Z</time>
</trkpt>
<trkpt lat="46.1235020" lon="10.5017260">
	<ele>2210.80</ele>
	<time>2023-08-07T09:24:53.000Z</time>
</trkpt>
<trkpt lat="46.1235020" lon="10.5017260">
	<ele>2210.80</ele>
	<time>2023-08-07T09:24:54.000Z</time>
</trkpt>
<trkpt lat="46.1235030" lon="10.5017250">
	<ele>2210.80</ele>
	<time>2023-08-07T09:24:55.000Z</time>
</trkpt>
<trkpt lat="46.1235030" lon="10.5017250">
	<ele>2210.80</ele>
	<time>2023-08-07T09:24:56.000Z</time>
</trkpt>
<trkpt lat="46.1235040" lon="10.5017250">
	<ele>2210.80</ele>
	<time>2023-08-07T09:24:57.000Z</time>
</trkpt>
<trkpt lat="46.1235040" lon="10.5017250">
	<ele>2210.80</ele>
	<time>2023-08-07T09:24:58.000Z</time>
</trkpt>
<trkpt lat="46.1235050" lon="10.5017250">
	<ele>2210.80</ele>
	<time>2023-08-07T09:24:59.000Z</time>
</trkpt>
<trkpt lat="46.1235050" lon="10.5017250">
	<ele>2210.80</ele>
	<time>2023-08-07T09:25:00.000Z</time>
</trkpt>
<trkpt lat="46.1235050" lon="10.5017250">
	<ele>2210.80</ele>
	<time>2023-08-07T09:25:01.000Z</time>
</trkpt>
<trkpt lat="46.1235050" lon="10.5017250">
	<ele>2210.80</ele>
	<time>2023-08-07T09:25:02.000Z</time>
</trkpt>
<trkpt lat="46.1235050" lon="10.5017250">
	<ele>2210.80</ele>
	<time>2023-08-07T09:25:03.000Z</time>
</trkpt>
<trkpt lat="46.1235050" lon="10.5017250">
	<ele>2210.80</ele>
	<time>2023-08-07T09:25:04.000Z</time>
</trkpt>
<trkpt lat="46.1235050" lon="10.5017240">
	<ele>2210.80</ele>
	<time>2023-08-07T09:25:05.000Z</time>
</trkpt>
<trkpt lat="46.1235030" lon="10.5017210">
	<ele>2210.80</ele>
	<time>2023-08-07T09:25:06.000Z</time>
</trkpt>
<trkpt lat="46.1234990" lon="10.5017170">
	<ele>2210.80</ele>
	<time>2023-08-07T09:25:07.000Z</time>
</trkpt>
<trkpt lat="46.1234980" lon="10.5017160">
	<ele>2210.80</ele>
	<time>2023-08-07T09:25:08.000Z</time>
</trkpt>
<trkpt lat="46.1234950" lon="10.5017130">
	<ele>2210.80</ele>
	<time>2023-08-07T09:25:09.000Z</time>
</trkpt>
<trkpt lat="46.1234910" lon="10.5017070">
	<ele>2210.80</ele>
	<time>2023-08-07T09:25:10.000Z</time>
</trkpt>
<trkpt lat="46.1234830" lon="10.5017020">
	<ele>2210.80</ele>
	<time>2023-08-07T09:25:11.000Z</time>
</trkpt>
<trkpt lat="46.1234810" lon="10.5016960">
	<ele>2210.80</ele>
	<time>2023-08-07T09:25:12.000Z</time>
</trkpt>
<trkpt lat="46.1234870" lon="10.5017030">
	<ele>2210.80</ele>
	<time>2023-08-07T09:25:13.000Z</time>
</trkpt>
<trkpt lat="46.1234920" lon="10.5017020">
	<ele>2210.80</ele>
	<time>2023-08-07T09:25:14.000Z</time>
</trkpt>
<trkpt lat="46.1234970" lon="10.5017010">
	<ele>2210.80</ele>
	<time>2023-08-07T09:25:15.000Z</time>
</trkpt>
<trkpt lat="46.1235000" lon="10.5017040">
	<ele>2210.80</ele>
	<time>2023-08-07T09:25:16.000Z</time>
</trkpt>
<trkpt lat="46.1235060" lon="10.5017090">
	<ele>2210.80</ele>
	<time>2023-08-07T09:25:17.000Z</time>
</trkpt>
<trkpt lat="46.1235050" lon="10.5017070">
	<ele>2210.80</ele>
	<time>2023-08-07T09:25:18.000Z</time>
</trkpt>
<trkpt lat="46.1235060" lon="10.5017060">
	<ele>2210.80</ele>
	<time>2023-08-07T09:25:19.000Z</time>
</trkpt>
<trkpt lat="46.1235060" lon="10.5017060">
	<ele>2210.80</ele>
	<time>2023-08-07T09:25:20.000Z</time>
</trkpt>
<trkpt lat="46.1235070" lon="10.5017080">
	<ele>2210.80</ele>
	<time>2023-08-07T09:25:21.000Z</time>
</trkpt>
<trkpt lat="46.1235070" lon="10.5017080">
	<ele>2210.80</ele>
	<time>2023-08-07T09:25:22.000Z</time>
</trkpt>
<trkpt lat="46.1235070" lon="10.5017080">
	<ele>2210.80</ele>
	<time>2023-08-07T09:25:23.000Z</time>
</trkpt>
<trkpt lat="46.1235070" lon="10.5017080">
	<ele>2210.80</ele>
	<time>2023-08-07T09:25:24.000Z</time>
</trkpt>
<trkpt lat="46.1235070" lon="10.5017080">
	<ele>2210.80</ele>
	<time>2023-08-07T09:25:25.000Z</time>
</trkpt>
<trkpt lat="46.1235070" lon="10.5017080">
	<ele>2210.80</ele>
	<time>2023-08-07T09:25:26.000Z</time>
</trkpt>
<trkpt lat="46.1235070" lon="10.5017080">
	<ele>2210.80</ele>
	<time>2023-08-07T09:25:27.000Z</time>
</trkpt>
<trkpt lat="46.1235070" lon="10.5017080">
	<ele>2210.80</ele>
	<time>2023-08-07T09:25:28.000Z</time>
</trkpt>
<trkpt lat="46.1235070" lon="10.5017080">
	<ele>2210.80</ele>
	<time>2023-08-07T09:25:29.000Z</time>
</trkpt>
<trkpt lat="46.1235070" lon="10.5017080">
	<ele>2210.80</ele>
	<time>2023-08-07T09:25:30.000Z</time>
</trkpt>
<trkpt lat="46.1235070" lon="10.5017080">
	<ele>2210.80</ele>
	<time>2023-08-07T09:25:31.000Z</time>
</trkpt>
<trkpt lat="46.1235070" lon="10.5017080">
	<ele>2210.80</ele>
	<time>2023-08-07T09:25:32.000Z</time>
</trkpt>
<trkpt lat="46.1235070" lon="10.5017080">
	<ele>2210.80</ele>
	<time>2023-08-07T09:25:33.000Z</time>
</trkpt>
<trkpt lat="46.1235070" lon="10.5017080">
	<ele>2210.80</ele>
	<time>2023-08-07T09:25:34.000Z</time>
</trkpt>
<trkpt lat="46.1235070" lon="10.5017080">
	<ele>2210.80</ele>
	<time>2023-08-07T09:25:35.000Z</time>
</trkpt>
<trkpt lat="46.1235070" lon="10.5017080">
	<ele>2210.80</ele>
	<time>2023-08-07T09:25:36.000Z</time>
</trkpt>
<trkpt lat="46.1235070" lon="10.5017080">
	<ele>2210.80</ele>
	<time>2023-08-07T09:25:37.000Z</time>
</trkpt>
<trkpt lat="46.1235070" lon="10.5017080">
	<ele>2210.80</ele>
	<time>2023-08-07T09:25:38.000Z</time>
</trkpt>
<trkpt lat="46.1235070" lon="10.5017080">
	<ele>2210.80</ele>
	<time>2023-08-07T09:25:39.000Z</time>
</trkpt>
<trkpt lat="46.1235070" lon="10.5017080">
	<ele>2210.80</ele>
	<time>2023-08-07T09:25:40.000Z</time>
</trkpt>
<trkpt lat="46.1235070" lon="10.5017070">
	<ele>2210.80</ele>
	<time>2023-08-07T09:25:41.000Z</time>
</trkpt>
<trkpt lat="46.1235050" lon="10.5017080">
	<ele>2210.80</ele>
	<time>2023-08-07T09:25:42.000Z</time>
</trkpt>
<trkpt lat="46.1235130" lon="10.5017250">
	<ele>2210.80</ele>
	<time>2023-08-07T09:25:43.000Z</time>
</trkpt>
<trkpt lat="46.1235110" lon="10.5017290">
	<ele>2210.80</ele>
	<time>2023-08-07T09:25:44.000Z</time>
</trkpt>
<trkpt lat="46.1235060" lon="10.5017360">
	<ele>2210.80</ele>
	<time>2023-08-07T09:25:45.000Z</time>
</trkpt>
<trkpt lat="46.1235180" lon="10.5017570">
	<ele>2210.80</ele>
	<time>2023-08-07T09:25:46.000Z</time>
</trkpt>
<trkpt lat="46.1235230" lon="10.5017650">
	<ele>2210.80</ele>
	<time>2023-08-07T09:25:47.000Z</time>
</trkpt>
<trkpt lat="46.1235200" lon="10.5017650">
	<ele>2210.80</ele>
	<time>2023-08-07T09:25:48.000Z</time>
</trkpt>
<trkpt lat="46.1235170" lon="10.5017650">
	<ele>2210.80</ele>
	<time>2023-08-07T09:25:49.000Z</time>
</trkpt>
<trkpt lat="46.1235130" lon="10.5017640">
	<ele>2210.80</ele>
	<time>2023-08-07T09:25:50.000Z</time>
</trkpt>
<trkpt lat="46.1235150" lon="10.5017690">
	<ele>2210.80</ele>
	<time>2023-08-07T09:25:51.000Z</time>
</trkpt>
<trkpt lat="46.1235210" lon="10.5017720">
	<ele>2210.80</ele>
	<time>2023-08-07T09:25:52.000Z</time>
</trkpt>
<trkpt lat="46.1235230" lon="10.5017720">
	<ele>2210.80</ele>
	<time>2023-08-07T09:25:53.000Z</time>
</trkpt>
<trkpt lat="46.1235260" lon="10.5017720">
	<ele>2210.80</ele>
	<time>2023-08-07T09:25:54.000Z</time>
</trkpt>
<trkpt lat="46.1235290" lon="10.5017740">
	<ele>2210.80</ele>
	<time>2023-08-07T09:25:55.000Z</time>
</trkpt>
<trkpt lat="46.1235310" lon="10.5017810">
	<ele>2210.80</ele>
	<time>2023-08-07T09:25:56.000Z</time>
</trkpt>
<trkpt lat="46.1235350" lon="10.5017860">
	<ele>2210.80</ele>
	<time>2023-08-07T09:25:57.000Z</time>
</trkpt>
<trkpt lat="46.1235400" lon="10.5017880">
	<ele>2210.80</ele>
	<time>2023-08-07T09:25:58.000Z</time>
</trkpt>
<trkpt lat="46.1235410" lon="10.5017920">
	<ele>2210.80</ele>
	<time>2023-08-07T09:25:59.000Z</time>
</trkpt>
<trkpt lat="46.1235400" lon="10.5017930">
	<ele>2210.80</ele>
	<time>2023-08-07T09:26:00.000Z</time>
</trkpt>
<trkpt lat="46.1235380" lon="10.5017950">
	<ele>2210.80</ele>
	<time>2023-08-07T09:26:01.000Z</time>
</trkpt>
<trkpt lat="46.1235370" lon="10.5017930">
	<ele>2210.80</ele>
	<time>2023-08-07T09:26:02.000Z</time>
</trkpt>
<trkpt lat="46.1235330" lon="10.5017960">
	<ele>2210.80</ele>
	<time>2023-08-07T09:26:03.000Z</time>
</trkpt>
<trkpt lat="46.1235320" lon="10.5018010">
	<ele>2210.80</ele>
	<time>2023-08-07T09:26:04.000Z</time>
</trkpt>
<trkpt lat="46.1235300" lon="10.5017980">
	<ele>2210.80</ele>
	<time>2023-08-07T09:26:05.000Z</time>
</trkpt>
<trkpt lat="46.1235300" lon="10.5017980">
	<ele>2210.80</ele>
	<time>2023-08-07T09:26:06.000Z</time>
</trkpt>
<trkpt lat="46.1235290" lon="10.5017980">
	<ele>2210.80</ele>
	<time>2023-08-07T09:26:07.000Z</time>
</trkpt>
<trkpt lat="46.1235280" lon="10.5017970">
	<ele>2210.80</ele>
	<time>2023-08-07T09:26:08.000Z</time>
</trkpt>
<trkpt lat="46.1235280" lon="10.5017970">
	<ele>2210.80</ele>
	<time>2023-08-07T09:26:09.000Z</time>
</trkpt>
<trkpt lat="46.1235280" lon="10.5017970">
	<ele>2210.80</ele>
	<time>2023-08-07T09:26:10.000Z</time>
</trkpt>
<trkpt lat="46.1235280" lon="10.5017970">
	<ele>2210.80</ele>
	<time>2023-08-07T09:26:11.000Z</time>
</trkpt>
<trkpt lat="46.1235280" lon="10.5017970">
	<ele>2210.80</ele>
	<time>2023-08-07T09:26:12.000Z</time>
</trkpt>
<trkpt lat="46.1235280" lon="10.5017970">
	<ele>2210.80</ele>
	<time>2023-08-07T09:26:13.000Z</time>
</trkpt>
<trkpt lat="46.1235280" lon="10.5017970">
	<ele>2210.80</ele>
	<time>2023-08-07T09:26:14.000Z</time>
</trkpt>
<trkpt lat="46.1235280" lon="10.5017970">
	<ele>2210.80</ele>
	<time>2023-08-07T09:26:15.000Z</time>
</trkpt>
<trkpt lat="46.1235280" lon="10.5017970">
	<ele>2210.80</ele>
	<time>2023-08-07T09:26:16.000Z</time>
</trkpt>
<trkpt lat="46.1235280" lon="10.5017970">
	<ele>2210.80</ele>
	<time>2023-08-07T09:26:17.000Z</time>
</trkpt>
<trkpt lat="46.1235280" lon="10.5017970">
	<ele>2210.80</ele>
	<time>2023-08-07T09:26:18.000Z</time>
</trkpt>
<trkpt lat="46.1235280" lon="10.5017970">
	<ele>2210.80</ele>
	<time>2023-08-07T09:26:19.000Z</time>
</trkpt>
<trkpt lat="46.1235280" lon="10.5017970">
	<ele>2210.80</ele>
	<time>2023-08-07T09:26:20.000Z</time>
</trkpt>
<trkpt lat="46.1235280" lon="10.5017970">
	<ele>2210.80</ele>
	<time>2023-08-07T09:26:21.000Z</time>
</trkpt>
<trkpt lat="46.1235280" lon="10.5017970">
	<ele>2210.80</ele>
	<time>2023-08-07T09:26:22.000Z</time>
</trkpt>
<trkpt lat="46.1235280" lon="10.5017970">
	<ele>2210.80</ele>
	<time>2023-08-07T09:26:23.000Z</time>
</trkpt>
<trkpt lat="46.1235290" lon="10.5017970">
	<ele>2210.80</ele>
	<time>2023-08-07T09:26:24.000Z</time>
</trkpt>
<trkpt lat="46.1235290" lon="10.5017970">
	<ele>2210.80</ele>
	<time>2023-08-07T09:26:25.000Z</time>
</trkpt>
<trkpt lat="46.1235290" lon="10.5017970">
	<ele>2210.80</ele>
	<time>2023-08-07T09:26:26.000Z</time>
</trkpt>
<trkpt lat="46.1235290" lon="10.5017970">
	<ele>2210.80</ele>
	<time>2023-08-07T09:26:27.000Z</time>
</trkpt>
<trkpt lat="46.1235300" lon="10.5017960">
	<ele>2210.80</ele>
	<time>2023-08-07T09:26:28.000Z</time>
</trkpt>
<trkpt lat="46.1235300" lon="10.5017960">
	<ele>2210.80</ele>
	<time>2023-08-07T09:26:29.000Z</time>
</trkpt>
<trkpt lat="46.1235300" lon="10.5017960">
	<ele>2210.80</ele>
	<time>2023-08-07T09:26:30.000Z</time>
</trkpt>
<trkpt lat="46.1235300" lon="10.5017960">
	<ele>2210.80</ele>
	<time>2023-08-07T09:26:31.000Z</time>
</trkpt>
<trkpt lat="46.1235300" lon="10.5017960">
	<ele>2210.80</ele>
	<time>2023-08-07T09:26:32.000Z</time>
</trkpt>
<trkpt lat="46.1235270" lon="10.5017950">
	<ele>2210.80</ele>
	<time>2023-08-07T09:26:33.000Z</time>
</trkpt>
<trkpt lat="46.1235140" lon="10.5017830">
	<ele>2210.80</ele>
	<time>2023-08-07T09:26:34.000Z</time>
</trkpt>
<trkpt lat="46.1235080" lon="10.5017820">
	<ele>2210.80</ele>
	<time>2023-08-07T09:26:35.000Z</time>
</trkpt>
<trkpt lat="46.1235060" lon="10.5017830">
	<ele>2210.80</ele>
	<time>2023-08-07T09:26:36.000Z</time>
</trkpt>
<trkpt lat="46.1234990" lon="10.5017670">
	<ele>2210.80</ele>
	<time>2023-08-07T09:26:37.000Z</time>
</trkpt>
<trkpt lat="46.1234850" lon="10.5017570">
	<ele>2210.80</ele>
	<time>2023-08-07T09:26:38.000Z</time>
</trkpt>
<trkpt lat="46.1234820" lon="10.5017550">
	<ele>2210.80</ele>
	<time>2023-08-07T09:26:39.000Z</time>
</trkpt>
<trkpt lat="46.1234790" lon="10.5017540">
	<ele>2210.80</ele>
	<time>2023-08-07T09:26:40.000Z</time>
</trkpt>
<trkpt lat="46.1234740" lon="10.5017510">
	<ele>2210.80</ele>
	<time>2023-08-07T09:26:41.000Z</time>
</trkpt>
<trkpt lat="46.1234720" lon="10.5017460">
	<ele>2210.80</ele>
	<time>2023-08-07T09:26:42.000Z</time>
</trkpt>
<trkpt lat="46.1234820" lon="10.5017500">
	<ele>2210.80</ele>
	<time>2023-08-07T09:26:43.000Z</time>
</trkpt>
<trkpt lat="46.1234920" lon="10.5017710">
	<ele>2210.80</ele>
	<time>2023-08-07T09:26:44.000Z</time>
</trkpt>
<trkpt lat="46.1234980" lon="10.5017780">
	<ele>2210.80</ele>
	<time>2023-08-07T09:26:45.000Z</time>
</trkpt>
<trkpt lat="46.1234970" lon="10.5017810">
	<ele>2210.80</ele>
	<time>2023-08-07T09:26:46.000Z</time>
</trkpt>
<trkpt lat="46.1234970" lon="10.5017840">
	<ele>2210.80</ele>
	<time>2023-08-07T09:26:47.000Z</time>
</trkpt>
<trkpt lat="46.1234980" lon="10.5017900">
	<ele>2210.80</ele>
	<time>2023-08-07T09:26:48.000Z</time>
</trkpt>
<trkpt lat="46.1234990" lon="10.5017930">
	<ele>2210.80</ele>
	<time>2023-08-07T09:26:49.000Z</time>
</trkpt>
<trkpt lat="46.1234990" lon="10.5017930">
	<ele>2210.80</ele>
	<time>2023-08-07T09:26:50.000Z</time>
</trkpt>
<trkpt lat="46.1234990" lon="10.5017930">
	<ele>2210.80</ele>
	<time>2023-08-07T09:26:51.000Z</time>
</trkpt>
<trkpt lat="46.1234990" lon="10.5017930">
	<ele>2210.80</ele>
	<time>2023-08-07T09:26:52.000Z</time>
</trkpt>
<trkpt lat="46.1234990" lon="10.5017930">
	<ele>2210.80</ele>
	<time>2023-08-07T09:26:53.000Z</time>
</trkpt>
<trkpt lat="46.1234990" lon="10.5017930">
	<ele>2210.80</ele>
	<time>2023-08-07T09:26:54.000Z</time>
</trkpt>
<trkpt lat="46.1234990" lon="10.5017930">
	<ele>2210.80</ele>
	<time>2023-08-07T09:26:55.000Z</time>
</trkpt>
<trkpt lat="46.1234990" lon="10.5017930">
	<ele>2210.80</ele>
	<time>2023-08-07T09:26:56.000Z</time>
</trkpt>
<trkpt lat="46.1234990" lon="10.5017930">
	<ele>2210.80</ele>
	<time>2023-08-07T09:26:57.000Z</time>
</trkpt>
<trkpt lat="46.1234990" lon="10.5017930">
	<ele>2210.80</ele>
	<time>2023-08-07T09:26:58.000Z</time>
</trkpt>
<trkpt lat="46.1234990" lon="10.5017930">
	<ele>2210.80</ele>
	<time>2023-08-07T09:26:59.000Z</time>
</trkpt>
<trkpt lat="46.1234990" lon="10.5017930">
	<ele>2210.80</ele>
	<time>2023-08-07T09:27:00.000Z</time>
</trkpt>
<trkpt lat="46.1234980" lon="10.5017930">
	<ele>2210.80</ele>
	<time>2023-08-07T09:27:01.000Z</time>
</trkpt>
<trkpt lat="46.1234980" lon="10.5017930">
	<ele>2210.80</ele>
	<time>2023-08-07T09:27:02.000Z</time>
</trkpt>
<trkpt lat="46.1234980" lon="10.5017930">
	<ele>2210.80</ele>
	<time>2023-08-07T09:27:03.000Z</time>
</trkpt>
<trkpt lat="46.1234970" lon="10.5017930">
	<ele>2210.80</ele>
	<time>2023-08-07T09:27:04.000Z</time>
</trkpt>
<trkpt lat="46.1234970" lon="10.5017930">
	<ele>2210.80</ele>
	<time>2023-08-07T09:27:05.000Z</time>
</trkpt>
<trkpt lat="46.1234970" lon="10.5017930">
	<ele>2210.80</ele>
	<time>2023-08-07T09:27:06.000Z</time>
</trkpt>
<trkpt lat="46.1234970" lon="10.5017930">
	<ele>2210.80</ele>
	<time>2023-08-07T09:27:07.000Z</time>
</trkpt>
<trkpt lat="46.1234960" lon="10.5017930">
	<ele>2210.80</ele>
	<time>2023-08-07T09:27:08.000Z</time>
</trkpt>
<trkpt lat="46.1234960" lon="10.5017930">
	<ele>2210.80</ele>
	<time>2023-08-07T09:27:09.000Z</time>
</trkpt>
<trkpt lat="46.1234960" lon="10.5017930">
	<ele>2210.80</ele>
	<time>2023-08-07T09:27:10.000Z</time>
</trkpt>
<trkpt lat="46.1234960" lon="10.5017930">
	<ele>2210.80</ele>
	<time>2023-08-07T09:27:11.000Z</time>
</trkpt>
<trkpt lat="46.1234960" lon="10.5017930">
	<ele>2210.80</ele>
	<time>2023-08-07T09:27:12.000Z</time>
</trkpt>
<trkpt lat="46.1234960" lon="10.5017930">
	<ele>2210.80</ele>
	<time>2023-08-07T09:27:13.000Z</time>
</trkpt>
<trkpt lat="46.1234960" lon="10.5017930">
	<ele>2210.80</ele>
	<time>2023-08-07T09:27:14.000Z</time>
</trkpt>
<trkpt lat="46.1234960" lon="10.5017930">
	<ele>2210.80</ele>
	<time>2023-08-07T09:27:15.000Z</time>
</trkpt>
<trkpt lat="46.1234960" lon="10.5017930">
	<ele>2210.80</ele>
	<time>2023-08-07T09:27:16.000Z</time>
</trkpt>
<trkpt lat="46.1234960" lon="10.5017940">
	<ele>2210.80</ele>
	<time>2023-08-07T09:27:17.000Z</time>
</trkpt>
<trkpt lat="46.1234960" lon="10.5017940">
	<ele>2210.80</ele>
	<time>2023-08-07T09:27:18.000Z</time>
</trkpt>
<trkpt lat="46.1234960" lon="10.5017950">
	<ele>2210.80</ele>
	<time>2023-08-07T09:27:19.000Z</time>
</trkpt>
<trkpt lat="46.1234980" lon="10.5017970">
	<ele>2210.80</ele>
	<time>2023-08-07T09:27:20.000Z</time>
</trkpt>
<trkpt lat="46.1235040" lon="10.5018040">
	<ele>2210.80</ele>
	<time>2023-08-07T09:27:21.000Z</time>
</trkpt>
<trkpt lat="46.1235060" lon="10.5018110">
	<ele>2210.80</ele>
	<time>2023-08-07T09:27:22.000Z</time>
</trkpt>
<trkpt lat="46.1235060" lon="10.5018140">
	<ele>2210.80</ele>
	<time>2023-08-07T09:27:23.000Z</time>
</trkpt>
<trkpt lat="46.1235070" lon="10.5018150">
	<ele>2210.80</ele>
	<time>2023-08-07T09:27:24.000Z</time>
</trkpt>
<trkpt lat="46.1235070" lon="10.5018160">
	<ele>2210.80</ele>
	<time>2023-08-07T09:27:25.000Z</time>
</trkpt>
<trkpt lat="46.1235100" lon="10.5018180">
	<ele>2210.80</ele>
	<time>2023-08-07T09:27:26.000Z</time>
</trkpt>
<trkpt lat="46.1235130" lon="10.5018230">
	<ele>2210.80</ele>
	<time>2023-08-07T09:27:27.000Z</time>
</trkpt>
<trkpt lat="46.1235180" lon="10.5018280">
	<ele>2210.80</ele>
	<time>2023-08-07T09:27:28.000Z</time>
</trkpt>
<trkpt lat="46.1235180" lon="10.5018320">
	<ele>2210.80</ele>
	<time>2023-08-07T09:27:29.000Z</time>
</trkpt>
<trkpt lat="46.1235170" lon="10.5018300">
	<ele>2210.80</ele>
	<time>2023-08-07T09:27:30.000Z</time>
</trkpt>
<trkpt lat="46.1235150" lon="10.5018280">
	<ele>2210.80</ele>
	<time>2023-08-07T09:27:31.000Z</time>
</trkpt>
<trkpt lat="46.1235190" lon="10.5018310">
	<ele>2210.80</ele>
	<time>2023-08-07T09:27:32.000Z</time>
</trkpt>
<trkpt lat="46.1235210" lon="10.5018360">
	<ele>2210.80</ele>
	<time>2023-08-07T09:27:33.000Z</time>
</trkpt>
<trkpt lat="46.1235240" lon="10.5018430">
	<ele>2210.80</ele>
	<time>2023-08-07T09:27:34.000Z</time>
</trkpt>
<trkpt lat="46.1235250" lon="10.5018500">
	<ele>2210.80</ele>
	<time>2023-08-07T09:27:35.000Z</time>
</trkpt>
<trkpt lat="46.1235280" lon="10.5018560">
	<ele>2210.80</ele>
	<time>2023-08-07T09:27:36.000Z</time>
</trkpt>
<trkpt lat="46.1235250" lon="10.5018550">
	<ele>2210.80</ele>
	<time>2023-08-07T09:27:37.000Z</time>
</trkpt>
<trkpt lat="46.1235200" lon="10.5018500">
	<ele>2210.80</ele>
	<time>2023-08-07T09:27:38.000Z</time>
</trkpt>
<trkpt lat="46.1235120" lon="10.5018390">
	<ele>2210.80</ele>
	<time>2023-08-07T09:27:39.000Z</time>
</trkpt>
<trkpt lat="46.1235160" lon="10.5018410">
	<ele>2210.80</ele>
	<time>2023-08-07T09:27:40.000Z</time>
</trkpt>
<trkpt lat="46.1235190" lon="10.5018430">
	<ele>2210.80</ele>
	<time>2023-08-07T09:27:41.000Z</time>
</trkpt>
<trkpt lat="46.1235220" lon="10.5018460">
	<ele>2210.80</ele>
	<time>2023-08-07T09:27:42.000Z</time>
</trkpt>
<trkpt lat="46.1235190" lon="10.5018400">
	<ele>2210.80</ele>
	<time>2023-08-07T09:27:43.000Z</time>
</trkpt>
<trkpt lat="46.1235180" lon="10.5018380">
	<ele>2210.80</ele>
	<time>2023-08-07T09:27:44.000Z</time>
</trkpt>
<trkpt lat="46.1235130" lon="10.5018290">
	<ele>2210.80</ele>
	<time>2023-08-07T09:27:45.000Z</time>
</trkpt>
<trkpt lat="46.1235080" lon="10.5018240">
	<ele>2210.80</ele>
	<time>2023-08-07T09:27:46.000Z</time>
</trkpt>
<trkpt lat="46.1235090" lon="10.5018230">
	<ele>2210.80</ele>
	<time>2023-08-07T09:27:47.000Z</time>
</trkpt>
<trkpt lat="46.1235080" lon="10.5018150">
	<ele>2210.80</ele>
	<time>2023-08-07T09:27:48.000Z</time>
</trkpt>
<trkpt lat="46.1235080" lon="10.5018070">
	<ele>2210.80</ele>
	<time>2023-08-07T09:27:49.000Z</time>
</trkpt>
<trkpt lat="46.1235100" lon="10.5018000">
	<ele>2210.80</ele>
	<time>2023-08-07T09:27:50.000Z</time>
</trkpt>
<trkpt lat="46.1235110" lon="10.5017940">
	<ele>2210.80</ele>
	<time>2023-08-07T09:27:51.000Z</time>
</trkpt>
<trkpt lat="46.1235150" lon="10.5017890">
	<ele>2210.80</ele>
	<time>2023-08-07T09:27:52.000Z</time>
</trkpt>
<trkpt lat="46.1235170" lon="10.5017780">
	<ele>2210.80</ele>
	<time>2023-08-07T09:27:53.000Z</time>
</trkpt>
<trkpt lat="46.1235160" lon="10.5017720">
	<ele>2210.80</ele>
	<time>2023-08-07T09:27:54.000Z</time>
</trkpt>
<trkpt lat="46.1235180" lon="10.5017740">
	<ele>2210.80</ele>
	<time>2023-08-07T09:27:55.000Z</time>
</trkpt>
<trkpt lat="46.1235190" lon="10.5017750">
	<ele>2210.80</ele>
	<time>2023-08-07T09:27:56.000Z</time>
</trkpt>
<trkpt lat="46.1235150" lon="10.5017590">
	<ele>2210.80</ele>
	<time>2023-08-07T09:27:57.000Z</time>
</trkpt>
<trkpt lat="46.1235170" lon="10.5017410">
	<ele>2210.80</ele>
	<time>2023-08-07T09:27:58.000Z</time>
</trkpt>
<trkpt lat="46.1235160" lon="10.5017470">
	<ele>2210.80</ele>
	<time>2023-08-07T09:27:59.000Z</time>
</trkpt>
<trkpt lat="46.1235120" lon="10.5017370">
	<ele>2210.80</ele>
	<time>2023-08-07T09:28:00.000Z</time>
</trkpt>
<trkpt lat="46.1235010" lon="10.5017120">
	<ele>2210.80</ele>
	<time>2023-08-07T09:28:01.000Z</time>
</trkpt>
<trkpt lat="46.1234990" lon="10.5017080">
	<ele>2210.80</ele>
	<time>2023-08-07T09:28:02.000Z</time>
</trkpt>
<trkpt lat="46.1234990" lon="10.5017030">
	<ele>2210.80</ele>
	<time>2023-08-07T09:28:03.000Z</time>
</trkpt>
<trkpt lat="46.1234990" lon="10.5017050">
	<ele>2210.80</ele>
	<time>2023-08-07T09:28:04.000Z</time>
</trkpt>
<trkpt lat="46.1235000" lon="10.5017080">
	<ele>2210.80</ele>
	<time>2023-08-07T09:28:05.000Z</time>
</trkpt>
<trkpt lat="46.1235050" lon="10.5017080">
	<ele>2210.80</ele>
	<time>2023-08-07T09:28:06.000Z</time>
</trkpt>
<trkpt lat="46.1235050" lon="10.5017040">
	<ele>2210.80</ele>
	<time>2023-08-07T09:28:07.000Z</time>
</trkpt>
<trkpt lat="46.1235030" lon="10.5016980">
	<ele>2210.80</ele>
	<time>2023-08-07T09:28:08.000Z</time>
</trkpt>
<trkpt lat="46.1235020" lon="10.5016950">
	<ele>2210.80</ele>
	<time>2023-08-07T09:28:09.000Z</time>
</trkpt>
<trkpt lat="46.1235060" lon="10.5016970">
	<ele>2210.80</ele>
	<time>2023-08-07T09:28:10.000Z</time>
</trkpt>
<trkpt lat="46.1235140" lon="10.5016990">
	<ele>2210.80</ele>
	<time>2023-08-07T09:28:11.000Z</time>
</trkpt>
<trkpt lat="46.1235100" lon="10.5016850">
	<ele>2210.80</ele>
	<time>2023-08-07T09:28:12.000Z</time>
</trkpt>
<trkpt lat="46.1234980" lon="10.5016500">
	<ele>2210.80</ele>
	<time>2023-08-07T09:28:13.000Z</time>
</trkpt>
<trkpt lat="46.1234970" lon="10.5016430">
	<ele>2210.80</ele>
	<time>2023-08-07T09:28:14.000Z</time>
</trkpt>
<trkpt lat="46.1235030" lon="10.5016530">
	<ele>2210.80</ele>
	<time>2023-08-07T09:28:15.000Z</time>
</trkpt>
<trkpt lat="46.1235140" lon="10.5016770">
	<ele>2210.80</ele>
	<time>2023-08-07T09:28:16.000Z</time>
</trkpt>
<trkpt lat="46.1235270" lon="10.5016950">
	<ele>2210.80</ele>
	<time>2023-08-07T09:28:17.000Z</time>
</trkpt>
<trkpt lat="46.1235410" lon="10.5017140">
	<ele>2210.80</ele>
	<time>2023-08-07T09:28:18.000Z</time>
</trkpt>
<trkpt lat="46.1235580" lon="10.5017430">
	<ele>2210.80</ele>
	<time>2023-08-07T09:28:19.000Z</time>
</trkpt>
<trkpt lat="46.1235660" lon="10.5017500">
	<ele>2210.80</ele>
	<time>2023-08-07T09:28:20.000Z</time>
</trkpt>
<trkpt lat="46.1235680" lon="10.5017490">
	<ele>2210.80</ele>
	<time>2023-08-07T09:28:21.000Z</time>
</trkpt>
<trkpt lat="46.1235650" lon="10.5017500">
	<ele>2210.80</ele>
	<time>2023-08-07T09:28:22.000Z</time>
</trkpt>
<trkpt lat="46.1235660" lon="10.5017510">
	<ele>2210.80</ele>
	<time>2023-08-07T09:28:23.000Z</time>
</trkpt>
<trkpt lat="46.1235660" lon="10.5017500">
	<ele>2210.80</ele>
	<time>2023-08-07T09:28:24.000Z</time>
</trkpt>
<trkpt lat="46.1235660" lon="10.5017510">
	<ele>2210.80</ele>
	<time>2023-08-07T09:28:25.000Z</time>
</trkpt>
<trkpt lat="46.1235630" lon="10.5017340">
	<ele>2210.80</ele>
	<time>2023-08-07T09:28:26.000Z</time>
</trkpt>
<trkpt lat="46.1235690" lon="10.5017350">
	<ele>2210.80</ele>
	<time>2023-08-07T09:28:27.000Z</time>
</trkpt>
<trkpt lat="46.1235680" lon="10.5017330">
	<ele>2210.80</ele>
	<time>2023-08-07T09:28:28.000Z</time>
</trkpt>
<trkpt lat="46.1235720" lon="10.5017300">
	<ele>2210.80</ele>
	<time>2023-08-07T09:28:29.000Z</time>
</trkpt>
<trkpt lat="46.1235750" lon="10.5017290">
	<ele>2210.80</ele>
	<time>2023-08-07T09:28:30.000Z</time>
</trkpt>
<trkpt lat="46.1235870" lon="10.5017280">
	<ele>2210.80</ele>
	<time>2023-08-07T09:28:31.000Z</time>
</trkpt>
<trkpt lat="46.1235870" lon="10.5017290">
	<ele>2210.80</ele>
	<time>2023-08-07T09:28:32.000Z</time>
</trkpt>
<trkpt lat="46.1235880" lon="10.5017350">
	<ele>2210.80</ele>
	<time>2023-08-07T09:28:33.000Z</time>
</trkpt>
<trkpt lat="46.1235830" lon="10.5017160">
	<ele>2210.80</ele>
	<time>2023-08-07T09:28:34.000Z</time>
</trkpt>
<trkpt lat="46.1235810" lon="10.5017070">
	<ele>2210.80</ele>
	<time>2023-08-07T09:28:35.000Z</time>
</trkpt>
<trkpt lat="46.1235800" lon="10.5017050">
	<ele>2210.80</ele>
	<time>2023-08-07T09:28:36.000Z</time>
</trkpt>
<trkpt lat="46.1235830" lon="10.5017020">
	<ele>2210.80</ele>
	<time>2023-08-07T09:28:37.000Z</time>
</trkpt>
<trkpt lat="46.1235830" lon="10.5017010">
	<ele>2210.80</ele>
	<time>2023-08-07T09:28:38.000Z</time>
</trkpt>
<trkpt lat="46.1235880" lon="10.5017050">
	<ele>2210.80</ele>
	<time>2023-08-07T09:28:39.000Z</time>
</trkpt>
<trkpt lat="46.1235870" lon="10.5017080">
	<ele>2210.80</ele>
	<time>2023-08-07T09:28:40.000Z</time>
</trkpt>
<trkpt lat="46.1235810" lon="10.5017030">
	<ele>2210.80</ele>
	<time>2023-08-07T09:28:41.000Z</time>
</trkpt>
<trkpt lat="46.1235810" lon="10.5017010">
	<ele>2210.80</ele>
	<time>2023-08-07T09:28:42.000Z</time>
</trkpt>
<trkpt lat="46.1235810" lon="10.5017010">
	<ele>2210.80</ele>
	<time>2023-08-07T09:28:43.000Z</time>
</trkpt>
<trkpt lat="46.1235830" lon="10.5017090">
	<ele>2210.80</ele>
	<time>2023-08-07T09:28:44.000Z</time>
</trkpt>
<trkpt lat="46.1235880" lon="10.5017190">
	<ele>2210.80</ele>
	<time>2023-08-07T09:28:45.000Z</time>
</trkpt>
<trkpt lat="46.1235930" lon="10.5017310">
	<ele>2210.80</ele>
	<time>2023-08-07T09:28:46.000Z</time>
</trkpt>
<trkpt lat="46.1235950" lon="10.5017330">
	<ele>2210.80</ele>
	<time>2023-08-07T09:28:47.000Z</time>
</trkpt>
<trkpt lat="46.1236010" lon="10.5017390">
	<ele>2210.80</ele>
	<time>2023-08-07T09:28:48.000Z</time>
</trkpt>
<trkpt lat="46.1236120" lon="10.5017520">
	<ele>2210.80</ele>
	<time>2023-08-07T09:28:49.000Z</time>
</trkpt>
<trkpt lat="46.1236230" lon="10.5017660">
	<ele>2210.80</ele>
	<time>2023-08-07T09:28:50.000Z</time>
</trkpt>
<trkpt lat="46.1236280" lon="10.5017770">
	<ele>2210.80</ele>
	<time>2023-08-07T09:28:51.000Z</time>
</trkpt>
<trkpt lat="46.1236260" lon="10.5017690">
	<ele>2210.80</ele>
	<time>2023-08-07T09:28:52.000Z</time>
</trkpt>
<trkpt lat="46.1236400" lon="10.5017950">
	<ele>2210.80</ele>
	<time>2023-08-07T09:28:53.000Z</time>
</trkpt>
<trkpt lat="46.1236600" lon="10.5018410">
	<ele>2210.80</ele>
	<time>2023-08-07T09:28:54.000Z</time>
</trkpt>
<trkpt lat="46.1236670" lon="10.5018500">
	<ele>2210.80</ele>
	<time>2023-08-07T09:28:55.000Z</time>
</trkpt>
<trkpt lat="46.1236640" lon="10.5018530">
	<ele>2210.80</ele>
	<time>2023-08-07T09:28:56.000Z</time>
</trkpt>
<trkpt lat="46.1236830" lon="10.5018880">
	<ele>2210.80</ele>
	<time>2023-08-07T09:28:57.000Z</time>
</trkpt>
<trkpt lat="46.1236900" lon="10.5019040">
	<ele>2210.80</ele>
	<time>2023-08-07T09:28:58.000Z</time>
</trkpt>
<trkpt lat="46.1236840" lon="10.5019050">
	<ele>2210.80</ele>
	<time>2023-08-07T09:28:59.000Z</time>
</trkpt>
<trkpt lat="46.1236740" lon="10.5018540">
	<ele>2210.80</ele>
	<time>2023-08-07T09:29:00.000Z</time>
</trkpt>
<trkpt lat="46.1236740" lon="10.5018370">
	<ele>2210.80</ele>
	<time>2023-08-07T09:29:01.000Z</time>
</trkpt>
<trkpt lat="46.1236710" lon="10.5018180">
	<ele>2210.80</ele>
	<time>2023-08-07T09:29:02.000Z</time>
</trkpt>
<trkpt lat="46.1236580" lon="10.5017660">
	<ele>2210.80</ele>
	<time>2023-08-07T09:29:03.000Z</time>
</trkpt>
<trkpt lat="46.1236470" lon="10.5017270">
	<ele>2210.80</ele>
	<time>2023-08-07T09:29:04.000Z</time>
</trkpt>
<trkpt lat="46.1236470" lon="10.5017010">
	<ele>2210.80</ele>
	<time>2023-08-07T09:29:05.000Z</time>
</trkpt>
<trkpt lat="46.1236620" lon="10.5017040">
	<ele>2210.80</ele>
	<time>2023-08-07T09:29:06.000Z</time>
</trkpt>
<trkpt lat="46.1236720" lon="10.5017060">
	<ele>2210.80</ele>
	<time>2023-08-07T09:29:07.000Z</time>
</trkpt>
<trkpt lat="46.1236800" lon="10.5017010">
	<ele>2210.80</ele>
	<time>2023-08-07T09:29:08.000Z</time>
</trkpt>
<trkpt lat="46.1236740" lon="10.5016870">
	<ele>2210.80</ele>
	<time>2023-08-07T09:29:09.000Z</time>
</trkpt>
<trkpt lat="46.1236720" lon="10.5016780">
	<ele>2210.80</ele>
	<time>2023-08-07T09:29:10.000Z</time>
</trkpt>
<trkpt lat="46.1236710" lon="10.5016770">
	<ele>2210.80</ele>
	<time>2023-08-07T09:29:11.000Z</time>
</trkpt>
<trkpt lat="46.1236620" lon="10.5016700">
	<ele>2210.80</ele>
	<time>2023-08-07T09:29:12.000Z</time>
</trkpt>
<trkpt lat="46.1236610" lon="10.5016840">
	<ele>2214.20</ele>
	<time>2023-08-07T09:29:13.000Z</time>
</trkpt>
<trkpt lat="46.1236580" lon="10.5016880">
	<ele>2214.20</ele>
	<time>2023-08-07T09:29:14.000Z</time>
</trkpt>
<trkpt lat="46.1236560" lon="10.5016920">
	<ele>2214.20</ele>
	<time>2023-08-07T09:29:15.000Z</time>
</trkpt>
<trkpt lat="46.1236560" lon="10.5016900">
	<ele>2214.20</ele>
	<time>2023-08-07T09:29:16.000Z</time>
</trkpt>
<trkpt lat="46.1236590" lon="10.5016920">
	<ele>2214.40</ele>
	<time>2023-08-07T09:29:17.000Z</time>
</trkpt>
<trkpt lat="46.1236600" lon="10.5017040">
	<ele>2214.40</ele>
	<time>2023-08-07T09:29:18.000Z</time>
</trkpt>
<trkpt lat="46.1236600" lon="10.5017150">
	<ele>2214.40</ele>
	<time>2023-08-07T09:29:19.000Z</time>
</trkpt>
<trkpt lat="46.1236580" lon="10.5017350">
	<ele>2214.40</ele>
	<time>2023-08-07T09:29:20.000Z</time>
</trkpt>
<trkpt lat="46.1236560" lon="10.5017440">
	<ele>2214.40</ele>
	<time>2023-08-07T09:29:21.000Z</time>
</trkpt>
<trkpt lat="46.1236580" lon="10.5017490">
	<ele>2214.40</ele>
	<time>2023-08-07T09:29:22.000Z</time>
</trkpt>
<trkpt lat="46.1236650" lon="10.5017490">
	<ele>2214.40</ele>
	<time>2023-08-07T09:29:23.000Z</time>
</trkpt>
<trkpt lat="46.1236670" lon="10.5017490">
	<ele>2214.40</ele>
	<time>2023-08-07T09:29:24.000Z</time>
</trkpt>
<trkpt lat="46.1236680" lon="10.5017490">
	<ele>2214.40</ele>
	<time>2023-08-07T09:29:25.000Z</time>
</trkpt>
<trkpt lat="46.1236730" lon="10.5017470">
	<ele>2214.40</ele>
	<time>2023-08-07T09:29:26.000Z</time>
</trkpt>
<trkpt lat="46.1236720" lon="10.5017470">
	<ele>2214.40</ele>
	<time>2023-08-07T09:29:27.000Z</time>
</trkpt>
<trkpt lat="46.1236700" lon="10.5017480">
	<ele>2214.40</ele>
	<time>2023-08-07T09:29:28.000Z</time>
</trkpt>
<trkpt lat="46.1236740" lon="10.5017420">
	<ele>2214.40</ele>
	<time>2023-08-07T09:29:29.000Z</time>
</trkpt>
<trkpt lat="46.1236790" lon="10.5017350">
	<ele>2214.40</ele>
	<time>2023-08-07T09:29:30.000Z</time>
</trkpt>
<trkpt lat="46.1236860" lon="10.5017270">
	<ele>2214.40</ele>
	<time>2023-08-07T09:29:31.000Z</time>
</trkpt>
<trkpt lat="46.1236880" lon="10.5017210">
	<ele>2214.40</ele>
	<time>2023-08-07T09:29:32.000Z</time>
</trkpt>
<trkpt lat="46.1236830" lon="10.5017220">
	<ele>2214.40</ele>
	<time>2023-08-07T09:29:33.000Z</time>
</trkpt>
<trkpt lat="46.1236800" lon="10.5017260">
	<ele>2214.40</ele>
	<time>2023-08-07T09:29:34.000Z</time>
</trkpt>
<trkpt lat="46.1236870" lon="10.5017250">
	<ele>2214.40</ele>
	<time>2023-08-07T09:29:35.000Z</time>
</trkpt>
<trkpt lat="46.1236870" lon="10.5017270">
	<ele>2214.40</ele>
	<time>2023-08-07T09:29:36.000Z</time>
</trkpt>
<trkpt lat="46.1236890" lon="10.5017290">
	<ele>2214.40</ele>
	<time>2023-08-07T09:29:37.000Z</time>
</trkpt>
<trkpt lat="46.1236870" lon="10.5017230">
	<ele>2214.40</ele>
	<time>2023-08-07T09:29:38.000Z</time>
</trkpt>
<trkpt lat="46.1237000" lon="10.5017110">
	<ele>2214.40</ele>
	<time>2023-08-07T09:29:39.000Z</time>
</trkpt>
<trkpt lat="46.1237220" lon="10.5017100">
	<ele>2214.40</ele>
	<time>2023-08-07T09:29:40.000Z</time>
</trkpt>
<trkpt lat="46.1237340" lon="10.5017160">
	<ele>2214.40</ele>
	<time>2023-08-07T09:29:41.000Z</time>
</trkpt>
<trkpt lat="46.1237490" lon="10.5017240">
	<ele>2214.60</ele>
	<time>2023-08-07T09:29:42.000Z</time>
</trkpt>
<trkpt lat="46.1237520" lon="10.5017370">
	<ele>2214.60</ele>
	<time>2023-08-07T09:29:43.000Z</time>
</trkpt>
<trkpt lat="46.1237540" lon="10.5017500">
	<ele>2214.60</ele>
	<time>2023-08-07T09:29:44.000Z</time>
</trkpt>
<trkpt lat="46.1237560" lon="10.5017610">
	<ele>2214.60</ele>
	<time>2023-08-07T09:29:45.000Z</time>
</trkpt>
<trkpt lat="46.1237640" lon="10.5017770">
	<ele>2214.60</ele>
	<time>2023-08-07T09:29:46.000Z</time>
</trkpt>
<trkpt lat="46.1237690" lon="10.5017910">
	<ele>2214.60</ele>
	<time>2023-08-07T09:29:47.000Z</time>
</trkpt>
<trkpt lat="46.1237740" lon="10.5018070">
	<ele>2214.60</ele>
	<time>2023-08-07T09:29:48.000Z</time>
</trkpt>
<trkpt lat="46.1237790" lon="10.5018240">
	<ele>2214.40</ele>
	<time>2023-08-07T09:29:49.000Z</time>
</trkpt>
<trkpt lat="46.1237800" lon="10.5018390">
	<ele>2214.40</ele>
	<time>2023-08-07T09:29:50.000Z</time>
</trkpt>
<trkpt lat="46.1237820" lon="10.5018540">
	<ele>2214.20</ele>
	<time>2023-08-07T09:29:51.000Z</time>
</trkpt>
<trkpt lat="46.1237830" lon="10.5018660">
	<ele>2214.00</ele>
	<time>2023-08-07T09:29:52.000Z</time>
</trkpt>
<trkpt lat="46.1237890" lon="10.5018800">
	<ele>2214.00</ele>
	<time>2023-08-07T09:29:53.000Z</time>
</trkpt>
<trkpt lat="46.1237950" lon="10.5018910">
	<ele>2214.00</ele>
	<time>2023-08-07T09:29:54.000Z</time>
</trkpt>
<trkpt lat="46.1237990" lon="10.5019020">
	<ele>2214.00</ele>
	<time>2023-08-07T09:29:55.000Z</time>
</trkpt>
<trkpt lat="46.1238010" lon="10.5019080">
	<ele>2214.00</ele>
	<time>2023-08-07T09:29:56.000Z</time>
</trkpt>
<trkpt lat="46.1238080" lon="10.5019150">
	<ele>2214.00</ele>
	<time>2023-08-07T09:29:57.000Z</time>
</trkpt>
<trkpt lat="46.1238190" lon="10.5019200">
	<ele>2214.00</ele>
	<time>2023-08-07T09:29:58.000Z</time>
</trkpt>
<trkpt lat="46.1238240" lon="10.5019300">
	<ele>2214.00</ele>
	<time>2023-08-07T09:29:59.000Z</time>
</trkpt>
<trkpt lat="46.1238330" lon="10.5019430">
	<ele>2214.00</ele>
	<time>2023-08-07T09:30:00.000Z</time>
</trkpt>
<trkpt lat="46.1238450" lon="10.5019530">
	<ele>2214.00</ele>
	<time>2023-08-07T09:30:01.000Z</time>
</trkpt>
<trkpt lat="46.1238550" lon="10.5019570">
	<ele>2214.00</ele>
	<time>2023-08-07T09:30:02.000Z</time>
</trkpt>
<trkpt lat="46.1238620" lon="10.5019540">
	<ele>2214.00</ele>
	<time>2023-08-07T09:30:03.000Z</time>
</trkpt>
<trkpt lat="46.1238620" lon="10.5019490">
	<ele>2214.00</ele>
	<time>2023-08-07T09:30:04.000Z</time>
</trkpt>
<trkpt lat="46.1238600" lon="10.5019490">
	<ele>2214.00</ele>
	<time>2023-08-07T09:30:05.000Z</time>
</trkpt>
<trkpt lat="46.1238620" lon="10.5019540">
	<ele>2214.00</ele>
	<time>2023-08-07T09:30:06.000Z</time>
</trkpt>
<trkpt lat="46.1238630" lon="10.5019550">
	<ele>2214.00</ele>
	<time>2023-08-07T09:30:07.000Z</time>
</trkpt>
<trkpt lat="46.1238680" lon="10.5019590">
	<ele>2214.00</ele>
	<time>2023-08-07T09:30:08.000Z</time>
</trkpt>
<trkpt lat="46.1238680" lon="10.5019650">
	<ele>2214.20</ele>
	<time>2023-08-07T09:30:09.000Z</time>
</trkpt>
<trkpt lat="46.1238680" lon="10.5019640">
	<ele>2214.20</ele>
	<time>2023-08-07T09:30:10.000Z</time>
</trkpt>
<trkpt lat="46.1238720" lon="10.5019650">
	<ele>2214.20</ele>
	<time>2023-08-07T09:30:11.000Z</time>
</trkpt>
<trkpt lat="46.1238810" lon="10.5019620">
	<ele>2214.20</ele>
	<time>2023-08-07T09:30:12.000Z</time>
</trkpt>
<trkpt lat="46.1238900" lon="10.5019540">
	<ele>2214.20</ele>
	<time>2023-08-07T09:30:13.000Z</time>
</trkpt>
<trkpt lat="46.1238930" lon="10.5019500">
	<ele>2214.00</ele>
	<time>2023-08-07T09:30:14.000Z</time>
</trkpt>
<trkpt lat="46.1238930" lon="10.5019470">
	<ele>2214.00</ele>
	<time>2023-08-07T09:30:15.000Z</time>
</trkpt>
<trkpt lat="46.1238930" lon="10.5019470">
	<ele>2214.00</ele>
	<time>2023-08-07T09:30:16.000Z</time>
</trkpt>
<trkpt lat="46.1238930" lon="10.5019470">
	<ele>2214.00</ele>
	<time>2023-08-07T09:30:17.000Z</time>
</trkpt>
<trkpt lat="46.1238930" lon="10.5019470">
	<ele>2214.00</ele>
	<time>2023-08-07T09:30:18.000Z</time>
</trkpt>
<trkpt lat="46.1238930" lon="10.5019470">
	<ele>2214.00</ele>
	<time>2023-08-07T09:30:19.000Z</time>
</trkpt>
<trkpt lat="46.1238930" lon="10.5019470">
	<ele>2214.00</ele>
	<time>2023-08-07T09:30:20.000Z</time>
</trkpt>
<trkpt lat="46.1238930" lon="10.5019470">
	<ele>2214.00</ele>
	<time>2023-08-07T09:30:21.000Z</time>
</trkpt>
<trkpt lat="46.1238930" lon="10.5019470">
	<ele>2214.00</ele>
	<time>2023-08-07T09:30:22.000Z</time>
</trkpt>
<trkpt lat="46.1238930" lon="10.5019470">
	<ele>2214.00</ele>
	<time>2023-08-07T09:30:23.000Z</time>
</trkpt>
<trkpt lat="46.1238930" lon="10.5019470">
	<ele>2214.00</ele>
	<time>2023-08-07T09:30:24.000Z</time>
</trkpt>
<trkpt lat="46.1238930" lon="10.5019470">
	<ele>2214.00</ele>
	<time>2023-08-07T09:30:25.000Z</time>
</trkpt>
<trkpt lat="46.1238920" lon="10.5019470">
	<ele>2214.00</ele>
	<time>2023-08-07T09:30:26.000Z</time>
</trkpt>
<trkpt lat="46.1238910" lon="10.5019470">
	<ele>2214.00</ele>
	<time>2023-08-07T09:30:27.000Z</time>
</trkpt>
<trkpt lat="46.1238900" lon="10.5019470">
	<ele>2214.00</ele>
	<time>2023-08-07T09:30:28.000Z</time>
</trkpt>
<trkpt lat="46.1238900" lon="10.5019470">
	<ele>2214.00</ele>
	<time>2023-08-07T09:30:29.000Z</time>
</trkpt>
<trkpt lat="46.1238880" lon="10.5019470">
	<ele>2214.00</ele>
	<time>2023-08-07T09:30:30.000Z</time>
</trkpt>
<trkpt lat="46.1238850" lon="10.5019390">
	<ele>2214.00</ele>
	<time>2023-08-07T09:30:31.000Z</time>
</trkpt>
<trkpt lat="46.1238830" lon="10.5019370">
	<ele>2214.00</ele>
	<time>2023-08-07T09:30:32.000Z</time>
</trkpt>
<trkpt lat="46.1238810" lon="10.5019370">
	<ele>2214.00</ele>
	<time>2023-08-07T09:30:33.000Z</time>
</trkpt>
<trkpt lat="46.1238810" lon="10.5019340">
	<ele>2214.00</ele>
	<time>2023-08-07T09:30:34.000Z</time>
</trkpt>
<trkpt lat="46.1238740" lon="10.5019340">
	<ele>2214.00</ele>
	<time>2023-08-07T09:30:35.000Z</time>
</trkpt>
<trkpt lat="46.1238720" lon="10.5019340">
	<ele>2214.00</ele>
	<time>2023-08-07T09:30:36.000Z</time>
</trkpt>
<trkpt lat="46.1238720" lon="10.5019340">
	<ele>2214.00</ele>
	<time>2023-08-07T09:30:37.000Z</time>
</trkpt>
<trkpt lat="46.1238680" lon="10.5019360">
	<ele>2214.00</ele>
	<time>2023-08-07T09:30:38.000Z</time>
</trkpt>
<trkpt lat="46.1238630" lon="10.5019330">
	<ele>2214.00</ele>
	<time>2023-08-07T09:30:39.000Z</time>
</trkpt>
<trkpt lat="46.1238580" lon="10.5019360">
	<ele>2214.00</ele>
	<time>2023-08-07T09:30:40.000Z</time>
</trkpt>
<trkpt lat="46.1238510" lon="10.5019400">
	<ele>2214.00</ele>
	<time>2023-08-07T09:30:41.000Z</time>
</trkpt>
<trkpt lat="46.1238460" lon="10.5019450">
	<ele>2214.00</ele>
	<time>2023-08-07T09:30:42.000Z</time>
</trkpt>
<trkpt lat="46.1238430" lon="10.5019490">
	<ele>2214.00</ele>
	<time>2023-08-07T09:30:43.000Z</time>
</trkpt>
<trkpt lat="46.1238450" lon="10.5019500">
	<ele>2214.00</ele>
	<time>2023-08-07T09:30:44.000Z</time>
</trkpt>
<trkpt lat="46.1238410" lon="10.5019520">
	<ele>2214.00</ele>
	<time>2023-08-07T09:30:45.000Z</time>
</trkpt>
<trkpt lat="46.1238370" lon="10.5019530">
	<ele>2214.00</ele>
	<time>2023-08-07T09:30:46.000Z</time>
</trkpt>
<trkpt lat="46.1238360" lon="10.5019540">
	<ele>2214.00</ele>
	<time>2023-08-07T09:30:47.000Z</time>
</trkpt>
<trkpt lat="46.1238330" lon="10.5019620">
	<ele>2214.00</ele>
	<time>2023-08-07T09:30:48.000Z</time>
</trkpt>
<trkpt lat="46.1238290" lon="10.5019640">
	<ele>2214.00</ele>
	<time>2023-08-07T09:30:49.000Z</time>
</trkpt>
<trkpt lat="46.1238270" lon="10.5019630">
	<ele>2214.00</ele>
	<time>2023-08-07T09:30:50.000Z</time>
</trkpt>
<trkpt lat="46.1238270" lon="10.5019630">
	<ele>2214.00</ele>
	<time>2023-08-07T09:30:51.000Z</time>
</trkpt>
<trkpt lat="46.1238230" lon="10.5019620">
	<ele>2214.00</ele>
	<time>2023-08-07T09:30:52.000Z</time>
</trkpt>
<trkpt lat="46.1238220" lon="10.5019660">
	<ele>2214.00</ele>
	<time>2023-08-07T09:30:53.000Z</time>
</trkpt>
<trkpt lat="46.1238190" lon="10.5019640">
	<ele>2214.00</ele>
	<time>2023-08-07T09:30:54.000Z</time>
</trkpt>
<trkpt lat="46.1238190" lon="10.5019700">
	<ele>2214.00</ele>
	<time>2023-08-07T09:30:55.000Z</time>
</trkpt>
<trkpt lat="46.1238130" lon="10.5019780">
	<ele>2214.00</ele>
	<time>2023-08-07T09:30:56.000Z</time>
</trkpt>
<trkpt lat="46.1238150" lon="10.5019800">
	<ele>2214.00</ele>
	<time>2023-08-07T09:30:57.000Z</time>
</trkpt>
<trkpt lat="46.1238170" lon="10.5019830">
	<ele>2214.00</ele>
	<time>2023-08-07T09:30:58.000Z</time>
</trkpt>
<trkpt lat="46.1238180" lon="10.5019840">
	<ele>2214.00</ele>
	<time>2023-08-07T09:30:59.000Z</time>
</trkpt>
<trkpt lat="46.1238200" lon="10.5019830">
	<ele>2214.00</ele>
	<time>2023-08-07T09:31:00.000Z</time>
</trkpt>
<trkpt lat="46.1238230" lon="10.5019840">
	<ele>2214.00</ele>
	<time>2023-08-07T09:31:01.000Z</time>
</trkpt>
<trkpt lat="46.1238250" lon="10.5019870">
	<ele>2214.00</ele>
	<time>2023-08-07T09:31:02.000Z</time>
</trkpt>
<trkpt lat="46.1238230" lon="10.5019850">
	<ele>2214.00</ele>
	<time>2023-08-07T09:31:03.000Z</time>
</trkpt>
<trkpt lat="46.1238190" lon="10.5019800">
	<ele>2214.00</ele>
	<time>2023-08-07T09:31:04.000Z</time>
</trkpt>
<trkpt lat="46.1238170" lon="10.5019770">
	<ele>2214.00</ele>
	<time>2023-08-07T09:31:05.000Z</time>
</trkpt>
<trkpt lat="46.1238160" lon="10.5019760">
	<ele>2214.00</ele>
	<time>2023-08-07T09:31:06.000Z</time>
</trkpt>
<trkpt lat="46.1238150" lon="10.5019800">
	<ele>2214.00</ele>
	<time>2023-08-07T09:31:07.000Z</time>
</trkpt>
<trkpt lat="46.1238140" lon="10.5019830">
	<ele>2214.00</ele>
	<time>2023-08-07T09:31:08.000Z</time>
</trkpt>
<trkpt lat="46.1238130" lon="10.5019840">
	<ele>2214.00</ele>
	<time>2023-08-07T09:31:09.000Z</time>
</trkpt>
<trkpt lat="46.1238030" lon="10.5019860">
	<ele>2214.00</ele>
	<time>2023-08-07T09:31:10.000Z</time>
</trkpt>
<trkpt lat="46.1238050" lon="10.5019900">
	<ele>2214.00</ele>
	<time>2023-08-07T09:31:11.000Z</time>
</trkpt>
<trkpt lat="46.1238050" lon="10.5019940">
	<ele>2214.00</ele>
	<time>2023-08-07T09:31:12.000Z</time>
</trkpt>
<trkpt lat="46.1238060" lon="10.5019940">
	<ele>2214.00</ele>
	<time>2023-08-07T09:31:13.000Z</time>
</trkpt>
<trkpt lat="46.1238080" lon="10.5019970">
	<ele>2214.00</ele>
	<time>2023-08-07T09:31:14.000Z</time>
</trkpt>
<trkpt lat="46.1238100" lon="10.5019970">
	<ele>2214.00</ele>
	<time>2023-08-07T09:31:15.000Z</time>
</trkpt>
<trkpt lat="46.1238140" lon="10.5019980">
	<ele>2214.00</ele>
	<time>2023-08-07T09:31:16.000Z</time>
</trkpt>
<trkpt lat="46.1238200" lon="10.5019980">
	<ele>2214.00</ele>
	<time>2023-08-07T09:31:17.000Z</time>
</trkpt>
<trkpt lat="46.1238260" lon="10.5019990">
	<ele>2214.00</ele>
	<time>2023-08-07T09:31:18.000Z</time>
</trkpt>
<trkpt lat="46.1238240" lon="10.5019980">
	<ele>2214.00</ele>
	<time>2023-08-07T09:31:19.000Z</time>
</trkpt>
<trkpt lat="46.1238220" lon="10.5020010">
	<ele>2214.00</ele>
	<time>2023-08-07T09:31:20.000Z</time>
</trkpt>
<trkpt lat="46.1238180" lon="10.5020030">
	<ele>2214.00</ele>
	<time>2023-08-07T09:31:21.000Z</time>
</trkpt>
<trkpt lat="46.1238110" lon="10.5019990">
	<ele>2214.00</ele>
	<time>2023-08-07T09:31:22.000Z</time>
</trkpt>
<trkpt lat="46.1238090" lon="10.5019960">
	<ele>2214.00</ele>
	<time>2023-08-07T09:31:23.000Z</time>
</trkpt>
<trkpt lat="46.1238070" lon="10.5019900">
	<ele>2214.00</ele>
	<time>2023-08-07T09:31:24.000Z</time>
</trkpt>
<trkpt lat="46.1238070" lon="10.5019880">
	<ele>2214.00</ele>
	<time>2023-08-07T09:31:25.000Z</time>
</trkpt>
<trkpt lat="46.1238080" lon="10.5019870">
	<ele>2214.00</ele>
	<time>2023-08-07T09:31:26.000Z</time>
</trkpt>
<trkpt lat="46.1238090" lon="10.5019860">
	<ele>2214.00</ele>
	<time>2023-08-07T09:31:27.000Z</time>
</trkpt>
<trkpt lat="46.1238110" lon="10.5019860">
	<ele>2214.00</ele>
	<time>2023-08-07T09:31:28.000Z</time>
</trkpt>
<trkpt lat="46.1238120" lon="10.5019860">
	<ele>2214.00</ele>
	<time>2023-08-07T09:31:29.000Z</time>
</trkpt>
<trkpt lat="46.1238110" lon="10.5019880">
	<ele>2214.00</ele>
	<time>2023-08-07T09:31:30.000Z</time>
</trkpt>
<trkpt lat="46.1238140" lon="10.5019880">
	<ele>2214.00</ele>
	<time>2023-08-07T09:31:31.000Z</time>
</trkpt>
<trkpt lat="46.1238170" lon="10.5019900">
	<ele>2214.00</ele>
	<time>2023-08-07T09:31:32.000Z</time>
</trkpt>
<trkpt lat="46.1238170" lon="10.5019920">
	<ele>2214.00</ele>
	<time>2023-08-07T09:31:33.000Z</time>
</trkpt>
<trkpt lat="46.1238150" lon="10.5019900">
	<ele>2214.00</ele>
	<time>2023-08-07T09:31:34.000Z</time>
</trkpt>
<trkpt lat="46.1238150" lon="10.5019930">
	<ele>2214.00</ele>
	<time>2023-08-07T09:31:35.000Z</time>
</trkpt>
<trkpt lat="46.1238160" lon="10.5019920">
	<ele>2214.00</ele>
	<time>2023-08-07T09:31:36.000Z</time>
</trkpt>
<trkpt lat="46.1238150" lon="10.5019890">
	<ele>2214.00</ele>
	<time>2023-08-07T09:31:37.000Z</time>
</trkpt>
<trkpt lat="46.1238150" lon="10.5019900">
	<ele>2214.00</ele>
	<time>2023-08-07T09:31:38.000Z</time>
</trkpt>
<trkpt lat="46.1238130" lon="10.5019940">
	<ele>2214.00</ele>
	<time>2023-08-07T09:31:39.000Z</time>
</trkpt>
<trkpt lat="46.1238120" lon="10.5020060">
	<ele>2214.00</ele>
	<time>2023-08-07T09:31:40.000Z</time>
</trkpt>
<trkpt lat="46.1238090" lon="10.5020060">
	<ele>2214.00</ele>
	<time>2023-08-07T09:31:41.000Z</time>
</trkpt>
<trkpt lat="46.1238120" lon="10.5020070">
	<ele>2214.00</ele>
	<time>2023-08-07T09:31:42.000Z</time>
</trkpt>
<trkpt lat="46.1238120" lon="10.5020050">
	<ele>2214.00</ele>
	<time>2023-08-07T09:31:43.000Z</time>
</trkpt>
<trkpt lat="46.1238110" lon="10.5020020">
	<ele>2214.00</ele>
	<time>2023-08-07T09:31:44.000Z</time>
</trkpt>
<trkpt lat="46.1238090" lon="10.5020000">
	<ele>2214.00</ele>
	<time>2023-08-07T09:31:45.000Z</time>
</trkpt>
<trkpt lat="46.1238090" lon="10.5020010">
	<ele>2214.00</ele>
	<time>2023-08-07T09:31:46.000Z</time>
</trkpt>
<trkpt lat="46.1238070" lon="10.5020030">
	<ele>2214.00</ele>
	<time>2023-08-07T09:31:47.000Z</time>
</trkpt>
<trkpt lat="46.1238060" lon="10.5020030">
	<ele>2214.00</ele>
	<time>2023-08-07T09:31:48.000Z</time>
</trkpt>
<trkpt lat="46.1238140" lon="10.5020040">
	<ele>2214.00</ele>
	<time>2023-08-07T09:31:49.000Z</time>
</trkpt>
<trkpt lat="46.1238150" lon="10.5020030">
	<ele>2214.00</ele>
	<time>2023-08-07T09:31:50.000Z</time>
</trkpt>
<trkpt lat="46.1238190" lon="10.5020080">
	<ele>2214.00</ele>
	<time>2023-08-07T09:31:51.000Z</time>
</trkpt>
<trkpt lat="46.1238210" lon="10.5020100">
	<ele>2214.00</ele>
	<time>2023-08-07T09:31:52.000Z</time>
</trkpt>
<trkpt lat="46.1238220" lon="10.5020110">
	<ele>2214.00</ele>
	<time>2023-08-07T09:31:53.000Z</time>
</trkpt>
<trkpt lat="46.1238240" lon="10.5020120">
	<ele>2214.00</ele>
	<time>2023-08-07T09:31:54.000Z</time>
</trkpt>
<trkpt lat="46.1238240" lon="10.5020120">
	<ele>2214.00</ele>
	<time>2023-08-07T09:31:55.000Z</time>
</trkpt>
<trkpt lat="46.1238240" lon="10.5020120">
	<ele>2214.00</ele>
	<time>2023-08-07T09:31:56.000Z</time>
</trkpt>
<trkpt lat="46.1238240" lon="10.5020120">
	<ele>2214.00</ele>
	<time>2023-08-07T09:31:57.000Z</time>
</trkpt>
<trkpt lat="46.1238240" lon="10.5020120">
	<ele>2214.00</ele>
	<time>2023-08-07T09:31:58.000Z</time>
</trkpt>
<trkpt lat="46.1238240" lon="10.5020120">
	<ele>2214.00</ele>
	<time>2023-08-07T09:31:59.000Z</time>
</trkpt>
<trkpt lat="46.1238240" lon="10.5020120">
	<ele>2214.00</ele>
	<time>2023-08-07T09:32:00.000Z</time>
</trkpt>
<trkpt lat="46.1238240" lon="10.5020120">
	<ele>2214.00</ele>
	<time>2023-08-07T09:32:01.000Z</time>
</trkpt>
<trkpt lat="46.1238230" lon="10.5020120">
	<ele>2214.00</ele>
	<time>2023-08-07T09:32:02.000Z</time>
</trkpt>
<trkpt lat="46.1238230" lon="10.5020120">
	<ele>2214.00</ele>
	<time>2023-08-07T09:32:03.000Z</time>
</trkpt>
<trkpt lat="46.1238230" lon="10.5020120">
	<ele>2214.00</ele>
	<time>2023-08-07T09:32:04.000Z</time>
</trkpt>
<trkpt lat="46.1238230" lon="10.5020120">
	<ele>2214.00</ele>
	<time>2023-08-07T09:32:05.000Z</time>
</trkpt>
<trkpt lat="46.1238230" lon="10.5020120">
	<ele>2214.00</ele>
	<time>2023-08-07T09:32:06.000Z</time>
</trkpt>
<trkpt lat="46.1238230" lon="10.5020120">
	<ele>2214.00</ele>
	<time>2023-08-07T09:32:07.000Z</time>
</trkpt>
<trkpt lat="46.1238230" lon="10.5020120">
	<ele>2214.00</ele>
	<time>2023-08-07T09:32:08.000Z</time>
</trkpt>
<trkpt lat="46.1238230" lon="10.5020120">
	<ele>2214.00</ele>
	<time>2023-08-07T09:32:09.000Z</time>
</trkpt>
<trkpt lat="46.1238230" lon="10.5020200">
	<ele>2214.00</ele>
	<time>2023-08-07T09:32:10.000Z</time>
</trkpt>
<trkpt lat="46.1238230" lon="10.5020210">
	<ele>2214.00</ele>
	<time>2023-08-07T09:32:11.000Z</time>
</trkpt>
<trkpt lat="46.1238230" lon="10.5020230">
	<ele>2214.00</ele>
	<time>2023-08-07T09:32:12.000Z</time>
</trkpt>
<trkpt lat="46.1238220" lon="10.5020230">
	<ele>2214.00</ele>
	<time>2023-08-07T09:32:13.000Z</time>
</trkpt>
<trkpt lat="46.1238220" lon="10.5020230">
	<ele>2214.00</ele>
	<time>2023-08-07T09:32:14.000Z</time>
</trkpt>
<trkpt lat="46.1238220" lon="10.5020230">
	<ele>2214.00</ele>
	<time>2023-08-07T09:32:15.000Z</time>
</trkpt>
<trkpt lat="46.1238220" lon="10.5020230">
	<ele>2214.00</ele>
	<time>2023-08-07T09:32:16.000Z</time>
</trkpt>
<trkpt lat="46.1238220" lon="10.5020230">
	<ele>2214.00</ele>
	<time>2023-08-07T09:32:17.000Z</time>
</trkpt>
<trkpt lat="46.1238220" lon="10.5020230">
	<ele>2214.00</ele>
	<time>2023-08-07T09:32:18.000Z</time>
</trkpt>
<trkpt lat="46.1238220" lon="10.5020230">
	<ele>2214.00</ele>
	<time>2023-08-07T09:32:19.000Z</time>
</trkpt>
<trkpt lat="46.1238220" lon="10.5020230">
	<ele>2214.00</ele>
	<time>2023-08-07T09:32:20.000Z</time>
</trkpt>
<trkpt lat="46.1238220" lon="10.5020230">
	<ele>2214.00</ele>
	<time>2023-08-07T09:32:21.000Z</time>
</trkpt>
<trkpt lat="46.1238220" lon="10.5020230">
	<ele>2214.00</ele>
	<time>2023-08-07T09:32:22.000Z</time>
</trkpt>
<trkpt lat="46.1238220" lon="10.5020240">
	<ele>2214.00</ele>
	<time>2023-08-07T09:32:23.000Z</time>
</trkpt>
<trkpt lat="46.1238210" lon="10.5020240">
	<ele>2214.00</ele>
	<time>2023-08-07T09:32:24.000Z</time>
</trkpt>
<trkpt lat="46.1238210" lon="10.5020240">
	<ele>2214.00</ele>
	<time>2023-08-07T09:32:25.000Z</time>
</trkpt>
<trkpt lat="46.1238210" lon="10.5020230">
	<ele>2214.00</ele>
	<time>2023-08-07T09:32:26.000Z</time>
</trkpt>
<trkpt lat="46.1238200" lon="10.5020230">
	<ele>2214.00</ele>
	<time>2023-08-07T09:32:27.000Z</time>
</trkpt>
<trkpt lat="46.1238200" lon="10.5020230">
	<ele>2214.00</ele>
	<time>2023-08-07T09:32:28.000Z</time>
</trkpt>
<trkpt lat="46.1238190" lon="10.5020230">
	<ele>2214.00</ele>
	<time>2023-08-07T09:32:29.000Z</time>
</trkpt>
<trkpt lat="46.1238180" lon="10.5020230">
	<ele>2214.00</ele>
	<time>2023-08-07T09:32:30.000Z</time>
</trkpt>
<trkpt lat="46.1238180" lon="10.5020230">
	<ele>2214.00</ele>
	<time>2023-08-07T09:32:31.000Z</time>
</trkpt>
<trkpt lat="46.1238180" lon="10.5020220">
	<ele>2214.00</ele>
	<time>2023-08-07T09:32:32.000Z</time>
</trkpt>
<trkpt lat="46.1238210" lon="10.5020210">
	<ele>2214.00</ele>
	<time>2023-08-07T09:32:33.000Z</time>
</trkpt>
<trkpt lat="46.1238350" lon="10.5020190">
	<ele>2214.00</ele>
	<time>2023-08-07T09:32:34.000Z</time>
</trkpt>
<trkpt lat="46.1238470" lon="10.5020210">
	<ele>2214.00</ele>
	<time>2023-08-07T09:32:35.000Z</time>
</trkpt>
<trkpt lat="46.1238580" lon="10.5020220">
	<ele>2214.00</ele>
	<time>2023-08-07T09:32:36.000Z</time>
</trkpt>
<trkpt lat="46.1238680" lon="10.5020230">
	<ele>2214.00</ele>
	<time>2023-08-07T09:32:37.000Z</time>
</trkpt>
<trkpt lat="46.1238790" lon="10.5020220">
	<ele>2214.00</ele>
	<time>2023-08-07T09:32:38.000Z</time>
</trkpt>
<trkpt lat="46.1238910" lon="10.5020240">
	<ele>2214.00</ele>
	<time>2023-08-07T09:32:39.000Z</time>
</trkpt>
<trkpt lat="46.1239040" lon="10.5020270">
	<ele>2214.00</ele>
	<time>2023-08-07T09:32:40.000Z</time>
</trkpt>
<trkpt lat="46.1239160" lon="10.5020300">
	<ele>2214.00</ele>
	<time>2023-08-07T09:32:41.000Z</time>
</trkpt>
<trkpt lat="46.1239290" lon="10.5020360">
	<ele>2214.00</ele>
	<time>2023-08-07T09:32:42.000Z</time>
</trkpt>
<trkpt lat="46.1239390" lon="10.5020460">
	<ele>2214.00</ele>
	<time>2023-08-07T09:32:43.000Z</time>
</trkpt>
<trkpt lat="46.1239520" lon="10.5020550">
	<ele>2214.60</ele>
	<time>2023-08-07T09:32:44.000Z</time>
</trkpt>
<trkpt lat="46.1239590" lon="10.5020640">
	<ele>2214.80</ele>
	<time>2023-08-07T09:32:45.000Z</time>
</trkpt>
<trkpt lat="46.1239630" lon="10.5020750">
	<ele>2215.00</ele>
	<time>2023-08-07T09:32:46.000Z</time>
</trkpt>
<trkpt lat="46.1239700" lon="10.5020860">
	<ele>2215.20</ele>
	<time>2023-08-07T09:32:47.000Z</time>
</trkpt>
<trkpt lat="46.1239770" lon="10.5020960">
	<ele>2215.40</ele>
	<time>2023-08-07T09:32:48.000Z</time>
</trkpt>
<trkpt lat="46.1239830" lon="10.5021050">
	<ele>2215.60</ele>
	<time>2023-08-07T09:32:49.000Z</time>
</trkpt>
<trkpt lat="46.1239880" lon="10.5021150">
	<ele>2215.60</ele>
	<time>2023-08-07T09:32:50.000Z</time>
</trkpt>
<trkpt lat="46.1239880" lon="10.5021260">
	<ele>2215.60</ele>
	<time>2023-08-07T09:32:51.000Z</time>
</trkpt>
<trkpt lat="46.1239930" lon="10.5021350">
	<ele>2215.80</ele>
	<time>2023-08-07T09:32:52.000Z</time>
</trkpt>
<trkpt lat="46.1240010" lon="10.5021380">
	<ele>2215.80</ele>
	<time>2023-08-07T09:32:53.000Z</time>
</trkpt>
<trkpt lat="46.1240070" lon="10.5021430">
	<ele>2215.80</ele>
	<time>2023-08-07T09:32:54.000Z</time>
</trkpt>
<trkpt lat="46.1240140" lon="10.5021510">
	<ele>2216.00</ele>
	<time>2023-08-07T09:32:55.000Z</time>
</trkpt>
<trkpt lat="46.1240210" lon="10.5021560">
	<ele>2216.00</ele>
	<time>2023-08-07T09:32:56.000Z</time>
</trkpt>
<trkpt lat="46.1240310" lon="10.5021630">
	<ele>2216.00</ele>
	<time>2023-08-07T09:32:57.000Z</time>
</trkpt>
<trkpt lat="46.1240380" lon="10.5021750">
	<ele>2216.20</ele>
	<time>2023-08-07T09:32:58.000Z</time>
</trkpt>
<trkpt lat="46.1240400" lon="10.5021820">
	<ele>2216.40</ele>
	<time>2023-08-07T09:32:59.000Z</time>
</trkpt>
<trkpt lat="46.1240500" lon="10.5021820">
	<ele>2216.40</ele>
	<time>2023-08-07T09:33:00.000Z</time>
</trkpt>
<trkpt lat="46.1240700" lon="10.5021740">
	<ele>2216.40</ele>
	<time>2023-08-07T09:33:01.000Z</time>
</trkpt>
<trkpt lat="46.1240830" lon="10.5021750">
	<ele>2216.60</ele>
	<time>2023-08-07T09:33:02.000Z</time>
</trkpt>
<trkpt lat="46.1240920" lon="10.5021800">
	<ele>2216.80</ele>
	<time>2023-08-07T09:33:03.000Z</time>
</trkpt>
<trkpt lat="46.1241010" lon="10.5021910">
	<ele>2216.80</ele>
	<time>2023-08-07T09:33:04.000Z</time>
</trkpt>
<trkpt lat="46.1241120" lon="10.5021970">
	<ele>2216.80</ele>
	<time>2023-08-07T09:33:05.000Z</time>
</trkpt>
<trkpt lat="46.1241230" lon="10.5022050">
	<ele>2217.00</ele>
	<time>2023-08-07T09:33:06.000Z</time>
</trkpt>
<trkpt lat="46.1241340" lon="10.5022050">
	<ele>2217.20</ele>
	<time>2023-08-07T09:33:07.000Z</time>
</trkpt>
<trkpt lat="46.1241410" lon="10.5022060">
	<ele>2217.20</ele>
	<time>2023-08-07T09:33:08.000Z</time>
</trkpt>
<trkpt lat="46.1241510" lon="10.5022090">
	<ele>2217.40</ele>
	<time>2023-08-07T09:33:09.000Z</time>
</trkpt>
<trkpt lat="46.1241630" lon="10.5022150">
	<ele>2217.40</ele>
	<time>2023-08-07T09:33:10.000Z</time>
</trkpt>
<trkpt lat="46.1241670" lon="10.5022240">
	<ele>2217.60</ele>
	<time>2023-08-07T09:33:11.000Z</time>
</trkpt>
<trkpt lat="46.1241690" lon="10.5022250">
	<ele>2217.60</ele>
	<time>2023-08-07T09:33:12.000Z</time>
</trkpt>
<trkpt lat="46.1241720" lon="10.5022320">
	<ele>2217.60</ele>
	<time>2023-08-07T09:33:13.000Z</time>
</trkpt>
<trkpt lat="46.1241750" lon="10.5022440">
	<ele>2217.60</ele>
	<time>2023-08-07T09:33:14.000Z</time>
</trkpt>
<trkpt lat="46.1241800" lon="10.5022560">
	<ele>2217.60</ele>
	<time>2023-08-07T09:33:15.000Z</time>
</trkpt>
<trkpt lat="46.1241840" lon="10.5022700">
	<ele>2217.60</ele>
	<time>2023-08-07T09:33:16.000Z</time>
</trkpt>
<trkpt lat="46.1241890" lon="10.5022840">
	<ele>2217.60</ele>
	<time>2023-08-07T09:33:17.000Z</time>
</trkpt>
<trkpt lat="46.1241980" lon="10.5022930">
	<ele>2217.60</ele>
	<time>2023-08-07T09:33:18.000Z</time>
</trkpt>
<trkpt lat="46.1242140" lon="10.5022950">
	<ele>2217.60</ele>
	<time>2023-08-07T09:33:19.000Z</time>
</trkpt>
<trkpt lat="46.1242240" lon="10.5023030">
	<ele>2217.80</ele>
	<time>2023-08-07T09:33:20.000Z</time>
</trkpt>
<trkpt lat="46.1242300" lon="10.5023150">
	<ele>2217.80</ele>
	<time>2023-08-07T09:33:21.000Z</time>
</trkpt>
<trkpt lat="46.1242370" lon="10.5023340">
	<ele>2218.00</ele>
	<time>2023-08-07T09:33:22.000Z</time>
</trkpt>
<trkpt lat="46.1242440" lon="10.5023500">
	<ele>2218.20</ele>
	<time>2023-08-07T09:33:23.000Z</time>
</trkpt>
<trkpt lat="46.1242510" lon="10.5023610">
	<ele>2218.20</ele>
	<time>2023-08-07T09:33:24.000Z</time>
</trkpt>
<trkpt lat="46.1242580" lon="10.5023690">
	<ele>2218.20</ele>
	<time>2023-08-07T09:33:25.000Z</time>
</trkpt>
<trkpt lat="46.1242740" lon="10.5023760">
	<ele>2218.40</ele>
	<time>2023-08-07T09:33:26.000Z</time>
</trkpt>
<trkpt lat="46.1242890" lon="10.5023780">
	<ele>2218.40</ele>
	<time>2023-08-07T09:33:27.000Z</time>
</trkpt>
<trkpt lat="46.1242980" lon="10.5023800">
	<ele>2218.60</ele>
	<time>2023-08-07T09:33:28.000Z</time>
</trkpt>
<trkpt lat="46.1243040" lon="10.5023790">
	<ele>2218.60</ele>
	<time>2023-08-07T09:33:29.000Z</time>
</trkpt>
<trkpt lat="46.1243160" lon="10.5023730">
	<ele>2218.60</ele>
	<time>2023-08-07T09:33:30.000Z</time>
</trkpt>
<trkpt lat="46.1243290" lon="10.5023710">
	<ele>2218.60</ele>
	<time>2023-08-07T09:33:31.000Z</time>
</trkpt>
<trkpt lat="46.1243360" lon="10.5023710">
	<ele>2218.60</ele>
	<time>2023-08-07T09:33:32.000Z</time>
</trkpt>
<trkpt lat="46.1243460" lon="10.5023680">
	<ele>2218.60</ele>
	<time>2023-08-07T09:33:33.000Z</time>
</trkpt>
<trkpt lat="46.1243470" lon="10.5023710">
	<ele>2218.60</ele>
	<time>2023-08-07T09:33:34.000Z</time>
</trkpt>
<trkpt lat="46.1243550" lon="10.5023730">
	<ele>2218.60</ele>
	<time>2023-08-07T09:33:35.000Z</time>
</trkpt>
<trkpt lat="46.1243620" lon="10.5023770">
	<ele>2218.60</ele>
	<time>2023-08-07T09:33:36.000Z</time>
</trkpt>
<trkpt lat="46.1243700" lon="10.5023860">
	<ele>2218.60</ele>
	<time>2023-08-07T09:33:37.000Z</time>
</trkpt>
<trkpt lat="46.1243770" lon="10.5023930">
	<ele>2218.60</ele>
	<time>2023-08-07T09:33:38.000Z</time>
</trkpt>
<trkpt lat="46.1243850" lon="10.5023990">
	<ele>2218.60</ele>
	<time>2023-08-07T09:33:39.000Z</time>
</trkpt>
<trkpt lat="46.1243910" lon="10.5024020">
	<ele>2218.60</ele>
	<time>2023-08-07T09:33:40.000Z</time>
</trkpt>
<trkpt lat="46.1243980" lon="10.5024050">
	<ele>2218.60</ele>
	<time>2023-08-07T09:33:41.000Z</time>
</trkpt>
<trkpt lat="46.1244020" lon="10.5024060">
	<ele>2218.60</ele>
	<time>2023-08-07T09:33:42.000Z</time>
</trkpt>
<trkpt lat="46.1244060" lon="10.5024070">
	<ele>2218.60</ele>
	<time>2023-08-07T09:33:43.000Z</time>
</trkpt>
<trkpt lat="46.1244090" lon="10.5024110">
	<ele>2218.60</ele>
	<time>2023-08-07T09:33:44.000Z</time>
</trkpt>
<trkpt lat="46.1244130" lon="10.5024090">
	<ele>2218.60</ele>
	<time>2023-08-07T09:33:45.000Z</time>
</trkpt>
<trkpt lat="46.1244130" lon="10.5024080">
	<ele>2218.60</ele>
	<time>2023-08-07T09:33:46.000Z</time>
</trkpt>
<trkpt lat="46.1244130" lon="10.5024070">
	<ele>2218.80</ele>
	<time>2023-08-07T09:33:47.000Z</time>
</trkpt>
<trkpt lat="46.1244130" lon="10.5024080">
	<ele>2219.00</ele>
	<time>2023-08-07T09:33:48.000Z</time>
</trkpt>
<trkpt lat="46.1244130" lon="10.5024090">
	<ele>2219.00</ele>
	<time>2023-08-07T09:33:49.000Z</time>
</trkpt>
<trkpt lat="46.1244120" lon="10.5024100">
	<ele>2219.20</ele>
	<time>2023-08-07T09:33:50.000Z</time>
</trkpt>
<trkpt lat="46.1244110" lon="10.5024120">
	<ele>2219.40</ele>
	<time>2023-08-07T09:33:51.000Z</time>
</trkpt>
<trkpt lat="46.1244110" lon="10.5024140">
	<ele>2219.40</ele>
	<time>2023-08-07T09:33:52.000Z</time>
</trkpt>
<trkpt lat="46.1244110" lon="10.5024150">
	<ele>2219.60</ele>
	<time>2023-08-07T09:33:53.000Z</time>
</trkpt>
<trkpt lat="46.1244110" lon="10.5024150">
	<ele>2219.60</ele>
	<time>2023-08-07T09:33:54.000Z</time>
</trkpt>
<trkpt lat="46.1244110" lon="10.5024150">
	<ele>2219.60</ele>
	<time>2023-08-07T09:33:55.000Z</time>
</trkpt>
<trkpt lat="46.1244110" lon="10.5024150">
	<ele>2219.60</ele>
	<time>2023-08-07T09:33:56.000Z</time>
</trkpt>
<trkpt lat="46.1244110" lon="10.5024150">
	<ele>2219.60</ele>
	<time>2023-08-07T09:33:57.000Z</time>
</trkpt>
<trkpt lat="46.1244110" lon="10.5024150">
	<ele>2219.60</ele>
	<time>2023-08-07T09:33:58.000Z</time>
</trkpt>
<trkpt lat="46.1244110" lon="10.5024150">
	<ele>2219.60</ele>
	<time>2023-08-07T09:33:59.000Z</time>
</trkpt>
<trkpt lat="46.1244110" lon="10.5024150">
	<ele>2219.60</ele>
	<time>2023-08-07T09:34:00.000Z</time>
</trkpt>
<trkpt lat="46.1244110" lon="10.5024150">
	<ele>2219.60</ele>
	<time>2023-08-07T09:34:01.000Z</time>
</trkpt>
<trkpt lat="46.1244110" lon="10.5024150">
	<ele>2219.40</ele>
	<time>2023-08-07T09:34:02.000Z</time>
</trkpt>
<trkpt lat="46.1244110" lon="10.5024150">
	<ele>2219.40</ele>
	<time>2023-08-07T09:34:03.000Z</time>
</trkpt>
<trkpt lat="46.1244110" lon="10.5024150">
	<ele>2219.40</ele>
	<time>2023-08-07T09:34:04.000Z</time>
</trkpt>
<trkpt lat="46.1244110" lon="10.5024150">
	<ele>2219.20</ele>
	<time>2023-08-07T09:34:05.000Z</time>
</trkpt>
<trkpt lat="46.1244110" lon="10.5024150">
	<ele>2219.20</ele>
	<time>2023-08-07T09:34:06.000Z</time>
</trkpt>
<trkpt lat="46.1244110" lon="10.5024150">
	<ele>2219.20</ele>
	<time>2023-08-07T09:34:07.000Z</time>
</trkpt>
<trkpt lat="46.1244110" lon="10.5024150">
	<ele>2219.20</ele>
	<time>2023-08-07T09:34:08.000Z</time>
</trkpt>
<trkpt lat="46.1244110" lon="10.5024150">
	<ele>2219.20</ele>
	<time>2023-08-07T09:34:09.000Z</time>
</trkpt>
<trkpt lat="46.1244110" lon="10.5024150">
	<ele>2219.20</ele>
	<time>2023-08-07T09:34:10.000Z</time>
</trkpt>
<trkpt lat="46.1244110" lon="10.5024150">
	<ele>2219.20</ele>
	<time>2023-08-07T09:34:11.000Z</time>
</trkpt>
<trkpt lat="46.1244110" lon="10.5024150">
	<ele>2219.20</ele>
	<time>2023-08-07T09:34:12.000Z</time>
</trkpt>
<trkpt lat="46.1244110" lon="10.5024150">
	<ele>2219.20</ele>
	<time>2023-08-07T09:34:13.000Z</time>
</trkpt>
<trkpt lat="46.1244100" lon="10.5024140">
	<ele>2219.20</ele>
	<time>2023-08-07T09:34:14.000Z</time>
</trkpt>
<trkpt lat="46.1244100" lon="10.5024140">
	<ele>2219.40</ele>
	<time>2023-08-07T09:34:15.000Z</time>
</trkpt>
<trkpt lat="46.1244100" lon="10.5024140">
	<ele>2219.40</ele>
	<time>2023-08-07T09:34:16.000Z</time>
</trkpt>
<trkpt lat="46.1244100" lon="10.5024140">
	<ele>2219.40</ele>
	<time>2023-08-07T09:34:17.000Z</time>
</trkpt>
<trkpt lat="46.1244100" lon="10.5024140">
	<ele>2219.60</ele>
	<time>2023-08-07T09:34:18.000Z</time>
</trkpt>
<trkpt lat="46.1244110" lon="10.5024080">
	<ele>2219.60</ele>
	<time>2023-08-07T09:34:19.000Z</time>
</trkpt>
<trkpt lat="46.1244070" lon="10.5023890">
	<ele>2219.80</ele>
	<time>2023-08-07T09:34:20.000Z</time>
</trkpt>
<trkpt lat="46.1244040" lon="10.5023710">
	<ele>2219.80</ele>
	<time>2023-08-07T09:34:21.000Z</time>
</trkpt>
<trkpt lat="46.1244030" lon="10.5023510">
	<ele>2220.00</ele>
	<time>2023-08-07T09:34:22.000Z</time>
</trkpt>
<trkpt lat="46.1244040" lon="10.5023280">
	<ele>2220.00</ele>
	<time>2023-08-07T09:34:23.000Z</time>
</trkpt>
<trkpt lat="46.1244070" lon="10.5023070">
	<ele>2220.00</ele>
	<time>2023-08-07T09:34:24.000Z</time>
</trkpt>
<trkpt lat="46.1244130" lon="10.5022880">
	<ele>2220.20</ele>
	<time>2023-08-07T09:34:25.000Z</time>
</trkpt>
<trkpt lat="46.1244170" lon="10.5022700">
	<ele>2220.40</ele>
	<time>2023-08-07T09:34:26.000Z</time>
</trkpt>
<trkpt lat="46.1244250" lon="10.5022510">
	<ele>2220.40</ele>
	<time>2023-08-07T09:34:27.000Z</time>
</trkpt>
<trkpt lat="46.1244320" lon="10.5022370">
	<ele>2220.40</ele>
	<time>2023-08-07T09:34:28.000Z</time>
</trkpt>
<trkpt lat="46.1244400" lon="10.5022310">
	<ele>2220.60</ele>
	<time>2023-08-07T09:34:29.000Z</time>
</trkpt>
<trkpt lat="46.1244490" lon="10.5022290">
	<ele>2220.60</ele>
	<time>2023-08-07T09:34:30.000Z</time>
</trkpt>
<trkpt lat="46.1244570" lon="10.5022280">
	<ele>2220.80</ele>
	<time>2023-08-07T09:34:31.000Z</time>
</trkpt>
<trkpt lat="46.1244660" lon="10.5022250">
	<ele>2220.80</ele>
	<time>2023-08-07T09:34:32.000Z</time>
</trkpt>
<trkpt lat="46.1244710" lon="10.5022220">
	<ele>2220.80</ele>
	<time>2023-08-07T09:34:33.000Z</time>
</trkpt>
<trkpt lat="46.1244760" lon="10.5022170">
	<ele>2221.00</ele>
	<time>2023-08-07T09:34:34.000Z</time>
</trkpt>
<trkpt lat="46.1244840" lon="10.5022130">
	<ele>2221.00</ele>
	<time>2023-08-07T09:34:35.000Z</time>
</trkpt>
<trkpt lat="46.1244970" lon="10.5022050">
	<ele>2221.20</ele>
	<time>2023-08-07T09:34:36.000Z</time>
</trkpt>
<trkpt lat="46.1245070" lon="10.5021980">
	<ele>2221.20</ele>
	<time>2023-08-07T09:34:37.000Z</time>
</trkpt>
<trkpt lat="46.1245160" lon="10.5021930">
	<ele>2221.40</ele>
	<time>2023-08-07T09:34:38.000Z</time>
</trkpt>
<trkpt lat="46.1245190" lon="10.5021860">
	<ele>2221.40</ele>
	<time>2023-08-07T09:34:39.000Z</time>
</trkpt>
<trkpt lat="46.1245220" lon="10.5021710">
	<ele>2221.60</ele>
	<time>2023-08-07T09:34:40.000Z</time>
</trkpt>
<trkpt lat="46.1245260" lon="10.5021540">
	<ele>2221.60</ele>
	<time>2023-08-07T09:34:41.000Z</time>
</trkpt>
<trkpt lat="46.1245280" lon="10.5021380">
	<ele>2221.60</ele>
	<time>2023-08-07T09:34:42.000Z</time>
</trkpt>
<trkpt lat="46.1245310" lon="10.5021190">
	<ele>2221.60</ele>
	<time>2023-08-07T09:34:43.000Z</time>
</trkpt>
<trkpt lat="46.1245310" lon="10.5021040">
	<ele>2221.60</ele>
	<time>2023-08-07T09:34:44.000Z</time>
</trkpt>
<trkpt lat="46.1245260" lon="10.5020880">
	<ele>2221.60</ele>
	<time>2023-08-07T09:34:45.000Z</time>
</trkpt>
<trkpt lat="46.1245250" lon="10.5020720">
	<ele>2221.60</ele>
	<time>2023-08-07T09:34:46.000Z</time>
</trkpt>
<trkpt lat="46.1245220" lon="10.5020580">
	<ele>2221.60</ele>
	<time>2023-08-07T09:34:47.000Z</time>
</trkpt>
<trkpt lat="46.1245200" lon="10.5020430">
	<ele>2221.80</ele>
	<time>2023-08-07T09:34:48.000Z</time>
</trkpt>
<trkpt lat="46.1245200" lon="10.5020310">
	<ele>2222.00</ele>
	<time>2023-08-07T09:34:49.000Z</time>
</trkpt>
<trkpt lat="46.1245200" lon="10.5020220">
	<ele>2222.00</ele>
	<time>2023-08-07T09:34:50.000Z</time>
</trkpt>
<trkpt lat="46.1245220" lon="10.5020080">
	<ele>2222.20</ele>
	<time>2023-08-07T09:34:51.000Z</time>
</trkpt>
<trkpt lat="46.1245220" lon="10.5020000">
	<ele>2222.20</ele>
	<time>2023-08-07T09:34:52.000Z</time>
</trkpt>
<trkpt lat="46.1245200" lon="10.5019880">
	<ele>2222.20</ele>
	<time>2023-08-07T09:34:53.000Z</time>
</trkpt>
<trkpt lat="46.1245220" lon="10.5019750">
	<ele>2222.20</ele>
	<time>2023-08-07T09:34:54.000Z</time>
</trkpt>
<trkpt lat="46.1245280" lon="10.5019620">
	<ele>2222.20</ele>
	<time>2023-08-07T09:34:55.000Z</time>
</trkpt>
<trkpt lat="46.1245320" lon="10.5019490">
	<ele>2222.20</ele>
	<time>2023-08-07T09:34:56.000Z</time>
</trkpt>
<trkpt lat="46.1245370" lon="10.5019400">
	<ele>2222.40</ele>
	<time>2023-08-07T09:34:57.000Z</time>
</trkpt>
<trkpt lat="46.1245450" lon="10.5019300">
	<ele>2222.40</ele>
	<time>2023-08-07T09:34:58.000Z</time>
</trkpt>
<trkpt lat="46.1245530" lon="10.5019200">
	<ele>2222.40</ele>
	<time>2023-08-07T09:34:59.000Z</time>
</trkpt>
<trkpt lat="46.1245580" lon="10.5019100">
	<ele>2222.60</ele>
	<time>2023-08-07T09:35:00.000Z</time>
</trkpt>
<trkpt lat="46.1245600" lon="10.5019010">
	<ele>2222.80</ele>
	<time>2023-08-07T09:35:01.000Z</time>
</trkpt>
<trkpt lat="46.1245670" lon="10.5018930">
	<ele>2222.80</ele>
	<time>2023-08-07T09:35:02.000Z</time>
</trkpt>
<trkpt lat="46.1245700" lon="10.5018870">
	<ele>2222.80</ele>
	<time>2023-08-07T09:35:03.000Z</time>
</trkpt>
<trkpt lat="46.1245760" lon="10.5018740">
	<ele>2222.80</ele>
	<time>2023-08-07T09:35:04.000Z</time>
</trkpt>
<trkpt lat="46.1245820" lon="10.5018620">
	<ele>2223.00</ele>
	<time>2023-08-07T09:35:05.000Z</time>
</trkpt>
<trkpt lat="46.1245880" lon="10.5018540">
	<ele>2223.20</ele>
	<time>2023-08-07T09:35:06.000Z</time>
</trkpt>
<trkpt lat="46.1245950" lon="10.5018500">
	<ele>2223.40</ele>
	<time>2023-08-07T09:35:07.000Z</time>
</trkpt>
<trkpt lat="46.1246060" lon="10.5018490">
	<ele>2223.60</ele>
	<time>2023-08-07T09:35:08.000Z</time>
</trkpt>
<trkpt lat="46.1246120" lon="10.5018520">
	<ele>2223.60</ele>
	<time>2023-08-07T09:35:09.000Z</time>
</trkpt>
<trkpt lat="46.1246200" lon="10.5018550">
	<ele>2223.80</ele>
	<time>2023-08-07T09:35:10.000Z</time>
</trkpt>
<trkpt lat="46.1246270" lon="10.5018550">
	<ele>2224.00</ele>
	<time>2023-08-07T09:35:11.000Z</time>
</trkpt>
<trkpt lat="46.1246340" lon="10.5018530">
	<ele>2224.20</ele>
	<time>2023-08-07T09:35:12.000Z</time>
</trkpt>
<trkpt lat="46.1246400" lon="10.5018510">
	<ele>2224.20</ele>
	<time>2023-08-07T09:35:13.000Z</time>
</trkpt>
<trkpt lat="46.1246460" lon="10.5018470">
	<ele>2224.40</ele>
	<time>2023-08-07T09:35:14.000Z</time>
</trkpt>
<trkpt lat="46.1246550" lon="10.5018440">
	<ele>2224.40</ele>
	<time>2023-08-07T09:35:15.000Z</time>
</trkpt>
<trkpt lat="46.1246640" lon="10.5018420">
	<ele>2224.60</ele>
	<time>2023-08-07T09:35:16.000Z</time>
</trkpt>
<trkpt lat="46.1246720" lon="10.5018450">
	<ele>2224.80</ele>
	<time>2023-08-07T09:35:17.000Z</time>
</trkpt>
<trkpt lat="46.1246800" lon="10.5018480">
	<ele>2225.00</ele>
	<time>2023-08-07T09:35:18.000Z</time>
</trkpt>
<trkpt lat="46.1246850" lon="10.5018490">
	<ele>2225.20</ele>
	<time>2023-08-07T09:35:19.000Z</time>
</trkpt>
<trkpt lat="46.1246940" lon="10.5018540">
	<ele>2225.20</ele>
	<time>2023-08-07T09:35:20.000Z</time>
</trkpt>
<trkpt lat="46.1247010" lon="10.5018560">
	<ele>2225.20</ele>
	<time>2023-08-07T09:35:21.000Z</time>
</trkpt>
<trkpt lat="46.1247090" lon="10.5018600">
	<ele>2225.40</ele>
	<time>2023-08-07T09:35:22.000Z</time>
</trkpt>
<trkpt lat="46.1247190" lon="10.5018600">
	<ele>2225.40</ele>
	<time>2023-08-07T09:35:23.000Z</time>
</trkpt>
<trkpt lat="46.1247310" lon="10.5018600">
	<ele>2225.40</ele>
	<time>2023-08-07T09:35:24.000Z</time>
</trkpt>
<trkpt lat="46.1247440" lon="10.5018630">
	<ele>2225.40</ele>
	<time>2023-08-07T09:35:25.000Z</time>
</trkpt>
<trkpt lat="46.1247520" lon="10.5018690">
	<ele>2225.60</ele>
	<time>2023-08-07T09:35:26.000Z</time>
</trkpt>
<trkpt lat="46.1247590" lon="10.5018810">
	<ele>2225.60</ele>
	<time>2023-08-07T09:35:27.000Z</time>
</trkpt>
<trkpt lat="46.1247670" lon="10.5018910">
	<ele>2225.60</ele>
	<time>2023-08-07T09:35:28.000Z</time>
</trkpt>
<trkpt lat="46.1247750" lon="10.5019030">
	<ele>2225.80</ele>
	<time>2023-08-07T09:35:29.000Z</time>
</trkpt>
<trkpt lat="46.1247780" lon="10.5019170">
	<ele>2225.80</ele>
	<time>2023-08-07T09:35:30.000Z</time>
</trkpt>
<trkpt lat="46.1247850" lon="10.5019290">
	<ele>2225.80</ele>
	<time>2023-08-07T09:35:31.000Z</time>
</trkpt>
<trkpt lat="46.1247940" lon="10.5019400">
	<ele>2225.80</ele>
	<time>2023-08-07T09:35:32.000Z</time>
</trkpt>
<trkpt lat="46.1248000" lon="10.5019500">
	<ele>2225.80</ele>
	<time>2023-08-07T09:35:33.000Z</time>
</trkpt>
<trkpt lat="46.1248060" lon="10.5019590">
	<ele>2225.60</ele>
	<time>2023-08-07T09:35:34.000Z</time>
</trkpt>
<trkpt lat="46.1248140" lon="10.5019680">
	<ele>2225.60</ele>
	<time>2023-08-07T09:35:35.000Z</time>
</trkpt>
<trkpt lat="46.1248250" lon="10.5019750">
	<ele>2225.40</ele>
	<time>2023-08-07T09:35:36.000Z</time>
</trkpt>
<trkpt lat="46.1248340" lon="10.5019870">
	<ele>2225.40</ele>
	<time>2023-08-07T09:35:37.000Z</time>
</trkpt>
<trkpt lat="46.1248420" lon="10.5019950">
	<ele>2225.20</ele>
	<time>2023-08-07T09:35:38.000Z</time>
</trkpt>
<trkpt lat="46.1248510" lon="10.5020000">
	<ele>2225.20</ele>
	<time>2023-08-07T09:35:39.000Z</time>
</trkpt>
<trkpt lat="46.1248620" lon="10.5020070">
	<ele>2225.40</ele>
	<time>2023-08-07T09:35:40.000Z</time>
</trkpt>
<trkpt lat="46.1248680" lon="10.5020140">
	<ele>2225.40</ele>
	<time>2023-08-07T09:35:41.000Z</time>
</trkpt>
<trkpt lat="46.1248710" lon="10.5020180">
	<ele>2225.60</ele>
	<time>2023-08-07T09:35:42.000Z</time>
</trkpt>
<trkpt lat="46.1248750" lon="10.5020230">
	<ele>2225.80</ele>
	<time>2023-08-07T09:35:43.000Z</time>
</trkpt>
<trkpt lat="46.1248800" lon="10.5020260">
	<ele>2225.80</ele>
	<time>2023-08-07T09:35:44.000Z</time>
</trkpt>
<trkpt lat="46.1248840" lon="10.5020290">
	<ele>2226.00</ele>
	<time>2023-08-07T09:35:45.000Z</time>
</trkpt>
<trkpt lat="46.1248910" lon="10.5020340">
	<ele>2226.00</ele>
	<time>2023-08-07T09:35:46.000Z</time>
</trkpt>
<trkpt lat="46.1248980" lon="10.5020410">
	<ele>2226.00</ele>
	<time>2023-08-07T09:35:47.000Z</time>
</trkpt>
<trkpt lat="46.1249040" lon="10.5020440">
	<ele>2226.00</ele>
	<time>2023-08-07T09:35:48.000Z</time>
</trkpt>
<trkpt lat="46.1249150" lon="10.5020460">
	<ele>2225.80</ele>
	<time>2023-08-07T09:35:49.000Z</time>
</trkpt>
<trkpt lat="46.1249250" lon="10.5020500">
	<ele>2225.80</ele>
	<time>2023-08-07T09:35:50.000Z</time>
</trkpt>
<trkpt lat="46.1249360" lon="10.5020570">
	<ele>2225.80</ele>
	<time>2023-08-07T09:35:51.000Z</time>
</trkpt>
<trkpt lat="46.1249450" lon="10.5020640">
	<ele>2225.80</ele>
	<time>2023-08-07T09:35:52.000Z</time>
</trkpt>
<trkpt lat="46.1249530" lon="10.5020710">
	<ele>2225.80</ele>
	<time>2023-08-07T09:35:53.000Z</time>
</trkpt>
<trkpt lat="46.1249610" lon="10.5020760">
	<ele>2226.00</ele>
	<time>2023-08-07T09:35:54.000Z</time>
</trkpt>
<trkpt lat="46.1249700" lon="10.5020780">
	<ele>2226.00</ele>
	<time>2023-08-07T09:35:55.000Z</time>
</trkpt>
<trkpt lat="46.1249790" lon="10.5020860">
	<ele>2226.40</ele>
	<time>2023-08-07T09:35:56.000Z</time>
</trkpt>
<trkpt lat="46.1249860" lon="10.5020920">
	<ele>2226.60</ele>
	<time>2023-08-07T09:35:57.000Z</time>
</trkpt>
<trkpt lat="46.1249950" lon="10.5020920">
	<ele>2226.80</ele>
	<time>2023-08-07T09:35:58.000Z</time>
</trkpt>
<trkpt lat="46.1250010" lon="10.5020970">
	<ele>2226.80</ele>
	<time>2023-08-07T09:35:59.000Z</time>
</trkpt>
<trkpt lat="46.1250070" lon="10.5021020">
	<ele>2227.00</ele>
	<time>2023-08-07T09:36:00.000Z</time>
</trkpt>
<trkpt lat="46.1250130" lon="10.5021090">
	<ele>2227.00</ele>
	<time>2023-08-07T09:36:01.000Z</time>
</trkpt>
<trkpt lat="46.1250190" lon="10.5021120">
	<ele>2227.00</ele>
	<time>2023-08-07T09:36:02.000Z</time>
</trkpt>
<trkpt lat="46.1250250" lon="10.5021200">
	<ele>2227.20</ele>
	<time>2023-08-07T09:36:03.000Z</time>
</trkpt>
<trkpt lat="46.1250330" lon="10.5021330">
	<ele>2227.20</ele>
	<time>2023-08-07T09:36:04.000Z</time>
</trkpt>
<trkpt lat="46.1250400" lon="10.5021410">
	<ele>2227.40</ele>
	<time>2023-08-07T09:36:05.000Z</time>
</trkpt>
<trkpt lat="46.1250470" lon="10.5021420">
	<ele>2227.60</ele>
	<time>2023-08-07T09:36:06.000Z</time>
</trkpt>
<trkpt lat="46.1250570" lon="10.5021410">
	<ele>2227.60</ele>
	<time>2023-08-07T09:36:07.000Z</time>
</trkpt>
<trkpt lat="46.1250650" lon="10.5021420">
	<ele>2227.80</ele>
	<time>2023-08-07T09:36:08.000Z</time>
</trkpt>
<trkpt lat="46.1250710" lon="10.5021430">
	<ele>2228.20</ele>
	<time>2023-08-07T09:36:09.000Z</time>
</trkpt>
<trkpt lat="46.1250760" lon="10.5021420">
	<ele>2228.40</ele>
	<time>2023-08-07T09:36:10.000Z</time>
</trkpt>
<trkpt lat="46.1250820" lon="10.5021420">
	<ele>2228.40</ele>
	<time>2023-08-07T09:36:11.000Z</time>
</trkpt>
<trkpt lat="46.1250870" lon="10.5021400">
	<ele>2228.60</ele>
	<time>2023-08-07T09:36:12.000Z</time>
</trkpt>
<trkpt lat="46.1250950" lon="10.5021360">
	<ele>2228.60</ele>
	<time>2023-08-07T09:36:13.000Z</time>
</trkpt>
<trkpt lat="46.1251020" lon="10.5021360">
	<ele>2228.80</ele>
	<time>2023-08-07T09:36:14.000Z</time>
</trkpt>
<trkpt lat="46.1251100" lon="10.5021330">
	<ele>2229.00</ele>
	<time>2023-08-07T09:36:15.000Z</time>
</trkpt>
<trkpt lat="46.1251170" lon="10.5021320">
	<ele>2229.20</ele>
	<time>2023-08-07T09:36:16.000Z</time>
</trkpt>
<trkpt lat="46.1251240" lon="10.5021330">
	<ele>2229.40</ele>
	<time>2023-08-07T09:36:17.000Z</time>
</trkpt>
<trkpt lat="46.1251280" lon="10.5021340">
	<ele>2229.60</ele>
	<time>2023-08-07T09:36:18.000Z</time>
</trkpt>
<trkpt lat="46.1251280" lon="10.5021340">
	<ele>2229.60</ele>
	<time>2023-08-07T09:36:19.000Z</time>
</trkpt>
<trkpt lat="46.1251310" lon="10.5021350">
	<ele>2229.80</ele>
	<time>2023-08-07T09:36:20.000Z</time>
</trkpt>
<trkpt lat="46.1251340" lon="10.5021340">
	<ele>2230.20</ele>
	<time>2023-08-07T09:36:21.000Z</time>
</trkpt>
<trkpt lat="46.1251370" lon="10.5021330">
	<ele>2230.60</ele>
	<time>2023-08-07T09:36:22.000Z</time>
</trkpt>
<trkpt lat="46.1251420" lon="10.5021280">
	<ele>2230.80</ele>
	<time>2023-08-07T09:36:23.000Z</time>
</trkpt>
<trkpt lat="46.1251460" lon="10.5021260">
	<ele>2230.80</ele>
	<time>2023-08-07T09:36:24.000Z</time>
</trkpt>
<trkpt lat="46.1251470" lon="10.5021230">
	<ele>2231.00</ele>
	<time>2023-08-07T09:36:25.000Z</time>
</trkpt>
<trkpt lat="46.1251490" lon="10.5021190">
	<ele>2231.00</ele>
	<time>2023-08-07T09:36:26.000Z</time>
</trkpt>
<trkpt lat="46.1251510" lon="10.5021170">
	<ele>2231.00</ele>
	<time>2023-08-07T09:36:27.000Z</time>
</trkpt>
<trkpt lat="46.1251540" lon="10.5021140">
	<ele>2231.20</ele>
	<time>2023-08-07T09:36:28.000Z</time>
</trkpt>
<trkpt lat="46.1251590" lon="10.5021110">
	<ele>2231.40</ele>
	<time>2023-08-07T09:36:29.000Z</time>
</trkpt>
<trkpt lat="46.1251630" lon="10.5021080">
	<ele>2231.80</ele>
	<time>2023-08-07T09:36:30.000Z</time>
</trkpt>
<trkpt lat="46.1251670" lon="10.5021080">
	<ele>2232.00</ele>
	<time>2023-08-07T09:36:31.000Z</time>
</trkpt>
<trkpt lat="46.1251730" lon="10.5021070">
	<ele>2232.20</ele>
	<time>2023-08-07T09:36:32.000Z</time>
</trkpt>
<trkpt lat="46.1251780" lon="10.5021040">
	<ele>2232.40</ele>
	<time>2023-08-07T09:36:33.000Z</time>
</trkpt>
<trkpt lat="46.1251830" lon="10.5021040">
	<ele>2232.60</ele>
	<time>2023-08-07T09:36:34.000Z</time>
</trkpt>
<trkpt lat="46.1251840" lon="10.5021090">
	<ele>2232.80</ele>
	<time>2023-08-07T09:36:35.000Z</time>
</trkpt>
<trkpt lat="46.1251870" lon="10.5021120">
	<ele>2233.00</ele>
	<time>2023-08-07T09:36:36.000Z</time>
</trkpt>
<trkpt lat="46.1251920" lon="10.5021130">
	<ele>2233.20</ele>
	<time>2023-08-07T09:36:37.000Z</time>
</trkpt>
<trkpt lat="46.1251990" lon="10.5021150">
	<ele>2233.60</ele>
	<time>2023-08-07T09:36:38.000Z</time>
</trkpt>
<trkpt lat="46.1252030" lon="10.5021180">
	<ele>2233.80</ele>
	<time>2023-08-07T09:36:39.000Z</time>
</trkpt>
<trkpt lat="46.1252030" lon="10.5021240">
	<ele>2233.80</ele>
	<time>2023-08-07T09:36:40.000Z</time>
</trkpt>
<trkpt lat="46.1252040" lon="10.5021290">
	<ele>2234.00</ele>
	<time>2023-08-07T09:36:41.000Z</time>
</trkpt>
<trkpt lat="46.1252020" lon="10.5021390">
	<ele>2234.00</ele>
	<time>2023-08-07T09:36:42.000Z</time>
</trkpt>
<trkpt lat="46.1252070" lon="10.5021480">
	<ele>2234.00</ele>
	<time>2023-08-07T09:36:43.000Z</time>
</trkpt>
<trkpt lat="46.1252130" lon="10.5021530">
	<ele>2234.00</ele>
	<time>2023-08-07T09:36:44.000Z</time>
</trkpt>
<trkpt lat="46.1252190" lon="10.5021550">
	<ele>2234.00</ele>
	<time>2023-08-07T09:36:45.000Z</time>
</trkpt>
<trkpt lat="46.1252270" lon="10.5021590">
	<ele>2234.20</ele>
	<time>2023-08-07T09:36:46.000Z</time>
</trkpt>
<trkpt lat="46.1252320" lon="10.5021620">
	<ele>2234.20</ele>
	<time>2023-08-07T09:36:47.000Z</time>
</trkpt>
<trkpt lat="46.1252390" lon="10.5021630">
	<ele>2234.40</ele>
	<time>2023-08-07T09:36:48.000Z</time>
</trkpt>
<trkpt lat="46.1252450" lon="10.5021620">
	<ele>2234.40</ele>
	<time>2023-08-07T09:36:49.000Z</time>
</trkpt>
<trkpt lat="46.1252510" lon="10.5021650">
	<ele>2234.40</ele>
	<time>2023-08-07T09:36:50.000Z</time>
</trkpt>
<trkpt lat="46.1252570" lon="10.5021690">
	<ele>2234.80</ele>
	<time>2023-08-07T09:36:51.000Z</time>
</trkpt>
<trkpt lat="46.1252600" lon="10.5021730">
	<ele>2234.80</ele>
	<time>2023-08-07T09:36:52.000Z</time>
</trkpt>
<trkpt lat="46.1252660" lon="10.5021770">
	<ele>2235.00</ele>
	<time>2023-08-07T09:36:53.000Z</time>
</trkpt>
<trkpt lat="46.1252690" lon="10.5021890">
	<ele>2235.00</ele>
	<time>2023-08-07T09:36:54.000Z</time>
</trkpt>
<trkpt lat="46.1252700" lon="10.5021990">
	<ele>2235.20</ele>
	<time>2023-08-07T09:36:55.000Z</time>
</trkpt>
<trkpt lat="46.1252730" lon="10.5022040">
	<ele>2235.40</ele>
	<time>2023-08-07T09:36:56.000Z</time>
</trkpt>
<trkpt lat="46.1252750" lon="10.5022060">
	<ele>2235.60</ele>
	<time>2023-08-07T09:36:57.000Z</time>
</trkpt>
<trkpt lat="46.1252800" lon="10.5022070">
	<ele>2235.60</ele>
	<time>2023-08-07T09:36:58.000Z</time>
</trkpt>
<trkpt lat="46.1252860" lon="10.5022080">
	<ele>2235.60</ele>
	<time>2023-08-07T09:36:59.000Z</time>
</trkpt>
<trkpt lat="46.1252920" lon="10.5022070">
	<ele>2235.80</ele>
	<time>2023-08-07T09:37:00.000Z</time>
</trkpt>
<trkpt lat="46.1252970" lon="10.5022080">
	<ele>2235.80</ele>
	<time>2023-08-07T09:37:01.000Z</time>
</trkpt>
<trkpt lat="46.1253000" lon="10.5022110">
	<ele>2236.00</ele>
	<time>2023-08-07T09:37:02.000Z</time>
</trkpt>
<trkpt lat="46.1253020" lon="10.5022150">
	<ele>2236.00</ele>
	<time>2023-08-07T09:37:03.000Z</time>
</trkpt>
<trkpt lat="46.1253080" lon="10.5022140">
	<ele>2236.00</ele>
	<time>2023-08-07T09:37:04.000Z</time>
</trkpt>
<trkpt lat="46.1253130" lon="10.5022090">
	<ele>2236.00</ele>
	<time>2023-08-07T09:37:05.000Z</time>
</trkpt>
<trkpt lat="46.1253160" lon="10.5022000">
	<ele>2236.20</ele>
	<time>2023-08-07T09:37:06.000Z</time>
</trkpt>
<trkpt lat="46.1253210" lon="10.5021920">
	<ele>2236.20</ele>
	<time>2023-08-07T09:37:07.000Z</time>
</trkpt>
<trkpt lat="46.1253230" lon="10.5021830">
	<ele>2236.20</ele>
	<time>2023-08-07T09:37:08.000Z</time>
</trkpt>
<trkpt lat="46.1253280" lon="10.5021790">
	<ele>2236.40</ele>
	<time>2023-08-07T09:37:09.000Z</time>
</trkpt>
<trkpt lat="46.1253340" lon="10.5021820">
	<ele>2236.40</ele>
	<time>2023-08-07T09:37:10.000Z</time>
</trkpt>
<trkpt lat="46.1253360" lon="10.5021830">
	<ele>2236.40</ele>
	<time>2023-08-07T09:37:11.000Z</time>
</trkpt>
<trkpt lat="46.1253390" lon="10.5021840">
	<ele>2236.40</ele>
	<time>2023-08-07T09:37:12.000Z</time>
</trkpt>
<trkpt lat="46.1253440" lon="10.5021850">
	<ele>2236.40</ele>
	<time>2023-08-07T09:37:13.000Z</time>
</trkpt>
<trkpt lat="46.1253530" lon="10.5021850">
	<ele>2236.60</ele>
	<time>2023-08-07T09:37:14.000Z</time>
</trkpt>
<trkpt lat="46.1253580" lon="10.5021840">
	<ele>2236.80</ele>
	<time>2023-08-07T09:37:15.000Z</time>
</trkpt>
<trkpt lat="46.1253600" lon="10.5021820">
	<ele>2237.00</ele>
	<time>2023-08-07T09:37:16.000Z</time>
</trkpt>
<trkpt lat="46.1253620" lon="10.5021800">
	<ele>2237.20</ele>
	<time>2023-08-07T09:37:17.000Z</time>
</trkpt>
<trkpt lat="46.1253650" lon="10.5021780">
	<ele>2237.40</ele>
	<time>2023-08-07T09:37:18.000Z</time>
</trkpt>
<trkpt lat="46.1253670" lon="10.5021750">
	<ele>2237.60</ele>
	<time>2023-08-07T09:37:19.000Z</time>
</trkpt>
<trkpt lat="46.1253690" lon="10.5021690">
	<ele>2237.80</ele>
	<time>2023-08-07T09:37:20.000Z</time>
</trkpt>
<trkpt lat="46.1253740" lon="10.5021660">
	<ele>2238.00</ele>
	<time>2023-08-07T09:37:21.000Z</time>
</trkpt>
<trkpt lat="46.1253820" lon="10.5021630">
	<ele>2238.20</ele>
	<time>2023-08-07T09:37:22.000Z</time>
</trkpt>
<trkpt lat="46.1253900" lon="10.5021640">
	<ele>2238.40</ele>
	<time>2023-08-07T09:37:23.000Z</time>
</trkpt>
<trkpt lat="46.1253940" lon="10.5021640">
	<ele>2238.60</ele>
	<time>2023-08-07T09:37:24.000Z</time>
</trkpt>
<trkpt lat="46.1253990" lon="10.5021650">
	<ele>2238.60</ele>
	<time>2023-08-07T09:37:25.000Z</time>
</trkpt>
<trkpt lat="46.1254050" lon="10.5021660">
	<ele>2238.80</ele>
	<time>2023-08-07T09:37:26.000Z</time>
</trkpt>
<trkpt lat="46.1254070" lon="10.5021650">
	<ele>2239.40</ele>
	<time>2023-08-07T09:37:27.000Z</time>
</trkpt>
<trkpt lat="46.1254090" lon="10.5021650">
	<ele>2239.80</ele>
	<time>2023-08-07T09:37:28.000Z</time>
</trkpt>
<trkpt lat="46.1254120" lon="10.5021610">
	<ele>2240.20</ele>
	<time>2023-08-07T09:37:29.000Z</time>
</trkpt>
<trkpt lat="46.1254180" lon="10.5021580">
	<ele>2240.40</ele>
	<time>2023-08-07T09:37:30.000Z</time>
</trkpt>
<trkpt lat="46.1254180" lon="10.5021560">
	<ele>2240.60</ele>
	<time>2023-08-07T09:37:31.000Z</time>
</trkpt>
<trkpt lat="46.1254190" lon="10.5021540">
	<ele>2240.80</ele>
	<time>2023-08-07T09:37:32.000Z</time>
</trkpt>
<trkpt lat="46.1254200" lon="10.5021500">
	<ele>2241.00</ele>
	<time>2023-08-07T09:37:33.000Z</time>
</trkpt>
<trkpt lat="46.1254210" lon="10.5021470">
	<ele>2241.00</ele>
	<time>2023-08-07T09:37:34.000Z</time>
</trkpt>
<trkpt lat="46.1254230" lon="10.5021440">
	<ele>2241.20</ele>
	<time>2023-08-07T09:37:35.000Z</time>
</trkpt>
<trkpt lat="46.1254250" lon="10.5021410">
	<ele>2241.20</ele>
	<time>2023-08-07T09:37:36.000Z</time>
</trkpt>
<trkpt lat="46.1254300" lon="10.5021330">
	<ele>2241.20</ele>
	<time>2023-08-07T09:37:37.000Z</time>
</trkpt>
<trkpt lat="46.1254360" lon="10.5021280">
	<ele>2241.20</ele>
	<time>2023-08-07T09:37:38.000Z</time>
</trkpt>
<trkpt lat="46.1254400" lon="10.5021260">
	<ele>2241.20</ele>
	<time>2023-08-07T09:37:39.000Z</time>
</trkpt>
<trkpt lat="46.1254440" lon="10.5021240">
	<ele>2241.20</ele>
	<time>2023-08-07T09:37:40.000Z</time>
</trkpt>
<trkpt lat="46.1254500" lon="10.5021230">
	<ele>2241.20</ele>
	<time>2023-08-07T09:37:41.000Z</time>
</trkpt>
<trkpt lat="46.1254540" lon="10.5021220">
	<ele>2241.20</ele>
	<time>2023-08-07T09:37:42.000Z</time>
</trkpt>
<trkpt lat="46.1254560" lon="10.5021160">
	<ele>2241.20</ele>
	<time>2023-08-07T09:37:43.000Z</time>
</trkpt>
<trkpt lat="46.1254570" lon="10.5021120">
	<ele>2241.20</ele>
	<time>2023-08-07T09:37:44.000Z</time>
</trkpt>
<trkpt lat="46.1254580" lon="10.5021080">
	<ele>2241.40</ele>
	<time>2023-08-07T09:37:45.000Z</time>
</trkpt>
<trkpt lat="46.1254590" lon="10.5021040">
	<ele>2241.40</ele>
	<time>2023-08-07T09:37:46.000Z</time>
</trkpt>
<trkpt lat="46.1254620" lon="10.5021000">
	<ele>2241.40</ele>
	<time>2023-08-07T09:37:47.000Z</time>
</trkpt>
<trkpt lat="46.1254650" lon="10.5020960">
	<ele>2241.40</ele>
	<time>2023-08-07T09:37:48.000Z</time>
</trkpt>
<trkpt lat="46.1254650" lon="10.5020980">
	<ele>2241.60</ele>
	<time>2023-08-07T09:37:49.000Z</time>
</trkpt>
<trkpt lat="46.1254650" lon="10.5021010">
	<ele>2241.80</ele>
	<time>2023-08-07T09:37:50.000Z</time>
</trkpt>
<trkpt lat="46.1254710" lon="10.5020960">
	<ele>2242.00</ele>
	<time>2023-08-07T09:37:51.000Z</time>
</trkpt>
<trkpt lat="46.1254740" lon="10.5020930">
	<ele>2242.00</ele>
	<time>2023-08-07T09:37:52.000Z</time>
</trkpt>
<trkpt lat="46.1254780" lon="10.5020900">
	<ele>2242.00</ele>
	<time>2023-08-07T09:37:53.000Z</time>
</trkpt>
<trkpt lat="46.1254800" lon="10.5020850">
	<ele>2242.00</ele>
	<time>2023-08-07T09:37:54.000Z</time>
</trkpt>
<trkpt lat="46.1254840" lon="10.5020780">
	<ele>2242.00</ele>
	<time>2023-08-07T09:37:55.000Z</time>
</trkpt>
<trkpt lat="46.1254860" lon="10.5020710">
	<ele>2242.00</ele>
	<time>2023-08-07T09:37:56.000Z</time>
</trkpt>
<trkpt lat="46.1254880" lon="10.5020660">
	<ele>2242.00</ele>
	<time>2023-08-07T09:37:57.000Z</time>
</trkpt>
<trkpt lat="46.1254870" lon="10.5020600">
	<ele>2242.00</ele>
	<time>2023-08-07T09:37:58.000Z</time>
</trkpt>
<trkpt lat="46.1254900" lon="10.5020550">
	<ele>2242.00</ele>
	<time>2023-08-07T09:37:59.000Z</time>
</trkpt>
<trkpt lat="46.1254920" lon="10.5020490">
	<ele>2242.20</ele>
	<time>2023-08-07T09:38:00.000Z</time>
</trkpt>
<trkpt lat="46.1254910" lon="10.5020460">
	<ele>2242.40</ele>
	<time>2023-08-07T09:38:01.000Z</time>
</trkpt>
<trkpt lat="46.1254910" lon="10.5020420">
	<ele>2242.40</ele>
	<time>2023-08-07T09:38:02.000Z</time>
</trkpt>
<trkpt lat="46.1254910" lon="10.5020360">
	<ele>2242.60</ele>
	<time>2023-08-07T09:38:03.000Z</time>
</trkpt>
<trkpt lat="46.1254880" lon="10.5020280">
	<ele>2242.60</ele>
	<time>2023-08-07T09:38:04.000Z</time>
</trkpt>
<trkpt lat="46.1254910" lon="10.5020190">
	<ele>2242.60</ele>
	<time>2023-08-07T09:38:05.000Z</time>
</trkpt>
<trkpt lat="46.1254950" lon="10.5020090">
	<ele>2242.60</ele>
	<time>2023-08-07T09:38:06.000Z</time>
</trkpt>
<trkpt lat="46.1254970" lon="10.5020030">
	<ele>2242.60</ele>
	<time>2023-08-07T09:38:07.000Z</time>
</trkpt>
<trkpt lat="46.1254980" lon="10.5020000">
	<ele>2242.80</ele>
	<time>2023-08-07T09:38:08.000Z</time>
</trkpt>
<trkpt lat="46.1255050" lon="10.5019940">
	<ele>2242.80</ele>
	<time>2023-08-07T09:38:09.000Z</time>
</trkpt>
<trkpt lat="46.1255140" lon="10.5019860">
	<ele>2243.00</ele>
	<time>2023-08-07T09:38:10.000Z</time>
</trkpt>
<trkpt lat="46.1255220" lon="10.5019820">
	<ele>2243.20</ele>
	<time>2023-08-07T09:38:11.000Z</time>
</trkpt>
<trkpt lat="46.1255250" lon="10.5019790">
	<ele>2243.40</ele>
	<time>2023-08-07T09:38:12.000Z</time>
</trkpt>
<trkpt lat="46.1255270" lon="10.5019790">
	<ele>2243.60</ele>
	<time>2023-08-07T09:38:13.000Z</time>
</trkpt>
<trkpt lat="46.1255280" lon="10.5019800">
	<ele>2243.80</ele>
	<time>2023-08-07T09:38:14.000Z</time>
</trkpt>
<trkpt lat="46.1255280" lon="10.5019780">
	<ele>2243.80</ele>
	<time>2023-08-07T09:38:15.000Z</time>
</trkpt>
<trkpt lat="46.1255280" lon="10.5019730">
	<ele>2243.80</ele>
	<time>2023-08-07T09:38:16.000Z</time>
</trkpt>
<trkpt lat="46.1255280" lon="10.5019680">
	<ele>2243.80</ele>
	<time>2023-08-07T09:38:17.000Z</time>
</trkpt>
<trkpt lat="46.1255280" lon="10.5019650">
	<ele>2244.00</ele>
	<time>2023-08-07T09:38:18.000Z</time>
</trkpt>
<trkpt lat="46.1255270" lon="10.5019610">
	<ele>2244.00</ele>
	<time>2023-08-07T09:38:19.000Z</time>
</trkpt>
<trkpt lat="46.1255280" lon="10.5019580">
	<ele>2244.00</ele>
	<time>2023-08-07T09:38:20.000Z</time>
</trkpt>
<trkpt lat="46.1255290" lon="10.5019590">
	<ele>2244.20</ele>
	<time>2023-08-07T09:38:21.000Z</time>
</trkpt>
<trkpt lat="46.1255300" lon="10.5019610">
	<ele>2244.20</ele>
	<time>2023-08-07T09:38:22.000Z</time>
</trkpt>
<trkpt lat="46.1255340" lon="10.5019580">
	<ele>2244.20</ele>
	<time>2023-08-07T09:38:23.000Z</time>
</trkpt>
<trkpt lat="46.1255390" lon="10.5019550">
	<ele>2244.20</ele>
	<time>2023-08-07T09:38:24.000Z</time>
</trkpt>
<trkpt lat="46.1255450" lon="10.5019570">
	<ele>2244.40</ele>
	<time>2023-08-07T09:38:25.000Z</time>
</trkpt>
<trkpt lat="46.1255520" lon="10.5019580">
	<ele>2244.60</ele>
	<time>2023-08-07T09:38:26.000Z</time>
</trkpt>
<trkpt lat="46.1255550" lon="10.5019630">
	<ele>2244.80</ele>
	<time>2023-08-07T09:38:27.000Z</time>
</trkpt>
<trkpt lat="46.1255590" lon="10.5019670">
	<ele>2244.80</ele>
	<time>2023-08-07T09:38:28.000Z</time>
</trkpt>
<trkpt lat="46.1255620" lon="10.5019750">
	<ele>2244.80</ele>
	<time>2023-08-07T09:38:29.000Z</time>
</trkpt>
<trkpt lat="46.1255570" lon="10.5019850">
	<ele>2244.80</ele>
	<time>2023-08-07T09:38:30.000Z</time>
</trkpt>
<trkpt lat="46.1255580" lon="10.5019890">
	<ele>2244.80</ele>
	<time>2023-08-07T09:38:31.000Z</time>
</trkpt>
<trkpt lat="46.1255630" lon="10.5019910">
	<ele>2244.80</ele>
	<time>2023-08-07T09:38:32.000Z</time>
</trkpt>
<trkpt lat="46.1255660" lon="10.5019940">
	<ele>2245.00</ele>
	<time>2023-08-07T09:38:33.000Z</time>
</trkpt>
<trkpt lat="46.1255730" lon="10.5019940">
	<ele>2245.20</ele>
	<time>2023-08-07T09:38:34.000Z</time>
</trkpt>
<trkpt lat="46.1255790" lon="10.5019970">
	<ele>2245.40</ele>
	<time>2023-08-07T09:38:35.000Z</time>
</trkpt>
<trkpt lat="46.1255830" lon="10.5020000">
	<ele>2245.60</ele>
	<time>2023-08-07T09:38:36.000Z</time>
</trkpt>
<trkpt lat="46.1255840" lon="10.5020010">
	<ele>2245.80</ele>
	<time>2023-08-07T09:38:37.000Z</time>
</trkpt>
<trkpt lat="46.1255860" lon="10.5020020">
	<ele>2246.00</ele>
	<time>2023-08-07T09:38:38.000Z</time>
</trkpt>
<trkpt lat="46.1255880" lon="10.5020030">
	<ele>2246.00</ele>
	<time>2023-08-07T09:38:39.000Z</time>
</trkpt>
<trkpt lat="46.1255900" lon="10.5020030">
	<ele>2246.20</ele>
	<time>2023-08-07T09:38:40.000Z</time>
</trkpt>
<trkpt lat="46.1255930" lon="10.5020040">
	<ele>2246.40</ele>
	<time>2023-08-07T09:38:41.000Z</time>
</trkpt>
<trkpt lat="46.1255960" lon="10.5020050">
	<ele>2246.40</ele>
	<time>2023-08-07T09:38:42.000Z</time>
</trkpt>
<trkpt lat="46.1256010" lon="10.5020040">
	<ele>2246.60</ele>
	<time>2023-08-07T09:38:43.000Z</time>
</trkpt>
<trkpt lat="46.1256030" lon="10.5020040">
	<ele>2246.60</ele>
	<time>2023-08-07T09:38:44.000Z</time>
</trkpt>
<trkpt lat="46.1256070" lon="10.5020030">
	<ele>2246.60</ele>
	<time>2023-08-07T09:38:45.000Z</time>
</trkpt>
<trkpt lat="46.1256100" lon="10.5020030">
	<ele>2246.80</ele>
	<time>2023-08-07T09:38:46.000Z</time>
</trkpt>
<trkpt lat="46.1256110" lon="10.5020040">
	<ele>2246.80</ele>
	<time>2023-08-07T09:38:47.000Z</time>
</trkpt>
<trkpt lat="46.1256200" lon="10.5020080">
	<ele>2246.80</ele>
	<time>2023-08-07T09:38:48.000Z</time>
</trkpt>
<trkpt lat="46.1256270" lon="10.5020120">
	<ele>2247.00</ele>
	<time>2023-08-07T09:38:49.000Z</time>
</trkpt>
<trkpt lat="46.1256260" lon="10.5020180">
	<ele>2247.20</ele>
	<time>2023-08-07T09:38:50.000Z</time>
</trkpt>
<trkpt lat="46.1256250" lon="10.5020220">
	<ele>2247.20</ele>
	<time>2023-08-07T09:38:51.000Z</time>
</trkpt>
<trkpt lat="46.1256300" lon="10.5020210">
	<ele>2247.40</ele>
	<time>2023-08-07T09:38:52.000Z</time>
</trkpt>
<trkpt lat="46.1256350" lon="10.5020180">
	<ele>2247.40</ele>
	<time>2023-08-07T09:38:53.000Z</time>
</trkpt>
<trkpt lat="46.1256400" lon="10.5020170">
	<ele>2247.60</ele>
	<time>2023-08-07T09:38:54.000Z</time>
</trkpt>
<trkpt lat="46.1256440" lon="10.5020160">
	<ele>2247.60</ele>
	<time>2023-08-07T09:38:55.000Z</time>
</trkpt>
<trkpt lat="46.1256460" lon="10.5020150">
	<ele>2247.60</ele>
	<time>2023-08-07T09:38:56.000Z</time>
</trkpt>
<trkpt lat="46.1256530" lon="10.5020120">
	<ele>2248.00</ele>
	<time>2023-08-07T09:38:57.000Z</time>
</trkpt>
<trkpt lat="46.1256560" lon="10.5020110">
	<ele>2248.20</ele>
	<time>2023-08-07T09:38:58.000Z</time>
</trkpt>
<trkpt lat="46.1256560" lon="10.5020060">
	<ele>2248.40</ele>
	<time>2023-08-07T09:38:59.000Z</time>
</trkpt>
<trkpt lat="46.1256580" lon="10.5020030">
	<ele>2248.60</ele>
	<time>2023-08-07T09:39:00.000Z</time>
</trkpt>
<trkpt lat="46.1256580" lon="10.5019990">
	<ele>2248.60</ele>
	<time>2023-08-07T09:39:01.000Z</time>
</trkpt>
<trkpt lat="46.1256570" lon="10.5019970">
	<ele>2248.80</ele>
	<time>2023-08-07T09:39:02.000Z</time>
</trkpt>
<trkpt lat="46.1256570" lon="10.5019950">
	<ele>2249.00</ele>
	<time>2023-08-07T09:39:03.000Z</time>
</trkpt>
<trkpt lat="46.1256580" lon="10.5019870">
	<ele>2249.20</ele>
	<time>2023-08-07T09:39:04.000Z</time>
</trkpt>
<trkpt lat="46.1256580" lon="10.5019830">
	<ele>2249.20</ele>
	<time>2023-08-07T09:39:05.000Z</time>
</trkpt>
<trkpt lat="46.1256580" lon="10.5019800">
	<ele>2249.20</ele>
	<time>2023-08-07T09:39:06.000Z</time>
</trkpt>
<trkpt lat="46.1256620" lon="10.5019730">
	<ele>2249.40</ele>
	<time>2023-08-07T09:39:07.000Z</time>
</trkpt>
<trkpt lat="46.1256630" lon="10.5019640">
	<ele>2249.40</ele>
	<time>2023-08-07T09:39:08.000Z</time>
</trkpt>
<trkpt lat="46.1256670" lon="10.5019510">
	<ele>2249.60</ele>
	<time>2023-08-07T09:39:09.000Z</time>
</trkpt>
<trkpt lat="46.1256700" lon="10.5019460">
	<ele>2249.60</ele>
	<time>2023-08-07T09:39:10.000Z</time>
</trkpt>
<trkpt lat="46.1256680" lon="10.5019430">
	<ele>2249.60</ele>
	<time>2023-08-07T09:39:11.000Z</time>
</trkpt>
<trkpt lat="46.1256680" lon="10.5019350">
	<ele>2249.60</ele>
	<time>2023-08-07T09:39:12.000Z</time>
</trkpt>
<trkpt lat="46.1256660" lon="10.5019250">
	<ele>2249.80</ele>
	<time>2023-08-07T09:39:13.000Z</time>
</trkpt>
<trkpt lat="46.1256700" lon="10.5019160">
	<ele>2249.80</ele>
	<time>2023-08-07T09:39:14.000Z</time>
</trkpt>
<trkpt lat="46.1256720" lon="10.5019100">
	<ele>2249.80</ele>
	<time>2023-08-07T09:39:15.000Z</time>
</trkpt>
<trkpt lat="46.1256790" lon="10.5019070">
	<ele>2249.80</ele>
	<time>2023-08-07T09:39:16.000Z</time>
</trkpt>
<trkpt lat="46.1256840" lon="10.5019050">
	<ele>2249.80</ele>
	<time>2023-08-07T09:39:17.000Z</time>
</trkpt>
<trkpt lat="46.1256860" lon="10.5019040">
	<ele>2249.80</ele>
	<time>2023-08-07T09:39:18.000Z</time>
</trkpt>
<trkpt lat="46.1256870" lon="10.5018960">
	<ele>2250.00</ele>
	<time>2023-08-07T09:39:19.000Z</time>
</trkpt>
<trkpt lat="46.1256890" lon="10.5018910">
	<ele>2250.20</ele>
	<time>2023-08-07T09:39:20.000Z</time>
</trkpt>
<trkpt lat="46.1256930" lon="10.5018840">
	<ele>2250.20</ele>
	<time>2023-08-07T09:39:21.000Z</time>
</trkpt>
<trkpt lat="46.1256950" lon="10.5018810">
	<ele>2250.40</ele>
	<time>2023-08-07T09:39:22.000Z</time>
</trkpt>
<trkpt lat="46.1256960" lon="10.5018780">
	<ele>2250.40</ele>
	<time>2023-08-07T09:39:23.000Z</time>
</trkpt>
<trkpt lat="46.1256960" lon="10.5018720">
	<ele>2250.60</ele>
	<time>2023-08-07T09:39:24.000Z</time>
</trkpt>
<trkpt lat="46.1256960" lon="10.5018630">
	<ele>2250.80</ele>
	<time>2023-08-07T09:39:25.000Z</time>
</trkpt>
<trkpt lat="46.1256950" lon="10.5018550">
	<ele>2251.20</ele>
	<time>2023-08-07T09:39:26.000Z</time>
</trkpt>
<trkpt lat="46.1256930" lon="10.5018500">
	<ele>2251.40</ele>
	<time>2023-08-07T09:39:27.000Z</time>
</trkpt>
<trkpt lat="46.1256920" lon="10.5018450">
	<ele>2251.60</ele>
	<time>2023-08-07T09:39:28.000Z</time>
</trkpt>
<trkpt lat="46.1256910" lon="10.5018350">
	<ele>2251.80</ele>
	<time>2023-08-07T09:39:29.000Z</time>
</trkpt>
<trkpt lat="46.1256880" lon="10.5018250">
	<ele>2251.80</ele>
	<time>2023-08-07T09:39:30.000Z</time>
</trkpt>
<trkpt lat="46.1256900" lon="10.5018140">
	<ele>2251.80</ele>
	<time>2023-08-07T09:39:31.000Z</time>
</trkpt>
<trkpt lat="46.1256910" lon="10.5018050">
	<ele>2251.80</ele>
	<time>2023-08-07T09:39:32.000Z</time>
</trkpt>
<trkpt lat="46.1256940" lon="10.5018010">
	<ele>2252.00</ele>
	<time>2023-08-07T09:39:33.000Z</time>
</trkpt>
<trkpt lat="46.1256970" lon="10.5018010">
	<ele>2252.00</ele>
	<time>2023-08-07T09:39:34.000Z</time>
</trkpt>
<trkpt lat="46.1257000" lon="10.5018000">
	<ele>2252.20</ele>
	<time>2023-08-07T09:39:35.000Z</time>
</trkpt>
<trkpt lat="46.1257030" lon="10.5017990">
	<ele>2252.40</ele>
	<time>2023-08-07T09:39:36.000Z</time>
</trkpt>
<trkpt lat="46.1257060" lon="10.5017980">
	<ele>2252.60</ele>
	<time>2023-08-07T09:39:37.000Z</time>
</trkpt>
<trkpt lat="46.1257070" lon="10.5017980">
	<ele>2252.80</ele>
	<time>2023-08-07T09:39:38.000Z</time>
</trkpt>
<trkpt lat="46.1257100" lon="10.5018010">
	<ele>2252.80</ele>
	<time>2023-08-07T09:39:39.000Z</time>
</trkpt>
<trkpt lat="46.1257130" lon="10.5018010">
	<ele>2252.80</ele>
	<time>2023-08-07T09:39:40.000Z</time>
</trkpt>
<trkpt lat="46.1257170" lon="10.5018010">
	<ele>2253.20</ele>
	<time>2023-08-07T09:39:41.000Z</time>
</trkpt>
<trkpt lat="46.1257180" lon="10.5017970">
	<ele>2253.20</ele>
	<time>2023-08-07T09:39:42.000Z</time>
</trkpt>
<trkpt lat="46.1257190" lon="10.5017960">
	<ele>2253.20</ele>
	<time>2023-08-07T09:39:43.000Z</time>
</trkpt>
<trkpt lat="46.1257210" lon="10.5017920">
	<ele>2253.40</ele>
	<time>2023-08-07T09:39:44.000Z</time>
</trkpt>
<trkpt lat="46.1257250" lon="10.5017850">
	<ele>2253.60</ele>
	<time>2023-08-07T09:39:45.000Z</time>
</trkpt>
<trkpt lat="46.1257310" lon="10.5017820">
	<ele>2253.80</ele>
	<time>2023-08-07T09:39:46.000Z</time>
</trkpt>
<trkpt lat="46.1257350" lon="10.5017800">
	<ele>2253.80</ele>
	<time>2023-08-07T09:39:47.000Z</time>
</trkpt>
<trkpt lat="46.1257400" lon="10.5017820">
	<ele>2253.80</ele>
	<time>2023-08-07T09:39:48.000Z</time>
</trkpt>
<trkpt lat="46.1257460" lon="10.5017870">
	<ele>2253.80</ele>
	<time>2023-08-07T09:39:49.000Z</time>
</trkpt>
<trkpt lat="46.1257540" lon="10.5017920">
	<ele>2253.80</ele>
	<time>2023-08-07T09:39:50.000Z</time>
</trkpt>
<trkpt lat="46.1257590" lon="10.5017960">
	<ele>2254.00</ele>
	<time>2023-08-07T09:39:51.000Z</time>
</trkpt>
<trkpt lat="46.1257620" lon="10.5017980">
	<ele>2254.00</ele>
	<time>2023-08-07T09:39:52.000Z</time>
</trkpt>
<trkpt lat="46.1257650" lon="10.5017990">
	<ele>2254.00</ele>
	<time>2023-08-07T09:39:53.000Z</time>
</trkpt>
<trkpt lat="46.1257690" lon="10.5017970">
	<ele>2254.20</ele>
	<time>2023-08-07T09:39:54.000Z</time>
</trkpt>
<trkpt lat="46.1257730" lon="10.5017950">
	<ele>2254.40</ele>
	<time>2023-08-07T09:39:55.000Z</time>
</trkpt>
<trkpt lat="46.1257760" lon="10.5017940">
	<ele>2254.40</ele>
	<time>2023-08-07T09:39:56.000Z</time>
</trkpt>
<trkpt lat="46.1257770" lon="10.5017940">
	<ele>2254.60</ele>
	<time>2023-08-07T09:39:57.000Z</time>
</trkpt>
<trkpt lat="46.1257850" lon="10.5017930">
	<ele>2254.60</ele>
	<time>2023-08-07T09:39:58.000Z</time>
</trkpt>
<trkpt lat="46.1257930" lon="10.5017910">
	<ele>2254.60</ele>
	<time>2023-08-07T09:39:59.000Z</time>
</trkpt>
<trkpt lat="46.1257960" lon="10.5017890">
	<ele>2254.60</ele>
	<time>2023-08-07T09:40:00.000Z</time>
</trkpt>
<trkpt lat="46.1257980" lon="10.5017850">
	<ele>2254.80</ele>
	<time>2023-08-07T09:40:01.000Z</time>
</trkpt>
<trkpt lat="46.1258010" lon="10.5017850">
	<ele>2254.80</ele>
	<time>2023-08-07T09:40:02.000Z</time>
</trkpt>
<trkpt lat="46.1258050" lon="10.5017870">
	<ele>2255.00</ele>
	<time>2023-08-07T09:40:03.000Z</time>
</trkpt>
<trkpt lat="46.1258110" lon="10.5017870">
	<ele>2255.40</ele>
	<time>2023-08-07T09:40:04.000Z</time>
</trkpt>
<trkpt lat="46.1258160" lon="10.5017920">
	<ele>2255.40</ele>
	<time>2023-08-07T09:40:05.000Z</time>
</trkpt>
<trkpt lat="46.1258190" lon="10.5017950">
	<ele>2255.60</ele>
	<time>2023-08-07T09:40:06.000Z</time>
</trkpt>
<trkpt lat="46.1258210" lon="10.5018000">
	<ele>2255.60</ele>
	<time>2023-08-07T09:40:07.000Z</time>
</trkpt>
<trkpt lat="46.1258230" lon="10.5018010">
	<ele>2255.80</ele>
	<time>2023-08-07T09:40:08.000Z</time>
</trkpt>
<trkpt lat="46.1258250" lon="10.5018000">
	<ele>2255.80</ele>
	<time>2023-08-07T09:40:09.000Z</time>
</trkpt>
<trkpt lat="46.1258260" lon="10.5017970">
	<ele>2255.80</ele>
	<time>2023-08-07T09:40:10.000Z</time>
</trkpt>
<trkpt lat="46.1258280" lon="10.5017940">
	<ele>2255.80</ele>
	<time>2023-08-07T09:40:11.000Z</time>
</trkpt>
<trkpt lat="46.1258340" lon="10.5017900">
	<ele>2255.80</ele>
	<time>2023-08-07T09:40:12.000Z</time>
</trkpt>
<trkpt lat="46.1258380" lon="10.5017900">
	<ele>2256.00</ele>
	<time>2023-08-07T09:40:13.000Z</time>
</trkpt>
<trkpt lat="46.1258420" lon="10.5017890">
	<ele>2256.20</ele>
	<time>2023-08-07T09:40:14.000Z</time>
</trkpt>
<trkpt lat="46.1258440" lon="10.5017920">
	<ele>2256.40</ele>
	<time>2023-08-07T09:40:15.000Z</time>
</trkpt>
<trkpt lat="46.1258470" lon="10.5017880">
	<ele>2256.40</ele>
	<time>2023-08-07T09:40:16.000Z</time>
</trkpt>
<trkpt lat="46.1258520" lon="10.5017830">
	<ele>2256.60</ele>
	<time>2023-08-07T09:40:17.000Z</time>
</trkpt>
<trkpt lat="46.1258580" lon="10.5017810">
	<ele>2256.80</ele>
	<time>2023-08-07T09:40:18.000Z</time>
</trkpt>
<trkpt lat="46.1258630" lon="10.5017800">
	<ele>2257.00</ele>
	<time>2023-08-07T09:40:19.000Z</time>
</trkpt>
<trkpt lat="46.1258660" lon="10.5017790">
	<ele>2257.00</ele>
	<time>2023-08-07T09:40:20.000Z</time>
</trkpt>
<trkpt lat="46.1258660" lon="10.5017770">
	<ele>2257.20</ele>
	<time>2023-08-07T09:40:21.000Z</time>
</trkpt>
<trkpt lat="46.1258670" lon="10.5017750">
	<ele>2257.20</ele>
	<time>2023-08-07T09:40:22.000Z</time>
</trkpt>
<trkpt lat="46.1258690" lon="10.5017750">
	<ele>2257.20</ele>
	<time>2023-08-07T09:40:23.000Z</time>
</trkpt>
<trkpt lat="46.1258700" lon="10.5017780">
	<ele>2257.20</ele>
	<time>2023-08-07T09:40:24.000Z</time>
</trkpt>
<trkpt lat="46.1258730" lon="10.5017780">
	<ele>2257.40</ele>
	<time>2023-08-07T09:40:25.000Z</time>
</trkpt>
<trkpt lat="46.1258800" lon="10.5017790">
	<ele>2257.40</ele>
	<time>2023-08-07T09:40:26.000Z</time>
</trkpt>
<trkpt lat="46.1258840" lon="10.5017830">
	<ele>2257.60</ele>
	<time>2023-08-07T09:40:27.000Z</time>
</trkpt>
<trkpt lat="46.1258910" lon="10.5017850">
	<ele>2257.80</ele>
	<time>2023-08-07T09:40:28.000Z</time>
</trkpt>
<trkpt lat="46.1258950" lon="10.5017870">
	<ele>2258.00</ele>
	<time>2023-08-07T09:40:29.000Z</time>
</trkpt>
<trkpt lat="46.1258970" lon="10.5017870">
	<ele>2258.20</ele>
	<time>2023-08-07T09:40:30.000Z</time>
</trkpt>
<trkpt lat="46.1259000" lon="10.5017850">
	<ele>2258.40</ele>
	<time>2023-08-07T09:40:31.000Z</time>
</trkpt>
<trkpt lat="46.1259020" lon="10.5017830">
	<ele>2258.60</ele>
	<time>2023-08-07T09:40:32.000Z</time>
</trkpt>
<trkpt lat="46.1259040" lon="10.5017820">
	<ele>2258.80</ele>
	<time>2023-08-07T09:40:33.000Z</time>
</trkpt>
<trkpt lat="46.1259050" lon="10.5017800">
	<ele>2258.80</ele>
	<time>2023-08-07T09:40:34.000Z</time>
</trkpt>
<trkpt lat="46.1259070" lon="10.5017770">
	<ele>2259.00</ele>
	<time>2023-08-07T09:40:35.000Z</time>
</trkpt>
<trkpt lat="46.1259070" lon="10.5017720">
	<ele>2259.00</ele>
	<time>2023-08-07T09:40:36.000Z</time>
</trkpt>
<trkpt lat="46.1259080" lon="10.5017700">
	<ele>2259.40</ele>
	<time>2023-08-07T09:40:37.000Z</time>
</trkpt>
<trkpt lat="46.1259110" lon="10.5017680">
	<ele>2259.40</ele>
	<time>2023-08-07T09:40:38.000Z</time>
</trkpt>
<trkpt lat="46.1259120" lon="10.5017650">
	<ele>2259.60</ele>
	<time>2023-08-07T09:40:39.000Z</time>
</trkpt>
<trkpt lat="46.1259140" lon="10.5017610">
	<ele>2259.60</ele>
	<time>2023-08-07T09:40:40.000Z</time>
</trkpt>
<trkpt lat="46.1259150" lon="10.5017590">
	<ele>2259.60</ele>
	<time>2023-08-07T09:40:41.000Z</time>
</trkpt>
<trkpt lat="46.1259160" lon="10.5017580">
	<ele>2259.80</ele>
	<time>2023-08-07T09:40:42.000Z</time>
</trkpt>
<trkpt lat="46.1259160" lon="10.5017570">
	<ele>2259.80</ele>
	<time>2023-08-07T09:40:43.000Z</time>
</trkpt>
<trkpt lat="46.1259200" lon="10.5017530">
	<ele>2260.20</ele>
	<time>2023-08-07T09:40:44.000Z</time>
</trkpt>
<trkpt lat="46.1259240" lon="10.5017510">
	<ele>2260.20</ele>
	<time>2023-08-07T09:40:45.000Z</time>
</trkpt>
<trkpt lat="46.1259260" lon="10.5017510">
	<ele>2260.40</ele>
	<time>2023-08-07T09:40:46.000Z</time>
</trkpt>
<trkpt lat="46.1259270" lon="10.5017510">
	<ele>2260.40</ele>
	<time>2023-08-07T09:40:47.000Z</time>
</trkpt>
<trkpt lat="46.1259290" lon="10.5017460">
	<ele>2260.40</ele>
	<time>2023-08-07T09:40:48.000Z</time>
</trkpt>
<trkpt lat="46.1259340" lon="10.5017380">
	<ele>2260.40</ele>
	<time>2023-08-07T09:40:49.000Z</time>
</trkpt>
<trkpt lat="46.1259370" lon="10.5017280">
	<ele>2260.40</ele>
	<time>2023-08-07T09:40:50.000Z</time>
</trkpt>
<trkpt lat="46.1259390" lon="10.5017160">
	<ele>2260.60</ele>
	<time>2023-08-07T09:40:51.000Z</time>
</trkpt>
<trkpt lat="46.1259450" lon="10.5017060">
	<ele>2260.80</ele>
	<time>2023-08-07T09:40:52.000Z</time>
</trkpt>
<trkpt lat="46.1259530" lon="10.5017000">
	<ele>2260.80</ele>
	<time>2023-08-07T09:40:53.000Z</time>
</trkpt>
<trkpt lat="46.1259570" lon="10.5016980">
	<ele>2260.80</ele>
	<time>2023-08-07T09:40:54.000Z</time>
</trkpt>
<trkpt lat="46.1259590" lon="10.5016990">
	<ele>2260.80</ele>
	<time>2023-08-07T09:40:55.000Z</time>
</trkpt>
<trkpt lat="46.1259620" lon="10.5017010">
	<ele>2260.80</ele>
	<time>2023-08-07T09:40:56.000Z</time>
</trkpt>
<trkpt lat="46.1259690" lon="10.5017010">
	<ele>2260.80</ele>
	<time>2023-08-07T09:40:57.000Z</time>
</trkpt>
<trkpt lat="46.1259720" lon="10.5017000">
	<ele>2260.80</ele>
	<time>2023-08-07T09:40:58.000Z</time>
</trkpt>
<trkpt lat="46.1259760" lon="10.5016940">
	<ele>2260.80</ele>
	<time>2023-08-07T09:40:59.000Z</time>
</trkpt>
<trkpt lat="46.1259790" lon="10.5016910">
	<ele>2261.00</ele>
	<time>2023-08-07T09:41:00.000Z</time>
</trkpt>
<trkpt lat="46.1259840" lon="10.5016870">
	<ele>2261.20</ele>
	<time>2023-08-07T09:41:01.000Z</time>
</trkpt>
<trkpt lat="46.1259880" lon="10.5016820">
	<ele>2261.40</ele>
	<time>2023-08-07T09:41:02.000Z</time>
</trkpt>
<trkpt lat="46.1259940" lon="10.5016780">
	<ele>2261.60</ele>
	<time>2023-08-07T09:41:03.000Z</time>
</trkpt>
<trkpt lat="46.1260000" lon="10.5016760">
	<ele>2261.60</ele>
	<time>2023-08-07T09:41:04.000Z</time>
</trkpt>
<trkpt lat="46.1260060" lon="10.5016760">
	<ele>2261.60</ele>
	<time>2023-08-07T09:41:05.000Z</time>
</trkpt>
<trkpt lat="46.1260110" lon="10.5016720">
	<ele>2261.80</ele>
	<time>2023-08-07T09:41:06.000Z</time>
</trkpt>
<trkpt lat="46.1260140" lon="10.5016620">
	<ele>2262.00</ele>
	<time>2023-08-07T09:41:07.000Z</time>
</trkpt>
<trkpt lat="46.1260150" lon="10.5016550">
	<ele>2262.20</ele>
	<time>2023-08-07T09:41:08.000Z</time>
</trkpt>
<trkpt lat="46.1260140" lon="10.5016500">
	<ele>2262.40</ele>
	<time>2023-08-07T09:41:09.000Z</time>
</trkpt>
<trkpt lat="46.1260110" lon="10.5016450">
	<ele>2262.60</ele>
	<time>2023-08-07T09:41:10.000Z</time>
</trkpt>
<trkpt lat="46.1260110" lon="10.5016400">
	<ele>2262.80</ele>
	<time>2023-08-07T09:41:11.000Z</time>
</trkpt>
<trkpt lat="46.1260100" lon="10.5016320">
	<ele>2262.80</ele>
	<time>2023-08-07T09:41:12.000Z</time>
</trkpt>
<trkpt lat="46.1260100" lon="10.5016270">
	<ele>2263.20</ele>
	<time>2023-08-07T09:41:13.000Z</time>
</trkpt>
<trkpt lat="46.1260100" lon="10.5016250">
	<ele>2263.20</ele>
	<time>2023-08-07T09:41:14.000Z</time>
</trkpt>
<trkpt lat="46.1260090" lon="10.5016220">
	<ele>2263.40</ele>
	<time>2023-08-07T09:41:15.000Z</time>
</trkpt>
<trkpt lat="46.1260070" lon="10.5016190">
	<ele>2263.60</ele>
	<time>2023-08-07T09:41:16.000Z</time>
</trkpt>
<trkpt lat="46.1260060" lon="10.5016150">
	<ele>2263.60</ele>
	<time>2023-08-07T09:41:17.000Z</time>
</trkpt>
<trkpt lat="46.1260060" lon="10.5016080">
	<ele>2263.60</ele>
	<time>2023-08-07T09:41:18.000Z</time>
</trkpt>
<trkpt lat="46.1260050" lon="10.5016040">
	<ele>2263.80</ele>
	<time>2023-08-07T09:41:19.000Z</time>
</trkpt>
<trkpt lat="46.1260040" lon="10.5016020">
	<ele>2263.80</ele>
	<time>2023-08-07T09:41:20.000Z</time>
</trkpt>
<trkpt lat="46.1260010" lon="10.5015990">
	<ele>2264.00</ele>
	<time>2023-08-07T09:41:21.000Z</time>
</trkpt>
<trkpt lat="46.1259990" lon="10.5015930">
	<ele>2264.20</ele>
	<time>2023-08-07T09:41:22.000Z</time>
</trkpt>
<trkpt lat="46.1259980" lon="10.5015870">
	<ele>2264.20</ele>
	<time>2023-08-07T09:41:23.000Z</time>
</trkpt>
<trkpt lat="46.1259960" lon="10.5015810">
	<ele>2264.40</ele>
	<time>2023-08-07T09:41:24.000Z</time>
</trkpt>
<trkpt lat="46.1259940" lon="10.5015760">
	<ele>2264.40</ele>
	<time>2023-08-07T09:41:25.000Z</time>
</trkpt>
<trkpt lat="46.1259920" lon="10.5015700">
	<ele>2264.80</ele>
	<time>2023-08-07T09:41:26.000Z</time>
</trkpt>
<trkpt lat="46.1259940" lon="10.5015640">
	<ele>2265.00</ele>
	<time>2023-08-07T09:41:27.000Z</time>
</trkpt>
<trkpt lat="46.1259940" lon="10.5015580">
	<ele>2265.00</ele>
	<time>2023-08-07T09:41:28.000Z</time>
</trkpt>
<trkpt lat="46.1259950" lon="10.5015510">
	<ele>2265.20</ele>
	<time>2023-08-07T09:41:29.000Z</time>
</trkpt>
<trkpt lat="46.1259950" lon="10.5015450">
	<ele>2265.20</ele>
	<time>2023-08-07T09:41:30.000Z</time>
</trkpt>
<trkpt lat="46.1259950" lon="10.5015420">
	<ele>2265.60</ele>
	<time>2023-08-07T09:41:31.000Z</time>
</trkpt>
<trkpt lat="46.1259950" lon="10.5015370">
	<ele>2265.80</ele>
	<time>2023-08-07T09:41:32.000Z</time>
</trkpt>
<trkpt lat="46.1259920" lon="10.5015370">
	<ele>2266.00</ele>
	<time>2023-08-07T09:41:33.000Z</time>
</trkpt>
<trkpt lat="46.1259920" lon="10.5015350">
	<ele>2266.00</ele>
	<time>2023-08-07T09:41:34.000Z</time>
</trkpt>
<trkpt lat="46.1259910" lon="10.5015310">
	<ele>2266.20</ele>
	<time>2023-08-07T09:41:35.000Z</time>
</trkpt>
<trkpt lat="46.1259890" lon="10.5015250">
	<ele>2266.20</ele>
	<time>2023-08-07T09:41:36.000Z</time>
</trkpt>
<trkpt lat="46.1259870" lon="10.5015190">
	<ele>2266.40</ele>
	<time>2023-08-07T09:41:37.000Z</time>
</trkpt>
<trkpt lat="46.1259840" lon="10.5015170">
	<ele>2266.40</ele>
	<time>2023-08-07T09:41:38.000Z</time>
</trkpt>
<trkpt lat="46.1259790" lon="10.5015130">
	<ele>2266.60</ele>
	<time>2023-08-07T09:41:39.000Z</time>
</trkpt>
<trkpt lat="46.1259770" lon="10.5015090">
	<ele>2266.80</ele>
	<time>2023-08-07T09:41:40.000Z</time>
</trkpt>
<trkpt lat="46.1259750" lon="10.5015060">
	<ele>2267.00</ele>
	<time>2023-08-07T09:41:41.000Z</time>
</trkpt>
<trkpt lat="46.1259730" lon="10.5014990">
	<ele>2267.00</ele>
	<time>2023-08-07T09:41:42.000Z</time>
</trkpt>
<trkpt lat="46.1259710" lon="10.5014930">
	<ele>2267.20</ele>
	<time>2023-08-07T09:41:43.000Z</time>
</trkpt>
<trkpt lat="46.1259710" lon="10.5014880">
	<ele>2267.20</ele>
	<time>2023-08-07T09:41:44.000Z</time>
</trkpt>
<trkpt lat="46.1259690" lon="10.5014860">
	<ele>2267.40</ele>
	<time>2023-08-07T09:41:45.000Z</time>
</trkpt>
<trkpt lat="46.1259680" lon="10.5014830">
	<ele>2267.40</ele>
	<time>2023-08-07T09:41:46.000Z</time>
</trkpt>
<trkpt lat="46.1259660" lon="10.5014810">
	<ele>2267.60</ele>
	<time>2023-08-07T09:41:47.000Z</time>
</trkpt>
<trkpt lat="46.1259660" lon="10.5014790">
	<ele>2267.60</ele>
	<time>2023-08-07T09:41:48.000Z</time>
</trkpt>
<trkpt lat="46.1259650" lon="10.5014770">
	<ele>2267.60</ele>
	<time>2023-08-07T09:41:49.000Z</time>
</trkpt>
<trkpt lat="46.1259620" lon="10.5014750">
	<ele>2267.80</ele>
	<time>2023-08-07T09:41:50.000Z</time>
</trkpt>
<trkpt lat="46.1259610" lon="10.5014750">
	<ele>2267.80</ele>
	<time>2023-08-07T09:41:51.000Z</time>
</trkpt>
<trkpt lat="46.1259580" lon="10.5014740">
	<ele>2267.80</ele>
	<time>2023-08-07T09:41:52.000Z</time>
</trkpt>
<trkpt lat="46.1259570" lon="10.5014700">
	<ele>2267.80</ele>
	<time>2023-08-07T09:41:53.000Z</time>
</trkpt>
<trkpt lat="46.1259570" lon="10.5014650">
	<ele>2267.80</ele>
	<time>2023-08-07T09:41:54.000Z</time>
</trkpt>
<trkpt lat="46.1259580" lon="10.5014600">
	<ele>2267.80</ele>
	<time>2023-08-07T09:41:55.000Z</time>
</trkpt>
<trkpt lat="46.1259580" lon="10.5014590">
	<ele>2267.80</ele>
	<time>2023-08-07T09:41:56.000Z</time>
</trkpt>
<trkpt lat="46.1259580" lon="10.5014560">
	<ele>2267.80</ele>
	<time>2023-08-07T09:41:57.000Z</time>
</trkpt>
<trkpt lat="46.1259580" lon="10.5014510">
	<ele>2267.80</ele>
	<time>2023-08-07T09:41:58.000Z</time>
</trkpt>
<trkpt lat="46.1259560" lon="10.5014480">
	<ele>2267.80</ele>
	<time>2023-08-07T09:41:59.000Z</time>
</trkpt>
<trkpt lat="46.1259530" lon="10.5014470">
	<ele>2268.00</ele>
	<time>2023-08-07T09:42:00.000Z</time>
</trkpt>
<trkpt lat="46.1259490" lon="10.5014440">
	<ele>2268.00</ele>
	<time>2023-08-07T09:42:01.000Z</time>
</trkpt>
<trkpt lat="46.1259470" lon="10.5014400">
	<ele>2268.00</ele>
	<time>2023-08-07T09:42:02.000Z</time>
</trkpt>
<trkpt lat="46.1259470" lon="10.5014350">
	<ele>2268.00</ele>
	<time>2023-08-07T09:42:03.000Z</time>
</trkpt>
<trkpt lat="46.1259490" lon="10.5014320">
	<ele>2268.40</ele>
	<time>2023-08-07T09:42:04.000Z</time>
</trkpt>
<trkpt lat="46.1259540" lon="10.5014270">
	<ele>2268.40</ele>
	<time>2023-08-07T09:42:05.000Z</time>
</trkpt>
<trkpt lat="46.1259550" lon="10.5014250">
	<ele>2268.60</ele>
	<time>2023-08-07T09:42:06.000Z</time>
</trkpt>
<trkpt lat="46.1259550" lon="10.5014250">
	<ele>2268.60</ele>
	<time>2023-08-07T09:42:07.000Z</time>
</trkpt>
<trkpt lat="46.1259550" lon="10.5014250">
	<ele>2268.80</ele>
	<time>2023-08-07T09:42:08.000Z</time>
</trkpt>
<trkpt lat="46.1259550" lon="10.5014250">
	<ele>2268.80</ele>
	<time>2023-08-07T09:42:09.000Z</time>
</trkpt>
<trkpt lat="46.1259550" lon="10.5014250">
	<ele>2268.80</ele>
	<time>2023-08-07T09:42:10.000Z</time>
</trkpt>
<trkpt lat="46.1259550" lon="10.5014250">
	<ele>2269.00</ele>
	<time>2023-08-07T09:42:11.000Z</time>
</trkpt>
<trkpt lat="46.1259550" lon="10.5014250">
	<ele>2269.20</ele>
	<time>2023-08-07T09:42:12.000Z</time>
</trkpt>
<trkpt lat="46.1259550" lon="10.5014250">
	<ele>2269.20</ele>
	<time>2023-08-07T09:42:13.000Z</time>
</trkpt>
<trkpt lat="46.1259550" lon="10.5014250">
	<ele>2269.40</ele>
	<time>2023-08-07T09:42:14.000Z</time>
</trkpt>
<trkpt lat="46.1259550" lon="10.5014250">
	<ele>2269.80</ele>
	<time>2023-08-07T09:42:15.000Z</time>
</trkpt>
<trkpt lat="46.1259550" lon="10.5014250">
	<ele>2269.80</ele>
	<time>2023-08-07T09:42:16.000Z</time>
</trkpt>
<trkpt lat="46.1259550" lon="10.5014250">
	<ele>2270.20</ele>
	<time>2023-08-07T09:42:17.000Z</time>
</trkpt>
<trkpt lat="46.1259550" lon="10.5014250">
	<ele>2270.40</ele>
	<time>2023-08-07T09:42:18.000Z</time>
</trkpt>
<trkpt lat="46.1259550" lon="10.5014250">
	<ele>2270.60</ele>
	<time>2023-08-07T09:42:19.000Z</time>
</trkpt>
<trkpt lat="46.1259560" lon="10.5014250">
	<ele>2270.60</ele>
	<time>2023-08-07T09:42:20.000Z</time>
</trkpt>
<trkpt lat="46.1259580" lon="10.5014250">
	<ele>2270.80</ele>
	<time>2023-08-07T09:42:21.000Z</time>
</trkpt>
<trkpt lat="46.1259580" lon="10.5014250">
	<ele>2271.00</ele>
	<time>2023-08-07T09:42:22.000Z</time>
</trkpt>
<trkpt lat="46.1259620" lon="10.5014240">
	<ele>2271.20</ele>
	<time>2023-08-07T09:42:23.000Z</time>
</trkpt>
<trkpt lat="46.1259650" lon="10.5014240">
	<ele>2271.20</ele>
	<time>2023-08-07T09:42:24.000Z</time>
</trkpt>
<trkpt lat="46.1259680" lon="10.5014200">
	<ele>2271.40</ele>
	<time>2023-08-07T09:42:25.000Z</time>
</trkpt>
<trkpt lat="46.1259750" lon="10.5014180">
	<ele>2271.40</ele>
	<time>2023-08-07T09:42:26.000Z</time>
</trkpt>
<trkpt lat="46.1259830" lon="10.5014130">
	<ele>2271.60</ele>
	<time>2023-08-07T09:42:27.000Z</time>
</trkpt>
<trkpt lat="46.1259880" lon="10.5014110">
	<ele>2271.80</ele>
	<time>2023-08-07T09:42:28.000Z</time>
</trkpt>
<trkpt lat="46.1259930" lon="10.5014110">
	<ele>2271.80</ele>
	<time>2023-08-07T09:42:29.000Z</time>
</trkpt>
<trkpt lat="46.1259950" lon="10.5014110">
	<ele>2272.00</ele>
	<time>2023-08-07T09:42:30.000Z</time>
</trkpt>
<trkpt lat="46.1259970" lon="10.5014110">
	<ele>2272.00</ele>
	<time>2023-08-07T09:42:31.000Z</time>
</trkpt>
<trkpt lat="46.1260000" lon="10.5014090">
	<ele>2272.40</ele>
	<time>2023-08-07T09:42:32.000Z</time>
</trkpt>
<trkpt lat="46.1260040" lon="10.5014090">
	<ele>2272.40</ele>
	<time>2023-08-07T09:42:33.000Z</time>
</trkpt>
<trkpt lat="46.1260060" lon="10.5014080">
	<ele>2272.60</ele>
	<time>2023-08-07T09:42:34.000Z</time>
</trkpt>
<trkpt lat="46.1260110" lon="10.5014080">
	<ele>2272.60</ele>
	<time>2023-08-07T09:42:35.000Z</time>
</trkpt>
<trkpt lat="46.1260160" lon="10.5014070">
	<ele>2272.80</ele>
	<time>2023-08-07T09:42:36.000Z</time>
</trkpt>
<trkpt lat="46.1260190" lon="10.5014070">
	<ele>2272.80</ele>
	<time>2023-08-07T09:42:37.000Z</time>
</trkpt>
<trkpt lat="46.1260230" lon="10.5014060">
	<ele>2273.00</ele>
	<time>2023-08-07T09:42:38.000Z</time>
</trkpt>
<trkpt lat="46.1260290" lon="10.5014050">
	<ele>2273.00</ele>
	<time>2023-08-07T09:42:39.000Z</time>
</trkpt>
<trkpt lat="46.1260330" lon="10.5014040">
	<ele>2273.20</ele>
	<time>2023-08-07T09:42:40.000Z</time>
</trkpt>
<trkpt lat="46.1260370" lon="10.5014040">
	<ele>2273.20</ele>
	<time>2023-08-07T09:42:41.000Z</time>
</trkpt>
<trkpt lat="46.1260400" lon="10.5014040">
	<ele>2273.40</ele>
	<time>2023-08-07T09:42:42.000Z</time>
</trkpt>
<trkpt lat="46.1260410" lon="10.5014030">
	<ele>2273.40</ele>
	<time>2023-08-07T09:42:43.000Z</time>
</trkpt>
<trkpt lat="46.1260410" lon="10.5014030">
	<ele>2273.40</ele>
	<time>2023-08-07T09:42:44.000Z</time>
</trkpt>
<trkpt lat="46.1260410" lon="10.5014030">
	<ele>2273.60</ele>
	<time>2023-08-07T09:42:45.000Z</time>
</trkpt>
<trkpt lat="46.1260410" lon="10.5014030">
	<ele>2273.80</ele>
	<time>2023-08-07T09:42:46.000Z</time>
</trkpt>
<trkpt lat="46.1260420" lon="10.5014030">
	<ele>2273.80</ele>
	<time>2023-08-07T09:42:47.000Z</time>
</trkpt>
<trkpt lat="46.1260420" lon="10.5014030">
	<ele>2274.00</ele>
	<time>2023-08-07T09:42:48.000Z</time>
</trkpt>
<trkpt lat="46.1260420" lon="10.5014030">
	<ele>2274.20</ele>
	<time>2023-08-07T09:42:49.000Z</time>
</trkpt>
<trkpt lat="46.1260420" lon="10.5013980">
	<ele>2274.20</ele>
	<time>2023-08-07T09:42:50.000Z</time>
</trkpt>
<trkpt lat="46.1260420" lon="10.5013930">
	<ele>2274.40</ele>
	<time>2023-08-07T09:42:51.000Z</time>
</trkpt>
<trkpt lat="46.1260420" lon="10.5013880">
	<ele>2274.60</ele>
	<time>2023-08-07T09:42:52.000Z</time>
</trkpt>
<trkpt lat="46.1260420" lon="10.5013850">
	<ele>2274.80</ele>
	<time>2023-08-07T09:42:53.000Z</time>
</trkpt>
<trkpt lat="46.1260420" lon="10.5013840">
	<ele>2274.80</ele>
	<time>2023-08-07T09:42:54.000Z</time>
</trkpt>
<trkpt lat="46.1260420" lon="10.5013830">
	<ele>2275.00</ele>
	<time>2023-08-07T09:42:55.000Z</time>
</trkpt>
<trkpt lat="46.1260420" lon="10.5013810">
	<ele>2275.00</ele>
	<time>2023-08-07T09:42:56.000Z</time>
</trkpt>
<trkpt lat="46.1260420" lon="10.5013780">
	<ele>2275.00</ele>
	<time>2023-08-07T09:42:57.000Z</time>
</trkpt>
<trkpt lat="46.1260410" lon="10.5013750">
	<ele>2275.00</ele>
	<time>2023-08-07T09:42:58.000Z</time>
</trkpt>
<trkpt lat="46.1260410" lon="10.5013710">
	<ele>2275.20</ele>
	<time>2023-08-07T09:42:59.000Z</time>
</trkpt>
<trkpt lat="46.1260410" lon="10.5013650">
	<ele>2275.20</ele>
	<time>2023-08-07T09:43:00.000Z</time>
</trkpt>
<trkpt lat="46.1260410" lon="10.5013570">
	<ele>2275.40</ele>
	<time>2023-08-07T09:43:01.000Z</time>
</trkpt>
<trkpt lat="46.1260400" lon="10.5013510">
	<ele>2275.80</ele>
	<time>2023-08-07T09:43:02.000Z</time>
</trkpt>
<trkpt lat="46.1260400" lon="10.5013470">
	<ele>2276.00</ele>
	<time>2023-08-07T09:43:03.000Z</time>
</trkpt>
<trkpt lat="46.1260400" lon="10.5013420">
	<ele>2276.20</ele>
	<time>2023-08-07T09:43:04.000Z</time>
</trkpt>
<trkpt lat="46.1260400" lon="10.5013340">
	<ele>2276.40</ele>
	<time>2023-08-07T09:43:05.000Z</time>
</trkpt>
<trkpt lat="46.1260390" lon="10.5013290">
	<ele>2276.60</ele>
	<time>2023-08-07T09:43:06.000Z</time>
</trkpt>
<trkpt lat="46.1260380" lon="10.5013250">
	<ele>2276.60</ele>
	<time>2023-08-07T09:43:07.000Z</time>
</trkpt>
<trkpt lat="46.1260370" lon="10.5013230">
	<ele>2276.60</ele>
	<time>2023-08-07T09:43:08.000Z</time>
</trkpt>
<trkpt lat="46.1260340" lon="10.5013220">
	<ele>2276.80</ele>
	<time>2023-08-07T09:43:09.000Z</time>
</trkpt>
<trkpt lat="46.1260320" lon="10.5013210">
	<ele>2276.80</ele>
	<time>2023-08-07T09:43:10.000Z</time>
</trkpt>
<trkpt lat="46.1260290" lon="10.5013200">
	<ele>2276.80</ele>
	<time>2023-08-07T09:43:11.000Z</time>
</trkpt>
<trkpt lat="46.1260260" lon="10.5013170">
	<ele>2277.00</ele>
	<time>2023-08-07T09:43:12.000Z</time>
</trkpt>
<trkpt lat="46.1260240" lon="10.5013130">
	<ele>2277.00</ele>
	<time>2023-08-07T09:43:13.000Z</time>
</trkpt>
<trkpt lat="46.1260220" lon="10.5013080">
	<ele>2277.00</ele>
	<time>2023-08-07T09:43:14.000Z</time>
</trkpt>
<trkpt lat="46.1260190" lon="10.5013060">
	<ele>2277.20</ele>
	<time>2023-08-07T09:43:15.000Z</time>
</trkpt>
<trkpt lat="46.1260170" lon="10.5013050">
	<ele>2277.40</ele>
	<time>2023-08-07T09:43:16.000Z</time>
</trkpt>
<trkpt lat="46.1260150" lon="10.5013040">
	<ele>2277.60</ele>
	<time>2023-08-07T09:43:17.000Z</time>
</trkpt>
<trkpt lat="46.1260140" lon="10.5013000">
	<ele>2277.60</ele>
	<time>2023-08-07T09:43:18.000Z</time>
</trkpt>
<trkpt lat="46.1260130" lon="10.5012940">
	<ele>2277.80</ele>
	<time>2023-08-07T09:43:19.000Z</time>
</trkpt>
<trkpt lat="46.1260120" lon="10.5012870">
	<ele>2278.00</ele>
	<time>2023-08-07T09:43:20.000Z</time>
</trkpt>
<trkpt lat="46.1260120" lon="10.5012810">
	<ele>2278.20</ele>
	<time>2023-08-07T09:43:21.000Z</time>
</trkpt>
<trkpt lat="46.1260120" lon="10.5012740">
	<ele>2278.20</ele>
	<time>2023-08-07T09:43:22.000Z</time>
</trkpt>
<trkpt lat="46.1260120" lon="10.5012680">
	<ele>2278.40</ele>
	<time>2023-08-07T09:43:23.000Z</time>
</trkpt>
<trkpt lat="46.1260110" lon="10.5012630">
	<ele>2278.60</ele>
	<time>2023-08-07T09:43:24.000Z</time>
</trkpt>
<trkpt lat="46.1260090" lon="10.5012590">
	<ele>2278.60</ele>
	<time>2023-08-07T09:43:25.000Z</time>
</trkpt>
<trkpt lat="46.1260070" lon="10.5012560">
	<ele>2278.80</ele>
	<time>2023-08-07T09:43:26.000Z</time>
</trkpt>
<trkpt lat="46.1260020" lon="10.5012540">
	<ele>2278.80</ele>
	<time>2023-08-07T09:43:27.000Z</time>
</trkpt>
<trkpt lat="46.1259970" lon="10.5012520">
	<ele>2279.20</ele>
	<time>2023-08-07T09:43:28.000Z</time>
</trkpt>
<trkpt lat="46.1259960" lon="10.5012490">
	<ele>2279.20</ele>
	<time>2023-08-07T09:43:29.000Z</time>
</trkpt>
<trkpt lat="46.1259950" lon="10.5012440">
	<ele>2279.40</ele>
	<time>2023-08-07T09:43:30.000Z</time>
</trkpt>
<trkpt lat="46.1259940" lon="10.5012410">
	<ele>2279.60</ele>
	<time>2023-08-07T09:43:31.000Z</time>
</trkpt>
<trkpt lat="46.1259940" lon="10.5012390">
	<ele>2279.40</ele>
	<time>2023-08-07T09:43:32.000Z</time>
</trkpt>
<trkpt lat="46.1259940" lon="10.5012360">
	<ele>2279.60</ele>
	<time>2023-08-07T09:43:33.000Z</time>
</trkpt>
<trkpt lat="46.1259940" lon="10.5012310">
	<ele>2279.80</ele>
	<time>2023-08-07T09:43:34.000Z</time>
</trkpt>
<trkpt lat="46.1259940" lon="10.5012270">
	<ele>2279.80</ele>
	<time>2023-08-07T09:43:35.000Z</time>
</trkpt>
<trkpt lat="46.1259940" lon="10.5012230">
	<ele>2280.00</ele>
	<time>2023-08-07T09:43:36.000Z</time>
</trkpt>
<trkpt lat="46.1259940" lon="10.5012200">
	<ele>2280.20</ele>
	<time>2023-08-07T09:43:37.000Z</time>
</trkpt>
<trkpt lat="46.1259940" lon="10.5012140">
	<ele>2280.20</ele>
	<time>2023-08-07T09:43:38.000Z</time>
</trkpt>
<trkpt lat="46.1259940" lon="10.5012080">
	<ele>2280.40</ele>
	<time>2023-08-07T09:43:39.000Z</time>
</trkpt>
<trkpt lat="46.1259940" lon="10.5012020">
	<ele>2280.40</ele>
	<time>2023-08-07T09:43:40.000Z</time>
</trkpt>
<trkpt lat="46.1259940" lon="10.5011960">
	<ele>2280.40</ele>
	<time>2023-08-07T09:43:41.000Z</time>
</trkpt>
<trkpt lat="46.1259940" lon="10.5011910">
	<ele>2280.40</ele>
	<time>2023-08-07T09:43:42.000Z</time>
</trkpt>
<trkpt lat="46.1259950" lon="10.5011870">
	<ele>2280.60</ele>
	<time>2023-08-07T09:43:43.000Z</time>
</trkpt>
<trkpt lat="46.1259950" lon="10.5011840">
	<ele>2280.60</ele>
	<time>2023-08-07T09:43:44.000Z</time>
</trkpt>
<trkpt lat="46.1259960" lon="10.5011820">
	<ele>2281.00</ele>
	<time>2023-08-07T09:43:45.000Z</time>
</trkpt>
<trkpt lat="46.1259970" lon="10.5011810">
	<ele>2281.20</ele>
	<time>2023-08-07T09:43:46.000Z</time>
</trkpt>
<trkpt lat="46.1259970" lon="10.5011800">
	<ele>2281.40</ele>
	<time>2023-08-07T09:43:47.000Z</time>
</trkpt>
<trkpt lat="46.1259980" lon="10.5011790">
	<ele>2281.60</ele>
	<time>2023-08-07T09:43:48.000Z</time>
</trkpt>
<trkpt lat="46.1259990" lon="10.5011790">
	<ele>2281.80</ele>
	<time>2023-08-07T09:43:49.000Z</time>
</trkpt>
<trkpt lat="46.1260010" lon="10.5011760">
	<ele>2282.00</ele>
	<time>2023-08-07T09:43:50.000Z</time>
</trkpt>
<trkpt lat="46.1260030" lon="10.5011730">
	<ele>2282.00</ele>
	<time>2023-08-07T09:43:51.000Z</time>
</trkpt>
<trkpt lat="46.1260030" lon="10.5011690">
	<ele>2282.20</ele>
	<time>2023-08-07T09:43:52.000Z</time>
</trkpt>
<trkpt lat="46.1260040" lon="10.5011660">
	<ele>2282.20</ele>
	<time>2023-08-07T09:43:53.000Z</time>
</trkpt>
<trkpt lat="46.1260050" lon="10.5011610">
	<ele>2282.20</ele>
	<time>2023-08-07T09:43:54.000Z</time>
</trkpt>
<trkpt lat="46.1260050" lon="10.5011560">
	<ele>2282.20</ele>
	<time>2023-08-07T09:43:55.000Z</time>
</trkpt>
<trkpt lat="46.1260060" lon="10.5011530">
	<ele>2282.40</ele>
	<time>2023-08-07T09:43:56.000Z</time>
</trkpt>
<trkpt lat="46.1260080" lon="10.5011510">
	<ele>2282.40</ele>
	<time>2023-08-07T09:43:57.000Z</time>
</trkpt>
<trkpt lat="46.1260110" lon="10.5011490">
	<ele>2282.40</ele>
	<time>2023-08-07T09:43:58.000Z</time>
</trkpt>
<trkpt lat="46.1260150" lon="10.5011450">
	<ele>2282.60</ele>
	<time>2023-08-07T09:43:59.000Z</time>
</trkpt>
<trkpt lat="46.1260190" lon="10.5011410">
	<ele>2282.80</ele>
	<time>2023-08-07T09:44:00.000Z</time>
</trkpt>
<trkpt lat="46.1260210" lon="10.5011380">
	<ele>2283.20</ele>
	<time>2023-08-07T09:44:01.000Z</time>
</trkpt>
<trkpt lat="46.1260230" lon="10.5011350">
	<ele>2283.20</ele>
	<time>2023-08-07T09:44:02.000Z</time>
</trkpt>
<trkpt lat="46.1260240" lon="10.5011310">
	<ele>2283.40</ele>
	<time>2023-08-07T09:44:03.000Z</time>
</trkpt>
<trkpt lat="46.1260250" lon="10.5011300">
	<ele>2283.60</ele>
	<time>2023-08-07T09:44:04.000Z</time>
</trkpt>
<trkpt lat="46.1260250" lon="10.5011270">
	<ele>2283.60</ele>
	<time>2023-08-07T09:44:05.000Z</time>
</trkpt>
<trkpt lat="46.1260260" lon="10.5011240">
	<ele>2283.60</ele>
	<time>2023-08-07T09:44:06.000Z</time>
</trkpt>
<trkpt lat="46.1260260" lon="10.5011200">
	<ele>2283.80</ele>
	<time>2023-08-07T09:44:07.000Z</time>
</trkpt>
<trkpt lat="46.1260260" lon="10.5011160">
	<ele>2284.00</ele>
	<time>2023-08-07T09:44:08.000Z</time>
</trkpt>
<trkpt lat="46.1260270" lon="10.5011110">
	<ele>2284.00</ele>
	<time>2023-08-07T09:44:09.000Z</time>
</trkpt>
<trkpt lat="46.1260270" lon="10.5011070">
	<ele>2284.00</ele>
	<time>2023-08-07T09:44:10.000Z</time>
</trkpt>
<trkpt lat="46.1260280" lon="10.5011020">
	<ele>2284.20</ele>
	<time>2023-08-07T09:44:11.000Z</time>
</trkpt>
<trkpt lat="46.1260280" lon="10.5010980">
	<ele>2284.20</ele>
	<time>2023-08-07T09:44:12.000Z</time>
</trkpt>
<trkpt lat="46.1260290" lon="10.5010950">
	<ele>2284.40</ele>
	<time>2023-08-07T09:44:13.000Z</time>
</trkpt>
<trkpt lat="46.1260300" lon="10.5010910">
	<ele>2284.60</ele>
	<time>2023-08-07T09:44:14.000Z</time>
</trkpt>
<trkpt lat="46.1260320" lon="10.5010890">
	<ele>2284.60</ele>
	<time>2023-08-07T09:44:15.000Z</time>
</trkpt>
<trkpt lat="46.1260350" lon="10.5010870">
	<ele>2285.00</ele>
	<time>2023-08-07T09:44:16.000Z</time>
</trkpt>
<trkpt lat="46.1260360" lon="10.5010850">
	<ele>2285.00</ele>
	<time>2023-08-07T09:44:17.000Z</time>
</trkpt>
<trkpt lat="46.1260370" lon="10.5010840">
	<ele>2285.20</ele>
	<time>2023-08-07T09:44:18.000Z</time>
</trkpt>
<trkpt lat="46.1260380" lon="10.5010830">
	<ele>2285.20</ele>
	<time>2023-08-07T09:44:19.000Z</time>
</trkpt>
<trkpt lat="46.1260390" lon="10.5010800">
	<ele>2285.20</ele>
	<time>2023-08-07T09:44:20.000Z</time>
</trkpt>
<trkpt lat="46.1260390" lon="10.5010760">
	<ele>2285.40</ele>
	<time>2023-08-07T09:44:21.000Z</time>
</trkpt>
<trkpt lat="46.1260400" lon="10.5010700">
	<ele>2285.40</ele>
	<time>2023-08-07T09:44:22.000Z</time>
</trkpt>
<trkpt lat="46.1260400" lon="10.5010650">
	<ele>2285.40</ele>
	<time>2023-08-07T09:44:23.000Z</time>
</trkpt>
<trkpt lat="46.1260410" lon="10.5010610">
	<ele>2285.60</ele>
	<time>2023-08-07T09:44:24.000Z</time>
</trkpt>
<trkpt lat="46.1260410" lon="10.5010570">
	<ele>2286.00</ele>
	<time>2023-08-07T09:44:25.000Z</time>
</trkpt>
<trkpt lat="46.1260420" lon="10.5010530">
	<ele>2286.00</ele>
	<time>2023-08-07T09:44:26.000Z</time>
</trkpt>
<trkpt lat="46.1260430" lon="10.5010490">
	<ele>2286.20</ele>
	<time>2023-08-07T09:44:27.000Z</time>
</trkpt>
<trkpt lat="46.1260450" lon="10.5010430">
	<ele>2286.40</ele>
	<time>2023-08-07T09:44:28.000Z</time>
</trkpt>
<trkpt lat="46.1260490" lon="10.5010380">
	<ele>2286.60</ele>
	<time>2023-08-07T09:44:29.000Z</time>
</trkpt>
<trkpt lat="46.1260520" lon="10.5010340">
	<ele>2286.80</ele>
	<time>2023-08-07T09:44:30.000Z</time>
</trkpt>
<trkpt lat="46.1260550" lon="10.5010310">
	<ele>2287.00</ele>
	<time>2023-08-07T09:44:31.000Z</time>
</trkpt>
<trkpt lat="46.1260580" lon="10.5010290">
	<ele>2287.00</ele>
	<time>2023-08-07T09:44:32.000Z</time>
</trkpt>
<trkpt lat="46.1260610" lon="10.5010270">
	<ele>2287.20</ele>
	<time>2023-08-07T09:44:33.000Z</time>
</trkpt>
<trkpt lat="46.1260630" lon="10.5010240">
	<ele>2287.20</ele>
	<time>2023-08-07T09:44:34.000Z</time>
</trkpt>
<trkpt lat="46.1260650" lon="10.5010200">
	<ele>2287.20</ele>
	<time>2023-08-07T09:44:35.000Z</time>
</trkpt>
<trkpt lat="46.1260660" lon="10.5010150">
	<ele>2287.20</ele>
	<time>2023-08-07T09:44:36.000Z</time>
</trkpt>
<trkpt lat="46.1260670" lon="10.5010080">
	<ele>2287.20</ele>
	<time>2023-08-07T09:44:37.000Z</time>
</trkpt>
<trkpt lat="46.1260680" lon="10.5010010">
	<ele>2287.20</ele>
	<time>2023-08-07T09:44:38.000Z</time>
</trkpt>
<trkpt lat="46.1260700" lon="10.5009940">
	<ele>2287.20</ele>
	<time>2023-08-07T09:44:39.000Z</time>
</trkpt>
<trkpt lat="46.1260720" lon="10.5009890">
	<ele>2287.40</ele>
	<time>2023-08-07T09:44:40.000Z</time>
</trkpt>
<trkpt lat="46.1260730" lon="10.5009840">
	<ele>2287.60</ele>
	<time>2023-08-07T09:44:41.000Z</time>
</trkpt>
<trkpt lat="46.1260750" lon="10.5009800">
	<ele>2287.80</ele>
	<time>2023-08-07T09:44:42.000Z</time>
</trkpt>
<trkpt lat="46.1260760" lon="10.5009760">
	<ele>2287.80</ele>
	<time>2023-08-07T09:44:43.000Z</time>
</trkpt>
<trkpt lat="46.1260780" lon="10.5009720">
	<ele>2288.00</ele>
	<time>2023-08-07T09:44:44.000Z</time>
</trkpt>
<trkpt lat="46.1260790" lon="10.5009690">
	<ele>2288.00</ele>
	<time>2023-08-07T09:44:45.000Z</time>
</trkpt>
<trkpt lat="46.1260810" lon="10.5009640">
	<ele>2288.20</ele>
	<time>2023-08-07T09:44:46.000Z</time>
</trkpt>
<trkpt lat="46.1260830" lon="10.5009590">
	<ele>2288.60</ele>
	<time>2023-08-07T09:44:47.000Z</time>
</trkpt>
<trkpt lat="46.1260850" lon="10.5009530">
	<ele>2288.80</ele>
	<time>2023-08-07T09:44:48.000Z</time>
</trkpt>
<trkpt lat="46.1260870" lon="10.5009470">
	<ele>2289.00</ele>
	<time>2023-08-07T09:44:49.000Z</time>
</trkpt>
<trkpt lat="46.1260890" lon="10.5009420">
	<ele>2289.20</ele>
	<time>2023-08-07T09:44:50.000Z</time>
</trkpt>
<trkpt lat="46.1260900" lon="10.5009360">
	<ele>2289.20</ele>
	<time>2023-08-07T09:44:51.000Z</time>
</trkpt>
<trkpt lat="46.1260920" lon="10.5009310">
	<ele>2289.40</ele>
	<time>2023-08-07T09:44:52.000Z</time>
</trkpt>
<trkpt lat="46.1260930" lon="10.5009250">
	<ele>2289.40</ele>
	<time>2023-08-07T09:44:53.000Z</time>
</trkpt>
<trkpt lat="46.1260940" lon="10.5009190">
	<ele>2289.60</ele>
	<time>2023-08-07T09:44:54.000Z</time>
</trkpt>
<trkpt lat="46.1260940" lon="10.5009140">
	<ele>2289.80</ele>
	<time>2023-08-07T09:44:55.000Z</time>
</trkpt>
<trkpt lat="46.1260950" lon="10.5009090">
	<ele>2290.00</ele>
	<time>2023-08-07T09:44:56.000Z</time>
</trkpt>
<trkpt lat="46.1260960" lon="10.5009050">
	<ele>2290.00</ele>
	<time>2023-08-07T09:44:57.000Z</time>
</trkpt>
<trkpt lat="46.1260960" lon="10.5009020">
	<ele>2290.00</ele>
	<time>2023-08-07T09:44:58.000Z</time>
</trkpt>
<trkpt lat="46.1260970" lon="10.5008990">
	<ele>2290.20</ele>
	<time>2023-08-07T09:44:59.000Z</time>
</trkpt>
<trkpt lat="46.1260970" lon="10.5008960">
	<ele>2290.40</ele>
	<time>2023-08-07T09:45:00.000Z</time>
</trkpt>
<trkpt lat="46.1260980" lon="10.5008940">
	<ele>2290.60</ele>
	<time>2023-08-07T09:45:01.000Z</time>
</trkpt>
<trkpt lat="46.1260980" lon="10.5008920">
	<ele>2290.60</ele>
	<time>2023-08-07T09:45:02.000Z</time>
</trkpt>
<trkpt lat="46.1261000" lon="10.5008900">
	<ele>2290.60</ele>
	<time>2023-08-07T09:45:03.000Z</time>
</trkpt>
<trkpt lat="46.1261010" lon="10.5008890">
	<ele>2290.80</ele>
	<time>2023-08-07T09:45:04.000Z</time>
</trkpt>
<trkpt lat="46.1261020" lon="10.5008870">
	<ele>2290.80</ele>
	<time>2023-08-07T09:45:05.000Z</time>
</trkpt>
<trkpt lat="46.1261040" lon="10.5008860">
	<ele>2290.80</ele>
	<time>2023-08-07T09:45:06.000Z</time>
</trkpt>
<trkpt lat="46.1261060" lon="10.5008850">
	<ele>2291.00</ele>
	<time>2023-08-07T09:45:07.000Z</time>
</trkpt>
<trkpt lat="46.1261080" lon="10.5008840">
	<ele>2291.40</ele>
	<time>2023-08-07T09:45:08.000Z</time>
</trkpt>
<trkpt lat="46.1261100" lon="10.5008830">
	<ele>2291.60</ele>
	<time>2023-08-07T09:45:09.000Z</time>
</trkpt>
<trkpt lat="46.1261120" lon="10.5008820">
	<ele>2291.80</ele>
	<time>2023-08-07T09:45:10.000Z</time>
</trkpt>
<trkpt lat="46.1261130" lon="10.5008810">
	<ele>2292.20</ele>
	<time>2023-08-07T09:45:11.000Z</time>
</trkpt>
<trkpt lat="46.1261140" lon="10.5008800">
	<ele>2292.40</ele>
	<time>2023-08-07T09:45:12.000Z</time>
</trkpt>
<trkpt lat="46.1261150" lon="10.5008790">
	<ele>2292.60</ele>
	<time>2023-08-07T09:45:13.000Z</time>
</trkpt>
<trkpt lat="46.1261170" lon="10.5008770">
	<ele>2292.60</ele>
	<time>2023-08-07T09:45:14.000Z</time>
</trkpt>
<trkpt lat="46.1261180" lon="10.5008770">
	<ele>2292.60</ele>
	<time>2023-08-07T09:45:15.000Z</time>
</trkpt>
<trkpt lat="46.1261190" lon="10.5008760">
	<ele>2292.40</ele>
	<time>2023-08-07T09:45:16.000Z</time>
</trkpt>
<trkpt lat="46.1261200" lon="10.5008750">
	<ele>2292.40</ele>
	<time>2023-08-07T09:45:17.000Z</time>
</trkpt>
<trkpt lat="46.1261210" lon="10.5008740">
	<ele>2292.40</ele>
	<time>2023-08-07T09:45:18.000Z</time>
</trkpt>
<trkpt lat="46.1261210" lon="10.5008740">
	<ele>2292.40</ele>
	<time>2023-08-07T09:45:19.000Z</time>
</trkpt>
<trkpt lat="46.1261220" lon="10.5008730">
	<ele>2292.40</ele>
	<time>2023-08-07T09:45:20.000Z</time>
</trkpt>
<trkpt lat="46.1261230" lon="10.5008730">
	<ele>2292.80</ele>
	<time>2023-08-07T09:45:21.000Z</time>
</trkpt>
<trkpt lat="46.1261230" lon="10.5008720">
	<ele>2292.80</ele>
	<time>2023-08-07T09:45:22.000Z</time>
</trkpt>
<trkpt lat="46.1261230" lon="10.5008720">
	<ele>2293.00</ele>
	<time>2023-08-07T09:45:23.000Z</time>
</trkpt>
<trkpt lat="46.1261240" lon="10.5008710">
	<ele>2293.00</ele>
	<time>2023-08-07T09:45:24.000Z</time>
</trkpt>
<trkpt lat="46.1261240" lon="10.5008710">
	<ele>2293.00</ele>
	<time>2023-08-07T09:45:25.000Z</time>
</trkpt>
<trkpt lat="46.1261240" lon="10.5008710">
	<ele>2293.20</ele>
	<time>2023-08-07T09:45:26.000Z</time>
</trkpt>
<trkpt lat="46.1261240" lon="10.5008710">
	<ele>2293.40</ele>
	<time>2023-08-07T09:45:27.000Z</time>
</trkpt>
<trkpt lat="46.1261240" lon="10.5008710">
	<ele>2293.40</ele>
	<time>2023-08-07T09:45:28.000Z</time>
</trkpt>
<trkpt lat="46.1261240" lon="10.5008710">
	<ele>2293.60</ele>
	<time>2023-08-07T09:45:29.000Z</time>
</trkpt>
<trkpt lat="46.1261250" lon="10.5008710">
	<ele>2293.80</ele>
	<time>2023-08-07T09:45:30.000Z</time>
</trkpt>
<trkpt lat="46.1261250" lon="10.5008710">
	<ele>2293.80</ele>
	<time>2023-08-07T09:45:31.000Z</time>
</trkpt>
<trkpt lat="46.1261250" lon="10.5008710">
	<ele>2294.00</ele>
	<time>2023-08-07T09:45:32.000Z</time>
</trkpt>
<trkpt lat="46.1261250" lon="10.5008710">
	<ele>2294.20</ele>
	<time>2023-08-07T09:45:33.000Z</time>
</trkpt>
<trkpt lat="46.1261260" lon="10.5008710">
	<ele>2294.40</ele>
	<time>2023-08-07T09:45:34.000Z</time>
</trkpt>
<trkpt lat="46.1261260" lon="10.5008710">
	<ele>2294.40</ele>
	<time>2023-08-07T09:45:35.000Z</time>
</trkpt>
<trkpt lat="46.1261260" lon="10.5008710">
	<ele>2294.60</ele>
	<time>2023-08-07T09:45:36.000Z</time>
</trkpt>
<trkpt lat="46.1261260" lon="10.5008710">
	<ele>2294.60</ele>
	<time>2023-08-07T09:45:37.000Z</time>
</trkpt>
<trkpt lat="46.1261260" lon="10.5008710">
	<ele>2294.80</ele>
	<time>2023-08-07T09:45:38.000Z</time>
</trkpt>
<trkpt lat="46.1261260" lon="10.5008710">
	<ele>2294.80</ele>
	<time>2023-08-07T09:45:39.000Z</time>
</trkpt>
<trkpt lat="46.1261270" lon="10.5008710">
	<ele>2295.00</ele>
	<time>2023-08-07T09:45:40.000Z</time>
</trkpt>
<trkpt lat="46.1261270" lon="10.5008710">
	<ele>2295.00</ele>
	<time>2023-08-07T09:45:41.000Z</time>
</trkpt>
<trkpt lat="46.1261270" lon="10.5008710">
	<ele>2295.40</ele>
	<time>2023-08-07T09:45:42.000Z</time>
</trkpt>
<trkpt lat="46.1261270" lon="10.5008700">
	<ele>2295.80</ele>
	<time>2023-08-07T09:45:43.000Z</time>
</trkpt>
<trkpt lat="46.1261280" lon="10.5008700">
	<ele>2296.00</ele>
	<time>2023-08-07T09:45:44.000Z</time>
</trkpt>
<trkpt lat="46.1261280" lon="10.5008700">
	<ele>2296.00</ele>
	<time>2023-08-07T09:45:45.000Z</time>
</trkpt>
<trkpt lat="46.1261280" lon="10.5008700">
	<ele>2296.40</ele>
	<time>2023-08-07T09:45:46.000Z</time>
</trkpt>
<trkpt lat="46.1261290" lon="10.5008690">
	<ele>2296.60</ele>
	<time>2023-08-07T09:45:47.000Z</time>
</trkpt>
<trkpt lat="46.1261290" lon="10.5008690">
	<ele>2296.80</ele>
	<time>2023-08-07T09:45:48.000Z</time>
</trkpt>
<trkpt lat="46.1261290" lon="10.5008690">
	<ele>2297.20</ele>
	<time>2023-08-07T09:45:49.000Z</time>
</trkpt>
<trkpt lat="46.1261290" lon="10.5008690">
	<ele>2297.20</ele>
	<time>2023-08-07T09:45:50.000Z</time>
</trkpt>
<trkpt lat="46.1261300" lon="10.5008690">
	<ele>2297.40</ele>
	<time>2023-08-07T09:45:51.000Z</time>
</trkpt>
<trkpt lat="46.1261300" lon="10.5008690">
	<ele>2297.60</ele>
	<time>2023-08-07T09:45:52.000Z</time>
</trkpt>
<trkpt lat="46.1261300" lon="10.5008690">
	<ele>2297.60</ele>
	<time>2023-08-07T09:45:53.000Z</time>
</trkpt>
<trkpt lat="46.1261300" lon="10.5008690">
	<ele>2297.60</ele>
	<time>2023-08-07T09:45:54.000Z</time>
</trkpt>
<trkpt lat="46.1261300" lon="10.5008690">
	<ele>2297.60</ele>
	<time>2023-08-07T09:45:55.000Z</time>
</trkpt>
<trkpt lat="46.1261310" lon="10.5008690">
	<ele>2297.60</ele>
	<time>2023-08-07T09:45:56.000Z</time>
</trkpt>
<trkpt lat="46.1261310" lon="10.5008690">
	<ele>2297.80</ele>
	<time>2023-08-07T09:45:57.000Z</time>
</trkpt>
<trkpt lat="46.1261310" lon="10.5008680">
	<ele>2297.80</ele>
	<time>2023-08-07T09:45:58.000Z</time>
</trkpt>
<trkpt lat="46.1261320" lon="10.5008680">
	<ele>2298.00</ele>
	<time>2023-08-07T09:45:59.000Z</time>
</trkpt>
<trkpt lat="46.1261320" lon="10.5008680">
	<ele>2298.00</ele>
	<time>2023-08-07T09:46:00.000Z</time>
</trkpt>
<trkpt lat="46.1261320" lon="10.5008680">
	<ele>2298.00</ele>
	<time>2023-08-07T09:46:01.000Z</time>
</trkpt>
<trkpt lat="46.1261320" lon="10.5008680">
	<ele>2298.20</ele>
	<time>2023-08-07T09:46:02.000Z</time>
</trkpt>
<trkpt lat="46.1261330" lon="10.5008680">
	<ele>2298.20</ele>
	<time>2023-08-07T09:46:03.000Z</time>
</trkpt>
<trkpt lat="46.1261330" lon="10.5008670">
	<ele>2298.40</ele>
	<time>2023-08-07T09:46:04.000Z</time>
</trkpt>
<trkpt lat="46.1261330" lon="10.5008670">
	<ele>2298.40</ele>
	<time>2023-08-07T09:46:05.000Z</time>
</trkpt>
<trkpt lat="46.1261340" lon="10.5008670">
	<ele>2298.60</ele>
	<time>2023-08-07T09:46:06.000Z</time>
</trkpt>
<trkpt lat="46.1261340" lon="10.5008670">
	<ele>2298.60</ele>
	<time>2023-08-07T09:46:07.000Z</time>
</trkpt>
<trkpt lat="46.1261340" lon="10.5008670">
	<ele>2298.60</ele>
	<time>2023-08-07T09:46:08.000Z</time>
</trkpt>
<trkpt lat="46.1261350" lon="10.5008670">
	<ele>2298.80</ele>
	<time>2023-08-07T09:46:09.000Z</time>
</trkpt>
<trkpt lat="46.1261350" lon="10.5008670">
	<ele>2299.00</ele>
	<time>2023-08-07T09:46:10.000Z</time>
</trkpt>
<trkpt lat="46.1261360" lon="10.5008670">
	<ele>2299.40</ele>
	<time>2023-08-07T09:46:11.000Z</time>
</trkpt>
<trkpt lat="46.1261360" lon="10.5008660">
	<ele>2299.80</ele>
	<time>2023-08-07T09:46:12.000Z</time>
</trkpt>
<trkpt lat="46.1261360" lon="10.5008660">
	<ele>2300.00</ele>
	<time>2023-08-07T09:46:13.000Z</time>
</trkpt>
<trkpt lat="46.1261370" lon="10.5008660">
	<ele>2300.00</ele>
	<time>2023-08-07T09:46:14.000Z</time>
</trkpt>
<trkpt lat="46.1261370" lon="10.5008660">
	<ele>2300.20</ele>
	<time>2023-08-07T09:46:15.000Z</time>
</trkpt>
<trkpt lat="46.1261370" lon="10.5008660">
	<ele>2300.40</ele>
	<time>2023-08-07T09:46:16.000Z</time>
</trkpt>
<trkpt lat="46.1261380" lon="10.5008650">
	<ele>2300.40</ele>
	<time>2023-08-07T09:46:17.000Z</time>
</trkpt>
<trkpt lat="46.1261380" lon="10.5008650">
	<ele>2300.80</ele>
	<time>2023-08-07T09:46:18.000Z</time>
</trkpt>
<trkpt lat="46.1261380" lon="10.5008650">
	<ele>2301.00</ele>
	<time>2023-08-07T09:46:19.000Z</time>
</trkpt>
<trkpt lat="46.1261390" lon="10.5008650">
	<ele>2301.00</ele>
	<time>2023-08-07T09:46:20.000Z</time>
</trkpt>
<trkpt lat="46.1261390" lon="10.5008640">
	<ele>2301.00</ele>
	<time>2023-08-07T09:46:21.000Z</time>
</trkpt>
<trkpt lat="46.1261400" lon="10.5008640">
	<ele>2301.20</ele>
	<time>2023-08-07T09:46:22.000Z</time>
</trkpt>
<trkpt lat="46.1261400" lon="10.5008640">
	<ele>2301.20</ele>
	<time>2023-08-07T09:46:23.000Z</time>
</trkpt>
<trkpt lat="46.1261410" lon="10.5008640">
	<ele>2301.00</ele>
	<time>2023-08-07T09:46:24.000Z</time>
</trkpt>
<trkpt lat="46.1261410" lon="10.5008640">
	<ele>2301.00</ele>
	<time>2023-08-07T09:46:25.000Z</time>
</trkpt>
<trkpt lat="46.1261420" lon="10.5008640">
	<ele>2301.20</ele>
	<time>2023-08-07T09:46:26.000Z</time>
</trkpt>
<trkpt lat="46.1261420" lon="10.5008640">
	<ele>2301.40</ele>
	<time>2023-08-07T09:46:27.000Z</time>
</trkpt>
<trkpt lat="46.1261420" lon="10.5008630">
	<ele>2301.60</ele>
	<time>2023-08-07T09:46:28.000Z</time>
</trkpt>
<trkpt lat="46.1261430" lon="10.5008630">
	<ele>2301.80</ele>
	<time>2023-08-07T09:46:29.000Z</time>
</trkpt>
<trkpt lat="46.1261430" lon="10.5008630">
	<ele>2301.80</ele>
	<time>2023-08-07T09:46:30.000Z</time>
</trkpt>
<trkpt lat="46.1261430" lon="10.5008630">
	<ele>2302.20</ele>
	<time>2023-08-07T09:46:31.000Z</time>
</trkpt>
<trkpt lat="46.1261440" lon="10.5008630">
	<ele>2302.20</ele>
	<time>2023-08-07T09:46:32.000Z</time>
</trkpt>
<trkpt lat="46.1261440" lon="10.5008620">
	<ele>2302.40</ele>
	<time>2023-08-07T09:46:33.000Z</time>
</trkpt>
<trkpt lat="46.1261450" lon="10.5008620">
	<ele>2302.60</ele>
	<time>2023-08-07T09:46:34.000Z</time>
</trkpt>
<trkpt lat="46.1261450" lon="10.5008620">
	<ele>2302.80</ele>
	<time>2023-08-07T09:46:35.000Z</time>
</trkpt>
<trkpt lat="46.1261460" lon="10.5008620">
	<ele>2303.00</ele>
	<time>2023-08-07T09:46:36.000Z</time>
</trkpt>
<trkpt lat="46.1261460" lon="10.5008610">
	<ele>2303.20</ele>
	<time>2023-08-07T09:46:37.000Z</time>
</trkpt>
<trkpt lat="46.1261470" lon="10.5008610">
	<ele>2303.40</ele>
	<time>2023-08-07T09:46:38.000Z</time>
</trkpt>
<trkpt lat="46.1261470" lon="10.5008610">
	<ele>2303.40</ele>
	<time>2023-08-07T09:46:39.000Z</time>
</trkpt>
<trkpt lat="46.1261480" lon="10.5008610">
	<ele>2303.60</ele>
	<time>2023-08-07T09:46:40.000Z</time>
</trkpt>
<trkpt lat="46.1261480" lon="10.5008600">
	<ele>2303.60</ele>
	<time>2023-08-07T09:46:41.000Z</time>
</trkpt>
<trkpt lat="46.1261480" lon="10.5008600">
	<ele>2303.80</ele>
	<time>2023-08-07T09:46:42.000Z</time>
</trkpt>
<trkpt lat="46.1261490" lon="10.5008600">
	<ele>2304.00</ele>
	<time>2023-08-07T09:46:43.000Z</time>
</trkpt>
<trkpt lat="46.1261490" lon="10.5008600">
	<ele>2304.20</ele>
	<time>2023-08-07T09:46:44.000Z</time>
</trkpt>
<trkpt lat="46.1261500" lon="10.5008600">
	<ele>2304.20</ele>
	<time>2023-08-07T09:46:45.000Z</time>
</trkpt>
<trkpt lat="46.1261500" lon="10.5008600">
	<ele>2304.40</ele>
	<time>2023-08-07T09:46:46.000Z</time>
</trkpt>
<trkpt lat="46.1261510" lon="10.5008590">
	<ele>2304.40</ele>
	<time>2023-08-07T09:46:47.000Z</time>
</trkpt>
<trkpt lat="46.1261510" lon="10.5008590">
	<ele>2304.40</ele>
	<time>2023-08-07T09:46:48.000Z</time>
</trkpt>
<trkpt lat="46.1261510" lon="10.5008580">
	<ele>2304.80</ele>
	<time>2023-08-07T09:46:49.000Z</time>
</trkpt>
<trkpt lat="46.1261520" lon="10.5008580">
	<ele>2305.00</ele>
	<time>2023-08-07T09:46:50.000Z</time>
</trkpt>
<trkpt lat="46.1261520" lon="10.5008580">
	<ele>2305.00</ele>
	<time>2023-08-07T09:46:51.000Z</time>
</trkpt>
<trkpt lat="46.1261530" lon="10.5008570">
	<ele>2305.20</ele>
	<time>2023-08-07T09:46:52.000Z</time>
</trkpt>
<trkpt lat="46.1261530" lon="10.5008570">
	<ele>2305.40</ele>
	<time>2023-08-07T09:46:53.000Z</time>
</trkpt>
<trkpt lat="46.1261540" lon="10.5008570">
	<ele>2305.40</ele>
	<time>2023-08-07T09:46:54.000Z</time>
</trkpt>
<trkpt lat="46.1261540" lon="10.5008560">
	<ele>2305.60</ele>
	<time>2023-08-07T09:46:55.000Z</time>
</trkpt>
<trkpt lat="46.1261550" lon="10.5008560">
	<ele>2305.80</ele>
	<time>2023-08-07T09:46:56.000Z</time>
</trkpt>
<trkpt lat="46.1261550" lon="10.5008560">
	<ele>2306.00</ele>
	<time>2023-08-07T09:46:57.000Z</time>
</trkpt>
<trkpt lat="46.1261550" lon="10.5008550">
	<ele>2306.00</ele>
	<time>2023-08-07T09:46:58.000Z</time>
</trkpt>
<trkpt lat="46.1261560" lon="10.5008550">
	<ele>2306.00</ele>
	<time>2023-08-07T09:46:59.000Z</time>
</trkpt>
<trkpt lat="46.1261560" lon="10.5008540">
	<ele>2306.20</ele>
	<time>2023-08-07T09:47:00.000Z</time>
</trkpt>
<trkpt lat="46.1261570" lon="10.5008540">
	<ele>2306.20</ele>
	<time>2023-08-07T09:47:01.000Z</time>
</trkpt>
<trkpt lat="46.1261570" lon="10.5008530">
	<ele>2306.40</ele>
	<time>2023-08-07T09:47:02.000Z</time>
</trkpt>
<trkpt lat="46.1261580" lon="10.5008530">
	<ele>2306.40</ele>
	<time>2023-08-07T09:47:03.000Z</time>
</trkpt>
<trkpt lat="46.1261580" lon="10.5008520">
	<ele>2306.60</ele>
	<time>2023-08-07T09:47:04.000Z</time>
</trkpt>
<trkpt lat="46.1261590" lon="10.5008520">
	<ele>2306.60</ele>
	<time>2023-08-07T09:47:05.000Z</time>
</trkpt>
<trkpt lat="46.1261590" lon="10.5008520">
	<ele>2306.80</ele>
	<time>2023-08-07T09:47:06.000Z</time>
</trkpt>
<trkpt lat="46.1261590" lon="10.5008510">
	<ele>2307.00</ele>
	<time>2023-08-07T09:47:07.000Z</time>
</trkpt>
<trkpt lat="46.1261600" lon="10.5008510">
	<ele>2307.20</ele>
	<time>2023-08-07T09:47:08.000Z</time>
</trkpt>
<trkpt lat="46.1261600" lon="10.5008500">
	<ele>2307.20</ele>
	<time>2023-08-07T09:47:09.000Z</time>
</trkpt>
<trkpt lat="46.1261610" lon="10.5008500">
	<ele>2307.40</ele>
	<time>2023-08-07T09:47:10.000Z</time>
</trkpt>
<trkpt lat="46.1261610" lon="10.5008500">
	<ele>2307.40</ele>
	<time>2023-08-07T09:47:11.000Z</time>
</trkpt>
<trkpt lat="46.1261620" lon="10.5008490">
	<ele>2307.40</ele>
	<time>2023-08-07T09:47:12.000Z</time>
</trkpt>
<trkpt lat="46.1261620" lon="10.5008490">
	<ele>2307.60</ele>
	<time>2023-08-07T09:47:13.000Z</time>
</trkpt>
<trkpt lat="46.1261630" lon="10.5008490">
	<ele>2307.80</ele>
	<time>2023-08-07T09:47:14.000Z</time>
</trkpt>
<trkpt lat="46.1261630" lon="10.5008480">
	<ele>2307.80</ele>
	<time>2023-08-07T09:47:15.000Z</time>
</trkpt>
<trkpt lat="46.1261630" lon="10.5008480">
	<ele>2308.00</ele>
	<time>2023-08-07T09:47:16.000Z</time>
</trkpt>
<trkpt lat="46.1261640" lon="10.5008470">
	<ele>2308.20</ele>
	<time>2023-08-07T09:47:17.000Z</time>
</trkpt>
<trkpt lat="46.1261640" lon="10.5008470">
	<ele>2308.40</ele>
	<time>2023-08-07T09:47:18.000Z</time>
</trkpt>
<trkpt lat="46.1261650" lon="10.5008470">
	<ele>2308.60</ele>
	<time>2023-08-07T09:47:19.000Z</time>
</trkpt>
<trkpt lat="46.1261650" lon="10.5008460">
	<ele>2308.60</ele>
	<time>2023-08-07T09:47:20.000Z</time>
</trkpt>
<trkpt lat="46.1261660" lon="10.5008460">
	<ele>2308.80</ele>
	<time>2023-08-07T09:47:21.000Z</time>
</trkpt>
<trkpt lat="46.1261660" lon="10.5008460">
	<ele>2308.80</ele>
	<time>2023-08-07T09:47:22.000Z</time>
</trkpt>
<trkpt lat="46.1261670" lon="10.5008450">
	<ele>2309.00</ele>
	<time>2023-08-07T09:47:23.000Z</time>
</trkpt>
<trkpt lat="46.1261670" lon="10.5008450">
	<ele>2309.20</ele>
	<time>2023-08-07T09:47:24.000Z</time>
</trkpt>
<trkpt lat="46.1261670" lon="10.5008440">
	<ele>2309.20</ele>
	<time>2023-08-07T09:47:25.000Z</time>
</trkpt>
<trkpt lat="46.1261680" lon="10.5008440">
	<ele>2309.40</ele>
	<time>2023-08-07T09:47:26.000Z</time>
</trkpt>
<trkpt lat="46.1261680" lon="10.5008430">
	<ele>2309.40</ele>
	<time>2023-08-07T09:47:27.000Z</time>
</trkpt>
<trkpt lat="46.1261690" lon="10.5008430">
	<ele>2309.40</ele>
	<time>2023-08-07T09:47:28.000Z</time>
</trkpt>
<trkpt lat="46.1261690" lon="10.5008420">
	<ele>2309.60</ele>
	<time>2023-08-07T09:47:29.000Z</time>
</trkpt>
<trkpt lat="46.1261700" lon="10.5008420">
	<ele>2309.80</ele>
	<time>2023-08-07T09:47:30.000Z</time>
</trkpt>
<trkpt lat="46.1261700" lon="10.5008410">
	<ele>2309.80</ele>
	<time>2023-08-07T09:47:31.000Z</time>
</trkpt>
<trkpt lat="46.1261700" lon="10.5008400">
	<ele>2310.20</ele>
	<time>2023-08-07T09:47:32.000Z</time>
</trkpt>
<trkpt lat="46.1261710" lon="10.5008400">
	<ele>2310.20</ele>
	<time>2023-08-07T09:47:33.000Z</time>
</trkpt>
<trkpt lat="46.1261710" lon="10.5008390">
	<ele>2310.40</ele>
	<time>2023-08-07T09:47:34.000Z</time>
</trkpt>
<trkpt lat="46.1261720" lon="10.5008390">
	<ele>2310.60</ele>
	<time>2023-08-07T09:47:35.000Z</time>
</trkpt>
<trkpt lat="46.1261720" lon="10.5008380">
	<ele>2310.80</ele>
	<time>2023-08-07T09:47:36.000Z</time>
</trkpt>
<trkpt lat="46.1261720" lon="10.5008380">
	<ele>2310.80</ele>
	<time>2023-08-07T09:47:37.000Z</time>
</trkpt>
<trkpt lat="46.1261730" lon="10.5008370">
	<ele>2310.80</ele>
	<time>2023-08-07T09:47:38.000Z</time>
</trkpt>
<trkpt lat="46.1261730" lon="10.5008360">
	<ele>2310.80</ele>
	<time>2023-08-07T09:47:39.000Z</time>
</trkpt>
<trkpt lat="46.1261740" lon="10.5008360">
	<ele>2310.80</ele>
	<time>2023-08-07T09:47:40.000Z</time>
</trkpt>
<trkpt lat="46.1261740" lon="10.5008350">
	<ele>2311.00</ele>
	<time>2023-08-07T09:47:41.000Z</time>
</trkpt>
<trkpt lat="46.1261740" lon="10.5008350">
	<ele>2311.20</ele>
	<time>2023-08-07T09:47:42.000Z</time>
</trkpt>
<trkpt lat="46.1261750" lon="10.5008340">
	<ele>2311.20</ele>
	<time>2023-08-07T09:47:43.000Z</time>
</trkpt>
<trkpt lat="46.1261750" lon="10.5008340">
	<ele>2311.40</ele>
	<time>2023-08-07T09:47:44.000Z</time>
</trkpt>
<trkpt lat="46.1261750" lon="10.5008330">
	<ele>2311.60</ele>
	<time>2023-08-07T09:47:45.000Z</time>
</trkpt>
<trkpt lat="46.1261760" lon="10.5008320">
	<ele>2312.00</ele>
	<time>2023-08-07T09:47:46.000Z</time>
</trkpt>
<trkpt lat="46.1261760" lon="10.5008320">
	<ele>2312.20</ele>
	<time>2023-08-07T09:47:47.000Z</time>
</trkpt>
<trkpt lat="46.1261770" lon="10.5008310">
	<ele>2312.20</ele>
	<time>2023-08-07T09:47:48.000Z</time>
</trkpt>
<trkpt lat="46.1261780" lon="10.5008300">
	<ele>2312.40</ele>
	<time>2023-08-07T09:47:49.000Z</time>
</trkpt>
<trkpt lat="46.1261780" lon="10.5008300">
	<ele>2312.40</ele>
	<time>2023-08-07T09:47:50.000Z</time>
</trkpt>
<trkpt lat="46.1261780" lon="10.5008290">
	<ele>2312.60</ele>
	<time>2023-08-07T09:47:51.000Z</time>
</trkpt>
<trkpt lat="46.1261790" lon="10.5008290">
	<ele>2312.60</ele>
	<time>2023-08-07T09:47:52.000Z</time>
</trkpt>
<trkpt lat="46.1261790" lon="10.5008280">
	<ele>2312.80</ele>
	<time>2023-08-07T09:47:53.000Z</time>
</trkpt>
<trkpt lat="46.1261800" lon="10.5008270">
	<ele>2312.80</ele>
	<time>2023-08-07T09:47:54.000Z</time>
</trkpt>
<trkpt lat="46.1261800" lon="10.5008270">
	<ele>2313.20</ele>
	<time>2023-08-07T09:47:55.000Z</time>
</trkpt>
<trkpt lat="46.1261810" lon="10.5008260">
	<ele>2313.40</ele>
	<time>2023-08-07T09:47:56.000Z</time>
</trkpt>
<trkpt lat="46.1261810" lon="10.5008250">
	<ele>2313.40</ele>
	<time>2023-08-07T09:47:57.000Z</time>
</trkpt>
<trkpt lat="46.1261810" lon="10.5008250">
	<ele>2313.60</ele>
	<time>2023-08-07T09:47:58.000Z</time>
</trkpt>
<trkpt lat="46.1261820" lon="10.5008240">
	<ele>2313.60</ele>
	<time>2023-08-07T09:47:59.000Z</time>
</trkpt>
<trkpt lat="46.1261820" lon="10.5008230">
	<ele>2313.80</ele>
	<time>2023-08-07T09:48:00.000Z</time>
</trkpt>
<trkpt lat="46.1261830" lon="10.5008220">
	<ele>2314.00</ele>
	<time>2023-08-07T09:48:01.000Z</time>
</trkpt>
<trkpt lat="46.1261830" lon="10.5008220">
	<ele>2314.20</ele>
	<time>2023-08-07T09:48:02.000Z</time>
</trkpt>
<trkpt lat="46.1261840" lon="10.5008210">
	<ele>2314.40</ele>
	<time>2023-08-07T09:48:03.000Z</time>
</trkpt>
<trkpt lat="46.1261840" lon="10.5008200">
	<ele>2314.60</ele>
	<time>2023-08-07T09:48:04.000Z</time>
</trkpt>
<trkpt lat="46.1261850" lon="10.5008200">
	<ele>2314.60</ele>
	<time>2023-08-07T09:48:05.000Z</time>
</trkpt>
<trkpt lat="46.1261850" lon="10.5008190">
	<ele>2314.80</ele>
	<time>2023-08-07T09:48:06.000Z</time>
</trkpt>
<trkpt lat="46.1261860" lon="10.5008190">
	<ele>2314.80</ele>
	<time>2023-08-07T09:48:07.000Z</time>
</trkpt>
<trkpt lat="46.1261860" lon="10.5008180">
	<ele>2314.80</ele>
	<time>2023-08-07T09:48:08.000Z</time>
</trkpt>
<trkpt lat="46.1261870" lon="10.5008180">
	<ele>2314.80</ele>
	<time>2023-08-07T09:48:09.000Z</time>
</trkpt>
<trkpt lat="46.1261870" lon="10.5008170">
	<ele>2315.00</ele>
	<time>2023-08-07T09:48:10.000Z</time>
</trkpt>
<trkpt lat="46.1261870" lon="10.5008160">
	<ele>2315.00</ele>
	<time>2023-08-07T09:48:11.000Z</time>
</trkpt>
<trkpt lat="46.1261880" lon="10.5008160">
	<ele>2315.20</ele>
	<time>2023-08-07T09:48:12.000Z</time>
</trkpt>
<trkpt lat="46.1261880" lon="10.5008150">
	<ele>2315.40</ele>
	<time>2023-08-07T09:48:13.000Z</time>
</trkpt>
<trkpt lat="46.1261890" lon="10.5008140">
	<ele>2315.40</ele>
	<time>2023-08-07T09:48:14.000Z</time>
</trkpt>
<trkpt lat="46.1261890" lon="10.5008140">
	<ele>2315.60</ele>
	<time>2023-08-07T09:48:15.000Z</time>
</trkpt>
<trkpt lat="46.1261900" lon="10.5008130">
	<ele>2315.60</ele>
	<time>2023-08-07T09:48:16.000Z</time>
</trkpt>
<trkpt lat="46.1261900" lon="10.5008130">
	<ele>2315.80</ele>
	<time>2023-08-07T09:48:17.000Z</time>
</trkpt>
<trkpt lat="46.1261900" lon="10.5008120">
	<ele>2316.00</ele>
	<time>2023-08-07T09:48:18.000Z</time>
</trkpt>
<trkpt lat="46.1261910" lon="10.5008110">
	<ele>2316.20</ele>
	<time>2023-08-07T09:48:19.000Z</time>
</trkpt>
<trkpt lat="46.1261910" lon="10.5008100">
	<ele>2316.40</ele>
	<time>2023-08-07T09:48:20.000Z</time>
</trkpt>
<trkpt lat="46.1261920" lon="10.5008100">
	<ele>2316.60</ele>
	<time>2023-08-07T09:48:21.000Z</time>
</trkpt>
<trkpt lat="46.1261920" lon="10.5008090">
	<ele>2316.80</ele>
	<time>2023-08-07T09:48:22.000Z</time>
</trkpt>
<trkpt lat="46.1261930" lon="10.5008080">
	<ele>2317.00</ele>
	<time>2023-08-07T09:48:23.000Z</time>
</trkpt>
<trkpt lat="46.1261930" lon="10.5008080">
	<ele>2317.00</ele>
	<time>2023-08-07T09:48:24.000Z</time>
</trkpt>
<trkpt lat="46.1261930" lon="10.5008070">
	<ele>2317.20</ele>
	<time>2023-08-07T09:48:25.000Z</time>
</trkpt>
<trkpt lat="46.1261940" lon="10.5008060">
	<ele>2317.40</ele>
	<time>2023-08-07T09:48:26.000Z</time>
</trkpt>
<trkpt lat="46.1261940" lon="10.5008050">
	<ele>2317.60</ele>
	<time>2023-08-07T09:48:27.000Z</time>
</trkpt>
<trkpt lat="46.1261950" lon="10.5008050">
	<ele>2317.80</ele>
	<time>2023-08-07T09:48:28.000Z</time>
</trkpt>
<trkpt lat="46.1261950" lon="10.5008040">
	<ele>2318.00</ele>
	<time>2023-08-07T09:48:29.000Z</time>
</trkpt>
<trkpt lat="46.1261960" lon="10.5008030">
	<ele>2318.20</ele>
	<time>2023-08-07T09:48:30.000Z</time>
</trkpt>
<trkpt lat="46.1261960" lon="10.5008020">
	<ele>2318.40</ele>
	<time>2023-08-07T09:48:31.000Z</time>
</trkpt>
<trkpt lat="46.1261970" lon="10.5008020">
	<ele>2318.40</ele>
	<time>2023-08-07T09:48:32.000Z</time>
</trkpt>
<trkpt lat="46.1261970" lon="10.5008010">
	<ele>2318.60</ele>
	<time>2023-08-07T09:48:33.000Z</time>
</trkpt>
<trkpt lat="46.1261970" lon="10.5008000">
	<ele>2318.80</ele>
	<time>2023-08-07T09:48:34.000Z</time>
</trkpt>
<trkpt lat="46.1261980" lon="10.5008000">
	<ele>2318.80</ele>
	<time>2023-08-07T09:48:35.000Z</time>
</trkpt>
<trkpt lat="46.1261980" lon="10.5007990">
	<ele>2319.00</ele>
	<time>2023-08-07T09:48:36.000Z</time>
</trkpt>
<trkpt lat="46.1261990" lon="10.5007980">
	<ele>2319.00</ele>
	<time>2023-08-07T09:48:37.000Z</time>
</trkpt>
<trkpt lat="46.1261990" lon="10.5007970">
	<ele>2319.20</ele>
	<time>2023-08-07T09:48:38.000Z</time>
</trkpt>
<trkpt lat="46.1261990" lon="10.5007970">
	<ele>2319.40</ele>
	<time>2023-08-07T09:48:39.000Z</time>
</trkpt>
<trkpt lat="46.1262000" lon="10.5007960">
	<ele>2319.60</ele>
	<time>2023-08-07T09:48:40.000Z</time>
</trkpt>
<trkpt lat="46.1262000" lon="10.5007950">
	<ele>2319.80</ele>
	<time>2023-08-07T09:48:41.000Z</time>
</trkpt>
<trkpt lat="46.1262010" lon="10.5007940">
	<ele>2320.00</ele>
	<time>2023-08-07T09:48:42.000Z</time>
</trkpt>
<trkpt lat="46.1262010" lon="10.5007940">
	<ele>2320.20</ele>
	<time>2023-08-07T09:48:43.000Z</time>
</trkpt>
<trkpt lat="46.1262020" lon="10.5007930">
	<ele>2320.20</ele>
	<time>2023-08-07T09:48:44.000Z</time>
</trkpt>
<trkpt lat="46.1262020" lon="10.5007920">
	<ele>2320.20</ele>
	<time>2023-08-07T09:48:45.000Z</time>
</trkpt>
<trkpt lat="46.1262020" lon="10.5007910">
	<ele>2320.40</ele>
	<time>2023-08-07T09:48:46.000Z</time>
</trkpt>
<trkpt lat="46.1262030" lon="10.5007900">
	<ele>2320.60</ele>
	<time>2023-08-07T09:48:47.000Z</time>
</trkpt>
<trkpt lat="46.1262030" lon="10.5007900">
	<ele>2320.80</ele>
	<time>2023-08-07T09:48:48.000Z</time>
</trkpt>
<trkpt lat="46.1262040" lon="10.5007890">
	<ele>2320.80</ele>
	<time>2023-08-07T09:48:49.000Z</time>
</trkpt>
<trkpt lat="46.1262040" lon="10.5007880">
	<ele>2320.80</ele>
	<time>2023-08-07T09:48:50.000Z</time>
</trkpt>
<trkpt lat="46.1262050" lon="10.5007870">
	<ele>2321.00</ele>
	<time>2023-08-07T09:48:51.000Z</time>
</trkpt>
<trkpt lat="46.1262050" lon="10.5007860">
	<ele>2321.20</ele>
	<time>2023-08-07T09:48:52.000Z</time>
</trkpt>
<trkpt lat="46.1262050" lon="10.5007850">
	<ele>2321.20</ele>
	<time>2023-08-07T09:48:53.000Z</time>
</trkpt>
<trkpt lat="46.1262060" lon="10.5007850">
	<ele>2321.20</ele>
	<time>2023-08-07T09:48:54.000Z</time>
</trkpt>
<trkpt lat="46.1262060" lon="10.5007840">
	<ele>2321.40</ele>
	<time>2023-08-07T09:48:55.000Z</time>
</trkpt>
<trkpt lat="46.1262070" lon="10.5007830">
	<ele>2321.40</ele>
	<time>2023-08-07T09:48:56.000Z</time>
</trkpt>
<trkpt lat="46.1262070" lon="10.5007820">
	<ele>2321.60</ele>
	<time>2023-08-07T09:48:57.000Z</time>
</trkpt>
<trkpt lat="46.1262080" lon="10.5007810">
	<ele>2321.60</ele>
	<time>2023-08-07T09:48:58.000Z</time>
</trkpt>
<trkpt lat="46.1262080" lon="10.5007800">
	<ele>2321.80</ele>
	<time>2023-08-07T09:48:59.000Z</time>
</trkpt>
<trkpt lat="46.1262090" lon="10.5007790">
	<ele>2321.80</ele>
	<time>2023-08-07T09:49:00.000Z</time>
</trkpt>
<trkpt lat="46.1262090" lon="10.5007790">
	<ele>2322.00</ele>
	<time>2023-08-07T09:49:01.000Z</time>
</trkpt>
<trkpt lat="46.1262090" lon="10.5007780">
	<ele>2322.20</ele>
	<time>2023-08-07T09:49:02.000Z</time>
</trkpt>
<trkpt lat="46.1262100" lon="10.5007770">
	<ele>2322.40</ele>
	<time>2023-08-07T09:49:03.000Z</time>
</trkpt>
<trkpt lat="46.1262100" lon="10.5007760">
	<ele>2322.40</ele>
	<time>2023-08-07T09:49:04.000Z</time>
</trkpt>
<trkpt lat="46.1262110" lon="10.5007750">
	<ele>2322.60</ele>
	<time>2023-08-07T09:49:05.000Z</time>
</trkpt>
<trkpt lat="46.1262110" lon="10.5007740">
	<ele>2322.60</ele>
	<time>2023-08-07T09:49:06.000Z</time>
</trkpt>
<trkpt lat="46.1262120" lon="10.5007740">
	<ele>2322.80</ele>
	<time>2023-08-07T09:49:07.000Z</time>
</trkpt>
<trkpt lat="46.1262120" lon="10.5007730">
	<ele>2323.00</ele>
	<time>2023-08-07T09:49:08.000Z</time>
</trkpt>
<trkpt lat="46.1262130" lon="10.5007720">
	<ele>2323.20</ele>
	<time>2023-08-07T09:49:09.000Z</time>
</trkpt>
<trkpt lat="46.1262130" lon="10.5007720">
	<ele>2323.40</ele>
	<time>2023-08-07T09:49:10.000Z</time>
</trkpt>
<trkpt lat="46.1262140" lon="10.5007710">
	<ele>2323.40</ele>
	<time>2023-08-07T09:49:11.000Z</time>
</trkpt>
<trkpt lat="46.1262140" lon="10.5007700">
	<ele>2323.60</ele>
	<time>2023-08-07T09:49:12.000Z</time>
</trkpt>
<trkpt lat="46.1262150" lon="10.5007690">
	<ele>2323.80</ele>
	<time>2023-08-07T09:49:13.000Z</time>
</trkpt>
<trkpt lat="46.1262150" lon="10.5007680">
	<ele>2323.80</ele>
	<time>2023-08-07T09:49:14.000Z</time>
</trkpt>
<trkpt lat="46.1262150" lon="10.5007670">
	<ele>2324.00</ele>
	<time>2023-08-07T09:49:15.000Z</time>
</trkpt>
<trkpt lat="46.1262160" lon="10.5007660">
	<ele>2324.20</ele>
	<time>2023-08-07T09:49:16.000Z</time>
</trkpt>
<trkpt lat="46.1262160" lon="10.5007660">
	<ele>2324.40</ele>
	<time>2023-08-07T09:49:17.000Z</time>
</trkpt>
<trkpt lat="46.1262170" lon="10.5007650">
	<ele>2324.60</ele>
	<time>2023-08-07T09:49:18.000Z</time>
</trkpt>
<trkpt lat="46.1262170" lon="10.5007640">
	<ele>2324.80</ele>
	<time>2023-08-07T09:49:19.000Z</time>
</trkpt>
<trkpt lat="46.1262180" lon="10.5007630">
	<ele>2324.80</ele>
	<time>2023-08-07T09:49:20.000Z</time>
</trkpt>
<trkpt lat="46.1262180" lon="10.5007620">
	<ele>2324.80</ele>
	<time>2023-08-07T09:49:21.000Z</time>
</trkpt>
<trkpt lat="46.1262190" lon="10.5007610">
	<ele>2324.80</ele>
	<time>2023-08-07T09:49:22.000Z</time>
</trkpt>
<trkpt lat="46.1262190" lon="10.5007610">
	<ele>2324.80</ele>
	<time>2023-08-07T09:49:23.000Z</time>
</trkpt>
<trkpt lat="46.1262200" lon="10.5007600">
	<ele>2324.80</ele>
	<time>2023-08-07T09:49:24.000Z</time>
</trkpt>
<trkpt lat="46.1262200" lon="10.5007590">
	<ele>2325.00</ele>
	<time>2023-08-07T09:49:25.000Z</time>
</trkpt>
<trkpt lat="46.1262210" lon="10.5007580">
	<ele>2325.20</ele>
	<time>2023-08-07T09:49:26.000Z</time>
</trkpt>
<trkpt lat="46.1262210" lon="10.5007570">
	<ele>2325.40</ele>
	<time>2023-08-07T09:49:27.000Z</time>
</trkpt>
<trkpt lat="46.1262220" lon="10.5007560">
	<ele>2325.60</ele>
	<time>2023-08-07T09:49:28.000Z</time>
</trkpt>
<trkpt lat="46.1262220" lon="10.5007550">
	<ele>2325.80</ele>
	<time>2023-08-07T09:49:29.000Z</time>
</trkpt>
<trkpt lat="46.1262230" lon="10.5007540">
	<ele>2326.00</ele>
	<time>2023-08-07T09:49:30.000Z</time>
</trkpt>
<trkpt lat="46.1262230" lon="10.5007540">
	<ele>2326.00</ele>
	<time>2023-08-07T09:49:31.000Z</time>
</trkpt>
<trkpt lat="46.1262240" lon="10.5007530">
	<ele>2326.20</ele>
	<time>2023-08-07T09:49:32.000Z</time>
</trkpt>
<trkpt lat="46.1262240" lon="10.5007520">
	<ele>2326.20</ele>
	<time>2023-08-07T09:49:33.000Z</time>
</trkpt>
<trkpt lat="46.1262240" lon="10.5007510">
	<ele>2326.20</ele>
	<time>2023-08-07T09:49:34.000Z</time>
</trkpt>
<trkpt lat="46.1262250" lon="10.5007500">
	<ele>2326.00</ele>
	<time>2023-08-07T09:49:35.000Z</time>
</trkpt>
<trkpt lat="46.1262260" lon="10.5007500">
	<ele>2326.00</ele>
	<time>2023-08-07T09:49:36.000Z</time>
</trkpt>
<trkpt lat="46.1262260" lon="10.5007490">
	<ele>2326.00</ele>
	<time>2023-08-07T09:49:37.000Z</time>
</trkpt>
<trkpt lat="46.1262260" lon="10.5007480">
	<ele>2326.00</ele>
	<time>2023-08-07T09:49:38.000Z</time>
</trkpt>
<trkpt lat="46.1262270" lon="10.5007470">
	<ele>2325.80</ele>
	<time>2023-08-07T09:49:39.000Z</time>
</trkpt>
<trkpt lat="46.1262270" lon="10.5007460">
	<ele>2325.80</ele>
	<time>2023-08-07T09:49:40.000Z</time>
</trkpt>
<trkpt lat="46.1262280" lon="10.5007450">
	<ele>2325.80</ele>
	<time>2023-08-07T09:49:41.000Z</time>
</trkpt>
<trkpt lat="46.1262280" lon="10.5007440">
	<ele>2325.80</ele>
	<time>2023-08-07T09:49:42.000Z</time>
</trkpt>
<trkpt lat="46.1262290" lon="10.5007430">
	<ele>2325.80</ele>
	<time>2023-08-07T09:49:43.000Z</time>
</trkpt>
<trkpt lat="46.1262290" lon="10.5007420">
	<ele>2326.00</ele>
	<time>2023-08-07T09:49:44.000Z</time>
</trkpt>
<trkpt lat="46.1262300" lon="10.5007420">
	<ele>2326.00</ele>
	<time>2023-08-07T09:49:45.000Z</time>
</trkpt>
<trkpt lat="46.1262300" lon="10.5007410">
	<ele>2326.00</ele>
	<time>2023-08-07T09:49:46.000Z</time>
</trkpt>
<trkpt lat="46.1262310" lon="10.5007400">
	<ele>2326.20</ele>
	<time>2023-08-07T09:49:47.000Z</time>
</trkpt>
<trkpt lat="46.1262310" lon="10.5007390">
	<ele>2326.20</ele>
	<time>2023-08-07T09:49:48.000Z</time>
</trkpt>
<trkpt lat="46.1262320" lon="10.5007380">
	<ele>2326.20</ele>
	<time>2023-08-07T09:49:49.000Z</time>
</trkpt>
<trkpt lat="46.1262320" lon="10.5007370">
	<ele>2326.20</ele>
	<time>2023-08-07T09:49:50.000Z</time>
</trkpt>
<trkpt lat="46.1262320" lon="10.5007360">
	<ele>2326.20</ele>
	<time>2023-08-07T09:49:51.000Z</time>
</trkpt>
<trkpt lat="46.1262330" lon="10.5007360">
	<ele>2326.20</ele>
	<time>2023-08-07T09:49:52.000Z</time>
</trkpt>
<trkpt lat="46.1262330" lon="10.5007350">
	<ele>2326.20</ele>
	<time>2023-08-07T09:49:53.000Z</time>
</trkpt>
<trkpt lat="46.1262340" lon="10.5007340">
	<ele>2326.20</ele>
	<time>2023-08-07T09:49:54.000Z</time>
</trkpt>
<trkpt lat="46.1262340" lon="10.5007330">
	<ele>2326.20</ele>
	<time>2023-08-07T09:49:55.000Z</time>
</trkpt>
<trkpt lat="46.1262350" lon="10.5007330">
	<ele>2326.20</ele>
	<time>2023-08-07T09:49:56.000Z</time>
</trkpt>
<trkpt lat="46.1262350" lon="10.5007320">
	<ele>2326.20</ele>
	<time>2023-08-07T09:49:57.000Z</time>
</trkpt>
<trkpt lat="46.1262360" lon="10.5007310">
	<ele>2326.40</ele>
	<time>2023-08-07T09:49:58.000Z</time>
</trkpt>
<trkpt lat="46.1262360" lon="10.5007300">
	<ele>2326.40</ele>
	<time>2023-08-07T09:49:59.000Z</time>
</trkpt>
<trkpt lat="46.1262360" lon="10.5007290">
	<ele>2326.40</ele>
	<time>2023-08-07T09:50:00.000Z</time>
</trkpt>
<trkpt lat="46.1262370" lon="10.5007290">
	<ele>2326.60</ele>
	<time>2023-08-07T09:50:01.000Z</time>
</trkpt>
<trkpt lat="46.1262370" lon="10.5007280">
	<ele>2326.60</ele>
	<time>2023-08-07T09:50:02.000Z</time>
</trkpt>
<trkpt lat="46.1262380" lon="10.5007270">
	<ele>2326.60</ele>
	<time>2023-08-07T09:50:03.000Z</time>
</trkpt>
<trkpt lat="46.1262380" lon="10.5007260">
	<ele>2326.60</ele>
	<time>2023-08-07T09:50:04.000Z</time>
</trkpt>
<trkpt lat="46.1262390" lon="10.5007250">
	<ele>2326.60</ele>
	<time>2023-08-07T09:50:05.000Z</time>
</trkpt>
<trkpt lat="46.1262390" lon="10.5007240">
	<ele>2326.40</ele>
	<time>2023-08-07T09:50:06.000Z</time>
</trkpt>
<trkpt lat="46.1262400" lon="10.5007230">
	<ele>2326.40</ele>
	<time>2023-08-07T09:50:07.000Z</time>
</trkpt>
<trkpt lat="46.1262400" lon="10.5007230">
	<ele>2326.20</ele>
	<time>2023-08-07T09:50:08.000Z</time>
</trkpt>
<trkpt lat="46.1262400" lon="10.5007220">
	<ele>2326.00</ele>
	<time>2023-08-07T09:50:09.000Z</time>
</trkpt>
<trkpt lat="46.1262410" lon="10.5007210">
	<ele>2325.80</ele>
	<time>2023-08-07T09:50:10.000Z</time>
</trkpt>
<trkpt lat="46.1262410" lon="10.5007200">
	<ele>2325.80</ele>
	<time>2023-08-07T09:50:11.000Z</time>
</trkpt>
<trkpt lat="46.1262420" lon="10.5007200">
	<ele>2325.80</ele>
	<time>2023-08-07T09:50:12.000Z</time>
</trkpt>
<trkpt lat="46.1262420" lon="10.5007190">
	<ele>2325.80</ele>
	<time>2023-08-07T09:50:13.000Z</time>
</trkpt>
<trkpt lat="46.1262430" lon="10.5007180">
	<ele>2325.80</ele>
	<time>2023-08-07T09:50:14.000Z</time>
</trkpt>
<trkpt lat="46.1262430" lon="10.5007170">
	<ele>2325.80</ele>
	<time>2023-08-07T09:50:15.000Z</time>
</trkpt>
<trkpt lat="46.1262440" lon="10.5007170">
	<ele>2325.80</ele>
	<time>2023-08-07T09:50:16.000Z</time>
</trkpt>
<trkpt lat="46.1262440" lon="10.5007160">
	<ele>2325.80</ele>
	<time>2023-08-07T09:50:17.000Z</time>
</trkpt>
<trkpt lat="46.1262450" lon="10.5007150">
	<ele>2325.80</ele>
	<time>2023-08-07T09:50:18.000Z</time>
</trkpt>
<trkpt lat="46.1262450" lon="10.5007150">
	<ele>2326.00</ele>
	<time>2023-08-07T09:50:19.000Z</time>
</trkpt>
<trkpt lat="46.1262450" lon="10.5007140">
	<ele>2326.00</ele>
	<time>2023-08-07T09:50:20.000Z</time>
</trkpt>
<trkpt lat="46.1262460" lon="10.5007130">
	<ele>2326.00</ele>
	<time>2023-08-07T09:50:21.000Z</time>
</trkpt>
<trkpt lat="46.1262460" lon="10.5007120">
	<ele>2326.00</ele>
	<time>2023-08-07T09:50:22.000Z</time>
</trkpt>
<trkpt lat="46.1262470" lon="10.5007120">
	<ele>2326.00</ele>
	<time>2023-08-07T09:50:23.000Z</time>
</trkpt>
<trkpt lat="46.1262470" lon="10.5007110">
	<ele>2326.00</ele>
	<time>2023-08-07T09:50:24.000Z</time>
</trkpt>
<trkpt lat="46.1262470" lon="10.5007110">
	<ele>2326.00</ele>
	<time>2023-08-07T09:50:25.000Z</time>
</trkpt>
<trkpt lat="46.1262470" lon="10.5007100">
	<ele>2325.80</ele>
	<time>2023-08-07T09:50:26.000Z</time>
</trkpt>
<trkpt lat="46.1262480" lon="10.5007090">
	<ele>2325.80</ele>
	<time>2023-08-07T09:50:27.000Z</time>
</trkpt>
<trkpt lat="46.1262480" lon="10.5007090">
	<ele>2325.80</ele>
	<time>2023-08-07T09:50:28.000Z</time>
</trkpt>
<trkpt lat="46.1262490" lon="10.5007080">
	<ele>2325.80</ele>
	<time>2023-08-07T09:50:29.000Z</time>
</trkpt>
<trkpt lat="46.1262490" lon="10.5007070">
	<ele>2325.80</ele>
	<time>2023-08-07T09:50:30.000Z</time>
</trkpt>
<trkpt lat="46.1262490" lon="10.5007070">
	<ele>2325.80</ele>
	<time>2023-08-07T09:50:31.000Z</time>
</trkpt>
<trkpt lat="46.1262500" lon="10.5007060">
	<ele>2326.00</ele>
	<time>2023-08-07T09:50:32.000Z</time>
</trkpt>
<trkpt lat="46.1262500" lon="10.5007050">
	<ele>2326.00</ele>
	<time>2023-08-07T09:50:33.000Z</time>
</trkpt>
<trkpt lat="46.1262500" lon="10.5007050">
	<ele>2326.00</ele>
	<time>2023-08-07T09:50:34.000Z</time>
</trkpt>
<trkpt lat="46.1262510" lon="10.5007040">
	<ele>2326.00</ele>
	<time>2023-08-07T09:50:35.000Z</time>
</trkpt>
<trkpt lat="46.1262510" lon="10.5007030">
	<ele>2325.80</ele>
	<time>2023-08-07T09:50:36.000Z</time>
</trkpt>
<trkpt lat="46.1262520" lon="10.5007020">
	<ele>2325.80</ele>
	<time>2023-08-07T09:50:37.000Z</time>
</trkpt>
<trkpt lat="46.1262520" lon="10.5007010">
	<ele>2325.80</ele>
	<time>2023-08-07T09:50:38.000Z</time>
</trkpt>
<trkpt lat="46.1262530" lon="10.5007000">
	<ele>2325.80</ele>
	<time>2023-08-07T09:50:39.000Z</time>
</trkpt>
<trkpt lat="46.1262530" lon="10.5006990">
	<ele>2325.80</ele>
	<time>2023-08-07T09:50:40.000Z</time>
</trkpt>
<trkpt lat="46.1262530" lon="10.5006990">
	<ele>2325.80</ele>
	<time>2023-08-07T09:50:41.000Z</time>
</trkpt>
<trkpt lat="46.1262540" lon="10.5006980">
	<ele>2325.80</ele>
	<time>2023-08-07T09:50:42.000Z</time>
</trkpt>
<trkpt lat="46.1262540" lon="10.5006970">
	<ele>2325.80</ele>
	<time>2023-08-07T09:50:43.000Z</time>
</trkpt>
<trkpt lat="46.1262550" lon="10.5006960">
	<ele>2325.60</ele>
	<time>2023-08-07T09:50:44.000Z</time>
</trkpt>
<trkpt lat="46.1262550" lon="10.5006950">
	<ele>2325.60</ele>
	<time>2023-08-07T09:50:45.000Z</time>
</trkpt>
<trkpt lat="46.1262560" lon="10.5006950">
	<ele>2325.60</ele>
	<time>2023-08-07T09:50:46.000Z</time>
</trkpt>
<trkpt lat="46.1262560" lon="10.5006940">
	<ele>2325.40</ele>
	<time>2023-08-07T09:50:47.000Z</time>
</trkpt>
<trkpt lat="46.1262560" lon="10.5006930">
	<ele>2325.40</ele>
	<time>2023-08-07T09:50:48.000Z</time>
</trkpt>
<trkpt lat="46.1262570" lon="10.5006930">
	<ele>2325.60</ele>
	<time>2023-08-07T09:50:49.000Z</time>
</trkpt>
<trkpt lat="46.1262570" lon="10.5006920">
	<ele>2325.60</ele>
	<time>2023-08-07T09:50:50.000Z</time>
</trkpt>
<trkpt lat="46.1262580" lon="10.5006910">
	<ele>2325.60</ele>
	<time>2023-08-07T09:50:51.000Z</time>
</trkpt>
<trkpt lat="46.1262580" lon="10.5006900">
	<ele>2325.60</ele>
	<time>2023-08-07T09:50:52.000Z</time>
</trkpt>
<trkpt lat="46.1262590" lon="10.5006890">
	<ele>2325.60</ele>
	<time>2023-08-07T09:50:53.000Z</time>
</trkpt>
<trkpt lat="46.1262590" lon="10.5006890">
	<ele>2325.60</ele>
	<time>2023-08-07T09:50:54.000Z</time>
</trkpt>
<trkpt lat="46.1262590" lon="10.5006880">
	<ele>2325.40</ele>
	<time>2023-08-07T09:50:55.000Z</time>
</trkpt>
<trkpt lat="46.1262600" lon="10.5006880">
	<ele>2325.40</ele>
	<time>2023-08-07T09:50:56.000Z</time>
</trkpt>
<trkpt lat="46.1262600" lon="10.5006870">
	<ele>2325.40</ele>
	<time>2023-08-07T09:50:57.000Z</time>
</trkpt>
<trkpt lat="46.1262610" lon="10.5006860">
	<ele>2325.40</ele>
	<time>2023-08-07T09:50:58.000Z</time>
</trkpt>
<trkpt lat="46.1262610" lon="10.5006850">
	<ele>2325.40</ele>
	<time>2023-08-07T09:50:59.000Z</time>
</trkpt>
<trkpt lat="46.1262620" lon="10.5006850">
	<ele>2325.60</ele>
	<time>2023-08-07T09:51:00.000Z</time>
</trkpt>
<trkpt lat="46.1262620" lon="10.5006840">
	<ele>2325.60</ele>
	<time>2023-08-07T09:51:01.000Z</time>
</trkpt>
<trkpt lat="46.1262620" lon="10.5006840">
	<ele>2325.80</ele>
	<time>2023-08-07T09:51:02.000Z</time>
</trkpt>
<trkpt lat="46.1262630" lon="10.5006830">
	<ele>2325.80</ele>
	<time>2023-08-07T09:51:03.000Z</time>
</trkpt>
<trkpt lat="46.1262630" lon="10.5006820">
	<ele>2326.20</ele>
	<time>2023-08-07T09:51:04.000Z</time>
</trkpt>
<trkpt lat="46.1262630" lon="10.5006820">
	<ele>2326.40</ele>
	<time>2023-08-07T09:51:05.000Z</time>
</trkpt>
<trkpt lat="46.1262640" lon="10.5006810">
	<ele>2326.40</ele>
	<time>2023-08-07T09:51:06.000Z</time>
</trkpt>
<trkpt lat="46.1262640" lon="10.5006800">
	<ele>2326.40</ele>
	<time>2023-08-07T09:51:07.000Z</time>
</trkpt>
<trkpt lat="46.1262650" lon="10.5006800">
	<ele>2326.60</ele>
	<time>2023-08-07T09:51:08.000Z</time>
</trkpt>
<trkpt lat="46.1262650" lon="10.5006790">
	<ele>2326.60</ele>
	<time>2023-08-07T09:51:09.000Z</time>
</trkpt>
<trkpt lat="46.1262650" lon="10.5006780">
	<ele>2326.60</ele>
	<time>2023-08-07T09:51:10.000Z</time>
</trkpt>
<trkpt lat="46.1262660" lon="10.5006780">
	<ele>2326.20</ele>
	<time>2023-08-07T09:51:11.000Z</time>
</trkpt>
<trkpt lat="46.1262660" lon="10.5006770">
	<ele>2326.40</ele>
	<time>2023-08-07T09:51:12.000Z</time>
</trkpt>
<trkpt lat="46.1262670" lon="10.5006760">
	<ele>2326.60</ele>
	<time>2023-08-07T09:51:13.000Z</time>
</trkpt>
<trkpt lat="46.1262670" lon="10.5006750">
	<ele>2326.60</ele>
	<time>2023-08-07T09:51:14.000Z</time>
</trkpt>
<trkpt lat="46.1262670" lon="10.5006750">
	<ele>2327.20</ele>
	<time>2023-08-07T09:51:15.000Z</time>
</trkpt>
<trkpt lat="46.1262680" lon="10.5006740">
	<ele>2327.40</ele>
	<time>2023-08-07T09:51:16.000Z</time>
</trkpt>
<trkpt lat="46.1262680" lon="10.5006730">
	<ele>2327.60</ele>
	<time>2023-08-07T09:51:17.000Z</time>
</trkpt>
<trkpt lat="46.1262690" lon="10.5006720">
	<ele>2327.80</ele>
	<time>2023-08-07T09:51:18.000Z</time>
</trkpt>
<trkpt lat="46.1262690" lon="10.5006720">
	<ele>2327.80</ele>
	<time>2023-08-07T09:51:19.000Z</time>
</trkpt>
<trkpt lat="46.1262690" lon="10.5006710">
	<ele>2328.00</ele>
	<time>2023-08-07T09:51:20.000Z</time>
</trkpt>
<trkpt lat="46.1262700" lon="10.5006700">
	<ele>2328.20</ele>
	<time>2023-08-07T09:51:21.000Z</time>
</trkpt>
<trkpt lat="46.1262700" lon="10.5006700">
	<ele>2328.20</ele>
	<time>2023-08-07T09:51:22.000Z</time>
</trkpt>
<trkpt lat="46.1262700" lon="10.5006690">
	<ele>2328.40</ele>
	<time>2023-08-07T09:51:23.000Z</time>
</trkpt>
<trkpt lat="46.1262710" lon="10.5006680">
	<ele>2328.40</ele>
	<time>2023-08-07T09:51:24.000Z</time>
</trkpt>
<trkpt lat="46.1262710" lon="10.5006670">
	<ele>2328.60</ele>
	<time>2023-08-07T09:51:25.000Z</time>
</trkpt>
<trkpt lat="46.1262720" lon="10.5006670">
	<ele>2328.60</ele>
	<time>2023-08-07T09:51:26.000Z</time>
</trkpt>
<trkpt lat="46.1262720" lon="10.5006660">
	<ele>2328.60</ele>
	<time>2023-08-07T09:51:27.000Z</time>
</trkpt>
<trkpt lat="46.1262720" lon="10.5006650">
	<ele>2328.80</ele>
	<time>2023-08-07T09:51:28.000Z</time>
</trkpt>
<trkpt lat="46.1262730" lon="10.5006640">
	<ele>2329.00</ele>
	<time>2023-08-07T09:51:29.000Z</time>
</trkpt>
<trkpt lat="46.1262730" lon="10.5006630">
	<ele>2329.20</ele>
	<time>2023-08-07T09:51:30.000Z</time>
</trkpt>
<trkpt lat="46.1262730" lon="10.5006630">
	<ele>2329.20</ele>
	<time>2023-08-07T09:51:31.000Z</time>
</trkpt>
<trkpt lat="46.1262740" lon="10.5006620">
	<ele>2329.40</ele>
	<time>2023-08-07T09:51:32.000Z</time>
</trkpt>
<trkpt lat="46.1262740" lon="10.5006610">
	<ele>2329.60</ele>
	<time>2023-08-07T09:51:33.000Z</time>
</trkpt>
<trkpt lat="46.1262740" lon="10.5006600">
	<ele>2329.60</ele>
	<time>2023-08-07T09:51:34.000Z</time>
</trkpt>
<trkpt lat="46.1262750" lon="10.5006600">
	<ele>2329.60</ele>
	<time>2023-08-07T09:51:35.000Z</time>
</trkpt>
<trkpt lat="46.1262750" lon="10.5006590">
	<ele>2329.60</ele>
	<time>2023-08-07T09:51:36.000Z</time>
</trkpt>
<trkpt lat="46.1262760" lon="10.5006580">
	<ele>2329.60</ele>
	<time>2023-08-07T09:51:37.000Z</time>
</trkpt>
<trkpt lat="46.1262760" lon="10.5006570">
	<ele>2329.60</ele>
	<time>2023-08-07T09:51:38.000Z</time>
</trkpt>
<trkpt lat="46.1262760" lon="10.5006560">
	<ele>2329.60</ele>
	<time>2023-08-07T09:51:39.000Z</time>
</trkpt>
<trkpt lat="46.1262770" lon="10.5006560">
	<ele>2330.00</ele>
	<time>2023-08-07T09:51:40.000Z</time>
</trkpt>
<trkpt lat="46.1263130" lon="10.5005760">
	<ele>2330.20</ele>
	<time>2023-08-07T09:51:41.000Z</time>
</trkpt>
<trkpt lat="46.1263510" lon="10.5004940">
	<ele>2330.60</ele>
	<time>2023-08-07T09:51:42.000Z</time>
</trkpt>
<trkpt lat="46.1263890" lon="10.5004120">
	<ele>2330.80</ele>
	<time>2023-08-07T09:51:43.000Z</time>
</trkpt>
<trkpt lat="46.1264260" lon="10.5003320">
	<ele>2331.00</ele>
	<time>2023-08-07T09:51:44.000Z</time>
</trkpt>
<trkpt lat="46.1264650" lon="10.5002520">
	<ele>2331.20</ele>
	<time>2023-08-07T09:51:45.000Z</time>
</trkpt>
<trkpt lat="46.1265010" lon="10.5001690">
	<ele>2331.40</ele>
	<time>2023-08-07T09:51:46.000Z</time>
</trkpt>
<trkpt lat="46.1265340" lon="10.5000820">
	<ele>2331.40</ele>
	<time>2023-08-07T09:51:47.000Z</time>
</trkpt>
<trkpt lat="46.1265670" lon="10.4999950">
	<ele>2331.40</ele>
	<time>2023-08-07T09:51:48.000Z</time>
</trkpt>
<trkpt lat="46.1266030" lon="10.4999100">
	<ele>2331.40</ele>
	<time>2023-08-07T09:51:49.000Z</time>
</trkpt>
<trkpt lat="46.1266390" lon="10.4998240">
	<ele>2331.40</ele>
	<time>2023-08-07T09:51:50.000Z</time>
</trkpt>
<trkpt lat="46.1266400" lon="10.4998160">
	<ele>2331.40</ele>
	<time>2023-08-07T09:51:51.000Z</time>
</trkpt>
<trkpt lat="46.1266420" lon="10.4998070">
	<ele>2331.40</ele>
	<time>2023-08-07T09:51:52.000Z</time>
</trkpt>
<trkpt lat="46.1266430" lon="10.4998020">
	<ele>2331.40</ele>
	<time>2023-08-07T09:51:53.000Z</time>
</trkpt>
<trkpt lat="46.1266420" lon="10.4998000">
	<ele>2331.60</ele>
	<time>2023-08-07T09:51:54.000Z</time>
</trkpt>
<trkpt lat="46.1266400" lon="10.4997960">
	<ele>2331.80</ele>
	<time>2023-08-07T09:51:55.000Z</time>
</trkpt>
<trkpt lat="46.1266380" lon="10.4997890">
	<ele>2332.00</ele>
	<time>2023-08-07T09:51:56.000Z</time>
</trkpt>
<trkpt lat="46.1266370" lon="10.4997830">
	<ele>2332.20</ele>
	<time>2023-08-07T09:51:57.000Z</time>
</trkpt>
<trkpt lat="46.1266370" lon="10.4997770">
	<ele>2332.20</ele>
	<time>2023-08-07T09:51:58.000Z</time>
</trkpt>
<trkpt lat="46.1266360" lon="10.4997720">
	<ele>2332.40</ele>
	<time>2023-08-07T09:51:59.000Z</time>
</trkpt>
<trkpt lat="46.1266370" lon="10.4997670">
	<ele>2332.60</ele>
	<time>2023-08-07T09:52:00.000Z</time>
</trkpt>
<trkpt lat="46.1266400" lon="10.4997640">
	<ele>2332.60</ele>
	<time>2023-08-07T09:52:01.000Z</time>
</trkpt>
<trkpt lat="46.1266440" lon="10.4997610">
	<ele>2332.80</ele>
	<time>2023-08-07T09:52:02.000Z</time>
</trkpt>
<trkpt lat="46.1266460" lon="10.4997620">
	<ele>2333.00</ele>
	<time>2023-08-07T09:52:03.000Z</time>
</trkpt>
<trkpt lat="46.1266500" lon="10.4997670">
	<ele>2333.20</ele>
	<time>2023-08-07T09:52:04.000Z</time>
</trkpt>
<trkpt lat="46.1266530" lon="10.4997690">
	<ele>2333.40</ele>
	<time>2023-08-07T09:52:05.000Z</time>
</trkpt>
<trkpt lat="46.1266550" lon="10.4997700">
	<ele>2333.80</ele>
	<time>2023-08-07T09:52:06.000Z</time>
</trkpt>
<trkpt lat="46.1266560" lon="10.4997700">
	<ele>2334.00</ele>
	<time>2023-08-07T09:52:07.000Z</time>
</trkpt>
<trkpt lat="46.1266560" lon="10.4997700">
	<ele>2334.20</ele>
	<time>2023-08-07T09:52:08.000Z</time>
</trkpt>
<trkpt lat="46.1266560" lon="10.4997700">
	<ele>2334.20</ele>
	<time>2023-08-07T09:52:09.000Z</time>
</trkpt>
<trkpt lat="46.1266560" lon="10.4997700">
	<ele>2334.40</ele>
	<time>2023-08-07T09:52:10.000Z</time>
</trkpt>
<trkpt lat="46.1266560" lon="10.4997700">
	<ele>2334.60</ele>
	<time>2023-08-07T09:52:11.000Z</time>
</trkpt>
<trkpt lat="46.1266560" lon="10.4997700">
	<ele>2334.60</ele>
	<time>2023-08-07T09:52:12.000Z</time>
</trkpt>
<trkpt lat="46.1266560" lon="10.4997700">
	<ele>2335.00</ele>
	<time>2023-08-07T09:52:13.000Z</time>
</trkpt>
<trkpt lat="46.1266560" lon="10.4997700">
	<ele>2335.20</ele>
	<time>2023-08-07T09:52:14.000Z</time>
</trkpt>
<trkpt lat="46.1266560" lon="10.4997700">
	<ele>2335.40</ele>
	<time>2023-08-07T09:52:15.000Z</time>
</trkpt>
<trkpt lat="46.1266560" lon="10.4997700">
	<ele>2335.60</ele>
	<time>2023-08-07T09:52:16.000Z</time>
</trkpt>
<trkpt lat="46.1266560" lon="10.4997700">
	<ele>2335.80</ele>
	<time>2023-08-07T09:52:17.000Z</time>
</trkpt>
<trkpt lat="46.1266560" lon="10.4997700">
	<ele>2336.00</ele>
	<time>2023-08-07T09:52:18.000Z</time>
</trkpt>
<trkpt lat="46.1266560" lon="10.4997700">
	<ele>2336.20</ele>
	<time>2023-08-07T09:52:19.000Z</time>
</trkpt>
<trkpt lat="46.1266560" lon="10.4997700">
	<ele>2336.20</ele>
	<time>2023-08-07T09:52:20.000Z</time>
</trkpt>
<trkpt lat="46.1266560" lon="10.4997700">
	<ele>2336.20</ele>
	<time>2023-08-07T09:52:21.000Z</time>
</trkpt>
<trkpt lat="46.1266560" lon="10.4997700">
	<ele>2336.40</ele>
	<time>2023-08-07T09:52:22.000Z</time>
</trkpt>
<trkpt lat="46.1266560" lon="10.4997700">
	<ele>2336.40</ele>
	<time>2023-08-07T09:52:23.000Z</time>
</trkpt>
<trkpt lat="46.1266590" lon="10.4997700">
	<ele>2336.40</ele>
	<time>2023-08-07T09:52:24.000Z</time>
</trkpt>
<trkpt lat="46.1266610" lon="10.4997720">
	<ele>2336.60</ele>
	<time>2023-08-07T09:52:25.000Z</time>
</trkpt>
<trkpt lat="46.1266630" lon="10.4997720">
	<ele>2336.80</ele>
	<time>2023-08-07T09:52:26.000Z</time>
</trkpt>
<trkpt lat="46.1266670" lon="10.4997720">
	<ele>2336.80</ele>
	<time>2023-08-07T09:52:27.000Z</time>
</trkpt>
<trkpt lat="46.1266720" lon="10.4997800">
	<ele>2336.80</ele>
	<time>2023-08-07T09:52:28.000Z</time>
</trkpt>
<trkpt lat="46.1266730" lon="10.4997840">
	<ele>2337.00</ele>
	<time>2023-08-07T09:52:29.000Z</time>
</trkpt>
<trkpt lat="46.1266770" lon="10.4997860">
	<ele>2337.00</ele>
	<time>2023-08-07T09:52:30.000Z</time>
</trkpt>
<trkpt lat="46.1266790" lon="10.4997900">
	<ele>2337.00</ele>
	<time>2023-08-07T09:52:31.000Z</time>
</trkpt>
<trkpt lat="46.1266810" lon="10.4997930">
	<ele>2337.20</ele>
	<time>2023-08-07T09:52:32.000Z</time>
</trkpt>
<trkpt lat="46.1266830" lon="10.4997970">
	<ele>2337.20</ele>
	<time>2023-08-07T09:52:33.000Z</time>
</trkpt>
<trkpt lat="46.1266860" lon="10.4997990">
	<ele>2337.20</ele>
	<time>2023-08-07T09:52:34.000Z</time>
</trkpt>
<trkpt lat="46.1266880" lon="10.4998030">
	<ele>2337.40</ele>
	<time>2023-08-07T09:52:35.000Z</time>
</trkpt>
<trkpt lat="46.1266900" lon="10.4998040">
	<ele>2337.40</ele>
	<time>2023-08-07T09:52:36.000Z</time>
</trkpt>
<trkpt lat="46.1266910" lon="10.4998040">
	<ele>2337.40</ele>
	<time>2023-08-07T09:52:37.000Z</time>
</trkpt>
<trkpt lat="46.1266920" lon="10.4998040">
	<ele>2337.40</ele>
	<time>2023-08-07T09:52:38.000Z</time>
</trkpt>
<trkpt lat="46.1266940" lon="10.4998040">
	<ele>2337.60</ele>
	<time>2023-08-07T09:52:39.000Z</time>
</trkpt>
<trkpt lat="46.1266960" lon="10.4998040">
	<ele>2338.00</ele>
	<time>2023-08-07T09:52:40.000Z</time>
</trkpt>
<trkpt lat="46.1266990" lon="10.4998040">
	<ele>2338.00</ele>
	<time>2023-08-07T09:52:41.000Z</time>
</trkpt>
<trkpt lat="46.1267010" lon="10.4998040">
	<ele>2338.20</ele>
	<time>2023-08-07T09:52:42.000Z</time>
</trkpt>
<trkpt lat="46.1267030" lon="10.4998040">
	<ele>2338.40</ele>
	<time>2023-08-07T09:52:43.000Z</time>
</trkpt>
<trkpt lat="46.1267050" lon="10.4998040">
	<ele>2338.60</ele>
	<time>2023-08-07T09:52:44.000Z</time>
</trkpt>
<trkpt lat="46.1267080" lon="10.4998040">
	<ele>2338.80</ele>
	<time>2023-08-07T09:52:45.000Z</time>
</trkpt>
<trkpt lat="46.1267120" lon="10.4998040">
	<ele>2338.80</ele>
	<time>2023-08-07T09:52:46.000Z</time>
</trkpt>
<trkpt lat="46.1267150" lon="10.4998040">
	<ele>2339.00</ele>
	<time>2023-08-07T09:52:47.000Z</time>
</trkpt>
<trkpt lat="46.1267180" lon="10.4998040">
	<ele>2339.00</ele>
	<time>2023-08-07T09:52:48.000Z</time>
</trkpt>
<trkpt lat="46.1267210" lon="10.4998040">
	<ele>2339.20</ele>
	<time>2023-08-07T09:52:49.000Z</time>
</trkpt>
<trkpt lat="46.1267220" lon="10.4998040">
	<ele>2339.20</ele>
	<time>2023-08-07T09:52:50.000Z</time>
</trkpt>
<trkpt lat="46.1267220" lon="10.4998030">
	<ele>2339.60</ele>
	<time>2023-08-07T09:52:51.000Z</time>
</trkpt>
<trkpt lat="46.1267230" lon="10.4998010">
	<ele>2339.80</ele>
	<time>2023-08-07T09:52:52.000Z</time>
</trkpt>
<trkpt lat="46.1267230" lon="10.4997990">
	<ele>2340.20</ele>
	<time>2023-08-07T09:52:53.000Z</time>
</trkpt>
<trkpt lat="46.1267240" lon="10.4997940">
	<ele>2340.60</ele>
	<time>2023-08-07T09:52:54.000Z</time>
</trkpt>
<trkpt lat="46.1267240" lon="10.4997890">
	<ele>2340.80</ele>
	<time>2023-08-07T09:52:55.000Z</time>
</trkpt>
<trkpt lat="46.1267240" lon="10.4997830">
	<ele>2341.00</ele>
	<time>2023-08-07T09:52:56.000Z</time>
</trkpt>
<trkpt lat="46.1267240" lon="10.4997780">
	<ele>2341.00</ele>
	<time>2023-08-07T09:52:57.000Z</time>
</trkpt>
<trkpt lat="46.1267240" lon="10.4997740">
	<ele>2341.00</ele>
	<time>2023-08-07T09:52:58.000Z</time>
</trkpt>
<trkpt lat="46.1267250" lon="10.4997700">
	<ele>2341.00</ele>
	<time>2023-08-07T09:52:59.000Z</time>
</trkpt>
<trkpt lat="46.1267260" lon="10.4997680">
	<ele>2341.20</ele>
	<time>2023-08-07T09:53:00.000Z</time>
</trkpt>
<trkpt lat="46.1267310" lon="10.4997650">
	<ele>2341.20</ele>
	<time>2023-08-07T09:53:01.000Z</time>
</trkpt>
<trkpt lat="46.1267330" lon="10.4997640">
	<ele>2341.60</ele>
	<time>2023-08-07T09:53:02.000Z</time>
</trkpt>
<trkpt lat="46.1267360" lon="10.4997630">
	<ele>2341.80</ele>
	<time>2023-08-07T09:53:03.000Z</time>
</trkpt>
<trkpt lat="46.1267420" lon="10.4997620">
	<ele>2341.80</ele>
	<time>2023-08-07T09:53:04.000Z</time>
</trkpt>
<trkpt lat="46.1267460" lon="10.4997610">
	<ele>2342.00</ele>
	<time>2023-08-07T09:53:05.000Z</time>
</trkpt>
<trkpt lat="46.1267490" lon="10.4997580">
	<ele>2342.20</ele>
	<time>2023-08-07T09:53:06.000Z</time>
</trkpt>
<trkpt lat="46.1267520" lon="10.4997560">
	<ele>2342.20</ele>
	<time>2023-08-07T09:53:07.000Z</time>
</trkpt>
<trkpt lat="46.1267540" lon="10.4997540">
	<ele>2342.20</ele>
	<time>2023-08-07T09:53:08.000Z</time>
</trkpt>
<trkpt lat="46.1267570" lon="10.4997530">
	<ele>2342.40</ele>
	<time>2023-08-07T09:53:09.000Z</time>
</trkpt>
<trkpt lat="46.1267580" lon="10.4997520">
	<ele>2342.40</ele>
	<time>2023-08-07T09:53:10.000Z</time>
</trkpt>
<trkpt lat="46.1267590" lon="10.4997510">
	<ele>2342.60</ele>
	<time>2023-08-07T09:53:11.000Z</time>
</trkpt>
<trkpt lat="46.1267590" lon="10.4997490">
	<ele>2342.60</ele>
	<time>2023-08-07T09:53:12.000Z</time>
</trkpt>
<trkpt lat="46.1267600" lon="10.4997480">
	<ele>2343.00</ele>
	<time>2023-08-07T09:53:13.000Z</time>
</trkpt>
<trkpt lat="46.1267610" lon="10.4997470">
	<ele>2343.20</ele>
	<time>2023-08-07T09:53:14.000Z</time>
</trkpt>
<trkpt lat="46.1267620" lon="10.4997440">
	<ele>2343.20</ele>
	<time>2023-08-07T09:53:15.000Z</time>
</trkpt>
<trkpt lat="46.1267640" lon="10.4997420">
	<ele>2343.40</ele>
	<time>2023-08-07T09:53:16.000Z</time>
</trkpt>
<trkpt lat="46.1267650" lon="10.4997420">
	<ele>2343.40</ele>
	<time>2023-08-07T09:53:17.000Z</time>
</trkpt>
<trkpt lat="46.1267680" lon="10.4997410">
	<ele>2343.60</ele>
	<time>2023-08-07T09:53:18.000Z</time>
</trkpt>
<trkpt lat="46.1267710" lon="10.4997390">
	<ele>2343.60</ele>
	<time>2023-08-07T09:53:19.000Z</time>
</trkpt>
<trkpt lat="46.1267730" lon="10.4997390">
	<ele>2343.60</ele>
	<time>2023-08-07T09:53:20.000Z</time>
</trkpt>
<trkpt lat="46.1267750" lon="10.4997370">
	<ele>2343.60</ele>
	<time>2023-08-07T09:53:21.000Z</time>
</trkpt>
<trkpt lat="46.1267780" lon="10.4997360">
	<ele>2343.80</ele>
	<time>2023-08-07T09:53:22.000Z</time>
</trkpt>
<trkpt lat="46.1267810" lon="10.4997330">
	<ele>2343.80</ele>
	<time>2023-08-07T09:53:23.000Z</time>
</trkpt>
<trkpt lat="46.1267820" lon="10.4997320">
	<ele>2343.80</ele>
	<time>2023-08-07T09:53:24.000Z</time>
</trkpt>
<trkpt lat="46.1267830" lon="10.4997270">
	<ele>2343.80</ele>
	<time>2023-08-07T09:53:25.000Z</time>
</trkpt>
<trkpt lat="46.1267840" lon="10.4997220">
	<ele>2343.80</ele>
	<time>2023-08-07T09:53:26.000Z</time>
</trkpt>
<trkpt lat="46.1267840" lon="10.4997170">
	<ele>2344.00</ele>
	<time>2023-08-07T09:53:27.000Z</time>
</trkpt>
<trkpt lat="46.1267850" lon="10.4997130">
	<ele>2344.20</ele>
	<time>2023-08-07T09:53:28.000Z</time>
</trkpt>
<trkpt lat="46.1267850" lon="10.4997100">
	<ele>2344.20</ele>
	<time>2023-08-07T09:53:29.000Z</time>
</trkpt>
<trkpt lat="46.1267860" lon="10.4997080">
	<ele>2344.40</ele>
	<time>2023-08-07T09:53:30.000Z</time>
</trkpt>
<trkpt lat="46.1267860" lon="10.4997060">
	<ele>2344.80</ele>
	<time>2023-08-07T09:53:31.000Z</time>
</trkpt>
<trkpt lat="46.1267860" lon="10.4997030">
	<ele>2345.00</ele>
	<time>2023-08-07T09:53:32.000Z</time>
</trkpt>
<trkpt lat="46.1267860" lon="10.4997020">
	<ele>2345.00</ele>
	<time>2023-08-07T09:53:33.000Z</time>
</trkpt>
<trkpt lat="46.1267870" lon="10.4997000">
	<ele>2345.20</ele>
	<time>2023-08-07T09:53:34.000Z</time>
</trkpt>
<trkpt lat="46.1267870" lon="10.4996960">
	<ele>2345.40</ele>
	<time>2023-08-07T09:53:35.000Z</time>
</trkpt>
<trkpt lat="46.1267870" lon="10.4996940">
	<ele>2345.60</ele>
	<time>2023-08-07T09:53:36.000Z</time>
</trkpt>
<trkpt lat="46.1267880" lon="10.4996920">
	<ele>2345.60</ele>
	<time>2023-08-07T09:53:37.000Z</time>
</trkpt>
<trkpt lat="46.1267880" lon="10.4996890">
	<ele>2345.80</ele>
	<time>2023-08-07T09:53:38.000Z</time>
</trkpt>
<trkpt lat="46.1267880" lon="10.4996850">
	<ele>2345.80</ele>
	<time>2023-08-07T09:53:39.000Z</time>
</trkpt>
<trkpt lat="46.1267890" lon="10.4996810">
	<ele>2346.00</ele>
	<time>2023-08-07T09:53:40.000Z</time>
</trkpt>
<trkpt lat="46.1267890" lon="10.4996760">
	<ele>2346.00</ele>
	<time>2023-08-07T09:53:41.000Z</time>
</trkpt>
<trkpt lat="46.1267890" lon="10.4996710">
	<ele>2346.20</ele>
	<time>2023-08-07T09:53:42.000Z</time>
</trkpt>
<trkpt lat="46.1267900" lon="10.4996660">
	<ele>2346.40</ele>
	<time>2023-08-07T09:53:43.000Z</time>
</trkpt>
<trkpt lat="46.1267900" lon="10.4996620">
	<ele>2346.60</ele>
	<time>2023-08-07T09:53:44.000Z</time>
</trkpt>
<trkpt lat="46.1267900" lon="10.4996570">
	<ele>2346.80</ele>
	<time>2023-08-07T09:53:45.000Z</time>
</trkpt>
<trkpt lat="46.1267910" lon="10.4996520">
	<ele>2347.00</ele>
	<time>2023-08-07T09:53:46.000Z</time>
</trkpt>
<trkpt lat="46.1267920" lon="10.4996490">
	<ele>2347.20</ele>
	<time>2023-08-07T09:53:47.000Z</time>
</trkpt>
<trkpt lat="46.1267920" lon="10.4996440">
	<ele>2347.40</ele>
	<time>2023-08-07T09:53:48.000Z</time>
</trkpt>
<trkpt lat="46.1267920" lon="10.4996390">
	<ele>2347.40</ele>
	<time>2023-08-07T09:53:49.000Z</time>
</trkpt>
<trkpt lat="46.1267940" lon="10.4996350">
	<ele>2347.60</ele>
	<time>2023-08-07T09:53:50.000Z</time>
</trkpt>
<trkpt lat="46.1267970" lon="10.4996310">
	<ele>2347.60</ele>
	<time>2023-08-07T09:53:51.000Z</time>
</trkpt>
<trkpt lat="46.1268000" lon="10.4996290">
	<ele>2347.80</ele>
	<time>2023-08-07T09:53:52.000Z</time>
</trkpt>
<trkpt lat="46.1268030" lon="10.4996260">
	<ele>2348.00</ele>
	<time>2023-08-07T09:53:53.000Z</time>
</trkpt>
<trkpt lat="46.1268050" lon="10.4996240">
	<ele>2348.00</ele>
	<time>2023-08-07T09:53:54.000Z</time>
</trkpt>
<trkpt lat="46.1268080" lon="10.4996230">
	<ele>2348.20</ele>
	<time>2023-08-07T09:53:55.000Z</time>
</trkpt>
<trkpt lat="46.1268110" lon="10.4996220">
	<ele>2348.20</ele>
	<time>2023-08-07T09:53:56.000Z</time>
</trkpt>
<trkpt lat="46.1268120" lon="10.4996210">
	<ele>2348.40</ele>
	<time>2023-08-07T09:53:57.000Z</time>
</trkpt>
<trkpt lat="46.1268130" lon="10.4996210">
	<ele>2348.60</ele>
	<time>2023-08-07T09:53:58.000Z</time>
</trkpt>
<trkpt lat="46.1268140" lon="10.4996200">
	<ele>2348.60</ele>
	<time>2023-08-07T09:53:59.000Z</time>
</trkpt>
<trkpt lat="46.1268140" lon="10.4996190">
	<ele>2348.60</ele>
	<time>2023-08-07T09:54:00.000Z</time>
</trkpt>
<trkpt lat="46.1268150" lon="10.4996190">
	<ele>2348.80</ele>
	<time>2023-08-07T09:54:01.000Z</time>
</trkpt>
<trkpt lat="46.1268150" lon="10.4996180">
	<ele>2349.00</ele>
	<time>2023-08-07T09:54:02.000Z</time>
</trkpt>
<trkpt lat="46.1268150" lon="10.4996160">
	<ele>2349.20</ele>
	<time>2023-08-07T09:54:03.000Z</time>
</trkpt>
<trkpt lat="46.1268160" lon="10.4996140">
	<ele>2349.20</ele>
	<time>2023-08-07T09:54:04.000Z</time>
</trkpt>
<trkpt lat="46.1268160" lon="10.4996120">
	<ele>2349.40</ele>
	<time>2023-08-07T09:54:05.000Z</time>
</trkpt>
<trkpt lat="46.1268170" lon="10.4996100">
	<ele>2349.40</ele>
	<time>2023-08-07T09:54:06.000Z</time>
</trkpt>
<trkpt lat="46.1268180" lon="10.4996080">
	<ele>2349.40</ele>
	<time>2023-08-07T09:54:07.000Z</time>
</trkpt>
<trkpt lat="46.1268190" lon="10.4996060">
	<ele>2349.40</ele>
	<time>2023-08-07T09:54:08.000Z</time>
</trkpt>
<trkpt lat="46.1268200" lon="10.4996040">
	<ele>2349.60</ele>
	<time>2023-08-07T09:54:09.000Z</time>
</trkpt>
<trkpt lat="46.1268220" lon="10.4996020">
	<ele>2349.80</ele>
	<time>2023-08-07T09:54:10.000Z</time>
</trkpt>
<trkpt lat="46.1268230" lon="10.4996000">
	<ele>2349.80</ele>
	<time>2023-08-07T09:54:11.000Z</time>
</trkpt>
<trkpt lat="46.1268240" lon="10.4995960">
	<ele>2350.20</ele>
	<time>2023-08-07T09:54:12.000Z</time>
</trkpt>
<trkpt lat="46.1268250" lon="10.4995930">
	<ele>2350.40</ele>
	<time>2023-08-07T09:54:13.000Z</time>
</trkpt>
<trkpt lat="46.1268250" lon="10.4995890">
	<ele>2350.80</ele>
	<time>2023-08-07T09:54:14.000Z</time>
</trkpt>
<trkpt lat="46.1268250" lon="10.4995860">
	<ele>2350.80</ele>
	<time>2023-08-07T09:54:15.000Z</time>
</trkpt>
<trkpt lat="46.1268260" lon="10.4995830">
	<ele>2351.00</ele>
	<time>2023-08-07T09:54:16.000Z</time>
</trkpt>
<trkpt lat="46.1268270" lon="10.4995800">
	<ele>2351.20</ele>
	<time>2023-08-07T09:54:17.000Z</time>
</trkpt>
<trkpt lat="46.1268280" lon="10.4995780">
	<ele>2351.40</ele>
	<time>2023-08-07T09:54:18.000Z</time>
</trkpt>
<trkpt lat="46.1268290" lon="10.4995760">
	<ele>2351.80</ele>
	<time>2023-08-07T09:54:19.000Z</time>
</trkpt>
<trkpt lat="46.1268300" lon="10.4995740">
	<ele>2351.80</ele>
	<time>2023-08-07T09:54:20.000Z</time>
</trkpt>
<trkpt lat="46.1268310" lon="10.4995730">
	<ele>2352.00</ele>
	<time>2023-08-07T09:54:21.000Z</time>
</trkpt>
<trkpt lat="46.1268310" lon="10.4995700">
	<ele>2352.00</ele>
	<time>2023-08-07T09:54:22.000Z</time>
</trkpt>
<trkpt lat="46.1268320" lon="10.4995680">
	<ele>2352.00</ele>
	<time>2023-08-07T09:54:23.000Z</time>
</trkpt>
<trkpt lat="46.1268330" lon="10.4995640">
	<ele>2352.00</ele>
	<time>2023-08-07T09:54:24.000Z</time>
</trkpt>
<trkpt lat="46.1268330" lon="10.4995610">
	<ele>2352.00</ele>
	<time>2023-08-07T09:54:25.000Z</time>
</trkpt>
<trkpt lat="46.1268340" lon="10.4995590">
	<ele>2352.00</ele>
	<time>2023-08-07T09:54:26.000Z</time>
</trkpt>
<trkpt lat="46.1268340" lon="10.4995580">
	<ele>2352.00</ele>
	<time>2023-08-07T09:54:27.000Z</time>
</trkpt>
<trkpt lat="46.1268350" lon="10.4995560">
	<ele>2352.20</ele>
	<time>2023-08-07T09:54:28.000Z</time>
</trkpt>
<trkpt lat="46.1268350" lon="10.4995550">
	<ele>2352.20</ele>
	<time>2023-08-07T09:54:29.000Z</time>
</trkpt>
<trkpt lat="46.1268360" lon="10.4995540">
	<ele>2352.20</ele>
	<time>2023-08-07T09:54:30.000Z</time>
</trkpt>
<trkpt lat="46.1268370" lon="10.4995530">
	<ele>2352.20</ele>
	<time>2023-08-07T09:54:31.000Z</time>
</trkpt>
<trkpt lat="46.1268390" lon="10.4995530">
	<ele>2352.20</ele>
	<time>2023-08-07T09:54:32.000Z</time>
</trkpt>
<trkpt lat="46.1268410" lon="10.4995520">
	<ele>2352.80</ele>
	<time>2023-08-07T09:54:33.000Z</time>
</trkpt>
<trkpt lat="46.1268430" lon="10.4995510">
	<ele>2353.00</ele>
	<time>2023-08-07T09:54:34.000Z</time>
</trkpt>
<trkpt lat="46.1268440" lon="10.4995500">
	<ele>2353.40</ele>
	<time>2023-08-07T09:54:35.000Z</time>
</trkpt>
<trkpt lat="46.1268460" lon="10.4995490">
	<ele>2353.60</ele>
	<time>2023-08-07T09:54:36.000Z</time>
</trkpt>
<trkpt lat="46.1268460" lon="10.4995490">
	<ele>2353.60</ele>
	<time>2023-08-07T09:54:37.000Z</time>
</trkpt>
<trkpt lat="46.1268470" lon="10.4995480">
	<ele>2353.80</ele>
	<time>2023-08-07T09:54:38.000Z</time>
</trkpt>
<trkpt lat="46.1268480" lon="10.4995480">
	<ele>2354.00</ele>
	<time>2023-08-07T09:54:39.000Z</time>
</trkpt>
<trkpt lat="46.1268490" lon="10.4995470">
	<ele>2354.00</ele>
	<time>2023-08-07T09:54:40.000Z</time>
</trkpt>
<trkpt lat="46.1268490" lon="10.4995470">
	<ele>2354.40</ele>
	<time>2023-08-07T09:54:41.000Z</time>
</trkpt>
<trkpt lat="46.1268500" lon="10.4995470">
	<ele>2354.40</ele>
	<time>2023-08-07T09:54:42.000Z</time>
</trkpt>
<trkpt lat="46.1268500" lon="10.4995460">
	<ele>2354.60</ele>
	<time>2023-08-07T09:54:43.000Z</time>
</trkpt>
<trkpt lat="46.1268510" lon="10.4995460">
	<ele>2354.80</ele>
	<time>2023-08-07T09:54:44.000Z</time>
</trkpt>
<trkpt lat="46.1268510" lon="10.4995450">
	<ele>2354.80</ele>
	<time>2023-08-07T09:54:45.000Z</time>
</trkpt>
<trkpt lat="46.1268520" lon="10.4995440">
	<ele>2354.80</ele>
	<time>2023-08-07T09:54:46.000Z</time>
</trkpt>
<trkpt lat="46.1268540" lon="10.4995420">
	<ele>2355.00</ele>
	<time>2023-08-07T09:54:47.000Z</time>
</trkpt>
<trkpt lat="46.1268550" lon="10.4995400">
	<ele>2355.00</ele>
	<time>2023-08-07T09:54:48.000Z</time>
</trkpt>
<trkpt lat="46.1268560" lon="10.4995380">
	<ele>2355.20</ele>
	<time>2023-08-07T09:54:49.000Z</time>
</trkpt>
<trkpt lat="46.1268570" lon="10.4995360">
	<ele>2355.20</ele>
	<time>2023-08-07T09:54:50.000Z</time>
</trkpt>
<trkpt lat="46.1268570" lon="10.4995340">
	<ele>2355.40</ele>
	<time>2023-08-07T09:54:51.000Z</time>
</trkpt>
<trkpt lat="46.1268580" lon="10.4995320">
	<ele>2355.40</ele>
	<time>2023-08-07T09:54:52.000Z</time>
</trkpt>
<trkpt lat="46.1268590" lon="10.4995290">
	<ele>2355.40</ele>
	<time>2023-08-07T09:54:53.000Z</time>
</trkpt>
<trkpt lat="46.1268590" lon="10.4995260">
	<ele>2355.40</ele>
	<time>2023-08-07T09:54:54.000Z</time>
</trkpt>
<trkpt lat="46.1268600" lon="10.4995220">
	<ele>2355.40</ele>
	<time>2023-08-07T09:54:55.000Z</time>
</trkpt>
<trkpt lat="46.1268610" lon="10.4995180">
	<ele>2355.40</ele>
	<time>2023-08-07T09:54:56.000Z</time>
</trkpt>
<trkpt lat="46.1268630" lon="10.4995150">
	<ele>2355.40</ele>
	<time>2023-08-07T09:54:57.000Z</time>
</trkpt>
<trkpt lat="46.1268640" lon="10.4995130">
	<ele>2355.60</ele>
	<time>2023-08-07T09:54:58.000Z</time>
</trkpt>
<trkpt lat="46.1268650" lon="10.4995110">
	<ele>2355.60</ele>
	<time>2023-08-07T09:54:59.000Z</time>
</trkpt>
<trkpt lat="46.1268660" lon="10.4995090">
	<ele>2355.80</ele>
	<time>2023-08-07T09:55:00.000Z</time>
</trkpt>
<trkpt lat="46.1268680" lon="10.4995080">
	<ele>2356.00</ele>
	<time>2023-08-07T09:55:01.000Z</time>
</trkpt>
<trkpt lat="46.1268690" lon="10.4995060">
	<ele>2356.20</ele>
	<time>2023-08-07T09:55:02.000Z</time>
</trkpt>
<trkpt lat="46.1268700" lon="10.4995050">
	<ele>2356.20</ele>
	<time>2023-08-07T09:55:03.000Z</time>
</trkpt>
<trkpt lat="46.1268710" lon="10.4995040">
	<ele>2356.20</ele>
	<time>2023-08-07T09:55:04.000Z</time>
</trkpt>
<trkpt lat="46.1268720" lon="10.4995030">
	<ele>2356.20</ele>
	<time>2023-08-07T09:55:05.000Z</time>
</trkpt>
<trkpt lat="46.1268740" lon="10.4995030">
	<ele>2356.40</ele>
	<time>2023-08-07T09:55:06.000Z</time>
</trkpt>
<trkpt lat="46.1268750" lon="10.4995020">
	<ele>2356.20</ele>
	<time>2023-08-07T09:55:07.000Z</time>
</trkpt>
<trkpt lat="46.1268760" lon="10.4995010">
	<ele>2356.20</ele>
	<time>2023-08-07T09:55:08.000Z</time>
</trkpt>
<trkpt lat="46.1268780" lon="10.4995010">
	<ele>2356.20</ele>
	<time>2023-08-07T09:55:09.000Z</time>
</trkpt>
<trkpt lat="46.1268790" lon="10.4995010">
	<ele>2356.20</ele>
	<time>2023-08-07T09:55:10.000Z</time>
</trkpt>
<trkpt lat="46.1268800" lon="10.4995000">
	<ele>2356.20</ele>
	<time>2023-08-07T09:55:11.000Z</time>
</trkpt>
<trkpt lat="46.1268810" lon="10.4995000">
	<ele>2356.00</ele>
	<time>2023-08-07T09:55:12.000Z</time>
</trkpt>
<trkpt lat="46.1268810" lon="10.4995000">
	<ele>2356.00</ele>
	<time>2023-08-07T09:55:13.000Z</time>
</trkpt>
<trkpt lat="46.1268820" lon="10.4994990">
	<ele>2355.80</ele>
	<time>2023-08-07T09:55:14.000Z</time>
</trkpt>
<trkpt lat="46.1268830" lon="10.4994990">
	<ele>2355.60</ele>
	<time>2023-08-07T09:55:15.000Z</time>
</trkpt>
<trkpt lat="46.1268830" lon="10.4994990">
	<ele>2355.80</ele>
	<time>2023-08-07T09:55:16.000Z</time>
</trkpt>
<trkpt lat="46.1268830" lon="10.4994990">
	<ele>2355.80</ele>
	<time>2023-08-07T09:55:17.000Z</time>
</trkpt>
<trkpt lat="46.1268840" lon="10.4994990">
	<ele>2355.80</ele>
	<time>2023-08-07T09:55:18.000Z</time>
</trkpt>
<trkpt lat="46.1268840" lon="10.4994990">
	<ele>2356.00</ele>
	<time>2023-08-07T09:55:19.000Z</time>
</trkpt>
<trkpt lat="46.1268840" lon="10.4994990">
	<ele>2356.00</ele>
	<time>2023-08-07T09:55:20.000Z</time>
</trkpt>
<trkpt lat="46.1268850" lon="10.4994990">
	<ele>2356.20</ele>
	<time>2023-08-07T09:55:21.000Z</time>
</trkpt>
<trkpt lat="46.1268850" lon="10.4994990">
	<ele>2356.20</ele>
	<time>2023-08-07T09:55:22.000Z</time>
</trkpt>
<trkpt lat="46.1268850" lon="10.4994990">
	<ele>2356.40</ele>
	<time>2023-08-07T09:55:23.000Z</time>
</trkpt>
<trkpt lat="46.1268850" lon="10.4994990">
	<ele>2356.40</ele>
	<time>2023-08-07T09:55:24.000Z</time>
</trkpt>
<trkpt lat="46.1268850" lon="10.4994990">
	<ele>2356.40</ele>
	<time>2023-08-07T09:55:25.000Z</time>
</trkpt>
<trkpt lat="46.1268850" lon="10.4994990">
	<ele>2356.40</ele>
	<time>2023-08-07T09:55:26.000Z</time>
</trkpt>
<trkpt lat="46.1268850" lon="10.4994990">
	<ele>2356.40</ele>
	<time>2023-08-07T09:55:27.000Z</time>
</trkpt>
<trkpt lat="46.1268850" lon="10.4994990">
	<ele>2356.40</ele>
	<time>2023-08-07T09:55:28.000Z</time>
</trkpt>
<trkpt lat="46.1268850" lon="10.4994980">
	<ele>2356.40</ele>
	<time>2023-08-07T09:55:29.000Z</time>
</trkpt>
<trkpt lat="46.1268850" lon="10.4994980">
	<ele>2356.60</ele>
	<time>2023-08-07T09:55:30.000Z</time>
</trkpt>
<trkpt lat="46.1268850" lon="10.4994980">
	<ele>2356.60</ele>
	<time>2023-08-07T09:55:31.000Z</time>
</trkpt>
<trkpt lat="46.1268850" lon="10.4994980">
	<ele>2356.80</ele>
	<time>2023-08-07T09:55:32.000Z</time>
</trkpt>
<trkpt lat="46.1268860" lon="10.4994980">
	<ele>2357.00</ele>
	<time>2023-08-07T09:55:33.000Z</time>
</trkpt>
<trkpt lat="46.1268860" lon="10.4994980">
	<ele>2357.20</ele>
	<time>2023-08-07T09:55:34.000Z</time>
</trkpt>
<trkpt lat="46.1268860" lon="10.4994980">
	<ele>2357.40</ele>
	<time>2023-08-07T09:55:35.000Z</time>
</trkpt>
<trkpt lat="46.1268860" lon="10.4994980">
	<ele>2357.60</ele>
	<time>2023-08-07T09:55:36.000Z</time>
</trkpt>
<trkpt lat="46.1268860" lon="10.4994980">
	<ele>2357.80</ele>
	<time>2023-08-07T09:55:37.000Z</time>
</trkpt>
<trkpt lat="46.1268860" lon="10.4994980">
	<ele>2357.80</ele>
	<time>2023-08-07T09:55:38.000Z</time>
</trkpt>
<trkpt lat="46.1268860" lon="10.4994970">
	<ele>2358.00</ele>
	<time>2023-08-07T09:55:39.000Z</time>
</trkpt>
<trkpt lat="46.1268860" lon="10.4994970">
	<ele>2358.40</ele>
	<time>2023-08-07T09:55:40.000Z</time>
</trkpt>
<trkpt lat="46.1268860" lon="10.4994970">
	<ele>2359.00</ele>
	<time>2023-08-07T09:55:41.000Z</time>
</trkpt>
<trkpt lat="46.1268860" lon="10.4994970">
	<ele>2359.20</ele>
	<time>2023-08-07T09:55:42.000Z</time>
</trkpt>
<trkpt lat="46.1268860" lon="10.4994970">
	<ele>2359.40</ele>
	<time>2023-08-07T09:55:43.000Z</time>
</trkpt>
<trkpt lat="46.1268860" lon="10.4994970">
	<ele>2359.60</ele>
	<time>2023-08-07T09:55:44.000Z</time>
</trkpt>
<trkpt lat="46.1268860" lon="10.4994970">
	<ele>2359.80</ele>
	<time>2023-08-07T09:55:45.000Z</time>
</trkpt>
<trkpt lat="46.1268860" lon="10.4994970">
	<ele>2360.00</ele>
	<time>2023-08-07T09:55:46.000Z</time>
</trkpt>
<trkpt lat="46.1268860" lon="10.4994970">
	<ele>2360.00</ele>
	<time>2023-08-07T09:55:47.000Z</time>
</trkpt>
<trkpt lat="46.1268860" lon="10.4994970">
	<ele>2360.00</ele>
	<time>2023-08-07T09:55:48.000Z</time>
</trkpt>
<trkpt lat="46.1268860" lon="10.4994960">
	<ele>2360.20</ele>
	<time>2023-08-07T09:55:49.000Z</time>
</trkpt>
<trkpt lat="46.1268860" lon="10.4994960">
	<ele>2360.20</ele>
	<time>2023-08-07T09:55:50.000Z</time>
</trkpt>
<trkpt lat="46.1268860" lon="10.4994960">
	<ele>2360.40</ele>
	<time>2023-08-07T09:55:51.000Z</time>
</trkpt>
<trkpt lat="46.1268860" lon="10.4994960">
	<ele>2360.40</ele>
	<time>2023-08-07T09:55:52.000Z</time>
</trkpt>
<trkpt lat="46.1268860" lon="10.4994960">
	<ele>2360.60</ele>
	<time>2023-08-07T09:55:53.000Z</time>
</trkpt>
<trkpt lat="46.1268860" lon="10.4994960">
	<ele>2360.60</ele>
	<time>2023-08-07T09:55:54.000Z</time>
</trkpt>
<trkpt lat="46.1268860" lon="10.4994960">
	<ele>2360.60</ele>
	<time>2023-08-07T09:55:55.000Z</time>
</trkpt>
<trkpt lat="46.1268860" lon="10.4994950">
	<ele>2360.60</ele>
	<time>2023-08-07T09:55:56.000Z</time>
</trkpt>
<trkpt lat="46.1268870" lon="10.4994950">
	<ele>2360.60</ele>
	<time>2023-08-07T09:55:57.000Z</time>
</trkpt>
<trkpt lat="46.1268870" lon="10.4994950">
	<ele>2360.60</ele>
	<time>2023-08-07T09:55:58.000Z</time>
</trkpt>
<trkpt lat="46.1268870" lon="10.4994950">
	<ele>2360.60</ele>
	<time>2023-08-07T09:55:59.000Z</time>
</trkpt>
<trkpt lat="46.1268870" lon="10.4994950">
	<ele>2360.60</ele>
	<time>2023-08-07T09:56:00.000Z</time>
</trkpt>
<trkpt lat="46.1268870" lon="10.4994940">
	<ele>2360.80</ele>
	<time>2023-08-07T09:56:01.000Z</time>
</trkpt>
<trkpt lat="46.1268870" lon="10.4994940">
	<ele>2361.00</ele>
	<time>2023-08-07T09:56:02.000Z</time>
</trkpt>
<trkpt lat="46.1268870" lon="10.4994940">
	<ele>2361.40</ele>
	<time>2023-08-07T09:56:03.000Z</time>
</trkpt>
<trkpt lat="46.1268870" lon="10.4994940">
	<ele>2361.60</ele>
	<time>2023-08-07T09:56:04.000Z</time>
</trkpt>
<trkpt lat="46.1268870" lon="10.4994940">
	<ele>2362.00</ele>
	<time>2023-08-07T09:56:05.000Z</time>
</trkpt>
<trkpt lat="46.1268870" lon="10.4994930">
	<ele>2362.00</ele>
	<time>2023-08-07T09:56:06.000Z</time>
</trkpt>
<trkpt lat="46.1268870" lon="10.4994930">
	<ele>2362.20</ele>
	<time>2023-08-07T09:56:07.000Z</time>
</trkpt>
<trkpt lat="46.1268880" lon="10.4994930">
	<ele>2362.40</ele>
	<time>2023-08-07T09:56:08.000Z</time>
</trkpt>
<trkpt lat="46.1268880" lon="10.4994930">
	<ele>2362.60</ele>
	<time>2023-08-07T09:56:09.000Z</time>
</trkpt>
<trkpt lat="46.1268880" lon="10.4994930">
	<ele>2362.60</ele>
	<time>2023-08-07T09:56:10.000Z</time>
</trkpt>
<trkpt lat="46.1268880" lon="10.4994920">
	<ele>2362.80</ele>
	<time>2023-08-07T09:56:11.000Z</time>
</trkpt>
<trkpt lat="46.1268880" lon="10.4994920">
	<ele>2363.00</ele>
	<time>2023-08-07T09:56:12.000Z</time>
</trkpt>
<trkpt lat="46.1268880" lon="10.4994920">
	<ele>2363.20</ele>
	<time>2023-08-07T09:56:13.000Z</time>
</trkpt>
<trkpt lat="46.1268880" lon="10.4994920">
	<ele>2363.60</ele>
	<time>2023-08-07T09:56:14.000Z</time>
</trkpt>
<trkpt lat="46.1268880" lon="10.4994920">
	<ele>2363.80</ele>
	<time>2023-08-07T09:56:15.000Z</time>
</trkpt>
<trkpt lat="46.1268880" lon="10.4994910">
	<ele>2364.00</ele>
	<time>2023-08-07T09:56:16.000Z</time>
</trkpt>
<trkpt lat="46.1268880" lon="10.4994910">
	<ele>2364.00</ele>
	<time>2023-08-07T09:56:17.000Z</time>
</trkpt>
<trkpt lat="46.1268880" lon="10.4994910">
	<ele>2364.00</ele>
	<time>2023-08-07T09:56:18.000Z</time>
</trkpt>
<trkpt lat="46.1268880" lon="10.4994900">
	<ele>2364.00</ele>
	<time>2023-08-07T09:56:19.000Z</time>
</trkpt>
<trkpt lat="46.1268890" lon="10.4994900">
	<ele>2364.20</ele>
	<time>2023-08-07T09:56:20.000Z</time>
</trkpt>
<trkpt lat="46.1268890" lon="10.4994900">
	<ele>2364.20</ele>
	<time>2023-08-07T09:56:21.000Z</time>
</trkpt>
<trkpt lat="46.1268890" lon="10.4994900">
	<ele>2364.40</ele>
	<time>2023-08-07T09:56:22.000Z</time>
</trkpt>
<trkpt lat="46.1268890" lon="10.4994890">
	<ele>2364.40</ele>
	<time>2023-08-07T09:56:23.000Z</time>
</trkpt>
<trkpt lat="46.1268890" lon="10.4994890">
	<ele>2364.60</ele>
	<time>2023-08-07T09:56:24.000Z</time>
</trkpt>
<trkpt lat="46.1268890" lon="10.4994890">
	<ele>2365.00</ele>
	<time>2023-08-07T09:56:25.000Z</time>
</trkpt>
<trkpt lat="46.1268890" lon="10.4994880">
	<ele>2365.20</ele>
	<time>2023-08-07T09:56:26.000Z</time>
</trkpt>
<trkpt lat="46.1268890" lon="10.4994880">
	<ele>2365.20</ele>
	<time>2023-08-07T09:56:27.000Z</time>
</trkpt>
<trkpt lat="46.1268890" lon="10.4994880">
	<ele>2365.40</ele>
	<time>2023-08-07T09:56:28.000Z</time>
</trkpt>
<trkpt lat="46.1268900" lon="10.4994880">
	<ele>2365.40</ele>
	<time>2023-08-07T09:56:29.000Z</time>
</trkpt>
<trkpt lat="46.1268900" lon="10.4994870">
	<ele>2365.40</ele>
	<time>2023-08-07T09:56:30.000Z</time>
</trkpt>
<trkpt lat="46.1268900" lon="10.4994870">
	<ele>2365.60</ele>
	<time>2023-08-07T09:56:31.000Z</time>
</trkpt>
<trkpt lat="46.1268900" lon="10.4994870">
	<ele>2365.60</ele>
	<time>2023-08-07T09:56:32.000Z</time>
</trkpt>
<trkpt lat="46.1268900" lon="10.4994860">
	<ele>2365.80</ele>
	<time>2023-08-07T09:56:33.000Z</time>
</trkpt>
<trkpt lat="46.1268900" lon="10.4994860">
	<ele>2366.00</ele>
	<time>2023-08-07T09:56:34.000Z</time>
</trkpt>
<trkpt lat="46.1268900" lon="10.4994860">
	<ele>2366.20</ele>
	<time>2023-08-07T09:56:35.000Z</time>
</trkpt>
<trkpt lat="46.1268900" lon="10.4994850">
	<ele>2366.40</ele>
	<time>2023-08-07T09:56:36.000Z</time>
</trkpt>
<trkpt lat="46.1268900" lon="10.4994850">
	<ele>2366.40</ele>
	<time>2023-08-07T09:56:37.000Z</time>
</trkpt>
<trkpt lat="46.1268910" lon="10.4994850">
	<ele>2366.60</ele>
	<time>2023-08-07T09:56:38.000Z</time>
</trkpt>
<trkpt lat="46.1268910" lon="10.4994840">
	<ele>2366.60</ele>
	<time>2023-08-07T09:56:39.000Z</time>
</trkpt>
<trkpt lat="46.1268910" lon="10.4994840">
	<ele>2366.80</ele>
	<time>2023-08-07T09:56:40.000Z</time>
</trkpt>
<trkpt lat="46.1268910" lon="10.4994840">
	<ele>2367.00</ele>
	<time>2023-08-07T09:56:41.000Z</time>
</trkpt>
<trkpt lat="46.1268910" lon="10.4994830">
	<ele>2367.00</ele>
	<time>2023-08-07T09:56:42.000Z</time>
</trkpt>
<trkpt lat="46.1268910" lon="10.4994830">
	<ele>2367.20</ele>
	<time>2023-08-07T09:56:43.000Z</time>
</trkpt>
<trkpt lat="46.1268910" lon="10.4994820">
	<ele>2367.20</ele>
	<time>2023-08-07T09:56:44.000Z</time>
</trkpt>
<trkpt lat="46.1268910" lon="10.4994820">
	<ele>2367.20</ele>
	<time>2023-08-07T09:56:45.000Z</time>
</trkpt>
<trkpt lat="46.1268910" lon="10.4994820">
	<ele>2367.20</ele>
	<time>2023-08-07T09:56:46.000Z</time>
</trkpt>
<trkpt lat="46.1268910" lon="10.4994810">
	<ele>2367.40</ele>
	<time>2023-08-07T09:56:47.000Z</time>
</trkpt>
<trkpt lat="46.1268910" lon="10.4994810">
	<ele>2367.40</ele>
	<time>2023-08-07T09:56:48.000Z</time>
</trkpt>
<trkpt lat="46.1268910" lon="10.4994800">
	<ele>2367.40</ele>
	<time>2023-08-07T09:56:49.000Z</time>
</trkpt>
<trkpt lat="46.1268910" lon="10.4994800">
	<ele>2367.60</ele>
	<time>2023-08-07T09:56:50.000Z</time>
</trkpt>
<trkpt lat="46.1268910" lon="10.4994790">
	<ele>2367.60</ele>
	<time>2023-08-07T09:56:51.000Z</time>
</trkpt>
<trkpt lat="46.1268910" lon="10.4994790">
	<ele>2368.00</ele>
	<time>2023-08-07T09:56:52.000Z</time>
</trkpt>
<trkpt lat="46.1268910" lon="10.4994780">
	<ele>2368.20</ele>
	<time>2023-08-07T09:56:53.000Z</time>
</trkpt>
<trkpt lat="46.1268910" lon="10.4994780">
	<ele>2368.40</ele>
	<time>2023-08-07T09:56:54.000Z</time>
</trkpt>
<trkpt lat="46.1268910" lon="10.4994780">
	<ele>2368.60</ele>
	<time>2023-08-07T09:56:55.000Z</time>
</trkpt>
<trkpt lat="46.1268920" lon="10.4994770">
	<ele>2368.60</ele>
	<time>2023-08-07T09:56:56.000Z</time>
</trkpt>
<trkpt lat="46.1268920" lon="10.4994770">
	<ele>2369.00</ele>
	<time>2023-08-07T09:56:57.000Z</time>
</trkpt>
<trkpt lat="46.1268920" lon="10.4994760">
	<ele>2369.20</ele>
	<time>2023-08-07T09:56:58.000Z</time>
</trkpt>
<trkpt lat="46.1268920" lon="10.4994760">
	<ele>2369.20</ele>
	<time>2023-08-07T09:56:59.000Z</time>
</trkpt>
<trkpt lat="46.1268920" lon="10.4994750">
	<ele>2369.20</ele>
	<time>2023-08-07T09:57:00.000Z</time>
</trkpt>
<trkpt lat="46.1268920" lon="10.4994750">
	<ele>2369.40</ele>
	<time>2023-08-07T09:57:01.000Z</time>
</trkpt>
<trkpt lat="46.1268920" lon="10.4994740">
	<ele>2369.60</ele>
	<time>2023-08-07T09:57:02.000Z</time>
</trkpt>
<trkpt lat="46.1268920" lon="10.4994740">
	<ele>2369.80</ele>
	<time>2023-08-07T09:57:03.000Z</time>
</trkpt>
<trkpt lat="46.1268910" lon="10.4994730">
	<ele>2370.00</ele>
	<time>2023-08-07T09:57:04.000Z</time>
</trkpt>
<trkpt lat="46.1268910" lon="10.4994730">
	<ele>2370.00</ele>
	<time>2023-08-07T09:57:05.000Z</time>
</trkpt>
<trkpt lat="46.1268910" lon="10.4994720">
	<ele>2370.20</ele>
	<time>2023-08-07T09:57:06.000Z</time>
</trkpt>
<trkpt lat="46.1268910" lon="10.4994720">
	<ele>2370.20</ele>
	<time>2023-08-07T09:57:07.000Z</time>
</trkpt>
<trkpt lat="46.1268910" lon="10.4994710">
	<ele>2370.40</ele>
	<time>2023-08-07T09:57:08.000Z</time>
</trkpt>
<trkpt lat="46.1268920" lon="10.4994710">
	<ele>2370.60</ele>
	<time>2023-08-07T09:57:09.000Z</time>
</trkpt>
<trkpt lat="46.1268920" lon="10.4994700">
	<ele>2371.20</ele>
	<time>2023-08-07T09:57:10.000Z</time>
</trkpt>
<trkpt lat="46.1268920" lon="10.4994700">
	<ele>2371.40</ele>
	<time>2023-08-07T09:57:11.000Z</time>
</trkpt>
<trkpt lat="46.1268920" lon="10.4994690">
	<ele>2371.60</ele>
	<time>2023-08-07T09:57:12.000Z</time>
</trkpt>
<trkpt lat="46.1268920" lon="10.4994680">
	<ele>2371.60</ele>
	<time>2023-08-07T09:57:13.000Z</time>
</trkpt>
<trkpt lat="46.1268920" lon="10.4994680">
	<ele>2371.80</ele>
	<time>2023-08-07T09:57:14.000Z</time>
</trkpt>
<trkpt lat="46.1268920" lon="10.4994670">
	<ele>2371.80</ele>
	<time>2023-08-07T09:57:15.000Z</time>
</trkpt>
<trkpt lat="46.1268920" lon="10.4994670">
	<ele>2371.80</ele>
	<time>2023-08-07T09:57:16.000Z</time>
</trkpt>
<trkpt lat="46.1268920" lon="10.4994660">
	<ele>2371.80</ele>
	<time>2023-08-07T09:57:17.000Z</time>
</trkpt>
<trkpt lat="46.1268920" lon="10.4994660">
	<ele>2371.80</ele>
	<time>2023-08-07T09:57:18.000Z</time>
</trkpt>
<trkpt lat="46.1268920" lon="10.4994650">
	<ele>2372.00</ele>
	<time>2023-08-07T09:57:19.000Z</time>
</trkpt>
<trkpt lat="46.1268920" lon="10.4994650">
	<ele>2372.20</ele>
	<time>2023-08-07T09:57:20.000Z</time>
</trkpt>
<trkpt lat="46.1268920" lon="10.4994640">
	<ele>2372.20</ele>
	<time>2023-08-07T09:57:21.000Z</time>
</trkpt>
<trkpt lat="46.1268920" lon="10.4994640">
	<ele>2372.40</ele>
	<time>2023-08-07T09:57:22.000Z</time>
</trkpt>
<trkpt lat="46.1268920" lon="10.4994630">
	<ele>2372.60</ele>
	<time>2023-08-07T09:57:23.000Z</time>
</trkpt>
<trkpt lat="46.1268920" lon="10.4994630">
	<ele>2372.60</ele>
	<time>2023-08-07T09:57:24.000Z</time>
</trkpt>
<trkpt lat="46.1268920" lon="10.4994620">
	<ele>2372.80</ele>
	<time>2023-08-07T09:57:25.000Z</time>
</trkpt>
<trkpt lat="46.1268920" lon="10.4994610">
	<ele>2373.00</ele>
	<time>2023-08-07T09:57:26.000Z</time>
</trkpt>
<trkpt lat="46.1268920" lon="10.4994610">
	<ele>2373.20</ele>
	<time>2023-08-07T09:57:27.000Z</time>
</trkpt>
<trkpt lat="46.1268920" lon="10.4994600">
	<ele>2373.20</ele>
	<time>2023-08-07T09:57:28.000Z</time>
</trkpt>
<trkpt lat="46.1268920" lon="10.4994600">
	<ele>2373.40</ele>
	<time>2023-08-07T09:57:29.000Z</time>
</trkpt>
<trkpt lat="46.1268920" lon="10.4994590">
	<ele>2373.40</ele>
	<time>2023-08-07T09:57:30.000Z</time>
</trkpt>
<trkpt lat="46.1268920" lon="10.4994580">
	<ele>2373.60</ele>
	<time>2023-08-07T09:57:31.000Z</time>
</trkpt>
<trkpt lat="46.1268920" lon="10.4994580">
	<ele>2373.60</ele>
	<time>2023-08-07T09:57:32.000Z</time>
</trkpt>
<trkpt lat="46.1268920" lon="10.4994570">
	<ele>2373.60</ele>
	<time>2023-08-07T09:57:33.000Z</time>
</trkpt>
<trkpt lat="46.1268920" lon="10.4994570">
	<ele>2373.60</ele>
	<time>2023-08-07T09:57:34.000Z</time>
</trkpt>
<trkpt lat="46.1268920" lon="10.4994560">
	<ele>2373.80</ele>
	<time>2023-08-07T09:57:35.000Z</time>
</trkpt>
<trkpt lat="46.1268920" lon="10.4994550">
	<ele>2373.80</ele>
	<time>2023-08-07T09:57:36.000Z</time>
</trkpt>
<trkpt lat="46.1268920" lon="10.4994550">
	<ele>2374.00</ele>
	<time>2023-08-07T09:57:37.000Z</time>
</trkpt>
<trkpt lat="46.1268920" lon="10.4994540">
	<ele>2374.20</ele>
	<time>2023-08-07T09:57:38.000Z</time>
</trkpt>
<trkpt lat="46.1268920" lon="10.4994530">
	<ele>2374.20</ele>
	<time>2023-08-07T09:57:39.000Z</time>
</trkpt>
<trkpt lat="46.1268920" lon="10.4994530">
	<ele>2374.20</ele>
	<time>2023-08-07T09:57:40.000Z</time>
</trkpt>
<trkpt lat="46.1268920" lon="10.4994520">
	<ele>2374.40</ele>
	<time>2023-08-07T09:57:41.000Z</time>
</trkpt>
<trkpt lat="46.1268920" lon="10.4994510">
	<ele>2374.40</ele>
	<time>2023-08-07T09:57:42.000Z</time>
</trkpt>
<trkpt lat="46.1268920" lon="10.4994510">
	<ele>2374.40</ele>
	<time>2023-08-07T09:57:43.000Z</time>
</trkpt>
<trkpt lat="46.1268920" lon="10.4994500">
	<ele>2374.60</ele>
	<time>2023-08-07T09:57:44.000Z</time>
</trkpt>
<trkpt lat="46.1268920" lon="10.4994490">
	<ele>2374.60</ele>
	<time>2023-08-07T09:57:45.000Z</time>
</trkpt>
<trkpt lat="46.1268920" lon="10.4994490">
	<ele>2374.60</ele>
	<time>2023-08-07T09:57:46.000Z</time>
</trkpt>
<trkpt lat="46.1268920" lon="10.4994480">
	<ele>2374.60</ele>
	<time>2023-08-07T09:57:47.000Z</time>
</trkpt>
<trkpt lat="46.1268920" lon="10.4994470">
	<ele>2374.80</ele>
	<time>2023-08-07T09:57:48.000Z</time>
</trkpt>
<trkpt lat="46.1268920" lon="10.4994470">
	<ele>2374.80</ele>
	<time>2023-08-07T09:57:49.000Z</time>
</trkpt>
<trkpt lat="46.1268920" lon="10.4994460">
	<ele>2374.80</ele>
	<time>2023-08-07T09:57:50.000Z</time>
</trkpt>
<trkpt lat="46.1268920" lon="10.4994450">
	<ele>2374.80</ele>
	<time>2023-08-07T09:57:51.000Z</time>
</trkpt>
<trkpt lat="46.1268920" lon="10.4994450">
	<ele>2374.80</ele>
	<time>2023-08-07T09:57:52.000Z</time>
</trkpt>
<trkpt lat="46.1268920" lon="10.4994440">
	<ele>2374.80</ele>
	<time>2023-08-07T09:57:53.000Z</time>
</trkpt>
<trkpt lat="46.1268920" lon="10.4994430">
	<ele>2375.00</ele>
	<time>2023-08-07T09:57:54.000Z</time>
</trkpt>
<trkpt lat="46.1268920" lon="10.4994430">
	<ele>2375.00</ele>
	<time>2023-08-07T09:57:55.000Z</time>
</trkpt>
<trkpt lat="46.1268920" lon="10.4994420">
	<ele>2375.00</ele>
	<time>2023-08-07T09:57:56.000Z</time>
</trkpt>
<trkpt lat="46.1268920" lon="10.4994410">
	<ele>2375.00</ele>
	<time>2023-08-07T09:57:57.000Z</time>
</trkpt>
<trkpt lat="46.1268920" lon="10.4994400">
	<ele>2375.00</ele>
	<time>2023-08-07T09:57:58.000Z</time>
</trkpt>
<trkpt lat="46.1268910" lon="10.4994400">
	<ele>2375.00</ele>
	<time>2023-08-07T09:57:59.000Z</time>
</trkpt>
<trkpt lat="46.1268910" lon="10.4994390">
	<ele>2375.20</ele>
	<time>2023-08-07T09:58:00.000Z</time>
</trkpt>
<trkpt lat="46.1268910" lon="10.4994380">
	<ele>2375.60</ele>
	<time>2023-08-07T09:58:01.000Z</time>
</trkpt>
<trkpt lat="46.1268910" lon="10.4994380">
	<ele>2375.80</ele>
	<time>2023-08-07T09:58:02.000Z</time>
</trkpt>
<trkpt lat="46.1268910" lon="10.4994370">
	<ele>2376.00</ele>
	<time>2023-08-07T09:58:03.000Z</time>
</trkpt>
<trkpt lat="46.1268910" lon="10.4994360">
	<ele>2376.00</ele>
	<time>2023-08-07T09:58:04.000Z</time>
</trkpt>
<trkpt lat="46.1268910" lon="10.4994350">
	<ele>2376.20</ele>
	<time>2023-08-07T09:58:05.000Z</time>
</trkpt>
<trkpt lat="46.1268910" lon="10.4994340">
	<ele>2376.20</ele>
	<time>2023-08-07T09:58:06.000Z</time>
</trkpt>
<trkpt lat="46.1268910" lon="10.4994330">
	<ele>2376.40</ele>
	<time>2023-08-07T09:58:07.000Z</time>
</trkpt>
<trkpt lat="46.1268910" lon="10.4994330">
	<ele>2376.40</ele>
	<time>2023-08-07T09:58:08.000Z</time>
</trkpt>
<trkpt lat="46.1268910" lon="10.4994320">
	<ele>2376.60</ele>
	<time>2023-08-07T09:58:09.000Z</time>
</trkpt>
<trkpt lat="46.1268910" lon="10.4994310">
	<ele>2376.60</ele>
	<time>2023-08-07T09:58:10.000Z</time>
</trkpt>
<trkpt lat="46.1268910" lon="10.4994300">
	<ele>2376.60</ele>
	<time>2023-08-07T09:58:11.000Z</time>
</trkpt>
<trkpt lat="46.1268910" lon="10.4994290">
	<ele>2376.80</ele>
	<time>2023-08-07T09:58:12.000Z</time>
</trkpt>
<trkpt lat="46.1268900" lon="10.4994290">
	<ele>2377.00</ele>
	<time>2023-08-07T09:58:13.000Z</time>
</trkpt>
<trkpt lat="46.1268900" lon="10.4994280">
	<ele>2377.20</ele>
	<time>2023-08-07T09:58:14.000Z</time>
</trkpt>
<trkpt lat="46.1268900" lon="10.4994270">
	<ele>2377.20</ele>
	<time>2023-08-07T09:58:15.000Z</time>
</trkpt>
<trkpt lat="46.1268900" lon="10.4994260">
	<ele>2377.40</ele>
	<time>2023-08-07T09:58:16.000Z</time>
</trkpt>
<trkpt lat="46.1268900" lon="10.4994260">
	<ele>2377.40</ele>
	<time>2023-08-07T09:58:17.000Z</time>
</trkpt>
<trkpt lat="46.1268900" lon="10.4994250">
	<ele>2377.40</ele>
	<time>2023-08-07T09:58:18.000Z</time>
</trkpt>
<trkpt lat="46.1268900" lon="10.4994240">
	<ele>2377.60</ele>
	<time>2023-08-07T09:58:19.000Z</time>
</trkpt>
<trkpt lat="46.1268900" lon="10.4994230">
	<ele>2377.60</ele>
	<time>2023-08-07T09:58:20.000Z</time>
</trkpt>
<trkpt lat="46.1268890" lon="10.4994230">
	<ele>2377.60</ele>
	<time>2023-08-07T09:58:21.000Z</time>
</trkpt>
<trkpt lat="46.1268890" lon="10.4994220">
	<ele>2377.80</ele>
	<time>2023-08-07T09:58:22.000Z</time>
</trkpt>
<trkpt lat="46.1268890" lon="10.4994210">
	<ele>2378.00</ele>
	<time>2023-08-07T09:58:23.000Z</time>
</trkpt>
<trkpt lat="46.1268890" lon="10.4994200">
	<ele>2378.20</ele>
	<time>2023-08-07T09:58:24.000Z</time>
</trkpt>
<trkpt lat="46.1268890" lon="10.4994200">
	<ele>2378.20</ele>
	<time>2023-08-07T09:58:25.000Z</time>
</trkpt>
<trkpt lat="46.1268890" lon="10.4994190">
	<ele>2378.60</ele>
	<time>2023-08-07T09:58:26.000Z</time>
</trkpt>
<trkpt lat="46.1268890" lon="10.4994180">
	<ele>2378.60</ele>
	<time>2023-08-07T09:58:27.000Z</time>
</trkpt>
<trkpt lat="46.1268880" lon="10.4994170">
	<ele>2378.80</ele>
	<time>2023-08-07T09:58:28.000Z</time>
</trkpt>
<trkpt lat="46.1268880" lon="10.4994170">
	<ele>2378.80</ele>
	<time>2023-08-07T09:58:29.000Z</time>
</trkpt>
<trkpt lat="46.1268880" lon="10.4994160">
	<ele>2378.80</ele>
	<time>2023-08-07T09:58:30.000Z</time>
</trkpt>
<trkpt lat="46.1268880" lon="10.4994150">
	<ele>2378.80</ele>
	<time>2023-08-07T09:58:31.000Z</time>
</trkpt>
<trkpt lat="46.1268880" lon="10.4994140">
	<ele>2379.00</ele>
	<time>2023-08-07T09:58:32.000Z</time>
</trkpt>
<trkpt lat="46.1268870" lon="10.4994130">
	<ele>2379.00</ele>
	<time>2023-08-07T09:58:33.000Z</time>
</trkpt>
<trkpt lat="46.1268870" lon="10.4994120">
	<ele>2379.00</ele>
	<time>2023-08-07T09:58:34.000Z</time>
</trkpt>
<trkpt lat="46.1268870" lon="10.4994120">
	<ele>2379.00</ele>
	<time>2023-08-07T09:58:35.000Z</time>
</trkpt>
<trkpt lat="46.1268870" lon="10.4994110">
	<ele>2379.40</ele>
	<time>2023-08-07T09:58:36.000Z</time>
</trkpt>
<trkpt lat="46.1268870" lon="10.4994100">
	<ele>2379.60</ele>
	<time>2023-08-07T09:58:37.000Z</time>
</trkpt>
<trkpt lat="46.1268870" lon="10.4994090">
	<ele>2380.00</ele>
	<time>2023-08-07T09:58:38.000Z</time>
</trkpt>
<trkpt lat="46.1268870" lon="10.4994080">
	<ele>2380.20</ele>
	<time>2023-08-07T09:58:39.000Z</time>
</trkpt>
<trkpt lat="46.1268870" lon="10.4994080">
	<ele>2380.40</ele>
	<time>2023-08-07T09:58:40.000Z</time>
</trkpt>
<trkpt lat="46.1268870" lon="10.4994070">
	<ele>2380.40</ele>
	<time>2023-08-07T09:58:41.000Z</time>
</trkpt>
<trkpt lat="46.1268860" lon="10.4994060">
	<ele>2380.40</ele>
	<time>2023-08-07T09:58:42.000Z</time>
</trkpt>
<trkpt lat="46.1268860" lon="10.4994050">
	<ele>2380.40</ele>
	<time>2023-08-07T09:58:43.000Z</time>
</trkpt>
<trkpt lat="46.1268860" lon="10.4994040">
	<ele>2380.60</ele>
	<time>2023-08-07T09:58:44.000Z</time>
</trkpt>
<trkpt lat="46.1268860" lon="10.4994030">
	<ele>2380.80</ele>
	<time>2023-08-07T09:58:45.000Z</time>
</trkpt>
<trkpt lat="46.1268860" lon="10.4994030">
	<ele>2380.80</ele>
	<time>2023-08-07T09:58:46.000Z</time>
</trkpt>
<trkpt lat="46.1268850" lon="10.4994020">
	<ele>2381.00</ele>
	<time>2023-08-07T09:58:47.000Z</time>
</trkpt>
<trkpt lat="46.1268850" lon="10.4994010">
	<ele>2381.00</ele>
	<time>2023-08-07T09:58:48.000Z</time>
</trkpt>
<trkpt lat="46.1268850" lon="10.4994000">
	<ele>2381.00</ele>
	<time>2023-08-07T09:58:49.000Z</time>
</trkpt>
<trkpt lat="46.1268850" lon="10.4993990">
	<ele>2381.00</ele>
	<time>2023-08-07T09:58:50.000Z</time>
</trkpt>
<trkpt lat="46.1268680" lon="10.4993310">
	<ele>2381.00</ele>
	<time>2023-08-07T09:58:51.000Z</time>
</trkpt>
<trkpt lat="46.1268450" lon="10.4992590">
	<ele>2381.20</ele>
	<time>2023-08-07T09:58:52.000Z</time>
</trkpt>
<trkpt lat="46.1268210" lon="10.4991880">
	<ele>2381.20</ele>
	<time>2023-08-07T09:58:53.000Z</time>
</trkpt>
<trkpt lat="46.1267970" lon="10.4991160">
	<ele>2381.20</ele>
	<time>2023-08-07T09:58:54.000Z</time>
</trkpt>
<trkpt lat="46.1267760" lon="10.4990470">
	<ele>2381.20</ele>
	<time>2023-08-07T09:58:55.000Z</time>
</trkpt>
<trkpt lat="46.1267570" lon="10.4989720">
	<ele>2381.20</ele>
	<time>2023-08-07T09:58:56.000Z</time>
</trkpt>
<trkpt lat="46.1267350" lon="10.4988980">
	<ele>2381.20</ele>
	<time>2023-08-07T09:58:57.000Z</time>
</trkpt>
<trkpt lat="46.1267150" lon="10.4988260">
	<ele>2381.20</ele>
	<time>2023-08-07T09:58:58.000Z</time>
</trkpt>
<trkpt lat="46.1266900" lon="10.4987520">
	<ele>2381.20</ele>
	<time>2023-08-07T09:58:59.000Z</time>
</trkpt>
<trkpt lat="46.1266660" lon="10.4986760">
	<ele>2381.40</ele>
	<time>2023-08-07T09:59:00.000Z</time>
</trkpt>
<trkpt lat="46.1266610" lon="10.4986670">
	<ele>2381.60</ele>
	<time>2023-08-07T09:59:01.000Z</time>
</trkpt>
<trkpt lat="46.1266590" lon="10.4986630">
	<ele>2381.80</ele>
	<time>2023-08-07T09:59:02.000Z</time>
</trkpt>
<trkpt lat="46.1266580" lon="10.4986620">
	<ele>2381.80</ele>
	<time>2023-08-07T09:59:03.000Z</time>
</trkpt>
<trkpt lat="46.1266570" lon="10.4986610">
	<ele>2381.80</ele>
	<time>2023-08-07T09:59:04.000Z</time>
</trkpt>
<trkpt lat="46.1266560" lon="10.4986580">
	<ele>2382.00</ele>
	<time>2023-08-07T09:59:05.000Z</time>
</trkpt>
<trkpt lat="46.1266520" lon="10.4986530">
	<ele>2382.00</ele>
	<time>2023-08-07T09:59:06.000Z</time>
</trkpt>
<trkpt lat="46.1266480" lon="10.4986460">
	<ele>2382.20</ele>
	<time>2023-08-07T09:59:07.000Z</time>
</trkpt>
<trkpt lat="46.1266450" lon="10.4986420">
	<ele>2382.40</ele>
	<time>2023-08-07T09:59:08.000Z</time>
</trkpt>
<trkpt lat="46.1266410" lon="10.4986390">
	<ele>2382.40</ele>
	<time>2023-08-07T09:59:09.000Z</time>
</trkpt>
<trkpt lat="46.1266390" lon="10.4986340">
	<ele>2382.60</ele>
	<time>2023-08-07T09:59:10.000Z</time>
</trkpt>
<trkpt lat="46.1266350" lon="10.4986320">
	<ele>2382.80</ele>
	<time>2023-08-07T09:59:11.000Z</time>
</trkpt>
<trkpt lat="46.1266340" lon="10.4986250">
	<ele>2383.00</ele>
	<time>2023-08-07T09:59:12.000Z</time>
</trkpt>
<trkpt lat="46.1266340" lon="10.4986250">
	<ele>2383.40</ele>
	<time>2023-08-07T09:59:13.000Z</time>
</trkpt>
<trkpt lat="46.1266350" lon="10.4986200">
	<ele>2383.60</ele>
	<time>2023-08-07T09:59:14.000Z</time>
</trkpt>
<trkpt lat="46.1266360" lon="10.4986150">
	<ele>2383.80</ele>
	<time>2023-08-07T09:59:15.000Z</time>
</trkpt>
<trkpt lat="46.1266360" lon="10.4986120">
	<ele>2383.80</ele>
	<time>2023-08-07T09:59:16.000Z</time>
</trkpt>
<trkpt lat="46.1266340" lon="10.4986100">
	<ele>2384.00</ele>
	<time>2023-08-07T09:59:17.000Z</time>
</trkpt>
<trkpt lat="46.1266320" lon="10.4986090">
	<ele>2384.00</ele>
	<time>2023-08-07T09:59:18.000Z</time>
</trkpt>
<trkpt lat="46.1266300" lon="10.4986070">
	<ele>2384.40</ele>
	<time>2023-08-07T09:59:19.000Z</time>
</trkpt>
<trkpt lat="46.1266320" lon="10.4985950">
	<ele>2384.60</ele>
	<time>2023-08-07T09:59:20.000Z</time>
</trkpt>
<trkpt lat="46.1266330" lon="10.4985840">
	<ele>2384.80</ele>
	<time>2023-08-07T09:59:21.000Z</time>
</trkpt>
<trkpt lat="46.1266310" lon="10.4985790">
	<ele>2385.00</ele>
	<time>2023-08-07T09:59:22.000Z</time>
</trkpt>
<trkpt lat="46.1266290" lon="10.4985740">
	<ele>2385.00</ele>
	<time>2023-08-07T09:59:23.000Z</time>
</trkpt>
<trkpt lat="46.1266280" lon="10.4985710">
	<ele>2385.00</ele>
	<time>2023-08-07T09:59:24.000Z</time>
</trkpt>
<trkpt lat="46.1266260" lon="10.4985660">
	<ele>2385.00</ele>
	<time>2023-08-07T09:59:25.000Z</time>
</trkpt>
<trkpt lat="46.1266250" lon="10.4985620">
	<ele>2385.20</ele>
	<time>2023-08-07T09:59:26.000Z</time>
</trkpt>
<trkpt lat="46.1266230" lon="10.4985590">
	<ele>2385.40</ele>
	<time>2023-08-07T09:59:27.000Z</time>
</trkpt>
<trkpt lat="46.1266220" lon="10.4985550">
	<ele>2385.40</ele>
	<time>2023-08-07T09:59:28.000Z</time>
</trkpt>
<trkpt lat="46.1266200" lon="10.4985480">
	<ele>2385.40</ele>
	<time>2023-08-07T09:59:29.000Z</time>
</trkpt>
<trkpt lat="46.1266170" lon="10.4985420">
	<ele>2385.40</ele>
	<time>2023-08-07T09:59:30.000Z</time>
</trkpt>
<trkpt lat="46.1266160" lon="10.4985400">
	<ele>2385.40</ele>
	<time>2023-08-07T09:59:31.000Z</time>
</trkpt>
<trkpt lat="46.1266140" lon="10.4985410">
	<ele>2385.60</ele>
	<time>2023-08-07T09:59:32.000Z</time>
</trkpt>
<trkpt lat="46.1266150" lon="10.4985390">
	<ele>2385.80</ele>
	<time>2023-08-07T09:59:33.000Z</time>
</trkpt>
<trkpt lat="46.1266190" lon="10.4985330">
	<ele>2385.80</ele>
	<time>2023-08-07T09:59:34.000Z</time>
</trkpt>
<trkpt lat="46.1266200" lon="10.4985270">
	<ele>2386.20</ele>
	<time>2023-08-07T09:59:35.000Z</time>
</trkpt>
<trkpt lat="46.1266200" lon="10.4985240">
	<ele>2386.20</ele>
	<time>2023-08-07T09:59:36.000Z</time>
</trkpt>
<trkpt lat="46.1266200" lon="10.4985210">
	<ele>2386.20</ele>
	<time>2023-08-07T09:59:37.000Z</time>
</trkpt>
<trkpt lat="46.1266200" lon="10.4985150">
	<ele>2386.60</ele>
	<time>2023-08-07T09:59:38.000Z</time>
</trkpt>
<trkpt lat="46.1266220" lon="10.4985120">
	<ele>2386.60</ele>
	<time>2023-08-07T09:59:39.000Z</time>
</trkpt>
<trkpt lat="46.1266230" lon="10.4985070">
	<ele>2386.80</ele>
	<time>2023-08-07T09:59:40.000Z</time>
</trkpt>
<trkpt lat="46.1266220" lon="10.4985050">
	<ele>2387.00</ele>
	<time>2023-08-07T09:59:41.000Z</time>
</trkpt>
<trkpt lat="46.1266230" lon="10.4985010">
	<ele>2386.80</ele>
	<time>2023-08-07T09:59:42.000Z</time>
</trkpt>
<trkpt lat="46.1266220" lon="10.4984960">
	<ele>2387.00</ele>
	<time>2023-08-07T09:59:43.000Z</time>
</trkpt>
<trkpt lat="46.1266240" lon="10.4984910">
	<ele>2387.00</ele>
	<time>2023-08-07T09:59:44.000Z</time>
</trkpt>
<trkpt lat="46.1266230" lon="10.4984830">
	<ele>2387.00</ele>
	<time>2023-08-07T09:59:45.000Z</time>
</trkpt>
<trkpt lat="46.1266170" lon="10.4984810">
	<ele>2387.00</ele>
	<time>2023-08-07T09:59:46.000Z</time>
</trkpt>
<trkpt lat="46.1266140" lon="10.4984800">
	<ele>2387.00</ele>
	<time>2023-08-07T09:59:47.000Z</time>
</trkpt>
<trkpt lat="46.1266090" lon="10.4984780">
	<ele>2387.00</ele>
	<time>2023-08-07T09:59:48.000Z</time>
</trkpt>
<trkpt lat="46.1266040" lon="10.4984730">
	<ele>2387.00</ele>
	<time>2023-08-07T09:59:49.000Z</time>
</trkpt>
<trkpt lat="46.1266000" lon="10.4984670">
	<ele>2387.00</ele>
	<time>2023-08-07T09:59:50.000Z</time>
</trkpt>
<trkpt lat="46.1265980" lon="10.4984650">
	<ele>2387.00</ele>
	<time>2023-08-07T09:59:51.000Z</time>
</trkpt>
<trkpt lat="46.1265940" lon="10.4984570">
	<ele>2387.00</ele>
	<time>2023-08-07T09:59:52.000Z</time>
</trkpt>
<trkpt lat="46.1265910" lon="10.4984510">
	<ele>2387.00</ele>
	<time>2023-08-07T09:59:53.000Z</time>
</trkpt>
<trkpt lat="46.1265890" lon="10.4984460">
	<ele>2387.20</ele>
	<time>2023-08-07T09:59:54.000Z</time>
</trkpt>
<trkpt lat="46.1265870" lon="10.4984410">
	<ele>2387.20</ele>
	<time>2023-08-07T09:59:55.000Z</time>
</trkpt>
<trkpt lat="46.1265830" lon="10.4984360">
	<ele>2387.20</ele>
	<time>2023-08-07T09:59:56.000Z</time>
</trkpt>
<trkpt lat="46.1265800" lon="10.4984290">
	<ele>2387.40</ele>
	<time>2023-08-07T09:59:57.000Z</time>
</trkpt>
<trkpt lat="46.1265750" lon="10.4984240">
	<ele>2387.40</ele>
	<time>2023-08-07T09:59:58.000Z</time>
</trkpt>
<trkpt lat="46.1265700" lon="10.4984180">
	<ele>2387.40</ele>
	<time>2023-08-07T09:59:59.000Z</time>
</trkpt>
<trkpt lat="46.1265660" lon="10.4984140">
	<ele>2387.40</ele>
	<time>2023-08-07T10:00:00.000Z</time>
</trkpt>
<trkpt lat="46.1265610" lon="10.4984100">
	<ele>2387.60</ele>
	<time>2023-08-07T10:00:01.000Z</time>
</trkpt>
<trkpt lat="46.1265590" lon="10.4984020">
	<ele>2387.60</ele>
	<time>2023-08-07T10:00:02.000Z</time>
</trkpt>
<trkpt lat="46.1265580" lon="10.4983940">
	<ele>2387.60</ele>
	<time>2023-08-07T10:00:03.000Z</time>
</trkpt>
<trkpt lat="46.1265580" lon="10.4983860">
	<ele>2387.60</ele>
	<time>2023-08-07T10:00:04.000Z</time>
</trkpt>
<trkpt lat="46.1265560" lon="10.4983800">
	<ele>2387.80</ele>
	<time>2023-08-07T10:00:05.000Z</time>
</trkpt>
<trkpt lat="46.1265540" lon="10.4983780">
	<ele>2387.80</ele>
	<time>2023-08-07T10:00:06.000Z</time>
</trkpt>
<trkpt lat="46.1265520" lon="10.4983770">
	<ele>2387.80</ele>
	<time>2023-08-07T10:00:07.000Z</time>
</trkpt>
<trkpt lat="46.1265490" lon="10.4983760">
	<ele>2387.80</ele>
	<time>2023-08-07T10:00:08.000Z</time>
</trkpt>
<trkpt lat="46.1265450" lon="10.4983750">
	<ele>2387.80</ele>
	<time>2023-08-07T10:00:09.000Z</time>
</trkpt>
<trkpt lat="46.1265400" lon="10.4983750">
	<ele>2387.80</ele>
	<time>2023-08-07T10:00:10.000Z</time>
</trkpt>
<trkpt lat="46.1265370" lon="10.4983750">
	<ele>2387.80</ele>
	<time>2023-08-07T10:00:11.000Z</time>
</trkpt>
<trkpt lat="46.1265330" lon="10.4983730">
	<ele>2387.60</ele>
	<time>2023-08-07T10:00:12.000Z</time>
</trkpt>
<trkpt lat="46.1265290" lon="10.4983710">
	<ele>2387.60</ele>
	<time>2023-08-07T10:00:13.000Z</time>
</trkpt>
<trkpt lat="46.1265240" lon="10.4983700">
	<ele>2387.40</ele>
	<time>2023-08-07T10:00:14.000Z</time>
</trkpt>
<trkpt lat="46.1265180" lon="10.4983640">
	<ele>2387.20</ele>
	<time>2023-08-07T10:00:15.000Z</time>
</trkpt>
<trkpt lat="46.1265140" lon="10.4983580">
	<ele>2387.00</ele>
	<time>2023-08-07T10:00:16.000Z</time>
</trkpt>
<trkpt lat="46.1265130" lon="10.4983500">
	<ele>2387.00</ele>
	<time>2023-08-07T10:00:17.000Z</time>
</trkpt>
<trkpt lat="46.1265120" lon="10.4983450">
	<ele>2387.00</ele>
	<time>2023-08-07T10:00:18.000Z</time>
</trkpt>
<trkpt lat="46.1265120" lon="10.4983380">
	<ele>2387.00</ele>
	<time>2023-08-07T10:00:19.000Z</time>
</trkpt>
<trkpt lat="46.1265100" lon="10.4983340">
	<ele>2387.00</ele>
	<time>2023-08-07T10:00:20.000Z</time>
</trkpt>
<trkpt lat="46.1265090" lon="10.4983310">
	<ele>2387.20</ele>
	<time>2023-08-07T10:00:21.000Z</time>
</trkpt>
<trkpt lat="46.1265060" lon="10.4983250">
	<ele>2387.20</ele>
	<time>2023-08-07T10:00:22.000Z</time>
</trkpt>
<trkpt lat="46.1265030" lon="10.4983210">
	<ele>2387.20</ele>
	<time>2023-08-07T10:00:23.000Z</time>
</trkpt>
<trkpt lat="46.1265010" lon="10.4983180">
	<ele>2387.40</ele>
	<time>2023-08-07T10:00:24.000Z</time>
</trkpt>
<trkpt lat="46.1265000" lon="10.4983170">
	<ele>2387.40</ele>
	<time>2023-08-07T10:00:25.000Z</time>
</trkpt>
<trkpt lat="46.1265000" lon="10.4983150">
	<ele>2387.40</ele>
	<time>2023-08-07T10:00:26.000Z</time>
</trkpt>
<trkpt lat="46.1264990" lon="10.4983110">
	<ele>2387.60</ele>
	<time>2023-08-07T10:00:27.000Z</time>
</trkpt>
<trkpt lat="46.1264980" lon="10.4983080">
	<ele>2387.80</ele>
	<time>2023-08-07T10:00:28.000Z</time>
</trkpt>
<trkpt lat="46.1264960" lon="10.4983070">
	<ele>2387.80</ele>
	<time>2023-08-07T10:00:29.000Z</time>
</trkpt>
<trkpt lat="46.1264910" lon="10.4983060">
	<ele>2388.00</ele>
	<time>2023-08-07T10:00:30.000Z</time>
</trkpt>
<trkpt lat="46.1264860" lon="10.4983010">
	<ele>2388.00</ele>
	<time>2023-08-07T10:00:31.000Z</time>
</trkpt>
<trkpt lat="46.1264850" lon="10.4982970">
	<ele>2388.40</ele>
	<time>2023-08-07T10:00:32.000Z</time>
</trkpt>
<trkpt lat="46.1264830" lon="10.4982950">
	<ele>2388.40</ele>
	<time>2023-08-07T10:00:33.000Z</time>
</trkpt>
<trkpt lat="46.1264840" lon="10.4982930">
	<ele>2388.60</ele>
	<time>2023-08-07T10:00:34.000Z</time>
</trkpt>
<trkpt lat="46.1264810" lon="10.4982870">
	<ele>2388.60</ele>
	<time>2023-08-07T10:00:35.000Z</time>
</trkpt>
<trkpt lat="46.1264750" lon="10.4982820">
	<ele>2388.60</ele>
	<time>2023-08-07T10:00:36.000Z</time>
</trkpt>
<trkpt lat="46.1264710" lon="10.4982760">
	<ele>2388.60</ele>
	<time>2023-08-07T10:00:37.000Z</time>
</trkpt>
<trkpt lat="46.1264700" lon="10.4982720">
	<ele>2389.20</ele>
	<time>2023-08-07T10:00:38.000Z</time>
</trkpt>
<trkpt lat="46.1264700" lon="10.4982700">
	<ele>2389.40</ele>
	<time>2023-08-07T10:00:39.000Z</time>
</trkpt>
<trkpt lat="46.1264700" lon="10.4982700">
	<ele>2389.60</ele>
	<time>2023-08-07T10:00:40.000Z</time>
</trkpt>
<trkpt lat="46.1264700" lon="10.4982700">
	<ele>2389.80</ele>
	<time>2023-08-07T10:00:41.000Z</time>
</trkpt>
<trkpt lat="46.1264700" lon="10.4982700">
	<ele>2390.00</ele>
	<time>2023-08-07T10:00:42.000Z</time>
</trkpt>
<trkpt lat="46.1264700" lon="10.4982700">
	<ele>2390.00</ele>
	<time>2023-08-07T10:00:43.000Z</time>
</trkpt>
<trkpt lat="46.1264700" lon="10.4982700">
	<ele>2390.00</ele>
	<time>2023-08-07T10:00:44.000Z</time>
</trkpt>
<trkpt lat="46.1264700" lon="10.4982700">
	<ele>2390.20</ele>
	<time>2023-08-07T10:00:45.000Z</time>
</trkpt>
<trkpt lat="46.1264700" lon="10.4982700">
	<ele>2390.40</ele>
	<time>2023-08-07T10:00:46.000Z</time>
</trkpt>
<trkpt lat="46.1264700" lon="10.4982700">
	<ele>2390.60</ele>
	<time>2023-08-07T10:00:47.000Z</time>
</trkpt>
<trkpt lat="46.1264700" lon="10.4982700">
	<ele>2390.60</ele>
	<time>2023-08-07T10:00:48.000Z</time>
</trkpt>
<trkpt lat="46.1264700" lon="10.4982700">
	<ele>2390.80</ele>
	<time>2023-08-07T10:00:49.000Z</time>
</trkpt>
<trkpt lat="46.1264700" lon="10.4982700">
	<ele>2391.00</ele>
	<time>2023-08-07T10:00:50.000Z</time>
</trkpt>
<trkpt lat="46.1264700" lon="10.4982700">
	<ele>2391.20</ele>
	<time>2023-08-07T10:00:51.000Z</time>
</trkpt>
<trkpt lat="46.1264700" lon="10.4982700">
	<ele>2391.40</ele>
	<time>2023-08-07T10:00:52.000Z</time>
</trkpt>
<trkpt lat="46.1264700" lon="10.4982700">
	<ele>2391.40</ele>
	<time>2023-08-07T10:00:53.000Z</time>
</trkpt>
<trkpt lat="46.1264700" lon="10.4982700">
	<ele>2391.60</ele>
	<time>2023-08-07T10:00:54.000Z</time>
</trkpt>
<trkpt lat="46.1264680" lon="10.4982690">
	<ele>2391.60</ele>
	<time>2023-08-07T10:00:55.000Z</time>
</trkpt>
<trkpt lat="46.1264650" lon="10.4982670">
	<ele>2391.60</ele>
	<time>2023-08-07T10:00:56.000Z</time>
</trkpt>
<trkpt lat="46.1264620" lon="10.4982650">
	<ele>2391.60</ele>
	<time>2023-08-07T10:00:57.000Z</time>
</trkpt>
<trkpt lat="46.1264590" lon="10.4982630">
	<ele>2391.80</ele>
	<time>2023-08-07T10:00:58.000Z</time>
</trkpt>
<trkpt lat="46.1264570" lon="10.4982600">
	<ele>2391.80</ele>
	<time>2023-08-07T10:00:59.000Z</time>
</trkpt>
<trkpt lat="46.1264560" lon="10.4982570">
	<ele>2392.20</ele>
	<time>2023-08-07T10:01:00.000Z</time>
</trkpt>
<trkpt lat="46.1264540" lon="10.4982540">
	<ele>2392.40</ele>
	<time>2023-08-07T10:01:01.000Z</time>
</trkpt>
<trkpt lat="46.1264520" lon="10.4982510">
	<ele>2392.60</ele>
	<time>2023-08-07T10:01:02.000Z</time>
</trkpt>
<trkpt lat="46.1264510" lon="10.4982490">
	<ele>2392.80</ele>
	<time>2023-08-07T10:01:03.000Z</time>
</trkpt>
<trkpt lat="46.1264490" lon="10.4982470">
	<ele>2392.80</ele>
	<time>2023-08-07T10:01:04.000Z</time>
</trkpt>
<trkpt lat="46.1264470" lon="10.4982440">
	<ele>2392.80</ele>
	<time>2023-08-07T10:01:05.000Z</time>
</trkpt>
<trkpt lat="46.1264450" lon="10.4982390">
	<ele>2392.80</ele>
	<time>2023-08-07T10:01:06.000Z</time>
</trkpt>
<trkpt lat="46.1264440" lon="10.4982350">
	<ele>2392.80</ele>
	<time>2023-08-07T10:01:07.000Z</time>
</trkpt>
<trkpt lat="46.1264410" lon="10.4982330">
	<ele>2393.00</ele>
	<time>2023-08-07T10:01:08.000Z</time>
</trkpt>
<trkpt lat="46.1264390" lon="10.4982290">
	<ele>2393.00</ele>
	<time>2023-08-07T10:01:09.000Z</time>
</trkpt>
<trkpt lat="46.1264360" lon="10.4982260">
	<ele>2393.00</ele>
	<time>2023-08-07T10:01:10.000Z</time>
</trkpt>
<trkpt lat="46.1264350" lon="10.4982230">
	<ele>2393.00</ele>
	<time>2023-08-07T10:01:11.000Z</time>
</trkpt>
<trkpt lat="46.1264350" lon="10.4982170">
	<ele>2393.20</ele>
	<time>2023-08-07T10:01:12.000Z</time>
</trkpt>
<trkpt lat="46.1264340" lon="10.4982080">
	<ele>2393.40</ele>
	<time>2023-08-07T10:01:13.000Z</time>
</trkpt>
<trkpt lat="46.1264340" lon="10.4982040">
	<ele>2393.60</ele>
	<time>2023-08-07T10:01:14.000Z</time>
</trkpt>
<trkpt lat="46.1264330" lon="10.4982030">
	<ele>2393.60</ele>
	<time>2023-08-07T10:01:15.000Z</time>
</trkpt>
<trkpt lat="46.1264330" lon="10.4982020">
	<ele>2393.80</ele>
	<time>2023-08-07T10:01:16.000Z</time>
</trkpt>
<trkpt lat="46.1264330" lon="10.4982020">
	<ele>2394.00</ele>
	<time>2023-08-07T10:01:17.000Z</time>
</trkpt>
<trkpt lat="46.1264330" lon="10.4982010">
	<ele>2394.00</ele>
	<time>2023-08-07T10:01:18.000Z</time>
</trkpt>
<trkpt lat="46.1264330" lon="10.4982010">
	<ele>2394.20</ele>
	<time>2023-08-07T10:01:19.000Z</time>
</trkpt>
<trkpt lat="46.1264330" lon="10.4982010">
	<ele>2394.40</ele>
	<time>2023-08-07T10:01:20.000Z</time>
</trkpt>
<trkpt lat="46.1264330" lon="10.4982000">
	<ele>2394.40</ele>
	<time>2023-08-07T10:01:21.000Z</time>
</trkpt>
<trkpt lat="46.1264320" lon="10.4981990">
	<ele>2394.60</ele>
	<time>2023-08-07T10:01:22.000Z</time>
</trkpt>
<trkpt lat="46.1264320" lon="10.4981940">
	<ele>2394.60</ele>
	<time>2023-08-07T10:01:23.000Z</time>
</trkpt>
<trkpt lat="46.1264310" lon="10.4981910">
	<ele>2394.80</ele>
	<time>2023-08-07T10:01:24.000Z</time>
</trkpt>
<trkpt lat="46.1264290" lon="10.4981880">
	<ele>2394.80</ele>
	<time>2023-08-07T10:01:25.000Z</time>
</trkpt>
<trkpt lat="46.1264270" lon="10.4981830">
	<ele>2394.80</ele>
	<time>2023-08-07T10:01:26.000Z</time>
</trkpt>
<trkpt lat="46.1264240" lon="10.4981750">
	<ele>2394.80</ele>
	<time>2023-08-07T10:01:27.000Z</time>
</trkpt>
<trkpt lat="46.1264220" lon="10.4981690">
	<ele>2395.00</ele>
	<time>2023-08-07T10:01:28.000Z</time>
</trkpt>
<trkpt lat="46.1264200" lon="10.4981640">
	<ele>2394.80</ele>
	<time>2023-08-07T10:01:29.000Z</time>
</trkpt>
<trkpt lat="46.1264180" lon="10.4981600">
	<ele>2395.00</ele>
	<time>2023-08-07T10:01:30.000Z</time>
</trkpt>
<trkpt lat="46.1264170" lon="10.4981540">
	<ele>2395.00</ele>
	<time>2023-08-07T10:01:31.000Z</time>
</trkpt>
<trkpt lat="46.1264170" lon="10.4981480">
	<ele>2394.80</ele>
	<time>2023-08-07T10:01:32.000Z</time>
</trkpt>
<trkpt lat="46.1264170" lon="10.4981440">
	<ele>2394.80</ele>
	<time>2023-08-07T10:01:33.000Z</time>
</trkpt>
<trkpt lat="46.1264170" lon="10.4981390">
	<ele>2394.80</ele>
	<time>2023-08-07T10:01:34.000Z</time>
</trkpt>
<trkpt lat="46.1264160" lon="10.4981310">
	<ele>2394.60</ele>
	<time>2023-08-07T10:01:35.000Z</time>
</trkpt>
<trkpt lat="46.1264150" lon="10.4981220">
	<ele>2394.60</ele>
	<time>2023-08-07T10:01:36.000Z</time>
</trkpt>
<trkpt lat="46.1264150" lon="10.4981140">
	<ele>2394.40</ele>
	<time>2023-08-07T10:01:37.000Z</time>
</trkpt>
<trkpt lat="46.1264140" lon="10.4981090">
	<ele>2394.40</ele>
	<time>2023-08-07T10:01:38.000Z</time>
</trkpt>
<trkpt lat="46.1264140" lon="10.4981040">
	<ele>2394.20</ele>
	<time>2023-08-07T10:01:39.000Z</time>
</trkpt>
<trkpt lat="46.1264140" lon="10.4980980">
	<ele>2394.20</ele>
	<time>2023-08-07T10:01:40.000Z</time>
</trkpt>
<trkpt lat="46.1264100" lon="10.4980950">
	<ele>2394.20</ele>
	<time>2023-08-07T10:01:41.000Z</time>
</trkpt>
<trkpt lat="46.1264070" lon="10.4980900">
	<ele>2394.40</ele>
	<time>2023-08-07T10:01:42.000Z</time>
</trkpt>
<trkpt lat="46.1264050" lon="10.4980830">
	<ele>2394.60</ele>
	<time>2023-08-07T10:01:43.000Z</time>
</trkpt>
<trkpt lat="46.1264030" lon="10.4980750">
	<ele>2394.60</ele>
	<time>2023-08-07T10:01:44.000Z</time>
</trkpt>
<trkpt lat="46.1264000" lon="10.4980700">
	<ele>2394.60</ele>
	<time>2023-08-07T10:01:45.000Z</time>
</trkpt>
<trkpt lat="46.1263980" lon="10.4980650">
	<ele>2394.60</ele>
	<time>2023-08-07T10:01:46.000Z</time>
</trkpt>
<trkpt lat="46.1263950" lon="10.4980600">
	<ele>2394.60</ele>
	<time>2023-08-07T10:01:47.000Z</time>
</trkpt>
<trkpt lat="46.1263890" lon="10.4980540">
	<ele>2394.60</ele>
	<time>2023-08-07T10:01:48.000Z</time>
</trkpt>
<trkpt lat="46.1263850" lon="10.4980500">
	<ele>2394.60</ele>
	<time>2023-08-07T10:01:49.000Z</time>
</trkpt>
<trkpt lat="46.1263810" lon="10.4980480">
	<ele>2394.40</ele>
	<time>2023-08-07T10:01:50.000Z</time>
</trkpt>
<trkpt lat="46.1263760" lon="10.4980460">
	<ele>2394.40</ele>
	<time>2023-08-07T10:01:51.000Z</time>
</trkpt>
<trkpt lat="46.1263720" lon="10.4980410">
	<ele>2394.40</ele>
	<time>2023-08-07T10:01:52.000Z</time>
</trkpt>
<trkpt lat="46.1263680" lon="10.4980370">
	<ele>2394.60</ele>
	<time>2023-08-07T10:01:53.000Z</time>
</trkpt>
<trkpt lat="46.1263630" lon="10.4980340">
	<ele>2394.80</ele>
	<time>2023-08-07T10:01:54.000Z</time>
</trkpt>
<trkpt lat="46.1263580" lon="10.4980320">
	<ele>2394.80</ele>
	<time>2023-08-07T10:01:55.000Z</time>
</trkpt>
<trkpt lat="46.1263540" lon="10.4980260">
	<ele>2395.00</ele>
	<time>2023-08-07T10:01:56.000Z</time>
</trkpt>
<trkpt lat="46.1263500" lon="10.4980220">
	<ele>2395.00</ele>
	<time>2023-08-07T10:01:57.000Z</time>
</trkpt>
<trkpt lat="46.1263470" lon="10.4980180">
	<ele>2395.20</ele>
	<time>2023-08-07T10:01:58.000Z</time>
</trkpt>
<trkpt lat="46.1263440" lon="10.4980150">
	<ele>2395.20</ele>
	<time>2023-08-07T10:01:59.000Z</time>
</trkpt>
<trkpt lat="46.1263410" lon="10.4980110">
	<ele>2395.40</ele>
	<time>2023-08-07T10:02:00.000Z</time>
</trkpt>
<trkpt lat="46.1263380" lon="10.4980080">
	<ele>2395.60</ele>
	<time>2023-08-07T10:02:01.000Z</time>
</trkpt>
<trkpt lat="46.1263360" lon="10.4980040">
	<ele>2395.80</ele>
	<time>2023-08-07T10:02:02.000Z</time>
</trkpt>
<trkpt lat="46.1263350" lon="10.4980000">
	<ele>2396.00</ele>
	<time>2023-08-07T10:02:03.000Z</time>
</trkpt>
<trkpt lat="46.1263340" lon="10.4979950">
	<ele>2396.20</ele>
	<time>2023-08-07T10:02:04.000Z</time>
</trkpt>
<trkpt lat="46.1263330" lon="10.4979880">
	<ele>2396.20</ele>
	<time>2023-08-07T10:02:05.000Z</time>
</trkpt>
<trkpt lat="46.1263330" lon="10.4979790">
	<ele>2396.40</ele>
	<time>2023-08-07T10:02:06.000Z</time>
</trkpt>
<trkpt lat="46.1263330" lon="10.4979720">
	<ele>2396.60</ele>
	<time>2023-08-07T10:02:07.000Z</time>
</trkpt>
<trkpt lat="46.1263330" lon="10.4979670">
	<ele>2396.80</ele>
	<time>2023-08-07T10:02:08.000Z</time>
</trkpt>
<trkpt lat="46.1263330" lon="10.4979600">
	<ele>2397.00</ele>
	<time>2023-08-07T10:02:09.000Z</time>
</trkpt>
<trkpt lat="46.1263330" lon="10.4979530">
	<ele>2397.00</ele>
	<time>2023-08-07T10:02:10.000Z</time>
</trkpt>
<trkpt lat="46.1263320" lon="10.4979470">
	<ele>2397.20</ele>
	<time>2023-08-07T10:02:11.000Z</time>
</trkpt>
<trkpt lat="46.1263320" lon="10.4979390">
	<ele>2397.20</ele>
	<time>2023-08-07T10:02:12.000Z</time>
</trkpt>
<trkpt lat="46.1263320" lon="10.4979320">
	<ele>2397.20</ele>
	<time>2023-08-07T10:02:13.000Z</time>
</trkpt>
<trkpt lat="46.1263320" lon="10.4979280">
	<ele>2397.20</ele>
	<time>2023-08-07T10:02:14.000Z</time>
</trkpt>
<trkpt lat="46.1263310" lon="10.4979240">
	<ele>2397.40</ele>
	<time>2023-08-07T10:02:15.000Z</time>
</trkpt>
<trkpt lat="46.1263310" lon="10.4979210">
	<ele>2397.60</ele>
	<time>2023-08-07T10:02:16.000Z</time>
</trkpt>
<trkpt lat="46.1263300" lon="10.4979180">
	<ele>2397.80</ele>
	<time>2023-08-07T10:02:17.000Z</time>
</trkpt>
<trkpt lat="46.1263300" lon="10.4979140">
	<ele>2397.80</ele>
	<time>2023-08-07T10:02:18.000Z</time>
</trkpt>
<trkpt lat="46.1263300" lon="10.4979110">
	<ele>2397.80</ele>
	<time>2023-08-07T10:02:19.000Z</time>
</trkpt>
<trkpt lat="46.1263300" lon="10.4979070">
	<ele>2397.80</ele>
	<time>2023-08-07T10:02:20.000Z</time>
</trkpt>
<trkpt lat="46.1263300" lon="10.4979020">
	<ele>2397.80</ele>
	<time>2023-08-07T10:02:21.000Z</time>
</trkpt>
<trkpt lat="46.1263300" lon="10.4978980">
	<ele>2398.00</ele>
	<time>2023-08-07T10:02:22.000Z</time>
</trkpt>
<trkpt lat="46.1263300" lon="10.4978930">
	<ele>2398.00</ele>
	<time>2023-08-07T10:02:23.000Z</time>
</trkpt>
<trkpt lat="46.1263290" lon="10.4978860">
	<ele>2398.20</ele>
	<time>2023-08-07T10:02:24.000Z</time>
</trkpt>
<trkpt lat="46.1263290" lon="10.4978780">
	<ele>2398.40</ele>
	<time>2023-08-07T10:02:25.000Z</time>
</trkpt>
<trkpt lat="46.1263290" lon="10.4978700">
	<ele>2398.60</ele>
	<time>2023-08-07T10:02:26.000Z</time>
</trkpt>
<trkpt lat="46.1263270" lon="10.4978600">
	<ele>2398.60</ele>
	<time>2023-08-07T10:02:27.000Z</time>
</trkpt>
<trkpt lat="46.1263250" lon="10.4978500">
	<ele>2398.60</ele>
	<time>2023-08-07T10:02:28.000Z</time>
</trkpt>
<trkpt lat="46.1263220" lon="10.4978430">
	<ele>2398.60</ele>
	<time>2023-08-07T10:02:29.000Z</time>
</trkpt>
<trkpt lat="46.1263190" lon="10.4978380">
	<ele>2398.80</ele>
	<time>2023-08-07T10:02:30.000Z</time>
</trkpt>
<trkpt lat="46.1263160" lon="10.4978350">
	<ele>2398.80</ele>
	<time>2023-08-07T10:02:31.000Z</time>
</trkpt>
<trkpt lat="46.1263110" lon="10.4978300">
	<ele>2398.80</ele>
	<time>2023-08-07T10:02:32.000Z</time>
</trkpt>
<trkpt lat="46.1263070" lon="10.4978250">
	<ele>2398.80</ele>
	<time>2023-08-07T10:02:33.000Z</time>
</trkpt>
<trkpt lat="46.1263030" lon="10.4978200">
	<ele>2399.00</ele>
	<time>2023-08-07T10:02:34.000Z</time>
</trkpt>
<trkpt lat="46.1262990" lon="10.4978150">
	<ele>2399.00</ele>
	<time>2023-08-07T10:02:35.000Z</time>
</trkpt>
<trkpt lat="46.1262970" lon="10.4978100">
	<ele>2399.20</ele>
	<time>2023-08-07T10:02:36.000Z</time>
</trkpt>
<trkpt lat="46.1262950" lon="10.4978040">
	<ele>2399.20</ele>
	<time>2023-08-07T10:02:37.000Z</time>
</trkpt>
<trkpt lat="46.1262930" lon="10.4977970">
	<ele>2399.20</ele>
	<time>2023-08-07T10:02:38.000Z</time>
</trkpt>
<trkpt lat="46.1262920" lon="10.4977910">
	<ele>2399.40</ele>
	<time>2023-08-07T10:02:39.000Z</time>
</trkpt>
<trkpt lat="46.1262890" lon="10.4977870">
	<ele>2399.40</ele>
	<time>2023-08-07T10:02:40.000Z</time>
</trkpt>
<trkpt lat="46.1262870" lon="10.4977850">
	<ele>2399.60</ele>
	<time>2023-08-07T10:02:41.000Z</time>
</trkpt>
<trkpt lat="46.1262840" lon="10.4977830">
	<ele>2399.60</ele>
	<time>2023-08-07T10:02:42.000Z</time>
</trkpt>
<trkpt lat="46.1262800" lon="10.4977790">
	<ele>2399.60</ele>
	<time>2023-08-07T10:02:43.000Z</time>
</trkpt>
<trkpt lat="46.1262760" lon="10.4977750">
	<ele>2399.60</ele>
	<time>2023-08-07T10:02:44.000Z</time>
</trkpt>
<trkpt lat="46.1262730" lon="10.4977720">
	<ele>2399.60</ele>
	<time>2023-08-07T10:02:45.000Z</time>
</trkpt>
<trkpt lat="46.1262690" lon="10.4977670">
	<ele>2399.60</ele>
	<time>2023-08-07T10:02:46.000Z</time>
</trkpt>
<trkpt lat="46.1262650" lon="10.4977600">
	<ele>2399.80</ele>
	<time>2023-08-07T10:02:47.000Z</time>
</trkpt>
<trkpt lat="46.1262600" lon="10.4977540">
	<ele>2400.20</ele>
	<time>2023-08-07T10:02:48.000Z</time>
</trkpt>
<trkpt lat="46.1262560" lon="10.4977480">
	<ele>2400.40</ele>
	<time>2023-08-07T10:02:49.000Z</time>
</trkpt>
<trkpt lat="46.1262530" lon="10.4977430">
	<ele>2400.40</ele>
	<time>2023-08-07T10:02:50.000Z</time>
</trkpt>
<trkpt lat="46.1262490" lon="10.4977360">
	<ele>2400.40</ele>
	<time>2023-08-07T10:02:51.000Z</time>
</trkpt>
<trkpt lat="46.1262450" lon="10.4977300">
	<ele>2400.20</ele>
	<time>2023-08-07T10:02:52.000Z</time>
</trkpt>
<trkpt lat="46.1262410" lon="10.4977260">
	<ele>2400.00</ele>
	<time>2023-08-07T10:02:53.000Z</time>
</trkpt>
<trkpt lat="46.1262370" lon="10.4977230">
	<ele>2399.80</ele>
	<time>2023-08-07T10:02:54.000Z</time>
</trkpt>
<trkpt lat="46.1262330" lon="10.4977210">
	<ele>2399.80</ele>
	<time>2023-08-07T10:02:55.000Z</time>
</trkpt>
<trkpt lat="46.1262290" lon="10.4977170">
	<ele>2399.80</ele>
	<time>2023-08-07T10:02:56.000Z</time>
</trkpt>
<trkpt lat="46.1262240" lon="10.4977150">
	<ele>2399.80</ele>
	<time>2023-08-07T10:02:57.000Z</time>
</trkpt>
<trkpt lat="46.1262180" lon="10.4977120">
	<ele>2399.60</ele>
	<time>2023-08-07T10:02:58.000Z</time>
</trkpt>
<trkpt lat="46.1262120" lon="10.4977110">
	<ele>2399.40</ele>
	<time>2023-08-07T10:02:59.000Z</time>
</trkpt>
<trkpt lat="46.1262060" lon="10.4977090">
	<ele>2399.40</ele>
	<time>2023-08-07T10:03:00.000Z</time>
</trkpt>
<trkpt lat="46.1261990" lon="10.4977070">
	<ele>2399.20</ele>
	<time>2023-08-07T10:03:01.000Z</time>
</trkpt>
<trkpt lat="46.1261900" lon="10.4976990">
	<ele>2398.80</ele>
	<time>2023-08-07T10:03:02.000Z</time>
</trkpt>
<trkpt lat="46.1261740" lon="10.4976860">
	<ele>2398.60</ele>
	<time>2023-08-07T10:03:03.000Z</time>
</trkpt>
<trkpt lat="46.1261580" lon="10.4976750">
	<ele>2398.40</ele>
	<time>2023-08-07T10:03:04.000Z</time>
</trkpt>
<trkpt lat="46.1261410" lon="10.4976630">
	<ele>2398.20</ele>
	<time>2023-08-07T10:03:05.000Z</time>
</trkpt>
<trkpt lat="46.1261240" lon="10.4976530">
	<ele>2398.00</ele>
	<time>2023-08-07T10:03:06.000Z</time>
</trkpt>
<trkpt lat="46.1261060" lon="10.4976420">
	<ele>2398.00</ele>
	<time>2023-08-07T10:03:07.000Z</time>
</trkpt>
<trkpt lat="46.1260910" lon="10.4976280">
	<ele>2398.20</ele>
	<time>2023-08-07T10:03:08.000Z</time>
</trkpt>
<trkpt lat="46.1260770" lon="10.4976120">
	<ele>2398.20</ele>
	<time>2023-08-07T10:03:09.000Z</time>
</trkpt>
<trkpt lat="46.1260640" lon="10.4975930">
	<ele>2398.20</ele>
	<time>2023-08-07T10:03:10.000Z</time>
</trkpt>
<trkpt lat="46.1260500" lon="10.4975770">
	<ele>2398.20</ele>
	<time>2023-08-07T10:03:11.000Z</time>
</trkpt>
<trkpt lat="46.1260460" lon="10.4975660">
	<ele>2398.40</ele>
	<time>2023-08-07T10:03:12.000Z</time>
</trkpt>
<trkpt lat="46.1260410" lon="10.4975600">
	<ele>2398.60</ele>
	<time>2023-08-07T10:03:13.000Z</time>
</trkpt>
<trkpt lat="46.1260390" lon="10.4975550">
	<ele>2398.80</ele>
	<time>2023-08-07T10:03:14.000Z</time>
</trkpt>
<trkpt lat="46.1260390" lon="10.4975530">
	<ele>2399.00</ele>
	<time>2023-08-07T10:03:15.000Z</time>
</trkpt>
<trkpt lat="46.1260390" lon="10.4975510">
	<ele>2399.00</ele>
	<time>2023-08-07T10:03:16.000Z</time>
</trkpt>
<trkpt lat="46.1260380" lon="10.4975490">
	<ele>2399.00</ele>
	<time>2023-08-07T10:03:17.000Z</time>
</trkpt>
<trkpt lat="46.1260370" lon="10.4975470">
	<ele>2399.20</ele>
	<time>2023-08-07T10:03:18.000Z</time>
</trkpt>
<trkpt lat="46.1260340" lon="10.4975450">
	<ele>2399.20</ele>
	<time>2023-08-07T10:03:19.000Z</time>
</trkpt>
<trkpt lat="46.1260320" lon="10.4975450">
	<ele>2399.20</ele>
	<time>2023-08-07T10:03:20.000Z</time>
</trkpt>
<trkpt lat="46.1260320" lon="10.4975430">
	<ele>2399.40</ele>
	<time>2023-08-07T10:03:21.000Z</time>
</trkpt>
<trkpt lat="46.1260300" lon="10.4975380">
	<ele>2399.40</ele>
	<time>2023-08-07T10:03:22.000Z</time>
</trkpt>
<trkpt lat="46.1260270" lon="10.4975340">
	<ele>2399.60</ele>
	<time>2023-08-07T10:03:23.000Z</time>
</trkpt>
<trkpt lat="46.1260230" lon="10.4975260">
	<ele>2399.60</ele>
	<time>2023-08-07T10:03:24.000Z</time>
</trkpt>
<trkpt lat="46.1260170" lon="10.4975220">
	<ele>2399.60</ele>
	<time>2023-08-07T10:03:25.000Z</time>
</trkpt>
<trkpt lat="46.1260140" lon="10.4975190">
	<ele>2399.80</ele>
	<time>2023-08-07T10:03:26.000Z</time>
</trkpt>
<trkpt lat="46.1260090" lon="10.4975140">
	<ele>2399.80</ele>
	<time>2023-08-07T10:03:27.000Z</time>
</trkpt>
<trkpt lat="46.1260040" lon="10.4975090">
	<ele>2399.60</ele>
	<time>2023-08-07T10:03:28.000Z</time>
</trkpt>
<trkpt lat="46.1259990" lon="10.4975040">
	<ele>2399.60</ele>
	<time>2023-08-07T10:03:29.000Z</time>
</trkpt>
<trkpt lat="46.1259940" lon="10.4974950">
	<ele>2399.60</ele>
	<time>2023-08-07T10:03:30.000Z</time>
</trkpt>
<trkpt lat="46.1259880" lon="10.4974920">
	<ele>2399.60</ele>
	<time>2023-08-07T10:03:31.000Z</time>
</trkpt>
<trkpt lat="46.1259790" lon="10.4974890">
	<ele>2399.60</ele>
	<time>2023-08-07T10:03:32.000Z</time>
</trkpt>
<trkpt lat="46.1259690" lon="10.4974940">
	<ele>2399.60</ele>
	<time>2023-08-07T10:03:33.000Z</time>
</trkpt>
<trkpt lat="46.1259610" lon="10.4974900">
	<ele>2399.60</ele>
	<time>2023-08-07T10:03:34.000Z</time>
</trkpt>
<trkpt lat="46.1259550" lon="10.4974850">
	<ele>2399.60</ele>
	<time>2023-08-07T10:03:35.000Z</time>
</trkpt>
<trkpt lat="46.1259520" lon="10.4974830">
	<ele>2399.60</ele>
	<time>2023-08-07T10:03:36.000Z</time>
</trkpt>
<trkpt lat="46.1259480" lon="10.4974870">
	<ele>2399.60</ele>
	<time>2023-08-07T10:03:37.000Z</time>
</trkpt>
<trkpt lat="46.1259420" lon="10.4974860">
	<ele>2399.40</ele>
	<time>2023-08-07T10:03:38.000Z</time>
</trkpt>
<trkpt lat="46.1259390" lon="10.4974840">
	<ele>2399.20</ele>
	<time>2023-08-07T10:03:39.000Z</time>
</trkpt>
<trkpt lat="46.1259350" lon="10.4974840">
	<ele>2399.00</ele>
	<time>2023-08-07T10:03:40.000Z</time>
</trkpt>
<trkpt lat="46.1259330" lon="10.4974780">
	<ele>2398.80</ele>
	<time>2023-08-07T10:03:41.000Z</time>
</trkpt>
<trkpt lat="46.1259300" lon="10.4974720">
	<ele>2398.80</ele>
	<time>2023-08-07T10:03:42.000Z</time>
</trkpt>
<trkpt lat="46.1259270" lon="10.4974730">
	<ele>2398.60</ele>
	<time>2023-08-07T10:03:43.000Z</time>
</trkpt>
<trkpt lat="46.1259230" lon="10.4974730">
	<ele>2398.60</ele>
	<time>2023-08-07T10:03:44.000Z</time>
</trkpt>
<trkpt lat="46.1259160" lon="10.4974780">
	<ele>2398.40</ele>
	<time>2023-08-07T10:03:45.000Z</time>
</trkpt>
<trkpt lat="46.1259140" lon="10.4974780">
	<ele>2398.40</ele>
	<time>2023-08-07T10:03:46.000Z</time>
</trkpt>
<trkpt lat="46.1259140" lon="10.4974830">
	<ele>2398.20</ele>
	<time>2023-08-07T10:03:47.000Z</time>
</trkpt>
<trkpt lat="46.1259110" lon="10.4974830">
	<ele>2398.00</ele>
	<time>2023-08-07T10:03:48.000Z</time>
</trkpt>
<trkpt lat="46.1259070" lon="10.4974850">
	<ele>2397.80</ele>
	<time>2023-08-07T10:03:49.000Z</time>
</trkpt>
<trkpt lat="46.1259020" lon="10.4974890">
	<ele>2397.60</ele>
	<time>2023-08-07T10:03:50.000Z</time>
</trkpt>
<trkpt lat="46.1258960" lon="10.4974910">
	<ele>2397.60</ele>
	<time>2023-08-07T10:03:51.000Z</time>
</trkpt>
<trkpt lat="46.1258880" lon="10.4974920">
	<ele>2397.20</ele>
	<time>2023-08-07T10:03:52.000Z</time>
</trkpt>
<trkpt lat="46.1258840" lon="10.4974860">
	<ele>2397.00</ele>
	<time>2023-08-07T10:03:53.000Z</time>
</trkpt>
<trkpt lat="46.1258790" lon="10.4974820">
	<ele>2396.80</ele>
	<time>2023-08-07T10:03:54.000Z</time>
</trkpt>
<trkpt lat="46.1258730" lon="10.4974850">
	<ele>2396.60</ele>
	<time>2023-08-07T10:03:55.000Z</time>
</trkpt>
<trkpt lat="46.1258660" lon="10.4974900">
	<ele>2396.40</ele>
	<time>2023-08-07T10:03:56.000Z</time>
</trkpt>
<trkpt lat="46.1258600" lon="10.4974960">
	<ele>2396.40</ele>
	<time>2023-08-07T10:03:57.000Z</time>
</trkpt>
<trkpt lat="46.1258570" lon="10.4974960">
	<ele>2396.20</ele>
	<time>2023-08-07T10:03:58.000Z</time>
</trkpt>
<trkpt lat="46.1258520" lon="10.4975000">
	<ele>2396.20</ele>
	<time>2023-08-07T10:03:59.000Z</time>
</trkpt>
<trkpt lat="46.1258460" lon="10.4975000">
	<ele>2396.00</ele>
	<time>2023-08-07T10:04:00.000Z</time>
</trkpt>
<trkpt lat="46.1258380" lon="10.4974970">
	<ele>2395.80</ele>
	<time>2023-08-07T10:04:01.000Z</time>
</trkpt>
<trkpt lat="46.1258350" lon="10.4974870">
	<ele>2395.80</ele>
	<time>2023-08-07T10:04:02.000Z</time>
</trkpt>
<trkpt lat="46.1258350" lon="10.4974790">
	<ele>2395.60</ele>
	<time>2023-08-07T10:04:03.000Z</time>
</trkpt>
<trkpt lat="46.1258310" lon="10.4974770">
	<ele>2395.60</ele>
	<time>2023-08-07T10:04:04.000Z</time>
</trkpt>
<trkpt lat="46.1258280" lon="10.4974760">
	<ele>2395.60</ele>
	<time>2023-08-07T10:04:05.000Z</time>
</trkpt>
<trkpt lat="46.1258210" lon="10.4974690">
	<ele>2395.60</ele>
	<time>2023-08-07T10:04:06.000Z</time>
</trkpt>
<trkpt lat="46.1258220" lon="10.4974630">
	<ele>2395.60</ele>
	<time>2023-08-07T10:04:07.000Z</time>
</trkpt>
<trkpt lat="46.1258190" lon="10.4974560">
	<ele>2395.60</ele>
	<time>2023-08-07T10:04:08.000Z</time>
</trkpt>
<trkpt lat="46.1258170" lon="10.4974520">
	<ele>2395.80</ele>
	<time>2023-08-07T10:04:09.000Z</time>
</trkpt>
<trkpt lat="46.1258100" lon="10.4974480">
	<ele>2396.00</ele>
	<time>2023-08-07T10:04:10.000Z</time>
</trkpt>
<trkpt lat="46.1258010" lon="10.4974490">
	<ele>2396.00</ele>
	<time>2023-08-07T10:04:11.000Z</time>
</trkpt>
<trkpt lat="46.1257940" lon="10.4974540">
	<ele>2396.00</ele>
	<time>2023-08-07T10:04:12.000Z</time>
</trkpt>
<trkpt lat="46.1257900" lon="10.4974570">
	<ele>2396.20</ele>
	<time>2023-08-07T10:04:13.000Z</time>
</trkpt>
<trkpt lat="46.1257820" lon="10.4974570">
	<ele>2396.40</ele>
	<time>2023-08-07T10:04:14.000Z</time>
</trkpt>
<trkpt lat="46.1257750" lon="10.4974560">
	<ele>2396.40</ele>
	<time>2023-08-07T10:04:15.000Z</time>
</trkpt>
<trkpt lat="46.1257700" lon="10.4974570">
	<ele>2396.40</ele>
	<time>2023-08-07T10:04:16.000Z</time>
</trkpt>
<trkpt lat="46.1257650" lon="10.4974540">
	<ele>2396.40</ele>
	<time>2023-08-07T10:04:17.000Z</time>
</trkpt>
<trkpt lat="46.1257610" lon="10.4974500">
	<ele>2396.60</ele>
	<time>2023-08-07T10:04:18.000Z</time>
</trkpt>
<trkpt lat="46.1257580" lon="10.4974460">
	<ele>2396.60</ele>
	<time>2023-08-07T10:04:19.000Z</time>
</trkpt>
<trkpt lat="46.1257530" lon="10.4974400">
	<ele>2396.60</ele>
	<time>2023-08-07T10:04:20.000Z</time>
</trkpt>
<trkpt lat="46.1257470" lon="10.4974350">
	<ele>2396.80</ele>
	<time>2023-08-07T10:04:21.000Z</time>
</trkpt>
<trkpt lat="46.1257390" lon="10.4974310">
	<ele>2396.80</ele>
	<time>2023-08-07T10:04:22.000Z</time>
</trkpt>
<trkpt lat="46.1257330" lon="10.4974300">
	<ele>2396.80</ele>
	<time>2023-08-07T10:04:23.000Z</time>
</trkpt>
<trkpt lat="46.1257250" lon="10.4974290">
	<ele>2397.00</ele>
	<time>2023-08-07T10:04:24.000Z</time>
</trkpt>
<trkpt lat="46.1257200" lon="10.4974200">
	<ele>2397.20</ele>
	<time>2023-08-07T10:04:25.000Z</time>
</trkpt>
<trkpt lat="46.1257150" lon="10.4974120">
	<ele>2397.20</ele>
	<time>2023-08-07T10:04:26.000Z</time>
</trkpt>
<trkpt lat="46.1257120" lon="10.4974040">
	<ele>2397.20</ele>
	<time>2023-08-07T10:04:27.000Z</time>
</trkpt>
<trkpt lat="46.1257100" lon="10.4974000">
	<ele>2397.60</ele>
	<time>2023-08-07T10:04:28.000Z</time>
</trkpt>
<trkpt lat="46.1257080" lon="10.4973980">
	<ele>2397.80</ele>
	<time>2023-08-07T10:04:29.000Z</time>
</trkpt>
<trkpt lat="46.1257050" lon="10.4973960">
	<ele>2398.00</ele>
	<time>2023-08-07T10:04:30.000Z</time>
</trkpt>
<trkpt lat="46.1257010" lon="10.4973910">
	<ele>2398.00</ele>
	<time>2023-08-07T10:04:31.000Z</time>
</trkpt>
<trkpt lat="46.1256980" lon="10.4973840">
	<ele>2398.00</ele>
	<time>2023-08-07T10:04:32.000Z</time>
</trkpt>
<trkpt lat="46.1256960" lon="10.4973770">
	<ele>2398.20</ele>
	<time>2023-08-07T10:04:33.000Z</time>
</trkpt>
<trkpt lat="46.1256940" lon="10.4973710">
	<ele>2398.20</ele>
	<time>2023-08-07T10:04:34.000Z</time>
</trkpt>
<trkpt lat="46.1256930" lon="10.4973660">
	<ele>2398.00</ele>
	<time>2023-08-07T10:04:35.000Z</time>
</trkpt>
<trkpt lat="46.1256910" lon="10.4973620">
	<ele>2398.20</ele>
	<time>2023-08-07T10:04:36.000Z</time>
</trkpt>
<trkpt lat="46.1256930" lon="10.4973520">
	<ele>2398.40</ele>
	<time>2023-08-07T10:04:37.000Z</time>
</trkpt>
<trkpt lat="46.1256910" lon="10.4973440">
	<ele>2398.40</ele>
	<time>2023-08-07T10:04:38.000Z</time>
</trkpt>
<trkpt lat="46.1256880" lon="10.4973390">
	<ele>2398.40</ele>
	<time>2023-08-07T10:04:39.000Z</time>
</trkpt>
<trkpt lat="46.1256850" lon="10.4973360">
	<ele>2398.60</ele>
	<time>2023-08-07T10:04:40.000Z</time>
</trkpt>
<trkpt lat="46.1256810" lon="10.4973290">
	<ele>2398.60</ele>
	<time>2023-08-07T10:04:41.000Z</time>
</trkpt>
<trkpt lat="46.1256770" lon="10.4973240">
	<ele>2398.80</ele>
	<time>2023-08-07T10:04:42.000Z</time>
</trkpt>
<trkpt lat="46.1256760" lon="10.4973200">
	<ele>2399.00</ele>
	<time>2023-08-07T10:04:43.000Z</time>
</trkpt>
<trkpt lat="46.1256730" lon="10.4973190">
	<ele>2399.60</ele>
	<time>2023-08-07T10:04:44.000Z</time>
</trkpt>
<trkpt lat="46.1256740" lon="10.4973160">
	<ele>2400.00</ele>
	<time>2023-08-07T10:04:45.000Z</time>
</trkpt>
<trkpt lat="46.1256730" lon="10.4973160">
	<ele>2400.20</ele>
	<time>2023-08-07T10:04:46.000Z</time>
</trkpt>
<trkpt lat="46.1256750" lon="10.4973130">
	<ele>2400.40</ele>
	<time>2023-08-07T10:04:47.000Z</time>
</trkpt>
<trkpt lat="46.1256760" lon="10.4973090">
	<ele>2400.60</ele>
	<time>2023-08-07T10:04:48.000Z</time>
</trkpt>
<trkpt lat="46.1256760" lon="10.4973070">
	<ele>2400.80</ele>
	<time>2023-08-07T10:04:49.000Z</time>
</trkpt>
<trkpt lat="46.1256740" lon="10.4973090">
	<ele>2400.80</ele>
	<time>2023-08-07T10:04:50.000Z</time>
</trkpt>
<trkpt lat="46.1256730" lon="10.4973080">
	<ele>2401.00</ele>
	<time>2023-08-07T10:04:51.000Z</time>
</trkpt>
<trkpt lat="46.1256720" lon="10.4973060">
	<ele>2401.20</ele>
	<time>2023-08-07T10:04:52.000Z</time>
</trkpt>
<trkpt lat="46.1256730" lon="10.4973050">
	<ele>2401.20</ele>
	<time>2023-08-07T10:04:53.000Z</time>
</trkpt>
<trkpt lat="46.1256740" lon="10.4973030">
	<ele>2401.40</ele>
	<time>2023-08-07T10:04:54.000Z</time>
</trkpt>
<trkpt lat="46.1256760" lon="10.4972980">
	<ele>2401.60</ele>
	<time>2023-08-07T10:04:55.000Z</time>
</trkpt>
<trkpt lat="46.1256760" lon="10.4972890">
	<ele>2401.60</ele>
	<time>2023-08-07T10:04:56.000Z</time>
</trkpt>
<trkpt lat="46.1256790" lon="10.4972780">
	<ele>2401.80</ele>
	<time>2023-08-07T10:04:57.000Z</time>
</trkpt>
<trkpt lat="46.1256780" lon="10.4972720">
	<ele>2401.80</ele>
	<time>2023-08-07T10:04:58.000Z</time>
</trkpt>
<trkpt lat="46.1256780" lon="10.4972690">
	<ele>2401.80</ele>
	<time>2023-08-07T10:04:59.000Z</time>
</trkpt>
<trkpt lat="46.1256780" lon="10.4972680">
	<ele>2402.00</ele>
	<time>2023-08-07T10:05:00.000Z</time>
</trkpt>
<trkpt lat="46.1256780" lon="10.4972680">
	<ele>2402.00</ele>
	<time>2023-08-07T10:05:01.000Z</time>
</trkpt>
<trkpt lat="46.1256780" lon="10.4972680">
	<ele>2402.20</ele>
	<time>2023-08-07T10:05:02.000Z</time>
</trkpt>
<trkpt lat="46.1256780" lon="10.4972680">
	<ele>2402.20</ele>
	<time>2023-08-07T10:05:03.000Z</time>
</trkpt>
<trkpt lat="46.1256780" lon="10.4972680">
	<ele>2402.60</ele>
	<time>2023-08-07T10:05:04.000Z</time>
</trkpt>
<trkpt lat="46.1256780" lon="10.4972680">
	<ele>2402.60</ele>
	<time>2023-08-07T10:05:05.000Z</time>
</trkpt>
<trkpt lat="46.1256780" lon="10.4972680">
	<ele>2402.80</ele>
	<time>2023-08-07T10:05:06.000Z</time>
</trkpt>
<trkpt lat="46.1256780" lon="10.4972680">
	<ele>2402.80</ele>
	<time>2023-08-07T10:05:07.000Z</time>
</trkpt>
<trkpt lat="46.1256780" lon="10.4972680">
	<ele>2403.00</ele>
	<time>2023-08-07T10:05:08.000Z</time>
</trkpt>
<trkpt lat="46.1256780" lon="10.4972680">
	<ele>2403.00</ele>
	<time>2023-08-07T10:05:09.000Z</time>
</trkpt>
<trkpt lat="46.1256780" lon="10.4972680">
	<ele>2403.40</ele>
	<time>2023-08-07T10:05:10.000Z</time>
</trkpt>
<trkpt lat="46.1256780" lon="10.4972680">
	<ele>2403.60</ele>
	<time>2023-08-07T10:05:11.000Z</time>
</trkpt>
<trkpt lat="46.1256780" lon="10.4972680">
	<ele>2403.80</ele>
	<time>2023-08-07T10:05:12.000Z</time>
</trkpt>
<trkpt lat="46.1256780" lon="10.4972680">
	<ele>2404.00</ele>
	<time>2023-08-07T10:05:13.000Z</time>
</trkpt>
<trkpt lat="46.1256780" lon="10.4972680">
	<ele>2404.00</ele>
	<time>2023-08-07T10:05:14.000Z</time>
</trkpt>
<trkpt lat="46.1256790" lon="10.4972680">
	<ele>2404.40</ele>
	<time>2023-08-07T10:05:15.000Z</time>
</trkpt>
<trkpt lat="46.1256810" lon="10.4972610">
	<ele>2404.60</ele>
	<time>2023-08-07T10:05:16.000Z</time>
</trkpt>
<trkpt lat="46.1256840" lon="10.4972570">
	<ele>2404.60</ele>
	<time>2023-08-07T10:05:17.000Z</time>
</trkpt>
<trkpt lat="46.1256860" lon="10.4972550">
	<ele>2404.80</ele>
	<time>2023-08-07T10:05:18.000Z</time>
</trkpt>
<trkpt lat="46.1256870" lon="10.4972540">
	<ele>2404.80</ele>
	<time>2023-08-07T10:05:19.000Z</time>
</trkpt>
<trkpt lat="46.1256870" lon="10.4972530">
	<ele>2405.00</ele>
	<time>2023-08-07T10:05:20.000Z</time>
</trkpt>
<trkpt lat="46.1256890" lon="10.4972530">
	<ele>2405.20</ele>
	<time>2023-08-07T10:05:21.000Z</time>
</trkpt>
<trkpt lat="46.1256930" lon="10.4972480">
	<ele>2405.20</ele>
	<time>2023-08-07T10:05:22.000Z</time>
</trkpt>
<trkpt lat="46.1256930" lon="10.4972450">
	<ele>2405.40</ele>
	<time>2023-08-07T10:05:23.000Z</time>
</trkpt>
<trkpt lat="46.1256940" lon="10.4972450">
	<ele>2405.60</ele>
	<time>2023-08-07T10:05:24.000Z</time>
</trkpt>
<trkpt lat="46.1256940" lon="10.4972450">
	<ele>2405.80</ele>
	<time>2023-08-07T10:05:25.000Z</time>
</trkpt>
<trkpt lat="46.1256940" lon="10.4972450">
	<ele>2405.80</ele>
	<time>2023-08-07T10:05:26.000Z</time>
</trkpt>
<trkpt lat="46.1256950" lon="10.4972440">
	<ele>2406.00</ele>
	<time>2023-08-07T10:05:27.000Z</time>
</trkpt>
<trkpt lat="46.1256950" lon="10.4972440">
	<ele>2406.00</ele>
	<time>2023-08-07T10:05:28.000Z</time>
</trkpt>
<trkpt lat="46.1256950" lon="10.4972410">
	<ele>2406.00</ele>
	<time>2023-08-07T10:05:29.000Z</time>
</trkpt>
<trkpt lat="46.1256960" lon="10.4972380">
	<ele>2406.00</ele>
	<time>2023-08-07T10:05:30.000Z</time>
</trkpt>
<trkpt lat="46.1256970" lon="10.4972360">
	<ele>2406.00</ele>
	<time>2023-08-07T10:05:31.000Z</time>
</trkpt>
<trkpt lat="46.1256970" lon="10.4972350">
	<ele>2406.20</ele>
	<time>2023-08-07T10:05:32.000Z</time>
</trkpt>
<trkpt lat="46.1256970" lon="10.4972340">
	<ele>2406.20</ele>
	<time>2023-08-07T10:05:33.000Z</time>
</trkpt>
<trkpt lat="46.1257000" lon="10.4972300">
	<ele>2406.40</ele>
	<time>2023-08-07T10:05:34.000Z</time>
</trkpt>
<trkpt lat="46.1257010" lon="10.4972250">
	<ele>2406.40</ele>
	<time>2023-08-07T10:05:35.000Z</time>
</trkpt>
<trkpt lat="46.1257010" lon="10.4972220">
	<ele>2406.40</ele>
	<time>2023-08-07T10:05:36.000Z</time>
</trkpt>
<trkpt lat="46.1257010" lon="10.4972200">
	<ele>2406.60</ele>
	<time>2023-08-07T10:05:37.000Z</time>
</trkpt>
<trkpt lat="46.1257020" lon="10.4972200">
	<ele>2406.60</ele>
	<time>2023-08-07T10:05:38.000Z</time>
</trkpt>
<trkpt lat="46.1257030" lon="10.4972170">
	<ele>2406.80</ele>
	<time>2023-08-07T10:05:39.000Z</time>
</trkpt>
<trkpt lat="46.1257040" lon="10.4972140">
	<ele>2406.80</ele>
	<time>2023-08-07T10:05:40.000Z</time>
</trkpt>
<trkpt lat="46.1257050" lon="10.4972120">
	<ele>2406.80</ele>
	<time>2023-08-07T10:05:41.000Z</time>
</trkpt>
<trkpt lat="46.1257050" lon="10.4972090">
	<ele>2406.80</ele>
	<time>2023-08-07T10:05:42.000Z</time>
</trkpt>
<trkpt lat="46.1257050" lon="10.4972070">
	<ele>2407.00</ele>
	<time>2023-08-07T10:05:43.000Z</time>
</trkpt>
<trkpt lat="46.1257050" lon="10.4972050">
	<ele>2407.00</ele>
	<time>2023-08-07T10:05:44.000Z</time>
</trkpt>
<trkpt lat="46.1257050" lon="10.4972040">
	<ele>2407.20</ele>
	<time>2023-08-07T10:05:45.000Z</time>
</trkpt>
<trkpt lat="46.1257050" lon="10.4972030">
	<ele>2407.40</ele>
	<time>2023-08-07T10:05:46.000Z</time>
</trkpt>
<trkpt lat="46.1257050" lon="10.4972030">
	<ele>2407.60</ele>
	<time>2023-08-07T10:05:47.000Z</time>
</trkpt>
<trkpt lat="46.1257060" lon="10.4972030">
	<ele>2407.80</ele>
	<time>2023-08-07T10:05:48.000Z</time>
</trkpt>
<trkpt lat="46.1257070" lon="10.4972030">
	<ele>2407.80</ele>
	<time>2023-08-07T10:05:49.000Z</time>
</trkpt>
<trkpt lat="46.1257080" lon="10.4972020">
	<ele>2408.00</ele>
	<time>2023-08-07T10:05:50.000Z</time>
</trkpt>
<trkpt lat="46.1257080" lon="10.4972020">
	<ele>2408.00</ele>
	<time>2023-08-07T10:05:51.000Z</time>
</trkpt>
<trkpt lat="46.1257080" lon="10.4972010">
	<ele>2408.00</ele>
	<time>2023-08-07T10:05:52.000Z</time>
</trkpt>
<trkpt lat="46.1257080" lon="10.4971970">
	<ele>2408.20</ele>
	<time>2023-08-07T10:05:53.000Z</time>
</trkpt>
<trkpt lat="46.1257080" lon="10.4971920">
	<ele>2408.20</ele>
	<time>2023-08-07T10:05:54.000Z</time>
</trkpt>
<trkpt lat="46.1257080" lon="10.4971870">
	<ele>2408.20</ele>
	<time>2023-08-07T10:05:55.000Z</time>
</trkpt>
<trkpt lat="46.1257080" lon="10.4971840">
	<ele>2408.60</ele>
	<time>2023-08-07T10:05:56.000Z</time>
</trkpt>
<trkpt lat="46.1257080" lon="10.4971800">
	<ele>2408.80</ele>
	<time>2023-08-07T10:05:57.000Z</time>
</trkpt>
<trkpt lat="46.1257080" lon="10.4971770">
	<ele>2408.80</ele>
	<time>2023-08-07T10:05:58.000Z</time>
</trkpt>
<trkpt lat="46.1257080" lon="10.4971740">
	<ele>2409.00</ele>
	<time>2023-08-07T10:05:59.000Z</time>
</trkpt>
<trkpt lat="46.1257080" lon="10.4971710">
	<ele>2409.00</ele>
	<time>2023-08-07T10:06:00.000Z</time>
</trkpt>
<trkpt lat="46.1257080" lon="10.4971690">
	<ele>2409.20</ele>
	<time>2023-08-07T10:06:01.000Z</time>
</trkpt>
<trkpt lat="46.1257080" lon="10.4971670">
	<ele>2409.20</ele>
	<time>2023-08-07T10:06:02.000Z</time>
</trkpt>
<trkpt lat="46.1257080" lon="10.4971640">
	<ele>2409.20</ele>
	<time>2023-08-07T10:06:03.000Z</time>
</trkpt>
<trkpt lat="46.1257080" lon="10.4971610">
	<ele>2409.20</ele>
	<time>2023-08-07T10:06:04.000Z</time>
</trkpt>
<trkpt lat="46.1257080" lon="10.4971570">
	<ele>2409.20</ele>
	<time>2023-08-07T10:06:05.000Z</time>
</trkpt>
<trkpt lat="46.1257090" lon="10.4971530">
	<ele>2409.20</ele>
	<time>2023-08-07T10:06:06.000Z</time>
</trkpt>
<trkpt lat="46.1257120" lon="10.4971450">
	<ele>2409.20</ele>
	<time>2023-08-07T10:06:07.000Z</time>
</trkpt>
<trkpt lat="46.1257150" lon="10.4971400">
	<ele>2409.20</ele>
	<time>2023-08-07T10:06:08.000Z</time>
</trkpt>
<trkpt lat="46.1257180" lon="10.4971370">
	<ele>2409.40</ele>
	<time>2023-08-07T10:06:09.000Z</time>
</trkpt>
<trkpt lat="46.1257200" lon="10.4971350">
	<ele>2409.40</ele>
	<time>2023-08-07T10:06:10.000Z</time>
</trkpt>
<trkpt lat="46.1257230" lon="10.4971340">
	<ele>2409.60</ele>
	<time>2023-08-07T10:06:11.000Z</time>
</trkpt>
<trkpt lat="46.1257260" lon="10.4971330">
	<ele>2409.60</ele>
	<time>2023-08-07T10:06:12.000Z</time>
</trkpt>
<trkpt lat="46.1257290" lon="10.4971330">
	<ele>2409.60</ele>
	<time>2023-08-07T10:06:13.000Z</time>
</trkpt>
<trkpt lat="46.1257310" lon="10.4971330">
	<ele>2409.60</ele>
	<time>2023-08-07T10:06:14.000Z</time>
</trkpt>
<trkpt lat="46.1257320" lon="10.4971330">
	<ele>2409.80</ele>
	<time>2023-08-07T10:06:15.000Z</time>
</trkpt>
<trkpt lat="46.1257340" lon="10.4971330">
	<ele>2409.80</ele>
	<time>2023-08-07T10:06:16.000Z</time>
</trkpt>
<trkpt lat="46.1257350" lon="10.4971320">
	<ele>2409.80</ele>
	<time>2023-08-07T10:06:17.000Z</time>
</trkpt>
<trkpt lat="46.1257360" lon="10.4971320">
	<ele>2409.80</ele>
	<time>2023-08-07T10:06:18.000Z</time>
</trkpt>
<trkpt lat="46.1257360" lon="10.4971320">
	<ele>2410.00</ele>
	<time>2023-08-07T10:06:19.000Z</time>
</trkpt>
<trkpt lat="46.1257360" lon="10.4971310">
	<ele>2410.00</ele>
	<time>2023-08-07T10:06:20.000Z</time>
</trkpt>
<trkpt lat="46.1257370" lon="10.4971310">
	<ele>2410.00</ele>
	<time>2023-08-07T10:06:21.000Z</time>
</trkpt>
<trkpt lat="46.1257370" lon="10.4971310">
	<ele>2410.40</ele>
	<time>2023-08-07T10:06:22.000Z</time>
</trkpt>
<trkpt lat="46.1257370" lon="10.4971290">
	<ele>2410.60</ele>
	<time>2023-08-07T10:06:23.000Z</time>
</trkpt>
<trkpt lat="46.1257370" lon="10.4971260">
	<ele>2410.60</ele>
	<time>2023-08-07T10:06:24.000Z</time>
</trkpt>
<trkpt lat="46.1257370" lon="10.4971220">
	<ele>2410.80</ele>
	<time>2023-08-07T10:06:25.000Z</time>
</trkpt>
<trkpt lat="46.1257370" lon="10.4971200">
	<ele>2411.20</ele>
	<time>2023-08-07T10:06:26.000Z</time>
</trkpt>
<trkpt lat="46.1257370" lon="10.4971180">
	<ele>2411.20</ele>
	<time>2023-08-07T10:06:27.000Z</time>
</trkpt>
<trkpt lat="46.1257370" lon="10.4971170">
	<ele>2411.40</ele>
	<time>2023-08-07T10:06:28.000Z</time>
</trkpt>
<trkpt lat="46.1257380" lon="10.4971160">
	<ele>2411.40</ele>
	<time>2023-08-07T10:06:29.000Z</time>
</trkpt>
<trkpt lat="46.1257380" lon="10.4971150">
	<ele>2411.60</ele>
	<time>2023-08-07T10:06:30.000Z</time>
</trkpt>
<trkpt lat="46.1257380" lon="10.4971130">
	<ele>2411.60</ele>
	<time>2023-08-07T10:06:31.000Z</time>
</trkpt>
<trkpt lat="46.1257390" lon="10.4971100">
	<ele>2411.60</ele>
	<time>2023-08-07T10:06:32.000Z</time>
</trkpt>
<trkpt lat="46.1257390" lon="10.4971060">
	<ele>2411.60</ele>
	<time>2023-08-07T10:06:33.000Z</time>
</trkpt>
<trkpt lat="46.1257390" lon="10.4971030">
	<ele>2411.60</ele>
	<time>2023-08-07T10:06:34.000Z</time>
</trkpt>
<trkpt lat="46.1257390" lon="10.4970960">
	<ele>2411.60</ele>
	<time>2023-08-07T10:06:35.000Z</time>
</trkpt>
<trkpt lat="46.1257390" lon="10.4970910">
	<ele>2411.80</ele>
	<time>2023-08-07T10:06:36.000Z</time>
</trkpt>
<trkpt lat="46.1257390" lon="10.4970880">
	<ele>2411.80</ele>
	<time>2023-08-07T10:06:37.000Z</time>
</trkpt>
<trkpt lat="46.1257380" lon="10.4970870">
	<ele>2412.00</ele>
	<time>2023-08-07T10:06:38.000Z</time>
</trkpt>
<trkpt lat="46.1257380" lon="10.4970860">
	<ele>2412.00</ele>
	<time>2023-08-07T10:06:39.000Z</time>
</trkpt>
<trkpt lat="46.1257380" lon="10.4970840">
	<ele>2412.40</ele>
	<time>2023-08-07T10:06:40.000Z</time>
</trkpt>
<trkpt lat="46.1257380" lon="10.4970800">
	<ele>2412.60</ele>
	<time>2023-08-07T10:06:41.000Z</time>
</trkpt>
<trkpt lat="46.1257380" lon="10.4970780">
	<ele>2412.80</ele>
	<time>2023-08-07T10:06:42.000Z</time>
</trkpt>
<trkpt lat="46.1257380" lon="10.4970770">
	<ele>2413.00</ele>
	<time>2023-08-07T10:06:43.000Z</time>
</trkpt>
<trkpt lat="46.1257380" lon="10.4970760">
	<ele>2413.00</ele>
	<time>2023-08-07T10:06:44.000Z</time>
</trkpt>
<trkpt lat="46.1257380" lon="10.4970750">
	<ele>2413.00</ele>
	<time>2023-08-07T10:06:45.000Z</time>
</trkpt>
<trkpt lat="46.1257380" lon="10.4970740">
	<ele>2413.00</ele>
	<time>2023-08-07T10:06:46.000Z</time>
</trkpt>
<trkpt lat="46.1257380" lon="10.4970740">
	<ele>2413.00</ele>
	<time>2023-08-07T10:06:47.000Z</time>
</trkpt>
<trkpt lat="46.1257390" lon="10.4970710">
	<ele>2413.20</ele>
	<time>2023-08-07T10:06:48.000Z</time>
</trkpt>
<trkpt lat="46.1257390" lon="10.4970680">
	<ele>2413.40</ele>
	<time>2023-08-07T10:06:49.000Z</time>
</trkpt>
<trkpt lat="46.1257400" lon="10.4970650">
	<ele>2413.60</ele>
	<time>2023-08-07T10:06:50.000Z</time>
</trkpt>
<trkpt lat="46.1257400" lon="10.4970630">
	<ele>2413.60</ele>
	<time>2023-08-07T10:06:51.000Z</time>
</trkpt>
<trkpt lat="46.1257400" lon="10.4970610">
	<ele>2413.60</ele>
	<time>2023-08-07T10:06:52.000Z</time>
</trkpt>
<trkpt lat="46.1257400" lon="10.4970570">
	<ele>2413.80</ele>
	<time>2023-08-07T10:06:53.000Z</time>
</trkpt>
<trkpt lat="46.1257400" lon="10.4970500">
	<ele>2413.80</ele>
	<time>2023-08-07T10:06:54.000Z</time>
</trkpt>
<trkpt lat="46.1257400" lon="10.4970450">
	<ele>2414.00</ele>
	<time>2023-08-07T10:06:55.000Z</time>
</trkpt>
<trkpt lat="46.1257400" lon="10.4970420">
	<ele>2414.00</ele>
	<time>2023-08-07T10:06:56.000Z</time>
</trkpt>
<trkpt lat="46.1257400" lon="10.4970390">
	<ele>2414.00</ele>
	<time>2023-08-07T10:06:57.000Z</time>
</trkpt>
<trkpt lat="46.1257400" lon="10.4970380">
	<ele>2414.00</ele>
	<time>2023-08-07T10:06:58.000Z</time>
</trkpt>
<trkpt lat="46.1257400" lon="10.4970350">
	<ele>2414.00</ele>
	<time>2023-08-07T10:06:59.000Z</time>
</trkpt>
<trkpt lat="46.1257400" lon="10.4970330">
	<ele>2414.00</ele>
	<time>2023-08-07T10:07:00.000Z</time>
</trkpt>
<trkpt lat="46.1257400" lon="10.4970310">
	<ele>2414.00</ele>
	<time>2023-08-07T10:07:01.000Z</time>
</trkpt>
<trkpt lat="46.1257400" lon="10.4970290">
	<ele>2414.00</ele>
	<time>2023-08-07T10:07:02.000Z</time>
</trkpt>
<trkpt lat="46.1257400" lon="10.4970280">
	<ele>2414.00</ele>
	<time>2023-08-07T10:07:03.000Z</time>
</trkpt>
<trkpt lat="46.1257410" lon="10.4970260">
	<ele>2414.20</ele>
	<time>2023-08-07T10:07:04.000Z</time>
</trkpt>
<trkpt lat="46.1257410" lon="10.4970250">
	<ele>2414.40</ele>
	<time>2023-08-07T10:07:05.000Z</time>
</trkpt>
<trkpt lat="46.1257410" lon="10.4970240">
	<ele>2414.60</ele>
	<time>2023-08-07T10:07:06.000Z</time>
</trkpt>
<trkpt lat="46.1257410" lon="10.4970240">
	<ele>2414.60</ele>
	<time>2023-08-07T10:07:07.000Z</time>
</trkpt>
<trkpt lat="46.1257410" lon="10.4970220">
	<ele>2414.80</ele>
	<time>2023-08-07T10:07:08.000Z</time>
</trkpt>
<trkpt lat="46.1257420" lon="10.4970210">
	<ele>2414.80</ele>
	<time>2023-08-07T10:07:09.000Z</time>
</trkpt>
<trkpt lat="46.1257420" lon="10.4970200">
	<ele>2415.00</ele>
	<time>2023-08-07T10:07:10.000Z</time>
</trkpt>
<trkpt lat="46.1257430" lon="10.4970190">
	<ele>2415.20</ele>
	<time>2023-08-07T10:07:11.000Z</time>
</trkpt>
<trkpt lat="46.1257430" lon="10.4970160">
	<ele>2415.20</ele>
	<time>2023-08-07T10:07:12.000Z</time>
</trkpt>
<trkpt lat="46.1257430" lon="10.4970120">
	<ele>2415.20</ele>
	<time>2023-08-07T10:07:13.000Z</time>
</trkpt>
<trkpt lat="46.1257440" lon="10.4970090">
	<ele>2415.40</ele>
	<time>2023-08-07T10:07:14.000Z</time>
</trkpt>
<trkpt lat="46.1257440" lon="10.4970050">
	<ele>2415.40</ele>
	<time>2023-08-07T10:07:15.000Z</time>
</trkpt>
<trkpt lat="46.1257440" lon="10.4970020">
	<ele>2415.60</ele>
	<time>2023-08-07T10:07:16.000Z</time>
</trkpt>
<trkpt lat="46.1257440" lon="10.4969990">
	<ele>2415.60</ele>
	<time>2023-08-07T10:07:17.000Z</time>
</trkpt>
<trkpt lat="46.1257440" lon="10.4969980">
	<ele>2415.60</ele>
	<time>2023-08-07T10:07:18.000Z</time>
</trkpt>
<trkpt lat="46.1257440" lon="10.4969960">
	<ele>2415.60</ele>
	<time>2023-08-07T10:07:19.000Z</time>
</trkpt>
<trkpt lat="46.1257440" lon="10.4969940">
	<ele>2415.80</ele>
	<time>2023-08-07T10:07:20.000Z</time>
</trkpt>
<trkpt lat="46.1257440" lon="10.4969920">
	<ele>2416.00</ele>
	<time>2023-08-07T10:07:21.000Z</time>
</trkpt>
<trkpt lat="46.1257440" lon="10.4969900">
	<ele>2416.20</ele>
	<time>2023-08-07T10:07:22.000Z</time>
</trkpt>
<trkpt lat="46.1257440" lon="10.4969870">
	<ele>2416.40</ele>
	<time>2023-08-07T10:07:23.000Z</time>
</trkpt>
<trkpt lat="46.1257440" lon="10.4969850">
	<ele>2416.40</ele>
	<time>2023-08-07T10:07:24.000Z</time>
</trkpt>
<trkpt lat="46.1257440" lon="10.4969820">
	<ele>2416.40</ele>
	<time>2023-08-07T10:07:25.000Z</time>
</trkpt>
<trkpt lat="46.1257440" lon="10.4969790">
	<ele>2416.40</ele>
	<time>2023-08-07T10:07:26.000Z</time>
</trkpt>
<trkpt lat="46.1257430" lon="10.4969760">
	<ele>2416.40</ele>
	<time>2023-08-07T10:07:27.000Z</time>
</trkpt>
<trkpt lat="46.1257430" lon="10.4969730">
	<ele>2416.40</ele>
	<time>2023-08-07T10:07:28.000Z</time>
</trkpt>
<trkpt lat="46.1257420" lon="10.4969700">
	<ele>2416.40</ele>
	<time>2023-08-07T10:07:29.000Z</time>
</trkpt>
<trkpt lat="46.1257410" lon="10.4969680">
	<ele>2416.40</ele>
	<time>2023-08-07T10:07:30.000Z</time>
</trkpt>
<trkpt lat="46.1257400" lon="10.4969640">
	<ele>2416.40</ele>
	<time>2023-08-07T10:07:31.000Z</time>
</trkpt>
<trkpt lat="46.1257400" lon="10.4969600">
	<ele>2416.40</ele>
	<time>2023-08-07T10:07:32.000Z</time>
</trkpt>
<trkpt lat="46.1257400" lon="10.4969560">
	<ele>2416.60</ele>
	<time>2023-08-07T10:07:33.000Z</time>
</trkpt>
<trkpt lat="46.1257390" lon="10.4969530">
	<ele>2416.60</ele>
	<time>2023-08-07T10:07:34.000Z</time>
</trkpt>
<trkpt lat="46.1257390" lon="10.4969500">
	<ele>2416.80</ele>
	<time>2023-08-07T10:07:35.000Z</time>
</trkpt>
<trkpt lat="46.1257390" lon="10.4969460">
	<ele>2416.80</ele>
	<time>2023-08-07T10:07:36.000Z</time>
</trkpt>
<trkpt lat="46.1257390" lon="10.4969420">
	<ele>2416.80</ele>
	<time>2023-08-07T10:07:37.000Z</time>
</trkpt>
<trkpt lat="46.1257390" lon="10.4969390">
	<ele>2417.00</ele>
	<time>2023-08-07T10:07:38.000Z</time>
</trkpt>
<trkpt lat="46.1257390" lon="10.4969360">
	<ele>2417.20</ele>
	<time>2023-08-07T10:07:39.000Z</time>
</trkpt>
<trkpt lat="46.1257390" lon="10.4969330">
	<ele>2417.60</ele>
	<time>2023-08-07T10:07:40.000Z</time>
</trkpt>
<trkpt lat="46.1257390" lon="10.4969300">
	<ele>2417.60</ele>
	<time>2023-08-07T10:07:41.000Z</time>
</trkpt>
<trkpt lat="46.1257390" lon="10.4969270">
	<ele>2417.80</ele>
	<time>2023-08-07T10:07:42.000Z</time>
</trkpt>
<trkpt lat="46.1257390" lon="10.4969250">
	<ele>2418.00</ele>
	<time>2023-08-07T10:07:43.000Z</time>
</trkpt>
<trkpt lat="46.1257390" lon="10.4969230">
	<ele>2418.00</ele>
	<time>2023-08-07T10:07:44.000Z</time>
</trkpt>
<trkpt lat="46.1257390" lon="10.4969220">
	<ele>2417.80</ele>
	<time>2023-08-07T10:07:45.000Z</time>
</trkpt>
<trkpt lat="46.1257400" lon="10.4969210">
	<ele>2417.60</ele>
	<time>2023-08-07T10:07:46.000Z</time>
</trkpt>
<trkpt lat="46.1257400" lon="10.4969200">
	<ele>2417.40</ele>
	<time>2023-08-07T10:07:47.000Z</time>
</trkpt>
<trkpt lat="46.1257410" lon="10.4969190">
	<ele>2417.20</ele>
	<time>2023-08-07T10:07:48.000Z</time>
</trkpt>
<trkpt lat="46.1257420" lon="10.4969180">
	<ele>2417.20</ele>
	<time>2023-08-07T10:07:49.000Z</time>
</trkpt>
<trkpt lat="46.1257420" lon="10.4969170">
	<ele>2417.20</ele>
	<time>2023-08-07T10:07:50.000Z</time>
</trkpt>
<trkpt lat="46.1257430" lon="10.4969150">
	<ele>2417.20</ele>
	<time>2023-08-07T10:07:51.000Z</time>
</trkpt>
<trkpt lat="46.1257440" lon="10.4969130">
	<ele>2417.20</ele>
	<time>2023-08-07T10:07:52.000Z</time>
</trkpt>
<trkpt lat="46.1257440" lon="10.4969120">
	<ele>2417.20</ele>
	<time>2023-08-07T10:07:53.000Z</time>
</trkpt>
<trkpt lat="46.1257450" lon="10.4969110">
	<ele>2417.20</ele>
	<time>2023-08-07T10:07:54.000Z</time>
</trkpt>
<trkpt lat="46.1257460" lon="10.4969100">
	<ele>2417.40</ele>
	<time>2023-08-07T10:07:55.000Z</time>
</trkpt>
<trkpt lat="46.1257460" lon="10.4969090">
	<ele>2417.60</ele>
	<time>2023-08-07T10:07:56.000Z</time>
</trkpt>
<trkpt lat="46.1257470" lon="10.4969080">
	<ele>2417.60</ele>
	<time>2023-08-07T10:07:57.000Z</time>
</trkpt>
<trkpt lat="46.1257480" lon="10.4969070">
	<ele>2417.80</ele>
	<time>2023-08-07T10:07:58.000Z</time>
</trkpt>
<trkpt lat="46.1257480" lon="10.4969060">
	<ele>2417.80</ele>
	<time>2023-08-07T10:07:59.000Z</time>
</trkpt>
<trkpt lat="46.1257480" lon="10.4969050">
	<ele>2417.80</ele>
	<time>2023-08-07T10:08:00.000Z</time>
</trkpt>
<trkpt lat="46.1257490" lon="10.4969050">
	<ele>2418.00</ele>
	<time>2023-08-07T10:08:01.000Z</time>
</trkpt>
<trkpt lat="46.1257490" lon="10.4969040">
	<ele>2418.20</ele>
	<time>2023-08-07T10:08:02.000Z</time>
</trkpt>
<trkpt lat="46.1257500" lon="10.4969030">
	<ele>2418.20</ele>
	<time>2023-08-07T10:08:03.000Z</time>
</trkpt>
<trkpt lat="46.1257500" lon="10.4969020">
	<ele>2418.40</ele>
	<time>2023-08-07T10:08:04.000Z</time>
</trkpt>
<trkpt lat="46.1257510" lon="10.4969010">
	<ele>2418.60</ele>
	<time>2023-08-07T10:08:05.000Z</time>
</trkpt>
<trkpt lat="46.1257510" lon="10.4968990">
	<ele>2418.60</ele>
	<time>2023-08-07T10:08:06.000Z</time>
</trkpt>
<trkpt lat="46.1257520" lon="10.4968980">
	<ele>2418.80</ele>
	<time>2023-08-07T10:08:07.000Z</time>
</trkpt>
<trkpt lat="46.1257520" lon="10.4968960">
	<ele>2419.00</ele>
	<time>2023-08-07T10:08:08.000Z</time>
</trkpt>
<trkpt lat="46.1257530" lon="10.4968940">
	<ele>2419.00</ele>
	<time>2023-08-07T10:08:09.000Z</time>
</trkpt>
<trkpt lat="46.1257530" lon="10.4968930">
	<ele>2419.20</ele>
	<time>2023-08-07T10:08:10.000Z</time>
</trkpt>
<trkpt lat="46.1257530" lon="10.4968910">
	<ele>2419.20</ele>
	<time>2023-08-07T10:08:11.000Z</time>
</trkpt>
<trkpt lat="46.1257540" lon="10.4968900">
	<ele>2419.40</ele>
	<time>2023-08-07T10:08:12.000Z</time>
</trkpt>
<trkpt lat="46.1257540" lon="10.4968890">
	<ele>2419.40</ele>
	<time>2023-08-07T10:08:13.000Z</time>
</trkpt>
<trkpt lat="46.1257540" lon="10.4968880">
	<ele>2419.40</ele>
	<time>2023-08-07T10:08:14.000Z</time>
</trkpt>
<trkpt lat="46.1257540" lon="10.4968870">
	<ele>2419.80</ele>
	<time>2023-08-07T10:08:15.000Z</time>
</trkpt>
<trkpt lat="46.1257550" lon="10.4968860">
	<ele>2420.00</ele>
	<time>2023-08-07T10:08:16.000Z</time>
</trkpt>
<trkpt lat="46.1257550" lon="10.4968860">
	<ele>2420.00</ele>
	<time>2023-08-07T10:08:17.000Z</time>
</trkpt>
<trkpt lat="46.1257550" lon="10.4968850">
	<ele>2420.20</ele>
	<time>2023-08-07T10:08:18.000Z</time>
</trkpt>
<trkpt lat="46.1257560" lon="10.4968850">
	<ele>2420.20</ele>
	<time>2023-08-07T10:08:19.000Z</time>
</trkpt>
<trkpt lat="46.1257560" lon="10.4968850">
	<ele>2420.60</ele>
	<time>2023-08-07T10:08:20.000Z</time>
</trkpt>
<trkpt lat="46.1257560" lon="10.4968840">
	<ele>2420.80</ele>
	<time>2023-08-07T10:08:21.000Z</time>
</trkpt>
<trkpt lat="46.1257560" lon="10.4968840">
	<ele>2420.80</ele>
	<time>2023-08-07T10:08:22.000Z</time>
</trkpt>
<trkpt lat="46.1257560" lon="10.4968840">
	<ele>2421.00</ele>
	<time>2023-08-07T10:08:23.000Z</time>
</trkpt>
<trkpt lat="46.1257560" lon="10.4968840">
	<ele>2421.20</ele>
	<time>2023-08-07T10:08:24.000Z</time>
</trkpt>
<trkpt lat="46.1257560" lon="10.4968840">
	<ele>2421.20</ele>
	<time>2023-08-07T10:08:25.000Z</time>
</trkpt>
<trkpt lat="46.1257560" lon="10.4968840">
	<ele>2421.40</ele>
	<time>2023-08-07T10:08:26.000Z</time>
</trkpt>
<trkpt lat="46.1257570" lon="10.4968840">
	<ele>2421.60</ele>
	<time>2023-08-07T10:08:27.000Z</time>
</trkpt>
<trkpt lat="46.1257570" lon="10.4968830">
	<ele>2421.80</ele>
	<time>2023-08-07T10:08:28.000Z</time>
</trkpt>
<trkpt lat="46.1257570" lon="10.4968830">
	<ele>2421.80</ele>
	<time>2023-08-07T10:08:29.000Z</time>
</trkpt>
<trkpt lat="46.1257570" lon="10.4968830">
	<ele>2421.80</ele>
	<time>2023-08-07T10:08:30.000Z</time>
</trkpt>
<trkpt lat="46.1257570" lon="10.4968830">
	<ele>2422.00</ele>
	<time>2023-08-07T10:08:31.000Z</time>
</trkpt>
<trkpt lat="46.1257570" lon="10.4968830">
	<ele>2422.20</ele>
	<time>2023-08-07T10:08:32.000Z</time>
</trkpt>
<trkpt lat="46.1257570" lon="10.4968830">
	<ele>2422.20</ele>
	<time>2023-08-07T10:08:33.000Z</time>
</trkpt>
<trkpt lat="46.1257570" lon="10.4968820">
	<ele>2422.40</ele>
	<time>2023-08-07T10:08:34.000Z</time>
</trkpt>
<trkpt lat="46.1257570" lon="10.4968820">
	<ele>2422.40</ele>
	<time>2023-08-07T10:08:35.000Z</time>
</trkpt>
<trkpt lat="46.1257570" lon="10.4968820">
	<ele>2422.60</ele>
	<time>2023-08-07T10:08:36.000Z</time>
</trkpt>
<trkpt lat="46.1257570" lon="10.4968820">
	<ele>2422.80</ele>
	<time>2023-08-07T10:08:37.000Z</time>
</trkpt>
<trkpt lat="46.1257570" lon="10.4968820">
	<ele>2423.00</ele>
	<time>2023-08-07T10:08:38.000Z</time>
</trkpt>
<trkpt lat="46.1257570" lon="10.4968820">
	<ele>2423.00</ele>
	<time>2023-08-07T10:08:39.000Z</time>
</trkpt>
<trkpt lat="46.1257570" lon="10.4968810">
	<ele>2423.00</ele>
	<time>2023-08-07T10:08:40.000Z</time>
</trkpt>
<trkpt lat="46.1257570" lon="10.4968810">
	<ele>2423.00</ele>
	<time>2023-08-07T10:08:41.000Z</time>
</trkpt>
<trkpt lat="46.1257570" lon="10.4968800">
	<ele>2423.20</ele>
	<time>2023-08-07T10:08:42.000Z</time>
</trkpt>
<trkpt lat="46.1257570" lon="10.4968800">
	<ele>2423.00</ele>
	<time>2023-08-07T10:08:43.000Z</time>
</trkpt>
<trkpt lat="46.1257570" lon="10.4968790">
	<ele>2423.00</ele>
	<time>2023-08-07T10:08:44.000Z</time>
</trkpt>
<trkpt lat="46.1257570" lon="10.4968790">
	<ele>2423.00</ele>
	<time>2023-08-07T10:08:45.000Z</time>
</trkpt>
<trkpt lat="46.1257570" lon="10.4968790">
	<ele>2423.00</ele>
	<time>2023-08-07T10:08:46.000Z</time>
</trkpt>
<trkpt lat="46.1257590" lon="10.4968560">
	<ele>2423.00</ele>
	<time>2023-08-07T10:08:47.000Z</time>
</trkpt>
<trkpt lat="46.1257620" lon="10.4968280">
	<ele>2423.00</ele>
	<time>2023-08-07T10:08:48.000Z</time>
</trkpt>
<trkpt lat="46.1257630" lon="10.4967990">
	<ele>2423.20</ele>
	<time>2023-08-07T10:08:49.000Z</time>
</trkpt>
<trkpt lat="46.1257650" lon="10.4967720">
	<ele>2423.40</ele>
	<time>2023-08-07T10:08:50.000Z</time>
</trkpt>
<trkpt lat="46.1257680" lon="10.4967470">
	<ele>2423.60</ele>
	<time>2023-08-07T10:08:51.000Z</time>
</trkpt>
<trkpt lat="46.1257710" lon="10.4967250">
	<ele>2423.80</ele>
	<time>2023-08-07T10:08:52.000Z</time>
</trkpt>
<trkpt lat="46.1257740" lon="10.4967020">
	<ele>2423.80</ele>
	<time>2023-08-07T10:08:53.000Z</time>
</trkpt>
<trkpt lat="46.1257730" lon="10.4966730">
	<ele>2424.00</ele>
	<time>2023-08-07T10:08:54.000Z</time>
</trkpt>
<trkpt lat="46.1257730" lon="10.4966470">
	<ele>2424.20</ele>
	<time>2023-08-07T10:08:55.000Z</time>
</trkpt>
<trkpt lat="46.1257730" lon="10.4966200">
	<ele>2424.20</ele>
	<time>2023-08-07T10:08:56.000Z</time>
</trkpt>
<trkpt lat="46.1257710" lon="10.4966150">
	<ele>2424.40</ele>
	<time>2023-08-07T10:08:57.000Z</time>
</trkpt>
<trkpt lat="46.1257690" lon="10.4966080">
	<ele>2424.40</ele>
	<time>2023-08-07T10:08:58.000Z</time>
</trkpt>
<trkpt lat="46.1257690" lon="10.4966030">
	<ele>2424.40</ele>
	<time>2023-08-07T10:08:59.000Z</time>
</trkpt>
<trkpt lat="46.1257640" lon="10.4965950">
	<ele>2424.40</ele>
	<time>2023-08-07T10:09:00.000Z</time>
</trkpt>
<trkpt lat="46.1257580" lon="10.4965870">
	<ele>2424.40</ele>
	<time>2023-08-07T10:09:01.000Z</time>
</trkpt>
<trkpt lat="46.1257550" lon="10.4965860">
	<ele>2424.40</ele>
	<time>2023-08-07T10:09:02.000Z</time>
</trkpt>
<trkpt lat="46.1257540" lon="10.4965880">
	<ele>2424.40</ele>
	<time>2023-08-07T10:09:03.000Z</time>
</trkpt>
<trkpt lat="46.1257530" lon="10.4965770">
	<ele>2424.40</ele>
	<time>2023-08-07T10:09:04.000Z</time>
</trkpt>
<trkpt lat="46.1257540" lon="10.4965740">
	<ele>2424.40</ele>
	<time>2023-08-07T10:09:05.000Z</time>
</trkpt>
<trkpt lat="46.1257570" lon="10.4965750">
	<ele>2424.40</ele>
	<time>2023-08-07T10:09:06.000Z</time>
</trkpt>
<trkpt lat="46.1257600" lon="10.4965730">
	<ele>2424.60</ele>
	<time>2023-08-07T10:09:07.000Z</time>
</trkpt>
<trkpt lat="46.1257590" lon="10.4965780">
	<ele>2424.60</ele>
	<time>2023-08-07T10:09:08.000Z</time>
</trkpt>
<trkpt lat="46.1257590" lon="10.4965840">
	<ele>2424.60</ele>
	<time>2023-08-07T10:09:09.000Z</time>
</trkpt>
<trkpt lat="46.1257580" lon="10.4965890">
	<ele>2424.80</ele>
	<time>2023-08-07T10:09:10.000Z</time>
</trkpt>
<trkpt lat="46.1257580" lon="10.4965890">
	<ele>2424.80</ele>
	<time>2023-08-07T10:09:11.000Z</time>
</trkpt>
<trkpt lat="46.1257550" lon="10.4965870">
	<ele>2425.00</ele>
	<time>2023-08-07T10:09:12.000Z</time>
</trkpt>
<trkpt lat="46.1257550" lon="10.4965870">
	<ele>2425.20</ele>
	<time>2023-08-07T10:09:13.000Z</time>
</trkpt>
<trkpt lat="46.1257550" lon="10.4965870">
	<ele>2425.40</ele>
	<time>2023-08-07T10:09:14.000Z</time>
</trkpt>
<trkpt lat="46.1257550" lon="10.4965870">
	<ele>2425.40</ele>
	<time>2023-08-07T10:09:15.000Z</time>
</trkpt>
<trkpt lat="46.1257550" lon="10.4965870">
	<ele>2425.40</ele>
	<time>2023-08-07T10:09:16.000Z</time>
</trkpt>
<trkpt lat="46.1257550" lon="10.4965870">
	<ele>2425.40</ele>
	<time>2023-08-07T10:09:17.000Z</time>
</trkpt>
<trkpt lat="46.1257550" lon="10.4965870">
	<ele>2425.60</ele>
	<time>2023-08-07T10:09:18.000Z</time>
</trkpt>
<trkpt lat="46.1257550" lon="10.4965870">
	<ele>2425.60</ele>
	<time>2023-08-07T10:09:19.000Z</time>
</trkpt>
<trkpt lat="46.1257550" lon="10.4965870">
	<ele>2425.80</ele>
	<time>2023-08-07T10:09:20.000Z</time>
</trkpt>
<trkpt lat="46.1257550" lon="10.4965870">
	<ele>2426.00</ele>
	<time>2023-08-07T10:09:21.000Z</time>
</trkpt>
<trkpt lat="46.1257550" lon="10.4965870">
	<ele>2426.00</ele>
	<time>2023-08-07T10:09:22.000Z</time>
</trkpt>
<trkpt lat="46.1257550" lon="10.4965870">
	<ele>2426.00</ele>
	<time>2023-08-07T10:09:23.000Z</time>
</trkpt>
<trkpt lat="46.1257550" lon="10.4965870">
	<ele>2426.00</ele>
	<time>2023-08-07T10:09:24.000Z</time>
</trkpt>
<trkpt lat="46.1257550" lon="10.4965870">
	<ele>2426.00</ele>
	<time>2023-08-07T10:09:25.000Z</time>
</trkpt>
<trkpt lat="46.1257550" lon="10.4965870">
	<ele>2426.00</ele>
	<time>2023-08-07T10:09:26.000Z</time>
</trkpt>
<trkpt lat="46.1257550" lon="10.4965870">
	<ele>2426.00</ele>
	<time>2023-08-07T10:09:27.000Z</time>
</trkpt>
<trkpt lat="46.1257550" lon="10.4965880">
	<ele>2426.00</ele>
	<time>2023-08-07T10:09:28.000Z</time>
</trkpt>
<trkpt lat="46.1257550" lon="10.4965890">
	<ele>2426.00</ele>
	<time>2023-08-07T10:09:29.000Z</time>
</trkpt>
<trkpt lat="46.1257550" lon="10.4965890">
	<ele>2426.40</ele>
	<time>2023-08-07T10:09:30.000Z</time>
</trkpt>
<trkpt lat="46.1257550" lon="10.4965900">
	<ele>2426.60</ele>
	<time>2023-08-07T10:09:31.000Z</time>
</trkpt>
<trkpt lat="46.1257540" lon="10.4965900">
	<ele>2426.80</ele>
	<time>2023-08-07T10:09:32.000Z</time>
</trkpt>
<trkpt lat="46.1257530" lon="10.4965920">
	<ele>2427.00</ele>
	<time>2023-08-07T10:09:33.000Z</time>
</trkpt>
<trkpt lat="46.1257530" lon="10.4965930">
	<ele>2427.20</ele>
	<time>2023-08-07T10:09:34.000Z</time>
</trkpt>
<trkpt lat="46.1257510" lon="10.4965930">
	<ele>2427.20</ele>
	<time>2023-08-07T10:09:35.000Z</time>
</trkpt>
<trkpt lat="46.1257500" lon="10.4965960">
	<ele>2427.20</ele>
	<time>2023-08-07T10:09:36.000Z</time>
</trkpt>
<trkpt lat="46.1257490" lon="10.4965970">
	<ele>2427.20</ele>
	<time>2023-08-07T10:09:37.000Z</time>
</trkpt>
<trkpt lat="46.1257480" lon="10.4965970">
	<ele>2427.20</ele>
	<time>2023-08-07T10:09:38.000Z</time>
</trkpt>
<trkpt lat="46.1257470" lon="10.4965970">
	<ele>2427.20</ele>
	<time>2023-08-07T10:09:39.000Z</time>
</trkpt>
<trkpt lat="46.1257470" lon="10.4965970">
	<ele>2427.20</ele>
	<time>2023-08-07T10:09:40.000Z</time>
</trkpt>
<trkpt lat="46.1257470" lon="10.4965980">
	<ele>2427.20</ele>
	<time>2023-08-07T10:09:41.000Z</time>
</trkpt>
<trkpt lat="46.1257470" lon="10.4965980">
	<ele>2427.00</ele>
	<time>2023-08-07T10:09:42.000Z</time>
</trkpt>
<trkpt lat="46.1257470" lon="10.4965980">
	<ele>2427.00</ele>
	<time>2023-08-07T10:09:43.000Z</time>
</trkpt>
<trkpt lat="46.1257460" lon="10.4965980">
	<ele>2427.00</ele>
	<time>2023-08-07T10:09:44.000Z</time>
</trkpt>
<trkpt lat="46.1257460" lon="10.4965980">
	<ele>2427.00</ele>
	<time>2023-08-07T10:09:45.000Z</time>
</trkpt>
<trkpt lat="46.1257460" lon="10.4965990">
	<ele>2427.00</ele>
	<time>2023-08-07T10:09:46.000Z</time>
</trkpt>
<trkpt lat="46.1257460" lon="10.4965990">
	<ele>2427.00</ele>
	<time>2023-08-07T10:09:47.000Z</time>
</trkpt>
<trkpt lat="46.1257440" lon="10.4965990">
	<ele>2427.00</ele>
	<time>2023-08-07T10:09:48.000Z</time>
</trkpt>
<trkpt lat="46.1257430" lon="10.4965990">
	<ele>2427.20</ele>
	<time>2023-08-07T10:09:49.000Z</time>
</trkpt>
<trkpt lat="46.1257420" lon="10.4966000">
	<ele>2427.20</ele>
	<time>2023-08-07T10:09:50.000Z</time>
</trkpt>
<trkpt lat="46.1257400" lon="10.4966000">
	<ele>2427.20</ele>
	<time>2023-08-07T10:09:51.000Z</time>
</trkpt>
<trkpt lat="46.1257400" lon="10.4966000">
	<ele>2427.20</ele>
	<time>2023-08-07T10:09:52.000Z</time>
</trkpt>
<trkpt lat="46.1257390" lon="10.4966000">
	<ele>2427.20</ele>
	<time>2023-08-07T10:09:53.000Z</time>
</trkpt>
<trkpt lat="46.1257390" lon="10.4966000">
	<ele>2427.20</ele>
	<time>2023-08-07T10:09:54.000Z</time>
</trkpt>
<trkpt lat="46.1257390" lon="10.4966000">
	<ele>2427.20</ele>
	<time>2023-08-07T10:09:55.000Z</time>
</trkpt>
<trkpt lat="46.1257390" lon="10.4966000">
	<ele>2427.20</ele>
	<time>2023-08-07T10:09:56.000Z</time>
</trkpt>
<trkpt lat="46.1257390" lon="10.4966000">
	<ele>2427.00</ele>
	<time>2023-08-07T10:09:57.000Z</time>
</trkpt>
<trkpt lat="46.1257390" lon="10.4966010">
	<ele>2427.00</ele>
	<time>2023-08-07T10:09:58.000Z</time>
</trkpt>
<trkpt lat="46.1257390" lon="10.4966010">
	<ele>2426.80</ele>
	<time>2023-08-07T10:09:59.000Z</time>
</trkpt>
<trkpt lat="46.1257390" lon="10.4966020">
	<ele>2426.80</ele>
	<time>2023-08-07T10:10:00.000Z</time>
</trkpt>
<trkpt lat="46.1257390" lon="10.4966020">
	<ele>2426.80</ele>
	<time>2023-08-07T10:10:01.000Z</time>
</trkpt>
<trkpt lat="46.1257390" lon="10.4966020">
	<ele>2426.80</ele>
	<time>2023-08-07T10:10:02.000Z</time>
</trkpt>
<trkpt lat="46.1257390" lon="10.4966030">
	<ele>2427.00</ele>
	<time>2023-08-07T10:10:03.000Z</time>
</trkpt>
<trkpt lat="46.1257390" lon="10.4966030">
	<ele>2427.00</ele>
	<time>2023-08-07T10:10:04.000Z</time>
</trkpt>
<trkpt lat="46.1257390" lon="10.4966030">
	<ele>2427.20</ele>
	<time>2023-08-07T10:10:05.000Z</time>
</trkpt>
<trkpt lat="46.1257390" lon="10.4966030">
	<ele>2427.40</ele>
	<time>2023-08-07T10:10:06.000Z</time>
</trkpt>
<trkpt lat="46.1257390" lon="10.4966030">
	<ele>2427.40</ele>
	<time>2023-08-07T10:10:07.000Z</time>
</trkpt>
<trkpt lat="46.1257390" lon="10.4966030">
	<ele>2427.40</ele>
	<time>2023-08-07T10:10:08.000Z</time>
</trkpt>
<trkpt lat="46.1257390" lon="10.4966040">
	<ele>2427.60</ele>
	<time>2023-08-07T10:10:09.000Z</time>
</trkpt>
<trkpt lat="46.1257390" lon="10.4966040">
	<ele>2427.60</ele>
	<time>2023-08-07T10:10:10.000Z</time>
</trkpt>
<trkpt lat="46.1257390" lon="10.4966040">
	<ele>2427.60</ele>
	<time>2023-08-07T10:10:11.000Z</time>
</trkpt>
<trkpt lat="46.1257390" lon="10.4966040">
	<ele>2427.60</ele>
	<time>2023-08-07T10:10:12.000Z</time>
</trkpt>
<trkpt lat="46.1257390" lon="10.4966040">
	<ele>2427.60</ele>
	<time>2023-08-07T10:10:13.000Z</time>
</trkpt>
<trkpt lat="46.1257390" lon="10.4966050">
	<ele>2427.80</ele>
	<time>2023-08-07T10:10:14.000Z</time>
</trkpt>
<trkpt lat="46.1257390" lon="10.4966050">
	<ele>2427.80</ele>
	<time>2023-08-07T10:10:15.000Z</time>
</trkpt>
<trkpt lat="46.1257400" lon="10.4966060">
	<ele>2427.80</ele>
	<time>2023-08-07T10:10:16.000Z</time>
</trkpt>
<trkpt lat="46.1257410" lon="10.4966060">
	<ele>2427.80</ele>
	<time>2023-08-07T10:10:17.000Z</time>
</trkpt>
<trkpt lat="46.1257410" lon="10.4966060">
	<ele>2427.80</ele>
	<time>2023-08-07T10:10:18.000Z</time>
</trkpt>
<trkpt lat="46.1257410" lon="10.4966070">
	<ele>2427.60</ele>
	<time>2023-08-07T10:10:19.000Z</time>
</trkpt>
<trkpt lat="46.1257410" lon="10.4966070">
	<ele>2427.60</ele>
	<time>2023-08-07T10:10:20.000Z</time>
</trkpt>
<trkpt lat="46.1257410" lon="10.4966070">
	<ele>2427.40</ele>
	<time>2023-08-07T10:10:21.000Z</time>
</trkpt>
<trkpt lat="46.1257410" lon="10.4966070">
	<ele>2427.40</ele>
	<time>2023-08-07T10:10:22.000Z</time>
</trkpt>
<trkpt lat="46.1257410" lon="10.4966070">
	<ele>2427.40</ele>
	<time>2023-08-07T10:10:23.000Z</time>
</trkpt>
<trkpt lat="46.1257410" lon="10.4966070">
	<ele>2427.40</ele>
	<time>2023-08-07T10:10:24.000Z</time>
</trkpt>
<trkpt lat="46.1257410" lon="10.4966070">
	<ele>2427.60</ele>
	<time>2023-08-07T10:10:25.000Z</time>
</trkpt>
<trkpt lat="46.1257410" lon="10.4966070">
	<ele>2427.60</ele>
	<time>2023-08-07T10:10:26.000Z</time>
</trkpt>
<trkpt lat="46.1257410" lon="10.4966070">
	<ele>2427.80</ele>
	<time>2023-08-07T10:10:27.000Z</time>
</trkpt>
<trkpt lat="46.1257410" lon="10.4966070">
	<ele>2427.80</ele>
	<time>2023-08-07T10:10:28.000Z</time>
</trkpt>
<trkpt lat="46.1257420" lon="10.4966070">
	<ele>2427.80</ele>
	<time>2023-08-07T10:10:29.000Z</time>
</trkpt>
<trkpt lat="46.1257420" lon="10.4966070">
	<ele>2427.80</ele>
	<time>2023-08-07T10:10:30.000Z</time>
</trkpt>
<trkpt lat="46.1257420" lon="10.4966070">
	<ele>2427.80</ele>
	<time>2023-08-07T10:10:31.000Z</time>
</trkpt>
<trkpt lat="46.1257420" lon="10.4966070">
	<ele>2427.80</ele>
	<time>2023-08-07T10:10:32.000Z</time>
</trkpt>
<trkpt lat="46.1257410" lon="10.4966070">
	<ele>2427.80</ele>
	<time>2023-08-07T10:10:33.000Z</time>
</trkpt>
<trkpt lat="46.1257410" lon="10.4966080">
	<ele>2428.00</ele>
	<time>2023-08-07T10:10:34.000Z</time>
</trkpt>
<trkpt lat="46.1257410" lon="10.4966090">
	<ele>2428.00</ele>
	<time>2023-08-07T10:10:35.000Z</time>
</trkpt>
<trkpt lat="46.1257410" lon="10.4966090">
	<ele>2428.00</ele>
	<time>2023-08-07T10:10:36.000Z</time>
</trkpt>
<trkpt lat="46.1257410" lon="10.4966090">
	<ele>2428.00</ele>
	<time>2023-08-07T10:10:37.000Z</time>
</trkpt>
<trkpt lat="46.1257410" lon="10.4966090">
	<ele>2427.80</ele>
	<time>2023-08-07T10:10:38.000Z</time>
</trkpt>
<trkpt lat="46.1257410" lon="10.4966100">
	<ele>2427.80</ele>
	<time>2023-08-07T10:10:39.000Z</time>
</trkpt>
<trkpt lat="46.1257410" lon="10.4966100">
	<ele>2427.80</ele>
	<time>2023-08-07T10:10:40.000Z</time>
</trkpt>
<trkpt lat="46.1257410" lon="10.4966100">
	<ele>2427.80</ele>
	<time>2023-08-07T10:10:41.000Z</time>
</trkpt>
<trkpt lat="46.1257410" lon="10.4966110">
	<ele>2427.80</ele>
	<time>2023-08-07T10:10:42.000Z</time>
</trkpt>
<trkpt lat="46.1257410" lon="10.4966110">
	<ele>2427.80</ele>
	<time>2023-08-07T10:10:43.000Z</time>
</trkpt>
<trkpt lat="46.1257400" lon="10.4966120">
	<ele>2428.00</ele>
	<time>2023-08-07T10:10:44.000Z</time>
</trkpt>
<trkpt lat="46.1257400" lon="10.4966120">
	<ele>2428.00</ele>
	<time>2023-08-07T10:10:45.000Z</time>
</trkpt>
<trkpt lat="46.1257400" lon="10.4966130">
	<ele>2428.00</ele>
	<time>2023-08-07T10:10:46.000Z</time>
</trkpt>
<trkpt lat="46.1257400" lon="10.4966140">
	<ele>2427.60</ele>
	<time>2023-08-07T10:10:47.000Z</time>
</trkpt>
<trkpt lat="46.1257400" lon="10.4966140">
	<ele>2427.40</ele>
	<time>2023-08-07T10:10:48.000Z</time>
</trkpt>
<trkpt lat="46.1257390" lon="10.4966160">
	<ele>2427.40</ele>
	<time>2023-08-07T10:10:49.000Z</time>
</trkpt>
<trkpt lat="46.1257390" lon="10.4966170">
	<ele>2427.20</ele>
	<time>2023-08-07T10:10:50.000Z</time>
</trkpt>
<trkpt lat="46.1257390" lon="10.4966180">
	<ele>2427.00</ele>
	<time>2023-08-07T10:10:51.000Z</time>
</trkpt>
<trkpt lat="46.1257380" lon="10.4966190">
	<ele>2427.00</ele>
	<time>2023-08-07T10:10:52.000Z</time>
</trkpt>
<trkpt lat="46.1257370" lon="10.4966220">
	<ele>2427.00</ele>
	<time>2023-08-07T10:10:53.000Z</time>
</trkpt>
<trkpt lat="46.1257370" lon="10.4966250">
	<ele>2427.00</ele>
	<time>2023-08-07T10:10:54.000Z</time>
</trkpt>
<trkpt lat="46.1257360" lon="10.4966260">
	<ele>2427.00</ele>
	<time>2023-08-07T10:10:55.000Z</time>
</trkpt>
<trkpt lat="46.1257380" lon="10.4966270">
	<ele>2427.00</ele>
	<time>2023-08-07T10:10:56.000Z</time>
</trkpt>
<trkpt lat="46.1257420" lon="10.4966260">
	<ele>2427.00</ele>
	<time>2023-08-07T10:10:57.000Z</time>
</trkpt>
<trkpt lat="46.1257450" lon="10.4966260">
	<ele>2427.00</ele>
	<time>2023-08-07T10:10:58.000Z</time>
</trkpt>
<trkpt lat="46.1257470" lon="10.4966260">
	<ele>2427.00</ele>
	<time>2023-08-07T10:10:59.000Z</time>
</trkpt>
<trkpt lat="46.1257500" lon="10.4966260">
	<ele>2427.20</ele>
	<time>2023-08-07T10:11:00.000Z</time>
</trkpt>
<trkpt lat="46.1257520" lon="10.4966260">
	<ele>2427.20</ele>
	<time>2023-08-07T10:11:01.000Z</time>
</trkpt>
<trkpt lat="46.1257520" lon="10.4966260">
	<ele>2427.20</ele>
	<time>2023-08-07T10:11:02.000Z</time>
</trkpt>
<trkpt lat="46.1257520" lon="10.4966260">
	<ele>2427.40</ele>
	<time>2023-08-07T10:11:03.000Z</time>
</trkpt>
<trkpt lat="46.1257520" lon="10.4966260">
	<ele>2427.60</ele>
	<time>2023-08-07T10:11:04.000Z</time>
</trkpt>
<trkpt lat="46.1257520" lon="10.4966260">
	<ele>2427.80</ele>
	<time>2023-08-07T10:11:05.000Z</time>
</trkpt>
<trkpt lat="46.1257520" lon="10.4966260">
	<ele>2428.00</ele>
	<time>2023-08-07T10:11:06.000Z</time>
</trkpt>
<trkpt lat="46.1257520" lon="10.4966260">
	<ele>2428.20</ele>
	<time>2023-08-07T10:11:07.000Z</time>
</trkpt>
<trkpt lat="46.1257520" lon="10.4966260">
	<ele>2428.20</ele>
	<time>2023-08-07T10:11:08.000Z</time>
</trkpt>
<trkpt lat="46.1257520" lon="10.4966260">
	<ele>2428.20</ele>
	<time>2023-08-07T10:11:09.000Z</time>
</trkpt>
<trkpt lat="46.1257520" lon="10.4966260">
	<ele>2428.60</ele>
	<time>2023-08-07T10:11:10.000Z</time>
</trkpt>
<trkpt lat="46.1257520" lon="10.4966260">
	<ele>2428.80</ele>
	<time>2023-08-07T10:11:11.000Z</time>
</trkpt>
<trkpt lat="46.1257550" lon="10.4966260">
	<ele>2429.00</ele>
	<time>2023-08-07T10:11:12.000Z</time>
</trkpt>
<trkpt lat="46.1257560" lon="10.4966260">
	<ele>2429.00</ele>
	<time>2023-08-07T10:11:13.000Z</time>
</trkpt>
<trkpt lat="46.1257570" lon="10.4966260">
	<ele>2429.20</ele>
	<time>2023-08-07T10:11:14.000Z</time>
</trkpt>
<trkpt lat="46.1257580" lon="10.4966260">
	<ele>2429.40</ele>
	<time>2023-08-07T10:11:15.000Z</time>
</trkpt>
<trkpt lat="46.1257580" lon="10.4966260">
	<ele>2429.80</ele>
	<time>2023-08-07T10:11:16.000Z</time>
</trkpt>
<trkpt lat="46.1257610" lon="10.4966260">
	<ele>2429.80</ele>
	<time>2023-08-07T10:11:17.000Z</time>
</trkpt>
<trkpt lat="46.1257660" lon="10.4966260">
	<ele>2430.00</ele>
	<time>2023-08-07T10:11:18.000Z</time>
</trkpt>
<trkpt lat="46.1257700" lon="10.4966260">
	<ele>2430.40</ele>
	<time>2023-08-07T10:11:19.000Z</time>
</trkpt>
<trkpt lat="46.1257730" lon="10.4966260">
	<ele>2430.60</ele>
	<time>2023-08-07T10:11:20.000Z</time>
</trkpt>
<trkpt lat="46.1257770" lon="10.4966260">
	<ele>2430.80</ele>
	<time>2023-08-07T10:11:21.000Z</time>
</trkpt>
<trkpt lat="46.1257770" lon="10.4966190">
	<ele>2430.80</ele>
	<time>2023-08-07T10:11:22.000Z</time>
</trkpt>
<trkpt lat="46.1257780" lon="10.4966120">
	<ele>2430.80</ele>
	<time>2023-08-07T10:11:23.000Z</time>
</trkpt>
<trkpt lat="46.1257790" lon="10.4966060">
	<ele>2431.00</ele>
	<time>2023-08-07T10:11:24.000Z</time>
</trkpt>
<trkpt lat="46.1257810" lon="10.4966020">
	<ele>2431.20</ele>
	<time>2023-08-07T10:11:25.000Z</time>
</trkpt>
<trkpt lat="46.1257820" lon="10.4965990">
	<ele>2431.40</ele>
	<time>2023-08-07T10:11:26.000Z</time>
</trkpt>
<trkpt lat="46.1257840" lon="10.4965950">
	<ele>2431.60</ele>
	<time>2023-08-07T10:11:27.000Z</time>
</trkpt>
<trkpt lat="46.1257850" lon="10.4965870">
	<ele>2431.60</ele>
	<time>2023-08-07T10:11:28.000Z</time>
</trkpt>
<trkpt lat="46.1257860" lon="10.4965760">
	<ele>2431.80</ele>
	<time>2023-08-07T10:11:29.000Z</time>
</trkpt>
<trkpt lat="46.1257900" lon="10.4965700">
	<ele>2431.80</ele>
	<time>2023-08-07T10:11:30.000Z</time>
</trkpt>
<trkpt lat="46.1257930" lon="10.4965690">
	<ele>2432.00</ele>
	<time>2023-08-07T10:11:31.000Z</time>
</trkpt>
<trkpt lat="46.1257950" lon="10.4965650">
	<ele>2432.00</ele>
	<time>2023-08-07T10:11:32.000Z</time>
</trkpt>
<trkpt lat="46.1257960" lon="10.4965570">
	<ele>2432.20</ele>
	<time>2023-08-07T10:11:33.000Z</time>
</trkpt>
<trkpt lat="46.1257980" lon="10.4965510">
	<ele>2432.20</ele>
	<time>2023-08-07T10:11:34.000Z</time>
</trkpt>
<trkpt lat="46.1257980" lon="10.4965470">
	<ele>2432.40</ele>
	<time>2023-08-07T10:11:35.000Z</time>
</trkpt>
<trkpt lat="46.1257980" lon="10.4965450">
	<ele>2432.60</ele>
	<time>2023-08-07T10:11:36.000Z</time>
</trkpt>
<trkpt lat="46.1257990" lon="10.4965430">
	<ele>2432.80</ele>
	<time>2023-08-07T10:11:37.000Z</time>
</trkpt>
<trkpt lat="46.1258030" lon="10.4965380">
	<ele>2432.80</ele>
	<time>2023-08-07T10:11:38.000Z</time>
</trkpt>
<trkpt lat="46.1258100" lon="10.4965320">
	<ele>2433.00</ele>
	<time>2023-08-07T10:11:39.000Z</time>
</trkpt>
<trkpt lat="46.1258170" lon="10.4965290">
	<ele>2433.40</ele>
	<time>2023-08-07T10:11:40.000Z</time>
</trkpt>
<trkpt lat="46.1258220" lon="10.4965270">
	<ele>2433.60</ele>
	<time>2023-08-07T10:11:41.000Z</time>
</trkpt>
<trkpt lat="46.1258270" lon="10.4965210">
	<ele>2433.60</ele>
	<time>2023-08-07T10:11:42.000Z</time>
</trkpt>
<trkpt lat="46.1258350" lon="10.4965120">
	<ele>2433.80</ele>
	<time>2023-08-07T10:11:43.000Z</time>
</trkpt>
<trkpt lat="46.1258420" lon="10.4965040">
	<ele>2433.80</ele>
	<time>2023-08-07T10:11:44.000Z</time>
</trkpt>
<trkpt lat="46.1258520" lon="10.4964840">
	<ele>2433.80</ele>
	<time>2023-08-07T10:11:45.000Z</time>
</trkpt>
<trkpt lat="46.1258590" lon="10.4964730">
	<ele>2434.00</ele>
	<time>2023-08-07T10:11:46.000Z</time>
</trkpt>
<trkpt lat="46.1258680" lon="10.4964650">
	<ele>2434.20</ele>
	<time>2023-08-07T10:11:47.000Z</time>
</trkpt>
<trkpt lat="46.1258710" lon="10.4964640">
	<ele>2434.60</ele>
	<time>2023-08-07T10:11:48.000Z</time>
</trkpt>
<trkpt lat="46.1258720" lon="10.4964580">
	<ele>2434.80</ele>
	<time>2023-08-07T10:11:49.000Z</time>
</trkpt>
<trkpt lat="46.1258750" lon="10.4964560">
	<ele>2435.00</ele>
	<time>2023-08-07T10:11:50.000Z</time>
</trkpt>
<trkpt lat="46.1258810" lon="10.4964500">
	<ele>2435.20</ele>
	<time>2023-08-07T10:11:51.000Z</time>
</trkpt>
<trkpt lat="46.1258840" lon="10.4964500">
	<ele>2435.20</ele>
	<time>2023-08-07T10:11:52.000Z</time>
</trkpt>
<trkpt lat="46.1258840" lon="10.4964560">
	<ele>2435.40</ele>
	<time>2023-08-07T10:11:53.000Z</time>
</trkpt>
<trkpt lat="46.1258850" lon="10.4964550">
	<ele>2435.40</ele>
	<time>2023-08-07T10:11:54.000Z</time>
</trkpt>
<trkpt lat="46.1258870" lon="10.4964510">
	<ele>2435.60</ele>
	<time>2023-08-07T10:11:55.000Z</time>
</trkpt>
<trkpt lat="46.1258910" lon="10.4964510">
	<ele>2435.60</ele>
	<time>2023-08-07T10:11:56.000Z</time>
</trkpt>
<trkpt lat="46.1258940" lon="10.4964490">
	<ele>2436.00</ele>
	<time>2023-08-07T10:11:57.000Z</time>
</trkpt>
<trkpt lat="46.1258940" lon="10.4964450">
	<ele>2436.20</ele>
	<time>2023-08-07T10:11:58.000Z</time>
</trkpt>
<trkpt lat="46.1258950" lon="10.4964410">
	<ele>2436.40</ele>
	<time>2023-08-07T10:11:59.000Z</time>
</trkpt>
<trkpt lat="46.1258970" lon="10.4964380">
	<ele>2436.40</ele>
	<time>2023-08-07T10:12:00.000Z</time>
</trkpt>
<trkpt lat="46.1259070" lon="10.4964290">
	<ele>2436.60</ele>
	<time>2023-08-07T10:12:01.000Z</time>
</trkpt>
<trkpt lat="46.1259150" lon="10.4964230">
	<ele>2436.60</ele>
	<time>2023-08-07T10:12:02.000Z</time>
</trkpt>
<trkpt lat="46.1259190" lon="10.4964180">
	<ele>2436.80</ele>
	<time>2023-08-07T10:12:03.000Z</time>
</trkpt>
<trkpt lat="46.1259220" lon="10.4964160">
	<ele>2437.00</ele>
	<time>2023-08-07T10:12:04.000Z</time>
</trkpt>
<trkpt lat="46.1259210" lon="10.4964100">
	<ele>2437.00</ele>
	<time>2023-08-07T10:12:05.000Z</time>
</trkpt>
<trkpt lat="46.1259210" lon="10.4964080">
	<ele>2437.20</ele>
	<time>2023-08-07T10:12:06.000Z</time>
</trkpt>
<trkpt lat="46.1259210" lon="10.4964050">
	<ele>2437.20</ele>
	<time>2023-08-07T10:12:07.000Z</time>
</trkpt>
<trkpt lat="46.1259210" lon="10.4964050">
	<ele>2437.20</ele>
	<time>2023-08-07T10:12:08.000Z</time>
</trkpt>
<trkpt lat="46.1259220" lon="10.4964010">
	<ele>2437.20</ele>
	<time>2023-08-07T10:12:09.000Z</time>
</trkpt>
<trkpt lat="46.1259220" lon="10.4964010">
	<ele>2437.20</ele>
	<time>2023-08-07T10:12:10.000Z</time>
</trkpt>
<trkpt lat="46.1259240" lon="10.4964020">
	<ele>2437.20</ele>
	<time>2023-08-07T10:12:11.000Z</time>
</trkpt>
<trkpt lat="46.1259280" lon="10.4964000">
	<ele>2437.40</ele>
	<time>2023-08-07T10:12:12.000Z</time>
</trkpt>
<trkpt lat="46.1259320" lon="10.4964080">
	<ele>2437.40</ele>
	<time>2023-08-07T10:12:13.000Z</time>
</trkpt>
<trkpt lat="46.1259380" lon="10.4964050">
	<ele>2437.60</ele>
	<time>2023-08-07T10:12:14.000Z</time>
</trkpt>
<trkpt lat="46.1259410" lon="10.4964040">
	<ele>2437.60</ele>
	<time>2023-08-07T10:12:15.000Z</time>
</trkpt>
<trkpt lat="46.1259460" lon="10.4964000">
	<ele>2437.80</ele>
	<time>2023-08-07T10:12:16.000Z</time>
</trkpt>
<trkpt lat="46.1259470" lon="10.4964000">
	<ele>2437.80</ele>
	<time>2023-08-07T10:12:17.000Z</time>
</trkpt>
<trkpt lat="46.1259510" lon="10.4964030">
	<ele>2437.80</ele>
	<time>2023-08-07T10:12:18.000Z</time>
</trkpt>
<trkpt lat="46.1259530" lon="10.4964010">
	<ele>2438.00</ele>
	<time>2023-08-07T10:12:19.000Z</time>
</trkpt>
<trkpt lat="46.1259550" lon="10.4963980">
	<ele>2438.20</ele>
	<time>2023-08-07T10:12:20.000Z</time>
</trkpt>
<trkpt lat="46.1259570" lon="10.4963940">
	<ele>2438.40</ele>
	<time>2023-08-07T10:12:21.000Z</time>
</trkpt>
<trkpt lat="46.1259540" lon="10.4963840">
	<ele>2438.40</ele>
	<time>2023-08-07T10:12:22.000Z</time>
</trkpt>
<trkpt lat="46.1259540" lon="10.4963770">
	<ele>2438.60</ele>
	<time>2023-08-07T10:12:23.000Z</time>
</trkpt>
<trkpt lat="46.1259530" lon="10.4963740">
	<ele>2438.60</ele>
	<time>2023-08-07T10:12:24.000Z</time>
</trkpt>
<trkpt lat="46.1259540" lon="10.4963700">
	<ele>2438.60</ele>
	<time>2023-08-07T10:12:25.000Z</time>
</trkpt>
<trkpt lat="46.1259530" lon="10.4963690">
	<ele>2438.60</ele>
	<time>2023-08-07T10:12:26.000Z</time>
</trkpt>
<trkpt lat="46.1259430" lon="10.4963770">
	<ele>2438.60</ele>
	<time>2023-08-07T10:12:27.000Z</time>
</trkpt>
<trkpt lat="46.1259360" lon="10.4963750">
	<ele>2438.60</ele>
	<time>2023-08-07T10:12:28.000Z</time>
</trkpt>
<trkpt lat="46.1259310" lon="10.4963860">
	<ele>2438.80</ele>
	<time>2023-08-07T10:12:29.000Z</time>
</trkpt>
<trkpt lat="46.1259280" lon="10.4963910">
	<ele>2439.00</ele>
	<time>2023-08-07T10:12:30.000Z</time>
</trkpt>
<trkpt lat="46.1259290" lon="10.4963900">
	<ele>2439.20</ele>
	<time>2023-08-07T10:12:31.000Z</time>
</trkpt>
<trkpt lat="46.1259290" lon="10.4963990">
	<ele>2439.40</ele>
	<time>2023-08-07T10:12:32.000Z</time>
</trkpt>
<trkpt lat="46.1259290" lon="10.4964030">
	<ele>2439.60</ele>
	<time>2023-08-07T10:12:33.000Z</time>
</trkpt>
<trkpt lat="46.1259280" lon="10.4964020">
	<ele>2439.80</ele>
	<time>2023-08-07T10:12:34.000Z</time>
</trkpt>
<trkpt lat="46.1259280" lon="10.4964040">
	<ele>2440.00</ele>
	<time>2023-08-07T10:12:35.000Z</time>
</trkpt>
<trkpt lat="46.1259260" lon="10.4964050">
	<ele>2440.20</ele>
	<time>2023-08-07T10:12:36.000Z</time>
</trkpt>
<trkpt lat="46.1259240" lon="10.4964110">
	<ele>2440.40</ele>
	<time>2023-08-07T10:12:37.000Z</time>
</trkpt>
<trkpt lat="46.1259220" lon="10.4964150">
	<ele>2440.60</ele>
	<time>2023-08-07T10:12:38.000Z</time>
</trkpt>
<trkpt lat="46.1259210" lon="10.4964180">
	<ele>2440.80</ele>
	<time>2023-08-07T10:12:39.000Z</time>
</trkpt>
<trkpt lat="46.1259210" lon="10.4964180">
	<ele>2440.80</ele>
	<time>2023-08-07T10:12:40.000Z</time>
</trkpt>
<trkpt lat="46.1259210" lon="10.4964190">
	<ele>2441.00</ele>
	<time>2023-08-07T10:12:41.000Z</time>
</trkpt>
<trkpt lat="46.1259170" lon="10.4964210">
	<ele>2441.00</ele>
	<time>2023-08-07T10:12:42.000Z</time>
</trkpt>
<trkpt lat="46.1259180" lon="10.4964200">
	<ele>2441.00</ele>
	<time>2023-08-07T10:12:43.000Z</time>
</trkpt>
<trkpt lat="46.1259190" lon="10.4964230">
	<ele>2441.00</ele>
	<time>2023-08-07T10:12:44.000Z</time>
</trkpt>
<trkpt lat="46.1259180" lon="10.4964260">
	<ele>2441.00</ele>
	<time>2023-08-07T10:12:45.000Z</time>
</trkpt>
<trkpt lat="46.1259150" lon="10.4964310">
	<ele>2441.20</ele>
	<time>2023-08-07T10:12:46.000Z</time>
</trkpt>
<trkpt lat="46.1259120" lon="10.4964330">
	<ele>2441.40</ele>
	<time>2023-08-07T10:12:47.000Z</time>
</trkpt>
<trkpt lat="46.1259060" lon="10.4964380">
	<ele>2441.40</ele>
	<time>2023-08-07T10:12:48.000Z</time>
</trkpt>
<trkpt lat="46.1259000" lon="10.4964430">
	<ele>2441.60</ele>
	<time>2023-08-07T10:12:49.000Z</time>
</trkpt>
<trkpt lat="46.1258960" lon="10.4964460">
	<ele>2441.80</ele>
	<time>2023-08-07T10:12:50.000Z</time>
</trkpt>
<trkpt lat="46.1258920" lon="10.4964490">
	<ele>2442.00</ele>
	<time>2023-08-07T10:12:51.000Z</time>
</trkpt>
<trkpt lat="46.1258880" lon="10.4964560">
	<ele>2442.20</ele>
	<time>2023-08-07T10:12:52.000Z</time>
</trkpt>
<trkpt lat="46.1258840" lon="10.4964630">
	<ele>2442.20</ele>
	<time>2023-08-07T10:12:53.000Z</time>
</trkpt>
<trkpt lat="46.1258810" lon="10.4964650">
	<ele>2442.40</ele>
	<time>2023-08-07T10:12:54.000Z</time>
</trkpt>
<trkpt lat="46.1258790" lon="10.4964660">
	<ele>2442.40</ele>
	<time>2023-08-07T10:12:55.000Z</time>
</trkpt>
<trkpt lat="46.1258780" lon="10.4964640">
	<ele>2442.60</ele>
	<time>2023-08-07T10:12:56.000Z</time>
</trkpt>
<trkpt lat="46.1258770" lon="10.4964600">
	<ele>2442.60</ele>
	<time>2023-08-07T10:12:57.000Z</time>
</trkpt>
<trkpt lat="46.1258760" lon="10.4964580">
	<ele>2442.60</ele>
	<time>2023-08-07T10:12:58.000Z</time>
</trkpt>
<trkpt lat="46.1258710" lon="10.4964530">
	<ele>2442.80</ele>
	<time>2023-08-07T10:12:59.000Z</time>
</trkpt>
<trkpt lat="46.1258670" lon="10.4964480">
	<ele>2442.80</ele>
	<time>2023-08-07T10:13:00.000Z</time>
</trkpt>
<trkpt lat="46.1258630" lon="10.4964480">
	<ele>2442.60</ele>
	<time>2023-08-07T10:13:01.000Z</time>
</trkpt>
<trkpt lat="46.1258610" lon="10.4964540">
	<ele>2442.60</ele>
	<time>2023-08-07T10:13:02.000Z</time>
</trkpt>
<trkpt lat="46.1258660" lon="10.4964520">
	<ele>2442.60</ele>
	<time>2023-08-07T10:13:03.000Z</time>
</trkpt>
<trkpt lat="46.1258690" lon="10.4964470">
	<ele>2442.60</ele>
	<time>2023-08-07T10:13:04.000Z</time>
</trkpt>
<trkpt lat="46.1258710" lon="10.4964450">
	<ele>2442.80</ele>
	<time>2023-08-07T10:13:05.000Z</time>
</trkpt>
<trkpt lat="46.1258710" lon="10.4964510">
	<ele>2442.80</ele>
	<time>2023-08-07T10:13:06.000Z</time>
</trkpt>
<trkpt lat="46.1258750" lon="10.4964530">
	<ele>2442.80</ele>
	<time>2023-08-07T10:13:07.000Z</time>
</trkpt>
<trkpt lat="46.1258750" lon="10.4964570">
	<ele>2442.80</ele>
	<time>2023-08-07T10:13:08.000Z</time>
</trkpt>
<trkpt lat="46.1258750" lon="10.4964590">
	<ele>2443.00</ele>
	<time>2023-08-07T10:13:09.000Z</time>
</trkpt>
<trkpt lat="46.1258750" lon="10.4964600">
	<ele>2443.00</ele>
	<time>2023-08-07T10:13:10.000Z</time>
</trkpt>
<trkpt lat="46.1258760" lon="10.4964650">
	<ele>2443.00</ele>
	<time>2023-08-07T10:13:11.000Z</time>
</trkpt>
<trkpt lat="46.1258760" lon="10.4964690">
	<ele>2443.00</ele>
	<time>2023-08-07T10:13:12.000Z</time>
</trkpt>
<trkpt lat="46.1258750" lon="10.4964690">
	<ele>2443.00</ele>
	<time>2023-08-07T10:13:13.000Z</time>
</trkpt>
<trkpt lat="46.1258750" lon="10.4964750">
	<ele>2443.00</ele>
	<time>2023-08-07T10:13:14.000Z</time>
</trkpt>
<trkpt lat="46.1258720" lon="10.4964760">
	<ele>2443.00</ele>
	<time>2023-08-07T10:13:15.000Z</time>
</trkpt>
<trkpt lat="46.1258680" lon="10.4964800">
	<ele>2442.80</ele>
	<time>2023-08-07T10:13:16.000Z</time>
</trkpt>
<trkpt lat="46.1258640" lon="10.4964830">
	<ele>2442.80</ele>
	<time>2023-08-07T10:13:17.000Z</time>
</trkpt>
<trkpt lat="46.1258620" lon="10.4964860">
	<ele>2442.60</ele>
	<time>2023-08-07T10:13:18.000Z</time>
</trkpt>
<trkpt lat="46.1258620" lon="10.4964890">
	<ele>2442.40</ele>
	<time>2023-08-07T10:13:19.000Z</time>
</trkpt>
<trkpt lat="46.1258580" lon="10.4964950">
	<ele>2442.40</ele>
	<time>2023-08-07T10:13:20.000Z</time>
</trkpt>
<trkpt lat="46.1258530" lon="10.4965000">
	<ele>2442.40</ele>
	<time>2023-08-07T10:13:21.000Z</time>
</trkpt>
<trkpt lat="46.1258480" lon="10.4965030">
	<ele>2442.40</ele>
	<time>2023-08-07T10:13:22.000Z</time>
</trkpt>
<trkpt lat="46.1258440" lon="10.4965090">
	<ele>2442.40</ele>
	<time>2023-08-07T10:13:23.000Z</time>
</trkpt>
<trkpt lat="46.1258400" lon="10.4965090">
	<ele>2442.40</ele>
	<time>2023-08-07T10:13:24.000Z</time>
</trkpt>
<trkpt lat="46.1258390" lon="10.4965020">
	<ele>2442.40</ele>
	<time>2023-08-07T10:13:25.000Z</time>
</trkpt>
<trkpt lat="46.1258380" lon="10.4964910">
	<ele>2442.60</ele>
	<time>2023-08-07T10:13:26.000Z</time>
</trkpt>
<trkpt lat="46.1258370" lon="10.4964880">
	<ele>2442.60</ele>
	<time>2023-08-07T10:13:27.000Z</time>
</trkpt>
<trkpt lat="46.1258380" lon="10.4964850">
	<ele>2442.80</ele>
	<time>2023-08-07T10:13:28.000Z</time>
</trkpt>
<trkpt lat="46.1258360" lon="10.4964830">
	<ele>2443.00</ele>
	<time>2023-08-07T10:13:29.000Z</time>
</trkpt>
<trkpt lat="46.1258350" lon="10.4964800">
	<ele>2443.40</ele>
	<time>2023-08-07T10:13:30.000Z</time>
</trkpt>
<trkpt lat="46.1258390" lon="10.4964770">
	<ele>2443.40</ele>
	<time>2023-08-07T10:13:31.000Z</time>
</trkpt>
<trkpt lat="46.1258350" lon="10.4964730">
	<ele>2443.80</ele>
	<time>2023-08-07T10:13:32.000Z</time>
</trkpt>
<trkpt lat="46.1258330" lon="10.4964660">
	<ele>2443.80</ele>
	<time>2023-08-07T10:13:33.000Z</time>
</trkpt>
<trkpt lat="46.1258320" lon="10.4964650">
	<ele>2444.00</ele>
	<time>2023-08-07T10:13:34.000Z</time>
</trkpt>
<trkpt lat="46.1258300" lon="10.4964600">
	<ele>2444.20</ele>
	<time>2023-08-07T10:13:35.000Z</time>
</trkpt>
<trkpt lat="46.1258290" lon="10.4964580">
	<ele>2444.20</ele>
	<time>2023-08-07T10:13:36.000Z</time>
</trkpt>
<trkpt lat="46.1258260" lon="10.4964570">
	<ele>2444.20</ele>
	<time>2023-08-07T10:13:37.000Z</time>
</trkpt>
<trkpt lat="46.1258250" lon="10.4964540">
	<ele>2444.40</ele>
	<time>2023-08-07T10:13:38.000Z</time>
</trkpt>
<trkpt lat="46.1258240" lon="10.4964510">
	<ele>2444.60</ele>
	<time>2023-08-07T10:13:39.000Z</time>
</trkpt>
<trkpt lat="46.1258190" lon="10.4964600">
	<ele>2444.80</ele>
	<time>2023-08-07T10:13:40.000Z</time>
</trkpt>
<trkpt lat="46.1258300" lon="10.4964600">
	<ele>2445.20</ele>
	<time>2023-08-07T10:13:41.000Z</time>
</trkpt>
<trkpt lat="46.1258350" lon="10.4964600">
	<ele>2445.40</ele>
	<time>2023-08-07T10:13:42.000Z</time>
</trkpt>
<trkpt lat="46.1258370" lon="10.4964540">
	<ele>2445.40</ele>
	<time>2023-08-07T10:13:43.000Z</time>
</trkpt>
<trkpt lat="46.1258370" lon="10.4964570">
	<ele>2445.60</ele>
	<time>2023-08-07T10:13:44.000Z</time>
</trkpt>
<trkpt lat="46.1258390" lon="10.4964520">
	<ele>2445.60</ele>
	<time>2023-08-07T10:13:45.000Z</time>
</trkpt>
<trkpt lat="46.1258440" lon="10.4964470">
	<ele>2445.60</ele>
	<time>2023-08-07T10:13:46.000Z</time>
</trkpt>
<trkpt lat="46.1258620" lon="10.4964370">
	<ele>2445.80</ele>
	<time>2023-08-07T10:13:47.000Z</time>
</trkpt>
<trkpt lat="46.1258800" lon="10.4964310">
	<ele>2445.80</ele>
	<time>2023-08-07T10:13:48.000Z</time>
</trkpt>
<trkpt lat="46.1258970" lon="10.4964280">
	<ele>2445.80</ele>
	<time>2023-08-07T10:13:49.000Z</time>
</trkpt>
<trkpt lat="46.1259160" lon="10.4964210">
	<ele>2446.00</ele>
	<time>2023-08-07T10:13:50.000Z</time>
</trkpt>
<trkpt lat="46.1259350" lon="10.4964100">
	<ele>2446.20</ele>
	<time>2023-08-07T10:13:51.000Z</time>
</trkpt>
<trkpt lat="46.1259490" lon="10.4964040">
	<ele>2446.40</ele>
	<time>2023-08-07T10:13:52.000Z</time>
</trkpt>
<trkpt lat="46.1259710" lon="10.4963980">
	<ele>2446.60</ele>
	<time>2023-08-07T10:13:53.000Z</time>
</trkpt>
<trkpt lat="46.1259890" lon="10.4963910">
	<ele>2446.80</ele>
	<time>2023-08-07T10:13:54.000Z</time>
</trkpt>
<trkpt lat="46.1260050" lon="10.4963860">
	<ele>2447.00</ele>
	<time>2023-08-07T10:13:55.000Z</time>
</trkpt>
<trkpt lat="46.1260190" lon="10.4963560">
	<ele>2447.20</ele>
	<time>2023-08-07T10:13:56.000Z</time>
</trkpt>
<trkpt lat="46.1260260" lon="10.4963200">
	<ele>2447.20</ele>
	<time>2023-08-07T10:13:57.000Z</time>
</trkpt>
<trkpt lat="46.1260380" lon="10.4963100">
	<ele>2447.40</ele>
	<time>2023-08-07T10:13:58.000Z</time>
</trkpt>
<trkpt lat="46.1260510" lon="10.4963080">
	<ele>2447.40</ele>
	<time>2023-08-07T10:13:59.000Z</time>
</trkpt>
<trkpt lat="46.1260510" lon="10.4963020">
	<ele>2447.40</ele>
	<time>2023-08-07T10:14:00.000Z</time>
</trkpt>
<trkpt lat="46.1260620" lon="10.4962900">
	<ele>2447.60</ele>
	<time>2023-08-07T10:14:01.000Z</time>
</trkpt>
<trkpt lat="46.1260710" lon="10.4962840">
	<ele>2447.60</ele>
	<time>2023-08-07T10:14:02.000Z</time>
</trkpt>
<trkpt lat="46.1260650" lon="10.4962810">
	<ele>2447.60</ele>
	<time>2023-08-07T10:14:03.000Z</time>
</trkpt>
<trkpt lat="46.1260790" lon="10.4962820">
	<ele>2447.60</ele>
	<time>2023-08-07T10:14:04.000Z</time>
</trkpt>
<trkpt lat="46.1260860" lon="10.4962840">
	<ele>2447.80</ele>
	<time>2023-08-07T10:14:05.000Z</time>
</trkpt>
<trkpt lat="46.1260350" lon="10.4962950">
	<ele>2448.00</ele>
	<time>2023-08-07T10:14:06.000Z</time>
</trkpt>
<trkpt lat="46.1260180" lon="10.4963030">
	<ele>2448.00</ele>
	<time>2023-08-07T10:14:07.000Z</time>
</trkpt>
<trkpt lat="46.1259880" lon="10.4963180">
	<ele>2448.20</ele>
	<time>2023-08-07T10:14:08.000Z</time>
</trkpt>
<trkpt lat="46.1259620" lon="10.4963230">
	<ele>2448.20</ele>
	<time>2023-08-07T10:14:09.000Z</time>
</trkpt>
<trkpt lat="46.1259340" lon="10.4963240">
	<ele>2448.40</ele>
	<time>2023-08-07T10:14:10.000Z</time>
</trkpt>
<trkpt lat="46.1258930" lon="10.4963300">
	<ele>2448.60</ele>
	<time>2023-08-07T10:14:11.000Z</time>
</trkpt>
<trkpt lat="46.1259190" lon="10.4963350">
	<ele>2448.80</ele>
	<time>2023-08-07T10:14:12.000Z</time>
</trkpt>
<trkpt lat="46.1259270" lon="10.4963370">
	<ele>2448.80</ele>
	<time>2023-08-07T10:14:13.000Z</time>
</trkpt>
<trkpt lat="46.1259210" lon="10.4963260">
	<ele>2448.80</ele>
	<time>2023-08-07T10:14:14.000Z</time>
</trkpt>
<trkpt lat="46.1259100" lon="10.4963390">
	<ele>2449.00</ele>
	<time>2023-08-07T10:14:15.000Z</time>
</trkpt>
<trkpt lat="46.1259130" lon="10.4963260">
	<ele>2449.00</ele>
	<time>2023-08-07T10:14:16.000Z</time>
</trkpt>
<trkpt lat="46.1259210" lon="10.4963220">
	<ele>2449.00</ele>
	<time>2023-08-07T10:14:17.000Z</time>
</trkpt>
<trkpt lat="46.1259300" lon="10.4963250">
	<ele>2449.00</ele>
	<time>2023-08-07T10:14:18.000Z</time>
</trkpt>
<trkpt lat="46.1259330" lon="10.4963260">
	<ele>2449.00</ele>
	<time>2023-08-07T10:14:19.000Z</time>
</trkpt>
<trkpt lat="46.1259340" lon="10.4963240">
	<ele>2449.20</ele>
	<time>2023-08-07T10:14:20.000Z</time>
</trkpt>
<trkpt lat="46.1259340" lon="10.4963250">
	<ele>2449.20</ele>
	<time>2023-08-07T10:14:21.000Z</time>
</trkpt>
<trkpt lat="46.1259350" lon="10.4963270">
	<ele>2449.20</ele>
	<time>2023-08-07T10:14:22.000Z</time>
</trkpt>
<trkpt lat="46.1259240" lon="10.4963370">
	<ele>2449.40</ele>
	<time>2023-08-07T10:14:23.000Z</time>
</trkpt>
<trkpt lat="46.1259350" lon="10.4963440">
	<ele>2449.20</ele>
	<time>2023-08-07T10:14:24.000Z</time>
</trkpt>
<trkpt lat="46.1259460" lon="10.4963400">
	<ele>2449.40</ele>
	<time>2023-08-07T10:14:25.000Z</time>
</trkpt>
<trkpt lat="46.1259560" lon="10.4963330">
	<ele>2449.40</ele>
	<time>2023-08-07T10:14:26.000Z</time>
</trkpt>
<trkpt lat="46.1259580" lon="10.4963220">
	<ele>2449.40</ele>
	<time>2023-08-07T10:14:27.000Z</time>
</trkpt>
<trkpt lat="46.1259670" lon="10.4963080">
	<ele>2449.40</ele>
	<time>2023-08-07T10:14:28.000Z</time>
</trkpt>
<trkpt lat="46.1259840" lon="10.4963010">
	<ele>2449.60</ele>
	<time>2023-08-07T10:14:29.000Z</time>
</trkpt>
<trkpt lat="46.1259950" lon="10.4962910">
	<ele>2449.60</ele>
	<time>2023-08-07T10:14:30.000Z</time>
</trkpt>
<trkpt lat="46.1259970" lon="10.4962880">
	<ele>2449.80</ele>
	<time>2023-08-07T10:14:31.000Z</time>
</trkpt>
<trkpt lat="46.1260000" lon="10.4962960">
	<ele>2450.00</ele>
	<time>2023-08-07T10:14:32.000Z</time>
</trkpt>
<trkpt lat="46.1259640" lon="10.4962920">
	<ele>2450.00</ele>
	<time>2023-08-07T10:14:33.000Z</time>
</trkpt>
<trkpt lat="46.1259630" lon="10.4963070">
	<ele>2450.00</ele>
	<time>2023-08-07T10:14:34.000Z</time>
</trkpt>
<trkpt lat="46.1259730" lon="10.4963100">
	<ele>2450.00</ele>
	<time>2023-08-07T10:14:35.000Z</time>
</trkpt>
<trkpt lat="46.1260070" lon="10.4963240">
	<ele>2450.00</ele>
	<time>2023-08-07T10:14:36.000Z</time>
</trkpt>
<trkpt lat="46.1260500" lon="10.4963420">
	<ele>2450.00</ele>
	<time>2023-08-07T10:14:37.000Z</time>
</trkpt>
<trkpt lat="46.1260780" lon="10.4963510">
	<ele>2450.00</ele>
	<time>2023-08-07T10:14:38.000Z</time>
</trkpt>
<trkpt lat="46.1260930" lon="10.4963540">
	<ele>2450.00</ele>
	<time>2023-08-07T10:14:39.000Z</time>
</trkpt>
<trkpt lat="46.1260960" lon="10.4963570">
	<ele>2450.00</ele>
	<time>2023-08-07T10:14:40.000Z</time>
</trkpt>
<trkpt lat="46.1261100" lon="10.4963680">
	<ele>2450.00</ele>
	<time>2023-08-07T10:14:41.000Z</time>
</trkpt>
<trkpt lat="46.1261100" lon="10.4963720">
	<ele>2450.00</ele>
	<time>2023-08-07T10:14:42.000Z</time>
</trkpt>
<trkpt lat="46.1260990" lon="10.4963720">
	<ele>2450.00</ele>
	<time>2023-08-07T10:14:43.000Z</time>
</trkpt>
<trkpt lat="46.1260960" lon="10.4963750">
	<ele>2450.20</ele>
	<time>2023-08-07T10:14:44.000Z</time>
</trkpt>
<trkpt lat="46.1260840" lon="10.4963720">
	<ele>2450.20</ele>
	<time>2023-08-07T10:14:45.000Z</time>
</trkpt>
<trkpt lat="46.1260710" lon="10.4963680">
	<ele>2450.40</ele>
	<time>2023-08-07T10:14:46.000Z</time>
</trkpt>
<trkpt lat="46.1260560" lon="10.4963630">
	<ele>2450.40</ele>
	<time>2023-08-07T10:14:47.000Z</time>
</trkpt>
<trkpt lat="46.1260470" lon="10.4963600">
	<ele>2450.40</ele>
	<time>2023-08-07T10:14:48.000Z</time>
</trkpt>
<trkpt lat="46.1260370" lon="10.4963620">
	<ele>2450.60</ele>
	<time>2023-08-07T10:14:49.000Z</time>
</trkpt>
<trkpt lat="46.1260240" lon="10.4963600">
	<ele>2450.60</ele>
	<time>2023-08-07T10:14:50.000Z</time>
</trkpt>
<trkpt lat="46.1260150" lon="10.4963560">
	<ele>2450.60</ele>
	<time>2023-08-07T10:14:51.000Z</time>
</trkpt>
<trkpt lat="46.1260210" lon="10.4963590">
	<ele>2450.60</ele>
	<time>2023-08-07T10:14:52.000Z</time>
</trkpt>
<trkpt lat="46.1260000" lon="10.4963610">
	<ele>2450.60</ele>
	<time>2023-08-07T10:14:53.000Z</time>
</trkpt>
<trkpt lat="46.1259810" lon="10.4963580">
	<ele>2450.80</ele>
	<time>2023-08-07T10:14:54.000Z</time>
</trkpt>
<trkpt lat="46.1259630" lon="10.4963510">
	<ele>2450.80</ele>
	<time>2023-08-07T10:14:55.000Z</time>
</trkpt>
<trkpt lat="46.1259630" lon="10.4963470">
	<ele>2450.80</ele>
	<time>2023-08-07T10:14:56.000Z</time>
</trkpt>
<trkpt lat="46.1259670" lon="10.4963530">
	<ele>2450.80</ele>
	<time>2023-08-07T10:14:57.000Z</time>
</trkpt>
<trkpt lat="46.1259680" lon="10.4963610">
	<ele>2450.80</ele>
	<time>2023-08-07T10:14:58.000Z</time>
</trkpt>
<trkpt lat="46.1259530" lon="10.4963630">
	<ele>2450.80</ele>
	<time>2023-08-07T10:14:59.000Z</time>
</trkpt>
<trkpt lat="46.1259510" lon="10.4963670">
	<ele>2451.00</ele>
	<time>2023-08-07T10:15:00.000Z</time>
</trkpt>
<trkpt lat="46.1259490" lon="10.4963670">
	<ele>2451.40</ele>
	<time>2023-08-07T10:15:01.000Z</time>
</trkpt>
<trkpt lat="46.1259490" lon="10.4963730">
	<ele>2451.80</ele>
	<time>2023-08-07T10:15:02.000Z</time>
</trkpt>
<trkpt lat="46.1259490" lon="10.4963590">
	<ele>2451.80</ele>
	<time>2023-08-07T10:15:03.000Z</time>
</trkpt>
<trkpt lat="46.1259500" lon="10.4963460">
	<ele>2452.00</ele>
	<time>2023-08-07T10:15:04.000Z</time>
</trkpt>
<trkpt lat="46.1259510" lon="10.4963430">
	<ele>2452.00</ele>
	<time>2023-08-07T10:15:05.000Z</time>
</trkpt>
<trkpt lat="46.1259510" lon="10.4963420">
	<ele>2452.20</ele>
	<time>2023-08-07T10:15:06.000Z</time>
</trkpt>
<trkpt lat="46.1259520" lon="10.4963400">
	<ele>2452.00</ele>
	<time>2023-08-07T10:15:07.000Z</time>
</trkpt>
<trkpt lat="46.1259490" lon="10.4963390">
	<ele>2452.00</ele>
	<time>2023-08-07T10:15:08.000Z</time>
</trkpt>
<trkpt lat="46.1259490" lon="10.4963380">
	<ele>2452.00</ele>
	<time>2023-08-07T10:15:09.000Z</time>
</trkpt>
<trkpt lat="46.1259490" lon="10.4963380">
	<ele>2451.80</ele>
	<time>2023-08-07T10:15:10.000Z</time>
</trkpt>
<trkpt lat="46.1259490" lon="10.4963380">
	<ele>2451.80</ele>
	<time>2023-08-07T10:15:11.000Z</time>
</trkpt>
<trkpt lat="46.1259490" lon="10.4963380">
	<ele>2451.80</ele>
	<time>2023-08-07T10:15:12.000Z</time>
</trkpt>
<trkpt lat="46.1259490" lon="10.4963380">
	<ele>2451.80</ele>
	<time>2023-08-07T10:15:13.000Z</time>
</trkpt>
<trkpt lat="46.1259490" lon="10.4963380">
	<ele>2451.80</ele>
	<time>2023-08-07T10:15:14.000Z</time>
</trkpt>
<trkpt lat="46.1259490" lon="10.4963380">
	<ele>2451.80</ele>
	<time>2023-08-07T10:15:15.000Z</time>
</trkpt>
<trkpt lat="46.1259490" lon="10.4963380">
	<ele>2451.80</ele>
	<time>2023-08-07T10:15:16.000Z</time>
</trkpt>
<trkpt lat="46.1259490" lon="10.4963390">
	<ele>2451.80</ele>
	<time>2023-08-07T10:15:17.000Z</time>
</trkpt>
<trkpt lat="46.1259490" lon="10.4963400">
	<ele>2452.00</ele>
	<time>2023-08-07T10:15:18.000Z</time>
</trkpt>
<trkpt lat="46.1259490" lon="10.4963410">
	<ele>2452.00</ele>
	<time>2023-08-07T10:15:19.000Z</time>
</trkpt>
<trkpt lat="46.1259490" lon="10.4963420">
	<ele>2452.00</ele>
	<time>2023-08-07T10:15:20.000Z</time>
</trkpt>
<trkpt lat="46.1259490" lon="10.4963430">
	<ele>2452.00</ele>
	<time>2023-08-07T10:15:21.000Z</time>
</trkpt>
<trkpt lat="46.1259490" lon="10.4963460">
	<ele>2452.00</ele>
	<time>2023-08-07T10:15:22.000Z</time>
</trkpt>
<trkpt lat="46.1259490" lon="10.4963460">
	<ele>2452.00</ele>
	<time>2023-08-07T10:15:23.000Z</time>
</trkpt>
<trkpt lat="46.1259490" lon="10.4963510">
	<ele>2452.00</ele>
	<time>2023-08-07T10:15:24.000Z</time>
</trkpt>
<trkpt lat="46.1259490" lon="10.4963540">
	<ele>2452.20</ele>
	<time>2023-08-07T10:15:25.000Z</time>
</trkpt>
<trkpt lat="46.1259490" lon="10.4963560">
	<ele>2452.00</ele>
	<time>2023-08-07T10:15:26.000Z</time>
</trkpt>
<trkpt lat="46.1259490" lon="10.4963570">
	<ele>2452.00</ele>
	<time>2023-08-07T10:15:27.000Z</time>
</trkpt>
<trkpt lat="46.1259490" lon="10.4963590">
	<ele>2452.00</ele>
	<time>2023-08-07T10:15:28.000Z</time>
</trkpt>
<trkpt lat="46.1259490" lon="10.4963590">
	<ele>2451.80</ele>
	<time>2023-08-07T10:15:29.000Z</time>
</trkpt>
<trkpt lat="46.1259490" lon="10.4963590">
	<ele>2451.80</ele>
	<time>2023-08-07T10:15:30.000Z</time>
</trkpt>
<trkpt lat="46.1259490" lon="10.4963570">
	<ele>2451.80</ele>
	<time>2023-08-07T10:15:31.000Z</time>
</trkpt>
<trkpt lat="46.1259490" lon="10.4963560">
	<ele>2452.00</ele>
	<time>2023-08-07T10:15:32.000Z</time>
</trkpt>
<trkpt lat="46.1259500" lon="10.4963550">
	<ele>2452.00</ele>
	<time>2023-08-07T10:15:33.000Z</time>
</trkpt>
<trkpt lat="46.1259500" lon="10.4963550">
	<ele>2452.00</ele>
	<time>2023-08-07T10:15:34.000Z</time>
</trkpt>
<trkpt lat="46.1259500" lon="10.4963550">
	<ele>2452.20</ele>
	<time>2023-08-07T10:15:35.000Z</time>
</trkpt>
<trkpt lat="46.1259500" lon="10.4963550">
	<ele>2452.60</ele>
	<time>2023-08-07T10:15:36.000Z</time>
</trkpt>
<trkpt lat="46.1259500" lon="10.4963560">
	<ele>2452.80</ele>
	<time>2023-08-07T10:15:37.000Z</time>
</trkpt>
<trkpt lat="46.1259510" lon="10.4963560">
	<ele>2453.00</ele>
	<time>2023-08-07T10:15:38.000Z</time>
</trkpt>
<trkpt lat="46.1259530" lon="10.4963550">
	<ele>2453.20</ele>
	<time>2023-08-07T10:15:39.000Z</time>
</trkpt>
<trkpt lat="46.1259530" lon="10.4963590">
	<ele>2453.40</ele>
	<time>2023-08-07T10:15:40.000Z</time>
</trkpt>
<trkpt lat="46.1259540" lon="10.4963600">
	<ele>2453.60</ele>
	<time>2023-08-07T10:15:41.000Z</time>
</trkpt>
<trkpt lat="46.1259580" lon="10.4963600">
	<ele>2453.80</ele>
	<time>2023-08-07T10:15:42.000Z</time>
</trkpt>
<trkpt lat="46.1259570" lon="10.4963590">
	<ele>2453.80</ele>
	<time>2023-08-07T10:15:43.000Z</time>
</trkpt>
<trkpt lat="46.1259570" lon="10.4963630">
	<ele>2453.80</ele>
	<time>2023-08-07T10:15:44.000Z</time>
</trkpt>
<trkpt lat="46.1259570" lon="10.4963620">
	<ele>2454.00</ele>
	<time>2023-08-07T10:15:45.000Z</time>
</trkpt>
<trkpt lat="46.1259680" lon="10.4963480">
	<ele>2454.00</ele>
	<time>2023-08-07T10:15:46.000Z</time>
</trkpt>
<trkpt lat="46.1259770" lon="10.4963410">
	<ele>2454.20</ele>
	<time>2023-08-07T10:15:47.000Z</time>
</trkpt>
<trkpt lat="46.1259770" lon="10.4963390">
	<ele>2454.40</ele>
	<time>2023-08-07T10:15:48.000Z</time>
</trkpt>
<trkpt lat="46.1259780" lon="10.4963380">
	<ele>2454.40</ele>
	<time>2023-08-07T10:15:49.000Z</time>
</trkpt>
<trkpt lat="46.1259730" lon="10.4963360">
	<ele>2454.60</ele>
	<time>2023-08-07T10:15:50.000Z</time>
</trkpt>
<trkpt lat="46.1259810" lon="10.4963200">
	<ele>2454.60</ele>
	<time>2023-08-07T10:15:51.000Z</time>
</trkpt>
<trkpt lat="46.1259880" lon="10.4963120">
	<ele>2455.00</ele>
	<time>2023-08-07T10:15:52.000Z</time>
</trkpt>
<trkpt lat="46.1259900" lon="10.4963090">
	<ele>2455.20</ele>
	<time>2023-08-07T10:15:53.000Z</time>
</trkpt>
<trkpt lat="46.1259960" lon="10.4963080">
	<ele>2455.40</ele>
	<time>2023-08-07T10:15:54.000Z</time>
</trkpt>
<trkpt lat="46.1259980" lon="10.4962970">
	<ele>2455.40</ele>
	<time>2023-08-07T10:15:55.000Z</time>
</trkpt>
<trkpt lat="46.1260020" lon="10.4962950">
	<ele>2455.80</ele>
	<time>2023-08-07T10:15:56.000Z</time>
</trkpt>
<trkpt lat="46.1260040" lon="10.4962950">
	<ele>2456.00</ele>
	<time>2023-08-07T10:15:57.000Z</time>
</trkpt>
<trkpt lat="46.1260040" lon="10.4962980">
	<ele>2456.40</ele>
	<time>2023-08-07T10:15:58.000Z</time>
</trkpt>
<trkpt lat="46.1260040" lon="10.4963030">
	<ele>2456.60</ele>
	<time>2023-08-07T10:15:59.000Z</time>
</trkpt>
<trkpt lat="46.1260050" lon="10.4963050">
	<ele>2456.60</ele>
	<time>2023-08-07T10:16:00.000Z</time>
</trkpt>
<trkpt lat="46.1260080" lon="10.4963050">
	<ele>2456.80</ele>
	<time>2023-08-07T10:16:01.000Z</time>
</trkpt>
<trkpt lat="46.1260090" lon="10.4963070">
	<ele>2457.00</ele>
	<time>2023-08-07T10:16:02.000Z</time>
</trkpt>
<trkpt lat="46.1260050" lon="10.4963090">
	<ele>2457.00</ele>
	<time>2023-08-07T10:16:03.000Z</time>
</trkpt>
<trkpt lat="46.1260040" lon="10.4963120">
	<ele>2457.00</ele>
	<time>2023-08-07T10:16:04.000Z</time>
</trkpt>
<trkpt lat="46.1260030" lon="10.4963120">
	<ele>2457.00</ele>
	<time>2023-08-07T10:16:05.000Z</time>
</trkpt>
<trkpt lat="46.1260020" lon="10.4963090">
	<ele>2457.00</ele>
	<time>2023-08-07T10:16:06.000Z</time>
</trkpt>
<trkpt lat="46.1260070" lon="10.4963070">
	<ele>2457.00</ele>
	<time>2023-08-07T10:16:07.000Z</time>
</trkpt>
<trkpt lat="46.1260140" lon="10.4962990">
	<ele>2457.00</ele>
	<time>2023-08-07T10:16:08.000Z</time>
</trkpt>
<trkpt lat="46.1260190" lon="10.4962930">
	<ele>2457.40</ele>
	<time>2023-08-07T10:16:09.000Z</time>
</trkpt>
<trkpt lat="46.1260220" lon="10.4962900">
	<ele>2457.60</ele>
	<time>2023-08-07T10:16:10.000Z</time>
</trkpt>
<trkpt lat="46.1260250" lon="10.4962870">
	<ele>2457.60</ele>
	<time>2023-08-07T10:16:11.000Z</time>
</trkpt>
<trkpt lat="46.1260310" lon="10.4962820">
	<ele>2457.80</ele>
	<time>2023-08-07T10:16:12.000Z</time>
</trkpt>
<trkpt lat="46.1260330" lon="10.4962810">
	<ele>2457.80</ele>
	<time>2023-08-07T10:16:13.000Z</time>
</trkpt>
<trkpt lat="46.1260350" lon="10.4962800">
	<ele>2458.00</ele>
	<time>2023-08-07T10:16:14.000Z</time>
</trkpt>
<trkpt lat="46.1260360" lon="10.4962740">
	<ele>2458.00</ele>
	<time>2023-08-07T10:16:15.000Z</time>
</trkpt>
<trkpt lat="46.1260360" lon="10.4962660">
	<ele>2458.20</ele>
	<time>2023-08-07T10:16:16.000Z</time>
</trkpt>
<trkpt lat="46.1260350" lon="10.4962610">
	<ele>2458.20</ele>
	<time>2023-08-07T10:16:17.000Z</time>
</trkpt>
<trkpt lat="46.1260330" lon="10.4962560">
	<ele>2458.60</ele>
	<time>2023-08-07T10:16:18.000Z</time>
</trkpt>
<trkpt lat="46.1260310" lon="10.4962540">
	<ele>2458.80</ele>
	<time>2023-08-07T10:16:19.000Z</time>
</trkpt>
<trkpt lat="46.1260220" lon="10.4962470">
	<ele>2459.00</ele>
	<time>2023-08-07T10:16:20.000Z</time>
</trkpt>
<trkpt lat="46.1260200" lon="10.4962440">
	<ele>2459.40</ele>
	<time>2023-08-07T10:16:21.000Z</time>
</trkpt>
<trkpt lat="46.1260160" lon="10.4962410">
	<ele>2459.60</ele>
	<time>2023-08-07T10:16:22.000Z</time>
</trkpt>
<trkpt lat="46.1260130" lon="10.4962390">
	<ele>2459.60</ele>
	<time>2023-08-07T10:16:23.000Z</time>
</trkpt>
<trkpt lat="46.1260060" lon="10.4962370">
	<ele>2459.80</ele>
	<time>2023-08-07T10:16:24.000Z</time>
</trkpt>
<trkpt lat="46.1260000" lon="10.4962350">
	<ele>2459.80</ele>
	<time>2023-08-07T10:16:25.000Z</time>
</trkpt>
<trkpt lat="46.1259960" lon="10.4962310">
	<ele>2460.00</ele>
	<time>2023-08-07T10:16:26.000Z</time>
</trkpt>
<trkpt lat="46.1259940" lon="10.4962300">
	<ele>2460.20</ele>
	<time>2023-08-07T10:16:27.000Z</time>
</trkpt>
<trkpt lat="46.1259880" lon="10.4962330">
	<ele>2460.60</ele>
	<time>2023-08-07T10:16:28.000Z</time>
</trkpt>
<trkpt lat="46.1259870" lon="10.4962350">
	<ele>2460.60</ele>
	<time>2023-08-07T10:16:29.000Z</time>
</trkpt>
<trkpt lat="46.1259840" lon="10.4962340">
	<ele>2460.80</ele>
	<time>2023-08-07T10:16:30.000Z</time>
</trkpt>
<trkpt lat="46.1259800" lon="10.4962320">
	<ele>2461.00</ele>
	<time>2023-08-07T10:16:31.000Z</time>
</trkpt>
<trkpt lat="46.1259800" lon="10.4962290">
	<ele>2461.00</ele>
	<time>2023-08-07T10:16:32.000Z</time>
</trkpt>
<trkpt lat="46.1259780" lon="10.4962230">
	<ele>2461.20</ele>
	<time>2023-08-07T10:16:33.000Z</time>
</trkpt>
<trkpt lat="46.1259750" lon="10.4962190">
	<ele>2461.40</ele>
	<time>2023-08-07T10:16:34.000Z</time>
</trkpt>
<trkpt lat="46.1259740" lon="10.4962170">
	<ele>2461.60</ele>
	<time>2023-08-07T10:16:35.000Z</time>
</trkpt>
<trkpt lat="46.1259720" lon="10.4962140">
	<ele>2462.00</ele>
	<time>2023-08-07T10:16:36.000Z</time>
</trkpt>
<trkpt lat="46.1259670" lon="10.4962130">
	<ele>2462.20</ele>
	<time>2023-08-07T10:16:37.000Z</time>
</trkpt>
<trkpt lat="46.1259660" lon="10.4962120">
	<ele>2462.40</ele>
	<time>2023-08-07T10:16:38.000Z</time>
</trkpt>
<trkpt lat="46.1259630" lon="10.4962090">
	<ele>2462.60</ele>
	<time>2023-08-07T10:16:39.000Z</time>
</trkpt>
<trkpt lat="46.1259590" lon="10.4962030">
	<ele>2462.60</ele>
	<time>2023-08-07T10:16:40.000Z</time>
</trkpt>
<trkpt lat="46.1259580" lon="10.4962000">
	<ele>2462.60</ele>
	<time>2023-08-07T10:16:41.000Z</time>
</trkpt>
<trkpt lat="46.1259550" lon="10.4962000">
	<ele>2462.60</ele>
	<time>2023-08-07T10:16:42.000Z</time>
</trkpt>
<trkpt lat="46.1259540" lon="10.4961980">
	<ele>2462.80</ele>
	<time>2023-08-07T10:16:43.000Z</time>
</trkpt>
<trkpt lat="46.1259520" lon="10.4961970">
	<ele>2462.80</ele>
	<time>2023-08-07T10:16:44.000Z</time>
</trkpt>
<trkpt lat="46.1259480" lon="10.4961960">
	<ele>2463.00</ele>
	<time>2023-08-07T10:16:45.000Z</time>
</trkpt>
<trkpt lat="46.1259440" lon="10.4961960">
	<ele>2463.20</ele>
	<time>2023-08-07T10:16:46.000Z</time>
</trkpt>
<trkpt lat="46.1259430" lon="10.4961950">
	<ele>2463.20</ele>
	<time>2023-08-07T10:16:47.000Z</time>
</trkpt>
<trkpt lat="46.1259430" lon="10.4961920">
	<ele>2463.40</ele>
	<time>2023-08-07T10:16:48.000Z</time>
</trkpt>
<trkpt lat="46.1259420" lon="10.4961880">
	<ele>2463.60</ele>
	<time>2023-08-07T10:16:49.000Z</time>
</trkpt>
<trkpt lat="46.1259430" lon="10.4961850">
	<ele>2463.80</ele>
	<time>2023-08-07T10:16:50.000Z</time>
</trkpt>
<trkpt lat="46.1259430" lon="10.4961810">
	<ele>2464.20</ele>
	<time>2023-08-07T10:16:51.000Z</time>
</trkpt>
<trkpt lat="46.1259420" lon="10.4961790">
	<ele>2464.40</ele>
	<time>2023-08-07T10:16:52.000Z</time>
</trkpt>
<trkpt lat="46.1259410" lon="10.4961740">
	<ele>2464.40</ele>
	<time>2023-08-07T10:16:53.000Z</time>
</trkpt>
<trkpt lat="46.1259400" lon="10.4961690">
	<ele>2464.60</ele>
	<time>2023-08-07T10:16:54.000Z</time>
</trkpt>
<trkpt lat="46.1259400" lon="10.4961660">
	<ele>2464.80</ele>
	<time>2023-08-07T10:16:55.000Z</time>
</trkpt>
<trkpt lat="46.1259390" lon="10.4961580">
	<ele>2465.00</ele>
	<time>2023-08-07T10:16:56.000Z</time>
</trkpt>
<trkpt lat="46.1259330" lon="10.4961520">
	<ele>2465.00</ele>
	<time>2023-08-07T10:16:57.000Z</time>
</trkpt>
<trkpt lat="46.1259290" lon="10.4961520">
	<ele>2465.20</ele>
	<time>2023-08-07T10:16:58.000Z</time>
</trkpt>
<trkpt lat="46.1259270" lon="10.4961570">
	<ele>2465.40</ele>
	<time>2023-08-07T10:16:59.000Z</time>
</trkpt>
<trkpt lat="46.1259270" lon="10.4961580">
	<ele>2465.40</ele>
	<time>2023-08-07T10:17:00.000Z</time>
</trkpt>
<trkpt lat="46.1259270" lon="10.4961600">
	<ele>2465.40</ele>
	<time>2023-08-07T10:17:01.000Z</time>
</trkpt>
<trkpt lat="46.1259270" lon="10.4961600">
	<ele>2465.40</ele>
	<time>2023-08-07T10:17:02.000Z</time>
</trkpt>
<trkpt lat="46.1259270" lon="10.4961600">
	<ele>2465.40</ele>
	<time>2023-08-07T10:17:03.000Z</time>
</trkpt>
<trkpt lat="46.1259270" lon="10.4961600">
	<ele>2465.40</ele>
	<time>2023-08-07T10:17:04.000Z</time>
</trkpt>
<trkpt lat="46.1259270" lon="10.4961600">
	<ele>2465.40</ele>
	<time>2023-08-07T10:17:05.000Z</time>
</trkpt>
<trkpt lat="46.1259270" lon="10.4961600">
	<ele>2465.40</ele>
	<time>2023-08-07T10:17:06.000Z</time>
</trkpt>
<trkpt lat="46.1259270" lon="10.4961600">
	<ele>2465.60</ele>
	<time>2023-08-07T10:17:07.000Z</time>
</trkpt>
<trkpt lat="46.1259270" lon="10.4961600">
	<ele>2465.60</ele>
	<time>2023-08-07T10:17:08.000Z</time>
</trkpt>
<trkpt lat="46.1259270" lon="10.4961600">
	<ele>2465.60</ele>
	<time>2023-08-07T10:17:09.000Z</time>
</trkpt>
<trkpt lat="46.1259270" lon="10.4961600">
	<ele>2465.80</ele>
	<time>2023-08-07T10:17:10.000Z</time>
</trkpt>
<trkpt lat="46.1259270" lon="10.4961600">
	<ele>2465.80</ele>
	<time>2023-08-07T10:17:11.000Z</time>
</trkpt>
<trkpt lat="46.1259270" lon="10.4961600">
	<ele>2465.80</ele>
	<time>2023-08-07T10:17:12.000Z</time>
</trkpt>
<trkpt lat="46.1259270" lon="10.4961600">
	<ele>2465.80</ele>
	<time>2023-08-07T10:17:13.000Z</time>
</trkpt>
<trkpt lat="46.1259270" lon="10.4961600">
	<ele>2466.00</ele>
	<time>2023-08-07T10:17:14.000Z</time>
</trkpt>
<trkpt lat="46.1259270" lon="10.4961600">
	<ele>2466.20</ele>
	<time>2023-08-07T10:17:15.000Z</time>
</trkpt>
<trkpt lat="46.1259280" lon="10.4961580">
	<ele>2466.40</ele>
	<time>2023-08-07T10:17:16.000Z</time>
</trkpt>
<trkpt lat="46.1259290" lon="10.4961580">
	<ele>2466.40</ele>
	<time>2023-08-07T10:17:17.000Z</time>
</trkpt>
<trkpt lat="46.1259290" lon="10.4961580">
	<ele>2466.60</ele>
	<time>2023-08-07T10:17:18.000Z</time>
</trkpt>
<trkpt lat="46.1259300" lon="10.4961570">
	<ele>2466.80</ele>
	<time>2023-08-07T10:17:19.000Z</time>
</trkpt>
<trkpt lat="46.1259300" lon="10.4961520">
	<ele>2467.00</ele>
	<time>2023-08-07T10:17:20.000Z</time>
</trkpt>
<trkpt lat="46.1259300" lon="10.4961520">
	<ele>2467.20</ele>
	<time>2023-08-07T10:17:21.000Z</time>
</trkpt>
<trkpt lat="46.1259310" lon="10.4961510">
	<ele>2467.40</ele>
	<time>2023-08-07T10:17:22.000Z</time>
</trkpt>
<trkpt lat="46.1259310" lon="10.4961480">
	<ele>2467.60</ele>
	<time>2023-08-07T10:17:23.000Z</time>
</trkpt>
<trkpt lat="46.1259310" lon="10.4961470">
	<ele>2467.60</ele>
	<time>2023-08-07T10:17:24.000Z</time>
</trkpt>
<trkpt lat="46.1259310" lon="10.4961470">
	<ele>2467.80</ele>
	<time>2023-08-07T10:17:25.000Z</time>
</trkpt>
<trkpt lat="46.1259310" lon="10.4961460">
	<ele>2467.80</ele>
	<time>2023-08-07T10:17:26.000Z</time>
</trkpt>
<trkpt lat="46.1259310" lon="10.4961390">
	<ele>2468.00</ele>
	<time>2023-08-07T10:17:27.000Z</time>
</trkpt>
<trkpt lat="46.1259310" lon="10.4961350">
	<ele>2468.00</ele>
	<time>2023-08-07T10:17:28.000Z</time>
</trkpt>
<trkpt lat="46.1259320" lon="10.4961320">
	<ele>2468.20</ele>
	<time>2023-08-07T10:17:29.000Z</time>
</trkpt>
<trkpt lat="46.1259320" lon="10.4961280">
	<ele>2468.20</ele>
	<time>2023-08-07T10:17:30.000Z</time>
</trkpt>
<trkpt lat="46.1259330" lon="10.4961230">
	<ele>2468.40</ele>
	<time>2023-08-07T10:17:31.000Z</time>
</trkpt>
<trkpt lat="46.1259340" lon="10.4961170">
	<ele>2468.60</ele>
	<time>2023-08-07T10:17:32.000Z</time>
</trkpt>
<trkpt lat="46.1259340" lon="10.4961090">
	<ele>2468.60</ele>
	<time>2023-08-07T10:17:33.000Z</time>
</trkpt>
<trkpt lat="46.1259340" lon="10.4961070">
	<ele>2468.80</ele>
	<time>2023-08-07T10:17:34.000Z</time>
</trkpt>
<trkpt lat="46.1259350" lon="10.4961050">
	<ele>2469.20</ele>
	<time>2023-08-07T10:17:35.000Z</time>
</trkpt>
<trkpt lat="46.1259350" lon="10.4961040">
	<ele>2469.40</ele>
	<time>2023-08-07T10:17:36.000Z</time>
</trkpt>
<trkpt lat="46.1259350" lon="10.4961040">
	<ele>2469.60</ele>
	<time>2023-08-07T10:17:37.000Z</time>
</trkpt>
<trkpt lat="46.1259360" lon="10.4961030">
	<ele>2469.80</ele>
	<time>2023-08-07T10:17:38.000Z</time>
</trkpt>
<trkpt lat="46.1259360" lon="10.4961000">
	<ele>2470.00</ele>
	<time>2023-08-07T10:17:39.000Z</time>
</trkpt>
<trkpt lat="46.1259380" lon="10.4960960">
	<ele>2470.00</ele>
	<time>2023-08-07T10:17:40.000Z</time>
</trkpt>
<trkpt lat="46.1259390" lon="10.4960890">
	<ele>2470.00</ele>
	<time>2023-08-07T10:17:41.000Z</time>
</trkpt>
<trkpt lat="46.1259400" lon="10.4960860">
	<ele>2470.20</ele>
	<time>2023-08-07T10:17:42.000Z</time>
</trkpt>
<trkpt lat="46.1259400" lon="10.4960840">
	<ele>2470.40</ele>
	<time>2023-08-07T10:17:43.000Z</time>
</trkpt>
<trkpt lat="46.1259400" lon="10.4960820">
	<ele>2470.40</ele>
	<time>2023-08-07T10:17:44.000Z</time>
</trkpt>
<trkpt lat="46.1259400" lon="10.4960770">
	<ele>2470.60</ele>
	<time>2023-08-07T10:17:45.000Z</time>
</trkpt>
<trkpt lat="46.1259400" lon="10.4960730">
	<ele>2470.60</ele>
	<time>2023-08-07T10:17:46.000Z</time>
</trkpt>
<trkpt lat="46.1259400" lon="10.4960700">
	<ele>2470.60</ele>
	<time>2023-08-07T10:17:47.000Z</time>
</trkpt>
<trkpt lat="46.1259400" lon="10.4960660">
	<ele>2470.60</ele>
	<time>2023-08-07T10:17:48.000Z</time>
</trkpt>
<trkpt lat="46.1259400" lon="10.4960630">
	<ele>2470.60</ele>
	<time>2023-08-07T10:17:49.000Z</time>
</trkpt>
<trkpt lat="46.1259400" lon="10.4960580">
	<ele>2470.80</ele>
	<time>2023-08-07T10:17:50.000Z</time>
</trkpt>
<trkpt lat="46.1259400" lon="10.4960500">
	<ele>2470.80</ele>
	<time>2023-08-07T10:17:51.000Z</time>
</trkpt>
<trkpt lat="46.1259400" lon="10.4960410">
	<ele>2470.80</ele>
	<time>2023-08-07T10:17:52.000Z</time>
</trkpt>
<trkpt lat="46.1259400" lon="10.4960330">
	<ele>2470.80</ele>
	<time>2023-08-07T10:17:53.000Z</time>
</trkpt>
<trkpt lat="46.1259400" lon="10.4960300">
	<ele>2470.80</ele>
	<time>2023-08-07T10:17:54.000Z</time>
</trkpt>
<trkpt lat="46.1259400" lon="10.4960290">
	<ele>2470.80</ele>
	<time>2023-08-07T10:17:55.000Z</time>
</trkpt>
<trkpt lat="46.1259370" lon="10.4960280">
	<ele>2470.60</ele>
	<time>2023-08-07T10:17:56.000Z</time>
</trkpt>
<trkpt lat="46.1259340" lon="10.4960220">
	<ele>2470.40</ele>
	<time>2023-08-07T10:17:57.000Z</time>
</trkpt>
<trkpt lat="46.1259320" lon="10.4960170">
	<ele>2470.20</ele>
	<time>2023-08-07T10:17:58.000Z</time>
</trkpt>
<trkpt lat="46.1259310" lon="10.4960130">
	<ele>2470.20</ele>
	<time>2023-08-07T10:17:59.000Z</time>
</trkpt>
<trkpt lat="46.1259310" lon="10.4960100">
	<ele>2470.20</ele>
	<time>2023-08-07T10:18:00.000Z</time>
</trkpt>
<trkpt lat="46.1259300" lon="10.4960060">
	<ele>2470.20</ele>
	<time>2023-08-07T10:18:01.000Z</time>
</trkpt>
<trkpt lat="46.1259280" lon="10.4960040">
	<ele>2470.00</ele>
	<time>2023-08-07T10:18:02.000Z</time>
</trkpt>
<trkpt lat="46.1259260" lon="10.4959990">
	<ele>2470.20</ele>
	<time>2023-08-07T10:18:03.000Z</time>
</trkpt>
<trkpt lat="46.1259250" lon="10.4959920">
	<ele>2470.20</ele>
	<time>2023-08-07T10:18:04.000Z</time>
</trkpt>
<trkpt lat="46.1259230" lon="10.4959850">
	<ele>2470.40</ele>
	<time>2023-08-07T10:18:05.000Z</time>
</trkpt>
<trkpt lat="46.1259210" lon="10.4959790">
	<ele>2470.40</ele>
	<time>2023-08-07T10:18:06.000Z</time>
</trkpt>
<trkpt lat="46.1259180" lon="10.4959670">
	<ele>2470.60</ele>
	<time>2023-08-07T10:18:07.000Z</time>
</trkpt>
<trkpt lat="46.1259180" lon="10.4959490">
	<ele>2470.60</ele>
	<time>2023-08-07T10:18:08.000Z</time>
</trkpt>
<trkpt lat="46.1259170" lon="10.4959230">
	<ele>2470.80</ele>
	<time>2023-08-07T10:18:09.000Z</time>
</trkpt>
<trkpt lat="46.1259130" lon="10.4958970">
	<ele>2471.00</ele>
	<time>2023-08-07T10:18:10.000Z</time>
</trkpt>
<trkpt lat="46.1259100" lon="10.4958790">
	<ele>2471.00</ele>
	<time>2023-08-07T10:18:11.000Z</time>
</trkpt>
<trkpt lat="46.1259100" lon="10.4958550">
	<ele>2471.40</ele>
	<time>2023-08-07T10:18:12.000Z</time>
</trkpt>
<trkpt lat="46.1259080" lon="10.4958290">
	<ele>2471.40</ele>
	<time>2023-08-07T10:18:13.000Z</time>
</trkpt>
<trkpt lat="46.1259000" lon="10.4958130">
	<ele>2471.60</ele>
	<time>2023-08-07T10:18:14.000Z</time>
</trkpt>
<trkpt lat="46.1258940" lon="10.4957970">
	<ele>2471.80</ele>
	<time>2023-08-07T10:18:15.000Z</time>
</trkpt>
<trkpt lat="46.1258860" lon="10.4957800">
	<ele>2471.80</ele>
	<time>2023-08-07T10:18:16.000Z</time>
</trkpt>
<trkpt lat="46.1258820" lon="10.4957690">
	<ele>2471.80</ele>
	<time>2023-08-07T10:18:17.000Z</time>
</trkpt>
<trkpt lat="46.1258820" lon="10.4957560">
	<ele>2472.00</ele>
	<time>2023-08-07T10:18:18.000Z</time>
</trkpt>
<trkpt lat="46.1258830" lon="10.4957470">
	<ele>2472.00</ele>
	<time>2023-08-07T10:18:19.000Z</time>
</trkpt>
<trkpt lat="46.1258890" lon="10.4957380">
	<ele>2472.00</ele>
	<time>2023-08-07T10:18:20.000Z</time>
</trkpt>
<trkpt lat="46.1258900" lon="10.4957320">
	<ele>2472.20</ele>
	<time>2023-08-07T10:18:21.000Z</time>
</trkpt>
<trkpt lat="46.1258910" lon="10.4957280">
	<ele>2472.20</ele>
	<time>2023-08-07T10:18:22.000Z</time>
</trkpt>
<trkpt lat="46.1258900" lon="10.4957290">
	<ele>2472.20</ele>
	<time>2023-08-07T10:18:23.000Z</time>
</trkpt>
<trkpt lat="46.1258900" lon="10.4957290">
	<ele>2472.20</ele>
	<time>2023-08-07T10:18:24.000Z</time>
</trkpt>
<trkpt lat="46.1258910" lon="10.4957270">
	<ele>2472.20</ele>
	<time>2023-08-07T10:18:25.000Z</time>
</trkpt>
<trkpt lat="46.1258930" lon="10.4957260">
	<ele>2472.20</ele>
	<time>2023-08-07T10:18:26.000Z</time>
</trkpt>
<trkpt lat="46.1258950" lon="10.4957220">
	<ele>2472.20</ele>
	<time>2023-08-07T10:18:27.000Z</time>
</trkpt>
<trkpt lat="46.1258950" lon="10.4957190">
	<ele>2472.60</ele>
	<time>2023-08-07T10:18:28.000Z</time>
</trkpt>
<trkpt lat="46.1258950" lon="10.4957180">
	<ele>2472.80</ele>
	<time>2023-08-07T10:18:29.000Z</time>
</trkpt>
<trkpt lat="46.1258940" lon="10.4957180">
	<ele>2472.80</ele>
	<time>2023-08-07T10:18:30.000Z</time>
</trkpt>
<trkpt lat="46.1258940" lon="10.4957180">
	<ele>2473.00</ele>
	<time>2023-08-07T10:18:31.000Z</time>
</trkpt>
<trkpt lat="46.1258930" lon="10.4957170">
	<ele>2473.00</ele>
	<time>2023-08-07T10:18:32.000Z</time>
</trkpt>
<trkpt lat="46.1258930" lon="10.4957170">
	<ele>2473.00</ele>
	<time>2023-08-07T10:18:33.000Z</time>
</trkpt>
<trkpt lat="46.1258930" lon="10.4957170">
	<ele>2473.00</ele>
	<time>2023-08-07T10:18:34.000Z</time>
</trkpt>
<trkpt lat="46.1258930" lon="10.4957170">
	<ele>2473.00</ele>
	<time>2023-08-07T10:18:35.000Z</time>
</trkpt>
<trkpt lat="46.1258930" lon="10.4957170">
	<ele>2472.80</ele>
	<time>2023-08-07T10:18:36.000Z</time>
</trkpt>
<trkpt lat="46.1258930" lon="10.4957170">
	<ele>2472.60</ele>
	<time>2023-08-07T10:18:37.000Z</time>
</trkpt>
<trkpt lat="46.1258930" lon="10.4957170">
	<ele>2472.40</ele>
	<time>2023-08-07T10:18:38.000Z</time>
</trkpt>
<trkpt lat="46.1258930" lon="10.4957170">
	<ele>2472.20</ele>
	<time>2023-08-07T10:18:39.000Z</time>
</trkpt>
<trkpt lat="46.1258930" lon="10.4957180">
	<ele>2472.20</ele>
	<time>2023-08-07T10:18:40.000Z</time>
</trkpt>
<trkpt lat="46.1258930" lon="10.4957180">
	<ele>2472.20</ele>
	<time>2023-08-07T10:18:41.000Z</time>
</trkpt>
<trkpt lat="46.1258930" lon="10.4957180">
	<ele>2472.40</ele>
	<time>2023-08-07T10:18:42.000Z</time>
</trkpt>
<trkpt lat="46.1258930" lon="10.4957190">
	<ele>2472.40</ele>
	<time>2023-08-07T10:18:43.000Z</time>
</trkpt>
<trkpt lat="46.1258930" lon="10.4957200">
	<ele>2472.60</ele>
	<time>2023-08-07T10:18:44.000Z</time>
</trkpt>
<trkpt lat="46.1258930" lon="10.4957210">
	<ele>2472.60</ele>
	<time>2023-08-07T10:18:45.000Z</time>
</trkpt>
<trkpt lat="46.1258930" lon="10.4957210">
	<ele>2472.60</ele>
	<time>2023-08-07T10:18:46.000Z</time>
</trkpt>
<trkpt lat="46.1258930" lon="10.4957210">
	<ele>2472.60</ele>
	<time>2023-08-07T10:18:47.000Z</time>
</trkpt>
<trkpt lat="46.1258920" lon="10.4957210">
	<ele>2472.60</ele>
	<time>2023-08-07T10:18:48.000Z</time>
</trkpt>
<trkpt lat="46.1258890" lon="10.4957190">
	<ele>2472.60</ele>
	<time>2023-08-07T10:18:49.000Z</time>
</trkpt>
<trkpt lat="46.1258860" lon="10.4957160">
	<ele>2472.60</ele>
	<time>2023-08-07T10:18:50.000Z</time>
</trkpt>
<trkpt lat="46.1258830" lon="10.4957140">
	<ele>2472.60</ele>
	<time>2023-08-07T10:18:51.000Z</time>
</trkpt>
<trkpt lat="46.1258810" lon="10.4957150">
	<ele>2472.60</ele>
	<time>2023-08-07T10:18:52.000Z</time>
</trkpt>
<trkpt lat="46.1258790" lon="10.4957140">
	<ele>2472.60</ele>
	<time>2023-08-07T10:18:53.000Z</time>
</trkpt>
<trkpt lat="46.1258760" lon="10.4957110">
	<ele>2472.60</ele>
	<time>2023-08-07T10:18:54.000Z</time>
</trkpt>
<trkpt lat="46.1258730" lon="10.4957080">
	<ele>2472.60</ele>
	<time>2023-08-07T10:18:55.000Z</time>
</trkpt>
<trkpt lat="46.1258730" lon="10.4957080">
	<ele>2472.60</ele>
	<time>2023-08-07T10:18:56.000Z</time>
</trkpt>
<trkpt lat="46.1258730" lon="10.4957080">
	<ele>2472.60</ele>
	<time>2023-08-07T10:18:57.000Z</time>
</trkpt>
<trkpt lat="46.1258730" lon="10.4957080">
	<ele>2472.60</ele>
	<time>2023-08-07T10:18:58.000Z</time>
</trkpt>
<trkpt lat="46.1258730" lon="10.4957080">
	<ele>2472.60</ele>
	<time>2023-08-07T10:18:59.000Z</time>
</trkpt>
<trkpt lat="46.1258730" lon="10.4957080">
	<ele>2472.40</ele>
	<time>2023-08-07T10:19:00.000Z</time>
</trkpt>
<trkpt lat="46.1258730" lon="10.4957080">
	<ele>2472.40</ele>
	<time>2023-08-07T10:19:01.000Z</time>
</trkpt>
<trkpt lat="46.1258710" lon="10.4957080">
	<ele>2472.40</ele>
	<time>2023-08-07T10:19:02.000Z</time>
</trkpt>
<trkpt lat="46.1258650" lon="10.4957080">
	<ele>2472.40</ele>
	<time>2023-08-07T10:19:03.000Z</time>
</trkpt>
<trkpt lat="46.1258630" lon="10.4957070">
	<ele>2472.40</ele>
	<time>2023-08-07T10:19:04.000Z</time>
</trkpt>
<trkpt lat="46.1258630" lon="10.4957070">
	<ele>2472.20</ele>
	<time>2023-08-07T10:19:05.000Z</time>
</trkpt>
<trkpt lat="46.1258620" lon="10.4957070">
	<ele>2472.20</ele>
	<time>2023-08-07T10:19:06.000Z</time>
</trkpt>
<trkpt lat="46.1258610" lon="10.4957050">
	<ele>2472.20</ele>
	<time>2023-08-07T10:19:07.000Z</time>
</trkpt>
<trkpt lat="46.1258600" lon="10.4957030">
	<ele>2472.20</ele>
	<time>2023-08-07T10:19:08.000Z</time>
</trkpt>
<trkpt lat="46.1258600" lon="10.4957030">
	<ele>2472.00</ele>
	<time>2023-08-07T10:19:09.000Z</time>
</trkpt>
<trkpt lat="46.1258590" lon="10.4957030">
	<ele>2472.00</ele>
	<time>2023-08-07T10:19:10.000Z</time>
</trkpt>
<trkpt lat="46.1258560" lon="10.4957020">
	<ele>2472.00</ele>
	<time>2023-08-07T10:19:11.000Z</time>
</trkpt>
<trkpt lat="46.1258540" lon="10.4957020">
	<ele>2471.80</ele>
	<time>2023-08-07T10:19:12.000Z</time>
</trkpt>
<trkpt lat="46.1258540" lon="10.4957020">
	<ele>2471.80</ele>
	<time>2023-08-07T10:19:13.000Z</time>
</trkpt>
<trkpt lat="46.1258530" lon="10.4957020">
	<ele>2471.60</ele>
	<time>2023-08-07T10:19:14.000Z</time>
</trkpt>
<trkpt lat="46.1258530" lon="10.4957010">
	<ele>2471.60</ele>
	<time>2023-08-07T10:19:15.000Z</time>
</trkpt>
<trkpt lat="46.1258530" lon="10.4957010">
	<ele>2471.60</ele>
	<time>2023-08-07T10:19:16.000Z</time>
</trkpt>
<trkpt lat="46.1258520" lon="10.4957000">
	<ele>2471.60</ele>
	<time>2023-08-07T10:19:17.000Z</time>
</trkpt>
<trkpt lat="46.1258520" lon="10.4957000">
	<ele>2471.60</ele>
	<time>2023-08-07T10:19:18.000Z</time>
</trkpt>
<trkpt lat="46.1258520" lon="10.4956990">
	<ele>2471.40</ele>
	<time>2023-08-07T10:19:19.000Z</time>
</trkpt>
<trkpt lat="46.1258520" lon="10.4956970">
	<ele>2471.40</ele>
	<time>2023-08-07T10:19:20.000Z</time>
</trkpt>
<trkpt lat="46.1258520" lon="10.4956950">
	<ele>2471.40</ele>
	<time>2023-08-07T10:19:21.000Z</time>
</trkpt>
<trkpt lat="46.1258520" lon="10.4956900">
	<ele>2471.40</ele>
	<time>2023-08-07T10:19:22.000Z</time>
</trkpt>
<trkpt lat="46.1258510" lon="10.4956850">
	<ele>2471.20</ele>
	<time>2023-08-07T10:19:23.000Z</time>
</trkpt>
<trkpt lat="46.1258510" lon="10.4956810">
	<ele>2471.00</ele>
	<time>2023-08-07T10:19:24.000Z</time>
</trkpt>
<trkpt lat="46.1258510" lon="10.4956770">
	<ele>2471.00</ele>
	<time>2023-08-07T10:19:25.000Z</time>
</trkpt>
<trkpt lat="46.1258490" lon="10.4956710">
	<ele>2471.00</ele>
	<time>2023-08-07T10:19:26.000Z</time>
</trkpt>
<trkpt lat="46.1258470" lon="10.4956580">
	<ele>2471.00</ele>
	<time>2023-08-07T10:19:27.000Z</time>
</trkpt>
<trkpt lat="46.1258420" lon="10.4956440">
	<ele>2471.00</ele>
	<time>2023-08-07T10:19:28.000Z</time>
</trkpt>
<trkpt lat="46.1258420" lon="10.4956260">
	<ele>2471.00</ele>
	<time>2023-08-07T10:19:29.000Z</time>
</trkpt>
<trkpt lat="46.1258430" lon="10.4956070">
	<ele>2471.40</ele>
	<time>2023-08-07T10:19:30.000Z</time>
</trkpt>
<trkpt lat="46.1258470" lon="10.4955910">
	<ele>2471.80</ele>
	<time>2023-08-07T10:19:31.000Z</time>
</trkpt>
<trkpt lat="46.1258480" lon="10.4955800">
	<ele>2472.20</ele>
	<time>2023-08-07T10:19:32.000Z</time>
</trkpt>
<trkpt lat="46.1258480" lon="10.4955720">
	<ele>2472.40</ele>
	<time>2023-08-07T10:19:33.000Z</time>
</trkpt>
<trkpt lat="46.1258450" lon="10.4955640">
	<ele>2472.60</ele>
	<time>2023-08-07T10:19:34.000Z</time>
</trkpt>
<trkpt lat="46.1258410" lon="10.4955550">
	<ele>2472.60</ele>
	<time>2023-08-07T10:19:35.000Z</time>
</trkpt>
<trkpt lat="46.1258390" lon="10.4955490">
	<ele>2472.60</ele>
	<time>2023-08-07T10:19:36.000Z</time>
</trkpt>
<trkpt lat="46.1258340" lon="10.4955480">
	<ele>2472.60</ele>
	<time>2023-08-07T10:19:37.000Z</time>
</trkpt>
<trkpt lat="46.1258300" lon="10.4955360">
	<ele>2472.60</ele>
	<time>2023-08-07T10:19:38.000Z</time>
</trkpt>
<trkpt lat="46.1258250" lon="10.4955260">
	<ele>2472.60</ele>
	<time>2023-08-07T10:19:39.000Z</time>
</trkpt>
<trkpt lat="46.1258220" lon="10.4955240">
	<ele>2472.60</ele>
	<time>2023-08-07T10:19:40.000Z</time>
</trkpt>
<trkpt lat="46.1258150" lon="10.4955180">
	<ele>2472.60</ele>
	<time>2023-08-07T10:19:41.000Z</time>
</trkpt>
<trkpt lat="46.1258070" lon="10.4955090">
	<ele>2472.60</ele>
	<time>2023-08-07T10:19:42.000Z</time>
</trkpt>
<trkpt lat="46.1258050" lon="10.4955040">
	<ele>2472.60</ele>
	<time>2023-08-07T10:19:43.000Z</time>
</trkpt>
<trkpt lat="46.1258020" lon="10.4954970">
	<ele>2472.60</ele>
	<time>2023-08-07T10:19:44.000Z</time>
</trkpt>
<trkpt lat="46.1257960" lon="10.4954900">
	<ele>2472.60</ele>
	<time>2023-08-07T10:19:45.000Z</time>
</trkpt>
<trkpt lat="46.1257950" lon="10.4954860">
	<ele>2472.60</ele>
	<time>2023-08-07T10:19:46.000Z</time>
</trkpt>
<trkpt lat="46.1257920" lon="10.4954820">
	<ele>2472.60</ele>
	<time>2023-08-07T10:19:47.000Z</time>
</trkpt>
<trkpt lat="46.1257880" lon="10.4954730">
	<ele>2472.60</ele>
	<time>2023-08-07T10:19:48.000Z</time>
</trkpt>
<trkpt lat="46.1257850" lon="10.4954640">
	<ele>2472.60</ele>
	<time>2023-08-07T10:19:49.000Z</time>
</trkpt>
<trkpt lat="46.1257810" lon="10.4954540">
	<ele>2472.60</ele>
	<time>2023-08-07T10:19:50.000Z</time>
</trkpt>
<trkpt lat="46.1257760" lon="10.4954430">
	<ele>2472.60</ele>
	<time>2023-08-07T10:19:51.000Z</time>
</trkpt>
<trkpt lat="46.1257730" lon="10.4954360">
	<ele>2472.60</ele>
	<time>2023-08-07T10:19:52.000Z</time>
</trkpt>
<trkpt lat="46.1257660" lon="10.4954290">
	<ele>2472.60</ele>
	<time>2023-08-07T10:19:53.000Z</time>
</trkpt>
<trkpt lat="46.1257600" lon="10.4954210">
	<ele>2472.60</ele>
	<time>2023-08-07T10:19:54.000Z</time>
</trkpt>
<trkpt lat="46.1257560" lon="10.4954100">
	<ele>2472.60</ele>
	<time>2023-08-07T10:19:55.000Z</time>
</trkpt>
<trkpt lat="46.1257530" lon="10.4954010">
	<ele>2472.60</ele>
	<time>2023-08-07T10:19:56.000Z</time>
</trkpt>
<trkpt lat="46.1257500" lon="10.4953970">
	<ele>2472.60</ele>
	<time>2023-08-07T10:19:57.000Z</time>
</trkpt>
<trkpt lat="46.1257480" lon="10.4953920">
	<ele>2472.60</ele>
	<time>2023-08-07T10:19:58.000Z</time>
</trkpt>
<trkpt lat="46.1257440" lon="10.4953910">
	<ele>2472.60</ele>
	<time>2023-08-07T10:19:59.000Z</time>
</trkpt>
<trkpt lat="46.1257390" lon="10.4953850">
	<ele>2472.60</ele>
	<time>2023-08-07T10:20:00.000Z</time>
</trkpt>
<trkpt lat="46.1257360" lon="10.4953760">
	<ele>2472.60</ele>
	<time>2023-08-07T10:20:01.000Z</time>
</trkpt>
<trkpt lat="46.1257320" lon="10.4953710">
	<ele>2472.60</ele>
	<time>2023-08-07T10:20:02.000Z</time>
</trkpt>
<trkpt lat="46.1257270" lon="10.4953660">
	<ele>2472.60</ele>
	<time>2023-08-07T10:20:03.000Z</time>
</trkpt>
<trkpt lat="46.1257180" lon="10.4953640">
	<ele>2472.60</ele>
	<time>2023-08-07T10:20:04.000Z</time>
</trkpt>
<trkpt lat="46.1257140" lon="10.4953600">
	<ele>2472.60</ele>
	<time>2023-08-07T10:20:05.000Z</time>
</trkpt>
<trkpt lat="46.1257070" lon="10.4953550">
	<ele>2472.60</ele>
	<time>2023-08-07T10:20:06.000Z</time>
</trkpt>
<trkpt lat="46.1257000" lon="10.4953460">
	<ele>2472.60</ele>
	<time>2023-08-07T10:20:07.000Z</time>
</trkpt>
<trkpt lat="46.1256930" lon="10.4953390">
	<ele>2472.60</ele>
	<time>2023-08-07T10:20:08.000Z</time>
</trkpt>
<trkpt lat="46.1256880" lon="10.4953250">
	<ele>2472.60</ele>
	<time>2023-08-07T10:20:09.000Z</time>
</trkpt>
<trkpt lat="46.1256840" lon="10.4953130">
	<ele>2472.60</ele>
	<time>2023-08-07T10:20:10.000Z</time>
</trkpt>
<trkpt lat="46.1256790" lon="10.4953020">
	<ele>2472.60</ele>
	<time>2023-08-07T10:20:11.000Z</time>
</trkpt>
<trkpt lat="46.1256780" lon="10.4952930">
	<ele>2472.60</ele>
	<time>2023-08-07T10:20:12.000Z</time>
</trkpt>
<trkpt lat="46.1256790" lon="10.4952840">
	<ele>2472.60</ele>
	<time>2023-08-07T10:20:13.000Z</time>
</trkpt>
<trkpt lat="46.1256850" lon="10.4952720">
	<ele>2472.60</ele>
	<time>2023-08-07T10:20:14.000Z</time>
</trkpt>
<trkpt lat="46.1256840" lon="10.4952640">
	<ele>2472.60</ele>
	<time>2023-08-07T10:20:15.000Z</time>
</trkpt>
<trkpt lat="46.1256790" lon="10.4952550">
	<ele>2472.60</ele>
	<time>2023-08-07T10:20:16.000Z</time>
</trkpt>
<trkpt lat="46.1256720" lon="10.4952450">
	<ele>2472.60</ele>
	<time>2023-08-07T10:20:17.000Z</time>
</trkpt>
<trkpt lat="46.1256680" lon="10.4952380">
	<ele>2472.60</ele>
	<time>2023-08-07T10:20:18.000Z</time>
</trkpt>
<trkpt lat="46.1256660" lon="10.4952330">
	<ele>2472.60</ele>
	<time>2023-08-07T10:20:19.000Z</time>
</trkpt>
<trkpt lat="46.1256600" lon="10.4952180">
	<ele>2472.60</ele>
	<time>2023-08-07T10:20:20.000Z</time>
</trkpt>
<trkpt lat="46.1256540" lon="10.4952080">
	<ele>2472.60</ele>
	<time>2023-08-07T10:20:21.000Z</time>
</trkpt>
<trkpt lat="46.1256460" lon="10.4952010">
	<ele>2472.60</ele>
	<time>2023-08-07T10:20:22.000Z</time>
</trkpt>
<trkpt lat="46.1256410" lon="10.4951940">
	<ele>2472.60</ele>
	<time>2023-08-07T10:20:23.000Z</time>
</trkpt>
<trkpt lat="46.1256350" lon="10.4951930">
	<ele>2472.60</ele>
	<time>2023-08-07T10:20:24.000Z</time>
</trkpt>
<trkpt lat="46.1256320" lon="10.4951870">
	<ele>2472.60</ele>
	<time>2023-08-07T10:20:25.000Z</time>
</trkpt>
<trkpt lat="46.1256290" lon="10.4951790">
	<ele>2472.60</ele>
	<time>2023-08-07T10:20:26.000Z</time>
</trkpt>
<trkpt lat="46.1256270" lon="10.4951710">
	<ele>2472.60</ele>
	<time>2023-08-07T10:20:27.000Z</time>
</trkpt>
<trkpt lat="46.1256240" lon="10.4951640">
	<ele>2472.60</ele>
	<time>2023-08-07T10:20:28.000Z</time>
</trkpt>
<trkpt lat="46.1256210" lon="10.4951540">
	<ele>2472.60</ele>
	<time>2023-08-07T10:20:29.000Z</time>
</trkpt>
<trkpt lat="46.1256170" lon="10.4951480">
	<ele>2472.60</ele>
	<time>2023-08-07T10:20:30.000Z</time>
</trkpt>
<trkpt lat="46.1256130" lon="10.4951430">
	<ele>2472.60</ele>
	<time>2023-08-07T10:20:31.000Z</time>
</trkpt>
<trkpt lat="46.1256100" lon="10.4951380">
	<ele>2472.60</ele>
	<time>2023-08-07T10:20:32.000Z</time>
</trkpt>
<trkpt lat="46.1256070" lon="10.4951340">
	<ele>2472.60</ele>
	<time>2023-08-07T10:20:33.000Z</time>
</trkpt>
<trkpt lat="46.1255980" lon="10.4951330">
	<ele>2472.60</ele>
	<time>2023-08-07T10:20:34.000Z</time>
</trkpt>
<trkpt lat="46.1255900" lon="10.4951360">
	<ele>2472.60</ele>
	<time>2023-08-07T10:20:35.000Z</time>
</trkpt>
<trkpt lat="46.1255830" lon="10.4951320">
	<ele>2472.60</ele>
	<time>2023-08-07T10:20:36.000Z</time>
</trkpt>
<trkpt lat="46.1255740" lon="10.4951280">
	<ele>2472.60</ele>
	<time>2023-08-07T10:20:37.000Z</time>
</trkpt>
<trkpt lat="46.1255670" lon="10.4951270">
	<ele>2472.60</ele>
	<time>2023-08-07T10:20:38.000Z</time>
</trkpt>
<trkpt lat="46.1255570" lon="10.4951270">
	<ele>2472.60</ele>
	<time>2023-08-07T10:20:39.000Z</time>
</trkpt>
<trkpt lat="46.1255500" lon="10.4951240">
	<ele>2472.60</ele>
	<time>2023-08-07T10:20:40.000Z</time>
</trkpt>
<trkpt lat="46.1255420" lon="10.4951210">
	<ele>2472.60</ele>
	<time>2023-08-07T10:20:41.000Z</time>
</trkpt>
<trkpt lat="46.1255330" lon="10.4951180">
	<ele>2472.60</ele>
	<time>2023-08-07T10:20:42.000Z</time>
</trkpt>
<trkpt lat="46.1255250" lon="10.4951090">
	<ele>2472.60</ele>
	<time>2023-08-07T10:20:43.000Z</time>
</trkpt>
<trkpt lat="46.1255200" lon="10.4950990">
	<ele>2472.60</ele>
	<time>2023-08-07T10:20:44.000Z</time>
</trkpt>
<trkpt lat="46.1255170" lon="10.4950880">
	<ele>2472.60</ele>
	<time>2023-08-07T10:20:45.000Z</time>
</trkpt>
<trkpt lat="46.1255120" lon="10.4950780">
	<ele>2472.60</ele>
	<time>2023-08-07T10:20:46.000Z</time>
</trkpt>
<trkpt lat="46.1255060" lon="10.4950700">
	<ele>2472.60</ele>
	<time>2023-08-07T10:20:47.000Z</time>
</trkpt>
<trkpt lat="46.1255020" lon="10.4950610">
	<ele>2472.60</ele>
	<time>2023-08-07T10:20:48.000Z</time>
</trkpt>
<trkpt lat="46.1255000" lon="10.4950550">
	<ele>2472.60</ele>
	<time>2023-08-07T10:20:49.000Z</time>
</trkpt>
<trkpt lat="46.1254990" lon="10.4950520">
	<ele>2472.60</ele>
	<time>2023-08-07T10:20:50.000Z</time>
</trkpt>
<trkpt lat="46.1255000" lon="10.4950510">
	<ele>2473.40</ele>
	<time>2023-08-07T10:20:51.000Z</time>
</trkpt>
<trkpt lat="46.1254990" lon="10.4950540">
	<ele>2473.80</ele>
	<time>2023-08-07T10:20:52.000Z</time>
</trkpt>
<trkpt lat="46.1254980" lon="10.4950610">
	<ele>2474.00</ele>
	<time>2023-08-07T10:20:53.000Z</time>
</trkpt>
<trkpt lat="46.1254990" lon="10.4950640">
	<ele>2474.00</ele>
	<time>2023-08-07T10:20:54.000Z</time>
</trkpt>
<trkpt lat="46.1254970" lon="10.4950620">
	<ele>2474.00</ele>
	<time>2023-08-07T10:20:55.000Z</time>
</trkpt>
<trkpt lat="46.1254950" lon="10.4950580">
	<ele>2474.00</ele>
	<time>2023-08-07T10:20:56.000Z</time>
</trkpt>
<trkpt lat="46.1254920" lon="10.4950560">
	<ele>2474.00</ele>
	<time>2023-08-07T10:20:57.000Z</time>
</trkpt>
<trkpt lat="46.1254910" lon="10.4950460">
	<ele>2474.00</ele>
	<time>2023-08-07T10:20:58.000Z</time>
</trkpt>
<trkpt lat="46.1254880" lon="10.4950380">
	<ele>2474.00</ele>
	<time>2023-08-07T10:20:59.000Z</time>
</trkpt>
<trkpt lat="46.1254850" lon="10.4950350">
	<ele>2474.00</ele>
	<time>2023-08-07T10:21:00.000Z</time>
</trkpt>
<trkpt lat="46.1254810" lon="10.4950380">
	<ele>2473.80</ele>
	<time>2023-08-07T10:21:01.000Z</time>
</trkpt>
<trkpt lat="46.1254780" lon="10.4950380">
	<ele>2473.80</ele>
	<time>2023-08-07T10:21:02.000Z</time>
</trkpt>
<trkpt lat="46.1254740" lon="10.4950370">
	<ele>2473.80</ele>
	<time>2023-08-07T10:21:03.000Z</time>
</trkpt>
<trkpt lat="46.1254700" lon="10.4950320">
	<ele>2473.60</ele>
	<time>2023-08-07T10:21:04.000Z</time>
</trkpt>
<trkpt lat="46.1254610" lon="10.4950280">
	<ele>2473.60</ele>
	<time>2023-08-07T10:21:05.000Z</time>
</trkpt>
<trkpt lat="46.1254550" lon="10.4950240">
	<ele>2473.60</ele>
	<time>2023-08-07T10:21:06.000Z</time>
</trkpt>
<trkpt lat="46.1254540" lon="10.4950200">
	<ele>2473.40</ele>
	<time>2023-08-07T10:21:07.000Z</time>
</trkpt>
<trkpt lat="46.1254560" lon="10.4950150">
	<ele>2473.20</ele>
	<time>2023-08-07T10:21:08.000Z</time>
</trkpt>
<trkpt lat="46.1254540" lon="10.4950140">
	<ele>2473.20</ele>
	<time>2023-08-07T10:21:09.000Z</time>
</trkpt>
<trkpt lat="46.1254500" lon="10.4950120">
	<ele>2473.20</ele>
	<time>2023-08-07T10:21:10.000Z</time>
</trkpt>
<trkpt lat="46.1254470" lon="10.4950090">
	<ele>2473.20</ele>
	<time>2023-08-07T10:21:11.000Z</time>
</trkpt>
<trkpt lat="46.1254420" lon="10.4950070">
	<ele>2473.20</ele>
	<time>2023-08-07T10:21:12.000Z</time>
</trkpt>
<trkpt lat="46.1254440" lon="10.4950020">
	<ele>2473.00</ele>
	<time>2023-08-07T10:21:13.000Z</time>
</trkpt>
<trkpt lat="46.1254440" lon="10.4950010">
	<ele>2473.00</ele>
	<time>2023-08-07T10:21:14.000Z</time>
</trkpt>
<trkpt lat="46.1254410" lon="10.4950000">
	<ele>2472.80</ele>
	<time>2023-08-07T10:21:15.000Z</time>
</trkpt>
<trkpt lat="46.1254390" lon="10.4950000">
	<ele>2472.60</ele>
	<time>2023-08-07T10:21:16.000Z</time>
</trkpt>
<trkpt lat="46.1254390" lon="10.4949930">
	<ele>2472.60</ele>
	<time>2023-08-07T10:21:17.000Z</time>
</trkpt>
<trkpt lat="46.1254370" lon="10.4949880">
	<ele>2472.60</ele>
	<time>2023-08-07T10:21:18.000Z</time>
</trkpt>
<trkpt lat="46.1254350" lon="10.4949860">
	<ele>2472.80</ele>
	<time>2023-08-07T10:21:19.000Z</time>
</trkpt>
<trkpt lat="46.1254390" lon="10.4949820">
	<ele>2473.00</ele>
	<time>2023-08-07T10:21:20.000Z</time>
</trkpt>
<trkpt lat="46.1254420" lon="10.4949820">
	<ele>2473.00</ele>
	<time>2023-08-07T10:21:21.000Z</time>
</trkpt>
<trkpt lat="46.1254430" lon="10.4949830">
	<ele>2473.20</ele>
	<time>2023-08-07T10:21:22.000Z</time>
</trkpt>
<trkpt lat="46.1254430" lon="10.4949830">
	<ele>2473.40</ele>
	<time>2023-08-07T10:21:23.000Z</time>
</trkpt>
<trkpt lat="46.1254420" lon="10.4949820">
	<ele>2473.40</ele>
	<time>2023-08-07T10:21:24.000Z</time>
</trkpt>
<trkpt lat="46.1254420" lon="10.4949830">
	<ele>2473.40</ele>
	<time>2023-08-07T10:21:25.000Z</time>
</trkpt>
<trkpt lat="46.1254420" lon="10.4949830">
	<ele>2473.40</ele>
	<time>2023-08-07T10:21:26.000Z</time>
</trkpt>
<trkpt lat="46.1254420" lon="10.4949830">
	<ele>2473.40</ele>
	<time>2023-08-07T10:21:27.000Z</time>
</trkpt>
<trkpt lat="46.1254420" lon="10.4949830">
	<ele>2473.40</ele>
	<time>2023-08-07T10:21:28.000Z</time>
</trkpt>
<trkpt lat="46.1254420" lon="10.4949830">
	<ele>2473.40</ele>
	<time>2023-08-07T10:21:29.000Z</time>
</trkpt>
<trkpt lat="46.1254420" lon="10.4949830">
	<ele>2472.80</ele>
	<time>2023-08-07T10:21:30.000Z</time>
</trkpt>
<trkpt lat="46.1254420" lon="10.4949830">
	<ele>2472.60</ele>
	<time>2023-08-07T10:21:31.000Z</time>
</trkpt>
<trkpt lat="46.1254420" lon="10.4949830">
	<ele>2472.40</ele>
	<time>2023-08-07T10:21:32.000Z</time>
</trkpt>
<trkpt lat="46.1254420" lon="10.4949830">
	<ele>2472.40</ele>
	<time>2023-08-07T10:21:33.000Z</time>
</trkpt>
<trkpt lat="46.1254420" lon="10.4949830">
	<ele>2472.40</ele>
	<time>2023-08-07T10:21:34.000Z</time>
</trkpt>
<trkpt lat="46.1254390" lon="10.4949790">
	<ele>2472.20</ele>
	<time>2023-08-07T10:21:35.000Z</time>
</trkpt>
<trkpt lat="46.1254330" lon="10.4949660">
	<ele>2472.00</ele>
	<time>2023-08-07T10:21:36.000Z</time>
</trkpt>
<trkpt lat="46.1254300" lon="10.4949560">
	<ele>2472.00</ele>
	<time>2023-08-07T10:21:37.000Z</time>
</trkpt>
<trkpt lat="46.1254260" lon="10.4949470">
	<ele>2472.00</ele>
	<time>2023-08-07T10:21:38.000Z</time>
</trkpt>
<trkpt lat="46.1254230" lon="10.4949430">
	<ele>2472.00</ele>
	<time>2023-08-07T10:21:39.000Z</time>
</trkpt>
<trkpt lat="46.1254160" lon="10.4949390">
	<ele>2472.00</ele>
	<time>2023-08-07T10:21:40.000Z</time>
</trkpt>
<trkpt lat="46.1254100" lon="10.4949350">
	<ele>2472.00</ele>
	<time>2023-08-07T10:21:41.000Z</time>
</trkpt>
<trkpt lat="46.1254030" lon="10.4949300">
	<ele>2472.00</ele>
	<time>2023-08-07T10:21:42.000Z</time>
</trkpt>
<trkpt lat="46.1253940" lon="10.4949290">
	<ele>2471.80</ele>
	<time>2023-08-07T10:21:43.000Z</time>
</trkpt>
<trkpt lat="46.1253870" lon="10.4949210">
	<ele>2471.60</ele>
	<time>2023-08-07T10:21:44.000Z</time>
</trkpt>
<trkpt lat="46.1253850" lon="10.4949090">
	<ele>2471.60</ele>
	<time>2023-08-07T10:21:45.000Z</time>
</trkpt>
<trkpt lat="46.1253790" lon="10.4948980">
	<ele>2471.40</ele>
	<time>2023-08-07T10:21:46.000Z</time>
</trkpt>
<trkpt lat="46.1253750" lon="10.4948890">
	<ele>2471.20</ele>
	<time>2023-08-07T10:21:47.000Z</time>
</trkpt>
<trkpt lat="46.1253690" lon="10.4948750">
	<ele>2471.20</ele>
	<time>2023-08-07T10:21:48.000Z</time>
</trkpt>
<trkpt lat="46.1253660" lon="10.4948630">
	<ele>2471.20</ele>
	<time>2023-08-07T10:21:49.000Z</time>
</trkpt>
<trkpt lat="46.1253630" lon="10.4948500">
	<ele>2471.20</ele>
	<time>2023-08-07T10:21:50.000Z</time>
</trkpt>
<trkpt lat="46.1253610" lon="10.4948460">
	<ele>2471.20</ele>
	<time>2023-08-07T10:21:51.000Z</time>
</trkpt>
<trkpt lat="46.1253580" lon="10.4948440">
	<ele>2471.20</ele>
	<time>2023-08-07T10:21:52.000Z</time>
</trkpt>
<trkpt lat="46.1253540" lon="10.4948420">
	<ele>2471.40</ele>
	<time>2023-08-07T10:21:53.000Z</time>
</trkpt>
<trkpt lat="46.1253510" lon="10.4948380">
	<ele>2471.40</ele>
	<time>2023-08-07T10:21:54.000Z</time>
</trkpt>
<trkpt lat="46.1253510" lon="10.4948240">
	<ele>2471.40</ele>
	<time>2023-08-07T10:21:55.000Z</time>
</trkpt>
<trkpt lat="46.1253530" lon="10.4948090">
	<ele>2471.40</ele>
	<time>2023-08-07T10:21:56.000Z</time>
</trkpt>
<trkpt lat="46.1253540" lon="10.4947950">
	<ele>2471.40</ele>
	<time>2023-08-07T10:21:57.000Z</time>
</trkpt>
<trkpt lat="46.1253520" lon="10.4947830">
	<ele>2471.60</ele>
	<time>2023-08-07T10:21:58.000Z</time>
</trkpt>
<trkpt lat="46.1253480" lon="10.4947800">
	<ele>2471.80</ele>
	<time>2023-08-07T10:21:59.000Z</time>
</trkpt>
<trkpt lat="46.1253470" lon="10.4947780">
	<ele>2472.20</ele>
	<time>2023-08-07T10:22:00.000Z</time>
</trkpt>
<trkpt lat="46.1253490" lon="10.4947730">
	<ele>2472.40</ele>
	<time>2023-08-07T10:22:01.000Z</time>
</trkpt>
<trkpt lat="46.1253440" lon="10.4947680">
	<ele>2472.40</ele>
	<time>2023-08-07T10:22:02.000Z</time>
</trkpt>
<trkpt lat="46.1253470" lon="10.4947630">
	<ele>2472.80</ele>
	<time>2023-08-07T10:22:03.000Z</time>
</trkpt>
<trkpt lat="46.1253490" lon="10.4947620">
	<ele>2473.00</ele>
	<time>2023-08-07T10:22:04.000Z</time>
</trkpt>
<trkpt lat="46.1253520" lon="10.4947600">
	<ele>2473.20</ele>
	<time>2023-08-07T10:22:05.000Z</time>
</trkpt>
<trkpt lat="46.1253540" lon="10.4947570">
	<ele>2473.40</ele>
	<time>2023-08-07T10:22:06.000Z</time>
</trkpt>
<trkpt lat="46.1253550" lon="10.4947550">
	<ele>2473.40</ele>
	<time>2023-08-07T10:22:07.000Z</time>
</trkpt>
<trkpt lat="46.1253560" lon="10.4947540">
	<ele>2473.60</ele>
	<time>2023-08-07T10:22:08.000Z</time>
</trkpt>
<trkpt lat="46.1253610" lon="10.4947470">
	<ele>2473.80</ele>
	<time>2023-08-07T10:22:09.000Z</time>
</trkpt>
<trkpt lat="46.1253670" lon="10.4947360">
	<ele>2474.00</ele>
	<time>2023-08-07T10:22:10.000Z</time>
</trkpt>
<trkpt lat="46.1253710" lon="10.4947340">
	<ele>2474.20</ele>
	<time>2023-08-07T10:22:11.000Z</time>
</trkpt>
<trkpt lat="46.1253710" lon="10.4947330">
	<ele>2474.40</ele>
	<time>2023-08-07T10:22:12.000Z</time>
</trkpt>
<trkpt lat="46.1253710" lon="10.4947320">
	<ele>2474.60</ele>
	<time>2023-08-07T10:22:13.000Z</time>
</trkpt>
<trkpt lat="46.1253720" lon="10.4947300">
	<ele>2474.60</ele>
	<time>2023-08-07T10:22:14.000Z</time>
</trkpt>
<trkpt lat="46.1253740" lon="10.4947280">
	<ele>2474.60</ele>
	<time>2023-08-07T10:22:15.000Z</time>
</trkpt>
<trkpt lat="46.1253750" lon="10.4947270">
	<ele>2474.60</ele>
	<time>2023-08-07T10:22:16.000Z</time>
</trkpt>
<trkpt lat="46.1253750" lon="10.4947270">
	<ele>2474.60</ele>
	<time>2023-08-07T10:22:17.000Z</time>
</trkpt>
<trkpt lat="46.1253750" lon="10.4947270">
	<ele>2474.60</ele>
	<time>2023-08-07T10:22:18.000Z</time>
</trkpt>
<trkpt lat="46.1253750" lon="10.4947270">
	<ele>2474.60</ele>
	<time>2023-08-07T10:22:19.000Z</time>
</trkpt>
<trkpt lat="46.1253750" lon="10.4947270">
	<ele>2474.60</ele>
	<time>2023-08-07T10:22:20.000Z</time>
</trkpt>
<trkpt lat="46.1253750" lon="10.4947270">
	<ele>2474.60</ele>
	<time>2023-08-07T10:22:21.000Z</time>
</trkpt>
<trkpt lat="46.1253750" lon="10.4947270">
	<ele>2474.40</ele>
	<time>2023-08-07T10:22:22.000Z</time>
</trkpt>
<trkpt lat="46.1253750" lon="10.4947270">
	<ele>2474.40</ele>
	<time>2023-08-07T10:22:23.000Z</time>
</trkpt>
<trkpt lat="46.1253750" lon="10.4947270">
	<ele>2474.20</ele>
	<time>2023-08-07T10:22:24.000Z</time>
</trkpt>
<trkpt lat="46.1253750" lon="10.4947270">
	<ele>2474.20</ele>
	<time>2023-08-07T10:22:25.000Z</time>
</trkpt>
<trkpt lat="46.1253750" lon="10.4947280">
	<ele>2474.20</ele>
	<time>2023-08-07T10:22:26.000Z</time>
</trkpt>
<trkpt lat="46.1253750" lon="10.4947280">
	<ele>2474.20</ele>
	<time>2023-08-07T10:22:27.000Z</time>
</trkpt>
<trkpt lat="46.1253750" lon="10.4947280">
	<ele>2474.40</ele>
	<time>2023-08-07T10:22:28.000Z</time>
</trkpt>
<trkpt lat="46.1253750" lon="10.4947300">
	<ele>2474.40</ele>
	<time>2023-08-07T10:22:29.000Z</time>
</trkpt>
<trkpt lat="46.1253750" lon="10.4947310">
	<ele>2474.60</ele>
	<time>2023-08-07T10:22:30.000Z</time>
</trkpt>
<trkpt lat="46.1253750" lon="10.4947320">
	<ele>2474.80</ele>
	<time>2023-08-07T10:22:31.000Z</time>
</trkpt>
<trkpt lat="46.1253750" lon="10.4947320">
	<ele>2475.00</ele>
	<time>2023-08-07T10:22:32.000Z</time>
</trkpt>
<trkpt lat="46.1253750" lon="10.4947320">
	<ele>2475.00</ele>
	<time>2023-08-07T10:22:33.000Z</time>
</trkpt>
<trkpt lat="46.1253750" lon="10.4947320">
	<ele>2475.20</ele>
	<time>2023-08-07T10:22:34.000Z</time>
</trkpt>
<trkpt lat="46.1253750" lon="10.4947320">
	<ele>2475.20</ele>
	<time>2023-08-07T10:22:35.000Z</time>
</trkpt>
<trkpt lat="46.1253750" lon="10.4947320">
	<ele>2475.40</ele>
	<time>2023-08-07T10:22:36.000Z</time>
</trkpt>
<trkpt lat="46.1253750" lon="10.4947320">
	<ele>2475.40</ele>
	<time>2023-08-07T10:22:37.000Z</time>
</trkpt>
<trkpt lat="46.1253750" lon="10.4947320">
	<ele>2475.60</ele>
	<time>2023-08-07T10:22:38.000Z</time>
</trkpt>
<trkpt lat="46.1253750" lon="10.4947320">
	<ele>2475.80</ele>
	<time>2023-08-07T10:22:39.000Z</time>
</trkpt>
<trkpt lat="46.1253770" lon="10.4947310">
	<ele>2476.00</ele>
	<time>2023-08-07T10:22:40.000Z</time>
</trkpt>
<trkpt lat="46.1253780" lon="10.4947290">
	<ele>2476.20</ele>
	<time>2023-08-07T10:22:41.000Z</time>
</trkpt>
<trkpt lat="46.1253780" lon="10.4947280">
	<ele>2476.20</ele>
	<time>2023-08-07T10:22:42.000Z</time>
</trkpt>
<trkpt lat="46.1253790" lon="10.4947280">
	<ele>2476.20</ele>
	<time>2023-08-07T10:22:43.000Z</time>
</trkpt>
<trkpt lat="46.1253790" lon="10.4947270">
	<ele>2476.40</ele>
	<time>2023-08-07T10:22:44.000Z</time>
</trkpt>
<trkpt lat="46.1253790" lon="10.4947270">
	<ele>2476.40</ele>
	<time>2023-08-07T10:22:45.000Z</time>
</trkpt>
<trkpt lat="46.1253790" lon="10.4947240">
	<ele>2476.40</ele>
	<time>2023-08-07T10:22:46.000Z</time>
</trkpt>
<trkpt lat="46.1253790" lon="10.4947210">
	<ele>2476.40</ele>
	<time>2023-08-07T10:22:47.000Z</time>
</trkpt>
<trkpt lat="46.1253790" lon="10.4947170">
	<ele>2476.40</ele>
	<time>2023-08-07T10:22:48.000Z</time>
</trkpt>
<trkpt lat="46.1253790" lon="10.4947160">
	<ele>2476.40</ele>
	<time>2023-08-07T10:22:49.000Z</time>
</trkpt>
<trkpt lat="46.1253790" lon="10.4947110">
	<ele>2476.60</ele>
	<time>2023-08-07T10:22:50.000Z</time>
</trkpt>
<trkpt lat="46.1253790" lon="10.4947060">
	<ele>2476.40</ele>
	<time>2023-08-07T10:22:51.000Z</time>
</trkpt>
<trkpt lat="46.1253790" lon="10.4947010">
	<ele>2476.40</ele>
	<time>2023-08-07T10:22:52.000Z</time>
</trkpt>
<trkpt lat="46.1253790" lon="10.4946970">
	<ele>2476.40</ele>
	<time>2023-08-07T10:22:53.000Z</time>
</trkpt>
<trkpt lat="46.1253790" lon="10.4946910">
	<ele>2476.40</ele>
	<time>2023-08-07T10:22:54.000Z</time>
</trkpt>
<trkpt lat="46.1253780" lon="10.4946860">
	<ele>2476.40</ele>
	<time>2023-08-07T10:22:55.000Z</time>
</trkpt>
<trkpt lat="46.1253780" lon="10.4946810">
	<ele>2476.40</ele>
	<time>2023-08-07T10:22:56.000Z</time>
</trkpt>
<trkpt lat="46.1253780" lon="10.4946750">
	<ele>2476.60</ele>
	<time>2023-08-07T10:22:57.000Z</time>
</trkpt>
<trkpt lat="46.1253720" lon="10.4946740">
	<ele>2476.80</ele>
	<time>2023-08-07T10:22:58.000Z</time>
</trkpt>
<trkpt lat="46.1253650" lon="10.4946670">
	<ele>2476.80</ele>
	<time>2023-08-07T10:22:59.000Z</time>
</trkpt>
<trkpt lat="46.1253620" lon="10.4946580">
	<ele>2477.00</ele>
	<time>2023-08-07T10:23:00.000Z</time>
</trkpt>
<trkpt lat="46.1253590" lon="10.4946510">
	<ele>2477.00</ele>
	<time>2023-08-07T10:23:01.000Z</time>
</trkpt>
<trkpt lat="46.1253550" lon="10.4946490">
	<ele>2477.00</ele>
	<time>2023-08-07T10:23:02.000Z</time>
</trkpt>
<trkpt lat="46.1253470" lon="10.4946470">
	<ele>2477.20</ele>
	<time>2023-08-07T10:23:03.000Z</time>
</trkpt>
<trkpt lat="46.1253450" lon="10.4946440">
	<ele>2477.20</ele>
	<time>2023-08-07T10:23:04.000Z</time>
</trkpt>
<trkpt lat="46.1253410" lon="10.4946420">
	<ele>2477.40</ele>
	<time>2023-08-07T10:23:05.000Z</time>
</trkpt>
<trkpt lat="46.1253390" lon="10.4946420">
	<ele>2477.40</ele>
	<time>2023-08-07T10:23:06.000Z</time>
</trkpt>
<trkpt lat="46.1253390" lon="10.4946400">
	<ele>2477.40</ele>
	<time>2023-08-07T10:23:07.000Z</time>
</trkpt>
<trkpt lat="46.1253380" lon="10.4946380">
	<ele>2477.40</ele>
	<time>2023-08-07T10:23:08.000Z</time>
</trkpt>
<trkpt lat="46.1253380" lon="10.4946350">
	<ele>2477.60</ele>
	<time>2023-08-07T10:23:09.000Z</time>
</trkpt>
<trkpt lat="46.1253370" lon="10.4946300">
	<ele>2477.60</ele>
	<time>2023-08-07T10:23:10.000Z</time>
</trkpt>
<trkpt lat="46.1253370" lon="10.4946210">
	<ele>2477.60</ele>
	<time>2023-08-07T10:23:11.000Z</time>
</trkpt>
<trkpt lat="46.1253370" lon="10.4946120">
	<ele>2477.60</ele>
	<time>2023-08-07T10:23:12.000Z</time>
</trkpt>
<trkpt lat="46.1253370" lon="10.4946090">
	<ele>2477.60</ele>
	<time>2023-08-07T10:23:13.000Z</time>
</trkpt>
<trkpt lat="46.1253360" lon="10.4946080">
	<ele>2477.40</ele>
	<time>2023-08-07T10:23:14.000Z</time>
</trkpt>
<trkpt lat="46.1253350" lon="10.4946080">
	<ele>2477.20</ele>
	<time>2023-08-07T10:23:15.000Z</time>
</trkpt>
<trkpt lat="46.1253350" lon="10.4946080">
	<ele>2477.20</ele>
	<time>2023-08-07T10:23:16.000Z</time>
</trkpt>
<trkpt lat="46.1253350" lon="10.4946070">
	<ele>2477.20</ele>
	<time>2023-08-07T10:23:17.000Z</time>
</trkpt>
<trkpt lat="46.1253350" lon="10.4946070">
	<ele>2477.20</ele>
	<time>2023-08-07T10:23:18.000Z</time>
</trkpt>
<trkpt lat="46.1253350" lon="10.4946070">
	<ele>2476.60</ele>
	<time>2023-08-07T10:23:19.000Z</time>
</trkpt>
<trkpt lat="46.1253350" lon="10.4946070">
	<ele>2476.40</ele>
	<time>2023-08-07T10:23:20.000Z</time>
</trkpt>
<trkpt lat="46.1253350" lon="10.4946070">
	<ele>2476.40</ele>
	<time>2023-08-07T10:23:21.000Z</time>
</trkpt>
<trkpt lat="46.1253350" lon="10.4946070">
	<ele>2476.40</ele>
	<time>2023-08-07T10:23:22.000Z</time>
</trkpt>
<trkpt lat="46.1253350" lon="10.4946070">
	<ele>2476.60</ele>
	<time>2023-08-07T10:23:23.000Z</time>
</trkpt>
<trkpt lat="46.1253360" lon="10.4946070">
	<ele>2476.80</ele>
	<time>2023-08-07T10:23:24.000Z</time>
</trkpt>
<trkpt lat="46.1253360" lon="10.4946070">
	<ele>2477.20</ele>
	<time>2023-08-07T10:23:25.000Z</time>
</trkpt>
<trkpt lat="46.1253360" lon="10.4946070">
	<ele>2477.40</ele>
	<time>2023-08-07T10:23:26.000Z</time>
</trkpt>
<trkpt lat="46.1253360" lon="10.4946070">
	<ele>2477.40</ele>
	<time>2023-08-07T10:23:27.000Z</time>
</trkpt>
<trkpt lat="46.1253360" lon="10.4946070">
	<ele>2477.60</ele>
	<time>2023-08-07T10:23:28.000Z</time>
</trkpt>
<trkpt lat="46.1253350" lon="10.4946070">
	<ele>2477.60</ele>
	<time>2023-08-07T10:23:29.000Z</time>
</trkpt>
<trkpt lat="46.1253350" lon="10.4946070">
	<ele>2477.60</ele>
	<time>2023-08-07T10:23:30.000Z</time>
</trkpt>
<trkpt lat="46.1253340" lon="10.4946070">
	<ele>2477.60</ele>
	<time>2023-08-07T10:23:31.000Z</time>
</trkpt>
<trkpt lat="46.1253340" lon="10.4946070">
	<ele>2477.60</ele>
	<time>2023-08-07T10:23:32.000Z</time>
</trkpt>
<trkpt lat="46.1253340" lon="10.4946070">
	<ele>2477.60</ele>
	<time>2023-08-07T10:23:33.000Z</time>
</trkpt>
<trkpt lat="46.1253340" lon="10.4946070">
	<ele>2477.60</ele>
	<time>2023-08-07T10:23:34.000Z</time>
</trkpt>
<trkpt lat="46.1253350" lon="10.4946060">
	<ele>2477.60</ele>
	<time>2023-08-07T10:23:35.000Z</time>
</trkpt>
<trkpt lat="46.1253430" lon="10.4946050">
	<ele>2477.40</ele>
	<time>2023-08-07T10:23:36.000Z</time>
</trkpt>
<trkpt lat="46.1253460" lon="10.4946010">
	<ele>2477.40</ele>
	<time>2023-08-07T10:23:37.000Z</time>
</trkpt>
<trkpt lat="46.1253480" lon="10.4945980">
	<ele>2477.20</ele>
	<time>2023-08-07T10:23:38.000Z</time>
</trkpt>
<trkpt lat="46.1253440" lon="10.4945920">
	<ele>2477.20</ele>
	<time>2023-08-07T10:23:39.000Z</time>
</trkpt>
<trkpt lat="46.1253440" lon="10.4945900">
	<ele>2477.20</ele>
	<time>2023-08-07T10:23:40.000Z</time>
</trkpt>
<trkpt lat="46.1253440" lon="10.4945900">
	<ele>2477.20</ele>
	<time>2023-08-07T10:23:41.000Z</time>
</trkpt>
<trkpt lat="46.1253440" lon="10.4945900">
	<ele>2477.40</ele>
	<time>2023-08-07T10:23:42.000Z</time>
</trkpt>
<trkpt lat="46.1253450" lon="10.4945900">
	<ele>2477.40</ele>
	<time>2023-08-07T10:23:43.000Z</time>
</trkpt>
<trkpt lat="46.1253470" lon="10.4945900">
	<ele>2477.40</ele>
	<time>2023-08-07T10:23:44.000Z</time>
</trkpt>
<trkpt lat="46.1253490" lon="10.4945910">
	<ele>2477.40</ele>
	<time>2023-08-07T10:23:45.000Z</time>
</trkpt>
<trkpt lat="46.1253510" lon="10.4945910">
	<ele>2477.20</ele>
	<time>2023-08-07T10:23:46.000Z</time>
</trkpt>
<trkpt lat="46.1253520" lon="10.4945890">
	<ele>2477.00</ele>
	<time>2023-08-07T10:23:47.000Z</time>
</trkpt>
<trkpt lat="46.1253500" lon="10.4945900">
	<ele>2477.00</ele>
	<time>2023-08-07T10:23:48.000Z</time>
</trkpt>
<trkpt lat="46.1253500" lon="10.4945890">
	<ele>2477.00</ele>
	<time>2023-08-07T10:23:49.000Z</time>
</trkpt>
<trkpt lat="46.1253480" lon="10.4945880">
	<ele>2477.00</ele>
	<time>2023-08-07T10:23:50.000Z</time>
</trkpt>
<trkpt lat="46.1253480" lon="10.4945880">
	<ele>2477.20</ele>
	<time>2023-08-07T10:23:51.000Z</time>
</trkpt>
<trkpt lat="46.1253480" lon="10.4945880">
	<ele>2477.40</ele>
	<time>2023-08-07T10:23:52.000Z</time>
</trkpt>
<trkpt lat="46.1253480" lon="10.4945880">
	<ele>2477.40</ele>
	<time>2023-08-07T10:23:53.000Z</time>
</trkpt>
<trkpt lat="46.1253480" lon="10.4945880">
	<ele>2477.60</ele>
	<time>2023-08-07T10:23:54.000Z</time>
</trkpt>
<trkpt lat="46.1253480" lon="10.4945880">
	<ele>2477.60</ele>
	<time>2023-08-07T10:23:55.000Z</time>
</trkpt>
<trkpt lat="46.1253480" lon="10.4945880">
	<ele>2477.60</ele>
	<time>2023-08-07T10:23:56.000Z</time>
</trkpt>
<trkpt lat="46.1253480" lon="10.4945880">
	<ele>2477.60</ele>
	<time>2023-08-07T10:23:57.000Z</time>
</trkpt>
<trkpt lat="46.1253480" lon="10.4945880">
	<ele>2477.40</ele>
	<time>2023-08-07T10:23:58.000Z</time>
</trkpt>
<trkpt lat="46.1253480" lon="10.4945880">
	<ele>2477.40</ele>
	<time>2023-08-07T10:23:59.000Z</time>
</trkpt>
<trkpt lat="46.1253480" lon="10.4945880">
	<ele>2477.20</ele>
	<time>2023-08-07T10:24:00.000Z</time>
</trkpt>
<trkpt lat="46.1253480" lon="10.4945880">
	<ele>2477.20</ele>
	<time>2023-08-07T10:24:01.000Z</time>
</trkpt>
<trkpt lat="46.1253480" lon="10.4945880">
	<ele>2477.20</ele>
	<time>2023-08-07T10:24:02.000Z</time>
</trkpt>
<trkpt lat="46.1253480" lon="10.4945880">
	<ele>2477.20</ele>
	<time>2023-08-07T10:24:03.000Z</time>
</trkpt>
<trkpt lat="46.1253480" lon="10.4945880">
	<ele>2477.20</ele>
	<time>2023-08-07T10:24:04.000Z</time>
</trkpt>
<trkpt lat="46.1253490" lon="10.4945880">
	<ele>2477.20</ele>
	<time>2023-08-07T10:24:05.000Z</time>
</trkpt>
<trkpt lat="46.1253490" lon="10.4945880">
	<ele>2477.20</ele>
	<time>2023-08-07T10:24:06.000Z</time>
</trkpt>
<trkpt lat="46.1253490" lon="10.4945880">
	<ele>2477.20</ele>
	<time>2023-08-07T10:24:07.000Z</time>
</trkpt>
<trkpt lat="46.1253490" lon="10.4945880">
	<ele>2477.20</ele>
	<time>2023-08-07T10:24:08.000Z</time>
</trkpt>
<trkpt lat="46.1253500" lon="10.4945880">
	<ele>2477.20</ele>
	<time>2023-08-07T10:24:09.000Z</time>
</trkpt>
<trkpt lat="46.1253500" lon="10.4945880">
	<ele>2477.00</ele>
	<time>2023-08-07T10:24:10.000Z</time>
</trkpt>
<trkpt lat="46.1253500" lon="10.4945880">
	<ele>2477.20</ele>
	<time>2023-08-07T10:24:11.000Z</time>
</trkpt>
<trkpt lat="46.1253500" lon="10.4945880">
	<ele>2477.20</ele>
	<time>2023-08-07T10:24:12.000Z</time>
</trkpt>
<trkpt lat="46.1253510" lon="10.4945880">
	<ele>2477.20</ele>
	<time>2023-08-07T10:24:13.000Z</time>
</trkpt>
<trkpt lat="46.1253520" lon="10.4945880">
	<ele>2477.20</ele>
	<time>2023-08-07T10:24:14.000Z</time>
</trkpt>
<trkpt lat="46.1253520" lon="10.4945850">
	<ele>2477.20</ele>
	<time>2023-08-07T10:24:15.000Z</time>
</trkpt>
<trkpt lat="46.1253530" lon="10.4945850">
	<ele>2477.20</ele>
	<time>2023-08-07T10:24:16.000Z</time>
</trkpt>
<trkpt lat="46.1253530" lon="10.4945840">
	<ele>2477.40</ele>
	<time>2023-08-07T10:24:17.000Z</time>
</trkpt>
<trkpt lat="46.1253540" lon="10.4945840">
	<ele>2477.40</ele>
	<time>2023-08-07T10:24:18.000Z</time>
</trkpt>
<trkpt lat="46.1253560" lon="10.4945840">
	<ele>2477.40</ele>
	<time>2023-08-07T10:24:19.000Z</time>
</trkpt>
<trkpt lat="46.1253560" lon="10.4945840">
	<ele>2477.40</ele>
	<time>2023-08-07T10:24:20.000Z</time>
</trkpt>
<trkpt lat="46.1253570" lon="10.4945840">
	<ele>2477.40</ele>
	<time>2023-08-07T10:24:21.000Z</time>
</trkpt>
<trkpt lat="46.1253570" lon="10.4945840">
	<ele>2477.20</ele>
	<time>2023-08-07T10:24:22.000Z</time>
</trkpt>
<trkpt lat="46.1253570" lon="10.4945840">
	<ele>2477.20</ele>
	<time>2023-08-07T10:24:23.000Z</time>
</trkpt>
<trkpt lat="46.1253570" lon="10.4945840">
	<ele>2477.20</ele>
	<time>2023-08-07T10:24:24.000Z</time>
</trkpt>
<trkpt lat="46.1253580" lon="10.4945840">
	<ele>2477.20</ele>
	<time>2023-08-07T10:24:25.000Z</time>
</trkpt>
<trkpt lat="46.1253580" lon="10.4945840">
	<ele>2477.20</ele>
	<time>2023-08-07T10:24:26.000Z</time>
</trkpt>
<trkpt lat="46.1253580" lon="10.4945830">
	<ele>2477.20</ele>
	<time>2023-08-07T10:24:27.000Z</time>
</trkpt>
<trkpt lat="46.1253590" lon="10.4945830">
	<ele>2477.40</ele>
	<time>2023-08-07T10:24:28.000Z</time>
</trkpt>
<trkpt lat="46.1253590" lon="10.4945820">
	<ele>2477.60</ele>
	<time>2023-08-07T10:24:29.000Z</time>
</trkpt>
<trkpt lat="46.1253600" lon="10.4945820">
	<ele>2477.60</ele>
	<time>2023-08-07T10:24:30.000Z</time>
</trkpt>
<trkpt lat="46.1253610" lon="10.4945820">
	<ele>2477.60</ele>
	<time>2023-08-07T10:24:31.000Z</time>
</trkpt>
<trkpt lat="46.1253630" lon="10.4945810">
	<ele>2477.40</ele>
	<time>2023-08-07T10:24:32.000Z</time>
</trkpt>
<trkpt lat="46.1253630" lon="10.4945810">
	<ele>2477.40</ele>
	<time>2023-08-07T10:24:33.000Z</time>
</trkpt>
<trkpt lat="46.1253630" lon="10.4945810">
	<ele>2477.40</ele>
	<time>2023-08-07T10:24:34.000Z</time>
</trkpt>
<trkpt lat="46.1253640" lon="10.4945810">
	<ele>2477.40</ele>
	<time>2023-08-07T10:24:35.000Z</time>
</trkpt>
<trkpt lat="46.1253640" lon="10.4945810">
	<ele>2477.20</ele>
	<time>2023-08-07T10:24:36.000Z</time>
</trkpt>
<trkpt lat="46.1253640" lon="10.4945810">
	<ele>2477.20</ele>
	<time>2023-08-07T10:24:37.000Z</time>
</trkpt>
<trkpt lat="46.1253640" lon="10.4945810">
	<ele>2477.00</ele>
	<time>2023-08-07T10:24:38.000Z</time>
</trkpt>
<trkpt lat="46.1253640" lon="10.4945810">
	<ele>2477.00</ele>
	<time>2023-08-07T10:24:39.000Z</time>
</trkpt>
<trkpt lat="46.1253650" lon="10.4945810">
	<ele>2476.80</ele>
	<time>2023-08-07T10:24:40.000Z</time>
</trkpt>
<trkpt lat="46.1253660" lon="10.4945810">
	<ele>2476.80</ele>
	<time>2023-08-07T10:24:41.000Z</time>
</trkpt>
<trkpt lat="46.1253680" lon="10.4945810">
	<ele>2476.80</ele>
	<time>2023-08-07T10:24:42.000Z</time>
</trkpt>
<trkpt lat="46.1253700" lon="10.4945810">
	<ele>2476.80</ele>
	<time>2023-08-07T10:24:43.000Z</time>
</trkpt>
<trkpt lat="46.1253710" lon="10.4945810">
	<ele>2476.80</ele>
	<time>2023-08-07T10:24:44.000Z</time>
</trkpt>
<trkpt lat="46.1253720" lon="10.4945800">
	<ele>2476.80</ele>
	<time>2023-08-07T10:24:45.000Z</time>
</trkpt>
<trkpt lat="46.1253730" lon="10.4945800">
	<ele>2476.80</ele>
	<time>2023-08-07T10:24:46.000Z</time>
</trkpt>
<trkpt lat="46.1253740" lon="10.4945790">
	<ele>2476.80</ele>
	<time>2023-08-07T10:24:47.000Z</time>
</trkpt>
<trkpt lat="46.1253740" lon="10.4945790">
	<ele>2476.80</ele>
	<time>2023-08-07T10:24:48.000Z</time>
</trkpt>
<trkpt lat="46.1253740" lon="10.4945790">
	<ele>2476.80</ele>
	<time>2023-08-07T10:24:49.000Z</time>
</trkpt>
<trkpt lat="46.1253750" lon="10.4945780">
	<ele>2476.80</ele>
	<time>2023-08-07T10:24:50.000Z</time>
</trkpt>
<trkpt lat="46.1253760" lon="10.4945780">
	<ele>2476.80</ele>
	<time>2023-08-07T10:24:51.000Z</time>
</trkpt>
<trkpt lat="46.1253770" lon="10.4945780">
	<ele>2476.80</ele>
	<time>2023-08-07T10:24:52.000Z</time>
</trkpt>
<trkpt lat="46.1253800" lon="10.4945770">
	<ele>2477.80</ele>
	<time>2023-08-07T10:24:53.000Z</time>
</trkpt>
<trkpt lat="46.1253820" lon="10.4945770">
	<ele>2477.80</ele>
	<time>2023-08-07T10:24:54.000Z</time>
</trkpt>
<trkpt lat="46.1253830" lon="10.4945770">
	<ele>2477.80</ele>
	<time>2023-08-07T10:24:55.000Z</time>
</trkpt>
<trkpt lat="46.1253840" lon="10.4945770">
	<ele>2477.80</ele>
	<time>2023-08-07T10:24:56.000Z</time>
</trkpt>
<trkpt lat="46.1253840" lon="10.4945770">
	<ele>2477.80</ele>
	<time>2023-08-07T10:24:57.000Z</time>
</trkpt>
<trkpt lat="46.1253840" lon="10.4945760">
	<ele>2477.80</ele>
	<time>2023-08-07T10:24:58.000Z</time>
</trkpt>
<trkpt lat="46.1253840" lon="10.4945750">
	<ele>2477.80</ele>
	<time>2023-08-07T10:24:59.000Z</time>
</trkpt>
<trkpt lat="46.1253850" lon="10.4945750">
	<ele>2477.80</ele>
	<time>2023-08-07T10:25:00.000Z</time>
</trkpt>
<trkpt lat="46.1253870" lon="10.4945740">
	<ele>2477.80</ele>
	<time>2023-08-07T10:25:01.000Z</time>
</trkpt>
<trkpt lat="46.1253890" lon="10.4945730">
	<ele>2477.80</ele>
	<time>2023-08-07T10:25:02.000Z</time>
</trkpt>
<trkpt lat="46.1253900" lon="10.4945730">
	<ele>2477.80</ele>
	<time>2023-08-07T10:25:03.000Z</time>
</trkpt>
<trkpt lat="46.1253910" lon="10.4945710">
	<ele>2477.80</ele>
	<time>2023-08-07T10:25:04.000Z</time>
</trkpt>
<trkpt lat="46.1253910" lon="10.4945710">
	<ele>2477.80</ele>
	<time>2023-08-07T10:25:05.000Z</time>
</trkpt>
<trkpt lat="46.1253910" lon="10.4945710">
	<ele>2477.80</ele>
	<time>2023-08-07T10:25:06.000Z</time>
</trkpt>
<trkpt lat="46.1253890" lon="10.4945640">
	<ele>2477.80</ele>
	<time>2023-08-07T10:25:07.000Z</time>
</trkpt>
<trkpt lat="46.1253860" lon="10.4945520">
	<ele>2477.80</ele>
	<time>2023-08-07T10:25:08.000Z</time>
</trkpt>
<trkpt lat="46.1253820" lon="10.4945420">
	<ele>2477.80</ele>
	<time>2023-08-07T10:25:09.000Z</time>
</trkpt>
<trkpt lat="46.1253770" lon="10.4945310">
	<ele>2477.80</ele>
	<time>2023-08-07T10:25:10.000Z</time>
</trkpt>
<trkpt lat="46.1253730" lon="10.4945200">
	<ele>2477.80</ele>
	<time>2023-08-07T10:25:11.000Z</time>
</trkpt>
<trkpt lat="46.1253690" lon="10.4945050">
	<ele>2477.80</ele>
	<time>2023-08-07T10:25:12.000Z</time>
</trkpt>
<trkpt lat="46.1253650" lon="10.4944920">
	<ele>2477.80</ele>
	<time>2023-08-07T10:25:13.000Z</time>
</trkpt>
<trkpt lat="46.1253550" lon="10.4944870">
	<ele>2477.80</ele>
	<time>2023-08-07T10:25:14.000Z</time>
</trkpt>
<trkpt lat="46.1253520" lon="10.4944750">
	<ele>2477.80</ele>
	<time>2023-08-07T10:25:15.000Z</time>
</trkpt>
<trkpt lat="46.1253490" lon="10.4944620">
	<ele>2477.80</ele>
	<time>2023-08-07T10:25:16.000Z</time>
</trkpt>
<trkpt lat="46.1253450" lon="10.4944540">
	<ele>2477.80</ele>
	<time>2023-08-07T10:25:17.000Z</time>
</trkpt>
<trkpt lat="46.1253440" lon="10.4944490">
	<ele>2477.80</ele>
	<time>2023-08-07T10:25:18.000Z</time>
</trkpt>
<trkpt lat="46.1253450" lon="10.4944460">
	<ele>2477.80</ele>
	<time>2023-08-07T10:25:19.000Z</time>
</trkpt>
<trkpt lat="46.1253490" lon="10.4944430">
	<ele>2477.80</ele>
	<time>2023-08-07T10:25:20.000Z</time>
</trkpt>
<trkpt lat="46.1253530" lon="10.4944380">
	<ele>2477.80</ele>
	<time>2023-08-07T10:25:21.000Z</time>
</trkpt>
<trkpt lat="46.1253560" lon="10.4944350">
	<ele>2477.80</ele>
	<time>2023-08-07T10:25:22.000Z</time>
</trkpt>
<trkpt lat="46.1253610" lon="10.4944330">
	<ele>2477.80</ele>
	<time>2023-08-07T10:25:23.000Z</time>
</trkpt>
<trkpt lat="46.1253630" lon="10.4944340">
	<ele>2477.80</ele>
	<time>2023-08-07T10:25:24.000Z</time>
</trkpt>
<trkpt lat="46.1253650" lon="10.4944350">
	<ele>2477.80</ele>
	<time>2023-08-07T10:25:25.000Z</time>
</trkpt>
<trkpt lat="46.1253670" lon="10.4944360">
	<ele>2477.80</ele>
	<time>2023-08-07T10:25:26.000Z</time>
</trkpt>
<trkpt lat="46.1253690" lon="10.4944330">
	<ele>2477.80</ele>
	<time>2023-08-07T10:25:27.000Z</time>
</trkpt>
<trkpt lat="46.1253760" lon="10.4944300">
	<ele>2477.80</ele>
	<time>2023-08-07T10:25:28.000Z</time>
</trkpt>
<trkpt lat="46.1253790" lon="10.4944320">
	<ele>2477.80</ele>
	<time>2023-08-07T10:25:29.000Z</time>
</trkpt>
<trkpt lat="46.1253820" lon="10.4944340">
	<ele>2477.80</ele>
	<time>2023-08-07T10:25:30.000Z</time>
</trkpt>
<trkpt lat="46.1253850" lon="10.4944340">
	<ele>2477.80</ele>
	<time>2023-08-07T10:25:31.000Z</time>
</trkpt>
<trkpt lat="46.1253870" lon="10.4944340">
	<ele>2477.80</ele>
	<time>2023-08-07T10:25:32.000Z</time>
</trkpt>
<trkpt lat="46.1253920" lon="10.4944280">
	<ele>2477.80</ele>
	<time>2023-08-07T10:25:33.000Z</time>
</trkpt>
<trkpt lat="46.1253970" lon="10.4944200">
	<ele>2477.80</ele>
	<time>2023-08-07T10:25:34.000Z</time>
</trkpt>
<trkpt lat="46.1253930" lon="10.4944160">
	<ele>2477.80</ele>
	<time>2023-08-07T10:25:35.000Z</time>
</trkpt>
<trkpt lat="46.1253930" lon="10.4944130">
	<ele>2477.80</ele>
	<time>2023-08-07T10:25:36.000Z</time>
</trkpt>
<trkpt lat="46.1253980" lon="10.4944090">
	<ele>2477.80</ele>
	<time>2023-08-07T10:25:37.000Z</time>
</trkpt>
<trkpt lat="46.1253960" lon="10.4944060">
	<ele>2477.80</ele>
	<time>2023-08-07T10:25:38.000Z</time>
</trkpt>
<trkpt lat="46.1253950" lon="10.4944030">
	<ele>2477.80</ele>
	<time>2023-08-07T10:25:39.000Z</time>
</trkpt>
<trkpt lat="46.1253960" lon="10.4944020">
	<ele>2477.80</ele>
	<time>2023-08-07T10:25:40.000Z</time>
</trkpt>
<trkpt lat="46.1253960" lon="10.4944010">
	<ele>2477.80</ele>
	<time>2023-08-07T10:25:41.000Z</time>
</trkpt>
<trkpt lat="46.1253960" lon="10.4944000">
	<ele>2477.80</ele>
	<time>2023-08-07T10:25:42.000Z</time>
</trkpt>
<trkpt lat="46.1253970" lon="10.4944000">
	<ele>2477.80</ele>
	<time>2023-08-07T10:25:43.000Z</time>
</trkpt>
<trkpt lat="46.1253980" lon="10.4943970">
	<ele>2477.80</ele>
	<time>2023-08-07T10:25:44.000Z</time>
</trkpt>
<trkpt lat="46.1254000" lon="10.4943930">
	<ele>2477.80</ele>
	<time>2023-08-07T10:25:45.000Z</time>
</trkpt>
<trkpt lat="46.1254000" lon="10.4943920">
	<ele>2477.80</ele>
	<time>2023-08-07T10:25:46.000Z</time>
</trkpt>
<trkpt lat="46.1254040" lon="10.4943880">
	<ele>2477.80</ele>
	<time>2023-08-07T10:25:47.000Z</time>
</trkpt>
<trkpt lat="46.1254090" lon="10.4943880">
	<ele>2477.80</ele>
	<time>2023-08-07T10:25:48.000Z</time>
</trkpt>
<trkpt lat="46.1254140" lon="10.4943880">
	<ele>2477.80</ele>
	<time>2023-08-07T10:25:49.000Z</time>
</trkpt>
<trkpt lat="46.1254220" lon="10.4943860">
	<ele>2477.80</ele>
	<time>2023-08-07T10:25:50.000Z</time>
</trkpt>
<trkpt lat="46.1254260" lon="10.4943840">
	<ele>2477.80</ele>
	<time>2023-08-07T10:25:51.000Z</time>
</trkpt>
<trkpt lat="46.1254290" lon="10.4943860">
	<ele>2477.80</ele>
	<time>2023-08-07T10:25:52.000Z</time>
</trkpt>
<trkpt lat="46.1254320" lon="10.4943880">
	<ele>2477.80</ele>
	<time>2023-08-07T10:25:53.000Z</time>
</trkpt>
<trkpt lat="46.1254360" lon="10.4943880">
	<ele>2485.40</ele>
	<time>2023-08-07T10:25:54.000Z</time>
</trkpt>
<trkpt lat="46.1254390" lon="10.4943860">
	<ele>2485.40</ele>
	<time>2023-08-07T10:25:55.000Z</time>
</trkpt>
<trkpt lat="46.1254410" lon="10.4943820">
	<ele>2485.40</ele>
	<time>2023-08-07T10:25:56.000Z</time>
</trkpt>
<trkpt lat="46.1254350" lon="10.4943790">
	<ele>2485.40</ele>
	<time>2023-08-07T10:25:57.000Z</time>
</trkpt>
<trkpt lat="46.1254330" lon="10.4943760">
	<ele>2485.40</ele>
	<time>2023-08-07T10:25:58.000Z</time>
</trkpt>
<trkpt lat="46.1254310" lon="10.4943720">
	<ele>2485.60</ele>
	<time>2023-08-07T10:25:59.000Z</time>
</trkpt>
<trkpt lat="46.1254330" lon="10.4943660">
	<ele>2485.60</ele>
	<time>2023-08-07T10:26:00.000Z</time>
</trkpt>
<trkpt lat="46.1254370" lon="10.4943620">
	<ele>2485.80</ele>
	<time>2023-08-07T10:26:01.000Z</time>
</trkpt>
<trkpt lat="46.1254420" lon="10.4943620">
	<ele>2486.00</ele>
	<time>2023-08-07T10:26:02.000Z</time>
</trkpt>
<trkpt lat="46.1254450" lon="10.4943660">
	<ele>2486.20</ele>
	<time>2023-08-07T10:26:03.000Z</time>
</trkpt>
<trkpt lat="46.1254530" lon="10.4943640">
	<ele>2486.40</ele>
	<time>2023-08-07T10:26:04.000Z</time>
</trkpt>
<trkpt lat="46.1254570" lon="10.4943620">
	<ele>2486.60</ele>
	<time>2023-08-07T10:26:05.000Z</time>
</trkpt>
<trkpt lat="46.1254600" lon="10.4943580">
	<ele>2486.80</ele>
	<time>2023-08-07T10:26:06.000Z</time>
</trkpt>
<trkpt lat="46.1254620" lon="10.4943540">
	<ele>2487.00</ele>
	<time>2023-08-07T10:26:07.000Z</time>
</trkpt>
<trkpt lat="46.1254680" lon="10.4943520">
	<ele>2487.20</ele>
	<time>2023-08-07T10:26:08.000Z</time>
</trkpt>
<trkpt lat="46.1254730" lon="10.4943450">
	<ele>2487.20</ele>
	<time>2023-08-07T10:26:09.000Z</time>
</trkpt>
<trkpt lat="46.1254730" lon="10.4943460">
	<ele>2487.40</ele>
	<time>2023-08-07T10:26:10.000Z</time>
</trkpt>
<trkpt lat="46.1254770" lon="10.4943440">
	<ele>2487.40</ele>
	<time>2023-08-07T10:26:11.000Z</time>
</trkpt>
<trkpt lat="46.1254850" lon="10.4943400">
	<ele>2487.60</ele>
	<time>2023-08-07T10:26:12.000Z</time>
</trkpt>
<trkpt lat="46.1254890" lon="10.4943330">
	<ele>2487.80</ele>
	<time>2023-08-07T10:26:13.000Z</time>
</trkpt>
<trkpt lat="46.1254910" lon="10.4943270">
	<ele>2488.00</ele>
	<time>2023-08-07T10:26:14.000Z</time>
</trkpt>
<trkpt lat="46.1254910" lon="10.4943280">
	<ele>2488.00</ele>
	<time>2023-08-07T10:26:15.000Z</time>
</trkpt>
<trkpt lat="46.1254940" lon="10.4943230">
	<ele>2488.00</ele>
	<time>2023-08-07T10:26:16.000Z</time>
</trkpt>
<trkpt lat="46.1254960" lon="10.4943160">
	<ele>2488.00</ele>
	<time>2023-08-07T10:26:17.000Z</time>
</trkpt>
<trkpt lat="46.1254970" lon="10.4943120">
	<ele>2488.00</ele>
	<time>2023-08-07T10:26:18.000Z</time>
</trkpt>
<trkpt lat="46.1254960" lon="10.4943070">
	<ele>2488.00</ele>
	<time>2023-08-07T10:26:19.000Z</time>
</trkpt>
<trkpt lat="46.1254930" lon="10.4943030">
	<ele>2488.00</ele>
	<time>2023-08-07T10:26:20.000Z</time>
</trkpt>
<trkpt lat="46.1254930" lon="10.4943000">
	<ele>2488.00</ele>
	<time>2023-08-07T10:26:21.000Z</time>
</trkpt>
<trkpt lat="46.1254940" lon="10.4942980">
	<ele>2488.20</ele>
	<time>2023-08-07T10:26:22.000Z</time>
</trkpt>
<trkpt lat="46.1254950" lon="10.4942960">
	<ele>2488.40</ele>
	<time>2023-08-07T10:26:23.000Z</time>
</trkpt>
<trkpt lat="46.1254940" lon="10.4942890">
	<ele>2488.60</ele>
	<time>2023-08-07T10:26:24.000Z</time>
</trkpt>
<trkpt lat="46.1254950" lon="10.4942790">
	<ele>2488.60</ele>
	<time>2023-08-07T10:26:25.000Z</time>
</trkpt>
<trkpt lat="46.1255010" lon="10.4942680">
	<ele>2488.60</ele>
	<time>2023-08-07T10:26:26.000Z</time>
</trkpt>
<trkpt lat="46.1255030" lon="10.4942630">
	<ele>2488.80</ele>
	<time>2023-08-07T10:26:27.000Z</time>
</trkpt>
<trkpt lat="46.1255080" lon="10.4942560">
	<ele>2488.80</ele>
	<time>2023-08-07T10:26:28.000Z</time>
</trkpt>
<trkpt lat="46.1255110" lon="10.4942510">
	<ele>2488.80</ele>
	<time>2023-08-07T10:26:29.000Z</time>
</trkpt>
<trkpt lat="46.1255130" lon="10.4942500">
	<ele>2488.80</ele>
	<time>2023-08-07T10:26:30.000Z</time>
</trkpt>
<trkpt lat="46.1255220" lon="10.4942510">
	<ele>2488.80</ele>
	<time>2023-08-07T10:26:31.000Z</time>
</trkpt>
<trkpt lat="46.1255290" lon="10.4942510">
	<ele>2489.00</ele>
	<time>2023-08-07T10:26:32.000Z</time>
</trkpt>
<trkpt lat="46.1255370" lon="10.4942510">
	<ele>2489.00</ele>
	<time>2023-08-07T10:26:33.000Z</time>
</trkpt>
<trkpt lat="46.1255400" lon="10.4942520">
	<ele>2489.00</ele>
	<time>2023-08-07T10:26:34.000Z</time>
</trkpt>
<trkpt lat="46.1255510" lon="10.4942490">
	<ele>2489.00</ele>
	<time>2023-08-07T10:26:35.000Z</time>
</trkpt>
<trkpt lat="46.1255550" lon="10.4942470">
	<ele>2489.20</ele>
	<time>2023-08-07T10:26:36.000Z</time>
</trkpt>
<trkpt lat="46.1255580" lon="10.4942430">
	<ele>2489.40</ele>
	<time>2023-08-07T10:26:37.000Z</time>
</trkpt>
<trkpt lat="46.1255620" lon="10.4942380">
	<ele>2489.40</ele>
	<time>2023-08-07T10:26:38.000Z</time>
</trkpt>
<trkpt lat="46.1255700" lon="10.4942280">
	<ele>2489.60</ele>
	<time>2023-08-07T10:26:39.000Z</time>
</trkpt>
<trkpt lat="46.1255750" lon="10.4942240">
	<ele>2489.80</ele>
	<time>2023-08-07T10:26:40.000Z</time>
</trkpt>
<trkpt lat="46.1255770" lon="10.4942200">
	<ele>2490.00</ele>
	<time>2023-08-07T10:26:41.000Z</time>
</trkpt>
<trkpt lat="46.1255790" lon="10.4942170">
	<ele>2490.20</ele>
	<time>2023-08-07T10:26:42.000Z</time>
</trkpt>
<trkpt lat="46.1255830" lon="10.4942150">
	<ele>2490.20</ele>
	<time>2023-08-07T10:26:43.000Z</time>
</trkpt>
<trkpt lat="46.1255860" lon="10.4942130">
	<ele>2490.40</ele>
	<time>2023-08-07T10:26:44.000Z</time>
</trkpt>
<trkpt lat="46.1255890" lon="10.4942110">
	<ele>2490.40</ele>
	<time>2023-08-07T10:26:45.000Z</time>
</trkpt>
<trkpt lat="46.1255910" lon="10.4942100">
	<ele>2490.60</ele>
	<time>2023-08-07T10:26:46.000Z</time>
</trkpt>
<trkpt lat="46.1255940" lon="10.4942050">
	<ele>2490.60</ele>
	<time>2023-08-07T10:26:47.000Z</time>
</trkpt>
<trkpt lat="46.1255930" lon="10.4942030">
	<ele>2490.60</ele>
	<time>2023-08-07T10:26:48.000Z</time>
</trkpt>
<trkpt lat="46.1255930" lon="10.4941970">
	<ele>2490.60</ele>
	<time>2023-08-07T10:26:49.000Z</time>
</trkpt>
<trkpt lat="46.1255860" lon="10.4941960">
	<ele>2490.80</ele>
	<time>2023-08-07T10:26:50.000Z</time>
</trkpt>
<trkpt lat="46.1255830" lon="10.4941930">
	<ele>2491.00</ele>
	<time>2023-08-07T10:26:51.000Z</time>
</trkpt>
<trkpt lat="46.1255810" lon="10.4941900">
	<ele>2491.20</ele>
	<time>2023-08-07T10:26:52.000Z</time>
</trkpt>
<trkpt lat="46.1255810" lon="10.4941870">
	<ele>2491.40</ele>
	<time>2023-08-07T10:26:53.000Z</time>
</trkpt>
<trkpt lat="46.1255810" lon="10.4941820">
	<ele>2491.40</ele>
	<time>2023-08-07T10:26:54.000Z</time>
</trkpt>
<trkpt lat="46.1255800" lon="10.4941750">
	<ele>2491.40</ele>
	<time>2023-08-07T10:26:55.000Z</time>
</trkpt>
<trkpt lat="46.1255730" lon="10.4941690">
	<ele>2491.60</ele>
	<time>2023-08-07T10:26:56.000Z</time>
</trkpt>
<trkpt lat="46.1255630" lon="10.4941660">
	<ele>2491.60</ele>
	<time>2023-08-07T10:26:57.000Z</time>
</trkpt>
<trkpt lat="46.1255490" lon="10.4941690">
	<ele>2491.60</ele>
	<time>2023-08-07T10:26:58.000Z</time>
</trkpt>
<trkpt lat="46.1255460" lon="10.4941620">
	<ele>2491.60</ele>
	<time>2023-08-07T10:26:59.000Z</time>
</trkpt>
<trkpt lat="46.1255430" lon="10.4941560">
	<ele>2491.40</ele>
	<time>2023-08-07T10:27:00.000Z</time>
</trkpt>
<trkpt lat="46.1255400" lon="10.4941500">
	<ele>2491.40</ele>
	<time>2023-08-07T10:27:01.000Z</time>
</trkpt>
<trkpt lat="46.1255310" lon="10.4941490">
	<ele>2491.40</ele>
	<time>2023-08-07T10:27:02.000Z</time>
</trkpt>
<trkpt lat="46.1255240" lon="10.4941490">
	<ele>2491.40</ele>
	<time>2023-08-07T10:27:03.000Z</time>
</trkpt>
<trkpt lat="46.1255190" lon="10.4941520">
	<ele>2491.40</ele>
	<time>2023-08-07T10:27:04.000Z</time>
</trkpt>
<trkpt lat="46.1255180" lon="10.4941610">
	<ele>2491.40</ele>
	<time>2023-08-07T10:27:05.000Z</time>
</trkpt>
<trkpt lat="46.1255150" lon="10.4941690">
	<ele>2491.60</ele>
	<time>2023-08-07T10:27:06.000Z</time>
</trkpt>
<trkpt lat="46.1255080" lon="10.4941770">
	<ele>2491.60</ele>
	<time>2023-08-07T10:27:07.000Z</time>
</trkpt>
<trkpt lat="46.1254780" lon="10.4941890">
	<ele>2491.60</ele>
	<time>2023-08-07T10:27:08.000Z</time>
</trkpt>
<trkpt lat="46.1254750" lon="10.4941990">
	<ele>2491.80</ele>
	<time>2023-08-07T10:27:09.000Z</time>
</trkpt>
<trkpt lat="46.1254750" lon="10.4942020">
	<ele>2491.80</ele>
	<time>2023-08-07T10:27:10.000Z</time>
</trkpt>
<trkpt lat="46.1254750" lon="10.4941980">
	<ele>2491.80</ele>
	<time>2023-08-07T10:27:11.000Z</time>
</trkpt>
<trkpt lat="46.1254720" lon="10.4941970">
	<ele>2491.80</ele>
	<time>2023-08-07T10:27:12.000Z</time>
</trkpt>
<trkpt lat="46.1254700" lon="10.4941970">
	<ele>2491.80</ele>
	<time>2023-08-07T10:27:13.000Z</time>
</trkpt>
<trkpt lat="46.1254700" lon="10.4941950">
	<ele>2491.80</ele>
	<time>2023-08-07T10:27:14.000Z</time>
</trkpt>
<trkpt lat="46.1254710" lon="10.4941850">
	<ele>2491.80</ele>
	<time>2023-08-07T10:27:15.000Z</time>
</trkpt>
<trkpt lat="46.1254670" lon="10.4941800">
	<ele>2491.60</ele>
	<time>2023-08-07T10:27:16.000Z</time>
</trkpt>
<trkpt lat="46.1254670" lon="10.4941740">
	<ele>2491.60</ele>
	<time>2023-08-07T10:27:17.000Z</time>
</trkpt>
<trkpt lat="46.1254680" lon="10.4941660">
	<ele>2491.60</ele>
	<time>2023-08-07T10:27:18.000Z</time>
</trkpt>
<trkpt lat="46.1254670" lon="10.4941570">
	<ele>2491.60</ele>
	<time>2023-08-07T10:27:19.000Z</time>
</trkpt>
<trkpt lat="46.1254660" lon="10.4941520">
	<ele>2491.60</ele>
	<time>2023-08-07T10:27:20.000Z</time>
</trkpt>
<trkpt lat="46.1254630" lon="10.4941460">
	<ele>2491.60</ele>
	<time>2023-08-07T10:27:21.000Z</time>
</trkpt>
<trkpt lat="46.1254610" lon="10.4941370">
	<ele>2491.60</ele>
	<time>2023-08-07T10:27:22.000Z</time>
</trkpt>
<trkpt lat="46.1254630" lon="10.4941290">
	<ele>2491.80</ele>
	<time>2023-08-07T10:27:23.000Z</time>
</trkpt>
<trkpt lat="46.1254630" lon="10.4941240">
	<ele>2491.80</ele>
	<time>2023-08-07T10:27:24.000Z</time>
</trkpt>
<trkpt lat="46.1254620" lon="10.4941210">
	<ele>2492.00</ele>
	<time>2023-08-07T10:27:25.000Z</time>
</trkpt>
<trkpt lat="46.1254650" lon="10.4941230">
	<ele>2492.20</ele>
	<time>2023-08-07T10:27:26.000Z</time>
</trkpt>
<trkpt lat="46.1254680" lon="10.4941230">
	<ele>2492.40</ele>
	<time>2023-08-07T10:27:27.000Z</time>
</trkpt>
<trkpt lat="46.1254720" lon="10.4941230">
	<ele>2492.60</ele>
	<time>2023-08-07T10:27:28.000Z</time>
</trkpt>
<trkpt lat="46.1254800" lon="10.4941230">
	<ele>2492.80</ele>
	<time>2023-08-07T10:27:29.000Z</time>
</trkpt>
<trkpt lat="46.1254860" lon="10.4941260">
	<ele>2492.80</ele>
	<time>2023-08-07T10:27:30.000Z</time>
</trkpt>
<trkpt lat="46.1254940" lon="10.4941280">
	<ele>2493.00</ele>
	<time>2023-08-07T10:27:31.000Z</time>
</trkpt>
<trkpt lat="46.1254960" lon="10.4941300">
	<ele>2493.00</ele>
	<time>2023-08-07T10:27:32.000Z</time>
</trkpt>
<trkpt lat="46.1254980" lon="10.4941310">
	<ele>2493.20</ele>
	<time>2023-08-07T10:27:33.000Z</time>
</trkpt>
<trkpt lat="46.1255020" lon="10.4941300">
	<ele>2493.40</ele>
	<time>2023-08-07T10:27:34.000Z</time>
</trkpt>
<trkpt lat="46.1255060" lon="10.4941280">
	<ele>2493.60</ele>
	<time>2023-08-07T10:27:35.000Z</time>
</trkpt>
<trkpt lat="46.1255080" lon="10.4941280">
	<ele>2493.60</ele>
	<time>2023-08-07T10:27:36.000Z</time>
</trkpt>
<trkpt lat="46.1255080" lon="10.4941270">
	<ele>2493.80</ele>
	<time>2023-08-07T10:27:37.000Z</time>
</trkpt>
<trkpt lat="46.1255040" lon="10.4941230">
	<ele>2494.00</ele>
	<time>2023-08-07T10:27:38.000Z</time>
</trkpt>
<trkpt lat="46.1255020" lon="10.4941230">
	<ele>2494.00</ele>
	<time>2023-08-07T10:27:39.000Z</time>
</trkpt>
<trkpt lat="46.1255000" lon="10.4941250">
	<ele>2494.00</ele>
	<time>2023-08-07T10:27:40.000Z</time>
</trkpt>
<trkpt lat="46.1254990" lon="10.4941290">
	<ele>2494.00</ele>
	<time>2023-08-07T10:27:41.000Z</time>
</trkpt>
<trkpt lat="46.1254970" lon="10.4941250">
	<ele>2494.00</ele>
	<time>2023-08-07T10:27:42.000Z</time>
</trkpt>
<trkpt lat="46.1254960" lon="10.4941200">
	<ele>2494.20</ele>
	<time>2023-08-07T10:27:43.000Z</time>
</trkpt>
<trkpt lat="46.1254960" lon="10.4941150">
	<ele>2494.20</ele>
	<time>2023-08-07T10:27:44.000Z</time>
</trkpt>
<trkpt lat="46.1254990" lon="10.4941140">
	<ele>2494.20</ele>
	<time>2023-08-07T10:27:45.000Z</time>
</trkpt>
<trkpt lat="46.1255070" lon="10.4941070">
	<ele>2494.80</ele>
	<time>2023-08-07T10:27:46.000Z</time>
</trkpt>
<trkpt lat="46.1255070" lon="10.4941060">
	<ele>2495.00</ele>
	<time>2023-08-07T10:27:47.000Z</time>
</trkpt>
<trkpt lat="46.1255130" lon="10.4941030">
	<ele>2495.20</ele>
	<time>2023-08-07T10:27:48.000Z</time>
</trkpt>
<trkpt lat="46.1255190" lon="10.4941000">
	<ele>2495.40</ele>
	<time>2023-08-07T10:27:49.000Z</time>
</trkpt>
<trkpt lat="46.1255250" lon="10.4941020">
	<ele>2495.60</ele>
	<time>2023-08-07T10:27:50.000Z</time>
</trkpt>
<trkpt lat="46.1255300" lon="10.4940980">
	<ele>2495.80</ele>
	<time>2023-08-07T10:27:51.000Z</time>
</trkpt>
<trkpt lat="46.1255320" lon="10.4940960">
	<ele>2495.80</ele>
	<time>2023-08-07T10:27:52.000Z</time>
</trkpt>
<trkpt lat="46.1255350" lon="10.4940950">
	<ele>2496.00</ele>
	<time>2023-08-07T10:27:53.000Z</time>
</trkpt>
<trkpt lat="46.1255400" lon="10.4940950">
	<ele>2496.00</ele>
	<time>2023-08-07T10:27:54.000Z</time>
</trkpt>
<trkpt lat="46.1255440" lon="10.4940970">
	<ele>2496.20</ele>
	<time>2023-08-07T10:27:55.000Z</time>
</trkpt>
<trkpt lat="46.1255460" lon="10.4941000">
	<ele>2496.40</ele>
	<time>2023-08-07T10:27:56.000Z</time>
</trkpt>
<trkpt lat="46.1255470" lon="10.4941040">
	<ele>2496.60</ele>
	<time>2023-08-07T10:27:57.000Z</time>
</trkpt>
<trkpt lat="46.1255480" lon="10.4941070">
	<ele>2496.80</ele>
	<time>2023-08-07T10:27:58.000Z</time>
</trkpt>
<trkpt lat="46.1255500" lon="10.4941090">
	<ele>2497.00</ele>
	<time>2023-08-07T10:27:59.000Z</time>
</trkpt>
<trkpt lat="46.1255500" lon="10.4941110">
	<ele>2497.00</ele>
	<time>2023-08-07T10:28:00.000Z</time>
</trkpt>
<trkpt lat="46.1255500" lon="10.4941140">
	<ele>2497.00</ele>
	<time>2023-08-07T10:28:01.000Z</time>
</trkpt>
<trkpt lat="46.1255480" lon="10.4941170">
	<ele>2497.00</ele>
	<time>2023-08-07T10:28:02.000Z</time>
</trkpt>
<trkpt lat="46.1255470" lon="10.4941180">
	<ele>2497.00</ele>
	<time>2023-08-07T10:28:03.000Z</time>
</trkpt>
<trkpt lat="46.1255490" lon="10.4941150">
	<ele>2497.00</ele>
	<time>2023-08-07T10:28:04.000Z</time>
</trkpt>
<trkpt lat="46.1255500" lon="10.4941160">
	<ele>2497.00</ele>
	<time>2023-08-07T10:28:05.000Z</time>
</trkpt>
<trkpt lat="46.1255510" lon="10.4941200">
	<ele>2497.20</ele>
	<time>2023-08-07T10:28:06.000Z</time>
</trkpt>
<trkpt lat="46.1255550" lon="10.4941230">
	<ele>2497.20</ele>
	<time>2023-08-07T10:28:07.000Z</time>
</trkpt>
<trkpt lat="46.1255610" lon="10.4941230">
	<ele>2497.20</ele>
	<time>2023-08-07T10:28:08.000Z</time>
</trkpt>
<trkpt lat="46.1255620" lon="10.4941230">
	<ele>2497.20</ele>
	<time>2023-08-07T10:28:09.000Z</time>
</trkpt>
<trkpt lat="46.1255650" lon="10.4941230">
	<ele>2497.20</ele>
	<time>2023-08-07T10:28:10.000Z</time>
</trkpt>
<trkpt lat="46.1255700" lon="10.4941220">
	<ele>2497.20</ele>
	<time>2023-08-07T10:28:11.000Z</time>
</trkpt>
<trkpt lat="46.1255710" lon="10.4941200">
	<ele>2497.20</ele>
	<time>2023-08-07T10:28:12.000Z</time>
</trkpt>
<trkpt lat="46.1255710" lon="10.4941170">
	<ele>2497.20</ele>
	<time>2023-08-07T10:28:13.000Z</time>
</trkpt>
<trkpt lat="46.1255700" lon="10.4941170">
	<ele>2497.00</ele>
	<time>2023-08-07T10:28:14.000Z</time>
</trkpt>
<trkpt lat="46.1255660" lon="10.4941130">
	<ele>2497.00</ele>
	<time>2023-08-07T10:28:15.000Z</time>
</trkpt>
<trkpt lat="46.1255640" lon="10.4941050">
	<ele>2497.00</ele>
	<time>2023-08-07T10:28:16.000Z</time>
</trkpt>
<trkpt lat="46.1255600" lon="10.4940970">
	<ele>2497.20</ele>
	<time>2023-08-07T10:28:17.000Z</time>
</trkpt>
<trkpt lat="46.1255570" lon="10.4940940">
	<ele>2497.20</ele>
	<time>2023-08-07T10:28:18.000Z</time>
</trkpt>
<trkpt lat="46.1255520" lon="10.4940900">
	<ele>2497.20</ele>
	<time>2023-08-07T10:28:19.000Z</time>
</trkpt>
<trkpt lat="46.1255510" lon="10.4940830">
	<ele>2497.20</ele>
	<time>2023-08-07T10:28:20.000Z</time>
</trkpt>
<trkpt lat="46.1255520" lon="10.4940740">
	<ele>2497.20</ele>
	<time>2023-08-07T10:28:21.000Z</time>
</trkpt>
<trkpt lat="46.1255510" lon="10.4940680">
	<ele>2497.40</ele>
	<time>2023-08-07T10:28:22.000Z</time>
</trkpt>
<trkpt lat="46.1255500" lon="10.4940640">
	<ele>2497.80</ele>
	<time>2023-08-07T10:28:23.000Z</time>
</trkpt>
<trkpt lat="46.1255480" lon="10.4940610">
	<ele>2498.20</ele>
	<time>2023-08-07T10:28:24.000Z</time>
</trkpt>
<trkpt lat="46.1255480" lon="10.4940610">
	<ele>2498.40</ele>
	<time>2023-08-07T10:28:25.000Z</time>
</trkpt>
<trkpt lat="46.1255500" lon="10.4940590">
	<ele>2498.60</ele>
	<time>2023-08-07T10:28:26.000Z</time>
</trkpt>
<trkpt lat="46.1255500" lon="10.4940540">
	<ele>2498.60</ele>
	<time>2023-08-07T10:28:27.000Z</time>
</trkpt>
<trkpt lat="46.1255500" lon="10.4940480">
	<ele>2498.80</ele>
	<time>2023-08-07T10:28:28.000Z</time>
</trkpt>
<trkpt lat="46.1255490" lon="10.4940410">
	<ele>2499.00</ele>
	<time>2023-08-07T10:28:29.000Z</time>
</trkpt>
<trkpt lat="46.1255490" lon="10.4940360">
	<ele>2499.20</ele>
	<time>2023-08-07T10:28:30.000Z</time>
</trkpt>
<trkpt lat="46.1255480" lon="10.4940320">
	<ele>2499.40</ele>
	<time>2023-08-07T10:28:31.000Z</time>
</trkpt>
<trkpt lat="46.1255490" lon="10.4940250">
	<ele>2499.40</ele>
	<time>2023-08-07T10:28:32.000Z</time>
</trkpt>
<trkpt lat="46.1255500" lon="10.4940220">
	<ele>2499.60</ele>
	<time>2023-08-07T10:28:33.000Z</time>
</trkpt>
<trkpt lat="46.1255490" lon="10.4940240">
	<ele>2499.60</ele>
	<time>2023-08-07T10:28:34.000Z</time>
</trkpt>
<trkpt lat="46.1255530" lon="10.4940240">
	<ele>2499.60</ele>
	<time>2023-08-07T10:28:35.000Z</time>
</trkpt>
<trkpt lat="46.1255550" lon="10.4940270">
	<ele>2499.80</ele>
	<time>2023-08-07T10:28:36.000Z</time>
</trkpt>
<trkpt lat="46.1255570" lon="10.4940290">
	<ele>2499.80</ele>
	<time>2023-08-07T10:28:37.000Z</time>
</trkpt>
<trkpt lat="46.1255610" lon="10.4940280">
	<ele>2500.00</ele>
	<time>2023-08-07T10:28:38.000Z</time>
</trkpt>
<trkpt lat="46.1255630" lon="10.4940250">
	<ele>2500.00</ele>
	<time>2023-08-07T10:28:39.000Z</time>
</trkpt>
<trkpt lat="46.1255640" lon="10.4940210">
	<ele>2500.20</ele>
	<time>2023-08-07T10:28:40.000Z</time>
</trkpt>
<trkpt lat="46.1255680" lon="10.4940190">
	<ele>2500.20</ele>
	<time>2023-08-07T10:28:41.000Z</time>
</trkpt>
<trkpt lat="46.1255680" lon="10.4940140">
	<ele>2500.20</ele>
	<time>2023-08-07T10:28:42.000Z</time>
</trkpt>
<trkpt lat="46.1255650" lon="10.4940070">
	<ele>2500.20</ele>
	<time>2023-08-07T10:28:43.000Z</time>
</trkpt>
<trkpt lat="46.1255640" lon="10.4940100">
	<ele>2500.20</ele>
	<time>2023-08-07T10:28:44.000Z</time>
</trkpt>
<trkpt lat="46.1255620" lon="10.4940100">
	<ele>2500.40</ele>
	<time>2023-08-07T10:28:45.000Z</time>
</trkpt>
<trkpt lat="46.1255640" lon="10.4940030">
	<ele>2500.40</ele>
	<time>2023-08-07T10:28:46.000Z</time>
</trkpt>
<trkpt lat="46.1255630" lon="10.4939970">
	<ele>2500.40</ele>
	<time>2023-08-07T10:28:47.000Z</time>
</trkpt>
<trkpt lat="46.1255620" lon="10.4939900">
	<ele>2500.40</ele>
	<time>2023-08-07T10:28:48.000Z</time>
</trkpt>
<trkpt lat="46.1255630" lon="10.4939800">
	<ele>2500.60</ele>
	<time>2023-08-07T10:28:49.000Z</time>
</trkpt>
<trkpt lat="46.1255630" lon="10.4939750">
	<ele>2500.80</ele>
	<time>2023-08-07T10:28:50.000Z</time>
</trkpt>
<trkpt lat="46.1255600" lon="10.4939710">
	<ele>2501.20</ele>
	<time>2023-08-07T10:28:51.000Z</time>
</trkpt>
<trkpt lat="46.1255570" lon="10.4939620">
	<ele>2501.20</ele>
	<time>2023-08-07T10:28:52.000Z</time>
</trkpt>
<trkpt lat="46.1255570" lon="10.4939540">
	<ele>2501.40</ele>
	<time>2023-08-07T10:28:53.000Z</time>
</trkpt>
<trkpt lat="46.1255560" lon="10.4939490">
	<ele>2501.60</ele>
	<time>2023-08-07T10:28:54.000Z</time>
</trkpt>
<trkpt lat="46.1255560" lon="10.4939460">
	<ele>2501.80</ele>
	<time>2023-08-07T10:28:55.000Z</time>
</trkpt>
<trkpt lat="46.1255590" lon="10.4939360">
	<ele>2501.80</ele>
	<time>2023-08-07T10:28:56.000Z</time>
</trkpt>
<trkpt lat="46.1255600" lon="10.4939280">
	<ele>2502.00</ele>
	<time>2023-08-07T10:28:57.000Z</time>
</trkpt>
<trkpt lat="46.1255590" lon="10.4939210">
	<ele>2502.00</ele>
	<time>2023-08-07T10:28:58.000Z</time>
</trkpt>
<trkpt lat="46.1255590" lon="10.4939160">
	<ele>2502.20</ele>
	<time>2023-08-07T10:28:59.000Z</time>
</trkpt>
<trkpt lat="46.1255590" lon="10.4939120">
	<ele>2502.40</ele>
	<time>2023-08-07T10:29:00.000Z</time>
</trkpt>
<trkpt lat="46.1255580" lon="10.4939050">
	<ele>2502.60</ele>
	<time>2023-08-07T10:29:01.000Z</time>
</trkpt>
<trkpt lat="46.1255600" lon="10.4939010">
	<ele>2502.60</ele>
	<time>2023-08-07T10:29:02.000Z</time>
</trkpt>
<trkpt lat="46.1255650" lon="10.4938980">
	<ele>2502.60</ele>
	<time>2023-08-07T10:29:03.000Z</time>
</trkpt>
<trkpt lat="46.1255690" lon="10.4938950">
	<ele>2502.80</ele>
	<time>2023-08-07T10:29:04.000Z</time>
</trkpt>
<trkpt lat="46.1255760" lon="10.4938930">
	<ele>2502.80</ele>
	<time>2023-08-07T10:29:05.000Z</time>
</trkpt>
<trkpt lat="46.1255820" lon="10.4938940">
	<ele>2503.00</ele>
	<time>2023-08-07T10:29:06.000Z</time>
</trkpt>
<trkpt lat="46.1255850" lon="10.4938940">
	<ele>2503.00</ele>
	<time>2023-08-07T10:29:07.000Z</time>
</trkpt>
<trkpt lat="46.1255880" lon="10.4938940">
	<ele>2503.20</ele>
	<time>2023-08-07T10:29:08.000Z</time>
</trkpt>
<trkpt lat="46.1255890" lon="10.4938940">
	<ele>2503.40</ele>
	<time>2023-08-07T10:29:09.000Z</time>
</trkpt>
<trkpt lat="46.1255850" lon="10.4938950">
	<ele>2503.60</ele>
	<time>2023-08-07T10:29:10.000Z</time>
</trkpt>
<trkpt lat="46.1255900" lon="10.4938930">
	<ele>2503.60</ele>
	<time>2023-08-07T10:29:11.000Z</time>
</trkpt>
<trkpt lat="46.1255930" lon="10.4938910">
	<ele>2504.00</ele>
	<time>2023-08-07T10:29:12.000Z</time>
</trkpt>
<trkpt lat="46.1255950" lon="10.4938900">
	<ele>2504.00</ele>
	<time>2023-08-07T10:29:13.000Z</time>
</trkpt>
<trkpt lat="46.1255970" lon="10.4938880">
	<ele>2504.20</ele>
	<time>2023-08-07T10:29:14.000Z</time>
</trkpt>
<trkpt lat="46.1255980" lon="10.4938870">
	<ele>2504.40</ele>
	<time>2023-08-07T10:29:15.000Z</time>
</trkpt>
<trkpt lat="46.1256000" lon="10.4938850">
	<ele>2504.60</ele>
	<time>2023-08-07T10:29:16.000Z</time>
</trkpt>
<trkpt lat="46.1256000" lon="10.4938860">
	<ele>2504.60</ele>
	<time>2023-08-07T10:29:17.000Z</time>
</trkpt>
<trkpt lat="46.1256000" lon="10.4938860">
	<ele>2505.00</ele>
	<time>2023-08-07T10:29:18.000Z</time>
</trkpt>
<trkpt lat="46.1256000" lon="10.4938860">
	<ele>2505.00</ele>
	<time>2023-08-07T10:29:19.000Z</time>
</trkpt>
<trkpt lat="46.1256000" lon="10.4938860">
	<ele>2505.20</ele>
	<time>2023-08-07T10:29:20.000Z</time>
</trkpt>
<trkpt lat="46.1256000" lon="10.4938860">
	<ele>2505.20</ele>
	<time>2023-08-07T10:29:21.000Z</time>
</trkpt>
<trkpt lat="46.1256000" lon="10.4938860">
	<ele>2505.20</ele>
	<time>2023-08-07T10:29:22.000Z</time>
</trkpt>
<trkpt lat="46.1256000" lon="10.4938860">
	<ele>2505.20</ele>
	<time>2023-08-07T10:29:23.000Z</time>
</trkpt>
<trkpt lat="46.1256000" lon="10.4938860">
	<ele>2505.40</ele>
	<time>2023-08-07T10:29:24.000Z</time>
</trkpt>
<trkpt lat="46.1256000" lon="10.4938860">
	<ele>2505.40</ele>
	<time>2023-08-07T10:29:25.000Z</time>
</trkpt>
<trkpt lat="46.1255980" lon="10.4938860">
	<ele>2505.40</ele>
	<time>2023-08-07T10:29:26.000Z</time>
</trkpt>
<trkpt lat="46.1255970" lon="10.4938860">
	<ele>2505.60</ele>
	<time>2023-08-07T10:29:27.000Z</time>
</trkpt>
<trkpt lat="46.1255950" lon="10.4938860">
	<ele>2505.80</ele>
	<time>2023-08-07T10:29:28.000Z</time>
</trkpt>
<trkpt lat="46.1255950" lon="10.4938860">
	<ele>2506.00</ele>
	<time>2023-08-07T10:29:29.000Z</time>
</trkpt>
<trkpt lat="46.1255930" lon="10.4938860">
	<ele>2506.00</ele>
	<time>2023-08-07T10:29:30.000Z</time>
</trkpt>
<trkpt lat="46.1255930" lon="10.4938860">
	<ele>2506.20</ele>
	<time>2023-08-07T10:29:31.000Z</time>
</trkpt>
<trkpt lat="46.1255930" lon="10.4938860">
	<ele>2506.60</ele>
	<time>2023-08-07T10:29:32.000Z</time>
</trkpt>
<trkpt lat="46.1255930" lon="10.4938860">
	<ele>2506.80</ele>
	<time>2023-08-07T10:29:33.000Z</time>
</trkpt>
<trkpt lat="46.1255930" lon="10.4938860">
	<ele>2507.00</ele>
	<time>2023-08-07T10:29:34.000Z</time>
</trkpt>
<trkpt lat="46.1255930" lon="10.4938860">
	<ele>2507.00</ele>
	<time>2023-08-07T10:29:35.000Z</time>
</trkpt>
<trkpt lat="46.1255930" lon="10.4938860">
	<ele>2507.20</ele>
	<time>2023-08-07T10:29:36.000Z</time>
</trkpt>
<trkpt lat="46.1255930" lon="10.4938820">
	<ele>2507.20</ele>
	<time>2023-08-07T10:29:37.000Z</time>
</trkpt>
<trkpt lat="46.1255930" lon="10.4938760">
	<ele>2507.40</ele>
	<time>2023-08-07T10:29:38.000Z</time>
</trkpt>
<trkpt lat="46.1255940" lon="10.4938750">
	<ele>2507.40</ele>
	<time>2023-08-07T10:29:39.000Z</time>
</trkpt>
<trkpt lat="46.1255950" lon="10.4938680">
	<ele>2507.40</ele>
	<time>2023-08-07T10:29:40.000Z</time>
</trkpt>
<trkpt lat="46.1255950" lon="10.4938580">
	<ele>2507.60</ele>
	<time>2023-08-07T10:29:41.000Z</time>
</trkpt>
<trkpt lat="46.1255970" lon="10.4938470">
	<ele>2507.60</ele>
	<time>2023-08-07T10:29:42.000Z</time>
</trkpt>
<trkpt lat="46.1255980" lon="10.4938410">
	<ele>2507.60</ele>
	<time>2023-08-07T10:29:43.000Z</time>
</trkpt>
<trkpt lat="46.1255990" lon="10.4938370">
	<ele>2507.60</ele>
	<time>2023-08-07T10:29:44.000Z</time>
</trkpt>
<trkpt lat="46.1256000" lon="10.4938350">
	<ele>2507.80</ele>
	<time>2023-08-07T10:29:45.000Z</time>
</trkpt>
<trkpt lat="46.1256000" lon="10.4938310">
	<ele>2508.00</ele>
	<time>2023-08-07T10:29:46.000Z</time>
</trkpt>
<trkpt lat="46.1256000" lon="10.4938270">
	<ele>2508.00</ele>
	<time>2023-08-07T10:29:47.000Z</time>
</trkpt>
<trkpt lat="46.1256000" lon="10.4938240">
	<ele>2508.00</ele>
	<time>2023-08-07T10:29:48.000Z</time>
</trkpt>
<trkpt lat="46.1256000" lon="10.4938210">
	<ele>2508.20</ele>
	<time>2023-08-07T10:29:49.000Z</time>
</trkpt>
<trkpt lat="46.1256000" lon="10.4938150">
	<ele>2508.40</ele>
	<time>2023-08-07T10:29:50.000Z</time>
</trkpt>
<trkpt lat="46.1256000" lon="10.4938110">
	<ele>2508.40</ele>
	<time>2023-08-07T10:29:51.000Z</time>
</trkpt>
<trkpt lat="46.1256000" lon="10.4938090">
	<ele>2508.60</ele>
	<time>2023-08-07T10:29:52.000Z</time>
</trkpt>
<trkpt lat="46.1256000" lon="10.4938080">
	<ele>2508.60</ele>
	<time>2023-08-07T10:29:53.000Z</time>
</trkpt>
<trkpt lat="46.1256000" lon="10.4938080">
	<ele>2508.80</ele>
	<time>2023-08-07T10:29:54.000Z</time>
</trkpt>
<trkpt lat="46.1256000" lon="10.4938050">
	<ele>2509.00</ele>
	<time>2023-08-07T10:29:55.000Z</time>
</trkpt>
<trkpt lat="46.1256010" lon="10.4938010">
	<ele>2509.40</ele>
	<time>2023-08-07T10:29:56.000Z</time>
</trkpt>
<trkpt lat="46.1256020" lon="10.4937950">
	<ele>2509.60</ele>
	<time>2023-08-07T10:29:57.000Z</time>
</trkpt>
<trkpt lat="46.1256030" lon="10.4937910">
	<ele>2509.80</ele>
	<time>2023-08-07T10:29:58.000Z</time>
</trkpt>
<trkpt lat="46.1256030" lon="10.4937840">
	<ele>2509.80</ele>
	<time>2023-08-07T10:29:59.000Z</time>
</trkpt>
<trkpt lat="46.1256030" lon="10.4937770">
	<ele>2510.00</ele>
	<time>2023-08-07T10:30:00.000Z</time>
</trkpt>
<trkpt lat="46.1256040" lon="10.4937690">
	<ele>2510.00</ele>
	<time>2023-08-07T10:30:01.000Z</time>
</trkpt>
<trkpt lat="46.1256040" lon="10.4937600">
	<ele>2510.00</ele>
	<time>2023-08-07T10:30:02.000Z</time>
</trkpt>
<trkpt lat="46.1256040" lon="10.4937530">
	<ele>2510.20</ele>
	<time>2023-08-07T10:30:03.000Z</time>
</trkpt>
<trkpt lat="46.1256040" lon="10.4937420">
	<ele>2510.20</ele>
	<time>2023-08-07T10:30:04.000Z</time>
</trkpt>
<trkpt lat="46.1256040" lon="10.4937300">
	<ele>2510.20</ele>
	<time>2023-08-07T10:30:05.000Z</time>
</trkpt>
<trkpt lat="46.1256040" lon="10.4937230">
	<ele>2510.20</ele>
	<time>2023-08-07T10:30:06.000Z</time>
</trkpt>
<trkpt lat="46.1256050" lon="10.4937180">
	<ele>2510.40</ele>
	<time>2023-08-07T10:30:07.000Z</time>
</trkpt>
<trkpt lat="46.1256050" lon="10.4937120">
	<ele>2510.40</ele>
	<time>2023-08-07T10:30:08.000Z</time>
</trkpt>
<trkpt lat="46.1256060" lon="10.4937060">
	<ele>2510.60</ele>
	<time>2023-08-07T10:30:09.000Z</time>
</trkpt>
<trkpt lat="46.1256080" lon="10.4937010">
	<ele>2510.80</ele>
	<time>2023-08-07T10:30:10.000Z</time>
</trkpt>
<trkpt lat="46.1256120" lon="10.4936980">
	<ele>2510.80</ele>
	<time>2023-08-07T10:30:11.000Z</time>
</trkpt>
<trkpt lat="46.1256170" lon="10.4936940">
	<ele>2511.00</ele>
	<time>2023-08-07T10:30:12.000Z</time>
</trkpt>
<trkpt lat="46.1256200" lon="10.4936900">
	<ele>2511.00</ele>
	<time>2023-08-07T10:30:13.000Z</time>
</trkpt>
<trkpt lat="46.1256210" lon="10.4936880">
	<ele>2511.00</ele>
	<time>2023-08-07T10:30:14.000Z</time>
</trkpt>
<trkpt lat="46.1256220" lon="10.4936870">
	<ele>2511.40</ele>
	<time>2023-08-07T10:30:15.000Z</time>
</trkpt>
<trkpt lat="46.1256230" lon="10.4936850">
	<ele>2511.80</ele>
	<time>2023-08-07T10:30:16.000Z</time>
</trkpt>
<trkpt lat="46.1256240" lon="10.4936820">
	<ele>2512.00</ele>
	<time>2023-08-07T10:30:17.000Z</time>
</trkpt>
<trkpt lat="46.1256240" lon="10.4936780">
	<ele>2512.20</ele>
	<time>2023-08-07T10:30:18.000Z</time>
</trkpt>
<trkpt lat="46.1256250" lon="10.4936750">
	<ele>2512.40</ele>
	<time>2023-08-07T10:30:19.000Z</time>
</trkpt>
<trkpt lat="46.1256250" lon="10.4936670">
	<ele>2512.60</ele>
	<time>2023-08-07T10:30:20.000Z</time>
</trkpt>
<trkpt lat="46.1256250" lon="10.4936600">
	<ele>2512.60</ele>
	<time>2023-08-07T10:30:21.000Z</time>
</trkpt>
<trkpt lat="46.1256250" lon="10.4936520">
	<ele>2512.80</ele>
	<time>2023-08-07T10:30:22.000Z</time>
</trkpt>
<trkpt lat="46.1256250" lon="10.4936460">
	<ele>2513.20</ele>
	<time>2023-08-07T10:30:23.000Z</time>
</trkpt>
<trkpt lat="46.1256260" lon="10.4936410">
	<ele>2513.20</ele>
	<time>2023-08-07T10:30:24.000Z</time>
</trkpt>
<trkpt lat="46.1256260" lon="10.4936380">
	<ele>2513.40</ele>
	<time>2023-08-07T10:30:25.000Z</time>
</trkpt>
<trkpt lat="46.1256260" lon="10.4936350">
	<ele>2513.60</ele>
	<time>2023-08-07T10:30:26.000Z</time>
</trkpt>
<trkpt lat="46.1256260" lon="10.4936300">
	<ele>2513.80</ele>
	<time>2023-08-07T10:30:27.000Z</time>
</trkpt>
<trkpt lat="46.1256260" lon="10.4936240">
	<ele>2514.20</ele>
	<time>2023-08-07T10:30:28.000Z</time>
</trkpt>
<trkpt lat="46.1256260" lon="10.4936160">
	<ele>2514.20</ele>
	<time>2023-08-07T10:30:29.000Z</time>
</trkpt>
<trkpt lat="46.1256260" lon="10.4936110">
	<ele>2514.40</ele>
	<time>2023-08-07T10:30:30.000Z</time>
</trkpt>
<trkpt lat="46.1256260" lon="10.4936080">
	<ele>2514.40</ele>
	<time>2023-08-07T10:30:31.000Z</time>
</trkpt>
<trkpt lat="46.1256260" lon="10.4936060">
	<ele>2514.40</ele>
	<time>2023-08-07T10:30:32.000Z</time>
</trkpt>
<trkpt lat="46.1256260" lon="10.4936040">
	<ele>2514.20</ele>
	<time>2023-08-07T10:30:33.000Z</time>
</trkpt>
<trkpt lat="46.1256260" lon="10.4936030">
	<ele>2514.20</ele>
	<time>2023-08-07T10:30:34.000Z</time>
</trkpt>
<trkpt lat="46.1256260" lon="10.4935990">
	<ele>2514.00</ele>
	<time>2023-08-07T10:30:35.000Z</time>
</trkpt>
<trkpt lat="46.1256270" lon="10.4935950">
	<ele>2514.00</ele>
	<time>2023-08-07T10:30:36.000Z</time>
</trkpt>
<trkpt lat="46.1256270" lon="10.4935920">
	<ele>2514.00</ele>
	<time>2023-08-07T10:30:37.000Z</time>
</trkpt>
<trkpt lat="46.1256270" lon="10.4935900">
	<ele>2514.00</ele>
	<time>2023-08-07T10:30:38.000Z</time>
</trkpt>
<trkpt lat="46.1256270" lon="10.4935900">
	<ele>2514.00</ele>
	<time>2023-08-07T10:30:39.000Z</time>
</trkpt>
<trkpt lat="46.1256270" lon="10.4935890">
	<ele>2514.00</ele>
	<time>2023-08-07T10:30:40.000Z</time>
</trkpt>
<trkpt lat="46.1256280" lon="10.4935890">
	<ele>2514.00</ele>
	<time>2023-08-07T10:30:41.000Z</time>
</trkpt>
<trkpt lat="46.1256290" lon="10.4935890">
	<ele>2514.00</ele>
	<time>2023-08-07T10:30:42.000Z</time>
</trkpt>
<trkpt lat="46.1256300" lon="10.4935890">
	<ele>2514.00</ele>
	<time>2023-08-07T10:30:43.000Z</time>
</trkpt>
<trkpt lat="46.1256310" lon="10.4935890">
	<ele>2514.00</ele>
	<time>2023-08-07T10:30:44.000Z</time>
</trkpt>
<trkpt lat="46.1256330" lon="10.4935890">
	<ele>2514.20</ele>
	<time>2023-08-07T10:30:45.000Z</time>
</trkpt>
<trkpt lat="46.1256350" lon="10.4935890">
	<ele>2514.20</ele>
	<time>2023-08-07T10:30:46.000Z</time>
</trkpt>
<trkpt lat="46.1256360" lon="10.4935890">
	<ele>2514.20</ele>
	<time>2023-08-07T10:30:47.000Z</time>
</trkpt>
<trkpt lat="46.1256390" lon="10.4935890">
	<ele>2514.20</ele>
	<time>2023-08-07T10:30:48.000Z</time>
</trkpt>
<trkpt lat="46.1256420" lon="10.4935890">
	<ele>2514.20</ele>
	<time>2023-08-07T10:30:49.000Z</time>
</trkpt>
<trkpt lat="46.1256440" lon="10.4935890">
	<ele>2514.20</ele>
	<time>2023-08-07T10:30:50.000Z</time>
</trkpt>
<trkpt lat="46.1256450" lon="10.4935890">
	<ele>2514.20</ele>
	<time>2023-08-07T10:30:51.000Z</time>
</trkpt>
<trkpt lat="46.1256450" lon="10.4935890">
	<ele>2514.20</ele>
	<time>2023-08-07T10:30:52.000Z</time>
</trkpt>
<trkpt lat="46.1256450" lon="10.4935900">
	<ele>2514.20</ele>
	<time>2023-08-07T10:30:53.000Z</time>
</trkpt>
<trkpt lat="46.1256460" lon="10.4935920">
	<ele>2514.20</ele>
	<time>2023-08-07T10:30:54.000Z</time>
</trkpt>
<trkpt lat="46.1256460" lon="10.4935930">
	<ele>2514.20</ele>
	<time>2023-08-07T10:30:55.000Z</time>
</trkpt>
<trkpt lat="46.1256470" lon="10.4935940">
	<ele>2514.20</ele>
	<time>2023-08-07T10:30:56.000Z</time>
</trkpt>
<trkpt lat="46.1256480" lon="10.4935940">
	<ele>2514.40</ele>
	<time>2023-08-07T10:30:57.000Z</time>
</trkpt>
<trkpt lat="46.1256480" lon="10.4935940">
	<ele>2514.40</ele>
	<time>2023-08-07T10:30:58.000Z</time>
</trkpt>
<trkpt lat="46.1256490" lon="10.4935940">
	<ele>2514.40</ele>
	<time>2023-08-07T10:30:59.000Z</time>
</trkpt>
<trkpt lat="46.1256490" lon="10.4935950">
	<ele>2514.40</ele>
	<time>2023-08-07T10:31:00.000Z</time>
</trkpt>
<trkpt lat="46.1256500" lon="10.4935950">
	<ele>2514.40</ele>
	<time>2023-08-07T10:31:01.000Z</time>
</trkpt>
<trkpt lat="46.1256500" lon="10.4935950">
	<ele>2514.40</ele>
	<time>2023-08-07T10:31:02.000Z</time>
</trkpt>
<trkpt lat="46.1256500" lon="10.4935950">
	<ele>2514.60</ele>
	<time>2023-08-07T10:31:03.000Z</time>
</trkpt>
<trkpt lat="46.1256510" lon="10.4935950">
	<ele>2514.60</ele>
	<time>2023-08-07T10:31:04.000Z</time>
</trkpt>
<trkpt lat="46.1256510" lon="10.4935950">
	<ele>2514.60</ele>
	<time>2023-08-07T10:31:05.000Z</time>
</trkpt>
<trkpt lat="46.1256520" lon="10.4935950">
	<ele>2514.60</ele>
	<time>2023-08-07T10:31:06.000Z</time>
</trkpt>
<trkpt lat="46.1256530" lon="10.4935950">
	<ele>2514.60</ele>
	<time>2023-08-07T10:31:07.000Z</time>
</trkpt>
<trkpt lat="46.1256550" lon="10.4935950">
	<ele>2514.40</ele>
	<time>2023-08-07T10:31:08.000Z</time>
</trkpt>
<trkpt lat="46.1256560" lon="10.4935950">
	<ele>2514.20</ele>
	<time>2023-08-07T10:31:09.000Z</time>
</trkpt>
<trkpt lat="46.1256570" lon="10.4935950">
	<ele>2514.20</ele>
	<time>2023-08-07T10:31:10.000Z</time>
</trkpt>
<trkpt lat="46.1256580" lon="10.4935940">
	<ele>2514.00</ele>
	<time>2023-08-07T10:31:11.000Z</time>
</trkpt>
<trkpt lat="46.1256580" lon="10.4935940">
	<ele>2514.00</ele>
	<time>2023-08-07T10:31:12.000Z</time>
</trkpt>
<trkpt lat="46.1256590" lon="10.4935940">
	<ele>2513.80</ele>
	<time>2023-08-07T10:31:13.000Z</time>
</trkpt>
<trkpt lat="46.1256590" lon="10.4935930">
	<ele>2513.80</ele>
	<time>2023-08-07T10:31:14.000Z</time>
</trkpt>
<trkpt lat="46.1256600" lon="10.4935930">
	<ele>2513.80</ele>
	<time>2023-08-07T10:31:15.000Z</time>
</trkpt>
<trkpt lat="46.1256620" lon="10.4935910">
	<ele>2513.80</ele>
	<time>2023-08-07T10:31:16.000Z</time>
</trkpt>
<trkpt lat="46.1256630" lon="10.4935890">
	<ele>2514.00</ele>
	<time>2023-08-07T10:31:17.000Z</time>
</trkpt>
<trkpt lat="46.1256640" lon="10.4935880">
	<ele>2514.00</ele>
	<time>2023-08-07T10:31:18.000Z</time>
</trkpt>
<trkpt lat="46.1256650" lon="10.4935870">
	<ele>2514.00</ele>
	<time>2023-08-07T10:31:19.000Z</time>
</trkpt>
<trkpt lat="46.1256660" lon="10.4935860">
	<ele>2514.20</ele>
	<time>2023-08-07T10:31:20.000Z</time>
</trkpt>
<trkpt lat="46.1256660" lon="10.4935850">
	<ele>2514.20</ele>
	<time>2023-08-07T10:31:21.000Z</time>
</trkpt>
<trkpt lat="46.1256660" lon="10.4935840">
	<ele>2514.40</ele>
	<time>2023-08-07T10:31:22.000Z</time>
</trkpt>
<trkpt lat="46.1256660" lon="10.4935830">
	<ele>2514.40</ele>
	<time>2023-08-07T10:31:23.000Z</time>
</trkpt>
<trkpt lat="46.1256670" lon="10.4935830">
	<ele>2514.80</ele>
	<time>2023-08-07T10:31:24.000Z</time>
</trkpt>
<trkpt lat="46.1256680" lon="10.4935820">
	<ele>2515.00</ele>
	<time>2023-08-07T10:31:25.000Z</time>
</trkpt>
<trkpt lat="46.1256680" lon="10.4935820">
	<ele>2515.20</ele>
	<time>2023-08-07T10:31:26.000Z</time>
</trkpt>
<trkpt lat="46.1256690" lon="10.4935810">
	<ele>2515.20</ele>
	<time>2023-08-07T10:31:27.000Z</time>
</trkpt>
<trkpt lat="46.1256690" lon="10.4935800">
	<ele>2515.20</ele>
	<time>2023-08-07T10:31:28.000Z</time>
</trkpt>
<trkpt lat="46.1256690" lon="10.4935800">
	<ele>2515.20</ele>
	<time>2023-08-07T10:31:29.000Z</time>
</trkpt>
<trkpt lat="46.1256710" lon="10.4935790">
	<ele>2515.20</ele>
	<time>2023-08-07T10:31:30.000Z</time>
</trkpt>
<trkpt lat="46.1256740" lon="10.4935790">
	<ele>2515.20</ele>
	<time>2023-08-07T10:31:31.000Z</time>
</trkpt>
<trkpt lat="46.1256760" lon="10.4935790">
	<ele>2515.20</ele>
	<time>2023-08-07T10:31:32.000Z</time>
</trkpt>
<trkpt lat="46.1256780" lon="10.4935780">
	<ele>2515.20</ele>
	<time>2023-08-07T10:31:33.000Z</time>
</trkpt>
<trkpt lat="46.1256800" lon="10.4935780">
	<ele>2515.20</ele>
	<time>2023-08-07T10:31:34.000Z</time>
</trkpt>
<trkpt lat="46.1256820" lon="10.4935780">
	<ele>2515.20</ele>
	<time>2023-08-07T10:31:35.000Z</time>
</trkpt>
<trkpt lat="46.1256840" lon="10.4935770">
	<ele>2515.20</ele>
	<time>2023-08-07T10:31:36.000Z</time>
</trkpt>
<trkpt lat="46.1256860" lon="10.4935770">
	<ele>2515.00</ele>
	<time>2023-08-07T10:31:37.000Z</time>
</trkpt>
<trkpt lat="46.1256880" lon="10.4935760">
	<ele>2515.00</ele>
	<time>2023-08-07T10:31:38.000Z</time>
</trkpt>
<trkpt lat="46.1256910" lon="10.4935740">
	<ele>2515.00</ele>
	<time>2023-08-07T10:31:39.000Z</time>
</trkpt>
<trkpt lat="46.1256920" lon="10.4935720">
	<ele>2514.80</ele>
	<time>2023-08-07T10:31:40.000Z</time>
</trkpt>
<trkpt lat="46.1256940" lon="10.4935700">
	<ele>2514.80</ele>
	<time>2023-08-07T10:31:41.000Z</time>
</trkpt>
<trkpt lat="46.1256950" lon="10.4935690">
	<ele>2514.40</ele>
	<time>2023-08-07T10:31:42.000Z</time>
</trkpt>
<trkpt lat="46.1256950" lon="10.4935680">
	<ele>2514.40</ele>
	<time>2023-08-07T10:31:43.000Z</time>
</trkpt>
<trkpt lat="46.1256960" lon="10.4935650">
	<ele>2514.20</ele>
	<time>2023-08-07T10:31:44.000Z</time>
</trkpt>
<trkpt lat="46.1256970" lon="10.4935610">
	<ele>2514.20</ele>
	<time>2023-08-07T10:31:45.000Z</time>
</trkpt>
<trkpt lat="46.1256980" lon="10.4935570">
	<ele>2514.00</ele>
	<time>2023-08-07T10:31:46.000Z</time>
</trkpt>
<trkpt lat="46.1256980" lon="10.4935530">
	<ele>2514.00</ele>
	<time>2023-08-07T10:31:47.000Z</time>
</trkpt>
<trkpt lat="46.1256980" lon="10.4935470">
	<ele>2513.60</ele>
	<time>2023-08-07T10:31:48.000Z</time>
</trkpt>
<trkpt lat="46.1256980" lon="10.4935420">
	<ele>2513.60</ele>
	<time>2023-08-07T10:31:49.000Z</time>
</trkpt>
<trkpt lat="46.1256990" lon="10.4935350">
	<ele>2513.40</ele>
	<time>2023-08-07T10:31:50.000Z</time>
</trkpt>
<trkpt lat="46.1256990" lon="10.4935270">
	<ele>2513.40</ele>
	<time>2023-08-07T10:31:51.000Z</time>
</trkpt>
<trkpt lat="46.1256990" lon="10.4935200">
	<ele>2513.20</ele>
	<time>2023-08-07T10:31:52.000Z</time>
</trkpt>
<trkpt lat="46.1256990" lon="10.4935140">
	<ele>2513.00</ele>
	<time>2023-08-07T10:31:53.000Z</time>
</trkpt>
<trkpt lat="46.1256990" lon="10.4935080">
	<ele>2512.80</ele>
	<time>2023-08-07T10:31:54.000Z</time>
</trkpt>
<trkpt lat="46.1256990" lon="10.4935020">
	<ele>2512.60</ele>
	<time>2023-08-07T10:31:55.000Z</time>
</trkpt>
<trkpt lat="46.1256980" lon="10.4934970">
	<ele>2512.40</ele>
	<time>2023-08-07T10:31:56.000Z</time>
</trkpt>
<trkpt lat="46.1256980" lon="10.4934920">
	<ele>2512.40</ele>
	<time>2023-08-07T10:31:57.000Z</time>
</trkpt>
<trkpt lat="46.1256970" lon="10.4934870">
	<ele>2512.20</ele>
	<time>2023-08-07T10:31:58.000Z</time>
</trkpt>
<trkpt lat="46.1256970" lon="10.4934820">
	<ele>2512.00</ele>
	<time>2023-08-07T10:31:59.000Z</time>
</trkpt>
<trkpt lat="46.1256960" lon="10.4934760">
	<ele>2512.00</ele>
	<time>2023-08-07T10:32:00.000Z</time>
</trkpt>
<trkpt lat="46.1256940" lon="10.4934720">
	<ele>2512.00</ele>
	<time>2023-08-07T10:32:01.000Z</time>
</trkpt>
<trkpt lat="46.1256910" lon="10.4934680">
	<ele>2512.00</ele>
	<time>2023-08-07T10:32:02.000Z</time>
</trkpt>
<trkpt lat="46.1256880" lon="10.4934640">
	<ele>2512.00</ele>
	<time>2023-08-07T10:32:03.000Z</time>
</trkpt>
<trkpt lat="46.1256850" lon="10.4934610">
	<ele>2512.20</ele>
	<time>2023-08-07T10:32:04.000Z</time>
</trkpt>
<trkpt lat="46.1256820" lon="10.4934590">
	<ele>2512.40</ele>
	<time>2023-08-07T10:32:05.000Z</time>
</trkpt>
<trkpt lat="46.1256800" lon="10.4934570">
	<ele>2512.40</ele>
	<time>2023-08-07T10:32:06.000Z</time>
</trkpt>
<trkpt lat="46.1256770" lon="10.4934550">
	<ele>2512.60</ele>
	<time>2023-08-07T10:32:07.000Z</time>
</trkpt>
<trkpt lat="46.1256740" lon="10.4934540">
	<ele>2512.80</ele>
	<time>2023-08-07T10:32:08.000Z</time>
</trkpt>
<trkpt lat="46.1256710" lon="10.4934530">
	<ele>2512.80</ele>
	<time>2023-08-07T10:32:09.000Z</time>
</trkpt>
<trkpt lat="46.1256690" lon="10.4934520">
	<ele>2513.00</ele>
	<time>2023-08-07T10:32:10.000Z</time>
</trkpt>
<trkpt lat="46.1256660" lon="10.4934510">
	<ele>2513.20</ele>
	<time>2023-08-07T10:32:11.000Z</time>
</trkpt>
<trkpt lat="46.1256640" lon="10.4934500">
	<ele>2513.20</ele>
	<time>2023-08-07T10:32:12.000Z</time>
</trkpt>
<trkpt lat="46.1256620" lon="10.4934490">
	<ele>2513.20</ele>
	<time>2023-08-07T10:32:13.000Z</time>
</trkpt>
<trkpt lat="46.1256610" lon="10.4934480">
	<ele>2513.40</ele>
	<time>2023-08-07T10:32:14.000Z</time>
</trkpt>
<trkpt lat="46.1256590" lon="10.4934470">
	<ele>2513.60</ele>
	<time>2023-08-07T10:32:15.000Z</time>
</trkpt>
<trkpt lat="46.1256580" lon="10.4934460">
	<ele>2513.60</ele>
	<time>2023-08-07T10:32:16.000Z</time>
</trkpt>
<trkpt lat="46.1256570" lon="10.4934440">
	<ele>2513.80</ele>
	<time>2023-08-07T10:32:17.000Z</time>
</trkpt>
<trkpt lat="46.1256570" lon="10.4934420">
	<ele>2513.80</ele>
	<time>2023-08-07T10:32:18.000Z</time>
</trkpt>
<trkpt lat="46.1256560" lon="10.4934400">
	<ele>2513.80</ele>
	<time>2023-08-07T10:32:19.000Z</time>
</trkpt>
<trkpt lat="46.1256550" lon="10.4934390">
	<ele>2514.00</ele>
	<time>2023-08-07T10:32:20.000Z</time>
</trkpt>
<trkpt lat="46.1256550" lon="10.4934370">
	<ele>2514.00</ele>
	<time>2023-08-07T10:32:21.000Z</time>
</trkpt>
<trkpt lat="46.1256540" lon="10.4934360">
	<ele>2514.00</ele>
	<time>2023-08-07T10:32:22.000Z</time>
</trkpt>
<trkpt lat="46.1256540" lon="10.4934340">
	<ele>2514.00</ele>
	<time>2023-08-07T10:32:23.000Z</time>
</trkpt>
<trkpt lat="46.1256540" lon="10.4934330">
	<ele>2514.00</ele>
	<time>2023-08-07T10:32:24.000Z</time>
</trkpt>
<trkpt lat="46.1256530" lon="10.4934320">
	<ele>2514.40</ele>
	<time>2023-08-07T10:32:25.000Z</time>
</trkpt>
<trkpt lat="46.1256530" lon="10.4934310">
	<ele>2514.40</ele>
	<time>2023-08-07T10:32:26.000Z</time>
</trkpt>
<trkpt lat="46.1256530" lon="10.4934300">
	<ele>2514.60</ele>
	<time>2023-08-07T10:32:27.000Z</time>
</trkpt>
<trkpt lat="46.1256530" lon="10.4934290">
	<ele>2515.00</ele>
	<time>2023-08-07T10:32:28.000Z</time>
</trkpt>
<trkpt lat="46.1256530" lon="10.4934290">
	<ele>2515.00</ele>
	<time>2023-08-07T10:32:29.000Z</time>
</trkpt>
<trkpt lat="46.1256540" lon="10.4934280">
	<ele>2515.20</ele>
	<time>2023-08-07T10:32:30.000Z</time>
</trkpt>
<trkpt lat="46.1256540" lon="10.4934270">
	<ele>2515.40</ele>
	<time>2023-08-07T10:32:31.000Z</time>
</trkpt>
<trkpt lat="46.1256550" lon="10.4934270">
	<ele>2515.40</ele>
	<time>2023-08-07T10:32:32.000Z</time>
</trkpt>
<trkpt lat="46.1256550" lon="10.4934260">
	<ele>2515.60</ele>
	<time>2023-08-07T10:32:33.000Z</time>
</trkpt>
<trkpt lat="46.1256560" lon="10.4934260">
	<ele>2515.60</ele>
	<time>2023-08-07T10:32:34.000Z</time>
</trkpt>
<trkpt lat="46.1256620" lon="10.4934180">
	<ele>2515.60</ele>
	<time>2023-08-07T10:32:35.000Z</time>
</trkpt>
<trkpt lat="46.1256660" lon="10.4934160">
	<ele>2515.60</ele>
	<time>2023-08-07T10:32:36.000Z</time>
</trkpt>
<trkpt lat="46.1256720" lon="10.4934080">
	<ele>2515.60</ele>
	<time>2023-08-07T10:32:37.000Z</time>
</trkpt>
<trkpt lat="46.1256760" lon="10.4933960">
	<ele>2515.60</ele>
	<time>2023-08-07T10:32:38.000Z</time>
</trkpt>
<trkpt lat="46.1256850" lon="10.4933810">
	<ele>2515.60</ele>
	<time>2023-08-07T10:32:39.000Z</time>
</trkpt>
<trkpt lat="46.1256940" lon="10.4933700">
	<ele>2515.80</ele>
	<time>2023-08-07T10:32:40.000Z</time>
</trkpt>
<trkpt lat="46.1257020" lon="10.4933620">
	<ele>2515.80</ele>
	<time>2023-08-07T10:32:41.000Z</time>
</trkpt>
<trkpt lat="46.1257100" lon="10.4933510">
	<ele>2516.00</ele>
	<time>2023-08-07T10:32:42.000Z</time>
</trkpt>
<trkpt lat="46.1257180" lon="10.4933400">
	<ele>2516.00</ele>
	<time>2023-08-07T10:32:43.000Z</time>
</trkpt>
<trkpt lat="46.1257250" lon="10.4933250">
	<ele>2516.00</ele>
	<time>2023-08-07T10:32:44.000Z</time>
</trkpt>
<trkpt lat="46.1257290" lon="10.4933210">
	<ele>2516.20</ele>
	<time>2023-08-07T10:32:45.000Z</time>
</trkpt>
<trkpt lat="46.1257330" lon="10.4933220">
	<ele>2516.00</ele>
	<time>2023-08-07T10:32:46.000Z</time>
</trkpt>
<trkpt lat="46.1257340" lon="10.4933240">
	<ele>2516.20</ele>
	<time>2023-08-07T10:32:47.000Z</time>
</trkpt>
<trkpt lat="46.1257350" lon="10.4933250">
	<ele>2516.20</ele>
	<time>2023-08-07T10:32:48.000Z</time>
</trkpt>
<trkpt lat="46.1257350" lon="10.4933270">
	<ele>2516.40</ele>
	<time>2023-08-07T10:32:49.000Z</time>
</trkpt>
<trkpt lat="46.1257360" lon="10.4933270">
	<ele>2516.40</ele>
	<time>2023-08-07T10:32:50.000Z</time>
</trkpt>
<trkpt lat="46.1257390" lon="10.4933300">
	<ele>2516.60</ele>
	<time>2023-08-07T10:32:51.000Z</time>
</trkpt>
<trkpt lat="46.1257400" lon="10.4933320">
	<ele>2516.80</ele>
	<time>2023-08-07T10:32:52.000Z</time>
</trkpt>
<trkpt lat="46.1257420" lon="10.4933340">
	<ele>2516.80</ele>
	<time>2023-08-07T10:32:53.000Z</time>
</trkpt>
<trkpt lat="46.1257480" lon="10.4933310">
	<ele>2517.00</ele>
	<time>2023-08-07T10:32:54.000Z</time>
</trkpt>
<trkpt lat="46.1257520" lon="10.4933280">
	<ele>2517.00</ele>
	<time>2023-08-07T10:32:55.000Z</time>
</trkpt>
<trkpt lat="46.1257470" lon="10.4933300">
	<ele>2517.20</ele>
	<time>2023-08-07T10:32:56.000Z</time>
</trkpt>
<trkpt lat="46.1257460" lon="10.4933290">
	<ele>2517.40</ele>
	<time>2023-08-07T10:32:57.000Z</time>
</trkpt>
<trkpt lat="46.1257470" lon="10.4933280">
	<ele>2517.40</ele>
	<time>2023-08-07T10:32:58.000Z</time>
</trkpt>
<trkpt lat="46.1257480" lon="10.4933290">
	<ele>2517.40</ele>
	<time>2023-08-07T10:32:59.000Z</time>
</trkpt>
<trkpt lat="46.1257480" lon="10.4933290">
	<ele>2517.40</ele>
	<time>2023-08-07T10:33:00.000Z</time>
</trkpt>
<trkpt lat="46.1257480" lon="10.4933290">
	<ele>2517.40</ele>
	<time>2023-08-07T10:33:01.000Z</time>
</trkpt>
<trkpt lat="46.1257480" lon="10.4933290">
	<ele>2517.60</ele>
	<time>2023-08-07T10:33:02.000Z</time>
</trkpt>
<trkpt lat="46.1257480" lon="10.4933290">
	<ele>2517.80</ele>
	<time>2023-08-07T10:33:03.000Z</time>
</trkpt>
<trkpt lat="46.1257480" lon="10.4933290">
	<ele>2518.00</ele>
	<time>2023-08-07T10:33:04.000Z</time>
</trkpt>
<trkpt lat="46.1257480" lon="10.4933290">
	<ele>2518.20</ele>
	<time>2023-08-07T10:33:05.000Z</time>
</trkpt>
<trkpt lat="46.1257480" lon="10.4933290">
	<ele>2518.40</ele>
	<time>2023-08-07T10:33:06.000Z</time>
</trkpt>
<trkpt lat="46.1257480" lon="10.4933290">
	<ele>2518.40</ele>
	<time>2023-08-07T10:33:07.000Z</time>
</trkpt>
<trkpt lat="46.1257480" lon="10.4933290">
	<ele>2518.40</ele>
	<time>2023-08-07T10:33:08.000Z</time>
</trkpt>
<trkpt lat="46.1257480" lon="10.4933290">
	<ele>2518.40</ele>
	<time>2023-08-07T10:33:09.000Z</time>
</trkpt>
<trkpt lat="46.1257480" lon="10.4933290">
	<ele>2518.60</ele>
	<time>2023-08-07T10:33:10.000Z</time>
</trkpt>
<trkpt lat="46.1257480" lon="10.4933290">
	<ele>2518.60</ele>
	<time>2023-08-07T10:33:11.000Z</time>
</trkpt>
<trkpt lat="46.1257480" lon="10.4933290">
	<ele>2518.60</ele>
	<time>2023-08-07T10:33:12.000Z</time>
</trkpt>
<trkpt lat="46.1257480" lon="10.4933290">
	<ele>2518.80</ele>
	<time>2023-08-07T10:33:13.000Z</time>
</trkpt>
<trkpt lat="46.1257480" lon="10.4933280">
	<ele>2518.80</ele>
	<time>2023-08-07T10:33:14.000Z</time>
</trkpt>
<trkpt lat="46.1257480" lon="10.4933280">
	<ele>2519.00</ele>
	<time>2023-08-07T10:33:15.000Z</time>
</trkpt>
<trkpt lat="46.1257480" lon="10.4933250">
	<ele>2519.20</ele>
	<time>2023-08-07T10:33:16.000Z</time>
</trkpt>
<trkpt lat="46.1257480" lon="10.4933180">
	<ele>2519.40</ele>
	<time>2023-08-07T10:33:17.000Z</time>
</trkpt>
<trkpt lat="46.1257480" lon="10.4933150">
	<ele>2519.40</ele>
	<time>2023-08-07T10:33:18.000Z</time>
</trkpt>
<trkpt lat="46.1257500" lon="10.4933140">
	<ele>2519.60</ele>
	<time>2023-08-07T10:33:19.000Z</time>
</trkpt>
<trkpt lat="46.1257500" lon="10.4933130">
	<ele>2519.60</ele>
	<time>2023-08-07T10:33:20.000Z</time>
</trkpt>
<trkpt lat="46.1257500" lon="10.4933110">
	<ele>2519.60</ele>
	<time>2023-08-07T10:33:21.000Z</time>
</trkpt>
<trkpt lat="46.1257510" lon="10.4933070">
	<ele>2519.80</ele>
	<time>2023-08-07T10:33:22.000Z</time>
</trkpt>
<trkpt lat="46.1257520" lon="10.4933020">
	<ele>2519.80</ele>
	<time>2023-08-07T10:33:23.000Z</time>
</trkpt>
<trkpt lat="46.1257520" lon="10.4932940">
	<ele>2520.00</ele>
	<time>2023-08-07T10:33:24.000Z</time>
</trkpt>
<trkpt lat="46.1257540" lon="10.4932910">
	<ele>2520.20</ele>
	<time>2023-08-07T10:33:25.000Z</time>
</trkpt>
<trkpt lat="46.1257550" lon="10.4932880">
	<ele>2520.40</ele>
	<time>2023-08-07T10:33:26.000Z</time>
</trkpt>
<trkpt lat="46.1257570" lon="10.4932860">
	<ele>2520.40</ele>
	<time>2023-08-07T10:33:27.000Z</time>
</trkpt>
<trkpt lat="46.1257580" lon="10.4932830">
	<ele>2520.60</ele>
	<time>2023-08-07T10:33:28.000Z</time>
</trkpt>
<trkpt lat="46.1257580" lon="10.4932760">
	<ele>2520.60</ele>
	<time>2023-08-07T10:33:29.000Z</time>
</trkpt>
<trkpt lat="46.1257580" lon="10.4932690">
	<ele>2520.60</ele>
	<time>2023-08-07T10:33:30.000Z</time>
</trkpt>
<trkpt lat="46.1257590" lon="10.4932650">
	<ele>2520.80</ele>
	<time>2023-08-07T10:33:31.000Z</time>
</trkpt>
<trkpt lat="46.1257600" lon="10.4932630">
	<ele>2520.80</ele>
	<time>2023-08-07T10:33:32.000Z</time>
</trkpt>
<trkpt lat="46.1257600" lon="10.4932580">
	<ele>2521.00</ele>
	<time>2023-08-07T10:33:33.000Z</time>
</trkpt>
<trkpt lat="46.1257610" lon="10.4932530">
	<ele>2521.20</ele>
	<time>2023-08-07T10:33:34.000Z</time>
</trkpt>
<trkpt lat="46.1257610" lon="10.4932480">
	<ele>2521.20</ele>
	<time>2023-08-07T10:33:35.000Z</time>
</trkpt>
<trkpt lat="46.1257630" lon="10.4932440">
	<ele>2521.40</ele>
	<time>2023-08-07T10:33:36.000Z</time>
</trkpt>
<trkpt lat="46.1257640" lon="10.4932390">
	<ele>2521.60</ele>
	<time>2023-08-07T10:33:37.000Z</time>
</trkpt>
<trkpt lat="46.1257660" lon="10.4932340">
	<ele>2521.80</ele>
	<time>2023-08-07T10:33:38.000Z</time>
</trkpt>
<trkpt lat="46.1257670" lon="10.4932300">
	<ele>2521.80</ele>
	<time>2023-08-07T10:33:39.000Z</time>
</trkpt>
<trkpt lat="46.1257690" lon="10.4932240">
	<ele>2521.80</ele>
	<time>2023-08-07T10:33:40.000Z</time>
</trkpt>
<trkpt lat="46.1257720" lon="10.4932220">
	<ele>2521.80</ele>
	<time>2023-08-07T10:33:41.000Z</time>
</trkpt>
<trkpt lat="46.1257730" lon="10.4932210">
	<ele>2522.00</ele>
	<time>2023-08-07T10:33:42.000Z</time>
</trkpt>
<trkpt lat="46.1257750" lon="10.4932200">
	<ele>2522.00</ele>
	<time>2023-08-07T10:33:43.000Z</time>
</trkpt>
<trkpt lat="46.1257770" lon="10.4932190">
	<ele>2522.20</ele>
	<time>2023-08-07T10:33:44.000Z</time>
</trkpt>
<trkpt lat="46.1257790" lon="10.4932160">
	<ele>2522.40</ele>
	<time>2023-08-07T10:33:45.000Z</time>
</trkpt>
<trkpt lat="46.1257820" lon="10.4932130">
	<ele>2522.80</ele>
	<time>2023-08-07T10:33:46.000Z</time>
</trkpt>
<trkpt lat="46.1257850" lon="10.4932100">
	<ele>2522.80</ele>
	<time>2023-08-07T10:33:47.000Z</time>
</trkpt>
<trkpt lat="46.1257890" lon="10.4932090">
	<ele>2523.00</ele>
	<time>2023-08-07T10:33:48.000Z</time>
</trkpt>
<trkpt lat="46.1257910" lon="10.4932070">
	<ele>2523.20</ele>
	<time>2023-08-07T10:33:49.000Z</time>
</trkpt>
<trkpt lat="46.1257930" lon="10.4932050">
	<ele>2523.20</ele>
	<time>2023-08-07T10:33:50.000Z</time>
</trkpt>
<trkpt lat="46.1257950" lon="10.4932030">
	<ele>2523.40</ele>
	<time>2023-08-07T10:33:51.000Z</time>
</trkpt>
<trkpt lat="46.1257970" lon="10.4932030">
	<ele>2523.60</ele>
	<time>2023-08-07T10:33:52.000Z</time>
</trkpt>
<trkpt lat="46.1257970" lon="10.4932030">
	<ele>2523.60</ele>
	<time>2023-08-07T10:33:53.000Z</time>
</trkpt>
<trkpt lat="46.1257980" lon="10.4932010">
	<ele>2523.80</ele>
	<time>2023-08-07T10:33:54.000Z</time>
</trkpt>
<trkpt lat="46.1257980" lon="10.4932000">
	<ele>2524.00</ele>
	<time>2023-08-07T10:33:55.000Z</time>
</trkpt>
<trkpt lat="46.1257990" lon="10.4931970">
	<ele>2524.20</ele>
	<time>2023-08-07T10:33:56.000Z</time>
</trkpt>
<trkpt lat="46.1258000" lon="10.4931920">
	<ele>2524.60</ele>
	<time>2023-08-07T10:33:57.000Z</time>
</trkpt>
<trkpt lat="46.1258000" lon="10.4931870">
	<ele>2524.80</ele>
	<time>2023-08-07T10:33:58.000Z</time>
</trkpt>
<trkpt lat="46.1258010" lon="10.4931790">
	<ele>2524.80</ele>
	<time>2023-08-07T10:33:59.000Z</time>
</trkpt>
<trkpt lat="46.1258010" lon="10.4931740">
	<ele>2525.20</ele>
	<time>2023-08-07T10:34:00.000Z</time>
</trkpt>
<trkpt lat="46.1258020" lon="10.4931700">
	<ele>2525.60</ele>
	<time>2023-08-07T10:34:01.000Z</time>
</trkpt>
<trkpt lat="46.1258020" lon="10.4931690">
	<ele>2526.00</ele>
	<time>2023-08-07T10:34:02.000Z</time>
</trkpt>
<trkpt lat="46.1258020" lon="10.4931680">
	<ele>2526.00</ele>
	<time>2023-08-07T10:34:03.000Z</time>
</trkpt>
<trkpt lat="46.1258030" lon="10.4931680">
	<ele>2526.40</ele>
	<time>2023-08-07T10:34:04.000Z</time>
</trkpt>
<trkpt lat="46.1258030" lon="10.4931650">
	<ele>2526.60</ele>
	<time>2023-08-07T10:34:05.000Z</time>
</trkpt>
<trkpt lat="46.1258040" lon="10.4931620">
	<ele>2527.20</ele>
	<time>2023-08-07T10:34:06.000Z</time>
</trkpt>
<trkpt lat="46.1258040" lon="10.4931610">
	<ele>2527.60</ele>
	<time>2023-08-07T10:34:07.000Z</time>
</trkpt>
<trkpt lat="46.1258050" lon="10.4931600">
	<ele>2528.00</ele>
	<time>2023-08-07T10:34:08.000Z</time>
</trkpt>
<trkpt lat="46.1258060" lon="10.4931550">
	<ele>2528.20</ele>
	<time>2023-08-07T10:34:09.000Z</time>
</trkpt>
<trkpt lat="46.1258070" lon="10.4931510">
	<ele>2528.40</ele>
	<time>2023-08-07T10:34:10.000Z</time>
</trkpt>
<trkpt lat="46.1258070" lon="10.4931490">
	<ele>2528.60</ele>
	<time>2023-08-07T10:34:11.000Z</time>
</trkpt>
<trkpt lat="46.1258080" lon="10.4931480">
	<ele>2528.80</ele>
	<time>2023-08-07T10:34:12.000Z</time>
</trkpt>
<trkpt lat="46.1258080" lon="10.4931450">
	<ele>2528.80</ele>
	<time>2023-08-07T10:34:13.000Z</time>
</trkpt>
<trkpt lat="46.1258090" lon="10.4931390">
	<ele>2528.80</ele>
	<time>2023-08-07T10:34:14.000Z</time>
</trkpt>
<trkpt lat="46.1258100" lon="10.4931340">
	<ele>2528.80</ele>
	<time>2023-08-07T10:34:15.000Z</time>
</trkpt>
<trkpt lat="46.1258120" lon="10.4931310">
	<ele>2529.00</ele>
	<time>2023-08-07T10:34:16.000Z</time>
</trkpt>
<trkpt lat="46.1258140" lon="10.4931280">
	<ele>2529.20</ele>
	<time>2023-08-07T10:34:17.000Z</time>
</trkpt>
<trkpt lat="46.1258160" lon="10.4931240">
	<ele>2529.20</ele>
	<time>2023-08-07T10:34:18.000Z</time>
</trkpt>
<trkpt lat="46.1258180" lon="10.4931210">
	<ele>2529.20</ele>
	<time>2023-08-07T10:34:19.000Z</time>
</trkpt>
<trkpt lat="46.1258210" lon="10.4931170">
	<ele>2529.20</ele>
	<time>2023-08-07T10:34:20.000Z</time>
</trkpt>
<trkpt lat="46.1258230" lon="10.4931130">
	<ele>2529.20</ele>
	<time>2023-08-07T10:34:21.000Z</time>
</trkpt>
<trkpt lat="46.1258240" lon="10.4931100">
	<ele>2529.00</ele>
	<time>2023-08-07T10:34:22.000Z</time>
</trkpt>
<trkpt lat="46.1258260" lon="10.4931070">
	<ele>2529.00</ele>
	<time>2023-08-07T10:34:23.000Z</time>
</trkpt>
<trkpt lat="46.1258290" lon="10.4931050">
	<ele>2529.00</ele>
	<time>2023-08-07T10:34:24.000Z</time>
</trkpt>
<trkpt lat="46.1258310" lon="10.4931010">
	<ele>2528.80</ele>
	<time>2023-08-07T10:34:25.000Z</time>
</trkpt>
<trkpt lat="46.1258330" lon="10.4930960">
	<ele>2528.80</ele>
	<time>2023-08-07T10:34:26.000Z</time>
</trkpt>
<trkpt lat="46.1258340" lon="10.4930900">
	<ele>2528.80</ele>
	<time>2023-08-07T10:34:27.000Z</time>
</trkpt>
<trkpt lat="46.1258350" lon="10.4930830">
	<ele>2528.60</ele>
	<time>2023-08-07T10:34:28.000Z</time>
</trkpt>
<trkpt lat="46.1258360" lon="10.4930770">
	<ele>2528.60</ele>
	<time>2023-08-07T10:34:29.000Z</time>
</trkpt>
<trkpt lat="46.1258370" lon="10.4930730">
	<ele>2528.60</ele>
	<time>2023-08-07T10:34:30.000Z</time>
</trkpt>
<trkpt lat="46.1258390" lon="10.4930690">
	<ele>2528.60</ele>
	<time>2023-08-07T10:34:31.000Z</time>
</trkpt>
<trkpt lat="46.1258420" lon="10.4930630">
	<ele>2528.60</ele>
	<time>2023-08-07T10:34:32.000Z</time>
</trkpt>
<trkpt lat="46.1258450" lon="10.4930590">
	<ele>2528.60</ele>
	<time>2023-08-07T10:34:33.000Z</time>
</trkpt>
<trkpt lat="46.1258480" lon="10.4930550">
	<ele>2528.80</ele>
	<time>2023-08-07T10:34:34.000Z</time>
</trkpt>
<trkpt lat="46.1258490" lon="10.4930520">
	<ele>2528.80</ele>
	<time>2023-08-07T10:34:35.000Z</time>
</trkpt>
<trkpt lat="46.1258500" lon="10.4930510">
	<ele>2528.80</ele>
	<time>2023-08-07T10:34:36.000Z</time>
</trkpt>
<trkpt lat="46.1258500" lon="10.4930470">
	<ele>2529.00</ele>
	<time>2023-08-07T10:34:37.000Z</time>
</trkpt>
<trkpt lat="46.1258510" lon="10.4930440">
	<ele>2529.20</ele>
	<time>2023-08-07T10:34:38.000Z</time>
</trkpt>
<trkpt lat="46.1258510" lon="10.4930410">
	<ele>2529.20</ele>
	<time>2023-08-07T10:34:39.000Z</time>
</trkpt>
<trkpt lat="46.1258520" lon="10.4930370">
	<ele>2529.20</ele>
	<time>2023-08-07T10:34:40.000Z</time>
</trkpt>
<trkpt lat="46.1258520" lon="10.4930340">
	<ele>2529.20</ele>
	<time>2023-08-07T10:34:41.000Z</time>
</trkpt>
<trkpt lat="46.1258520" lon="10.4930300">
	<ele>2529.20</ele>
	<time>2023-08-07T10:34:42.000Z</time>
</trkpt>
<trkpt lat="46.1258520" lon="10.4930260">
	<ele>2529.20</ele>
	<time>2023-08-07T10:34:43.000Z</time>
</trkpt>
<trkpt lat="46.1258520" lon="10.4930220">
	<ele>2529.20</ele>
	<time>2023-08-07T10:34:44.000Z</time>
</trkpt>
<trkpt lat="46.1258520" lon="10.4930160">
	<ele>2529.20</ele>
	<time>2023-08-07T10:34:45.000Z</time>
</trkpt>
<trkpt lat="46.1258540" lon="10.4930080">
	<ele>2529.20</ele>
	<time>2023-08-07T10:34:46.000Z</time>
</trkpt>
<trkpt lat="46.1258550" lon="10.4930010">
	<ele>2529.40</ele>
	<time>2023-08-07T10:34:47.000Z</time>
</trkpt>
<trkpt lat="46.1258560" lon="10.4929950">
	<ele>2529.40</ele>
	<time>2023-08-07T10:34:48.000Z</time>
</trkpt>
<trkpt lat="46.1258560" lon="10.4929900">
	<ele>2529.60</ele>
	<time>2023-08-07T10:34:49.000Z</time>
</trkpt>
<trkpt lat="46.1258560" lon="10.4929850">
	<ele>2529.80</ele>
	<time>2023-08-07T10:34:50.000Z</time>
</trkpt>
<trkpt lat="46.1258560" lon="10.4929790">
	<ele>2530.00</ele>
	<time>2023-08-07T10:34:51.000Z</time>
</trkpt>
<trkpt lat="46.1258560" lon="10.4929710">
	<ele>2530.20</ele>
	<time>2023-08-07T10:34:52.000Z</time>
</trkpt>
<trkpt lat="46.1258560" lon="10.4929650">
	<ele>2530.20</ele>
	<time>2023-08-07T10:34:53.000Z</time>
</trkpt>
<trkpt lat="46.1258560" lon="10.4929570">
	<ele>2530.40</ele>
	<time>2023-08-07T10:34:54.000Z</time>
</trkpt>
<trkpt lat="46.1258560" lon="10.4929510">
	<ele>2530.40</ele>
	<time>2023-08-07T10:34:55.000Z</time>
</trkpt>
<trkpt lat="46.1258560" lon="10.4929430">
	<ele>2530.40</ele>
	<time>2023-08-07T10:34:56.000Z</time>
</trkpt>
<trkpt lat="46.1258560" lon="10.4929360">
	<ele>2530.60</ele>
	<time>2023-08-07T10:34:57.000Z</time>
</trkpt>
<trkpt lat="46.1258560" lon="10.4929300">
	<ele>2530.80</ele>
	<time>2023-08-07T10:34:58.000Z</time>
</trkpt>
<trkpt lat="46.1258560" lon="10.4929250">
	<ele>2531.00</ele>
	<time>2023-08-07T10:34:59.000Z</time>
</trkpt>
<trkpt lat="46.1258560" lon="10.4929200">
	<ele>2531.00</ele>
	<time>2023-08-07T10:35:00.000Z</time>
</trkpt>
<trkpt lat="46.1258540" lon="10.4929160">
	<ele>2531.20</ele>
	<time>2023-08-07T10:35:01.000Z</time>
</trkpt>
<trkpt lat="46.1258520" lon="10.4929100">
	<ele>2531.20</ele>
	<time>2023-08-07T10:35:02.000Z</time>
</trkpt>
<trkpt lat="46.1258510" lon="10.4929030">
	<ele>2531.20</ele>
	<time>2023-08-07T10:35:03.000Z</time>
</trkpt>
<trkpt lat="46.1258500" lon="10.4928940">
	<ele>2531.20</ele>
	<time>2023-08-07T10:35:04.000Z</time>
</trkpt>
<trkpt lat="46.1258490" lon="10.4928880">
	<ele>2531.40</ele>
	<time>2023-08-07T10:35:05.000Z</time>
</trkpt>
<trkpt lat="46.1258490" lon="10.4928790">
	<ele>2531.40</ele>
	<time>2023-08-07T10:35:06.000Z</time>
</trkpt>
<trkpt lat="46.1258510" lon="10.4928590">
	<ele>2531.80</ele>
	<time>2023-08-07T10:35:07.000Z</time>
</trkpt>
<trkpt lat="46.1258540" lon="10.4928390">
	<ele>2532.00</ele>
	<time>2023-08-07T10:35:08.000Z</time>
</trkpt>
<trkpt lat="46.1258540" lon="10.4928250">
	<ele>2532.20</ele>
	<time>2023-08-07T10:35:09.000Z</time>
</trkpt>
<trkpt lat="46.1258540" lon="10.4928110">
	<ele>2532.60</ele>
	<time>2023-08-07T10:35:10.000Z</time>
</trkpt>
<trkpt lat="46.1258540" lon="10.4927970">
	<ele>2533.00</ele>
	<time>2023-08-07T10:35:11.000Z</time>
</trkpt>
<trkpt lat="46.1258520" lon="10.4927840">
	<ele>2533.20</ele>
	<time>2023-08-07T10:35:12.000Z</time>
</trkpt>
<trkpt lat="46.1258500" lon="10.4927730">
	<ele>2533.40</ele>
	<time>2023-08-07T10:35:13.000Z</time>
</trkpt>
<trkpt lat="46.1258470" lon="10.4927590">
	<ele>2533.60</ele>
	<time>2023-08-07T10:35:14.000Z</time>
</trkpt>
<trkpt lat="46.1258380" lon="10.4927540">
	<ele>2533.60</ele>
	<time>2023-08-07T10:35:15.000Z</time>
</trkpt>
<trkpt lat="46.1258310" lon="10.4927530">
	<ele>2533.60</ele>
	<time>2023-08-07T10:35:16.000Z</time>
</trkpt>
<trkpt lat="46.1258270" lon="10.4927450">
	<ele>2533.40</ele>
	<time>2023-08-07T10:35:17.000Z</time>
</trkpt>
<trkpt lat="46.1258220" lon="10.4927360">
	<ele>2533.40</ele>
	<time>2023-08-07T10:35:18.000Z</time>
</trkpt>
<trkpt lat="46.1258190" lon="10.4927270">
	<ele>2533.20</ele>
	<time>2023-08-07T10:35:19.000Z</time>
</trkpt>
<trkpt lat="46.1258190" lon="10.4927190">
	<ele>2533.00</ele>
	<time>2023-08-07T10:35:20.000Z</time>
</trkpt>
<trkpt lat="46.1258190" lon="10.4927130">
	<ele>2533.00</ele>
	<time>2023-08-07T10:35:21.000Z</time>
</trkpt>
<trkpt lat="46.1258180" lon="10.4927110">
	<ele>2533.00</ele>
	<time>2023-08-07T10:35:22.000Z</time>
</trkpt>
<trkpt lat="46.1258140" lon="10.4927090">
	<ele>2533.00</ele>
	<time>2023-08-07T10:35:23.000Z</time>
</trkpt>
<trkpt lat="46.1258110" lon="10.4927020">
	<ele>2533.00</ele>
	<time>2023-08-07T10:35:24.000Z</time>
</trkpt>
<trkpt lat="46.1258080" lon="10.4926950">
	<ele>2533.20</ele>
	<time>2023-08-07T10:35:25.000Z</time>
</trkpt>
<trkpt lat="46.1258060" lon="10.4926890">
	<ele>2533.40</ele>
	<time>2023-08-07T10:35:26.000Z</time>
</trkpt>
<trkpt lat="46.1258020" lon="10.4926860">
	<ele>2533.60</ele>
	<time>2023-08-07T10:35:27.000Z</time>
</trkpt>
<trkpt lat="46.1258020" lon="10.4926830">
	<ele>2533.80</ele>
	<time>2023-08-07T10:35:28.000Z</time>
</trkpt>
<trkpt lat="46.1258010" lon="10.4926790">
	<ele>2533.80</ele>
	<time>2023-08-07T10:35:29.000Z</time>
</trkpt>
<trkpt lat="46.1257990" lon="10.4926730">
	<ele>2534.00</ele>
	<time>2023-08-07T10:35:30.000Z</time>
</trkpt>
<trkpt lat="46.1257990" lon="10.4926680">
	<ele>2534.00</ele>
	<time>2023-08-07T10:35:31.000Z</time>
</trkpt>
<trkpt lat="46.1258000" lon="10.4926640">
	<ele>2534.20</ele>
	<time>2023-08-07T10:35:32.000Z</time>
</trkpt>
<trkpt lat="46.1258080" lon="10.4926610">
	<ele>2534.60</ele>
	<time>2023-08-07T10:35:33.000Z</time>
</trkpt>
<trkpt lat="46.1258120" lon="10.4926580">
	<ele>2535.00</ele>
	<time>2023-08-07T10:35:34.000Z</time>
</trkpt>
<trkpt lat="46.1258160" lon="10.4926550">
	<ele>2535.00</ele>
	<time>2023-08-07T10:35:35.000Z</time>
</trkpt>
<trkpt lat="46.1258180" lon="10.4926560">
	<ele>2535.20</ele>
	<time>2023-08-07T10:35:36.000Z</time>
</trkpt>
<trkpt lat="46.1258190" lon="10.4926540">
	<ele>2535.40</ele>
	<time>2023-08-07T10:35:37.000Z</time>
</trkpt>
<trkpt lat="46.1258210" lon="10.4926540">
	<ele>2535.20</ele>
	<time>2023-08-07T10:35:38.000Z</time>
</trkpt>
<trkpt lat="46.1258230" lon="10.4926520">
	<ele>2535.20</ele>
	<time>2023-08-07T10:35:39.000Z</time>
</trkpt>
<trkpt lat="46.1258230" lon="10.4926510">
	<ele>2535.20</ele>
	<time>2023-08-07T10:35:40.000Z</time>
</trkpt>
<trkpt lat="46.1258220" lon="10.4926540">
	<ele>2535.20</ele>
	<time>2023-08-07T10:35:41.000Z</time>
</trkpt>
<trkpt lat="46.1258210" lon="10.4926550">
	<ele>2535.40</ele>
	<time>2023-08-07T10:35:42.000Z</time>
</trkpt>
<trkpt lat="46.1258220" lon="10.4926550">
	<ele>2535.40</ele>
	<time>2023-08-07T10:35:43.000Z</time>
</trkpt>
<trkpt lat="46.1258190" lon="10.4926610">
	<ele>2535.40</ele>
	<time>2023-08-07T10:35:44.000Z</time>
</trkpt>
<trkpt lat="46.1258190" lon="10.4926640">
	<ele>2535.40</ele>
	<time>2023-08-07T10:35:45.000Z</time>
</trkpt>
<trkpt lat="46.1258200" lon="10.4926650">
	<ele>2535.40</ele>
	<time>2023-08-07T10:35:46.000Z</time>
</trkpt>
<trkpt lat="46.1258210" lon="10.4926660">
	<ele>2535.60</ele>
	<time>2023-08-07T10:35:47.000Z</time>
</trkpt>
<trkpt lat="46.1258220" lon="10.4926660">
	<ele>2535.80</ele>
	<time>2023-08-07T10:35:48.000Z</time>
</trkpt>
<trkpt lat="46.1258220" lon="10.4926660">
	<ele>2535.80</ele>
	<time>2023-08-07T10:35:49.000Z</time>
</trkpt>
<trkpt lat="46.1258220" lon="10.4926660">
	<ele>2536.00</ele>
	<time>2023-08-07T10:35:50.000Z</time>
</trkpt>
<trkpt lat="46.1258220" lon="10.4926660">
	<ele>2536.00</ele>
	<time>2023-08-07T10:35:51.000Z</time>
</trkpt>
<trkpt lat="46.1258220" lon="10.4926660">
	<ele>2536.00</ele>
	<time>2023-08-07T10:35:52.000Z</time>
</trkpt>
<trkpt lat="46.1258220" lon="10.4926660">
	<ele>2536.00</ele>
	<time>2023-08-07T10:35:53.000Z</time>
</trkpt>
<trkpt lat="46.1258220" lon="10.4926660">
	<ele>2536.00</ele>
	<time>2023-08-07T10:35:54.000Z</time>
</trkpt>
<trkpt lat="46.1258220" lon="10.4926660">
	<ele>2536.00</ele>
	<time>2023-08-07T10:35:55.000Z</time>
</trkpt>
<trkpt lat="46.1258220" lon="10.4926660">
	<ele>2536.00</ele>
	<time>2023-08-07T10:35:56.000Z</time>
</trkpt>
<trkpt lat="46.1258220" lon="10.4926660">
	<ele>2536.00</ele>
	<time>2023-08-07T10:35:57.000Z</time>
</trkpt>
<trkpt lat="46.1258220" lon="10.4926660">
	<ele>2536.00</ele>
	<time>2023-08-07T10:35:58.000Z</time>
</trkpt>
<trkpt lat="46.1258220" lon="10.4926660">
	<ele>2536.00</ele>
	<time>2023-08-07T10:35:59.000Z</time>
</trkpt>
<trkpt lat="46.1258220" lon="10.4926660">
	<ele>2535.80</ele>
	<time>2023-08-07T10:36:00.000Z</time>
</trkpt>
<trkpt lat="46.1258220" lon="10.4926660">
	<ele>2535.80</ele>
	<time>2023-08-07T10:36:01.000Z</time>
</trkpt>
<trkpt lat="46.1258220" lon="10.4926660">
	<ele>2535.80</ele>
	<time>2023-08-07T10:36:02.000Z</time>
</trkpt>
<trkpt lat="46.1258220" lon="10.4926660">
	<ele>2535.60</ele>
	<time>2023-08-07T10:36:03.000Z</time>
</trkpt>
<trkpt lat="46.1258220" lon="10.4926660">
	<ele>2535.60</ele>
	<time>2023-08-07T10:36:04.000Z</time>
</trkpt>
<trkpt lat="46.1258230" lon="10.4926660">
	<ele>2535.40</ele>
	<time>2023-08-07T10:36:05.000Z</time>
</trkpt>
<trkpt lat="46.1258240" lon="10.4926660">
	<ele>2535.20</ele>
	<time>2023-08-07T10:36:06.000Z</time>
</trkpt>
<trkpt lat="46.1258260" lon="10.4926660">
	<ele>2535.20</ele>
	<time>2023-08-07T10:36:07.000Z</time>
</trkpt>
<trkpt lat="46.1258260" lon="10.4926660">
	<ele>2535.20</ele>
	<time>2023-08-07T10:36:08.000Z</time>
</trkpt>
<trkpt lat="46.1258270" lon="10.4926650">
	<ele>2535.20</ele>
	<time>2023-08-07T10:36:09.000Z</time>
</trkpt>
<trkpt lat="46.1258280" lon="10.4926650">
	<ele>2535.00</ele>
	<time>2023-08-07T10:36:10.000Z</time>
</trkpt>
<trkpt lat="46.1258280" lon="10.4926650">
	<ele>2535.00</ele>
	<time>2023-08-07T10:36:11.000Z</time>
</trkpt>
<trkpt lat="46.1258290" lon="10.4926650">
	<ele>2535.00</ele>
	<time>2023-08-07T10:36:12.000Z</time>
</trkpt>
<trkpt lat="46.1258300" lon="10.4926650">
	<ele>2535.00</ele>
	<time>2023-08-07T10:36:13.000Z</time>
</trkpt>
<trkpt lat="46.1258300" lon="10.4926650">
	<ele>2535.00</ele>
	<time>2023-08-07T10:36:14.000Z</time>
</trkpt>
<trkpt lat="46.1258300" lon="10.4926650">
	<ele>2534.80</ele>
	<time>2023-08-07T10:36:15.000Z</time>
</trkpt>
<trkpt lat="46.1258300" lon="10.4926640">
	<ele>2534.80</ele>
	<time>2023-08-07T10:36:16.000Z</time>
</trkpt>
<trkpt lat="46.1258310" lon="10.4926620">
	<ele>2534.80</ele>
	<time>2023-08-07T10:36:17.000Z</time>
</trkpt>
<trkpt lat="46.1258320" lon="10.4926620">
	<ele>2534.60</ele>
	<time>2023-08-07T10:36:18.000Z</time>
</trkpt>
<trkpt lat="46.1258320" lon="10.4926600">
	<ele>2535.00</ele>
	<time>2023-08-07T10:36:19.000Z</time>
</trkpt>
<trkpt lat="46.1258320" lon="10.4926580">
	<ele>2535.40</ele>
	<time>2023-08-07T10:36:20.000Z</time>
</trkpt>
<trkpt lat="46.1258330" lon="10.4926540">
	<ele>2535.80</ele>
	<time>2023-08-07T10:36:21.000Z</time>
</trkpt>
<trkpt lat="46.1258400" lon="10.4926310">
	<ele>2536.00</ele>
	<time>2023-08-07T10:36:22.000Z</time>
</trkpt>
<trkpt lat="46.1258420" lon="10.4926250">
	<ele>2536.20</ele>
	<time>2023-08-07T10:36:23.000Z</time>
</trkpt>
<trkpt lat="46.1258420" lon="10.4926170">
	<ele>2536.20</ele>
	<time>2023-08-07T10:36:24.000Z</time>
</trkpt>
<trkpt lat="46.1258370" lon="10.4926120">
	<ele>2536.40</ele>
	<time>2023-08-07T10:36:25.000Z</time>
</trkpt>
<trkpt lat="46.1258320" lon="10.4926060">
	<ele>2536.40</ele>
	<time>2023-08-07T10:36:26.000Z</time>
</trkpt>
<trkpt lat="46.1258280" lon="10.4925910">
	<ele>2536.40</ele>
	<time>2023-08-07T10:36:27.000Z</time>
</trkpt>
<trkpt lat="46.1258280" lon="10.4925800">
	<ele>2536.60</ele>
	<time>2023-08-07T10:36:28.000Z</time>
</trkpt>
<trkpt lat="46.1258220" lon="10.4925660">
	<ele>2536.60</ele>
	<time>2023-08-07T10:36:29.000Z</time>
</trkpt>
<trkpt lat="46.1258160" lon="10.4925560">
	<ele>2536.80</ele>
	<time>2023-08-07T10:36:30.000Z</time>
</trkpt>
<trkpt lat="46.1258100" lon="10.4925550">
	<ele>2537.00</ele>
	<time>2023-08-07T10:36:31.000Z</time>
</trkpt>
<trkpt lat="46.1258050" lon="10.4925500">
	<ele>2537.00</ele>
	<time>2023-08-07T10:36:32.000Z</time>
</trkpt>
<trkpt lat="46.1258010" lon="10.4925430">
	<ele>2537.20</ele>
	<time>2023-08-07T10:36:33.000Z</time>
</trkpt>
<trkpt lat="46.1258010" lon="10.4925420">
	<ele>2537.40</ele>
	<time>2023-08-07T10:36:34.000Z</time>
</trkpt>
<trkpt lat="46.1258010" lon="10.4925380">
	<ele>2537.60</ele>
	<time>2023-08-07T10:36:35.000Z</time>
</trkpt>
<trkpt lat="46.1257990" lon="10.4925300">
	<ele>2537.60</ele>
	<time>2023-08-07T10:36:36.000Z</time>
</trkpt>
<trkpt lat="46.1257990" lon="10.4925220">
	<ele>2537.80</ele>
	<time>2023-08-07T10:36:37.000Z</time>
</trkpt>
<trkpt lat="46.1257990" lon="10.4925180">
	<ele>2538.00</ele>
	<time>2023-08-07T10:36:38.000Z</time>
</trkpt>
<trkpt lat="46.1257980" lon="10.4925140">
	<ele>2538.00</ele>
	<time>2023-08-07T10:36:39.000Z</time>
</trkpt>
<trkpt lat="46.1257960" lon="10.4925090">
	<ele>2538.00</ele>
	<time>2023-08-07T10:36:40.000Z</time>
</trkpt>
<trkpt lat="46.1257930" lon="10.4925030">
	<ele>2538.20</ele>
	<time>2023-08-07T10:36:41.000Z</time>
</trkpt>
<trkpt lat="46.1257920" lon="10.4925010">
	<ele>2538.40</ele>
	<time>2023-08-07T10:36:42.000Z</time>
</trkpt>
<trkpt lat="46.1257900" lon="10.4924970">
	<ele>2538.40</ele>
	<time>2023-08-07T10:36:43.000Z</time>
</trkpt>
<trkpt lat="46.1257880" lon="10.4924960">
	<ele>2538.40</ele>
	<time>2023-08-07T10:36:44.000Z</time>
</trkpt>
<trkpt lat="46.1257880" lon="10.4924950">
	<ele>2538.60</ele>
	<time>2023-08-07T10:36:45.000Z</time>
</trkpt>
<trkpt lat="46.1257870" lon="10.4924970">
	<ele>2538.60</ele>
	<time>2023-08-07T10:36:46.000Z</time>
</trkpt>
<trkpt lat="46.1257850" lon="10.4924980">
	<ele>2538.60</ele>
	<time>2023-08-07T10:36:47.000Z</time>
</trkpt>
<trkpt lat="46.1257840" lon="10.4924960">
	<ele>2538.80</ele>
	<time>2023-08-07T10:36:48.000Z</time>
</trkpt>
<trkpt lat="46.1257870" lon="10.4924870">
	<ele>2538.80</ele>
	<time>2023-08-07T10:36:49.000Z</time>
</trkpt>
<trkpt lat="46.1257870" lon="10.4924830">
	<ele>2538.80</ele>
	<time>2023-08-07T10:36:50.000Z</time>
</trkpt>
<trkpt lat="46.1257850" lon="10.4924780">
	<ele>2538.80</ele>
	<time>2023-08-07T10:36:51.000Z</time>
</trkpt>
<trkpt lat="46.1257820" lon="10.4924760">
	<ele>2539.00</ele>
	<time>2023-08-07T10:36:52.000Z</time>
</trkpt>
<trkpt lat="46.1257780" lon="10.4924740">
	<ele>2539.00</ele>
	<time>2023-08-07T10:36:53.000Z</time>
</trkpt>
<trkpt lat="46.1257750" lon="10.4924700">
	<ele>2539.20</ele>
	<time>2023-08-07T10:36:54.000Z</time>
</trkpt>
<trkpt lat="46.1257740" lon="10.4924650">
	<ele>2539.20</ele>
	<time>2023-08-07T10:36:55.000Z</time>
</trkpt>
<trkpt lat="46.1257750" lon="10.4924630">
	<ele>2539.60</ele>
	<time>2023-08-07T10:36:56.000Z</time>
</trkpt>
<trkpt lat="46.1257740" lon="10.4924590">
	<ele>2540.00</ele>
	<time>2023-08-07T10:36:57.000Z</time>
</trkpt>
<trkpt lat="46.1257710" lon="10.4924550">
	<ele>2540.00</ele>
	<time>2023-08-07T10:36:58.000Z</time>
</trkpt>
<trkpt lat="46.1257680" lon="10.4924520">
	<ele>2540.20</ele>
	<time>2023-08-07T10:36:59.000Z</time>
</trkpt>
<trkpt lat="46.1257670" lon="10.4924500">
	<ele>2540.20</ele>
	<time>2023-08-07T10:37:00.000Z</time>
</trkpt>
<trkpt lat="46.1257670" lon="10.4924490">
	<ele>2540.20</ele>
	<time>2023-08-07T10:37:01.000Z</time>
</trkpt>
<trkpt lat="46.1257670" lon="10.4924490">
	<ele>2540.20</ele>
	<time>2023-08-07T10:37:02.000Z</time>
</trkpt>
<trkpt lat="46.1257670" lon="10.4924490">
	<ele>2540.20</ele>
	<time>2023-08-07T10:37:03.000Z</time>
</trkpt>
<trkpt lat="46.1257670" lon="10.4924490">
	<ele>2540.20</ele>
	<time>2023-08-07T10:37:04.000Z</time>
</trkpt>
<trkpt lat="46.1257670" lon="10.4924490">
	<ele>2540.20</ele>
	<time>2023-08-07T10:37:05.000Z</time>
</trkpt>
<trkpt lat="46.1257670" lon="10.4924490">
	<ele>2540.00</ele>
	<time>2023-08-07T10:37:06.000Z</time>
</trkpt>
<trkpt lat="46.1257670" lon="10.4924490">
	<ele>2540.20</ele>
	<time>2023-08-07T10:37:07.000Z</time>
</trkpt>
<trkpt lat="46.1257670" lon="10.4924490">
	<ele>2540.20</ele>
	<time>2023-08-07T10:37:08.000Z</time>
</trkpt>
<trkpt lat="46.1257670" lon="10.4924490">
	<ele>2540.20</ele>
	<time>2023-08-07T10:37:09.000Z</time>
</trkpt>
<trkpt lat="46.1257670" lon="10.4924490">
	<ele>2540.40</ele>
	<time>2023-08-07T10:37:10.000Z</time>
</trkpt>
<trkpt lat="46.1257680" lon="10.4924490">
	<ele>2540.60</ele>
	<time>2023-08-07T10:37:11.000Z</time>
</trkpt>
<trkpt lat="46.1257700" lon="10.4924490">
	<ele>2540.80</ele>
	<time>2023-08-07T10:37:12.000Z</time>
</trkpt>
<trkpt lat="46.1257710" lon="10.4924490">
	<ele>2541.00</ele>
	<time>2023-08-07T10:37:13.000Z</time>
</trkpt>
<trkpt lat="46.1257710" lon="10.4924490">
	<ele>2541.20</ele>
	<time>2023-08-07T10:37:14.000Z</time>
</trkpt>
<trkpt lat="46.1257710" lon="10.4924490">
	<ele>2541.20</ele>
	<time>2023-08-07T10:37:15.000Z</time>
</trkpt>
<trkpt lat="46.1257740" lon="10.4924490">
	<ele>2541.20</ele>
	<time>2023-08-07T10:37:16.000Z</time>
</trkpt>
<trkpt lat="46.1257740" lon="10.4924480">
	<ele>2541.20</ele>
	<time>2023-08-07T10:37:17.000Z</time>
</trkpt>
<trkpt lat="46.1257740" lon="10.4924470">
	<ele>2541.20</ele>
	<time>2023-08-07T10:37:18.000Z</time>
</trkpt>
<trkpt lat="46.1257740" lon="10.4924470">
	<ele>2541.40</ele>
	<time>2023-08-07T10:37:19.000Z</time>
</trkpt>
<trkpt lat="46.1257750" lon="10.4924460">
	<ele>2541.40</ele>
	<time>2023-08-07T10:37:20.000Z</time>
</trkpt>
<trkpt lat="46.1257750" lon="10.4924460">
	<ele>2541.60</ele>
	<time>2023-08-07T10:37:21.000Z</time>
</trkpt>
<trkpt lat="46.1257750" lon="10.4924450">
	<ele>2541.60</ele>
	<time>2023-08-07T10:37:22.000Z</time>
</trkpt>
<trkpt lat="46.1257750" lon="10.4924420">
	<ele>2541.80</ele>
	<time>2023-08-07T10:37:23.000Z</time>
</trkpt>
<trkpt lat="46.1257750" lon="10.4924380">
	<ele>2542.00</ele>
	<time>2023-08-07T10:37:24.000Z</time>
</trkpt>
<trkpt lat="46.1257750" lon="10.4924350">
	<ele>2542.20</ele>
	<time>2023-08-07T10:37:25.000Z</time>
</trkpt>
<trkpt lat="46.1257740" lon="10.4924340">
	<ele>2542.40</ele>
	<time>2023-08-07T10:37:26.000Z</time>
</trkpt>
<trkpt lat="46.1257740" lon="10.4924320">
	<ele>2542.60</ele>
	<time>2023-08-07T10:37:27.000Z</time>
</trkpt>
<trkpt lat="46.1257740" lon="10.4924320">
	<ele>2543.00</ele>
	<time>2023-08-07T10:37:28.000Z</time>
</trkpt>
<trkpt lat="46.1257740" lon="10.4924320">
	<ele>2543.20</ele>
	<time>2023-08-07T10:37:29.000Z</time>
</trkpt>
<trkpt lat="46.1257740" lon="10.4924310">
	<ele>2543.20</ele>
	<time>2023-08-07T10:37:30.000Z</time>
</trkpt>
<trkpt lat="46.1257740" lon="10.4924310">
	<ele>2543.40</ele>
	<time>2023-08-07T10:37:31.000Z</time>
</trkpt>
<trkpt lat="46.1257740" lon="10.4924300">
	<ele>2543.40</ele>
	<time>2023-08-07T10:37:32.000Z</time>
</trkpt>
<trkpt lat="46.1257740" lon="10.4924280">
	<ele>2543.60</ele>
	<time>2023-08-07T10:37:33.000Z</time>
</trkpt>
<trkpt lat="46.1257740" lon="10.4924240">
	<ele>2543.60</ele>
	<time>2023-08-07T10:37:34.000Z</time>
</trkpt>
<trkpt lat="46.1257760" lon="10.4924170">
	<ele>2543.60</ele>
	<time>2023-08-07T10:37:35.000Z</time>
</trkpt>
<trkpt lat="46.1257850" lon="10.4924100">
	<ele>2543.60</ele>
	<time>2023-08-07T10:37:36.000Z</time>
</trkpt>
<trkpt lat="46.1257920" lon="10.4924020">
	<ele>2543.80</ele>
	<time>2023-08-07T10:37:37.000Z</time>
</trkpt>
<trkpt lat="46.1257990" lon="10.4923920">
	<ele>2543.80</ele>
	<time>2023-08-07T10:37:38.000Z</time>
</trkpt>
<trkpt lat="46.1258070" lon="10.4923800">
	<ele>2543.80</ele>
	<time>2023-08-07T10:37:39.000Z</time>
</trkpt>
<trkpt lat="46.1258140" lon="10.4923710">
	<ele>2543.80</ele>
	<time>2023-08-07T10:37:40.000Z</time>
</trkpt>
<trkpt lat="46.1258210" lon="10.4923630">
	<ele>2544.00</ele>
	<time>2023-08-07T10:37:41.000Z</time>
</trkpt>
<trkpt lat="46.1258280" lon="10.4923570">
	<ele>2544.00</ele>
	<time>2023-08-07T10:37:42.000Z</time>
</trkpt>
<trkpt lat="46.1258340" lon="10.4923470">
	<ele>2544.20</ele>
	<time>2023-08-07T10:37:43.000Z</time>
</trkpt>
<trkpt lat="46.1258390" lon="10.4923340">
	<ele>2544.40</ele>
	<time>2023-08-07T10:37:44.000Z</time>
</trkpt>
<trkpt lat="46.1258400" lon="10.4923320">
	<ele>2544.60</ele>
	<time>2023-08-07T10:37:45.000Z</time>
</trkpt>
<trkpt lat="46.1258390" lon="10.4923290">
	<ele>2544.80</ele>
	<time>2023-08-07T10:37:46.000Z</time>
</trkpt>
<trkpt lat="46.1258380" lon="10.4923250">
	<ele>2545.00</ele>
	<time>2023-08-07T10:37:47.000Z</time>
</trkpt>
<trkpt lat="46.1258400" lon="10.4923200">
	<ele>2545.40</ele>
	<time>2023-08-07T10:37:48.000Z</time>
</trkpt>
<trkpt lat="46.1258430" lon="10.4923190">
	<ele>2545.60</ele>
	<time>2023-08-07T10:37:49.000Z</time>
</trkpt>
<trkpt lat="46.1258370" lon="10.4923200">
	<ele>2545.80</ele>
	<time>2023-08-07T10:37:50.000Z</time>
</trkpt>
<trkpt lat="46.1258360" lon="10.4923180">
	<ele>2545.80</ele>
	<time>2023-08-07T10:37:51.000Z</time>
</trkpt>
<trkpt lat="46.1258350" lon="10.4923150">
	<ele>2546.00</ele>
	<time>2023-08-07T10:37:52.000Z</time>
</trkpt>
<trkpt lat="46.1258330" lon="10.4923070">
	<ele>2546.20</ele>
	<time>2023-08-07T10:37:53.000Z</time>
</trkpt>
<trkpt lat="46.1258340" lon="10.4923010">
	<ele>2546.40</ele>
	<time>2023-08-07T10:37:54.000Z</time>
</trkpt>
<trkpt lat="46.1258320" lon="10.4923030">
	<ele>2546.60</ele>
	<time>2023-08-07T10:37:55.000Z</time>
</trkpt>
<trkpt lat="46.1258320" lon="10.4923020">
	<ele>2546.80</ele>
	<time>2023-08-07T10:37:56.000Z</time>
</trkpt>
<trkpt lat="46.1258330" lon="10.4923010">
	<ele>2546.80</ele>
	<time>2023-08-07T10:37:57.000Z</time>
</trkpt>
<trkpt lat="46.1258330" lon="10.4923010">
	<ele>2546.80</ele>
	<time>2023-08-07T10:37:58.000Z</time>
</trkpt>
<trkpt lat="46.1258330" lon="10.4923010">
	<ele>2547.00</ele>
	<time>2023-08-07T10:37:59.000Z</time>
</trkpt>
<trkpt lat="46.1258330" lon="10.4923010">
	<ele>2547.00</ele>
	<time>2023-08-07T10:38:00.000Z</time>
</trkpt>
<trkpt lat="46.1258330" lon="10.4923010">
	<ele>2547.20</ele>
	<time>2023-08-07T10:38:01.000Z</time>
</trkpt>
<trkpt lat="46.1258330" lon="10.4923010">
	<ele>2547.40</ele>
	<time>2023-08-07T10:38:02.000Z</time>
</trkpt>
<trkpt lat="46.1258330" lon="10.4923010">
	<ele>2547.60</ele>
	<time>2023-08-07T10:38:03.000Z</time>
</trkpt>
<trkpt lat="46.1258330" lon="10.4923010">
	<ele>2547.60</ele>
	<time>2023-08-07T10:38:04.000Z</time>
</trkpt>
<trkpt lat="46.1258330" lon="10.4923010">
	<ele>2547.80</ele>
	<time>2023-08-07T10:38:05.000Z</time>
</trkpt>
<trkpt lat="46.1258310" lon="10.4922980">
	<ele>2547.80</ele>
	<time>2023-08-07T10:38:06.000Z</time>
</trkpt>
<trkpt lat="46.1258290" lon="10.4922910">
	<ele>2547.80</ele>
	<time>2023-08-07T10:38:07.000Z</time>
</trkpt>
<trkpt lat="46.1258270" lon="10.4922830">
	<ele>2547.80</ele>
	<time>2023-08-07T10:38:08.000Z</time>
</trkpt>
<trkpt lat="46.1258240" lon="10.4922760">
	<ele>2548.20</ele>
	<time>2023-08-07T10:38:09.000Z</time>
</trkpt>
<trkpt lat="46.1258220" lon="10.4922670">
	<ele>2548.20</ele>
	<time>2023-08-07T10:38:10.000Z</time>
</trkpt>
<trkpt lat="46.1258230" lon="10.4922590">
	<ele>2548.20</ele>
	<time>2023-08-07T10:38:11.000Z</time>
</trkpt>
<trkpt lat="46.1258240" lon="10.4922510">
	<ele>2548.40</ele>
	<time>2023-08-07T10:38:12.000Z</time>
</trkpt>
<trkpt lat="46.1258260" lon="10.4922390">
	<ele>2548.40</ele>
	<time>2023-08-07T10:38:13.000Z</time>
</trkpt>
<trkpt lat="46.1258260" lon="10.4922320">
	<ele>2548.40</ele>
	<time>2023-08-07T10:38:14.000Z</time>
</trkpt>
<trkpt lat="46.1258260" lon="10.4922250">
	<ele>2548.60</ele>
	<time>2023-08-07T10:38:15.000Z</time>
</trkpt>
<trkpt lat="46.1258310" lon="10.4922210">
	<ele>2548.60</ele>
	<time>2023-08-07T10:38:16.000Z</time>
</trkpt>
<trkpt lat="46.1258360" lon="10.4922200">
	<ele>2548.80</ele>
	<time>2023-08-07T10:38:17.000Z</time>
</trkpt>
<trkpt lat="46.1258350" lon="10.4922190">
	<ele>2549.00</ele>
	<time>2023-08-07T10:38:18.000Z</time>
</trkpt>
<trkpt lat="46.1258330" lon="10.4922170">
	<ele>2549.40</ele>
	<time>2023-08-07T10:38:19.000Z</time>
</trkpt>
<trkpt lat="46.1258310" lon="10.4922140">
	<ele>2549.60</ele>
	<time>2023-08-07T10:38:20.000Z</time>
</trkpt>
<trkpt lat="46.1258270" lon="10.4922170">
	<ele>2549.80</ele>
	<time>2023-08-07T10:38:21.000Z</time>
</trkpt>
<trkpt lat="46.1258240" lon="10.4922110">
	<ele>2549.80</ele>
	<time>2023-08-07T10:38:22.000Z</time>
</trkpt>
<trkpt lat="46.1258220" lon="10.4922050">
	<ele>2550.00</ele>
	<time>2023-08-07T10:38:23.000Z</time>
</trkpt>
<trkpt lat="46.1258200" lon="10.4921970">
	<ele>2550.20</ele>
	<time>2023-08-07T10:38:24.000Z</time>
</trkpt>
<trkpt lat="46.1258170" lon="10.4921950">
	<ele>2550.40</ele>
	<time>2023-08-07T10:38:25.000Z</time>
</trkpt>
<trkpt lat="46.1258160" lon="10.4921880">
	<ele>2550.40</ele>
	<time>2023-08-07T10:38:26.000Z</time>
</trkpt>
<trkpt lat="46.1258170" lon="10.4921790">
	<ele>2550.60</ele>
	<time>2023-08-07T10:38:27.000Z</time>
</trkpt>
<trkpt lat="46.1258150" lon="10.4921730">
	<ele>2551.00</ele>
	<time>2023-08-07T10:38:28.000Z</time>
</trkpt>
<trkpt lat="46.1258110" lon="10.4921660">
	<ele>2551.20</ele>
	<time>2023-08-07T10:38:29.000Z</time>
</trkpt>
<trkpt lat="46.1258100" lon="10.4921610">
	<ele>2551.40</ele>
	<time>2023-08-07T10:38:30.000Z</time>
</trkpt>
<trkpt lat="46.1258080" lon="10.4921580">
	<ele>2551.40</ele>
	<time>2023-08-07T10:38:31.000Z</time>
</trkpt>
<trkpt lat="46.1258050" lon="10.4921580">
	<ele>2551.40</ele>
	<time>2023-08-07T10:38:32.000Z</time>
</trkpt>
<trkpt lat="46.1258010" lon="10.4921560">
	<ele>2551.40</ele>
	<time>2023-08-07T10:38:33.000Z</time>
</trkpt>
<trkpt lat="46.1257990" lon="10.4921510">
	<ele>2551.40</ele>
	<time>2023-08-07T10:38:34.000Z</time>
</trkpt>
<trkpt lat="46.1257960" lon="10.4921470">
	<ele>2551.40</ele>
	<time>2023-08-07T10:38:35.000Z</time>
</trkpt>
<trkpt lat="46.1257930" lon="10.4921440">
	<ele>2551.60</ele>
	<time>2023-08-07T10:38:36.000Z</time>
</trkpt>
<trkpt lat="46.1257910" lon="10.4921380">
	<ele>2551.60</ele>
	<time>2023-08-07T10:38:37.000Z</time>
</trkpt>
<trkpt lat="46.1257900" lon="10.4921290">
	<ele>2551.80</ele>
	<time>2023-08-07T10:38:38.000Z</time>
</trkpt>
<trkpt lat="46.1257930" lon="10.4921170">
	<ele>2552.00</ele>
	<time>2023-08-07T10:38:39.000Z</time>
</trkpt>
<trkpt lat="46.1257920" lon="10.4921070">
	<ele>2552.20</ele>
	<time>2023-08-07T10:38:40.000Z</time>
</trkpt>
<trkpt lat="46.1257930" lon="10.4921020">
	<ele>2552.20</ele>
	<time>2023-08-07T10:38:41.000Z</time>
</trkpt>
<trkpt lat="46.1257920" lon="10.4920990">
	<ele>2552.20</ele>
	<time>2023-08-07T10:38:42.000Z</time>
</trkpt>
<trkpt lat="46.1257900" lon="10.4920970">
	<ele>2552.60</ele>
	<time>2023-08-07T10:38:43.000Z</time>
</trkpt>
<trkpt lat="46.1257890" lon="10.4920930">
	<ele>2552.60</ele>
	<time>2023-08-07T10:38:44.000Z</time>
</trkpt>
<trkpt lat="46.1257920" lon="10.4920850">
	<ele>2552.80</ele>
	<time>2023-08-07T10:38:45.000Z</time>
</trkpt>
<trkpt lat="46.1257950" lon="10.4920740">
	<ele>2553.00</ele>
	<time>2023-08-07T10:38:46.000Z</time>
</trkpt>
<trkpt lat="46.1257940" lon="10.4920660">
	<ele>2553.20</ele>
	<time>2023-08-07T10:38:47.000Z</time>
</trkpt>
<trkpt lat="46.1257950" lon="10.4920610">
	<ele>2553.40</ele>
	<time>2023-08-07T10:38:48.000Z</time>
</trkpt>
<trkpt lat="46.1257960" lon="10.4920570">
	<ele>2553.40</ele>
	<time>2023-08-07T10:38:49.000Z</time>
</trkpt>
<trkpt lat="46.1257970" lon="10.4920560">
	<ele>2553.60</ele>
	<time>2023-08-07T10:38:50.000Z</time>
</trkpt>
<trkpt lat="46.1257980" lon="10.4920540">
	<ele>2553.60</ele>
	<time>2023-08-07T10:38:51.000Z</time>
</trkpt>
<trkpt lat="46.1258000" lon="10.4920530">
	<ele>2553.60</ele>
	<time>2023-08-07T10:38:52.000Z</time>
</trkpt>
<trkpt lat="46.1258010" lon="10.4920520">
	<ele>2553.80</ele>
	<time>2023-08-07T10:38:53.000Z</time>
</trkpt>
<trkpt lat="46.1258030" lon="10.4920520">
	<ele>2554.00</ele>
	<time>2023-08-07T10:38:54.000Z</time>
</trkpt>
<trkpt lat="46.1258040" lon="10.4920490">
	<ele>2554.20</ele>
	<time>2023-08-07T10:38:55.000Z</time>
</trkpt>
<trkpt lat="46.1258020" lon="10.4920480">
	<ele>2554.40</ele>
	<time>2023-08-07T10:38:56.000Z</time>
</trkpt>
<trkpt lat="46.1258000" lon="10.4920460">
	<ele>2554.60</ele>
	<time>2023-08-07T10:38:57.000Z</time>
</trkpt>
<trkpt lat="46.1257980" lon="10.4920450">
	<ele>2554.60</ele>
	<time>2023-08-07T10:38:58.000Z</time>
</trkpt>
<trkpt lat="46.1257970" lon="10.4920400">
	<ele>2554.80</ele>
	<time>2023-08-07T10:38:59.000Z</time>
</trkpt>
<trkpt lat="46.1257940" lon="10.4920350">
	<ele>2555.00</ele>
	<time>2023-08-07T10:39:00.000Z</time>
</trkpt>
<trkpt lat="46.1257890" lon="10.4920360">
	<ele>2555.20</ele>
	<time>2023-08-07T10:39:01.000Z</time>
</trkpt>
<trkpt lat="46.1257890" lon="10.4920310">
	<ele>2555.20</ele>
	<time>2023-08-07T10:39:02.000Z</time>
</trkpt>
<trkpt lat="46.1257900" lon="10.4920240">
	<ele>2555.40</ele>
	<time>2023-08-07T10:39:03.000Z</time>
</trkpt>
<trkpt lat="46.1257890" lon="10.4920190">
	<ele>2555.60</ele>
	<time>2023-08-07T10:39:04.000Z</time>
</trkpt>
<trkpt lat="46.1257860" lon="10.4920160">
	<ele>2555.80</ele>
	<time>2023-08-07T10:39:05.000Z</time>
</trkpt>
<trkpt lat="46.1257850" lon="10.4920080">
	<ele>2556.00</ele>
	<time>2023-08-07T10:39:06.000Z</time>
</trkpt>
<trkpt lat="46.1257870" lon="10.4920020">
	<ele>2556.20</ele>
	<time>2023-08-07T10:39:07.000Z</time>
</trkpt>
<trkpt lat="46.1257910" lon="10.4919970">
	<ele>2556.40</ele>
	<time>2023-08-07T10:39:08.000Z</time>
</trkpt>
<trkpt lat="46.1257950" lon="10.4919950">
	<ele>2556.60</ele>
	<time>2023-08-07T10:39:09.000Z</time>
</trkpt>
<trkpt lat="46.1257950" lon="10.4919930">
	<ele>2556.80</ele>
	<time>2023-08-07T10:39:10.000Z</time>
</trkpt>
<trkpt lat="46.1257930" lon="10.4919910">
	<ele>2557.00</ele>
	<time>2023-08-07T10:39:11.000Z</time>
</trkpt>
<trkpt lat="46.1257920" lon="10.4919910">
	<ele>2557.20</ele>
	<time>2023-08-07T10:39:12.000Z</time>
</trkpt>
<trkpt lat="46.1257920" lon="10.4919910">
	<ele>2557.40</ele>
	<time>2023-08-07T10:39:13.000Z</time>
</trkpt>
<trkpt lat="46.1257920" lon="10.4919910">
	<ele>2557.60</ele>
	<time>2023-08-07T10:39:14.000Z</time>
</trkpt>
<trkpt lat="46.1257920" lon="10.4919910">
	<ele>2557.80</ele>
	<time>2023-08-07T10:39:15.000Z</time>
</trkpt>
<trkpt lat="46.1257920" lon="10.4919910">
	<ele>2557.80</ele>
	<time>2023-08-07T10:39:16.000Z</time>
</trkpt>
<trkpt lat="46.1257920" lon="10.4919910">
	<ele>2557.80</ele>
	<time>2023-08-07T10:39:17.000Z</time>
</trkpt>
<trkpt lat="46.1257920" lon="10.4919910">
	<ele>2558.00</ele>
	<time>2023-08-07T10:39:18.000Z</time>
</trkpt>
<trkpt lat="46.1257920" lon="10.4919910">
	<ele>2558.00</ele>
	<time>2023-08-07T10:39:19.000Z</time>
</trkpt>
<trkpt lat="46.1257920" lon="10.4919910">
	<ele>2558.20</ele>
	<time>2023-08-07T10:39:20.000Z</time>
</trkpt>
<trkpt lat="46.1257920" lon="10.4919910">
	<ele>2558.40</ele>
	<time>2023-08-07T10:39:21.000Z</time>
</trkpt>
<trkpt lat="46.1257920" lon="10.4919910">
	<ele>2558.60</ele>
	<time>2023-08-07T10:39:22.000Z</time>
</trkpt>
<trkpt lat="46.1257920" lon="10.4919910">
	<ele>2558.80</ele>
	<time>2023-08-07T10:39:23.000Z</time>
</trkpt>
<trkpt lat="46.1257910" lon="10.4919910">
	<ele>2559.00</ele>
	<time>2023-08-07T10:39:24.000Z</time>
</trkpt>
<trkpt lat="46.1257890" lon="10.4919910">
	<ele>2559.00</ele>
	<time>2023-08-07T10:39:25.000Z</time>
</trkpt>
<trkpt lat="46.1257890" lon="10.4919910">
	<ele>2559.00</ele>
	<time>2023-08-07T10:39:26.000Z</time>
</trkpt>
<trkpt lat="46.1257870" lon="10.4919910">
	<ele>2559.20</ele>
	<time>2023-08-07T10:39:27.000Z</time>
</trkpt>
<trkpt lat="46.1257860" lon="10.4919860">
	<ele>2559.20</ele>
	<time>2023-08-07T10:39:28.000Z</time>
</trkpt>
<trkpt lat="46.1257860" lon="10.4919820">
	<ele>2559.20</ele>
	<time>2023-08-07T10:39:29.000Z</time>
</trkpt>
<trkpt lat="46.1257850" lon="10.4919790">
	<ele>2559.20</ele>
	<time>2023-08-07T10:39:30.000Z</time>
</trkpt>
<trkpt lat="46.1257850" lon="10.4919700">
	<ele>2559.40</ele>
	<time>2023-08-07T10:39:31.000Z</time>
</trkpt>
<trkpt lat="46.1257840" lon="10.4919640">
	<ele>2559.40</ele>
	<time>2023-08-07T10:39:32.000Z</time>
</trkpt>
<trkpt lat="46.1257830" lon="10.4919620">
	<ele>2559.60</ele>
	<time>2023-08-07T10:39:33.000Z</time>
</trkpt>
<trkpt lat="46.1257830" lon="10.4919570">
	<ele>2559.60</ele>
	<time>2023-08-07T10:39:34.000Z</time>
</trkpt>
<trkpt lat="46.1257830" lon="10.4919530">
	<ele>2559.80</ele>
	<time>2023-08-07T10:39:35.000Z</time>
</trkpt>
<trkpt lat="46.1257830" lon="10.4919520">
	<ele>2559.80</ele>
	<time>2023-08-07T10:39:36.000Z</time>
</trkpt>
<trkpt lat="46.1257820" lon="10.4919490">
	<ele>2560.00</ele>
	<time>2023-08-07T10:39:37.000Z</time>
</trkpt>
<trkpt lat="46.1257820" lon="10.4919490">
	<ele>2560.40</ele>
	<time>2023-08-07T10:39:38.000Z</time>
</trkpt>
<trkpt lat="46.1257820" lon="10.4919450">
	<ele>2560.60</ele>
	<time>2023-08-07T10:39:39.000Z</time>
</trkpt>
<trkpt lat="46.1257820" lon="10.4919400">
	<ele>2560.80</ele>
	<time>2023-08-07T10:39:40.000Z</time>
</trkpt>
<trkpt lat="46.1257820" lon="10.4919380">
	<ele>2561.00</ele>
	<time>2023-08-07T10:39:41.000Z</time>
</trkpt>
<trkpt lat="46.1257820" lon="10.4919350">
	<ele>2561.20</ele>
	<time>2023-08-07T10:39:42.000Z</time>
</trkpt>
<trkpt lat="46.1257820" lon="10.4919310">
	<ele>2561.40</ele>
	<time>2023-08-07T10:39:43.000Z</time>
</trkpt>
<trkpt lat="46.1257820" lon="10.4919260">
	<ele>2561.60</ele>
	<time>2023-08-07T10:39:44.000Z</time>
</trkpt>
<trkpt lat="46.1257820" lon="10.4919230">
	<ele>2561.80</ele>
	<time>2023-08-07T10:39:45.000Z</time>
</trkpt>
<trkpt lat="46.1257820" lon="10.4919210">
	<ele>2562.00</ele>
	<time>2023-08-07T10:39:46.000Z</time>
</trkpt>
<trkpt lat="46.1257820" lon="10.4919160">
	<ele>2562.00</ele>
	<time>2023-08-07T10:39:47.000Z</time>
</trkpt>
<trkpt lat="46.1257820" lon="10.4919140">
	<ele>2562.20</ele>
	<time>2023-08-07T10:39:48.000Z</time>
</trkpt>
<trkpt lat="46.1257820" lon="10.4919130">
	<ele>2562.20</ele>
	<time>2023-08-07T10:39:49.000Z</time>
</trkpt>
<trkpt lat="46.1257820" lon="10.4919110">
	<ele>2562.40</ele>
	<time>2023-08-07T10:39:50.000Z</time>
</trkpt>
<trkpt lat="46.1257820" lon="10.4919070">
	<ele>2562.40</ele>
	<time>2023-08-07T10:39:51.000Z</time>
</trkpt>
<trkpt lat="46.1257840" lon="10.4919000">
	<ele>2562.40</ele>
	<time>2023-08-07T10:39:52.000Z</time>
</trkpt>
<trkpt lat="46.1257850" lon="10.4918950">
	<ele>2562.60</ele>
	<time>2023-08-07T10:39:53.000Z</time>
</trkpt>
<trkpt lat="46.1257850" lon="10.4918910">
	<ele>2562.60</ele>
	<time>2023-08-07T10:39:54.000Z</time>
</trkpt>
<trkpt lat="46.1257850" lon="10.4918900">
	<ele>2562.60</ele>
	<time>2023-08-07T10:39:55.000Z</time>
</trkpt>
<trkpt lat="46.1257850" lon="10.4918880">
	<ele>2562.60</ele>
	<time>2023-08-07T10:39:56.000Z</time>
</trkpt>
<trkpt lat="46.1257850" lon="10.4918840">
	<ele>2562.60</ele>
	<time>2023-08-07T10:39:57.000Z</time>
</trkpt>
<trkpt lat="46.1257850" lon="10.4918770">
	<ele>2562.60</ele>
	<time>2023-08-07T10:39:58.000Z</time>
</trkpt>
<trkpt lat="46.1257850" lon="10.4918730">
	<ele>2562.60</ele>
	<time>2023-08-07T10:39:59.000Z</time>
</trkpt>
<trkpt lat="46.1257850" lon="10.4918700">
	<ele>2562.60</ele>
	<time>2023-08-07T10:40:00.000Z</time>
</trkpt>
<trkpt lat="46.1257850" lon="10.4918660">
	<ele>2562.60</ele>
	<time>2023-08-07T10:40:01.000Z</time>
</trkpt>
<trkpt lat="46.1257850" lon="10.4918580">
	<ele>2562.60</ele>
	<time>2023-08-07T10:40:02.000Z</time>
</trkpt>
<trkpt lat="46.1257850" lon="10.4918530">
	<ele>2562.60</ele>
	<time>2023-08-07T10:40:03.000Z</time>
</trkpt>
<trkpt lat="46.1257850" lon="10.4918480">
	<ele>2562.60</ele>
	<time>2023-08-07T10:40:04.000Z</time>
</trkpt>
<trkpt lat="46.1257850" lon="10.4918400">
	<ele>2562.80</ele>
	<time>2023-08-07T10:40:05.000Z</time>
</trkpt>
<trkpt lat="46.1257850" lon="10.4918340">
	<ele>2563.00</ele>
	<time>2023-08-07T10:40:06.000Z</time>
</trkpt>
<trkpt lat="46.1257830" lon="10.4918290">
	<ele>2563.20</ele>
	<time>2023-08-07T10:40:07.000Z</time>
</trkpt>
<trkpt lat="46.1257770" lon="10.4918250">
	<ele>2563.20</ele>
	<time>2023-08-07T10:40:08.000Z</time>
</trkpt>
<trkpt lat="46.1257730" lon="10.4918160">
	<ele>2563.40</ele>
	<time>2023-08-07T10:40:09.000Z</time>
</trkpt>
<trkpt lat="46.1257710" lon="10.4918080">
	<ele>2563.40</ele>
	<time>2023-08-07T10:40:10.000Z</time>
</trkpt>
<trkpt lat="46.1257690" lon="10.4918050">
	<ele>2563.60</ele>
	<time>2023-08-07T10:40:11.000Z</time>
</trkpt>
<trkpt lat="46.1257620" lon="10.4918000">
	<ele>2563.60</ele>
	<time>2023-08-07T10:40:12.000Z</time>
</trkpt>
<trkpt lat="46.1257500" lon="10.4917940">
	<ele>2563.60</ele>
	<time>2023-08-07T10:40:13.000Z</time>
</trkpt>
<trkpt lat="46.1257410" lon="10.4917870">
	<ele>2563.80</ele>
	<time>2023-08-07T10:40:14.000Z</time>
</trkpt>
<trkpt lat="46.1257290" lon="10.4917770">
	<ele>2563.80</ele>
	<time>2023-08-07T10:40:15.000Z</time>
</trkpt>
<trkpt lat="46.1257190" lon="10.4917650">
	<ele>2564.00</ele>
	<time>2023-08-07T10:40:16.000Z</time>
</trkpt>
<trkpt lat="46.1257090" lon="10.4917530">
	<ele>2564.20</ele>
	<time>2023-08-07T10:40:17.000Z</time>
</trkpt>
<trkpt lat="46.1256990" lon="10.4917420">
	<ele>2564.40</ele>
	<time>2023-08-07T10:40:18.000Z</time>
</trkpt>
<trkpt lat="46.1256900" lon="10.4917300">
	<ele>2564.60</ele>
	<time>2023-08-07T10:40:19.000Z</time>
</trkpt>
<trkpt lat="46.1256820" lon="10.4917190">
	<ele>2564.60</ele>
	<time>2023-08-07T10:40:20.000Z</time>
</trkpt>
<trkpt lat="46.1256740" lon="10.4917070">
	<ele>2564.80</ele>
	<time>2023-08-07T10:40:21.000Z</time>
</trkpt>
<trkpt lat="46.1256700" lon="10.4917060">
	<ele>2565.00</ele>
	<time>2023-08-07T10:40:22.000Z</time>
</trkpt>
<trkpt lat="46.1256680" lon="10.4916990">
	<ele>2565.20</ele>
	<time>2023-08-07T10:40:23.000Z</time>
</trkpt>
<trkpt lat="46.1256660" lon="10.4916960">
	<ele>2565.20</ele>
	<time>2023-08-07T10:40:24.000Z</time>
</trkpt>
<trkpt lat="46.1256640" lon="10.4916920">
	<ele>2565.40</ele>
	<time>2023-08-07T10:40:25.000Z</time>
</trkpt>
<trkpt lat="46.1256620" lon="10.4916890">
	<ele>2565.60</ele>
	<time>2023-08-07T10:40:26.000Z</time>
</trkpt>
<trkpt lat="46.1256610" lon="10.4916790">
	<ele>2565.60</ele>
	<time>2023-08-07T10:40:27.000Z</time>
</trkpt>
<trkpt lat="46.1256580" lon="10.4916750">
	<ele>2565.80</ele>
	<time>2023-08-07T10:40:28.000Z</time>
</trkpt>
<trkpt lat="46.1256510" lon="10.4916740">
	<ele>2565.80</ele>
	<time>2023-08-07T10:40:29.000Z</time>
</trkpt>
<trkpt lat="46.1256480" lon="10.4916710">
	<ele>2566.00</ele>
	<time>2023-08-07T10:40:30.000Z</time>
</trkpt>
<trkpt lat="46.1256450" lon="10.4916630">
	<ele>2566.00</ele>
	<time>2023-08-07T10:40:31.000Z</time>
</trkpt>
<trkpt lat="46.1256410" lon="10.4916540">
	<ele>2566.20</ele>
	<time>2023-08-07T10:40:32.000Z</time>
</trkpt>
<trkpt lat="46.1256380" lon="10.4916490">
	<ele>2566.40</ele>
	<time>2023-08-07T10:40:33.000Z</time>
</trkpt>
<trkpt lat="46.1256310" lon="10.4916490">
	<ele>2566.40</ele>
	<time>2023-08-07T10:40:34.000Z</time>
</trkpt>
<trkpt lat="46.1256260" lon="10.4916450">
	<ele>2566.60</ele>
	<time>2023-08-07T10:40:35.000Z</time>
</trkpt>
<trkpt lat="46.1256140" lon="10.4916450">
	<ele>2566.60</ele>
	<time>2023-08-07T10:40:36.000Z</time>
</trkpt>
<trkpt lat="46.1256060" lon="10.4916470">
	<ele>2566.60</ele>
	<time>2023-08-07T10:40:37.000Z</time>
</trkpt>
<trkpt lat="46.1256020" lon="10.4916480">
	<ele>2566.60</ele>
	<time>2023-08-07T10:40:38.000Z</time>
</trkpt>
<trkpt lat="46.1256040" lon="10.4916480">
	<ele>2566.80</ele>
	<time>2023-08-07T10:40:39.000Z</time>
</trkpt>
<trkpt lat="46.1256040" lon="10.4916480">
	<ele>2566.80</ele>
	<time>2023-08-07T10:40:40.000Z</time>
</trkpt>
<trkpt lat="46.1256020" lon="10.4916480">
	<ele>2566.80</ele>
	<time>2023-08-07T10:40:41.000Z</time>
</trkpt>
<trkpt lat="46.1255990" lon="10.4916490">
	<ele>2566.80</ele>
	<time>2023-08-07T10:40:42.000Z</time>
</trkpt>
<trkpt lat="46.1255960" lon="10.4916450">
	<ele>2566.80</ele>
	<time>2023-08-07T10:40:43.000Z</time>
</trkpt>
<trkpt lat="46.1255940" lon="10.4916390">
	<ele>2566.80</ele>
	<time>2023-08-07T10:40:44.000Z</time>
</trkpt>
<trkpt lat="46.1255940" lon="10.4916340">
	<ele>2566.80</ele>
	<time>2023-08-07T10:40:45.000Z</time>
</trkpt>
<trkpt lat="46.1255930" lon="10.4916250">
	<ele>2566.80</ele>
	<time>2023-08-07T10:40:46.000Z</time>
</trkpt>
<trkpt lat="46.1255910" lon="10.4916210">
	<ele>2566.80</ele>
	<time>2023-08-07T10:40:47.000Z</time>
</trkpt>
<trkpt lat="46.1255900" lon="10.4916190">
	<ele>2567.00</ele>
	<time>2023-08-07T10:40:48.000Z</time>
</trkpt>
<trkpt lat="46.1255880" lon="10.4916160">
	<ele>2567.00</ele>
	<time>2023-08-07T10:40:49.000Z</time>
</trkpt>
<trkpt lat="46.1255870" lon="10.4916090">
	<ele>2567.00</ele>
	<time>2023-08-07T10:40:50.000Z</time>
</trkpt>
<trkpt lat="46.1255860" lon="10.4916020">
	<ele>2567.20</ele>
	<time>2023-08-07T10:40:51.000Z</time>
</trkpt>
<trkpt lat="46.1255860" lon="10.4915970">
	<ele>2567.20</ele>
	<time>2023-08-07T10:40:52.000Z</time>
</trkpt>
<trkpt lat="46.1255840" lon="10.4915870">
	<ele>2567.20</ele>
	<time>2023-08-07T10:40:53.000Z</time>
</trkpt>
<trkpt lat="46.1255800" lon="10.4915800">
	<ele>2567.20</ele>
	<time>2023-08-07T10:40:54.000Z</time>
</trkpt>
<trkpt lat="46.1255750" lon="10.4915720">
	<ele>2567.00</ele>
	<time>2023-08-07T10:40:55.000Z</time>
</trkpt>
<trkpt lat="46.1255700" lon="10.4915680">
	<ele>2566.80</ele>
	<time>2023-08-07T10:40:56.000Z</time>
</trkpt>
<trkpt lat="46.1255680" lon="10.4915570">
	<ele>2566.80</ele>
	<time>2023-08-07T10:40:57.000Z</time>
</trkpt>
<trkpt lat="46.1255680" lon="10.4915510">
	<ele>2566.80</ele>
	<time>2023-08-07T10:40:58.000Z</time>
</trkpt>
<trkpt lat="46.1255720" lon="10.4915390">
	<ele>2566.80</ele>
	<time>2023-08-07T10:40:59.000Z</time>
</trkpt>
<trkpt lat="46.1255770" lon="10.4915280">
	<ele>2566.80</ele>
	<time>2023-08-07T10:41:00.000Z</time>
</trkpt>
<trkpt lat="46.1255830" lon="10.4915230">
	<ele>2566.80</ele>
	<time>2023-08-07T10:41:01.000Z</time>
</trkpt>
<trkpt lat="46.1255880" lon="10.4915170">
	<ele>2566.80</ele>
	<time>2023-08-07T10:41:02.000Z</time>
</trkpt>
<trkpt lat="46.1255900" lon="10.4915150">
	<ele>2566.80</ele>
	<time>2023-08-07T10:41:03.000Z</time>
</trkpt>
<trkpt lat="46.1255900" lon="10.4915150">
	<ele>2566.80</ele>
	<time>2023-08-07T10:41:04.000Z</time>
</trkpt>
<trkpt lat="46.1255920" lon="10.4915120">
	<ele>2566.80</ele>
	<time>2023-08-07T10:41:05.000Z</time>
</trkpt>
<trkpt lat="46.1255920" lon="10.4915120">
	<ele>2566.80</ele>
	<time>2023-08-07T10:41:06.000Z</time>
</trkpt>
<trkpt lat="46.1255910" lon="10.4915120">
	<ele>2566.60</ele>
	<time>2023-08-07T10:41:07.000Z</time>
</trkpt>
<trkpt lat="46.1255950" lon="10.4915080">
	<ele>2566.60</ele>
	<time>2023-08-07T10:41:08.000Z</time>
</trkpt>
<trkpt lat="46.1255970" lon="10.4915050">
	<ele>2566.60</ele>
	<time>2023-08-07T10:41:09.000Z</time>
</trkpt>
<trkpt lat="46.1256040" lon="10.4915010">
	<ele>2566.60</ele>
	<time>2023-08-07T10:41:10.000Z</time>
</trkpt>
<trkpt lat="46.1256080" lon="10.4914990">
	<ele>2566.60</ele>
	<time>2023-08-07T10:41:11.000Z</time>
</trkpt>
<trkpt lat="46.1256080" lon="10.4914990">
	<ele>2566.60</ele>
	<time>2023-08-07T10:41:12.000Z</time>
</trkpt>
<trkpt lat="46.1256070" lon="10.4914990">
	<ele>2566.60</ele>
	<time>2023-08-07T10:41:13.000Z</time>
</trkpt>
<trkpt lat="46.1256070" lon="10.4914990">
	<ele>2566.60</ele>
	<time>2023-08-07T10:41:14.000Z</time>
</trkpt>
<trkpt lat="46.1256070" lon="10.4914990">
	<ele>2566.80</ele>
	<time>2023-08-07T10:41:15.000Z</time>
</trkpt>
<trkpt lat="46.1256070" lon="10.4914990">
	<ele>2566.80</ele>
	<time>2023-08-07T10:41:16.000Z</time>
</trkpt>
<trkpt lat="46.1256070" lon="10.4914990">
	<ele>2567.00</ele>
	<time>2023-08-07T10:41:17.000Z</time>
</trkpt>
<trkpt lat="46.1256070" lon="10.4914990">
	<ele>2567.20</ele>
	<time>2023-08-07T10:41:18.000Z</time>
</trkpt>
<trkpt lat="46.1256070" lon="10.4914990">
	<ele>2567.60</ele>
	<time>2023-08-07T10:41:19.000Z</time>
</trkpt>
<trkpt lat="46.1256070" lon="10.4914990">
	<ele>2567.80</ele>
	<time>2023-08-07T10:41:20.000Z</time>
</trkpt>
<trkpt lat="46.1256070" lon="10.4914990">
	<ele>2567.80</ele>
	<time>2023-08-07T10:41:21.000Z</time>
</trkpt>
<trkpt lat="46.1256070" lon="10.4914990">
	<ele>2567.80</ele>
	<time>2023-08-07T10:41:22.000Z</time>
</trkpt>
<trkpt lat="46.1256070" lon="10.4914990">
	<ele>2568.20</ele>
	<time>2023-08-07T10:41:23.000Z</time>
</trkpt>
<trkpt lat="46.1256070" lon="10.4914990">
	<ele>2568.20</ele>
	<time>2023-08-07T10:41:24.000Z</time>
</trkpt>
<trkpt lat="46.1256070" lon="10.4914990">
	<ele>2568.40</ele>
	<time>2023-08-07T10:41:25.000Z</time>
</trkpt>
<trkpt lat="46.1256070" lon="10.4914990">
	<ele>2568.60</ele>
	<time>2023-08-07T10:41:26.000Z</time>
</trkpt>
<trkpt lat="46.1256070" lon="10.4914990">
	<ele>2568.60</ele>
	<time>2023-08-07T10:41:27.000Z</time>
</trkpt>
<trkpt lat="46.1256070" lon="10.4914990">
	<ele>2568.60</ele>
	<time>2023-08-07T10:41:28.000Z</time>
</trkpt>
<trkpt lat="46.1256070" lon="10.4914990">
	<ele>2568.60</ele>
	<time>2023-08-07T10:41:29.000Z</time>
</trkpt>
<trkpt lat="46.1256070" lon="10.4915010">
	<ele>2568.40</ele>
	<time>2023-08-07T10:41:30.000Z</time>
</trkpt>
<trkpt lat="46.1256070" lon="10.4915010">
	<ele>2568.40</ele>
	<time>2023-08-07T10:41:31.000Z</time>
</trkpt>
<trkpt lat="46.1256070" lon="10.4915030">
	<ele>2568.20</ele>
	<time>2023-08-07T10:41:32.000Z</time>
</trkpt>
<trkpt lat="46.1256070" lon="10.4915030">
	<ele>2568.20</ele>
	<time>2023-08-07T10:41:33.000Z</time>
</trkpt>
<trkpt lat="46.1256070" lon="10.4915030">
	<ele>2568.00</ele>
	<time>2023-08-07T10:41:34.000Z</time>
</trkpt>
<trkpt lat="46.1256070" lon="10.4915030">
	<ele>2567.80</ele>
	<time>2023-08-07T10:41:35.000Z</time>
</trkpt>
<trkpt lat="46.1256070" lon="10.4915030">
	<ele>2567.60</ele>
	<time>2023-08-07T10:41:36.000Z</time>
</trkpt>
<trkpt lat="46.1256070" lon="10.4915030">
	<ele>2567.40</ele>
	<time>2023-08-07T10:41:37.000Z</time>
</trkpt>
<trkpt lat="46.1256070" lon="10.4915030">
	<ele>2567.40</ele>
	<time>2023-08-07T10:41:38.000Z</time>
</trkpt>
<trkpt lat="46.1256070" lon="10.4915030">
	<ele>2567.40</ele>
	<time>2023-08-07T10:41:39.000Z</time>
</trkpt>
<trkpt lat="46.1256070" lon="10.4915030">
	<ele>2567.40</ele>
	<time>2023-08-07T10:41:40.000Z</time>
</trkpt>
<trkpt lat="46.1256070" lon="10.4915030">
	<ele>2567.80</ele>
	<time>2023-08-07T10:41:41.000Z</time>
</trkpt>
<trkpt lat="46.1256070" lon="10.4915030">
	<ele>2568.40</ele>
	<time>2023-08-07T10:41:42.000Z</time>
</trkpt>
<trkpt lat="46.1256070" lon="10.4915030">
	<ele>2568.80</ele>
	<time>2023-08-07T10:41:43.000Z</time>
</trkpt>
<trkpt lat="46.1256060" lon="10.4915030">
	<ele>2569.00</ele>
	<time>2023-08-07T10:41:44.000Z</time>
</trkpt>
<trkpt lat="46.1256060" lon="10.4915030">
	<ele>2569.00</ele>
	<time>2023-08-07T10:41:45.000Z</time>
</trkpt>
<trkpt lat="46.1256060" lon="10.4915030">
	<ele>2569.00</ele>
	<time>2023-08-07T10:41:46.000Z</time>
</trkpt>
<trkpt lat="46.1256050" lon="10.4915030">
	<ele>2569.00</ele>
	<time>2023-08-07T10:41:47.000Z</time>
</trkpt>
<trkpt lat="46.1256040" lon="10.4915030">
	<ele>2569.00</ele>
	<time>2023-08-07T10:41:48.000Z</time>
</trkpt>
<trkpt lat="46.1256040" lon="10.4915030">
	<ele>2569.00</ele>
	<time>2023-08-07T10:41:49.000Z</time>
</trkpt>
<trkpt lat="46.1256040" lon="10.4915030">
	<ele>2569.00</ele>
	<time>2023-08-07T10:41:50.000Z</time>
</trkpt>
<trkpt lat="46.1256040" lon="10.4915030">
	<ele>2569.00</ele>
	<time>2023-08-07T10:41:51.000Z</time>
</trkpt>
<trkpt lat="46.1256030" lon="10.4915020">
	<ele>2569.00</ele>
	<time>2023-08-07T10:41:52.000Z</time>
</trkpt>
<trkpt lat="46.1256030" lon="10.4915010">
	<ele>2569.20</ele>
	<time>2023-08-07T10:41:53.000Z</time>
</trkpt>
<trkpt lat="46.1256030" lon="10.4915000">
	<ele>2569.40</ele>
	<time>2023-08-07T10:41:54.000Z</time>
</trkpt>
<trkpt lat="46.1256020" lon="10.4914990">
	<ele>2569.20</ele>
	<time>2023-08-07T10:41:55.000Z</time>
</trkpt>
<trkpt lat="46.1256020" lon="10.4914990">
	<ele>2569.20</ele>
	<time>2023-08-07T10:41:56.000Z</time>
</trkpt>
<trkpt lat="46.1256020" lon="10.4914990">
	<ele>2569.20</ele>
	<time>2023-08-07T10:41:57.000Z</time>
</trkpt>
<trkpt lat="46.1256020" lon="10.4914990">
	<ele>2569.20</ele>
	<time>2023-08-07T10:41:58.000Z</time>
</trkpt>
<trkpt lat="46.1256020" lon="10.4914990">
	<ele>2569.40</ele>
	<time>2023-08-07T10:41:59.000Z</time>
</trkpt>
<trkpt lat="46.1256010" lon="10.4914990">
	<ele>2569.60</ele>
	<time>2023-08-07T10:42:00.000Z</time>
</trkpt>
<trkpt lat="46.1256010" lon="10.4914990">
	<ele>2569.40</ele>
	<time>2023-08-07T10:42:01.000Z</time>
</trkpt>
<trkpt lat="46.1256010" lon="10.4914990">
	<ele>2569.20</ele>
	<time>2023-08-07T10:42:02.000Z</time>
</trkpt>
<trkpt lat="46.1256000" lon="10.4914990">
	<ele>2569.20</ele>
	<time>2023-08-07T10:42:03.000Z</time>
</trkpt>
<trkpt lat="46.1255990" lon="10.4914990">
	<ele>2569.20</ele>
	<time>2023-08-07T10:42:04.000Z</time>
</trkpt>
<trkpt lat="46.1255980" lon="10.4914990">
	<ele>2569.20</ele>
	<time>2023-08-07T10:42:05.000Z</time>
</trkpt>
<trkpt lat="46.1255980" lon="10.4914990">
	<ele>2568.80</ele>
	<time>2023-08-07T10:42:06.000Z</time>
</trkpt>
<trkpt lat="46.1255980" lon="10.4914990">
	<ele>2568.80</ele>
	<time>2023-08-07T10:42:07.000Z</time>
</trkpt>
<trkpt lat="46.1255980" lon="10.4914990">
	<ele>2568.60</ele>
	<time>2023-08-07T10:42:08.000Z</time>
</trkpt>
<trkpt lat="46.1255970" lon="10.4915000">
	<ele>2568.60</ele>
	<time>2023-08-07T10:42:09.000Z</time>
</trkpt>
<trkpt lat="46.1255970" lon="10.4915030">
	<ele>2568.40</ele>
	<time>2023-08-07T10:42:10.000Z</time>
</trkpt>
<trkpt lat="46.1255970" lon="10.4915050">
	<ele>2568.20</ele>
	<time>2023-08-07T10:42:11.000Z</time>
</trkpt>
<trkpt lat="46.1255970" lon="10.4915080">
	<ele>2568.20</ele>
	<time>2023-08-07T10:42:12.000Z</time>
</trkpt>
<trkpt lat="46.1255970" lon="10.4915100">
	<ele>2568.00</ele>
	<time>2023-08-07T10:42:13.000Z</time>
</trkpt>
<trkpt lat="46.1255970" lon="10.4915120">
	<ele>2568.00</ele>
	<time>2023-08-07T10:42:14.000Z</time>
</trkpt>
<trkpt lat="46.1255960" lon="10.4915130">
	<ele>2568.00</ele>
	<time>2023-08-07T10:42:15.000Z</time>
</trkpt>
<trkpt lat="46.1255940" lon="10.4915190">
	<ele>2568.20</ele>
	<time>2023-08-07T10:42:16.000Z</time>
</trkpt>
<trkpt lat="46.1255920" lon="10.4915220">
	<ele>2568.40</ele>
	<time>2023-08-07T10:42:17.000Z</time>
</trkpt>
<trkpt lat="46.1255920" lon="10.4915310">
	<ele>2568.40</ele>
	<time>2023-08-07T10:42:18.000Z</time>
</trkpt>
<trkpt lat="46.1255910" lon="10.4915370">
	<ele>2568.60</ele>
	<time>2023-08-07T10:42:19.000Z</time>
</trkpt>
<trkpt lat="46.1255890" lon="10.4915390">
	<ele>2568.80</ele>
	<time>2023-08-07T10:42:20.000Z</time>
</trkpt>
<trkpt lat="46.1255880" lon="10.4915400">
	<ele>2569.00</ele>
	<time>2023-08-07T10:42:21.000Z</time>
</trkpt>
<trkpt lat="46.1255870" lon="10.4915400">
	<ele>2569.00</ele>
	<time>2023-08-07T10:42:22.000Z</time>
</trkpt>
<trkpt lat="46.1255860" lon="10.4915400">
	<ele>2568.80</ele>
	<time>2023-08-07T10:42:23.000Z</time>
</trkpt>
<trkpt lat="46.1255850" lon="10.4915400">
	<ele>2568.80</ele>
	<time>2023-08-07T10:42:24.000Z</time>
</trkpt>
<trkpt lat="46.1255850" lon="10.4915400">
	<ele>2568.80</ele>
	<time>2023-08-07T10:42:25.000Z</time>
</trkpt>
<trkpt lat="46.1255850" lon="10.4915400">
	<ele>2568.80</ele>
	<time>2023-08-07T10:42:26.000Z</time>
</trkpt>
<trkpt lat="46.1255840" lon="10.4915410">
	<ele>2568.60</ele>
	<time>2023-08-07T10:42:27.000Z</time>
</trkpt>
<trkpt lat="46.1255840" lon="10.4915420">
	<ele>2568.60</ele>
	<time>2023-08-07T10:42:28.000Z</time>
</trkpt>
<trkpt lat="46.1255830" lon="10.4915420">
	<ele>2568.40</ele>
	<time>2023-08-07T10:42:29.000Z</time>
</trkpt>
<trkpt lat="46.1255820" lon="10.4915420">
	<ele>2568.40</ele>
	<time>2023-08-07T10:42:30.000Z</time>
</trkpt>
<trkpt lat="46.1255810" lon="10.4915430">
	<ele>2568.40</ele>
	<time>2023-08-07T10:42:31.000Z</time>
</trkpt>
<trkpt lat="46.1255800" lon="10.4915430">
	<ele>2568.20</ele>
	<time>2023-08-07T10:42:32.000Z</time>
</trkpt>
<trkpt lat="46.1255790" lon="10.4915430">
	<ele>2568.20</ele>
	<time>2023-08-07T10:42:33.000Z</time>
</trkpt>
<trkpt lat="46.1255780" lon="10.4915430">
	<ele>2568.40</ele>
	<time>2023-08-07T10:42:34.000Z</time>
</trkpt>
<trkpt lat="46.1255770" lon="10.4915430">
	<ele>2568.40</ele>
	<time>2023-08-07T10:42:35.000Z</time>
</trkpt>
<trkpt lat="46.1255770" lon="10.4915430">
	<ele>2568.40</ele>
	<time>2023-08-07T10:42:36.000Z</time>
</trkpt>
<trkpt lat="46.1255770" lon="10.4915430">
	<ele>2568.60</ele>
	<time>2023-08-07T10:42:37.000Z</time>
</trkpt>
<trkpt lat="46.1255770" lon="10.4915430">
	<ele>2568.60</ele>
	<time>2023-08-07T10:42:38.000Z</time>
</trkpt>
<trkpt lat="46.1255770" lon="10.4915430">
	<ele>2568.60</ele>
	<time>2023-08-07T10:42:39.000Z</time>
</trkpt>
<trkpt lat="46.1255760" lon="10.4915440">
	<ele>2568.60</ele>
	<time>2023-08-07T10:42:40.000Z</time>
</trkpt>
<trkpt lat="46.1255680" lon="10.4915440">
	<ele>2568.60</ele>
	<time>2023-08-07T10:42:41.000Z</time>
</trkpt>
<trkpt lat="46.1255630" lon="10.4915470">
	<ele>2568.60</ele>
	<time>2023-08-07T10:42:42.000Z</time>
</trkpt>
<trkpt lat="46.1255590" lon="10.4915500">
	<ele>2568.60</ele>
	<time>2023-08-07T10:42:43.000Z</time>
</trkpt>
<trkpt lat="46.1255560" lon="10.4915540">
	<ele>2568.20</ele>
	<time>2023-08-07T10:42:44.000Z</time>
</trkpt>
<trkpt lat="46.1255520" lon="10.4915590">
	<ele>2568.00</ele>
	<time>2023-08-07T10:42:45.000Z</time>
</trkpt>
<trkpt lat="46.1255560" lon="10.4915560">
	<ele>2567.80</ele>
	<time>2023-08-07T10:42:46.000Z</time>
</trkpt>
<trkpt lat="46.1255560" lon="10.4915570">
	<ele>2567.80</ele>
	<time>2023-08-07T10:42:47.000Z</time>
</trkpt>
<trkpt lat="46.1255540" lon="10.4915600">
	<ele>2567.80</ele>
	<time>2023-08-07T10:42:48.000Z</time>
</trkpt>
<trkpt lat="46.1255520" lon="10.4915650">
	<ele>2567.80</ele>
	<time>2023-08-07T10:42:49.000Z</time>
</trkpt>
<trkpt lat="46.1255560" lon="10.4915660">
	<ele>2567.80</ele>
	<time>2023-08-07T10:42:50.000Z</time>
</trkpt>
<trkpt lat="46.1255580" lon="10.4915660">
	<ele>2568.00</ele>
	<time>2023-08-07T10:42:51.000Z</time>
</trkpt>
<trkpt lat="46.1255570" lon="10.4915610">
	<ele>2568.20</ele>
	<time>2023-08-07T10:42:52.000Z</time>
</trkpt>
<trkpt lat="46.1255560" lon="10.4915590">
	<ele>2568.40</ele>
	<time>2023-08-07T10:42:53.000Z</time>
</trkpt>
<trkpt lat="46.1255610" lon="10.4915550">
	<ele>2568.40</ele>
	<time>2023-08-07T10:42:54.000Z</time>
</trkpt>
<trkpt lat="46.1255620" lon="10.4915550">
	<ele>2568.40</ele>
	<time>2023-08-07T10:42:55.000Z</time>
</trkpt>
<trkpt lat="46.1255650" lon="10.4915550">
	<ele>2568.40</ele>
	<time>2023-08-07T10:42:56.000Z</time>
</trkpt>
<trkpt lat="46.1255680" lon="10.4915520">
	<ele>2568.40</ele>
	<time>2023-08-07T10:42:57.000Z</time>
</trkpt>
<trkpt lat="46.1255710" lon="10.4915530">
	<ele>2568.40</ele>
	<time>2023-08-07T10:42:58.000Z</time>
</trkpt>
<trkpt lat="46.1255730" lon="10.4915510">
	<ele>2568.40</ele>
	<time>2023-08-07T10:42:59.000Z</time>
</trkpt>
<trkpt lat="46.1255740" lon="10.4915500">
	<ele>2568.40</ele>
	<time>2023-08-07T10:43:00.000Z</time>
</trkpt>
<trkpt lat="46.1255740" lon="10.4915490">
	<ele>2568.40</ele>
	<time>2023-08-07T10:43:01.000Z</time>
</trkpt>
<trkpt lat="46.1255730" lon="10.4915490">
	<ele>2568.40</ele>
	<time>2023-08-07T10:43:02.000Z</time>
</trkpt>
<trkpt lat="46.1255740" lon="10.4915480">
	<ele>2568.20</ele>
	<time>2023-08-07T10:43:03.000Z</time>
</trkpt>
<trkpt lat="46.1255750" lon="10.4915480">
	<ele>2568.00</ele>
	<time>2023-08-07T10:43:04.000Z</time>
</trkpt>
<trkpt lat="46.1255760" lon="10.4915460">
	<ele>2568.00</ele>
	<time>2023-08-07T10:43:05.000Z</time>
</trkpt>
<trkpt lat="46.1255760" lon="10.4915460">
	<ele>2568.00</ele>
	<time>2023-08-07T10:43:06.000Z</time>
</trkpt>
<trkpt lat="46.1255760" lon="10.4915460">
	<ele>2567.60</ele>
	<time>2023-08-07T10:43:07.000Z</time>
</trkpt>
<trkpt lat="46.1255760" lon="10.4915460">
	<ele>2567.40</ele>
	<time>2023-08-07T10:43:08.000Z</time>
</trkpt>
<trkpt lat="46.1255760" lon="10.4915460">
	<ele>2567.20</ele>
	<time>2023-08-07T10:43:09.000Z</time>
</trkpt>
<trkpt lat="46.1255760" lon="10.4915460">
	<ele>2567.20</ele>
	<time>2023-08-07T10:43:10.000Z</time>
</trkpt>
<trkpt lat="46.1255760" lon="10.4915460">
	<ele>2567.00</ele>
	<time>2023-08-07T10:43:11.000Z</time>
</trkpt>
<trkpt lat="46.1255760" lon="10.4915460">
	<ele>2567.00</ele>
	<time>2023-08-07T10:43:12.000Z</time>
</trkpt>
<trkpt lat="46.1255760" lon="10.4915460">
	<ele>2567.00</ele>
	<time>2023-08-07T10:43:13.000Z</time>
</trkpt>
<trkpt lat="46.1255760" lon="10.4915460">
	<ele>2567.20</ele>
	<time>2023-08-07T10:43:14.000Z</time>
</trkpt>
<trkpt lat="46.1255760" lon="10.4915460">
	<ele>2567.40</ele>
	<time>2023-08-07T10:43:15.000Z</time>
</trkpt>
<trkpt lat="46.1255760" lon="10.4915460">
	<ele>2567.40</ele>
	<time>2023-08-07T10:43:16.000Z</time>
</trkpt>
<trkpt lat="46.1255760" lon="10.4915460">
	<ele>2567.60</ele>
	<time>2023-08-07T10:43:17.000Z</time>
</trkpt>
<trkpt lat="46.1255760" lon="10.4915460">
	<ele>2567.80</ele>
	<time>2023-08-07T10:43:18.000Z</time>
</trkpt>
<trkpt lat="46.1255760" lon="10.4915460">
	<ele>2567.80</ele>
	<time>2023-08-07T10:43:19.000Z</time>
</trkpt>
<trkpt lat="46.1255760" lon="10.4915460">
	<ele>2567.80</ele>
	<time>2023-08-07T10:43:20.000Z</time>
</trkpt>
<trkpt lat="46.1255770" lon="10.4915460">
	<ele>2567.80</ele>
	<time>2023-08-07T10:43:21.000Z</time>
</trkpt>
<trkpt lat="46.1255770" lon="10.4915460">
	<ele>2567.80</ele>
	<time>2023-08-07T10:43:22.000Z</time>
</trkpt>
<trkpt lat="46.1255780" lon="10.4915460">
	<ele>2567.80</ele>
	<time>2023-08-07T10:43:23.000Z</time>
</trkpt>
<trkpt lat="46.1255790" lon="10.4915460">
	<ele>2567.60</ele>
	<time>2023-08-07T10:43:24.000Z</time>
</trkpt>
<trkpt lat="46.1255790" lon="10.4915460">
	<ele>2567.60</ele>
	<time>2023-08-07T10:43:25.000Z</time>
</trkpt>
<trkpt lat="46.1255800" lon="10.4915460">
	<ele>2567.60</ele>
	<time>2023-08-07T10:43:26.000Z</time>
</trkpt>
<trkpt lat="46.1255820" lon="10.4915450">
	<ele>2567.60</ele>
	<time>2023-08-07T10:43:27.000Z</time>
</trkpt>
<trkpt lat="46.1255820" lon="10.4915440">
	<ele>2567.60</ele>
	<time>2023-08-07T10:43:28.000Z</time>
</trkpt>
<trkpt lat="46.1255820" lon="10.4915430">
	<ele>2567.60</ele>
	<time>2023-08-07T10:43:29.000Z</time>
</trkpt>
<trkpt lat="46.1255830" lon="10.4915420">
	<ele>2567.60</ele>
	<time>2023-08-07T10:43:30.000Z</time>
</trkpt>
<trkpt lat="46.1255830" lon="10.4915420">
	<ele>2567.60</ele>
	<time>2023-08-07T10:43:31.000Z</time>
</trkpt>
<trkpt lat="46.1255830" lon="10.4915420">
	<ele>2567.80</ele>
	<time>2023-08-07T10:43:32.000Z</time>
</trkpt>
<trkpt lat="46.1255830" lon="10.4915410">
	<ele>2567.80</ele>
	<time>2023-08-07T10:43:33.000Z</time>
</trkpt>
<trkpt lat="46.1255830" lon="10.4915410">
	<ele>2567.80</ele>
	<time>2023-08-07T10:43:34.000Z</time>
</trkpt>
<trkpt lat="46.1255830" lon="10.4915400">
	<ele>2567.80</ele>
	<time>2023-08-07T10:43:35.000Z</time>
</trkpt>
<trkpt lat="46.1255830" lon="10.4915400">
	<ele>2567.60</ele>
	<time>2023-08-07T10:43:36.000Z</time>
</trkpt>
<trkpt lat="46.1255830" lon="10.4915400">
	<ele>2567.80</ele>
	<time>2023-08-07T10:43:37.000Z</time>
</trkpt>
<trkpt lat="46.1255830" lon="10.4915390">
	<ele>2567.80</ele>
	<time>2023-08-07T10:43:38.000Z</time>
</trkpt>
<trkpt lat="46.1255830" lon="10.4915390">
	<ele>2567.80</ele>
	<time>2023-08-07T10:43:39.000Z</time>
</trkpt>
<trkpt lat="46.1255830" lon="10.4915390">
	<ele>2567.80</ele>
	<time>2023-08-07T10:43:40.000Z</time>
</trkpt>
<trkpt lat="46.1255830" lon="10.4915390">
	<ele>2567.80</ele>
	<time>2023-08-07T10:43:41.000Z</time>
</trkpt>
<trkpt lat="46.1255830" lon="10.4915390">
	<ele>2567.80</ele>
	<time>2023-08-07T10:43:42.000Z</time>
</trkpt>
<trkpt lat="46.1255840" lon="10.4915380">
	<ele>2567.80</ele>
	<time>2023-08-07T10:43:43.000Z</time>
</trkpt>
<trkpt lat="46.1255840" lon="10.4915370">
	<ele>2567.80</ele>
	<time>2023-08-07T10:43:44.000Z</time>
</trkpt>
<trkpt lat="46.1255840" lon="10.4915360">
	<ele>2567.60</ele>
	<time>2023-08-07T10:43:45.000Z</time>
</trkpt>
<trkpt lat="46.1255840" lon="10.4915350">
	<ele>2567.60</ele>
	<time>2023-08-07T10:43:46.000Z</time>
</trkpt>
<trkpt lat="46.1255840" lon="10.4915350">
	<ele>2567.60</ele>
	<time>2023-08-07T10:43:47.000Z</time>
</trkpt>
<trkpt lat="46.1255840" lon="10.4915330">
	<ele>2567.40</ele>
	<time>2023-08-07T10:43:48.000Z</time>
</trkpt>
<trkpt lat="46.1255850" lon="10.4915320">
	<ele>2567.20</ele>
	<time>2023-08-07T10:43:49.000Z</time>
</trkpt>
<trkpt lat="46.1255850" lon="10.4915310">
	<ele>2567.20</ele>
	<time>2023-08-07T10:43:50.000Z</time>
</trkpt>
<trkpt lat="46.1255850" lon="10.4915310">
	<ele>2567.20</ele>
	<time>2023-08-07T10:43:51.000Z</time>
</trkpt>
<trkpt lat="46.1255850" lon="10.4915300">
	<ele>2567.00</ele>
	<time>2023-08-07T10:43:52.000Z</time>
</trkpt>
<trkpt lat="46.1255850" lon="10.4915290">
	<ele>2567.20</ele>
	<time>2023-08-07T10:43:53.000Z</time>
</trkpt>
<trkpt lat="46.1255850" lon="10.4915290">
	<ele>2567.20</ele>
	<time>2023-08-07T10:43:54.000Z</time>
</trkpt>
<trkpt lat="46.1255850" lon="10.4915290">
	<ele>2567.20</ele>
	<time>2023-08-07T10:43:55.000Z</time>
</trkpt>
<trkpt lat="46.1255840" lon="10.4915280">
	<ele>2567.20</ele>
	<time>2023-08-07T10:43:56.000Z</time>
</trkpt>
<trkpt lat="46.1255840" lon="10.4915280">
	<ele>2567.20</ele>
	<time>2023-08-07T10:43:57.000Z</time>
</trkpt>
<trkpt lat="46.1255830" lon="10.4915260">
	<ele>2567.80</ele>
	<time>2023-08-07T10:43:58.000Z</time>
</trkpt>
<trkpt lat="46.1255830" lon="10.4915260">
	<ele>2568.00</ele>
	<time>2023-08-07T10:43:59.000Z</time>
</trkpt>
<trkpt lat="46.1255830" lon="10.4915250">
	<ele>2568.20</ele>
	<time>2023-08-07T10:44:00.000Z</time>
</trkpt>
<trkpt lat="46.1255830" lon="10.4915250">
	<ele>2568.20</ele>
	<time>2023-08-07T10:44:01.000Z</time>
</trkpt>
<trkpt lat="46.1255830" lon="10.4915250">
	<ele>2568.20</ele>
	<time>2023-08-07T10:44:02.000Z</time>
</trkpt>
<trkpt lat="46.1255830" lon="10.4915240">
	<ele>2568.40</ele>
	<time>2023-08-07T10:44:03.000Z</time>
</trkpt>
<trkpt lat="46.1255810" lon="10.4915160">
	<ele>2568.40</ele>
	<time>2023-08-07T10:44:04.000Z</time>
</trkpt>
<trkpt lat="46.1255760" lon="10.4914980">
	<ele>2568.40</ele>
	<time>2023-08-07T10:44:05.000Z</time>
</trkpt>
<trkpt lat="46.1255700" lon="10.4914790">
	<ele>2568.40</ele>
	<time>2023-08-07T10:44:06.000Z</time>
</trkpt>
<trkpt lat="46.1255650" lon="10.4914600">
	<ele>2568.40</ele>
	<time>2023-08-07T10:44:07.000Z</time>
</trkpt>
<trkpt lat="46.1255630" lon="10.4914390">
	<ele>2568.40</ele>
	<time>2023-08-07T10:44:08.000Z</time>
</trkpt>
<trkpt lat="46.1255570" lon="10.4914220">
	<ele>2568.40</ele>
	<time>2023-08-07T10:44:09.000Z</time>
</trkpt>
<trkpt lat="46.1255540" lon="10.4914010">
	<ele>2568.60</ele>
	<time>2023-08-07T10:44:10.000Z</time>
</trkpt>
<trkpt lat="46.1255530" lon="10.4913790">
	<ele>2568.80</ele>
	<time>2023-08-07T10:44:11.000Z</time>
</trkpt>
<trkpt lat="46.1255560" lon="10.4913590">
	<ele>2569.00</ele>
	<time>2023-08-07T10:44:12.000Z</time>
</trkpt>
<trkpt lat="46.1255540" lon="10.4913460">
	<ele>2569.00</ele>
	<time>2023-08-07T10:44:13.000Z</time>
</trkpt>
<trkpt lat="46.1255540" lon="10.4913440">
	<ele>2569.20</ele>
	<time>2023-08-07T10:44:14.000Z</time>
</trkpt>
<trkpt lat="46.1255540" lon="10.4913350">
	<ele>2569.20</ele>
	<time>2023-08-07T10:44:15.000Z</time>
</trkpt>
<trkpt lat="46.1255540" lon="10.4913280">
	<ele>2569.20</ele>
	<time>2023-08-07T10:44:16.000Z</time>
</trkpt>
<trkpt lat="46.1255540" lon="10.4913250">
	<ele>2569.40</ele>
	<time>2023-08-07T10:44:17.000Z</time>
</trkpt>
<trkpt lat="46.1255540" lon="10.4913230">
	<ele>2569.40</ele>
	<time>2023-08-07T10:44:18.000Z</time>
</trkpt>
<trkpt lat="46.1255520" lon="10.4913210">
	<ele>2569.60</ele>
	<time>2023-08-07T10:44:19.000Z</time>
</trkpt>
<trkpt lat="46.1255500" lon="10.4913230">
	<ele>2569.80</ele>
	<time>2023-08-07T10:44:20.000Z</time>
</trkpt>
<trkpt lat="46.1255460" lon="10.4913210">
	<ele>2569.80</ele>
	<time>2023-08-07T10:44:21.000Z</time>
</trkpt>
<trkpt lat="46.1255420" lon="10.4913180">
	<ele>2570.00</ele>
	<time>2023-08-07T10:44:22.000Z</time>
</trkpt>
<trkpt lat="46.1255410" lon="10.4913100">
	<ele>2570.00</ele>
	<time>2023-08-07T10:44:23.000Z</time>
</trkpt>
<trkpt lat="46.1255450" lon="10.4912990">
	<ele>2570.20</ele>
	<time>2023-08-07T10:44:24.000Z</time>
</trkpt>
<trkpt lat="46.1255430" lon="10.4912920">
	<ele>2570.20</ele>
	<time>2023-08-07T10:44:25.000Z</time>
</trkpt>
<trkpt lat="46.1255390" lon="10.4912850">
	<ele>2570.20</ele>
	<time>2023-08-07T10:44:26.000Z</time>
</trkpt>
<trkpt lat="46.1255360" lon="10.4912780">
	<ele>2570.20</ele>
	<time>2023-08-07T10:44:27.000Z</time>
</trkpt>
<trkpt lat="46.1255340" lon="10.4912690">
	<ele>2570.40</ele>
	<time>2023-08-07T10:44:28.000Z</time>
</trkpt>
<trkpt lat="46.1255310" lon="10.4912620">
	<ele>2570.40</ele>
	<time>2023-08-07T10:44:29.000Z</time>
</trkpt>
<trkpt lat="46.1255280" lon="10.4912560">
	<ele>2570.40</ele>
	<time>2023-08-07T10:44:30.000Z</time>
</trkpt>
<trkpt lat="46.1255250" lon="10.4912510">
	<ele>2570.20</ele>
	<time>2023-08-07T10:44:31.000Z</time>
</trkpt>
<trkpt lat="46.1255220" lon="10.4912450">
	<ele>2570.20</ele>
	<time>2023-08-07T10:44:32.000Z</time>
</trkpt>
<trkpt lat="46.1255200" lon="10.4912390">
	<ele>2570.00</ele>
	<time>2023-08-07T10:44:33.000Z</time>
</trkpt>
<trkpt lat="46.1255180" lon="10.4912330">
	<ele>2569.80</ele>
	<time>2023-08-07T10:44:34.000Z</time>
</trkpt>
<trkpt lat="46.1255130" lon="10.4912270">
	<ele>2569.80</ele>
	<time>2023-08-07T10:44:35.000Z</time>
</trkpt>
<trkpt lat="46.1255050" lon="10.4912210">
	<ele>2569.80</ele>
	<time>2023-08-07T10:44:36.000Z</time>
</trkpt>
<trkpt lat="46.1254980" lon="10.4912150">
	<ele>2569.80</ele>
	<time>2023-08-07T10:44:37.000Z</time>
</trkpt>
<trkpt lat="46.1254910" lon="10.4912090">
	<ele>2569.80</ele>
	<time>2023-08-07T10:44:38.000Z</time>
</trkpt>
<trkpt lat="46.1254890" lon="10.4912030">
	<ele>2569.60</ele>
	<time>2023-08-07T10:44:39.000Z</time>
</trkpt>
<trkpt lat="46.1254870" lon="10.4911950">
	<ele>2569.60</ele>
	<time>2023-08-07T10:44:40.000Z</time>
</trkpt>
<trkpt lat="46.1254920" lon="10.4911840">
	<ele>2569.60</ele>
	<time>2023-08-07T10:44:41.000Z</time>
</trkpt>
<trkpt lat="46.1254930" lon="10.4911780">
	<ele>2569.60</ele>
	<time>2023-08-07T10:44:42.000Z</time>
</trkpt>
<trkpt lat="46.1254920" lon="10.4911760">
	<ele>2569.60</ele>
	<time>2023-08-07T10:44:43.000Z</time>
</trkpt>
<trkpt lat="46.1254910" lon="10.4911710">
	<ele>2569.60</ele>
	<time>2023-08-07T10:44:44.000Z</time>
</trkpt>
<trkpt lat="46.1254910" lon="10.4911660">
	<ele>2569.60</ele>
	<time>2023-08-07T10:44:45.000Z</time>
</trkpt>
<trkpt lat="46.1254890" lon="10.4911590">
	<ele>2569.60</ele>
	<time>2023-08-07T10:44:46.000Z</time>
</trkpt>
<trkpt lat="46.1254880" lon="10.4911500">
	<ele>2569.80</ele>
	<time>2023-08-07T10:44:47.000Z</time>
</trkpt>
<trkpt lat="46.1254870" lon="10.4911410">
	<ele>2570.00</ele>
	<time>2023-08-07T10:44:48.000Z</time>
</trkpt>
<trkpt lat="46.1254870" lon="10.4911300">
	<ele>2570.20</ele>
	<time>2023-08-07T10:44:49.000Z</time>
</trkpt>
<trkpt lat="46.1254860" lon="10.4911180">
	<ele>2570.40</ele>
	<time>2023-08-07T10:44:50.000Z</time>
</trkpt>
<trkpt lat="46.1254890" lon="10.4911070">
	<ele>2570.40</ele>
	<time>2023-08-07T10:44:51.000Z</time>
</trkpt>
<trkpt lat="46.1254900" lon="10.4911050">
	<ele>2570.40</ele>
	<time>2023-08-07T10:44:52.000Z</time>
</trkpt>
<trkpt lat="46.1254900" lon="10.4911020">
	<ele>2570.60</ele>
	<time>2023-08-07T10:44:53.000Z</time>
</trkpt>
<trkpt lat="46.1254910" lon="10.4910970">
	<ele>2570.60</ele>
	<time>2023-08-07T10:44:54.000Z</time>
</trkpt>
<trkpt lat="46.1254920" lon="10.4910960">
	<ele>2570.80</ele>
	<time>2023-08-07T10:44:55.000Z</time>
</trkpt>
<trkpt lat="46.1254940" lon="10.4910940">
	<ele>2570.80</ele>
	<time>2023-08-07T10:44:56.000Z</time>
</trkpt>
<trkpt lat="46.1254940" lon="10.4910900">
	<ele>2571.20</ele>
	<time>2023-08-07T10:44:57.000Z</time>
</trkpt>
<trkpt lat="46.1254930" lon="10.4910860">
	<ele>2571.40</ele>
	<time>2023-08-07T10:44:58.000Z</time>
</trkpt>
<trkpt lat="46.1254940" lon="10.4910810">
	<ele>2571.40</ele>
	<time>2023-08-07T10:44:59.000Z</time>
</trkpt>
<trkpt lat="46.1255010" lon="10.4910700">
	<ele>2571.60</ele>
	<time>2023-08-07T10:45:00.000Z</time>
</trkpt>
<trkpt lat="46.1255070" lon="10.4910620">
	<ele>2571.60</ele>
	<time>2023-08-07T10:45:01.000Z</time>
</trkpt>
<trkpt lat="46.1255130" lon="10.4910560">
	<ele>2571.60</ele>
	<time>2023-08-07T10:45:02.000Z</time>
</trkpt>
<trkpt lat="46.1255140" lon="10.4910510">
	<ele>2571.60</ele>
	<time>2023-08-07T10:45:03.000Z</time>
</trkpt>
<trkpt lat="46.1255180" lon="10.4910450">
	<ele>2571.40</ele>
	<time>2023-08-07T10:45:04.000Z</time>
</trkpt>
<trkpt lat="46.1255200" lon="10.4910390">
	<ele>2571.40</ele>
	<time>2023-08-07T10:45:05.000Z</time>
</trkpt>
<trkpt lat="46.1255220" lon="10.4910300">
	<ele>2571.40</ele>
	<time>2023-08-07T10:45:06.000Z</time>
</trkpt>
<trkpt lat="46.1255240" lon="10.4910250">
	<ele>2571.40</ele>
	<time>2023-08-07T10:45:07.000Z</time>
</trkpt>
<trkpt lat="46.1255210" lon="10.4910230">
	<ele>2571.40</ele>
	<time>2023-08-07T10:45:08.000Z</time>
</trkpt>
<trkpt lat="46.1255180" lon="10.4910170">
	<ele>2571.40</ele>
	<time>2023-08-07T10:45:09.000Z</time>
</trkpt>
<trkpt lat="46.1255160" lon="10.4910120">
	<ele>2571.40</ele>
	<time>2023-08-07T10:45:10.000Z</time>
</trkpt>
<trkpt lat="46.1255140" lon="10.4910080">
	<ele>2571.80</ele>
	<time>2023-08-07T10:45:11.000Z</time>
</trkpt>
<trkpt lat="46.1255110" lon="10.4910080">
	<ele>2572.00</ele>
	<time>2023-08-07T10:45:12.000Z</time>
</trkpt>
<trkpt lat="46.1255090" lon="10.4910070">
	<ele>2572.00</ele>
	<time>2023-08-07T10:45:13.000Z</time>
</trkpt>
<trkpt lat="46.1255070" lon="10.4910030">
	<ele>2572.20</ele>
	<time>2023-08-07T10:45:14.000Z</time>
</trkpt>
<trkpt lat="46.1255090" lon="10.4909970">
	<ele>2572.20</ele>
	<time>2023-08-07T10:45:15.000Z</time>
</trkpt>
<trkpt lat="46.1255140" lon="10.4909890">
	<ele>2572.40</ele>
	<time>2023-08-07T10:45:16.000Z</time>
</trkpt>
<trkpt lat="46.1255150" lon="10.4909840">
	<ele>2572.40</ele>
	<time>2023-08-07T10:45:17.000Z</time>
</trkpt>
<trkpt lat="46.1255170" lon="10.4909790">
	<ele>2572.60</ele>
	<time>2023-08-07T10:45:18.000Z</time>
</trkpt>
<trkpt lat="46.1255200" lon="10.4909730">
	<ele>2572.60</ele>
	<time>2023-08-07T10:45:19.000Z</time>
</trkpt>
<trkpt lat="46.1255230" lon="10.4909720">
	<ele>2572.80</ele>
	<time>2023-08-07T10:45:20.000Z</time>
</trkpt>
<trkpt lat="46.1255290" lon="10.4909670">
	<ele>2573.20</ele>
	<time>2023-08-07T10:45:21.000Z</time>
</trkpt>
<trkpt lat="46.1255280" lon="10.4909660">
	<ele>2573.40</ele>
	<time>2023-08-07T10:45:22.000Z</time>
</trkpt>
<trkpt lat="46.1255290" lon="10.4909630">
	<ele>2573.60</ele>
	<time>2023-08-07T10:45:23.000Z</time>
</trkpt>
<trkpt lat="46.1255300" lon="10.4909600">
	<ele>2573.80</ele>
	<time>2023-08-07T10:45:24.000Z</time>
</trkpt>
<trkpt lat="46.1255340" lon="10.4909540">
	<ele>2573.80</ele>
	<time>2023-08-07T10:45:25.000Z</time>
</trkpt>
<trkpt lat="46.1255360" lon="10.4909480">
	<ele>2574.00</ele>
	<time>2023-08-07T10:45:26.000Z</time>
</trkpt>
<trkpt lat="46.1255380" lon="10.4909440">
	<ele>2574.20</ele>
	<time>2023-08-07T10:45:27.000Z</time>
</trkpt>
<trkpt lat="46.1255390" lon="10.4909410">
	<ele>2574.20</ele>
	<time>2023-08-07T10:45:28.000Z</time>
</trkpt>
<trkpt lat="46.1255430" lon="10.4909360">
	<ele>2574.40</ele>
	<time>2023-08-07T10:45:29.000Z</time>
</trkpt>
<trkpt lat="46.1255460" lon="10.4909290">
	<ele>2574.40</ele>
	<time>2023-08-07T10:45:30.000Z</time>
</trkpt>
<trkpt lat="46.1255460" lon="10.4909250">
	<ele>2574.60</ele>
	<time>2023-08-07T10:45:31.000Z</time>
</trkpt>
<trkpt lat="46.1255480" lon="10.4909210">
	<ele>2574.80</ele>
	<time>2023-08-07T10:45:32.000Z</time>
</trkpt>
<trkpt lat="46.1255480" lon="10.4909160">
	<ele>2575.00</ele>
	<time>2023-08-07T10:45:33.000Z</time>
</trkpt>
<trkpt lat="46.1255500" lon="10.4909090">
	<ele>2575.00</ele>
	<time>2023-08-07T10:45:34.000Z</time>
</trkpt>
<trkpt lat="46.1255530" lon="10.4909040">
	<ele>2575.20</ele>
	<time>2023-08-07T10:45:35.000Z</time>
</trkpt>
<trkpt lat="46.1255550" lon="10.4908950">
	<ele>2575.20</ele>
	<time>2023-08-07T10:45:36.000Z</time>
</trkpt>
<trkpt lat="46.1255600" lon="10.4908860">
	<ele>2575.40</ele>
	<time>2023-08-07T10:45:37.000Z</time>
</trkpt>
<trkpt lat="46.1255640" lon="10.4908750">
	<ele>2575.40</ele>
	<time>2023-08-07T10:45:38.000Z</time>
</trkpt>
<trkpt lat="46.1255650" lon="10.4908690">
	<ele>2575.60</ele>
	<time>2023-08-07T10:45:39.000Z</time>
</trkpt>
<trkpt lat="46.1255690" lon="10.4908610">
	<ele>2575.60</ele>
	<time>2023-08-07T10:45:40.000Z</time>
</trkpt>
<trkpt lat="46.1255710" lon="10.4908530">
	<ele>2575.60</ele>
	<time>2023-08-07T10:45:41.000Z</time>
</trkpt>
<trkpt lat="46.1255710" lon="10.4908450">
	<ele>2575.60</ele>
	<time>2023-08-07T10:45:42.000Z</time>
</trkpt>
<trkpt lat="46.1255730" lon="10.4908390">
	<ele>2575.80</ele>
	<time>2023-08-07T10:45:43.000Z</time>
</trkpt>
<trkpt lat="46.1255760" lon="10.4908340">
	<ele>2576.00</ele>
	<time>2023-08-07T10:45:44.000Z</time>
</trkpt>
<trkpt lat="46.1255790" lon="10.4908270">
	<ele>2576.20</ele>
	<time>2023-08-07T10:45:45.000Z</time>
</trkpt>
<trkpt lat="46.1255800" lon="10.4908190">
	<ele>2576.20</ele>
	<time>2023-08-07T10:45:46.000Z</time>
</trkpt>
<trkpt lat="46.1255770" lon="10.4908130">
	<ele>2576.20</ele>
	<time>2023-08-07T10:45:47.000Z</time>
</trkpt>
<trkpt lat="46.1255740" lon="10.4908060">
	<ele>2576.40</ele>
	<time>2023-08-07T10:45:48.000Z</time>
</trkpt>
<trkpt lat="46.1255750" lon="10.4908020">
	<ele>2576.40</ele>
	<time>2023-08-07T10:45:49.000Z</time>
</trkpt>
<trkpt lat="46.1255760" lon="10.4908000">
	<ele>2576.60</ele>
	<time>2023-08-07T10:45:50.000Z</time>
</trkpt>
<trkpt lat="46.1255750" lon="10.4907990">
	<ele>2576.80</ele>
	<time>2023-08-07T10:45:51.000Z</time>
</trkpt>
<trkpt lat="46.1255720" lon="10.4907950">
	<ele>2576.80</ele>
	<time>2023-08-07T10:45:52.000Z</time>
</trkpt>
<trkpt lat="46.1255710" lon="10.4907900">
	<ele>2577.00</ele>
	<time>2023-08-07T10:45:53.000Z</time>
</trkpt>
<trkpt lat="46.1255690" lon="10.4907880">
	<ele>2577.00</ele>
	<time>2023-08-07T10:45:54.000Z</time>
</trkpt>
<trkpt lat="46.1255680" lon="10.4907890">
	<ele>2577.00</ele>
	<time>2023-08-07T10:45:55.000Z</time>
</trkpt>
<trkpt lat="46.1255690" lon="10.4907870">
	<ele>2577.00</ele>
	<time>2023-08-07T10:45:56.000Z</time>
</trkpt>
<trkpt lat="46.1255700" lon="10.4907840">
	<ele>2577.20</ele>
	<time>2023-08-07T10:45:57.000Z</time>
</trkpt>
<trkpt lat="46.1255730" lon="10.4907770">
	<ele>2577.20</ele>
	<time>2023-08-07T10:45:58.000Z</time>
</trkpt>
<trkpt lat="46.1255740" lon="10.4907710">
	<ele>2577.20</ele>
	<time>2023-08-07T10:45:59.000Z</time>
</trkpt>
<trkpt lat="46.1255760" lon="10.4907650">
	<ele>2577.60</ele>
	<time>2023-08-07T10:46:00.000Z</time>
</trkpt>
<trkpt lat="46.1255770" lon="10.4907580">
	<ele>2577.60</ele>
	<time>2023-08-07T10:46:01.000Z</time>
</trkpt>
<trkpt lat="46.1255750" lon="10.4907530">
	<ele>2577.80</ele>
	<time>2023-08-07T10:46:02.000Z</time>
</trkpt>
<trkpt lat="46.1255770" lon="10.4907500">
	<ele>2577.80</ele>
	<time>2023-08-07T10:46:03.000Z</time>
</trkpt>
<trkpt lat="46.1255780" lon="10.4907500">
	<ele>2578.00</ele>
	<time>2023-08-07T10:46:04.000Z</time>
</trkpt>
<trkpt lat="46.1255800" lon="10.4907460">
	<ele>2578.20</ele>
	<time>2023-08-07T10:46:05.000Z</time>
</trkpt>
<trkpt lat="46.1255830" lon="10.4907450">
	<ele>2578.40</ele>
	<time>2023-08-07T10:46:06.000Z</time>
</trkpt>
<trkpt lat="46.1255840" lon="10.4907520">
	<ele>2578.60</ele>
	<time>2023-08-07T10:46:07.000Z</time>
</trkpt>
<trkpt lat="46.1255900" lon="10.4907510">
	<ele>2578.60</ele>
	<time>2023-08-07T10:46:08.000Z</time>
</trkpt>
<trkpt lat="46.1255940" lon="10.4907490">
	<ele>2578.80</ele>
	<time>2023-08-07T10:46:09.000Z</time>
</trkpt>
<trkpt lat="46.1255950" lon="10.4907470">
	<ele>2578.80</ele>
	<time>2023-08-07T10:46:10.000Z</time>
</trkpt>
<trkpt lat="46.1255970" lon="10.4907440">
	<ele>2578.80</ele>
	<time>2023-08-07T10:46:11.000Z</time>
</trkpt>
<trkpt lat="46.1255980" lon="10.4907420">
	<ele>2578.80</ele>
	<time>2023-08-07T10:46:12.000Z</time>
</trkpt>
<trkpt lat="46.1255980" lon="10.4907390">
	<ele>2579.00</ele>
	<time>2023-08-07T10:46:13.000Z</time>
</trkpt>
<trkpt lat="46.1256000" lon="10.4907350">
	<ele>2579.00</ele>
	<time>2023-08-07T10:46:14.000Z</time>
</trkpt>
<trkpt lat="46.1255990" lon="10.4907330">
	<ele>2579.20</ele>
	<time>2023-08-07T10:46:15.000Z</time>
</trkpt>
<trkpt lat="46.1255950" lon="10.4907310">
	<ele>2579.40</ele>
	<time>2023-08-07T10:46:16.000Z</time>
</trkpt>
<trkpt lat="46.1255920" lon="10.4907290">
	<ele>2579.60</ele>
	<time>2023-08-07T10:46:17.000Z</time>
</trkpt>
<trkpt lat="46.1255900" lon="10.4907290">
	<ele>2579.60</ele>
	<time>2023-08-07T10:46:18.000Z</time>
</trkpt>
<trkpt lat="46.1255880" lon="10.4907280">
	<ele>2579.80</ele>
	<time>2023-08-07T10:46:19.000Z</time>
</trkpt>
<trkpt lat="46.1255840" lon="10.4907260">
	<ele>2579.80</ele>
	<time>2023-08-07T10:46:20.000Z</time>
</trkpt>
<trkpt lat="46.1255780" lon="10.4907260">
	<ele>2579.80</ele>
	<time>2023-08-07T10:46:21.000Z</time>
</trkpt>
<trkpt lat="46.1255710" lon="10.4907220">
	<ele>2579.80</ele>
	<time>2023-08-07T10:46:22.000Z</time>
</trkpt>
<trkpt lat="46.1255670" lon="10.4907160">
	<ele>2580.00</ele>
	<time>2023-08-07T10:46:23.000Z</time>
</trkpt>
<trkpt lat="46.1255650" lon="10.4907110">
	<ele>2580.20</ele>
	<time>2023-08-07T10:46:24.000Z</time>
</trkpt>
<trkpt lat="46.1255650" lon="10.4907070">
	<ele>2580.40</ele>
	<time>2023-08-07T10:46:25.000Z</time>
</trkpt>
<trkpt lat="46.1255670" lon="10.4907010">
	<ele>2580.40</ele>
	<time>2023-08-07T10:46:26.000Z</time>
</trkpt>
<trkpt lat="46.1255680" lon="10.4906950">
	<ele>2580.40</ele>
	<time>2023-08-07T10:46:27.000Z</time>
</trkpt>
<trkpt lat="46.1255700" lon="10.4906840">
	<ele>2580.60</ele>
	<time>2023-08-07T10:46:28.000Z</time>
</trkpt>
<trkpt lat="46.1255690" lon="10.4906760">
	<ele>2580.60</ele>
	<time>2023-08-07T10:46:29.000Z</time>
</trkpt>
<trkpt lat="46.1255700" lon="10.4906680">
	<ele>2580.60</ele>
	<time>2023-08-07T10:46:30.000Z</time>
</trkpt>
<trkpt lat="46.1255720" lon="10.4906630">
	<ele>2580.80</ele>
	<time>2023-08-07T10:46:31.000Z</time>
</trkpt>
<trkpt lat="46.1255740" lon="10.4906580">
	<ele>2581.00</ele>
	<time>2023-08-07T10:46:32.000Z</time>
</trkpt>
<trkpt lat="46.1255750" lon="10.4906490">
	<ele>2581.20</ele>
	<time>2023-08-07T10:46:33.000Z</time>
</trkpt>
<trkpt lat="46.1255760" lon="10.4906380">
	<ele>2581.20</ele>
	<time>2023-08-07T10:46:34.000Z</time>
</trkpt>
<trkpt lat="46.1255750" lon="10.4906330">
	<ele>2581.40</ele>
	<time>2023-08-07T10:46:35.000Z</time>
</trkpt>
<trkpt lat="46.1255700" lon="10.4906380">
	<ele>2581.40</ele>
	<time>2023-08-07T10:46:36.000Z</time>
</trkpt>
<trkpt lat="46.1255690" lon="10.4906400">
	<ele>2581.40</ele>
	<time>2023-08-07T10:46:37.000Z</time>
</trkpt>
<trkpt lat="46.1255710" lon="10.4906400">
	<ele>2581.40</ele>
	<time>2023-08-07T10:46:38.000Z</time>
</trkpt>
<trkpt lat="46.1255720" lon="10.4906350">
	<ele>2581.60</ele>
	<time>2023-08-07T10:46:39.000Z</time>
</trkpt>
<trkpt lat="46.1255730" lon="10.4906310">
	<ele>2581.60</ele>
	<time>2023-08-07T10:46:40.000Z</time>
</trkpt>
<trkpt lat="46.1255770" lon="10.4906230">
	<ele>2581.60</ele>
	<time>2023-08-07T10:46:41.000Z</time>
</trkpt>
<trkpt lat="46.1255800" lon="10.4906170">
	<ele>2581.80</ele>
	<time>2023-08-07T10:46:42.000Z</time>
</trkpt>
<trkpt lat="46.1255820" lon="10.4906150">
	<ele>2581.80</ele>
	<time>2023-08-07T10:46:43.000Z</time>
</trkpt>
<trkpt lat="46.1255780" lon="10.4906150">
	<ele>2582.00</ele>
	<time>2023-08-07T10:46:44.000Z</time>
</trkpt>
<trkpt lat="46.1255780" lon="10.4906120">
	<ele>2582.00</ele>
	<time>2023-08-07T10:46:45.000Z</time>
</trkpt>
<trkpt lat="46.1255790" lon="10.4906070">
	<ele>2582.20</ele>
	<time>2023-08-07T10:46:46.000Z</time>
</trkpt>
<trkpt lat="46.1255800" lon="10.4906040">
	<ele>2582.20</ele>
	<time>2023-08-07T10:46:47.000Z</time>
</trkpt>
<trkpt lat="46.1255820" lon="10.4906000">
	<ele>2582.20</ele>
	<time>2023-08-07T10:46:48.000Z</time>
</trkpt>
<trkpt lat="46.1255800" lon="10.4905980">
	<ele>2582.40</ele>
	<time>2023-08-07T10:46:49.000Z</time>
</trkpt>
<trkpt lat="46.1255790" lon="10.4905960">
	<ele>2582.60</ele>
	<time>2023-08-07T10:46:50.000Z</time>
</trkpt>
<trkpt lat="46.1255780" lon="10.4905920">
	<ele>2582.80</ele>
	<time>2023-08-07T10:46:51.000Z</time>
</trkpt>
<trkpt lat="46.1255750" lon="10.4905880">
	<ele>2583.00</ele>
	<time>2023-08-07T10:46:52.000Z</time>
</trkpt>
<trkpt lat="46.1255690" lon="10.4905840">
	<ele>2583.00</ele>
	<time>2023-08-07T10:46:53.000Z</time>
</trkpt>
<trkpt lat="46.1255650" lon="10.4905830">
	<ele>2583.00</ele>
	<time>2023-08-07T10:46:54.000Z</time>
</trkpt>
<trkpt lat="46.1255630" lon="10.4905780">
	<ele>2583.20</ele>
	<time>2023-08-07T10:46:55.000Z</time>
</trkpt>
<trkpt lat="46.1255650" lon="10.4905760">
	<ele>2583.20</ele>
	<time>2023-08-07T10:46:56.000Z</time>
</trkpt>
<trkpt lat="46.1255670" lon="10.4905730">
	<ele>2583.40</ele>
	<time>2023-08-07T10:46:57.000Z</time>
</trkpt>
<trkpt lat="46.1255710" lon="10.4905670">
	<ele>2583.40</ele>
	<time>2023-08-07T10:46:58.000Z</time>
</trkpt>
<trkpt lat="46.1255740" lon="10.4905610">
	<ele>2583.40</ele>
	<time>2023-08-07T10:46:59.000Z</time>
</trkpt>
<trkpt lat="46.1255760" lon="10.4905560">
	<ele>2583.40</ele>
	<time>2023-08-07T10:47:00.000Z</time>
</trkpt>
<trkpt lat="46.1255770" lon="10.4905520">
	<ele>2583.40</ele>
	<time>2023-08-07T10:47:01.000Z</time>
</trkpt>
<trkpt lat="46.1255780" lon="10.4905510">
	<ele>2583.60</ele>
	<time>2023-08-07T10:47:02.000Z</time>
</trkpt>
<trkpt lat="46.1255780" lon="10.4905510">
	<ele>2583.60</ele>
	<time>2023-08-07T10:47:03.000Z</time>
</trkpt>
<trkpt lat="46.1255780" lon="10.4905510">
	<ele>2583.60</ele>
	<time>2023-08-07T10:47:04.000Z</time>
</trkpt>
<trkpt lat="46.1255780" lon="10.4905510">
	<ele>2583.60</ele>
	<time>2023-08-07T10:47:05.000Z</time>
</trkpt>
<trkpt lat="46.1255780" lon="10.4905510">
	<ele>2583.60</ele>
	<time>2023-08-07T10:47:06.000Z</time>
</trkpt>
<trkpt lat="46.1255780" lon="10.4905510">
	<ele>2583.80</ele>
	<time>2023-08-07T10:47:07.000Z</time>
</trkpt>
<trkpt lat="46.1255780" lon="10.4905510">
	<ele>2583.80</ele>
	<time>2023-08-07T10:47:08.000Z</time>
</trkpt>
<trkpt lat="46.1255780" lon="10.4905510">
	<ele>2583.80</ele>
	<time>2023-08-07T10:47:09.000Z</time>
</trkpt>
<trkpt lat="46.1255780" lon="10.4905510">
	<ele>2584.00</ele>
	<time>2023-08-07T10:47:10.000Z</time>
</trkpt>
<trkpt lat="46.1255780" lon="10.4905510">
	<ele>2584.20</ele>
	<time>2023-08-07T10:47:11.000Z</time>
</trkpt>
<trkpt lat="46.1255780" lon="10.4905510">
	<ele>2584.40</ele>
	<time>2023-08-07T10:47:12.000Z</time>
</trkpt>
<trkpt lat="46.1255780" lon="10.4905510">
	<ele>2584.60</ele>
	<time>2023-08-07T10:47:13.000Z</time>
</trkpt>
<trkpt lat="46.1255780" lon="10.4905510">
	<ele>2584.60</ele>
	<time>2023-08-07T10:47:14.000Z</time>
</trkpt>
<trkpt lat="46.1255780" lon="10.4905510">
	<ele>2584.80</ele>
	<time>2023-08-07T10:47:15.000Z</time>
</trkpt>
<trkpt lat="46.1255780" lon="10.4905510">
	<ele>2584.80</ele>
	<time>2023-08-07T10:47:16.000Z</time>
</trkpt>
<trkpt lat="46.1255780" lon="10.4905510">
	<ele>2585.00</ele>
	<time>2023-08-07T10:47:17.000Z</time>
</trkpt>
<trkpt lat="46.1255800" lon="10.4905510">
	<ele>2585.00</ele>
	<time>2023-08-07T10:47:18.000Z</time>
</trkpt>
<trkpt lat="46.1255800" lon="10.4905510">
	<ele>2585.00</ele>
	<time>2023-08-07T10:47:19.000Z</time>
</trkpt>
<trkpt lat="46.1255820" lon="10.4905510">
	<ele>2585.00</ele>
	<time>2023-08-07T10:47:20.000Z</time>
</trkpt>
<trkpt lat="46.1255880" lon="10.4905510">
	<ele>2585.20</ele>
	<time>2023-08-07T10:47:21.000Z</time>
</trkpt>
<trkpt lat="46.1255930" lon="10.4905510">
	<ele>2585.40</ele>
	<time>2023-08-07T10:47:22.000Z</time>
</trkpt>
<trkpt lat="46.1255970" lon="10.4905510">
	<ele>2585.40</ele>
	<time>2023-08-07T10:47:23.000Z</time>
</trkpt>
<trkpt lat="46.1256000" lon="10.4905510">
	<ele>2585.40</ele>
	<time>2023-08-07T10:47:24.000Z</time>
</trkpt>
<trkpt lat="46.1256010" lon="10.4905510">
	<ele>2585.60</ele>
	<time>2023-08-07T10:47:25.000Z</time>
</trkpt>
<trkpt lat="46.1256010" lon="10.4905510">
	<ele>2585.60</ele>
	<time>2023-08-07T10:47:26.000Z</time>
</trkpt>
<trkpt lat="46.1256010" lon="10.4905500">
	<ele>2585.80</ele>
	<time>2023-08-07T10:47:27.000Z</time>
</trkpt>
<trkpt lat="46.1256010" lon="10.4905500">
	<ele>2585.80</ele>
	<time>2023-08-07T10:47:28.000Z</time>
</trkpt>
<trkpt lat="46.1256010" lon="10.4905500">
	<ele>2585.80</ele>
	<time>2023-08-07T10:47:29.000Z</time>
</trkpt>
<trkpt lat="46.1256010" lon="10.4905500">
	<ele>2586.00</ele>
	<time>2023-08-07T10:47:30.000Z</time>
</trkpt>
<trkpt lat="46.1256010" lon="10.4905490">
	<ele>2586.20</ele>
	<time>2023-08-07T10:47:31.000Z</time>
</trkpt>
<trkpt lat="46.1256010" lon="10.4905480">
	<ele>2586.40</ele>
	<time>2023-08-07T10:47:32.000Z</time>
</trkpt>
<trkpt lat="46.1256010" lon="10.4905480">
	<ele>2586.60</ele>
	<time>2023-08-07T10:47:33.000Z</time>
</trkpt>
<trkpt lat="46.1256010" lon="10.4905460">
	<ele>2586.60</ele>
	<time>2023-08-07T10:47:34.000Z</time>
</trkpt>
<trkpt lat="46.1256010" lon="10.4905430">
	<ele>2586.80</ele>
	<time>2023-08-07T10:47:35.000Z</time>
</trkpt>
<trkpt lat="46.1256010" lon="10.4905400">
	<ele>2587.20</ele>
	<time>2023-08-07T10:47:36.000Z</time>
</trkpt>
<trkpt lat="46.1256020" lon="10.4905390">
	<ele>2587.40</ele>
	<time>2023-08-07T10:47:37.000Z</time>
</trkpt>
<trkpt lat="46.1256020" lon="10.4905370">
	<ele>2587.60</ele>
	<time>2023-08-07T10:47:38.000Z</time>
</trkpt>
<trkpt lat="46.1256020" lon="10.4905340">
	<ele>2587.80</ele>
	<time>2023-08-07T10:47:39.000Z</time>
</trkpt>
<trkpt lat="46.1256010" lon="10.4905280">
	<ele>2587.80</ele>
	<time>2023-08-07T10:47:40.000Z</time>
</trkpt>
<trkpt lat="46.1256000" lon="10.4905270">
	<ele>2588.00</ele>
	<time>2023-08-07T10:47:41.000Z</time>
</trkpt>
<trkpt lat="46.1256000" lon="10.4905260">
	<ele>2588.20</ele>
	<time>2023-08-07T10:47:42.000Z</time>
</trkpt>
<trkpt lat="46.1255990" lon="10.4905260">
	<ele>2588.40</ele>
	<time>2023-08-07T10:47:43.000Z</time>
</trkpt>
<trkpt lat="46.1255980" lon="10.4905230">
	<ele>2588.60</ele>
	<time>2023-08-07T10:47:44.000Z</time>
</trkpt>
<trkpt lat="46.1255980" lon="10.4905160">
	<ele>2588.80</ele>
	<time>2023-08-07T10:47:45.000Z</time>
</trkpt>
<trkpt lat="46.1255980" lon="10.4905120">
	<ele>2588.80</ele>
	<time>2023-08-07T10:47:46.000Z</time>
</trkpt>
<trkpt lat="46.1255980" lon="10.4905080">
	<ele>2588.80</ele>
	<time>2023-08-07T10:47:47.000Z</time>
</trkpt>
<trkpt lat="46.1255980" lon="10.4905030">
	<ele>2589.00</ele>
	<time>2023-08-07T10:47:48.000Z</time>
</trkpt>
<trkpt lat="46.1255980" lon="10.4904960">
	<ele>2589.00</ele>
	<time>2023-08-07T10:47:49.000Z</time>
</trkpt>
<trkpt lat="46.1255980" lon="10.4904880">
	<ele>2589.00</ele>
	<time>2023-08-07T10:47:50.000Z</time>
</trkpt>
<trkpt lat="46.1255980" lon="10.4904820">
	<ele>2589.20</ele>
	<time>2023-08-07T10:47:51.000Z</time>
</trkpt>
<trkpt lat="46.1255980" lon="10.4904790">
	<ele>2589.40</ele>
	<time>2023-08-07T10:47:52.000Z</time>
</trkpt>
<trkpt lat="46.1255980" lon="10.4904780">
	<ele>2589.60</ele>
	<time>2023-08-07T10:47:53.000Z</time>
</trkpt>
<trkpt lat="46.1255980" lon="10.4904750">
	<ele>2589.60</ele>
	<time>2023-08-07T10:47:54.000Z</time>
</trkpt>
<trkpt lat="46.1255980" lon="10.4904680">
	<ele>2589.60</ele>
	<time>2023-08-07T10:47:55.000Z</time>
</trkpt>
<trkpt lat="46.1255980" lon="10.4904610">
	<ele>2589.60</ele>
	<time>2023-08-07T10:47:56.000Z</time>
</trkpt>
<trkpt lat="46.1255990" lon="10.4904510">
	<ele>2589.80</ele>
	<time>2023-08-07T10:47:57.000Z</time>
</trkpt>
<trkpt lat="46.1256000" lon="10.4904450">
	<ele>2589.80</ele>
	<time>2023-08-07T10:47:58.000Z</time>
</trkpt>
<trkpt lat="46.1256000" lon="10.4904430">
	<ele>2590.00</ele>
	<time>2023-08-07T10:47:59.000Z</time>
</trkpt>
<trkpt lat="46.1256020" lon="10.4904330">
	<ele>2590.20</ele>
	<time>2023-08-07T10:48:00.000Z</time>
</trkpt>
<trkpt lat="46.1256020" lon="10.4904130">
	<ele>2590.40</ele>
	<time>2023-08-07T10:48:01.000Z</time>
</trkpt>
<trkpt lat="46.1256010" lon="10.4903980">
	<ele>2590.40</ele>
	<time>2023-08-07T10:48:02.000Z</time>
</trkpt>
<trkpt lat="46.1256030" lon="10.4903790">
	<ele>2590.40</ele>
	<time>2023-08-07T10:48:03.000Z</time>
</trkpt>
<trkpt lat="46.1256080" lon="10.4903600">
	<ele>2590.40</ele>
	<time>2023-08-07T10:48:04.000Z</time>
</trkpt>
<trkpt lat="46.1256150" lon="10.4903390">
	<ele>2590.40</ele>
	<time>2023-08-07T10:48:05.000Z</time>
</trkpt>
<trkpt lat="46.1256270" lon="10.4903060">
	<ele>2590.40</ele>
	<time>2023-08-07T10:48:06.000Z</time>
</trkpt>
<trkpt lat="46.1256350" lon="10.4902780">
	<ele>2590.20</ele>
	<time>2023-08-07T10:48:07.000Z</time>
</trkpt>
<trkpt lat="46.1256400" lon="10.4902590">
	<ele>2590.20</ele>
	<time>2023-08-07T10:48:08.000Z</time>
</trkpt>
<trkpt lat="46.1256440" lon="10.4902420">
	<ele>2590.20</ele>
	<time>2023-08-07T10:48:09.000Z</time>
</trkpt>
<trkpt lat="46.1256470" lon="10.4902370">
	<ele>2590.00</ele>
	<time>2023-08-07T10:48:10.000Z</time>
</trkpt>
<trkpt lat="46.1256500" lon="10.4902270">
	<ele>2590.00</ele>
	<time>2023-08-07T10:48:11.000Z</time>
</trkpt>
<trkpt lat="46.1256530" lon="10.4902150">
	<ele>2590.00</ele>
	<time>2023-08-07T10:48:12.000Z</time>
</trkpt>
<trkpt lat="46.1256550" lon="10.4902090">
	<ele>2590.00</ele>
	<time>2023-08-07T10:48:13.000Z</time>
</trkpt>
<trkpt lat="46.1256520" lon="10.4902060">
	<ele>2590.00</ele>
	<time>2023-08-07T10:48:14.000Z</time>
</trkpt>
<trkpt lat="46.1256490" lon="10.4902060">
	<ele>2590.00</ele>
	<time>2023-08-07T10:48:15.000Z</time>
</trkpt>
<trkpt lat="46.1256460" lon="10.4902020">
	<ele>2590.00</ele>
	<time>2023-08-07T10:48:16.000Z</time>
</trkpt>
<trkpt lat="46.1256470" lon="10.4901950">
	<ele>2590.00</ele>
	<time>2023-08-07T10:48:17.000Z</time>
</trkpt>
<trkpt lat="46.1256450" lon="10.4901860">
	<ele>2590.00</ele>
	<time>2023-08-07T10:48:18.000Z</time>
</trkpt>
<trkpt lat="46.1256490" lon="10.4901760">
	<ele>2590.00</ele>
	<time>2023-08-07T10:48:19.000Z</time>
</trkpt>
<trkpt lat="46.1256530" lon="10.4901670">
	<ele>2590.20</ele>
	<time>2023-08-07T10:48:20.000Z</time>
</trkpt>
<trkpt lat="46.1256570" lon="10.4901570">
	<ele>2590.20</ele>
	<time>2023-08-07T10:48:21.000Z</time>
</trkpt>
<trkpt lat="46.1256590" lon="10.4901550">
	<ele>2590.20</ele>
	<time>2023-08-07T10:48:22.000Z</time>
</trkpt>
<trkpt lat="46.1256630" lon="10.4901500">
	<ele>2590.40</ele>
	<time>2023-08-07T10:48:23.000Z</time>
</trkpt>
<trkpt lat="46.1256660" lon="10.4901440">
	<ele>2590.40</ele>
	<time>2023-08-07T10:48:24.000Z</time>
</trkpt>
<trkpt lat="46.1256690" lon="10.4901370">
	<ele>2590.60</ele>
	<time>2023-08-07T10:48:25.000Z</time>
</trkpt>
<trkpt lat="46.1256710" lon="10.4901320">
	<ele>2590.80</ele>
	<time>2023-08-07T10:48:26.000Z</time>
</trkpt>
<trkpt lat="46.1256740" lon="10.4901300">
	<ele>2590.80</ele>
	<time>2023-08-07T10:48:27.000Z</time>
</trkpt>
<trkpt lat="46.1256780" lon="10.4901270">
	<ele>2591.00</ele>
	<time>2023-08-07T10:48:28.000Z</time>
</trkpt>
<trkpt lat="46.1256800" lon="10.4901260">
	<ele>2591.00</ele>
	<time>2023-08-07T10:48:29.000Z</time>
</trkpt>
<trkpt lat="46.1256790" lon="10.4901230">
	<ele>2591.40</ele>
	<time>2023-08-07T10:48:30.000Z</time>
</trkpt>
<trkpt lat="46.1256770" lon="10.4901200">
	<ele>2591.40</ele>
	<time>2023-08-07T10:48:31.000Z</time>
</trkpt>
<trkpt lat="46.1256760" lon="10.4901160">
	<ele>2591.60</ele>
	<time>2023-08-07T10:48:32.000Z</time>
</trkpt>
<trkpt lat="46.1256760" lon="10.4901110">
	<ele>2591.60</ele>
	<time>2023-08-07T10:48:33.000Z</time>
</trkpt>
<trkpt lat="46.1256730" lon="10.4901020">
	<ele>2591.80</ele>
	<time>2023-08-07T10:48:34.000Z</time>
</trkpt>
<trkpt lat="46.1256710" lon="10.4900900">
	<ele>2591.80</ele>
	<time>2023-08-07T10:48:35.000Z</time>
</trkpt>
<trkpt lat="46.1256670" lon="10.4900810">
	<ele>2592.00</ele>
	<time>2023-08-07T10:48:36.000Z</time>
</trkpt>
<trkpt lat="46.1256670" lon="10.4900760">
	<ele>2592.00</ele>
	<time>2023-08-07T10:48:37.000Z</time>
</trkpt>
<trkpt lat="46.1256650" lon="10.4900660">
	<ele>2592.00</ele>
	<time>2023-08-07T10:48:38.000Z</time>
</trkpt>
<trkpt lat="46.1256640" lon="10.4900600">
	<ele>2592.20</ele>
	<time>2023-08-07T10:48:39.000Z</time>
</trkpt>
<trkpt lat="46.1256650" lon="10.4900560">
	<ele>2592.20</ele>
	<time>2023-08-07T10:48:40.000Z</time>
</trkpt>
<trkpt lat="46.1256650" lon="10.4900540">
	<ele>2592.20</ele>
	<time>2023-08-07T10:48:41.000Z</time>
</trkpt>
<trkpt lat="46.1256620" lon="10.4900530">
	<ele>2592.40</ele>
	<time>2023-08-07T10:48:42.000Z</time>
</trkpt>
<trkpt lat="46.1256600" lon="10.4900500">
	<ele>2592.60</ele>
	<time>2023-08-07T10:48:43.000Z</time>
</trkpt>
<trkpt lat="46.1256580" lon="10.4900470">
	<ele>2592.80</ele>
	<time>2023-08-07T10:48:44.000Z</time>
</trkpt>
<trkpt lat="46.1256570" lon="10.4900450">
	<ele>2592.80</ele>
	<time>2023-08-07T10:48:45.000Z</time>
</trkpt>
<trkpt lat="46.1256550" lon="10.4900400">
	<ele>2593.00</ele>
	<time>2023-08-07T10:48:46.000Z</time>
</trkpt>
<trkpt lat="46.1256530" lon="10.4900350">
	<ele>2593.00</ele>
	<time>2023-08-07T10:48:47.000Z</time>
</trkpt>
<trkpt lat="46.1256510" lon="10.4900310">
	<ele>2593.00</ele>
	<time>2023-08-07T10:48:48.000Z</time>
</trkpt>
<trkpt lat="46.1256500" lon="10.4900290">
	<ele>2593.20</ele>
	<time>2023-08-07T10:48:49.000Z</time>
</trkpt>
<trkpt lat="46.1256490" lon="10.4900240">
	<ele>2593.20</ele>
	<time>2023-08-07T10:48:50.000Z</time>
</trkpt>
<trkpt lat="46.1256500" lon="10.4900190">
	<ele>2593.20</ele>
	<time>2023-08-07T10:48:51.000Z</time>
</trkpt>
<trkpt lat="46.1256510" lon="10.4900140">
	<ele>2593.80</ele>
	<time>2023-08-07T10:48:52.000Z</time>
</trkpt>
<trkpt lat="46.1256490" lon="10.4900080">
	<ele>2594.00</ele>
	<time>2023-08-07T10:48:53.000Z</time>
</trkpt>
<trkpt lat="46.1256500" lon="10.4900050">
	<ele>2594.20</ele>
	<time>2023-08-07T10:48:54.000Z</time>
</trkpt>
<trkpt lat="46.1256500" lon="10.4900030">
	<ele>2594.20</ele>
	<time>2023-08-07T10:48:55.000Z</time>
</trkpt>
<trkpt lat="46.1256490" lon="10.4900030">
	<ele>2594.40</ele>
	<time>2023-08-07T10:48:56.000Z</time>
</trkpt>
<trkpt lat="46.1256470" lon="10.4900060">
	<ele>2594.40</ele>
	<time>2023-08-07T10:48:57.000Z</time>
</trkpt>
<trkpt lat="46.1256460" lon="10.4900000">
	<ele>2594.40</ele>
	<time>2023-08-07T10:48:58.000Z</time>
</trkpt>
<trkpt lat="46.1256440" lon="10.4899950">
	<ele>2594.60</ele>
	<time>2023-08-07T10:48:59.000Z</time>
</trkpt>
<trkpt lat="46.1256440" lon="10.4899900">
	<ele>2594.60</ele>
	<time>2023-08-07T10:49:00.000Z</time>
</trkpt>
<trkpt lat="46.1256420" lon="10.4899830">
	<ele>2594.60</ele>
	<time>2023-08-07T10:49:01.000Z</time>
</trkpt>
<trkpt lat="46.1256410" lon="10.4899770">
	<ele>2594.80</ele>
	<time>2023-08-07T10:49:02.000Z</time>
</trkpt>
<trkpt lat="46.1256440" lon="10.4899670">
	<ele>2595.00</ele>
	<time>2023-08-07T10:49:03.000Z</time>
</trkpt>
<trkpt lat="46.1256520" lon="10.4899530">
	<ele>2595.20</ele>
	<time>2023-08-07T10:49:04.000Z</time>
</trkpt>
<trkpt lat="46.1256600" lon="10.4899440">
	<ele>2595.20</ele>
	<time>2023-08-07T10:49:05.000Z</time>
</trkpt>
<trkpt lat="46.1256620" lon="10.4899360">
	<ele>2595.40</ele>
	<time>2023-08-07T10:49:06.000Z</time>
</trkpt>
<trkpt lat="46.1256580" lon="10.4899300">
	<ele>2595.60</ele>
	<time>2023-08-07T10:49:07.000Z</time>
</trkpt>
<trkpt lat="46.1256600" lon="10.4899260">
	<ele>2595.60</ele>
	<time>2023-08-07T10:49:08.000Z</time>
</trkpt>
<trkpt lat="46.1256640" lon="10.4899190">
	<ele>2595.80</ele>
	<time>2023-08-07T10:49:09.000Z</time>
</trkpt>
<trkpt lat="46.1256710" lon="10.4899120">
	<ele>2595.80</ele>
	<time>2023-08-07T10:49:10.000Z</time>
</trkpt>
<trkpt lat="46.1256780" lon="10.4899020">
	<ele>2596.00</ele>
	<time>2023-08-07T10:49:11.000Z</time>
</trkpt>
<trkpt lat="46.1256840" lon="10.4898900">
	<ele>2596.00</ele>
	<time>2023-08-07T10:49:12.000Z</time>
</trkpt>
<trkpt lat="46.1256930" lon="10.4898800">
	<ele>2596.20</ele>
	<time>2023-08-07T10:49:13.000Z</time>
</trkpt>
<trkpt lat="46.1257020" lon="10.4898720">
	<ele>2596.20</ele>
	<time>2023-08-07T10:49:14.000Z</time>
</trkpt>
<trkpt lat="46.1257090" lon="10.4898670">
	<ele>2596.40</ele>
	<time>2023-08-07T10:49:15.000Z</time>
</trkpt>
<trkpt lat="46.1257090" lon="10.4898690">
	<ele>2596.40</ele>
	<time>2023-08-07T10:49:16.000Z</time>
</trkpt>
<trkpt lat="46.1257120" lon="10.4898670">
	<ele>2596.60</ele>
	<time>2023-08-07T10:49:17.000Z</time>
</trkpt>
<trkpt lat="46.1257160" lon="10.4898640">
	<ele>2596.80</ele>
	<time>2023-08-07T10:49:18.000Z</time>
</trkpt>
<trkpt lat="46.1257170" lon="10.4898610">
	<ele>2597.00</ele>
	<time>2023-08-07T10:49:19.000Z</time>
</trkpt>
<trkpt lat="46.1257130" lon="10.4898600">
	<ele>2597.20</ele>
	<time>2023-08-07T10:49:20.000Z</time>
</trkpt>
<trkpt lat="46.1257120" lon="10.4898550">
	<ele>2597.40</ele>
	<time>2023-08-07T10:49:21.000Z</time>
</trkpt>
<trkpt lat="46.1257120" lon="10.4898500">
	<ele>2597.60</ele>
	<time>2023-08-07T10:49:22.000Z</time>
</trkpt>
<trkpt lat="46.1257110" lon="10.4898470">
	<ele>2598.00</ele>
	<time>2023-08-07T10:49:23.000Z</time>
</trkpt>
<trkpt lat="46.1257090" lon="10.4898440">
	<ele>2598.20</ele>
	<time>2023-08-07T10:49:24.000Z</time>
</trkpt>
<trkpt lat="46.1257080" lon="10.4898400">
	<ele>2598.40</ele>
	<time>2023-08-07T10:49:25.000Z</time>
</trkpt>
<trkpt lat="46.1257100" lon="10.4898320">
	<ele>2598.60</ele>
	<time>2023-08-07T10:49:26.000Z</time>
</trkpt>
<trkpt lat="46.1257100" lon="10.4898260">
	<ele>2598.60</ele>
	<time>2023-08-07T10:49:27.000Z</time>
</trkpt>
<trkpt lat="46.1257120" lon="10.4898180">
	<ele>2598.80</ele>
	<time>2023-08-07T10:49:28.000Z</time>
</trkpt>
<trkpt lat="46.1257130" lon="10.4898100">
	<ele>2598.80</ele>
	<time>2023-08-07T10:49:29.000Z</time>
</trkpt>
<trkpt lat="46.1257130" lon="10.4898090">
	<ele>2599.00</ele>
	<time>2023-08-07T10:49:30.000Z</time>
</trkpt>
<trkpt lat="46.1257190" lon="10.4898060">
	<ele>2599.00</ele>
	<time>2023-08-07T10:49:31.000Z</time>
</trkpt>
<trkpt lat="46.1257220" lon="10.4898010">
	<ele>2599.40</ele>
	<time>2023-08-07T10:49:32.000Z</time>
</trkpt>
<trkpt lat="46.1257240" lon="10.4897980">
	<ele>2599.60</ele>
	<time>2023-08-07T10:49:33.000Z</time>
</trkpt>
<trkpt lat="46.1257250" lon="10.4897970">
	<ele>2599.80</ele>
	<time>2023-08-07T10:49:34.000Z</time>
</trkpt>
<trkpt lat="46.1257270" lon="10.4897940">
	<ele>2600.00</ele>
	<time>2023-08-07T10:49:35.000Z</time>
</trkpt>
<trkpt lat="46.1257310" lon="10.4897880">
	<ele>2600.20</ele>
	<time>2023-08-07T10:49:36.000Z</time>
</trkpt>
<trkpt lat="46.1257350" lon="10.4897840">
	<ele>2600.20</ele>
	<time>2023-08-07T10:49:37.000Z</time>
</trkpt>
<trkpt lat="46.1257370" lon="10.4897800">
	<ele>2600.40</ele>
	<time>2023-08-07T10:49:38.000Z</time>
</trkpt>
<trkpt lat="46.1257370" lon="10.4897750">
	<ele>2600.60</ele>
	<time>2023-08-07T10:49:39.000Z</time>
</trkpt>
<trkpt lat="46.1257350" lon="10.4897710">
	<ele>2601.00</ele>
	<time>2023-08-07T10:49:40.000Z</time>
</trkpt>
<trkpt lat="46.1257350" lon="10.4897660">
	<ele>2601.20</ele>
	<time>2023-08-07T10:49:41.000Z</time>
</trkpt>
<trkpt lat="46.1257360" lon="10.4897630">
	<ele>2601.40</ele>
	<time>2023-08-07T10:49:42.000Z</time>
</trkpt>
<trkpt lat="46.1257430" lon="10.4897560">
	<ele>2601.60</ele>
	<time>2023-08-07T10:49:43.000Z</time>
</trkpt>
<trkpt lat="46.1257450" lon="10.4897520">
	<ele>2601.60</ele>
	<time>2023-08-07T10:49:44.000Z</time>
</trkpt>
<trkpt lat="46.1257440" lon="10.4897500">
	<ele>2601.80</ele>
	<time>2023-08-07T10:49:45.000Z</time>
</trkpt>
<trkpt lat="46.1257410" lon="10.4897490">
	<ele>2602.00</ele>
	<time>2023-08-07T10:49:46.000Z</time>
</trkpt>
<trkpt lat="46.1257390" lon="10.4897470">
	<ele>2602.00</ele>
	<time>2023-08-07T10:49:47.000Z</time>
</trkpt>
<trkpt lat="46.1257380" lon="10.4897430">
	<ele>2602.20</ele>
	<time>2023-08-07T10:49:48.000Z</time>
</trkpt>
<trkpt lat="46.1257380" lon="10.4897400">
	<ele>2602.20</ele>
	<time>2023-08-07T10:49:49.000Z</time>
</trkpt>
<trkpt lat="46.1257370" lon="10.4897390">
	<ele>2602.40</ele>
	<time>2023-08-07T10:49:50.000Z</time>
</trkpt>
<trkpt lat="46.1257360" lon="10.4897360">
	<ele>2602.40</ele>
	<time>2023-08-07T10:49:51.000Z</time>
</trkpt>
<trkpt lat="46.1257340" lon="10.4897310">
	<ele>2602.40</ele>
	<time>2023-08-07T10:49:52.000Z</time>
</trkpt>
<trkpt lat="46.1257310" lon="10.4897410">
	<ele>2602.40</ele>
	<time>2023-08-07T10:49:53.000Z</time>
</trkpt>
<trkpt lat="46.1257330" lon="10.4897410">
	<ele>2602.60</ele>
	<time>2023-08-07T10:49:54.000Z</time>
</trkpt>
<trkpt lat="46.1257320" lon="10.4897380">
	<ele>2602.60</ele>
	<time>2023-08-07T10:49:55.000Z</time>
</trkpt>
<trkpt lat="46.1257290" lon="10.4897350">
	<ele>2602.80</ele>
	<time>2023-08-07T10:49:56.000Z</time>
</trkpt>
<trkpt lat="46.1257260" lon="10.4897290">
	<ele>2602.80</ele>
	<time>2023-08-07T10:49:57.000Z</time>
</trkpt>
<trkpt lat="46.1257210" lon="10.4897280">
	<ele>2603.00</ele>
	<time>2023-08-07T10:49:58.000Z</time>
</trkpt>
<trkpt lat="46.1257200" lon="10.4897240">
	<ele>2603.20</ele>
	<time>2023-08-07T10:49:59.000Z</time>
</trkpt>
<trkpt lat="46.1257180" lon="10.4897210">
	<ele>2603.20</ele>
	<time>2023-08-07T10:50:00.000Z</time>
</trkpt>
<trkpt lat="46.1257170" lon="10.4897180">
	<ele>2603.40</ele>
	<time>2023-08-07T10:50:01.000Z</time>
</trkpt>
<trkpt lat="46.1257130" lon="10.4897140">
	<ele>2603.40</ele>
	<time>2023-08-07T10:50:02.000Z</time>
</trkpt>
<trkpt lat="46.1257000" lon="10.4897190">
	<ele>2603.20</ele>
	<time>2023-08-07T10:50:03.000Z</time>
</trkpt>
<trkpt lat="46.1256920" lon="10.4897170">
	<ele>2603.20</ele>
	<time>2023-08-07T10:50:04.000Z</time>
</trkpt>
<trkpt lat="46.1256850" lon="10.4897120">
	<ele>2603.20</ele>
	<time>2023-08-07T10:50:05.000Z</time>
</trkpt>
<trkpt lat="46.1256800" lon="10.4897030">
	<ele>2603.20</ele>
	<time>2023-08-07T10:50:06.000Z</time>
</trkpt>
<trkpt lat="46.1256760" lon="10.4896930">
	<ele>2603.20</ele>
	<time>2023-08-07T10:50:07.000Z</time>
</trkpt>
<trkpt lat="46.1256750" lon="10.4896830">
	<ele>2603.20</ele>
	<time>2023-08-07T10:50:08.000Z</time>
</trkpt>
<trkpt lat="46.1256760" lon="10.4896670">
	<ele>2603.20</ele>
	<time>2023-08-07T10:50:09.000Z</time>
</trkpt>
<trkpt lat="46.1256770" lon="10.4896590">
	<ele>2603.20</ele>
	<time>2023-08-07T10:50:10.000Z</time>
</trkpt>
<trkpt lat="46.1256750" lon="10.4896550">
	<ele>2603.20</ele>
	<time>2023-08-07T10:50:11.000Z</time>
</trkpt>
<trkpt lat="46.1256760" lon="10.4896440">
	<ele>2603.40</ele>
	<time>2023-08-07T10:50:12.000Z</time>
</trkpt>
<trkpt lat="46.1256800" lon="10.4896390">
	<ele>2603.40</ele>
	<time>2023-08-07T10:50:13.000Z</time>
</trkpt>
<trkpt lat="46.1256810" lon="10.4896360">
	<ele>2603.40</ele>
	<time>2023-08-07T10:50:14.000Z</time>
</trkpt>
<trkpt lat="46.1256820" lon="10.4896330">
	<ele>2603.60</ele>
	<time>2023-08-07T10:50:15.000Z</time>
</trkpt>
<trkpt lat="46.1256780" lon="10.4896340">
	<ele>2603.80</ele>
	<time>2023-08-07T10:50:16.000Z</time>
</trkpt>
<trkpt lat="46.1256760" lon="10.4896370">
	<ele>2603.80</ele>
	<time>2023-08-07T10:50:17.000Z</time>
</trkpt>
<trkpt lat="46.1256770" lon="10.4896380">
	<ele>2603.80</ele>
	<time>2023-08-07T10:50:18.000Z</time>
</trkpt>
<trkpt lat="46.1256800" lon="10.4896350">
	<ele>2603.80</ele>
	<time>2023-08-07T10:50:19.000Z</time>
</trkpt>
<trkpt lat="46.1256840" lon="10.4896330">
	<ele>2603.80</ele>
	<time>2023-08-07T10:50:20.000Z</time>
</trkpt>
<trkpt lat="46.1256860" lon="10.4896310">
	<ele>2603.80</ele>
	<time>2023-08-07T10:50:21.000Z</time>
</trkpt>
<trkpt lat="46.1256870" lon="10.4896280">
	<ele>2603.80</ele>
	<time>2023-08-07T10:50:22.000Z</time>
</trkpt>
<trkpt lat="46.1256880" lon="10.4896280">
	<ele>2603.80</ele>
	<time>2023-08-07T10:50:23.000Z</time>
</trkpt>
<trkpt lat="46.1256880" lon="10.4896280">
	<ele>2603.80</ele>
	<time>2023-08-07T10:50:24.000Z</time>
</trkpt>
<trkpt lat="46.1256880" lon="10.4896290">
	<ele>2603.80</ele>
	<time>2023-08-07T10:50:25.000Z</time>
</trkpt>
<trkpt lat="46.1256880" lon="10.4896270">
	<ele>2604.00</ele>
	<time>2023-08-07T10:50:26.000Z</time>
</trkpt>
<trkpt lat="46.1256880" lon="10.4896270">
	<ele>2604.00</ele>
	<time>2023-08-07T10:50:27.000Z</time>
</trkpt>
<trkpt lat="46.1256880" lon="10.4896270">
	<ele>2604.00</ele>
	<time>2023-08-07T10:50:28.000Z</time>
</trkpt>
<trkpt lat="46.1256880" lon="10.4896270">
	<ele>2604.00</ele>
	<time>2023-08-07T10:50:29.000Z</time>
</trkpt>
<trkpt lat="46.1256880" lon="10.4896270">
	<ele>2604.00</ele>
	<time>2023-08-07T10:50:30.000Z</time>
</trkpt>
<trkpt lat="46.1256880" lon="10.4896270">
	<ele>2604.00</ele>
	<time>2023-08-07T10:50:31.000Z</time>
</trkpt>
<trkpt lat="46.1256880" lon="10.4896270">
	<ele>2604.20</ele>
	<time>2023-08-07T10:50:32.000Z</time>
</trkpt>
<trkpt lat="46.1256880" lon="10.4896270">
	<ele>2604.20</ele>
	<time>2023-08-07T10:50:33.000Z</time>
</trkpt>
<trkpt lat="46.1256880" lon="10.4896280">
	<ele>2604.20</ele>
	<time>2023-08-07T10:50:34.000Z</time>
</trkpt>
<trkpt lat="46.1256880" lon="10.4896280">
	<ele>2604.20</ele>
	<time>2023-08-07T10:50:35.000Z</time>
</trkpt>
<trkpt lat="46.1256880" lon="10.4896280">
	<ele>2604.20</ele>
	<time>2023-08-07T10:50:36.000Z</time>
</trkpt>
<trkpt lat="46.1256880" lon="10.4896280">
	<ele>2604.40</ele>
	<time>2023-08-07T10:50:37.000Z</time>
</trkpt>
<trkpt lat="46.1256880" lon="10.4896290">
	<ele>2604.40</ele>
	<time>2023-08-07T10:50:38.000Z</time>
</trkpt>
<trkpt lat="46.1256880" lon="10.4896300">
	<ele>2604.40</ele>
	<time>2023-08-07T10:50:39.000Z</time>
</trkpt>
<trkpt lat="46.1256880" lon="10.4896310">
	<ele>2604.40</ele>
	<time>2023-08-07T10:50:40.000Z</time>
</trkpt>
<trkpt lat="46.1256880" lon="10.4896310">
	<ele>2604.60</ele>
	<time>2023-08-07T10:50:41.000Z</time>
</trkpt>
<trkpt lat="46.1256880" lon="10.4896310">
	<ele>2604.80</ele>
	<time>2023-08-07T10:50:42.000Z</time>
</trkpt>
<trkpt lat="46.1256880" lon="10.4896310">
	<ele>2605.00</ele>
	<time>2023-08-07T10:50:43.000Z</time>
</trkpt>
<trkpt lat="46.1256880" lon="10.4896320">
	<ele>2605.20</ele>
	<time>2023-08-07T10:50:44.000Z</time>
</trkpt>
<trkpt lat="46.1256880" lon="10.4896330">
	<ele>2605.20</ele>
	<time>2023-08-07T10:50:45.000Z</time>
</trkpt>
<trkpt lat="46.1256880" lon="10.4896350">
	<ele>2605.20</ele>
	<time>2023-08-07T10:50:46.000Z</time>
</trkpt>
<trkpt lat="46.1256880" lon="10.4896380">
	<ele>2605.20</ele>
	<time>2023-08-07T10:50:47.000Z</time>
</trkpt>
<trkpt lat="46.1256880" lon="10.4896410">
	<ele>2605.40</ele>
	<time>2023-08-07T10:50:48.000Z</time>
</trkpt>
<trkpt lat="46.1256880" lon="10.4896460">
	<ele>2605.40</ele>
	<time>2023-08-07T10:50:49.000Z</time>
</trkpt>
<trkpt lat="46.1256880" lon="10.4896480">
	<ele>2605.40</ele>
	<time>2023-08-07T10:50:50.000Z</time>
</trkpt>
<trkpt lat="46.1256880" lon="10.4896480">
	<ele>2605.40</ele>
	<time>2023-08-07T10:50:51.000Z</time>
</trkpt>
<trkpt lat="46.1256880" lon="10.4896480">
	<ele>2605.80</ele>
	<time>2023-08-07T10:50:52.000Z</time>
</trkpt>
<trkpt lat="46.1256880" lon="10.4896490">
	<ele>2605.80</ele>
	<time>2023-08-07T10:50:53.000Z</time>
</trkpt>
<trkpt lat="46.1256880" lon="10.4896490">
	<ele>2605.80</ele>
	<time>2023-08-07T10:50:54.000Z</time>
</trkpt>
<trkpt lat="46.1256880" lon="10.4896490">
	<ele>2606.00</ele>
	<time>2023-08-07T10:50:55.000Z</time>
</trkpt>
<trkpt lat="46.1256890" lon="10.4896490">
	<ele>2606.00</ele>
	<time>2023-08-07T10:50:56.000Z</time>
</trkpt>
<trkpt lat="46.1256890" lon="10.4896490">
	<ele>2606.20</ele>
	<time>2023-08-07T10:50:57.000Z</time>
</trkpt>
<trkpt lat="46.1256910" lon="10.4896490">
	<ele>2606.20</ele>
	<time>2023-08-07T10:50:58.000Z</time>
</trkpt>
<trkpt lat="46.1256910" lon="10.4896490">
	<ele>2606.20</ele>
	<time>2023-08-07T10:50:59.000Z</time>
</trkpt>
<trkpt lat="46.1256910" lon="10.4896490">
	<ele>2606.40</ele>
	<time>2023-08-07T10:51:00.000Z</time>
</trkpt>
<trkpt lat="46.1256910" lon="10.4896490">
	<ele>2606.80</ele>
	<time>2023-08-07T10:51:01.000Z</time>
</trkpt>
<trkpt lat="46.1256910" lon="10.4896490">
	<ele>2606.80</ele>
	<time>2023-08-07T10:51:02.000Z</time>
</trkpt>
<trkpt lat="46.1256910" lon="10.4896490">
	<ele>2607.00</ele>
	<time>2023-08-07T10:51:03.000Z</time>
</trkpt>
<trkpt lat="46.1256910" lon="10.4896490">
	<ele>2607.20</ele>
	<time>2023-08-07T10:51:04.000Z</time>
</trkpt>
<trkpt lat="46.1256910" lon="10.4896490">
	<ele>2607.60</ele>
	<time>2023-08-07T10:51:05.000Z</time>
</trkpt>
<trkpt lat="46.1256910" lon="10.4896480">
	<ele>2607.60</ele>
	<time>2023-08-07T10:51:06.000Z</time>
</trkpt>
<trkpt lat="46.1256910" lon="10.4896470">
	<ele>2607.80</ele>
	<time>2023-08-07T10:51:07.000Z</time>
</trkpt>
<trkpt lat="46.1256910" lon="10.4896450">
	<ele>2608.00</ele>
	<time>2023-08-07T10:51:08.000Z</time>
</trkpt>
<trkpt lat="46.1256910" lon="10.4896410">
	<ele>2608.20</ele>
	<time>2023-08-07T10:51:09.000Z</time>
</trkpt>
<trkpt lat="46.1256910" lon="10.4896340">
	<ele>2608.20</ele>
	<time>2023-08-07T10:51:10.000Z</time>
</trkpt>
<trkpt lat="46.1256910" lon="10.4896320">
	<ele>2608.60</ele>
	<time>2023-08-07T10:51:11.000Z</time>
</trkpt>
<trkpt lat="46.1256910" lon="10.4896300">
	<ele>2608.80</ele>
	<time>2023-08-07T10:51:12.000Z</time>
</trkpt>
<trkpt lat="46.1256910" lon="10.4896260">
	<ele>2608.80</ele>
	<time>2023-08-07T10:51:13.000Z</time>
</trkpt>
<trkpt lat="46.1256910" lon="10.4896210">
	<ele>2609.00</ele>
	<time>2023-08-07T10:51:14.000Z</time>
</trkpt>
<trkpt lat="46.1256910" lon="10.4896170">
	<ele>2609.20</ele>
	<time>2023-08-07T10:51:15.000Z</time>
</trkpt>
<trkpt lat="46.1256910" lon="10.4896120">
	<ele>2609.40</ele>
	<time>2023-08-07T10:51:16.000Z</time>
</trkpt>
<trkpt lat="46.1256910" lon="10.4896070">
	<ele>2609.60</ele>
	<time>2023-08-07T10:51:17.000Z</time>
</trkpt>
<trkpt lat="46.1256910" lon="10.4896030">
	<ele>2609.60</ele>
	<time>2023-08-07T10:51:18.000Z</time>
</trkpt>
<trkpt lat="46.1256910" lon="10.4895970">
	<ele>2609.80</ele>
	<time>2023-08-07T10:51:19.000Z</time>
</trkpt>
<trkpt lat="46.1256910" lon="10.4895930">
	<ele>2610.00</ele>
	<time>2023-08-07T10:51:20.000Z</time>
</trkpt>
<trkpt lat="46.1256910" lon="10.4895900">
	<ele>2610.40</ele>
	<time>2023-08-07T10:51:21.000Z</time>
</trkpt>
<trkpt lat="46.1256910" lon="10.4895880">
	<ele>2610.60</ele>
	<time>2023-08-07T10:51:22.000Z</time>
</trkpt>
<trkpt lat="46.1256910" lon="10.4895870">
	<ele>2610.80</ele>
	<time>2023-08-07T10:51:23.000Z</time>
</trkpt>
<trkpt lat="46.1256910" lon="10.4895860">
	<ele>2610.80</ele>
	<time>2023-08-07T10:51:24.000Z</time>
</trkpt>
<trkpt lat="46.1256910" lon="10.4895840">
	<ele>2610.60</ele>
	<time>2023-08-07T10:51:25.000Z</time>
</trkpt>
<trkpt lat="46.1256910" lon="10.4895830">
	<ele>2610.60</ele>
	<time>2023-08-07T10:51:26.000Z</time>
</trkpt>
<trkpt lat="46.1256930" lon="10.4895810">
	<ele>2610.40</ele>
	<time>2023-08-07T10:51:27.000Z</time>
</trkpt>
<trkpt lat="46.1256940" lon="10.4895790">
	<ele>2610.40</ele>
	<time>2023-08-07T10:51:28.000Z</time>
</trkpt>
<trkpt lat="46.1256950" lon="10.4895780">
	<ele>2610.20</ele>
	<time>2023-08-07T10:51:29.000Z</time>
</trkpt>
<trkpt lat="46.1256960" lon="10.4895770">
	<ele>2610.00</ele>
	<time>2023-08-07T10:51:30.000Z</time>
</trkpt>
<trkpt lat="46.1256980" lon="10.4895730">
	<ele>2609.80</ele>
	<time>2023-08-07T10:51:31.000Z</time>
</trkpt>
<trkpt lat="46.1256990" lon="10.4895710">
	<ele>2609.80</ele>
	<time>2023-08-07T10:51:32.000Z</time>
</trkpt>
<trkpt lat="46.1257010" lon="10.4895700">
	<ele>2610.40</ele>
	<time>2023-08-07T10:51:33.000Z</time>
</trkpt>
<trkpt lat="46.1257040" lon="10.4895690">
	<ele>2610.80</ele>
	<time>2023-08-07T10:51:34.000Z</time>
</trkpt>
<trkpt lat="46.1257060" lon="10.4895680">
	<ele>2611.00</ele>
	<time>2023-08-07T10:51:35.000Z</time>
</trkpt>
<trkpt lat="46.1257080" lon="10.4895600">
	<ele>2611.20</ele>
	<time>2023-08-07T10:51:36.000Z</time>
</trkpt>
<trkpt lat="46.1257100" lon="10.4895540">
	<ele>2611.40</ele>
	<time>2023-08-07T10:51:37.000Z</time>
</trkpt>
<trkpt lat="46.1257120" lon="10.4895510">
	<ele>2611.60</ele>
	<time>2023-08-07T10:51:38.000Z</time>
</trkpt>
<trkpt lat="46.1257150" lon="10.4895460">
	<ele>2611.80</ele>
	<time>2023-08-07T10:51:39.000Z</time>
</trkpt>
<trkpt lat="46.1257190" lon="10.4895440">
	<ele>2612.00</ele>
	<time>2023-08-07T10:51:40.000Z</time>
</trkpt>
<trkpt lat="46.1257240" lon="10.4895430">
	<ele>2612.00</ele>
	<time>2023-08-07T10:51:41.000Z</time>
</trkpt>
<trkpt lat="46.1257290" lon="10.4895410">
	<ele>2612.00</ele>
	<time>2023-08-07T10:51:42.000Z</time>
</trkpt>
<trkpt lat="46.1257330" lon="10.4895390">
	<ele>2612.40</ele>
	<time>2023-08-07T10:51:43.000Z</time>
</trkpt>
<trkpt lat="46.1257370" lon="10.4895360">
	<ele>2612.60</ele>
	<time>2023-08-07T10:51:44.000Z</time>
</trkpt>
<trkpt lat="46.1257410" lon="10.4895330">
	<ele>2612.60</ele>
	<time>2023-08-07T10:51:45.000Z</time>
</trkpt>
<trkpt lat="46.1257430" lon="10.4895300">
	<ele>2612.80</ele>
	<time>2023-08-07T10:51:46.000Z</time>
</trkpt>
<trkpt lat="46.1257470" lon="10.4895260">
	<ele>2612.80</ele>
	<time>2023-08-07T10:51:47.000Z</time>
</trkpt>
<trkpt lat="46.1257520" lon="10.4895210">
	<ele>2613.00</ele>
	<time>2023-08-07T10:51:48.000Z</time>
</trkpt>
<trkpt lat="46.1257580" lon="10.4895140">
	<ele>2613.20</ele>
	<time>2023-08-07T10:51:49.000Z</time>
</trkpt>
<trkpt lat="46.1257620" lon="10.4895100">
	<ele>2613.40</ele>
	<time>2023-08-07T10:51:50.000Z</time>
</trkpt>
<trkpt lat="46.1257650" lon="10.4895050">
	<ele>2613.60</ele>
	<time>2023-08-07T10:51:51.000Z</time>
</trkpt>
<trkpt lat="46.1257700" lon="10.4895000">
	<ele>2613.60</ele>
	<time>2023-08-07T10:51:52.000Z</time>
</trkpt>
<trkpt lat="46.1257750" lon="10.4894960">
	<ele>2613.80</ele>
	<time>2023-08-07T10:51:53.000Z</time>
</trkpt>
<trkpt lat="46.1257780" lon="10.4894930">
	<ele>2613.80</ele>
	<time>2023-08-07T10:51:54.000Z</time>
</trkpt>
<trkpt lat="46.1257830" lon="10.4894880">
	<ele>2613.80</ele>
	<time>2023-08-07T10:51:55.000Z</time>
</trkpt>
<trkpt lat="46.1257870" lon="10.4894840">
	<ele>2614.00</ele>
	<time>2023-08-07T10:51:56.000Z</time>
</trkpt>
<trkpt lat="46.1257910" lon="10.4894800">
	<ele>2614.00</ele>
	<time>2023-08-07T10:51:57.000Z</time>
</trkpt>
<trkpt lat="46.1257930" lon="10.4894790">
	<ele>2614.20</ele>
	<time>2023-08-07T10:51:58.000Z</time>
</trkpt>
<trkpt lat="46.1257950" lon="10.4894780">
	<ele>2614.20</ele>
	<time>2023-08-07T10:51:59.000Z</time>
</trkpt>
<trkpt lat="46.1257960" lon="10.4894770">
	<ele>2614.20</ele>
	<time>2023-08-07T10:52:00.000Z</time>
</trkpt>
<trkpt lat="46.1257950" lon="10.4894700">
	<ele>2614.20</ele>
	<time>2023-08-07T10:52:01.000Z</time>
</trkpt>
<trkpt lat="46.1257880" lon="10.4894560">
	<ele>2614.20</ele>
	<time>2023-08-07T10:52:02.000Z</time>
</trkpt>
<trkpt lat="46.1257860" lon="10.4894420">
	<ele>2614.00</ele>
	<time>2023-08-07T10:52:03.000Z</time>
</trkpt>
<trkpt lat="46.1257840" lon="10.4894280">
	<ele>2614.00</ele>
	<time>2023-08-07T10:52:04.000Z</time>
</trkpt>
<trkpt lat="46.1257820" lon="10.4894160">
	<ele>2614.00</ele>
	<time>2023-08-07T10:52:05.000Z</time>
</trkpt>
<trkpt lat="46.1257800" lon="10.4894030">
	<ele>2614.00</ele>
	<time>2023-08-07T10:52:06.000Z</time>
</trkpt>
<trkpt lat="46.1257780" lon="10.4893880">
	<ele>2613.80</ele>
	<time>2023-08-07T10:52:07.000Z</time>
</trkpt>
<trkpt lat="46.1257770" lon="10.4893720">
	<ele>2613.80</ele>
	<time>2023-08-07T10:52:08.000Z</time>
</trkpt>
<trkpt lat="46.1257780" lon="10.4893600">
	<ele>2613.80</ele>
	<time>2023-08-07T10:52:09.000Z</time>
</trkpt>
<trkpt lat="46.1257780" lon="10.4893500">
	<ele>2613.80</ele>
	<time>2023-08-07T10:52:10.000Z</time>
</trkpt>
<trkpt lat="46.1257800" lon="10.4893530">
	<ele>2613.80</ele>
	<time>2023-08-07T10:52:11.000Z</time>
</trkpt>
<trkpt lat="46.1257810" lon="10.4893560">
	<ele>2613.80</ele>
	<time>2023-08-07T10:52:12.000Z</time>
</trkpt>
<trkpt lat="46.1257810" lon="10.4893640">
	<ele>2613.80</ele>
	<time>2023-08-07T10:52:13.000Z</time>
</trkpt>
<trkpt lat="46.1257820" lon="10.4893720">
	<ele>2613.80</ele>
	<time>2023-08-07T10:52:14.000Z</time>
</trkpt>
<trkpt lat="46.1257780" lon="10.4893820">
	<ele>2613.60</ele>
	<time>2023-08-07T10:52:15.000Z</time>
</trkpt>
<trkpt lat="46.1257770" lon="10.4893920">
	<ele>2613.60</ele>
	<time>2023-08-07T10:52:16.000Z</time>
</trkpt>
<trkpt lat="46.1257740" lon="10.4893930">
	<ele>2613.60</ele>
	<time>2023-08-07T10:52:17.000Z</time>
</trkpt>
<trkpt lat="46.1257710" lon="10.4893980">
	<ele>2613.60</ele>
	<time>2023-08-07T10:52:18.000Z</time>
</trkpt>
<trkpt lat="46.1257690" lon="10.4893970">
	<ele>2613.80</ele>
	<time>2023-08-07T10:52:19.000Z</time>
</trkpt>
<trkpt lat="46.1257670" lon="10.4893940">
	<ele>2613.80</ele>
	<time>2023-08-07T10:52:20.000Z</time>
</trkpt>
<trkpt lat="46.1257640" lon="10.4893940">
	<ele>2614.00</ele>
	<time>2023-08-07T10:52:21.000Z</time>
</trkpt>
<trkpt lat="46.1257640" lon="10.4893920">
	<ele>2614.00</ele>
	<time>2023-08-07T10:52:22.000Z</time>
</trkpt>
<trkpt lat="46.1257600" lon="10.4893880">
	<ele>2614.00</ele>
	<time>2023-08-07T10:52:23.000Z</time>
</trkpt>
<trkpt lat="46.1257580" lon="10.4893810">
	<ele>2614.20</ele>
	<time>2023-08-07T10:52:24.000Z</time>
</trkpt>
<trkpt lat="46.1257580" lon="10.4893750">
	<ele>2614.20</ele>
	<time>2023-08-07T10:52:25.000Z</time>
</trkpt>
<trkpt lat="46.1257560" lon="10.4893740">
	<ele>2614.40</ele>
	<time>2023-08-07T10:52:26.000Z</time>
</trkpt>
<trkpt lat="46.1257530" lon="10.4893730">
	<ele>2614.40</ele>
	<time>2023-08-07T10:52:27.000Z</time>
</trkpt>
<trkpt lat="46.1257540" lon="10.4893650">
	<ele>2614.40</ele>
	<time>2023-08-07T10:52:28.000Z</time>
</trkpt>
<trkpt lat="46.1257550" lon="10.4893560">
	<ele>2614.60</ele>
	<time>2023-08-07T10:52:29.000Z</time>
</trkpt>
<trkpt lat="46.1257570" lon="10.4893490">
	<ele>2614.60</ele>
	<time>2023-08-07T10:52:30.000Z</time>
</trkpt>
<trkpt lat="46.1257590" lon="10.4893400">
	<ele>2614.60</ele>
	<time>2023-08-07T10:52:31.000Z</time>
</trkpt>
<trkpt lat="46.1257650" lon="10.4893330">
	<ele>2614.60</ele>
	<time>2023-08-07T10:52:32.000Z</time>
</trkpt>
<trkpt lat="46.1257730" lon="10.4893270">
	<ele>2614.60</ele>
	<time>2023-08-07T10:52:33.000Z</time>
</trkpt>
<trkpt lat="46.1257760" lon="10.4893180">
	<ele>2614.60</ele>
	<time>2023-08-07T10:52:34.000Z</time>
</trkpt>
<trkpt lat="46.1257780" lon="10.4893110">
	<ele>2614.60</ele>
	<time>2023-08-07T10:52:35.000Z</time>
</trkpt>
<trkpt lat="46.1257800" lon="10.4893010">
	<ele>2614.80</ele>
	<time>2023-08-07T10:52:36.000Z</time>
</trkpt>
<trkpt lat="46.1257850" lon="10.4892900">
	<ele>2614.80</ele>
	<time>2023-08-07T10:52:37.000Z</time>
</trkpt>
<trkpt lat="46.1257880" lon="10.4892840">
	<ele>2615.00</ele>
	<time>2023-08-07T10:52:38.000Z</time>
</trkpt>
<trkpt lat="46.1257910" lon="10.4892750">
	<ele>2615.40</ele>
	<time>2023-08-07T10:52:39.000Z</time>
</trkpt>
<trkpt lat="46.1257970" lon="10.4892650">
	<ele>2615.80</ele>
	<time>2023-08-07T10:52:40.000Z</time>
</trkpt>
<trkpt lat="46.1258000" lon="10.4892610">
	<ele>2615.80</ele>
	<time>2023-08-07T10:52:41.000Z</time>
</trkpt>
<trkpt lat="46.1258030" lon="10.4892570">
	<ele>2616.00</ele>
	<time>2023-08-07T10:52:42.000Z</time>
</trkpt>
<trkpt lat="46.1258050" lon="10.4892510">
	<ele>2616.20</ele>
	<time>2023-08-07T10:52:43.000Z</time>
</trkpt>
<trkpt lat="46.1258060" lon="10.4892460">
	<ele>2616.20</ele>
	<time>2023-08-07T10:52:44.000Z</time>
</trkpt>
<trkpt lat="46.1258070" lon="10.4892400">
	<ele>2616.20</ele>
	<time>2023-08-07T10:52:45.000Z</time>
</trkpt>
<trkpt lat="46.1258090" lon="10.4892320">
	<ele>2616.40</ele>
	<time>2023-08-07T10:52:46.000Z</time>
</trkpt>
<trkpt lat="46.1258050" lon="10.4892260">
	<ele>2616.20</ele>
	<time>2023-08-07T10:52:47.000Z</time>
</trkpt>
<trkpt lat="46.1258050" lon="10.4892190">
	<ele>2616.40</ele>
	<time>2023-08-07T10:52:48.000Z</time>
</trkpt>
<trkpt lat="46.1258100" lon="10.4892090">
	<ele>2616.40</ele>
	<time>2023-08-07T10:52:49.000Z</time>
</trkpt>
<trkpt lat="46.1258110" lon="10.4892030">
	<ele>2616.40</ele>
	<time>2023-08-07T10:52:50.000Z</time>
</trkpt>
<trkpt lat="46.1258130" lon="10.4891950">
	<ele>2616.40</ele>
	<time>2023-08-07T10:52:51.000Z</time>
</trkpt>
<trkpt lat="46.1258130" lon="10.4891910">
	<ele>2616.40</ele>
	<time>2023-08-07T10:52:52.000Z</time>
</trkpt>
<trkpt lat="46.1258160" lon="10.4891870">
	<ele>2616.40</ele>
	<time>2023-08-07T10:52:53.000Z</time>
</trkpt>
<trkpt lat="46.1258200" lon="10.4891790">
	<ele>2616.60</ele>
	<time>2023-08-07T10:52:54.000Z</time>
</trkpt>
<trkpt lat="46.1258220" lon="10.4891720">
	<ele>2616.60</ele>
	<time>2023-08-07T10:52:55.000Z</time>
</trkpt>
<trkpt lat="46.1258270" lon="10.4891660">
	<ele>2616.60</ele>
	<time>2023-08-07T10:52:56.000Z</time>
</trkpt>
<trkpt lat="46.1258310" lon="10.4891580">
	<ele>2616.80</ele>
	<time>2023-08-07T10:52:57.000Z</time>
</trkpt>
<trkpt lat="46.1258320" lon="10.4891510">
	<ele>2617.00</ele>
	<time>2023-08-07T10:52:58.000Z</time>
</trkpt>
<trkpt lat="46.1258320" lon="10.4891450">
	<ele>2617.20</ele>
	<time>2023-08-07T10:52:59.000Z</time>
</trkpt>
<trkpt lat="46.1258320" lon="10.4891420">
	<ele>2617.20</ele>
	<time>2023-08-07T10:53:00.000Z</time>
</trkpt>
<trkpt lat="46.1258300" lon="10.4891360">
	<ele>2617.20</ele>
	<time>2023-08-07T10:53:01.000Z</time>
</trkpt>
<trkpt lat="46.1258270" lon="10.4891310">
	<ele>2617.40</ele>
	<time>2023-08-07T10:53:02.000Z</time>
</trkpt>
<trkpt lat="46.1258260" lon="10.4891270">
	<ele>2617.40</ele>
	<time>2023-08-07T10:53:03.000Z</time>
</trkpt>
<trkpt lat="46.1258240" lon="10.4891250">
	<ele>2617.40</ele>
	<time>2023-08-07T10:53:04.000Z</time>
</trkpt>
<trkpt lat="46.1258230" lon="10.4891230">
	<ele>2617.40</ele>
	<time>2023-08-07T10:53:05.000Z</time>
</trkpt>
<trkpt lat="46.1258250" lon="10.4891180">
	<ele>2617.40</ele>
	<time>2023-08-07T10:53:06.000Z</time>
</trkpt>
<trkpt lat="46.1258280" lon="10.4891130">
	<ele>2617.60</ele>
	<time>2023-08-07T10:53:07.000Z</time>
</trkpt>
<trkpt lat="46.1258310" lon="10.4891050">
	<ele>2617.80</ele>
	<time>2023-08-07T10:53:08.000Z</time>
</trkpt>
<trkpt lat="46.1258370" lon="10.4891030">
	<ele>2617.80</ele>
	<time>2023-08-07T10:53:09.000Z</time>
</trkpt>
<trkpt lat="46.1258400" lon="10.4891000">
	<ele>2617.80</ele>
	<time>2023-08-07T10:53:10.000Z</time>
</trkpt>
<trkpt lat="46.1258400" lon="10.4890890">
	<ele>2617.80</ele>
	<time>2023-08-07T10:53:11.000Z</time>
</trkpt>
<trkpt lat="46.1258400" lon="10.4890840">
	<ele>2618.20</ele>
	<time>2023-08-07T10:53:12.000Z</time>
</trkpt>
<trkpt lat="46.1258460" lon="10.4890760">
	<ele>2618.40</ele>
	<time>2023-08-07T10:53:13.000Z</time>
</trkpt>
<trkpt lat="46.1258510" lon="10.4890740">
	<ele>2618.40</ele>
	<time>2023-08-07T10:53:14.000Z</time>
</trkpt>
<trkpt lat="46.1258550" lon="10.4890680">
	<ele>2618.60</ele>
	<time>2023-08-07T10:53:15.000Z</time>
</trkpt>
<trkpt lat="46.1258580" lon="10.4890640">
	<ele>2618.80</ele>
	<time>2023-08-07T10:53:16.000Z</time>
</trkpt>
<trkpt lat="46.1258610" lon="10.4890600">
	<ele>2618.80</ele>
	<time>2023-08-07T10:53:17.000Z</time>
</trkpt>
<trkpt lat="46.1258620" lon="10.4890570">
	<ele>2619.00</ele>
	<time>2023-08-07T10:53:18.000Z</time>
</trkpt>
<trkpt lat="46.1258630" lon="10.4890630">
	<ele>2619.00</ele>
	<time>2023-08-07T10:53:19.000Z</time>
</trkpt>
<trkpt lat="46.1258610" lon="10.4890600">
	<ele>2619.20</ele>
	<time>2023-08-07T10:53:20.000Z</time>
</trkpt>
<trkpt lat="46.1258640" lon="10.4890590">
	<ele>2619.40</ele>
	<time>2023-08-07T10:53:21.000Z</time>
</trkpt>
<trkpt lat="46.1258660" lon="10.4890570">
	<ele>2619.40</ele>
	<time>2023-08-07T10:53:22.000Z</time>
</trkpt>
<trkpt lat="46.1258690" lon="10.4890540">
	<ele>2619.60</ele>
	<time>2023-08-07T10:53:23.000Z</time>
</trkpt>
<trkpt lat="46.1258720" lon="10.4890530">
	<ele>2619.80</ele>
	<time>2023-08-07T10:53:24.000Z</time>
</trkpt>
<trkpt lat="46.1258740" lon="10.4890530">
	<ele>2620.00</ele>
	<time>2023-08-07T10:53:25.000Z</time>
</trkpt>
<trkpt lat="46.1258770" lon="10.4890520">
	<ele>2620.20</ele>
	<time>2023-08-07T10:53:26.000Z</time>
</trkpt>
<trkpt lat="46.1258800" lon="10.4890490">
	<ele>2620.20</ele>
	<time>2023-08-07T10:53:27.000Z</time>
</trkpt>
<trkpt lat="46.1258840" lon="10.4890470">
	<ele>2620.40</ele>
	<time>2023-08-07T10:53:28.000Z</time>
</trkpt>
<trkpt lat="46.1258860" lon="10.4890430">
	<ele>2620.20</ele>
	<time>2023-08-07T10:53:29.000Z</time>
</trkpt>
<trkpt lat="46.1258840" lon="10.4890430">
	<ele>2620.20</ele>
	<time>2023-08-07T10:53:30.000Z</time>
</trkpt>
<trkpt lat="46.1258850" lon="10.4890420">
	<ele>2620.20</ele>
	<time>2023-08-07T10:53:31.000Z</time>
</trkpt>
<trkpt lat="46.1258810" lon="10.4890410">
	<ele>2620.20</ele>
	<time>2023-08-07T10:53:32.000Z</time>
</trkpt>
<trkpt lat="46.1258800" lon="10.4890400">
	<ele>2620.20</ele>
	<time>2023-08-07T10:53:33.000Z</time>
</trkpt>
<trkpt lat="46.1258800" lon="10.4890400">
	<ele>2620.20</ele>
	<time>2023-08-07T10:53:34.000Z</time>
</trkpt>
<trkpt lat="46.1258800" lon="10.4890400">
	<ele>2620.40</ele>
	<time>2023-08-07T10:53:35.000Z</time>
</trkpt>
<trkpt lat="46.1258800" lon="10.4890400">
	<ele>2620.40</ele>
	<time>2023-08-07T10:53:36.000Z</time>
</trkpt>
<trkpt lat="46.1258800" lon="10.4890400">
	<ele>2620.40</ele>
	<time>2023-08-07T10:53:37.000Z</time>
</trkpt>
<trkpt lat="46.1258800" lon="10.4890400">
	<ele>2620.60</ele>
	<time>2023-08-07T10:53:38.000Z</time>
</trkpt>
<trkpt lat="46.1258800" lon="10.4890400">
	<ele>2620.80</ele>
	<time>2023-08-07T10:53:39.000Z</time>
</trkpt>
<trkpt lat="46.1258800" lon="10.4890400">
	<ele>2620.80</ele>
	<time>2023-08-07T10:53:40.000Z</time>
</trkpt>
<trkpt lat="46.1258800" lon="10.4890400">
	<ele>2621.00</ele>
	<time>2023-08-07T10:53:41.000Z</time>
</trkpt>
<trkpt lat="46.1258800" lon="10.4890400">
	<ele>2621.00</ele>
	<time>2023-08-07T10:53:42.000Z</time>
</trkpt>
<trkpt lat="46.1258800" lon="10.4890400">
	<ele>2621.00</ele>
	<time>2023-08-07T10:53:43.000Z</time>
</trkpt>
<trkpt lat="46.1258810" lon="10.4890400">
	<ele>2621.00</ele>
	<time>2023-08-07T10:53:44.000Z</time>
</trkpt>
<trkpt lat="46.1258810" lon="10.4890400">
	<ele>2621.20</ele>
	<time>2023-08-07T10:53:45.000Z</time>
</trkpt>
<trkpt lat="46.1258810" lon="10.4890400">
	<ele>2621.20</ele>
	<time>2023-08-07T10:53:46.000Z</time>
</trkpt>
<trkpt lat="46.1258810" lon="10.4890400">
	<ele>2621.20</ele>
	<time>2023-08-07T10:53:47.000Z</time>
</trkpt>
<trkpt lat="46.1258810" lon="10.4890400">
	<ele>2621.20</ele>
	<time>2023-08-07T10:53:48.000Z</time>
</trkpt>
<trkpt lat="46.1258810" lon="10.4890360">
	<ele>2621.40</ele>
	<time>2023-08-07T10:53:49.000Z</time>
</trkpt>
<trkpt lat="46.1258810" lon="10.4890330">
	<ele>2621.40</ele>
	<time>2023-08-07T10:53:50.000Z</time>
</trkpt>
<trkpt lat="46.1258830" lon="10.4890310">
	<ele>2621.40</ele>
	<time>2023-08-07T10:53:51.000Z</time>
</trkpt>
<trkpt lat="46.1258830" lon="10.4890300">
	<ele>2621.60</ele>
	<time>2023-08-07T10:53:52.000Z</time>
</trkpt>
<trkpt lat="46.1258840" lon="10.4890270">
	<ele>2621.60</ele>
	<time>2023-08-07T10:53:53.000Z</time>
</trkpt>
<trkpt lat="46.1258840" lon="10.4890240">
	<ele>2621.80</ele>
	<time>2023-08-07T10:53:54.000Z</time>
</trkpt>
<trkpt lat="46.1258840" lon="10.4890220">
	<ele>2621.80</ele>
	<time>2023-08-07T10:53:55.000Z</time>
</trkpt>
<trkpt lat="46.1258840" lon="10.4890190">
	<ele>2622.00</ele>
	<time>2023-08-07T10:53:56.000Z</time>
</trkpt>
<trkpt lat="46.1258840" lon="10.4890180">
	<ele>2622.00</ele>
	<time>2023-08-07T10:53:57.000Z</time>
</trkpt>
<trkpt lat="46.1258820" lon="10.4890170">
	<ele>2622.00</ele>
	<time>2023-08-07T10:53:58.000Z</time>
</trkpt>
<trkpt lat="46.1258810" lon="10.4890160">
	<ele>2622.20</ele>
	<time>2023-08-07T10:53:59.000Z</time>
</trkpt>
<trkpt lat="46.1258810" lon="10.4890140">
	<ele>2622.20</ele>
	<time>2023-08-07T10:54:00.000Z</time>
</trkpt>
<trkpt lat="46.1258810" lon="10.4890130">
	<ele>2622.20</ele>
	<time>2023-08-07T10:54:01.000Z</time>
</trkpt>
<trkpt lat="46.1258810" lon="10.4890120">
	<ele>2622.20</ele>
	<time>2023-08-07T10:54:02.000Z</time>
</trkpt>
<trkpt lat="46.1258810" lon="10.4890080">
	<ele>2622.20</ele>
	<time>2023-08-07T10:54:03.000Z</time>
</trkpt>
<trkpt lat="46.1258810" lon="10.4890060">
	<ele>2622.40</ele>
	<time>2023-08-07T10:54:04.000Z</time>
</trkpt>
<trkpt lat="46.1258810" lon="10.4890050">
	<ele>2622.40</ele>
	<time>2023-08-07T10:54:05.000Z</time>
</trkpt>
<trkpt lat="46.1258810" lon="10.4890050">
	<ele>2622.40</ele>
	<time>2023-08-07T10:54:06.000Z</time>
</trkpt>
<trkpt lat="46.1258810" lon="10.4890040">
	<ele>2622.40</ele>
	<time>2023-08-07T10:54:07.000Z</time>
</trkpt>
<trkpt lat="46.1258810" lon="10.4890040">
	<ele>2622.40</ele>
	<time>2023-08-07T10:54:08.000Z</time>
</trkpt>
<trkpt lat="46.1258810" lon="10.4890030">
	<ele>2622.60</ele>
	<time>2023-08-07T10:54:09.000Z</time>
</trkpt>
<trkpt lat="46.1258810" lon="10.4890020">
	<ele>2622.60</ele>
	<time>2023-08-07T10:54:10.000Z</time>
</trkpt>
<trkpt lat="46.1258810" lon="10.4890000">
	<ele>2622.80</ele>
	<time>2023-08-07T10:54:11.000Z</time>
</trkpt>
<trkpt lat="46.1258810" lon="10.4889990">
	<ele>2622.80</ele>
	<time>2023-08-07T10:54:12.000Z</time>
</trkpt>
<trkpt lat="46.1258810" lon="10.4889980">
	<ele>2622.80</ele>
	<time>2023-08-07T10:54:13.000Z</time>
</trkpt>
<trkpt lat="46.1258810" lon="10.4889960">
	<ele>2622.80</ele>
	<time>2023-08-07T10:54:14.000Z</time>
</trkpt>
<trkpt lat="46.1258810" lon="10.4889950">
	<ele>2622.80</ele>
	<time>2023-08-07T10:54:15.000Z</time>
</trkpt>
<trkpt lat="46.1258820" lon="10.4889930">
	<ele>2623.00</ele>
	<time>2023-08-07T10:54:16.000Z</time>
</trkpt>
<trkpt lat="46.1258830" lon="10.4889920">
	<ele>2623.00</ele>
	<time>2023-08-07T10:54:17.000Z</time>
</trkpt>
<trkpt lat="46.1258830" lon="10.4889840">
	<ele>2623.00</ele>
	<time>2023-08-07T10:54:18.000Z</time>
</trkpt>
<trkpt lat="46.1258830" lon="10.4889800">
	<ele>2623.20</ele>
	<time>2023-08-07T10:54:19.000Z</time>
</trkpt>
<trkpt lat="46.1258830" lon="10.4889760">
	<ele>2623.20</ele>
	<time>2023-08-07T10:54:20.000Z</time>
</trkpt>
<trkpt lat="46.1258850" lon="10.4889690">
	<ele>2623.20</ele>
	<time>2023-08-07T10:54:21.000Z</time>
</trkpt>
<trkpt lat="46.1258870" lon="10.4889660">
	<ele>2623.20</ele>
	<time>2023-08-07T10:54:22.000Z</time>
</trkpt>
<trkpt lat="46.1258870" lon="10.4889640">
	<ele>2623.20</ele>
	<time>2023-08-07T10:54:23.000Z</time>
</trkpt>
<trkpt lat="46.1258870" lon="10.4889630">
	<ele>2623.20</ele>
	<time>2023-08-07T10:54:24.000Z</time>
</trkpt>
<trkpt lat="46.1258880" lon="10.4889620">
	<ele>2623.20</ele>
	<time>2023-08-07T10:54:25.000Z</time>
</trkpt>
<trkpt lat="46.1258880" lon="10.4889620">
	<ele>2623.20</ele>
	<time>2023-08-07T10:54:26.000Z</time>
</trkpt>
<trkpt lat="46.1258880" lon="10.4889610">
	<ele>2623.20</ele>
	<time>2023-08-07T10:54:27.000Z</time>
</trkpt>
<trkpt lat="46.1258900" lon="10.4889570">
	<ele>2623.20</ele>
	<time>2023-08-07T10:54:28.000Z</time>
</trkpt>
<trkpt lat="46.1258920" lon="10.4889560">
	<ele>2623.20</ele>
	<time>2023-08-07T10:54:29.000Z</time>
</trkpt>
<trkpt lat="46.1258930" lon="10.4889560">
	<ele>2623.40</ele>
	<time>2023-08-07T10:54:30.000Z</time>
</trkpt>
<trkpt lat="46.1258930" lon="10.4889550">
	<ele>2623.40</ele>
	<time>2023-08-07T10:54:31.000Z</time>
</trkpt>
<trkpt lat="46.1258940" lon="10.4889550">
	<ele>2623.40</ele>
	<time>2023-08-07T10:54:32.000Z</time>
</trkpt>
<trkpt lat="46.1258940" lon="10.4889550">
	<ele>2623.40</ele>
	<time>2023-08-07T10:54:33.000Z</time>
</trkpt>
<trkpt lat="46.1258940" lon="10.4889550">
	<ele>2623.40</ele>
	<time>2023-08-07T10:54:34.000Z</time>
</trkpt>
<trkpt lat="46.1258940" lon="10.4889540">
	<ele>2623.40</ele>
	<time>2023-08-07T10:54:35.000Z</time>
</trkpt>
<trkpt lat="46.1258940" lon="10.4889540">
	<ele>2623.40</ele>
	<time>2023-08-07T10:54:36.000Z</time>
</trkpt>
<trkpt lat="46.1258940" lon="10.4889540">
	<ele>2623.40</ele>
	<time>2023-08-07T10:54:37.000Z</time>
</trkpt>
<trkpt lat="46.1258940" lon="10.4889540">
	<ele>2623.40</ele>
	<time>2023-08-07T10:54:38.000Z</time>
</trkpt>
<trkpt lat="46.1258940" lon="10.4889540">
	<ele>2623.40</ele>
	<time>2023-08-07T10:54:39.000Z</time>
</trkpt>
<trkpt lat="46.1258940" lon="10.4889530">
	<ele>2623.40</ele>
	<time>2023-08-07T10:54:40.000Z</time>
</trkpt>
<trkpt lat="46.1258940" lon="10.4889530">
	<ele>2623.40</ele>
	<time>2023-08-07T10:54:41.000Z</time>
</trkpt>
<trkpt lat="46.1258940" lon="10.4889530">
	<ele>2623.00</ele>
	<time>2023-08-07T10:54:42.000Z</time>
</trkpt>
<trkpt lat="46.1258940" lon="10.4889520">
	<ele>2622.80</ele>
	<time>2023-08-07T10:54:43.000Z</time>
</trkpt>
<trkpt lat="46.1258940" lon="10.4889520">
	<ele>2622.80</ele>
	<time>2023-08-07T10:54:44.000Z</time>
</trkpt>
<trkpt lat="46.1258940" lon="10.4889520">
	<ele>2622.80</ele>
	<time>2023-08-07T10:54:45.000Z</time>
</trkpt>
<trkpt lat="46.1258940" lon="10.4889510">
	<ele>2622.80</ele>
	<time>2023-08-07T10:54:46.000Z</time>
</trkpt>
<trkpt lat="46.1258940" lon="10.4889500">
	<ele>2622.60</ele>
	<time>2023-08-07T10:54:47.000Z</time>
</trkpt>
<trkpt lat="46.1258950" lon="10.4889490">
	<ele>2622.60</ele>
	<time>2023-08-07T10:54:48.000Z</time>
</trkpt>
<trkpt lat="46.1258950" lon="10.4889480">
	<ele>2622.80</ele>
	<time>2023-08-07T10:54:49.000Z</time>
</trkpt>
<trkpt lat="46.1258950" lon="10.4889470">
	<ele>2622.80</ele>
	<time>2023-08-07T10:54:50.000Z</time>
</trkpt>
<trkpt lat="46.1258950" lon="10.4889460">
	<ele>2622.80</ele>
	<time>2023-08-07T10:54:51.000Z</time>
</trkpt>
<trkpt lat="46.1258960" lon="10.4889450">
	<ele>2623.40</ele>
	<time>2023-08-07T10:54:52.000Z</time>
</trkpt>
<trkpt lat="46.1258960" lon="10.4889440">
	<ele>2623.60</ele>
	<time>2023-08-07T10:54:53.000Z</time>
</trkpt>
<trkpt lat="46.1258960" lon="10.4889420">
	<ele>2623.80</ele>
	<time>2023-08-07T10:54:54.000Z</time>
</trkpt>
<trkpt lat="46.1258970" lon="10.4889420">
	<ele>2624.00</ele>
	<time>2023-08-07T10:54:55.000Z</time>
</trkpt>
<trkpt lat="46.1258970" lon="10.4889410">
	<ele>2624.20</ele>
	<time>2023-08-07T10:54:56.000Z</time>
</trkpt>
<trkpt lat="46.1258970" lon="10.4889410">
	<ele>2624.60</ele>
	<time>2023-08-07T10:54:57.000Z</time>
</trkpt>
<trkpt lat="46.1258980" lon="10.4889400">
	<ele>2625.00</ele>
	<time>2023-08-07T10:54:58.000Z</time>
</trkpt>
<trkpt lat="46.1258980" lon="10.4889360">
	<ele>2625.40</ele>
	<time>2023-08-07T10:54:59.000Z</time>
</trkpt>
<trkpt lat="46.1258990" lon="10.4889340">
	<ele>2625.40</ele>
	<time>2023-08-07T10:55:00.000Z</time>
</trkpt>
<trkpt lat="46.1259000" lon="10.4889320">
	<ele>2625.60</ele>
	<time>2023-08-07T10:55:01.000Z</time>
</trkpt>
<trkpt lat="46.1259010" lon="10.4889320">
	<ele>2626.60</ele>
	<time>2023-08-07T10:55:02.000Z</time>
</trkpt>
<trkpt lat="46.1259010" lon="10.4889310">
	<ele>2627.00</ele>
	<time>2023-08-07T10:55:03.000Z</time>
</trkpt>
<trkpt lat="46.1259020" lon="10.4889310">
	<ele>2627.40</ele>
	<time>2023-08-07T10:55:04.000Z</time>
</trkpt>
<trkpt lat="46.1259040" lon="10.4889310">
	<ele>2627.60</ele>
	<time>2023-08-07T10:55:05.000Z</time>
</trkpt>
<trkpt lat="46.1259070" lon="10.4889300">
	<ele>2627.60</ele>
	<time>2023-08-07T10:55:06.000Z</time>
</trkpt>
<trkpt lat="46.1259090" lon="10.4889300">
	<ele>2627.60</ele>
	<time>2023-08-07T10:55:07.000Z</time>
</trkpt>
<trkpt lat="46.1259110" lon="10.4889300">
	<ele>2627.40</ele>
	<time>2023-08-07T10:55:08.000Z</time>
</trkpt>
<trkpt lat="46.1259140" lon="10.4889300">
	<ele>2627.40</ele>
	<time>2023-08-07T10:55:09.000Z</time>
</trkpt>
<trkpt lat="46.1259170" lon="10.4889300">
	<ele>2627.40</ele>
	<time>2023-08-07T10:55:10.000Z</time>
</trkpt>
<trkpt lat="46.1259210" lon="10.4889300">
	<ele>2627.40</ele>
	<time>2023-08-07T10:55:11.000Z</time>
</trkpt>
<trkpt lat="46.1259240" lon="10.4889300">
	<ele>2627.40</ele>
	<time>2023-08-07T10:55:12.000Z</time>
</trkpt>
<trkpt lat="46.1259270" lon="10.4889290">
	<ele>2627.40</ele>
	<time>2023-08-07T10:55:13.000Z</time>
</trkpt>
<trkpt lat="46.1259300" lon="10.4889290">
	<ele>2627.40</ele>
	<time>2023-08-07T10:55:14.000Z</time>
</trkpt>
<trkpt lat="46.1259340" lon="10.4889290">
	<ele>2627.40</ele>
	<time>2023-08-07T10:55:15.000Z</time>
</trkpt>
<trkpt lat="46.1259380" lon="10.4889280">
	<ele>2627.60</ele>
	<time>2023-08-07T10:55:16.000Z</time>
</trkpt>
<trkpt lat="46.1259400" lon="10.4889280">
	<ele>2627.80</ele>
	<time>2023-08-07T10:55:17.000Z</time>
</trkpt>
<trkpt lat="46.1259410" lon="10.4889260">
	<ele>2628.00</ele>
	<time>2023-08-07T10:55:18.000Z</time>
</trkpt>
<trkpt lat="46.1259430" lon="10.4889250">
	<ele>2628.00</ele>
	<time>2023-08-07T10:55:19.000Z</time>
</trkpt>
<trkpt lat="46.1259440" lon="10.4889240">
	<ele>2628.20</ele>
	<time>2023-08-07T10:55:20.000Z</time>
</trkpt>
<trkpt lat="46.1259460" lon="10.4889230">
	<ele>2628.20</ele>
	<time>2023-08-07T10:55:21.000Z</time>
</trkpt>
<trkpt lat="46.1259490" lon="10.4889220">
	<ele>2628.40</ele>
	<time>2023-08-07T10:55:22.000Z</time>
</trkpt>
<trkpt lat="46.1259510" lon="10.4889220">
	<ele>2628.40</ele>
	<time>2023-08-07T10:55:23.000Z</time>
</trkpt>
<trkpt lat="46.1259530" lon="10.4889210">
	<ele>2628.60</ele>
	<time>2023-08-07T10:55:24.000Z</time>
</trkpt>
<trkpt lat="46.1259550" lon="10.4889210">
	<ele>2628.60</ele>
	<time>2023-08-07T10:55:25.000Z</time>
</trkpt>
<trkpt lat="46.1259550" lon="10.4889200">
	<ele>2628.80</ele>
	<time>2023-08-07T10:55:26.000Z</time>
</trkpt>
<trkpt lat="46.1259560" lon="10.4889200">
	<ele>2628.80</ele>
	<time>2023-08-07T10:55:27.000Z</time>
</trkpt>
<trkpt lat="46.1259560" lon="10.4889190">
	<ele>2628.80</ele>
	<time>2023-08-07T10:55:28.000Z</time>
</trkpt>
<trkpt lat="46.1259560" lon="10.4889170">
	<ele>2629.00</ele>
	<time>2023-08-07T10:55:29.000Z</time>
</trkpt>
<trkpt lat="46.1259570" lon="10.4889140">
	<ele>2629.00</ele>
	<time>2023-08-07T10:55:30.000Z</time>
</trkpt>
<trkpt lat="46.1259570" lon="10.4889110">
	<ele>2629.00</ele>
	<time>2023-08-07T10:55:31.000Z</time>
</trkpt>
<trkpt lat="46.1259570" lon="10.4889080">
	<ele>2628.80</ele>
	<time>2023-08-07T10:55:32.000Z</time>
</trkpt>
<trkpt lat="46.1259570" lon="10.4889030">
	<ele>2628.40</ele>
	<time>2023-08-07T10:55:33.000Z</time>
</trkpt>
<trkpt lat="46.1259570" lon="10.4888980">
	<ele>2628.20</ele>
	<time>2023-08-07T10:55:34.000Z</time>
</trkpt>
<trkpt lat="46.1259570" lon="10.4888940">
	<ele>2628.20</ele>
	<time>2023-08-07T10:55:35.000Z</time>
</trkpt>
<trkpt lat="46.1259570" lon="10.4888880">
	<ele>2628.20</ele>
	<time>2023-08-07T10:55:36.000Z</time>
</trkpt>
<trkpt lat="46.1259570" lon="10.4888810">
	<ele>2628.20</ele>
	<time>2023-08-07T10:55:37.000Z</time>
</trkpt>
<trkpt lat="46.1259570" lon="10.4888750">
	<ele>2628.00</ele>
	<time>2023-08-07T10:55:38.000Z</time>
</trkpt>
<trkpt lat="46.1259570" lon="10.4888700">
	<ele>2628.00</ele>
	<time>2023-08-07T10:55:39.000Z</time>
</trkpt>
<trkpt lat="46.1259570" lon="10.4888630">
	<ele>2627.80</ele>
	<time>2023-08-07T10:55:40.000Z</time>
</trkpt>
<trkpt lat="46.1259570" lon="10.4888560">
	<ele>2627.60</ele>
	<time>2023-08-07T10:55:41.000Z</time>
</trkpt>
<trkpt lat="46.1259560" lon="10.4888510">
	<ele>2627.60</ele>
	<time>2023-08-07T10:55:42.000Z</time>
</trkpt>
<trkpt lat="46.1259550" lon="10.4888460">
	<ele>2627.40</ele>
	<time>2023-08-07T10:55:43.000Z</time>
</trkpt>
<trkpt lat="46.1259520" lon="10.4888440">
	<ele>2627.40</ele>
	<time>2023-08-07T10:55:44.000Z</time>
</trkpt>
<trkpt lat="46.1259480" lon="10.4888400">
	<ele>2627.40</ele>
	<time>2023-08-07T10:55:45.000Z</time>
</trkpt>
<trkpt lat="46.1259450" lon="10.4888360">
	<ele>2627.40</ele>
	<time>2023-08-07T10:55:46.000Z</time>
</trkpt>
<trkpt lat="46.1259420" lon="10.4888320">
	<ele>2627.00</ele>
	<time>2023-08-07T10:55:47.000Z</time>
</trkpt>
<trkpt lat="46.1259380" lon="10.4888270">
	<ele>2626.80</ele>
	<time>2023-08-07T10:55:48.000Z</time>
</trkpt>
<trkpt lat="46.1259350" lon="10.4888210">
	<ele>2626.80</ele>
	<time>2023-08-07T10:55:49.000Z</time>
</trkpt>
<trkpt lat="46.1259310" lon="10.4888140">
	<ele>2626.60</ele>
	<time>2023-08-07T10:55:50.000Z</time>
</trkpt>
<trkpt lat="46.1259270" lon="10.4888080">
	<ele>2626.60</ele>
	<time>2023-08-07T10:55:51.000Z</time>
</trkpt>
<trkpt lat="46.1259230" lon="10.4888030">
	<ele>2626.60</ele>
	<time>2023-08-07T10:55:52.000Z</time>
</trkpt>
<trkpt lat="46.1259190" lon="10.4887990">
	<ele>2627.00</ele>
	<time>2023-08-07T10:55:53.000Z</time>
</trkpt>
<trkpt lat="46.1259140" lon="10.4887950">
	<ele>2627.00</ele>
	<time>2023-08-07T10:55:54.000Z</time>
</trkpt>
<trkpt lat="46.1259110" lon="10.4887920">
	<ele>2627.20</ele>
	<time>2023-08-07T10:55:55.000Z</time>
</trkpt>
<trkpt lat="46.1259070" lon="10.4887880">
	<ele>2627.40</ele>
	<time>2023-08-07T10:55:56.000Z</time>
</trkpt>
<trkpt lat="46.1259030" lon="10.4887850">
	<ele>2627.60</ele>
	<time>2023-08-07T10:55:57.000Z</time>
</trkpt>
<trkpt lat="46.1259000" lon="10.4887820">
	<ele>2627.60</ele>
	<time>2023-08-07T10:55:58.000Z</time>
</trkpt>
<trkpt lat="46.1258970" lon="10.4887800">
	<ele>2627.60</ele>
	<time>2023-08-07T10:55:59.000Z</time>
</trkpt>
<trkpt lat="46.1258940" lon="10.4887780">
	<ele>2627.60</ele>
	<time>2023-08-07T10:56:00.000Z</time>
</trkpt>
<trkpt lat="46.1258920" lon="10.4887750">
	<ele>2627.60</ele>
	<time>2023-08-07T10:56:01.000Z</time>
</trkpt>
<trkpt lat="46.1258890" lon="10.4887720">
	<ele>2627.80</ele>
	<time>2023-08-07T10:56:02.000Z</time>
</trkpt>
<trkpt lat="46.1258860" lon="10.4887680">
	<ele>2628.00</ele>
	<time>2023-08-07T10:56:03.000Z</time>
</trkpt>
<trkpt lat="46.1258830" lon="10.4887640">
	<ele>2628.00</ele>
	<time>2023-08-07T10:56:04.000Z</time>
</trkpt>
<trkpt lat="46.1258810" lon="10.4887580">
	<ele>2628.20</ele>
	<time>2023-08-07T10:56:05.000Z</time>
</trkpt>
<trkpt lat="46.1258790" lon="10.4887530">
	<ele>2628.20</ele>
	<time>2023-08-07T10:56:06.000Z</time>
</trkpt>
<trkpt lat="46.1258780" lon="10.4887460">
	<ele>2628.40</ele>
	<time>2023-08-07T10:56:07.000Z</time>
</trkpt>
<trkpt lat="46.1258760" lon="10.4887390">
	<ele>2628.60</ele>
	<time>2023-08-07T10:56:08.000Z</time>
</trkpt>
<trkpt lat="46.1258750" lon="10.4887320">
	<ele>2629.00</ele>
	<time>2023-08-07T10:56:09.000Z</time>
</trkpt>
<trkpt lat="46.1258740" lon="10.4887260">
	<ele>2629.20</ele>
	<time>2023-08-07T10:56:10.000Z</time>
</trkpt>
<trkpt lat="46.1258730" lon="10.4887200">
	<ele>2629.40</ele>
	<time>2023-08-07T10:56:11.000Z</time>
</trkpt>
<trkpt lat="46.1258720" lon="10.4887150">
	<ele>2629.40</ele>
	<time>2023-08-07T10:56:12.000Z</time>
</trkpt>
<trkpt lat="46.1258720" lon="10.4887090">
	<ele>2629.60</ele>
	<time>2023-08-07T10:56:13.000Z</time>
</trkpt>
<trkpt lat="46.1258710" lon="10.4887020">
	<ele>2630.00</ele>
	<time>2023-08-07T10:56:14.000Z</time>
</trkpt>
<trkpt lat="46.1258710" lon="10.4886960">
	<ele>2630.00</ele>
	<time>2023-08-07T10:56:15.000Z</time>
</trkpt>
<trkpt lat="46.1258700" lon="10.4886890">
	<ele>2630.20</ele>
	<time>2023-08-07T10:56:16.000Z</time>
</trkpt>
<trkpt lat="46.1258700" lon="10.4886830">
	<ele>2630.20</ele>
	<time>2023-08-07T10:56:17.000Z</time>
</trkpt>
<trkpt lat="46.1258700" lon="10.4886770">
	<ele>2630.20</ele>
	<time>2023-08-07T10:56:18.000Z</time>
</trkpt>
<trkpt lat="46.1258700" lon="10.4886710">
	<ele>2630.20</ele>
	<time>2023-08-07T10:56:19.000Z</time>
</trkpt>
<trkpt lat="46.1258690" lon="10.4886660">
	<ele>2630.40</ele>
	<time>2023-08-07T10:56:20.000Z</time>
</trkpt>
<trkpt lat="46.1258690" lon="10.4886600">
	<ele>2630.40</ele>
	<time>2023-08-07T10:56:21.000Z</time>
</trkpt>
<trkpt lat="46.1258690" lon="10.4886530">
	<ele>2630.40</ele>
	<time>2023-08-07T10:56:22.000Z</time>
</trkpt>
<trkpt lat="46.1258690" lon="10.4886470">
	<ele>2630.60</ele>
	<time>2023-08-07T10:56:23.000Z</time>
</trkpt>
<trkpt lat="46.1258690" lon="10.4886410">
	<ele>2630.60</ele>
	<time>2023-08-07T10:56:24.000Z</time>
</trkpt>
<trkpt lat="46.1258680" lon="10.4886360">
	<ele>2630.80</ele>
	<time>2023-08-07T10:56:25.000Z</time>
</trkpt>
<trkpt lat="46.1258680" lon="10.4886300">
	<ele>2631.00</ele>
	<time>2023-08-07T10:56:26.000Z</time>
</trkpt>
<trkpt lat="46.1258670" lon="10.4886250">
	<ele>2631.00</ele>
	<time>2023-08-07T10:56:27.000Z</time>
</trkpt>
<trkpt lat="46.1258660" lon="10.4886200">
	<ele>2631.40</ele>
	<time>2023-08-07T10:56:28.000Z</time>
</trkpt>
<trkpt lat="46.1258640" lon="10.4886150">
	<ele>2631.80</ele>
	<time>2023-08-07T10:56:29.000Z</time>
</trkpt>
<trkpt lat="46.1258630" lon="10.4886110">
	<ele>2632.00</ele>
	<time>2023-08-07T10:56:30.000Z</time>
</trkpt>
<trkpt lat="46.1258620" lon="10.4886070">
	<ele>2632.20</ele>
	<time>2023-08-07T10:56:31.000Z</time>
</trkpt>
<trkpt lat="46.1258610" lon="10.4886030">
	<ele>2632.40</ele>
	<time>2023-08-07T10:56:32.000Z</time>
</trkpt>
<trkpt lat="46.1258600" lon="10.4885990">
	<ele>2632.60</ele>
	<time>2023-08-07T10:56:33.000Z</time>
</trkpt>
<trkpt lat="46.1258590" lon="10.4885960">
	<ele>2632.60</ele>
	<time>2023-08-07T10:56:34.000Z</time>
</trkpt>
<trkpt lat="46.1258580" lon="10.4885930">
	<ele>2632.60</ele>
	<time>2023-08-07T10:56:35.000Z</time>
</trkpt>
<trkpt lat="46.1258580" lon="10.4885890">
	<ele>2632.80</ele>
	<time>2023-08-07T10:56:36.000Z</time>
</trkpt>
<trkpt lat="46.1258570" lon="10.4885850">
	<ele>2633.00</ele>
	<time>2023-08-07T10:56:37.000Z</time>
</trkpt>
<trkpt lat="46.1258570" lon="10.4885810">
	<ele>2633.00</ele>
	<time>2023-08-07T10:56:38.000Z</time>
</trkpt>
<trkpt lat="46.1258570" lon="10.4885770">
	<ele>2633.00</ele>
	<time>2023-08-07T10:56:39.000Z</time>
</trkpt>
<trkpt lat="46.1258560" lon="10.4885720">
	<ele>2633.20</ele>
	<time>2023-08-07T10:56:40.000Z</time>
</trkpt>
<trkpt lat="46.1258560" lon="10.4885680">
	<ele>2633.40</ele>
	<time>2023-08-07T10:56:41.000Z</time>
</trkpt>
<trkpt lat="46.1258560" lon="10.4885650">
	<ele>2633.40</ele>
	<time>2023-08-07T10:56:42.000Z</time>
</trkpt>
<trkpt lat="46.1258560" lon="10.4885610">
	<ele>2633.60</ele>
	<time>2023-08-07T10:56:43.000Z</time>
</trkpt>
<trkpt lat="46.1258560" lon="10.4885580">
	<ele>2633.60</ele>
	<time>2023-08-07T10:56:44.000Z</time>
</trkpt>
<trkpt lat="46.1258560" lon="10.4885560">
	<ele>2633.60</ele>
	<time>2023-08-07T10:56:45.000Z</time>
</trkpt>
<trkpt lat="46.1258560" lon="10.4885530">
	<ele>2633.60</ele>
	<time>2023-08-07T10:56:46.000Z</time>
</trkpt>
<trkpt lat="46.1258560" lon="10.4885510">
	<ele>2633.80</ele>
	<time>2023-08-07T10:56:47.000Z</time>
</trkpt>
<trkpt lat="46.1258570" lon="10.4885500">
	<ele>2633.80</ele>
	<time>2023-08-07T10:56:48.000Z</time>
</trkpt>
<trkpt lat="46.1258570" lon="10.4885480">
	<ele>2633.80</ele>
	<time>2023-08-07T10:56:49.000Z</time>
</trkpt>
<trkpt lat="46.1258580" lon="10.4885470">
	<ele>2633.80</ele>
	<time>2023-08-07T10:56:50.000Z</time>
</trkpt>
<trkpt lat="46.1258580" lon="10.4885460">
	<ele>2633.80</ele>
	<time>2023-08-07T10:56:51.000Z</time>
</trkpt>
<trkpt lat="46.1258590" lon="10.4885450">
	<ele>2633.80</ele>
	<time>2023-08-07T10:56:52.000Z</time>
</trkpt>
<trkpt lat="46.1258590" lon="10.4885450">
	<ele>2634.00</ele>
	<time>2023-08-07T10:56:53.000Z</time>
</trkpt>
<trkpt lat="46.1258590" lon="10.4885440">
	<ele>2634.00</ele>
	<time>2023-08-07T10:56:54.000Z</time>
</trkpt>
<trkpt lat="46.1258590" lon="10.4885440">
	<ele>2634.00</ele>
	<time>2023-08-07T10:56:55.000Z</time>
</trkpt>
<trkpt lat="46.1258590" lon="10.4885440">
	<ele>2634.00</ele>
	<time>2023-08-07T10:56:56.000Z</time>
</trkpt>
<trkpt lat="46.1258590" lon="10.4885430">
	<ele>2634.00</ele>
	<time>2023-08-07T10:56:57.000Z</time>
</trkpt>
<trkpt lat="46.1258590" lon="10.4885430">
	<ele>2634.00</ele>
	<time>2023-08-07T10:56:58.000Z</time>
</trkpt>
<trkpt lat="46.1258590" lon="10.4885430">
	<ele>2634.00</ele>
	<time>2023-08-07T10:56:59.000Z</time>
</trkpt>
<trkpt lat="46.1258590" lon="10.4885430">
	<ele>2634.20</ele>
	<time>2023-08-07T10:57:00.000Z</time>
</trkpt>
<trkpt lat="46.1258590" lon="10.4885420">
	<ele>2634.20</ele>
	<time>2023-08-07T10:57:01.000Z</time>
</trkpt>
<trkpt lat="46.1258590" lon="10.4885420">
	<ele>2634.40</ele>
	<time>2023-08-07T10:57:02.000Z</time>
</trkpt>
<trkpt lat="46.1258590" lon="10.4885420">
	<ele>2634.40</ele>
	<time>2023-08-07T10:57:03.000Z</time>
</trkpt>
<trkpt lat="46.1258590" lon="10.4885410">
	<ele>2634.60</ele>
	<time>2023-08-07T10:57:04.000Z</time>
</trkpt>
<trkpt lat="46.1258590" lon="10.4885410">
	<ele>2634.60</ele>
	<time>2023-08-07T10:57:05.000Z</time>
</trkpt>
<trkpt lat="46.1258590" lon="10.4885410">
	<ele>2635.00</ele>
	<time>2023-08-07T10:57:06.000Z</time>
</trkpt>
<trkpt lat="46.1258590" lon="10.4885400">
	<ele>2635.20</ele>
	<time>2023-08-07T10:57:07.000Z</time>
</trkpt>
<trkpt lat="46.1258590" lon="10.4885400">
	<ele>2635.40</ele>
	<time>2023-08-07T10:57:08.000Z</time>
</trkpt>
<trkpt lat="46.1258590" lon="10.4885390">
	<ele>2635.60</ele>
	<time>2023-08-07T10:57:09.000Z</time>
</trkpt>
<trkpt lat="46.1258590" lon="10.4885390">
	<ele>2635.80</ele>
	<time>2023-08-07T10:57:10.000Z</time>
</trkpt>
<trkpt lat="46.1258590" lon="10.4885390">
	<ele>2635.80</ele>
	<time>2023-08-07T10:57:11.000Z</time>
</trkpt>
<trkpt lat="46.1258590" lon="10.4885380">
	<ele>2636.00</ele>
	<time>2023-08-07T10:57:12.000Z</time>
</trkpt>
<trkpt lat="46.1258590" lon="10.4885380">
	<ele>2636.20</ele>
	<time>2023-08-07T10:57:13.000Z</time>
</trkpt>
<trkpt lat="46.1258590" lon="10.4885370">
	<ele>2636.60</ele>
	<time>2023-08-07T10:57:14.000Z</time>
</trkpt>
<trkpt lat="46.1258590" lon="10.4885370">
	<ele>2636.60</ele>
	<time>2023-08-07T10:57:15.000Z</time>
</trkpt>
<trkpt lat="46.1258590" lon="10.4885370">
	<ele>2636.80</ele>
	<time>2023-08-07T10:57:16.000Z</time>
</trkpt>
<trkpt lat="46.1258600" lon="10.4885360">
	<ele>2637.00</ele>
	<time>2023-08-07T10:57:17.000Z</time>
</trkpt>
<trkpt lat="46.1258600" lon="10.4885360">
	<ele>2637.00</ele>
	<time>2023-08-07T10:57:18.000Z</time>
</trkpt>
<trkpt lat="46.1258600" lon="10.4885350">
	<ele>2637.00</ele>
	<time>2023-08-07T10:57:19.000Z</time>
</trkpt>
<trkpt lat="46.1258600" lon="10.4885350">
	<ele>2637.20</ele>
	<time>2023-08-07T10:57:20.000Z</time>
</trkpt>
<trkpt lat="46.1258600" lon="10.4885340">
	<ele>2637.20</ele>
	<time>2023-08-07T10:57:21.000Z</time>
</trkpt>
<trkpt lat="46.1258600" lon="10.4885340">
	<ele>2637.20</ele>
	<time>2023-08-07T10:57:22.000Z</time>
</trkpt>
<trkpt lat="46.1258600" lon="10.4885340">
	<ele>2637.40</ele>
	<time>2023-08-07T10:57:23.000Z</time>
</trkpt>
<trkpt lat="46.1258600" lon="10.4885330">
	<ele>2637.40</ele>
	<time>2023-08-07T10:57:24.000Z</time>
</trkpt>
<trkpt lat="46.1258600" lon="10.4885330">
	<ele>2637.60</ele>
	<time>2023-08-07T10:57:25.000Z</time>
</trkpt>
<trkpt lat="46.1258600" lon="10.4885320">
	<ele>2637.60</ele>
	<time>2023-08-07T10:57:26.000Z</time>
</trkpt>
<trkpt lat="46.1258600" lon="10.4885310">
	<ele>2637.80</ele>
	<time>2023-08-07T10:57:27.000Z</time>
</trkpt>
<trkpt lat="46.1258600" lon="10.4885310">
	<ele>2637.80</ele>
	<time>2023-08-07T10:57:28.000Z</time>
</trkpt>
<trkpt lat="46.1258600" lon="10.4885300">
	<ele>2638.00</ele>
	<time>2023-08-07T10:57:29.000Z</time>
</trkpt>
<trkpt lat="46.1258600" lon="10.4885300">
	<ele>2638.00</ele>
	<time>2023-08-07T10:57:30.000Z</time>
</trkpt>
<trkpt lat="46.1258600" lon="10.4885290">
	<ele>2638.20</ele>
	<time>2023-08-07T10:57:31.000Z</time>
</trkpt>
<trkpt lat="46.1258600" lon="10.4885290">
	<ele>2638.40</ele>
	<time>2023-08-07T10:57:32.000Z</time>
</trkpt>
<trkpt lat="46.1258600" lon="10.4885280">
	<ele>2638.40</ele>
	<time>2023-08-07T10:57:33.000Z</time>
</trkpt>
<trkpt lat="46.1258600" lon="10.4885270">
	<ele>2638.60</ele>
	<time>2023-08-07T10:57:34.000Z</time>
</trkpt>
<trkpt lat="46.1258600" lon="10.4885270">
	<ele>2638.80</ele>
	<time>2023-08-07T10:57:35.000Z</time>
</trkpt>
<trkpt lat="46.1258600" lon="10.4885260">
	<ele>2638.80</ele>
	<time>2023-08-07T10:57:36.000Z</time>
</trkpt>
<trkpt lat="46.1258600" lon="10.4885260">
	<ele>2639.00</ele>
	<time>2023-08-07T10:57:37.000Z</time>
</trkpt>
<trkpt lat="46.1258610" lon="10.4884880">
	<ele>2639.00</ele>
	<time>2023-08-07T10:57:38.000Z</time>
</trkpt>
<trkpt lat="46.1258640" lon="10.4884470">
	<ele>2639.00</ele>
	<time>2023-08-07T10:57:39.000Z</time>
</trkpt>
<trkpt lat="46.1258660" lon="10.4884080">
	<ele>2639.00</ele>
	<time>2023-08-07T10:57:40.000Z</time>
</trkpt>
<trkpt lat="46.1258710" lon="10.4883700">
	<ele>2639.00</ele>
	<time>2023-08-07T10:57:41.000Z</time>
</trkpt>
<trkpt lat="46.1258700" lon="10.4883270">
	<ele>2639.00</ele>
	<time>2023-08-07T10:57:42.000Z</time>
</trkpt>
<trkpt lat="46.1258670" lon="10.4882850">
	<ele>2639.00</ele>
	<time>2023-08-07T10:57:43.000Z</time>
</trkpt>
<trkpt lat="46.1258590" lon="10.4882470">
	<ele>2638.60</ele>
	<time>2023-08-07T10:57:44.000Z</time>
</trkpt>
<trkpt lat="46.1258550" lon="10.4882080">
	<ele>2638.60</ele>
	<time>2023-08-07T10:57:45.000Z</time>
</trkpt>
<trkpt lat="46.1258520" lon="10.4881690">
	<ele>2638.40</ele>
	<time>2023-08-07T10:57:46.000Z</time>
</trkpt>
<trkpt lat="46.1258520" lon="10.4881230">
	<ele>2638.40</ele>
	<time>2023-08-07T10:57:47.000Z</time>
</trkpt>
<trkpt lat="46.1258520" lon="10.4881140">
	<ele>2638.60</ele>
	<time>2023-08-07T10:57:48.000Z</time>
</trkpt>
<trkpt lat="46.1258500" lon="10.4881080">
	<ele>2638.80</ele>
	<time>2023-08-07T10:57:49.000Z</time>
</trkpt>
<trkpt lat="46.1258470" lon="10.4881030">
	<ele>2639.00</ele>
	<time>2023-08-07T10:57:50.000Z</time>
</trkpt>
<trkpt lat="46.1258420" lon="10.4881010">
	<ele>2639.00</ele>
	<time>2023-08-07T10:57:51.000Z</time>
</trkpt>
<trkpt lat="46.1258380" lon="10.4881020">
	<ele>2639.20</ele>
	<time>2023-08-07T10:57:52.000Z</time>
</trkpt>
<trkpt lat="46.1258340" lon="10.4881010">
	<ele>2639.20</ele>
	<time>2023-08-07T10:57:53.000Z</time>
</trkpt>
<trkpt lat="46.1258270" lon="10.4880980">
	<ele>2639.20</ele>
	<time>2023-08-07T10:57:54.000Z</time>
</trkpt>
<trkpt lat="46.1258200" lon="10.4880860">
	<ele>2639.20</ele>
	<time>2023-08-07T10:57:55.000Z</time>
</trkpt>
<trkpt lat="46.1258160" lon="10.4880740">
	<ele>2639.20</ele>
	<time>2023-08-07T10:57:56.000Z</time>
</trkpt>
<trkpt lat="46.1258120" lon="10.4880710">
	<ele>2639.40</ele>
	<time>2023-08-07T10:57:57.000Z</time>
</trkpt>
<trkpt lat="46.1258090" lon="10.4880650">
	<ele>2639.60</ele>
	<time>2023-08-07T10:57:58.000Z</time>
</trkpt>
<trkpt lat="46.1258080" lon="10.4880620">
	<ele>2639.60</ele>
	<time>2023-08-07T10:57:59.000Z</time>
</trkpt>
<trkpt lat="46.1258060" lon="10.4880510">
	<ele>2639.80</ele>
	<time>2023-08-07T10:58:00.000Z</time>
</trkpt>
<trkpt lat="46.1258020" lon="10.4880470">
	<ele>2639.80</ele>
	<time>2023-08-07T10:58:01.000Z</time>
</trkpt>
<trkpt lat="46.1258010" lon="10.4880350">
	<ele>2639.80</ele>
	<time>2023-08-07T10:58:02.000Z</time>
</trkpt>
<trkpt lat="46.1257980" lon="10.4880260">
	<ele>2639.80</ele>
	<time>2023-08-07T10:58:03.000Z</time>
</trkpt>
<trkpt lat="46.1257980" lon="10.4880210">
	<ele>2639.80</ele>
	<time>2023-08-07T10:58:04.000Z</time>
</trkpt>
<trkpt lat="46.1257980" lon="10.4880170">
	<ele>2640.00</ele>
	<time>2023-08-07T10:58:05.000Z</time>
</trkpt>
<trkpt lat="46.1257970" lon="10.4880120">
	<ele>2640.20</ele>
	<time>2023-08-07T10:58:06.000Z</time>
</trkpt>
<trkpt lat="46.1257990" lon="10.4880020">
	<ele>2640.40</ele>
	<time>2023-08-07T10:58:07.000Z</time>
</trkpt>
<trkpt lat="46.1258000" lon="10.4879980">
	<ele>2640.60</ele>
	<time>2023-08-07T10:58:08.000Z</time>
</trkpt>
<trkpt lat="46.1258000" lon="10.4879940">
	<ele>2641.00</ele>
	<time>2023-08-07T10:58:09.000Z</time>
</trkpt>
<trkpt lat="46.1258010" lon="10.4879930">
	<ele>2641.20</ele>
	<time>2023-08-07T10:58:10.000Z</time>
</trkpt>
<trkpt lat="46.1258010" lon="10.4879930">
	<ele>2641.20</ele>
	<time>2023-08-07T10:58:11.000Z</time>
</trkpt>
<trkpt lat="46.1258010" lon="10.4879890">
	<ele>2641.40</ele>
	<time>2023-08-07T10:58:12.000Z</time>
</trkpt>
<trkpt lat="46.1258000" lon="10.4879860">
	<ele>2641.40</ele>
	<time>2023-08-07T10:58:13.000Z</time>
</trkpt>
<trkpt lat="46.1258000" lon="10.4879820">
	<ele>2641.40</ele>
	<time>2023-08-07T10:58:14.000Z</time>
</trkpt>
<trkpt lat="46.1258010" lon="10.4879770">
	<ele>2641.60</ele>
	<time>2023-08-07T10:58:15.000Z</time>
</trkpt>
<trkpt lat="46.1258000" lon="10.4879780">
	<ele>2641.60</ele>
	<time>2023-08-07T10:58:16.000Z</time>
</trkpt>
<trkpt lat="46.1258010" lon="10.4879730">
	<ele>2641.80</ele>
	<time>2023-08-07T10:58:17.000Z</time>
</trkpt>
<trkpt lat="46.1258000" lon="10.4879710">
	<ele>2642.00</ele>
	<time>2023-08-07T10:58:18.000Z</time>
</trkpt>
<trkpt lat="46.1258020" lon="10.4879660">
	<ele>2642.20</ele>
	<time>2023-08-07T10:58:19.000Z</time>
</trkpt>
<trkpt lat="46.1258020" lon="10.4879610">
	<ele>2642.20</ele>
	<time>2023-08-07T10:58:20.000Z</time>
</trkpt>
<trkpt lat="46.1257990" lon="10.4879510">
	<ele>2642.40</ele>
	<time>2023-08-07T10:58:21.000Z</time>
</trkpt>
<trkpt lat="46.1257950" lon="10.4879480">
	<ele>2642.40</ele>
	<time>2023-08-07T10:58:22.000Z</time>
</trkpt>
<trkpt lat="46.1257930" lon="10.4879420">
	<ele>2642.40</ele>
	<time>2023-08-07T10:58:23.000Z</time>
</trkpt>
<trkpt lat="46.1257870" lon="10.4879430">
	<ele>2642.40</ele>
	<time>2023-08-07T10:58:24.000Z</time>
</trkpt>
<trkpt lat="46.1257790" lon="10.4879400">
	<ele>2642.60</ele>
	<time>2023-08-07T10:58:25.000Z</time>
</trkpt>
<trkpt lat="46.1257750" lon="10.4879350">
	<ele>2642.60</ele>
	<time>2023-08-07T10:58:26.000Z</time>
</trkpt>
<trkpt lat="46.1257750" lon="10.4879310">
	<ele>2642.80</ele>
	<time>2023-08-07T10:58:27.000Z</time>
</trkpt>
<trkpt lat="46.1257700" lon="10.4879240">
	<ele>2643.00</ele>
	<time>2023-08-07T10:58:28.000Z</time>
</trkpt>
<trkpt lat="46.1257650" lon="10.4879230">
	<ele>2643.00</ele>
	<time>2023-08-07T10:58:29.000Z</time>
</trkpt>
<trkpt lat="46.1257580" lon="10.4879190">
	<ele>2643.00</ele>
	<time>2023-08-07T10:58:30.000Z</time>
</trkpt>
<trkpt lat="46.1257560" lon="10.4879120">
	<ele>2643.20</ele>
	<time>2023-08-07T10:58:31.000Z</time>
</trkpt>
<trkpt lat="46.1257560" lon="10.4879050">
	<ele>2643.20</ele>
	<time>2023-08-07T10:58:32.000Z</time>
</trkpt>
<trkpt lat="46.1257580" lon="10.4878980">
	<ele>2643.40</ele>
	<time>2023-08-07T10:58:33.000Z</time>
</trkpt>
<trkpt lat="46.1257560" lon="10.4878960">
	<ele>2643.40</ele>
	<time>2023-08-07T10:58:34.000Z</time>
</trkpt>
<trkpt lat="46.1257550" lon="10.4878900">
	<ele>2643.40</ele>
	<time>2023-08-07T10:58:35.000Z</time>
</trkpt>
<trkpt lat="46.1257530" lon="10.4878850">
	<ele>2643.40</ele>
	<time>2023-08-07T10:58:36.000Z</time>
</trkpt>
<trkpt lat="46.1257490" lon="10.4878810">
	<ele>2643.60</ele>
	<time>2023-08-07T10:58:37.000Z</time>
</trkpt>
<trkpt lat="46.1257410" lon="10.4878790">
	<ele>2643.80</ele>
	<time>2023-08-07T10:58:38.000Z</time>
</trkpt>
<trkpt lat="46.1257370" lon="10.4878720">
	<ele>2643.80</ele>
	<time>2023-08-07T10:58:39.000Z</time>
</trkpt>
<trkpt lat="46.1257350" lon="10.4878610">
	<ele>2643.80</ele>
	<time>2023-08-07T10:58:40.000Z</time>
</trkpt>
<trkpt lat="46.1257320" lon="10.4878510">
	<ele>2643.80</ele>
	<time>2023-08-07T10:58:41.000Z</time>
</trkpt>
<trkpt lat="46.1257340" lon="10.4878410">
	<ele>2643.80</ele>
	<time>2023-08-07T10:58:42.000Z</time>
</trkpt>
<trkpt lat="46.1257360" lon="10.4878360">
	<ele>2644.00</ele>
	<time>2023-08-07T10:58:43.000Z</time>
</trkpt>
<trkpt lat="46.1257400" lon="10.4878280">
	<ele>2644.00</ele>
	<time>2023-08-07T10:58:44.000Z</time>
</trkpt>
<trkpt lat="46.1257430" lon="10.4878250">
	<ele>2644.20</ele>
	<time>2023-08-07T10:58:45.000Z</time>
</trkpt>
<trkpt lat="46.1257460" lon="10.4878210">
	<ele>2644.40</ele>
	<time>2023-08-07T10:58:46.000Z</time>
</trkpt>
<trkpt lat="46.1257470" lon="10.4878220">
	<ele>2644.60</ele>
	<time>2023-08-07T10:58:47.000Z</time>
</trkpt>
<trkpt lat="46.1257520" lon="10.4878190">
	<ele>2644.60</ele>
	<time>2023-08-07T10:58:48.000Z</time>
</trkpt>
<trkpt lat="46.1257570" lon="10.4878140">
	<ele>2644.80</ele>
	<time>2023-08-07T10:58:49.000Z</time>
</trkpt>
<trkpt lat="46.1257600" lon="10.4878090">
	<ele>2645.00</ele>
	<time>2023-08-07T10:58:50.000Z</time>
</trkpt>
<trkpt lat="46.1257610" lon="10.4878060">
	<ele>2645.00</ele>
	<time>2023-08-07T10:58:51.000Z</time>
</trkpt>
<trkpt lat="46.1257630" lon="10.4878020">
	<ele>2645.20</ele>
	<time>2023-08-07T10:58:52.000Z</time>
</trkpt>
<trkpt lat="46.1257660" lon="10.4877990">
	<ele>2645.20</ele>
	<time>2023-08-07T10:58:53.000Z</time>
</trkpt>
<trkpt lat="46.1257660" lon="10.4877940">
	<ele>2645.40</ele>
	<time>2023-08-07T10:58:54.000Z</time>
</trkpt>
<trkpt lat="46.1257670" lon="10.4877880">
	<ele>2645.60</ele>
	<time>2023-08-07T10:58:55.000Z</time>
</trkpt>
<trkpt lat="46.1257660" lon="10.4877850">
	<ele>2645.80</ele>
	<time>2023-08-07T10:58:56.000Z</time>
</trkpt>
<trkpt lat="46.1257640" lon="10.4877810">
	<ele>2646.00</ele>
	<time>2023-08-07T10:58:57.000Z</time>
</trkpt>
<trkpt lat="46.1257650" lon="10.4877750">
	<ele>2646.00</ele>
	<time>2023-08-07T10:58:58.000Z</time>
</trkpt>
<trkpt lat="46.1257650" lon="10.4877640">
	<ele>2646.20</ele>
	<time>2023-08-07T10:58:59.000Z</time>
</trkpt>
<trkpt lat="46.1257650" lon="10.4877560">
	<ele>2646.40</ele>
	<time>2023-08-07T10:59:00.000Z</time>
</trkpt>
<trkpt lat="46.1257650" lon="10.4877440">
	<ele>2646.40</ele>
	<time>2023-08-07T10:59:01.000Z</time>
</trkpt>
<trkpt lat="46.1257660" lon="10.4877350">
	<ele>2646.60</ele>
	<time>2023-08-07T10:59:02.000Z</time>
</trkpt>
<trkpt lat="46.1257660" lon="10.4877220">
	<ele>2646.60</ele>
	<time>2023-08-07T10:59:03.000Z</time>
</trkpt>
<trkpt lat="46.1257620" lon="10.4877150">
	<ele>2646.60</ele>
	<time>2023-08-07T10:59:04.000Z</time>
</trkpt>
<trkpt lat="46.1257580" lon="10.4877100">
	<ele>2646.60</ele>
	<time>2023-08-07T10:59:05.000Z</time>
</trkpt>
<trkpt lat="46.1257530" lon="10.4877050">
	<ele>2646.60</ele>
	<time>2023-08-07T10:59:06.000Z</time>
</trkpt>
<trkpt lat="46.1257480" lon="10.4876990">
	<ele>2646.60</ele>
	<time>2023-08-07T10:59:07.000Z</time>
</trkpt>
<trkpt lat="46.1257420" lon="10.4876950">
	<ele>2646.60</ele>
	<time>2023-08-07T10:59:08.000Z</time>
</trkpt>
<trkpt lat="46.1257350" lon="10.4876940">
	<ele>2646.60</ele>
	<time>2023-08-07T10:59:09.000Z</time>
</trkpt>
<trkpt lat="46.1257310" lon="10.4876910">
	<ele>2646.60</ele>
	<time>2023-08-07T10:59:10.000Z</time>
</trkpt>
<trkpt lat="46.1257280" lon="10.4876820">
	<ele>2646.60</ele>
	<time>2023-08-07T10:59:11.000Z</time>
</trkpt>
<trkpt lat="46.1257250" lon="10.4876750">
	<ele>2646.60</ele>
	<time>2023-08-07T10:59:12.000Z</time>
</trkpt>
<trkpt lat="46.1257210" lon="10.4876700">
	<ele>2646.60</ele>
	<time>2023-08-07T10:59:13.000Z</time>
</trkpt>
<trkpt lat="46.1257180" lon="10.4876590">
	<ele>2646.40</ele>
	<time>2023-08-07T10:59:14.000Z</time>
</trkpt>
<trkpt lat="46.1257120" lon="10.4876510">
	<ele>2646.40</ele>
	<time>2023-08-07T10:59:15.000Z</time>
</trkpt>
<trkpt lat="46.1257060" lon="10.4876460">
	<ele>2646.20</ele>
	<time>2023-08-07T10:59:16.000Z</time>
</trkpt>
<trkpt lat="46.1257020" lon="10.4876390">
	<ele>2646.00</ele>
	<time>2023-08-07T10:59:17.000Z</time>
</trkpt>
<trkpt lat="46.1256960" lon="10.4876320">
	<ele>2646.00</ele>
	<time>2023-08-07T10:59:18.000Z</time>
</trkpt>
<trkpt lat="46.1256920" lon="10.4876230">
	<ele>2645.80</ele>
	<time>2023-08-07T10:59:19.000Z</time>
</trkpt>
<trkpt lat="46.1256910" lon="10.4876130">
	<ele>2646.00</ele>
	<time>2023-08-07T10:59:20.000Z</time>
</trkpt>
<trkpt lat="46.1256920" lon="10.4876040">
	<ele>2646.00</ele>
	<time>2023-08-07T10:59:21.000Z</time>
</trkpt>
<trkpt lat="46.1256930" lon="10.4875960">
	<ele>2646.00</ele>
	<time>2023-08-07T10:59:22.000Z</time>
</trkpt>
<trkpt lat="46.1256920" lon="10.4875860">
	<ele>2646.20</ele>
	<time>2023-08-07T10:59:23.000Z</time>
</trkpt>
<trkpt lat="46.1256910" lon="10.4875760">
	<ele>2646.20</ele>
	<time>2023-08-07T10:59:24.000Z</time>
</trkpt>
<trkpt lat="46.1256890" lon="10.4875640">
	<ele>2646.20</ele>
	<time>2023-08-07T10:59:25.000Z</time>
</trkpt>
<trkpt lat="46.1256870" lon="10.4875570">
	<ele>2646.20</ele>
	<time>2023-08-07T10:59:26.000Z</time>
</trkpt>
<trkpt lat="46.1256850" lon="10.4875470">
	<ele>2646.20</ele>
	<time>2023-08-07T10:59:27.000Z</time>
</trkpt>
<trkpt lat="46.1256830" lon="10.4875370">
	<ele>2646.40</ele>
	<time>2023-08-07T10:59:28.000Z</time>
</trkpt>
<trkpt lat="46.1256780" lon="10.4875290">
	<ele>2646.60</ele>
	<time>2023-08-07T10:59:29.000Z</time>
</trkpt>
<trkpt lat="46.1256760" lon="10.4875240">
	<ele>2646.60</ele>
	<time>2023-08-07T10:59:30.000Z</time>
</trkpt>
<trkpt lat="46.1256730" lon="10.4875240">
	<ele>2646.60</ele>
	<time>2023-08-07T10:59:31.000Z</time>
</trkpt>
<trkpt lat="46.1256680" lon="10.4875200">
	<ele>2646.60</ele>
	<time>2023-08-07T10:59:32.000Z</time>
</trkpt>
<trkpt lat="46.1256640" lon="10.4875130">
	<ele>2646.60</ele>
	<time>2023-08-07T10:59:33.000Z</time>
</trkpt>
<trkpt lat="46.1256630" lon="10.4875040">
	<ele>2646.60</ele>
	<time>2023-08-07T10:59:34.000Z</time>
</trkpt>
<trkpt lat="46.1256620" lon="10.4874960">
	<ele>2646.60</ele>
	<time>2023-08-07T10:59:35.000Z</time>
</trkpt>
<trkpt lat="46.1256610" lon="10.4874900">
	<ele>2646.60</ele>
	<time>2023-08-07T10:59:36.000Z</time>
</trkpt>
<trkpt lat="46.1256590" lon="10.4874840">
	<ele>2646.60</ele>
	<time>2023-08-07T10:59:37.000Z</time>
</trkpt>
<trkpt lat="46.1256560" lon="10.4874790">
	<ele>2646.60</ele>
	<time>2023-08-07T10:59:38.000Z</time>
</trkpt>
<trkpt lat="46.1256560" lon="10.4874750">
	<ele>2646.60</ele>
	<time>2023-08-07T10:59:39.000Z</time>
</trkpt>
<trkpt lat="46.1256570" lon="10.4874720">
	<ele>2646.60</ele>
	<time>2023-08-07T10:59:40.000Z</time>
</trkpt>
<trkpt lat="46.1256560" lon="10.4874730">
	<ele>2646.60</ele>
	<time>2023-08-07T10:59:41.000Z</time>
</trkpt>
<trkpt lat="46.1256550" lon="10.4874760">
	<ele>2646.60</ele>
	<time>2023-08-07T10:59:42.000Z</time>
</trkpt>
<trkpt lat="46.1256560" lon="10.4874660">
	<ele>2646.60</ele>
	<time>2023-08-07T10:59:43.000Z</time>
</trkpt>
<trkpt lat="46.1256580" lon="10.4874480">
	<ele>2646.60</ele>
	<time>2023-08-07T10:59:44.000Z</time>
</trkpt>
<trkpt lat="46.1256560" lon="10.4874430">
	<ele>2646.80</ele>
	<time>2023-08-07T10:59:45.000Z</time>
</trkpt>
<trkpt lat="46.1256560" lon="10.4874370">
	<ele>2647.00</ele>
	<time>2023-08-07T10:59:46.000Z</time>
</trkpt>
<trkpt lat="46.1256570" lon="10.4874330">
	<ele>2647.20</ele>
	<time>2023-08-07T10:59:47.000Z</time>
</trkpt>
<trkpt lat="46.1256580" lon="10.4874280">
	<ele>2647.20</ele>
	<time>2023-08-07T10:59:48.000Z</time>
</trkpt>
<trkpt lat="46.1256570" lon="10.4874240">
	<ele>2647.40</ele>
	<time>2023-08-07T10:59:49.000Z</time>
</trkpt>
<trkpt lat="46.1256550" lon="10.4874220">
	<ele>2647.40</ele>
	<time>2023-08-07T10:59:50.000Z</time>
</trkpt>
<trkpt lat="46.1256560" lon="10.4874200">
	<ele>2647.60</ele>
	<time>2023-08-07T10:59:51.000Z</time>
</trkpt>
<trkpt lat="46.1256590" lon="10.4874180">
	<ele>2647.60</ele>
	<time>2023-08-07T10:59:52.000Z</time>
</trkpt>
<trkpt lat="46.1256590" lon="10.4874170">
	<ele>2648.00</ele>
	<time>2023-08-07T10:59:53.000Z</time>
</trkpt>
<trkpt lat="46.1256610" lon="10.4874140">
	<ele>2648.20</ele>
	<time>2023-08-07T10:59:54.000Z</time>
</trkpt>
<trkpt lat="46.1256630" lon="10.4874120">
	<ele>2648.40</ele>
	<time>2023-08-07T10:59:55.000Z</time>
</trkpt>
<trkpt lat="46.1256660" lon="10.4874120">
	<ele>2648.60</ele>
	<time>2023-08-07T10:59:56.000Z</time>
</trkpt>
<trkpt lat="46.1256670" lon="10.4874140">
	<ele>2648.60</ele>
	<time>2023-08-07T10:59:57.000Z</time>
</trkpt>
<trkpt lat="46.1256690" lon="10.4874150">
	<ele>2648.80</ele>
	<time>2023-08-07T10:59:58.000Z</time>
</trkpt>
<trkpt lat="46.1256670" lon="10.4874150">
	<ele>2648.80</ele>
	<time>2023-08-07T10:59:59.000Z</time>
</trkpt>
<trkpt lat="46.1256670" lon="10.4874150">
	<ele>2648.80</ele>
	<time>2023-08-07T11:00:00.000Z</time>
</trkpt>
<trkpt lat="46.1256670" lon="10.4874150">
	<ele>2648.80</ele>
	<time>2023-08-07T11:00:01.000Z</time>
</trkpt>
<trkpt lat="46.1256670" lon="10.4874150">
	<ele>2648.80</ele>
	<time>2023-08-07T11:00:02.000Z</time>
</trkpt>
<trkpt lat="46.1256670" lon="10.4874150">
	<ele>2648.80</ele>
	<time>2023-08-07T11:00:03.000Z</time>
</trkpt>
<trkpt lat="46.1256670" lon="10.4874150">
	<ele>2648.60</ele>
	<time>2023-08-07T11:00:04.000Z</time>
</trkpt>
<trkpt lat="46.1256670" lon="10.4874150">
	<ele>2648.60</ele>
	<time>2023-08-07T11:00:05.000Z</time>
</trkpt>
<trkpt lat="46.1256670" lon="10.4874150">
	<ele>2648.60</ele>
	<time>2023-08-07T11:00:06.000Z</time>
</trkpt>
<trkpt lat="46.1256670" lon="10.4874150">
	<ele>2648.60</ele>
	<time>2023-08-07T11:00:07.000Z</time>
</trkpt>
<trkpt lat="46.1256670" lon="10.4874150">
	<ele>2648.60</ele>
	<time>2023-08-07T11:00:08.000Z</time>
</trkpt>
<trkpt lat="46.1256670" lon="10.4874150">
	<ele>2648.60</ele>
	<time>2023-08-07T11:00:09.000Z</time>
</trkpt>
<trkpt lat="46.1256670" lon="10.4874150">
	<ele>2648.60</ele>
	<time>2023-08-07T11:00:10.000Z</time>
</trkpt>
<trkpt lat="46.1256670" lon="10.4874150">
	<ele>2648.60</ele>
	<time>2023-08-07T11:00:11.000Z</time>
</trkpt>
<trkpt lat="46.1256670" lon="10.4874150">
	<ele>2648.60</ele>
	<time>2023-08-07T11:00:12.000Z</time>
</trkpt>
<trkpt lat="46.1256670" lon="10.4874150">
	<ele>2648.60</ele>
	<time>2023-08-07T11:00:13.000Z</time>
</trkpt>
<trkpt lat="46.1256670" lon="10.4874150">
	<ele>2648.60</ele>
	<time>2023-08-07T11:00:14.000Z</time>
</trkpt>
<trkpt lat="46.1256660" lon="10.4874150">
	<ele>2648.60</ele>
	<time>2023-08-07T11:00:15.000Z</time>
</trkpt>
<trkpt lat="46.1256650" lon="10.4874150">
	<ele>2648.60</ele>
	<time>2023-08-07T11:00:16.000Z</time>
</trkpt>
<trkpt lat="46.1256650" lon="10.4874150">
	<ele>2648.60</ele>
	<time>2023-08-07T11:00:17.000Z</time>
</trkpt>
<trkpt lat="46.1256650" lon="10.4874140">
	<ele>2648.60</ele>
	<time>2023-08-07T11:00:18.000Z</time>
</trkpt>
<trkpt lat="46.1256640" lon="10.4874140">
	<ele>2648.60</ele>
	<time>2023-08-07T11:00:19.000Z</time>
</trkpt>
<trkpt lat="46.1256630" lon="10.4874140">
	<ele>2648.60</ele>
	<time>2023-08-07T11:00:20.000Z</time>
</trkpt>
<trkpt lat="46.1256630" lon="10.4874140">
	<ele>2648.60</ele>
	<time>2023-08-07T11:00:21.000Z</time>
</trkpt>
<trkpt lat="46.1256630" lon="10.4874140">
	<ele>2648.60</ele>
	<time>2023-08-07T11:00:22.000Z</time>
</trkpt>
<trkpt lat="46.1256630" lon="10.4874140">
	<ele>2648.80</ele>
	<time>2023-08-07T11:00:23.000Z</time>
</trkpt>
<trkpt lat="46.1256630" lon="10.4874130">
	<ele>2648.60</ele>
	<time>2023-08-07T11:00:24.000Z</time>
</trkpt>
<trkpt lat="46.1256620" lon="10.4874130">
	<ele>2648.60</ele>
	<time>2023-08-07T11:00:25.000Z</time>
</trkpt>
<trkpt lat="46.1256600" lon="10.4874130">
	<ele>2648.60</ele>
	<time>2023-08-07T11:00:26.000Z</time>
</trkpt>
<trkpt lat="46.1256580" lon="10.4874130">
	<ele>2648.40</ele>
	<time>2023-08-07T11:00:27.000Z</time>
</trkpt>
<trkpt lat="46.1256530" lon="10.4874120">
	<ele>2648.40</ele>
	<time>2023-08-07T11:00:28.000Z</time>
</trkpt>
<trkpt lat="46.1256480" lon="10.4874080">
	<ele>2648.40</ele>
	<time>2023-08-07T11:00:29.000Z</time>
</trkpt>
<trkpt lat="46.1256410" lon="10.4874000">
	<ele>2648.40</ele>
	<time>2023-08-07T11:00:30.000Z</time>
</trkpt>
<trkpt lat="46.1256290" lon="10.4873880">
	<ele>2648.40</ele>
	<time>2023-08-07T11:00:31.000Z</time>
</trkpt>
<trkpt lat="46.1256190" lon="10.4873830">
	<ele>2648.40</ele>
	<time>2023-08-07T11:00:32.000Z</time>
</trkpt>
<trkpt lat="46.1256100" lon="10.4873760">
	<ele>2648.60</ele>
	<time>2023-08-07T11:00:33.000Z</time>
</trkpt>
<trkpt lat="46.1255990" lon="10.4873640">
	<ele>2648.60</ele>
	<time>2023-08-07T11:00:34.000Z</time>
</trkpt>
<trkpt lat="46.1255890" lon="10.4873490">
	<ele>2648.80</ele>
	<time>2023-08-07T11:00:35.000Z</time>
</trkpt>
<trkpt lat="46.1255800" lon="10.4873330">
	<ele>2648.80</ele>
	<time>2023-08-07T11:00:36.000Z</time>
</trkpt>
<trkpt lat="46.1255710" lon="10.4873160">
	<ele>2649.00</ele>
	<time>2023-08-07T11:00:37.000Z</time>
</trkpt>
<trkpt lat="46.1255590" lon="10.4873030">
	<ele>2649.20</ele>
	<time>2023-08-07T11:00:38.000Z</time>
</trkpt>
<trkpt lat="46.1255470" lon="10.4872870">
	<ele>2649.20</ele>
	<time>2023-08-07T11:00:39.000Z</time>
</trkpt>
<trkpt lat="46.1255430" lon="10.4872800">
	<ele>2649.20</ele>
	<time>2023-08-07T11:00:40.000Z</time>
</trkpt>
<trkpt lat="46.1255410" lon="10.4872720">
	<ele>2649.20</ele>
	<time>2023-08-07T11:00:41.000Z</time>
</trkpt>
<trkpt lat="46.1255390" lon="10.4872680">
	<ele>2649.40</ele>
	<time>2023-08-07T11:00:42.000Z</time>
</trkpt>
<trkpt lat="46.1255350" lon="10.4872630">
	<ele>2649.40</ele>
	<time>2023-08-07T11:00:43.000Z</time>
</trkpt>
<trkpt lat="46.1255300" lon="10.4872590">
	<ele>2649.40</ele>
	<time>2023-08-07T11:00:44.000Z</time>
</trkpt>
<trkpt lat="46.1255220" lon="10.4872510">
	<ele>2649.60</ele>
	<time>2023-08-07T11:00:45.000Z</time>
</trkpt>
<trkpt lat="46.1255170" lon="10.4872460">
	<ele>2649.60</ele>
	<time>2023-08-07T11:00:46.000Z</time>
</trkpt>
<trkpt lat="46.1255140" lon="10.4872400">
	<ele>2649.60</ele>
	<time>2023-08-07T11:00:47.000Z</time>
</trkpt>
<trkpt lat="46.1255100" lon="10.4872370">
	<ele>2649.60</ele>
	<time>2023-08-07T11:00:48.000Z</time>
</trkpt>
<trkpt lat="46.1255080" lon="10.4872330">
	<ele>2649.60</ele>
	<time>2023-08-07T11:00:49.000Z</time>
</trkpt>
<trkpt lat="46.1255070" lon="10.4872250">
	<ele>2649.60</ele>
	<time>2023-08-07T11:00:50.000Z</time>
</trkpt>
<trkpt lat="46.1255030" lon="10.4872190">
	<ele>2649.60</ele>
	<time>2023-08-07T11:00:51.000Z</time>
</trkpt>
<trkpt lat="46.1255010" lon="10.4872110">
	<ele>2649.60</ele>
	<time>2023-08-07T11:00:52.000Z</time>
</trkpt>
<trkpt lat="46.1255020" lon="10.4872040">
	<ele>2649.60</ele>
	<time>2023-08-07T11:00:53.000Z</time>
</trkpt>
<trkpt lat="46.1255010" lon="10.4871980">
	<ele>2649.60</ele>
	<time>2023-08-07T11:00:54.000Z</time>
</trkpt>
<trkpt lat="46.1255000" lon="10.4871930">
	<ele>2649.80</ele>
	<time>2023-08-07T11:00:55.000Z</time>
</trkpt>
<trkpt lat="46.1254990" lon="10.4871870">
	<ele>2650.00</ele>
	<time>2023-08-07T11:00:56.000Z</time>
</trkpt>
<trkpt lat="46.1255000" lon="10.4871800">
	<ele>2650.00</ele>
	<time>2023-08-07T11:00:57.000Z</time>
</trkpt>
<trkpt lat="46.1255000" lon="10.4871740">
	<ele>2650.20</ele>
	<time>2023-08-07T11:00:58.000Z</time>
</trkpt>
<trkpt lat="46.1254990" lon="10.4871700">
	<ele>2650.40</ele>
	<time>2023-08-07T11:00:59.000Z</time>
</trkpt>
<trkpt lat="46.1254990" lon="10.4871600">
	<ele>2650.40</ele>
	<time>2023-08-07T11:01:00.000Z</time>
</trkpt>
<trkpt lat="46.1254990" lon="10.4871490">
	<ele>2650.40</ele>
	<time>2023-08-07T11:01:01.000Z</time>
</trkpt>
<trkpt lat="46.1254990" lon="10.4871420">
	<ele>2650.60</ele>
	<time>2023-08-07T11:01:02.000Z</time>
</trkpt>
<trkpt lat="46.1255000" lon="10.4871340">
	<ele>2650.60</ele>
	<time>2023-08-07T11:01:03.000Z</time>
</trkpt>
<trkpt lat="46.1254970" lon="10.4871280">
	<ele>2650.40</ele>
	<time>2023-08-07T11:01:04.000Z</time>
</trkpt>
<trkpt lat="46.1254940" lon="10.4871230">
	<ele>2650.40</ele>
	<time>2023-08-07T11:01:05.000Z</time>
</trkpt>
<trkpt lat="46.1254930" lon="10.4871150">
	<ele>2650.40</ele>
	<time>2023-08-07T11:01:06.000Z</time>
</trkpt>
<trkpt lat="46.1254910" lon="10.4871060">
	<ele>2650.40</ele>
	<time>2023-08-07T11:01:07.000Z</time>
</trkpt>
<trkpt lat="46.1254890" lon="10.4871040">
	<ele>2650.40</ele>
	<time>2023-08-07T11:01:08.000Z</time>
</trkpt>
<trkpt lat="46.1254840" lon="10.4871030">
	<ele>2650.40</ele>
	<time>2023-08-07T11:01:09.000Z</time>
</trkpt>
<trkpt lat="46.1254780" lon="10.4871020">
	<ele>2650.40</ele>
	<time>2023-08-07T11:01:10.000Z</time>
</trkpt>
<trkpt lat="46.1254740" lon="10.4870960">
	<ele>2650.40</ele>
	<time>2023-08-07T11:01:11.000Z</time>
</trkpt>
<trkpt lat="46.1254710" lon="10.4870860">
	<ele>2650.40</ele>
	<time>2023-08-07T11:01:12.000Z</time>
</trkpt>
<trkpt lat="46.1254650" lon="10.4870820">
	<ele>2650.20</ele>
	<time>2023-08-07T11:01:13.000Z</time>
</trkpt>
<trkpt lat="46.1254590" lon="10.4870800">
	<ele>2650.20</ele>
	<time>2023-08-07T11:01:14.000Z</time>
</trkpt>
<trkpt lat="46.1254580" lon="10.4870720">
	<ele>2650.00</ele>
	<time>2023-08-07T11:01:15.000Z</time>
</trkpt>
<trkpt lat="46.1254580" lon="10.4870620">
	<ele>2649.80</ele>
	<time>2023-08-07T11:01:16.000Z</time>
</trkpt>
<trkpt lat="46.1254550" lon="10.4870480">
	<ele>2649.80</ele>
	<time>2023-08-07T11:01:17.000Z</time>
</trkpt>
<trkpt lat="46.1254560" lon="10.4870410">
	<ele>2649.80</ele>
	<time>2023-08-07T11:01:18.000Z</time>
</trkpt>
<trkpt lat="46.1254560" lon="10.4870360">
	<ele>2650.00</ele>
	<time>2023-08-07T11:01:19.000Z</time>
</trkpt>
<trkpt lat="46.1254560" lon="10.4870320">
	<ele>2650.20</ele>
	<time>2023-08-07T11:01:20.000Z</time>
</trkpt>
<trkpt lat="46.1254570" lon="10.4870280">
	<ele>2650.20</ele>
	<time>2023-08-07T11:01:21.000Z</time>
</trkpt>
<trkpt lat="46.1254530" lon="10.4870230">
	<ele>2650.40</ele>
	<time>2023-08-07T11:01:22.000Z</time>
</trkpt>
<trkpt lat="46.1254500" lon="10.4870140">
	<ele>2650.40</ele>
	<time>2023-08-07T11:01:23.000Z</time>
</trkpt>
<trkpt lat="46.1254460" lon="10.4870060">
	<ele>2650.40</ele>
	<time>2023-08-07T11:01:24.000Z</time>
</trkpt>
<trkpt lat="46.1254440" lon="10.4870030">
	<ele>2650.40</ele>
	<time>2023-08-07T11:01:25.000Z</time>
</trkpt>
<trkpt lat="46.1254430" lon="10.4870030">
	<ele>2650.40</ele>
	<time>2023-08-07T11:01:26.000Z</time>
</trkpt>
<trkpt lat="46.1254420" lon="10.4870030">
	<ele>2650.20</ele>
	<time>2023-08-07T11:01:27.000Z</time>
</trkpt>
<trkpt lat="46.1254420" lon="10.4870020">
	<ele>2650.20</ele>
	<time>2023-08-07T11:01:28.000Z</time>
</trkpt>
<trkpt lat="46.1254420" lon="10.4870020">
	<ele>2650.20</ele>
	<time>2023-08-07T11:01:29.000Z</time>
</trkpt>
<trkpt lat="46.1254410" lon="10.4870040">
	<ele>2650.20</ele>
	<time>2023-08-07T11:01:30.000Z</time>
</trkpt>
<trkpt lat="46.1254400" lon="10.4870100">
	<ele>2650.20</ele>
	<time>2023-08-07T11:01:31.000Z</time>
</trkpt>
<trkpt lat="46.1254390" lon="10.4870130">
	<ele>2650.20</ele>
	<time>2023-08-07T11:01:32.000Z</time>
</trkpt>
<trkpt lat="46.1254370" lon="10.4870150">
	<ele>2650.20</ele>
	<time>2023-08-07T11:01:33.000Z</time>
</trkpt>
<trkpt lat="46.1254340" lon="10.4870170">
	<ele>2650.20</ele>
	<time>2023-08-07T11:01:34.000Z</time>
</trkpt>
<trkpt lat="46.1254310" lon="10.4870160">
	<ele>2650.20</ele>
	<time>2023-08-07T11:01:35.000Z</time>
</trkpt>
<trkpt lat="46.1254290" lon="10.4870130">
	<ele>2650.20</ele>
	<time>2023-08-07T11:01:36.000Z</time>
</trkpt>
<trkpt lat="46.1254270" lon="10.4870020">
	<ele>2650.20</ele>
	<time>2023-08-07T11:01:37.000Z</time>
</trkpt>
<trkpt lat="46.1254260" lon="10.4869950">
	<ele>2650.40</ele>
	<time>2023-08-07T11:01:38.000Z</time>
</trkpt>
<trkpt lat="46.1254270" lon="10.4869880">
	<ele>2650.40</ele>
	<time>2023-08-07T11:01:39.000Z</time>
</trkpt>
<trkpt lat="46.1254280" lon="10.4869850">
	<ele>2650.40</ele>
	<time>2023-08-07T11:01:40.000Z</time>
</trkpt>
<trkpt lat="46.1254300" lon="10.4869780">
	<ele>2650.40</ele>
	<time>2023-08-07T11:01:41.000Z</time>
</trkpt>
<trkpt lat="46.1254310" lon="10.4869720">
	<ele>2650.40</ele>
	<time>2023-08-07T11:01:42.000Z</time>
</trkpt>
<trkpt lat="46.1254320" lon="10.4869660">
	<ele>2650.40</ele>
	<time>2023-08-07T11:01:43.000Z</time>
</trkpt>
<trkpt lat="46.1254320" lon="10.4869610">
	<ele>2650.20</ele>
	<time>2023-08-07T11:01:44.000Z</time>
</trkpt>
<trkpt lat="46.1254350" lon="10.4869560">
	<ele>2650.20</ele>
	<time>2023-08-07T11:01:45.000Z</time>
</trkpt>
<trkpt lat="46.1254370" lon="10.4869530">
	<ele>2650.20</ele>
	<time>2023-08-07T11:01:46.000Z</time>
</trkpt>
<trkpt lat="46.1254380" lon="10.4869520">
	<ele>2650.00</ele>
	<time>2023-08-07T11:01:47.000Z</time>
</trkpt>
<trkpt lat="46.1254400" lon="10.4869440">
	<ele>2650.00</ele>
	<time>2023-08-07T11:01:48.000Z</time>
</trkpt>
<trkpt lat="46.1254380" lon="10.4869420">
	<ele>2649.80</ele>
	<time>2023-08-07T11:01:49.000Z</time>
</trkpt>
<trkpt lat="46.1254390" lon="10.4869400">
	<ele>2649.80</ele>
	<time>2023-08-07T11:01:50.000Z</time>
</trkpt>
<trkpt lat="46.1254380" lon="10.4869380">
	<ele>2649.80</ele>
	<time>2023-08-07T11:01:51.000Z</time>
</trkpt>
<trkpt lat="46.1254370" lon="10.4869350">
	<ele>2649.60</ele>
	<time>2023-08-07T11:01:52.000Z</time>
</trkpt>
<trkpt lat="46.1254350" lon="10.4869350">
	<ele>2649.40</ele>
	<time>2023-08-07T11:01:53.000Z</time>
</trkpt>
<trkpt lat="46.1254310" lon="10.4869330">
	<ele>2649.20</ele>
	<time>2023-08-07T11:01:54.000Z</time>
</trkpt>
<trkpt lat="46.1254260" lon="10.4869340">
	<ele>2649.20</ele>
	<time>2023-08-07T11:01:55.000Z</time>
</trkpt>
<trkpt lat="46.1254220" lon="10.4869310">
	<ele>2649.00</ele>
	<time>2023-08-07T11:01:56.000Z</time>
</trkpt>
<trkpt lat="46.1254200" lon="10.4869300">
	<ele>2649.00</ele>
	<time>2023-08-07T11:01:57.000Z</time>
</trkpt>
<trkpt lat="46.1254190" lon="10.4869270">
	<ele>2649.00</ele>
	<time>2023-08-07T11:01:58.000Z</time>
</trkpt>
<trkpt lat="46.1254200" lon="10.4869260">
	<ele>2649.00</ele>
	<time>2023-08-07T11:01:59.000Z</time>
</trkpt>
<trkpt lat="46.1254200" lon="10.4869220">
	<ele>2649.00</ele>
	<time>2023-08-07T11:02:00.000Z</time>
</trkpt>
<trkpt lat="46.1254160" lon="10.4869170">
	<ele>2649.00</ele>
	<time>2023-08-07T11:02:01.000Z</time>
</trkpt>
<trkpt lat="46.1254100" lon="10.4869160">
	<ele>2648.80</ele>
	<time>2023-08-07T11:02:02.000Z</time>
</trkpt>
<trkpt lat="46.1254060" lon="10.4869090">
	<ele>2648.60</ele>
	<time>2023-08-07T11:02:03.000Z</time>
</trkpt>
<trkpt lat="46.1254030" lon="10.4868990">
	<ele>2648.60</ele>
	<time>2023-08-07T11:02:04.000Z</time>
</trkpt>
<trkpt lat="46.1254010" lon="10.4868920">
	<ele>2648.40</ele>
	<time>2023-08-07T11:02:05.000Z</time>
</trkpt>
<trkpt lat="46.1254000" lon="10.4868860">
	<ele>2648.40</ele>
	<time>2023-08-07T11:02:06.000Z</time>
</trkpt>
<trkpt lat="46.1253990" lon="10.4868820">
	<ele>2648.40</ele>
	<time>2023-08-07T11:02:07.000Z</time>
</trkpt>
<trkpt lat="46.1253960" lon="10.4868810">
	<ele>2648.20</ele>
	<time>2023-08-07T11:02:08.000Z</time>
</trkpt>
<trkpt lat="46.1253910" lon="10.4868840">
	<ele>2648.20</ele>
	<time>2023-08-07T11:02:09.000Z</time>
</trkpt>
<trkpt lat="46.1253850" lon="10.4868800">
	<ele>2648.20</ele>
	<time>2023-08-07T11:02:10.000Z</time>
</trkpt>
<trkpt lat="46.1253810" lon="10.4868730">
	<ele>2648.00</ele>
	<time>2023-08-07T11:02:11.000Z</time>
</trkpt>
<trkpt lat="46.1253810" lon="10.4868650">
	<ele>2648.00</ele>
	<time>2023-08-07T11:02:12.000Z</time>
</trkpt>
<trkpt lat="46.1253800" lon="10.4868600">
	<ele>2647.80</ele>
	<time>2023-08-07T11:02:13.000Z</time>
</trkpt>
<trkpt lat="46.1253780" lon="10.4868540">
	<ele>2647.80</ele>
	<time>2023-08-07T11:02:14.000Z</time>
</trkpt>
<trkpt lat="46.1253730" lon="10.4868500">
	<ele>2647.60</ele>
	<time>2023-08-07T11:02:15.000Z</time>
</trkpt>
<trkpt lat="46.1253700" lon="10.4868450">
	<ele>2647.60</ele>
	<time>2023-08-07T11:02:16.000Z</time>
</trkpt>
<trkpt lat="46.1253680" lon="10.4868430">
	<ele>2647.60</ele>
	<time>2023-08-07T11:02:17.000Z</time>
</trkpt>
<trkpt lat="46.1253650" lon="10.4868430">
	<ele>2647.60</ele>
	<time>2023-08-07T11:02:18.000Z</time>
</trkpt>
<trkpt lat="46.1253590" lon="10.4868480">
	<ele>2647.60</ele>
	<time>2023-08-07T11:02:19.000Z</time>
</trkpt>
<trkpt lat="46.1253580" lon="10.4868430">
	<ele>2647.40</ele>
	<time>2023-08-07T11:02:20.000Z</time>
</trkpt>
<trkpt lat="46.1253530" lon="10.4868420">
	<ele>2647.60</ele>
	<time>2023-08-07T11:02:21.000Z</time>
</trkpt>
<trkpt lat="46.1253480" lon="10.4868450">
	<ele>2647.60</ele>
	<time>2023-08-07T11:02:22.000Z</time>
</trkpt>
<trkpt lat="46.1253480" lon="10.4868440">
	<ele>2647.60</ele>
	<time>2023-08-07T11:02:23.000Z</time>
</trkpt>
<trkpt lat="46.1253460" lon="10.4868440">
	<ele>2647.60</ele>
	<time>2023-08-07T11:02:24.000Z</time>
</trkpt>
<trkpt lat="46.1253460" lon="10.4868450">
	<ele>2647.80</ele>
	<time>2023-08-07T11:02:25.000Z</time>
</trkpt>
<trkpt lat="46.1253460" lon="10.4868450">
	<ele>2647.80</ele>
	<time>2023-08-07T11:02:26.000Z</time>
</trkpt>
<trkpt lat="46.1253460" lon="10.4868450">
	<ele>2647.60</ele>
	<time>2023-08-07T11:02:27.000Z</time>
</trkpt>
<trkpt lat="46.1253460" lon="10.4868450">
	<ele>2647.60</ele>
	<time>2023-08-07T11:02:28.000Z</time>
</trkpt>
<trkpt lat="46.1253460" lon="10.4868450">
	<ele>2647.40</ele>
	<time>2023-08-07T11:02:29.000Z</time>
</trkpt>
<trkpt lat="46.1253460" lon="10.4868450">
	<ele>2647.40</ele>
	<time>2023-08-07T11:02:30.000Z</time>
</trkpt>
<trkpt lat="46.1253460" lon="10.4868450">
	<ele>2647.40</ele>
	<time>2023-08-07T11:02:31.000Z</time>
</trkpt>
<trkpt lat="46.1253460" lon="10.4868450">
	<ele>2647.40</ele>
	<time>2023-08-07T11:02:32.000Z</time>
</trkpt>
<trkpt lat="46.1253460" lon="10.4868450">
	<ele>2647.40</ele>
	<time>2023-08-07T11:02:33.000Z</time>
</trkpt>
<trkpt lat="46.1253460" lon="10.4868450">
	<ele>2647.40</ele>
	<time>2023-08-07T11:02:34.000Z</time>
</trkpt>
<trkpt lat="46.1253460" lon="10.4868450">
	<ele>2647.60</ele>
	<time>2023-08-07T11:02:35.000Z</time>
</trkpt>
<trkpt lat="46.1253460" lon="10.4868450">
	<ele>2647.40</ele>
	<time>2023-08-07T11:02:36.000Z</time>
</trkpt>
<trkpt lat="46.1253460" lon="10.4868440">
	<ele>2647.40</ele>
	<time>2023-08-07T11:02:37.000Z</time>
</trkpt>
<trkpt lat="46.1253460" lon="10.4868440">
	<ele>2647.40</ele>
	<time>2023-08-07T11:02:38.000Z</time>
</trkpt>
<trkpt lat="46.1253460" lon="10.4868440">
	<ele>2647.40</ele>
	<time>2023-08-07T11:02:39.000Z</time>
</trkpt>
<trkpt lat="46.1253460" lon="10.4868430">
	<ele>2647.40</ele>
	<time>2023-08-07T11:02:40.000Z</time>
</trkpt>
<trkpt lat="46.1253460" lon="10.4868430">
	<ele>2647.40</ele>
	<time>2023-08-07T11:02:41.000Z</time>
</trkpt>
<trkpt lat="46.1253460" lon="10.4868430">
	<ele>2647.40</ele>
	<time>2023-08-07T11:02:42.000Z</time>
</trkpt>
<trkpt lat="46.1253440" lon="10.4868420">
	<ele>2647.40</ele>
	<time>2023-08-07T11:02:43.000Z</time>
</trkpt>
<trkpt lat="46.1253400" lon="10.4868420">
	<ele>2647.60</ele>
	<time>2023-08-07T11:02:44.000Z</time>
</trkpt>
<trkpt lat="46.1253350" lon="10.4868420">
	<ele>2647.60</ele>
	<time>2023-08-07T11:02:45.000Z</time>
</trkpt>
<trkpt lat="46.1253320" lon="10.4868410">
	<ele>2647.60</ele>
	<time>2023-08-07T11:02:46.000Z</time>
</trkpt>
<trkpt lat="46.1253300" lon="10.4868410">
	<ele>2647.60</ele>
	<time>2023-08-07T11:02:47.000Z</time>
</trkpt>
<trkpt lat="46.1253300" lon="10.4868400">
	<ele>2647.80</ele>
	<time>2023-08-07T11:02:48.000Z</time>
</trkpt>
<trkpt lat="46.1253290" lon="10.4868390">
	<ele>2647.80</ele>
	<time>2023-08-07T11:02:49.000Z</time>
</trkpt>
<trkpt lat="46.1253280" lon="10.4868390">
	<ele>2648.00</ele>
	<time>2023-08-07T11:02:50.000Z</time>
</trkpt>
<trkpt lat="46.1253280" lon="10.4868380">
	<ele>2648.00</ele>
	<time>2023-08-07T11:02:51.000Z</time>
</trkpt>
<trkpt lat="46.1253280" lon="10.4868360">
	<ele>2648.00</ele>
	<time>2023-08-07T11:02:52.000Z</time>
</trkpt>
<trkpt lat="46.1253270" lon="10.4868360">
	<ele>2648.00</ele>
	<time>2023-08-07T11:02:53.000Z</time>
</trkpt>
<trkpt lat="46.1253270" lon="10.4868350">
	<ele>2647.80</ele>
	<time>2023-08-07T11:02:54.000Z</time>
</trkpt>
<trkpt lat="46.1253270" lon="10.4868340">
	<ele>2648.00</ele>
	<time>2023-08-07T11:02:55.000Z</time>
</trkpt>
<trkpt lat="46.1253270" lon="10.4868340">
	<ele>2648.00</ele>
	<time>2023-08-07T11:02:56.000Z</time>
</trkpt>
<trkpt lat="46.1253270" lon="10.4868330">
	<ele>2648.00</ele>
	<time>2023-08-07T11:02:57.000Z</time>
</trkpt>
<trkpt lat="46.1253260" lon="10.4868330">
	<ele>2648.00</ele>
	<time>2023-08-07T11:02:58.000Z</time>
</trkpt>
<trkpt lat="46.1253260" lon="10.4868330">
	<ele>2648.00</ele>
	<time>2023-08-07T11:02:59.000Z</time>
</trkpt>
<trkpt lat="46.1253260" lon="10.4868330">
	<ele>2648.20</ele>
	<time>2023-08-07T11:03:00.000Z</time>
</trkpt>
<trkpt lat="46.1253250" lon="10.4868330">
	<ele>2648.20</ele>
	<time>2023-08-07T11:03:01.000Z</time>
</trkpt>
<trkpt lat="46.1253250" lon="10.4868330">
	<ele>2648.20</ele>
	<time>2023-08-07T11:03:02.000Z</time>
</trkpt>
<trkpt lat="46.1253250" lon="10.4868330">
	<ele>2648.20</ele>
	<time>2023-08-07T11:03:03.000Z</time>
</trkpt>
<trkpt lat="46.1253250" lon="10.4868330">
	<ele>2648.20</ele>
	<time>2023-08-07T11:03:04.000Z</time>
</trkpt>
<trkpt lat="46.1253250" lon="10.4868340">
	<ele>2648.20</ele>
	<time>2023-08-07T11:03:05.000Z</time>
</trkpt>
<trkpt lat="46.1253250" lon="10.4868340">
	<ele>2648.20</ele>
	<time>2023-08-07T11:03:06.000Z</time>
</trkpt>
<trkpt lat="46.1253250" lon="10.4868350">
	<ele>2648.20</ele>
	<time>2023-08-07T11:03:07.000Z</time>
</trkpt>
<trkpt lat="46.1253250" lon="10.4868350">
	<ele>2648.20</ele>
	<time>2023-08-07T11:03:08.000Z</time>
</trkpt>
<trkpt lat="46.1253250" lon="10.4868350">
	<ele>2648.20</ele>
	<time>2023-08-07T11:03:09.000Z</time>
</trkpt>
<trkpt lat="46.1253250" lon="10.4868350">
	<ele>2648.20</ele>
	<time>2023-08-07T11:03:10.000Z</time>
</trkpt>
<trkpt lat="46.1253250" lon="10.4868350">
	<ele>2648.20</ele>
	<time>2023-08-07T11:03:11.000Z</time>
</trkpt>
<trkpt lat="46.1253250" lon="10.4868350">
	<ele>2648.20</ele>
	<time>2023-08-07T11:03:12.000Z</time>
</trkpt>
<trkpt lat="46.1253250" lon="10.4868350">
	<ele>2648.20</ele>
	<time>2023-08-07T11:03:13.000Z</time>
</trkpt>
<trkpt lat="46.1253240" lon="10.4868350">
	<ele>2648.00</ele>
	<time>2023-08-07T11:03:14.000Z</time>
</trkpt>
<trkpt lat="46.1253240" lon="10.4868350">
	<ele>2648.00</ele>
	<time>2023-08-07T11:03:15.000Z</time>
</trkpt>
<trkpt lat="46.1253240" lon="10.4868350">
	<ele>2648.20</ele>
	<time>2023-08-07T11:03:16.000Z</time>
</trkpt>
<trkpt lat="46.1253240" lon="10.4868360">
	<ele>2648.00</ele>
	<time>2023-08-07T11:03:17.000Z</time>
</trkpt>
<trkpt lat="46.1253240" lon="10.4868360">
	<ele>2648.00</ele>
	<time>2023-08-07T11:03:18.000Z</time>
</trkpt>
<trkpt lat="46.1253240" lon="10.4868360">
	<ele>2648.00</ele>
	<time>2023-08-07T11:03:19.000Z</time>
</trkpt>
<trkpt lat="46.1253240" lon="10.4868360">
	<ele>2648.00</ele>
	<time>2023-08-07T11:03:20.000Z</time>
</trkpt>
<trkpt lat="46.1253240" lon="10.4868370">
	<ele>2648.20</ele>
	<time>2023-08-07T11:03:21.000Z</time>
</trkpt>
<trkpt lat="46.1253240" lon="10.4868370">
	<ele>2648.20</ele>
	<time>2023-08-07T11:03:22.000Z</time>
</trkpt>
<trkpt lat="46.1253240" lon="10.4868370">
	<ele>2648.20</ele>
	<time>2023-08-07T11:03:23.000Z</time>
</trkpt>
<trkpt lat="46.1253240" lon="10.4868370">
	<ele>2648.20</ele>
	<time>2023-08-07T11:03:24.000Z</time>
</trkpt>
<trkpt lat="46.1253240" lon="10.4868370">
	<ele>2648.40</ele>
	<time>2023-08-07T11:03:25.000Z</time>
</trkpt>
<trkpt lat="46.1253240" lon="10.4868370">
	<ele>2648.60</ele>
	<time>2023-08-07T11:03:26.000Z</time>
</trkpt>
<trkpt lat="46.1253240" lon="10.4868370">
	<ele>2648.60</ele>
	<time>2023-08-07T11:03:27.000Z</time>
</trkpt>
<trkpt lat="46.1253240" lon="10.4868370">
	<ele>2648.80</ele>
	<time>2023-08-07T11:03:28.000Z</time>
</trkpt>
<trkpt lat="46.1253230" lon="10.4868370">
	<ele>2648.80</ele>
	<time>2023-08-07T11:03:29.000Z</time>
</trkpt>
<trkpt lat="46.1253230" lon="10.4868370">
	<ele>2648.80</ele>
	<time>2023-08-07T11:03:30.000Z</time>
</trkpt>
<trkpt lat="46.1253220" lon="10.4868380">
	<ele>2648.80</ele>
	<time>2023-08-07T11:03:31.000Z</time>
</trkpt>
<trkpt lat="46.1253220" lon="10.4868380">
	<ele>2648.60</ele>
	<time>2023-08-07T11:03:32.000Z</time>
</trkpt>
<trkpt lat="46.1253220" lon="10.4868380">
	<ele>2648.60</ele>
	<time>2023-08-07T11:03:33.000Z</time>
</trkpt>
<trkpt lat="46.1253220" lon="10.4868380">
	<ele>2648.60</ele>
	<time>2023-08-07T11:03:34.000Z</time>
</trkpt>
<trkpt lat="46.1253220" lon="10.4868380">
	<ele>2648.60</ele>
	<time>2023-08-07T11:03:35.000Z</time>
</trkpt>
<trkpt lat="46.1253220" lon="10.4868380">
	<ele>2648.60</ele>
	<time>2023-08-07T11:03:36.000Z</time>
</trkpt>
<trkpt lat="46.1253220" lon="10.4868380">
	<ele>2648.60</ele>
	<time>2023-08-07T11:03:37.000Z</time>
</trkpt>
<trkpt lat="46.1253220" lon="10.4868380">
	<ele>2648.60</ele>
	<time>2023-08-07T11:03:38.000Z</time>
</trkpt>
<trkpt lat="46.1253210" lon="10.4868380">
	<ele>2648.60</ele>
	<time>2023-08-07T11:03:39.000Z</time>
</trkpt>
<trkpt lat="46.1253210" lon="10.4868380">
	<ele>2648.80</ele>
	<time>2023-08-07T11:03:40.000Z</time>
</trkpt>
<trkpt lat="46.1253200" lon="10.4868370">
	<ele>2648.80</ele>
	<time>2023-08-07T11:03:41.000Z</time>
</trkpt>
<trkpt lat="46.1253200" lon="10.4868370">
	<ele>2648.80</ele>
	<time>2023-08-07T11:03:42.000Z</time>
</trkpt>
<trkpt lat="46.1253200" lon="10.4868370">
	<ele>2648.80</ele>
	<time>2023-08-07T11:03:43.000Z</time>
</trkpt>
<trkpt lat="46.1253190" lon="10.4868370">
	<ele>2648.80</ele>
	<time>2023-08-07T11:03:44.000Z</time>
</trkpt>
<trkpt lat="46.1253190" lon="10.4868370">
	<ele>2648.60</ele>
	<time>2023-08-07T11:03:45.000Z</time>
</trkpt>
<trkpt lat="46.1253190" lon="10.4868370">
	<ele>2648.40</ele>
	<time>2023-08-07T11:03:46.000Z</time>
</trkpt>
<trkpt lat="46.1253180" lon="10.4868370">
	<ele>2648.40</ele>
	<time>2023-08-07T11:03:47.000Z</time>
</trkpt>
<trkpt lat="46.1253170" lon="10.4868360">
	<ele>2648.40</ele>
	<time>2023-08-07T11:03:48.000Z</time>
</trkpt>
<trkpt lat="46.1253160" lon="10.4868290">
	<ele>2648.20</ele>
	<time>2023-08-07T11:03:49.000Z</time>
</trkpt>
<trkpt lat="46.1253150" lon="10.4868190">
	<ele>2648.20</ele>
	<time>2023-08-07T11:03:50.000Z</time>
</trkpt>
<trkpt lat="46.1253150" lon="10.4868130">
	<ele>2648.20</ele>
	<time>2023-08-07T11:03:51.000Z</time>
</trkpt>
<trkpt lat="46.1253140" lon="10.4868070">
	<ele>2648.00</ele>
	<time>2023-08-07T11:03:52.000Z</time>
</trkpt>
<trkpt lat="46.1253130" lon="10.4868010">
	<ele>2647.80</ele>
	<time>2023-08-07T11:03:53.000Z</time>
</trkpt>
<trkpt lat="46.1253130" lon="10.4867900">
	<ele>2647.60</ele>
	<time>2023-08-07T11:03:54.000Z</time>
</trkpt>
<trkpt lat="46.1253120" lon="10.4867770">
	<ele>2647.60</ele>
	<time>2023-08-07T11:03:55.000Z</time>
</trkpt>
<trkpt lat="46.1253120" lon="10.4867680">
	<ele>2647.40</ele>
	<time>2023-08-07T11:03:56.000Z</time>
</trkpt>
<trkpt lat="46.1253120" lon="10.4867610">
	<ele>2647.40</ele>
	<time>2023-08-07T11:03:57.000Z</time>
</trkpt>
<trkpt lat="46.1253110" lon="10.4867560">
	<ele>2647.40</ele>
	<time>2023-08-07T11:03:58.000Z</time>
</trkpt>
<trkpt lat="46.1253110" lon="10.4867510">
	<ele>2647.40</ele>
	<time>2023-08-07T11:03:59.000Z</time>
</trkpt>
<trkpt lat="46.1253100" lon="10.4867420">
	<ele>2647.60</ele>
	<time>2023-08-07T11:04:00.000Z</time>
</trkpt>
<trkpt lat="46.1253100" lon="10.4867360">
	<ele>2647.80</ele>
	<time>2023-08-07T11:04:01.000Z</time>
</trkpt>
<trkpt lat="46.1253100" lon="10.4867310">
	<ele>2647.80</ele>
	<time>2023-08-07T11:04:02.000Z</time>
</trkpt>
<trkpt lat="46.1253090" lon="10.4867260">
	<ele>2648.00</ele>
	<time>2023-08-07T11:04:03.000Z</time>
</trkpt>
<trkpt lat="46.1253090" lon="10.4867240">
	<ele>2648.20</ele>
	<time>2023-08-07T11:04:04.000Z</time>
</trkpt>
<trkpt lat="46.1253090" lon="10.4867220">
	<ele>2648.20</ele>
	<time>2023-08-07T11:04:05.000Z</time>
</trkpt>
<trkpt lat="46.1253100" lon="10.4867180">
	<ele>2648.20</ele>
	<time>2023-08-07T11:04:06.000Z</time>
</trkpt>
<trkpt lat="46.1253110" lon="10.4867120">
	<ele>2648.20</ele>
	<time>2023-08-07T11:04:07.000Z</time>
</trkpt>
<trkpt lat="46.1253110" lon="10.4867070">
	<ele>2648.20</ele>
	<time>2023-08-07T11:04:08.000Z</time>
</trkpt>
<trkpt lat="46.1253120" lon="10.4867040">
	<ele>2648.20</ele>
	<time>2023-08-07T11:04:09.000Z</time>
</trkpt>
<trkpt lat="46.1253120" lon="10.4867010">
	<ele>2648.00</ele>
	<time>2023-08-07T11:04:10.000Z</time>
</trkpt>
<trkpt lat="46.1253120" lon="10.4866980">
	<ele>2648.00</ele>
	<time>2023-08-07T11:04:11.000Z</time>
</trkpt>
<trkpt lat="46.1253120" lon="10.4866950">
	<ele>2648.00</ele>
	<time>2023-08-07T11:04:12.000Z</time>
</trkpt>
<trkpt lat="46.1253120" lon="10.4866930">
	<ele>2647.80</ele>
	<time>2023-08-07T11:04:13.000Z</time>
</trkpt>
<trkpt lat="46.1253120" lon="10.4866890">
	<ele>2647.80</ele>
	<time>2023-08-07T11:04:14.000Z</time>
</trkpt>
<trkpt lat="46.1253130" lon="10.4866830">
	<ele>2647.60</ele>
	<time>2023-08-07T11:04:15.000Z</time>
</trkpt>
<trkpt lat="46.1253140" lon="10.4866770">
	<ele>2647.60</ele>
	<time>2023-08-07T11:04:16.000Z</time>
</trkpt>
<trkpt lat="46.1253140" lon="10.4866700">
	<ele>2647.40</ele>
	<time>2023-08-07T11:04:17.000Z</time>
</trkpt>
<trkpt lat="46.1253150" lon="10.4866660">
	<ele>2647.20</ele>
	<time>2023-08-07T11:04:18.000Z</time>
</trkpt>
<trkpt lat="46.1253150" lon="10.4866630">
	<ele>2647.20</ele>
	<time>2023-08-07T11:04:19.000Z</time>
</trkpt>
<trkpt lat="46.1253150" lon="10.4866620">
	<ele>2647.20</ele>
	<time>2023-08-07T11:04:20.000Z</time>
</trkpt>
<trkpt lat="46.1253150" lon="10.4866600">
	<ele>2647.20</ele>
	<time>2023-08-07T11:04:21.000Z</time>
</trkpt>
<trkpt lat="46.1253150" lon="10.4866570">
	<ele>2647.20</ele>
	<time>2023-08-07T11:04:22.000Z</time>
</trkpt>
<trkpt lat="46.1253150" lon="10.4866530">
	<ele>2647.20</ele>
	<time>2023-08-07T11:04:23.000Z</time>
</trkpt>
<trkpt lat="46.1253150" lon="10.4866480">
	<ele>2647.20</ele>
	<time>2023-08-07T11:04:24.000Z</time>
</trkpt>
<trkpt lat="46.1253150" lon="10.4866450">
	<ele>2646.80</ele>
	<time>2023-08-07T11:04:25.000Z</time>
</trkpt>
<trkpt lat="46.1253150" lon="10.4866440">
	<ele>2646.60</ele>
	<time>2023-08-07T11:04:26.000Z</time>
</trkpt>
<trkpt lat="46.1253150" lon="10.4866430">
	<ele>2646.40</ele>
	<time>2023-08-07T11:04:27.000Z</time>
</trkpt>
<trkpt lat="46.1253150" lon="10.4866410">
	<ele>2646.40</ele>
	<time>2023-08-07T11:04:28.000Z</time>
</trkpt>
<trkpt lat="46.1253150" lon="10.4866400">
	<ele>2646.20</ele>
	<time>2023-08-07T11:04:29.000Z</time>
</trkpt>
<trkpt lat="46.1253150" lon="10.4866390">
	<ele>2646.20</ele>
	<time>2023-08-07T11:04:30.000Z</time>
</trkpt>
<trkpt lat="46.1253130" lon="10.4866370">
	<ele>2646.20</ele>
	<time>2023-08-07T11:04:31.000Z</time>
</trkpt>
<trkpt lat="46.1253100" lon="10.4866370">
	<ele>2646.20</ele>
	<time>2023-08-07T11:04:32.000Z</time>
</trkpt>
<trkpt lat="46.1253090" lon="10.4866360">
	<ele>2646.20</ele>
	<time>2023-08-07T11:04:33.000Z</time>
</trkpt>
<trkpt lat="46.1253070" lon="10.4866350">
	<ele>2646.20</ele>
	<time>2023-08-07T11:04:34.000Z</time>
</trkpt>
<trkpt lat="46.1253060" lon="10.4866340">
	<ele>2646.00</ele>
	<time>2023-08-07T11:04:35.000Z</time>
</trkpt>
<trkpt lat="46.1253060" lon="10.4866340">
	<ele>2646.00</ele>
	<time>2023-08-07T11:04:36.000Z</time>
</trkpt>
<trkpt lat="46.1253040" lon="10.4866330">
	<ele>2645.80</ele>
	<time>2023-08-07T11:04:37.000Z</time>
</trkpt>
<trkpt lat="46.1253020" lon="10.4866320">
	<ele>2645.80</ele>
	<time>2023-08-07T11:04:38.000Z</time>
</trkpt>
<trkpt lat="46.1253000" lon="10.4866310">
	<ele>2645.60</ele>
	<time>2023-08-07T11:04:39.000Z</time>
</trkpt>
<trkpt lat="46.1252970" lon="10.4866290">
	<ele>2645.60</ele>
	<time>2023-08-07T11:04:40.000Z</time>
</trkpt>
<trkpt lat="46.1252950" lon="10.4866260">
	<ele>2645.60</ele>
	<time>2023-08-07T11:04:41.000Z</time>
</trkpt>
<trkpt lat="46.1252930" lon="10.4866240">
	<ele>2645.60</ele>
	<time>2023-08-07T11:04:42.000Z</time>
</trkpt>
<trkpt lat="46.1252910" lon="10.4866220">
	<ele>2645.80</ele>
	<time>2023-08-07T11:04:43.000Z</time>
</trkpt>
<trkpt lat="46.1252880" lon="10.4866180">
	<ele>2645.80</ele>
	<time>2023-08-07T11:04:44.000Z</time>
</trkpt>
<trkpt lat="46.1252860" lon="10.4866120">
	<ele>2646.00</ele>
	<time>2023-08-07T11:04:45.000Z</time>
</trkpt>
<trkpt lat="46.1252850" lon="10.4866060">
	<ele>2646.00</ele>
	<time>2023-08-07T11:04:46.000Z</time>
</trkpt>
<trkpt lat="46.1252840" lon="10.4865990">
	<ele>2646.40</ele>
	<time>2023-08-07T11:04:47.000Z</time>
</trkpt>
<trkpt lat="46.1252830" lon="10.4865930">
	<ele>2646.60</ele>
	<time>2023-08-07T11:04:48.000Z</time>
</trkpt>
<trkpt lat="46.1252820" lon="10.4865880">
	<ele>2646.60</ele>
	<time>2023-08-07T11:04:49.000Z</time>
</trkpt>
<trkpt lat="46.1252800" lon="10.4865830">
	<ele>2646.60</ele>
	<time>2023-08-07T11:04:50.000Z</time>
</trkpt>
<trkpt lat="46.1252790" lon="10.4865790">
	<ele>2646.60</ele>
	<time>2023-08-07T11:04:51.000Z</time>
</trkpt>
<trkpt lat="46.1252780" lon="10.4865740">
	<ele>2646.60</ele>
	<time>2023-08-07T11:04:52.000Z</time>
</trkpt>
<trkpt lat="46.1252760" lon="10.4865680">
	<ele>2646.60</ele>
	<time>2023-08-07T11:04:53.000Z</time>
</trkpt>
<trkpt lat="46.1252740" lon="10.4865620">
	<ele>2646.80</ele>
	<time>2023-08-07T11:04:54.000Z</time>
</trkpt>
<trkpt lat="46.1252730" lon="10.4865560">
	<ele>2647.00</ele>
	<time>2023-08-07T11:04:55.000Z</time>
</trkpt>
<trkpt lat="46.1252720" lon="10.4865490">
	<ele>2647.20</ele>
	<time>2023-08-07T11:04:56.000Z</time>
</trkpt>
<trkpt lat="46.1252710" lon="10.4865420">
	<ele>2647.40</ele>
	<time>2023-08-07T11:04:57.000Z</time>
</trkpt>
<trkpt lat="46.1252700" lon="10.4865320">
	<ele>2647.60</ele>
	<time>2023-08-07T11:04:58.000Z</time>
</trkpt>
<trkpt lat="46.1252660" lon="10.4865180">
	<ele>2648.00</ele>
	<time>2023-08-07T11:04:59.000Z</time>
</trkpt>
<trkpt lat="46.1252600" lon="10.4865020">
	<ele>2648.20</ele>
	<time>2023-08-07T11:05:00.000Z</time>
</trkpt>
<trkpt lat="46.1252560" lon="10.4864840">
	<ele>2648.40</ele>
	<time>2023-08-07T11:05:01.000Z</time>
</trkpt>
<trkpt lat="46.1252510" lon="10.4864680">
	<ele>2648.60</ele>
	<time>2023-08-07T11:05:02.000Z</time>
</trkpt>
<trkpt lat="46.1252480" lon="10.4864520">
	<ele>2648.60</ele>
	<time>2023-08-07T11:05:03.000Z</time>
</trkpt>
<trkpt lat="46.1252450" lon="10.4864360">
	<ele>2648.80</ele>
	<time>2023-08-07T11:05:04.000Z</time>
</trkpt>
<trkpt lat="46.1252410" lon="10.4864220">
	<ele>2648.80</ele>
	<time>2023-08-07T11:05:05.000Z</time>
</trkpt>
<trkpt lat="46.1252380" lon="10.4864050">
	<ele>2648.80</ele>
	<time>2023-08-07T11:05:06.000Z</time>
</trkpt>
<trkpt lat="46.1252370" lon="10.4863840">
	<ele>2649.00</ele>
	<time>2023-08-07T11:05:07.000Z</time>
</trkpt>
<trkpt lat="46.1252370" lon="10.4863710">
	<ele>2649.00</ele>
	<time>2023-08-07T11:05:08.000Z</time>
</trkpt>
<trkpt lat="46.1252350" lon="10.4863620">
	<ele>2649.00</ele>
	<time>2023-08-07T11:05:09.000Z</time>
</trkpt>
<trkpt lat="46.1252300" lon="10.4863610">
	<ele>2649.00</ele>
	<time>2023-08-07T11:05:10.000Z</time>
</trkpt>
<trkpt lat="46.1252260" lon="10.4863590">
	<ele>2649.00</ele>
	<time>2023-08-07T11:05:11.000Z</time>
</trkpt>
<trkpt lat="46.1252190" lon="10.4863560">
	<ele>2649.00</ele>
	<time>2023-08-07T11:05:12.000Z</time>
</trkpt>
<trkpt lat="46.1252180" lon="10.4863490">
	<ele>2649.00</ele>
	<time>2023-08-07T11:05:13.000Z</time>
</trkpt>
<trkpt lat="46.1252170" lon="10.4863460">
	<ele>2649.00</ele>
	<time>2023-08-07T11:05:14.000Z</time>
</trkpt>
<trkpt lat="46.1252170" lon="10.4863450">
	<ele>2649.00</ele>
	<time>2023-08-07T11:05:15.000Z</time>
</trkpt>
<trkpt lat="46.1252170" lon="10.4863440">
	<ele>2649.00</ele>
	<time>2023-08-07T11:05:16.000Z</time>
</trkpt>
<trkpt lat="46.1252160" lon="10.4863460">
	<ele>2649.20</ele>
	<time>2023-08-07T11:05:17.000Z</time>
</trkpt>
<trkpt lat="46.1252140" lon="10.4863450">
	<ele>2649.20</ele>
	<time>2023-08-07T11:05:18.000Z</time>
</trkpt>
<trkpt lat="46.1252100" lon="10.4863430">
	<ele>2649.40</ele>
	<time>2023-08-07T11:05:19.000Z</time>
</trkpt>
<trkpt lat="46.1252070" lon="10.4863430">
	<ele>2649.40</ele>
	<time>2023-08-07T11:05:20.000Z</time>
</trkpt>
<trkpt lat="46.1252040" lon="10.4863370">
	<ele>2649.60</ele>
	<time>2023-08-07T11:05:21.000Z</time>
</trkpt>
<trkpt lat="46.1252010" lon="10.4863320">
	<ele>2649.80</ele>
	<time>2023-08-07T11:05:22.000Z</time>
</trkpt>
<trkpt lat="46.1252010" lon="10.4863230">
	<ele>2649.80</ele>
	<time>2023-08-07T11:05:23.000Z</time>
</trkpt>
<trkpt lat="46.1251990" lon="10.4863110">
	<ele>2649.80</ele>
	<time>2023-08-07T11:05:24.000Z</time>
</trkpt>
<trkpt lat="46.1251970" lon="10.4863020">
	<ele>2650.00</ele>
	<time>2023-08-07T11:05:25.000Z</time>
</trkpt>
<trkpt lat="46.1251960" lon="10.4862910">
	<ele>2650.00</ele>
	<time>2023-08-07T11:05:26.000Z</time>
</trkpt>
<trkpt lat="46.1251950" lon="10.4862850">
	<ele>2650.00</ele>
	<time>2023-08-07T11:05:27.000Z</time>
</trkpt>
<trkpt lat="46.1251940" lon="10.4862810">
	<ele>2650.00</ele>
	<time>2023-08-07T11:05:28.000Z</time>
</trkpt>
<trkpt lat="46.1251920" lon="10.4862760">
	<ele>2650.00</ele>
	<time>2023-08-07T11:05:29.000Z</time>
</trkpt>
<trkpt lat="46.1251870" lon="10.4862700">
	<ele>2650.00</ele>
	<time>2023-08-07T11:05:30.000Z</time>
</trkpt>
<trkpt lat="46.1251840" lon="10.4862640">
	<ele>2650.00</ele>
	<time>2023-08-07T11:05:31.000Z</time>
</trkpt>
<trkpt lat="46.1251850" lon="10.4862570">
	<ele>2650.00</ele>
	<time>2023-08-07T11:05:32.000Z</time>
</trkpt>
<trkpt lat="46.1251850" lon="10.4862520">
	<ele>2650.00</ele>
	<time>2023-08-07T11:05:33.000Z</time>
</trkpt>
<trkpt lat="46.1251840" lon="10.4862420">
	<ele>2649.80</ele>
	<time>2023-08-07T11:05:34.000Z</time>
</trkpt>
<trkpt lat="46.1251810" lon="10.4862380">
	<ele>2649.60</ele>
	<time>2023-08-07T11:05:35.000Z</time>
</trkpt>
<trkpt lat="46.1251810" lon="10.4862360">
	<ele>2649.60</ele>
	<time>2023-08-07T11:05:36.000Z</time>
</trkpt>
<trkpt lat="46.1251800" lon="10.4862380">
	<ele>2649.40</ele>
	<time>2023-08-07T11:05:37.000Z</time>
</trkpt>
<trkpt lat="46.1251770" lon="10.4862400">
	<ele>2649.40</ele>
	<time>2023-08-07T11:05:38.000Z</time>
</trkpt>
<trkpt lat="46.1251750" lon="10.4862430">
	<ele>2649.40</ele>
	<time>2023-08-07T11:05:39.000Z</time>
</trkpt>
<trkpt lat="46.1251740" lon="10.4862440">
	<ele>2649.60</ele>
	<time>2023-08-07T11:05:40.000Z</time>
</trkpt>
<trkpt lat="46.1251720" lon="10.4862490">
	<ele>2649.60</ele>
	<time>2023-08-07T11:05:41.000Z</time>
</trkpt>
<trkpt lat="46.1251720" lon="10.4862500">
	<ele>2649.60</ele>
	<time>2023-08-07T11:05:42.000Z</time>
</trkpt>
<trkpt lat="46.1251720" lon="10.4862500">
	<ele>2649.60</ele>
	<time>2023-08-07T11:05:43.000Z</time>
</trkpt>
<trkpt lat="46.1251720" lon="10.4862500">
	<ele>2649.60</ele>
	<time>2023-08-07T11:05:44.000Z</time>
</trkpt>
<trkpt lat="46.1251720" lon="10.4862500">
	<ele>2649.60</ele>
	<time>2023-08-07T11:05:45.000Z</time>
</trkpt>
<trkpt lat="46.1251720" lon="10.4862500">
	<ele>2649.60</ele>
	<time>2023-08-07T11:05:46.000Z</time>
</trkpt>
<trkpt lat="46.1251720" lon="10.4862500">
	<ele>2649.60</ele>
	<time>2023-08-07T11:05:47.000Z</time>
</trkpt>
<trkpt lat="46.1251720" lon="10.4862500">
	<ele>2649.60</ele>
	<time>2023-08-07T11:05:48.000Z</time>
</trkpt>
<trkpt lat="46.1251720" lon="10.4862500">
	<ele>2649.80</ele>
	<time>2023-08-07T11:05:49.000Z</time>
</trkpt>
<trkpt lat="46.1251720" lon="10.4862490">
	<ele>2649.80</ele>
	<time>2023-08-07T11:05:50.000Z</time>
</trkpt>
<trkpt lat="46.1251720" lon="10.4862490">
	<ele>2650.00</ele>
	<time>2023-08-07T11:05:51.000Z</time>
</trkpt>
<trkpt lat="46.1251720" lon="10.4862460">
	<ele>2650.00</ele>
	<time>2023-08-07T11:05:52.000Z</time>
</trkpt>
<trkpt lat="46.1251720" lon="10.4862440">
	<ele>2650.00</ele>
	<time>2023-08-07T11:05:53.000Z</time>
</trkpt>
<trkpt lat="46.1251720" lon="10.4862430">
	<ele>2650.00</ele>
	<time>2023-08-07T11:05:54.000Z</time>
</trkpt>
<trkpt lat="46.1251720" lon="10.4862420">
	<ele>2650.00</ele>
	<time>2023-08-07T11:05:55.000Z</time>
</trkpt>
<trkpt lat="46.1251720" lon="10.4862410">
	<ele>2649.80</ele>
	<time>2023-08-07T11:05:56.000Z</time>
</trkpt>
<trkpt lat="46.1251680" lon="10.4862340">
	<ele>2649.60</ele>
	<time>2023-08-07T11:05:57.000Z</time>
</trkpt>
<trkpt lat="46.1251650" lon="10.4862090">
	<ele>2649.40</ele>
	<time>2023-08-07T11:05:58.000Z</time>
</trkpt>
<trkpt lat="46.1251610" lon="10.4861870">
	<ele>2649.40</ele>
	<time>2023-08-07T11:05:59.000Z</time>
</trkpt>
<trkpt lat="46.1251560" lon="10.4861650">
	<ele>2649.40</ele>
	<time>2023-08-07T11:06:00.000Z</time>
</trkpt>
<trkpt lat="46.1251490" lon="10.4861510">
	<ele>2649.40</ele>
	<time>2023-08-07T11:06:01.000Z</time>
</trkpt>
<trkpt lat="46.1251420" lon="10.4861380">
	<ele>2649.40</ele>
	<time>2023-08-07T11:06:02.000Z</time>
</trkpt>
<trkpt lat="46.1251330" lon="10.4861240">
	<ele>2649.40</ele>
	<time>2023-08-07T11:06:03.000Z</time>
</trkpt>
<trkpt lat="46.1251250" lon="10.4861110">
	<ele>2649.40</ele>
	<time>2023-08-07T11:06:04.000Z</time>
</trkpt>
<trkpt lat="46.1251160" lon="10.4860970">
	<ele>2649.20</ele>
	<time>2023-08-07T11:06:05.000Z</time>
</trkpt>
<trkpt lat="46.1251100" lon="10.4860790">
	<ele>2649.20</ele>
	<time>2023-08-07T11:06:06.000Z</time>
</trkpt>
<trkpt lat="46.1251090" lon="10.4860710">
	<ele>2649.20</ele>
	<time>2023-08-07T11:06:07.000Z</time>
</trkpt>
<trkpt lat="46.1251070" lon="10.4860640">
	<ele>2649.20</ele>
	<time>2023-08-07T11:06:08.000Z</time>
</trkpt>
<trkpt lat="46.1251040" lon="10.4860610">
	<ele>2649.40</ele>
	<time>2023-08-07T11:06:09.000Z</time>
</trkpt>
<trkpt lat="46.1251010" lon="10.4860580">
	<ele>2649.40</ele>
	<time>2023-08-07T11:06:10.000Z</time>
</trkpt>
<trkpt lat="46.1251000" lon="10.4860530">
	<ele>2649.40</ele>
	<time>2023-08-07T11:06:11.000Z</time>
</trkpt>
<trkpt lat="46.1250980" lon="10.4860470">
	<ele>2649.40</ele>
	<time>2023-08-07T11:06:12.000Z</time>
</trkpt>
<trkpt lat="46.1250950" lon="10.4860450">
	<ele>2649.40</ele>
	<time>2023-08-07T11:06:13.000Z</time>
</trkpt>
<trkpt lat="46.1250930" lon="10.4860380">
	<ele>2649.00</ele>
	<time>2023-08-07T11:06:14.000Z</time>
</trkpt>
<trkpt lat="46.1250940" lon="10.4860230">
	<ele>2648.80</ele>
	<time>2023-08-07T11:06:15.000Z</time>
</trkpt>
<trkpt lat="46.1250920" lon="10.4860170">
	<ele>2648.60</ele>
	<time>2023-08-07T11:06:16.000Z</time>
</trkpt>
<trkpt lat="46.1250910" lon="10.4860120">
	<ele>2648.40</ele>
	<time>2023-08-07T11:06:17.000Z</time>
</trkpt>
<trkpt lat="46.1250880" lon="10.4860090">
	<ele>2648.40</ele>
	<time>2023-08-07T11:06:18.000Z</time>
</trkpt>
<trkpt lat="46.1250860" lon="10.4860050">
	<ele>2648.40</ele>
	<time>2023-08-07T11:06:19.000Z</time>
</trkpt>
<trkpt lat="46.1250810" lon="10.4860030">
	<ele>2648.40</ele>
	<time>2023-08-07T11:06:20.000Z</time>
</trkpt>
<trkpt lat="46.1250760" lon="10.4860010">
	<ele>2648.20</ele>
	<time>2023-08-07T11:06:21.000Z</time>
</trkpt>
<trkpt lat="46.1250690" lon="10.4860030">
	<ele>2648.20</ele>
	<time>2023-08-07T11:06:22.000Z</time>
</trkpt>
<trkpt lat="46.1250650" lon="10.4860040">
	<ele>2648.00</ele>
	<time>2023-08-07T11:06:23.000Z</time>
</trkpt>
<trkpt lat="46.1250600" lon="10.4860040">
	<ele>2647.80</ele>
	<time>2023-08-07T11:06:24.000Z</time>
</trkpt>
<trkpt lat="46.1250550" lon="10.4860060">
	<ele>2647.40</ele>
	<time>2023-08-07T11:06:25.000Z</time>
</trkpt>
<trkpt lat="46.1250470" lon="10.4860070">
	<ele>2647.00</ele>
	<time>2023-08-07T11:06:26.000Z</time>
</trkpt>
<trkpt lat="46.1250410" lon="10.4860040">
	<ele>2646.80</ele>
	<time>2023-08-07T11:06:27.000Z</time>
</trkpt>
<trkpt lat="46.1250350" lon="10.4859920">
	<ele>2646.60</ele>
	<time>2023-08-07T11:06:28.000Z</time>
</trkpt>
<trkpt lat="46.1250250" lon="10.4859820">
	<ele>2646.60</ele>
	<time>2023-08-07T11:06:29.000Z</time>
</trkpt>
<trkpt lat="46.1250210" lon="10.4859760">
	<ele>2646.60</ele>
	<time>2023-08-07T11:06:30.000Z</time>
</trkpt>
<trkpt lat="46.1250190" lon="10.4859700">
	<ele>2646.80</ele>
	<time>2023-08-07T11:06:31.000Z</time>
</trkpt>
<trkpt lat="46.1250170" lon="10.4859660">
	<ele>2647.00</ele>
	<time>2023-08-07T11:06:32.000Z</time>
</trkpt>
<trkpt lat="46.1250130" lon="10.4859560">
	<ele>2647.20</ele>
	<time>2023-08-07T11:06:33.000Z</time>
</trkpt>
<trkpt lat="46.1250060" lon="10.4859490">
	<ele>2647.40</ele>
	<time>2023-08-07T11:06:34.000Z</time>
</trkpt>
<trkpt lat="46.1249970" lon="10.4859430">
	<ele>2647.60</ele>
	<time>2023-08-07T11:06:35.000Z</time>
</trkpt>
<trkpt lat="46.1249950" lon="10.4859370">
	<ele>2647.60</ele>
	<time>2023-08-07T11:06:36.000Z</time>
</trkpt>
<trkpt lat="46.1249930" lon="10.4859320">
	<ele>2647.60</ele>
	<time>2023-08-07T11:06:37.000Z</time>
</trkpt>
<trkpt lat="46.1249920" lon="10.4859240">
	<ele>2647.60</ele>
	<time>2023-08-07T11:06:38.000Z</time>
</trkpt>
<trkpt lat="46.1249930" lon="10.4859110">
	<ele>2647.60</ele>
	<time>2023-08-07T11:06:39.000Z</time>
</trkpt>
<trkpt lat="46.1249910" lon="10.4858960">
	<ele>2647.60</ele>
	<time>2023-08-07T11:06:40.000Z</time>
</trkpt>
<trkpt lat="46.1249900" lon="10.4858890">
	<ele>2647.60</ele>
	<time>2023-08-07T11:06:41.000Z</time>
</trkpt>
<trkpt lat="46.1249870" lon="10.4858840">
	<ele>2647.60</ele>
	<time>2023-08-07T11:06:42.000Z</time>
</trkpt>
<trkpt lat="46.1249860" lon="10.4858780">
	<ele>2647.40</ele>
	<time>2023-08-07T11:06:43.000Z</time>
</trkpt>
<trkpt lat="46.1249860" lon="10.4858750">
	<ele>2647.40</ele>
	<time>2023-08-07T11:06:44.000Z</time>
</trkpt>
<trkpt lat="46.1249860" lon="10.4858770">
	<ele>2647.20</ele>
	<time>2023-08-07T11:06:45.000Z</time>
</trkpt>
<trkpt lat="46.1249850" lon="10.4858840">
	<ele>2647.20</ele>
	<time>2023-08-07T11:06:46.000Z</time>
</trkpt>
<trkpt lat="46.1249840" lon="10.4858870">
	<ele>2647.40</ele>
	<time>2023-08-07T11:06:47.000Z</time>
</trkpt>
<trkpt lat="46.1249870" lon="10.4858810">
	<ele>2647.40</ele>
	<time>2023-08-07T11:06:48.000Z</time>
</trkpt>
<trkpt lat="46.1249880" lon="10.4858820">
	<ele>2647.40</ele>
	<time>2023-08-07T11:06:49.000Z</time>
</trkpt>
<trkpt lat="46.1249870" lon="10.4858850">
	<ele>2647.40</ele>
	<time>2023-08-07T11:06:50.000Z</time>
</trkpt>
<trkpt lat="46.1249860" lon="10.4858860">
	<ele>2647.60</ele>
	<time>2023-08-07T11:06:51.000Z</time>
</trkpt>
<trkpt lat="46.1249850" lon="10.4858850">
	<ele>2647.80</ele>
	<time>2023-08-07T11:06:52.000Z</time>
</trkpt>
<trkpt lat="46.1249840" lon="10.4858850">
	<ele>2648.00</ele>
	<time>2023-08-07T11:06:53.000Z</time>
</trkpt>
<trkpt lat="46.1249840" lon="10.4858850">
	<ele>2648.00</ele>
	<time>2023-08-07T11:06:54.000Z</time>
</trkpt>
<trkpt lat="46.1249840" lon="10.4858850">
	<ele>2648.20</ele>
	<time>2023-08-07T11:06:55.000Z</time>
</trkpt>
<trkpt lat="46.1249840" lon="10.4858850">
	<ele>2648.20</ele>
	<time>2023-08-07T11:06:56.000Z</time>
</trkpt>
<trkpt lat="46.1249840" lon="10.4858850">
	<ele>2648.20</ele>
	<time>2023-08-07T11:06:57.000Z</time>
</trkpt>
<trkpt lat="46.1249840" lon="10.4858850">
	<ele>2648.20</ele>
	<time>2023-08-07T11:06:58.000Z</time>
</trkpt>
<trkpt lat="46.1249840" lon="10.4858850">
	<ele>2648.20</ele>
	<time>2023-08-07T11:06:59.000Z</time>
</trkpt>
<trkpt lat="46.1249840" lon="10.4858850">
	<ele>2648.20</ele>
	<time>2023-08-07T11:07:00.000Z</time>
</trkpt>
<trkpt lat="46.1249840" lon="10.4858850">
	<ele>2648.20</ele>
	<time>2023-08-07T11:07:01.000Z</time>
</trkpt>
<trkpt lat="46.1249840" lon="10.4858850">
	<ele>2648.00</ele>
	<time>2023-08-07T11:07:02.000Z</time>
</trkpt>
<trkpt lat="46.1249840" lon="10.4858850">
	<ele>2647.80</ele>
	<time>2023-08-07T11:07:03.000Z</time>
</trkpt>
<trkpt lat="46.1249850" lon="10.4858850">
	<ele>2647.80</ele>
	<time>2023-08-07T11:07:04.000Z</time>
</trkpt>
<trkpt lat="46.1249850" lon="10.4858850">
	<ele>2647.80</ele>
	<time>2023-08-07T11:07:05.000Z</time>
</trkpt>
<trkpt lat="46.1249850" lon="10.4858850">
	<ele>2647.80</ele>
	<time>2023-08-07T11:07:06.000Z</time>
</trkpt>
<trkpt lat="46.1249860" lon="10.4858850">
	<ele>2647.80</ele>
	<time>2023-08-07T11:07:07.000Z</time>
</trkpt>
<trkpt lat="46.1249860" lon="10.4858850">
	<ele>2647.80</ele>
	<time>2023-08-07T11:07:08.000Z</time>
</trkpt>
<trkpt lat="46.1249860" lon="10.4858850">
	<ele>2647.80</ele>
	<time>2023-08-07T11:07:09.000Z</time>
</trkpt>
<trkpt lat="46.1249870" lon="10.4858850">
	<ele>2647.80</ele>
	<time>2023-08-07T11:07:10.000Z</time>
</trkpt>
<trkpt lat="46.1249870" lon="10.4858850">
	<ele>2647.80</ele>
	<time>2023-08-07T11:07:11.000Z</time>
</trkpt>
<trkpt lat="46.1249880" lon="10.4858850">
	<ele>2647.80</ele>
	<time>2023-08-07T11:07:12.000Z</time>
</trkpt>
<trkpt lat="46.1249880" lon="10.4858850">
	<ele>2647.80</ele>
	<time>2023-08-07T11:07:13.000Z</time>
</trkpt>
<trkpt lat="46.1249880" lon="10.4858850">
	<ele>2648.00</ele>
	<time>2023-08-07T11:07:14.000Z</time>
</trkpt>
<trkpt lat="46.1249890" lon="10.4858850">
	<ele>2648.00</ele>
	<time>2023-08-07T11:07:15.000Z</time>
</trkpt>
<trkpt lat="46.1249900" lon="10.4858850">
	<ele>2648.00</ele>
	<time>2023-08-07T11:07:16.000Z</time>
</trkpt>
<trkpt lat="46.1249900" lon="10.4858850">
	<ele>2648.20</ele>
	<time>2023-08-07T11:07:17.000Z</time>
</trkpt>
<trkpt lat="46.1249900" lon="10.4858850">
	<ele>2648.20</ele>
	<time>2023-08-07T11:07:18.000Z</time>
</trkpt>
<trkpt lat="46.1249900" lon="10.4858860">
	<ele>2648.20</ele>
	<time>2023-08-07T11:07:19.000Z</time>
</trkpt>
<trkpt lat="46.1249910" lon="10.4858860">
	<ele>2648.20</ele>
	<time>2023-08-07T11:07:20.000Z</time>
</trkpt>
<trkpt lat="46.1249920" lon="10.4858870">
	<ele>2648.20</ele>
	<time>2023-08-07T11:07:21.000Z</time>
</trkpt>
<trkpt lat="46.1249920" lon="10.4858870">
	<ele>2648.20</ele>
	<time>2023-08-07T11:07:22.000Z</time>
</trkpt>
<trkpt lat="46.1249920" lon="10.4858870">
	<ele>2648.20</ele>
	<time>2023-08-07T11:07:23.000Z</time>
</trkpt>
<trkpt lat="46.1249920" lon="10.4858870">
	<ele>2648.20</ele>
	<time>2023-08-07T11:07:24.000Z</time>
</trkpt>
<trkpt lat="46.1249920" lon="10.4858870">
	<ele>2648.20</ele>
	<time>2023-08-07T11:07:25.000Z</time>
</trkpt>
<trkpt lat="46.1249920" lon="10.4858880">
	<ele>2648.20</ele>
	<time>2023-08-07T11:07:26.000Z</time>
</trkpt>
<trkpt lat="46.1249920" lon="10.4858880">
	<ele>2648.20</ele>
	<time>2023-08-07T11:07:27.000Z</time>
</trkpt>
<trkpt lat="46.1249920" lon="10.4858880">
	<ele>2648.20</ele>
	<time>2023-08-07T11:07:28.000Z</time>
</trkpt>
<trkpt lat="46.1249920" lon="10.4858890">
	<ele>2648.20</ele>
	<time>2023-08-07T11:07:29.000Z</time>
</trkpt>
<trkpt lat="46.1249920" lon="10.4858890">
	<ele>2648.00</ele>
	<time>2023-08-07T11:07:30.000Z</time>
</trkpt>
<trkpt lat="46.1249920" lon="10.4858890">
	<ele>2648.00</ele>
	<time>2023-08-07T11:07:31.000Z</time>
</trkpt>
<trkpt lat="46.1249920" lon="10.4858890">
	<ele>2648.00</ele>
	<time>2023-08-07T11:07:32.000Z</time>
</trkpt>
<trkpt lat="46.1249920" lon="10.4858890">
	<ele>2648.00</ele>
	<time>2023-08-07T11:07:33.000Z</time>
</trkpt>
<trkpt lat="46.1249920" lon="10.4858890">
	<ele>2648.00</ele>
	<time>2023-08-07T11:07:34.000Z</time>
</trkpt>
<trkpt lat="46.1249920" lon="10.4858900">
	<ele>2648.00</ele>
	<time>2023-08-07T11:07:35.000Z</time>
</trkpt>
<trkpt lat="46.1249920" lon="10.4858900">
	<ele>2648.00</ele>
	<time>2023-08-07T11:07:36.000Z</time>
</trkpt>
<trkpt lat="46.1249910" lon="10.4858900">
	<ele>2647.80</ele>
	<time>2023-08-07T11:07:37.000Z</time>
</trkpt>
<trkpt lat="46.1249910" lon="10.4858910">
	<ele>2647.80</ele>
	<time>2023-08-07T11:07:38.000Z</time>
</trkpt>
<trkpt lat="46.1249900" lon="10.4858920">
	<ele>2647.80</ele>
	<time>2023-08-07T11:07:39.000Z</time>
</trkpt>
<trkpt lat="46.1249890" lon="10.4858920">
	<ele>2648.00</ele>
	<time>2023-08-07T11:07:40.000Z</time>
</trkpt>
<trkpt lat="46.1249880" lon="10.4858920">
	<ele>2648.00</ele>
	<time>2023-08-07T11:07:41.000Z</time>
</trkpt>
<trkpt lat="46.1249860" lon="10.4858920">
	<ele>2648.00</ele>
	<time>2023-08-07T11:07:42.000Z</time>
</trkpt>
<trkpt lat="46.1249840" lon="10.4858920">
	<ele>2648.00</ele>
	<time>2023-08-07T11:07:43.000Z</time>
</trkpt>
<trkpt lat="46.1249840" lon="10.4858920">
	<ele>2648.20</ele>
	<time>2023-08-07T11:07:44.000Z</time>
</trkpt>
<trkpt lat="46.1249840" lon="10.4858920">
	<ele>2648.60</ele>
	<time>2023-08-07T11:07:45.000Z</time>
</trkpt>
<trkpt lat="46.1249840" lon="10.4858920">
	<ele>2648.80</ele>
	<time>2023-08-07T11:07:46.000Z</time>
</trkpt>
<trkpt lat="46.1249840" lon="10.4858920">
	<ele>2649.00</ele>
	<time>2023-08-07T11:07:47.000Z</time>
</trkpt>
<trkpt lat="46.1249840" lon="10.4858920">
	<ele>2649.20</ele>
	<time>2023-08-07T11:07:48.000Z</time>
</trkpt>
<trkpt lat="46.1249840" lon="10.4858920">
	<ele>2649.40</ele>
	<time>2023-08-07T11:07:49.000Z</time>
</trkpt>
<trkpt lat="46.1249840" lon="10.4858920">
	<ele>2649.60</ele>
	<time>2023-08-07T11:07:50.000Z</time>
</trkpt>
<trkpt lat="46.1249840" lon="10.4858920">
	<ele>2649.80</ele>
	<time>2023-08-07T11:07:51.000Z</time>
</trkpt>
<trkpt lat="46.1249870" lon="10.4858870">
	<ele>2649.80</ele>
	<time>2023-08-07T11:07:52.000Z</time>
</trkpt>
<trkpt lat="46.1249900" lon="10.4858830">
	<ele>2650.20</ele>
	<time>2023-08-07T11:07:53.000Z</time>
</trkpt>
<trkpt lat="46.1249940" lon="10.4858780">
	<ele>2650.40</ele>
	<time>2023-08-07T11:07:54.000Z</time>
</trkpt>
<trkpt lat="46.1249980" lon="10.4858730">
	<ele>2650.40</ele>
	<time>2023-08-07T11:07:55.000Z</time>
</trkpt>
<trkpt lat="46.1250030" lon="10.4858670">
	<ele>2650.60</ele>
	<time>2023-08-07T11:07:56.000Z</time>
</trkpt>
<trkpt lat="46.1250080" lon="10.4858620">
	<ele>2650.80</ele>
	<time>2023-08-07T11:07:57.000Z</time>
</trkpt>
<trkpt lat="46.1250150" lon="10.4858440">
	<ele>2650.80</ele>
	<time>2023-08-07T11:07:58.000Z</time>
</trkpt>
<trkpt lat="46.1250190" lon="10.4858360">
	<ele>2651.00</ele>
	<time>2023-08-07T11:07:59.000Z</time>
</trkpt>
<trkpt lat="46.1250270" lon="10.4858290">
	<ele>2651.20</ele>
	<time>2023-08-07T11:08:00.000Z</time>
</trkpt>
<trkpt lat="46.1250360" lon="10.4858190">
	<ele>2651.40</ele>
	<time>2023-08-07T11:08:01.000Z</time>
</trkpt>
<trkpt lat="46.1250390" lon="10.4858090">
	<ele>2651.60</ele>
	<time>2023-08-07T11:08:02.000Z</time>
</trkpt>
<trkpt lat="46.1250400" lon="10.4858020">
	<ele>2651.60</ele>
	<time>2023-08-07T11:08:03.000Z</time>
</trkpt>
<trkpt lat="46.1250440" lon="10.4857970">
	<ele>2651.80</ele>
	<time>2023-08-07T11:08:04.000Z</time>
</trkpt>
<trkpt lat="46.1250500" lon="10.4857950">
	<ele>2651.80</ele>
	<time>2023-08-07T11:08:05.000Z</time>
</trkpt>
<trkpt lat="46.1250510" lon="10.4857930">
	<ele>2652.00</ele>
	<time>2023-08-07T11:08:06.000Z</time>
</trkpt>
<trkpt lat="46.1250520" lon="10.4857930">
	<ele>2652.20</ele>
	<time>2023-08-07T11:08:07.000Z</time>
</trkpt>
<trkpt lat="46.1250560" lon="10.4857960">
	<ele>2652.40</ele>
	<time>2023-08-07T11:08:08.000Z</time>
</trkpt>
<trkpt lat="46.1250600" lon="10.4857980">
	<ele>2652.40</ele>
	<time>2023-08-07T11:08:09.000Z</time>
</trkpt>
<trkpt lat="46.1250620" lon="10.4857990">
	<ele>2652.60</ele>
	<time>2023-08-07T11:08:10.000Z</time>
</trkpt>
<trkpt lat="46.1250640" lon="10.4858040">
	<ele>2652.60</ele>
	<time>2023-08-07T11:08:11.000Z</time>
</trkpt>
<trkpt lat="46.1250630" lon="10.4858090">
	<ele>2652.80</ele>
	<time>2023-08-07T11:08:12.000Z</time>
</trkpt>
<trkpt lat="46.1250680" lon="10.4858110">
	<ele>2652.80</ele>
	<time>2023-08-07T11:08:13.000Z</time>
</trkpt>
<trkpt lat="46.1250680" lon="10.4858050">
	<ele>2652.80</ele>
	<time>2023-08-07T11:08:14.000Z</time>
</trkpt>
<trkpt lat="46.1250680" lon="10.4857980">
	<ele>2653.00</ele>
	<time>2023-08-07T11:08:15.000Z</time>
</trkpt>
<trkpt lat="46.1250700" lon="10.4857930">
	<ele>2653.20</ele>
	<time>2023-08-07T11:08:16.000Z</time>
</trkpt>
<trkpt lat="46.1250720" lon="10.4857890">
	<ele>2653.20</ele>
	<time>2023-08-07T11:08:17.000Z</time>
</trkpt>
<trkpt lat="46.1250720" lon="10.4857800">
	<ele>2653.60</ele>
	<time>2023-08-07T11:08:18.000Z</time>
</trkpt>
<trkpt lat="46.1250720" lon="10.4857760">
	<ele>2653.80</ele>
	<time>2023-08-07T11:08:19.000Z</time>
</trkpt>
<trkpt lat="46.1250750" lon="10.4857750">
	<ele>2654.00</ele>
	<time>2023-08-07T11:08:20.000Z</time>
</trkpt>
<trkpt lat="46.1250770" lon="10.4857730">
	<ele>2654.20</ele>
	<time>2023-08-07T11:08:21.000Z</time>
</trkpt>
<trkpt lat="46.1250790" lon="10.4857730">
	<ele>2654.20</ele>
	<time>2023-08-07T11:08:22.000Z</time>
</trkpt>
<trkpt lat="46.1250840" lon="10.4857710">
	<ele>2654.40</ele>
	<time>2023-08-07T11:08:23.000Z</time>
</trkpt>
<trkpt lat="46.1250860" lon="10.4857670">
	<ele>2654.40</ele>
	<time>2023-08-07T11:08:24.000Z</time>
</trkpt>
<trkpt lat="46.1250870" lon="10.4857630">
	<ele>2654.60</ele>
	<time>2023-08-07T11:08:25.000Z</time>
</trkpt>
<trkpt lat="46.1250880" lon="10.4857590">
	<ele>2654.80</ele>
	<time>2023-08-07T11:08:26.000Z</time>
</trkpt>
<trkpt lat="46.1250910" lon="10.4857570">
	<ele>2655.00</ele>
	<time>2023-08-07T11:08:27.000Z</time>
</trkpt>
<trkpt lat="46.1250930" lon="10.4857530">
	<ele>2655.00</ele>
	<time>2023-08-07T11:08:28.000Z</time>
</trkpt>
<trkpt lat="46.1250920" lon="10.4857440">
	<ele>2655.00</ele>
	<time>2023-08-07T11:08:29.000Z</time>
</trkpt>
<trkpt lat="46.1250920" lon="10.4857310">
	<ele>2655.00</ele>
	<time>2023-08-07T11:08:30.000Z</time>
</trkpt>
<trkpt lat="46.1250990" lon="10.4857280">
	<ele>2655.00</ele>
	<time>2023-08-07T11:08:31.000Z</time>
</trkpt>
<trkpt lat="46.1251040" lon="10.4857240">
	<ele>2655.00</ele>
	<time>2023-08-07T11:08:32.000Z</time>
</trkpt>
<trkpt lat="46.1251090" lon="10.4857180">
	<ele>2655.00</ele>
	<time>2023-08-07T11:08:33.000Z</time>
</trkpt>
<trkpt lat="46.1251140" lon="10.4857110">
	<ele>2655.00</ele>
	<time>2023-08-07T11:08:34.000Z</time>
</trkpt>
<trkpt lat="46.1251180" lon="10.4857020">
	<ele>2655.00</ele>
	<time>2023-08-07T11:08:35.000Z</time>
</trkpt>
<trkpt lat="46.1251220" lon="10.4856930">
	<ele>2655.20</ele>
	<time>2023-08-07T11:08:36.000Z</time>
</trkpt>
<trkpt lat="46.1251250" lon="10.4856880">
	<ele>2655.40</ele>
	<time>2023-08-07T11:08:37.000Z</time>
</trkpt>
<trkpt lat="46.1251250" lon="10.4856850">
	<ele>2655.60</ele>
	<time>2023-08-07T11:08:38.000Z</time>
</trkpt>
<trkpt lat="46.1251270" lon="10.4856830">
	<ele>2655.80</ele>
	<time>2023-08-07T11:08:39.000Z</time>
</trkpt>
<trkpt lat="46.1251270" lon="10.4856820">
	<ele>2656.00</ele>
	<time>2023-08-07T11:08:40.000Z</time>
</trkpt>
<trkpt lat="46.1251270" lon="10.4856830">
	<ele>2656.20</ele>
	<time>2023-08-07T11:08:41.000Z</time>
</trkpt>
<trkpt lat="46.1251280" lon="10.4856840">
	<ele>2656.20</ele>
	<time>2023-08-07T11:08:42.000Z</time>
</trkpt>
<trkpt lat="46.1251290" lon="10.4856780">
	<ele>2656.20</ele>
	<time>2023-08-07T11:08:43.000Z</time>
</trkpt>
<trkpt lat="46.1251290" lon="10.4856720">
	<ele>2656.20</ele>
	<time>2023-08-07T11:08:44.000Z</time>
</trkpt>
<trkpt lat="46.1251280" lon="10.4856670">
	<ele>2656.20</ele>
	<time>2023-08-07T11:08:45.000Z</time>
</trkpt>
<trkpt lat="46.1251320" lon="10.4856690">
	<ele>2656.20</ele>
	<time>2023-08-07T11:08:46.000Z</time>
</trkpt>
<trkpt lat="46.1251330" lon="10.4856710">
	<ele>2656.20</ele>
	<time>2023-08-07T11:08:47.000Z</time>
</trkpt>
<trkpt lat="46.1251390" lon="10.4856690">
	<ele>2656.20</ele>
	<time>2023-08-07T11:08:48.000Z</time>
</trkpt>
<trkpt lat="46.1251480" lon="10.4856710">
	<ele>2656.40</ele>
	<time>2023-08-07T11:08:49.000Z</time>
</trkpt>
<trkpt lat="46.1251510" lon="10.4856730">
	<ele>2656.40</ele>
	<time>2023-08-07T11:08:50.000Z</time>
</trkpt>
<trkpt lat="46.1251600" lon="10.4856720">
	<ele>2656.60</ele>
	<time>2023-08-07T11:08:51.000Z</time>
</trkpt>
<trkpt lat="46.1251640" lon="10.4856670">
	<ele>2657.00</ele>
	<time>2023-08-07T11:08:52.000Z</time>
</trkpt>
<trkpt lat="46.1251670" lon="10.4856670">
	<ele>2657.40</ele>
	<time>2023-08-07T11:08:53.000Z</time>
</trkpt>
<trkpt lat="46.1251680" lon="10.4856680">
	<ele>2657.80</ele>
	<time>2023-08-07T11:08:54.000Z</time>
</trkpt>
<trkpt lat="46.1251670" lon="10.4856680">
	<ele>2658.00</ele>
	<time>2023-08-07T11:08:55.000Z</time>
</trkpt>
<trkpt lat="46.1251680" lon="10.4856670">
	<ele>2658.00</ele>
	<time>2023-08-07T11:08:56.000Z</time>
</trkpt>
<trkpt lat="46.1251690" lon="10.4856670">
	<ele>2658.00</ele>
	<time>2023-08-07T11:08:57.000Z</time>
</trkpt>
<trkpt lat="46.1251720" lon="10.4856660">
	<ele>2658.20</ele>
	<time>2023-08-07T11:08:58.000Z</time>
</trkpt>
<trkpt lat="46.1251710" lon="10.4856610">
	<ele>2658.20</ele>
	<time>2023-08-07T11:08:59.000Z</time>
</trkpt>
<trkpt lat="46.1251690" lon="10.4856550">
	<ele>2658.20</ele>
	<time>2023-08-07T11:09:00.000Z</time>
</trkpt>
<trkpt lat="46.1251690" lon="10.4856510">
	<ele>2658.20</ele>
	<time>2023-08-07T11:09:01.000Z</time>
</trkpt>
<trkpt lat="46.1251710" lon="10.4856530">
	<ele>2658.20</ele>
	<time>2023-08-07T11:09:02.000Z</time>
</trkpt>
<trkpt lat="46.1251720" lon="10.4856530">
	<ele>2658.40</ele>
	<time>2023-08-07T11:09:03.000Z</time>
</trkpt>
<trkpt lat="46.1251730" lon="10.4856490">
	<ele>2658.40</ele>
	<time>2023-08-07T11:09:04.000Z</time>
</trkpt>
<trkpt lat="46.1251720" lon="10.4856480">
	<ele>2658.40</ele>
	<time>2023-08-07T11:09:05.000Z</time>
</trkpt>
<trkpt lat="46.1251720" lon="10.4856460">
	<ele>2658.40</ele>
	<time>2023-08-07T11:09:06.000Z</time>
</trkpt>
<trkpt lat="46.1251720" lon="10.4856400">
	<ele>2658.40</ele>
	<time>2023-08-07T11:09:07.000Z</time>
</trkpt>
<trkpt lat="46.1251700" lon="10.4856310">
	<ele>2658.40</ele>
	<time>2023-08-07T11:09:08.000Z</time>
</trkpt>
<trkpt lat="46.1251680" lon="10.4856210">
	<ele>2658.20</ele>
	<time>2023-08-07T11:09:09.000Z</time>
</trkpt>
<trkpt lat="46.1251700" lon="10.4856090">
	<ele>2658.20</ele>
	<time>2023-08-07T11:09:10.000Z</time>
</trkpt>
<trkpt lat="46.1251730" lon="10.4856020">
	<ele>2658.00</ele>
	<time>2023-08-07T11:09:11.000Z</time>
</trkpt>
<trkpt lat="46.1251730" lon="10.4855950">
	<ele>2657.80</ele>
	<time>2023-08-07T11:09:12.000Z</time>
</trkpt>
<trkpt lat="46.1251740" lon="10.4855890">
	<ele>2657.80</ele>
	<time>2023-08-07T11:09:13.000Z</time>
</trkpt>
<trkpt lat="46.1251760" lon="10.4855840">
	<ele>2657.60</ele>
	<time>2023-08-07T11:09:14.000Z</time>
</trkpt>
<trkpt lat="46.1251760" lon="10.4855800">
	<ele>2657.60</ele>
	<time>2023-08-07T11:09:15.000Z</time>
</trkpt>
<trkpt lat="46.1251800" lon="10.4855750">
	<ele>2657.60</ele>
	<time>2023-08-07T11:09:16.000Z</time>
</trkpt>
<trkpt lat="46.1251860" lon="10.4855650">
	<ele>2657.60</ele>
	<time>2023-08-07T11:09:17.000Z</time>
</trkpt>
<trkpt lat="46.1251880" lon="10.4855620">
	<ele>2657.40</ele>
	<time>2023-08-07T11:09:18.000Z</time>
</trkpt>
<trkpt lat="46.1251930" lon="10.4855640">
	<ele>2657.20</ele>
	<time>2023-08-07T11:09:19.000Z</time>
</trkpt>
<trkpt lat="46.1251950" lon="10.4855600">
	<ele>2657.20</ele>
	<time>2023-08-07T11:09:20.000Z</time>
</trkpt>
<trkpt lat="46.1251920" lon="10.4855580">
	<ele>2657.00</ele>
	<time>2023-08-07T11:09:21.000Z</time>
</trkpt>
<trkpt lat="46.1251870" lon="10.4855590">
	<ele>2657.00</ele>
	<time>2023-08-07T11:09:22.000Z</time>
</trkpt>
<trkpt lat="46.1251830" lon="10.4855580">
	<ele>2657.00</ele>
	<time>2023-08-07T11:09:23.000Z</time>
</trkpt>
<trkpt lat="46.1251790" lon="10.4855550">
	<ele>2657.00</ele>
	<time>2023-08-07T11:09:24.000Z</time>
</trkpt>
<trkpt lat="46.1251770" lon="10.4855510">
	<ele>2656.80</ele>
	<time>2023-08-07T11:09:25.000Z</time>
</trkpt>
<trkpt lat="46.1251770" lon="10.4855480">
	<ele>2656.80</ele>
	<time>2023-08-07T11:09:26.000Z</time>
</trkpt>
<trkpt lat="46.1251780" lon="10.4855420">
	<ele>2656.60</ele>
	<time>2023-08-07T11:09:27.000Z</time>
</trkpt>
<trkpt lat="46.1251810" lon="10.4855360">
	<ele>2656.60</ele>
	<time>2023-08-07T11:09:28.000Z</time>
</trkpt>
<trkpt lat="46.1251810" lon="10.4855360">
	<ele>2656.60</ele>
	<time>2023-08-07T11:09:29.000Z</time>
</trkpt>
<trkpt lat="46.1251830" lon="10.4855340">
	<ele>2656.60</ele>
	<time>2023-08-07T11:09:30.000Z</time>
</trkpt>
<trkpt lat="46.1251830" lon="10.4855330">
	<ele>2656.60</ele>
	<time>2023-08-07T11:09:31.000Z</time>
</trkpt>
<trkpt lat="46.1251860" lon="10.4855310">
	<ele>2656.60</ele>
	<time>2023-08-07T11:09:32.000Z</time>
</trkpt>
<trkpt lat="46.1251880" lon="10.4855300">
	<ele>2656.60</ele>
	<time>2023-08-07T11:09:33.000Z</time>
</trkpt>
<trkpt lat="46.1251860" lon="10.4855280">
	<ele>2656.60</ele>
	<time>2023-08-07T11:09:34.000Z</time>
</trkpt>
<trkpt lat="46.1251830" lon="10.4855250">
	<ele>2656.40</ele>
	<time>2023-08-07T11:09:35.000Z</time>
</trkpt>
<trkpt lat="46.1251790" lon="10.4855200">
	<ele>2656.20</ele>
	<time>2023-08-07T11:09:36.000Z</time>
</trkpt>
<trkpt lat="46.1251760" lon="10.4855100">
	<ele>2656.00</ele>
	<time>2023-08-07T11:09:37.000Z</time>
</trkpt>
<trkpt lat="46.1251740" lon="10.4855000">
	<ele>2655.80</ele>
	<time>2023-08-07T11:09:38.000Z</time>
</trkpt>
<trkpt lat="46.1251710" lon="10.4854960">
	<ele>2655.80</ele>
	<time>2023-08-07T11:09:39.000Z</time>
</trkpt>
<trkpt lat="46.1251730" lon="10.4854950">
	<ele>2655.80</ele>
	<time>2023-08-07T11:09:40.000Z</time>
</trkpt>
<trkpt lat="46.1251700" lon="10.4854890">
	<ele>2655.80</ele>
	<time>2023-08-07T11:09:41.000Z</time>
</trkpt>
<trkpt lat="46.1251690" lon="10.4854830">
	<ele>2655.80</ele>
	<time>2023-08-07T11:09:42.000Z</time>
</trkpt>
<trkpt lat="46.1251680" lon="10.4854780">
	<ele>2655.60</ele>
	<time>2023-08-07T11:09:43.000Z</time>
</trkpt>
<trkpt lat="46.1251670" lon="10.4854690">
	<ele>2655.60</ele>
	<time>2023-08-07T11:09:44.000Z</time>
</trkpt>
<trkpt lat="46.1251670" lon="10.4854630">
	<ele>2655.60</ele>
	<time>2023-08-07T11:09:45.000Z</time>
</trkpt>
<trkpt lat="46.1251670" lon="10.4854540">
	<ele>2655.60</ele>
	<time>2023-08-07T11:09:46.000Z</time>
</trkpt>
<trkpt lat="46.1251690" lon="10.4854440">
	<ele>2655.40</ele>
	<time>2023-08-07T11:09:47.000Z</time>
</trkpt>
<trkpt lat="46.1251710" lon="10.4854350">
	<ele>2655.40</ele>
	<time>2023-08-07T11:09:48.000Z</time>
</trkpt>
<trkpt lat="46.1251730" lon="10.4854260">
	<ele>2655.40</ele>
	<time>2023-08-07T11:09:49.000Z</time>
</trkpt>
<trkpt lat="46.1251760" lon="10.4854170">
	<ele>2655.40</ele>
	<time>2023-08-07T11:09:50.000Z</time>
</trkpt>
<trkpt lat="46.1251770" lon="10.4854100">
	<ele>2655.40</ele>
	<time>2023-08-07T11:09:51.000Z</time>
</trkpt>
<trkpt lat="46.1251790" lon="10.4854030">
	<ele>2655.40</ele>
	<time>2023-08-07T11:09:52.000Z</time>
</trkpt>
<trkpt lat="46.1251740" lon="10.4854000">
	<ele>2655.60</ele>
	<time>2023-08-07T11:09:53.000Z</time>
</trkpt>
<trkpt lat="46.1251740" lon="10.4853960">
	<ele>2655.60</ele>
	<time>2023-08-07T11:09:54.000Z</time>
</trkpt>
<trkpt lat="46.1251730" lon="10.4853930">
	<ele>2655.60</ele>
	<time>2023-08-07T11:09:55.000Z</time>
</trkpt>
<trkpt lat="46.1251720" lon="10.4853930">
	<ele>2655.60</ele>
	<time>2023-08-07T11:09:56.000Z</time>
</trkpt>
<trkpt lat="46.1251670" lon="10.4853910">
	<ele>2655.60</ele>
	<time>2023-08-07T11:09:57.000Z</time>
</trkpt>
<trkpt lat="46.1251650" lon="10.4853910">
	<ele>2655.40</ele>
	<time>2023-08-07T11:09:58.000Z</time>
</trkpt>
<trkpt lat="46.1251660" lon="10.4853950">
	<ele>2655.40</ele>
	<time>2023-08-07T11:09:59.000Z</time>
</trkpt>
<trkpt lat="46.1251660" lon="10.4853960">
	<ele>2655.20</ele>
	<time>2023-08-07T11:10:00.000Z</time>
</trkpt>
<trkpt lat="46.1251660" lon="10.4853930">
	<ele>2655.20</ele>
	<time>2023-08-07T11:10:01.000Z</time>
</trkpt>
<trkpt lat="46.1251660" lon="10.4853930">
	<ele>2655.20</ele>
	<time>2023-08-07T11:10:02.000Z</time>
</trkpt>
<trkpt lat="46.1251660" lon="10.4853930">
	<ele>2655.00</ele>
	<time>2023-08-07T11:10:03.000Z</time>
</trkpt>
<trkpt lat="46.1251660" lon="10.4853930">
	<ele>2655.00</ele>
	<time>2023-08-07T11:10:04.000Z</time>
</trkpt>
<trkpt lat="46.1251660" lon="10.4853930">
	<ele>2655.00</ele>
	<time>2023-08-07T11:10:05.000Z</time>
</trkpt>
<trkpt lat="46.1251660" lon="10.4853930">
	<ele>2655.00</ele>
	<time>2023-08-07T11:10:06.000Z</time>
</trkpt>
<trkpt lat="46.1251660" lon="10.4853930">
	<ele>2655.00</ele>
	<time>2023-08-07T11:10:07.000Z</time>
</trkpt>
<trkpt lat="46.1251660" lon="10.4853930">
	<ele>2655.00</ele>
	<time>2023-08-07T11:10:08.000Z</time>
</trkpt>
<trkpt lat="46.1251660" lon="10.4853930">
	<ele>2655.00</ele>
	<time>2023-08-07T11:10:09.000Z</time>
</trkpt>
<trkpt lat="46.1251660" lon="10.4853930">
	<ele>2655.20</ele>
	<time>2023-08-07T11:10:10.000Z</time>
</trkpt>
<trkpt lat="46.1251660" lon="10.4853930">
	<ele>2655.20</ele>
	<time>2023-08-07T11:10:11.000Z</time>
</trkpt>
<trkpt lat="46.1251670" lon="10.4853930">
	<ele>2655.20</ele>
	<time>2023-08-07T11:10:12.000Z</time>
</trkpt>
<trkpt lat="46.1251700" lon="10.4853930">
	<ele>2655.40</ele>
	<time>2023-08-07T11:10:13.000Z</time>
</trkpt>
<trkpt lat="46.1251720" lon="10.4853930">
	<ele>2655.40</ele>
	<time>2023-08-07T11:10:14.000Z</time>
</trkpt>
<trkpt lat="46.1251730" lon="10.4853910">
	<ele>2655.40</ele>
	<time>2023-08-07T11:10:15.000Z</time>
</trkpt>
<trkpt lat="46.1251730" lon="10.4853910">
	<ele>2655.40</ele>
	<time>2023-08-07T11:10:16.000Z</time>
</trkpt>
<trkpt lat="46.1251730" lon="10.4853820">
	<ele>2655.40</ele>
	<time>2023-08-07T11:10:17.000Z</time>
</trkpt>
<trkpt lat="46.1251730" lon="10.4853770">
	<ele>2655.40</ele>
	<time>2023-08-07T11:10:18.000Z</time>
</trkpt>
<trkpt lat="46.1251730" lon="10.4853760">
	<ele>2655.40</ele>
	<time>2023-08-07T11:10:19.000Z</time>
</trkpt>
<trkpt lat="46.1251730" lon="10.4853750">
	<ele>2655.40</ele>
	<time>2023-08-07T11:10:20.000Z</time>
</trkpt>
<trkpt lat="46.1251730" lon="10.4853750">
	<ele>2655.20</ele>
	<time>2023-08-07T11:10:21.000Z</time>
</trkpt>
<trkpt lat="46.1251730" lon="10.4853730">
	<ele>2655.00</ele>
	<time>2023-08-07T11:10:22.000Z</time>
</trkpt>
<trkpt lat="46.1251720" lon="10.4853690">
	<ele>2655.00</ele>
	<time>2023-08-07T11:10:23.000Z</time>
</trkpt>
<trkpt lat="46.1251710" lon="10.4853660">
	<ele>2655.00</ele>
	<time>2023-08-07T11:10:24.000Z</time>
</trkpt>
<trkpt lat="46.1251700" lon="10.4853560">
	<ele>2654.80</ele>
	<time>2023-08-07T11:10:25.000Z</time>
</trkpt>
<trkpt lat="46.1251670" lon="10.4853450">
	<ele>2654.80</ele>
	<time>2023-08-07T11:10:26.000Z</time>
</trkpt>
<trkpt lat="46.1251670" lon="10.4853370">
	<ele>2654.80</ele>
	<time>2023-08-07T11:10:27.000Z</time>
</trkpt>
<trkpt lat="46.1251670" lon="10.4853280">
	<ele>2654.60</ele>
	<time>2023-08-07T11:10:28.000Z</time>
</trkpt>
<trkpt lat="46.1251670" lon="10.4853240">
	<ele>2654.60</ele>
	<time>2023-08-07T11:10:29.000Z</time>
</trkpt>
<trkpt lat="46.1251670" lon="10.4853220">
	<ele>2654.60</ele>
	<time>2023-08-07T11:10:30.000Z</time>
</trkpt>
<trkpt lat="46.1251670" lon="10.4853200">
	<ele>2654.60</ele>
	<time>2023-08-07T11:10:31.000Z</time>
</trkpt>
<trkpt lat="46.1251660" lon="10.4853130">
	<ele>2654.60</ele>
	<time>2023-08-07T11:10:32.000Z</time>
</trkpt>
<trkpt lat="46.1251660" lon="10.4853050">
	<ele>2654.60</ele>
	<time>2023-08-07T11:10:33.000Z</time>
</trkpt>
<trkpt lat="46.1251630" lon="10.4852980">
	<ele>2654.60</ele>
	<time>2023-08-07T11:10:34.000Z</time>
</trkpt>
<trkpt lat="46.1251570" lon="10.4852970">
	<ele>2654.60</ele>
	<time>2023-08-07T11:10:35.000Z</time>
</trkpt>
<trkpt lat="46.1251510" lon="10.4852970">
	<ele>2654.60</ele>
	<time>2023-08-07T11:10:36.000Z</time>
</trkpt>
<trkpt lat="46.1251490" lon="10.4852900">
	<ele>2654.40</ele>
	<time>2023-08-07T11:10:37.000Z</time>
</trkpt>
<trkpt lat="46.1251480" lon="10.4852810">
	<ele>2654.40</ele>
	<time>2023-08-07T11:10:38.000Z</time>
</trkpt>
<trkpt lat="46.1251480" lon="10.4852740">
	<ele>2654.40</ele>
	<time>2023-08-07T11:10:39.000Z</time>
</trkpt>
<trkpt lat="46.1251470" lon="10.4852720">
	<ele>2654.20</ele>
	<time>2023-08-07T11:10:40.000Z</time>
</trkpt>
<trkpt lat="46.1251460" lon="10.4852720">
	<ele>2654.20</ele>
	<time>2023-08-07T11:10:41.000Z</time>
</trkpt>
<trkpt lat="46.1251440" lon="10.4852720">
	<ele>2654.20</ele>
	<time>2023-08-07T11:10:42.000Z</time>
</trkpt>
<trkpt lat="46.1251430" lon="10.4852720">
	<ele>2654.20</ele>
	<time>2023-08-07T11:10:43.000Z</time>
</trkpt>
<trkpt lat="46.1251420" lon="10.4852720">
	<ele>2654.20</ele>
	<time>2023-08-07T11:10:44.000Z</time>
</trkpt>
<trkpt lat="46.1251380" lon="10.4852720">
	<ele>2654.20</ele>
	<time>2023-08-07T11:10:45.000Z</time>
</trkpt>
<trkpt lat="46.1251370" lon="10.4852720">
	<ele>2654.20</ele>
	<time>2023-08-07T11:10:46.000Z</time>
</trkpt>
<trkpt lat="46.1251350" lon="10.4852720">
	<ele>2654.20</ele>
	<time>2023-08-07T11:10:47.000Z</time>
</trkpt>
<trkpt lat="46.1251340" lon="10.4852720">
	<ele>2654.20</ele>
	<time>2023-08-07T11:10:48.000Z</time>
</trkpt>
<trkpt lat="46.1251340" lon="10.4852720">
	<ele>2654.00</ele>
	<time>2023-08-07T11:10:49.000Z</time>
</trkpt>
<trkpt lat="46.1251340" lon="10.4852720">
	<ele>2654.00</ele>
	<time>2023-08-07T11:10:50.000Z</time>
</trkpt>
<trkpt lat="46.1251310" lon="10.4852720">
	<ele>2654.00</ele>
	<time>2023-08-07T11:10:51.000Z</time>
</trkpt>
<trkpt lat="46.1251270" lon="10.4852720">
	<ele>2654.00</ele>
	<time>2023-08-07T11:10:52.000Z</time>
</trkpt>
<trkpt lat="46.1251230" lon="10.4852720">
	<ele>2654.00</ele>
	<time>2023-08-07T11:10:53.000Z</time>
</trkpt>
<trkpt lat="46.1251220" lon="10.4852730">
	<ele>2654.00</ele>
	<time>2023-08-07T11:10:54.000Z</time>
</trkpt>
<trkpt lat="46.1251190" lon="10.4852800">
	<ele>2654.00</ele>
	<time>2023-08-07T11:10:55.000Z</time>
</trkpt>
<trkpt lat="46.1251150" lon="10.4852810">
	<ele>2654.00</ele>
	<time>2023-08-07T11:10:56.000Z</time>
</trkpt>
<trkpt lat="46.1251120" lon="10.4852820">
	<ele>2654.00</ele>
	<time>2023-08-07T11:10:57.000Z</time>
</trkpt>
<trkpt lat="46.1251080" lon="10.4852820">
	<ele>2654.00</ele>
	<time>2023-08-07T11:10:58.000Z</time>
</trkpt>
<trkpt lat="46.1251060" lon="10.4852820">
	<ele>2654.00</ele>
	<time>2023-08-07T11:10:59.000Z</time>
</trkpt>
<trkpt lat="46.1251050" lon="10.4852820">
	<ele>2654.00</ele>
	<time>2023-08-07T11:11:00.000Z</time>
</trkpt>
<trkpt lat="46.1251010" lon="10.4852820">
	<ele>2654.00</ele>
	<time>2023-08-07T11:11:01.000Z</time>
</trkpt>
<trkpt lat="46.1250970" lon="10.4852820">
	<ele>2654.00</ele>
	<time>2023-08-07T11:11:02.000Z</time>
</trkpt>
<trkpt lat="46.1250950" lon="10.4852820">
	<ele>2654.20</ele>
	<time>2023-08-07T11:11:03.000Z</time>
</trkpt>
<trkpt lat="46.1250940" lon="10.4852820">
	<ele>2654.40</ele>
	<time>2023-08-07T11:11:04.000Z</time>
</trkpt>
<trkpt lat="46.1250930" lon="10.4852820">
	<ele>2654.60</ele>
	<time>2023-08-07T11:11:05.000Z</time>
</trkpt>
<trkpt lat="46.1250920" lon="10.4852820">
	<ele>2654.60</ele>
	<time>2023-08-07T11:11:06.000Z</time>
</trkpt>
<trkpt lat="46.1250890" lon="10.4852820">
	<ele>2654.80</ele>
	<time>2023-08-07T11:11:07.000Z</time>
</trkpt>
<trkpt lat="46.1250860" lon="10.4852820">
	<ele>2654.80</ele>
	<time>2023-08-07T11:11:08.000Z</time>
</trkpt>
<trkpt lat="46.1250800" lon="10.4852820">
	<ele>2655.00</ele>
	<time>2023-08-07T11:11:09.000Z</time>
</trkpt>
<trkpt lat="46.1250760" lon="10.4852800">
	<ele>2655.00</ele>
	<time>2023-08-07T11:11:10.000Z</time>
</trkpt>
<trkpt lat="46.1250740" lon="10.4852770">
	<ele>2655.00</ele>
	<time>2023-08-07T11:11:11.000Z</time>
</trkpt>
<trkpt lat="46.1250730" lon="10.4852700">
	<ele>2655.20</ele>
	<time>2023-08-07T11:11:12.000Z</time>
</trkpt>
<trkpt lat="46.1250730" lon="10.4852590">
	<ele>2655.20</ele>
	<time>2023-08-07T11:11:13.000Z</time>
</trkpt>
<trkpt lat="46.1250730" lon="10.4852470">
	<ele>2655.20</ele>
	<time>2023-08-07T11:11:14.000Z</time>
</trkpt>
<trkpt lat="46.1250720" lon="10.4852350">
	<ele>2655.20</ele>
	<time>2023-08-07T11:11:15.000Z</time>
</trkpt>
<trkpt lat="46.1250720" lon="10.4852270">
	<ele>2655.20</ele>
	<time>2023-08-07T11:11:16.000Z</time>
</trkpt>
<trkpt lat="46.1250720" lon="10.4852210">
	<ele>2655.20</ele>
	<time>2023-08-07T11:11:17.000Z</time>
</trkpt>
<trkpt lat="46.1250720" lon="10.4852170">
	<ele>2655.20</ele>
	<time>2023-08-07T11:11:18.000Z</time>
</trkpt>
<trkpt lat="46.1250720" lon="10.4852130">
	<ele>2655.20</ele>
	<time>2023-08-07T11:11:19.000Z</time>
</trkpt>
<trkpt lat="46.1250720" lon="10.4852100">
	<ele>2655.20</ele>
	<time>2023-08-07T11:11:20.000Z</time>
</trkpt>
<trkpt lat="46.1250710" lon="10.4852080">
	<ele>2655.20</ele>
	<time>2023-08-07T11:11:21.000Z</time>
</trkpt>
<trkpt lat="46.1250710" lon="10.4852070">
	<ele>2655.20</ele>
	<time>2023-08-07T11:11:22.000Z</time>
</trkpt>
<trkpt lat="46.1250700" lon="10.4852050">
	<ele>2655.20</ele>
	<time>2023-08-07T11:11:23.000Z</time>
</trkpt>
<trkpt lat="46.1250700" lon="10.4852000">
	<ele>2655.20</ele>
	<time>2023-08-07T11:11:24.000Z</time>
</trkpt>
<trkpt lat="46.1250700" lon="10.4851930">
	<ele>2655.20</ele>
	<time>2023-08-07T11:11:25.000Z</time>
</trkpt>
<trkpt lat="46.1250700" lon="10.4851880">
	<ele>2655.20</ele>
	<time>2023-08-07T11:11:26.000Z</time>
</trkpt>
<trkpt lat="46.1250700" lon="10.4851830">
	<ele>2655.20</ele>
	<time>2023-08-07T11:11:27.000Z</time>
</trkpt>
<trkpt lat="46.1250700" lon="10.4851790">
	<ele>2655.20</ele>
	<time>2023-08-07T11:11:28.000Z</time>
</trkpt>
<trkpt lat="46.1250700" lon="10.4851770">
	<ele>2655.40</ele>
	<time>2023-08-07T11:11:29.000Z</time>
</trkpt>
<trkpt lat="46.1250700" lon="10.4851760">
	<ele>2655.40</ele>
	<time>2023-08-07T11:11:30.000Z</time>
</trkpt>
<trkpt lat="46.1250700" lon="10.4851740">
	<ele>2655.40</ele>
	<time>2023-08-07T11:11:31.000Z</time>
</trkpt>
<trkpt lat="46.1250700" lon="10.4851740">
	<ele>2655.60</ele>
	<time>2023-08-07T11:11:32.000Z</time>
</trkpt>
<trkpt lat="46.1250700" lon="10.4851730">
	<ele>2655.60</ele>
	<time>2023-08-07T11:11:33.000Z</time>
</trkpt>
<trkpt lat="46.1250700" lon="10.4851710">
	<ele>2655.60</ele>
	<time>2023-08-07T11:11:34.000Z</time>
</trkpt>
<trkpt lat="46.1250700" lon="10.4851710">
	<ele>2655.60</ele>
	<time>2023-08-07T11:11:35.000Z</time>
</trkpt>
<trkpt lat="46.1250700" lon="10.4851700">
	<ele>2655.60</ele>
	<time>2023-08-07T11:11:36.000Z</time>
</trkpt>
<trkpt lat="46.1250700" lon="10.4851690">
	<ele>2655.60</ele>
	<time>2023-08-07T11:11:37.000Z</time>
</trkpt>
<trkpt lat="46.1250700" lon="10.4851670">
	<ele>2655.60</ele>
	<time>2023-08-07T11:11:38.000Z</time>
</trkpt>
<trkpt lat="46.1250700" lon="10.4851650">
	<ele>2655.60</ele>
	<time>2023-08-07T11:11:39.000Z</time>
</trkpt>
<trkpt lat="46.1250700" lon="10.4851620">
	<ele>2655.60</ele>
	<time>2023-08-07T11:11:40.000Z</time>
</trkpt>
<trkpt lat="46.1250700" lon="10.4851590">
	<ele>2655.80</ele>
	<time>2023-08-07T11:11:41.000Z</time>
</trkpt>
<trkpt lat="46.1250700" lon="10.4851570">
	<ele>2655.80</ele>
	<time>2023-08-07T11:11:42.000Z</time>
</trkpt>
<trkpt lat="46.1250700" lon="10.4851480">
	<ele>2656.00</ele>
	<time>2023-08-07T11:11:43.000Z</time>
</trkpt>
<trkpt lat="46.1250700" lon="10.4851410">
	<ele>2656.00</ele>
	<time>2023-08-07T11:11:44.000Z</time>
</trkpt>
<trkpt lat="46.1250690" lon="10.4851360">
	<ele>2656.00</ele>
	<time>2023-08-07T11:11:45.000Z</time>
</trkpt>
<trkpt lat="46.1250690" lon="10.4851320">
	<ele>2656.00</ele>
	<time>2023-08-07T11:11:46.000Z</time>
</trkpt>
<trkpt lat="46.1250670" lon="10.4851260">
	<ele>2656.00</ele>
	<time>2023-08-07T11:11:47.000Z</time>
</trkpt>
<trkpt lat="46.1250650" lon="10.4851180">
	<ele>2656.00</ele>
	<time>2023-08-07T11:11:48.000Z</time>
</trkpt>
<trkpt lat="46.1250610" lon="10.4851130">
	<ele>2656.00</ele>
	<time>2023-08-07T11:11:49.000Z</time>
</trkpt>
<trkpt lat="46.1250570" lon="10.4851110">
	<ele>2656.00</ele>
	<time>2023-08-07T11:11:50.000Z</time>
</trkpt>
<trkpt lat="46.1250530" lon="10.4851090">
	<ele>2655.80</ele>
	<time>2023-08-07T11:11:51.000Z</time>
</trkpt>
<trkpt lat="46.1250500" lon="10.4851060">
	<ele>2655.80</ele>
	<time>2023-08-07T11:11:52.000Z</time>
</trkpt>
<trkpt lat="46.1250480" lon="10.4851020">
	<ele>2655.80</ele>
	<time>2023-08-07T11:11:53.000Z</time>
</trkpt>
<trkpt lat="46.1250460" lon="10.4850990">
	<ele>2655.80</ele>
	<time>2023-08-07T11:11:54.000Z</time>
</trkpt>
<trkpt lat="46.1250460" lon="10.4850960">
	<ele>2655.80</ele>
	<time>2023-08-07T11:11:55.000Z</time>
</trkpt>
<trkpt lat="46.1250450" lon="10.4850950">
	<ele>2655.60</ele>
	<time>2023-08-07T11:11:56.000Z</time>
</trkpt>
<trkpt lat="46.1250440" lon="10.4850930">
	<ele>2655.60</ele>
	<time>2023-08-07T11:11:57.000Z</time>
</trkpt>
<trkpt lat="46.1250430" lon="10.4850920">
	<ele>2655.40</ele>
	<time>2023-08-07T11:11:58.000Z</time>
</trkpt>
<trkpt lat="46.1250420" lon="10.4850910">
	<ele>2655.40</ele>
	<time>2023-08-07T11:11:59.000Z</time>
</trkpt>
<trkpt lat="46.1250420" lon="10.4850910">
	<ele>2655.40</ele>
	<time>2023-08-07T11:12:00.000Z</time>
</trkpt>
<trkpt lat="46.1250410" lon="10.4850900">
	<ele>2655.40</ele>
	<time>2023-08-07T11:12:01.000Z</time>
</trkpt>
<trkpt lat="46.1250400" lon="10.4850900">
	<ele>2655.40</ele>
	<time>2023-08-07T11:12:02.000Z</time>
</trkpt>
<trkpt lat="46.1250390" lon="10.4850890">
	<ele>2655.20</ele>
	<time>2023-08-07T11:12:03.000Z</time>
</trkpt>
<trkpt lat="46.1250380" lon="10.4850880">
	<ele>2655.20</ele>
	<time>2023-08-07T11:12:04.000Z</time>
</trkpt>
<trkpt lat="46.1250370" lon="10.4850870">
	<ele>2655.20</ele>
	<time>2023-08-07T11:12:05.000Z</time>
</trkpt>
<trkpt lat="46.1250330" lon="10.4850860">
	<ele>2655.20</ele>
	<time>2023-08-07T11:12:06.000Z</time>
</trkpt>
<trkpt lat="46.1250290" lon="10.4850850">
	<ele>2655.20</ele>
	<time>2023-08-07T11:12:07.000Z</time>
</trkpt>
<trkpt lat="46.1250220" lon="10.4850800">
	<ele>2655.20</ele>
	<time>2023-08-07T11:12:08.000Z</time>
</trkpt>
<trkpt lat="46.1250150" lon="10.4850680">
	<ele>2655.40</ele>
	<time>2023-08-07T11:12:09.000Z</time>
</trkpt>
<trkpt lat="46.1250070" lon="10.4850470">
	<ele>2655.40</ele>
	<time>2023-08-07T11:12:10.000Z</time>
</trkpt>
<trkpt lat="46.1249950" lon="10.4850330">
	<ele>2655.60</ele>
	<time>2023-08-07T11:12:11.000Z</time>
</trkpt>
<trkpt lat="46.1249830" lon="10.4850270">
	<ele>2655.60</ele>
	<time>2023-08-07T11:12:12.000Z</time>
</trkpt>
<trkpt lat="46.1249740" lon="10.4850210">
	<ele>2655.60</ele>
	<time>2023-08-07T11:12:13.000Z</time>
</trkpt>
<trkpt lat="46.1249590" lon="10.4850190">
	<ele>2655.60</ele>
	<time>2023-08-07T11:12:14.000Z</time>
</trkpt>
<trkpt lat="46.1249490" lon="10.4850160">
	<ele>2655.60</ele>
	<time>2023-08-07T11:12:15.000Z</time>
</trkpt>
<trkpt lat="46.1249390" lon="10.4850100">
	<ele>2655.60</ele>
	<time>2023-08-07T11:12:16.000Z</time>
</trkpt>
<trkpt lat="46.1249290" lon="10.4850120">
	<ele>2655.60</ele>
	<time>2023-08-07T11:12:17.000Z</time>
</trkpt>
<trkpt lat="46.1249270" lon="10.4850090">
	<ele>2655.60</ele>
	<time>2023-08-07T11:12:18.000Z</time>
</trkpt>
<trkpt lat="46.1249190" lon="10.4850110">
	<ele>2655.60</ele>
	<time>2023-08-07T11:12:19.000Z</time>
</trkpt>
<trkpt lat="46.1249120" lon="10.4850070">
	<ele>2655.60</ele>
	<time>2023-08-07T11:12:20.000Z</time>
</trkpt>
<trkpt lat="46.1249110" lon="10.4850010">
	<ele>2655.60</ele>
	<time>2023-08-07T11:12:21.000Z</time>
</trkpt>
<trkpt lat="46.1249110" lon="10.4849970">
	<ele>2655.80</ele>
	<time>2023-08-07T11:12:22.000Z</time>
</trkpt>
<trkpt lat="46.1249120" lon="10.4849940">
	<ele>2655.80</ele>
	<time>2023-08-07T11:12:23.000Z</time>
</trkpt>
<trkpt lat="46.1249140" lon="10.4849860">
	<ele>2655.80</ele>
	<time>2023-08-07T11:12:24.000Z</time>
</trkpt>
<trkpt lat="46.1249160" lon="10.4849770">
	<ele>2655.80</ele>
	<time>2023-08-07T11:12:25.000Z</time>
</trkpt>
<trkpt lat="46.1249180" lon="10.4849700">
	<ele>2655.60</ele>
	<time>2023-08-07T11:12:26.000Z</time>
</trkpt>
<trkpt lat="46.1249200" lon="10.4849670">
	<ele>2655.60</ele>
	<time>2023-08-07T11:12:27.000Z</time>
</trkpt>
<trkpt lat="46.1249190" lon="10.4849660">
	<ele>2655.60</ele>
	<time>2023-08-07T11:12:28.000Z</time>
</trkpt>
<trkpt lat="46.1249210" lon="10.4849630">
	<ele>2655.60</ele>
	<time>2023-08-07T11:12:29.000Z</time>
</trkpt>
<trkpt lat="46.1249220" lon="10.4849600">
	<ele>2655.40</ele>
	<time>2023-08-07T11:12:30.000Z</time>
</trkpt>
<trkpt lat="46.1249220" lon="10.4849580">
	<ele>2655.40</ele>
	<time>2023-08-07T11:12:31.000Z</time>
</trkpt>
<trkpt lat="46.1249210" lon="10.4849560">
	<ele>2655.20</ele>
	<time>2023-08-07T11:12:32.000Z</time>
</trkpt>
<trkpt lat="46.1249170" lon="10.4849580">
	<ele>2655.20</ele>
	<time>2023-08-07T11:12:33.000Z</time>
</trkpt>
<trkpt lat="46.1249140" lon="10.4849590">
	<ele>2655.20</ele>
	<time>2023-08-07T11:12:34.000Z</time>
</trkpt>
<trkpt lat="46.1249120" lon="10.4849560">
	<ele>2655.20</ele>
	<time>2023-08-07T11:12:35.000Z</time>
</trkpt>
<trkpt lat="46.1249080" lon="10.4849470">
	<ele>2655.00</ele>
	<time>2023-08-07T11:12:36.000Z</time>
</trkpt>
<trkpt lat="46.1249060" lon="10.4849390">
	<ele>2655.00</ele>
	<time>2023-08-07T11:12:37.000Z</time>
</trkpt>
<trkpt lat="46.1249070" lon="10.4849290">
	<ele>2655.00</ele>
	<time>2023-08-07T11:12:38.000Z</time>
</trkpt>
<trkpt lat="46.1249100" lon="10.4849200">
	<ele>2655.00</ele>
	<time>2023-08-07T11:12:39.000Z</time>
</trkpt>
<trkpt lat="46.1249090" lon="10.4849150">
	<ele>2655.00</ele>
	<time>2023-08-07T11:12:40.000Z</time>
</trkpt>
<trkpt lat="46.1249100" lon="10.4849110">
	<ele>2655.00</ele>
	<time>2023-08-07T11:12:41.000Z</time>
</trkpt>
<trkpt lat="46.1249080" lon="10.4849080">
	<ele>2655.20</ele>
	<time>2023-08-07T11:12:42.000Z</time>
</trkpt>
<trkpt lat="46.1249060" lon="10.4849060">
	<ele>2655.20</ele>
	<time>2023-08-07T11:12:43.000Z</time>
</trkpt>
<trkpt lat="46.1249050" lon="10.4849020">
	<ele>2655.40</ele>
	<time>2023-08-07T11:12:44.000Z</time>
</trkpt>
<trkpt lat="46.1249070" lon="10.4848980">
	<ele>2656.00</ele>
	<time>2023-08-07T11:12:45.000Z</time>
</trkpt>
<trkpt lat="46.1249080" lon="10.4848950">
	<ele>2656.00</ele>
	<time>2023-08-07T11:12:46.000Z</time>
</trkpt>
<trkpt lat="46.1249080" lon="10.4848890">
	<ele>2656.00</ele>
	<time>2023-08-07T11:12:47.000Z</time>
</trkpt>
<trkpt lat="46.1249080" lon="10.4848820">
	<ele>2656.00</ele>
	<time>2023-08-07T11:12:48.000Z</time>
</trkpt>
<trkpt lat="46.1249080" lon="10.4848760">
	<ele>2656.00</ele>
	<time>2023-08-07T11:12:49.000Z</time>
</trkpt>
<trkpt lat="46.1249100" lon="10.4848720">
	<ele>2656.00</ele>
	<time>2023-08-07T11:12:50.000Z</time>
</trkpt>
<trkpt lat="46.1249120" lon="10.4848680">
	<ele>2656.00</ele>
	<time>2023-08-07T11:12:51.000Z</time>
</trkpt>
<trkpt lat="46.1249180" lon="10.4848610">
	<ele>2656.00</ele>
	<time>2023-08-07T11:12:52.000Z</time>
</trkpt>
<trkpt lat="46.1249200" lon="10.4848550">
	<ele>2656.00</ele>
	<time>2023-08-07T11:12:53.000Z</time>
</trkpt>
<trkpt lat="46.1249220" lon="10.4848470">
	<ele>2656.00</ele>
	<time>2023-08-07T11:12:54.000Z</time>
</trkpt>
<trkpt lat="46.1249270" lon="10.4848380">
	<ele>2656.00</ele>
	<time>2023-08-07T11:12:55.000Z</time>
</trkpt>
<trkpt lat="46.1249320" lon="10.4848270">
	<ele>2656.00</ele>
	<time>2023-08-07T11:12:56.000Z</time>
</trkpt>
<trkpt lat="46.1249340" lon="10.4848160">
	<ele>2656.00</ele>
	<time>2023-08-07T11:12:57.000Z</time>
</trkpt>
<trkpt lat="46.1249320" lon="10.4848130">
	<ele>2656.00</ele>
	<time>2023-08-07T11:12:58.000Z</time>
</trkpt>
<trkpt lat="46.1249280" lon="10.4848080">
	<ele>2656.00</ele>
	<time>2023-08-07T11:12:59.000Z</time>
</trkpt>
<trkpt lat="46.1249260" lon="10.4848020">
	<ele>2656.00</ele>
	<time>2023-08-07T11:13:00.000Z</time>
</trkpt>
<trkpt lat="46.1249240" lon="10.4847990">
	<ele>2656.00</ele>
	<time>2023-08-07T11:13:01.000Z</time>
</trkpt>
<trkpt lat="46.1249220" lon="10.4847950">
	<ele>2656.00</ele>
	<time>2023-08-07T11:13:02.000Z</time>
</trkpt>
<trkpt lat="46.1249210" lon="10.4847900">
	<ele>2656.00</ele>
	<time>2023-08-07T11:13:03.000Z</time>
</trkpt>
<trkpt lat="46.1249180" lon="10.4847800">
	<ele>2656.00</ele>
	<time>2023-08-07T11:13:04.000Z</time>
</trkpt>
<trkpt lat="46.1249160" lon="10.4847670">
	<ele>2656.00</ele>
	<time>2023-08-07T11:13:05.000Z</time>
</trkpt>
<trkpt lat="46.1249160" lon="10.4847620">
	<ele>2656.00</ele>
	<time>2023-08-07T11:13:06.000Z</time>
</trkpt>
<trkpt lat="46.1249150" lon="10.4847610">
	<ele>2656.00</ele>
	<time>2023-08-07T11:13:07.000Z</time>
</trkpt>
<trkpt lat="46.1249140" lon="10.4847630">
	<ele>2656.00</ele>
	<time>2023-08-07T11:13:08.000Z</time>
</trkpt>
<trkpt lat="46.1249130" lon="10.4847650">
	<ele>2656.00</ele>
	<time>2023-08-07T11:13:09.000Z</time>
</trkpt>
<trkpt lat="46.1249110" lon="10.4847670">
	<ele>2656.00</ele>
	<time>2023-08-07T11:13:10.000Z</time>
</trkpt>
<trkpt lat="46.1249090" lon="10.4847670">
	<ele>2656.00</ele>
	<time>2023-08-07T11:13:11.000Z</time>
</trkpt>
<trkpt lat="46.1249030" lon="10.4847650">
	<ele>2656.00</ele>
	<time>2023-08-07T11:13:12.000Z</time>
</trkpt>
<trkpt lat="46.1248980" lon="10.4847600">
	<ele>2656.00</ele>
	<time>2023-08-07T11:13:13.000Z</time>
</trkpt>
<trkpt lat="46.1248960" lon="10.4847540">
	<ele>2656.00</ele>
	<time>2023-08-07T11:13:14.000Z</time>
</trkpt>
<trkpt lat="46.1248940" lon="10.4847480">
	<ele>2656.00</ele>
	<time>2023-08-07T11:13:15.000Z</time>
</trkpt>
<trkpt lat="46.1248930" lon="10.4847440">
	<ele>2656.00</ele>
	<time>2023-08-07T11:13:16.000Z</time>
</trkpt>
<trkpt lat="46.1248930" lon="10.4847380">
	<ele>2656.00</ele>
	<time>2023-08-07T11:13:17.000Z</time>
</trkpt>
<trkpt lat="46.1248920" lon="10.4847370">
	<ele>2656.00</ele>
	<time>2023-08-07T11:13:18.000Z</time>
</trkpt>
<trkpt lat="46.1248900" lon="10.4847370">
	<ele>2656.00</ele>
	<time>2023-08-07T11:13:19.000Z</time>
</trkpt>
<trkpt lat="46.1248870" lon="10.4847350">
	<ele>2656.00</ele>
	<time>2023-08-07T11:13:20.000Z</time>
</trkpt>
<trkpt lat="46.1248860" lon="10.4847320">
	<ele>2656.00</ele>
	<time>2023-08-07T11:13:21.000Z</time>
</trkpt>
<trkpt lat="46.1248870" lon="10.4847300">
	<ele>2656.00</ele>
	<time>2023-08-07T11:13:22.000Z</time>
</trkpt>
<trkpt lat="46.1248870" lon="10.4847260">
	<ele>2656.00</ele>
	<time>2023-08-07T11:13:23.000Z</time>
</trkpt>
<trkpt lat="46.1248870" lon="10.4847230">
	<ele>2656.00</ele>
	<time>2023-08-07T11:13:24.000Z</time>
</trkpt>
<trkpt lat="46.1248880" lon="10.4847240">
	<ele>2656.00</ele>
	<time>2023-08-07T11:13:25.000Z</time>
</trkpt>
<trkpt lat="46.1248950" lon="10.4847210">
	<ele>2656.00</ele>
	<time>2023-08-07T11:13:26.000Z</time>
</trkpt>
<trkpt lat="46.1248970" lon="10.4847200">
	<ele>2656.00</ele>
	<time>2023-08-07T11:13:27.000Z</time>
</trkpt>
<trkpt lat="46.1248980" lon="10.4847210">
	<ele>2656.00</ele>
	<time>2023-08-07T11:13:28.000Z</time>
</trkpt>
<trkpt lat="46.1248980" lon="10.4847210">
	<ele>2656.00</ele>
	<time>2023-08-07T11:13:29.000Z</time>
</trkpt>
<trkpt lat="46.1248980" lon="10.4847210">
	<ele>2656.00</ele>
	<time>2023-08-07T11:13:30.000Z</time>
</trkpt>
<trkpt lat="46.1248980" lon="10.4847210">
	<ele>2656.00</ele>
	<time>2023-08-07T11:13:31.000Z</time>
</trkpt>
<trkpt lat="46.1248980" lon="10.4847210">
	<ele>2656.00</ele>
	<time>2023-08-07T11:13:32.000Z</time>
</trkpt>
<trkpt lat="46.1248980" lon="10.4847210">
	<ele>2656.00</ele>
	<time>2023-08-07T11:13:33.000Z</time>
</trkpt>
<trkpt lat="46.1248980" lon="10.4847210">
	<ele>2656.00</ele>
	<time>2023-08-07T11:13:34.000Z</time>
</trkpt>
<trkpt lat="46.1248980" lon="10.4847210">
	<ele>2656.00</ele>
	<time>2023-08-07T11:13:35.000Z</time>
</trkpt>
<trkpt lat="46.1248980" lon="10.4847210">
	<ele>2656.00</ele>
	<time>2023-08-07T11:13:36.000Z</time>
</trkpt>
<trkpt lat="46.1248980" lon="10.4847210">
	<ele>2656.00</ele>
	<time>2023-08-07T11:13:37.000Z</time>
</trkpt>
<trkpt lat="46.1248980" lon="10.4847210">
	<ele>2656.00</ele>
	<time>2023-08-07T11:13:38.000Z</time>
</trkpt>
<trkpt lat="46.1248980" lon="10.4847210">
	<ele>2656.00</ele>
	<time>2023-08-07T11:13:39.000Z</time>
</trkpt>
<trkpt lat="46.1248980" lon="10.4847210">
	<ele>2656.00</ele>
	<time>2023-08-07T11:13:40.000Z</time>
</trkpt>
<trkpt lat="46.1248980" lon="10.4847210">
	<ele>2656.00</ele>
	<time>2023-08-07T11:13:41.000Z</time>
</trkpt>
<trkpt lat="46.1248980" lon="10.4847210">
	<ele>2656.00</ele>
	<time>2023-08-07T11:13:42.000Z</time>
</trkpt>
<trkpt lat="46.1248980" lon="10.4847210">
	<ele>2656.00</ele>
	<time>2023-08-07T11:13:43.000Z</time>
</trkpt>
<trkpt lat="46.1248980" lon="10.4847210">
	<ele>2656.00</ele>
	<time>2023-08-07T11:13:44.000Z</time>
</trkpt>
<trkpt lat="46.1248980" lon="10.4847210">
	<ele>2656.00</ele>
	<time>2023-08-07T11:13:45.000Z</time>
</trkpt>
<trkpt lat="46.1248970" lon="10.4847200">
	<ele>2656.00</ele>
	<time>2023-08-07T11:13:46.000Z</time>
</trkpt>
<trkpt lat="46.1248960" lon="10.4847200">
	<ele>2656.00</ele>
	<time>2023-08-07T11:13:47.000Z</time>
</trkpt>
<trkpt lat="46.1248950" lon="10.4847190">
	<ele>2656.00</ele>
	<time>2023-08-07T11:13:48.000Z</time>
</trkpt>
<trkpt lat="46.1248940" lon="10.4847180">
	<ele>2656.00</ele>
	<time>2023-08-07T11:13:49.000Z</time>
</trkpt>
<trkpt lat="46.1248930" lon="10.4847120">
	<ele>2656.00</ele>
	<time>2023-08-07T11:13:50.000Z</time>
</trkpt>
<trkpt lat="46.1248940" lon="10.4847080">
	<ele>2656.00</ele>
	<time>2023-08-07T11:13:51.000Z</time>
</trkpt>
<trkpt lat="46.1248950" lon="10.4847050">
	<ele>2656.00</ele>
	<time>2023-08-07T11:13:52.000Z</time>
</trkpt>
<trkpt lat="46.1248950" lon="10.4847030">
	<ele>2656.00</ele>
	<time>2023-08-07T11:13:53.000Z</time>
</trkpt>
<trkpt lat="46.1248950" lon="10.4847010">
	<ele>2656.00</ele>
	<time>2023-08-07T11:13:54.000Z</time>
</trkpt>
<trkpt lat="46.1248950" lon="10.4846990">
	<ele>2656.00</ele>
	<time>2023-08-07T11:13:55.000Z</time>
</trkpt>
<trkpt lat="46.1248960" lon="10.4846980">
	<ele>2656.00</ele>
	<time>2023-08-07T11:13:56.000Z</time>
</trkpt>
<trkpt lat="46.1248960" lon="10.4846980">
	<ele>2656.00</ele>
	<time>2023-08-07T11:13:57.000Z</time>
</trkpt>
<trkpt lat="46.1248960" lon="10.4846980">
	<ele>2656.00</ele>
	<time>2023-08-07T11:13:58.000Z</time>
</trkpt>
<trkpt lat="46.1248960" lon="10.4846980">
	<ele>2656.00</ele>
	<time>2023-08-07T11:13:59.000Z</time>
</trkpt>
<trkpt lat="46.1248960" lon="10.4846980">
	<ele>2656.00</ele>
	<time>2023-08-07T11:14:00.000Z</time>
</trkpt>
<trkpt lat="46.1248960" lon="10.4846980">
	<ele>2656.00</ele>
	<time>2023-08-07T11:14:01.000Z</time>
</trkpt>
<trkpt lat="46.1248960" lon="10.4846980">
	<ele>2656.00</ele>
	<time>2023-08-07T11:14:02.000Z</time>
</trkpt>
<trkpt lat="46.1248960" lon="10.4846980">
	<ele>2656.00</ele>
	<time>2023-08-07T11:14:03.000Z</time>
</trkpt>
<trkpt lat="46.1248960" lon="10.4846970">
	<ele>2656.00</ele>
	<time>2023-08-07T11:14:04.000Z</time>
</trkpt>
<trkpt lat="46.1248960" lon="10.4846970">
	<ele>2656.00</ele>
	<time>2023-08-07T11:14:05.000Z</time>
</trkpt>
<trkpt lat="46.1248960" lon="10.4846970">
	<ele>2656.00</ele>
	<time>2023-08-07T11:14:06.000Z</time>
</trkpt>
<trkpt lat="46.1248960" lon="10.4846970">
	<ele>2656.00</ele>
	<time>2023-08-07T11:14:07.000Z</time>
</trkpt>
<trkpt lat="46.1248960" lon="10.4846970">
	<ele>2656.00</ele>
	<time>2023-08-07T11:14:08.000Z</time>
</trkpt>
<trkpt lat="46.1248980" lon="10.4846970">
	<ele>2656.00</ele>
	<time>2023-08-07T11:14:09.000Z</time>
</trkpt>
<trkpt lat="46.1248990" lon="10.4846960">
	<ele>2656.00</ele>
	<time>2023-08-07T11:14:10.000Z</time>
</trkpt>
<trkpt lat="46.1248990" lon="10.4846960">
	<ele>2656.00</ele>
	<time>2023-08-07T11:14:11.000Z</time>
</trkpt>
<trkpt lat="46.1248990" lon="10.4846960">
	<ele>2656.00</ele>
	<time>2023-08-07T11:14:12.000Z</time>
</trkpt>
<trkpt lat="46.1248990" lon="10.4846960">
	<ele>2656.00</ele>
	<time>2023-08-07T11:14:13.000Z</time>
</trkpt>
<trkpt lat="46.1248990" lon="10.4846960">
	<ele>2656.00</ele>
	<time>2023-08-07T11:14:14.000Z</time>
</trkpt>
<trkpt lat="46.1248990" lon="10.4846960">
	<ele>2656.00</ele>
	<time>2023-08-07T11:14:15.000Z</time>
</trkpt>
<trkpt lat="46.1248990" lon="10.4846960">
	<ele>2656.00</ele>
	<time>2023-08-07T11:14:16.000Z</time>
</trkpt>
<trkpt lat="46.1248990" lon="10.4846960">
	<ele>2656.00</ele>
	<time>2023-08-07T11:14:17.000Z</time>
</trkpt>
<trkpt lat="46.1248990" lon="10.4846960">
	<ele>2656.00</ele>
	<time>2023-08-07T11:14:18.000Z</time>
</trkpt>
<trkpt lat="46.1248990" lon="10.4846960">
	<ele>2656.00</ele>
	<time>2023-08-07T11:14:19.000Z</time>
</trkpt>
<trkpt lat="46.1248990" lon="10.4846960">
	<ele>2656.00</ele>
	<time>2023-08-07T11:14:20.000Z</time>
</trkpt>
<trkpt lat="46.1248990" lon="10.4846960">
	<ele>2656.00</ele>
	<time>2023-08-07T11:14:21.000Z</time>
</trkpt>
<trkpt lat="46.1249000" lon="10.4846960">
	<ele>2656.00</ele>
	<time>2023-08-07T11:14:22.000Z</time>
</trkpt>
<trkpt lat="46.1249000" lon="10.4846960">
	<ele>2656.00</ele>
	<time>2023-08-07T11:14:23.000Z</time>
</trkpt>
<trkpt lat="46.1249000" lon="10.4846960">
	<ele>2656.00</ele>
	<time>2023-08-07T11:14:24.000Z</time>
</trkpt>
<trkpt lat="46.1249000" lon="10.4846950">
	<ele>2656.00</ele>
	<time>2023-08-07T11:14:25.000Z</time>
</trkpt>
<trkpt lat="46.1249000" lon="10.4846940">
	<ele>2656.00</ele>
	<time>2023-08-07T11:14:26.000Z</time>
</trkpt>
<trkpt lat="46.1249000" lon="10.4846920">
	<ele>2656.00</ele>
	<time>2023-08-07T11:14:27.000Z</time>
</trkpt>
<trkpt lat="46.1249000" lon="10.4846910">
	<ele>2656.00</ele>
	<time>2023-08-07T11:14:28.000Z</time>
</trkpt>
<trkpt lat="46.1248990" lon="10.4846900">
	<ele>2656.00</ele>
	<time>2023-08-07T11:14:29.000Z</time>
</trkpt>
<trkpt lat="46.1248990" lon="10.4846900">
	<ele>2656.00</ele>
	<time>2023-08-07T11:14:30.000Z</time>
</trkpt>
<trkpt lat="46.1248990" lon="10.4846900">
	<ele>2656.00</ele>
	<time>2023-08-07T11:14:31.000Z</time>
</trkpt>
<trkpt lat="46.1248990" lon="10.4846880">
	<ele>2656.00</ele>
	<time>2023-08-07T11:14:32.000Z</time>
</trkpt>
<trkpt lat="46.1248980" lon="10.4846880">
	<ele>2656.00</ele>
	<time>2023-08-07T11:14:33.000Z</time>
</trkpt>
<trkpt lat="46.1248980" lon="10.4846870">
	<ele>2656.00</ele>
	<time>2023-08-07T11:14:34.000Z</time>
</trkpt>
<trkpt lat="46.1248980" lon="10.4846860">
	<ele>2656.00</ele>
	<time>2023-08-07T11:14:35.000Z</time>
</trkpt>
<trkpt lat="46.1248980" lon="10.4846860">
	<ele>2656.00</ele>
	<time>2023-08-07T11:14:36.000Z</time>
</trkpt>
<trkpt lat="46.1248970" lon="10.4846850">
	<ele>2656.00</ele>
	<time>2023-08-07T11:14:37.000Z</time>
</trkpt>
<trkpt lat="46.1248970" lon="10.4846850">
	<ele>2656.00</ele>
	<time>2023-08-07T11:14:38.000Z</time>
</trkpt>
<trkpt lat="46.1248970" lon="10.4846840">
	<ele>2656.00</ele>
	<time>2023-08-07T11:14:39.000Z</time>
</trkpt>
<trkpt lat="46.1248970" lon="10.4846820">
	<ele>2656.00</ele>
	<time>2023-08-07T11:14:40.000Z</time>
</trkpt>
<trkpt lat="46.1248970" lon="10.4846800">
	<ele>2656.00</ele>
	<time>2023-08-07T11:14:41.000Z</time>
</trkpt>
<trkpt lat="46.1248970" lon="10.4846780">
	<ele>2656.00</ele>
	<time>2023-08-07T11:14:42.000Z</time>
</trkpt>
<trkpt lat="46.1248970" lon="10.4846760">
	<ele>2656.00</ele>
	<time>2023-08-07T11:14:43.000Z</time>
</trkpt>
<trkpt lat="46.1248980" lon="10.4846750">
	<ele>2656.00</ele>
	<time>2023-08-07T11:14:44.000Z</time>
</trkpt>
<trkpt lat="46.1248980" lon="10.4846720">
	<ele>2656.00</ele>
	<time>2023-08-07T11:14:45.000Z</time>
</trkpt>
<trkpt lat="46.1248980" lon="10.4846710">
	<ele>2656.00</ele>
	<time>2023-08-07T11:14:46.000Z</time>
</trkpt>
<trkpt lat="46.1248990" lon="10.4846680">
	<ele>2656.00</ele>
	<time>2023-08-07T11:14:47.000Z</time>
</trkpt>
<trkpt lat="46.1248990" lon="10.4846650">
	<ele>2656.00</ele>
	<time>2023-08-07T11:14:48.000Z</time>
</trkpt>
<trkpt lat="46.1248990" lon="10.4846600">
	<ele>2656.00</ele>
	<time>2023-08-07T11:14:49.000Z</time>
</trkpt>
<trkpt lat="46.1248990" lon="10.4846540">
	<ele>2656.00</ele>
	<time>2023-08-07T11:14:50.000Z</time>
</trkpt>
<trkpt lat="46.1248990" lon="10.4846470">
	<ele>2656.00</ele>
	<time>2023-08-07T11:14:51.000Z</time>
</trkpt>
<trkpt lat="46.1248990" lon="10.4846410">
	<ele>2656.00</ele>
	<time>2023-08-07T11:14:52.000Z</time>
</trkpt>
<trkpt lat="46.1248990" lon="10.4846350">
	<ele>2656.00</ele>
	<time>2023-08-07T11:14:53.000Z</time>
</trkpt>
<trkpt lat="46.1248990" lon="10.4846280">
	<ele>2656.00</ele>
	<time>2023-08-07T11:14:54.000Z</time>
</trkpt>
<trkpt lat="46.1248990" lon="10.4846230">
	<ele>2656.00</ele>
	<time>2023-08-07T11:14:55.000Z</time>
</trkpt>
<trkpt lat="46.1249010" lon="10.4846180">
	<ele>2656.00</ele>
	<time>2023-08-07T11:14:56.000Z</time>
</trkpt>
<trkpt lat="46.1249010" lon="10.4846140">
	<ele>2656.00</ele>
	<time>2023-08-07T11:14:57.000Z</time>
</trkpt>
<trkpt lat="46.1249010" lon="10.4846060">
	<ele>2656.00</ele>
	<time>2023-08-07T11:14:58.000Z</time>
</trkpt>
<trkpt lat="46.1249020" lon="10.4846000">
	<ele>2656.00</ele>
	<time>2023-08-07T11:14:59.000Z</time>
</trkpt>
<trkpt lat="46.1249030" lon="10.4845930">
	<ele>2656.00</ele>
	<time>2023-08-07T11:15:00.000Z</time>
</trkpt>
<trkpt lat="46.1249040" lon="10.4845850">
	<ele>2656.00</ele>
	<time>2023-08-07T11:15:01.000Z</time>
</trkpt>
<trkpt lat="46.1249040" lon="10.4845810">
	<ele>2656.00</ele>
	<time>2023-08-07T11:15:02.000Z</time>
</trkpt>
<trkpt lat="46.1249040" lon="10.4845780">
	<ele>2656.00</ele>
	<time>2023-08-07T11:15:03.000Z</time>
</trkpt>
<trkpt lat="46.1249050" lon="10.4845740">
	<ele>2656.00</ele>
	<time>2023-08-07T11:15:04.000Z</time>
</trkpt>
<trkpt lat="46.1249060" lon="10.4845670">
	<ele>2656.00</ele>
	<time>2023-08-07T11:15:05.000Z</time>
</trkpt>
<trkpt lat="46.1249060" lon="10.4845590">
	<ele>2656.00</ele>
	<time>2023-08-07T11:15:06.000Z</time>
</trkpt>
<trkpt lat="46.1249070" lon="10.4845510">
	<ele>2656.00</ele>
	<time>2023-08-07T11:15:07.000Z</time>
</trkpt>
<trkpt lat="46.1249080" lon="10.4845420">
	<ele>2656.00</ele>
	<time>2023-08-07T11:15:08.000Z</time>
</trkpt>
<trkpt lat="46.1249090" lon="10.4845320">
	<ele>2656.00</ele>
	<time>2023-08-07T11:15:09.000Z</time>
</trkpt>
<trkpt lat="46.1249090" lon="10.4845230">
	<ele>2656.00</ele>
	<time>2023-08-07T11:15:10.000Z</time>
</trkpt>
<trkpt lat="46.1249100" lon="10.4845150">
	<ele>2656.00</ele>
	<time>2023-08-07T11:15:11.000Z</time>
</trkpt>
<trkpt lat="46.1249110" lon="10.4845080">
	<ele>2656.00</ele>
	<time>2023-08-07T11:15:12.000Z</time>
</trkpt>
<trkpt lat="46.1249110" lon="10.4845020">
	<ele>2656.00</ele>
	<time>2023-08-07T11:15:13.000Z</time>
</trkpt>
<trkpt lat="46.1249150" lon="10.4844980">
	<ele>2656.00</ele>
	<time>2023-08-07T11:15:14.000Z</time>
</trkpt>
<trkpt lat="46.1249190" lon="10.4844950">
	<ele>2656.00</ele>
	<time>2023-08-07T11:15:15.000Z</time>
</trkpt>
<trkpt lat="46.1249220" lon="10.4844910">
	<ele>2656.00</ele>
	<time>2023-08-07T11:15:16.000Z</time>
</trkpt>
<trkpt lat="46.1249230" lon="10.4844880">
	<ele>2656.00</ele>
	<time>2023-08-07T11:15:17.000Z</time>
</trkpt>
<trkpt lat="46.1249240" lon="10.4844840">
	<ele>2655.60</ele>
	<time>2023-08-07T11:15:18.000Z</time>
</trkpt>
<trkpt lat="46.1249240" lon="10.4844800">
	<ele>2655.40</ele>
	<time>2023-08-07T11:15:19.000Z</time>
</trkpt>
<trkpt lat="46.1249250" lon="10.4844760">
	<ele>2655.20</ele>
	<time>2023-08-07T11:15:20.000Z</time>
</trkpt>
<trkpt lat="46.1249250" lon="10.4844690">
	<ele>2655.20</ele>
	<time>2023-08-07T11:15:21.000Z</time>
</trkpt>
<trkpt lat="46.1249250" lon="10.4844620">
	<ele>2655.20</ele>
	<time>2023-08-07T11:15:22.000Z</time>
</trkpt>
<trkpt lat="46.1249260" lon="10.4844550">
	<ele>2655.20</ele>
	<time>2023-08-07T11:15:23.000Z</time>
</trkpt>
<trkpt lat="46.1249260" lon="10.4844480">
	<ele>2655.20</ele>
	<time>2023-08-07T11:15:24.000Z</time>
</trkpt>
<trkpt lat="46.1249270" lon="10.4844410">
	<ele>2655.20</ele>
	<time>2023-08-07T11:15:25.000Z</time>
</trkpt>
<trkpt lat="46.1249270" lon="10.4844330">
	<ele>2655.20</ele>
	<time>2023-08-07T11:15:26.000Z</time>
</trkpt>
<trkpt lat="46.1249280" lon="10.4844270">
	<ele>2655.00</ele>
	<time>2023-08-07T11:15:27.000Z</time>
</trkpt>
<trkpt lat="46.1249290" lon="10.4844220">
	<ele>2655.00</ele>
	<time>2023-08-07T11:15:28.000Z</time>
</trkpt>
<trkpt lat="46.1249290" lon="10.4844170">
	<ele>2655.00</ele>
	<time>2023-08-07T11:15:29.000Z</time>
</trkpt>
<trkpt lat="46.1249290" lon="10.4844120">
	<ele>2655.00</ele>
	<time>2023-08-07T11:15:30.000Z</time>
</trkpt>
<trkpt lat="46.1249300" lon="10.4844090">
	<ele>2655.20</ele>
	<time>2023-08-07T11:15:31.000Z</time>
</trkpt>
<trkpt lat="46.1249300" lon="10.4844070">
	<ele>2655.20</ele>
	<time>2023-08-07T11:15:32.000Z</time>
</trkpt>
<trkpt lat="46.1249300" lon="10.4844060">
	<ele>2655.20</ele>
	<time>2023-08-07T11:15:33.000Z</time>
</trkpt>
<trkpt lat="46.1249300" lon="10.4844040">
	<ele>2655.40</ele>
	<time>2023-08-07T11:15:34.000Z</time>
</trkpt>
<trkpt lat="46.1249300" lon="10.4844020">
	<ele>2655.20</ele>
	<time>2023-08-07T11:15:35.000Z</time>
</trkpt>
<trkpt lat="46.1249300" lon="10.4843990">
	<ele>2655.20</ele>
	<time>2023-08-07T11:15:36.000Z</time>
</trkpt>
<trkpt lat="46.1249300" lon="10.4843960">
	<ele>2655.20</ele>
	<time>2023-08-07T11:15:37.000Z</time>
</trkpt>
<trkpt lat="46.1249290" lon="10.4843940">
	<ele>2655.00</ele>
	<time>2023-08-07T11:15:38.000Z</time>
</trkpt>
<trkpt lat="46.1249290" lon="10.4843930">
	<ele>2655.00</ele>
	<time>2023-08-07T11:15:39.000Z</time>
</trkpt>
<trkpt lat="46.1249280" lon="10.4843910">
	<ele>2654.80</ele>
	<time>2023-08-07T11:15:40.000Z</time>
</trkpt>
<trkpt lat="46.1249280" lon="10.4843900">
	<ele>2654.80</ele>
	<time>2023-08-07T11:15:41.000Z</time>
</trkpt>
<trkpt lat="46.1249270" lon="10.4843890">
	<ele>2654.80</ele>
	<time>2023-08-07T11:15:42.000Z</time>
</trkpt>
<trkpt lat="46.1249270" lon="10.4843890">
	<ele>2654.60</ele>
	<time>2023-08-07T11:15:43.000Z</time>
</trkpt>
<trkpt lat="46.1249260" lon="10.4843880">
	<ele>2654.40</ele>
	<time>2023-08-07T11:15:44.000Z</time>
</trkpt>
<trkpt lat="46.1249260" lon="10.4843880">
	<ele>2654.40</ele>
	<time>2023-08-07T11:15:45.000Z</time>
</trkpt>
<trkpt lat="46.1249260" lon="10.4843880">
	<ele>2654.40</ele>
	<time>2023-08-07T11:15:46.000Z</time>
</trkpt>
<trkpt lat="46.1249260" lon="10.4843870">
	<ele>2654.40</ele>
	<time>2023-08-07T11:15:47.000Z</time>
</trkpt>
<trkpt lat="46.1249260" lon="10.4843860">
	<ele>2654.40</ele>
	<time>2023-08-07T11:15:48.000Z</time>
</trkpt>
<trkpt lat="46.1249250" lon="10.4843860">
	<ele>2654.20</ele>
	<time>2023-08-07T11:15:49.000Z</time>
</trkpt>
<trkpt lat="46.1249250" lon="10.4843850">
	<ele>2654.20</ele>
	<time>2023-08-07T11:15:50.000Z</time>
</trkpt>
<trkpt lat="46.1249250" lon="10.4843840">
	<ele>2654.20</ele>
	<time>2023-08-07T11:15:51.000Z</time>
</trkpt>
<trkpt lat="46.1249240" lon="10.4843840">
	<ele>2654.20</ele>
	<time>2023-08-07T11:15:52.000Z</time>
</trkpt>
<trkpt lat="46.1249220" lon="10.4843830">
	<ele>2654.20</ele>
	<time>2023-08-07T11:15:53.000Z</time>
</trkpt>
<trkpt lat="46.1249210" lon="10.4843830">
	<ele>2654.20</ele>
	<time>2023-08-07T11:15:54.000Z</time>
</trkpt>
<trkpt lat="46.1249200" lon="10.4843820">
	<ele>2654.20</ele>
	<time>2023-08-07T11:15:55.000Z</time>
</trkpt>
<trkpt lat="46.1249190" lon="10.4843810">
	<ele>2654.20</ele>
	<time>2023-08-07T11:15:56.000Z</time>
</trkpt>
<trkpt lat="46.1249170" lon="10.4843810">
	<ele>2654.20</ele>
	<time>2023-08-07T11:15:57.000Z</time>
</trkpt>
<trkpt lat="46.1249150" lon="10.4843800">
	<ele>2654.20</ele>
	<time>2023-08-07T11:15:58.000Z</time>
</trkpt>
<trkpt lat="46.1249120" lon="10.4843780">
	<ele>2654.40</ele>
	<time>2023-08-07T11:15:59.000Z</time>
</trkpt>
<trkpt lat="46.1249100" lon="10.4843760">
	<ele>2654.40</ele>
	<time>2023-08-07T11:16:00.000Z</time>
</trkpt>
<trkpt lat="46.1249080" lon="10.4843730">
	<ele>2654.60</ele>
	<time>2023-08-07T11:16:01.000Z</time>
</trkpt>
<trkpt lat="46.1249060" lon="10.4843700">
	<ele>2654.60</ele>
	<time>2023-08-07T11:16:02.000Z</time>
</trkpt>
<trkpt lat="46.1249050" lon="10.4843660">
	<ele>2654.60</ele>
	<time>2023-08-07T11:16:03.000Z</time>
</trkpt>
<trkpt lat="46.1249040" lon="10.4843620">
	<ele>2654.40</ele>
	<time>2023-08-07T11:16:04.000Z</time>
</trkpt>
<trkpt lat="46.1249030" lon="10.4843580">
	<ele>2654.40</ele>
	<time>2023-08-07T11:16:05.000Z</time>
</trkpt>
<trkpt lat="46.1249020" lon="10.4843540">
	<ele>2654.40</ele>
	<time>2023-08-07T11:16:06.000Z</time>
</trkpt>
<trkpt lat="46.1249000" lon="10.4843500">
	<ele>2654.40</ele>
	<time>2023-08-07T11:16:07.000Z</time>
</trkpt>
<trkpt lat="46.1248990" lon="10.4843460">
	<ele>2654.40</ele>
	<time>2023-08-07T11:16:08.000Z</time>
</trkpt>
<trkpt lat="46.1248980" lon="10.4843410">
	<ele>2654.40</ele>
	<time>2023-08-07T11:16:09.000Z</time>
</trkpt>
<trkpt lat="46.1248980" lon="10.4843370">
	<ele>2654.60</ele>
	<time>2023-08-07T11:16:10.000Z</time>
</trkpt>
<trkpt lat="46.1248970" lon="10.4843330">
	<ele>2654.60</ele>
	<time>2023-08-07T11:16:11.000Z</time>
</trkpt>
<trkpt lat="46.1248950" lon="10.4843310">
	<ele>2654.60</ele>
	<time>2023-08-07T11:16:12.000Z</time>
</trkpt>
<trkpt lat="46.1248940" lon="10.4843290">
	<ele>2654.80</ele>
	<time>2023-08-07T11:16:13.000Z</time>
</trkpt>
<trkpt lat="46.1248920" lon="10.4843260">
	<ele>2654.80</ele>
	<time>2023-08-07T11:16:14.000Z</time>
</trkpt>
<trkpt lat="46.1248900" lon="10.4843230">
	<ele>2655.00</ele>
	<time>2023-08-07T11:16:15.000Z</time>
</trkpt>
<trkpt lat="46.1248890" lon="10.4843190">
	<ele>2655.00</ele>
	<time>2023-08-07T11:16:16.000Z</time>
</trkpt>
<trkpt lat="46.1248870" lon="10.4843160">
	<ele>2655.00</ele>
	<time>2023-08-07T11:16:17.000Z</time>
</trkpt>
<trkpt lat="46.1248850" lon="10.4843110">
	<ele>2655.00</ele>
	<time>2023-08-07T11:16:18.000Z</time>
</trkpt>
<trkpt lat="46.1248840" lon="10.4843060">
	<ele>2655.20</ele>
	<time>2023-08-07T11:16:19.000Z</time>
</trkpt>
<trkpt lat="46.1248820" lon="10.4843000">
	<ele>2655.40</ele>
	<time>2023-08-07T11:16:20.000Z</time>
</trkpt>
<trkpt lat="46.1248810" lon="10.4842940">
	<ele>2655.40</ele>
	<time>2023-08-07T11:16:21.000Z</time>
</trkpt>
<trkpt lat="46.1248800" lon="10.4842880">
	<ele>2655.60</ele>
	<time>2023-08-07T11:16:22.000Z</time>
</trkpt>
<trkpt lat="46.1248790" lon="10.4842820">
	<ele>2655.60</ele>
	<time>2023-08-07T11:16:23.000Z</time>
</trkpt>
<trkpt lat="46.1248780" lon="10.4842770">
	<ele>2655.80</ele>
	<time>2023-08-07T11:16:24.000Z</time>
</trkpt>
<trkpt lat="46.1248770" lon="10.4842720">
	<ele>2656.00</ele>
	<time>2023-08-07T11:16:25.000Z</time>
</trkpt>
<trkpt lat="46.1248760" lon="10.4842670">
	<ele>2656.20</ele>
	<time>2023-08-07T11:16:26.000Z</time>
</trkpt>
<trkpt lat="46.1248760" lon="10.4842620">
	<ele>2656.20</ele>
	<time>2023-08-07T11:16:27.000Z</time>
</trkpt>
<trkpt lat="46.1248750" lon="10.4842580">
	<ele>2656.60</ele>
	<time>2023-08-07T11:16:28.000Z</time>
</trkpt>
<trkpt lat="46.1248750" lon="10.4842540">
	<ele>2656.60</ele>
	<time>2023-08-07T11:16:29.000Z</time>
</trkpt>
<trkpt lat="46.1248750" lon="10.4842500">
	<ele>2656.80</ele>
	<time>2023-08-07T11:16:30.000Z</time>
</trkpt>
<trkpt lat="46.1248740" lon="10.4842450">
	<ele>2657.00</ele>
	<time>2023-08-07T11:16:31.000Z</time>
</trkpt>
<trkpt lat="46.1248740" lon="10.4842410">
	<ele>2657.20</ele>
	<time>2023-08-07T11:16:32.000Z</time>
</trkpt>
<trkpt lat="46.1248740" lon="10.4842360">
	<ele>2657.40</ele>
	<time>2023-08-07T11:16:33.000Z</time>
</trkpt>
<trkpt lat="46.1248730" lon="10.4842310">
	<ele>2657.60</ele>
	<time>2023-08-07T11:16:34.000Z</time>
</trkpt>
<trkpt lat="46.1248730" lon="10.4842260">
	<ele>2657.60</ele>
	<time>2023-08-07T11:16:35.000Z</time>
</trkpt>
<trkpt lat="46.1248730" lon="10.4842220">
	<ele>2657.60</ele>
	<time>2023-08-07T11:16:36.000Z</time>
</trkpt>
<trkpt lat="46.1248730" lon="10.4842180">
	<ele>2657.40</ele>
	<time>2023-08-07T11:16:37.000Z</time>
</trkpt>
<trkpt lat="46.1248720" lon="10.4842140">
	<ele>2657.40</ele>
	<time>2023-08-07T11:16:38.000Z</time>
</trkpt>
<trkpt lat="46.1248720" lon="10.4842110">
	<ele>2657.40</ele>
	<time>2023-08-07T11:16:39.000Z</time>
</trkpt>
<trkpt lat="46.1248720" lon="10.4842070">
	<ele>2657.40</ele>
	<time>2023-08-07T11:16:40.000Z</time>
</trkpt>
<trkpt lat="46.1248720" lon="10.4842040">
	<ele>2657.40</ele>
	<time>2023-08-07T11:16:41.000Z</time>
</trkpt>
<trkpt lat="46.1248720" lon="10.4842020">
	<ele>2657.40</ele>
	<time>2023-08-07T11:16:42.000Z</time>
</trkpt>
<trkpt lat="46.1248720" lon="10.4841990">
	<ele>2657.40</ele>
	<time>2023-08-07T11:16:43.000Z</time>
</trkpt>
<trkpt lat="46.1248720" lon="10.4841970">
	<ele>2657.40</ele>
	<time>2023-08-07T11:16:44.000Z</time>
</trkpt>
<trkpt lat="46.1248720" lon="10.4841950">
	<ele>2657.40</ele>
	<time>2023-08-07T11:16:45.000Z</time>
</trkpt>
<trkpt lat="46.1248720" lon="10.4841940">
	<ele>2657.40</ele>
	<time>2023-08-07T11:16:46.000Z</time>
</trkpt>
<trkpt lat="46.1248710" lon="10.4841930">
	<ele>2657.40</ele>
	<time>2023-08-07T11:16:47.000Z</time>
</trkpt>
<trkpt lat="46.1248710" lon="10.4841920">
	<ele>2657.40</ele>
	<time>2023-08-07T11:16:48.000Z</time>
</trkpt>
<trkpt lat="46.1248710" lon="10.4841920">
	<ele>2657.20</ele>
	<time>2023-08-07T11:16:49.000Z</time>
</trkpt>
<trkpt lat="46.1248710" lon="10.4841910">
	<ele>2657.20</ele>
	<time>2023-08-07T11:16:50.000Z</time>
</trkpt>
<trkpt lat="46.1248710" lon="10.4841910">
	<ele>2657.20</ele>
	<time>2023-08-07T11:16:51.000Z</time>
</trkpt>
<trkpt lat="46.1248710" lon="10.4841910">
	<ele>2657.00</ele>
	<time>2023-08-07T11:16:52.000Z</time>
</trkpt>
<trkpt lat="46.1248710" lon="10.4841910">
	<ele>2657.00</ele>
	<time>2023-08-07T11:16:53.000Z</time>
</trkpt>
<trkpt lat="46.1248720" lon="10.4841910">
	<ele>2657.00</ele>
	<time>2023-08-07T11:16:54.000Z</time>
</trkpt>
<trkpt lat="46.1248720" lon="10.4841910">
	<ele>2657.20</ele>
	<time>2023-08-07T11:16:55.000Z</time>
</trkpt>
<trkpt lat="46.1248720" lon="10.4841900">
	<ele>2657.20</ele>
	<time>2023-08-07T11:16:56.000Z</time>
</trkpt>
<trkpt lat="46.1248720" lon="10.4841900">
	<ele>2657.40</ele>
	<time>2023-08-07T11:16:57.000Z</time>
</trkpt>
<trkpt lat="46.1248720" lon="10.4841900">
	<ele>2657.60</ele>
	<time>2023-08-07T11:16:58.000Z</time>
</trkpt>
<trkpt lat="46.1248720" lon="10.4841900">
	<ele>2657.80</ele>
	<time>2023-08-07T11:16:59.000Z</time>
</trkpt>
<trkpt lat="46.1248720" lon="10.4841900">
	<ele>2657.80</ele>
	<time>2023-08-07T11:17:00.000Z</time>
</trkpt>
<trkpt lat="46.1248720" lon="10.4841900">
	<ele>2657.80</ele>
	<time>2023-08-07T11:17:01.000Z</time>
</trkpt>
<trkpt lat="46.1248720" lon="10.4841900">
	<ele>2657.80</ele>
	<time>2023-08-07T11:17:02.000Z</time>
</trkpt>
<trkpt lat="46.1248720" lon="10.4841890">
	<ele>2657.80</ele>
	<time>2023-08-07T11:17:03.000Z</time>
</trkpt>
<trkpt lat="46.1248720" lon="10.4841890">
	<ele>2657.60</ele>
	<time>2023-08-07T11:17:04.000Z</time>
</trkpt>
<trkpt lat="46.1248720" lon="10.4841890">
	<ele>2657.60</ele>
	<time>2023-08-07T11:17:05.000Z</time>
</trkpt>
<trkpt lat="46.1248720" lon="10.4841890">
	<ele>2657.40</ele>
	<time>2023-08-07T11:17:06.000Z</time>
</trkpt>
<trkpt lat="46.1248720" lon="10.4841880">
	<ele>2657.40</ele>
	<time>2023-08-07T11:17:07.000Z</time>
</trkpt>
<trkpt lat="46.1248720" lon="10.4841880">
	<ele>2657.40</ele>
	<time>2023-08-07T11:17:08.000Z</time>
</trkpt>
<trkpt lat="46.1248720" lon="10.4841880">
	<ele>2657.60</ele>
	<time>2023-08-07T11:17:09.000Z</time>
</trkpt>
<trkpt lat="46.1248720" lon="10.4841880">
	<ele>2657.60</ele>
	<time>2023-08-07T11:17:10.000Z</time>
</trkpt>
<trkpt lat="46.1248730" lon="10.4841880">
	<ele>2657.40</ele>
	<time>2023-08-07T11:17:11.000Z</time>
</trkpt>
<trkpt lat="46.1248730" lon="10.4841880">
	<ele>2657.40</ele>
	<time>2023-08-07T11:17:12.000Z</time>
</trkpt>
<trkpt lat="46.1248730" lon="10.4841870">
	<ele>2657.40</ele>
	<time>2023-08-07T11:17:13.000Z</time>
</trkpt>
<trkpt lat="46.1248730" lon="10.4841870">
	<ele>2657.20</ele>
	<time>2023-08-07T11:17:14.000Z</time>
</trkpt>
<trkpt lat="46.1248730" lon="10.4841870">
	<ele>2657.20</ele>
	<time>2023-08-07T11:17:15.000Z</time>
</trkpt>
<trkpt lat="46.1248730" lon="10.4841870">
	<ele>2657.20</ele>
	<time>2023-08-07T11:17:16.000Z</time>
</trkpt>
<trkpt lat="46.1248730" lon="10.4841860">
	<ele>2657.20</ele>
	<time>2023-08-07T11:17:17.000Z</time>
</trkpt>
<trkpt lat="46.1248730" lon="10.4841860">
	<ele>2657.20</ele>
	<time>2023-08-07T11:17:18.000Z</time>
</trkpt>
<trkpt lat="46.1248730" lon="10.4841860">
	<ele>2657.20</ele>
	<time>2023-08-07T11:17:19.000Z</time>
</trkpt>
<trkpt lat="46.1248730" lon="10.4841860">
	<ele>2657.40</ele>
	<time>2023-08-07T11:17:20.000Z</time>
</trkpt>
<trkpt lat="46.1248730" lon="10.4841860">
	<ele>2657.60</ele>
	<time>2023-08-07T11:17:21.000Z</time>
</trkpt>
<trkpt lat="46.1248730" lon="10.4841860">
	<ele>2657.60</ele>
	<time>2023-08-07T11:17:22.000Z</time>
</trkpt>
<trkpt lat="46.1248730" lon="10.4841860">
	<ele>2657.40</ele>
	<time>2023-08-07T11:17:23.000Z</time>
</trkpt>
<trkpt lat="46.1248730" lon="10.4841860">
	<ele>2657.40</ele>
	<time>2023-08-07T11:17:24.000Z</time>
</trkpt>
<trkpt lat="46.1248730" lon="10.4841850">
	<ele>2657.20</ele>
	<time>2023-08-07T11:17:25.000Z</time>
</trkpt>
<trkpt lat="46.1248730" lon="10.4841850">
	<ele>2657.20</ele>
	<time>2023-08-07T11:17:26.000Z</time>
</trkpt>
<trkpt lat="46.1248730" lon="10.4841850">
	<ele>2657.00</ele>
	<time>2023-08-07T11:17:27.000Z</time>
</trkpt>
<trkpt lat="46.1248740" lon="10.4841850">
	<ele>2656.80</ele>
	<time>2023-08-07T11:17:28.000Z</time>
</trkpt>
<trkpt lat="46.1248740" lon="10.4841850">
	<ele>2656.80</ele>
	<time>2023-08-07T11:17:29.000Z</time>
</trkpt>
<trkpt lat="46.1248740" lon="10.4841850">
	<ele>2656.80</ele>
	<time>2023-08-07T11:17:30.000Z</time>
</trkpt>
<trkpt lat="46.1248740" lon="10.4841850">
	<ele>2656.80</ele>
	<time>2023-08-07T11:17:31.000Z</time>
</trkpt>
<trkpt lat="46.1248740" lon="10.4841850">
	<ele>2656.80</ele>
	<time>2023-08-07T11:17:32.000Z</time>
</trkpt>
<trkpt lat="46.1248740" lon="10.4841840">
	<ele>2656.60</ele>
	<time>2023-08-07T11:17:33.000Z</time>
</trkpt>
<trkpt lat="46.1248740" lon="10.4841840">
	<ele>2656.60</ele>
	<time>2023-08-07T11:17:34.000Z</time>
</trkpt>
<trkpt lat="46.1248740" lon="10.4841840">
	<ele>2656.40</ele>
	<time>2023-08-07T11:17:35.000Z</time>
</trkpt>
<trkpt lat="46.1248740" lon="10.4841840">
	<ele>2656.40</ele>
	<time>2023-08-07T11:17:36.000Z</time>
</trkpt>
<trkpt lat="46.1248740" lon="10.4841840">
	<ele>2656.40</ele>
	<time>2023-08-07T11:17:37.000Z</time>
</trkpt>
<trkpt lat="46.1248740" lon="10.4841840">
	<ele>2656.40</ele>
	<time>2023-08-07T11:17:38.000Z</time>
</trkpt>
<trkpt lat="46.1248740" lon="10.4841830">
	<ele>2656.60</ele>
	<time>2023-08-07T11:17:39.000Z</time>
</trkpt>
<trkpt lat="46.1248740" lon="10.4841830">
	<ele>2656.80</ele>
	<time>2023-08-07T11:17:40.000Z</time>
</trkpt>
<trkpt lat="46.1248740" lon="10.4841830">
	<ele>2656.80</ele>
	<time>2023-08-07T11:17:41.000Z</time>
</trkpt>
<trkpt lat="46.1248740" lon="10.4841820">
	<ele>2656.80</ele>
	<time>2023-08-07T11:17:42.000Z</time>
</trkpt>
<trkpt lat="46.1248740" lon="10.4841820">
	<ele>2656.80</ele>
	<time>2023-08-07T11:17:43.000Z</time>
</trkpt>
<trkpt lat="46.1248740" lon="10.4841820">
	<ele>2656.60</ele>
	<time>2023-08-07T11:17:44.000Z</time>
</trkpt>
<trkpt lat="46.1248740" lon="10.4841820">
	<ele>2656.60</ele>
	<time>2023-08-07T11:17:45.000Z</time>
</trkpt>
<trkpt lat="46.1248740" lon="10.4841820">
	<ele>2656.60</ele>
	<time>2023-08-07T11:17:46.000Z</time>
</trkpt>
<trkpt lat="46.1248740" lon="10.4841820">
	<ele>2656.60</ele>
	<time>2023-08-07T11:17:47.000Z</time>
</trkpt>
<trkpt lat="46.1248740" lon="10.4841820">
	<ele>2656.60</ele>
	<time>2023-08-07T11:17:48.000Z</time>
</trkpt>
<trkpt lat="46.1248740" lon="10.4841820">
	<ele>2656.60</ele>
	<time>2023-08-07T11:17:49.000Z</time>
</trkpt>
<trkpt lat="46.1248740" lon="10.4841820">
	<ele>2656.80</ele>
	<time>2023-08-07T11:17:50.000Z</time>
</trkpt>
<trkpt lat="46.1248740" lon="10.4841820">
	<ele>2656.80</ele>
	<time>2023-08-07T11:17:51.000Z</time>
</trkpt>
<trkpt lat="46.1248740" lon="10.4841820">
	<ele>2656.80</ele>
	<time>2023-08-07T11:17:52.000Z</time>
</trkpt>
<trkpt lat="46.1248740" lon="10.4841820">
	<ele>2656.80</ele>
	<time>2023-08-07T11:17:53.000Z</time>
</trkpt>
<trkpt lat="46.1248750" lon="10.4841820">
	<ele>2656.80</ele>
	<time>2023-08-07T11:17:54.000Z</time>
</trkpt>
<trkpt lat="46.1248750" lon="10.4841820">
	<ele>2656.80</ele>
	<time>2023-08-07T11:17:55.000Z</time>
</trkpt>
<trkpt lat="46.1248750" lon="10.4841820">
	<ele>2656.80</ele>
	<time>2023-08-07T11:17:56.000Z</time>
</trkpt>
<trkpt lat="46.1248750" lon="10.4841820">
	<ele>2656.60</ele>
	<time>2023-08-07T11:17:57.000Z</time>
</trkpt>
<trkpt lat="46.1248750" lon="10.4841820">
	<ele>2656.40</ele>
	<time>2023-08-07T11:17:58.000Z</time>
</trkpt>
<trkpt lat="46.1248750" lon="10.4841810">
	<ele>2656.20</ele>
	<time>2023-08-07T11:17:59.000Z</time>
</trkpt>
<trkpt lat="46.1248750" lon="10.4841810">
	<ele>2656.20</ele>
	<time>2023-08-07T11:18:00.000Z</time>
</trkpt>
<trkpt lat="46.1248750" lon="10.4841810">
	<ele>2656.20</ele>
	<time>2023-08-07T11:18:01.000Z</time>
</trkpt>
<trkpt lat="46.1248750" lon="10.4841810">
	<ele>2656.20</ele>
	<time>2023-08-07T11:18:02.000Z</time>
</trkpt>
<trkpt lat="46.1248750" lon="10.4841810">
	<ele>2656.20</ele>
	<time>2023-08-07T11:18:03.000Z</time>
</trkpt>
<trkpt lat="46.1248750" lon="10.4841810">
	<ele>2656.40</ele>
	<time>2023-08-07T11:18:04.000Z</time>
</trkpt>
<trkpt lat="46.1248750" lon="10.4841810">
	<ele>2656.40</ele>
	<time>2023-08-07T11:18:05.000Z</time>
</trkpt>
<trkpt lat="46.1248750" lon="10.4841810">
	<ele>2656.40</ele>
	<time>2023-08-07T11:18:06.000Z</time>
</trkpt>
<trkpt lat="46.1248750" lon="10.4841810">
	<ele>2656.40</ele>
	<time>2023-08-07T11:18:07.000Z</time>
</trkpt>
<trkpt lat="46.1248750" lon="10.4841810">
	<ele>2656.60</ele>
	<time>2023-08-07T11:18:08.000Z</time>
</trkpt>
<trkpt lat="46.1248750" lon="10.4841800">
	<ele>2656.60</ele>
	<time>2023-08-07T11:18:09.000Z</time>
</trkpt>
<trkpt lat="46.1248750" lon="10.4841800">
	<ele>2656.60</ele>
	<time>2023-08-07T11:18:10.000Z</time>
</trkpt>
<trkpt lat="46.1248750" lon="10.4841800">
	<ele>2656.80</ele>
	<time>2023-08-07T11:18:11.000Z</time>
</trkpt>
<trkpt lat="46.1248750" lon="10.4841800">
	<ele>2656.80</ele>
	<time>2023-08-07T11:18:12.000Z</time>
</trkpt>
<trkpt lat="46.1248750" lon="10.4841800">
	<ele>2657.00</ele>
	<time>2023-08-07T11:18:13.000Z</time>
</trkpt>
<trkpt lat="46.1248750" lon="10.4841790">
	<ele>2657.00</ele>
	<time>2023-08-07T11:18:14.000Z</time>
</trkpt>
<trkpt lat="46.1248750" lon="10.4841790">
	<ele>2657.20</ele>
	<time>2023-08-07T11:18:15.000Z</time>
</trkpt>
<trkpt lat="46.1248750" lon="10.4841790">
	<ele>2657.20</ele>
	<time>2023-08-07T11:18:16.000Z</time>
</trkpt>
<trkpt lat="46.1248750" lon="10.4841790">
	<ele>2657.20</ele>
	<time>2023-08-07T11:18:17.000Z</time>
</trkpt>
<trkpt lat="46.1248760" lon="10.4841790">
	<ele>2657.20</ele>
	<time>2023-08-07T11:18:18.000Z</time>
</trkpt>
<trkpt lat="46.1248760" lon="10.4841780">
	<ele>2657.40</ele>
	<time>2023-08-07T11:18:19.000Z</time>
</trkpt>
<trkpt lat="46.1248760" lon="10.4841780">
	<ele>2657.40</ele>
	<time>2023-08-07T11:18:20.000Z</time>
</trkpt>
<trkpt lat="46.1248760" lon="10.4841780">
	<ele>2657.60</ele>
	<time>2023-08-07T11:18:21.000Z</time>
</trkpt>
<trkpt lat="46.1248760" lon="10.4841780">
	<ele>2657.80</ele>
	<time>2023-08-07T11:18:22.000Z</time>
</trkpt>
<trkpt lat="46.1248760" lon="10.4841780">
	<ele>2658.00</ele>
	<time>2023-08-07T11:18:23.000Z</time>
</trkpt>
<trkpt lat="46.1248760" lon="10.4841780">
	<ele>2658.20</ele>
	<time>2023-08-07T11:18:24.000Z</time>
</trkpt>
<trkpt lat="46.1248760" lon="10.4841770">
	<ele>2658.40</ele>
	<time>2023-08-07T11:18:25.000Z</time>
</trkpt>
<trkpt lat="46.1248760" lon="10.4841770">
	<ele>2658.40</ele>
	<time>2023-08-07T11:18:26.000Z</time>
</trkpt>
<trkpt lat="46.1248760" lon="10.4841770">
	<ele>2658.60</ele>
	<time>2023-08-07T11:18:27.000Z</time>
</trkpt>
<trkpt lat="46.1248770" lon="10.4841770">
	<ele>2658.60</ele>
	<time>2023-08-07T11:18:28.000Z</time>
</trkpt>
<trkpt lat="46.1248770" lon="10.4841760">
	<ele>2658.80</ele>
	<time>2023-08-07T11:18:29.000Z</time>
</trkpt>
<trkpt lat="46.1248770" lon="10.4841760">
	<ele>2658.80</ele>
	<time>2023-08-07T11:18:30.000Z</time>
</trkpt>
<trkpt lat="46.1248770" lon="10.4841760">
	<ele>2658.80</ele>
	<time>2023-08-07T11:18:31.000Z</time>
</trkpt>
<trkpt lat="46.1248770" lon="10.4841760">
	<ele>2658.80</ele>
	<time>2023-08-07T11:18:32.000Z</time>
</trkpt>
<trkpt lat="46.1248770" lon="10.4841760">
	<ele>2658.80</ele>
	<time>2023-08-07T11:18:33.000Z</time>
</trkpt>
<trkpt lat="46.1248770" lon="10.4841750">
	<ele>2659.00</ele>
	<time>2023-08-07T11:18:34.000Z</time>
</trkpt>
<trkpt lat="46.1248770" lon="10.4841750">
	<ele>2659.00</ele>
	<time>2023-08-07T11:18:35.000Z</time>
</trkpt>
<trkpt lat="46.1248780" lon="10.4841750">
	<ele>2659.20</ele>
	<time>2023-08-07T11:18:36.000Z</time>
</trkpt>
<trkpt lat="46.1248780" lon="10.4841750">
	<ele>2659.40</ele>
	<time>2023-08-07T11:18:37.000Z</time>
</trkpt>
<trkpt lat="46.1248780" lon="10.4841750">
	<ele>2659.40</ele>
	<time>2023-08-07T11:18:38.000Z</time>
</trkpt>
<trkpt lat="46.1248780" lon="10.4841750">
	<ele>2659.40</ele>
	<time>2023-08-07T11:18:39.000Z</time>
</trkpt>
<trkpt lat="46.1248780" lon="10.4841750">
	<ele>2659.60</ele>
	<time>2023-08-07T11:18:40.000Z</time>
</trkpt>
<trkpt lat="46.1248780" lon="10.4841740">
	<ele>2659.60</ele>
	<time>2023-08-07T11:18:41.000Z</time>
</trkpt>
<trkpt lat="46.1248790" lon="10.4841740">
	<ele>2659.80</ele>
	<time>2023-08-07T11:18:42.000Z</time>
</trkpt>
<trkpt lat="46.1248790" lon="10.4841740">
	<ele>2659.80</ele>
	<time>2023-08-07T11:18:43.000Z</time>
</trkpt>
<trkpt lat="46.1248790" lon="10.4841740">
	<ele>2660.00</ele>
	<time>2023-08-07T11:18:44.000Z</time>
</trkpt>
<trkpt lat="46.1248790" lon="10.4841740">
	<ele>2660.20</ele>
	<time>2023-08-07T11:18:45.000Z</time>
</trkpt>
<trkpt lat="46.1248790" lon="10.4841740">
	<ele>2660.40</ele>
	<time>2023-08-07T11:18:46.000Z</time>
</trkpt>
<trkpt lat="46.1248790" lon="10.4841730">
	<ele>2660.40</ele>
	<time>2023-08-07T11:18:47.000Z</time>
</trkpt>
<trkpt lat="46.1248790" lon="10.4841730">
	<ele>2660.60</ele>
	<time>2023-08-07T11:18:48.000Z</time>
</trkpt>
<trkpt lat="46.1248800" lon="10.4841730">
	<ele>2660.60</ele>
	<time>2023-08-07T11:18:49.000Z</time>
</trkpt>
<trkpt lat="46.1248800" lon="10.4841730">
	<ele>2660.80</ele>
	<time>2023-08-07T11:18:50.000Z</time>
</trkpt>
<trkpt lat="46.1248800" lon="10.4841730">
	<ele>2661.00</ele>
	<time>2023-08-07T11:18:51.000Z</time>
</trkpt>
<trkpt lat="46.1248800" lon="10.4841730">
	<ele>2661.20</ele>
	<time>2023-08-07T11:18:52.000Z</time>
</trkpt>
<trkpt lat="46.1248800" lon="10.4841720">
	<ele>2661.40</ele>
	<time>2023-08-07T11:18:53.000Z</time>
</trkpt>
<trkpt lat="46.1248800" lon="10.4841720">
	<ele>2661.60</ele>
	<time>2023-08-07T11:18:54.000Z</time>
</trkpt>
<trkpt lat="46.1248810" lon="10.4841720">
	<ele>2661.80</ele>
	<time>2023-08-07T11:18:55.000Z</time>
</trkpt>
<trkpt lat="46.1248810" lon="10.4841720">
	<ele>2661.80</ele>
	<time>2023-08-07T11:18:56.000Z</time>
</trkpt>
<trkpt lat="46.1248810" lon="10.4841720">
	<ele>2662.20</ele>
	<time>2023-08-07T11:18:57.000Z</time>
</trkpt>
<trkpt lat="46.1248810" lon="10.4841710">
	<ele>2662.40</ele>
	<time>2023-08-07T11:18:58.000Z</time>
</trkpt>
<trkpt lat="46.1248810" lon="10.4841710">
	<ele>2662.60</ele>
	<time>2023-08-07T11:18:59.000Z</time>
</trkpt>
<trkpt lat="46.1248820" lon="10.4841710">
	<ele>2662.60</ele>
	<time>2023-08-07T11:19:00.000Z</time>
</trkpt>
<trkpt lat="46.1248820" lon="10.4841710">
	<ele>2662.80</ele>
	<time>2023-08-07T11:19:01.000Z</time>
</trkpt>
<trkpt lat="46.1248820" lon="10.4841710">
	<ele>2662.80</ele>
	<time>2023-08-07T11:19:02.000Z</time>
</trkpt>
<trkpt lat="46.1248820" lon="10.4841710">
	<ele>2663.00</ele>
	<time>2023-08-07T11:19:03.000Z</time>
</trkpt>
<trkpt lat="46.1248830" lon="10.4841700">
	<ele>2663.20</ele>
	<time>2023-08-07T11:19:04.000Z</time>
</trkpt>
<trkpt lat="46.1248830" lon="10.4841700">
	<ele>2663.40</ele>
	<time>2023-08-07T11:19:05.000Z</time>
</trkpt>
<trkpt lat="46.1248830" lon="10.4841700">
	<ele>2663.40</ele>
	<time>2023-08-07T11:19:06.000Z</time>
</trkpt>
<trkpt lat="46.1248830" lon="10.4841700">
	<ele>2663.40</ele>
	<time>2023-08-07T11:19:07.000Z</time>
</trkpt>
<trkpt lat="46.1248840" lon="10.4841690">
	<ele>2663.40</ele>
	<time>2023-08-07T11:19:08.000Z</time>
</trkpt>
<trkpt lat="46.1248840" lon="10.4841690">
	<ele>2663.60</ele>
	<time>2023-08-07T11:19:09.000Z</time>
</trkpt>
<trkpt lat="46.1248840" lon="10.4841690">
	<ele>2663.60</ele>
	<time>2023-08-07T11:19:10.000Z</time>
</trkpt>
<trkpt lat="46.1248840" lon="10.4841690">
	<ele>2663.60</ele>
	<time>2023-08-07T11:19:11.000Z</time>
</trkpt>
<trkpt lat="46.1248840" lon="10.4841690">
	<ele>2663.60</ele>
	<time>2023-08-07T11:19:12.000Z</time>
</trkpt>
<trkpt lat="46.1248850" lon="10.4841680">
	<ele>2663.60</ele>
	<time>2023-08-07T11:19:13.000Z</time>
</trkpt>
<trkpt lat="46.1248850" lon="10.4841680">
	<ele>2664.00</ele>
	<time>2023-08-07T11:19:14.000Z</time>
</trkpt>
<trkpt lat="46.1248850" lon="10.4841680">
	<ele>2664.40</ele>
	<time>2023-08-07T11:19:15.000Z</time>
</trkpt>
<trkpt lat="46.1248850" lon="10.4841680">
	<ele>2664.60</ele>
	<time>2023-08-07T11:19:16.000Z</time>
</trkpt>
<trkpt lat="46.1248850" lon="10.4841670">
	<ele>2664.80</ele>
	<time>2023-08-07T11:19:17.000Z</time>
</trkpt>
<trkpt lat="46.1248860" lon="10.4841670">
	<ele>2664.80</ele>
	<time>2023-08-07T11:19:18.000Z</time>
</trkpt>
<trkpt lat="46.1248860" lon="10.4841670">
	<ele>2664.80</ele>
	<time>2023-08-07T11:19:19.000Z</time>
</trkpt>
<trkpt lat="46.1248860" lon="10.4841660">
	<ele>2664.80</ele>
	<time>2023-08-07T11:19:20.000Z</time>
</trkpt>
<trkpt lat="46.1248860" lon="10.4841660">
	<ele>2664.80</ele>
	<time>2023-08-07T11:19:21.000Z</time>
</trkpt>
<trkpt lat="46.1248870" lon="10.4841660">
	<ele>2664.80</ele>
	<time>2023-08-07T11:19:22.000Z</time>
</trkpt>
<trkpt lat="46.1248870" lon="10.4841650">
	<ele>2664.80</ele>
	<time>2023-08-07T11:19:23.000Z</time>
</trkpt>
<trkpt lat="46.1248870" lon="10.4841650">
	<ele>2664.80</ele>
	<time>2023-08-07T11:19:24.000Z</time>
</trkpt>
<trkpt lat="46.1248870" lon="10.4841650">
	<ele>2665.00</ele>
	<time>2023-08-07T11:19:25.000Z</time>
</trkpt>
<trkpt lat="46.1248880" lon="10.4841640">
	<ele>2665.00</ele>
	<time>2023-08-07T11:19:26.000Z</time>
</trkpt>
<trkpt lat="46.1248880" lon="10.4841640">
	<ele>2665.00</ele>
	<time>2023-08-07T11:19:27.000Z</time>
</trkpt>
<trkpt lat="46.1248880" lon="10.4841640">
	<ele>2665.00</ele>
	<time>2023-08-07T11:19:28.000Z</time>
</trkpt>
<trkpt lat="46.1248880" lon="10.4841640">
	<ele>2665.20</ele>
	<time>2023-08-07T11:19:29.000Z</time>
</trkpt>
<trkpt lat="46.1248880" lon="10.4841640">
	<ele>2665.40</ele>
	<time>2023-08-07T11:19:30.000Z</time>
</trkpt>
<trkpt lat="46.1248890" lon="10.4841630">
	<ele>2665.40</ele>
	<time>2023-08-07T11:19:31.000Z</time>
</trkpt>
<trkpt lat="46.1248890" lon="10.4841630">
	<ele>2665.60</ele>
	<time>2023-08-07T11:19:32.000Z</time>
</trkpt>
<trkpt lat="46.1248890" lon="10.4841620">
	<ele>2665.60</ele>
	<time>2023-08-07T11:19:33.000Z</time>
</trkpt>
<trkpt lat="46.1248900" lon="10.4841620">
	<ele>2665.80</ele>
	<time>2023-08-07T11:19:34.000Z</time>
</trkpt>
<trkpt lat="46.1248900" lon="10.4841610">
	<ele>2665.80</ele>
	<time>2023-08-07T11:19:35.000Z</time>
</trkpt>
<trkpt lat="46.1248900" lon="10.4841610">
	<ele>2666.00</ele>
	<time>2023-08-07T11:19:36.000Z</time>
</trkpt>
<trkpt lat="46.1248910" lon="10.4841610">
	<ele>2666.20</ele>
	<time>2023-08-07T11:19:37.000Z</time>
</trkpt>
<trkpt lat="46.1248910" lon="10.4841600">
	<ele>2666.40</ele>
	<time>2023-08-07T11:19:38.000Z</time>
</trkpt>
<trkpt lat="46.1248910" lon="10.4841600">
	<ele>2666.60</ele>
	<time>2023-08-07T11:19:39.000Z</time>
</trkpt>
<trkpt lat="46.1248910" lon="10.4841600">
	<ele>2666.80</ele>
	<time>2023-08-07T11:19:40.000Z</time>
</trkpt>
<trkpt lat="46.1248920" lon="10.4841590">
	<ele>2666.80</ele>
	<time>2023-08-07T11:19:41.000Z</time>
</trkpt>
<trkpt lat="46.1248920" lon="10.4841590">
	<ele>2666.80</ele>
	<time>2023-08-07T11:19:42.000Z</time>
</trkpt>
<trkpt lat="46.1248920" lon="10.4841590">
	<ele>2667.00</ele>
	<time>2023-08-07T11:19:43.000Z</time>
</trkpt>
<trkpt lat="46.1248920" lon="10.4841580">
	<ele>2667.00</ele>
	<time>2023-08-07T11:19:44.000Z</time>
</trkpt>
<trkpt lat="46.1248930" lon="10.4841580">
	<ele>2667.00</ele>
	<time>2023-08-07T11:19:45.000Z</time>
</trkpt>
<trkpt lat="46.1248930" lon="10.4841580">
	<ele>2667.00</ele>
	<time>2023-08-07T11:19:46.000Z</time>
</trkpt>
<trkpt lat="46.1248930" lon="10.4841580">
	<ele>2667.00</ele>
	<time>2023-08-07T11:19:47.000Z</time>
</trkpt>
<trkpt lat="46.1248930" lon="10.4841570">
	<ele>2666.80</ele>
	<time>2023-08-07T11:19:48.000Z</time>
</trkpt>
<trkpt lat="46.1248940" lon="10.4841570">
	<ele>2666.80</ele>
	<time>2023-08-07T11:19:49.000Z</time>
</trkpt>
<trkpt lat="46.1248940" lon="10.4841570">
	<ele>2666.60</ele>
	<time>2023-08-07T11:19:50.000Z</time>
</trkpt>
<trkpt lat="46.1248940" lon="10.4841570">
	<ele>2666.60</ele>
	<time>2023-08-07T11:19:51.000Z</time>
</trkpt>
<trkpt lat="46.1248940" lon="10.4841560">
	<ele>2666.60</ele>
	<time>2023-08-07T11:19:52.000Z</time>
</trkpt>
<trkpt lat="46.1248950" lon="10.4841560">
	<ele>2666.60</ele>
	<time>2023-08-07T11:19:53.000Z</time>
</trkpt>
<trkpt lat="46.1248950" lon="10.4841560">
	<ele>2666.60</ele>
	<time>2023-08-07T11:19:54.000Z</time>
</trkpt>
<trkpt lat="46.1248950" lon="10.4841550">
	<ele>2666.60</ele>
	<time>2023-08-07T11:19:55.000Z</time>
</trkpt>
<trkpt lat="46.1248950" lon="10.4841550">
	<ele>2666.60</ele>
	<time>2023-08-07T11:19:56.000Z</time>
</trkpt>
<trkpt lat="46.1248960" lon="10.4841550">
	<ele>2666.60</ele>
	<time>2023-08-07T11:19:57.000Z</time>
</trkpt>
<trkpt lat="46.1248960" lon="10.4841550">
	<ele>2666.60</ele>
	<time>2023-08-07T11:19:58.000Z</time>
</trkpt>
<trkpt lat="46.1248960" lon="10.4841540">
	<ele>2666.60</ele>
	<time>2023-08-07T11:19:59.000Z</time>
</trkpt>
<trkpt lat="46.1248970" lon="10.4841540">
	<ele>2666.60</ele>
	<time>2023-08-07T11:20:00.000Z</time>
</trkpt>
<trkpt lat="46.1248970" lon="10.4841540">
	<ele>2666.60</ele>
	<time>2023-08-07T11:20:01.000Z</time>
</trkpt>
<trkpt lat="46.1248970" lon="10.4841540">
	<ele>2666.60</ele>
	<time>2023-08-07T11:20:02.000Z</time>
</trkpt>
<trkpt lat="46.1248970" lon="10.4841540">
	<ele>2666.60</ele>
	<time>2023-08-07T11:20:03.000Z</time>
</trkpt>
<trkpt lat="46.1248970" lon="10.4841530">
	<ele>2666.60</ele>
	<time>2023-08-07T11:20:04.000Z</time>
</trkpt>
<trkpt lat="46.1248980" lon="10.4841530">
	<ele>2666.60</ele>
	<time>2023-08-07T11:20:05.000Z</time>
</trkpt>
<trkpt lat="46.1248980" lon="10.4841520">
	<ele>2666.60</ele>
	<time>2023-08-07T11:20:06.000Z</time>
</trkpt>
<trkpt lat="46.1248980" lon="10.4841520">
	<ele>2666.60</ele>
	<time>2023-08-07T11:20:07.000Z</time>
</trkpt>
<trkpt lat="46.1248980" lon="10.4841520">
	<ele>2666.40</ele>
	<time>2023-08-07T11:20:08.000Z</time>
</trkpt>
<trkpt lat="46.1248980" lon="10.4841510">
	<ele>2666.40</ele>
	<time>2023-08-07T11:20:09.000Z</time>
</trkpt>
<trkpt lat="46.1248990" lon="10.4841510">
	<ele>2666.40</ele>
	<time>2023-08-07T11:20:10.000Z</time>
</trkpt>
<trkpt lat="46.1248990" lon="10.4841510">
	<ele>2666.60</ele>
	<time>2023-08-07T11:20:11.000Z</time>
</trkpt>
<trkpt lat="46.1248990" lon="10.4841500">
	<ele>2666.60</ele>
	<time>2023-08-07T11:20:12.000Z</time>
</trkpt>
<trkpt lat="46.1248990" lon="10.4841500">
	<ele>2666.60</ele>
	<time>2023-08-07T11:20:13.000Z</time>
</trkpt>
<trkpt lat="46.1248990" lon="10.4841500">
	<ele>2666.80</ele>
	<time>2023-08-07T11:20:14.000Z</time>
</trkpt>
<trkpt lat="46.1249000" lon="10.4841500">
	<ele>2666.80</ele>
	<time>2023-08-07T11:20:15.000Z</time>
</trkpt>
<trkpt lat="46.1249000" lon="10.4841490">
	<ele>2666.80</ele>
	<time>2023-08-07T11:20:16.000Z</time>
</trkpt>
<trkpt lat="46.1249000" lon="10.4841490">
	<ele>2666.80</ele>
	<time>2023-08-07T11:20:17.000Z</time>
</trkpt>
<trkpt lat="46.1249000" lon="10.4841490">
	<ele>2666.80</ele>
	<time>2023-08-07T11:20:18.000Z</time>
</trkpt>
<trkpt lat="46.1249010" lon="10.4841480">
	<ele>2666.80</ele>
	<time>2023-08-07T11:20:19.000Z</time>
</trkpt>
<trkpt lat="46.1249010" lon="10.4841480">
	<ele>2666.80</ele>
	<time>2023-08-07T11:20:20.000Z</time>
</trkpt>
<trkpt lat="46.1249010" lon="10.4841480">
	<ele>2666.80</ele>
	<time>2023-08-07T11:20:21.000Z</time>
</trkpt>
<trkpt lat="46.1249020" lon="10.4841470">
	<ele>2666.80</ele>
	<time>2023-08-07T11:20:22.000Z</time>
</trkpt>
<trkpt lat="46.1249020" lon="10.4841470">
	<ele>2666.80</ele>
	<time>2023-08-07T11:20:23.000Z</time>
</trkpt>
<trkpt lat="46.1249020" lon="10.4841470">
	<ele>2666.80</ele>
	<time>2023-08-07T11:20:24.000Z</time>
</trkpt>
<trkpt lat="46.1249020" lon="10.4841470">
	<ele>2667.00</ele>
	<time>2023-08-07T11:20:25.000Z</time>
</trkpt>
<trkpt lat="46.1249020" lon="10.4841460">
	<ele>2667.00</ele>
	<time>2023-08-07T11:20:26.000Z</time>
</trkpt>
<trkpt lat="46.1249030" lon="10.4841460">
	<ele>2667.00</ele>
	<time>2023-08-07T11:20:27.000Z</time>
</trkpt>
<trkpt lat="46.1249030" lon="10.4841460">
	<ele>2667.00</ele>
	<time>2023-08-07T11:20:28.000Z</time>
</trkpt>
<trkpt lat="46.1249030" lon="10.4841460">
	<ele>2667.00</ele>
	<time>2023-08-07T11:20:29.000Z</time>
</trkpt>
<trkpt lat="46.1249030" lon="10.4841460">
	<ele>2667.00</ele>
	<time>2023-08-07T11:20:30.000Z</time>
</trkpt>
<trkpt lat="46.1249040" lon="10.4841450">
	<ele>2667.00</ele>
	<time>2023-08-07T11:20:31.000Z</time>
</trkpt>
<trkpt lat="46.1249040" lon="10.4841450">
	<ele>2667.20</ele>
	<time>2023-08-07T11:20:32.000Z</time>
</trkpt>
<trkpt lat="46.1249040" lon="10.4841450">
	<ele>2667.20</ele>
	<time>2023-08-07T11:20:33.000Z</time>
</trkpt>
<trkpt lat="46.1249040" lon="10.4841450">
	<ele>2667.20</ele>
	<time>2023-08-07T11:20:34.000Z</time>
</trkpt>
<trkpt lat="46.1249050" lon="10.4841450">
	<ele>2667.20</ele>
	<time>2023-08-07T11:20:35.000Z</time>
</trkpt>
<trkpt lat="46.1249050" lon="10.4841450">
	<ele>2667.20</ele>
	<time>2023-08-07T11:20:36.000Z</time>
</trkpt>
<trkpt lat="46.1249050" lon="10.4841450">
	<ele>2667.20</ele>
	<time>2023-08-07T11:20:37.000Z</time>
</trkpt>
<trkpt lat="46.1249050" lon="10.4841440">
	<ele>2667.20</ele>
	<time>2023-08-07T11:20:38.000Z</time>
</trkpt>
<trkpt lat="46.1249050" lon="10.4841440">
	<ele>2667.20</ele>
	<time>2023-08-07T11:20:39.000Z</time>
</trkpt>
<trkpt lat="46.1249050" lon="10.4841440">
	<ele>2667.40</ele>
	<time>2023-08-07T11:20:40.000Z</time>
</trkpt>
<trkpt lat="46.1249060" lon="10.4841430">
	<ele>2667.80</ele>
	<time>2023-08-07T11:20:41.000Z</time>
</trkpt>
<trkpt lat="46.1249060" lon="10.4841430">
	<ele>2667.80</ele>
	<time>2023-08-07T11:20:42.000Z</time>
</trkpt>
<trkpt lat="46.1249060" lon="10.4841430">
	<ele>2668.00</ele>
	<time>2023-08-07T11:20:43.000Z</time>
</trkpt>
<trkpt lat="46.1249060" lon="10.4841430">
	<ele>2668.00</ele>
	<time>2023-08-07T11:20:44.000Z</time>
</trkpt>
<trkpt lat="46.1249070" lon="10.4841420">
	<ele>2668.00</ele>
	<time>2023-08-07T11:20:45.000Z</time>
</trkpt>
<trkpt lat="46.1249070" lon="10.4841420">
	<ele>2668.20</ele>
	<time>2023-08-07T11:20:46.000Z</time>
</trkpt>
<trkpt lat="46.1249070" lon="10.4841420">
	<ele>2668.20</ele>
	<time>2023-08-07T11:20:47.000Z</time>
</trkpt>
<trkpt lat="46.1249070" lon="10.4841410">
	<ele>2668.40</ele>
	<time>2023-08-07T11:20:48.000Z</time>
</trkpt>
<trkpt lat="46.1249070" lon="10.4841410">
	<ele>2668.40</ele>
	<time>2023-08-07T11:20:49.000Z</time>
</trkpt>
<trkpt lat="46.1249080" lon="10.4841410">
	<ele>2668.60</ele>
	<time>2023-08-07T11:20:50.000Z</time>
</trkpt>
<trkpt lat="46.1249080" lon="10.4841400">
	<ele>2668.60</ele>
	<time>2023-08-07T11:20:51.000Z</time>
</trkpt>
<trkpt lat="46.1249080" lon="10.4841400">
	<ele>2668.60</ele>
	<time>2023-08-07T11:20:52.000Z</time>
</trkpt>
<trkpt lat="46.1249080" lon="10.4841400">
	<ele>2668.80</ele>
	<time>2023-08-07T11:20:53.000Z</time>
</trkpt>
<trkpt lat="46.1249080" lon="10.4841390">
	<ele>2669.20</ele>
	<time>2023-08-07T11:20:54.000Z</time>
</trkpt>
<trkpt lat="46.1249090" lon="10.4841390">
	<ele>2669.40</ele>
	<time>2023-08-07T11:20:55.000Z</time>
</trkpt>
<trkpt lat="46.1249090" lon="10.4841390">
	<ele>2669.60</ele>
	<time>2023-08-07T11:20:56.000Z</time>
</trkpt>
<trkpt lat="46.1249090" lon="10.4841380">
	<ele>2669.80</ele>
	<time>2023-08-07T11:20:57.000Z</time>
</trkpt>
<trkpt lat="46.1249090" lon="10.4841380">
	<ele>2669.80</ele>
	<time>2023-08-07T11:20:58.000Z</time>
</trkpt>
<trkpt lat="46.1249090" lon="10.4841380">
	<ele>2670.00</ele>
	<time>2023-08-07T11:20:59.000Z</time>
</trkpt>
<trkpt lat="46.1249090" lon="10.4841370">
	<ele>2670.20</ele>
	<time>2023-08-07T11:21:00.000Z</time>
</trkpt>
<trkpt lat="46.1249100" lon="10.4841370">
	<ele>2670.40</ele>
	<time>2023-08-07T11:21:01.000Z</time>
</trkpt>
<trkpt lat="46.1249100" lon="10.4841370">
	<ele>2670.60</ele>
	<time>2023-08-07T11:21:02.000Z</time>
</trkpt>
<trkpt lat="46.1249100" lon="10.4841360">
	<ele>2670.80</ele>
	<time>2023-08-07T11:21:03.000Z</time>
</trkpt>
<trkpt lat="46.1249100" lon="10.4841360">
	<ele>2670.80</ele>
	<time>2023-08-07T11:21:04.000Z</time>
</trkpt>
<trkpt lat="46.1249100" lon="10.4841360">
	<ele>2671.00</ele>
	<time>2023-08-07T11:21:05.000Z</time>
</trkpt>
<trkpt lat="46.1249110" lon="10.4841350">
	<ele>2671.00</ele>
	<time>2023-08-07T11:21:06.000Z</time>
</trkpt>
<trkpt lat="46.1249110" lon="10.4841350">
	<ele>2671.20</ele>
	<time>2023-08-07T11:21:07.000Z</time>
</trkpt>
<trkpt lat="46.1249110" lon="10.4841340">
	<ele>2671.20</ele>
	<time>2023-08-07T11:21:08.000Z</time>
</trkpt>
<trkpt lat="46.1249110" lon="10.4841340">
	<ele>2671.40</ele>
	<time>2023-08-07T11:21:09.000Z</time>
</trkpt>
<trkpt lat="46.1249120" lon="10.4841340">
	<ele>2671.40</ele>
	<time>2023-08-07T11:21:10.000Z</time>
</trkpt>
<trkpt lat="46.1249120" lon="10.4841330">
	<ele>2671.60</ele>
	<time>2023-08-07T11:21:11.000Z</time>
</trkpt>
<trkpt lat="46.1249120" lon="10.4841330">
	<ele>2671.60</ele>
	<time>2023-08-07T11:21:12.000Z</time>
</trkpt>
<trkpt lat="46.1249120" lon="10.4841330">
	<ele>2671.60</ele>
	<time>2023-08-07T11:21:13.000Z</time>
</trkpt>
<trkpt lat="46.1249120" lon="10.4841320">
	<ele>2671.80</ele>
	<time>2023-08-07T11:21:14.000Z</time>
</trkpt>
<trkpt lat="46.1249130" lon="10.4841320">
	<ele>2672.00</ele>
	<time>2023-08-07T11:21:15.000Z</time>
</trkpt>
<trkpt lat="46.1249130" lon="10.4841310">
	<ele>2672.20</ele>
	<time>2023-08-07T11:21:16.000Z</time>
</trkpt>
<trkpt lat="46.1249130" lon="10.4841310">
	<ele>2672.20</ele>
	<time>2023-08-07T11:21:17.000Z</time>
</trkpt>
<trkpt lat="46.1249130" lon="10.4841300">
	<ele>2672.40</ele>
	<time>2023-08-07T11:21:18.000Z</time>
</trkpt>
<trkpt lat="46.1249130" lon="10.4841300">
	<ele>2672.40</ele>
	<time>2023-08-07T11:21:19.000Z</time>
</trkpt>
<trkpt lat="46.1249140" lon="10.4841300">
	<ele>2672.40</ele>
	<time>2023-08-07T11:21:20.000Z</time>
</trkpt>
<trkpt lat="46.1249140" lon="10.4841290">
	<ele>2672.40</ele>
	<time>2023-08-07T11:21:21.000Z</time>
</trkpt>
<trkpt lat="46.1249140" lon="10.4841290">
	<ele>2672.40</ele>
	<time>2023-08-07T11:21:22.000Z</time>
</trkpt>
<trkpt lat="46.1249140" lon="10.4841280">
	<ele>2672.60</ele>
	<time>2023-08-07T11:21:23.000Z</time>
</trkpt>
<trkpt lat="46.1249140" lon="10.4841280">
	<ele>2672.80</ele>
	<time>2023-08-07T11:21:24.000Z</time>
</trkpt>
<trkpt lat="46.1249150" lon="10.4841270">
	<ele>2673.00</ele>
	<time>2023-08-07T11:21:25.000Z</time>
</trkpt>
<trkpt lat="46.1249150" lon="10.4841270">
	<ele>2673.20</ele>
	<time>2023-08-07T11:21:26.000Z</time>
</trkpt>
<trkpt lat="46.1249150" lon="10.4841260">
	<ele>2673.40</ele>
	<time>2023-08-07T11:21:27.000Z</time>
</trkpt>
<trkpt lat="46.1249150" lon="10.4841260">
	<ele>2673.40</ele>
	<time>2023-08-07T11:21:28.000Z</time>
</trkpt>
<trkpt lat="46.1249150" lon="10.4841260">
	<ele>2673.40</ele>
	<time>2023-08-07T11:21:29.000Z</time>
</trkpt>
<trkpt lat="46.1249160" lon="10.4841250">
	<ele>2673.60</ele>
	<time>2023-08-07T11:21:30.000Z</time>
</trkpt>
<trkpt lat="46.1249160" lon="10.4841250">
	<ele>2673.80</ele>
	<time>2023-08-07T11:21:31.000Z</time>
</trkpt>
<trkpt lat="46.1249160" lon="10.4841240">
	<ele>2674.00</ele>
	<time>2023-08-07T11:21:32.000Z</time>
</trkpt>
<trkpt lat="46.1249160" lon="10.4841240">
	<ele>2674.40</ele>
	<time>2023-08-07T11:21:33.000Z</time>
</trkpt>
<trkpt lat="46.1249170" lon="10.4841230">
	<ele>2674.60</ele>
	<time>2023-08-07T11:21:34.000Z</time>
</trkpt>
<trkpt lat="46.1249170" lon="10.4841230">
	<ele>2674.80</ele>
	<time>2023-08-07T11:21:35.000Z</time>
</trkpt>
<trkpt lat="46.1249170" lon="10.4841230">
	<ele>2675.00</ele>
	<time>2023-08-07T11:21:36.000Z</time>
</trkpt>
<trkpt lat="46.1249170" lon="10.4841220">
	<ele>2675.00</ele>
	<time>2023-08-07T11:21:37.000Z</time>
</trkpt>
<trkpt lat="46.1249180" lon="10.4841220">
	<ele>2675.00</ele>
	<time>2023-08-07T11:21:38.000Z</time>
</trkpt>
<trkpt lat="46.1249180" lon="10.4841210">
	<ele>2675.00</ele>
	<time>2023-08-07T11:21:39.000Z</time>
</trkpt>
<trkpt lat="46.1249180" lon="10.4841210">
	<ele>2675.20</ele>
	<time>2023-08-07T11:21:40.000Z</time>
</trkpt>
<trkpt lat="46.1249180" lon="10.4841200">
	<ele>2675.40</ele>
	<time>2023-08-07T11:21:41.000Z</time>
</trkpt>
<trkpt lat="46.1249180" lon="10.4841200">
	<ele>2675.40</ele>
	<time>2023-08-07T11:21:42.000Z</time>
</trkpt>
<trkpt lat="46.1249190" lon="10.4841190">
	<ele>2675.60</ele>
	<time>2023-08-07T11:21:43.000Z</time>
</trkpt>
<trkpt lat="46.1249190" lon="10.4841190">
	<ele>2675.60</ele>
	<time>2023-08-07T11:21:44.000Z</time>
</trkpt>
<trkpt lat="46.1249190" lon="10.4841180">
	<ele>2675.80</ele>
	<time>2023-08-07T11:21:45.000Z</time>
</trkpt>
<trkpt lat="46.1249190" lon="10.4841180">
	<ele>2675.80</ele>
	<time>2023-08-07T11:21:46.000Z</time>
</trkpt>
<trkpt lat="46.1249200" lon="10.4841180">
	<ele>2675.60</ele>
	<time>2023-08-07T11:21:47.000Z</time>
</trkpt>
<trkpt lat="46.1249200" lon="10.4841170">
	<ele>2675.40</ele>
	<time>2023-08-07T11:21:48.000Z</time>
</trkpt>
<trkpt lat="46.1249200" lon="10.4841170">
	<ele>2675.40</ele>
	<time>2023-08-07T11:21:49.000Z</time>
</trkpt>
<trkpt lat="46.1249210" lon="10.4841170">
	<ele>2675.40</ele>
	<time>2023-08-07T11:21:50.000Z</time>
</trkpt>
<trkpt lat="46.1249210" lon="10.4841160">
	<ele>2675.40</ele>
	<time>2023-08-07T11:21:51.000Z</time>
</trkpt>
<trkpt lat="46.1249210" lon="10.4841160">
	<ele>2675.40</ele>
	<time>2023-08-07T11:21:52.000Z</time>
</trkpt>
<trkpt lat="46.1249210" lon="10.4841150">
	<ele>2675.40</ele>
	<time>2023-08-07T11:21:53.000Z</time>
</trkpt>
<trkpt lat="46.1249220" lon="10.4841150">
	<ele>2675.40</ele>
	<time>2023-08-07T11:21:54.000Z</time>
</trkpt>
<trkpt lat="46.1249220" lon="10.4841150">
	<ele>2675.60</ele>
	<time>2023-08-07T11:21:55.000Z</time>
</trkpt>
<trkpt lat="46.1249220" lon="10.4841140">
	<ele>2675.60</ele>
	<time>2023-08-07T11:21:56.000Z</time>
</trkpt>
<trkpt lat="46.1249220" lon="10.4841140">
	<ele>2675.60</ele>
	<time>2023-08-07T11:21:57.000Z</time>
</trkpt>
<trkpt lat="46.1249230" lon="10.4841130">
	<ele>2675.60</ele>
	<time>2023-08-07T11:21:58.000Z</time>
</trkpt>
<trkpt lat="46.1249230" lon="10.4841130">
	<ele>2675.60</ele>
	<time>2023-08-07T11:21:59.000Z</time>
</trkpt>
<trkpt lat="46.1249230" lon="10.4841120">
	<ele>2675.60</ele>
	<time>2023-08-07T11:22:00.000Z</time>
</trkpt>
<trkpt lat="46.1249240" lon="10.4841120">
	<ele>2675.60</ele>
	<time>2023-08-07T11:22:01.000Z</time>
</trkpt>
<trkpt lat="46.1249240" lon="10.4841110">
	<ele>2675.60</ele>
	<time>2023-08-07T11:22:02.000Z</time>
</trkpt>
<trkpt lat="46.1249240" lon="10.4841110">
	<ele>2675.40</ele>
	<time>2023-08-07T11:22:03.000Z</time>
</trkpt>
<trkpt lat="46.1249240" lon="10.4841100">
	<ele>2675.40</ele>
	<time>2023-08-07T11:22:04.000Z</time>
</trkpt>
<trkpt lat="46.1249250" lon="10.4841100">
	<ele>2675.40</ele>
	<time>2023-08-07T11:22:05.000Z</time>
</trkpt>
<trkpt lat="46.1249250" lon="10.4841100">
	<ele>2675.60</ele>
	<time>2023-08-07T11:22:06.000Z</time>
</trkpt>
<trkpt lat="46.1249250" lon="10.4841090">
	<ele>2675.60</ele>
	<time>2023-08-07T11:22:07.000Z</time>
</trkpt>
<trkpt lat="46.1249250" lon="10.4841090">
	<ele>2675.80</ele>
	<time>2023-08-07T11:22:08.000Z</time>
</trkpt>
<trkpt lat="46.1249260" lon="10.4841090">
	<ele>2675.80</ele>
	<time>2023-08-07T11:22:09.000Z</time>
</trkpt>
<trkpt lat="46.1249260" lon="10.4841080">
	<ele>2675.80</ele>
	<time>2023-08-07T11:22:10.000Z</time>
</trkpt>
<trkpt lat="46.1249260" lon="10.4841080">
	<ele>2675.80</ele>
	<time>2023-08-07T11:22:11.000Z</time>
</trkpt>
<trkpt lat="46.1249260" lon="10.4841070">
	<ele>2675.80</ele>
	<time>2023-08-07T11:22:12.000Z</time>
</trkpt>
<trkpt lat="46.1249260" lon="10.4841070">
	<ele>2675.80</ele>
	<time>2023-08-07T11:22:13.000Z</time>
</trkpt>
<trkpt lat="46.1249270" lon="10.4841060">
	<ele>2675.80</ele>
	<time>2023-08-07T11:22:14.000Z</time>
</trkpt>
<trkpt lat="46.1249270" lon="10.4841060">
	<ele>2675.80</ele>
	<time>2023-08-07T11:22:15.000Z</time>
</trkpt>
<trkpt lat="46.1249270" lon="10.4841060">
	<ele>2675.80</ele>
	<time>2023-08-07T11:22:16.000Z</time>
</trkpt>
<trkpt lat="46.1249270" lon="10.4841050">
	<ele>2675.80</ele>
	<time>2023-08-07T11:22:17.000Z</time>
</trkpt>
<trkpt lat="46.1249280" lon="10.4841050">
	<ele>2675.80</ele>
	<time>2023-08-07T11:22:18.000Z</time>
</trkpt>
<trkpt lat="46.1249280" lon="10.4841050">
	<ele>2675.80</ele>
	<time>2023-08-07T11:22:19.000Z</time>
</trkpt>
<trkpt lat="46.1249280" lon="10.4841040">
	<ele>2675.80</ele>
	<time>2023-08-07T11:22:20.000Z</time>
</trkpt>
<trkpt lat="46.1249280" lon="10.4841040">
	<ele>2675.60</ele>
	<time>2023-08-07T11:22:21.000Z</time>
</trkpt>
<trkpt lat="46.1249290" lon="10.4841040">
	<ele>2675.40</ele>
	<time>2023-08-07T11:22:22.000Z</time>
</trkpt>
<trkpt lat="46.1249290" lon="10.4841030">
	<ele>2675.40</ele>
	<time>2023-08-07T11:22:23.000Z</time>
</trkpt>
<trkpt lat="46.1249290" lon="10.4841030">
	<ele>2675.40</ele>
	<time>2023-08-07T11:22:24.000Z</time>
</trkpt>
<trkpt lat="46.1249290" lon="10.4841020">
	<ele>2675.20</ele>
	<time>2023-08-07T11:22:25.000Z</time>
</trkpt>
<trkpt lat="46.1249300" lon="10.4841020">
	<ele>2675.20</ele>
	<time>2023-08-07T11:22:26.000Z</time>
</trkpt>
<trkpt lat="46.1249300" lon="10.4841010">
	<ele>2675.40</ele>
	<time>2023-08-07T11:22:27.000Z</time>
</trkpt>
<trkpt lat="46.1249300" lon="10.4841010">
	<ele>2675.60</ele>
	<time>2023-08-07T11:22:28.000Z</time>
</trkpt>
<trkpt lat="46.1249300" lon="10.4841010">
	<ele>2675.60</ele>
	<time>2023-08-07T11:22:29.000Z</time>
</trkpt>
<trkpt lat="46.1249300" lon="10.4841000">
	<ele>2675.60</ele>
	<time>2023-08-07T11:22:30.000Z</time>
</trkpt>
<trkpt lat="46.1249300" lon="10.4841000">
	<ele>2675.60</ele>
	<time>2023-08-07T11:22:31.000Z</time>
</trkpt>
<trkpt lat="46.1249310" lon="10.4840990">
	<ele>2675.80</ele>
	<time>2023-08-07T11:22:32.000Z</time>
</trkpt>
<trkpt lat="46.1249310" lon="10.4840990">
	<ele>2676.00</ele>
	<time>2023-08-07T11:22:33.000Z</time>
</trkpt>
<trkpt lat="46.1249310" lon="10.4840990">
	<ele>2676.00</ele>
	<time>2023-08-07T11:22:34.000Z</time>
</trkpt>
<trkpt lat="46.1249310" lon="10.4840980">
	<ele>2676.20</ele>
	<time>2023-08-07T11:22:35.000Z</time>
</trkpt>
<trkpt lat="46.1249320" lon="10.4840980">
	<ele>2676.40</ele>
	<time>2023-08-07T11:22:36.000Z</time>
</trkpt>
<trkpt lat="46.1249320" lon="10.4840970">
	<ele>2676.40</ele>
	<time>2023-08-07T11:22:37.000Z</time>
</trkpt>
<trkpt lat="46.1249320" lon="10.4840970">
	<ele>2676.60</ele>
	<time>2023-08-07T11:22:38.000Z</time>
</trkpt>
<trkpt lat="46.1249320" lon="10.4840970">
	<ele>2677.00</ele>
	<time>2023-08-07T11:22:39.000Z</time>
</trkpt>
<trkpt lat="46.1249320" lon="10.4840960">
	<ele>2677.20</ele>
	<time>2023-08-07T11:22:40.000Z</time>
</trkpt>
<trkpt lat="46.1249330" lon="10.4840960">
	<ele>2677.20</ele>
	<time>2023-08-07T11:22:41.000Z</time>
</trkpt>
<trkpt lat="46.1249330" lon="10.4840950">
	<ele>2677.40</ele>
	<time>2023-08-07T11:22:42.000Z</time>
</trkpt>
<trkpt lat="46.1249330" lon="10.4840950">
	<ele>2677.60</ele>
	<time>2023-08-07T11:22:43.000Z</time>
</trkpt>
<trkpt lat="46.1249330" lon="10.4840950">
	<ele>2677.60</ele>
	<time>2023-08-07T11:22:44.000Z</time>
</trkpt>
<trkpt lat="46.1249340" lon="10.4840940">
	<ele>2677.60</ele>
	<time>2023-08-07T11:22:45.000Z</time>
</trkpt>
<trkpt lat="46.1249340" lon="10.4840940">
	<ele>2677.60</ele>
	<time>2023-08-07T11:22:46.000Z</time>
</trkpt>
<trkpt lat="46.1249340" lon="10.4840930">
	<ele>2677.80</ele>
	<time>2023-08-07T11:22:47.000Z</time>
</trkpt>
<trkpt lat="46.1249340" lon="10.4840930">
	<ele>2677.80</ele>
	<time>2023-08-07T11:22:48.000Z</time>
</trkpt>
<trkpt lat="46.1249350" lon="10.4840920">
	<ele>2678.00</ele>
	<time>2023-08-07T11:22:49.000Z</time>
</trkpt>
<trkpt lat="46.1249350" lon="10.4840920">
	<ele>2678.20</ele>
	<time>2023-08-07T11:22:50.000Z</time>
</trkpt>
<trkpt lat="46.1249350" lon="10.4840910">
	<ele>2678.40</ele>
	<time>2023-08-07T11:22:51.000Z</time>
</trkpt>
<trkpt lat="46.1249360" lon="10.4840910">
	<ele>2678.40</ele>
	<time>2023-08-07T11:22:52.000Z</time>
</trkpt>
<trkpt lat="46.1249360" lon="10.4840900">
	<ele>2678.40</ele>
	<time>2023-08-07T11:22:53.000Z</time>
</trkpt>
<trkpt lat="46.1249360" lon="10.4840900">
	<ele>2678.80</ele>
	<time>2023-08-07T11:22:54.000Z</time>
</trkpt>
<trkpt lat="46.1249360" lon="10.4840900">
	<ele>2679.00</ele>
	<time>2023-08-07T11:22:55.000Z</time>
</trkpt>
<trkpt lat="46.1249370" lon="10.4840890">
	<ele>2679.20</ele>
	<time>2023-08-07T11:22:56.000Z</time>
</trkpt>
<trkpt lat="46.1249370" lon="10.4840880">
	<ele>2679.40</ele>
	<time>2023-08-07T11:22:57.000Z</time>
</trkpt>
<trkpt lat="46.1249370" lon="10.4840880">
	<ele>2679.60</ele>
	<time>2023-08-07T11:22:58.000Z</time>
</trkpt>
<trkpt lat="46.1249380" lon="10.4840870">
	<ele>2679.60</ele>
	<time>2023-08-07T11:22:59.000Z</time>
</trkpt>
<trkpt lat="46.1249380" lon="10.4840870">
	<ele>2679.60</ele>
	<time>2023-08-07T11:23:00.000Z</time>
</trkpt>
<trkpt lat="46.1249380" lon="10.4840860">
	<ele>2679.60</ele>
	<time>2023-08-07T11:23:01.000Z</time>
</trkpt>
<trkpt lat="46.1249380" lon="10.4840860">
	<ele>2679.80</ele>
	<time>2023-08-07T11:23:02.000Z</time>
</trkpt>
<trkpt lat="46.1249390" lon="10.4840850">
	<ele>2680.00</ele>
	<time>2023-08-07T11:23:03.000Z</time>
</trkpt>
<trkpt lat="46.1249390" lon="10.4840850">
	<ele>2680.40</ele>
	<time>2023-08-07T11:23:04.000Z</time>
</trkpt>
<trkpt lat="46.1249390" lon="10.4840840">
	<ele>2680.60</ele>
	<time>2023-08-07T11:23:05.000Z</time>
</trkpt>
<trkpt lat="46.1249400" lon="10.4840840">
	<ele>2680.60</ele>
	<time>2023-08-07T11:23:06.000Z</time>
</trkpt>
<trkpt lat="46.1249400" lon="10.4840830">
	<ele>2680.80</ele>
	<time>2023-08-07T11:23:07.000Z</time>
</trkpt>
<trkpt lat="46.1249400" lon="10.4840830">
	<ele>2680.80</ele>
	<time>2023-08-07T11:23:08.000Z</time>
</trkpt>
<trkpt lat="46.1249410" lon="10.4840820">
	<ele>2681.00</ele>
	<time>2023-08-07T11:23:09.000Z</time>
</trkpt>
<trkpt lat="46.1249410" lon="10.4840820">
	<ele>2681.00</ele>
	<time>2023-08-07T11:23:10.000Z</time>
</trkpt>
<trkpt lat="46.1249410" lon="10.4840810">
	<ele>2681.00</ele>
	<time>2023-08-07T11:23:11.000Z</time>
</trkpt>
<trkpt lat="46.1249410" lon="10.4840810">
	<ele>2681.20</ele>
	<time>2023-08-07T11:23:12.000Z</time>
</trkpt>
<trkpt lat="46.1249420" lon="10.4840800">
	<ele>2681.20</ele>
	<time>2023-08-07T11:23:13.000Z</time>
</trkpt>
<trkpt lat="46.1249420" lon="10.4840800">
	<ele>2681.40</ele>
	<time>2023-08-07T11:23:14.000Z</time>
</trkpt>
<trkpt lat="46.1249420" lon="10.4840790">
	<ele>2681.60</ele>
	<time>2023-08-07T11:23:15.000Z</time>
</trkpt>
<trkpt lat="46.1249430" lon="10.4840790">
	<ele>2681.60</ele>
	<time>2023-08-07T11:23:16.000Z</time>
</trkpt>
<trkpt lat="46.1249430" lon="10.4840780">
	<ele>2681.80</ele>
	<time>2023-08-07T11:23:17.000Z</time>
</trkpt>
<trkpt lat="46.1249430" lon="10.4840780">
	<ele>2682.00</ele>
	<time>2023-08-07T11:23:18.000Z</time>
</trkpt>
<trkpt lat="46.1249430" lon="10.4840770">
	<ele>2682.00</ele>
	<time>2023-08-07T11:23:19.000Z</time>
</trkpt>
<trkpt lat="46.1249440" lon="10.4840770">
	<ele>2682.20</ele>
	<time>2023-08-07T11:23:20.000Z</time>
</trkpt>
<trkpt lat="46.1249440" lon="10.4840760">
	<ele>2682.40</ele>
	<time>2023-08-07T11:23:21.000Z</time>
</trkpt>
<trkpt lat="46.1249440" lon="10.4840750">
	<ele>2682.40</ele>
	<time>2023-08-07T11:23:22.000Z</time>
</trkpt>
<trkpt lat="46.1249450" lon="10.4840750">
	<ele>2682.60</ele>
	<time>2023-08-07T11:23:23.000Z</time>
</trkpt>
<trkpt lat="46.1249450" lon="10.4840740">
	<ele>2682.60</ele>
	<time>2023-08-07T11:23:24.000Z</time>
</trkpt>
<trkpt lat="46.1249450" lon="10.4840740">
	<ele>2682.60</ele>
	<time>2023-08-07T11:23:25.000Z</time>
</trkpt>
<trkpt lat="46.1249450" lon="10.4840730">
	<ele>2682.60</ele>
	<time>2023-08-07T11:23:26.000Z</time>
</trkpt>
<trkpt lat="46.1249460" lon="10.4840730">
	<ele>2682.80</ele>
	<time>2023-08-07T11:23:27.000Z</time>
</trkpt>
<trkpt lat="46.1249460" lon="10.4840720">
	<ele>2682.80</ele>
	<time>2023-08-07T11:23:28.000Z</time>
</trkpt>
<trkpt lat="46.1249460" lon="10.4840710">
	<ele>2682.80</ele>
	<time>2023-08-07T11:23:29.000Z</time>
</trkpt>
<trkpt lat="46.1249470" lon="10.4840710">
	<ele>2683.00</ele>
	<time>2023-08-07T11:23:30.000Z</time>
</trkpt>
<trkpt lat="46.1249470" lon="10.4840700">
	<ele>2683.00</ele>
	<time>2023-08-07T11:23:31.000Z</time>
</trkpt>
<trkpt lat="46.1249470" lon="10.4840700">
	<ele>2683.00</ele>
	<time>2023-08-07T11:23:32.000Z</time>
</trkpt>
<trkpt lat="46.1249470" lon="10.4840690">
	<ele>2683.00</ele>
	<time>2023-08-07T11:23:33.000Z</time>
</trkpt>
<trkpt lat="46.1249480" lon="10.4840680">
	<ele>2683.00</ele>
	<time>2023-08-07T11:23:34.000Z</time>
</trkpt>
<trkpt lat="46.1249480" lon="10.4840680">
	<ele>2683.00</ele>
	<time>2023-08-07T11:23:35.000Z</time>
</trkpt>
<trkpt lat="46.1249480" lon="10.4840670">
	<ele>2683.00</ele>
	<time>2023-08-07T11:23:36.000Z</time>
</trkpt>
<trkpt lat="46.1249490" lon="10.4840660">
	<ele>2683.00</ele>
	<time>2023-08-07T11:23:37.000Z</time>
</trkpt>
<trkpt lat="46.1249490" lon="10.4840660">
	<ele>2683.00</ele>
	<time>2023-08-07T11:23:38.000Z</time>
</trkpt>
<trkpt lat="46.1249490" lon="10.4840650">
	<ele>2683.00</ele>
	<time>2023-08-07T11:23:39.000Z</time>
</trkpt>
<trkpt lat="46.1249500" lon="10.4840640">
	<ele>2683.00</ele>
	<time>2023-08-07T11:23:40.000Z</time>
</trkpt>
<trkpt lat="46.1249500" lon="10.4840640">
	<ele>2682.60</ele>
	<time>2023-08-07T11:23:41.000Z</time>
</trkpt>
<trkpt lat="46.1249500" lon="10.4840630">
	<ele>2682.60</ele>
	<time>2023-08-07T11:23:42.000Z</time>
</trkpt>
<trkpt lat="46.1249510" lon="10.4840620">
	<ele>2682.40</ele>
	<time>2023-08-07T11:23:43.000Z</time>
</trkpt>
<trkpt lat="46.1249510" lon="10.4840620">
	<ele>2682.40</ele>
	<time>2023-08-07T11:23:44.000Z</time>
</trkpt>
<trkpt lat="46.1249510" lon="10.4840610">
	<ele>2682.40</ele>
	<time>2023-08-07T11:23:45.000Z</time>
</trkpt>
<trkpt lat="46.1249510" lon="10.4840600">
	<ele>2682.60</ele>
	<time>2023-08-07T11:23:46.000Z</time>
</trkpt>
<trkpt lat="46.1249520" lon="10.4840600">
	<ele>2682.60</ele>
	<time>2023-08-07T11:23:47.000Z</time>
</trkpt>
<trkpt lat="46.1249520" lon="10.4840590">
	<ele>2682.80</ele>
	<time>2023-08-07T11:23:48.000Z</time>
</trkpt>
<trkpt lat="46.1249520" lon="10.4840580">
	<ele>2682.80</ele>
	<time>2023-08-07T11:23:49.000Z</time>
</trkpt>
<trkpt lat="46.1249530" lon="10.4840570">
	<ele>2682.80</ele>
	<time>2023-08-07T11:23:50.000Z</time>
</trkpt>
<trkpt lat="46.1249530" lon="10.4840570">
	<ele>2683.20</ele>
	<time>2023-08-07T11:23:51.000Z</time>
</trkpt>
<trkpt lat="46.1249530" lon="10.4840560">
	<ele>2683.40</ele>
	<time>2023-08-07T11:23:52.000Z</time>
</trkpt>
<trkpt lat="46.1249540" lon="10.4840550">
	<ele>2683.40</ele>
	<time>2023-08-07T11:23:53.000Z</time>
</trkpt>
<trkpt lat="46.1249540" lon="10.4840550">
	<ele>2683.60</ele>
	<time>2023-08-07T11:23:54.000Z</time>
</trkpt>
<trkpt lat="46.1249540" lon="10.4840540">
	<ele>2683.60</ele>
	<time>2023-08-07T11:23:55.000Z</time>
</trkpt>
<trkpt lat="46.1249540" lon="10.4840540">
	<ele>2683.60</ele>
	<time>2023-08-07T11:23:56.000Z</time>
</trkpt>
<trkpt lat="46.1249550" lon="10.4840530">
	<ele>2683.60</ele>
	<time>2023-08-07T11:23:57.000Z</time>
</trkpt>
<trkpt lat="46.1249550" lon="10.4840520">
	<ele>2683.80</ele>
	<time>2023-08-07T11:23:58.000Z</time>
</trkpt>
<trkpt lat="46.1249550" lon="10.4840510">
	<ele>2683.80</ele>
	<time>2023-08-07T11:23:59.000Z</time>
</trkpt>
<trkpt lat="46.1249550" lon="10.4840510">
	<ele>2683.80</ele>
	<time>2023-08-07T11:24:00.000Z</time>
</trkpt>
<trkpt lat="46.1249560" lon="10.4840500">
	<ele>2683.80</ele>
	<time>2023-08-07T11:24:01.000Z</time>
</trkpt>
<trkpt lat="46.1249560" lon="10.4840490">
	<ele>2684.00</ele>
	<time>2023-08-07T11:24:02.000Z</time>
</trkpt>
<trkpt lat="46.1249560" lon="10.4840490">
	<ele>2684.00</ele>
	<time>2023-08-07T11:24:03.000Z</time>
</trkpt>
<trkpt lat="46.1249560" lon="10.4840480">
	<ele>2684.00</ele>
	<time>2023-08-07T11:24:04.000Z</time>
</trkpt>
<trkpt lat="46.1249570" lon="10.4840470">
	<ele>2684.20</ele>
	<time>2023-08-07T11:24:05.000Z</time>
</trkpt>
<trkpt lat="46.1249570" lon="10.4840470">
	<ele>2684.20</ele>
	<time>2023-08-07T11:24:06.000Z</time>
</trkpt>
<trkpt lat="46.1249570" lon="10.4840460">
	<ele>2684.40</ele>
	<time>2023-08-07T11:24:07.000Z</time>
</trkpt>
<trkpt lat="46.1249580" lon="10.4840450">
	<ele>2684.60</ele>
	<time>2023-08-07T11:24:08.000Z</time>
</trkpt>
<trkpt lat="46.1249580" lon="10.4840440">
	<ele>2684.80</ele>
	<time>2023-08-07T11:24:09.000Z</time>
</trkpt>
<trkpt lat="46.1249580" lon="10.4840440">
	<ele>2685.00</ele>
	<time>2023-08-07T11:24:10.000Z</time>
</trkpt>
<trkpt lat="46.1249580" lon="10.4840430">
	<ele>2685.00</ele>
	<time>2023-08-07T11:24:11.000Z</time>
</trkpt>
<trkpt lat="46.1249590" lon="10.4840420">
	<ele>2685.20</ele>
	<time>2023-08-07T11:24:12.000Z</time>
</trkpt>
<trkpt lat="46.1249590" lon="10.4840420">
	<ele>2685.20</ele>
	<time>2023-08-07T11:24:13.000Z</time>
</trkpt>
<trkpt lat="46.1249590" lon="10.4840410">
	<ele>2685.40</ele>
	<time>2023-08-07T11:24:14.000Z</time>
</trkpt>
<trkpt lat="46.1249590" lon="10.4840400">
	<ele>2685.60</ele>
	<time>2023-08-07T11:24:15.000Z</time>
</trkpt>
<trkpt lat="46.1249600" lon="10.4840390">
	<ele>2685.80</ele>
	<time>2023-08-07T11:24:16.000Z</time>
</trkpt>
<trkpt lat="46.1249600" lon="10.4840390">
	<ele>2685.80</ele>
	<time>2023-08-07T11:24:17.000Z</time>
</trkpt>
<trkpt lat="46.1249600" lon="10.4840380">
	<ele>2685.80</ele>
	<time>2023-08-07T11:24:18.000Z</time>
</trkpt>
<trkpt lat="46.1249610" lon="10.4840370">
	<ele>2686.00</ele>
	<time>2023-08-07T11:24:19.000Z</time>
</trkpt>
<trkpt lat="46.1249610" lon="10.4840360">
	<ele>2686.00</ele>
	<time>2023-08-07T11:24:20.000Z</time>
</trkpt>
<trkpt lat="46.1249610" lon="10.4840360">
	<ele>2686.20</ele>
	<time>2023-08-07T11:24:21.000Z</time>
</trkpt>
<trkpt lat="46.1249610" lon="10.4840350">
	<ele>2686.60</ele>
	<time>2023-08-07T11:24:22.000Z</time>
</trkpt>
<trkpt lat="46.1249620" lon="10.4840340">
	<ele>2686.80</ele>
	<time>2023-08-07T11:24:23.000Z</time>
</trkpt>
<trkpt lat="46.1249620" lon="10.4840330">
	<ele>2686.80</ele>
	<time>2023-08-07T11:24:24.000Z</time>
</trkpt>
<trkpt lat="46.1249620" lon="10.4840320">
	<ele>2687.00</ele>
	<time>2023-08-07T11:24:25.000Z</time>
</trkpt>
<trkpt lat="46.1249620" lon="10.4840320">
	<ele>2687.00</ele>
	<time>2023-08-07T11:24:26.000Z</time>
</trkpt>
<trkpt lat="46.1249630" lon="10.4840310">
	<ele>2687.20</ele>
	<time>2023-08-07T11:24:27.000Z</time>
</trkpt>
<trkpt lat="46.1249630" lon="10.4840300">
	<ele>2687.40</ele>
	<time>2023-08-07T11:24:28.000Z</time>
</trkpt>
<trkpt lat="46.1249630" lon="10.4840300">
	<ele>2687.60</ele>
	<time>2023-08-07T11:24:29.000Z</time>
</trkpt>
<trkpt lat="46.1249630" lon="10.4840290">
	<ele>2687.80</ele>
	<time>2023-08-07T11:24:30.000Z</time>
</trkpt>
<trkpt lat="46.1249640" lon="10.4840280">
	<ele>2688.00</ele>
	<time>2023-08-07T11:24:31.000Z</time>
</trkpt>
<trkpt lat="46.1249640" lon="10.4840270">
	<ele>2688.20</ele>
	<time>2023-08-07T11:24:32.000Z</time>
</trkpt>
<trkpt lat="46.1249640" lon="10.4840260">
	<ele>2688.40</ele>
	<time>2023-08-07T11:24:33.000Z</time>
</trkpt>
<trkpt lat="46.1249650" lon="10.4840260">
	<ele>2688.40</ele>
	<time>2023-08-07T11:24:34.000Z</time>
</trkpt>
<trkpt lat="46.1249650" lon="10.4840250">
	<ele>2688.60</ele>
	<time>2023-08-07T11:24:35.000Z</time>
</trkpt>
<trkpt lat="46.1249650" lon="10.4840240">
	<ele>2688.60</ele>
	<time>2023-08-07T11:24:36.000Z</time>
</trkpt>
<trkpt lat="46.1249650" lon="10.4840230">
	<ele>2688.80</ele>
	<time>2023-08-07T11:24:37.000Z</time>
</trkpt>
<trkpt lat="46.1249660" lon="10.4840220">
	<ele>2688.80</ele>
	<time>2023-08-07T11:24:38.000Z</time>
</trkpt>
<trkpt lat="46.1249660" lon="10.4840220">
	<ele>2689.00</ele>
	<time>2023-08-07T11:24:39.000Z</time>
</trkpt>
<trkpt lat="46.1249660" lon="10.4840210">
	<ele>2689.40</ele>
	<time>2023-08-07T11:24:40.000Z</time>
</trkpt>
<trkpt lat="46.1249670" lon="10.4840200">
	<ele>2689.60</ele>
	<time>2023-08-07T11:24:41.000Z</time>
</trkpt>
<trkpt lat="46.1249670" lon="10.4840190">
	<ele>2689.60</ele>
	<time>2023-08-07T11:24:42.000Z</time>
</trkpt>
<trkpt lat="46.1249670" lon="10.4840190">
	<ele>2689.80</ele>
	<time>2023-08-07T11:24:43.000Z</time>
</trkpt>
<trkpt lat="46.1249680" lon="10.4840180">
	<ele>2690.00</ele>
	<time>2023-08-07T11:24:44.000Z</time>
</trkpt>
<trkpt lat="46.1249680" lon="10.4840170">
	<ele>2690.20</ele>
	<time>2023-08-07T11:24:45.000Z</time>
</trkpt>
<trkpt lat="46.1249680" lon="10.4840160">
	<ele>2690.20</ele>
	<time>2023-08-07T11:24:46.000Z</time>
</trkpt>
<trkpt lat="46.1249690" lon="10.4840160">
	<ele>2690.00</ele>
	<time>2023-08-07T11:24:47.000Z</time>
</trkpt>
<trkpt lat="46.1249690" lon="10.4840150">
	<ele>2690.00</ele>
	<time>2023-08-07T11:24:48.000Z</time>
</trkpt>
<trkpt lat="46.1249690" lon="10.4840140">
	<ele>2690.00</ele>
	<time>2023-08-07T11:24:49.000Z</time>
</trkpt>
<trkpt lat="46.1249690" lon="10.4840130">
	<ele>2690.00</ele>
	<time>2023-08-07T11:24:50.000Z</time>
</trkpt>
<trkpt lat="46.1249700" lon="10.4840120">
	<ele>2690.00</ele>
	<time>2023-08-07T11:24:51.000Z</time>
</trkpt>
<trkpt lat="46.1249700" lon="10.4840120">
	<ele>2690.20</ele>
	<time>2023-08-07T11:24:52.000Z</time>
</trkpt>
<trkpt lat="46.1249700" lon="10.4840110">
	<ele>2690.40</ele>
	<time>2023-08-07T11:24:53.000Z</time>
</trkpt>
<trkpt lat="46.1249710" lon="10.4840100">
	<ele>2690.60</ele>
	<time>2023-08-07T11:24:54.000Z</time>
</trkpt>
<trkpt lat="46.1249710" lon="10.4840090">
	<ele>2690.60</ele>
	<time>2023-08-07T11:24:55.000Z</time>
</trkpt>
<trkpt lat="46.1249710" lon="10.4840090">
	<ele>2690.80</ele>
	<time>2023-08-07T11:24:56.000Z</time>
</trkpt>
<trkpt lat="46.1249720" lon="10.4840080">
	<ele>2691.00</ele>
	<time>2023-08-07T11:24:57.000Z</time>
</trkpt>
<trkpt lat="46.1249720" lon="10.4840070">
	<ele>2691.20</ele>
	<time>2023-08-07T11:24:58.000Z</time>
</trkpt>
<trkpt lat="46.1249720" lon="10.4840060">
	<ele>2691.40</ele>
	<time>2023-08-07T11:24:59.000Z</time>
</trkpt>
<trkpt lat="46.1249730" lon="10.4840050">
	<ele>2691.40</ele>
	<time>2023-08-07T11:25:00.000Z</time>
</trkpt>
<trkpt lat="46.1249730" lon="10.4840050">
	<ele>2691.60</ele>
	<time>2023-08-07T11:25:01.000Z</time>
</trkpt>
<trkpt lat="46.1249730" lon="10.4840040">
	<ele>2691.60</ele>
	<time>2023-08-07T11:25:02.000Z</time>
</trkpt>
<trkpt lat="46.1249740" lon="10.4840030">
	<ele>2691.80</ele>
	<time>2023-08-07T11:25:03.000Z</time>
</trkpt>
<trkpt lat="46.1249740" lon="10.4840020">
	<ele>2692.20</ele>
	<time>2023-08-07T11:25:04.000Z</time>
</trkpt>
<trkpt lat="46.1249740" lon="10.4840010">
	<ele>2692.40</ele>
	<time>2023-08-07T11:25:05.000Z</time>
</trkpt>
<trkpt lat="46.1249750" lon="10.4840010">
	<ele>2692.60</ele>
	<time>2023-08-07T11:25:06.000Z</time>
</trkpt>
<trkpt lat="46.1249750" lon="10.4840000">
	<ele>2692.80</ele>
	<time>2023-08-07T11:25:07.000Z</time>
</trkpt>
<trkpt lat="46.1249750" lon="10.4839990">
	<ele>2692.80</ele>
	<time>2023-08-07T11:25:08.000Z</time>
</trkpt>
<trkpt lat="46.1249760" lon="10.4839980">
	<ele>2693.00</ele>
	<time>2023-08-07T11:25:09.000Z</time>
</trkpt>
<trkpt lat="46.1249760" lon="10.4839970">
	<ele>2693.20</ele>
	<time>2023-08-07T11:25:10.000Z</time>
</trkpt>
<trkpt lat="46.1249760" lon="10.4839960">
	<ele>2693.40</ele>
	<time>2023-08-07T11:25:11.000Z</time>
</trkpt>
<trkpt lat="46.1249770" lon="10.4839960">
	<ele>2693.40</ele>
	<time>2023-08-07T11:25:12.000Z</time>
</trkpt>
<trkpt lat="46.1249770" lon="10.4839950">
	<ele>2693.60</ele>
	<time>2023-08-07T11:25:13.000Z</time>
</trkpt>
<trkpt lat="46.1249770" lon="10.4839940">
	<ele>2693.80</ele>
	<time>2023-08-07T11:25:14.000Z</time>
</trkpt>
<trkpt lat="46.1249780" lon="10.4839930">
	<ele>2694.00</ele>
	<time>2023-08-07T11:25:15.000Z</time>
</trkpt>
<trkpt lat="46.1249780" lon="10.4839920">
	<ele>2694.00</ele>
	<time>2023-08-07T11:25:16.000Z</time>
</trkpt>
<trkpt lat="46.1249780" lon="10.4839920">
	<ele>2694.20</ele>
	<time>2023-08-07T11:25:17.000Z</time>
</trkpt>
<trkpt lat="46.1249790" lon="10.4839910">
	<ele>2694.20</ele>
	<time>2023-08-07T11:25:18.000Z</time>
</trkpt>
<trkpt lat="46.1249790" lon="10.4839900">
	<ele>2694.20</ele>
	<time>2023-08-07T11:25:19.000Z</time>
</trkpt>
<trkpt lat="46.1249790" lon="10.4839890">
	<ele>2694.40</ele>
	<time>2023-08-07T11:25:20.000Z</time>
</trkpt>
<trkpt lat="46.1249800" lon="10.4839880">
	<ele>2694.40</ele>
	<time>2023-08-07T11:25:21.000Z</time>
</trkpt>
<trkpt lat="46.1249800" lon="10.4839880">
	<ele>2694.40</ele>
	<time>2023-08-07T11:25:22.000Z</time>
</trkpt>
<trkpt lat="46.1249800" lon="10.4839870">
	<ele>2694.40</ele>
	<time>2023-08-07T11:25:23.000Z</time>
</trkpt>
<trkpt lat="46.1249810" lon="10.4839860">
	<ele>2694.60</ele>
	<time>2023-08-07T11:25:24.000Z</time>
</trkpt>
<trkpt lat="46.1249810" lon="10.4839850">
	<ele>2694.60</ele>
	<time>2023-08-07T11:25:25.000Z</time>
</trkpt>
<trkpt lat="46.1249810" lon="10.4839840">
	<ele>2694.80</ele>
	<time>2023-08-07T11:25:26.000Z</time>
</trkpt>
<trkpt lat="46.1249820" lon="10.4839830">
	<ele>2694.80</ele>
	<time>2023-08-07T11:25:27.000Z</time>
</trkpt>
<trkpt lat="46.1249820" lon="10.4839820">
	<ele>2694.80</ele>
	<time>2023-08-07T11:25:28.000Z</time>
</trkpt>
<trkpt lat="46.1249820" lon="10.4839810">
	<ele>2695.00</ele>
	<time>2023-08-07T11:25:29.000Z</time>
</trkpt>
<trkpt lat="46.1249830" lon="10.4839800">
	<ele>2695.00</ele>
	<time>2023-08-07T11:25:30.000Z</time>
</trkpt>
<trkpt lat="46.1249830" lon="10.4839790">
	<ele>2695.00</ele>
	<time>2023-08-07T11:25:31.000Z</time>
</trkpt>
<trkpt lat="46.1249840" lon="10.4839780">
	<ele>2695.40</ele>
	<time>2023-08-07T11:25:32.000Z</time>
</trkpt>
<trkpt lat="46.1249840" lon="10.4839780">
	<ele>2695.40</ele>
	<time>2023-08-07T11:25:33.000Z</time>
</trkpt>
<trkpt lat="46.1249840" lon="10.4839770">
	<ele>2695.60</ele>
	<time>2023-08-07T11:25:34.000Z</time>
</trkpt>
<trkpt lat="46.1249850" lon="10.4839760">
	<ele>2695.80</ele>
	<time>2023-08-07T11:25:35.000Z</time>
</trkpt>
<trkpt lat="46.1249850" lon="10.4839750">
	<ele>2695.80</ele>
	<time>2023-08-07T11:25:36.000Z</time>
</trkpt>
<trkpt lat="46.1249850" lon="10.4839740">
	<ele>2695.80</ele>
	<time>2023-08-07T11:25:37.000Z</time>
</trkpt>
<trkpt lat="46.1249860" lon="10.4839730">
	<ele>2695.80</ele>
	<time>2023-08-07T11:25:38.000Z</time>
</trkpt>
<trkpt lat="46.1249860" lon="10.4839720">
	<ele>2696.00</ele>
	<time>2023-08-07T11:25:39.000Z</time>
</trkpt>
<trkpt lat="46.1249860" lon="10.4839710">
	<ele>2696.00</ele>
	<time>2023-08-07T11:25:40.000Z</time>
</trkpt>
<trkpt lat="46.1249870" lon="10.4839710">
	<ele>2696.20</ele>
	<time>2023-08-07T11:25:41.000Z</time>
</trkpt>
<trkpt lat="46.1249870" lon="10.4839700">
	<ele>2696.20</ele>
	<time>2023-08-07T11:25:42.000Z</time>
</trkpt>
<trkpt lat="46.1249870" lon="10.4839690">
	<ele>2696.60</ele>
	<time>2023-08-07T11:25:43.000Z</time>
</trkpt>
<trkpt lat="46.1249880" lon="10.4839680">
	<ele>2696.80</ele>
	<time>2023-08-07T11:25:44.000Z</time>
</trkpt>
<trkpt lat="46.1249880" lon="10.4839670">
	<ele>2697.00</ele>
	<time>2023-08-07T11:25:45.000Z</time>
</trkpt>
<trkpt lat="46.1249880" lon="10.4839660">
	<ele>2697.20</ele>
	<time>2023-08-07T11:25:46.000Z</time>
</trkpt>
<trkpt lat="46.1249890" lon="10.4839650">
	<ele>2697.20</ele>
	<time>2023-08-07T11:25:47.000Z</time>
</trkpt>
<trkpt lat="46.1249890" lon="10.4839650">
	<ele>2697.20</ele>
	<time>2023-08-07T11:25:48.000Z</time>
</trkpt>
<trkpt lat="46.1249890" lon="10.4839640">
	<ele>2697.20</ele>
	<time>2023-08-07T11:25:49.000Z</time>
</trkpt>
<trkpt lat="46.1249900" lon="10.4839630">
	<ele>2697.40</ele>
	<time>2023-08-07T11:25:50.000Z</time>
</trkpt>
<trkpt lat="46.1249900" lon="10.4839620">
	<ele>2697.40</ele>
	<time>2023-08-07T11:25:51.000Z</time>
</trkpt>
<trkpt lat="46.1249900" lon="10.4839610">
	<ele>2697.60</ele>
	<time>2023-08-07T11:25:52.000Z</time>
</trkpt>
<trkpt lat="46.1249910" lon="10.4839600">
	<ele>2697.60</ele>
	<time>2023-08-07T11:25:53.000Z</time>
</trkpt>
<trkpt lat="46.1249910" lon="10.4839590">
	<ele>2698.00</ele>
	<time>2023-08-07T11:25:54.000Z</time>
</trkpt>
<trkpt lat="46.1249910" lon="10.4839580">
	<ele>2698.40</ele>
	<time>2023-08-07T11:25:55.000Z</time>
</trkpt>
<trkpt lat="46.1249920" lon="10.4839570">
	<ele>2698.60</ele>
	<time>2023-08-07T11:25:56.000Z</time>
</trkpt>
<trkpt lat="46.1249920" lon="10.4839560">
	<ele>2698.80</ele>
	<time>2023-08-07T11:25:57.000Z</time>
</trkpt>
<trkpt lat="46.1249920" lon="10.4839560">
	<ele>2698.80</ele>
	<time>2023-08-07T11:25:58.000Z</time>
</trkpt>
<trkpt lat="46.1249930" lon="10.4839550">
	<ele>2698.80</ele>
	<time>2023-08-07T11:25:59.000Z</time>
</trkpt>
<trkpt lat="46.1249930" lon="10.4839540">
	<ele>2698.80</ele>
	<time>2023-08-07T11:26:00.000Z</time>
</trkpt>
<trkpt lat="46.1249930" lon="10.4839530">
	<ele>2698.80</ele>
	<time>2023-08-07T11:26:01.000Z</time>
</trkpt>
<trkpt lat="46.1249940" lon="10.4839520">
	<ele>2698.80</ele>
	<time>2023-08-07T11:26:02.000Z</time>
</trkpt>
<trkpt lat="46.1249940" lon="10.4839510">
	<ele>2698.80</ele>
	<time>2023-08-07T11:26:03.000Z</time>
</trkpt>
<trkpt lat="46.1249950" lon="10.4839500">
	<ele>2699.00</ele>
	<time>2023-08-07T11:26:04.000Z</time>
</trkpt>
<trkpt lat="46.1249950" lon="10.4839490">
	<ele>2699.00</ele>
	<time>2023-08-07T11:26:05.000Z</time>
</trkpt>
<trkpt lat="46.1249950" lon="10.4839480">
	<ele>2699.20</ele>
	<time>2023-08-07T11:26:06.000Z</time>
</trkpt>
<trkpt lat="46.1249960" lon="10.4839470">
	<ele>2699.20</ele>
	<time>2023-08-07T11:26:07.000Z</time>
</trkpt>
<trkpt lat="46.1249960" lon="10.4839460">
	<ele>2699.40</ele>
	<time>2023-08-07T11:26:08.000Z</time>
</trkpt>
<trkpt lat="46.1249960" lon="10.4839460">
	<ele>2699.40</ele>
	<time>2023-08-07T11:26:09.000Z</time>
</trkpt>
<trkpt lat="46.1249970" lon="10.4839450">
	<ele>2699.60</ele>
	<time>2023-08-07T11:26:10.000Z</time>
</trkpt>
<trkpt lat="46.1249970" lon="10.4839440">
	<ele>2699.60</ele>
	<time>2023-08-07T11:26:11.000Z</time>
</trkpt>
<trkpt lat="46.1249980" lon="10.4839430">
	<ele>2699.60</ele>
	<time>2023-08-07T11:26:12.000Z</time>
</trkpt>
<trkpt lat="46.1249980" lon="10.4839420">
	<ele>2699.60</ele>
	<time>2023-08-07T11:26:13.000Z</time>
</trkpt>
<trkpt lat="46.1249980" lon="10.4839410">
	<ele>2699.80</ele>
	<time>2023-08-07T11:26:14.000Z</time>
</trkpt>
<trkpt lat="46.1249990" lon="10.4839400">
	<ele>2699.80</ele>
	<time>2023-08-07T11:26:15.000Z</time>
</trkpt>
<trkpt lat="46.1249990" lon="10.4839390">
	<ele>2699.60</ele>
	<time>2023-08-07T11:26:16.000Z</time>
</trkpt>
<trkpt lat="46.1249990" lon="10.4839380">
	<ele>2699.60</ele>
	<time>2023-08-07T11:26:17.000Z</time>
</trkpt>
<trkpt lat="46.1250000" lon="10.4839370">
	<ele>2699.60</ele>
	<time>2023-08-07T11:26:18.000Z</time>
</trkpt>
<trkpt lat="46.1250390" lon="10.4838200">
	<ele>2699.80</ele>
	<time>2023-08-07T11:26:19.000Z</time>
</trkpt>
<trkpt lat="46.1250810" lon="10.4836950">
	<ele>2699.80</ele>
	<time>2023-08-07T11:26:20.000Z</time>
</trkpt>
<trkpt lat="46.1251210" lon="10.4835740">
	<ele>2699.80</ele>
	<time>2023-08-07T11:26:21.000Z</time>
</trkpt>
<trkpt lat="46.1251630" lon="10.4834540">
	<ele>2700.00</ele>
	<time>2023-08-07T11:26:22.000Z</time>
</trkpt>
<trkpt lat="46.1251990" lon="10.4833300">
	<ele>2700.20</ele>
	<time>2023-08-07T11:26:23.000Z</time>
</trkpt>
<trkpt lat="46.1252360" lon="10.4832050">
	<ele>2700.20</ele>
	<time>2023-08-07T11:26:24.000Z</time>
</trkpt>
<trkpt lat="46.1252740" lon="10.4830840">
	<ele>2700.20</ele>
	<time>2023-08-07T11:26:25.000Z</time>
</trkpt>
<trkpt lat="46.1253140" lon="10.4829670">
	<ele>2700.20</ele>
	<time>2023-08-07T11:26:26.000Z</time>
</trkpt>
<trkpt lat="46.1253530" lon="10.4828510">
	<ele>2700.20</ele>
	<time>2023-08-07T11:26:27.000Z</time>
</trkpt>
<trkpt lat="46.1253940" lon="10.4827330">
	<ele>2700.20</ele>
	<time>2023-08-07T11:26:28.000Z</time>
</trkpt>
<trkpt lat="46.1253940" lon="10.4827290">
	<ele>2700.20</ele>
	<time>2023-08-07T11:26:29.000Z</time>
</trkpt>
<trkpt lat="46.1253940" lon="10.4827230">
	<ele>2700.20</ele>
	<time>2023-08-07T11:26:30.000Z</time>
</trkpt>
<trkpt lat="46.1253940" lon="10.4827150">
	<ele>2700.20</ele>
	<time>2023-08-07T11:26:31.000Z</time>
</trkpt>
<trkpt lat="46.1253940" lon="10.4827060">
	<ele>2700.40</ele>
	<time>2023-08-07T11:26:32.000Z</time>
</trkpt>
<trkpt lat="46.1253930" lon="10.4827020">
	<ele>2700.40</ele>
	<time>2023-08-07T11:26:33.000Z</time>
</trkpt>
<trkpt lat="46.1253930" lon="10.4826950">
	<ele>2700.60</ele>
	<time>2023-08-07T11:26:34.000Z</time>
</trkpt>
<trkpt lat="46.1253910" lon="10.4826890">
	<ele>2700.60</ele>
	<time>2023-08-07T11:26:35.000Z</time>
</trkpt>
<trkpt lat="46.1253890" lon="10.4826830">
	<ele>2700.80</ele>
	<time>2023-08-07T11:26:36.000Z</time>
</trkpt>
<trkpt lat="46.1253860" lon="10.4826770">
	<ele>2700.80</ele>
	<time>2023-08-07T11:26:37.000Z</time>
</trkpt>
<trkpt lat="46.1253800" lon="10.4826710">
	<ele>2700.80</ele>
	<time>2023-08-07T11:26:38.000Z</time>
</trkpt>
<trkpt lat="46.1253760" lon="10.4826630">
	<ele>2700.80</ele>
	<time>2023-08-07T11:26:39.000Z</time>
</trkpt>
<trkpt lat="46.1253720" lon="10.4826520">
	<ele>2700.80</ele>
	<time>2023-08-07T11:26:40.000Z</time>
</trkpt>
<trkpt lat="46.1253700" lon="10.4826480">
	<ele>2700.80</ele>
	<time>2023-08-07T11:26:41.000Z</time>
</trkpt>
<trkpt lat="46.1253670" lon="10.4826420">
	<ele>2701.00</ele>
	<time>2023-08-07T11:26:42.000Z</time>
</trkpt>
<trkpt lat="46.1253650" lon="10.4826370">
	<ele>2701.00</ele>
	<time>2023-08-07T11:26:43.000Z</time>
</trkpt>
<trkpt lat="46.1253650" lon="10.4826290">
	<ele>2701.20</ele>
	<time>2023-08-07T11:26:44.000Z</time>
</trkpt>
<trkpt lat="46.1253620" lon="10.4826220">
	<ele>2701.20</ele>
	<time>2023-08-07T11:26:45.000Z</time>
</trkpt>
<trkpt lat="46.1253590" lon="10.4826100">
	<ele>2701.40</ele>
	<time>2023-08-07T11:26:46.000Z</time>
</trkpt>
<trkpt lat="46.1253580" lon="10.4826030">
	<ele>2701.40</ele>
	<time>2023-08-07T11:26:47.000Z</time>
</trkpt>
<trkpt lat="46.1253560" lon="10.4825990">
	<ele>2701.60</ele>
	<time>2023-08-07T11:26:48.000Z</time>
</trkpt>
<trkpt lat="46.1253550" lon="10.4825940">
	<ele>2701.60</ele>
	<time>2023-08-07T11:26:49.000Z</time>
</trkpt>
<trkpt lat="46.1253520" lon="10.4825860">
	<ele>2701.80</ele>
	<time>2023-08-07T11:26:50.000Z</time>
</trkpt>
<trkpt lat="46.1253510" lon="10.4825800">
	<ele>2702.00</ele>
	<time>2023-08-07T11:26:51.000Z</time>
</trkpt>
<trkpt lat="46.1253480" lon="10.4825770">
	<ele>2702.20</ele>
	<time>2023-08-07T11:26:52.000Z</time>
</trkpt>
<trkpt lat="46.1253450" lon="10.4825740">
	<ele>2702.20</ele>
	<time>2023-08-07T11:26:53.000Z</time>
</trkpt>
<trkpt lat="46.1253420" lon="10.4825690">
	<ele>2702.40</ele>
	<time>2023-08-07T11:26:54.000Z</time>
</trkpt>
<trkpt lat="46.1253420" lon="10.4825610">
	<ele>2702.40</ele>
	<time>2023-08-07T11:26:55.000Z</time>
</trkpt>
<trkpt lat="46.1253420" lon="10.4825540">
	<ele>2702.40</ele>
	<time>2023-08-07T11:26:56.000Z</time>
</trkpt>
<trkpt lat="46.1253420" lon="10.4825470">
	<ele>2702.40</ele>
	<time>2023-08-07T11:26:57.000Z</time>
</trkpt>
<trkpt lat="46.1253410" lon="10.4825460">
	<ele>2702.40</ele>
	<time>2023-08-07T11:26:58.000Z</time>
</trkpt>
<trkpt lat="46.1253390" lon="10.4825430">
	<ele>2702.60</ele>
	<time>2023-08-07T11:26:59.000Z</time>
</trkpt>
<trkpt lat="46.1253380" lon="10.4825380">
	<ele>2702.60</ele>
	<time>2023-08-07T11:27:00.000Z</time>
</trkpt>
<trkpt lat="46.1253360" lon="10.4825360">
	<ele>2702.60</ele>
	<time>2023-08-07T11:27:01.000Z</time>
</trkpt>
<trkpt lat="46.1253350" lon="10.4825320">
	<ele>2702.60</ele>
	<time>2023-08-07T11:27:02.000Z</time>
</trkpt>
<trkpt lat="46.1253350" lon="10.4825270">
	<ele>2702.60</ele>
	<time>2023-08-07T11:27:03.000Z</time>
</trkpt>
<trkpt lat="46.1253370" lon="10.4825190">
	<ele>2702.80</ele>
	<time>2023-08-07T11:27:04.000Z</time>
</trkpt>
<trkpt lat="46.1253390" lon="10.4825120">
	<ele>2702.80</ele>
	<time>2023-08-07T11:27:05.000Z</time>
</trkpt>
<trkpt lat="46.1253390" lon="10.4825060">
	<ele>2703.00</ele>
	<time>2023-08-07T11:27:06.000Z</time>
</trkpt>
<trkpt lat="46.1253370" lon="10.4825020">
	<ele>2703.00</ele>
	<time>2023-08-07T11:27:07.000Z</time>
</trkpt>
<trkpt lat="46.1253390" lon="10.4825010">
	<ele>2703.00</ele>
	<time>2023-08-07T11:27:08.000Z</time>
</trkpt>
<trkpt lat="46.1253400" lon="10.4825010">
	<ele>2703.00</ele>
	<time>2023-08-07T11:27:09.000Z</time>
</trkpt>
<trkpt lat="46.1253400" lon="10.4825010">
	<ele>2703.00</ele>
	<time>2023-08-07T11:27:10.000Z</time>
</trkpt>
<trkpt lat="46.1253400" lon="10.4825010">
	<ele>2703.00</ele>
	<time>2023-08-07T11:27:11.000Z</time>
</trkpt>
<trkpt lat="46.1253400" lon="10.4825010">
	<ele>2703.00</ele>
	<time>2023-08-07T11:27:12.000Z</time>
</trkpt>
<trkpt lat="46.1253400" lon="10.4825010">
	<ele>2702.80</ele>
	<time>2023-08-07T11:27:13.000Z</time>
</trkpt>
<trkpt lat="46.1253400" lon="10.4825010">
	<ele>2702.80</ele>
	<time>2023-08-07T11:27:14.000Z</time>
</trkpt>
<trkpt lat="46.1253400" lon="10.4825010">
	<ele>2702.80</ele>
	<time>2023-08-07T11:27:15.000Z</time>
</trkpt>
<trkpt lat="46.1253400" lon="10.4825010">
	<ele>2702.80</ele>
	<time>2023-08-07T11:27:16.000Z</time>
</trkpt>
<trkpt lat="46.1253400" lon="10.4825010">
	<ele>2703.00</ele>
	<time>2023-08-07T11:27:17.000Z</time>
</trkpt>
<trkpt lat="46.1253400" lon="10.4825010">
	<ele>2703.00</ele>
	<time>2023-08-07T11:27:18.000Z</time>
</trkpt>
<trkpt lat="46.1253400" lon="10.4825010">
	<ele>2703.00</ele>
	<time>2023-08-07T11:27:19.000Z</time>
</trkpt>
<trkpt lat="46.1253400" lon="10.4825010">
	<ele>2703.20</ele>
	<time>2023-08-07T11:27:20.000Z</time>
</trkpt>
<trkpt lat="46.1253400" lon="10.4825010">
	<ele>2703.20</ele>
	<time>2023-08-07T11:27:21.000Z</time>
</trkpt>
<trkpt lat="46.1253400" lon="10.4825010">
	<ele>2703.40</ele>
	<time>2023-08-07T11:27:22.000Z</time>
</trkpt>
<trkpt lat="46.1253400" lon="10.4825010">
	<ele>2703.40</ele>
	<time>2023-08-07T11:27:23.000Z</time>
</trkpt>
<trkpt lat="46.1253400" lon="10.4825010">
	<ele>2703.20</ele>
	<time>2023-08-07T11:27:24.000Z</time>
</trkpt>
<trkpt lat="46.1253400" lon="10.4825010">
	<ele>2703.00</ele>
	<time>2023-08-07T11:27:25.000Z</time>
</trkpt>
<trkpt lat="46.1253400" lon="10.4825010">
	<ele>2702.80</ele>
	<time>2023-08-07T11:27:26.000Z</time>
</trkpt>
<trkpt lat="46.1253400" lon="10.4825010">
	<ele>2702.80</ele>
	<time>2023-08-07T11:27:27.000Z</time>
</trkpt>
<trkpt lat="46.1253400" lon="10.4825010">
	<ele>2702.60</ele>
	<time>2023-08-07T11:27:28.000Z</time>
</trkpt>
<trkpt lat="46.1253400" lon="10.4825010">
	<ele>2703.00</ele>
	<time>2023-08-07T11:27:29.000Z</time>
</trkpt>
<trkpt lat="46.1253400" lon="10.4825010">
	<ele>2703.00</ele>
	<time>2023-08-07T11:27:30.000Z</time>
</trkpt>
<trkpt lat="46.1253410" lon="10.4825010">
	<ele>2703.20</ele>
	<time>2023-08-07T11:27:31.000Z</time>
</trkpt>
<trkpt lat="46.1253410" lon="10.4825010">
	<ele>2703.20</ele>
	<time>2023-08-07T11:27:32.000Z</time>
</trkpt>
<trkpt lat="46.1253430" lon="10.4825010">
	<ele>2703.40</ele>
	<time>2023-08-07T11:27:33.000Z</time>
</trkpt>
<trkpt lat="46.1253430" lon="10.4825010">
	<ele>2703.20</ele>
	<time>2023-08-07T11:27:34.000Z</time>
</trkpt>
<trkpt lat="46.1253430" lon="10.4825010">
	<ele>2703.20</ele>
	<time>2023-08-07T11:27:35.000Z</time>
</trkpt>
<trkpt lat="46.1253430" lon="10.4825000">
	<ele>2703.00</ele>
	<time>2023-08-07T11:27:36.000Z</time>
</trkpt>
<trkpt lat="46.1253430" lon="10.4825000">
	<ele>2703.00</ele>
	<time>2023-08-07T11:27:37.000Z</time>
</trkpt>
<trkpt lat="46.1253440" lon="10.4824950">
	<ele>2703.00</ele>
	<time>2023-08-07T11:27:38.000Z</time>
</trkpt>
<trkpt lat="46.1253440" lon="10.4824900">
	<ele>2703.00</ele>
	<time>2023-08-07T11:27:39.000Z</time>
</trkpt>
<trkpt lat="46.1253460" lon="10.4824890">
	<ele>2703.20</ele>
	<time>2023-08-07T11:27:40.000Z</time>
</trkpt>
<trkpt lat="46.1253490" lon="10.4824880">
	<ele>2703.20</ele>
	<time>2023-08-07T11:27:41.000Z</time>
</trkpt>
<trkpt lat="46.1253510" lon="10.4824870">
	<ele>2703.20</ele>
	<time>2023-08-07T11:27:42.000Z</time>
</trkpt>
<trkpt lat="46.1253540" lon="10.4824750">
	<ele>2703.40</ele>
	<time>2023-08-07T11:27:43.000Z</time>
</trkpt>
<trkpt lat="46.1253550" lon="10.4824500">
	<ele>2703.40</ele>
	<time>2023-08-07T11:27:44.000Z</time>
</trkpt>
<trkpt lat="46.1253580" lon="10.4824230">
	<ele>2703.40</ele>
	<time>2023-08-07T11:27:45.000Z</time>
</trkpt>
<trkpt lat="46.1253590" lon="10.4824000">
	<ele>2703.60</ele>
	<time>2023-08-07T11:27:46.000Z</time>
</trkpt>
<trkpt lat="46.1253620" lon="10.4823780">
	<ele>2703.60</ele>
	<time>2023-08-07T11:27:47.000Z</time>
</trkpt>
<trkpt lat="46.1253700" lon="10.4823590">
	<ele>2703.80</ele>
	<time>2023-08-07T11:27:48.000Z</time>
</trkpt>
<trkpt lat="46.1253780" lon="10.4823410">
	<ele>2703.80</ele>
	<time>2023-08-07T11:27:49.000Z</time>
</trkpt>
<trkpt lat="46.1253840" lon="10.4823230">
	<ele>2703.80</ele>
	<time>2023-08-07T11:27:50.000Z</time>
</trkpt>
<trkpt lat="46.1253890" lon="10.4823060">
	<ele>2704.00</ele>
	<time>2023-08-07T11:27:51.000Z</time>
</trkpt>
<trkpt lat="46.1253920" lon="10.4822900">
	<ele>2704.00</ele>
	<time>2023-08-07T11:27:52.000Z</time>
</trkpt>
<trkpt lat="46.1253920" lon="10.4822880">
	<ele>2704.20</ele>
	<time>2023-08-07T11:27:53.000Z</time>
</trkpt>
<trkpt lat="46.1253930" lon="10.4822860">
	<ele>2704.20</ele>
	<time>2023-08-07T11:27:54.000Z</time>
</trkpt>
<trkpt lat="46.1253960" lon="10.4822840">
	<ele>2704.40</ele>
	<time>2023-08-07T11:27:55.000Z</time>
</trkpt>
<trkpt lat="46.1253980" lon="10.4822770">
	<ele>2704.40</ele>
	<time>2023-08-07T11:27:56.000Z</time>
</trkpt>
<trkpt lat="46.1254010" lon="10.4822680">
	<ele>2704.60</ele>
	<time>2023-08-07T11:27:57.000Z</time>
</trkpt>
<trkpt lat="46.1254050" lon="10.4822660">
	<ele>2704.60</ele>
	<time>2023-08-07T11:27:58.000Z</time>
</trkpt>
<trkpt lat="46.1254080" lon="10.4822590">
	<ele>2704.80</ele>
	<time>2023-08-07T11:27:59.000Z</time>
</trkpt>
<trkpt lat="46.1254100" lon="10.4822510">
	<ele>2704.80</ele>
	<time>2023-08-07T11:28:00.000Z</time>
</trkpt>
<trkpt lat="46.1254140" lon="10.4822460">
	<ele>2705.00</ele>
	<time>2023-08-07T11:28:01.000Z</time>
</trkpt>
<trkpt lat="46.1254170" lon="10.4822430">
	<ele>2705.00</ele>
	<time>2023-08-07T11:28:02.000Z</time>
</trkpt>
<trkpt lat="46.1254180" lon="10.4822380">
	<ele>2705.00</ele>
	<time>2023-08-07T11:28:03.000Z</time>
</trkpt>
<trkpt lat="46.1254190" lon="10.4822340">
	<ele>2705.00</ele>
	<time>2023-08-07T11:28:04.000Z</time>
</trkpt>
<trkpt lat="46.1254210" lon="10.4822320">
	<ele>2705.20</ele>
	<time>2023-08-07T11:28:05.000Z</time>
</trkpt>
<trkpt lat="46.1254230" lon="10.4822300">
	<ele>2705.20</ele>
	<time>2023-08-07T11:28:06.000Z</time>
</trkpt>
<trkpt lat="46.1254240" lon="10.4822290">
	<ele>2705.40</ele>
	<time>2023-08-07T11:28:07.000Z</time>
</trkpt>
<trkpt lat="46.1254250" lon="10.4822260">
	<ele>2705.40</ele>
	<time>2023-08-07T11:28:08.000Z</time>
</trkpt>
<trkpt lat="46.1254260" lon="10.4822210">
	<ele>2705.40</ele>
	<time>2023-08-07T11:28:09.000Z</time>
</trkpt>
<trkpt lat="46.1254270" lon="10.4822150">
	<ele>2705.40</ele>
	<time>2023-08-07T11:28:10.000Z</time>
</trkpt>
<trkpt lat="46.1254280" lon="10.4822100">
	<ele>2705.40</ele>
	<time>2023-08-07T11:28:11.000Z</time>
</trkpt>
<trkpt lat="46.1254240" lon="10.4822070">
	<ele>2705.40</ele>
	<time>2023-08-07T11:28:12.000Z</time>
</trkpt>
<trkpt lat="46.1254200" lon="10.4822010">
	<ele>2705.40</ele>
	<time>2023-08-07T11:28:13.000Z</time>
</trkpt>
<trkpt lat="46.1254170" lon="10.4821960">
	<ele>2705.20</ele>
	<time>2023-08-07T11:28:14.000Z</time>
</trkpt>
<trkpt lat="46.1254120" lon="10.4821960">
	<ele>2705.20</ele>
	<time>2023-08-07T11:28:15.000Z</time>
</trkpt>
<trkpt lat="46.1254110" lon="10.4821960">
	<ele>2705.20</ele>
	<time>2023-08-07T11:28:16.000Z</time>
</trkpt>
<trkpt lat="46.1254110" lon="10.4821980">
	<ele>2705.20</ele>
	<time>2023-08-07T11:28:17.000Z</time>
</trkpt>
<trkpt lat="46.1254110" lon="10.4821990">
	<ele>2705.20</ele>
	<time>2023-08-07T11:28:18.000Z</time>
</trkpt>
<trkpt lat="46.1254110" lon="10.4821990">
	<ele>2705.20</ele>
	<time>2023-08-07T11:28:19.000Z</time>
</trkpt>
<trkpt lat="46.1254110" lon="10.4821990">
	<ele>2705.20</ele>
	<time>2023-08-07T11:28:20.000Z</time>
</trkpt>
<trkpt lat="46.1254110" lon="10.4821990">
	<ele>2705.20</ele>
	<time>2023-08-07T11:28:21.000Z</time>
</trkpt>
<trkpt lat="46.1254110" lon="10.4821990">
	<ele>2705.00</ele>
	<time>2023-08-07T11:28:22.000Z</time>
</trkpt>
<trkpt lat="46.1254110" lon="10.4821990">
	<ele>2705.00</ele>
	<time>2023-08-07T11:28:23.000Z</time>
</trkpt>
<trkpt lat="46.1254110" lon="10.4821990">
	<ele>2705.00</ele>
	<time>2023-08-07T11:28:24.000Z</time>
</trkpt>
<trkpt lat="46.1254110" lon="10.4821990">
	<ele>2704.80</ele>
	<time>2023-08-07T11:28:25.000Z</time>
</trkpt>
<trkpt lat="46.1254110" lon="10.4821990">
	<ele>2704.80</ele>
	<time>2023-08-07T11:28:26.000Z</time>
</trkpt>
<trkpt lat="46.1254110" lon="10.4821990">
	<ele>2705.00</ele>
	<time>2023-08-07T11:28:27.000Z</time>
</trkpt>
<trkpt lat="46.1254110" lon="10.4821990">
	<ele>2704.80</ele>
	<time>2023-08-07T11:28:28.000Z</time>
</trkpt>
<trkpt lat="46.1254110" lon="10.4821990">
	<ele>2705.00</ele>
	<time>2023-08-07T11:28:29.000Z</time>
</trkpt>
<trkpt lat="46.1254110" lon="10.4821990">
	<ele>2705.20</ele>
	<time>2023-08-07T11:28:30.000Z</time>
</trkpt>
<trkpt lat="46.1254110" lon="10.4821990">
	<ele>2705.20</ele>
	<time>2023-08-07T11:28:31.000Z</time>
</trkpt>
<trkpt lat="46.1254110" lon="10.4821990">
	<ele>2705.00</ele>
	<time>2023-08-07T11:28:32.000Z</time>
</trkpt>
<trkpt lat="46.1254110" lon="10.4821990">
	<ele>2705.00</ele>
	<time>2023-08-07T11:28:33.000Z</time>
</trkpt>
<trkpt lat="46.1254080" lon="10.4821990">
	<ele>2705.00</ele>
	<time>2023-08-07T11:28:34.000Z</time>
</trkpt>
<trkpt lat="46.1254070" lon="10.4821990">
	<ele>2705.00</ele>
	<time>2023-08-07T11:28:35.000Z</time>
</trkpt>
<trkpt lat="46.1254070" lon="10.4821990">
	<ele>2705.00</ele>
	<time>2023-08-07T11:28:36.000Z</time>
</trkpt>
<trkpt lat="46.1254070" lon="10.4821990">
	<ele>2705.00</ele>
	<time>2023-08-07T11:28:37.000Z</time>
</trkpt>
<trkpt lat="46.1254060" lon="10.4821990">
	<ele>2705.00</ele>
	<time>2023-08-07T11:28:38.000Z</time>
</trkpt>
<trkpt lat="46.1254060" lon="10.4821990">
	<ele>2705.00</ele>
	<time>2023-08-07T11:28:39.000Z</time>
</trkpt>
<trkpt lat="46.1254050" lon="10.4821990">
	<ele>2705.00</ele>
	<time>2023-08-07T11:28:40.000Z</time>
</trkpt>
<trkpt lat="46.1254050" lon="10.4821990">
	<ele>2705.00</ele>
	<time>2023-08-07T11:28:41.000Z</time>
</trkpt>
<trkpt lat="46.1254050" lon="10.4821980">
	<ele>2705.00</ele>
	<time>2023-08-07T11:28:42.000Z</time>
</trkpt>
<trkpt lat="46.1254050" lon="10.4821970">
	<ele>2705.20</ele>
	<time>2023-08-07T11:28:43.000Z</time>
</trkpt>
<trkpt lat="46.1254050" lon="10.4821970">
	<ele>2705.40</ele>
	<time>2023-08-07T11:28:44.000Z</time>
</trkpt>
<trkpt lat="46.1254050" lon="10.4821970">
	<ele>2705.20</ele>
	<time>2023-08-07T11:28:45.000Z</time>
</trkpt>
<trkpt lat="46.1254050" lon="10.4821970">
	<ele>2705.20</ele>
	<time>2023-08-07T11:28:46.000Z</time>
</trkpt>
<trkpt lat="46.1254050" lon="10.4821960">
	<ele>2705.20</ele>
	<time>2023-08-07T11:28:47.000Z</time>
</trkpt>
<trkpt lat="46.1254050" lon="10.4821960">
	<ele>2705.20</ele>
	<time>2023-08-07T11:28:48.000Z</time>
</trkpt>
<trkpt lat="46.1254050" lon="10.4821960">
	<ele>2705.20</ele>
	<time>2023-08-07T11:28:49.000Z</time>
</trkpt>
<trkpt lat="46.1254050" lon="10.4821960">
	<ele>2705.20</ele>
	<time>2023-08-07T11:28:50.000Z</time>
</trkpt>
<trkpt lat="46.1254050" lon="10.4821940">
	<ele>2705.20</ele>
	<time>2023-08-07T11:28:51.000Z</time>
</trkpt>
<trkpt lat="46.1254050" lon="10.4821850">
	<ele>2705.20</ele>
	<time>2023-08-07T11:28:52.000Z</time>
</trkpt>
<trkpt lat="46.1254050" lon="10.4821800">
	<ele>2705.40</ele>
	<time>2023-08-07T11:28:53.000Z</time>
</trkpt>
<trkpt lat="46.1254050" lon="10.4821760">
	<ele>2705.40</ele>
	<time>2023-08-07T11:28:54.000Z</time>
</trkpt>
<trkpt lat="46.1254050" lon="10.4821750">
	<ele>2705.60</ele>
	<time>2023-08-07T11:28:55.000Z</time>
</trkpt>
<trkpt lat="46.1254050" lon="10.4821730">
	<ele>2705.80</ele>
	<time>2023-08-07T11:28:56.000Z</time>
</trkpt>
<trkpt lat="46.1254050" lon="10.4821710">
	<ele>2705.80</ele>
	<time>2023-08-07T11:28:57.000Z</time>
</trkpt>
<trkpt lat="46.1254050" lon="10.4821680">
	<ele>2706.00</ele>
	<time>2023-08-07T11:28:58.000Z</time>
</trkpt>
<trkpt lat="46.1254050" lon="10.4821670">
	<ele>2706.00</ele>
	<time>2023-08-07T11:28:59.000Z</time>
</trkpt>
<trkpt lat="46.1254050" lon="10.4821660">
	<ele>2706.00</ele>
	<time>2023-08-07T11:29:00.000Z</time>
</trkpt>
<trkpt lat="46.1254050" lon="10.4821650">
	<ele>2706.00</ele>
	<time>2023-08-07T11:29:01.000Z</time>
</trkpt>
<trkpt lat="46.1254050" lon="10.4821650">
	<ele>2706.00</ele>
	<time>2023-08-07T11:29:02.000Z</time>
</trkpt>
<trkpt lat="46.1254050" lon="10.4821630">
	<ele>2705.80</ele>
	<time>2023-08-07T11:29:03.000Z</time>
</trkpt>
<trkpt lat="46.1254060" lon="10.4821540">
	<ele>2705.80</ele>
	<time>2023-08-07T11:29:04.000Z</time>
</trkpt>
<trkpt lat="46.1254070" lon="10.4821460">
	<ele>2705.80</ele>
	<time>2023-08-07T11:29:05.000Z</time>
</trkpt>
<trkpt lat="46.1254070" lon="10.4821390">
	<ele>2705.80</ele>
	<time>2023-08-07T11:29:06.000Z</time>
</trkpt>
<trkpt lat="46.1254070" lon="10.4821300">
	<ele>2705.80</ele>
	<time>2023-08-07T11:29:07.000Z</time>
</trkpt>
<trkpt lat="46.1254070" lon="10.4821240">
	<ele>2705.80</ele>
	<time>2023-08-07T11:29:08.000Z</time>
</trkpt>
<trkpt lat="46.1254080" lon="10.4821190">
	<ele>2705.80</ele>
	<time>2023-08-07T11:29:09.000Z</time>
</trkpt>
<trkpt lat="46.1254110" lon="10.4821110">
	<ele>2705.80</ele>
	<time>2023-08-07T11:29:10.000Z</time>
</trkpt>
<trkpt lat="46.1254140" lon="10.4821040">
	<ele>2705.80</ele>
	<time>2023-08-07T11:29:11.000Z</time>
</trkpt>
<trkpt lat="46.1254180" lon="10.4820950">
	<ele>2705.80</ele>
	<time>2023-08-07T11:29:12.000Z</time>
</trkpt>
<trkpt lat="46.1254190" lon="10.4820880">
	<ele>2705.80</ele>
	<time>2023-08-07T11:29:13.000Z</time>
</trkpt>
<trkpt lat="46.1254190" lon="10.4820840">
	<ele>2705.60</ele>
	<time>2023-08-07T11:29:14.000Z</time>
</trkpt>
<trkpt lat="46.1254190" lon="10.4820770">
	<ele>2705.40</ele>
	<time>2023-08-07T11:29:15.000Z</time>
</trkpt>
<trkpt lat="46.1254200" lon="10.4820670">
	<ele>2705.20</ele>
	<time>2023-08-07T11:29:16.000Z</time>
</trkpt>
<trkpt lat="46.1254200" lon="10.4820600">
	<ele>2705.20</ele>
	<time>2023-08-07T11:29:17.000Z</time>
</trkpt>
<trkpt lat="46.1254200" lon="10.4820520">
	<ele>2705.20</ele>
	<time>2023-08-07T11:29:18.000Z</time>
</trkpt>
<trkpt lat="46.1254210" lon="10.4820470">
	<ele>2705.20</ele>
	<time>2023-08-07T11:29:19.000Z</time>
</trkpt>
<trkpt lat="46.1254220" lon="10.4820410">
	<ele>2705.20</ele>
	<time>2023-08-07T11:29:20.000Z</time>
</trkpt>
<trkpt lat="46.1254220" lon="10.4820340">
	<ele>2705.40</ele>
	<time>2023-08-07T11:29:21.000Z</time>
</trkpt>
<trkpt lat="46.1254240" lon="10.4820280">
	<ele>2705.40</ele>
	<time>2023-08-07T11:29:22.000Z</time>
</trkpt>
<trkpt lat="46.1254240" lon="10.4820200">
	<ele>2705.40</ele>
	<time>2023-08-07T11:29:23.000Z</time>
</trkpt>
<trkpt lat="46.1254250" lon="10.4820130">
	<ele>2705.40</ele>
	<time>2023-08-07T11:29:24.000Z</time>
</trkpt>
<trkpt lat="46.1254250" lon="10.4820080">
	<ele>2705.40</ele>
	<time>2023-08-07T11:29:25.000Z</time>
</trkpt>
<trkpt lat="46.1254250" lon="10.4820010">
	<ele>2705.40</ele>
	<time>2023-08-07T11:29:26.000Z</time>
</trkpt>
<trkpt lat="46.1254250" lon="10.4819920">
	<ele>2705.40</ele>
	<time>2023-08-07T11:29:27.000Z</time>
</trkpt>
<trkpt lat="46.1254250" lon="10.4819850">
	<ele>2705.40</ele>
	<time>2023-08-07T11:29:28.000Z</time>
</trkpt>
<trkpt lat="46.1254250" lon="10.4819820">
	<ele>2705.40</ele>
	<time>2023-08-07T11:29:29.000Z</time>
</trkpt>
<trkpt lat="46.1254250" lon="10.4819770">
	<ele>2705.40</ele>
	<time>2023-08-07T11:29:30.000Z</time>
</trkpt>
<trkpt lat="46.1254250" lon="10.4819710">
	<ele>2705.20</ele>
	<time>2023-08-07T11:29:31.000Z</time>
</trkpt>
<trkpt lat="46.1254250" lon="10.4819660">
	<ele>2705.00</ele>
	<time>2023-08-07T11:29:32.000Z</time>
</trkpt>
<trkpt lat="46.1254250" lon="10.4819580">
	<ele>2705.00</ele>
	<time>2023-08-07T11:29:33.000Z</time>
</trkpt>
<trkpt lat="46.1254250" lon="10.4819530">
	<ele>2705.00</ele>
	<time>2023-08-07T11:29:34.000Z</time>
</trkpt>
<trkpt lat="46.1254250" lon="10.4819480">
	<ele>2705.40</ele>
	<time>2023-08-07T11:29:35.000Z</time>
</trkpt>
<trkpt lat="46.1254250" lon="10.4819450">
	<ele>2705.40</ele>
	<time>2023-08-07T11:29:36.000Z</time>
</trkpt>
<trkpt lat="46.1254250" lon="10.4819410">
	<ele>2705.40</ele>
	<time>2023-08-07T11:29:37.000Z</time>
</trkpt>
<trkpt lat="46.1254250" lon="10.4819350">
	<ele>2705.40</ele>
	<time>2023-08-07T11:29:38.000Z</time>
</trkpt>
<trkpt lat="46.1254230" lon="10.4819270">
	<ele>2705.40</ele>
	<time>2023-08-07T11:29:39.000Z</time>
</trkpt>
<trkpt lat="46.1254230" lon="10.4819200">
	<ele>2705.40</ele>
	<time>2023-08-07T11:29:40.000Z</time>
</trkpt>
<trkpt lat="46.1254220" lon="10.4819100">
	<ele>2705.40</ele>
	<time>2023-08-07T11:29:41.000Z</time>
</trkpt>
<trkpt lat="46.1254200" lon="10.4819030">
	<ele>2705.40</ele>
	<time>2023-08-07T11:29:42.000Z</time>
</trkpt>
<trkpt lat="46.1254200" lon="10.4818960">
	<ele>2705.40</ele>
	<time>2023-08-07T11:29:43.000Z</time>
</trkpt>
<trkpt lat="46.1254180" lon="10.4818930">
	<ele>2705.40</ele>
	<time>2023-08-07T11:29:44.000Z</time>
</trkpt>
<trkpt lat="46.1254170" lon="10.4818890">
	<ele>2705.40</ele>
	<time>2023-08-07T11:29:45.000Z</time>
</trkpt>
<trkpt lat="46.1254140" lon="10.4818850">
	<ele>2705.40</ele>
	<time>2023-08-07T11:29:46.000Z</time>
</trkpt>
<trkpt lat="46.1254130" lon="10.4818800">
	<ele>2705.40</ele>
	<time>2023-08-07T11:29:47.000Z</time>
</trkpt>
<trkpt lat="46.1254120" lon="10.4818740">
	<ele>2705.40</ele>
	<time>2023-08-07T11:29:48.000Z</time>
</trkpt>
<trkpt lat="46.1254110" lon="10.4818690">
	<ele>2705.40</ele>
	<time>2023-08-07T11:29:49.000Z</time>
</trkpt>
<trkpt lat="46.1254100" lon="10.4818640">
	<ele>2705.40</ele>
	<time>2023-08-07T11:29:50.000Z</time>
</trkpt>
<trkpt lat="46.1254090" lon="10.4818610">
	<ele>2705.40</ele>
	<time>2023-08-07T11:29:51.000Z</time>
</trkpt>
<trkpt lat="46.1254090" lon="10.4818570">
	<ele>2705.40</ele>
	<time>2023-08-07T11:29:52.000Z</time>
</trkpt>
<trkpt lat="46.1254080" lon="10.4818540">
	<ele>2705.40</ele>
	<time>2023-08-07T11:29:53.000Z</time>
</trkpt>
<trkpt lat="46.1254080" lon="10.4818490">
	<ele>2705.40</ele>
	<time>2023-08-07T11:29:54.000Z</time>
</trkpt>
<trkpt lat="46.1254080" lon="10.4818420">
	<ele>2705.40</ele>
	<time>2023-08-07T11:29:55.000Z</time>
</trkpt>
<trkpt lat="46.1254080" lon="10.4818350">
	<ele>2705.40</ele>
	<time>2023-08-07T11:29:56.000Z</time>
</trkpt>
<trkpt lat="46.1254070" lon="10.4818280">
	<ele>2705.40</ele>
	<time>2023-08-07T11:29:57.000Z</time>
</trkpt>
<trkpt lat="46.1254070" lon="10.4818190">
	<ele>2705.40</ele>
	<time>2023-08-07T11:29:58.000Z</time>
</trkpt>
<trkpt lat="46.1254070" lon="10.4818100">
	<ele>2705.40</ele>
	<time>2023-08-07T11:29:59.000Z</time>
</trkpt>
<trkpt lat="46.1254070" lon="10.4818040">
	<ele>2705.40</ele>
	<time>2023-08-07T11:30:00.000Z</time>
</trkpt>
<trkpt lat="46.1254070" lon="10.4817990">
	<ele>2705.40</ele>
	<time>2023-08-07T11:30:01.000Z</time>
</trkpt>
<trkpt lat="46.1254070" lon="10.4817950">
	<ele>2705.40</ele>
	<time>2023-08-07T11:30:02.000Z</time>
</trkpt>
<trkpt lat="46.1254070" lon="10.4817880">
	<ele>2705.40</ele>
	<time>2023-08-07T11:30:03.000Z</time>
</trkpt>
<trkpt lat="46.1254070" lon="10.4817800">
	<ele>2705.40</ele>
	<time>2023-08-07T11:30:04.000Z</time>
</trkpt>
<trkpt lat="46.1254070" lon="10.4817730">
	<ele>2705.40</ele>
	<time>2023-08-07T11:30:05.000Z</time>
</trkpt>
<trkpt lat="46.1254080" lon="10.4817680">
	<ele>2705.40</ele>
	<time>2023-08-07T11:30:06.000Z</time>
</trkpt>
<trkpt lat="46.1254080" lon="10.4817600">
	<ele>2705.40</ele>
	<time>2023-08-07T11:30:07.000Z</time>
</trkpt>
<trkpt lat="46.1254090" lon="10.4817530">
	<ele>2705.40</ele>
	<time>2023-08-07T11:30:08.000Z</time>
</trkpt>
<trkpt lat="46.1254090" lon="10.4817470">
	<ele>2705.40</ele>
	<time>2023-08-07T11:30:09.000Z</time>
</trkpt>
<trkpt lat="46.1254110" lon="10.4817420">
	<ele>2705.40</ele>
	<time>2023-08-07T11:30:10.000Z</time>
</trkpt>
<trkpt lat="46.1254120" lon="10.4817360">
	<ele>2705.40</ele>
	<time>2023-08-07T11:30:11.000Z</time>
</trkpt>
<trkpt lat="46.1254140" lon="10.4817300">
	<ele>2705.40</ele>
	<time>2023-08-07T11:30:12.000Z</time>
</trkpt>
<trkpt lat="46.1254150" lon="10.4817250">
	<ele>2705.40</ele>
	<time>2023-08-07T11:30:13.000Z</time>
</trkpt>
<trkpt lat="46.1254160" lon="10.4817170">
	<ele>2705.40</ele>
	<time>2023-08-07T11:30:14.000Z</time>
</trkpt>
<trkpt lat="46.1254170" lon="10.4817090">
	<ele>2705.40</ele>
	<time>2023-08-07T11:30:15.000Z</time>
</trkpt>
<trkpt lat="46.1254170" lon="10.4817010">
	<ele>2705.40</ele>
	<time>2023-08-07T11:30:16.000Z</time>
</trkpt>
<trkpt lat="46.1254170" lon="10.4816920">
	<ele>2705.40</ele>
	<time>2023-08-07T11:30:17.000Z</time>
</trkpt>
<trkpt lat="46.1254170" lon="10.4816850">
	<ele>2705.40</ele>
	<time>2023-08-07T11:30:18.000Z</time>
</trkpt>
<trkpt lat="46.1254170" lon="10.4816790">
	<ele>2705.40</ele>
	<time>2023-08-07T11:30:19.000Z</time>
</trkpt>
<trkpt lat="46.1254170" lon="10.4816730">
	<ele>2705.40</ele>
	<time>2023-08-07T11:30:20.000Z</time>
</trkpt>
<trkpt lat="46.1254170" lon="10.4816670">
	<ele>2705.40</ele>
	<time>2023-08-07T11:30:21.000Z</time>
</trkpt>
<trkpt lat="46.1254170" lon="10.4816620">
	<ele>2705.40</ele>
	<time>2023-08-07T11:30:22.000Z</time>
</trkpt>
<trkpt lat="46.1254170" lon="10.4816560">
	<ele>2705.40</ele>
	<time>2023-08-07T11:30:23.000Z</time>
</trkpt>
<trkpt lat="46.1254170" lon="10.4816500">
	<ele>2705.40</ele>
	<time>2023-08-07T11:30:24.000Z</time>
</trkpt>
<trkpt lat="46.1254170" lon="10.4816450">
	<ele>2705.40</ele>
	<time>2023-08-07T11:30:25.000Z</time>
</trkpt>
<trkpt lat="46.1254170" lon="10.4816420">
	<ele>2705.40</ele>
	<time>2023-08-07T11:30:26.000Z</time>
</trkpt>
<trkpt lat="46.1254170" lon="10.4816390">
	<ele>2705.40</ele>
	<time>2023-08-07T11:30:27.000Z</time>
</trkpt>
<trkpt lat="46.1254170" lon="10.4816380">
	<ele>2705.40</ele>
	<time>2023-08-07T11:30:28.000Z</time>
</trkpt>
<trkpt lat="46.1254140" lon="10.4816370">
	<ele>2705.40</ele>
	<time>2023-08-07T11:30:29.000Z</time>
</trkpt>
<trkpt lat="46.1254110" lon="10.4816340">
	<ele>2705.40</ele>
	<time>2023-08-07T11:30:30.000Z</time>
</trkpt>
<trkpt lat="46.1254060" lon="10.4816320">
	<ele>2705.40</ele>
	<time>2023-08-07T11:30:31.000Z</time>
</trkpt>
<trkpt lat="46.1254010" lon="10.4816300">
	<ele>2705.40</ele>
	<time>2023-08-07T11:30:32.000Z</time>
</trkpt>
<trkpt lat="46.1253970" lon="10.4816290">
	<ele>2705.40</ele>
	<time>2023-08-07T11:30:33.000Z</time>
</trkpt>
<trkpt lat="46.1253930" lon="10.4816270">
	<ele>2705.40</ele>
	<time>2023-08-07T11:30:34.000Z</time>
</trkpt>
<trkpt lat="46.1253900" lon="10.4816260">
	<ele>2705.40</ele>
	<time>2023-08-07T11:30:35.000Z</time>
</trkpt>
<trkpt lat="46.1253860" lon="10.4816250">
	<ele>2705.40</ele>
	<time>2023-08-07T11:30:36.000Z</time>
</trkpt>
<trkpt lat="46.1253810" lon="10.4816240">
	<ele>2705.40</ele>
	<time>2023-08-07T11:30:37.000Z</time>
</trkpt>
<trkpt lat="46.1253760" lon="10.4816220">
	<ele>2705.40</ele>
	<time>2023-08-07T11:30:38.000Z</time>
</trkpt>
<trkpt lat="46.1253720" lon="10.4816180">
	<ele>2705.40</ele>
	<time>2023-08-07T11:30:39.000Z</time>
</trkpt>
<trkpt lat="46.1253690" lon="10.4816130">
	<ele>2705.40</ele>
	<time>2023-08-07T11:30:40.000Z</time>
</trkpt>
<trkpt lat="46.1253670" lon="10.4816070">
	<ele>2705.40</ele>
	<time>2023-08-07T11:30:41.000Z</time>
</trkpt>
<trkpt lat="46.1253660" lon="10.4816010">
	<ele>2705.40</ele>
	<time>2023-08-07T11:30:42.000Z</time>
</trkpt>
<trkpt lat="46.1253650" lon="10.4815960">
	<ele>2705.40</ele>
	<time>2023-08-07T11:30:43.000Z</time>
</trkpt>
<trkpt lat="46.1253640" lon="10.4815920">
	<ele>2705.40</ele>
	<time>2023-08-07T11:30:44.000Z</time>
</trkpt>
<trkpt lat="46.1253630" lon="10.4815890">
	<ele>2705.40</ele>
	<time>2023-08-07T11:30:45.000Z</time>
</trkpt>
<trkpt lat="46.1253630" lon="10.4815860">
	<ele>2705.40</ele>
	<time>2023-08-07T11:30:46.000Z</time>
</trkpt>
<trkpt lat="46.1253630" lon="10.4815840">
	<ele>2705.40</ele>
	<time>2023-08-07T11:30:47.000Z</time>
</trkpt>
<trkpt lat="46.1253630" lon="10.4815820">
	<ele>2705.40</ele>
	<time>2023-08-07T11:30:48.000Z</time>
</trkpt>
<trkpt lat="46.1253630" lon="10.4815800">
	<ele>2705.40</ele>
	<time>2023-08-07T11:30:49.000Z</time>
</trkpt>
<trkpt lat="46.1253620" lon="10.4815780">
	<ele>2705.40</ele>
	<time>2023-08-07T11:30:50.000Z</time>
</trkpt>
<trkpt lat="46.1253620" lon="10.4815770">
	<ele>2705.40</ele>
	<time>2023-08-07T11:30:51.000Z</time>
</trkpt>
<trkpt lat="46.1253620" lon="10.4815750">
	<ele>2705.40</ele>
	<time>2023-08-07T11:30:52.000Z</time>
</trkpt>
<trkpt lat="46.1253620" lon="10.4815740">
	<ele>2705.40</ele>
	<time>2023-08-07T11:30:53.000Z</time>
</trkpt>
<trkpt lat="46.1253620" lon="10.4815720">
	<ele>2705.40</ele>
	<time>2023-08-07T11:30:54.000Z</time>
</trkpt>
<trkpt lat="46.1253630" lon="10.4815710">
	<ele>2705.40</ele>
	<time>2023-08-07T11:30:55.000Z</time>
</trkpt>
<trkpt lat="46.1253640" lon="10.4815690">
	<ele>2705.40</ele>
	<time>2023-08-07T11:30:56.000Z</time>
</trkpt>
<trkpt lat="46.1253650" lon="10.4815670">
	<ele>2705.40</ele>
	<time>2023-08-07T11:30:57.000Z</time>
</trkpt>
<trkpt lat="46.1253660" lon="10.4815650">
	<ele>2705.40</ele>
	<time>2023-08-07T11:30:58.000Z</time>
</trkpt>
<trkpt lat="46.1253660" lon="10.4815640">
	<ele>2705.40</ele>
	<time>2023-08-07T11:30:59.000Z</time>
</trkpt>
<trkpt lat="46.1253670" lon="10.4815620">
	<ele>2705.40</ele>
	<time>2023-08-07T11:31:00.000Z</time>
</trkpt>
<trkpt lat="46.1253670" lon="10.4815610">
	<ele>2705.40</ele>
	<time>2023-08-07T11:31:01.000Z</time>
</trkpt>
<trkpt lat="46.1253680" lon="10.4815600">
	<ele>2705.40</ele>
	<time>2023-08-07T11:31:02.000Z</time>
</trkpt>
<trkpt lat="46.1253680" lon="10.4815600">
	<ele>2705.40</ele>
	<time>2023-08-07T11:31:03.000Z</time>
</trkpt>
<trkpt lat="46.1253680" lon="10.4815590">
	<ele>2705.40</ele>
	<time>2023-08-07T11:31:04.000Z</time>
</trkpt>
<trkpt lat="46.1253690" lon="10.4815590">
	<ele>2705.40</ele>
	<time>2023-08-07T11:31:05.000Z</time>
</trkpt>
<trkpt lat="46.1253690" lon="10.4815580">
	<ele>2705.40</ele>
	<time>2023-08-07T11:31:06.000Z</time>
</trkpt>
<trkpt lat="46.1253690" lon="10.4815580">
	<ele>2705.40</ele>
	<time>2023-08-07T11:31:07.000Z</time>
</trkpt>
<trkpt lat="46.1253690" lon="10.4815570">
	<ele>2705.40</ele>
	<time>2023-08-07T11:31:08.000Z</time>
</trkpt>
<trkpt lat="46.1253690" lon="10.4815570">
	<ele>2705.40</ele>
	<time>2023-08-07T11:31:09.000Z</time>
</trkpt>
<trkpt lat="46.1253690" lon="10.4815570">
	<ele>2705.40</ele>
	<time>2023-08-07T11:31:10.000Z</time>
</trkpt>
<trkpt lat="46.1253690" lon="10.4815560">
	<ele>2705.40</ele>
	<time>2023-08-07T11:31:11.000Z</time>
</trkpt>
<trkpt lat="46.1253690" lon="10.4815560">
	<ele>2705.40</ele>
	<time>2023-08-07T11:31:12.000Z</time>
</trkpt>
<trkpt lat="46.1253690" lon="10.4815560">
	<ele>2705.40</ele>
	<time>2023-08-07T11:31:13.000Z</time>
</trkpt>
<trkpt lat="46.1253690" lon="10.4815560">
	<ele>2705.40</ele>
	<time>2023-08-07T11:31:14.000Z</time>
</trkpt>
<trkpt lat="46.1253700" lon="10.4815560">
	<ele>2705.40</ele>
	<time>2023-08-07T11:31:15.000Z</time>
</trkpt>
<trkpt lat="46.1253700" lon="10.4815550">
	<ele>2705.40</ele>
	<time>2023-08-07T11:31:16.000Z</time>
</trkpt>
<trkpt lat="46.1253700" lon="10.4815550">
	<ele>2705.40</ele>
	<time>2023-08-07T11:31:17.000Z</time>
</trkpt>
<trkpt lat="46.1253700" lon="10.4815550">
	<ele>2705.40</ele>
	<time>2023-08-07T11:31:18.000Z</time>
</trkpt>
<trkpt lat="46.1253700" lon="10.4815540">
	<ele>2705.40</ele>
	<time>2023-08-07T11:31:19.000Z</time>
</trkpt>
<trkpt lat="46.1253700" lon="10.4815520">
	<ele>2705.40</ele>
	<time>2023-08-07T11:31:20.000Z</time>
</trkpt>
<trkpt lat="46.1253700" lon="10.4815510">
	<ele>2705.40</ele>
	<time>2023-08-07T11:31:21.000Z</time>
</trkpt>
<trkpt lat="46.1253690" lon="10.4815500">
	<ele>2705.40</ele>
	<time>2023-08-07T11:31:22.000Z</time>
</trkpt>
<trkpt lat="46.1253690" lon="10.4815490">
	<ele>2705.40</ele>
	<time>2023-08-07T11:31:23.000Z</time>
</trkpt>
<trkpt lat="46.1253690" lon="10.4815480">
	<ele>2705.40</ele>
	<time>2023-08-07T11:31:24.000Z</time>
</trkpt>
<trkpt lat="46.1253690" lon="10.4815470">
	<ele>2705.40</ele>
	<time>2023-08-07T11:31:25.000Z</time>
</trkpt>
<trkpt lat="46.1253690" lon="10.4815460">
	<ele>2705.40</ele>
	<time>2023-08-07T11:31:26.000Z</time>
</trkpt>
<trkpt lat="46.1253690" lon="10.4815450">
	<ele>2705.40</ele>
	<time>2023-08-07T11:31:27.000Z</time>
</trkpt>
<trkpt lat="46.1253690" lon="10.4815440">
	<ele>2705.40</ele>
	<time>2023-08-07T11:31:28.000Z</time>
</trkpt>
<trkpt lat="46.1253680" lon="10.4815420">
	<ele>2705.40</ele>
	<time>2023-08-07T11:31:29.000Z</time>
</trkpt>
<trkpt lat="46.1253680" lon="10.4815410">
	<ele>2705.40</ele>
	<time>2023-08-07T11:31:30.000Z</time>
</trkpt>
<trkpt lat="46.1253680" lon="10.4815400">
	<ele>2705.40</ele>
	<time>2023-08-07T11:31:31.000Z</time>
</trkpt>
<trkpt lat="46.1253670" lon="10.4815400">
	<ele>2705.40</ele>
	<time>2023-08-07T11:31:32.000Z</time>
</trkpt>
<trkpt lat="46.1253670" lon="10.4815390">
	<ele>2705.40</ele>
	<time>2023-08-07T11:31:33.000Z</time>
</trkpt>
<trkpt lat="46.1253670" lon="10.4815380">
	<ele>2705.40</ele>
	<time>2023-08-07T11:31:34.000Z</time>
</trkpt>
<trkpt lat="46.1253670" lon="10.4815380">
	<ele>2705.40</ele>
	<time>2023-08-07T11:31:35.000Z</time>
</trkpt>
<trkpt lat="46.1253670" lon="10.4815380">
	<ele>2705.40</ele>
	<time>2023-08-07T11:31:36.000Z</time>
</trkpt>
<trkpt lat="46.1253670" lon="10.4815380">
	<ele>2708.00</ele>
	<time>2023-08-07T11:31:37.000Z</time>
</trkpt>
<trkpt lat="46.1253670" lon="10.4815370">
	<ele>2708.00</ele>
	<time>2023-08-07T11:31:38.000Z</time>
</trkpt>
<trkpt lat="46.1253660" lon="10.4815370">
	<ele>2708.00</ele>
	<time>2023-08-07T11:31:39.000Z</time>
</trkpt>
<trkpt lat="46.1253660" lon="10.4815370">
	<ele>2708.00</ele>
	<time>2023-08-07T11:31:40.000Z</time>
</trkpt>
<trkpt lat="46.1253660" lon="10.4815370">
	<ele>2708.00</ele>
	<time>2023-08-07T11:31:41.000Z</time>
</trkpt>
<trkpt lat="46.1253660" lon="10.4815370">
	<ele>2707.80</ele>
	<time>2023-08-07T11:31:42.000Z</time>
</trkpt>
<trkpt lat="46.1253660" lon="10.4815380">
	<ele>2707.80</ele>
	<time>2023-08-07T11:31:43.000Z</time>
</trkpt>
<trkpt lat="46.1253660" lon="10.4815370">
	<ele>2707.60</ele>
	<time>2023-08-07T11:31:44.000Z</time>
</trkpt>
<trkpt lat="46.1253660" lon="10.4815370">
	<ele>2707.60</ele>
	<time>2023-08-07T11:31:45.000Z</time>
</trkpt>
<trkpt lat="46.1253660" lon="10.4815370">
	<ele>2707.60</ele>
	<time>2023-08-07T11:31:46.000Z</time>
</trkpt>
<trkpt lat="46.1253660" lon="10.4815370">
	<ele>2707.60</ele>
	<time>2023-08-07T11:31:47.000Z</time>
</trkpt>
<trkpt lat="46.1253660" lon="10.4815370">
	<ele>2707.60</ele>
	<time>2023-08-07T11:31:48.000Z</time>
</trkpt>
<trkpt lat="46.1253660" lon="10.4815370">
	<ele>2707.40</ele>
	<time>2023-08-07T11:31:49.000Z</time>
</trkpt>
<trkpt lat="46.1253660" lon="10.4815370">
	<ele>2707.40</ele>
	<time>2023-08-07T11:31:50.000Z</time>
</trkpt>
<trkpt lat="46.1253660" lon="10.4815370">
	<ele>2707.20</ele>
	<time>2023-08-07T11:31:51.000Z</time>
</trkpt>
<trkpt lat="46.1253660" lon="10.4815370">
	<ele>2707.20</ele>
	<time>2023-08-07T11:31:52.000Z</time>
</trkpt>
<trkpt lat="46.1253660" lon="10.4815370">
	<ele>2707.20</ele>
	<time>2023-08-07T11:31:53.000Z</time>
</trkpt>
<trkpt lat="46.1253660" lon="10.4815370">
	<ele>2707.20</ele>
	<time>2023-08-07T11:31:54.000Z</time>
</trkpt>
<trkpt lat="46.1253660" lon="10.4815370">
	<ele>2707.20</ele>
	<time>2023-08-07T11:31:55.000Z</time>
</trkpt>
<trkpt lat="46.1253660" lon="10.4815370">
	<ele>2707.00</ele>
	<time>2023-08-07T11:31:56.000Z</time>
</trkpt>
<trkpt lat="46.1253660" lon="10.4815370">
	<ele>2706.80</ele>
	<time>2023-08-07T11:31:57.000Z</time>
</trkpt>
<trkpt lat="46.1253660" lon="10.4815370">
	<ele>2706.80</ele>
	<time>2023-08-07T11:31:58.000Z</time>
</trkpt>
<trkpt lat="46.1253660" lon="10.4815370">
	<ele>2706.60</ele>
	<time>2023-08-07T11:31:59.000Z</time>
</trkpt>
<trkpt lat="46.1253660" lon="10.4815360">
	<ele>2706.40</ele>
	<time>2023-08-07T11:32:00.000Z</time>
</trkpt>
<trkpt lat="46.1253660" lon="10.4815360">
	<ele>2706.20</ele>
	<time>2023-08-07T11:32:01.000Z</time>
</trkpt>
<trkpt lat="46.1253660" lon="10.4815360">
	<ele>2706.20</ele>
	<time>2023-08-07T11:32:02.000Z</time>
</trkpt>
<trkpt lat="46.1253610" lon="10.4815250">
	<ele>2706.20</ele>
	<time>2023-08-07T11:32:03.000Z</time>
</trkpt>
<trkpt lat="46.1253560" lon="10.4815010">
	<ele>2706.00</ele>
	<time>2023-08-07T11:32:04.000Z</time>
</trkpt>
<trkpt lat="46.1253510" lon="10.4814820">
	<ele>2706.00</ele>
	<time>2023-08-07T11:32:05.000Z</time>
</trkpt>
<trkpt lat="46.1253480" lon="10.4814570">
	<ele>2705.60</ele>
	<time>2023-08-07T11:32:06.000Z</time>
</trkpt>
<trkpt lat="46.1253390" lon="10.4814300">
	<ele>2705.60</ele>
	<time>2023-08-07T11:32:07.000Z</time>
</trkpt>
<trkpt lat="46.1253280" lon="10.4814140">
	<ele>2705.40</ele>
	<time>2023-08-07T11:32:08.000Z</time>
</trkpt>
<trkpt lat="46.1253220" lon="10.4813970">
	<ele>2705.40</ele>
	<time>2023-08-07T11:32:09.000Z</time>
</trkpt>
<trkpt lat="46.1253150" lon="10.4813820">
	<ele>2705.40</ele>
	<time>2023-08-07T11:32:10.000Z</time>
</trkpt>
<trkpt lat="46.1253110" lon="10.4813680">
	<ele>2705.40</ele>
	<time>2023-08-07T11:32:11.000Z</time>
</trkpt>
<trkpt lat="46.1253050" lon="10.4813530">
	<ele>2705.40</ele>
	<time>2023-08-07T11:32:12.000Z</time>
</trkpt>
<trkpt lat="46.1253040" lon="10.4813510">
	<ele>2705.60</ele>
	<time>2023-08-07T11:32:13.000Z</time>
</trkpt>
<trkpt lat="46.1253040" lon="10.4813500">
	<ele>2705.60</ele>
	<time>2023-08-07T11:32:14.000Z</time>
</trkpt>
<trkpt lat="46.1253030" lon="10.4813500">
	<ele>2705.60</ele>
	<time>2023-08-07T11:32:15.000Z</time>
</trkpt>
<trkpt lat="46.1253030" lon="10.4813480">
	<ele>2705.60</ele>
	<time>2023-08-07T11:32:16.000Z</time>
</trkpt>
<trkpt lat="46.1253020" lon="10.4813450">
	<ele>2705.80</ele>
	<time>2023-08-07T11:32:17.000Z</time>
</trkpt>
<trkpt lat="46.1253010" lon="10.4813370">
	<ele>2705.60</ele>
	<time>2023-08-07T11:32:18.000Z</time>
</trkpt>
<trkpt lat="46.1252990" lon="10.4813310">
	<ele>2705.60</ele>
	<time>2023-08-07T11:32:19.000Z</time>
</trkpt>
<trkpt lat="46.1253000" lon="10.4813230">
	<ele>2705.60</ele>
	<time>2023-08-07T11:32:20.000Z</time>
</trkpt>
<trkpt lat="46.1253030" lon="10.4813160">
	<ele>2705.40</ele>
	<time>2023-08-07T11:32:21.000Z</time>
</trkpt>
<trkpt lat="46.1253030" lon="10.4813010">
	<ele>2705.40</ele>
	<time>2023-08-07T11:32:22.000Z</time>
</trkpt>
<trkpt lat="46.1253040" lon="10.4812940">
	<ele>2705.60</ele>
	<time>2023-08-07T11:32:23.000Z</time>
</trkpt>
<trkpt lat="46.1253060" lon="10.4812920">
	<ele>2705.80</ele>
	<time>2023-08-07T11:32:24.000Z</time>
</trkpt>
<trkpt lat="46.1253080" lon="10.4812900">
	<ele>2705.80</ele>
	<time>2023-08-07T11:32:25.000Z</time>
</trkpt>
<trkpt lat="46.1253100" lon="10.4812860">
	<ele>2706.00</ele>
	<time>2023-08-07T11:32:26.000Z</time>
</trkpt>
<trkpt lat="46.1253140" lon="10.4812810">
	<ele>2706.00</ele>
	<time>2023-08-07T11:32:27.000Z</time>
</trkpt>
<trkpt lat="46.1253160" lon="10.4812770">
	<ele>2706.00</ele>
	<time>2023-08-07T11:32:28.000Z</time>
</trkpt>
<trkpt lat="46.1253180" lon="10.4812730">
	<ele>2706.00</ele>
	<time>2023-08-07T11:32:29.000Z</time>
</trkpt>
<trkpt lat="46.1253240" lon="10.4812740">
	<ele>2706.00</ele>
	<time>2023-08-07T11:32:30.000Z</time>
</trkpt>
<trkpt lat="46.1253280" lon="10.4812750">
	<ele>2706.00</ele>
	<time>2023-08-07T11:32:31.000Z</time>
</trkpt>
<trkpt lat="46.1253320" lon="10.4812750">
	<ele>2705.80</ele>
	<time>2023-08-07T11:32:32.000Z</time>
</trkpt>
<trkpt lat="46.1253340" lon="10.4812640">
	<ele>2705.80</ele>
	<time>2023-08-07T11:32:33.000Z</time>
</trkpt>
<trkpt lat="46.1253370" lon="10.4812560">
	<ele>2706.00</ele>
	<time>2023-08-07T11:32:34.000Z</time>
</trkpt>
<trkpt lat="46.1253370" lon="10.4812520">
	<ele>2706.00</ele>
	<time>2023-08-07T11:32:35.000Z</time>
</trkpt>
<trkpt lat="46.1253360" lon="10.4812470">
	<ele>2706.00</ele>
	<time>2023-08-07T11:32:36.000Z</time>
</trkpt>
<trkpt lat="46.1253350" lon="10.4812430">
	<ele>2705.80</ele>
	<time>2023-08-07T11:32:37.000Z</time>
</trkpt>
<trkpt lat="46.1253330" lon="10.4812400">
	<ele>2705.80</ele>
	<time>2023-08-07T11:32:38.000Z</time>
</trkpt>
<trkpt lat="46.1253310" lon="10.4812380">
	<ele>2705.80</ele>
	<time>2023-08-07T11:32:39.000Z</time>
</trkpt>
<trkpt lat="46.1253300" lon="10.4812320">
	<ele>2705.80</ele>
	<time>2023-08-07T11:32:40.000Z</time>
</trkpt>
<trkpt lat="46.1253280" lon="10.4812280">
	<ele>2705.80</ele>
	<time>2023-08-07T11:32:41.000Z</time>
</trkpt>
<trkpt lat="46.1253300" lon="10.4812230">
	<ele>2705.80</ele>
	<time>2023-08-07T11:32:42.000Z</time>
</trkpt>
<trkpt lat="46.1253290" lon="10.4812210">
	<ele>2705.80</ele>
	<time>2023-08-07T11:32:43.000Z</time>
</trkpt>
<trkpt lat="46.1253270" lon="10.4812210">
	<ele>2705.80</ele>
	<time>2023-08-07T11:32:44.000Z</time>
</trkpt>
<trkpt lat="46.1253210" lon="10.4812170">
	<ele>2705.80</ele>
	<time>2023-08-07T11:32:45.000Z</time>
</trkpt>
<trkpt lat="46.1253160" lon="10.4812110">
	<ele>2705.80</ele>
	<time>2023-08-07T11:32:46.000Z</time>
</trkpt>
<trkpt lat="46.1253130" lon="10.4812070">
	<ele>2705.60</ele>
	<time>2023-08-07T11:32:47.000Z</time>
</trkpt>
<trkpt lat="46.1253120" lon="10.4811970">
	<ele>2705.20</ele>
	<time>2023-08-07T11:32:48.000Z</time>
</trkpt>
<trkpt lat="46.1253130" lon="10.4811830">
	<ele>2705.20</ele>
	<time>2023-08-07T11:32:49.000Z</time>
</trkpt>
<trkpt lat="46.1253150" lon="10.4811770">
	<ele>2705.00</ele>
	<time>2023-08-07T11:32:50.000Z</time>
</trkpt>
<trkpt lat="46.1253180" lon="10.4811710">
	<ele>2705.00</ele>
	<time>2023-08-07T11:32:51.000Z</time>
</trkpt>
<trkpt lat="46.1253170" lon="10.4811620">
	<ele>2704.80</ele>
	<time>2023-08-07T11:32:52.000Z</time>
</trkpt>
<trkpt lat="46.1253180" lon="10.4811560">
	<ele>2705.00</ele>
	<time>2023-08-07T11:32:53.000Z</time>
</trkpt>
<trkpt lat="46.1253180" lon="10.4811500">
	<ele>2705.00</ele>
	<time>2023-08-07T11:32:54.000Z</time>
</trkpt>
<trkpt lat="46.1253170" lon="10.4811430">
	<ele>2705.00</ele>
	<time>2023-08-07T11:32:55.000Z</time>
</trkpt>
<trkpt lat="46.1253170" lon="10.4811360">
	<ele>2705.00</ele>
	<time>2023-08-07T11:32:56.000Z</time>
</trkpt>
<trkpt lat="46.1253150" lon="10.4811300">
	<ele>2705.20</ele>
	<time>2023-08-07T11:32:57.000Z</time>
</trkpt>
<trkpt lat="46.1253150" lon="10.4811220">
	<ele>2705.20</ele>
	<time>2023-08-07T11:32:58.000Z</time>
</trkpt>
<trkpt lat="46.1253160" lon="10.4811150">
	<ele>2705.20</ele>
	<time>2023-08-07T11:32:59.000Z</time>
</trkpt>
<trkpt lat="46.1253160" lon="10.4811060">
	<ele>2704.80</ele>
	<time>2023-08-07T11:33:00.000Z</time>
</trkpt>
<trkpt lat="46.1253160" lon="10.4811010">
	<ele>2704.80</ele>
	<time>2023-08-07T11:33:01.000Z</time>
</trkpt>
<trkpt lat="46.1253180" lon="10.4810980">
	<ele>2704.60</ele>
	<time>2023-08-07T11:33:02.000Z</time>
</trkpt>
<trkpt lat="46.1253210" lon="10.4810910">
	<ele>2704.60</ele>
	<time>2023-08-07T11:33:03.000Z</time>
</trkpt>
<trkpt lat="46.1253250" lon="10.4810820">
	<ele>2704.60</ele>
	<time>2023-08-07T11:33:04.000Z</time>
</trkpt>
<trkpt lat="46.1253300" lon="10.4810770">
	<ele>2704.60</ele>
	<time>2023-08-07T11:33:05.000Z</time>
</trkpt>
<trkpt lat="46.1253320" lon="10.4810720">
	<ele>2704.60</ele>
	<time>2023-08-07T11:33:06.000Z</time>
</trkpt>
<trkpt lat="46.1253360" lon="10.4810680">
	<ele>2704.60</ele>
	<time>2023-08-07T11:33:07.000Z</time>
</trkpt>
<trkpt lat="46.1253390" lon="10.4810600">
	<ele>2705.00</ele>
	<time>2023-08-07T11:33:08.000Z</time>
</trkpt>
<trkpt lat="46.1253380" lon="10.4810560">
	<ele>2705.00</ele>
	<time>2023-08-07T11:33:09.000Z</time>
</trkpt>
<trkpt lat="46.1253350" lon="10.4810530">
	<ele>2705.20</ele>
	<time>2023-08-07T11:33:10.000Z</time>
</trkpt>
<trkpt lat="46.1253320" lon="10.4810470">
	<ele>2705.20</ele>
	<time>2023-08-07T11:33:11.000Z</time>
</trkpt>
<trkpt lat="46.1253280" lon="10.4810440">
	<ele>2705.20</ele>
	<time>2023-08-07T11:33:12.000Z</time>
</trkpt>
<trkpt lat="46.1253250" lon="10.4810420">
	<ele>2705.20</ele>
	<time>2023-08-07T11:33:13.000Z</time>
</trkpt>
<trkpt lat="46.1253220" lon="10.4810400">
	<ele>2705.20</ele>
	<time>2023-08-07T11:33:14.000Z</time>
</trkpt>
<trkpt lat="46.1253190" lon="10.4810380">
	<ele>2705.00</ele>
	<time>2023-08-07T11:33:15.000Z</time>
</trkpt>
<trkpt lat="46.1253180" lon="10.4810360">
	<ele>2705.00</ele>
	<time>2023-08-07T11:33:16.000Z</time>
</trkpt>
<trkpt lat="46.1253170" lon="10.4810340">
	<ele>2705.00</ele>
	<time>2023-08-07T11:33:17.000Z</time>
</trkpt>
<trkpt lat="46.1253130" lon="10.4810310">
	<ele>2704.80</ele>
	<time>2023-08-07T11:33:18.000Z</time>
</trkpt>
<trkpt lat="46.1253060" lon="10.4810290">
	<ele>2704.80</ele>
	<time>2023-08-07T11:33:19.000Z</time>
</trkpt>
<trkpt lat="46.1253010" lon="10.4810280">
	<ele>2704.80</ele>
	<time>2023-08-07T11:33:20.000Z</time>
</trkpt>
<trkpt lat="46.1252960" lon="10.4810240">
	<ele>2704.60</ele>
	<time>2023-08-07T11:33:21.000Z</time>
</trkpt>
<trkpt lat="46.1252910" lon="10.4810180">
	<ele>2704.40</ele>
	<time>2023-08-07T11:33:22.000Z</time>
</trkpt>
<trkpt lat="46.1252890" lon="10.4810130">
	<ele>2704.20</ele>
	<time>2023-08-07T11:33:23.000Z</time>
</trkpt>
<trkpt lat="46.1252870" lon="10.4810060">
	<ele>2704.00</ele>
	<time>2023-08-07T11:33:24.000Z</time>
</trkpt>
<trkpt lat="46.1252840" lon="10.4810020">
	<ele>2704.00</ele>
	<time>2023-08-07T11:33:25.000Z</time>
</trkpt>
<trkpt lat="46.1252790" lon="10.4810000">
	<ele>2703.60</ele>
	<time>2023-08-07T11:33:26.000Z</time>
</trkpt>
<trkpt lat="46.1252760" lon="10.4809950">
	<ele>2703.40</ele>
	<time>2023-08-07T11:33:27.000Z</time>
</trkpt>
<trkpt lat="46.1252750" lon="10.4809920">
	<ele>2703.40</ele>
	<time>2023-08-07T11:33:28.000Z</time>
</trkpt>
<trkpt lat="46.1252740" lon="10.4809870">
	<ele>2703.20</ele>
	<time>2023-08-07T11:33:29.000Z</time>
</trkpt>
<trkpt lat="46.1252710" lon="10.4809790">
	<ele>2703.20</ele>
	<time>2023-08-07T11:33:30.000Z</time>
</trkpt>
<trkpt lat="46.1252710" lon="10.4809700">
	<ele>2703.20</ele>
	<time>2023-08-07T11:33:31.000Z</time>
</trkpt>
<trkpt lat="46.1252720" lon="10.4809650">
	<ele>2703.00</ele>
	<time>2023-08-07T11:33:32.000Z</time>
</trkpt>
<trkpt lat="46.1252730" lon="10.4809650">
	<ele>2703.00</ele>
	<time>2023-08-07T11:33:33.000Z</time>
</trkpt>
<trkpt lat="46.1252730" lon="10.4809670">
	<ele>2703.00</ele>
	<time>2023-08-07T11:33:34.000Z</time>
</trkpt>
<trkpt lat="46.1252730" lon="10.4809670">
	<ele>2702.80</ele>
	<time>2023-08-07T11:33:35.000Z</time>
</trkpt>
<trkpt lat="46.1252750" lon="10.4809700">
	<ele>2702.80</ele>
	<time>2023-08-07T11:33:36.000Z</time>
</trkpt>
<trkpt lat="46.1252740" lon="10.4809710">
	<ele>2702.80</ele>
	<time>2023-08-07T11:33:37.000Z</time>
</trkpt>
<trkpt lat="46.1252740" lon="10.4809710">
	<ele>2702.80</ele>
	<time>2023-08-07T11:33:38.000Z</time>
</trkpt>
<trkpt lat="46.1252740" lon="10.4809710">
	<ele>2702.60</ele>
	<time>2023-08-07T11:33:39.000Z</time>
</trkpt>
<trkpt lat="46.1252740" lon="10.4809710">
	<ele>2702.60</ele>
	<time>2023-08-07T11:33:40.000Z</time>
</trkpt>
<trkpt lat="46.1252740" lon="10.4809710">
	<ele>2702.60</ele>
	<time>2023-08-07T11:33:41.000Z</time>
</trkpt>
<trkpt lat="46.1252740" lon="10.4809710">
	<ele>2702.40</ele>
	<time>2023-08-07T11:33:42.000Z</time>
</trkpt>
<trkpt lat="46.1252740" lon="10.4809710">
	<ele>2702.80</ele>
	<time>2023-08-07T11:33:43.000Z</time>
</trkpt>
<trkpt lat="46.1252740" lon="10.4809710">
	<ele>2703.00</ele>
	<time>2023-08-07T11:33:44.000Z</time>
</trkpt>
<trkpt lat="46.1252740" lon="10.4809710">
	<ele>2703.20</ele>
	<time>2023-08-07T11:33:45.000Z</time>
</trkpt>
<trkpt lat="46.1252740" lon="10.4809710">
	<ele>2703.40</ele>
	<time>2023-08-07T11:33:46.000Z</time>
</trkpt>
<trkpt lat="46.1252740" lon="10.4809710">
	<ele>2703.40</ele>
	<time>2023-08-07T11:33:47.000Z</time>
</trkpt>
<trkpt lat="46.1252740" lon="10.4809710">
	<ele>2703.60</ele>
	<time>2023-08-07T11:33:48.000Z</time>
</trkpt>
<trkpt lat="46.1252740" lon="10.4809710">
	<ele>2703.60</ele>
	<time>2023-08-07T11:33:49.000Z</time>
</trkpt>
<trkpt lat="46.1252740" lon="10.4809710">
	<ele>2703.60</ele>
	<time>2023-08-07T11:33:50.000Z</time>
</trkpt>
<trkpt lat="46.1252740" lon="10.4809710">
	<ele>2703.60</ele>
	<time>2023-08-07T11:33:51.000Z</time>
</trkpt>
<trkpt lat="46.1252740" lon="10.4809710">
	<ele>2703.60</ele>
	<time>2023-08-07T11:33:52.000Z</time>
</trkpt>
<trkpt lat="46.1252740" lon="10.4809710">
	<ele>2703.60</ele>
	<time>2023-08-07T11:33:53.000Z</time>
</trkpt>
<trkpt lat="46.1252750" lon="10.4809710">
	<ele>2703.60</ele>
	<time>2023-08-07T11:33:54.000Z</time>
</trkpt>
<trkpt lat="46.1252750" lon="10.4809710">
	<ele>2703.60</ele>
	<time>2023-08-07T11:33:55.000Z</time>
</trkpt>
<trkpt lat="46.1252760" lon="10.4809740">
	<ele>2703.60</ele>
	<time>2023-08-07T11:33:56.000Z</time>
</trkpt>
<trkpt lat="46.1252780" lon="10.4809770">
	<ele>2703.60</ele>
	<time>2023-08-07T11:33:57.000Z</time>
</trkpt>
<trkpt lat="46.1252810" lon="10.4809790">
	<ele>2703.60</ele>
	<time>2023-08-07T11:33:58.000Z</time>
</trkpt>
<trkpt lat="46.1252840" lon="10.4809790">
	<ele>2703.80</ele>
	<time>2023-08-07T11:33:59.000Z</time>
</trkpt>
<trkpt lat="46.1252900" lon="10.4809840">
	<ele>2703.60</ele>
	<time>2023-08-07T11:34:00.000Z</time>
</trkpt>
<trkpt lat="46.1252910" lon="10.4809860">
	<ele>2703.60</ele>
	<time>2023-08-07T11:34:01.000Z</time>
</trkpt>
<trkpt lat="46.1252920" lon="10.4809860">
	<ele>2703.60</ele>
	<time>2023-08-07T11:34:02.000Z</time>
</trkpt>
<trkpt lat="46.1252930" lon="10.4809860">
	<ele>2703.60</ele>
	<time>2023-08-07T11:34:03.000Z</time>
</trkpt>
<trkpt lat="46.1252930" lon="10.4809860">
	<ele>2703.40</ele>
	<time>2023-08-07T11:34:04.000Z</time>
</trkpt>
<trkpt lat="46.1252960" lon="10.4809860">
	<ele>2703.20</ele>
	<time>2023-08-07T11:34:05.000Z</time>
</trkpt>
<trkpt lat="46.1252970" lon="10.4809860">
	<ele>2703.20</ele>
	<time>2023-08-07T11:34:06.000Z</time>
</trkpt>
<trkpt lat="46.1253000" lon="10.4809860">
	<ele>2703.20</ele>
	<time>2023-08-07T11:34:07.000Z</time>
</trkpt>
<trkpt lat="46.1253030" lon="10.4809860">
	<ele>2703.20</ele>
	<time>2023-08-07T11:34:08.000Z</time>
</trkpt>
<trkpt lat="46.1253030" lon="10.4809860">
	<ele>2703.60</ele>
	<time>2023-08-07T11:34:09.000Z</time>
</trkpt>
<trkpt lat="46.1253040" lon="10.4809860">
	<ele>2703.80</ele>
	<time>2023-08-07T11:34:10.000Z</time>
</trkpt>
<trkpt lat="46.1253040" lon="10.4809860">
	<ele>2704.00</ele>
	<time>2023-08-07T11:34:11.000Z</time>
</trkpt>
<trkpt lat="46.1253040" lon="10.4809860">
	<ele>2704.00</ele>
	<time>2023-08-07T11:34:12.000Z</time>
</trkpt>
<trkpt lat="46.1253050" lon="10.4809860">
	<ele>2703.80</ele>
	<time>2023-08-07T11:34:13.000Z</time>
</trkpt>
<trkpt lat="46.1253050" lon="10.4809860">
	<ele>2703.60</ele>
	<time>2023-08-07T11:34:14.000Z</time>
</trkpt>
<trkpt lat="46.1253050" lon="10.4809860">
	<ele>2703.60</ele>
	<time>2023-08-07T11:34:15.000Z</time>
</trkpt>
<trkpt lat="46.1253060" lon="10.4809860">
	<ele>2703.60</ele>
	<time>2023-08-07T11:34:16.000Z</time>
</trkpt>
<trkpt lat="46.1253060" lon="10.4809840">
	<ele>2703.60</ele>
	<time>2023-08-07T11:34:17.000Z</time>
</trkpt>
<trkpt lat="46.1253060" lon="10.4809810">
	<ele>2703.60</ele>
	<time>2023-08-07T11:34:18.000Z</time>
</trkpt>
<trkpt lat="46.1253060" lon="10.4809800">
	<ele>2703.60</ele>
	<time>2023-08-07T11:34:19.000Z</time>
</trkpt>
<trkpt lat="46.1253070" lon="10.4809800">
	<ele>2704.00</ele>
	<time>2023-08-07T11:34:20.000Z</time>
</trkpt>
<trkpt lat="46.1253070" lon="10.4809790">
	<ele>2704.00</ele>
	<time>2023-08-07T11:34:21.000Z</time>
</trkpt>
<trkpt lat="46.1253070" lon="10.4809790">
	<ele>2704.20</ele>
	<time>2023-08-07T11:34:22.000Z</time>
</trkpt>
<trkpt lat="46.1253070" lon="10.4809790">
	<ele>2704.20</ele>
	<time>2023-08-07T11:34:23.000Z</time>
</trkpt>
<trkpt lat="46.1253070" lon="10.4809780">
	<ele>2704.00</ele>
	<time>2023-08-07T11:34:24.000Z</time>
</trkpt>
<trkpt lat="46.1253070" lon="10.4809770">
	<ele>2704.20</ele>
	<time>2023-08-07T11:34:25.000Z</time>
</trkpt>
<trkpt lat="46.1253070" lon="10.4809760">
	<ele>2704.40</ele>
	<time>2023-08-07T11:34:26.000Z</time>
</trkpt>
<trkpt lat="46.1253070" lon="10.4809750">
	<ele>2704.60</ele>
	<time>2023-08-07T11:34:27.000Z</time>
</trkpt>
<trkpt lat="46.1253070" lon="10.4809690">
	<ele>2705.00</ele>
	<time>2023-08-07T11:34:28.000Z</time>
</trkpt>
<trkpt lat="46.1253080" lon="10.4809640">
	<ele>2705.20</ele>
	<time>2023-08-07T11:34:29.000Z</time>
</trkpt>
<trkpt lat="46.1253080" lon="10.4809590">
	<ele>2705.20</ele>
	<time>2023-08-07T11:34:30.000Z</time>
</trkpt>
<trkpt lat="46.1253090" lon="10.4809540">
	<ele>2705.40</ele>
	<time>2023-08-07T11:34:31.000Z</time>
</trkpt>
<trkpt lat="46.1253100" lon="10.4809500">
	<ele>2705.40</ele>
	<time>2023-08-07T11:34:32.000Z</time>
</trkpt>
<trkpt lat="46.1253100" lon="10.4809460">
	<ele>2705.60</ele>
	<time>2023-08-07T11:34:33.000Z</time>
</trkpt>
<trkpt lat="46.1253100" lon="10.4809410">
	<ele>2705.60</ele>
	<time>2023-08-07T11:34:34.000Z</time>
</trkpt>
<trkpt lat="46.1253100" lon="10.4809350">
	<ele>2705.80</ele>
	<time>2023-08-07T11:34:35.000Z</time>
</trkpt>
<trkpt lat="46.1253110" lon="10.4809280">
	<ele>2705.80</ele>
	<time>2023-08-07T11:34:36.000Z</time>
</trkpt>
<trkpt lat="46.1253110" lon="10.4809200">
	<ele>2706.00</ele>
	<time>2023-08-07T11:34:37.000Z</time>
</trkpt>
<trkpt lat="46.1253110" lon="10.4809110">
	<ele>2706.00</ele>
	<time>2023-08-07T11:34:38.000Z</time>
</trkpt>
<trkpt lat="46.1253110" lon="10.4809050">
	<ele>2706.00</ele>
	<time>2023-08-07T11:34:39.000Z</time>
</trkpt>
<trkpt lat="46.1253130" lon="10.4809000">
	<ele>2706.20</ele>
	<time>2023-08-07T11:34:40.000Z</time>
</trkpt>
<trkpt lat="46.1253170" lon="10.4808930">
	<ele>2706.20</ele>
	<time>2023-08-07T11:34:41.000Z</time>
</trkpt>
<trkpt lat="46.1253210" lon="10.4808800">
	<ele>2706.40</ele>
	<time>2023-08-07T11:34:42.000Z</time>
</trkpt>
<trkpt lat="46.1253320" lon="10.4808580">
	<ele>2706.40</ele>
	<time>2023-08-07T11:34:43.000Z</time>
</trkpt>
<trkpt lat="46.1253420" lon="10.4808370">
	<ele>2706.40</ele>
	<time>2023-08-07T11:34:44.000Z</time>
</trkpt>
<trkpt lat="46.1253530" lon="10.4808120">
	<ele>2706.40</ele>
	<time>2023-08-07T11:34:45.000Z</time>
</trkpt>
<trkpt lat="46.1253640" lon="10.4807860">
	<ele>2706.40</ele>
	<time>2023-08-07T11:34:46.000Z</time>
</trkpt>
<trkpt lat="46.1253720" lon="10.4807580">
	<ele>2706.40</ele>
	<time>2023-08-07T11:34:47.000Z</time>
</trkpt>
<trkpt lat="46.1253800" lon="10.4807370">
	<ele>2706.40</ele>
	<time>2023-08-07T11:34:48.000Z</time>
</trkpt>
<trkpt lat="46.1253840" lon="10.4807130">
	<ele>2706.40</ele>
	<time>2023-08-07T11:34:49.000Z</time>
</trkpt>
<trkpt lat="46.1253870" lon="10.4806910">
	<ele>2706.40</ele>
	<time>2023-08-07T11:34:50.000Z</time>
</trkpt>
<trkpt lat="46.1253910" lon="10.4806750">
	<ele>2706.40</ele>
	<time>2023-08-07T11:34:51.000Z</time>
</trkpt>
<trkpt lat="46.1253940" lon="10.4806690">
	<ele>2706.40</ele>
	<time>2023-08-07T11:34:52.000Z</time>
</trkpt>
<trkpt lat="46.1254010" lon="10.4806640">
	<ele>2706.40</ele>
	<time>2023-08-07T11:34:53.000Z</time>
</trkpt>
<trkpt lat="46.1254050" lon="10.4806600">
	<ele>2706.40</ele>
	<time>2023-08-07T11:34:54.000Z</time>
</trkpt>
<trkpt lat="46.1254050" lon="10.4806570">
	<ele>2706.20</ele>
	<time>2023-08-07T11:34:55.000Z</time>
</trkpt>
<trkpt lat="46.1254020" lon="10.4806540">
	<ele>2706.20</ele>
	<time>2023-08-07T11:34:56.000Z</time>
</trkpt>
<trkpt lat="46.1254020" lon="10.4806560">
	<ele>2706.20</ele>
	<time>2023-08-07T11:34:57.000Z</time>
</trkpt>
<trkpt lat="46.1254070" lon="10.4806600">
	<ele>2706.20</ele>
	<time>2023-08-07T11:34:58.000Z</time>
</trkpt>
<trkpt lat="46.1254070" lon="10.4806580">
	<ele>2706.20</ele>
	<time>2023-08-07T11:34:59.000Z</time>
</trkpt>
<trkpt lat="46.1254080" lon="10.4806520">
	<ele>2706.20</ele>
	<time>2023-08-07T11:35:00.000Z</time>
</trkpt>
<trkpt lat="46.1254070" lon="10.4806460">
	<ele>2706.20</ele>
	<time>2023-08-07T11:35:01.000Z</time>
</trkpt>
<trkpt lat="46.1254070" lon="10.4806440">
	<ele>2706.60</ele>
	<time>2023-08-07T11:35:02.000Z</time>
</trkpt>
<trkpt lat="46.1254040" lon="10.4806400">
	<ele>2706.80</ele>
	<time>2023-08-07T11:35:03.000Z</time>
</trkpt>
<trkpt lat="46.1254050" lon="10.4806400">
	<ele>2706.80</ele>
	<time>2023-08-07T11:35:04.000Z</time>
</trkpt>
<trkpt lat="46.1254060" lon="10.4806400">
	<ele>2706.80</ele>
	<time>2023-08-07T11:35:05.000Z</time>
</trkpt>
<trkpt lat="46.1254060" lon="10.4806400">
	<ele>2706.80</ele>
	<time>2023-08-07T11:35:06.000Z</time>
</trkpt>
<trkpt lat="46.1254060" lon="10.4806400">
	<ele>2706.80</ele>
	<time>2023-08-07T11:35:07.000Z</time>
</trkpt>
<trkpt lat="46.1254060" lon="10.4806400">
	<ele>2706.80</ele>
	<time>2023-08-07T11:35:08.000Z</time>
</trkpt>
<trkpt lat="46.1254060" lon="10.4806400">
	<ele>2706.80</ele>
	<time>2023-08-07T11:35:09.000Z</time>
</trkpt>
<trkpt lat="46.1254060" lon="10.4806400">
	<ele>2706.80</ele>
	<time>2023-08-07T11:35:10.000Z</time>
</trkpt>
<trkpt lat="46.1254060" lon="10.4806400">
	<ele>2706.40</ele>
	<time>2023-08-07T11:35:11.000Z</time>
</trkpt>
<trkpt lat="46.1254060" lon="10.4806400">
	<ele>2706.40</ele>
	<time>2023-08-07T11:35:12.000Z</time>
</trkpt>
<trkpt lat="46.1254060" lon="10.4806400">
	<ele>2706.20</ele>
	<time>2023-08-07T11:35:13.000Z</time>
</trkpt>
<trkpt lat="46.1254060" lon="10.4806400">
	<ele>2706.20</ele>
	<time>2023-08-07T11:35:14.000Z</time>
</trkpt>
<trkpt lat="46.1254060" lon="10.4806400">
	<ele>2706.20</ele>
	<time>2023-08-07T11:35:15.000Z</time>
</trkpt>
<trkpt lat="46.1254060" lon="10.4806400">
	<ele>2706.20</ele>
	<time>2023-08-07T11:35:16.000Z</time>
</trkpt>
<trkpt lat="46.1254060" lon="10.4806400">
	<ele>2706.20</ele>
	<time>2023-08-07T11:35:17.000Z</time>
</trkpt>
<trkpt lat="46.1254060" lon="10.4806400">
	<ele>2706.00</ele>
	<time>2023-08-07T11:35:18.000Z</time>
</trkpt>
<trkpt lat="46.1254060" lon="10.4806400">
	<ele>2706.00</ele>
	<time>2023-08-07T11:35:19.000Z</time>
</trkpt>
<trkpt lat="46.1254060" lon="10.4806400">
	<ele>2706.20</ele>
	<time>2023-08-07T11:35:20.000Z</time>
</trkpt>
<trkpt lat="46.1254060" lon="10.4806400">
	<ele>2706.20</ele>
	<time>2023-08-07T11:35:21.000Z</time>
</trkpt>
<trkpt lat="46.1254060" lon="10.4806400">
	<ele>2706.20</ele>
	<time>2023-08-07T11:35:22.000Z</time>
</trkpt>
<trkpt lat="46.1254060" lon="10.4806400">
	<ele>2706.40</ele>
	<time>2023-08-07T11:35:23.000Z</time>
</trkpt>
<trkpt lat="46.1254060" lon="10.4806400">
	<ele>2706.40</ele>
	<time>2023-08-07T11:35:24.000Z</time>
</trkpt>
<trkpt lat="46.1254060" lon="10.4806400">
	<ele>2706.40</ele>
	<time>2023-08-07T11:35:25.000Z</time>
</trkpt>
<trkpt lat="46.1254060" lon="10.4806390">
	<ele>2706.60</ele>
	<time>2023-08-07T11:35:26.000Z</time>
</trkpt>
<trkpt lat="46.1254070" lon="10.4806390">
	<ele>2706.60</ele>
	<time>2023-08-07T11:35:27.000Z</time>
</trkpt>
<trkpt lat="46.1254070" lon="10.4806390">
	<ele>2706.60</ele>
	<time>2023-08-07T11:35:28.000Z</time>
</trkpt>
<trkpt lat="46.1254070" lon="10.4806380">
	<ele>2706.60</ele>
	<time>2023-08-07T11:35:29.000Z</time>
</trkpt>
<trkpt lat="46.1254090" lon="10.4806330">
	<ele>2706.60</ele>
	<time>2023-08-07T11:35:30.000Z</time>
</trkpt>
<trkpt lat="46.1254140" lon="10.4806230">
	<ele>2706.80</ele>
	<time>2023-08-07T11:35:31.000Z</time>
</trkpt>
<trkpt lat="46.1254200" lon="10.4806200">
	<ele>2706.80</ele>
	<time>2023-08-07T11:35:32.000Z</time>
</trkpt>
<trkpt lat="46.1254270" lon="10.4806220">
	<ele>2707.00</ele>
	<time>2023-08-07T11:35:33.000Z</time>
</trkpt>
<trkpt lat="46.1254340" lon="10.4806170">
	<ele>2707.00</ele>
	<time>2023-08-07T11:35:34.000Z</time>
</trkpt>
<trkpt lat="46.1254420" lon="10.4806050">
	<ele>2707.00</ele>
	<time>2023-08-07T11:35:35.000Z</time>
</trkpt>
<trkpt lat="46.1254510" lon="10.4806010">
	<ele>2707.20</ele>
	<time>2023-08-07T11:35:36.000Z</time>
</trkpt>
<trkpt lat="46.1254560" lon="10.4805920">
	<ele>2707.20</ele>
	<time>2023-08-07T11:35:37.000Z</time>
</trkpt>
<trkpt lat="46.1254630" lon="10.4805820">
	<ele>2707.40</ele>
	<time>2023-08-07T11:35:38.000Z</time>
</trkpt>
<trkpt lat="46.1254660" lon="10.4805640">
	<ele>2707.60</ele>
	<time>2023-08-07T11:35:39.000Z</time>
</trkpt>
<trkpt lat="46.1254650" lon="10.4805590">
	<ele>2708.00</ele>
	<time>2023-08-07T11:35:40.000Z</time>
</trkpt>
<trkpt lat="46.1254660" lon="10.4805560">
	<ele>2708.00</ele>
	<time>2023-08-07T11:35:41.000Z</time>
</trkpt>
<trkpt lat="46.1254660" lon="10.4805530">
	<ele>2708.20</ele>
	<time>2023-08-07T11:35:42.000Z</time>
</trkpt>
<trkpt lat="46.1254670" lon="10.4805470">
	<ele>2708.40</ele>
	<time>2023-08-07T11:35:43.000Z</time>
</trkpt>
<trkpt lat="46.1254670" lon="10.4805430">
	<ele>2708.40</ele>
	<time>2023-08-07T11:35:44.000Z</time>
</trkpt>
<trkpt lat="46.1254680" lon="10.4805380">
	<ele>2708.40</ele>
	<time>2023-08-07T11:35:45.000Z</time>
</trkpt>
<trkpt lat="46.1254710" lon="10.4805310">
	<ele>2708.40</ele>
	<time>2023-08-07T11:35:46.000Z</time>
</trkpt>
<trkpt lat="46.1254710" lon="10.4805270">
	<ele>2708.60</ele>
	<time>2023-08-07T11:35:47.000Z</time>
</trkpt>
<trkpt lat="46.1254700" lon="10.4805210">
	<ele>2708.60</ele>
	<time>2023-08-07T11:35:48.000Z</time>
</trkpt>
<trkpt lat="46.1254660" lon="10.4805180">
	<ele>2708.60</ele>
	<time>2023-08-07T11:35:49.000Z</time>
</trkpt>
<trkpt lat="46.1254640" lon="10.4805140">
	<ele>2708.60</ele>
	<time>2023-08-07T11:35:50.000Z</time>
</trkpt>
<trkpt lat="46.1254660" lon="10.4805070">
	<ele>2708.40</ele>
	<time>2023-08-07T11:35:51.000Z</time>
</trkpt>
<trkpt lat="46.1254670" lon="10.4805010">
	<ele>2708.40</ele>
	<time>2023-08-07T11:35:52.000Z</time>
</trkpt>
<trkpt lat="46.1254730" lon="10.4804950">
	<ele>2708.40</ele>
	<time>2023-08-07T11:35:53.000Z</time>
</trkpt>
<trkpt lat="46.1254730" lon="10.4804890">
	<ele>2708.40</ele>
	<time>2023-08-07T11:35:54.000Z</time>
</trkpt>
<trkpt lat="46.1254680" lon="10.4804790">
	<ele>2708.40</ele>
	<time>2023-08-07T11:35:55.000Z</time>
</trkpt>
<trkpt lat="46.1254650" lon="10.4804760">
	<ele>2708.20</ele>
	<time>2023-08-07T11:35:56.000Z</time>
</trkpt>
<trkpt lat="46.1254650" lon="10.4804720">
	<ele>2708.40</ele>
	<time>2023-08-07T11:35:57.000Z</time>
</trkpt>
<trkpt lat="46.1254670" lon="10.4804680">
	<ele>2708.40</ele>
	<time>2023-08-07T11:35:58.000Z</time>
</trkpt>
<trkpt lat="46.1254680" lon="10.4804620">
	<ele>2708.40</ele>
	<time>2023-08-07T11:35:59.000Z</time>
</trkpt>
<trkpt lat="46.1254690" lon="10.4804570">
	<ele>2708.60</ele>
	<time>2023-08-07T11:36:00.000Z</time>
</trkpt>
<trkpt lat="46.1254690" lon="10.4804520">
	<ele>2708.60</ele>
	<time>2023-08-07T11:36:01.000Z</time>
</trkpt>
<trkpt lat="46.1254670" lon="10.4804480">
	<ele>2708.60</ele>
	<time>2023-08-07T11:36:02.000Z</time>
</trkpt>
<trkpt lat="46.1254670" lon="10.4804470">
	<ele>2708.80</ele>
	<time>2023-08-07T11:36:03.000Z</time>
</trkpt>
<trkpt lat="46.1254680" lon="10.4804430">
	<ele>2709.20</ele>
	<time>2023-08-07T11:36:04.000Z</time>
</trkpt>
<trkpt lat="46.1254660" lon="10.4804420">
	<ele>2709.40</ele>
	<time>2023-08-07T11:36:05.000Z</time>
</trkpt>
<trkpt lat="46.1254660" lon="10.4804370">
	<ele>2709.40</ele>
	<time>2023-08-07T11:36:06.000Z</time>
</trkpt>
<trkpt lat="46.1254670" lon="10.4804310">
	<ele>2709.60</ele>
	<time>2023-08-07T11:36:07.000Z</time>
</trkpt>
<trkpt lat="46.1254670" lon="10.4804300">
	<ele>2709.60</ele>
	<time>2023-08-07T11:36:08.000Z</time>
</trkpt>
<trkpt lat="46.1254650" lon="10.4804260">
	<ele>2709.60</ele>
	<time>2023-08-07T11:36:09.000Z</time>
</trkpt>
<trkpt lat="46.1254670" lon="10.4804200">
	<ele>2709.80</ele>
	<time>2023-08-07T11:36:10.000Z</time>
</trkpt>
<trkpt lat="46.1254660" lon="10.4804180">
	<ele>2710.00</ele>
	<time>2023-08-07T11:36:11.000Z</time>
</trkpt>
<trkpt lat="46.1254680" lon="10.4804210">
	<ele>2710.00</ele>
	<time>2023-08-07T11:36:12.000Z</time>
</trkpt>
<trkpt lat="46.1254700" lon="10.4804190">
	<ele>2710.20</ele>
	<time>2023-08-07T11:36:13.000Z</time>
</trkpt>
<trkpt lat="46.1254750" lon="10.4804160">
	<ele>2710.40</ele>
	<time>2023-08-07T11:36:14.000Z</time>
</trkpt>
<trkpt lat="46.1254780" lon="10.4804120">
	<ele>2710.60</ele>
	<time>2023-08-07T11:36:15.000Z</time>
</trkpt>
<trkpt lat="46.1254780" lon="10.4804050">
	<ele>2710.80</ele>
	<time>2023-08-07T11:36:16.000Z</time>
</trkpt>
<trkpt lat="46.1254790" lon="10.4803990">
	<ele>2710.80</ele>
	<time>2023-08-07T11:36:17.000Z</time>
</trkpt>
<trkpt lat="46.1254810" lon="10.4803880">
	<ele>2710.80</ele>
	<time>2023-08-07T11:36:18.000Z</time>
</trkpt>
<trkpt lat="46.1254850" lon="10.4803780">
	<ele>2710.80</ele>
	<time>2023-08-07T11:36:19.000Z</time>
</trkpt>
<trkpt lat="46.1254890" lon="10.4803670">
	<ele>2710.80</ele>
	<time>2023-08-07T11:36:20.000Z</time>
</trkpt>
<trkpt lat="46.1254910" lon="10.4803580">
	<ele>2710.80</ele>
	<time>2023-08-07T11:36:21.000Z</time>
</trkpt>
<trkpt lat="46.1254890" lon="10.4803560">
	<ele>2711.00</ele>
	<time>2023-08-07T11:36:22.000Z</time>
</trkpt>
<trkpt lat="46.1254870" lon="10.4803540">
	<ele>2711.20</ele>
	<time>2023-08-07T11:36:23.000Z</time>
</trkpt>
<trkpt lat="46.1254860" lon="10.4803490">
	<ele>2711.20</ele>
	<time>2023-08-07T11:36:24.000Z</time>
</trkpt>
<trkpt lat="46.1254830" lon="10.4803390">
	<ele>2711.60</ele>
	<time>2023-08-07T11:36:25.000Z</time>
</trkpt>
<trkpt lat="46.1254840" lon="10.4803270">
	<ele>2711.60</ele>
	<time>2023-08-07T11:36:26.000Z</time>
</trkpt>
<trkpt lat="46.1254840" lon="10.4803230">
	<ele>2711.60</ele>
	<time>2023-08-07T11:36:27.000Z</time>
</trkpt>
<trkpt lat="46.1254830" lon="10.4803240">
	<ele>2711.40</ele>
	<time>2023-08-07T11:36:28.000Z</time>
</trkpt>
<trkpt lat="46.1254830" lon="10.4803250">
	<ele>2711.60</ele>
	<time>2023-08-07T11:36:29.000Z</time>
</trkpt>
<trkpt lat="46.1254840" lon="10.4803260">
	<ele>2711.60</ele>
	<time>2023-08-07T11:36:30.000Z</time>
</trkpt>
<trkpt lat="46.1254850" lon="10.4803250">
	<ele>2711.60</ele>
	<time>2023-08-07T11:36:31.000Z</time>
</trkpt>
<trkpt lat="46.1254840" lon="10.4803270">
	<ele>2711.60</ele>
	<time>2023-08-07T11:36:32.000Z</time>
</trkpt>
<trkpt lat="46.1254800" lon="10.4803230">
	<ele>2711.40</ele>
	<time>2023-08-07T11:36:33.000Z</time>
</trkpt>
<trkpt lat="46.1254780" lon="10.4803200">
	<ele>2711.40</ele>
	<time>2023-08-07T11:36:34.000Z</time>
</trkpt>
<trkpt lat="46.1254730" lon="10.4803180">
	<ele>2711.40</ele>
	<time>2023-08-07T11:36:35.000Z</time>
</trkpt>
<trkpt lat="46.1254720" lon="10.4803160">
	<ele>2711.60</ele>
	<time>2023-08-07T11:36:36.000Z</time>
</trkpt>
<trkpt lat="46.1254710" lon="10.4803120">
	<ele>2711.60</ele>
	<time>2023-08-07T11:36:37.000Z</time>
</trkpt>
<trkpt lat="46.1254700" lon="10.4803110">
	<ele>2711.60</ele>
	<time>2023-08-07T11:36:38.000Z</time>
</trkpt>
<trkpt lat="46.1254690" lon="10.4803080">
	<ele>2711.80</ele>
	<time>2023-08-07T11:36:39.000Z</time>
</trkpt>
<trkpt lat="46.1254680" lon="10.4803050">
	<ele>2711.80</ele>
	<time>2023-08-07T11:36:40.000Z</time>
</trkpt>
<trkpt lat="46.1254680" lon="10.4803010">
	<ele>2712.00</ele>
	<time>2023-08-07T11:36:41.000Z</time>
</trkpt>
<trkpt lat="46.1254700" lon="10.4802950">
	<ele>2712.00</ele>
	<time>2023-08-07T11:36:42.000Z</time>
</trkpt>
<trkpt lat="46.1254750" lon="10.4802880">
	<ele>2712.20</ele>
	<time>2023-08-07T11:36:43.000Z</time>
</trkpt>
<trkpt lat="46.1254750" lon="10.4802860">
	<ele>2712.20</ele>
	<time>2023-08-07T11:36:44.000Z</time>
</trkpt>
<trkpt lat="46.1254760" lon="10.4802840">
	<ele>2712.40</ele>
	<time>2023-08-07T11:36:45.000Z</time>
</trkpt>
<trkpt lat="46.1254760" lon="10.4802820">
	<ele>2712.40</ele>
	<time>2023-08-07T11:36:46.000Z</time>
</trkpt>
<trkpt lat="46.1254780" lon="10.4802800">
	<ele>2712.60</ele>
	<time>2023-08-07T11:36:47.000Z</time>
</trkpt>
<trkpt lat="46.1254830" lon="10.4802720">
	<ele>2712.60</ele>
	<time>2023-08-07T11:36:48.000Z</time>
</trkpt>
<trkpt lat="46.1254830" lon="10.4802700">
	<ele>2712.80</ele>
	<time>2023-08-07T11:36:49.000Z</time>
</trkpt>
<trkpt lat="46.1254820" lon="10.4802710">
	<ele>2712.80</ele>
	<time>2023-08-07T11:36:50.000Z</time>
</trkpt>
<trkpt lat="46.1254810" lon="10.4802680">
	<ele>2713.00</ele>
	<time>2023-08-07T11:36:51.000Z</time>
</trkpt>
<trkpt lat="46.1254780" lon="10.4802660">
	<ele>2713.00</ele>
	<time>2023-08-07T11:36:52.000Z</time>
</trkpt>
<trkpt lat="46.1254760" lon="10.4802600">
	<ele>2713.00</ele>
	<time>2023-08-07T11:36:53.000Z</time>
</trkpt>
<trkpt lat="46.1254790" lon="10.4802500">
	<ele>2713.20</ele>
	<time>2023-08-07T11:36:54.000Z</time>
</trkpt>
<trkpt lat="46.1254790" lon="10.4802440">
	<ele>2713.20</ele>
	<time>2023-08-07T11:36:55.000Z</time>
</trkpt>
<trkpt lat="46.1254800" lon="10.4802410">
	<ele>2713.20</ele>
	<time>2023-08-07T11:36:56.000Z</time>
</trkpt>
<trkpt lat="46.1254830" lon="10.4802340">
	<ele>2713.20</ele>
	<time>2023-08-07T11:36:57.000Z</time>
</trkpt>
<trkpt lat="46.1254860" lon="10.4802300">
	<ele>2713.40</ele>
	<time>2023-08-07T11:36:58.000Z</time>
</trkpt>
<trkpt lat="46.1254870" lon="10.4802270">
	<ele>2713.40</ele>
	<time>2023-08-07T11:36:59.000Z</time>
</trkpt>
<trkpt lat="46.1254890" lon="10.4802250">
	<ele>2713.80</ele>
	<time>2023-08-07T11:37:00.000Z</time>
</trkpt>
<trkpt lat="46.1254920" lon="10.4802250">
	<ele>2714.00</ele>
	<time>2023-08-07T11:37:01.000Z</time>
</trkpt>
<trkpt lat="46.1254930" lon="10.4802230">
	<ele>2714.20</ele>
	<time>2023-08-07T11:37:02.000Z</time>
</trkpt>
<trkpt lat="46.1254940" lon="10.4802220">
	<ele>2714.20</ele>
	<time>2023-08-07T11:37:03.000Z</time>
</trkpt>
<trkpt lat="46.1254970" lon="10.4802210">
	<ele>2714.40</ele>
	<time>2023-08-07T11:37:04.000Z</time>
</trkpt>
<trkpt lat="46.1254970" lon="10.4802180">
	<ele>2714.60</ele>
	<time>2023-08-07T11:37:05.000Z</time>
</trkpt>
<trkpt lat="46.1254980" lon="10.4802140">
	<ele>2714.80</ele>
	<time>2023-08-07T11:37:06.000Z</time>
</trkpt>
<trkpt lat="46.1254990" lon="10.4802110">
	<ele>2714.80</ele>
	<time>2023-08-07T11:37:07.000Z</time>
</trkpt>
<trkpt lat="46.1255000" lon="10.4802070">
	<ele>2715.00</ele>
	<time>2023-08-07T11:37:08.000Z</time>
</trkpt>
<trkpt lat="46.1255010" lon="10.4802050">
	<ele>2715.00</ele>
	<time>2023-08-07T11:37:09.000Z</time>
</trkpt>
<trkpt lat="46.1255000" lon="10.4802040">
	<ele>2715.00</ele>
	<time>2023-08-07T11:37:10.000Z</time>
</trkpt>
<trkpt lat="46.1255030" lon="10.4802020">
	<ele>2715.00</ele>
	<time>2023-08-07T11:37:11.000Z</time>
</trkpt>
<trkpt lat="46.1255020" lon="10.4801920">
	<ele>2715.20</ele>
	<time>2023-08-07T11:37:12.000Z</time>
</trkpt>
<trkpt lat="46.1255030" lon="10.4801890">
	<ele>2715.60</ele>
	<time>2023-08-07T11:37:13.000Z</time>
</trkpt>
<trkpt lat="46.1255040" lon="10.4801880">
	<ele>2715.80</ele>
	<time>2023-08-07T11:37:14.000Z</time>
</trkpt>
<trkpt lat="46.1255050" lon="10.4801860">
	<ele>2716.00</ele>
	<time>2023-08-07T11:37:15.000Z</time>
</trkpt>
<trkpt lat="46.1255050" lon="10.4801820">
	<ele>2716.20</ele>
	<time>2023-08-07T11:37:16.000Z</time>
</trkpt>
<trkpt lat="46.1255050" lon="10.4801810">
	<ele>2716.20</ele>
	<time>2023-08-07T11:37:17.000Z</time>
</trkpt>
<trkpt lat="46.1255050" lon="10.4801810">
	<ele>2716.40</ele>
	<time>2023-08-07T11:37:18.000Z</time>
</trkpt>
<trkpt lat="46.1255050" lon="10.4801810">
	<ele>2716.40</ele>
	<time>2023-08-07T11:37:19.000Z</time>
</trkpt>
<trkpt lat="46.1255050" lon="10.4801810">
	<ele>2716.40</ele>
	<time>2023-08-07T11:37:20.000Z</time>
</trkpt>
<trkpt lat="46.1255050" lon="10.4801810">
	<ele>2716.40</ele>
	<time>2023-08-07T11:37:21.000Z</time>
</trkpt>
<trkpt lat="46.1255050" lon="10.4801810">
	<ele>2716.60</ele>
	<time>2023-08-07T11:37:22.000Z</time>
</trkpt>
<trkpt lat="46.1255050" lon="10.4801810">
	<ele>2716.60</ele>
	<time>2023-08-07T11:37:23.000Z</time>
</trkpt>
<trkpt lat="46.1255050" lon="10.4801810">
	<ele>2716.60</ele>
	<time>2023-08-07T11:37:24.000Z</time>
</trkpt>
<trkpt lat="46.1255050" lon="10.4801810">
	<ele>2716.80</ele>
	<time>2023-08-07T11:37:25.000Z</time>
</trkpt>
<trkpt lat="46.1255050" lon="10.4801810">
	<ele>2717.00</ele>
	<time>2023-08-07T11:37:26.000Z</time>
</trkpt>
<trkpt lat="46.1255050" lon="10.4801810">
	<ele>2717.00</ele>
	<time>2023-08-07T11:37:27.000Z</time>
</trkpt>
<trkpt lat="46.1255050" lon="10.4801810">
	<ele>2717.00</ele>
	<time>2023-08-07T11:37:28.000Z</time>
</trkpt>
<trkpt lat="46.1255050" lon="10.4801810">
	<ele>2717.20</ele>
	<time>2023-08-07T11:37:29.000Z</time>
</trkpt>
<trkpt lat="46.1255050" lon="10.4801810">
	<ele>2717.40</ele>
	<time>2023-08-07T11:37:30.000Z</time>
</trkpt>
<trkpt lat="46.1255050" lon="10.4801810">
	<ele>2717.60</ele>
	<time>2023-08-07T11:37:31.000Z</time>
</trkpt>
<trkpt lat="46.1255050" lon="10.4801810">
	<ele>2717.60</ele>
	<time>2023-08-07T11:37:32.000Z</time>
</trkpt>
<trkpt lat="46.1255050" lon="10.4801810">
	<ele>2717.60</ele>
	<time>2023-08-07T11:37:33.000Z</time>
</trkpt>
<trkpt lat="46.1255050" lon="10.4801810">
	<ele>2717.60</ele>
	<time>2023-08-07T11:37:34.000Z</time>
</trkpt>
<trkpt lat="46.1255050" lon="10.4801800">
	<ele>2717.60</ele>
	<time>2023-08-07T11:37:35.000Z</time>
</trkpt>
<trkpt lat="46.1255050" lon="10.4801770">
	<ele>2717.80</ele>
	<time>2023-08-07T11:37:36.000Z</time>
</trkpt>
<trkpt lat="46.1255100" lon="10.4801710">
	<ele>2717.80</ele>
	<time>2023-08-07T11:37:37.000Z</time>
</trkpt>
<trkpt lat="46.1255130" lon="10.4801670">
	<ele>2717.80</ele>
	<time>2023-08-07T11:37:38.000Z</time>
</trkpt>
<trkpt lat="46.1255170" lon="10.4801620">
	<ele>2718.00</ele>
	<time>2023-08-07T11:37:39.000Z</time>
</trkpt>
<trkpt lat="46.1255200" lon="10.4801550">
	<ele>2718.20</ele>
	<time>2023-08-07T11:37:40.000Z</time>
</trkpt>
<trkpt lat="46.1255240" lon="10.4801510">
	<ele>2718.40</ele>
	<time>2023-08-07T11:37:41.000Z</time>
</trkpt>
<trkpt lat="46.1255270" lon="10.4801440">
	<ele>2718.40</ele>
	<time>2023-08-07T11:37:42.000Z</time>
</trkpt>
<trkpt lat="46.1255270" lon="10.4801410">
	<ele>2718.60</ele>
	<time>2023-08-07T11:37:43.000Z</time>
</trkpt>
<trkpt lat="46.1255280" lon="10.4801380">
	<ele>2718.80</ele>
	<time>2023-08-07T11:37:44.000Z</time>
</trkpt>
<trkpt lat="46.1255290" lon="10.4801340">
	<ele>2718.80</ele>
	<time>2023-08-07T11:37:45.000Z</time>
</trkpt>
<trkpt lat="46.1255290" lon="10.4801330">
	<ele>2719.00</ele>
	<time>2023-08-07T11:37:46.000Z</time>
</trkpt>
<trkpt lat="46.1255300" lon="10.4801320">
	<ele>2719.20</ele>
	<time>2023-08-07T11:37:47.000Z</time>
</trkpt>
<trkpt lat="46.1255300" lon="10.4801310">
	<ele>2719.40</ele>
	<time>2023-08-07T11:37:48.000Z</time>
</trkpt>
<trkpt lat="46.1255310" lon="10.4801290">
	<ele>2719.60</ele>
	<time>2023-08-07T11:37:49.000Z</time>
</trkpt>
<trkpt lat="46.1255330" lon="10.4801260">
	<ele>2719.80</ele>
	<time>2023-08-07T11:37:50.000Z</time>
</trkpt>
<trkpt lat="46.1255350" lon="10.4801240">
	<ele>2720.00</ele>
	<time>2023-08-07T11:37:51.000Z</time>
</trkpt>
<trkpt lat="46.1255380" lon="10.4801230">
	<ele>2720.20</ele>
	<time>2023-08-07T11:37:52.000Z</time>
</trkpt>
<trkpt lat="46.1255390" lon="10.4801220">
	<ele>2720.40</ele>
	<time>2023-08-07T11:37:53.000Z</time>
</trkpt>
<trkpt lat="46.1255410" lon="10.4801200">
	<ele>2720.40</ele>
	<time>2023-08-07T11:37:54.000Z</time>
</trkpt>
<trkpt lat="46.1255430" lon="10.4801190">
	<ele>2720.60</ele>
	<time>2023-08-07T11:37:55.000Z</time>
</trkpt>
<trkpt lat="46.1255440" lon="10.4801150">
	<ele>2720.60</ele>
	<time>2023-08-07T11:37:56.000Z</time>
</trkpt>
<trkpt lat="46.1255450" lon="10.4801130">
	<ele>2720.60</ele>
	<time>2023-08-07T11:37:57.000Z</time>
</trkpt>
<trkpt lat="46.1255480" lon="10.4801070">
	<ele>2720.80</ele>
	<time>2023-08-07T11:37:58.000Z</time>
</trkpt>
<trkpt lat="46.1255500" lon="10.4801000">
	<ele>2720.80</ele>
	<time>2023-08-07T11:37:59.000Z</time>
</trkpt>
<trkpt lat="46.1255510" lon="10.4800920">
	<ele>2720.80</ele>
	<time>2023-08-07T11:38:00.000Z</time>
</trkpt>
<trkpt lat="46.1255510" lon="10.4800890">
	<ele>2721.20</ele>
	<time>2023-08-07T11:38:01.000Z</time>
</trkpt>
<trkpt lat="46.1255520" lon="10.4800880">
	<ele>2721.40</ele>
	<time>2023-08-07T11:38:02.000Z</time>
</trkpt>
<trkpt lat="46.1255530" lon="10.4800870">
	<ele>2721.40</ele>
	<time>2023-08-07T11:38:03.000Z</time>
</trkpt>
<trkpt lat="46.1255540" lon="10.4800860">
	<ele>2721.60</ele>
	<time>2023-08-07T11:38:04.000Z</time>
</trkpt>
<trkpt lat="46.1255540" lon="10.4800850">
	<ele>2721.60</ele>
	<time>2023-08-07T11:38:05.000Z</time>
</trkpt>
<trkpt lat="46.1255540" lon="10.4800850">
	<ele>2721.60</ele>
	<time>2023-08-07T11:38:06.000Z</time>
</trkpt>
<trkpt lat="46.1255540" lon="10.4800850">
	<ele>2721.80</ele>
	<time>2023-08-07T11:38:07.000Z</time>
</trkpt>
<trkpt lat="46.1255540" lon="10.4800850">
	<ele>2721.80</ele>
	<time>2023-08-07T11:38:08.000Z</time>
</trkpt>
<trkpt lat="46.1255540" lon="10.4800850">
	<ele>2721.80</ele>
	<time>2023-08-07T11:38:09.000Z</time>
</trkpt>
<trkpt lat="46.1255550" lon="10.4800850">
	<ele>2722.00</ele>
	<time>2023-08-07T11:38:10.000Z</time>
</trkpt>
<trkpt lat="46.1255550" lon="10.4800850">
	<ele>2722.20</ele>
	<time>2023-08-07T11:38:11.000Z</time>
</trkpt>
<trkpt lat="46.1255550" lon="10.4800850">
	<ele>2722.40</ele>
	<time>2023-08-07T11:38:12.000Z</time>
</trkpt>
<trkpt lat="46.1255550" lon="10.4800850">
	<ele>2722.60</ele>
	<time>2023-08-07T11:38:13.000Z</time>
</trkpt>
<trkpt lat="46.1255560" lon="10.4800850">
	<ele>2722.60</ele>
	<time>2023-08-07T11:38:14.000Z</time>
</trkpt>
<trkpt lat="46.1255600" lon="10.4800850">
	<ele>2722.80</ele>
	<time>2023-08-07T11:38:15.000Z</time>
</trkpt>
<trkpt lat="46.1255640" lon="10.4800850">
	<ele>2722.80</ele>
	<time>2023-08-07T11:38:16.000Z</time>
</trkpt>
<trkpt lat="46.1255690" lon="10.4800850">
	<ele>2722.80</ele>
	<time>2023-08-07T11:38:17.000Z</time>
</trkpt>
<trkpt lat="46.1255730" lon="10.4800850">
	<ele>2722.80</ele>
	<time>2023-08-07T11:38:18.000Z</time>
</trkpt>
<trkpt lat="46.1255750" lon="10.4800850">
	<ele>2723.00</ele>
	<time>2023-08-07T11:38:19.000Z</time>
</trkpt>
<trkpt lat="46.1255760" lon="10.4800860">
	<ele>2723.00</ele>
	<time>2023-08-07T11:38:20.000Z</time>
</trkpt>
<trkpt lat="46.1255770" lon="10.4800860">
	<ele>2723.00</ele>
	<time>2023-08-07T11:38:21.000Z</time>
</trkpt>
<trkpt lat="46.1255780" lon="10.4800870">
	<ele>2723.40</ele>
	<time>2023-08-07T11:38:22.000Z</time>
</trkpt>
<trkpt lat="46.1255790" lon="10.4800870">
	<ele>2723.60</ele>
	<time>2023-08-07T11:38:23.000Z</time>
</trkpt>
<trkpt lat="46.1255800" lon="10.4800880">
	<ele>2723.60</ele>
	<time>2023-08-07T11:38:24.000Z</time>
</trkpt>
<trkpt lat="46.1255800" lon="10.4800880">
	<ele>2723.80</ele>
	<time>2023-08-07T11:38:25.000Z</time>
</trkpt>
<trkpt lat="46.1255810" lon="10.4800880">
	<ele>2723.80</ele>
	<time>2023-08-07T11:38:26.000Z</time>
</trkpt>
<trkpt lat="46.1255850" lon="10.4800880">
	<ele>2723.80</ele>
	<time>2023-08-07T11:38:27.000Z</time>
</trkpt>
<trkpt lat="46.1255880" lon="10.4800880">
	<ele>2723.80</ele>
	<time>2023-08-07T11:38:28.000Z</time>
</trkpt>
<trkpt lat="46.1255900" lon="10.4800880">
	<ele>2724.00</ele>
	<time>2023-08-07T11:38:29.000Z</time>
</trkpt>
<trkpt lat="46.1255920" lon="10.4800880">
	<ele>2724.00</ele>
	<time>2023-08-07T11:38:30.000Z</time>
</trkpt>
<trkpt lat="46.1255960" lon="10.4800880">
	<ele>2724.00</ele>
	<time>2023-08-07T11:38:31.000Z</time>
</trkpt>
<trkpt lat="46.1255990" lon="10.4800880">
	<ele>2724.00</ele>
	<time>2023-08-07T11:38:32.000Z</time>
</trkpt>
<trkpt lat="46.1256030" lon="10.4800880">
	<ele>2724.20</ele>
	<time>2023-08-07T11:38:33.000Z</time>
</trkpt>
<trkpt lat="46.1256060" lon="10.4800880">
	<ele>2724.20</ele>
	<time>2023-08-07T11:38:34.000Z</time>
</trkpt>
<trkpt lat="46.1256070" lon="10.4800880">
	<ele>2724.20</ele>
	<time>2023-08-07T11:38:35.000Z</time>
</trkpt>
<trkpt lat="46.1256080" lon="10.4800880">
	<ele>2724.40</ele>
	<time>2023-08-07T11:38:36.000Z</time>
</trkpt>
<trkpt lat="46.1256090" lon="10.4800880">
	<ele>2724.40</ele>
	<time>2023-08-07T11:38:37.000Z</time>
</trkpt>
<trkpt lat="46.1256090" lon="10.4800870">
	<ele>2724.40</ele>
	<time>2023-08-07T11:38:38.000Z</time>
</trkpt>
<trkpt lat="46.1256090" lon="10.4800860">
	<ele>2724.60</ele>
	<time>2023-08-07T11:38:39.000Z</time>
</trkpt>
<trkpt lat="46.1256090" lon="10.4800850">
	<ele>2724.60</ele>
	<time>2023-08-07T11:38:40.000Z</time>
</trkpt>
<trkpt lat="46.1256090" lon="10.4800830">
	<ele>2724.60</ele>
	<time>2023-08-07T11:38:41.000Z</time>
</trkpt>
<trkpt lat="46.1256100" lon="10.4800810">
	<ele>2724.60</ele>
	<time>2023-08-07T11:38:42.000Z</time>
</trkpt>
<trkpt lat="46.1256110" lon="10.4800770">
	<ele>2724.60</ele>
	<time>2023-08-07T11:38:43.000Z</time>
</trkpt>
<trkpt lat="46.1256120" lon="10.4800740">
	<ele>2724.60</ele>
	<time>2023-08-07T11:38:44.000Z</time>
</trkpt>
<trkpt lat="46.1256130" lon="10.4800720">
	<ele>2724.60</ele>
	<time>2023-08-07T11:38:45.000Z</time>
</trkpt>
<trkpt lat="46.1256130" lon="10.4800700">
	<ele>2724.60</ele>
	<time>2023-08-07T11:38:46.000Z</time>
</trkpt>
<trkpt lat="46.1256130" lon="10.4800660">
	<ele>2724.60</ele>
	<time>2023-08-07T11:38:47.000Z</time>
</trkpt>
<trkpt lat="46.1256130" lon="10.4800630">
	<ele>2724.60</ele>
	<time>2023-08-07T11:38:48.000Z</time>
</trkpt>
<trkpt lat="46.1256130" lon="10.4800610">
	<ele>2724.40</ele>
	<time>2023-08-07T11:38:49.000Z</time>
</trkpt>
<trkpt lat="46.1256130" lon="10.4800590">
	<ele>2724.40</ele>
	<time>2023-08-07T11:38:50.000Z</time>
</trkpt>
<trkpt lat="46.1256130" lon="10.4800560">
	<ele>2724.20</ele>
	<time>2023-08-07T11:38:51.000Z</time>
</trkpt>
<trkpt lat="46.1256130" lon="10.4800530">
	<ele>2724.00</ele>
	<time>2023-08-07T11:38:52.000Z</time>
</trkpt>
<trkpt lat="46.1256130" lon="10.4800510">
	<ele>2724.00</ele>
	<time>2023-08-07T11:38:53.000Z</time>
</trkpt>
<trkpt lat="46.1256120" lon="10.4800510">
	<ele>2723.80</ele>
	<time>2023-08-07T11:38:54.000Z</time>
</trkpt>
<trkpt lat="46.1256110" lon="10.4800490">
	<ele>2723.80</ele>
	<time>2023-08-07T11:38:55.000Z</time>
</trkpt>
<trkpt lat="46.1256100" lon="10.4800490">
	<ele>2723.80</ele>
	<time>2023-08-07T11:38:56.000Z</time>
</trkpt>
<trkpt lat="46.1256100" lon="10.4800480">
	<ele>2723.80</ele>
	<time>2023-08-07T11:38:57.000Z</time>
</trkpt>
<trkpt lat="46.1256090" lon="10.4800470">
	<ele>2723.80</ele>
	<time>2023-08-07T11:38:58.000Z</time>
</trkpt>
<trkpt lat="46.1256080" lon="10.4800460">
	<ele>2723.80</ele>
	<time>2023-08-07T11:38:59.000Z</time>
</trkpt>
<trkpt lat="46.1256070" lon="10.4800450">
	<ele>2723.80</ele>
	<time>2023-08-07T11:39:00.000Z</time>
</trkpt>
<trkpt lat="46.1256070" lon="10.4800440">
	<ele>2724.00</ele>
	<time>2023-08-07T11:39:01.000Z</time>
</trkpt>
<trkpt lat="46.1256060" lon="10.4800430">
	<ele>2724.00</ele>
	<time>2023-08-07T11:39:02.000Z</time>
</trkpt>
<trkpt lat="46.1256050" lon="10.4800420">
	<ele>2724.20</ele>
	<time>2023-08-07T11:39:03.000Z</time>
</trkpt>
<trkpt lat="46.1256050" lon="10.4800410">
	<ele>2724.20</ele>
	<time>2023-08-07T11:39:04.000Z</time>
</trkpt>
<trkpt lat="46.1256040" lon="10.4800410">
	<ele>2724.40</ele>
	<time>2023-08-07T11:39:05.000Z</time>
</trkpt>
<trkpt lat="46.1256040" lon="10.4800410">
	<ele>2724.60</ele>
	<time>2023-08-07T11:39:06.000Z</time>
</trkpt>
<trkpt lat="46.1256050" lon="10.4800400">
	<ele>2724.60</ele>
	<time>2023-08-07T11:39:07.000Z</time>
</trkpt>
<trkpt lat="46.1256050" lon="10.4800400">
	<ele>2724.60</ele>
	<time>2023-08-07T11:39:08.000Z</time>
</trkpt>
<trkpt lat="46.1256050" lon="10.4800400">
	<ele>2724.60</ele>
	<time>2023-08-07T11:39:09.000Z</time>
</trkpt>
<trkpt lat="46.1256050" lon="10.4800400">
	<ele>2724.60</ele>
	<time>2023-08-07T11:39:10.000Z</time>
</trkpt>
<trkpt lat="46.1256050" lon="10.4800390">
	<ele>2724.40</ele>
	<time>2023-08-07T11:39:11.000Z</time>
</trkpt>
<trkpt lat="46.1256050" lon="10.4800390">
	<ele>2724.40</ele>
	<time>2023-08-07T11:39:12.000Z</time>
</trkpt>
<trkpt lat="46.1256050" lon="10.4800390">
	<ele>2724.40</ele>
	<time>2023-08-07T11:39:13.000Z</time>
</trkpt>
<trkpt lat="46.1256040" lon="10.4800380">
	<ele>2724.40</ele>
	<time>2023-08-07T11:39:14.000Z</time>
</trkpt>
<trkpt lat="46.1256040" lon="10.4800380">
	<ele>2724.40</ele>
	<time>2023-08-07T11:39:15.000Z</time>
</trkpt>
<trkpt lat="46.1256040" lon="10.4800380">
	<ele>2724.60</ele>
	<time>2023-08-07T11:39:16.000Z</time>
</trkpt>
<trkpt lat="46.1256040" lon="10.4800380">
	<ele>2724.60</ele>
	<time>2023-08-07T11:39:17.000Z</time>
</trkpt>
<trkpt lat="46.1256040" lon="10.4800380">
	<ele>2724.60</ele>
	<time>2023-08-07T11:39:18.000Z</time>
</trkpt>
<trkpt lat="46.1256040" lon="10.4800380">
	<ele>2724.60</ele>
	<time>2023-08-07T11:39:19.000Z</time>
</trkpt>
<trkpt lat="46.1256050" lon="10.4800380">
	<ele>2724.60</ele>
	<time>2023-08-07T11:39:20.000Z</time>
</trkpt>
<trkpt lat="46.1256050" lon="10.4800380">
	<ele>2724.60</ele>
	<time>2023-08-07T11:39:21.000Z</time>
</trkpt>
<trkpt lat="46.1256050" lon="10.4800380">
	<ele>2724.80</ele>
	<time>2023-08-07T11:39:22.000Z</time>
</trkpt>
<trkpt lat="46.1256060" lon="10.4800370">
	<ele>2725.20</ele>
	<time>2023-08-07T11:39:23.000Z</time>
</trkpt>
<trkpt lat="46.1256060" lon="10.4800370">
	<ele>2725.60</ele>
	<time>2023-08-07T11:39:24.000Z</time>
</trkpt>
<trkpt lat="46.1256060" lon="10.4800370">
	<ele>2725.80</ele>
	<time>2023-08-07T11:39:25.000Z</time>
</trkpt>
<trkpt lat="46.1256060" lon="10.4800360">
	<ele>2725.80</ele>
	<time>2023-08-07T11:39:26.000Z</time>
</trkpt>
<trkpt lat="46.1256060" lon="10.4800360">
	<ele>2725.80</ele>
	<time>2023-08-07T11:39:27.000Z</time>
</trkpt>
<trkpt lat="46.1256070" lon="10.4800360">
	<ele>2725.80</ele>
	<time>2023-08-07T11:39:28.000Z</time>
</trkpt>
<trkpt lat="46.1256070" lon="10.4800360">
	<ele>2725.60</ele>
	<time>2023-08-07T11:39:29.000Z</time>
</trkpt>
<trkpt lat="46.1256070" lon="10.4800370">
	<ele>2725.40</ele>
	<time>2023-08-07T11:39:30.000Z</time>
</trkpt>
<trkpt lat="46.1256080" lon="10.4800370">
	<ele>2725.40</ele>
	<time>2023-08-07T11:39:31.000Z</time>
</trkpt>
<trkpt lat="46.1256080" lon="10.4800370">
	<ele>2725.40</ele>
	<time>2023-08-07T11:39:32.000Z</time>
</trkpt>
<trkpt lat="46.1256080" lon="10.4800370">
	<ele>2725.40</ele>
	<time>2023-08-07T11:39:33.000Z</time>
</trkpt>
<trkpt lat="46.1256090" lon="10.4800370">
	<ele>2725.40</ele>
	<time>2023-08-07T11:39:34.000Z</time>
</trkpt>
<trkpt lat="46.1256090" lon="10.4800370">
	<ele>2725.60</ele>
	<time>2023-08-07T11:39:35.000Z</time>
</trkpt>
<trkpt lat="46.1256090" lon="10.4800370">
	<ele>2725.80</ele>
	<time>2023-08-07T11:39:36.000Z</time>
</trkpt>
<trkpt lat="46.1256100" lon="10.4800370">
	<ele>2726.00</ele>
	<time>2023-08-07T11:39:37.000Z</time>
</trkpt>
<trkpt lat="46.1256110" lon="10.4800370">
	<ele>2726.00</ele>
	<time>2023-08-07T11:39:38.000Z</time>
</trkpt>
<trkpt lat="46.1256120" lon="10.4800370">
	<ele>2726.00</ele>
	<time>2023-08-07T11:39:39.000Z</time>
</trkpt>
<trkpt lat="46.1256130" lon="10.4800370">
	<ele>2726.40</ele>
	<time>2023-08-07T11:39:40.000Z</time>
</trkpt>
<trkpt lat="46.1256140" lon="10.4800370">
	<ele>2726.60</ele>
	<time>2023-08-07T11:39:41.000Z</time>
</trkpt>
<trkpt lat="46.1256150" lon="10.4800360">
	<ele>2726.80</ele>
	<time>2023-08-07T11:39:42.000Z</time>
</trkpt>
<trkpt lat="46.1256160" lon="10.4800360">
	<ele>2727.00</ele>
	<time>2023-08-07T11:39:43.000Z</time>
</trkpt>
<trkpt lat="46.1256170" lon="10.4800360">
	<ele>2727.20</ele>
	<time>2023-08-07T11:39:44.000Z</time>
</trkpt>
<trkpt lat="46.1256170" lon="10.4800360">
	<ele>2727.60</ele>
	<time>2023-08-07T11:39:45.000Z</time>
</trkpt>
<trkpt lat="46.1256170" lon="10.4800350">
	<ele>2727.80</ele>
	<time>2023-08-07T11:39:46.000Z</time>
</trkpt>
<trkpt lat="46.1256180" lon="10.4800350">
	<ele>2727.80</ele>
	<time>2023-08-07T11:39:47.000Z</time>
</trkpt>
<trkpt lat="46.1256180" lon="10.4800350">
	<ele>2728.20</ele>
	<time>2023-08-07T11:39:48.000Z</time>
</trkpt>
<trkpt lat="46.1256190" lon="10.4800340">
	<ele>2728.40</ele>
	<time>2023-08-07T11:39:49.000Z</time>
</trkpt>
<trkpt lat="46.1256190" lon="10.4800340">
	<ele>2728.60</ele>
	<time>2023-08-07T11:39:50.000Z</time>
</trkpt>
<trkpt lat="46.1256190" lon="10.4800340">
	<ele>2728.80</ele>
	<time>2023-08-07T11:39:51.000Z</time>
</trkpt>
<trkpt lat="46.1256200" lon="10.4800340">
	<ele>2729.00</ele>
	<time>2023-08-07T11:39:52.000Z</time>
</trkpt>
<trkpt lat="46.1256220" lon="10.4800320">
	<ele>2729.00</ele>
	<time>2023-08-07T11:39:53.000Z</time>
</trkpt>
<trkpt lat="46.1256240" lon="10.4800310">
	<ele>2729.20</ele>
	<time>2023-08-07T11:39:54.000Z</time>
</trkpt>
<trkpt lat="46.1256260" lon="10.4800300">
	<ele>2729.40</ele>
	<time>2023-08-07T11:39:55.000Z</time>
</trkpt>
<trkpt lat="46.1256280" lon="10.4800280">
	<ele>2729.40</ele>
	<time>2023-08-07T11:39:56.000Z</time>
</trkpt>
<trkpt lat="46.1256290" lon="10.4800270">
	<ele>2729.60</ele>
	<time>2023-08-07T11:39:57.000Z</time>
</trkpt>
<trkpt lat="46.1256310" lon="10.4800260">
	<ele>2729.80</ele>
	<time>2023-08-07T11:39:58.000Z</time>
</trkpt>
<trkpt lat="46.1256330" lon="10.4800240">
	<ele>2730.00</ele>
	<time>2023-08-07T11:39:59.000Z</time>
</trkpt>
<trkpt lat="46.1256340" lon="10.4800220">
	<ele>2730.20</ele>
	<time>2023-08-07T11:40:00.000Z</time>
</trkpt>
<trkpt lat="46.1256350" lon="10.4800190">
	<ele>2730.40</ele>
	<time>2023-08-07T11:40:01.000Z</time>
</trkpt>
<trkpt lat="46.1256360" lon="10.4800170">
	<ele>2730.60</ele>
	<time>2023-08-07T11:40:02.000Z</time>
</trkpt>
<trkpt lat="46.1256360" lon="10.4800140">
	<ele>2730.60</ele>
	<time>2023-08-07T11:40:03.000Z</time>
</trkpt>
<trkpt lat="46.1256370" lon="10.4800120">
	<ele>2730.80</ele>
	<time>2023-08-07T11:40:04.000Z</time>
</trkpt>
<trkpt lat="46.1256370" lon="10.4800100">
	<ele>2730.80</ele>
	<time>2023-08-07T11:40:05.000Z</time>
</trkpt>
<trkpt lat="46.1256380" lon="10.4800090">
	<ele>2731.00</ele>
	<time>2023-08-07T11:40:06.000Z</time>
</trkpt>
<trkpt lat="46.1256380" lon="10.4800070">
	<ele>2731.00</ele>
	<time>2023-08-07T11:40:07.000Z</time>
</trkpt>
<trkpt lat="46.1256390" lon="10.4800060">
	<ele>2731.20</ele>
	<time>2023-08-07T11:40:08.000Z</time>
</trkpt>
<trkpt lat="46.1256390" lon="10.4800060">
	<ele>2731.40</ele>
	<time>2023-08-07T11:40:09.000Z</time>
</trkpt>
<trkpt lat="46.1256400" lon="10.4800050">
	<ele>2731.60</ele>
	<time>2023-08-07T11:40:10.000Z</time>
</trkpt>
<trkpt lat="46.1256400" lon="10.4800040">
	<ele>2731.80</ele>
	<time>2023-08-07T11:40:11.000Z</time>
</trkpt>
<trkpt lat="46.1256410" lon="10.4800040">
	<ele>2731.80</ele>
	<time>2023-08-07T11:40:12.000Z</time>
</trkpt>
<trkpt lat="46.1256420" lon="10.4800040">
	<ele>2732.00</ele>
	<time>2023-08-07T11:40:13.000Z</time>
</trkpt>
<trkpt lat="46.1256430" lon="10.4800030">
	<ele>2732.00</ele>
	<time>2023-08-07T11:40:14.000Z</time>
</trkpt>
<trkpt lat="46.1256450" lon="10.4800030">
	<ele>2732.20</ele>
	<time>2023-08-07T11:40:15.000Z</time>
</trkpt>
<trkpt lat="46.1256470" lon="10.4800030">
	<ele>2732.40</ele>
	<time>2023-08-07T11:40:16.000Z</time>
</trkpt>
<trkpt lat="46.1256490" lon="10.4800030">
	<ele>2732.40</ele>
	<time>2023-08-07T11:40:17.000Z</time>
</trkpt>
<trkpt lat="46.1256510" lon="10.4800030">
	<ele>2732.80</ele>
	<time>2023-08-07T11:40:18.000Z</time>
</trkpt>
<trkpt lat="46.1256530" lon="10.4800030">
	<ele>2733.00</ele>
	<time>2023-08-07T11:40:19.000Z</time>
</trkpt>
<trkpt lat="46.1256560" lon="10.4800040">
	<ele>2733.00</ele>
	<time>2023-08-07T11:40:20.000Z</time>
</trkpt>
<trkpt lat="46.1256580" lon="10.4800040">
	<ele>2733.20</ele>
	<time>2023-08-07T11:40:21.000Z</time>
</trkpt>
<trkpt lat="46.1256610" lon="10.4800040">
	<ele>2733.40</ele>
	<time>2023-08-07T11:40:22.000Z</time>
</trkpt>
<trkpt lat="46.1256640" lon="10.4800040">
	<ele>2733.40</ele>
	<time>2023-08-07T11:40:23.000Z</time>
</trkpt>
<trkpt lat="46.1256660" lon="10.4800040">
	<ele>2733.60</ele>
	<time>2023-08-07T11:40:24.000Z</time>
</trkpt>
<trkpt lat="46.1256680" lon="10.4800050">
	<ele>2733.60</ele>
	<time>2023-08-07T11:40:25.000Z</time>
</trkpt>
<trkpt lat="46.1256700" lon="10.4800050">
	<ele>2733.60</ele>
	<time>2023-08-07T11:40:26.000Z</time>
</trkpt>
<trkpt lat="46.1256710" lon="10.4800050">
	<ele>2733.80</ele>
	<time>2023-08-07T11:40:27.000Z</time>
</trkpt>
<trkpt lat="46.1256730" lon="10.4800050">
	<ele>2734.00</ele>
	<time>2023-08-07T11:40:28.000Z</time>
</trkpt>
<trkpt lat="46.1256750" lon="10.4800050">
	<ele>2734.20</ele>
	<time>2023-08-07T11:40:29.000Z</time>
</trkpt>
<trkpt lat="46.1256770" lon="10.4800050">
	<ele>2734.60</ele>
	<time>2023-08-07T11:40:30.000Z</time>
</trkpt>
<trkpt lat="46.1256780" lon="10.4800050">
	<ele>2734.80</ele>
	<time>2023-08-07T11:40:31.000Z</time>
</trkpt>
<trkpt lat="46.1256790" lon="10.4800050">
	<ele>2734.80</ele>
	<time>2023-08-07T11:40:32.000Z</time>
</trkpt>
<trkpt lat="46.1256800" lon="10.4800050">
	<ele>2735.00</ele>
	<time>2023-08-07T11:40:33.000Z</time>
</trkpt>
<trkpt lat="46.1256810" lon="10.4800050">
	<ele>2735.00</ele>
	<time>2023-08-07T11:40:34.000Z</time>
</trkpt>
<trkpt lat="46.1256810" lon="10.4800050">
	<ele>2735.40</ele>
	<time>2023-08-07T11:40:35.000Z</time>
</trkpt>
<trkpt lat="46.1256820" lon="10.4800050">
	<ele>2735.80</ele>
	<time>2023-08-07T11:40:36.000Z</time>
</trkpt>
<trkpt lat="46.1256820" lon="10.4800050">
	<ele>2736.00</ele>
	<time>2023-08-07T11:40:37.000Z</time>
</trkpt>
<trkpt lat="46.1256820" lon="10.4800050">
	<ele>2736.20</ele>
	<time>2023-08-07T11:40:38.000Z</time>
</trkpt>
<trkpt lat="46.1256820" lon="10.4800050">
	<ele>2736.40</ele>
	<time>2023-08-07T11:40:39.000Z</time>
</trkpt>
<trkpt lat="46.1256820" lon="10.4800040">
	<ele>2736.60</ele>
	<time>2023-08-07T11:40:40.000Z</time>
</trkpt>
<trkpt lat="46.1256820" lon="10.4800040">
	<ele>2736.60</ele>
	<time>2023-08-07T11:40:41.000Z</time>
</trkpt>
<trkpt lat="46.1256820" lon="10.4800040">
	<ele>2736.80</ele>
	<time>2023-08-07T11:40:42.000Z</time>
</trkpt>
<trkpt lat="46.1256830" lon="10.4800040">
	<ele>2737.00</ele>
	<time>2023-08-07T11:40:43.000Z</time>
</trkpt>
<trkpt lat="46.1256830" lon="10.4800040">
	<ele>2737.40</ele>
	<time>2023-08-07T11:40:44.000Z</time>
</trkpt>
<trkpt lat="46.1256830" lon="10.4800040">
	<ele>2738.00</ele>
	<time>2023-08-07T11:40:45.000Z</time>
</trkpt>
<trkpt lat="46.1256830" lon="10.4800040">
	<ele>2738.20</ele>
	<time>2023-08-07T11:40:46.000Z</time>
</trkpt>
<trkpt lat="46.1256840" lon="10.4800040">
	<ele>2738.40</ele>
	<time>2023-08-07T11:40:47.000Z</time>
</trkpt>
<trkpt lat="46.1256840" lon="10.4800040">
	<ele>2738.60</ele>
	<time>2023-08-07T11:40:48.000Z</time>
</trkpt>
<trkpt lat="46.1256840" lon="10.4800040">
	<ele>2738.80</ele>
	<time>2023-08-07T11:40:49.000Z</time>
</trkpt>
<trkpt lat="46.1256840" lon="10.4800030">
	<ele>2739.00</ele>
	<time>2023-08-07T11:40:50.000Z</time>
</trkpt>
<trkpt lat="46.1256840" lon="10.4800030">
	<ele>2739.00</ele>
	<time>2023-08-07T11:40:51.000Z</time>
</trkpt>
<trkpt lat="46.1256840" lon="10.4800030">
	<ele>2739.20</ele>
	<time>2023-08-07T11:40:52.000Z</time>
</trkpt>
<trkpt lat="46.1256850" lon="10.4800030">
	<ele>2739.20</ele>
	<time>2023-08-07T11:40:53.000Z</time>
</trkpt>
<trkpt lat="46.1256850" lon="10.4800030">
	<ele>2739.20</ele>
	<time>2023-08-07T11:40:54.000Z</time>
</trkpt>
<trkpt lat="46.1256850" lon="10.4800030">
	<ele>2739.20</ele>
	<time>2023-08-07T11:40:55.000Z</time>
</trkpt>
<trkpt lat="46.1256850" lon="10.4800030">
	<ele>2739.40</ele>
	<time>2023-08-07T11:40:56.000Z</time>
</trkpt>
<trkpt lat="46.1256850" lon="10.4800030">
	<ele>2739.40</ele>
	<time>2023-08-07T11:40:57.000Z</time>
</trkpt>
<trkpt lat="46.1256850" lon="10.4800030">
	<ele>2739.40</ele>
	<time>2023-08-07T11:40:58.000Z</time>
</trkpt>
<trkpt lat="46.1256860" lon="10.4800020">
	<ele>2739.60</ele>
	<time>2023-08-07T11:40:59.000Z</time>
</trkpt>
<trkpt lat="46.1256860" lon="10.4800020">
	<ele>2739.80</ele>
	<time>2023-08-07T11:41:00.000Z</time>
</trkpt>
<trkpt lat="46.1256860" lon="10.4800010">
	<ele>2740.20</ele>
	<time>2023-08-07T11:41:01.000Z</time>
</trkpt>
<trkpt lat="46.1256860" lon="10.4800010">
	<ele>2740.40</ele>
	<time>2023-08-07T11:41:02.000Z</time>
</trkpt>
<trkpt lat="46.1256860" lon="10.4800000">
	<ele>2740.40</ele>
	<time>2023-08-07T11:41:03.000Z</time>
</trkpt>
<trkpt lat="46.1256870" lon="10.4800000">
	<ele>2740.80</ele>
	<time>2023-08-07T11:41:04.000Z</time>
</trkpt>
<trkpt lat="46.1256870" lon="10.4800000">
	<ele>2741.00</ele>
	<time>2023-08-07T11:41:05.000Z</time>
</trkpt>
<trkpt lat="46.1256870" lon="10.4799990">
	<ele>2741.20</ele>
	<time>2023-08-07T11:41:06.000Z</time>
</trkpt>
<trkpt lat="46.1256870" lon="10.4799990">
	<ele>2741.40</ele>
	<time>2023-08-07T11:41:07.000Z</time>
</trkpt>
<trkpt lat="46.1256880" lon="10.4799990">
	<ele>2741.40</ele>
	<time>2023-08-07T11:41:08.000Z</time>
</trkpt>
<trkpt lat="46.1256880" lon="10.4799990">
	<ele>2741.40</ele>
	<time>2023-08-07T11:41:09.000Z</time>
</trkpt>
<trkpt lat="46.1256880" lon="10.4799990">
	<ele>2741.40</ele>
	<time>2023-08-07T11:41:10.000Z</time>
</trkpt>
<trkpt lat="46.1256880" lon="10.4799990">
	<ele>2741.60</ele>
	<time>2023-08-07T11:41:11.000Z</time>
</trkpt>
<trkpt lat="46.1256890" lon="10.4799980">
	<ele>2741.60</ele>
	<time>2023-08-07T11:41:12.000Z</time>
</trkpt>
<trkpt lat="46.1256890" lon="10.4799980">
	<ele>2741.60</ele>
	<time>2023-08-07T11:41:13.000Z</time>
</trkpt>
<trkpt lat="46.1256890" lon="10.4799980">
	<ele>2741.80</ele>
	<time>2023-08-07T11:41:14.000Z</time>
</trkpt>
<trkpt lat="46.1256900" lon="10.4799970">
	<ele>2742.00</ele>
	<time>2023-08-07T11:41:15.000Z</time>
</trkpt>
<trkpt lat="46.1256900" lon="10.4799970">
	<ele>2742.00</ele>
	<time>2023-08-07T11:41:16.000Z</time>
</trkpt>
<trkpt lat="46.1256900" lon="10.4799970">
	<ele>2742.20</ele>
	<time>2023-08-07T11:41:17.000Z</time>
</trkpt>
<trkpt lat="46.1256900" lon="10.4799960">
	<ele>2742.40</ele>
	<time>2023-08-07T11:41:18.000Z</time>
</trkpt>
<trkpt lat="46.1256910" lon="10.4799960">
	<ele>2742.40</ele>
	<time>2023-08-07T11:41:19.000Z</time>
</trkpt>
<trkpt lat="46.1256910" lon="10.4799960">
	<ele>2742.40</ele>
	<time>2023-08-07T11:41:20.000Z</time>
</trkpt>
<trkpt lat="46.1256910" lon="10.4799960">
	<ele>2742.60</ele>
	<time>2023-08-07T11:41:21.000Z</time>
</trkpt>
<trkpt lat="46.1256910" lon="10.4799950">
	<ele>2742.60</ele>
	<time>2023-08-07T11:41:22.000Z</time>
</trkpt>
<trkpt lat="46.1256910" lon="10.4799950">
	<ele>2742.60</ele>
	<time>2023-08-07T11:41:23.000Z</time>
</trkpt>
<trkpt lat="46.1256920" lon="10.4799950">
	<ele>2742.80</ele>
	<time>2023-08-07T11:41:24.000Z</time>
</trkpt>
<trkpt lat="46.1256920" lon="10.4799940">
	<ele>2742.80</ele>
	<time>2023-08-07T11:41:25.000Z</time>
</trkpt>
<trkpt lat="46.1256920" lon="10.4799940">
	<ele>2743.00</ele>
	<time>2023-08-07T11:41:26.000Z</time>
</trkpt>
<trkpt lat="46.1256930" lon="10.4799940">
	<ele>2743.20</ele>
	<time>2023-08-07T11:41:27.000Z</time>
</trkpt>
<trkpt lat="46.1256930" lon="10.4799940">
	<ele>2743.20</ele>
	<time>2023-08-07T11:41:28.000Z</time>
</trkpt>
<trkpt lat="46.1256930" lon="10.4799930">
	<ele>2743.60</ele>
	<time>2023-08-07T11:41:29.000Z</time>
</trkpt>
<trkpt lat="46.1256930" lon="10.4799930">
	<ele>2743.80</ele>
	<time>2023-08-07T11:41:30.000Z</time>
</trkpt>
<trkpt lat="46.1256930" lon="10.4799930">
	<ele>2743.80</ele>
	<time>2023-08-07T11:41:31.000Z</time>
</trkpt>
<trkpt lat="46.1256940" lon="10.4799920">
	<ele>2744.00</ele>
	<time>2023-08-07T11:41:32.000Z</time>
</trkpt>
<trkpt lat="46.1256940" lon="10.4799920">
	<ele>2744.20</ele>
	<time>2023-08-07T11:41:33.000Z</time>
</trkpt>
<trkpt lat="46.1256940" lon="10.4799920">
	<ele>2744.20</ele>
	<time>2023-08-07T11:41:34.000Z</time>
</trkpt>
<trkpt lat="46.1256940" lon="10.4799920">
	<ele>2744.40</ele>
	<time>2023-08-07T11:41:35.000Z</time>
</trkpt>
<trkpt lat="46.1256950" lon="10.4799910">
	<ele>2744.80</ele>
	<time>2023-08-07T11:41:36.000Z</time>
</trkpt>
<trkpt lat="46.1256950" lon="10.4799910">
	<ele>2745.00</ele>
	<time>2023-08-07T11:41:37.000Z</time>
</trkpt>
<trkpt lat="46.1256950" lon="10.4799900">
	<ele>2745.20</ele>
	<time>2023-08-07T11:41:38.000Z</time>
</trkpt>
<trkpt lat="46.1256950" lon="10.4799900">
	<ele>2745.40</ele>
	<time>2023-08-07T11:41:39.000Z</time>
</trkpt>
<trkpt lat="46.1256950" lon="10.4799900">
	<ele>2745.60</ele>
	<time>2023-08-07T11:41:40.000Z</time>
</trkpt>
<trkpt lat="46.1256960" lon="10.4799900">
	<ele>2745.80</ele>
	<time>2023-08-07T11:41:41.000Z</time>
</trkpt>
<trkpt lat="46.1256960" lon="10.4799890">
	<ele>2746.20</ele>
	<time>2023-08-07T11:41:42.000Z</time>
</trkpt>
<trkpt lat="46.1256960" lon="10.4799890">
	<ele>2746.40</ele>
	<time>2023-08-07T11:41:43.000Z</time>
</trkpt>
<trkpt lat="46.1256970" lon="10.4799880">
	<ele>2746.60</ele>
	<time>2023-08-07T11:41:44.000Z</time>
</trkpt>
<trkpt lat="46.1256970" lon="10.4799880">
	<ele>2746.60</ele>
	<time>2023-08-07T11:41:45.000Z</time>
</trkpt>
<trkpt lat="46.1256970" lon="10.4799880">
	<ele>2746.60</ele>
	<time>2023-08-07T11:41:46.000Z</time>
</trkpt>
<trkpt lat="46.1256970" lon="10.4799870">
	<ele>2746.80</ele>
	<time>2023-08-07T11:41:47.000Z</time>
</trkpt>
<trkpt lat="46.1256970" lon="10.4799870">
	<ele>2746.80</ele>
	<time>2023-08-07T11:41:48.000Z</time>
</trkpt>
<trkpt lat="46.1256980" lon="10.4799860">
	<ele>2746.80</ele>
	<time>2023-08-07T11:41:49.000Z</time>
</trkpt>
<trkpt lat="46.1256980" lon="10.4799860">
	<ele>2746.80</ele>
	<time>2023-08-07T11:41:50.000Z</time>
</trkpt>
<trkpt lat="46.1256980" lon="10.4799850">
	<ele>2746.60</ele>
	<time>2023-08-07T11:41:51.000Z</time>
</trkpt>
<trkpt lat="46.1256990" lon="10.4799850">
	<ele>2746.60</ele>
	<time>2023-08-07T11:41:52.000Z</time>
</trkpt>
<trkpt lat="46.1256990" lon="10.4799840">
	<ele>2746.60</ele>
	<time>2023-08-07T11:41:53.000Z</time>
</trkpt>
<trkpt lat="46.1257000" lon="10.4799830">
	<ele>2746.60</ele>
	<time>2023-08-07T11:41:54.000Z</time>
</trkpt>
<trkpt lat="46.1257000" lon="10.4799830">
	<ele>2746.40</ele>
	<time>2023-08-07T11:41:55.000Z</time>
</trkpt>
<trkpt lat="46.1257000" lon="10.4799820">
	<ele>2746.40</ele>
	<time>2023-08-07T11:41:56.000Z</time>
</trkpt>
<trkpt lat="46.1257000" lon="10.4799820">
	<ele>2746.40</ele>
	<time>2023-08-07T11:41:57.000Z</time>
</trkpt>
<trkpt lat="46.1257010" lon="10.4799820">
	<ele>2746.40</ele>
	<time>2023-08-07T11:41:58.000Z</time>
</trkpt>
<trkpt lat="46.1257010" lon="10.4799810">
	<ele>2746.20</ele>
	<time>2023-08-07T11:41:59.000Z</time>
</trkpt>
<trkpt lat="46.1257010" lon="10.4799810">
	<ele>2746.20</ele>
	<time>2023-08-07T11:42:00.000Z</time>
</trkpt>
<trkpt lat="46.1257020" lon="10.4799810">
	<ele>2746.20</ele>
	<time>2023-08-07T11:42:01.000Z</time>
</trkpt>
<trkpt lat="46.1257020" lon="10.4799800">
	<ele>2746.00</ele>
	<time>2023-08-07T11:42:02.000Z</time>
</trkpt>
<trkpt lat="46.1257020" lon="10.4799800">
	<ele>2746.00</ele>
	<time>2023-08-07T11:42:03.000Z</time>
</trkpt>
<trkpt lat="46.1257030" lon="10.4799800">
	<ele>2746.00</ele>
	<time>2023-08-07T11:42:04.000Z</time>
</trkpt>
<trkpt lat="46.1257030" lon="10.4799790">
	<ele>2746.00</ele>
	<time>2023-08-07T11:42:05.000Z</time>
</trkpt>
<trkpt lat="46.1257030" lon="10.4799790">
	<ele>2746.00</ele>
	<time>2023-08-07T11:42:06.000Z</time>
</trkpt>
<trkpt lat="46.1257030" lon="10.4799790">
	<ele>2746.00</ele>
	<time>2023-08-07T11:42:07.000Z</time>
</trkpt>
<trkpt lat="46.1257030" lon="10.4799780">
	<ele>2746.00</ele>
	<time>2023-08-07T11:42:08.000Z</time>
</trkpt>
<trkpt lat="46.1257040" lon="10.4799780">
	<ele>2746.00</ele>
	<time>2023-08-07T11:42:09.000Z</time>
</trkpt>
<trkpt lat="46.1257040" lon="10.4799780">
	<ele>2746.00</ele>
	<time>2023-08-07T11:42:10.000Z</time>
</trkpt>
<trkpt lat="46.1257040" lon="10.4799770">
	<ele>2746.20</ele>
	<time>2023-08-07T11:42:11.000Z</time>
</trkpt>
<trkpt lat="46.1257040" lon="10.4799770">
	<ele>2746.40</ele>
	<time>2023-08-07T11:42:12.000Z</time>
</trkpt>
<trkpt lat="46.1257050" lon="10.4799760">
	<ele>2746.40</ele>
	<time>2023-08-07T11:42:13.000Z</time>
</trkpt>
<trkpt lat="46.1257050" lon="10.4799760">
	<ele>2746.40</ele>
	<time>2023-08-07T11:42:14.000Z</time>
</trkpt>
<trkpt lat="46.1257050" lon="10.4799760">
	<ele>2746.40</ele>
	<time>2023-08-07T11:42:15.000Z</time>
</trkpt>
<trkpt lat="46.1257060" lon="10.4799750">
	<ele>2746.00</ele>
	<time>2023-08-07T11:42:16.000Z</time>
</trkpt>
<trkpt lat="46.1257060" lon="10.4799750">
	<ele>2745.80</ele>
	<time>2023-08-07T11:42:17.000Z</time>
</trkpt>
<trkpt lat="46.1257060" lon="10.4799750">
	<ele>2745.60</ele>
	<time>2023-08-07T11:42:18.000Z</time>
</trkpt>
<trkpt lat="46.1257060" lon="10.4799740">
	<ele>2745.40</ele>
	<time>2023-08-07T11:42:19.000Z</time>
</trkpt>
<trkpt lat="46.1257060" lon="10.4799740">
	<ele>2745.40</ele>
	<time>2023-08-07T11:42:20.000Z</time>
</trkpt>
<trkpt lat="46.1257060" lon="10.4799730">
	<ele>2745.20</ele>
	<time>2023-08-07T11:42:21.000Z</time>
</trkpt>
<trkpt lat="46.1257060" lon="10.4799730">
	<ele>2745.20</ele>
	<time>2023-08-07T11:42:22.000Z</time>
</trkpt>
<trkpt lat="46.1257070" lon="10.4799720">
	<ele>2745.20</ele>
	<time>2023-08-07T11:42:23.000Z</time>
</trkpt>
<trkpt lat="46.1257070" lon="10.4799720">
	<ele>2745.40</ele>
	<time>2023-08-07T11:42:24.000Z</time>
</trkpt>
<trkpt lat="46.1257070" lon="10.4799720">
	<ele>2745.40</ele>
	<time>2023-08-07T11:42:25.000Z</time>
</trkpt>
<trkpt lat="46.1257080" lon="10.4799710">
	<ele>2745.60</ele>
	<time>2023-08-07T11:42:26.000Z</time>
</trkpt>
<trkpt lat="46.1257080" lon="10.4799710">
	<ele>2745.60</ele>
	<time>2023-08-07T11:42:27.000Z</time>
</trkpt>
<trkpt lat="46.1257080" lon="10.4799710">
	<ele>2745.60</ele>
	<time>2023-08-07T11:42:28.000Z</time>
</trkpt>
<trkpt lat="46.1257080" lon="10.4799700">
	<ele>2745.60</ele>
	<time>2023-08-07T11:42:29.000Z</time>
</trkpt>
<trkpt lat="46.1257090" lon="10.4799700">
	<ele>2745.60</ele>
	<time>2023-08-07T11:42:30.000Z</time>
</trkpt>
<trkpt lat="46.1257090" lon="10.4799690">
	<ele>2745.60</ele>
	<time>2023-08-07T11:42:31.000Z</time>
</trkpt>
<trkpt lat="46.1257090" lon="10.4799690">
	<ele>2745.60</ele>
	<time>2023-08-07T11:42:32.000Z</time>
</trkpt>
<trkpt lat="46.1257090" lon="10.4799690">
	<ele>2745.60</ele>
	<time>2023-08-07T11:42:33.000Z</time>
</trkpt>
<trkpt lat="46.1257100" lon="10.4799680">
	<ele>2745.60</ele>
	<time>2023-08-07T11:42:34.000Z</time>
</trkpt>
<trkpt lat="46.1257100" lon="10.4799680">
	<ele>2745.80</ele>
	<time>2023-08-07T11:42:35.000Z</time>
</trkpt>
<trkpt lat="46.1257100" lon="10.4799680">
	<ele>2746.00</ele>
	<time>2023-08-07T11:42:36.000Z</time>
</trkpt>
<trkpt lat="46.1257100" lon="10.4799680">
	<ele>2746.20</ele>
	<time>2023-08-07T11:42:37.000Z</time>
</trkpt>
<trkpt lat="46.1257100" lon="10.4799670">
	<ele>2746.40</ele>
	<time>2023-08-07T11:42:38.000Z</time>
</trkpt>
<trkpt lat="46.1257100" lon="10.4799670">
	<ele>2746.40</ele>
	<time>2023-08-07T11:42:39.000Z</time>
</trkpt>
<trkpt lat="46.1257110" lon="10.4799660">
	<ele>2746.60</ele>
	<time>2023-08-07T11:42:40.000Z</time>
</trkpt>
<trkpt lat="46.1257110" lon="10.4799660">
	<ele>2746.60</ele>
	<time>2023-08-07T11:42:41.000Z</time>
</trkpt>
<trkpt lat="46.1257110" lon="10.4799660">
	<ele>2746.60</ele>
	<time>2023-08-07T11:42:42.000Z</time>
</trkpt>
<trkpt lat="46.1257110" lon="10.4799650">
	<ele>2747.00</ele>
	<time>2023-08-07T11:42:43.000Z</time>
</trkpt>
<trkpt lat="46.1257110" lon="10.4799650">
	<ele>2747.20</ele>
	<time>2023-08-07T11:42:44.000Z</time>
</trkpt>
<trkpt lat="46.1257120" lon="10.4799640">
	<ele>2747.40</ele>
	<time>2023-08-07T11:42:45.000Z</time>
</trkpt>
<trkpt lat="46.1257120" lon="10.4799640">
	<ele>2747.60</ele>
	<time>2023-08-07T11:42:46.000Z</time>
</trkpt>
<trkpt lat="46.1257120" lon="10.4799640">
	<ele>2747.60</ele>
	<time>2023-08-07T11:42:47.000Z</time>
</trkpt>
<trkpt lat="46.1257130" lon="10.4799630">
	<ele>2747.80</ele>
	<time>2023-08-07T11:42:48.000Z</time>
</trkpt>
<trkpt lat="46.1257130" lon="10.4799630">
	<ele>2748.20</ele>
	<time>2023-08-07T11:42:49.000Z</time>
</trkpt>
<trkpt lat="46.1257130" lon="10.4799620">
	<ele>2748.40</ele>
	<time>2023-08-07T11:42:50.000Z</time>
</trkpt>
<trkpt lat="46.1257130" lon="10.4799620">
	<ele>2748.60</ele>
	<time>2023-08-07T11:42:51.000Z</time>
</trkpt>
<trkpt lat="46.1257140" lon="10.4799620">
	<ele>2748.80</ele>
	<time>2023-08-07T11:42:52.000Z</time>
</trkpt>
<trkpt lat="46.1257140" lon="10.4799610">
	<ele>2748.80</ele>
	<time>2023-08-07T11:42:53.000Z</time>
</trkpt>
<trkpt lat="46.1257140" lon="10.4799610">
	<ele>2749.00</ele>
	<time>2023-08-07T11:42:54.000Z</time>
</trkpt>
<trkpt lat="46.1257140" lon="10.4799600">
	<ele>2749.40</ele>
	<time>2023-08-07T11:42:55.000Z</time>
</trkpt>
<trkpt lat="46.1257150" lon="10.4799600">
	<ele>2749.40</ele>
	<time>2023-08-07T11:42:56.000Z</time>
</trkpt>
<trkpt lat="46.1257150" lon="10.4799600">
	<ele>2749.60</ele>
	<time>2023-08-07T11:42:57.000Z</time>
</trkpt>
<trkpt lat="46.1257150" lon="10.4799600">
	<ele>2749.80</ele>
	<time>2023-08-07T11:42:58.000Z</time>
</trkpt>
<trkpt lat="46.1257150" lon="10.4799590">
	<ele>2749.80</ele>
	<time>2023-08-07T11:42:59.000Z</time>
</trkpt>
<trkpt lat="46.1257160" lon="10.4799590">
	<ele>2749.80</ele>
	<time>2023-08-07T11:43:00.000Z</time>
</trkpt>
<trkpt lat="46.1257160" lon="10.4799580">
	<ele>2750.00</ele>
	<time>2023-08-07T11:43:01.000Z</time>
</trkpt>
<trkpt lat="46.1257160" lon="10.4799580">
	<ele>2750.00</ele>
	<time>2023-08-07T11:43:02.000Z</time>
</trkpt>
<trkpt lat="46.1257170" lon="10.4799570">
	<ele>2750.20</ele>
	<time>2023-08-07T11:43:03.000Z</time>
</trkpt>
<trkpt lat="46.1257170" lon="10.4799570">
	<ele>2750.20</ele>
	<time>2023-08-07T11:43:04.000Z</time>
</trkpt>
<trkpt lat="46.1257170" lon="10.4799560">
	<ele>2750.20</ele>
	<time>2023-08-07T11:43:05.000Z</time>
</trkpt>
<trkpt lat="46.1257180" lon="10.4799560">
	<ele>2750.40</ele>
	<time>2023-08-07T11:43:06.000Z</time>
</trkpt>
<trkpt lat="46.1257180" lon="10.4799560">
	<ele>2750.60</ele>
	<time>2023-08-07T11:43:07.000Z</time>
</trkpt>
<trkpt lat="46.1257180" lon="10.4799560">
	<ele>2750.80</ele>
	<time>2023-08-07T11:43:08.000Z</time>
</trkpt>
<trkpt lat="46.1257190" lon="10.4799550">
	<ele>2750.80</ele>
	<time>2023-08-07T11:43:09.000Z</time>
</trkpt>
<trkpt lat="46.1257190" lon="10.4799550">
	<ele>2751.00</ele>
	<time>2023-08-07T11:43:10.000Z</time>
</trkpt>
<trkpt lat="46.1257430" lon="10.4799260">
	<ele>2751.00</ele>
	<time>2023-08-07T11:43:11.000Z</time>
</trkpt>
<trkpt lat="46.1257670" lon="10.4798970">
	<ele>2751.00</ele>
	<time>2023-08-07T11:43:12.000Z</time>
</trkpt>
<trkpt lat="46.1257930" lon="10.4798660">
	<ele>2751.20</ele>
	<time>2023-08-07T11:43:13.000Z</time>
</trkpt>
<trkpt lat="46.1258180" lon="10.4798340">
	<ele>2751.20</ele>
	<time>2023-08-07T11:43:14.000Z</time>
</trkpt>
<trkpt lat="46.1258430" lon="10.4798000">
	<ele>2751.20</ele>
	<time>2023-08-07T11:43:15.000Z</time>
</trkpt>
<trkpt lat="46.1258680" lon="10.4797700">
	<ele>2751.40</ele>
	<time>2023-08-07T11:43:16.000Z</time>
</trkpt>
<trkpt lat="46.1258950" lon="10.4797410">
	<ele>2751.80</ele>
	<time>2023-08-07T11:43:17.000Z</time>
</trkpt>
<trkpt lat="46.1259220" lon="10.4797110">
	<ele>2752.00</ele>
	<time>2023-08-07T11:43:18.000Z</time>
</trkpt>
<trkpt lat="46.1259480" lon="10.4796810">
	<ele>2752.20</ele>
	<time>2023-08-07T11:43:19.000Z</time>
</trkpt>
<trkpt lat="46.1259740" lon="10.4796480">
	<ele>2752.40</ele>
	<time>2023-08-07T11:43:20.000Z</time>
</trkpt>
<trkpt lat="46.1259760" lon="10.4796450">
	<ele>2752.60</ele>
	<time>2023-08-07T11:43:21.000Z</time>
</trkpt>
<trkpt lat="46.1259760" lon="10.4796400">
	<ele>2752.60</ele>
	<time>2023-08-07T11:43:22.000Z</time>
</trkpt>
<trkpt lat="46.1259760" lon="10.4796350">
	<ele>2752.80</ele>
	<time>2023-08-07T11:43:23.000Z</time>
</trkpt>
<trkpt lat="46.1259710" lon="10.4796290">
	<ele>2752.80</ele>
	<time>2023-08-07T11:43:24.000Z</time>
</trkpt>
<trkpt lat="46.1259710" lon="10.4796230">
	<ele>2753.00</ele>
	<time>2023-08-07T11:43:25.000Z</time>
</trkpt>
<trkpt lat="46.1259700" lon="10.4796200">
	<ele>2753.00</ele>
	<time>2023-08-07T11:43:26.000Z</time>
</trkpt>
<trkpt lat="46.1259720" lon="10.4796160">
	<ele>2753.40</ele>
	<time>2023-08-07T11:43:27.000Z</time>
</trkpt>
<trkpt lat="46.1259750" lon="10.4796120">
	<ele>2753.80</ele>
	<time>2023-08-07T11:43:28.000Z</time>
</trkpt>
<trkpt lat="46.1259770" lon="10.4796050">
	<ele>2754.00</ele>
	<time>2023-08-07T11:43:29.000Z</time>
</trkpt>
<trkpt lat="46.1259800" lon="10.4796040">
	<ele>2754.40</ele>
	<time>2023-08-07T11:43:30.000Z</time>
</trkpt>
<trkpt lat="46.1259830" lon="10.4796030">
	<ele>2754.60</ele>
	<time>2023-08-07T11:43:31.000Z</time>
</trkpt>
<trkpt lat="46.1259840" lon="10.4796040">
	<ele>2754.80</ele>
	<time>2023-08-07T11:43:32.000Z</time>
</trkpt>
<trkpt lat="46.1259830" lon="10.4796120">
	<ele>2755.40</ele>
	<time>2023-08-07T11:43:33.000Z</time>
</trkpt>
<trkpt lat="46.1259820" lon="10.4796210">
	<ele>2755.60</ele>
	<time>2023-08-07T11:43:34.000Z</time>
</trkpt>
<trkpt lat="46.1259850" lon="10.4796250">
	<ele>2756.00</ele>
	<time>2023-08-07T11:43:35.000Z</time>
</trkpt>
<trkpt lat="46.1259870" lon="10.4796240">
	<ele>2756.20</ele>
	<time>2023-08-07T11:43:36.000Z</time>
</trkpt>
<trkpt lat="46.1259890" lon="10.4796230">
	<ele>2756.60</ele>
	<time>2023-08-07T11:43:37.000Z</time>
</trkpt>
<trkpt lat="46.1259900" lon="10.4796220">
	<ele>2756.80</ele>
	<time>2023-08-07T11:43:38.000Z</time>
</trkpt>
<trkpt lat="46.1259910" lon="10.4796190">
	<ele>2756.80</ele>
	<time>2023-08-07T11:43:39.000Z</time>
</trkpt>
<trkpt lat="46.1259930" lon="10.4796170">
	<ele>2757.00</ele>
	<time>2023-08-07T11:43:40.000Z</time>
</trkpt>
<trkpt lat="46.1259920" lon="10.4796150">
	<ele>2757.00</ele>
	<time>2023-08-07T11:43:41.000Z</time>
</trkpt>
<trkpt lat="46.1259920" lon="10.4796150">
	<ele>2757.00</ele>
	<time>2023-08-07T11:43:42.000Z</time>
</trkpt>
<trkpt lat="46.1259920" lon="10.4796150">
	<ele>2757.00</ele>
	<time>2023-08-07T11:43:43.000Z</time>
</trkpt>
<trkpt lat="46.1259920" lon="10.4796150">
	<ele>2757.20</ele>
	<time>2023-08-07T11:43:44.000Z</time>
</trkpt>
<trkpt lat="46.1259920" lon="10.4796150">
	<ele>2757.40</ele>
	<time>2023-08-07T11:43:45.000Z</time>
</trkpt>
<trkpt lat="46.1259920" lon="10.4796150">
	<ele>2757.40</ele>
	<time>2023-08-07T11:43:46.000Z</time>
</trkpt>
<trkpt lat="46.1259920" lon="10.4796150">
	<ele>2757.60</ele>
	<time>2023-08-07T11:43:47.000Z</time>
</trkpt>
<trkpt lat="46.1259920" lon="10.4796150">
	<ele>2757.60</ele>
	<time>2023-08-07T11:43:48.000Z</time>
</trkpt>
<trkpt lat="46.1259920" lon="10.4796150">
	<ele>2757.60</ele>
	<time>2023-08-07T11:43:49.000Z</time>
</trkpt>
<trkpt lat="46.1259920" lon="10.4796150">
	<ele>2757.60</ele>
	<time>2023-08-07T11:43:50.000Z</time>
</trkpt>
<trkpt lat="46.1259920" lon="10.4796150">
	<ele>2757.60</ele>
	<time>2023-08-07T11:43:51.000Z</time>
</trkpt>
<trkpt lat="46.1259920" lon="10.4796170">
	<ele>2757.40</ele>
	<time>2023-08-07T11:43:52.000Z</time>
</trkpt>
<trkpt lat="46.1259920" lon="10.4796170">
	<ele>2757.00</ele>
	<time>2023-08-07T11:43:53.000Z</time>
</trkpt>
<trkpt lat="46.1259920" lon="10.4796170">
	<ele>2756.80</ele>
	<time>2023-08-07T11:43:54.000Z</time>
</trkpt>
<trkpt lat="46.1259920" lon="10.4796170">
	<ele>2756.60</ele>
	<time>2023-08-07T11:43:55.000Z</time>
</trkpt>
<trkpt lat="46.1259920" lon="10.4796170">
	<ele>2756.60</ele>
	<time>2023-08-07T11:43:56.000Z</time>
</trkpt>
<trkpt lat="46.1259930" lon="10.4796170">
	<ele>2756.60</ele>
	<time>2023-08-07T11:43:57.000Z</time>
</trkpt>
<trkpt lat="46.1259930" lon="10.4796180">
	<ele>2756.60</ele>
	<time>2023-08-07T11:43:58.000Z</time>
</trkpt>
<trkpt lat="46.1259960" lon="10.4796180">
	<ele>2756.60</ele>
	<time>2023-08-07T11:43:59.000Z</time>
</trkpt>
<trkpt lat="46.1259970" lon="10.4796190">
	<ele>2756.40</ele>
	<time>2023-08-07T11:44:00.000Z</time>
</trkpt>
<trkpt lat="46.1259970" lon="10.4796190">
	<ele>2756.60</ele>
	<time>2023-08-07T11:44:01.000Z</time>
</trkpt>
<trkpt lat="46.1259980" lon="10.4796190">
	<ele>2756.80</ele>
	<time>2023-08-07T11:44:02.000Z</time>
</trkpt>
<trkpt lat="46.1259990" lon="10.4796200">
	<ele>2757.00</ele>
	<time>2023-08-07T11:44:03.000Z</time>
</trkpt>
<trkpt lat="46.1260000" lon="10.4796200">
	<ele>2757.20</ele>
	<time>2023-08-07T11:44:04.000Z</time>
</trkpt>
<trkpt lat="46.1260000" lon="10.4796200">
	<ele>2757.40</ele>
	<time>2023-08-07T11:44:05.000Z</time>
</trkpt>
<trkpt lat="46.1260010" lon="10.4796200">
	<ele>2757.60</ele>
	<time>2023-08-07T11:44:06.000Z</time>
</trkpt>
<trkpt lat="46.1260030" lon="10.4796200">
	<ele>2757.80</ele>
	<time>2023-08-07T11:44:07.000Z</time>
</trkpt>
<trkpt lat="46.1260030" lon="10.4796200">
	<ele>2757.80</ele>
	<time>2023-08-07T11:44:08.000Z</time>
</trkpt>
<trkpt lat="46.1260040" lon="10.4796200">
	<ele>2758.00</ele>
	<time>2023-08-07T11:44:09.000Z</time>
</trkpt>
<trkpt lat="46.1260040" lon="10.4796210">
	<ele>2758.00</ele>
	<time>2023-08-07T11:44:10.000Z</time>
</trkpt>
<trkpt lat="46.1260040" lon="10.4796220">
	<ele>2758.20</ele>
	<time>2023-08-07T11:44:11.000Z</time>
</trkpt>
<trkpt lat="46.1260040" lon="10.4796240">
	<ele>2758.40</ele>
	<time>2023-08-07T11:44:12.000Z</time>
</trkpt>
<trkpt lat="46.1260070" lon="10.4796270">
	<ele>2758.40</ele>
	<time>2023-08-07T11:44:13.000Z</time>
</trkpt>
<trkpt lat="46.1260070" lon="10.4796290">
	<ele>2758.60</ele>
	<time>2023-08-07T11:44:14.000Z</time>
</trkpt>
<trkpt lat="46.1260080" lon="10.4796320">
	<ele>2758.60</ele>
	<time>2023-08-07T11:44:15.000Z</time>
</trkpt>
<trkpt lat="46.1260100" lon="10.4796330">
	<ele>2758.80</ele>
	<time>2023-08-07T11:44:16.000Z</time>
</trkpt>
<trkpt lat="46.1260120" lon="10.4796330">
	<ele>2758.80</ele>
	<time>2023-08-07T11:44:17.000Z</time>
</trkpt>
<trkpt lat="46.1260150" lon="10.4796350">
	<ele>2758.80</ele>
	<time>2023-08-07T11:44:18.000Z</time>
</trkpt>
<trkpt lat="46.1260180" lon="10.4796360">
	<ele>2759.00</ele>
	<time>2023-08-07T11:44:19.000Z</time>
</trkpt>
<trkpt lat="46.1260200" lon="10.4796360">
	<ele>2759.00</ele>
	<time>2023-08-07T11:44:20.000Z</time>
</trkpt>
<trkpt lat="46.1260200" lon="10.4796360">
	<ele>2759.40</ele>
	<time>2023-08-07T11:44:21.000Z</time>
</trkpt>
<trkpt lat="46.1260210" lon="10.4796360">
	<ele>2759.80</ele>
	<time>2023-08-07T11:44:22.000Z</time>
</trkpt>
<trkpt lat="46.1260210" lon="10.4796360">
	<ele>2760.00</ele>
	<time>2023-08-07T11:44:23.000Z</time>
</trkpt>
<trkpt lat="46.1260230" lon="10.4796360">
	<ele>2760.20</ele>
	<time>2023-08-07T11:44:24.000Z</time>
</trkpt>
<trkpt lat="46.1260240" lon="10.4796360">
	<ele>2760.40</ele>
	<time>2023-08-07T11:44:25.000Z</time>
</trkpt>
<trkpt lat="46.1260250" lon="10.4796370">
	<ele>2760.60</ele>
	<time>2023-08-07T11:44:26.000Z</time>
</trkpt>
<trkpt lat="46.1260250" lon="10.4796380">
	<ele>2760.60</ele>
	<time>2023-08-07T11:44:27.000Z</time>
</trkpt>
<trkpt lat="46.1260250" lon="10.4796380">
	<ele>2760.80</ele>
	<time>2023-08-07T11:44:28.000Z</time>
</trkpt>
<trkpt lat="46.1260260" lon="10.4796380">
	<ele>2760.80</ele>
	<time>2023-08-07T11:44:29.000Z</time>
</trkpt>
<trkpt lat="46.1260270" lon="10.4796380">
	<ele>2760.80</ele>
	<time>2023-08-07T11:44:30.000Z</time>
</trkpt>
<trkpt lat="46.1260270" lon="10.4796380">
	<ele>2760.80</ele>
	<time>2023-08-07T11:44:31.000Z</time>
</trkpt>
<trkpt lat="46.1260270" lon="10.4796390">
	<ele>2760.80</ele>
	<time>2023-08-07T11:44:32.000Z</time>
</trkpt>
<trkpt lat="46.1260270" lon="10.4796400">
	<ele>2761.00</ele>
	<time>2023-08-07T11:44:33.000Z</time>
</trkpt>
<trkpt lat="46.1260270" lon="10.4796400">
	<ele>2761.20</ele>
	<time>2023-08-07T11:44:34.000Z</time>
</trkpt>
<trkpt lat="46.1260280" lon="10.4796410">
	<ele>2761.40</ele>
	<time>2023-08-07T11:44:35.000Z</time>
</trkpt>
<trkpt lat="46.1260300" lon="10.4796410">
	<ele>2761.40</ele>
	<time>2023-08-07T11:44:36.000Z</time>
</trkpt>
<trkpt lat="46.1260320" lon="10.4796420">
	<ele>2761.60</ele>
	<time>2023-08-07T11:44:37.000Z</time>
</trkpt>
<trkpt lat="46.1260350" lon="10.4796420">
	<ele>2761.60</ele>
	<time>2023-08-07T11:44:38.000Z</time>
</trkpt>
<trkpt lat="46.1260370" lon="10.4796420">
	<ele>2761.60</ele>
	<time>2023-08-07T11:44:39.000Z</time>
</trkpt>
<trkpt lat="46.1260400" lon="10.4796420">
	<ele>2761.60</ele>
	<time>2023-08-07T11:44:40.000Z</time>
</trkpt>
<trkpt lat="46.1260420" lon="10.4796430">
	<ele>2761.60</ele>
	<time>2023-08-07T11:44:41.000Z</time>
</trkpt>
<trkpt lat="46.1260450" lon="10.4796430">
	<ele>2761.60</ele>
	<time>2023-08-07T11:44:42.000Z</time>
</trkpt>
<trkpt lat="46.1260470" lon="10.4796430">
	<ele>2761.60</ele>
	<time>2023-08-07T11:44:43.000Z</time>
</trkpt>
<trkpt lat="46.1260480" lon="10.4796450">
	<ele>2761.60</ele>
	<time>2023-08-07T11:44:44.000Z</time>
</trkpt>
<trkpt lat="46.1260480" lon="10.4796480">
	<ele>2761.60</ele>
	<time>2023-08-07T11:44:45.000Z</time>
</trkpt>
<trkpt lat="46.1260490" lon="10.4796500">
	<ele>2761.60</ele>
	<time>2023-08-07T11:44:46.000Z</time>
</trkpt>
<trkpt lat="46.1260490" lon="10.4796510">
	<ele>2761.60</ele>
	<time>2023-08-07T11:44:47.000Z</time>
</trkpt>
<trkpt lat="46.1260490" lon="10.4796510">
	<ele>2761.60</ele>
	<time>2023-08-07T11:44:48.000Z</time>
</trkpt>
<trkpt lat="46.1260490" lon="10.4796520">
	<ele>2761.80</ele>
	<time>2023-08-07T11:44:49.000Z</time>
</trkpt>
<trkpt lat="46.1260490" lon="10.4796530">
	<ele>2761.80</ele>
	<time>2023-08-07T11:44:50.000Z</time>
</trkpt>
<trkpt lat="46.1260490" lon="10.4796530">
	<ele>2761.80</ele>
	<time>2023-08-07T11:44:51.000Z</time>
</trkpt>
<trkpt lat="46.1260490" lon="10.4796530">
	<ele>2762.00</ele>
	<time>2023-08-07T11:44:52.000Z</time>
</trkpt>
<trkpt lat="46.1260490" lon="10.4796540">
	<ele>2762.00</ele>
	<time>2023-08-07T11:44:53.000Z</time>
</trkpt>
<trkpt lat="46.1260490" lon="10.4796540">
	<ele>2762.00</ele>
	<time>2023-08-07T11:44:54.000Z</time>
</trkpt>
<trkpt lat="46.1260490" lon="10.4796540">
	<ele>2762.20</ele>
	<time>2023-08-07T11:44:55.000Z</time>
</trkpt>
<trkpt lat="46.1260490" lon="10.4796540">
	<ele>2762.20</ele>
	<time>2023-08-07T11:44:56.000Z</time>
</trkpt>
<trkpt lat="46.1260490" lon="10.4796540">
	<ele>2762.40</ele>
	<time>2023-08-07T11:44:57.000Z</time>
</trkpt>
<trkpt lat="46.1260490" lon="10.4796540">
	<ele>2762.40</ele>
	<time>2023-08-07T11:44:58.000Z</time>
</trkpt>
<trkpt lat="46.1260490" lon="10.4796540">
	<ele>2762.40</ele>
	<time>2023-08-07T11:44:59.000Z</time>
</trkpt>
<trkpt lat="46.1260490" lon="10.4796540">
	<ele>2762.40</ele>
	<time>2023-08-07T11:45:00.000Z</time>
</trkpt>
<trkpt lat="46.1260490" lon="10.4796540">
	<ele>2762.20</ele>
	<time>2023-08-07T11:45:01.000Z</time>
</trkpt>
<trkpt lat="46.1260480" lon="10.4796540">
	<ele>2761.80</ele>
	<time>2023-08-07T11:45:02.000Z</time>
</trkpt>
<trkpt lat="46.1260470" lon="10.4796540">
	<ele>2761.80</ele>
	<time>2023-08-07T11:45:03.000Z</time>
</trkpt>
<trkpt lat="46.1260430" lon="10.4796530">
	<ele>2761.60</ele>
	<time>2023-08-07T11:45:04.000Z</time>
</trkpt>
<trkpt lat="46.1260400" lon="10.4796530">
	<ele>2761.80</ele>
	<time>2023-08-07T11:45:05.000Z</time>
</trkpt>
<trkpt lat="46.1260390" lon="10.4796530">
	<ele>2761.80</ele>
	<time>2023-08-07T11:45:06.000Z</time>
</trkpt>
<trkpt lat="46.1260380" lon="10.4796520">
	<ele>2761.80</ele>
	<time>2023-08-07T11:45:07.000Z</time>
</trkpt>
<trkpt lat="46.1260370" lon="10.4796520">
	<ele>2761.80</ele>
	<time>2023-08-07T11:45:08.000Z</time>
</trkpt>
<trkpt lat="46.1260360" lon="10.4796520">
	<ele>2762.00</ele>
	<time>2023-08-07T11:45:09.000Z</time>
</trkpt>
<trkpt lat="46.1260350" lon="10.4796510">
	<ele>2762.20</ele>
	<time>2023-08-07T11:45:10.000Z</time>
</trkpt>
<trkpt lat="46.1260340" lon="10.4796510">
	<ele>2762.20</ele>
	<time>2023-08-07T11:45:11.000Z</time>
</trkpt>
<trkpt lat="46.1260340" lon="10.4796510">
	<ele>2762.40</ele>
	<time>2023-08-07T11:45:12.000Z</time>
</trkpt>
<trkpt lat="46.1260330" lon="10.4796510">
	<ele>2762.40</ele>
	<time>2023-08-07T11:45:13.000Z</time>
</trkpt>
<trkpt lat="46.1260330" lon="10.4796510">
	<ele>2762.40</ele>
	<time>2023-08-07T11:45:14.000Z</time>
</trkpt>
<trkpt lat="46.1260320" lon="10.4796500">
	<ele>2762.40</ele>
	<time>2023-08-07T11:45:15.000Z</time>
</trkpt>
<trkpt lat="46.1260320" lon="10.4796500">
	<ele>2762.00</ele>
	<time>2023-08-07T11:45:16.000Z</time>
</trkpt>
<trkpt lat="46.1260320" lon="10.4796490">
	<ele>2761.80</ele>
	<time>2023-08-07T11:45:17.000Z</time>
</trkpt>
<trkpt lat="46.1260310" lon="10.4796490">
	<ele>2761.60</ele>
	<time>2023-08-07T11:45:18.000Z</time>
</trkpt>
<trkpt lat="46.1260300" lon="10.4796480">
	<ele>2761.60</ele>
	<time>2023-08-07T11:45:19.000Z</time>
</trkpt>
<trkpt lat="46.1260290" lon="10.4796470">
	<ele>2761.60</ele>
	<time>2023-08-07T11:45:20.000Z</time>
</trkpt>
<trkpt lat="46.1260280" lon="10.4796470">
	<ele>2762.00</ele>
	<time>2023-08-07T11:45:21.000Z</time>
</trkpt>
<trkpt lat="46.1260270" lon="10.4796470">
	<ele>2762.20</ele>
	<time>2023-08-07T11:45:22.000Z</time>
</trkpt>
<trkpt lat="46.1260270" lon="10.4796480">
	<ele>2762.20</ele>
	<time>2023-08-07T11:45:23.000Z</time>
</trkpt>
<trkpt lat="46.1260270" lon="10.4796480">
	<ele>2762.20</ele>
	<time>2023-08-07T11:45:24.000Z</time>
</trkpt>
<trkpt lat="46.1260270" lon="10.4796480">
	<ele>2762.20</ele>
	<time>2023-08-07T11:45:25.000Z</time>
</trkpt>
<trkpt lat="46.1260270" lon="10.4796480">
	<ele>2762.20</ele>
	<time>2023-08-07T11:45:26.000Z</time>
</trkpt>
<trkpt lat="46.1260270" lon="10.4796490">
	<ele>2762.20</ele>
	<time>2023-08-07T11:45:27.000Z</time>
</trkpt>
<trkpt lat="46.1260270" lon="10.4796500">
	<ele>2762.20</ele>
	<time>2023-08-07T11:45:28.000Z</time>
</trkpt>
<trkpt lat="46.1260270" lon="10.4796500">
	<ele>2762.20</ele>
	<time>2023-08-07T11:45:29.000Z</time>
</trkpt>
<trkpt lat="46.1260270" lon="10.4796500">
	<ele>2762.20</ele>
	<time>2023-08-07T11:45:30.000Z</time>
</trkpt>
<trkpt lat="46.1260270" lon="10.4796500">
	<ele>2762.20</ele>
	<time>2023-08-07T11:45:31.000Z</time>
</trkpt>
<trkpt lat="46.1260270" lon="10.4796500">
	<ele>2762.20</ele>
	<time>2023-08-07T11:45:32.000Z</time>
</trkpt>
<trkpt lat="46.1260270" lon="10.4796500">
	<ele>2762.40</ele>
	<time>2023-08-07T11:45:33.000Z</time>
</trkpt>
<trkpt lat="46.1260270" lon="10.4796490">
	<ele>2762.60</ele>
	<time>2023-08-07T11:45:34.000Z</time>
</trkpt>
<trkpt lat="46.1260270" lon="10.4796490">
	<ele>2762.80</ele>
	<time>2023-08-07T11:45:35.000Z</time>
</trkpt>
<trkpt lat="46.1260270" lon="10.4796490">
	<ele>2763.00</ele>
	<time>2023-08-07T11:45:36.000Z</time>
</trkpt>
<trkpt lat="46.1260280" lon="10.4796480">
	<ele>2763.20</ele>
	<time>2023-08-07T11:45:37.000Z</time>
</trkpt>
<trkpt lat="46.1260300" lon="10.4796480">
	<ele>2763.80</ele>
	<time>2023-08-07T11:45:38.000Z</time>
</trkpt>
<trkpt lat="46.1260330" lon="10.4796480">
	<ele>2764.00</ele>
	<time>2023-08-07T11:45:39.000Z</time>
</trkpt>
<trkpt lat="46.1260350" lon="10.4796470">
	<ele>2764.20</ele>
	<time>2023-08-07T11:45:40.000Z</time>
</trkpt>
<trkpt lat="46.1260380" lon="10.4796470">
	<ele>2764.40</ele>
	<time>2023-08-07T11:45:41.000Z</time>
</trkpt>
<trkpt lat="46.1260400" lon="10.4796470">
	<ele>2764.60</ele>
	<time>2023-08-07T11:45:42.000Z</time>
</trkpt>
<trkpt lat="46.1260430" lon="10.4796470">
	<ele>2764.60</ele>
	<time>2023-08-07T11:45:43.000Z</time>
</trkpt>
<trkpt lat="46.1260440" lon="10.4796470">
	<ele>2764.80</ele>
	<time>2023-08-07T11:45:44.000Z</time>
</trkpt>
<trkpt lat="46.1260460" lon="10.4796470">
	<ele>2765.00</ele>
	<time>2023-08-07T11:45:45.000Z</time>
</trkpt>
<trkpt lat="46.1260460" lon="10.4796470">
	<ele>2765.20</ele>
	<time>2023-08-07T11:45:46.000Z</time>
</trkpt>
<trkpt lat="46.1260470" lon="10.4796460">
	<ele>2765.40</ele>
	<time>2023-08-07T11:45:47.000Z</time>
</trkpt>
<trkpt lat="46.1260470" lon="10.4796460">
	<ele>2765.60</ele>
	<time>2023-08-07T11:45:48.000Z</time>
</trkpt>
<trkpt lat="46.1260490" lon="10.4796460">
	<ele>2765.80</ele>
	<time>2023-08-07T11:45:49.000Z</time>
</trkpt>
<trkpt lat="46.1260500" lon="10.4796450">
	<ele>2765.80</ele>
	<time>2023-08-07T11:45:50.000Z</time>
</trkpt>
<trkpt lat="46.1260510" lon="10.4796440">
	<ele>2766.00</ele>
	<time>2023-08-07T11:45:51.000Z</time>
</trkpt>
<trkpt lat="46.1260530" lon="10.4796430">
	<ele>2766.00</ele>
	<time>2023-08-07T11:45:52.000Z</time>
</trkpt>
<trkpt lat="46.1260540" lon="10.4796420">
	<ele>2766.00</ele>
	<time>2023-08-07T11:45:53.000Z</time>
</trkpt>
<trkpt lat="46.1260560" lon="10.4796420">
	<ele>2766.00</ele>
	<time>2023-08-07T11:45:54.000Z</time>
</trkpt>
<trkpt lat="46.1260590" lon="10.4796410">
	<ele>2766.20</ele>
	<time>2023-08-07T11:45:55.000Z</time>
</trkpt>
<trkpt lat="46.1260620" lon="10.4796400">
	<ele>2766.20</ele>
	<time>2023-08-07T11:45:56.000Z</time>
</trkpt>
<trkpt lat="46.1260650" lon="10.4796390">
	<ele>2766.60</ele>
	<time>2023-08-07T11:45:57.000Z</time>
</trkpt>
<trkpt lat="46.1260680" lon="10.4796370">
	<ele>2766.80</ele>
	<time>2023-08-07T11:45:58.000Z</time>
</trkpt>
<trkpt lat="46.1260700" lon="10.4796360">
	<ele>2767.00</ele>
	<time>2023-08-07T11:45:59.000Z</time>
</trkpt>
<trkpt lat="46.1260720" lon="10.4796340">
	<ele>2767.20</ele>
	<time>2023-08-07T11:46:00.000Z</time>
</trkpt>
<trkpt lat="46.1260740" lon="10.4796330">
	<ele>2767.20</ele>
	<time>2023-08-07T11:46:01.000Z</time>
</trkpt>
<trkpt lat="46.1260770" lon="10.4796320">
	<ele>2767.40</ele>
	<time>2023-08-07T11:46:02.000Z</time>
</trkpt>
<trkpt lat="46.1260800" lon="10.4796310">
	<ele>2767.60</ele>
	<time>2023-08-07T11:46:03.000Z</time>
</trkpt>
<trkpt lat="46.1260820" lon="10.4796310">
	<ele>2767.80</ele>
	<time>2023-08-07T11:46:04.000Z</time>
</trkpt>
<trkpt lat="46.1260840" lon="10.4796300">
	<ele>2767.80</ele>
	<time>2023-08-07T11:46:05.000Z</time>
</trkpt>
<trkpt lat="46.1260850" lon="10.4796300">
	<ele>2768.00</ele>
	<time>2023-08-07T11:46:06.000Z</time>
</trkpt>
<trkpt lat="46.1260870" lon="10.4796300">
	<ele>2768.20</ele>
	<time>2023-08-07T11:46:07.000Z</time>
</trkpt>
<trkpt lat="46.1260880" lon="10.4796300">
	<ele>2768.40</ele>
	<time>2023-08-07T11:46:08.000Z</time>
</trkpt>
<trkpt lat="46.1260900" lon="10.4796300">
	<ele>2768.40</ele>
	<time>2023-08-07T11:46:09.000Z</time>
</trkpt>
<trkpt lat="46.1260920" lon="10.4796300">
	<ele>2768.60</ele>
	<time>2023-08-07T11:46:10.000Z</time>
</trkpt>
<trkpt lat="46.1260940" lon="10.4796290">
	<ele>2768.80</ele>
	<time>2023-08-07T11:46:11.000Z</time>
</trkpt>
<trkpt lat="46.1260960" lon="10.4796290">
	<ele>2769.00</ele>
	<time>2023-08-07T11:46:12.000Z</time>
</trkpt>
<trkpt lat="46.1260980" lon="10.4796290">
	<ele>2769.20</ele>
	<time>2023-08-07T11:46:13.000Z</time>
</trkpt>
<trkpt lat="46.1261010" lon="10.4796290">
	<ele>2769.20</ele>
	<time>2023-08-07T11:46:14.000Z</time>
</trkpt>
<trkpt lat="46.1261030" lon="10.4796290">
	<ele>2769.20</ele>
	<time>2023-08-07T11:46:15.000Z</time>
</trkpt>
<trkpt lat="46.1261060" lon="10.4796280">
	<ele>2769.40</ele>
	<time>2023-08-07T11:46:16.000Z</time>
</trkpt>
<trkpt lat="46.1261080" lon="10.4796280">
	<ele>2769.40</ele>
	<time>2023-08-07T11:46:17.000Z</time>
</trkpt>
<trkpt lat="46.1261100" lon="10.4796280">
	<ele>2769.40</ele>
	<time>2023-08-07T11:46:18.000Z</time>
</trkpt>
<trkpt lat="46.1261110" lon="10.4796270">
	<ele>2769.40</ele>
	<time>2023-08-07T11:46:19.000Z</time>
</trkpt>
<trkpt lat="46.1261130" lon="10.4796270">
	<ele>2769.40</ele>
	<time>2023-08-07T11:46:20.000Z</time>
</trkpt>
<trkpt lat="46.1261140" lon="10.4796270">
	<ele>2769.40</ele>
	<time>2023-08-07T11:46:21.000Z</time>
</trkpt>
<trkpt lat="46.1261140" lon="10.4796270">
	<ele>2769.60</ele>
	<time>2023-08-07T11:46:22.000Z</time>
</trkpt>
<trkpt lat="46.1261150" lon="10.4796270">
	<ele>2769.60</ele>
	<time>2023-08-07T11:46:23.000Z</time>
</trkpt>
<trkpt lat="46.1261160" lon="10.4796270">
	<ele>2769.60</ele>
	<time>2023-08-07T11:46:24.000Z</time>
</trkpt>
<trkpt lat="46.1261160" lon="10.4796270">
	<ele>2769.60</ele>
	<time>2023-08-07T11:46:25.000Z</time>
</trkpt>
<trkpt lat="46.1261160" lon="10.4796270">
	<ele>2769.60</ele>
	<time>2023-08-07T11:46:26.000Z</time>
</trkpt>
<trkpt lat="46.1261170" lon="10.4796270">
	<ele>2769.60</ele>
	<time>2023-08-07T11:46:27.000Z</time>
</trkpt>
<trkpt lat="46.1261170" lon="10.4796270">
	<ele>2769.60</ele>
	<time>2023-08-07T11:46:28.000Z</time>
</trkpt>
<trkpt lat="46.1261170" lon="10.4796270">
	<ele>2769.60</ele>
	<time>2023-08-07T11:46:29.000Z</time>
</trkpt>
<trkpt lat="46.1261180" lon="10.4796270">
	<ele>2769.40</ele>
	<time>2023-08-07T11:46:30.000Z</time>
</trkpt>
<trkpt lat="46.1261180" lon="10.4796270">
	<ele>2769.40</ele>
	<time>2023-08-07T11:46:31.000Z</time>
</trkpt>
<trkpt lat="46.1261180" lon="10.4796270">
	<ele>2769.40</ele>
	<time>2023-08-07T11:46:32.000Z</time>
</trkpt>
<trkpt lat="46.1261180" lon="10.4796270">
	<ele>2769.40</ele>
	<time>2023-08-07T11:46:33.000Z</time>
</trkpt>
<trkpt lat="46.1261180" lon="10.4796270">
	<ele>2769.40</ele>
	<time>2023-08-07T11:46:34.000Z</time>
</trkpt>
<trkpt lat="46.1261190" lon="10.4796270">
	<ele>2769.40</ele>
	<time>2023-08-07T11:46:35.000Z</time>
</trkpt>
<trkpt lat="46.1261190" lon="10.4796260">
	<ele>2769.40</ele>
	<time>2023-08-07T11:46:36.000Z</time>
</trkpt>
<trkpt lat="46.1261190" lon="10.4796260">
	<ele>2769.60</ele>
	<time>2023-08-07T11:46:37.000Z</time>
</trkpt>
<trkpt lat="46.1261190" lon="10.4796260">
	<ele>2769.60</ele>
	<time>2023-08-07T11:46:38.000Z</time>
</trkpt>
<trkpt lat="46.1261190" lon="10.4796260">
	<ele>2769.60</ele>
	<time>2023-08-07T11:46:39.000Z</time>
</trkpt>
<trkpt lat="46.1261190" lon="10.4796260">
	<ele>2769.60</ele>
	<time>2023-08-07T11:46:40.000Z</time>
</trkpt>
<trkpt lat="46.1261200" lon="10.4796260">
	<ele>2769.80</ele>
	<time>2023-08-07T11:46:41.000Z</time>
</trkpt>
<trkpt lat="46.1261200" lon="10.4796260">
	<ele>2770.00</ele>
	<time>2023-08-07T11:46:42.000Z</time>
</trkpt>
<trkpt lat="46.1261200" lon="10.4796260">
	<ele>2770.20</ele>
	<time>2023-08-07T11:46:43.000Z</time>
</trkpt>
<trkpt lat="46.1261200" lon="10.4796260">
	<ele>2770.20</ele>
	<time>2023-08-07T11:46:44.000Z</time>
</trkpt>
<trkpt lat="46.1261200" lon="10.4796260">
	<ele>2770.40</ele>
	<time>2023-08-07T11:46:45.000Z</time>
</trkpt>
<trkpt lat="46.1261200" lon="10.4796260">
	<ele>2770.40</ele>
	<time>2023-08-07T11:46:46.000Z</time>
</trkpt>
<trkpt lat="46.1261200" lon="10.4796260">
	<ele>2770.40</ele>
	<time>2023-08-07T11:46:47.000Z</time>
</trkpt>
<trkpt lat="46.1261200" lon="10.4796260">
	<ele>2770.60</ele>
	<time>2023-08-07T11:46:48.000Z</time>
</trkpt>
<trkpt lat="46.1261210" lon="10.4796260">
	<ele>2770.60</ele>
	<time>2023-08-07T11:46:49.000Z</time>
</trkpt>
<trkpt lat="46.1261210" lon="10.4796260">
	<ele>2770.80</ele>
	<time>2023-08-07T11:46:50.000Z</time>
</trkpt>
<trkpt lat="46.1261210" lon="10.4796260">
	<ele>2770.80</ele>
	<time>2023-08-07T11:46:51.000Z</time>
</trkpt>
<trkpt lat="46.1261220" lon="10.4796260">
	<ele>2771.20</ele>
	<time>2023-08-07T11:46:52.000Z</time>
</trkpt>
<trkpt lat="46.1261220" lon="10.4796260">
	<ele>2771.40</ele>
	<time>2023-08-07T11:46:53.000Z</time>
</trkpt>
<trkpt lat="46.1261220" lon="10.4796260">
	<ele>2771.60</ele>
	<time>2023-08-07T11:46:54.000Z</time>
</trkpt>
<trkpt lat="46.1261230" lon="10.4796260">
	<ele>2771.80</ele>
	<time>2023-08-07T11:46:55.000Z</time>
</trkpt>
<trkpt lat="46.1261230" lon="10.4796260">
	<ele>2772.00</ele>
	<time>2023-08-07T11:46:56.000Z</time>
</trkpt>
<trkpt lat="46.1261240" lon="10.4796260">
	<ele>2772.20</ele>
	<time>2023-08-07T11:46:57.000Z</time>
</trkpt>
<trkpt lat="46.1261240" lon="10.4796260">
	<ele>2772.40</ele>
	<time>2023-08-07T11:46:58.000Z</time>
</trkpt>
<trkpt lat="46.1261240" lon="10.4796260">
	<ele>2772.40</ele>
	<time>2023-08-07T11:46:59.000Z</time>
</trkpt>
<trkpt lat="46.1261250" lon="10.4796260">
	<ele>2772.60</ele>
	<time>2023-08-07T11:47:00.000Z</time>
</trkpt>
<trkpt lat="46.1261250" lon="10.4796260">
	<ele>2772.80</ele>
	<time>2023-08-07T11:47:01.000Z</time>
</trkpt>
<trkpt lat="46.1261250" lon="10.4796260">
	<ele>2773.00</ele>
	<time>2023-08-07T11:47:02.000Z</time>
</trkpt>
<trkpt lat="46.1261250" lon="10.4796260">
	<ele>2773.20</ele>
	<time>2023-08-07T11:47:03.000Z</time>
</trkpt>
<trkpt lat="46.1261250" lon="10.4796260">
	<ele>2773.20</ele>
	<time>2023-08-07T11:47:04.000Z</time>
</trkpt>
<trkpt lat="46.1261250" lon="10.4796260">
	<ele>2773.20</ele>
	<time>2023-08-07T11:47:05.000Z</time>
</trkpt>
<trkpt lat="46.1261250" lon="10.4796260">
	<ele>2773.40</ele>
	<time>2023-08-07T11:47:06.000Z</time>
</trkpt>
<trkpt lat="46.1261250" lon="10.4796260">
	<ele>2773.60</ele>
	<time>2023-08-07T11:47:07.000Z</time>
</trkpt>
<trkpt lat="46.1261250" lon="10.4796250">
	<ele>2773.80</ele>
	<time>2023-08-07T11:47:08.000Z</time>
</trkpt>
<trkpt lat="46.1261250" lon="10.4796250">
	<ele>2774.00</ele>
	<time>2023-08-07T11:47:09.000Z</time>
</trkpt>
<trkpt lat="46.1261250" lon="10.4796250">
	<ele>2774.40</ele>
	<time>2023-08-07T11:47:10.000Z</time>
</trkpt>
<trkpt lat="46.1261250" lon="10.4796250">
	<ele>2774.60</ele>
	<time>2023-08-07T11:47:11.000Z</time>
</trkpt>
<trkpt lat="46.1261250" lon="10.4796250">
	<ele>2774.80</ele>
	<time>2023-08-07T11:47:12.000Z</time>
</trkpt>
<trkpt lat="46.1261250" lon="10.4796250">
	<ele>2774.80</ele>
	<time>2023-08-07T11:47:13.000Z</time>
</trkpt>
<trkpt lat="46.1261250" lon="10.4796250">
	<ele>2775.00</ele>
	<time>2023-08-07T11:47:14.000Z</time>
</trkpt>
<trkpt lat="46.1261250" lon="10.4796250">
	<ele>2775.00</ele>
	<time>2023-08-07T11:47:15.000Z</time>
</trkpt>
<trkpt lat="46.1261250" lon="10.4796250">
	<ele>2775.00</ele>
	<time>2023-08-07T11:47:16.000Z</time>
</trkpt>
<trkpt lat="46.1261250" lon="10.4796250">
	<ele>2775.00</ele>
	<time>2023-08-07T11:47:17.000Z</time>
</trkpt>
<trkpt lat="46.1261250" lon="10.4796240">
	<ele>2775.00</ele>
	<time>2023-08-07T11:47:18.000Z</time>
</trkpt>
<trkpt lat="46.1261250" lon="10.4796240">
	<ele>2775.00</ele>
	<time>2023-08-07T11:47:19.000Z</time>
</trkpt>
<trkpt lat="46.1261250" lon="10.4796240">
	<ele>2775.20</ele>
	<time>2023-08-07T11:47:20.000Z</time>
</trkpt>
<trkpt lat="46.1261250" lon="10.4796240">
	<ele>2775.20</ele>
	<time>2023-08-07T11:47:21.000Z</time>
</trkpt>
<trkpt lat="46.1261250" lon="10.4796240">
	<ele>2775.20</ele>
	<time>2023-08-07T11:47:22.000Z</time>
</trkpt>
<trkpt lat="46.1261250" lon="10.4796240">
	<ele>2775.40</ele>
	<time>2023-08-07T11:47:23.000Z</time>
</trkpt>
<trkpt lat="46.1261250" lon="10.4796240">
	<ele>2775.60</ele>
	<time>2023-08-07T11:47:24.000Z</time>
</trkpt>
<trkpt lat="46.1261250" lon="10.4796240">
	<ele>2775.60</ele>
	<time>2023-08-07T11:47:25.000Z</time>
</trkpt>
<trkpt lat="46.1261260" lon="10.4796230">
	<ele>2775.80</ele>
	<time>2023-08-07T11:47:26.000Z</time>
</trkpt>
<trkpt lat="46.1261260" lon="10.4796230">
	<ele>2776.00</ele>
	<time>2023-08-07T11:47:27.000Z</time>
</trkpt>
<trkpt lat="46.1261260" lon="10.4796230">
	<ele>2776.20</ele>
	<time>2023-08-07T11:47:28.000Z</time>
</trkpt>
<trkpt lat="46.1261260" lon="10.4796230">
	<ele>2776.40</ele>
	<time>2023-08-07T11:47:29.000Z</time>
</trkpt>
<trkpt lat="46.1261260" lon="10.4796230">
	<ele>2776.60</ele>
	<time>2023-08-07T11:47:30.000Z</time>
</trkpt>
<trkpt lat="46.1261260" lon="10.4796230">
	<ele>2776.80</ele>
	<time>2023-08-07T11:47:31.000Z</time>
</trkpt>
<trkpt lat="46.1261260" lon="10.4796230">
	<ele>2776.80</ele>
	<time>2023-08-07T11:47:32.000Z</time>
</trkpt>
<trkpt lat="46.1261260" lon="10.4796230">
	<ele>2776.80</ele>
	<time>2023-08-07T11:47:33.000Z</time>
</trkpt>
<trkpt lat="46.1261260" lon="10.4796230">
	<ele>2777.00</ele>
	<time>2023-08-07T11:47:34.000Z</time>
</trkpt>
<trkpt lat="46.1261260" lon="10.4796220">
	<ele>2777.00</ele>
	<time>2023-08-07T11:47:35.000Z</time>
</trkpt>
<trkpt lat="46.1261260" lon="10.4796220">
	<ele>2777.00</ele>
	<time>2023-08-07T11:47:36.000Z</time>
</trkpt>
<trkpt lat="46.1261260" lon="10.4796220">
	<ele>2776.80</ele>
	<time>2023-08-07T11:47:37.000Z</time>
</trkpt>
<trkpt lat="46.1261270" lon="10.4796220">
	<ele>2776.80</ele>
	<time>2023-08-07T11:47:38.000Z</time>
</trkpt>
<trkpt lat="46.1261270" lon="10.4796220">
	<ele>2776.80</ele>
	<time>2023-08-07T11:47:39.000Z</time>
</trkpt>
<trkpt lat="46.1261270" lon="10.4796210">
	<ele>2776.80</ele>
	<time>2023-08-07T11:47:40.000Z</time>
</trkpt>
<trkpt lat="46.1261270" lon="10.4796210">
	<ele>2777.00</ele>
	<time>2023-08-07T11:47:41.000Z</time>
</trkpt>
<trkpt lat="46.1261270" lon="10.4796210">
	<ele>2777.00</ele>
	<time>2023-08-07T11:47:42.000Z</time>
</trkpt>
<trkpt lat="46.1261270" lon="10.4796210">
	<ele>2777.20</ele>
	<time>2023-08-07T11:47:43.000Z</time>
</trkpt>
<trkpt lat="46.1261270" lon="10.4796210">
	<ele>2777.20</ele>
	<time>2023-08-07T11:47:44.000Z</time>
</trkpt>
<trkpt lat="46.1261270" lon="10.4796200">
	<ele>2777.60</ele>
	<time>2023-08-07T11:47:45.000Z</time>
</trkpt>
<trkpt lat="46.1261270" lon="10.4796200">
	<ele>2777.80</ele>
	<time>2023-08-07T11:47:46.000Z</time>
</trkpt>
<trkpt lat="46.1261270" lon="10.4796200">
	<ele>2777.80</ele>
	<time>2023-08-07T11:47:47.000Z</time>
</trkpt>
<trkpt lat="46.1261270" lon="10.4796200">
	<ele>2778.20</ele>
	<time>2023-08-07T11:47:48.000Z</time>
</trkpt>
<trkpt lat="46.1261270" lon="10.4796200">
	<ele>2778.40</ele>
	<time>2023-08-07T11:47:49.000Z</time>
</trkpt>
<trkpt lat="46.1261280" lon="10.4796200">
	<ele>2778.40</ele>
	<time>2023-08-07T11:47:50.000Z</time>
</trkpt>
<trkpt lat="46.1261280" lon="10.4796200">
	<ele>2778.60</ele>
	<time>2023-08-07T11:47:51.000Z</time>
</trkpt>
<trkpt lat="46.1261280" lon="10.4796200">
	<ele>2778.80</ele>
	<time>2023-08-07T11:47:52.000Z</time>
</trkpt>
<trkpt lat="46.1261280" lon="10.4796190">
	<ele>2779.00</ele>
	<time>2023-08-07T11:47:53.000Z</time>
</trkpt>
<trkpt lat="46.1261280" lon="10.4796190">
	<ele>2779.20</ele>
	<time>2023-08-07T11:47:54.000Z</time>
</trkpt>
<trkpt lat="46.1261280" lon="10.4796190">
	<ele>2779.20</ele>
	<time>2023-08-07T11:47:55.000Z</time>
</trkpt>
<trkpt lat="46.1261280" lon="10.4796190">
	<ele>2779.40</ele>
	<time>2023-08-07T11:47:56.000Z</time>
</trkpt>
<trkpt lat="46.1261280" lon="10.4796190">
	<ele>2779.40</ele>
	<time>2023-08-07T11:47:57.000Z</time>
</trkpt>
<trkpt lat="46.1261290" lon="10.4796190">
	<ele>2779.60</ele>
	<time>2023-08-07T11:47:58.000Z</time>
</trkpt>
<trkpt lat="46.1261290" lon="10.4796190">
	<ele>2779.60</ele>
	<time>2023-08-07T11:47:59.000Z</time>
</trkpt>
<trkpt lat="46.1261290" lon="10.4796190">
	<ele>2779.60</ele>
	<time>2023-08-07T11:48:00.000Z</time>
</trkpt>
<trkpt lat="46.1261290" lon="10.4796190">
	<ele>2779.60</ele>
	<time>2023-08-07T11:48:01.000Z</time>
</trkpt>
<trkpt lat="46.1261290" lon="10.4796180">
	<ele>2779.60</ele>
	<time>2023-08-07T11:48:02.000Z</time>
</trkpt>
<trkpt lat="46.1261290" lon="10.4796180">
	<ele>2779.60</ele>
	<time>2023-08-07T11:48:03.000Z</time>
</trkpt>
<trkpt lat="46.1261300" lon="10.4796180">
	<ele>2779.80</ele>
	<time>2023-08-07T11:48:04.000Z</time>
</trkpt>
<trkpt lat="46.1261300" lon="10.4796180">
	<ele>2779.80</ele>
	<time>2023-08-07T11:48:05.000Z</time>
</trkpt>
<trkpt lat="46.1261300" lon="10.4796180">
	<ele>2780.00</ele>
	<time>2023-08-07T11:48:06.000Z</time>
</trkpt>
<trkpt lat="46.1261300" lon="10.4796180">
	<ele>2780.20</ele>
	<time>2023-08-07T11:48:07.000Z</time>
</trkpt>
<trkpt lat="46.1261310" lon="10.4796170">
	<ele>2780.20</ele>
	<time>2023-08-07T11:48:08.000Z</time>
</trkpt>
<trkpt lat="46.1261310" lon="10.4796170">
	<ele>2780.20</ele>
	<time>2023-08-07T11:48:09.000Z</time>
</trkpt>
<trkpt lat="46.1261310" lon="10.4796170">
	<ele>2780.20</ele>
	<time>2023-08-07T11:48:10.000Z</time>
</trkpt>
<trkpt lat="46.1261310" lon="10.4796170">
	<ele>2780.20</ele>
	<time>2023-08-07T11:48:11.000Z</time>
</trkpt>
<trkpt lat="46.1261310" lon="10.4796170">
	<ele>2780.40</ele>
	<time>2023-08-07T11:48:12.000Z</time>
</trkpt>
<trkpt lat="46.1261310" lon="10.4796170">
	<ele>2780.60</ele>
	<time>2023-08-07T11:48:13.000Z</time>
</trkpt>
<trkpt lat="46.1261310" lon="10.4796170">
	<ele>2780.80</ele>
	<time>2023-08-07T11:48:14.000Z</time>
</trkpt>
<trkpt lat="46.1261320" lon="10.4796170">
	<ele>2781.00</ele>
	<time>2023-08-07T11:48:15.000Z</time>
</trkpt>
<trkpt lat="46.1261320" lon="10.4796160">
	<ele>2781.20</ele>
	<time>2023-08-07T11:48:16.000Z</time>
</trkpt>
<trkpt lat="46.1261320" lon="10.4796160">
	<ele>2781.20</ele>
	<time>2023-08-07T11:48:17.000Z</time>
</trkpt>
<trkpt lat="46.1261320" lon="10.4796160">
	<ele>2781.40</ele>
	<time>2023-08-07T11:48:18.000Z</time>
</trkpt>
<trkpt lat="46.1261320" lon="10.4796160">
	<ele>2781.60</ele>
	<time>2023-08-07T11:48:19.000Z</time>
</trkpt>
<trkpt lat="46.1261330" lon="10.4796160">
	<ele>2781.60</ele>
	<time>2023-08-07T11:48:20.000Z</time>
</trkpt>
<trkpt lat="46.1261330" lon="10.4796160">
	<ele>2781.80</ele>
	<time>2023-08-07T11:48:21.000Z</time>
</trkpt>
<trkpt lat="46.1261330" lon="10.4796160">
	<ele>2781.80</ele>
	<time>2023-08-07T11:48:22.000Z</time>
</trkpt>
<trkpt lat="46.1261340" lon="10.4796150">
	<ele>2782.00</ele>
	<time>2023-08-07T11:48:23.000Z</time>
</trkpt>
<trkpt lat="46.1261340" lon="10.4796150">
	<ele>2782.20</ele>
	<time>2023-08-07T11:48:24.000Z</time>
</trkpt>
<trkpt lat="46.1261340" lon="10.4796150">
	<ele>2782.40</ele>
	<time>2023-08-07T11:48:25.000Z</time>
</trkpt>
<trkpt lat="46.1261340" lon="10.4796150">
	<ele>2782.60</ele>
	<time>2023-08-07T11:48:26.000Z</time>
</trkpt>
<trkpt lat="46.1261350" lon="10.4796150">
	<ele>2782.80</ele>
	<time>2023-08-07T11:48:27.000Z</time>
</trkpt>
<trkpt lat="46.1261350" lon="10.4796150">
	<ele>2783.00</ele>
	<time>2023-08-07T11:48:28.000Z</time>
</trkpt>
<trkpt lat="46.1261350" lon="10.4796150">
	<ele>2783.00</ele>
	<time>2023-08-07T11:48:29.000Z</time>
</trkpt>
<trkpt lat="46.1261350" lon="10.4796150">
	<ele>2783.00</ele>
	<time>2023-08-07T11:48:30.000Z</time>
</trkpt>
<trkpt lat="46.1261350" lon="10.4796150">
	<ele>2783.00</ele>
	<time>2023-08-07T11:48:31.000Z</time>
</trkpt>
<trkpt lat="46.1261360" lon="10.4796140">
	<ele>2783.00</ele>
	<time>2023-08-07T11:48:32.000Z</time>
</trkpt>
<trkpt lat="46.1261360" lon="10.4796140">
	<ele>2783.00</ele>
	<time>2023-08-07T11:48:33.000Z</time>
</trkpt>
<trkpt lat="46.1261360" lon="10.4796140">
	<ele>2783.20</ele>
	<time>2023-08-07T11:48:34.000Z</time>
</trkpt>
<trkpt lat="46.1261370" lon="10.4796140">
	<ele>2783.20</ele>
	<time>2023-08-07T11:48:35.000Z</time>
</trkpt>
<trkpt lat="46.1261370" lon="10.4796140">
	<ele>2783.20</ele>
	<time>2023-08-07T11:48:36.000Z</time>
</trkpt>
<trkpt lat="46.1261370" lon="10.4796140">
	<ele>2783.20</ele>
	<time>2023-08-07T11:48:37.000Z</time>
</trkpt>
<trkpt lat="46.1261370" lon="10.4796140">
	<ele>2783.20</ele>
	<time>2023-08-07T11:48:38.000Z</time>
</trkpt>
<trkpt lat="46.1261370" lon="10.4796140">
	<ele>2783.20</ele>
	<time>2023-08-07T11:48:39.000Z</time>
</trkpt>
<trkpt lat="46.1261380" lon="10.4796130">
	<ele>2783.20</ele>
	<time>2023-08-07T11:48:40.000Z</time>
</trkpt>
<trkpt lat="46.1261380" lon="10.4796130">
	<ele>2783.20</ele>
	<time>2023-08-07T11:48:41.000Z</time>
</trkpt>
<trkpt lat="46.1261380" lon="10.4796130">
	<ele>2783.20</ele>
	<time>2023-08-07T11:48:42.000Z</time>
</trkpt>
<trkpt lat="46.1261380" lon="10.4796130">
	<ele>2783.20</ele>
	<time>2023-08-07T11:48:43.000Z</time>
</trkpt>
<trkpt lat="46.1261380" lon="10.4796120">
	<ele>2783.20</ele>
	<time>2023-08-07T11:48:44.000Z</time>
</trkpt>
<trkpt lat="46.1261380" lon="10.4796120">
	<ele>2783.20</ele>
	<time>2023-08-07T11:48:45.000Z</time>
</trkpt>
<trkpt lat="46.1261390" lon="10.4796120">
	<ele>2783.40</ele>
	<time>2023-08-07T11:48:46.000Z</time>
</trkpt>
<trkpt lat="46.1261390" lon="10.4796120">
	<ele>2783.40</ele>
	<time>2023-08-07T11:48:47.000Z</time>
</trkpt>
<trkpt lat="46.1261390" lon="10.4796120">
	<ele>2783.40</ele>
	<time>2023-08-07T11:48:48.000Z</time>
</trkpt>
<trkpt lat="46.1261390" lon="10.4796120">
	<ele>2783.60</ele>
	<time>2023-08-07T11:48:49.000Z</time>
</trkpt>
<trkpt lat="46.1261400" lon="10.4796120">
	<ele>2783.60</ele>
	<time>2023-08-07T11:48:50.000Z</time>
</trkpt>
<trkpt lat="46.1261400" lon="10.4796110">
	<ele>2783.60</ele>
	<time>2023-08-07T11:48:51.000Z</time>
</trkpt>
<trkpt lat="46.1261400" lon="10.4796110">
	<ele>2783.80</ele>
	<time>2023-08-07T11:48:52.000Z</time>
</trkpt>
<trkpt lat="46.1261400" lon="10.4796110">
	<ele>2784.00</ele>
	<time>2023-08-07T11:48:53.000Z</time>
</trkpt>
<trkpt lat="46.1261410" lon="10.4796110">
	<ele>2784.40</ele>
	<time>2023-08-07T11:48:54.000Z</time>
</trkpt>
<trkpt lat="46.1261410" lon="10.4796110">
	<ele>2784.40</ele>
	<time>2023-08-07T11:48:55.000Z</time>
</trkpt>
<trkpt lat="46.1261410" lon="10.4796110">
	<ele>2784.60</ele>
	<time>2023-08-07T11:48:56.000Z</time>
</trkpt>
<trkpt lat="46.1261410" lon="10.4796110">
	<ele>2784.60</ele>
	<time>2023-08-07T11:48:57.000Z</time>
</trkpt>
<trkpt lat="46.1261410" lon="10.4796110">
	<ele>2784.80</ele>
	<time>2023-08-07T11:48:58.000Z</time>
</trkpt>
<trkpt lat="46.1261420" lon="10.4796100">
	<ele>2785.00</ele>
	<time>2023-08-07T11:48:59.000Z</time>
</trkpt>
<trkpt lat="46.1261420" lon="10.4796100">
	<ele>2785.40</ele>
	<time>2023-08-07T11:49:00.000Z</time>
</trkpt>
<trkpt lat="46.1261420" lon="10.4796100">
	<ele>2785.60</ele>
	<time>2023-08-07T11:49:01.000Z</time>
</trkpt>
<trkpt lat="46.1261430" lon="10.4796100">
	<ele>2785.80</ele>
	<time>2023-08-07T11:49:02.000Z</time>
</trkpt>
<trkpt lat="46.1261430" lon="10.4796100">
	<ele>2786.00</ele>
	<time>2023-08-07T11:49:03.000Z</time>
</trkpt>
<trkpt lat="46.1261430" lon="10.4796100">
	<ele>2786.20</ele>
	<time>2023-08-07T11:49:04.000Z</time>
</trkpt>
<trkpt lat="46.1261440" lon="10.4796100">
	<ele>2786.40</ele>
	<time>2023-08-07T11:49:05.000Z</time>
</trkpt>
<trkpt lat="46.1261440" lon="10.4796100">
	<ele>2786.40</ele>
	<time>2023-08-07T11:49:06.000Z</time>
</trkpt>
<trkpt lat="46.1261440" lon="10.4796100">
	<ele>2786.40</ele>
	<time>2023-08-07T11:49:07.000Z</time>
</trkpt>
<trkpt lat="46.1261440" lon="10.4796100">
	<ele>2786.60</ele>
	<time>2023-08-07T11:49:08.000Z</time>
</trkpt>
<trkpt lat="46.1261450" lon="10.4796090">
	<ele>2786.80</ele>
	<time>2023-08-07T11:49:09.000Z</time>
</trkpt>
<trkpt lat="46.1261450" lon="10.4796090">
	<ele>2786.80</ele>
	<time>2023-08-07T11:49:10.000Z</time>
</trkpt>
<trkpt lat="46.1261450" lon="10.4796090">
	<ele>2787.00</ele>
	<time>2023-08-07T11:49:11.000Z</time>
</trkpt>
<trkpt lat="46.1261460" lon="10.4796090">
	<ele>2787.00</ele>
	<time>2023-08-07T11:49:12.000Z</time>
</trkpt>
<trkpt lat="46.1261460" lon="10.4796090">
	<ele>2787.20</ele>
	<time>2023-08-07T11:49:13.000Z</time>
</trkpt>
<trkpt lat="46.1261460" lon="10.4796090">
	<ele>2787.20</ele>
	<time>2023-08-07T11:49:14.000Z</time>
</trkpt>
<trkpt lat="46.1261460" lon="10.4796090">
	<ele>2787.40</ele>
	<time>2023-08-07T11:49:15.000Z</time>
</trkpt>
<trkpt lat="46.1261470" lon="10.4796090">
	<ele>2787.60</ele>
	<time>2023-08-07T11:49:16.000Z</time>
</trkpt>
<trkpt lat="46.1261470" lon="10.4796080">
	<ele>2787.80</ele>
	<time>2023-08-07T11:49:17.000Z</time>
</trkpt>
<trkpt lat="46.1261670" lon="10.4795950">
	<ele>2787.80</ele>
	<time>2023-08-07T11:49:18.000Z</time>
</trkpt>
<trkpt lat="46.1261890" lon="10.4795810">
	<ele>2788.20</ele>
	<time>2023-08-07T11:49:19.000Z</time>
</trkpt>
<trkpt lat="46.1262100" lon="10.4795670">
	<ele>2788.40</ele>
	<time>2023-08-07T11:49:20.000Z</time>
</trkpt>
<trkpt lat="46.1262310" lon="10.4795550">
	<ele>2788.60</ele>
	<time>2023-08-07T11:49:21.000Z</time>
</trkpt>
<trkpt lat="46.1262500" lon="10.4795420">
	<ele>2788.80</ele>
	<time>2023-08-07T11:49:22.000Z</time>
</trkpt>
<trkpt lat="46.1262710" lon="10.4795280">
	<ele>2788.80</ele>
	<time>2023-08-07T11:49:23.000Z</time>
</trkpt>
<trkpt lat="46.1262900" lon="10.4795130">
	<ele>2788.80</ele>
	<time>2023-08-07T11:49:24.000Z</time>
</trkpt>
<trkpt lat="46.1263110" lon="10.4794990">
	<ele>2789.00</ele>
	<time>2023-08-07T11:49:25.000Z</time>
</trkpt>
<trkpt lat="46.1263330" lon="10.4794820">
	<ele>2789.00</ele>
	<time>2023-08-07T11:49:26.000Z</time>
</trkpt>
<trkpt lat="46.1263550" lon="10.4794670">
	<ele>2789.20</ele>
	<time>2023-08-07T11:49:27.000Z</time>
</trkpt>
<trkpt lat="46.1263560" lon="10.4794670">
	<ele>2789.40</ele>
	<time>2023-08-07T11:49:28.000Z</time>
</trkpt>
<trkpt lat="46.1263580" lon="10.4794650">
	<ele>2789.60</ele>
	<time>2023-08-07T11:49:29.000Z</time>
</trkpt>
<trkpt lat="46.1263580" lon="10.4794610">
	<ele>2789.60</ele>
	<time>2023-08-07T11:49:30.000Z</time>
</trkpt>
<trkpt lat="46.1263570" lon="10.4794580">
	<ele>2789.60</ele>
	<time>2023-08-07T11:49:31.000Z</time>
</trkpt>
<trkpt lat="46.1263550" lon="10.4794580">
	<ele>2789.60</ele>
	<time>2023-08-07T11:49:32.000Z</time>
</trkpt>
<trkpt lat="46.1263530" lon="10.4794580">
	<ele>2789.60</ele>
	<time>2023-08-07T11:49:33.000Z</time>
</trkpt>
<trkpt lat="46.1263530" lon="10.4794560">
	<ele>2789.60</ele>
	<time>2023-08-07T11:49:34.000Z</time>
</trkpt>
<trkpt lat="46.1263530" lon="10.4794560">
	<ele>2789.60</ele>
	<time>2023-08-07T11:49:35.000Z</time>
</trkpt>
<trkpt lat="46.1263530" lon="10.4794560">
	<ele>2789.40</ele>
	<time>2023-08-07T11:49:36.000Z</time>
</trkpt>
<trkpt lat="46.1263530" lon="10.4794560">
	<ele>2789.60</ele>
	<time>2023-08-07T11:49:37.000Z</time>
</trkpt>
<trkpt lat="46.1263530" lon="10.4794560">
	<ele>2789.60</ele>
	<time>2023-08-07T11:49:38.000Z</time>
</trkpt>
<trkpt lat="46.1263530" lon="10.4794560">
	<ele>2789.80</ele>
	<time>2023-08-07T11:49:39.000Z</time>
</trkpt>
<trkpt lat="46.1263530" lon="10.4794560">
	<ele>2789.80</ele>
	<time>2023-08-07T11:49:40.000Z</time>
</trkpt>
<trkpt lat="46.1263530" lon="10.4794560">
	<ele>2790.00</ele>
	<time>2023-08-07T11:49:41.000Z</time>
</trkpt>
<trkpt lat="46.1263530" lon="10.4794560">
	<ele>2790.00</ele>
	<time>2023-08-07T11:49:42.000Z</time>
</trkpt>
<trkpt lat="46.1263530" lon="10.4794560">
	<ele>2790.00</ele>
	<time>2023-08-07T11:49:43.000Z</time>
</trkpt>
<trkpt lat="46.1263530" lon="10.4794560">
	<ele>2790.00</ele>
	<time>2023-08-07T11:49:44.000Z</time>
</trkpt>
<trkpt lat="46.1263530" lon="10.4794560">
	<ele>2789.80</ele>
	<time>2023-08-07T11:49:45.000Z</time>
</trkpt>
<trkpt lat="46.1263530" lon="10.4794560">
	<ele>2790.00</ele>
	<time>2023-08-07T11:49:46.000Z</time>
</trkpt>
<trkpt lat="46.1263530" lon="10.4794560">
	<ele>2790.00</ele>
	<time>2023-08-07T11:49:47.000Z</time>
</trkpt>
<trkpt lat="46.1263530" lon="10.4794560">
	<ele>2790.00</ele>
	<time>2023-08-07T11:49:48.000Z</time>
</trkpt>
<trkpt lat="46.1263530" lon="10.4794560">
	<ele>2790.00</ele>
	<time>2023-08-07T11:49:49.000Z</time>
</trkpt>
<trkpt lat="46.1263530" lon="10.4794540">
	<ele>2790.00</ele>
	<time>2023-08-07T11:49:50.000Z</time>
</trkpt>
<trkpt lat="46.1263530" lon="10.4794510">
	<ele>2790.40</ele>
	<time>2023-08-07T11:49:51.000Z</time>
</trkpt>
<trkpt lat="46.1263530" lon="10.4794440">
	<ele>2790.60</ele>
	<time>2023-08-07T11:49:52.000Z</time>
</trkpt>
<trkpt lat="46.1263530" lon="10.4794390">
	<ele>2790.80</ele>
	<time>2023-08-07T11:49:53.000Z</time>
</trkpt>
<trkpt lat="46.1263530" lon="10.4794350">
	<ele>2791.00</ele>
	<time>2023-08-07T11:49:54.000Z</time>
</trkpt>
<trkpt lat="46.1263530" lon="10.4794310">
	<ele>2791.00</ele>
	<time>2023-08-07T11:49:55.000Z</time>
</trkpt>
<trkpt lat="46.1263540" lon="10.4794280">
	<ele>2791.20</ele>
	<time>2023-08-07T11:49:56.000Z</time>
</trkpt>
<trkpt lat="46.1263540" lon="10.4794250">
	<ele>2791.20</ele>
	<time>2023-08-07T11:49:57.000Z</time>
</trkpt>
<trkpt lat="46.1263540" lon="10.4794250">
	<ele>2791.40</ele>
	<time>2023-08-07T11:49:58.000Z</time>
</trkpt>
<trkpt lat="46.1263540" lon="10.4794250">
	<ele>2791.40</ele>
	<time>2023-08-07T11:49:59.000Z</time>
</trkpt>
<trkpt lat="46.1263540" lon="10.4794250">
	<ele>2791.60</ele>
	<time>2023-08-07T11:50:00.000Z</time>
</trkpt>
<trkpt lat="46.1263540" lon="10.4794250">
	<ele>2791.80</ele>
	<time>2023-08-07T11:50:01.000Z</time>
</trkpt>
<trkpt lat="46.1263540" lon="10.4794250">
	<ele>2791.80</ele>
	<time>2023-08-07T11:50:02.000Z</time>
</trkpt>
<trkpt lat="46.1263560" lon="10.4794250">
	<ele>2792.00</ele>
	<time>2023-08-07T11:50:03.000Z</time>
</trkpt>
<trkpt lat="46.1263570" lon="10.4794250">
	<ele>2792.20</ele>
	<time>2023-08-07T11:50:04.000Z</time>
</trkpt>
<trkpt lat="46.1263590" lon="10.4794250">
	<ele>2792.40</ele>
	<time>2023-08-07T11:50:05.000Z</time>
</trkpt>
<trkpt lat="46.1263610" lon="10.4794250">
	<ele>2792.40</ele>
	<time>2023-08-07T11:50:06.000Z</time>
</trkpt>
<trkpt lat="46.1263620" lon="10.4794250">
	<ele>2792.40</ele>
	<time>2023-08-07T11:50:07.000Z</time>
</trkpt>
<trkpt lat="46.1263640" lon="10.4794250">
	<ele>2792.40</ele>
	<time>2023-08-07T11:50:08.000Z</time>
</trkpt>
<trkpt lat="46.1263650" lon="10.4794250">
	<ele>2792.60</ele>
	<time>2023-08-07T11:50:09.000Z</time>
</trkpt>
<trkpt lat="46.1263660" lon="10.4794250">
	<ele>2792.40</ele>
	<time>2023-08-07T11:50:10.000Z</time>
</trkpt>
<trkpt lat="46.1263670" lon="10.4794250">
	<ele>2792.40</ele>
	<time>2023-08-07T11:50:11.000Z</time>
</trkpt>
<trkpt lat="46.1263670" lon="10.4794250">
	<ele>2792.40</ele>
	<time>2023-08-07T11:50:12.000Z</time>
</trkpt>
<trkpt lat="46.1263670" lon="10.4794250">
	<ele>2792.40</ele>
	<time>2023-08-07T11:50:13.000Z</time>
</trkpt>
<trkpt lat="46.1263680" lon="10.4794280">
	<ele>2792.40</ele>
	<time>2023-08-07T11:50:14.000Z</time>
</trkpt>
<trkpt lat="46.1263680" lon="10.4794290">
	<ele>2792.60</ele>
	<time>2023-08-07T11:50:15.000Z</time>
</trkpt>
<trkpt lat="46.1263690" lon="10.4794300">
	<ele>2792.60</ele>
	<time>2023-08-07T11:50:16.000Z</time>
</trkpt>
<trkpt lat="46.1263700" lon="10.4794310">
	<ele>2792.80</ele>
	<time>2023-08-07T11:50:17.000Z</time>
</trkpt>
<trkpt lat="46.1263720" lon="10.4794310">
	<ele>2792.80</ele>
	<time>2023-08-07T11:50:18.000Z</time>
</trkpt>
<trkpt lat="46.1263730" lon="10.4794320">
	<ele>2793.00</ele>
	<time>2023-08-07T11:50:19.000Z</time>
</trkpt>
<trkpt lat="46.1263740" lon="10.4794320">
	<ele>2793.20</ele>
	<time>2023-08-07T11:50:20.000Z</time>
</trkpt>
<trkpt lat="46.1263740" lon="10.4794320">
	<ele>2793.20</ele>
	<time>2023-08-07T11:50:21.000Z</time>
</trkpt>
<trkpt lat="46.1263740" lon="10.4794320">
	<ele>2793.40</ele>
	<time>2023-08-07T11:50:22.000Z</time>
</trkpt>
<trkpt lat="46.1263740" lon="10.4794320">
	<ele>2793.40</ele>
	<time>2023-08-07T11:50:23.000Z</time>
</trkpt>
<trkpt lat="46.1263740" lon="10.4794330">
	<ele>2793.40</ele>
	<time>2023-08-07T11:50:24.000Z</time>
</trkpt>
<trkpt lat="46.1263750" lon="10.4794330">
	<ele>2793.20</ele>
	<time>2023-08-07T11:50:25.000Z</time>
</trkpt>
<trkpt lat="46.1263770" lon="10.4794330">
	<ele>2793.20</ele>
	<time>2023-08-07T11:50:26.000Z</time>
</trkpt>
<trkpt lat="46.1263810" lon="10.4794340">
	<ele>2793.20</ele>
	<time>2023-08-07T11:50:27.000Z</time>
</trkpt>
<trkpt lat="46.1263820" lon="10.4794340">
	<ele>2793.20</ele>
	<time>2023-08-07T11:50:28.000Z</time>
</trkpt>
<trkpt lat="46.1263820" lon="10.4794340">
	<ele>2793.40</ele>
	<time>2023-08-07T11:50:29.000Z</time>
</trkpt>
<trkpt lat="46.1263820" lon="10.4794340">
	<ele>2793.40</ele>
	<time>2023-08-07T11:50:30.000Z</time>
</trkpt>
<trkpt lat="46.1263830" lon="10.4794340">
	<ele>2793.60</ele>
	<time>2023-08-07T11:50:31.000Z</time>
</trkpt>
<trkpt lat="46.1263830" lon="10.4794340">
	<ele>2793.60</ele>
	<time>2023-08-07T11:50:32.000Z</time>
</trkpt>
<trkpt lat="46.1263830" lon="10.4794340">
	<ele>2793.60</ele>
	<time>2023-08-07T11:50:33.000Z</time>
</trkpt>
<trkpt lat="46.1263830" lon="10.4794330">
	<ele>2793.60</ele>
	<time>2023-08-07T11:50:34.000Z</time>
</trkpt>
<trkpt lat="46.1263830" lon="10.4794330">
	<ele>2793.60</ele>
	<time>2023-08-07T11:50:35.000Z</time>
</trkpt>
<trkpt lat="46.1263830" lon="10.4794330">
	<ele>2793.40</ele>
	<time>2023-08-07T11:50:36.000Z</time>
</trkpt>
<trkpt lat="46.1263830" lon="10.4794320">
	<ele>2793.40</ele>
	<time>2023-08-07T11:50:37.000Z</time>
</trkpt>
<trkpt lat="46.1263830" lon="10.4794320">
	<ele>2793.20</ele>
	<time>2023-08-07T11:50:38.000Z</time>
</trkpt>
<trkpt lat="46.1263830" lon="10.4794320">
	<ele>2793.20</ele>
	<time>2023-08-07T11:50:39.000Z</time>
</trkpt>
<trkpt lat="46.1263830" lon="10.4794320">
	<ele>2793.00</ele>
	<time>2023-08-07T11:50:40.000Z</time>
</trkpt>
<trkpt lat="46.1263830" lon="10.4794320">
	<ele>2793.00</ele>
	<time>2023-08-07T11:50:41.000Z</time>
</trkpt>
<trkpt lat="46.1263830" lon="10.4794290">
	<ele>2792.80</ele>
	<time>2023-08-07T11:50:42.000Z</time>
</trkpt>
<trkpt lat="46.1263810" lon="10.4794260">
	<ele>2792.80</ele>
	<time>2023-08-07T11:50:43.000Z</time>
</trkpt>
<trkpt lat="46.1263800" lon="10.4794250">
	<ele>2792.80</ele>
	<time>2023-08-07T11:50:44.000Z</time>
</trkpt>
<trkpt lat="46.1263790" lon="10.4794240">
	<ele>2793.00</ele>
	<time>2023-08-07T11:50:45.000Z</time>
</trkpt>
<trkpt lat="46.1263780" lon="10.4794240">
	<ele>2793.20</ele>
	<time>2023-08-07T11:50:46.000Z</time>
</trkpt>
<trkpt lat="46.1263770" lon="10.4794230">
	<ele>2793.40</ele>
	<time>2023-08-07T11:50:47.000Z</time>
</trkpt>
<trkpt lat="46.1263760" lon="10.4794230">
	<ele>2793.40</ele>
	<time>2023-08-07T11:50:48.000Z</time>
</trkpt>
<trkpt lat="46.1263740" lon="10.4794220">
	<ele>2793.60</ele>
	<time>2023-08-07T11:50:49.000Z</time>
</trkpt>
<trkpt lat="46.1263720" lon="10.4794220">
	<ele>2793.80</ele>
	<time>2023-08-07T11:50:50.000Z</time>
</trkpt>
<trkpt lat="46.1263710" lon="10.4794220">
	<ele>2793.80</ele>
	<time>2023-08-07T11:50:51.000Z</time>
</trkpt>
<trkpt lat="46.1263700" lon="10.4794210">
	<ele>2793.60</ele>
	<time>2023-08-07T11:50:52.000Z</time>
</trkpt>
<trkpt lat="46.1263690" lon="10.4794210">
	<ele>2793.60</ele>
	<time>2023-08-07T11:50:53.000Z</time>
</trkpt>
<trkpt lat="46.1263690" lon="10.4794210">
	<ele>2793.60</ele>
	<time>2023-08-07T11:50:54.000Z</time>
</trkpt>
<trkpt lat="46.1263690" lon="10.4794210">
	<ele>2793.60</ele>
	<time>2023-08-07T11:50:55.000Z</time>
</trkpt>
<trkpt lat="46.1263690" lon="10.4794200">
	<ele>2793.60</ele>
	<time>2023-08-07T11:50:56.000Z</time>
</trkpt>
<trkpt lat="46.1263690" lon="10.4794200">
	<ele>2793.40</ele>
	<time>2023-08-07T11:50:57.000Z</time>
</trkpt>
<trkpt lat="46.1263690" lon="10.4794200">
	<ele>2793.40</ele>
	<time>2023-08-07T11:50:58.000Z</time>
</trkpt>
<trkpt lat="46.1263680" lon="10.4794200">
	<ele>2793.20</ele>
	<time>2023-08-07T11:50:59.000Z</time>
</trkpt>
<trkpt lat="46.1263680" lon="10.4794200">
	<ele>2793.20</ele>
	<time>2023-08-07T11:51:00.000Z</time>
</trkpt>
<trkpt lat="46.1263680" lon="10.4794210">
	<ele>2793.20</ele>
	<time>2023-08-07T11:51:01.000Z</time>
</trkpt>
<trkpt lat="46.1263680" lon="10.4794210">
	<ele>2793.20</ele>
	<time>2023-08-07T11:51:02.000Z</time>
</trkpt>
<trkpt lat="46.1263680" lon="10.4794210">
	<ele>2793.20</ele>
	<time>2023-08-07T11:51:03.000Z</time>
</trkpt>
<trkpt lat="46.1263680" lon="10.4794210">
	<ele>2793.20</ele>
	<time>2023-08-07T11:51:04.000Z</time>
</trkpt>
<trkpt lat="46.1263680" lon="10.4794210">
	<ele>2793.40</ele>
	<time>2023-08-07T11:51:05.000Z</time>
</trkpt>
<trkpt lat="46.1263680" lon="10.4794210">
	<ele>2793.40</ele>
	<time>2023-08-07T11:51:06.000Z</time>
</trkpt>
<trkpt lat="46.1263690" lon="10.4794210">
	<ele>2793.40</ele>
	<time>2023-08-07T11:51:07.000Z</time>
</trkpt>
<trkpt lat="46.1263690" lon="10.4794210">
	<ele>2793.60</ele>
	<time>2023-08-07T11:51:08.000Z</time>
</trkpt>
<trkpt lat="46.1263700" lon="10.4794220">
	<ele>2793.60</ele>
	<time>2023-08-07T11:51:09.000Z</time>
</trkpt>
<trkpt lat="46.1263700" lon="10.4794220">
	<ele>2793.80</ele>
	<time>2023-08-07T11:51:10.000Z</time>
</trkpt>
<trkpt lat="46.1263710" lon="10.4794240">
	<ele>2793.80</ele>
	<time>2023-08-07T11:51:11.000Z</time>
</trkpt>
<trkpt lat="46.1263710" lon="10.4794280">
	<ele>2793.60</ele>
	<time>2023-08-07T11:51:12.000Z</time>
</trkpt>
<trkpt lat="46.1263710" lon="10.4794300">
	<ele>2793.80</ele>
	<time>2023-08-07T11:51:13.000Z</time>
</trkpt>
<trkpt lat="46.1263710" lon="10.4794310">
	<ele>2793.80</ele>
	<time>2023-08-07T11:51:14.000Z</time>
</trkpt>
<trkpt lat="46.1263710" lon="10.4794310">
	<ele>2793.80</ele>
	<time>2023-08-07T11:51:15.000Z</time>
</trkpt>
<trkpt lat="46.1263710" lon="10.4794310">
	<ele>2793.80</ele>
	<time>2023-08-07T11:51:16.000Z</time>
</trkpt>
<trkpt lat="46.1263710" lon="10.4794310">
	<ele>2794.00</ele>
	<time>2023-08-07T11:51:17.000Z</time>
</trkpt>
<trkpt lat="46.1263710" lon="10.4794310">
	<ele>2794.00</ele>
	<time>2023-08-07T11:51:18.000Z</time>
</trkpt>
<trkpt lat="46.1263710" lon="10.4794310">
	<ele>2794.00</ele>
	<time>2023-08-07T11:51:19.000Z</time>
</trkpt>
<trkpt lat="46.1263710" lon="10.4794310">
	<ele>2794.00</ele>
	<time>2023-08-07T11:51:20.000Z</time>
</trkpt>
<trkpt lat="46.1263710" lon="10.4794310">
	<ele>2794.00</ele>
	<time>2023-08-07T11:51:21.000Z</time>
</trkpt>
<trkpt lat="46.1263710" lon="10.4794310">
	<ele>2794.00</ele>
	<time>2023-08-07T11:51:22.000Z</time>
</trkpt>
<trkpt lat="46.1263710" lon="10.4794310">
	<ele>2794.20</ele>
	<time>2023-08-07T11:51:23.000Z</time>
</trkpt>
<trkpt lat="46.1263710" lon="10.4794310">
	<ele>2794.00</ele>
	<time>2023-08-07T11:51:24.000Z</time>
</trkpt>
<trkpt lat="46.1263710" lon="10.4794310">
	<ele>2794.00</ele>
	<time>2023-08-07T11:51:25.000Z</time>
</trkpt>
<trkpt lat="46.1263710" lon="10.4794310">
	<ele>2794.20</ele>
	<time>2023-08-07T11:51:26.000Z</time>
</trkpt>
<trkpt lat="46.1263670" lon="10.4794290">
	<ele>2794.20</ele>
	<time>2023-08-07T11:51:27.000Z</time>
</trkpt>
<trkpt lat="46.1263640" lon="10.4794250">
	<ele>2794.60</ele>
	<time>2023-08-07T11:51:28.000Z</time>
</trkpt>
<trkpt lat="46.1263620" lon="10.4794240">
	<ele>2795.20</ele>
	<time>2023-08-07T11:51:29.000Z</time>
</trkpt>
<trkpt lat="46.1263610" lon="10.4794220">
	<ele>2795.60</ele>
	<time>2023-08-07T11:51:30.000Z</time>
</trkpt>
<trkpt lat="46.1263600" lon="10.4794210">
	<ele>2795.80</ele>
	<time>2023-08-07T11:51:31.000Z</time>
</trkpt>
<trkpt lat="46.1263590" lon="10.4794200">
	<ele>2796.00</ele>
	<time>2023-08-07T11:51:32.000Z</time>
</trkpt>
<trkpt lat="46.1263580" lon="10.4794190">
	<ele>2796.00</ele>
	<time>2023-08-07T11:51:33.000Z</time>
</trkpt>
<trkpt lat="46.1263580" lon="10.4794190">
	<ele>2795.60</ele>
	<time>2023-08-07T11:51:34.000Z</time>
</trkpt>
<trkpt lat="46.1263570" lon="10.4794180">
	<ele>2795.00</ele>
	<time>2023-08-07T11:51:35.000Z</time>
</trkpt>
<trkpt lat="46.1263570" lon="10.4794180">
	<ele>2794.20</ele>
	<time>2023-08-07T11:51:36.000Z</time>
</trkpt>
<trkpt lat="46.1263560" lon="10.4794170">
	<ele>2793.80</ele>
	<time>2023-08-07T11:51:37.000Z</time>
</trkpt>
<trkpt lat="46.1263560" lon="10.4794170">
	<ele>2793.40</ele>
	<time>2023-08-07T11:51:38.000Z</time>
</trkpt>
<trkpt lat="46.1263560" lon="10.4794160">
	<ele>2793.40</ele>
	<time>2023-08-07T11:51:39.000Z</time>
</trkpt>
<trkpt lat="46.1263550" lon="10.4794160">
	<ele>2793.40</ele>
	<time>2023-08-07T11:51:40.000Z</time>
</trkpt>
<trkpt lat="46.1263530" lon="10.4794160">
	<ele>2793.00</ele>
	<time>2023-08-07T11:51:41.000Z</time>
</trkpt>
<trkpt lat="46.1263490" lon="10.4794140">
	<ele>2792.80</ele>
	<time>2023-08-07T11:51:42.000Z</time>
</trkpt>
<trkpt lat="46.1263450" lon="10.4794120">
	<ele>2792.60</ele>
	<time>2023-08-07T11:51:43.000Z</time>
</trkpt>
<trkpt lat="46.1263430" lon="10.4794090">
	<ele>2792.60</ele>
	<time>2023-08-07T11:51:44.000Z</time>
</trkpt>
<trkpt lat="46.1263410" lon="10.4794060">
	<ele>2792.40</ele>
	<time>2023-08-07T11:51:45.000Z</time>
</trkpt>
<trkpt lat="46.1263400" lon="10.4794020">
	<ele>2792.40</ele>
	<time>2023-08-07T11:51:46.000Z</time>
</trkpt>
<trkpt lat="46.1263400" lon="10.4794000">
	<ele>2792.40</ele>
	<time>2023-08-07T11:51:47.000Z</time>
</trkpt>
<trkpt lat="46.1263520" lon="10.4794190">
	<ele>2795.20</ele>
	<time>2023-08-07T11:54:01.000Z</time>
</trkpt>
<trkpt lat="46.1263520" lon="10.4794200">
	<ele>2795.40</ele>
	<time>2023-08-07T11:54:02.000Z</time>
</trkpt>
<trkpt lat="46.1263520" lon="10.4794200">
	<ele>2795.40</ele>
	<time>2023-08-07T11:54:03.000Z</time>
</trkpt>
<trkpt lat="46.1263520" lon="10.4794210">
	<ele>2795.40</ele>
	<time>2023-08-07T11:54:04.000Z</time>
</trkpt>
<trkpt lat="46.1263510" lon="10.4794220">
	<ele>2795.40</ele>
	<time>2023-08-07T11:54:05.000Z</time>
</trkpt>
<trkpt lat="46.1263510" lon="10.4794230">
	<ele>2795.40</ele>
	<time>2023-08-07T11:54:06.000Z</time>
</trkpt>
<trkpt lat="46.1263510" lon="10.4794240">
	<ele>2795.60</ele>
	<time>2023-08-07T11:54:07.000Z</time>
</trkpt>
<trkpt lat="46.1263510" lon="10.4794250">
	<ele>2795.60</ele>
	<time>2023-08-07T11:54:08.000Z</time>
</trkpt>
<trkpt lat="46.1263510" lon="10.4794260">
	<ele>2795.60</ele>
	<time>2023-08-07T11:54:09.000Z</time>
</trkpt>
<trkpt lat="46.1263510" lon="10.4794270">
	<ele>2795.60</ele>
	<time>2023-08-07T11:54:10.000Z</time>
</trkpt>
<trkpt lat="46.1263500" lon="10.4794270">
	<ele>2795.40</ele>
	<time>2023-08-07T11:54:11.000Z</time>
</trkpt>
<trkpt lat="46.1263500" lon="10.4794280">
	<ele>2795.40</ele>
	<time>2023-08-07T11:54:12.000Z</time>
</trkpt>
<trkpt lat="46.1263490" lon="10.4794280">
	<ele>2795.20</ele>
	<time>2023-08-07T11:54:13.000Z</time>
</trkpt>
<trkpt lat="46.1263490" lon="10.4794290">
	<ele>2795.20</ele>
	<time>2023-08-07T11:54:14.000Z</time>
</trkpt>
<trkpt lat="46.1263490" lon="10.4794300">
	<ele>2795.20</ele>
	<time>2023-08-07T11:54:15.000Z</time>
</trkpt>
<trkpt lat="46.1263480" lon="10.4794310">
	<ele>2795.20</ele>
	<time>2023-08-07T11:54:16.000Z</time>
</trkpt>
<trkpt lat="46.1263480" lon="10.4794310">
	<ele>2795.20</ele>
	<time>2023-08-07T11:54:17.000Z</time>
</trkpt>
<trkpt lat="46.1263470" lon="10.4794320">
	<ele>2795.20</ele>
	<time>2023-08-07T11:54:18.000Z</time>
</trkpt>
<trkpt lat="46.1263470" lon="10.4794320">
	<ele>2795.00</ele>
	<time>2023-08-07T11:54:19.000Z</time>
</trkpt>
<trkpt lat="46.1263470" lon="10.4794320">
	<ele>2794.80</ele>
	<time>2023-08-07T11:54:20.000Z</time>
</trkpt>
<trkpt lat="46.1263440" lon="10.4794360">
	<ele>2794.80</ele>
	<time>2023-08-07T11:54:21.000Z</time>
</trkpt>
<trkpt lat="46.1263390" lon="10.4794420">
	<ele>2794.80</ele>
	<time>2023-08-07T11:54:22.000Z</time>
</trkpt>
<trkpt lat="46.1263370" lon="10.4794440">
	<ele>2795.00</ele>
	<time>2023-08-07T11:54:23.000Z</time>
</trkpt>
<trkpt lat="46.1263350" lon="10.4794470">
	<ele>2795.20</ele>
	<time>2023-08-07T11:54:24.000Z</time>
</trkpt>
<trkpt lat="46.1263330" lon="10.4794510">
	<ele>2795.20</ele>
	<time>2023-08-07T11:54:25.000Z</time>
</trkpt>
<trkpt lat="46.1263310" lon="10.4794530">
	<ele>2795.20</ele>
	<time>2023-08-07T11:54:26.000Z</time>
</trkpt>
<trkpt lat="46.1263280" lon="10.4794560">
	<ele>2795.20</ele>
	<time>2023-08-07T11:54:27.000Z</time>
</trkpt>
<trkpt lat="46.1263240" lon="10.4794600">
	<ele>2795.40</ele>
	<time>2023-08-07T11:54:28.000Z</time>
</trkpt>
<trkpt lat="46.1263210" lon="10.4794650">
	<ele>2795.20</ele>
	<time>2023-08-07T11:54:29.000Z</time>
</trkpt>
<trkpt lat="46.1263200" lon="10.4794660">
	<ele>2795.20</ele>
	<time>2023-08-07T11:54:30.000Z</time>
</trkpt>
<trkpt lat="46.1263190" lon="10.4794670">
	<ele>2795.20</ele>
	<time>2023-08-07T11:54:31.000Z</time>
</trkpt>
<trkpt lat="46.1263160" lon="10.4794690">
	<ele>2795.00</ele>
	<time>2023-08-07T11:54:32.000Z</time>
</trkpt>
<trkpt lat="46.1263140" lon="10.4794710">
	<ele>2795.00</ele>
	<time>2023-08-07T11:54:33.000Z</time>
</trkpt>
<trkpt lat="46.1263140" lon="10.4794720">
	<ele>2794.80</ele>
	<time>2023-08-07T11:54:34.000Z</time>
</trkpt>
<trkpt lat="46.1263140" lon="10.4794740">
	<ele>2794.80</ele>
	<time>2023-08-07T11:54:35.000Z</time>
</trkpt>
<trkpt lat="46.1263140" lon="10.4794740">
	<ele>2794.80</ele>
	<time>2023-08-07T11:54:36.000Z</time>
</trkpt>
<trkpt lat="46.1263140" lon="10.4794740">
	<ele>2794.80</ele>
	<time>2023-08-07T11:54:37.000Z</time>
</trkpt>
<trkpt lat="46.1263140" lon="10.4794740">
	<ele>2794.80</ele>
	<time>2023-08-07T11:54:38.000Z</time>
</trkpt>
<trkpt lat="46.1263140" lon="10.4794740">
	<ele>2794.80</ele>
	<time>2023-08-07T11:54:39.000Z</time>
</trkpt>
<trkpt lat="46.1263140" lon="10.4794740">
	<ele>2794.80</ele>
	<time>2023-08-07T11:54:40.000Z</time>
</trkpt>
<trkpt lat="46.1263140" lon="10.4794740">
	<ele>2794.80</ele>
	<time>2023-08-07T11:54:41.000Z</time>
</trkpt>
<trkpt lat="46.1263140" lon="10.4794740">
	<ele>2794.60</ele>
	<time>2023-08-07T11:54:42.000Z</time>
</trkpt>
<trkpt lat="46.1263140" lon="10.4794740">
	<ele>2794.60</ele>
	<time>2023-08-07T11:54:43.000Z</time>
</trkpt>
<trkpt lat="46.1263140" lon="10.4794740">
	<ele>2794.60</ele>
	<time>2023-08-07T11:54:44.000Z</time>
</trkpt>
<trkpt lat="46.1263140" lon="10.4794740">
	<ele>2794.60</ele>
	<time>2023-08-07T11:54:45.000Z</time>
</trkpt>
<trkpt lat="46.1263140" lon="10.4794740">
	<ele>2794.80</ele>
	<time>2023-08-07T11:54:46.000Z</time>
</trkpt>
<trkpt lat="46.1263140" lon="10.4794730">
	<ele>2794.80</ele>
	<time>2023-08-07T11:54:47.000Z</time>
</trkpt>
<trkpt lat="46.1263140" lon="10.4794730">
	<ele>2794.80</ele>
	<time>2023-08-07T11:54:48.000Z</time>
</trkpt>
<trkpt lat="46.1263140" lon="10.4794730">
	<ele>2794.80</ele>
	<time>2023-08-07T11:54:49.000Z</time>
</trkpt>
<trkpt lat="46.1263140" lon="10.4794710">
	<ele>2794.80</ele>
	<time>2023-08-07T11:54:50.000Z</time>
</trkpt>
<trkpt lat="46.1263140" lon="10.4794710">
	<ele>2794.60</ele>
	<time>2023-08-07T11:54:51.000Z</time>
</trkpt>
<trkpt lat="46.1263140" lon="10.4794690">
	<ele>2794.60</ele>
	<time>2023-08-07T11:54:52.000Z</time>
</trkpt>
<trkpt lat="46.1263140" lon="10.4794690">
	<ele>2794.60</ele>
	<time>2023-08-07T11:54:53.000Z</time>
</trkpt>
<trkpt lat="46.1263140" lon="10.4794680">
	<ele>2794.60</ele>
	<time>2023-08-07T11:54:54.000Z</time>
</trkpt>
<trkpt lat="46.1263130" lon="10.4794670">
	<ele>2794.60</ele>
	<time>2023-08-07T11:54:55.000Z</time>
</trkpt>
<trkpt lat="46.1263120" lon="10.4794670">
	<ele>2794.60</ele>
	<time>2023-08-07T11:54:56.000Z</time>
</trkpt>
<trkpt lat="46.1263120" lon="10.4794670">
	<ele>2794.60</ele>
	<time>2023-08-07T11:54:57.000Z</time>
</trkpt>
<trkpt lat="46.1263120" lon="10.4794670">
	<ele>2794.60</ele>
	<time>2023-08-07T11:54:58.000Z</time>
</trkpt>
<trkpt lat="46.1263120" lon="10.4794660">
	<ele>2794.40</ele>
	<time>2023-08-07T11:54:59.000Z</time>
</trkpt>
<trkpt lat="46.1263110" lon="10.4794610">
	<ele>2794.40</ele>
	<time>2023-08-07T11:55:00.000Z</time>
</trkpt>
<trkpt lat="46.1263110" lon="10.4794580">
	<ele>2794.40</ele>
	<time>2023-08-07T11:55:01.000Z</time>
</trkpt>
<trkpt lat="46.1263110" lon="10.4794580">
	<ele>2794.40</ele>
	<time>2023-08-07T11:55:02.000Z</time>
</trkpt>
<trkpt lat="46.1263110" lon="10.4794580">
	<ele>2794.40</ele>
	<time>2023-08-07T11:55:03.000Z</time>
</trkpt>
<trkpt lat="46.1263110" lon="10.4794580">
	<ele>2794.40</ele>
	<time>2023-08-07T11:55:04.000Z</time>
</trkpt>
<trkpt lat="46.1263110" lon="10.4794580">
	<ele>2794.60</ele>
	<time>2023-08-07T11:55:05.000Z</time>
</trkpt>
<trkpt lat="46.1263100" lon="10.4794580">
	<ele>2794.60</ele>
	<time>2023-08-07T11:55:06.000Z</time>
</trkpt>
<trkpt lat="46.1263100" lon="10.4794580">
	<ele>2794.60</ele>
	<time>2023-08-07T11:55:07.000Z</time>
</trkpt>
<trkpt lat="46.1263110" lon="10.4794580">
	<ele>2794.60</ele>
	<time>2023-08-07T11:55:08.000Z</time>
</trkpt>
<trkpt lat="46.1263110" lon="10.4794580">
	<ele>2794.60</ele>
	<time>2023-08-07T11:55:09.000Z</time>
</trkpt>
<trkpt lat="46.1263110" lon="10.4794580">
	<ele>2794.40</ele>
	<time>2023-08-07T11:55:10.000Z</time>
</trkpt>
<trkpt lat="46.1263110" lon="10.4794580">
	<ele>2794.40</ele>
	<time>2023-08-07T11:55:11.000Z</time>
</trkpt>
<trkpt lat="46.1263110" lon="10.4794570">
	<ele>2794.20</ele>
	<time>2023-08-07T11:55:12.000Z</time>
</trkpt>
<trkpt lat="46.1263120" lon="10.4794570">
	<ele>2794.20</ele>
	<time>2023-08-07T11:55:13.000Z</time>
</trkpt>
<trkpt lat="46.1263120" lon="10.4794570">
	<ele>2794.20</ele>
	<time>2023-08-07T11:55:14.000Z</time>
</trkpt>
<trkpt lat="46.1263120" lon="10.4794570">
	<ele>2794.40</ele>
	<time>2023-08-07T11:55:15.000Z</time>
</trkpt>
<trkpt lat="46.1263120" lon="10.4794570">
	<ele>2794.60</ele>
	<time>2023-08-07T11:55:16.000Z</time>
</trkpt>
<trkpt lat="46.1263120" lon="10.4794570">
	<ele>2794.80</ele>
	<time>2023-08-07T11:55:17.000Z</time>
</trkpt>
<trkpt lat="46.1263120" lon="10.4794570">
	<ele>2794.80</ele>
	<time>2023-08-07T11:55:18.000Z</time>
</trkpt>
<trkpt lat="46.1263120" lon="10.4794570">
	<ele>2795.00</ele>
	<time>2023-08-07T11:55:19.000Z</time>
</trkpt>
<trkpt lat="46.1263120" lon="10.4794570">
	<ele>2795.20</ele>
	<time>2023-08-07T11:55:20.000Z</time>
</trkpt>
<trkpt lat="46.1263120" lon="10.4794570">
	<ele>2795.40</ele>
	<time>2023-08-07T11:55:21.000Z</time>
</trkpt>
<trkpt lat="46.1263120" lon="10.4794570">
	<ele>2795.60</ele>
	<time>2023-08-07T11:55:22.000Z</time>
</trkpt>
<trkpt lat="46.1263160" lon="10.4794550">
	<ele>2795.80</ele>
	<time>2023-08-07T11:55:23.000Z</time>
</trkpt>
<trkpt lat="46.1263190" lon="10.4794510">
	<ele>2795.80</ele>
	<time>2023-08-07T11:55:24.000Z</time>
</trkpt>
<trkpt lat="46.1263210" lon="10.4794480">
	<ele>2795.80</ele>
	<time>2023-08-07T11:55:25.000Z</time>
</trkpt>
<trkpt lat="46.1263220" lon="10.4794470">
	<ele>2795.80</ele>
	<time>2023-08-07T11:55:26.000Z</time>
</trkpt>
<trkpt lat="46.1263240" lon="10.4794460">
	<ele>2795.80</ele>
	<time>2023-08-07T11:55:27.000Z</time>
</trkpt>
<trkpt lat="46.1263250" lon="10.4794450">
	<ele>2795.80</ele>
	<time>2023-08-07T11:55:28.000Z</time>
</trkpt>
<trkpt lat="46.1263260" lon="10.4794450">
	<ele>2795.60</ele>
	<time>2023-08-07T11:55:29.000Z</time>
</trkpt>
<trkpt lat="46.1263260" lon="10.4794430">
	<ele>2795.60</ele>
	<time>2023-08-07T11:55:30.000Z</time>
</trkpt>
<trkpt lat="46.1263270" lon="10.4794420">
	<ele>2795.60</ele>
	<time>2023-08-07T11:55:31.000Z</time>
</trkpt>
<trkpt lat="46.1263270" lon="10.4794420">
	<ele>2795.60</ele>
	<time>2023-08-07T11:55:32.000Z</time>
</trkpt>
<trkpt lat="46.1263280" lon="10.4794420">
	<ele>2795.60</ele>
	<time>2023-08-07T11:55:33.000Z</time>
</trkpt>
<trkpt lat="46.1263280" lon="10.4794420">
	<ele>2795.40</ele>
	<time>2023-08-07T11:55:34.000Z</time>
</trkpt>
<trkpt lat="46.1263280" lon="10.4794420">
	<ele>2795.40</ele>
	<time>2023-08-07T11:55:35.000Z</time>
</trkpt>
<trkpt lat="46.1263280" lon="10.4794420">
	<ele>2795.40</ele>
	<time>2023-08-07T11:55:36.000Z</time>
</trkpt>
<trkpt lat="46.1263280" lon="10.4794420">
	<ele>2795.40</ele>
	<time>2023-08-07T11:55:37.000Z</time>
</trkpt>
<trkpt lat="46.1263280" lon="10.4794420">
	<ele>2795.40</ele>
	<time>2023-08-07T11:55:38.000Z</time>
</trkpt>
<trkpt lat="46.1263280" lon="10.4794420">
	<ele>2795.60</ele>
	<time>2023-08-07T11:55:39.000Z</time>
</trkpt>
<trkpt lat="46.1263280" lon="10.4794420">
	<ele>2795.60</ele>
	<time>2023-08-07T11:55:40.000Z</time>
</trkpt>
<trkpt lat="46.1263280" lon="10.4794420">
	<ele>2795.60</ele>
	<time>2023-08-07T11:55:41.000Z</time>
</trkpt>
<trkpt lat="46.1263280" lon="10.4794420">
	<ele>2795.60</ele>
	<time>2023-08-07T11:55:42.000Z</time>
</trkpt>
<trkpt lat="46.1263280" lon="10.4794420">
	<ele>2795.40</ele>
	<time>2023-08-07T11:55:43.000Z</time>
</trkpt>
<trkpt lat="46.1263280" lon="10.4794430">
	<ele>2795.40</ele>
	<time>2023-08-07T11:55:44.000Z</time>
</trkpt>
<trkpt lat="46.1263280" lon="10.4794430">
	<ele>2795.40</ele>
	<time>2023-08-07T11:55:45.000Z</time>
</trkpt>
<trkpt lat="46.1263270" lon="10.4794440">
	<ele>2795.60</ele>
	<time>2023-08-07T11:55:46.000Z</time>
</trkpt>
<trkpt lat="46.1263270" lon="10.4794450">
	<ele>2795.60</ele>
	<time>2023-08-07T11:55:47.000Z</time>
</trkpt>
<trkpt lat="46.1263260" lon="10.4794450">
	<ele>2796.20</ele>
	<time>2023-08-07T11:55:48.000Z</time>
</trkpt>
<trkpt lat="46.1263230" lon="10.4794460">
	<ele>2796.40</ele>
	<time>2023-08-07T11:55:49.000Z</time>
</trkpt>
<trkpt lat="46.1263200" lon="10.4794470">
	<ele>2796.60</ele>
	<time>2023-08-07T11:55:50.000Z</time>
</trkpt>
<trkpt lat="46.1263180" lon="10.4794490">
	<ele>2796.60</ele>
	<time>2023-08-07T11:55:51.000Z</time>
</trkpt>
<trkpt lat="46.1263160" lon="10.4794500">
	<ele>2796.60</ele>
	<time>2023-08-07T11:55:52.000Z</time>
</trkpt>
<trkpt lat="46.1263140" lon="10.4794510">
	<ele>2796.60</ele>
	<time>2023-08-07T11:55:53.000Z</time>
</trkpt>
<trkpt lat="46.1263130" lon="10.4794510">
	<ele>2796.60</ele>
	<time>2023-08-07T11:55:54.000Z</time>
</trkpt>
<trkpt lat="46.1263120" lon="10.4794520">
	<ele>2796.40</ele>
	<time>2023-08-07T11:55:55.000Z</time>
</trkpt>
<trkpt lat="46.1263120" lon="10.4794520">
	<ele>2796.20</ele>
	<time>2023-08-07T11:55:56.000Z</time>
</trkpt>
<trkpt lat="46.1263120" lon="10.4794530">
	<ele>2796.20</ele>
	<time>2023-08-07T11:55:57.000Z</time>
</trkpt>
<trkpt lat="46.1263110" lon="10.4794540">
	<ele>2796.00</ele>
	<time>2023-08-07T11:55:58.000Z</time>
</trkpt>
<trkpt lat="46.1263110" lon="10.4794540">
	<ele>2795.80</ele>
	<time>2023-08-07T11:55:59.000Z</time>
</trkpt>
<trkpt lat="46.1263110" lon="10.4794540">
	<ele>2795.80</ele>
	<time>2023-08-07T11:56:00.000Z</time>
</trkpt>
<trkpt lat="46.1263110" lon="10.4794540">
	<ele>2795.80</ele>
	<time>2023-08-07T11:56:01.000Z</time>
</trkpt>
<trkpt lat="46.1263110" lon="10.4794540">
	<ele>2796.00</ele>
	<time>2023-08-07T11:56:02.000Z</time>
</trkpt>
<trkpt lat="46.1263110" lon="10.4794540">
	<ele>2796.00</ele>
	<time>2023-08-07T11:56:03.000Z</time>
</trkpt>
<trkpt lat="46.1263110" lon="10.4794540">
	<ele>2796.00</ele>
	<time>2023-08-07T11:56:04.000Z</time>
</trkpt>
<trkpt lat="46.1263110" lon="10.4794540">
	<ele>2796.00</ele>
	<time>2023-08-07T11:56:05.000Z</time>
</trkpt>
<trkpt lat="46.1263110" lon="10.4794540">
	<ele>2796.00</ele>
	<time>2023-08-07T11:56:06.000Z</time>
</trkpt>
<trkpt lat="46.1263110" lon="10.4794540">
	<ele>2796.00</ele>
	<time>2023-08-07T11:56:07.000Z</time>
</trkpt>
<trkpt lat="46.1263110" lon="10.4794540">
	<ele>2795.80</ele>
	<time>2023-08-07T11:56:08.000Z</time>
</trkpt>
<trkpt lat="46.1263110" lon="10.4794540">
	<ele>2795.60</ele>
	<time>2023-08-07T11:56:09.000Z</time>
</trkpt>
<trkpt lat="46.1263110" lon="10.4794540">
	<ele>2795.60</ele>
	<time>2023-08-07T11:56:10.000Z</time>
</trkpt>
<trkpt lat="46.1263110" lon="10.4794540">
	<ele>2795.40</ele>
	<time>2023-08-07T11:56:11.000Z</time>
</trkpt>
<trkpt lat="46.1263110" lon="10.4794540">
	<ele>2795.40</ele>
	<time>2023-08-07T11:56:12.000Z</time>
</trkpt>
<trkpt lat="46.1263120" lon="10.4794530">
	<ele>2795.40</ele>
	<time>2023-08-07T11:56:13.000Z</time>
</trkpt>
<trkpt lat="46.1263120" lon="10.4794530">
	<ele>2795.20</ele>
	<time>2023-08-07T11:56:14.000Z</time>
</trkpt>
<trkpt lat="46.1263120" lon="10.4794530">
	<ele>2795.40</ele>
	<time>2023-08-07T11:56:15.000Z</time>
</trkpt>
<trkpt lat="46.1263120" lon="10.4794530">
	<ele>2795.40</ele>
	<time>2023-08-07T11:56:16.000Z</time>
</trkpt>
<trkpt lat="46.1263120" lon="10.4794530">
	<ele>2795.40</ele>
	<time>2023-08-07T11:56:17.000Z</time>
</trkpt>
<trkpt lat="46.1263130" lon="10.4794530">
	<ele>2795.60</ele>
	<time>2023-08-07T11:56:18.000Z</time>
</trkpt>
<trkpt lat="46.1263130" lon="10.4794530">
	<ele>2795.60</ele>
	<time>2023-08-07T11:56:19.000Z</time>
</trkpt>
<trkpt lat="46.1263130" lon="10.4794530">
	<ele>2795.60</ele>
	<time>2023-08-07T11:56:20.000Z</time>
</trkpt>
<trkpt lat="46.1263130" lon="10.4794530">
	<ele>2795.60</ele>
	<time>2023-08-07T11:56:21.000Z</time>
</trkpt>
<trkpt lat="46.1263130" lon="10.4794540">
	<ele>2795.60</ele>
	<time>2023-08-07T11:56:22.000Z</time>
</trkpt>
<trkpt lat="46.1263130" lon="10.4794540">
	<ele>2795.60</ele>
	<time>2023-08-07T11:56:23.000Z</time>
</trkpt>
<trkpt lat="46.1263140" lon="10.4794540">
	<ele>2795.60</ele>
	<time>2023-08-07T11:56:24.000Z</time>
</trkpt>
<trkpt lat="46.1263140" lon="10.4794530">
	<ele>2795.40</ele>
	<time>2023-08-07T11:56:25.000Z</time>
</trkpt>
<trkpt lat="46.1263140" lon="10.4794530">
	<ele>2795.40</ele>
	<time>2023-08-07T11:56:26.000Z</time>
</trkpt>
<trkpt lat="46.1263140" lon="10.4794530">
	<ele>2795.40</ele>
	<time>2023-08-07T11:56:27.000Z</time>
</trkpt>
<trkpt lat="46.1263140" lon="10.4794530">
	<ele>2795.40</ele>
	<time>2023-08-07T11:56:28.000Z</time>
</trkpt>
<trkpt lat="46.1263140" lon="10.4794530">
	<ele>2795.40</ele>
	<time>2023-08-07T11:56:29.000Z</time>
</trkpt>
<trkpt lat="46.1263140" lon="10.4794530">
	<ele>2795.40</ele>
	<time>2023-08-07T11:56:30.000Z</time>
</trkpt>
<trkpt lat="46.1263150" lon="10.4794520">
	<ele>2795.40</ele>
	<time>2023-08-07T11:56:31.000Z</time>
</trkpt>
<trkpt lat="46.1263150" lon="10.4794520">
	<ele>2795.60</ele>
	<time>2023-08-07T11:56:32.000Z</time>
</trkpt>
<trkpt lat="46.1263160" lon="10.4794520">
	<ele>2795.60</ele>
	<time>2023-08-07T11:56:33.000Z</time>
</trkpt>
<trkpt lat="46.1263160" lon="10.4794520">
	<ele>2795.60</ele>
	<time>2023-08-07T11:56:34.000Z</time>
</trkpt>
<trkpt lat="46.1263160" lon="10.4794510">
	<ele>2795.60</ele>
	<time>2023-08-07T11:56:35.000Z</time>
</trkpt>
<trkpt lat="46.1263170" lon="10.4794510">
	<ele>2795.60</ele>
	<time>2023-08-07T11:56:36.000Z</time>
</trkpt>
<trkpt lat="46.1263170" lon="10.4794510">
	<ele>2795.60</ele>
	<time>2023-08-07T11:56:37.000Z</time>
</trkpt>
<trkpt lat="46.1263170" lon="10.4794510">
	<ele>2795.60</ele>
	<time>2023-08-07T11:56:38.000Z</time>
</trkpt>
<trkpt lat="46.1263180" lon="10.4794510">
	<ele>2795.60</ele>
	<time>2023-08-07T11:56:39.000Z</time>
</trkpt>
<trkpt lat="46.1263180" lon="10.4794510">
	<ele>2795.60</ele>
	<time>2023-08-07T11:56:40.000Z</time>
</trkpt>
<trkpt lat="46.1263190" lon="10.4794510">
	<ele>2795.80</ele>
	<time>2023-08-07T11:56:41.000Z</time>
</trkpt>
<trkpt lat="46.1263190" lon="10.4794510">
	<ele>2795.80</ele>
	<time>2023-08-07T11:56:42.000Z</time>
</trkpt>
<trkpt lat="46.1263190" lon="10.4794510">
	<ele>2795.80</ele>
	<time>2023-08-07T11:56:43.000Z</time>
</trkpt>
<trkpt lat="46.1263200" lon="10.4794510">
	<ele>2795.80</ele>
	<time>2023-08-07T11:56:44.000Z</time>
</trkpt>
<trkpt lat="46.1263200" lon="10.4794500">
	<ele>2795.80</ele>
	<time>2023-08-07T11:56:45.000Z</time>
</trkpt>
<trkpt lat="46.1263200" lon="10.4794490">
	<ele>2795.60</ele>
	<time>2023-08-07T11:56:46.000Z</time>
</trkpt>
<trkpt lat="46.1263200" lon="10.4794490">
	<ele>2795.40</ele>
	<time>2023-08-07T11:56:47.000Z</time>
</trkpt>
<trkpt lat="46.1263210" lon="10.4794480">
	<ele>2795.40</ele>
	<time>2023-08-07T11:56:48.000Z</time>
</trkpt>
<trkpt lat="46.1263210" lon="10.4794480">
	<ele>2795.40</ele>
	<time>2023-08-07T11:56:49.000Z</time>
</trkpt>
<trkpt lat="46.1263210" lon="10.4794470">
	<ele>2795.40</ele>
	<time>2023-08-07T11:56:50.000Z</time>
</trkpt>
<trkpt lat="46.1263220" lon="10.4794470">
	<ele>2795.40</ele>
	<time>2023-08-07T11:56:51.000Z</time>
</trkpt>
<trkpt lat="46.1263220" lon="10.4794470">
	<ele>2795.40</ele>
	<time>2023-08-07T11:56:52.000Z</time>
</trkpt>
<trkpt lat="46.1263220" lon="10.4794460">
	<ele>2795.40</ele>
	<time>2023-08-07T11:56:53.000Z</time>
</trkpt>
<trkpt lat="46.1263230" lon="10.4794460">
	<ele>2795.40</ele>
	<time>2023-08-07T11:56:54.000Z</time>
</trkpt>
<trkpt lat="46.1263230" lon="10.4794460">
	<ele>2795.40</ele>
	<time>2023-08-07T11:56:55.000Z</time>
</trkpt>
<trkpt lat="46.1263230" lon="10.4794460">
	<ele>2795.40</ele>
	<time>2023-08-07T11:56:56.000Z</time>
</trkpt>
<trkpt lat="46.1263230" lon="10.4794450">
	<ele>2795.60</ele>
	<time>2023-08-07T11:56:57.000Z</time>
</trkpt>
<trkpt lat="46.1263230" lon="10.4794440">
	<ele>2795.60</ele>
	<time>2023-08-07T11:56:58.000Z</time>
</trkpt>
<trkpt lat="46.1263230" lon="10.4794440">
	<ele>2795.60</ele>
	<time>2023-08-07T11:56:59.000Z</time>
</trkpt>
<trkpt lat="46.1263230" lon="10.4794430">
	<ele>2795.60</ele>
	<time>2023-08-07T11:57:00.000Z</time>
</trkpt>
<trkpt lat="46.1263230" lon="10.4794420">
	<ele>2795.80</ele>
	<time>2023-08-07T11:57:01.000Z</time>
</trkpt>
<trkpt lat="46.1263230" lon="10.4794410">
	<ele>2795.80</ele>
	<time>2023-08-07T11:57:02.000Z</time>
</trkpt>
<trkpt lat="46.1263230" lon="10.4794410">
	<ele>2795.60</ele>
	<time>2023-08-07T11:57:03.000Z</time>
</trkpt>
<trkpt lat="46.1263230" lon="10.4794400">
	<ele>2795.60</ele>
	<time>2023-08-07T11:57:04.000Z</time>
</trkpt>
<trkpt lat="46.1263230" lon="10.4794400">
	<ele>2795.60</ele>
	<time>2023-08-07T11:57:05.000Z</time>
</trkpt>
<trkpt lat="46.1263230" lon="10.4794400">
	<ele>2795.60</ele>
	<time>2023-08-07T11:57:06.000Z</time>
</trkpt>
<trkpt lat="46.1263230" lon="10.4794390">
	<ele>2795.60</ele>
	<time>2023-08-07T11:57:07.000Z</time>
</trkpt>
<trkpt lat="46.1263230" lon="10.4794390">
	<ele>2795.40</ele>
	<time>2023-08-07T11:57:08.000Z</time>
</trkpt>
<trkpt lat="46.1263230" lon="10.4794390">
	<ele>2795.40</ele>
	<time>2023-08-07T11:57:09.000Z</time>
</trkpt>
<trkpt lat="46.1263240" lon="10.4794390">
	<ele>2795.40</ele>
	<time>2023-08-07T11:57:10.000Z</time>
</trkpt>
<trkpt lat="46.1263240" lon="10.4794390">
	<ele>2795.40</ele>
	<time>2023-08-07T11:57:11.000Z</time>
</trkpt>
<trkpt lat="46.1263240" lon="10.4794390">
	<ele>2795.40</ele>
	<time>2023-08-07T11:57:12.000Z</time>
</trkpt>
<trkpt lat="46.1263240" lon="10.4794390">
	<ele>2795.40</ele>
	<time>2023-08-07T11:57:13.000Z</time>
</trkpt>
<trkpt lat="46.1263250" lon="10.4794380">
	<ele>2795.60</ele>
	<time>2023-08-07T11:57:14.000Z</time>
</trkpt>
<trkpt lat="46.1263250" lon="10.4794380">
	<ele>2795.60</ele>
	<time>2023-08-07T11:57:15.000Z</time>
</trkpt>
<trkpt lat="46.1263250" lon="10.4794380">
	<ele>2795.80</ele>
	<time>2023-08-07T11:57:16.000Z</time>
</trkpt>
<trkpt lat="46.1263250" lon="10.4794370">
	<ele>2796.00</ele>
	<time>2023-08-07T11:57:17.000Z</time>
</trkpt>
<trkpt lat="46.1263250" lon="10.4794370">
	<ele>2796.00</ele>
	<time>2023-08-07T11:57:18.000Z</time>
</trkpt>
<trkpt lat="46.1263250" lon="10.4794370">
	<ele>2796.20</ele>
	<time>2023-08-07T11:57:19.000Z</time>
</trkpt>
<trkpt lat="46.1263250" lon="10.4794370">
	<ele>2796.20</ele>
	<time>2023-08-07T11:57:20.000Z</time>
</trkpt>
<trkpt lat="46.1263250" lon="10.4794370">
	<ele>2796.20</ele>
	<time>2023-08-07T11:57:21.000Z</time>
</trkpt>
<trkpt lat="46.1263250" lon="10.4794360">
	<ele>2796.20</ele>
	<time>2023-08-07T11:57:22.000Z</time>
</trkpt>
<trkpt lat="46.1263250" lon="10.4794360">
	<ele>2796.20</ele>
	<time>2023-08-07T11:57:23.000Z</time>
</trkpt>
<trkpt lat="46.1263250" lon="10.4794360">
	<ele>2796.20</ele>
	<time>2023-08-07T11:57:24.000Z</time>
</trkpt>
<trkpt lat="46.1263250" lon="10.4794350">
	<ele>2796.20</ele>
	<time>2023-08-07T11:57:25.000Z</time>
</trkpt>
<trkpt lat="46.1263230" lon="10.4794320">
	<ele>2796.20</ele>
	<time>2023-08-07T11:57:26.000Z</time>
</trkpt>
<trkpt lat="46.1263220" lon="10.4794300">
	<ele>2796.40</ele>
	<time>2023-08-07T11:57:27.000Z</time>
</trkpt>
<trkpt lat="46.1263210" lon="10.4794280">
	<ele>2796.40</ele>
	<time>2023-08-07T11:57:28.000Z</time>
</trkpt>
<trkpt lat="46.1263210" lon="10.4794250">
	<ele>2796.60</ele>
	<time>2023-08-07T11:57:29.000Z</time>
</trkpt>
<trkpt lat="46.1263210" lon="10.4794250">
	<ele>2796.60</ele>
	<time>2023-08-07T11:57:30.000Z</time>
</trkpt>
<trkpt lat="46.1263210" lon="10.4794250">
	<ele>2796.60</ele>
	<time>2023-08-07T11:57:31.000Z</time>
</trkpt>
<trkpt lat="46.1263210" lon="10.4794250">
	<ele>2796.60</ele>
	<time>2023-08-07T11:57:32.000Z</time>
</trkpt>
<trkpt lat="46.1263210" lon="10.4794250">
	<ele>2796.60</ele>
	<time>2023-08-07T11:57:33.000Z</time>
</trkpt>
<trkpt lat="46.1263210" lon="10.4794250">
	<ele>2796.60</ele>
	<time>2023-08-07T11:57:34.000Z</time>
</trkpt>
<trkpt lat="46.1263210" lon="10.4794250">
	<ele>2796.40</ele>
	<time>2023-08-07T11:57:35.000Z</time>
</trkpt>
<trkpt lat="46.1263210" lon="10.4794250">
	<ele>2796.40</ele>
	<time>2023-08-07T11:57:36.000Z</time>
</trkpt>
<trkpt lat="46.1263210" lon="10.4794250">
	<ele>2796.40</ele>
	<time>2023-08-07T11:57:37.000Z</time>
</trkpt>
<trkpt lat="46.1263210" lon="10.4794250">
	<ele>2796.20</ele>
	<time>2023-08-07T11:57:38.000Z</time>
</trkpt>
<trkpt lat="46.1263210" lon="10.4794230">
	<ele>2796.20</ele>
	<time>2023-08-07T11:57:39.000Z</time>
</trkpt>
<trkpt lat="46.1263210" lon="10.4794190">
	<ele>2796.20</ele>
	<time>2023-08-07T11:57:40.000Z</time>
</trkpt>
<trkpt lat="46.1263220" lon="10.4794180">
	<ele>2796.20</ele>
	<time>2023-08-07T11:57:41.000Z</time>
</trkpt>
<trkpt lat="46.1263230" lon="10.4794170">
	<ele>2796.20</ele>
	<time>2023-08-07T11:57:42.000Z</time>
</trkpt>
<trkpt lat="46.1263250" lon="10.4794170">
	<ele>2796.00</ele>
	<time>2023-08-07T11:57:43.000Z</time>
</trkpt>
<trkpt lat="46.1263250" lon="10.4794170">
	<ele>2796.00</ele>
	<time>2023-08-07T11:57:44.000Z</time>
</trkpt>
<trkpt lat="46.1263260" lon="10.4794170">
	<ele>2795.80</ele>
	<time>2023-08-07T11:57:45.000Z</time>
</trkpt>
<trkpt lat="46.1263260" lon="10.4794160">
	<ele>2795.80</ele>
	<time>2023-08-07T11:57:46.000Z</time>
</trkpt>
<trkpt lat="46.1263270" lon="10.4794100">
	<ele>2795.60</ele>
	<time>2023-08-07T11:57:47.000Z</time>
</trkpt>
<trkpt lat="46.1263270" lon="10.4794090">
	<ele>2795.40</ele>
	<time>2023-08-07T11:57:48.000Z</time>
</trkpt>
<trkpt lat="46.1263280" lon="10.4794080">
	<ele>2795.40</ele>
	<time>2023-08-07T11:57:49.000Z</time>
</trkpt>
<trkpt lat="46.1263280" lon="10.4794070">
	<ele>2795.20</ele>
	<time>2023-08-07T11:57:50.000Z</time>
</trkpt>
<trkpt lat="46.1263280" lon="10.4794070">
	<ele>2795.20</ele>
	<time>2023-08-07T11:57:51.000Z</time>
</trkpt>
<trkpt lat="46.1263280" lon="10.4794070">
	<ele>2795.00</ele>
	<time>2023-08-07T11:57:52.000Z</time>
</trkpt>
<trkpt lat="46.1263280" lon="10.4794060">
	<ele>2795.00</ele>
	<time>2023-08-07T11:57:53.000Z</time>
</trkpt>
<trkpt lat="46.1263310" lon="10.4794030">
	<ele>2795.00</ele>
	<time>2023-08-07T11:57:54.000Z</time>
</trkpt>
<trkpt lat="46.1263370" lon="10.4793960">
	<ele>2795.00</ele>
	<time>2023-08-07T11:57:55.000Z</time>
</trkpt>
<trkpt lat="46.1263370" lon="10.4793900">
	<ele>2794.80</ele>
	<time>2023-08-07T11:57:56.000Z</time>
</trkpt>
<trkpt lat="46.1263440" lon="10.4793920">
	<ele>2794.80</ele>
	<time>2023-08-07T11:57:57.000Z</time>
</trkpt>
<trkpt lat="46.1263470" lon="10.4793970">
	<ele>2794.80</ele>
	<time>2023-08-07T11:57:58.000Z</time>
</trkpt>
<trkpt lat="46.1263520" lon="10.4793960">
	<ele>2794.80</ele>
	<time>2023-08-07T11:57:59.000Z</time>
</trkpt>
<trkpt lat="46.1263540" lon="10.4793980">
	<ele>2795.00</ele>
	<time>2023-08-07T11:58:00.000Z</time>
</trkpt>
<trkpt lat="46.1263550" lon="10.4793970">
	<ele>2795.20</ele>
	<time>2023-08-07T11:58:01.000Z</time>
</trkpt>
<trkpt lat="46.1263580" lon="10.4793940">
	<ele>2795.20</ele>
	<time>2023-08-07T11:58:02.000Z</time>
</trkpt>
<trkpt lat="46.1263560" lon="10.4793950">
	<ele>2795.00</ele>
	<time>2023-08-07T11:58:03.000Z</time>
</trkpt>
<trkpt lat="46.1263530" lon="10.4793970">
	<ele>2795.00</ele>
	<time>2023-08-07T11:58:04.000Z</time>
</trkpt>
<trkpt lat="46.1263530" lon="10.4793930">
	<ele>2795.00</ele>
	<time>2023-08-07T11:58:05.000Z</time>
</trkpt>
<trkpt lat="46.1263510" lon="10.4793920">
	<ele>2795.00</ele>
	<time>2023-08-07T11:58:06.000Z</time>
</trkpt>
<trkpt lat="46.1263490" lon="10.4793930">
	<ele>2795.00</ele>
	<time>2023-08-07T11:58:07.000Z</time>
</trkpt>
<trkpt lat="46.1263490" lon="10.4793930">
	<ele>2795.00</ele>
	<time>2023-08-07T11:58:08.000Z</time>
</trkpt>
<trkpt lat="46.1263530" lon="10.4793900">
	<ele>2795.00</ele>
	<time>2023-08-07T11:58:09.000Z</time>
</trkpt>
<trkpt lat="46.1263580" lon="10.4793910">
	<ele>2795.00</ele>
	<time>2023-08-07T11:58:10.000Z</time>
</trkpt>
<trkpt lat="46.1263600" lon="10.4793860">
	<ele>2795.00</ele>
	<time>2023-08-07T11:58:11.000Z</time>
</trkpt>
<trkpt lat="46.1263590" lon="10.4793860">
	<ele>2795.00</ele>
	<time>2023-08-07T11:58:12.000Z</time>
</trkpt>
<trkpt lat="46.1263590" lon="10.4793850">
	<ele>2795.00</ele>
	<time>2023-08-07T11:58:13.000Z</time>
</trkpt>
<trkpt lat="46.1263590" lon="10.4793850">
	<ele>2795.00</ele>
	<time>2023-08-07T11:58:14.000Z</time>
</trkpt>
<trkpt lat="46.1263590" lon="10.4793850">
	<ele>2795.00</ele>
	<time>2023-08-07T11:58:15.000Z</time>
</trkpt>
<trkpt lat="46.1263590" lon="10.4793850">
	<ele>2795.00</ele>
	<time>2023-08-07T11:58:16.000Z</time>
</trkpt>
<trkpt lat="46.1263590" lon="10.4793850">
	<ele>2795.00</ele>
	<time>2023-08-07T11:58:17.000Z</time>
</trkpt>
<trkpt lat="46.1263590" lon="10.4793850">
	<ele>2795.00</ele>
	<time>2023-08-07T11:58:18.000Z</time>
</trkpt>
<trkpt lat="46.1263590" lon="10.4793850">
	<ele>2795.00</ele>
	<time>2023-08-07T11:58:19.000Z</time>
</trkpt>
<trkpt lat="46.1263590" lon="10.4793850">
	<ele>2795.00</ele>
	<time>2023-08-07T11:58:20.000Z</time>
</trkpt>
<trkpt lat="46.1263590" lon="10.4793850">
	<ele>2795.00</ele>
	<time>2023-08-07T11:58:21.000Z</time>
</trkpt>
<trkpt lat="46.1263590" lon="10.4793850">
	<ele>2795.00</ele>
	<time>2023-08-07T11:58:22.000Z</time>
</trkpt>
<trkpt lat="46.1263590" lon="10.4793850">
	<ele>2795.00</ele>
	<time>2023-08-07T11:58:23.000Z</time>
</trkpt>
<trkpt lat="46.1263590" lon="10.4793850">
	<ele>2795.00</ele>
	<time>2023-08-07T11:58:24.000Z</time>
</trkpt>
<trkpt lat="46.1263590" lon="10.4793850">
	<ele>2795.00</ele>
	<time>2023-08-07T11:58:25.000Z</time>
</trkpt>
<trkpt lat="46.1263590" lon="10.4793850">
	<ele>2795.00</ele>
	<time>2023-08-07T11:58:26.000Z</time>
</trkpt>
<trkpt lat="46.1263590" lon="10.4793850">
	<ele>2795.00</ele>
	<time>2023-08-07T11:58:27.000Z</time>
</trkpt>
<trkpt lat="46.1263590" lon="10.4793850">
	<ele>2795.00</ele>
	<time>2023-08-07T11:58:28.000Z</time>
</trkpt>
<trkpt lat="46.1263590" lon="10.4793850">
	<ele>2795.00</ele>
	<time>2023-08-07T11:58:29.000Z</time>
</trkpt>
<trkpt lat="46.1263590" lon="10.4793850">
	<ele>2795.00</ele>
	<time>2023-08-07T11:58:30.000Z</time>
</trkpt>
<trkpt lat="46.1263590" lon="10.4793850">
	<ele>2795.00</ele>
	<time>2023-08-07T11:58:31.000Z</time>
</trkpt>
<trkpt lat="46.1263600" lon="10.4793840">
	<ele>2795.00</ele>
	<time>2023-08-07T11:58:32.000Z</time>
</trkpt>
<trkpt lat="46.1263610" lon="10.4793840">
	<ele>2795.00</ele>
	<time>2023-08-07T11:58:33.000Z</time>
</trkpt>
<trkpt lat="46.1263620" lon="10.4793830">
	<ele>2795.00</ele>
	<time>2023-08-07T11:58:34.000Z</time>
</trkpt>
<trkpt lat="46.1263640" lon="10.4793830">
	<ele>2795.00</ele>
	<time>2023-08-07T11:58:35.000Z</time>
</trkpt>
<trkpt lat="46.1263660" lon="10.4793830">
	<ele>2795.00</ele>
	<time>2023-08-07T11:58:36.000Z</time>
</trkpt>
<trkpt lat="46.1263670" lon="10.4793830">
	<ele>2795.00</ele>
	<time>2023-08-07T11:58:37.000Z</time>
</trkpt>
<trkpt lat="46.1263680" lon="10.4793820">
	<ele>2795.00</ele>
	<time>2023-08-07T11:58:38.000Z</time>
</trkpt>
<trkpt lat="46.1263680" lon="10.4793810">
	<ele>2795.00</ele>
	<time>2023-08-07T11:58:39.000Z</time>
</trkpt>
<trkpt lat="46.1263680" lon="10.4793810">
	<ele>2795.00</ele>
	<time>2023-08-07T11:58:40.000Z</time>
</trkpt>
<trkpt lat="46.1263690" lon="10.4793800">
	<ele>2795.00</ele>
	<time>2023-08-07T11:58:41.000Z</time>
</trkpt>
<trkpt lat="46.1263690" lon="10.4793790">
	<ele>2795.00</ele>
	<time>2023-08-07T11:58:42.000Z</time>
</trkpt>
<trkpt lat="46.1263700" lon="10.4793790">
	<ele>2795.00</ele>
	<time>2023-08-07T11:58:43.000Z</time>
</trkpt>
<trkpt lat="46.1263730" lon="10.4793790">
	<ele>2795.00</ele>
	<time>2023-08-07T11:58:44.000Z</time>
</trkpt>
<trkpt lat="46.1263770" lon="10.4793790">
	<ele>2795.00</ele>
	<time>2023-08-07T11:58:45.000Z</time>
</trkpt>
<trkpt lat="46.1263800" lon="10.4793790">
	<ele>2795.00</ele>
	<time>2023-08-07T11:58:46.000Z</time>
</trkpt>
<trkpt lat="46.1263800" lon="10.4793790">
	<ele>2795.00</ele>
	<time>2023-08-07T11:58:47.000Z</time>
</trkpt>
<trkpt lat="46.1263810" lon="10.4793790">
	<ele>2795.00</ele>
	<time>2023-08-07T11:58:48.000Z</time>
</trkpt>
<trkpt lat="46.1263860" lon="10.4793790">
	<ele>2795.00</ele>
	<time>2023-08-07T11:58:49.000Z</time>
</trkpt>
<trkpt lat="46.1263880" lon="10.4793790">
	<ele>2795.00</ele>
	<time>2023-08-07T11:58:50.000Z</time>
</trkpt>
<trkpt lat="46.1263880" lon="10.4793790">
	<ele>2795.00</ele>
	<time>2023-08-07T11:58:51.000Z</time>
</trkpt>
<trkpt lat="46.1263890" lon="10.4793790">
	<ele>2795.00</ele>
	<time>2023-08-07T11:58:52.000Z</time>
</trkpt>
<trkpt lat="46.1263890" lon="10.4793790">
	<ele>2795.00</ele>
	<time>2023-08-07T11:58:53.000Z</time>
</trkpt>
<trkpt lat="46.1263890" lon="10.4793790">
	<ele>2795.00</ele>
	<time>2023-08-07T11:58:54.000Z</time>
</trkpt>
<trkpt lat="46.1263890" lon="10.4793790">
	<ele>2795.00</ele>
	<time>2023-08-07T11:58:55.000Z</time>
</trkpt>
<trkpt lat="46.1263890" lon="10.4793790">
	<ele>2795.00</ele>
	<time>2023-08-07T11:58:56.000Z</time>
</trkpt>
<trkpt lat="46.1263890" lon="10.4793790">
	<ele>2795.00</ele>
	<time>2023-08-07T11:58:57.000Z</time>
</trkpt>
<trkpt lat="46.1263890" lon="10.4793790">
	<ele>2795.00</ele>
	<time>2023-08-07T11:58:58.000Z</time>
</trkpt>
<trkpt lat="46.1263890" lon="10.4793790">
	<ele>2795.00</ele>
	<time>2023-08-07T11:58:59.000Z</time>
</trkpt>
<trkpt lat="46.1263890" lon="10.4793790">
	<ele>2795.00</ele>
	<time>2023-08-07T11:59:00.000Z</time>
</trkpt>
<trkpt lat="46.1263890" lon="10.4793800">
	<ele>2795.00</ele>
	<time>2023-08-07T11:59:01.000Z</time>
</trkpt>
<trkpt lat="46.1263890" lon="10.4793830">
	<ele>2795.00</ele>
	<time>2023-08-07T11:59:02.000Z</time>
</trkpt>
<trkpt lat="46.1263890" lon="10.4793840">
	<ele>2795.00</ele>
	<time>2023-08-07T11:59:03.000Z</time>
</trkpt>
<trkpt lat="46.1263890" lon="10.4793850">
	<ele>2795.00</ele>
	<time>2023-08-07T11:59:04.000Z</time>
</trkpt>
<trkpt lat="46.1263890" lon="10.4793860">
	<ele>2795.00</ele>
	<time>2023-08-07T11:59:05.000Z</time>
</trkpt>
<trkpt lat="46.1263890" lon="10.4793860">
	<ele>2795.00</ele>
	<time>2023-08-07T11:59:06.000Z</time>
</trkpt>
<trkpt lat="46.1263890" lon="10.4793870">
	<ele>2795.00</ele>
	<time>2023-08-07T11:59:07.000Z</time>
</trkpt>
<trkpt lat="46.1263880" lon="10.4793870">
	<ele>2795.00</ele>
	<time>2023-08-07T11:59:08.000Z</time>
</trkpt>
<trkpt lat="46.1263870" lon="10.4793880">
	<ele>2795.00</ele>
	<time>2023-08-07T11:59:09.000Z</time>
</trkpt>
<trkpt lat="46.1263850" lon="10.4793880">
	<ele>2795.00</ele>
	<time>2023-08-07T11:59:10.000Z</time>
</trkpt>
<trkpt lat="46.1263830" lon="10.4793880">
	<ele>2795.00</ele>
	<time>2023-08-07T11:59:11.000Z</time>
</trkpt>
<trkpt lat="46.1263800" lon="10.4793880">
	<ele>2795.00</ele>
	<time>2023-08-07T11:59:12.000Z</time>
</trkpt>
<trkpt lat="46.1263780" lon="10.4793880">
	<ele>2795.00</ele>
	<time>2023-08-07T11:59:13.000Z</time>
</trkpt>
<trkpt lat="46.1263770" lon="10.4793880">
	<ele>2795.00</ele>
	<time>2023-08-07T11:59:14.000Z</time>
</trkpt>
<trkpt lat="46.1263760" lon="10.4793880">
	<ele>2795.00</ele>
	<time>2023-08-07T11:59:15.000Z</time>
</trkpt>
<trkpt lat="46.1263750" lon="10.4793880">
	<ele>2795.00</ele>
	<time>2023-08-07T11:59:16.000Z</time>
</trkpt>
<trkpt lat="46.1263740" lon="10.4793880">
	<ele>2795.00</ele>
	<time>2023-08-07T11:59:17.000Z</time>
</trkpt>
<trkpt lat="46.1263740" lon="10.4793880">
	<ele>2795.00</ele>
	<time>2023-08-07T11:59:18.000Z</time>
</trkpt>
<trkpt lat="46.1263740" lon="10.4793880">
	<ele>2795.00</ele>
	<time>2023-08-07T11:59:19.000Z</time>
</trkpt>
<trkpt lat="46.1263730" lon="10.4793880">
	<ele>2795.00</ele>
	<time>2023-08-07T11:59:20.000Z</time>
</trkpt>
<trkpt lat="46.1263730" lon="10.4793880">
	<ele>2795.00</ele>
	<time>2023-08-07T11:59:21.000Z</time>
</trkpt>
<trkpt lat="46.1263730" lon="10.4793880">
	<ele>2795.00</ele>
	<time>2023-08-07T11:59:22.000Z</time>
</trkpt>
<trkpt lat="46.1263720" lon="10.4793880">
	<ele>2795.00</ele>
	<time>2023-08-07T11:59:23.000Z</time>
</trkpt>
<trkpt lat="46.1263720" lon="10.4793880">
	<ele>2795.00</ele>
	<time>2023-08-07T11:59:24.000Z</time>
</trkpt>
<trkpt lat="46.1263720" lon="10.4793860">
	<ele>2795.00</ele>
	<time>2023-08-07T11:59:25.000Z</time>
</trkpt>
<trkpt lat="46.1263720" lon="10.4793860">
	<ele>2795.00</ele>
	<time>2023-08-07T11:59:26.000Z</time>
</trkpt>
<trkpt lat="46.1263720" lon="10.4793850">
	<ele>2795.00</ele>
	<time>2023-08-07T11:59:27.000Z</time>
</trkpt>
<trkpt lat="46.1263720" lon="10.4793850">
	<ele>2795.00</ele>
	<time>2023-08-07T11:59:28.000Z</time>
</trkpt>
<trkpt lat="46.1263720" lon="10.4793850">
	<ele>2795.00</ele>
	<time>2023-08-07T11:59:29.000Z</time>
</trkpt>
<trkpt lat="46.1263720" lon="10.4793840">
	<ele>2795.00</ele>
	<time>2023-08-07T11:59:30.000Z</time>
</trkpt>
<trkpt lat="46.1263720" lon="10.4793840">
	<ele>2795.00</ele>
	<time>2023-08-07T11:59:31.000Z</time>
</trkpt>
<trkpt lat="46.1263730" lon="10.4793840">
	<ele>2795.00</ele>
	<time>2023-08-07T11:59:32.000Z</time>
</trkpt>
<trkpt lat="46.1263730" lon="10.4793830">
	<ele>2795.00</ele>
	<time>2023-08-07T11:59:33.000Z</time>
</trkpt>
<trkpt lat="46.1263730" lon="10.4793830">
	<ele>2795.00</ele>
	<time>2023-08-07T11:59:34.000Z</time>
</trkpt>
<trkpt lat="46.1263740" lon="10.4793830">
	<ele>2795.00</ele>
	<time>2023-08-07T11:59:35.000Z</time>
</trkpt>
<trkpt lat="46.1263740" lon="10.4793810">
	<ele>2795.00</ele>
	<time>2023-08-07T11:59:36.000Z</time>
</trkpt>
<trkpt lat="46.1263750" lon="10.4793810">
	<ele>2795.00</ele>
	<time>2023-08-07T11:59:37.000Z</time>
</trkpt>
<trkpt lat="46.1263760" lon="10.4793790">
	<ele>2795.00</ele>
	<time>2023-08-07T11:59:38.000Z</time>
</trkpt>
<trkpt lat="46.1263760" lon="10.4793780">
	<ele>2795.00</ele>
	<time>2023-08-07T11:59:39.000Z</time>
</trkpt>
<trkpt lat="46.1263770" lon="10.4793780">
	<ele>2795.00</ele>
	<time>2023-08-07T11:59:40.000Z</time>
</trkpt>
<trkpt lat="46.1263780" lon="10.4793770">
	<ele>2795.00</ele>
	<time>2023-08-07T11:59:41.000Z</time>
</trkpt>
<trkpt lat="46.1263790" lon="10.4793750">
	<ele>2795.00</ele>
	<time>2023-08-07T11:59:42.000Z</time>
</trkpt>
<trkpt lat="46.1263790" lon="10.4793740">
	<ele>2795.00</ele>
	<time>2023-08-07T11:59:43.000Z</time>
</trkpt>
<trkpt lat="46.1263800" lon="10.4793720">
	<ele>2795.00</ele>
	<time>2023-08-07T11:59:44.000Z</time>
</trkpt>
<trkpt lat="46.1263800" lon="10.4793700">
	<ele>2795.00</ele>
	<time>2023-08-07T11:59:45.000Z</time>
</trkpt>
<trkpt lat="46.1263800" lon="10.4793680">
	<ele>2795.00</ele>
	<time>2023-08-07T11:59:46.000Z</time>
</trkpt>
<trkpt lat="46.1263800" lon="10.4793670">
	<ele>2795.00</ele>
	<time>2023-08-07T11:59:47.000Z</time>
</trkpt>
<trkpt lat="46.1263810" lon="10.4793660">
	<ele>2795.00</ele>
	<time>2023-08-07T11:59:48.000Z</time>
</trkpt>
<trkpt lat="46.1263830" lon="10.4793650">
	<ele>2795.00</ele>
	<time>2023-08-07T11:59:49.000Z</time>
</trkpt>
<trkpt lat="46.1263890" lon="10.4793590">
	<ele>2795.00</ele>
	<time>2023-08-07T11:59:50.000Z</time>
</trkpt>
<trkpt lat="46.1263960" lon="10.4793570">
	<ele>2795.00</ele>
	<time>2023-08-07T11:59:51.000Z</time>
</trkpt>
<trkpt lat="46.1264010" lon="10.4793530">
	<ele>2795.00</ele>
	<time>2023-08-07T11:59:52.000Z</time>
</trkpt>
<trkpt lat="46.1264030" lon="10.4793560">
	<ele>2795.00</ele>
	<time>2023-08-07T11:59:53.000Z</time>
</trkpt>
<trkpt lat="46.1264090" lon="10.4793500">
	<ele>2795.00</ele>
	<time>2023-08-07T11:59:54.000Z</time>
</trkpt>
<trkpt lat="46.1264120" lon="10.4793460">
	<ele>2795.00</ele>
	<time>2023-08-07T11:59:55.000Z</time>
</trkpt>
<trkpt lat="46.1264110" lon="10.4793430">
	<ele>2795.00</ele>
	<time>2023-08-07T11:59:56.000Z</time>
</trkpt>
<trkpt lat="46.1264150" lon="10.4793400">
	<ele>2795.00</ele>
	<time>2023-08-07T11:59:57.000Z</time>
</trkpt>
<trkpt lat="46.1264150" lon="10.4793400">
	<ele>2795.00</ele>
	<time>2023-08-07T11:59:58.000Z</time>
</trkpt>
<trkpt lat="46.1264150" lon="10.4793400">
	<ele>2795.00</ele>
	<time>2023-08-07T11:59:59.000Z</time>
</trkpt>
<trkpt lat="46.1264150" lon="10.4793400">
	<ele>2795.00</ele>
	<time>2023-08-07T12:00:00.000Z</time>
</trkpt>
<trkpt lat="46.1264150" lon="10.4793400">
	<ele>2795.00</ele>
	<time>2023-08-07T12:00:01.000Z</time>
</trkpt>
<trkpt lat="46.1264150" lon="10.4793400">
	<ele>2795.00</ele>
	<time>2023-08-07T12:00:02.000Z</time>
</trkpt>
<trkpt lat="46.1264150" lon="10.4793400">
	<ele>2795.00</ele>
	<time>2023-08-07T12:00:03.000Z</time>
</trkpt>
<trkpt lat="46.1264150" lon="10.4793400">
	<ele>2795.00</ele>
	<time>2023-08-07T12:00:04.000Z</time>
</trkpt>
<trkpt lat="46.1264150" lon="10.4793400">
	<ele>2795.00</ele>
	<time>2023-08-07T12:00:05.000Z</time>
</trkpt>
<trkpt lat="46.1264150" lon="10.4793400">
	<ele>2795.00</ele>
	<time>2023-08-07T12:00:06.000Z</time>
</trkpt>
<trkpt lat="46.1264150" lon="10.4793420">
	<ele>2795.00</ele>
	<time>2023-08-07T12:00:07.000Z</time>
</trkpt>
<trkpt lat="46.1264150" lon="10.4793420">
	<ele>2795.00</ele>
	<time>2023-08-07T12:00:08.000Z</time>
</trkpt>
<trkpt lat="46.1264140" lon="10.4793440">
	<ele>2795.20</ele>
	<time>2023-08-07T12:00:09.000Z</time>
</trkpt>
<trkpt lat="46.1264140" lon="10.4793440">
	<ele>2795.20</ele>
	<time>2023-08-07T12:00:10.000Z</time>
</trkpt>
<trkpt lat="46.1264130" lon="10.4793440">
	<ele>2795.40</ele>
	<time>2023-08-07T12:00:11.000Z</time>
</trkpt>
<trkpt lat="46.1264100" lon="10.4793450">
	<ele>2795.40</ele>
	<time>2023-08-07T12:00:12.000Z</time>
</trkpt>
<trkpt lat="46.1264040" lon="10.4793460">
	<ele>2795.40</ele>
	<time>2023-08-07T12:00:13.000Z</time>
</trkpt>
<trkpt lat="46.1263980" lon="10.4793500">
	<ele>2795.40</ele>
	<time>2023-08-07T12:00:14.000Z</time>
</trkpt>
<trkpt lat="46.1263930" lon="10.4793520">
	<ele>2795.40</ele>
	<time>2023-08-07T12:00:15.000Z</time>
</trkpt>
<trkpt lat="46.1263870" lon="10.4793550">
	<ele>2795.60</ele>
	<time>2023-08-07T12:00:16.000Z</time>
</trkpt>
<trkpt lat="46.1263830" lon="10.4793560">
	<ele>2795.60</ele>
	<time>2023-08-07T12:00:17.000Z</time>
</trkpt>
<trkpt lat="46.1263800" lon="10.4793560">
	<ele>2795.40</ele>
	<time>2023-08-07T12:00:18.000Z</time>
</trkpt>
<trkpt lat="46.1263750" lon="10.4793560">
	<ele>2795.40</ele>
	<time>2023-08-07T12:00:19.000Z</time>
</trkpt>
<trkpt lat="46.1263720" lon="10.4793560">
	<ele>2795.40</ele>
	<time>2023-08-07T12:00:20.000Z</time>
</trkpt>
<trkpt lat="46.1263720" lon="10.4793560">
	<ele>2795.20</ele>
	<time>2023-08-07T12:00:21.000Z</time>
</trkpt>
<trkpt lat="46.1263720" lon="10.4793560">
	<ele>2795.20</ele>
	<time>2023-08-07T12:00:22.000Z</time>
</trkpt>
<trkpt lat="46.1263720" lon="10.4793560">
	<ele>2795.20</ele>
	<time>2023-08-07T12:00:23.000Z</time>
</trkpt>
<trkpt lat="46.1263720" lon="10.4793560">
	<ele>2795.00</ele>
	<time>2023-08-07T12:00:24.000Z</time>
</trkpt>
<trkpt lat="46.1263720" lon="10.4793560">
	<ele>2795.00</ele>
	<time>2023-08-07T12:00:25.000Z</time>
</trkpt>
<trkpt lat="46.1263720" lon="10.4793560">
	<ele>2795.00</ele>
	<time>2023-08-07T12:00:26.000Z</time>
</trkpt>
<trkpt lat="46.1263720" lon="10.4793560">
	<ele>2795.00</ele>
	<time>2023-08-07T12:00:27.000Z</time>
</trkpt>
<trkpt lat="46.1263720" lon="10.4793560">
	<ele>2795.00</ele>
	<time>2023-08-07T12:00:28.000Z</time>
</trkpt>
<trkpt lat="46.1263720" lon="10.4793560">
	<ele>2795.40</ele>
	<time>2023-08-07T12:00:29.000Z</time>
</trkpt>
<trkpt lat="46.1263720" lon="10.4793560">
	<ele>2795.80</ele>
	<time>2023-08-07T12:00:30.000Z</time>
</trkpt>
<trkpt lat="46.1263710" lon="10.4793560">
	<ele>2796.00</ele>
	<time>2023-08-07T12:00:31.000Z</time>
</trkpt>
<trkpt lat="46.1263700" lon="10.4793560">
	<ele>2796.20</ele>
	<time>2023-08-07T12:00:32.000Z</time>
</trkpt>
<trkpt lat="46.1263700" lon="10.4793560">
	<ele>2796.40</ele>
	<time>2023-08-07T12:00:33.000Z</time>
</trkpt>
<trkpt lat="46.1263690" lon="10.4793560">
	<ele>2796.40</ele>
	<time>2023-08-07T12:00:34.000Z</time>
</trkpt>
<trkpt lat="46.1263680" lon="10.4793540">
	<ele>2796.20</ele>
	<time>2023-08-07T12:00:35.000Z</time>
</trkpt>
<trkpt lat="46.1263680" lon="10.4793540">
	<ele>2796.20</ele>
	<time>2023-08-07T12:00:36.000Z</time>
</trkpt>
<trkpt lat="46.1263660" lon="10.4793530">
	<ele>2795.80</ele>
	<time>2023-08-07T12:00:37.000Z</time>
</trkpt>
<trkpt lat="46.1263660" lon="10.4793510">
	<ele>2795.80</ele>
	<time>2023-08-07T12:00:38.000Z</time>
</trkpt>
<trkpt lat="46.1263650" lon="10.4793490">
	<ele>2795.20</ele>
	<time>2023-08-07T12:00:39.000Z</time>
</trkpt>
<trkpt lat="46.1263650" lon="10.4793470">
	<ele>2795.00</ele>
	<time>2023-08-07T12:00:40.000Z</time>
</trkpt>
<trkpt lat="46.1263650" lon="10.4793460">
	<ele>2795.00</ele>
	<time>2023-08-07T12:00:41.000Z</time>
</trkpt>
<trkpt lat="46.1263650" lon="10.4793450">
	<ele>2794.80</ele>
	<time>2023-08-07T12:00:42.000Z</time>
</trkpt>
<trkpt lat="46.1263650" lon="10.4793440">
	<ele>2795.20</ele>
	<time>2023-08-07T12:00:43.000Z</time>
</trkpt>
<trkpt lat="46.1263650" lon="10.4793440">
	<ele>2795.40</ele>
	<time>2023-08-07T12:00:44.000Z</time>
</trkpt>
<trkpt lat="46.1263640" lon="10.4793440">
	<ele>2795.60</ele>
	<time>2023-08-07T12:00:45.000Z</time>
</trkpt>
<trkpt lat="46.1263630" lon="10.4793440">
	<ele>2795.80</ele>
	<time>2023-08-07T12:00:46.000Z</time>
</trkpt>
<trkpt lat="46.1263620" lon="10.4793440">
	<ele>2795.80</ele>
	<time>2023-08-07T12:00:47.000Z</time>
</trkpt>
<trkpt lat="46.1263620" lon="10.4793440">
	<ele>2795.60</ele>
	<time>2023-08-07T12:00:48.000Z</time>
</trkpt>
<trkpt lat="46.1263610" lon="10.4793440">
	<ele>2795.60</ele>
	<time>2023-08-07T12:00:49.000Z</time>
</trkpt>
<trkpt lat="46.1263610" lon="10.4793440">
	<ele>2795.60</ele>
	<time>2023-08-07T12:00:50.000Z</time>
</trkpt>
<trkpt lat="46.1263610" lon="10.4793440">
	<ele>2795.60</ele>
	<time>2023-08-07T12:00:51.000Z</time>
</trkpt>
<trkpt lat="46.1263610" lon="10.4793440">
	<ele>2795.60</ele>
	<time>2023-08-07T12:00:52.000Z</time>
</trkpt>
<trkpt lat="46.1263610" lon="10.4793440">
	<ele>2795.60</ele>
	<time>2023-08-07T12:00:53.000Z</time>
</trkpt>
<trkpt lat="46.1263610" lon="10.4793440">
	<ele>2795.60</ele>
	<time>2023-08-07T12:00:54.000Z</time>
</trkpt>
<trkpt lat="46.1263610" lon="10.4793440">
	<ele>2795.60</ele>
	<time>2023-08-07T12:00:55.000Z</time>
</trkpt>
<trkpt lat="46.1263610" lon="10.4793440">
	<ele>2795.60</ele>
	<time>2023-08-07T12:00:56.000Z</time>
</trkpt>
<trkpt lat="46.1263610" lon="10.4793440">
	<ele>2795.60</ele>
	<time>2023-08-07T12:00:57.000Z</time>
</trkpt>
<trkpt lat="46.1263610" lon="10.4793440">
	<ele>2795.80</ele>
	<time>2023-08-07T12:00:58.000Z</time>
</trkpt>
<trkpt lat="46.1263610" lon="10.4793440">
	<ele>2796.00</ele>
	<time>2023-08-07T12:00:59.000Z</time>
</trkpt>
<trkpt lat="46.1263610" lon="10.4793430">
	<ele>2796.00</ele>
	<time>2023-08-07T12:01:00.000Z</time>
</trkpt>
<trkpt lat="46.1263610" lon="10.4793430">
	<ele>2796.20</ele>
	<time>2023-08-07T12:01:01.000Z</time>
</trkpt>
<trkpt lat="46.1263610" lon="10.4793430">
	<ele>2796.20</ele>
	<time>2023-08-07T12:01:02.000Z</time>
</trkpt>
<trkpt lat="46.1263610" lon="10.4793430">
	<ele>2796.20</ele>
	<time>2023-08-07T12:01:03.000Z</time>
</trkpt>
<trkpt lat="46.1263620" lon="10.4793430">
	<ele>2796.00</ele>
	<time>2023-08-07T12:01:04.000Z</time>
</trkpt>
<trkpt lat="46.1263630" lon="10.4793430">
	<ele>2796.00</ele>
	<time>2023-08-07T12:01:05.000Z</time>
</trkpt>
<trkpt lat="46.1263630" lon="10.4793440">
	<ele>2796.00</ele>
	<time>2023-08-07T12:01:06.000Z</time>
</trkpt>
<trkpt lat="46.1263630" lon="10.4793440">
	<ele>2796.20</ele>
	<time>2023-08-07T12:01:07.000Z</time>
</trkpt>
<trkpt lat="46.1263640" lon="10.4793440">
	<ele>2796.40</ele>
	<time>2023-08-07T12:01:08.000Z</time>
</trkpt>
<trkpt lat="46.1263640" lon="10.4793440">
	<ele>2796.40</ele>
	<time>2023-08-07T12:01:09.000Z</time>
</trkpt>
<trkpt lat="46.1263640" lon="10.4793440">
	<ele>2796.40</ele>
	<time>2023-08-07T12:01:10.000Z</time>
</trkpt>
<trkpt lat="46.1263640" lon="10.4793440">
	<ele>2796.40</ele>
	<time>2023-08-07T12:01:11.000Z</time>
</trkpt>
<trkpt lat="46.1263650" lon="10.4793440">
	<ele>2796.40</ele>
	<time>2023-08-07T12:01:12.000Z</time>
</trkpt>
<trkpt lat="46.1263660" lon="10.4793440">
	<ele>2796.40</ele>
	<time>2023-08-07T12:01:13.000Z</time>
</trkpt>
<trkpt lat="46.1263670" lon="10.4793440">
	<ele>2796.40</ele>
	<time>2023-08-07T12:01:14.000Z</time>
</trkpt>
<trkpt lat="46.1263680" lon="10.4793440">
	<ele>2796.20</ele>
	<time>2023-08-07T12:01:15.000Z</time>
</trkpt>
<trkpt lat="46.1263690" lon="10.4793440">
	<ele>2796.20</ele>
	<time>2023-08-07T12:01:16.000Z</time>
</trkpt>
<trkpt lat="46.1263690" lon="10.4793440">
	<ele>2796.00</ele>
	<time>2023-08-07T12:01:17.000Z</time>
</trkpt>
<trkpt lat="46.1263690" lon="10.4793440">
	<ele>2795.80</ele>
	<time>2023-08-07T12:01:18.000Z</time>
</trkpt>
<trkpt lat="46.1263690" lon="10.4793440">
	<ele>2795.60</ele>
	<time>2023-08-07T12:01:19.000Z</time>
</trkpt>
<trkpt lat="46.1263690" lon="10.4793440">
	<ele>2795.60</ele>
	<time>2023-08-07T12:01:20.000Z</time>
</trkpt>
<trkpt lat="46.1263690" lon="10.4793440">
	<ele>2795.40</ele>
	<time>2023-08-07T12:01:21.000Z</time>
</trkpt>
<trkpt lat="46.1263690" lon="10.4793440">
	<ele>2795.40</ele>
	<time>2023-08-07T12:01:22.000Z</time>
</trkpt>
<trkpt lat="46.1263690" lon="10.4793440">
	<ele>2795.20</ele>
	<time>2023-08-07T12:01:23.000Z</time>
</trkpt>
<trkpt lat="46.1263690" lon="10.4793440">
	<ele>2795.20</ele>
	<time>2023-08-07T12:01:24.000Z</time>
</trkpt>
<trkpt lat="46.1263690" lon="10.4793440">
	<ele>2795.20</ele>
	<time>2023-08-07T12:01:25.000Z</time>
</trkpt>
<trkpt lat="46.1263690" lon="10.4793440">
	<ele>2795.20</ele>
	<time>2023-08-07T12:01:26.000Z</time>
</trkpt>
<trkpt lat="46.1263690" lon="10.4793440">
	<ele>2795.20</ele>
	<time>2023-08-07T12:01:27.000Z</time>
</trkpt>
<trkpt lat="46.1263690" lon="10.4793440">
	<ele>2795.20</ele>
	<time>2023-08-07T12:01:28.000Z</time>
</trkpt>
<trkpt lat="46.1263690" lon="10.4793450">
	<ele>2795.20</ele>
	<time>2023-08-07T12:01:29.000Z</time>
</trkpt>
<trkpt lat="46.1263690" lon="10.4793450">
	<ele>2795.20</ele>
	<time>2023-08-07T12:01:30.000Z</time>
</trkpt>
<trkpt lat="46.1263690" lon="10.4793450">
	<ele>2795.60</ele>
	<time>2023-08-07T12:01:31.000Z</time>
</trkpt>
<trkpt lat="46.1263690" lon="10.4793480">
	<ele>2795.60</ele>
	<time>2023-08-07T12:01:32.000Z</time>
</trkpt>
<trkpt lat="46.1263670" lon="10.4793540">
	<ele>2795.60</ele>
	<time>2023-08-07T12:01:33.000Z</time>
</trkpt>
<trkpt lat="46.1263650" lon="10.4793570">
	<ele>2795.80</ele>
	<time>2023-08-07T12:01:34.000Z</time>
</trkpt>
<trkpt lat="46.1263630" lon="10.4793580">
	<ele>2795.80</ele>
	<time>2023-08-07T12:01:35.000Z</time>
</trkpt>
<trkpt lat="46.1263620" lon="10.4793590">
	<ele>2795.80</ele>
	<time>2023-08-07T12:01:36.000Z</time>
</trkpt>
<trkpt lat="46.1263610" lon="10.4793590">
	<ele>2795.80</ele>
	<time>2023-08-07T12:01:37.000Z</time>
</trkpt>
<trkpt lat="46.1263610" lon="10.4793600">
	<ele>2795.80</ele>
	<time>2023-08-07T12:01:38.000Z</time>
</trkpt>
<trkpt lat="46.1263610" lon="10.4793600">
	<ele>2795.80</ele>
	<time>2023-08-07T12:01:39.000Z</time>
</trkpt>
<trkpt lat="46.1263600" lon="10.4793600">
	<ele>2795.80</ele>
	<time>2023-08-07T12:01:40.000Z</time>
</trkpt>
<trkpt lat="46.1263590" lon="10.4793600">
	<ele>2796.00</ele>
	<time>2023-08-07T12:01:41.000Z</time>
</trkpt>
<trkpt lat="46.1263580" lon="10.4793600">
	<ele>2796.20</ele>
	<time>2023-08-07T12:01:42.000Z</time>
</trkpt>
<trkpt lat="46.1263580" lon="10.4793600">
	<ele>2796.40</ele>
	<time>2023-08-07T12:01:43.000Z</time>
</trkpt>
<trkpt lat="46.1263580" lon="10.4793600">
	<ele>2796.40</ele>
	<time>2023-08-07T12:01:44.000Z</time>
</trkpt>
<trkpt lat="46.1263570" lon="10.4793600">
	<ele>2796.60</ele>
	<time>2023-08-07T12:01:45.000Z</time>
</trkpt>
<trkpt lat="46.1263570" lon="10.4793600">
	<ele>2796.60</ele>
	<time>2023-08-07T12:01:46.000Z</time>
</trkpt>
<trkpt lat="46.1263560" lon="10.4793600">
	<ele>2796.60</ele>
	<time>2023-08-07T12:01:47.000Z</time>
</trkpt>
<trkpt lat="46.1263560" lon="10.4793600">
	<ele>2796.60</ele>
	<time>2023-08-07T12:01:48.000Z</time>
</trkpt>
<trkpt lat="46.1263550" lon="10.4793600">
	<ele>2796.40</ele>
	<time>2023-08-07T12:01:49.000Z</time>
</trkpt>
<trkpt lat="46.1263550" lon="10.4793600">
	<ele>2796.40</ele>
	<time>2023-08-07T12:01:50.000Z</time>
</trkpt>
<trkpt lat="46.1263550" lon="10.4793600">
	<ele>2796.20</ele>
	<time>2023-08-07T12:01:51.000Z</time>
</trkpt>
<trkpt lat="46.1263540" lon="10.4793600">
	<ele>2796.20</ele>
	<time>2023-08-07T12:01:52.000Z</time>
</trkpt>
<trkpt lat="46.1263540" lon="10.4793600">
	<ele>2796.20</ele>
	<time>2023-08-07T12:01:53.000Z</time>
</trkpt>
<trkpt lat="46.1263530" lon="10.4793590">
	<ele>2796.40</ele>
	<time>2023-08-07T12:01:54.000Z</time>
</trkpt>
<trkpt lat="46.1263530" lon="10.4793590">
	<ele>2796.40</ele>
	<time>2023-08-07T12:01:55.000Z</time>
</trkpt>
<trkpt lat="46.1263520" lon="10.4793590">
	<ele>2796.40</ele>
	<time>2023-08-07T12:01:56.000Z</time>
</trkpt>
<trkpt lat="46.1263520" lon="10.4793580">
	<ele>2796.40</ele>
	<time>2023-08-07T12:01:57.000Z</time>
</trkpt>
<trkpt lat="46.1263520" lon="10.4793570">
	<ele>2796.40</ele>
	<time>2023-08-07T12:01:58.000Z</time>
</trkpt>
<trkpt lat="46.1263520" lon="10.4793570">
	<ele>2796.20</ele>
	<time>2023-08-07T12:01:59.000Z</time>
</trkpt>
<trkpt lat="46.1263520" lon="10.4793560">
	<ele>2796.20</ele>
	<time>2023-08-07T12:02:00.000Z</time>
</trkpt>
<trkpt lat="46.1263520" lon="10.4793560">
	<ele>2796.20</ele>
	<time>2023-08-07T12:02:01.000Z</time>
</trkpt>
<trkpt lat="46.1263520" lon="10.4793560">
	<ele>2796.20</ele>
	<time>2023-08-07T12:02:02.000Z</time>
</trkpt>
<trkpt lat="46.1263520" lon="10.4793550">
	<ele>2796.20</ele>
	<time>2023-08-07T12:02:03.000Z</time>
</trkpt>
<trkpt lat="46.1263520" lon="10.4793550">
	<ele>2796.20</ele>
	<time>2023-08-07T12:02:04.000Z</time>
</trkpt>
<trkpt lat="46.1263520" lon="10.4793550">
	<ele>2796.20</ele>
	<time>2023-08-07T12:02:05.000Z</time>
</trkpt>
<trkpt lat="46.1263520" lon="10.4793550">
	<ele>2796.20</ele>
	<time>2023-08-07T12:02:06.000Z</time>
</trkpt>
<trkpt lat="46.1263520" lon="10.4793550">
	<ele>2797.00</ele>
	<time>2023-08-07T12:02:07.000Z</time>
</trkpt>
<trkpt lat="46.1263520" lon="10.4793550">
	<ele>2797.00</ele>
	<time>2023-08-07T12:02:08.000Z</time>
</trkpt>
<trkpt lat="46.1263530" lon="10.4793550">
	<ele>2797.00</ele>
	<time>2023-08-07T12:02:09.000Z</time>
</trkpt>
<trkpt lat="46.1263560" lon="10.4793560">
	<ele>2797.00</ele>
	<time>2023-08-07T12:02:10.000Z</time>
</trkpt>
<trkpt lat="46.1263590" lon="10.4793560">
	<ele>2797.00</ele>
	<time>2023-08-07T12:02:11.000Z</time>
</trkpt>
<trkpt lat="46.1263630" lon="10.4793560">
	<ele>2796.80</ele>
	<time>2023-08-07T12:02:12.000Z</time>
</trkpt>
<trkpt lat="46.1263650" lon="10.4793570">
	<ele>2796.80</ele>
	<time>2023-08-07T12:02:13.000Z</time>
</trkpt>
<trkpt lat="46.1263660" lon="10.4793580">
	<ele>2796.60</ele>
	<time>2023-08-07T12:02:14.000Z</time>
</trkpt>
<trkpt lat="46.1263670" lon="10.4793580">
	<ele>2796.40</ele>
	<time>2023-08-07T12:02:15.000Z</time>
</trkpt>
<trkpt lat="46.1263670" lon="10.4793590">
	<ele>2796.40</ele>
	<time>2023-08-07T12:02:16.000Z</time>
</trkpt>
<trkpt lat="46.1263680" lon="10.4793590">
	<ele>2796.40</ele>
	<time>2023-08-07T12:02:17.000Z</time>
</trkpt>
<trkpt lat="46.1263680" lon="10.4793600">
	<ele>2796.60</ele>
	<time>2023-08-07T12:02:18.000Z</time>
</trkpt>
<trkpt lat="46.1263680" lon="10.4793610">
	<ele>2796.60</ele>
	<time>2023-08-07T12:02:19.000Z</time>
</trkpt>
<trkpt lat="46.1263680" lon="10.4793610">
	<ele>2796.40</ele>
	<time>2023-08-07T12:02:20.000Z</time>
</trkpt>
<trkpt lat="46.1263680" lon="10.4793620">
	<ele>2796.40</ele>
	<time>2023-08-07T12:02:21.000Z</time>
</trkpt>
<trkpt lat="46.1263680" lon="10.4793620">
	<ele>2796.20</ele>
	<time>2023-08-07T12:02:22.000Z</time>
</trkpt>
<trkpt lat="46.1263680" lon="10.4793630">
	<ele>2796.20</ele>
	<time>2023-08-07T12:02:23.000Z</time>
</trkpt>
<trkpt lat="46.1263680" lon="10.4793640">
	<ele>2796.20</ele>
	<time>2023-08-07T12:02:24.000Z</time>
</trkpt>
<trkpt lat="46.1263680" lon="10.4793660">
	<ele>2796.00</ele>
	<time>2023-08-07T12:02:25.000Z</time>
</trkpt>
<trkpt lat="46.1263680" lon="10.4793670">
	<ele>2796.00</ele>
	<time>2023-08-07T12:02:26.000Z</time>
</trkpt>
<trkpt lat="46.1263680" lon="10.4793690">
	<ele>2795.80</ele>
	<time>2023-08-07T12:02:27.000Z</time>
</trkpt>
<trkpt lat="46.1263670" lon="10.4793700">
	<ele>2795.80</ele>
	<time>2023-08-07T12:02:28.000Z</time>
</trkpt>
<trkpt lat="46.1263670" lon="10.4793710">
	<ele>2795.80</ele>
	<time>2023-08-07T12:02:29.000Z</time>
</trkpt>
<trkpt lat="46.1263660" lon="10.4793720">
	<ele>2795.80</ele>
	<time>2023-08-07T12:02:30.000Z</time>
</trkpt>
<trkpt lat="46.1263640" lon="10.4793730">
	<ele>2795.80</ele>
	<time>2023-08-07T12:02:31.000Z</time>
</trkpt>
<trkpt lat="46.1263630" lon="10.4793740">
	<ele>2795.80</ele>
	<time>2023-08-07T12:02:32.000Z</time>
</trkpt>
<trkpt lat="46.1263630" lon="10.4793750">
	<ele>2795.80</ele>
	<time>2023-08-07T12:02:33.000Z</time>
</trkpt>
<trkpt lat="46.1263620" lon="10.4793770">
	<ele>2796.00</ele>
	<time>2023-08-07T12:02:34.000Z</time>
</trkpt>
<trkpt lat="46.1263610" lon="10.4793790">
	<ele>2796.00</ele>
	<time>2023-08-07T12:02:35.000Z</time>
</trkpt>
<trkpt lat="46.1263600" lon="10.4793790">
	<ele>2796.00</ele>
	<time>2023-08-07T12:02:36.000Z</time>
</trkpt>
<trkpt lat="46.1263600" lon="10.4793800">
	<ele>2796.00</ele>
	<time>2023-08-07T12:02:37.000Z</time>
</trkpt>
<trkpt lat="46.1263580" lon="10.4793800">
	<ele>2796.20</ele>
	<time>2023-08-07T12:02:38.000Z</time>
</trkpt>
<trkpt lat="46.1263570" lon="10.4793810">
	<ele>2796.20</ele>
	<time>2023-08-07T12:02:39.000Z</time>
</trkpt>
<trkpt lat="46.1263570" lon="10.4793790">
	<ele>2796.20</ele>
	<time>2023-08-07T12:02:40.000Z</time>
</trkpt>
<trkpt lat="46.1263650" lon="10.4793820">
	<ele>2796.20</ele>
	<time>2023-08-07T12:02:41.000Z</time>
</trkpt>
<trkpt lat="46.1263690" lon="10.4793820">
	<ele>2796.20</ele>
	<time>2023-08-07T12:02:42.000Z</time>
</trkpt>
<trkpt lat="46.1263710" lon="10.4793860">
	<ele>2796.20</ele>
	<time>2023-08-07T12:02:43.000Z</time>
</trkpt>
<trkpt lat="46.1263720" lon="10.4793850">
	<ele>2796.00</ele>
	<time>2023-08-07T12:02:44.000Z</time>
</trkpt>
<trkpt lat="46.1263700" lon="10.4793830">
	<ele>2796.00</ele>
	<time>2023-08-07T12:02:45.000Z</time>
</trkpt>
<trkpt lat="46.1263690" lon="10.4793810">
	<ele>2795.80</ele>
	<time>2023-08-07T12:02:46.000Z</time>
</trkpt>
<trkpt lat="46.1263670" lon="10.4793790">
	<ele>2795.80</ele>
	<time>2023-08-07T12:02:47.000Z</time>
</trkpt>
<trkpt lat="46.1263680" lon="10.4793750">
	<ele>2795.80</ele>
	<time>2023-08-07T12:02:48.000Z</time>
</trkpt>
<trkpt lat="46.1263670" lon="10.4793720">
	<ele>2796.00</ele>
	<time>2023-08-07T12:02:49.000Z</time>
</trkpt>
<trkpt lat="46.1263640" lon="10.4793690">
	<ele>2796.20</ele>
	<time>2023-08-07T12:02:50.000Z</time>
</trkpt>
<trkpt lat="46.1263630" lon="10.4793690">
	<ele>2796.20</ele>
	<time>2023-08-07T12:02:51.000Z</time>
</trkpt>
<trkpt lat="46.1263630" lon="10.4793690">
	<ele>2796.40</ele>
	<time>2023-08-07T12:02:52.000Z</time>
</trkpt>
<trkpt lat="46.1263630" lon="10.4793690">
	<ele>2796.40</ele>
	<time>2023-08-07T12:02:53.000Z</time>
</trkpt>
<trkpt lat="46.1263660" lon="10.4793710">
	<ele>2796.40</ele>
	<time>2023-08-07T12:02:54.000Z</time>
</trkpt>
<trkpt lat="46.1263670" lon="10.4793720">
	<ele>2796.60</ele>
	<time>2023-08-07T12:02:55.000Z</time>
</trkpt>
<trkpt lat="46.1263680" lon="10.4793760">
	<ele>2796.40</ele>
	<time>2023-08-07T12:02:56.000Z</time>
</trkpt>
<trkpt lat="46.1263680" lon="10.4793760">
	<ele>2796.40</ele>
	<time>2023-08-07T12:02:57.000Z</time>
</trkpt>
<trkpt lat="46.1263680" lon="10.4793760">
	<ele>2796.40</ele>
	<time>2023-08-07T12:02:58.000Z</time>
</trkpt>
<trkpt lat="46.1263670" lon="10.4793780">
	<ele>2796.40</ele>
	<time>2023-08-07T12:02:59.000Z</time>
</trkpt>
<trkpt lat="46.1263700" lon="10.4793790">
	<ele>2796.40</ele>
	<time>2023-08-07T12:03:00.000Z</time>
</trkpt>
<trkpt lat="46.1263710" lon="10.4793820">
	<ele>2796.20</ele>
	<time>2023-08-07T12:03:01.000Z</time>
</trkpt>
<trkpt lat="46.1263680" lon="10.4793830">
	<ele>2796.00</ele>
	<time>2023-08-07T12:03:02.000Z</time>
</trkpt>
<trkpt lat="46.1263640" lon="10.4793830">
	<ele>2796.00</ele>
	<time>2023-08-07T12:03:03.000Z</time>
</trkpt>
<trkpt lat="46.1263600" lon="10.4793830">
	<ele>2796.00</ele>
	<time>2023-08-07T12:03:04.000Z</time>
</trkpt>
<trkpt lat="46.1263580" lon="10.4793830">
	<ele>2796.00</ele>
	<time>2023-08-07T12:03:05.000Z</time>
</trkpt>
<trkpt lat="46.1263520" lon="10.4793830">
	<ele>2796.00</ele>
	<time>2023-08-07T12:03:06.000Z</time>
</trkpt>
<trkpt lat="46.1263540" lon="10.4793810">
	<ele>2796.00</ele>
	<time>2023-08-07T12:03:07.000Z</time>
</trkpt>
<trkpt lat="46.1263540" lon="10.4793810">
	<ele>2796.20</ele>
	<time>2023-08-07T12:03:08.000Z</time>
</trkpt>
<trkpt lat="46.1263540" lon="10.4793810">
	<ele>2796.40</ele>
	<time>2023-08-07T12:03:09.000Z</time>
</trkpt>
<trkpt lat="46.1263550" lon="10.4793820">
	<ele>2796.40</ele>
	<time>2023-08-07T12:03:10.000Z</time>
</trkpt>
<trkpt lat="46.1263500" lon="10.4793860">
	<ele>2796.40</ele>
	<time>2023-08-07T12:03:11.000Z</time>
</trkpt>
<trkpt lat="46.1263470" lon="10.4793880">
	<ele>2796.60</ele>
	<time>2023-08-07T12:03:12.000Z</time>
</trkpt>
<trkpt lat="46.1263380" lon="10.4793900">
	<ele>2796.60</ele>
	<time>2023-08-07T12:03:13.000Z</time>
</trkpt>
<trkpt lat="46.1263330" lon="10.4793930">
	<ele>2796.60</ele>
	<time>2023-08-07T12:03:14.000Z</time>
</trkpt>
<trkpt lat="46.1263370" lon="10.4793930">
	<ele>2796.60</ele>
	<time>2023-08-07T12:03:15.000Z</time>
</trkpt>
<trkpt lat="46.1263390" lon="10.4793920">
	<ele>2796.00</ele>
	<time>2023-08-07T12:03:16.000Z</time>
</trkpt>
<trkpt lat="46.1263390" lon="10.4793880">
	<ele>2795.80</ele>
	<time>2023-08-07T12:03:17.000Z</time>
</trkpt>
<trkpt lat="46.1263400" lon="10.4793880">
	<ele>2795.60</ele>
	<time>2023-08-07T12:03:18.000Z</time>
</trkpt>
<trkpt lat="46.1263410" lon="10.4793850">
	<ele>2795.60</ele>
	<time>2023-08-07T12:03:19.000Z</time>
</trkpt>
<trkpt lat="46.1263400" lon="10.4793850">
	<ele>2795.60</ele>
	<time>2023-08-07T12:03:20.000Z</time>
</trkpt>
<trkpt lat="46.1263400" lon="10.4793850">
	<ele>2795.80</ele>
	<time>2023-08-07T12:03:21.000Z</time>
</trkpt>
<trkpt lat="46.1263410" lon="10.4793810">
	<ele>2796.00</ele>
	<time>2023-08-07T12:03:22.000Z</time>
</trkpt>
<trkpt lat="46.1263420" lon="10.4793740">
	<ele>2796.00</ele>
	<time>2023-08-07T12:03:23.000Z</time>
</trkpt>
<trkpt lat="46.1263320" lon="10.4793760">
	<ele>2795.80</ele>
	<time>2023-08-07T12:03:24.000Z</time>
</trkpt>
<trkpt lat="46.1263090" lon="10.4793700">
	<ele>2795.60</ele>
	<time>2023-08-07T12:03:25.000Z</time>
</trkpt>
<trkpt lat="46.1262990" lon="10.4793650">
	<ele>2795.40</ele>
	<time>2023-08-07T12:03:26.000Z</time>
</trkpt>
<trkpt lat="46.1262940" lon="10.4793630">
	<ele>2795.20</ele>
	<time>2023-08-07T12:03:27.000Z</time>
</trkpt>
<trkpt lat="46.1262930" lon="10.4793640">
	<ele>2795.20</ele>
	<time>2023-08-07T12:03:28.000Z</time>
</trkpt>
<trkpt lat="46.1262930" lon="10.4793640">
	<ele>2795.60</ele>
	<time>2023-08-07T12:03:29.000Z</time>
</trkpt>
<trkpt lat="46.1262930" lon="10.4793640">
	<ele>2795.80</ele>
	<time>2023-08-07T12:03:30.000Z</time>
</trkpt>
<trkpt lat="46.1262930" lon="10.4793640">
	<ele>2796.00</ele>
	<time>2023-08-07T12:03:31.000Z</time>
</trkpt>
<trkpt lat="46.1262930" lon="10.4793640">
	<ele>2796.00</ele>
	<time>2023-08-07T12:03:32.000Z</time>
</trkpt>
<trkpt lat="46.1262930" lon="10.4793640">
	<ele>2796.20</ele>
	<time>2023-08-07T12:03:33.000Z</time>
</trkpt>
<trkpt lat="46.1262930" lon="10.4793640">
	<ele>2796.40</ele>
	<time>2023-08-07T12:03:34.000Z</time>
</trkpt>
<trkpt lat="46.1262930" lon="10.4793640">
	<ele>2796.60</ele>
	<time>2023-08-07T12:03:35.000Z</time>
</trkpt>
<trkpt lat="46.1262930" lon="10.4793640">
	<ele>2796.80</ele>
	<time>2023-08-07T12:03:36.000Z</time>
</trkpt>
<trkpt lat="46.1262930" lon="10.4793640">
	<ele>2796.80</ele>
	<time>2023-08-07T12:03:37.000Z</time>
</trkpt>
<trkpt lat="46.1262930" lon="10.4793640">
	<ele>2796.80</ele>
	<time>2023-08-07T12:03:38.000Z</time>
</trkpt>
<trkpt lat="46.1262940" lon="10.4793640">
	<ele>2796.60</ele>
	<time>2023-08-07T12:03:39.000Z</time>
</trkpt>
<trkpt lat="46.1262940" lon="10.4793640">
	<ele>2796.60</ele>
	<time>2023-08-07T12:03:40.000Z</time>
</trkpt>
<trkpt lat="46.1262940" lon="10.4793640">
	<ele>2796.60</ele>
	<time>2023-08-07T12:03:41.000Z</time>
</trkpt>
<trkpt lat="46.1262940" lon="10.4793640">
	<ele>2796.60</ele>
	<time>2023-08-07T12:03:42.000Z</time>
</trkpt>
<trkpt lat="46.1262940" lon="10.4793640">
	<ele>2796.60</ele>
	<time>2023-08-07T12:03:43.000Z</time>
</trkpt>
<trkpt lat="46.1262940" lon="10.4793630">
	<ele>2796.40</ele>
	<time>2023-08-07T12:03:44.000Z</time>
</trkpt>
<trkpt lat="46.1262940" lon="10.4793630">
	<ele>2796.20</ele>
	<time>2023-08-07T12:03:45.000Z</time>
</trkpt>
<trkpt lat="46.1262960" lon="10.4793620">
	<ele>2796.00</ele>
	<time>2023-08-07T12:03:46.000Z</time>
</trkpt>
<trkpt lat="46.1262970" lon="10.4793620">
	<ele>2795.80</ele>
	<time>2023-08-07T12:03:47.000Z</time>
</trkpt>
<trkpt lat="46.1262980" lon="10.4793620">
	<ele>2795.80</ele>
	<time>2023-08-07T12:03:48.000Z</time>
</trkpt>
<trkpt lat="46.1262990" lon="10.4793620">
	<ele>2795.60</ele>
	<time>2023-08-07T12:03:49.000Z</time>
</trkpt>
<trkpt lat="46.1262990" lon="10.4793620">
	<ele>2795.60</ele>
	<time>2023-08-07T12:03:50.000Z</time>
</trkpt>
<trkpt lat="46.1262990" lon="10.4793620">
	<ele>2795.60</ele>
	<time>2023-08-07T12:03:51.000Z</time>
</trkpt>
<trkpt lat="46.1262990" lon="10.4793620">
	<ele>2795.40</ele>
	<time>2023-08-07T12:03:52.000Z</time>
</trkpt>
<trkpt lat="46.1262990" lon="10.4793620">
	<ele>2795.40</ele>
	<time>2023-08-07T12:03:53.000Z</time>
</trkpt>
<trkpt lat="46.1262990" lon="10.4793620">
	<ele>2795.20</ele>
	<time>2023-08-07T12:03:54.000Z</time>
</trkpt>
<trkpt lat="46.1262990" lon="10.4793620">
	<ele>2795.20</ele>
	<time>2023-08-07T12:03:55.000Z</time>
</trkpt>
<trkpt lat="46.1262990" lon="10.4793620">
	<ele>2795.00</ele>
	<time>2023-08-07T12:03:56.000Z</time>
</trkpt>
<trkpt lat="46.1263010" lon="10.4793620">
	<ele>2794.80</ele>
	<time>2023-08-07T12:03:57.000Z</time>
</trkpt>
<trkpt lat="46.1263020" lon="10.4793620">
	<ele>2794.60</ele>
	<time>2023-08-07T12:03:58.000Z</time>
</trkpt>
<trkpt lat="46.1263030" lon="10.4793620">
	<ele>2793.20</ele>
	<time>2023-08-07T12:03:59.000Z</time>
</trkpt>
<trkpt lat="46.1263040" lon="10.4793610">
	<ele>2792.20</ele>
	<time>2023-08-07T12:04:00.000Z</time>
</trkpt>
<trkpt lat="46.1263050" lon="10.4793610">
	<ele>2791.60</ele>
	<time>2023-08-07T12:04:01.000Z</time>
</trkpt>
<trkpt lat="46.1263050" lon="10.4793610">
	<ele>2791.40</ele>
	<time>2023-08-07T12:04:02.000Z</time>
</trkpt>
<trkpt lat="46.1263060" lon="10.4793610">
	<ele>2791.60</ele>
	<time>2023-08-07T12:04:03.000Z</time>
</trkpt>
<trkpt lat="46.1263080" lon="10.4793610">
	<ele>2791.60</ele>
	<time>2023-08-07T12:04:04.000Z</time>
</trkpt>
<trkpt lat="46.1263090" lon="10.4793610">
	<ele>2792.60</ele>
	<time>2023-08-07T12:04:05.000Z</time>
</trkpt>
<trkpt lat="46.1263100" lon="10.4793600">
	<ele>2793.20</ele>
	<time>2023-08-07T12:04:06.000Z</time>
</trkpt>
<trkpt lat="46.1263100" lon="10.4793600">
	<ele>2793.80</ele>
	<time>2023-08-07T12:04:07.000Z</time>
</trkpt>
<trkpt lat="46.1263100" lon="10.4793600">
	<ele>2794.00</ele>
	<time>2023-08-07T12:04:08.000Z</time>
</trkpt>
<trkpt lat="46.1263100" lon="10.4793590">
	<ele>2794.40</ele>
	<time>2023-08-07T12:04:09.000Z</time>
</trkpt>
<trkpt lat="46.1263100" lon="10.4793590">
	<ele>2794.40</ele>
	<time>2023-08-07T12:04:10.000Z</time>
</trkpt>
<trkpt lat="46.1263100" lon="10.4793590">
	<ele>2794.40</ele>
	<time>2023-08-07T12:04:11.000Z</time>
</trkpt>
<trkpt lat="46.1263100" lon="10.4793590">
	<ele>2794.60</ele>
	<time>2023-08-07T12:04:12.000Z</time>
</trkpt>
<trkpt lat="46.1263110" lon="10.4793590">
	<ele>2794.60</ele>
	<time>2023-08-07T12:04:13.000Z</time>
</trkpt>
<trkpt lat="46.1263110" lon="10.4793570">
	<ele>2794.60</ele>
	<time>2023-08-07T12:04:14.000Z</time>
</trkpt>
<trkpt lat="46.1263110" lon="10.4793570">
	<ele>2794.60</ele>
	<time>2023-08-07T12:04:15.000Z</time>
</trkpt>
<trkpt lat="46.1263110" lon="10.4793570">
	<ele>2794.60</ele>
	<time>2023-08-07T12:04:16.000Z</time>
</trkpt>
<trkpt lat="46.1263110" lon="10.4793570">
	<ele>2794.60</ele>
	<time>2023-08-07T12:04:17.000Z</time>
</trkpt>
<trkpt lat="46.1263110" lon="10.4793570">
	<ele>2794.60</ele>
	<time>2023-08-07T12:04:18.000Z</time>
</trkpt>
<trkpt lat="46.1263110" lon="10.4793570">
	<ele>2794.60</ele>
	<time>2023-08-07T12:04:19.000Z</time>
</trkpt>
<trkpt lat="46.1263110" lon="10.4793570">
	<ele>2794.40</ele>
	<time>2023-08-07T12:04:20.000Z</time>
</trkpt>
<trkpt lat="46.1263110" lon="10.4793570">
	<ele>2794.40</ele>
	<time>2023-08-07T12:04:21.000Z</time>
</trkpt>
<trkpt lat="46.1263110" lon="10.4793570">
	<ele>2794.40</ele>
	<time>2023-08-07T12:04:22.000Z</time>
</trkpt>
<trkpt lat="46.1263110" lon="10.4793570">
	<ele>2794.40</ele>
	<time>2023-08-07T12:04:23.000Z</time>
</trkpt>
<trkpt lat="46.1263110" lon="10.4793560">
	<ele>2794.20</ele>
	<time>2023-08-07T12:04:24.000Z</time>
</trkpt>
<trkpt lat="46.1263110" lon="10.4793560">
	<ele>2794.00</ele>
	<time>2023-08-07T12:04:25.000Z</time>
</trkpt>
<trkpt lat="46.1263100" lon="10.4793560">
	<ele>2794.00</ele>
	<time>2023-08-07T12:04:26.000Z</time>
</trkpt>
<trkpt lat="46.1263100" lon="10.4793560">
	<ele>2794.00</ele>
	<time>2023-08-07T12:04:27.000Z</time>
</trkpt>
<trkpt lat="46.1263100" lon="10.4793550">
	<ele>2794.00</ele>
	<time>2023-08-07T12:04:28.000Z</time>
</trkpt>
<trkpt lat="46.1263100" lon="10.4793550">
	<ele>2794.20</ele>
	<time>2023-08-07T12:04:29.000Z</time>
</trkpt>
<trkpt lat="46.1263100" lon="10.4793550">
	<ele>2794.20</ele>
	<time>2023-08-07T12:04:30.000Z</time>
</trkpt>
<trkpt lat="46.1263100" lon="10.4793550">
	<ele>2794.20</ele>
	<time>2023-08-07T12:04:31.000Z</time>
</trkpt>
<trkpt lat="46.1263090" lon="10.4793540">
	<ele>2794.40</ele>
	<time>2023-08-07T12:04:32.000Z</time>
</trkpt>
<trkpt lat="46.1263090" lon="10.4793540">
	<ele>2794.60</ele>
	<time>2023-08-07T12:04:33.000Z</time>
</trkpt>
<trkpt lat="46.1263090" lon="10.4793540">
	<ele>2794.60</ele>
	<time>2023-08-07T12:04:34.000Z</time>
</trkpt>
<trkpt lat="46.1263090" lon="10.4793530">
	<ele>2794.80</ele>
	<time>2023-08-07T12:04:35.000Z</time>
</trkpt>
<trkpt lat="46.1263090" lon="10.4793520">
	<ele>2794.60</ele>
	<time>2023-08-07T12:04:36.000Z</time>
</trkpt>
<trkpt lat="46.1263090" lon="10.4793520">
	<ele>2794.60</ele>
	<time>2023-08-07T12:04:37.000Z</time>
</trkpt>
<trkpt lat="46.1263090" lon="10.4793520">
	<ele>2794.40</ele>
	<time>2023-08-07T12:04:38.000Z</time>
</trkpt>
<trkpt lat="46.1263090" lon="10.4793520">
	<ele>2794.40</ele>
	<time>2023-08-07T12:04:39.000Z</time>
</trkpt>
<trkpt lat="46.1263090" lon="10.4793520">
	<ele>2794.40</ele>
	<time>2023-08-07T12:04:40.000Z</time>
</trkpt>
<trkpt lat="46.1263090" lon="10.4793530">
	<ele>2794.40</ele>
	<time>2023-08-07T12:04:41.000Z</time>
</trkpt>
<trkpt lat="46.1263090" lon="10.4793530">
	<ele>2794.60</ele>
	<time>2023-08-07T12:04:42.000Z</time>
</trkpt>
<trkpt lat="46.1263090" lon="10.4793530">
	<ele>2794.60</ele>
	<time>2023-08-07T12:04:43.000Z</time>
</trkpt>
<trkpt lat="46.1263090" lon="10.4793530">
	<ele>2794.80</ele>
	<time>2023-08-07T12:04:44.000Z</time>
</trkpt>
<trkpt lat="46.1263090" lon="10.4793530">
	<ele>2794.80</ele>
	<time>2023-08-07T12:04:45.000Z</time>
</trkpt>
<trkpt lat="46.1263090" lon="10.4793530">
	<ele>2794.80</ele>
	<time>2023-08-07T12:04:46.000Z</time>
</trkpt>
<trkpt lat="46.1263090" lon="10.4793530">
	<ele>2795.20</ele>
	<time>2023-08-07T12:04:47.000Z</time>
</trkpt>
<trkpt lat="46.1263090" lon="10.4793530">
	<ele>2795.20</ele>
	<time>2023-08-07T12:04:48.000Z</time>
</trkpt>
<trkpt lat="46.1263090" lon="10.4793530">
	<ele>2795.40</ele>
	<time>2023-08-07T12:04:49.000Z</time>
</trkpt>
<trkpt lat="46.1263090" lon="10.4793530">
	<ele>2795.40</ele>
	<time>2023-08-07T12:04:50.000Z</time>
</trkpt>
<trkpt lat="46.1263090" lon="10.4793530">
	<ele>2795.40</ele>
	<time>2023-08-07T12:04:51.000Z</time>
</trkpt>
<trkpt lat="46.1263110" lon="10.4793530">
	<ele>2795.40</ele>
	<time>2023-08-07T12:04:52.000Z</time>
</trkpt>
<trkpt lat="46.1263120" lon="10.4793530">
	<ele>2795.20</ele>
	<time>2023-08-07T12:04:53.000Z</time>
</trkpt>
<trkpt lat="46.1263130" lon="10.4793530">
	<ele>2794.80</ele>
	<time>2023-08-07T12:04:54.000Z</time>
</trkpt>
<trkpt lat="46.1263140" lon="10.4793530">
	<ele>2794.20</ele>
	<time>2023-08-07T12:04:55.000Z</time>
</trkpt>
<trkpt lat="46.1263150" lon="10.4793530">
	<ele>2794.00</ele>
	<time>2023-08-07T12:04:56.000Z</time>
</trkpt>
<trkpt lat="46.1263170" lon="10.4793550">
	<ele>2794.00</ele>
	<time>2023-08-07T12:04:57.000Z</time>
</trkpt>
<trkpt lat="46.1263200" lon="10.4793600">
	<ele>2793.80</ele>
	<time>2023-08-07T12:04:58.000Z</time>
</trkpt>
<trkpt lat="46.1263220" lon="10.4793620">
	<ele>2793.80</ele>
	<time>2023-08-07T12:04:59.000Z</time>
</trkpt>
<trkpt lat="46.1263250" lon="10.4793630">
	<ele>2793.60</ele>
	<time>2023-08-07T12:05:00.000Z</time>
</trkpt>
<trkpt lat="46.1263270" lon="10.4793650">
	<ele>2793.60</ele>
	<time>2023-08-07T12:05:01.000Z</time>
</trkpt>
<trkpt lat="46.1263300" lon="10.4793670">
	<ele>2793.40</ele>
	<time>2023-08-07T12:05:02.000Z</time>
</trkpt>
<trkpt lat="46.1263320" lon="10.4793690">
	<ele>2793.00</ele>
	<time>2023-08-07T12:05:03.000Z</time>
</trkpt>
<trkpt lat="46.1263330" lon="10.4793700">
	<ele>2792.40</ele>
	<time>2023-08-07T12:05:04.000Z</time>
</trkpt>
<trkpt lat="46.1263340" lon="10.4793700">
	<ele>2792.00</ele>
	<time>2023-08-07T12:05:05.000Z</time>
</trkpt>
<trkpt lat="46.1263350" lon="10.4793710">
	<ele>2791.60</ele>
	<time>2023-08-07T12:05:06.000Z</time>
</trkpt>
<trkpt lat="46.1263360" lon="10.4793720">
	<ele>2791.40</ele>
	<time>2023-08-07T12:05:07.000Z</time>
</trkpt>
<trkpt lat="46.1263370" lon="10.4793720">
	<ele>2791.40</ele>
	<time>2023-08-07T12:05:08.000Z</time>
</trkpt>
<trkpt lat="46.1263370" lon="10.4793720">
	<ele>2791.40</ele>
	<time>2023-08-07T12:05:09.000Z</time>
</trkpt>
<trkpt lat="46.1263380" lon="10.4793720">
	<ele>2791.20</ele>
	<time>2023-08-07T12:05:10.000Z</time>
</trkpt>
<trkpt lat="46.1263380" lon="10.4793720">
	<ele>2791.20</ele>
	<time>2023-08-07T12:05:11.000Z</time>
</trkpt>
<trkpt lat="46.1263380" lon="10.4793720">
	<ele>2791.20</ele>
	<time>2023-08-07T12:05:12.000Z</time>
</trkpt>
<trkpt lat="46.1263380" lon="10.4793720">
	<ele>2791.20</ele>
	<time>2023-08-07T12:05:13.000Z</time>
</trkpt>
<trkpt lat="46.1263380" lon="10.4793720">
	<ele>2791.20</ele>
	<time>2023-08-07T12:05:14.000Z</time>
</trkpt>
<trkpt lat="46.1263380" lon="10.4793720">
	<ele>2791.00</ele>
	<time>2023-08-07T12:05:15.000Z</time>
</trkpt>
<trkpt lat="46.1263380" lon="10.4793720">
	<ele>2790.60</ele>
	<time>2023-08-07T12:05:16.000Z</time>
</trkpt>
<trkpt lat="46.1263380" lon="10.4793710">
	<ele>2790.60</ele>
	<time>2023-08-07T12:05:17.000Z</time>
</trkpt>
<trkpt lat="46.1263380" lon="10.4793710">
	<ele>2790.40</ele>
	<time>2023-08-07T12:05:18.000Z</time>
</trkpt>
<trkpt lat="46.1263380" lon="10.4793700">
	<ele>2790.40</ele>
	<time>2023-08-07T12:05:19.000Z</time>
</trkpt>
<trkpt lat="46.1263340" lon="10.4793700">
	<ele>2790.20</ele>
	<time>2023-08-07T12:05:20.000Z</time>
</trkpt>
<trkpt lat="46.1263230" lon="10.4793680">
	<ele>2790.00</ele>
	<time>2023-08-07T12:05:21.000Z</time>
</trkpt>
<trkpt lat="46.1263210" lon="10.4793790">
	<ele>2790.00</ele>
	<time>2023-08-07T12:05:22.000Z</time>
</trkpt>
<trkpt lat="46.1263090" lon="10.4793750">
	<ele>2789.80</ele>
	<time>2023-08-07T12:05:23.000Z</time>
</trkpt>
<trkpt lat="46.1263040" lon="10.4793890">
	<ele>2789.80</ele>
	<time>2023-08-07T12:05:24.000Z</time>
</trkpt>
<trkpt lat="46.1262910" lon="10.4793840">
	<ele>2789.80</ele>
	<time>2023-08-07T12:05:25.000Z</time>
</trkpt>
<trkpt lat="46.1262860" lon="10.4793800">
	<ele>2789.80</ele>
	<time>2023-08-07T12:05:26.000Z</time>
</trkpt>
<trkpt lat="46.1262870" lon="10.4793790">
	<ele>2789.60</ele>
	<time>2023-08-07T12:05:27.000Z</time>
</trkpt>
<trkpt lat="46.1262770" lon="10.4793870">
	<ele>2789.60</ele>
	<time>2023-08-07T12:05:28.000Z</time>
</trkpt>
<trkpt lat="46.1262650" lon="10.4793800">
	<ele>2789.40</ele>
	<time>2023-08-07T12:05:29.000Z</time>
</trkpt>
<trkpt lat="46.1262600" lon="10.4793720">
	<ele>2789.20</ele>
	<time>2023-08-07T12:05:30.000Z</time>
</trkpt>
<trkpt lat="46.1262560" lon="10.4793680">
	<ele>2789.00</ele>
	<time>2023-08-07T12:05:31.000Z</time>
</trkpt>
<trkpt lat="46.1262560" lon="10.4793700">
	<ele>2789.00</ele>
	<time>2023-08-07T12:05:32.000Z</time>
</trkpt>
<trkpt lat="46.1262520" lon="10.4793630">
	<ele>2788.80</ele>
	<time>2023-08-07T12:05:33.000Z</time>
</trkpt>
<trkpt lat="46.1262580" lon="10.4793610">
	<ele>2788.80</ele>
	<time>2023-08-07T12:05:34.000Z</time>
</trkpt>
<trkpt lat="46.1262830" lon="10.4793750">
	<ele>2788.80</ele>
	<time>2023-08-07T12:05:35.000Z</time>
</trkpt>
<trkpt lat="46.1262890" lon="10.4793730">
	<ele>2788.60</ele>
	<time>2023-08-07T12:05:36.000Z</time>
</trkpt>
<trkpt lat="46.1263010" lon="10.4793750">
	<ele>2788.60</ele>
	<time>2023-08-07T12:05:37.000Z</time>
</trkpt>
<trkpt lat="46.1263230" lon="10.4793790">
	<ele>2788.40</ele>
	<time>2023-08-07T12:05:38.000Z</time>
</trkpt>
<trkpt lat="46.1263420" lon="10.4793870">
	<ele>2788.40</ele>
	<time>2023-08-07T12:05:39.000Z</time>
</trkpt>
<trkpt lat="46.1263580" lon="10.4793810">
	<ele>2788.20</ele>
	<time>2023-08-07T12:05:40.000Z</time>
</trkpt>
<trkpt lat="46.1263600" lon="10.4793590">
	<ele>2788.00</ele>
	<time>2023-08-07T12:05:41.000Z</time>
</trkpt>
<trkpt lat="46.1263630" lon="10.4793570">
	<ele>2787.80</ele>
	<time>2023-08-07T12:05:42.000Z</time>
</trkpt>
<trkpt lat="46.1263800" lon="10.4793690">
	<ele>2787.60</ele>
	<time>2023-08-07T12:05:44.000Z</time>
</trkpt>
<trkpt lat="46.1264060" lon="10.4793760">
	<ele>2787.40</ele>
	<time>2023-08-07T12:05:45.000Z</time>
</trkpt>
<trkpt lat="46.1264100" lon="10.4793710">
	<ele>2787.20</ele>
	<time>2023-08-07T12:05:46.000Z</time>
</trkpt>
<trkpt lat="46.1264100" lon="10.4793740">
	<ele>2786.40</ele>
	<time>2023-08-07T12:05:48.000Z</time>
</trkpt>
<trkpt lat="46.1263990" lon="10.4793580">
	<ele>2786.00</ele>
	<time>2023-08-07T12:05:49.000Z</time>
</trkpt>
<trkpt lat="46.1263930" lon="10.4793660">
	<ele>2786.00</ele>
	<time>2023-08-07T12:05:50.000Z</time>
</trkpt>
<trkpt lat="46.1263810" lon="10.4793760">
	<ele>2785.80</ele>
	<time>2023-08-07T12:05:51.000Z</time>
</trkpt>
<trkpt lat="46.1263630" lon="10.4793470">
	<ele>2785.40</ele>
	<time>2023-08-07T12:05:52.000Z</time>
</trkpt>
<trkpt lat="46.1263650" lon="10.4793260">
	<ele>2785.20</ele>
	<time>2023-08-07T12:05:53.000Z</time>
</trkpt>
<trkpt lat="46.1263540" lon="10.4793060">
	<ele>2785.00</ele>
	<time>2023-08-07T12:05:54.000Z</time>
</trkpt>
<trkpt lat="46.1263200" lon="10.4792820">
	<ele>2785.00</ele>
	<time>2023-08-07T12:05:55.000Z</time>
</trkpt>
<trkpt lat="46.1263130" lon="10.4792670">
	<ele>2785.00</ele>
	<time>2023-08-07T12:05:57.000Z</time>
</trkpt>
<trkpt lat="46.1263090" lon="10.4792790">
	<ele>2785.00</ele>
	<time>2023-08-07T12:05:58.000Z</time>
</trkpt>
<trkpt lat="46.1263240" lon="10.4792560">
	<ele>2785.00</ele>
	<time>2023-08-07T12:05:59.000Z</time>
</trkpt>
<trkpt lat="46.1263120" lon="10.4792090">
	<ele>2785.00</ele>
	<time>2023-08-07T12:06:00.000Z</time>
</trkpt>
<trkpt lat="46.1262750" lon="10.4791620">
	<ele>2785.00</ele>
	<time>2023-08-07T12:06:01.000Z</time>
</trkpt>
<trkpt lat="46.1262810" lon="10.4791540">
	<ele>2784.60</ele>
	<time>2023-08-07T12:06:02.000Z</time>
</trkpt>
<trkpt lat="46.1262950" lon="10.4791470">
	<ele>2784.20</ele>
	<time>2023-08-07T12:06:03.000Z</time>
</trkpt>
<trkpt lat="46.1263240" lon="10.4791700">
	<ele>2783.80</ele>
	<time>2023-08-07T12:06:04.000Z</time>
</trkpt>
<trkpt lat="46.1263460" lon="10.4792120">
	<ele>2783.20</ele>
	<time>2023-08-07T12:06:05.000Z</time>
</trkpt>
<trkpt lat="46.1263490" lon="10.4792210">
	<ele>2783.00</ele>
	<time>2023-08-07T12:06:06.000Z</time>
</trkpt>
<trkpt lat="46.1263460" lon="10.4791990">
	<ele>2782.60</ele>
	<time>2023-08-07T12:06:07.000Z</time>
</trkpt>
<trkpt lat="46.1263370" lon="10.4792040">
	<ele>2782.00</ele>
	<time>2023-08-07T12:06:08.000Z</time>
</trkpt>
<trkpt lat="46.1263360" lon="10.4792040">
	<ele>2781.40</ele>
	<time>2023-08-07T12:06:09.000Z</time>
</trkpt>
<trkpt lat="46.1263370" lon="10.4792100">
	<ele>2781.00</ele>
	<time>2023-08-07T12:06:10.000Z</time>
</trkpt>
<trkpt lat="46.1263400" lon="10.4792190">
	<ele>2780.80</ele>
	<time>2023-08-07T12:06:11.000Z</time>
</trkpt>
<trkpt lat="46.1263500" lon="10.4792380">
	<ele>2780.60</ele>
	<time>2023-08-07T12:06:12.000Z</time>
</trkpt>
<trkpt lat="46.1263460" lon="10.4792590">
	<ele>2780.40</ele>
	<time>2023-08-07T12:06:13.000Z</time>
</trkpt>
<trkpt lat="46.1263450" lon="10.4792580">
	<ele>2780.40</ele>
	<time>2023-08-07T12:06:14.000Z</time>
</trkpt>
<trkpt lat="46.1263320" lon="10.4792480">
	<ele>2780.20</ele>
	<time>2023-08-07T12:06:15.000Z</time>
</trkpt>
<trkpt lat="46.1263280" lon="10.4792450">
	<ele>2780.20</ele>
	<time>2023-08-07T12:06:16.000Z</time>
</trkpt>
<trkpt lat="46.1263110" lon="10.4792250">
	<ele>2780.00</ele>
	<time>2023-08-07T12:06:17.000Z</time>
</trkpt>
<trkpt lat="46.1263060" lon="10.4792150">
	<ele>2780.00</ele>
	<time>2023-08-07T12:06:18.000Z</time>
</trkpt>
<trkpt lat="46.1263000" lon="10.4792070">
	<ele>2779.80</ele>
	<time>2023-08-07T12:06:19.000Z</time>
</trkpt>
<trkpt lat="46.1262860" lon="10.4791960">
	<ele>2779.60</ele>
	<time>2023-08-07T12:06:20.000Z</time>
</trkpt>
<trkpt lat="46.1262820" lon="10.4791940">
	<ele>2779.60</ele>
	<time>2023-08-07T12:06:21.000Z</time>
</trkpt>
<trkpt lat="46.1262780" lon="10.4791910">
	<ele>2779.40</ele>
	<time>2023-08-07T12:06:22.000Z</time>
</trkpt>
<trkpt lat="46.1262690" lon="10.4791880">
	<ele>2779.20</ele>
	<time>2023-08-07T12:06:23.000Z</time>
</trkpt>
<trkpt lat="46.1262780" lon="10.4791940">
	<ele>2779.00</ele>
	<time>2023-08-07T12:06:24.000Z</time>
</trkpt>
<trkpt lat="46.1262780" lon="10.4791950">
	<ele>2778.80</ele>
	<time>2023-08-07T12:06:25.000Z</time>
</trkpt>
<trkpt lat="46.1262760" lon="10.4791940">
	<ele>2778.40</ele>
	<time>2023-08-07T12:06:26.000Z</time>
</trkpt>
<trkpt lat="46.1262740" lon="10.4792000">
	<ele>2778.20</ele>
	<time>2023-08-07T12:06:27.000Z</time>
</trkpt>
<trkpt lat="46.1262700" lon="10.4792050">
	<ele>2778.00</ele>
	<time>2023-08-07T12:06:28.000Z</time>
</trkpt>
<trkpt lat="46.1262560" lon="10.4791990">
	<ele>2778.00</ele>
	<time>2023-08-07T12:06:29.000Z</time>
</trkpt>
<trkpt lat="46.1262380" lon="10.4791950">
	<ele>2777.80</ele>
	<time>2023-08-07T12:06:30.000Z</time>
</trkpt>
<trkpt lat="46.1262330" lon="10.4792030">
	<ele>2777.80</ele>
	<time>2023-08-07T12:06:31.000Z</time>
</trkpt>
<trkpt lat="46.1262280" lon="10.4792010">
	<ele>2777.60</ele>
	<time>2023-08-07T12:06:32.000Z</time>
</trkpt>
<trkpt lat="46.1262200" lon="10.4791930">
	<ele>2777.60</ele>
	<time>2023-08-07T12:06:33.000Z</time>
</trkpt>
<trkpt lat="46.1262170" lon="10.4791950">
	<ele>2777.60</ele>
	<time>2023-08-07T12:06:34.000Z</time>
</trkpt>
<trkpt lat="46.1262140" lon="10.4791970">
	<ele>2777.60</ele>
	<time>2023-08-07T12:06:35.000Z</time>
</trkpt>
<trkpt lat="46.1262050" lon="10.4791970">
	<ele>2777.80</ele>
	<time>2023-08-07T12:06:36.000Z</time>
</trkpt>
<trkpt lat="46.1261980" lon="10.4791970">
	<ele>2777.80</ele>
	<time>2023-08-07T12:06:37.000Z</time>
</trkpt>
<trkpt lat="46.1262030" lon="10.4792100">
	<ele>2777.80</ele>
	<time>2023-08-07T12:06:38.000Z</time>
</trkpt>
<trkpt lat="46.1262030" lon="10.4792050">
	<ele>2777.80</ele>
	<time>2023-08-07T12:06:39.000Z</time>
</trkpt>
<trkpt lat="46.1262050" lon="10.4792000">
	<ele>2777.80</ele>
	<time>2023-08-07T12:06:40.000Z</time>
</trkpt>
<trkpt lat="46.1262090" lon="10.4792010">
	<ele>2777.60</ele>
	<time>2023-08-07T12:06:41.000Z</time>
</trkpt>
<trkpt lat="46.1262200" lon="10.4792040">
	<ele>2777.40</ele>
	<time>2023-08-07T12:06:42.000Z</time>
</trkpt>
<trkpt lat="46.1262310" lon="10.4792050">
	<ele>2777.40</ele>
	<time>2023-08-07T12:06:43.000Z</time>
</trkpt>
<trkpt lat="46.1262240" lon="10.4791860">
	<ele>2777.40</ele>
	<time>2023-08-07T12:06:44.000Z</time>
</trkpt>
<trkpt lat="46.1262250" lon="10.4791820">
	<ele>2776.60</ele>
	<time>2023-08-07T12:06:45.000Z</time>
</trkpt>
<trkpt lat="46.1262250" lon="10.4791830">
	<ele>2776.20</ele>
	<time>2023-08-07T12:06:46.000Z</time>
</trkpt>
<trkpt lat="46.1262300" lon="10.4791800">
	<ele>2775.80</ele>
	<time>2023-08-07T12:06:47.000Z</time>
</trkpt>
<trkpt lat="46.1262280" lon="10.4791800">
	<ele>2775.60</ele>
	<time>2023-08-07T12:06:48.000Z</time>
</trkpt>
<trkpt lat="46.1262310" lon="10.4791800">
	<ele>2775.60</ele>
	<time>2023-08-07T12:06:49.000Z</time>
</trkpt>
<trkpt lat="46.1262360" lon="10.4791870">
	<ele>2775.60</ele>
	<time>2023-08-07T12:06:50.000Z</time>
</trkpt>
<trkpt lat="46.1262360" lon="10.4791860">
	<ele>2775.60</ele>
	<time>2023-08-07T12:06:51.000Z</time>
</trkpt>
<trkpt lat="46.1262360" lon="10.4791860">
	<ele>2775.60</ele>
	<time>2023-08-07T12:06:52.000Z</time>
</trkpt>
<trkpt lat="46.1262360" lon="10.4791860">
	<ele>2775.60</ele>
	<time>2023-08-07T12:06:53.000Z</time>
</trkpt>
<trkpt lat="46.1262360" lon="10.4791860">
	<ele>2775.40</ele>
	<time>2023-08-07T12:06:54.000Z</time>
</trkpt>
<trkpt lat="46.1262360" lon="10.4791860">
	<ele>2775.40</ele>
	<time>2023-08-07T12:06:55.000Z</time>
</trkpt>
<trkpt lat="46.1262360" lon="10.4791860">
	<ele>2775.20</ele>
	<time>2023-08-07T12:06:56.000Z</time>
</trkpt>
<trkpt lat="46.1262360" lon="10.4791860">
	<ele>2775.20</ele>
	<time>2023-08-07T12:06:57.000Z</time>
</trkpt>
<trkpt lat="46.1262360" lon="10.4791860">
	<ele>2775.00</ele>
	<time>2023-08-07T12:06:58.000Z</time>
</trkpt>
<trkpt lat="46.1262360" lon="10.4791860">
	<ele>2775.00</ele>
	<time>2023-08-07T12:06:59.000Z</time>
</trkpt>
<trkpt lat="46.1262360" lon="10.4791860">
	<ele>2775.00</ele>
	<time>2023-08-07T12:07:00.000Z</time>
</trkpt>
<trkpt lat="46.1262360" lon="10.4791860">
	<ele>2775.00</ele>
	<time>2023-08-07T12:07:01.000Z</time>
</trkpt>
<trkpt lat="46.1262360" lon="10.4791860">
	<ele>2775.00</ele>
	<time>2023-08-07T12:07:02.000Z</time>
</trkpt>
<trkpt lat="46.1262360" lon="10.4791860">
	<ele>2774.80</ele>
	<time>2023-08-07T12:07:03.000Z</time>
</trkpt>
<trkpt lat="46.1262360" lon="10.4791860">
	<ele>2774.80</ele>
	<time>2023-08-07T12:07:04.000Z</time>
</trkpt>
<trkpt lat="46.1262390" lon="10.4791890">
	<ele>2774.60</ele>
	<time>2023-08-07T12:07:05.000Z</time>
</trkpt>
<trkpt lat="46.1262340" lon="10.4791850">
	<ele>2774.60</ele>
	<time>2023-08-07T12:07:06.000Z</time>
</trkpt>
<trkpt lat="46.1262350" lon="10.4791870">
	<ele>2774.40</ele>
	<time>2023-08-07T12:07:07.000Z</time>
</trkpt>
<trkpt lat="46.1262360" lon="10.4791920">
	<ele>2774.20</ele>
	<time>2023-08-07T12:07:08.000Z</time>
</trkpt>
<trkpt lat="46.1262390" lon="10.4791920">
	<ele>2774.20</ele>
	<time>2023-08-07T12:07:09.000Z</time>
</trkpt>
<trkpt lat="46.1262400" lon="10.4791950">
	<ele>2774.00</ele>
	<time>2023-08-07T12:07:10.000Z</time>
</trkpt>
<trkpt lat="46.1262400" lon="10.4791890">
	<ele>2773.60</ele>
	<time>2023-08-07T12:07:11.000Z</time>
</trkpt>
<trkpt lat="46.1262330" lon="10.4791810">
	<ele>2773.40</ele>
	<time>2023-08-07T12:07:12.000Z</time>
</trkpt>
<trkpt lat="46.1262320" lon="10.4791810">
	<ele>2773.20</ele>
	<time>2023-08-07T12:07:13.000Z</time>
</trkpt>
<trkpt lat="46.1262360" lon="10.4791830">
	<ele>2773.20</ele>
	<time>2023-08-07T12:07:14.000Z</time>
</trkpt>
<trkpt lat="46.1262450" lon="10.4791930">
	<ele>2773.20</ele>
	<time>2023-08-07T12:07:15.000Z</time>
</trkpt>
<trkpt lat="46.1262490" lon="10.4792020">
	<ele>2773.20</ele>
	<time>2023-08-07T12:07:16.000Z</time>
</trkpt>
<trkpt lat="46.1262490" lon="10.4792070">
	<ele>2773.40</ele>
	<time>2023-08-07T12:07:17.000Z</time>
</trkpt>
<trkpt lat="46.1262480" lon="10.4792080">
	<ele>2773.80</ele>
	<time>2023-08-07T12:07:18.000Z</time>
</trkpt>
<trkpt lat="46.1262410" lon="10.4791970">
	<ele>2774.20</ele>
	<time>2023-08-07T12:07:19.000Z</time>
</trkpt>
<trkpt lat="46.1262240" lon="10.4791860">
	<ele>2774.40</ele>
	<time>2023-08-07T12:07:20.000Z</time>
</trkpt>
<trkpt lat="46.1262260" lon="10.4791790">
	<ele>2774.60</ele>
	<time>2023-08-07T12:07:21.000Z</time>
</trkpt>
<trkpt lat="46.1262190" lon="10.4791740">
	<ele>2774.80</ele>
	<time>2023-08-07T12:07:22.000Z</time>
</trkpt>
<trkpt lat="46.1262180" lon="10.4791750">
	<ele>2775.00</ele>
	<time>2023-08-07T12:07:23.000Z</time>
</trkpt>
<trkpt lat="46.1262200" lon="10.4791780">
	<ele>2775.00</ele>
	<time>2023-08-07T12:07:24.000Z</time>
</trkpt>
<trkpt lat="46.1262190" lon="10.4791810">
	<ele>2775.20</ele>
	<time>2023-08-07T12:07:25.000Z</time>
</trkpt>
<trkpt lat="46.1262280" lon="10.4791790">
	<ele>2775.40</ele>
	<time>2023-08-07T12:07:26.000Z</time>
</trkpt>
<trkpt lat="46.1262340" lon="10.4791750">
	<ele>2775.60</ele>
	<time>2023-08-07T12:07:27.000Z</time>
</trkpt>
<trkpt lat="46.1262310" lon="10.4791710">
	<ele>2775.80</ele>
	<time>2023-08-07T12:07:29.000Z</time>
</trkpt>
<trkpt lat="46.1262210" lon="10.4791710">
	<ele>2775.80</ele>
	<time>2023-08-07T12:07:30.000Z</time>
</trkpt>
<trkpt lat="46.1262070" lon="10.4791700">
	<ele>2775.60</ele>
	<time>2023-08-07T12:07:31.000Z</time>
</trkpt>
<trkpt lat="46.1261910" lon="10.4791630">
	<ele>2775.40</ele>
	<time>2023-08-07T12:07:32.000Z</time>
</trkpt>
<trkpt lat="46.1261820" lon="10.4791670">
	<ele>2775.20</ele>
	<time>2023-08-07T12:07:33.000Z</time>
</trkpt>
<trkpt lat="46.1261770" lon="10.4791650">
	<ele>2775.00</ele>
	<time>2023-08-07T12:07:34.000Z</time>
</trkpt>
<trkpt lat="46.1261730" lon="10.4791640">
	<ele>2775.00</ele>
	<time>2023-08-07T12:07:35.000Z</time>
</trkpt>
<trkpt lat="46.1261680" lon="10.4791640">
	<ele>2775.00</ele>
	<time>2023-08-07T12:07:36.000Z</time>
</trkpt>
<trkpt lat="46.1261670" lon="10.4791660">
	<ele>2775.00</ele>
	<time>2023-08-07T12:07:37.000Z</time>
</trkpt>
<trkpt lat="46.1261740" lon="10.4791650">
	<ele>2775.00</ele>
	<time>2023-08-07T12:07:38.000Z</time>
</trkpt>
<trkpt lat="46.1261770" lon="10.4791650">
	<ele>2775.00</ele>
	<time>2023-08-07T12:07:39.000Z</time>
</trkpt>
<trkpt lat="46.1261760" lon="10.4791640">
	<ele>2774.80</ele>
	<time>2023-08-07T12:07:40.000Z</time>
</trkpt>
<trkpt lat="46.1261770" lon="10.4791650">
	<ele>2775.00</ele>
	<time>2023-08-07T12:07:41.000Z</time>
</trkpt>
<trkpt lat="46.1261770" lon="10.4791690">
	<ele>2774.80</ele>
	<time>2023-08-07T12:07:42.000Z</time>
</trkpt>
<trkpt lat="46.1261710" lon="10.4791740">
	<ele>2774.80</ele>
	<time>2023-08-07T12:07:43.000Z</time>
</trkpt>
<trkpt lat="46.1261720" lon="10.4791730">
	<ele>2775.00</ele>
	<time>2023-08-07T12:07:44.000Z</time>
</trkpt>
<trkpt lat="46.1261650" lon="10.4791660">
	<ele>2775.00</ele>
	<time>2023-08-07T12:07:45.000Z</time>
</trkpt>
<trkpt lat="46.1261670" lon="10.4791670">
	<ele>2774.80</ele>
	<time>2023-08-07T12:07:46.000Z</time>
</trkpt>
<trkpt lat="46.1261720" lon="10.4791670">
	<ele>2774.80</ele>
	<time>2023-08-07T12:07:47.000Z</time>
</trkpt>
<trkpt lat="46.1261670" lon="10.4791580">
	<ele>2774.80</ele>
	<time>2023-08-07T12:07:48.000Z</time>
</trkpt>
<trkpt lat="46.1261680" lon="10.4791470">
	<ele>2774.80</ele>
	<time>2023-08-07T12:07:49.000Z</time>
</trkpt>
<trkpt lat="46.1261660" lon="10.4791490">
	<ele>2774.80</ele>
	<time>2023-08-07T12:07:50.000Z</time>
</trkpt>
<trkpt lat="46.1261650" lon="10.4791500">
	<ele>2774.60</ele>
	<time>2023-08-07T12:07:51.000Z</time>
</trkpt>
<trkpt lat="46.1261640" lon="10.4791510">
	<ele>2774.60</ele>
	<time>2023-08-07T12:07:52.000Z</time>
</trkpt>
<trkpt lat="46.1261610" lon="10.4791510">
	<ele>2774.40</ele>
	<time>2023-08-07T12:07:53.000Z</time>
</trkpt>
<trkpt lat="46.1261610" lon="10.4791490">
	<ele>2774.40</ele>
	<time>2023-08-07T12:07:54.000Z</time>
</trkpt>
<trkpt lat="46.1261630" lon="10.4791480">
	<ele>2774.20</ele>
	<time>2023-08-07T12:07:55.000Z</time>
</trkpt>
<trkpt lat="46.1261640" lon="10.4791450">
	<ele>2774.20</ele>
	<time>2023-08-07T12:07:56.000Z</time>
</trkpt>
<trkpt lat="46.1261620" lon="10.4791440">
	<ele>2774.20</ele>
	<time>2023-08-07T12:07:57.000Z</time>
</trkpt>
<trkpt lat="46.1261590" lon="10.4791370">
	<ele>2774.20</ele>
	<time>2023-08-07T12:07:58.000Z</time>
</trkpt>
<trkpt lat="46.1261570" lon="10.4791360">
	<ele>2774.20</ele>
	<time>2023-08-07T12:07:59.000Z</time>
</trkpt>
<trkpt lat="46.1261510" lon="10.4791300">
	<ele>2774.00</ele>
	<time>2023-08-07T12:08:00.000Z</time>
</trkpt>
<trkpt lat="46.1261580" lon="10.4791260">
	<ele>2773.60</ele>
	<time>2023-08-07T12:08:01.000Z</time>
</trkpt>
<trkpt lat="46.1261630" lon="10.4791230">
	<ele>2773.40</ele>
	<time>2023-08-07T12:08:02.000Z</time>
</trkpt>
<trkpt lat="46.1261660" lon="10.4791160">
	<ele>2773.20</ele>
	<time>2023-08-07T12:08:03.000Z</time>
</trkpt>
<trkpt lat="46.1261700" lon="10.4791140">
	<ele>2773.00</ele>
	<time>2023-08-07T12:08:04.000Z</time>
</trkpt>
<trkpt lat="46.1261730" lon="10.4791170">
	<ele>2773.00</ele>
	<time>2023-08-07T12:08:05.000Z</time>
</trkpt>
<trkpt lat="46.1261690" lon="10.4791180">
	<ele>2772.60</ele>
	<time>2023-08-07T12:08:06.000Z</time>
</trkpt>
<trkpt lat="46.1261680" lon="10.4791180">
	<ele>2772.40</ele>
	<time>2023-08-07T12:08:07.000Z</time>
</trkpt>
<trkpt lat="46.1261690" lon="10.4791210">
	<ele>2772.20</ele>
	<time>2023-08-07T12:08:08.000Z</time>
</trkpt>
<trkpt lat="46.1261690" lon="10.4791230">
	<ele>2772.00</ele>
	<time>2023-08-07T12:08:09.000Z</time>
</trkpt>
<trkpt lat="46.1261690" lon="10.4791270">
	<ele>2772.00</ele>
	<time>2023-08-07T12:08:10.000Z</time>
</trkpt>
<trkpt lat="46.1261680" lon="10.4791300">
	<ele>2771.80</ele>
	<time>2023-08-07T12:08:11.000Z</time>
</trkpt>
<trkpt lat="46.1261640" lon="10.4791320">
	<ele>2771.80</ele>
	<time>2023-08-07T12:08:12.000Z</time>
</trkpt>
<trkpt lat="46.1261490" lon="10.4791290">
	<ele>2771.80</ele>
	<time>2023-08-07T12:08:13.000Z</time>
</trkpt>
<trkpt lat="46.1261510" lon="10.4791400">
	<ele>2771.80</ele>
	<time>2023-08-07T12:08:14.000Z</time>
</trkpt>
<trkpt lat="46.1261560" lon="10.4791410">
	<ele>2771.40</ele>
	<time>2023-08-07T12:08:15.000Z</time>
</trkpt>
<trkpt lat="46.1261500" lon="10.4791330">
	<ele>2771.00</ele>
	<time>2023-08-07T12:08:16.000Z</time>
</trkpt>
<trkpt lat="46.1261430" lon="10.4791260">
	<ele>2770.80</ele>
	<time>2023-08-07T12:08:17.000Z</time>
</trkpt>
<trkpt lat="46.1261410" lon="10.4791280">
	<ele>2770.80</ele>
	<time>2023-08-07T12:08:18.000Z</time>
</trkpt>
<trkpt lat="46.1261400" lon="10.4791220">
	<ele>2770.80</ele>
	<time>2023-08-07T12:08:19.000Z</time>
</trkpt>
<trkpt lat="46.1261400" lon="10.4791210">
	<ele>2770.80</ele>
	<time>2023-08-07T12:08:20.000Z</time>
</trkpt>
<trkpt lat="46.1261350" lon="10.4791150">
	<ele>2770.80</ele>
	<time>2023-08-07T12:08:21.000Z</time>
</trkpt>
<trkpt lat="46.1261330" lon="10.4791140">
	<ele>2770.60</ele>
	<time>2023-08-07T12:08:22.000Z</time>
</trkpt>
<trkpt lat="46.1261330" lon="10.4791120">
	<ele>2770.60</ele>
	<time>2023-08-07T12:08:23.000Z</time>
</trkpt>
<trkpt lat="46.1261340" lon="10.4791100">
	<ele>2770.60</ele>
	<time>2023-08-07T12:08:24.000Z</time>
</trkpt>
<trkpt lat="46.1261450" lon="10.4791170">
	<ele>2770.60</ele>
	<time>2023-08-07T12:08:25.000Z</time>
</trkpt>
<trkpt lat="46.1261400" lon="10.4791160">
	<ele>2770.60</ele>
	<time>2023-08-07T12:08:26.000Z</time>
</trkpt>
<trkpt lat="46.1261440" lon="10.4791140">
	<ele>2770.40</ele>
	<time>2023-08-07T12:08:27.000Z</time>
</trkpt>
<trkpt lat="46.1261480" lon="10.4791180">
	<ele>2770.60</ele>
	<time>2023-08-07T12:08:28.000Z</time>
</trkpt>
<trkpt lat="46.1261530" lon="10.4791260">
	<ele>2770.80</ele>
	<time>2023-08-07T12:08:29.000Z</time>
</trkpt>
<trkpt lat="46.1261530" lon="10.4791320">
	<ele>2770.80</ele>
	<time>2023-08-07T12:08:30.000Z</time>
</trkpt>
<trkpt lat="46.1261570" lon="10.4791480">
	<ele>2770.80</ele>
	<time>2023-08-07T12:08:31.000Z</time>
</trkpt>
<trkpt lat="46.1261720" lon="10.4791510">
	<ele>2770.80</ele>
	<time>2023-08-07T12:08:32.000Z</time>
</trkpt>
<trkpt lat="46.1261820" lon="10.4791650">
	<ele>2770.80</ele>
	<time>2023-08-07T12:08:33.000Z</time>
</trkpt>
<trkpt lat="46.1261830" lon="10.4791690">
	<ele>2770.60</ele>
	<time>2023-08-07T12:08:34.000Z</time>
</trkpt>
<trkpt lat="46.1262000" lon="10.4791730">
	<ele>2770.60</ele>
	<time>2023-08-07T12:08:35.000Z</time>
</trkpt>
<trkpt lat="46.1262040" lon="10.4791730">
	<ele>2770.40</ele>
	<time>2023-08-07T12:08:36.000Z</time>
</trkpt>
<trkpt lat="46.1262080" lon="10.4791750">
	<ele>2770.40</ele>
	<time>2023-08-07T12:08:37.000Z</time>
</trkpt>
<trkpt lat="46.1262110" lon="10.4791740">
	<ele>2770.20</ele>
	<time>2023-08-07T12:08:38.000Z</time>
</trkpt>
<trkpt lat="46.1262060" lon="10.4791680">
	<ele>2770.00</ele>
	<time>2023-08-07T12:08:39.000Z</time>
</trkpt>
<trkpt lat="46.1262030" lon="10.4791560">
	<ele>2769.80</ele>
	<time>2023-08-07T12:08:40.000Z</time>
</trkpt>
<trkpt lat="46.1262020" lon="10.4791540">
	<ele>2769.80</ele>
	<time>2023-08-07T12:08:41.000Z</time>
</trkpt>
<trkpt lat="46.1262040" lon="10.4791530">
	<ele>2769.60</ele>
	<time>2023-08-07T12:08:42.000Z</time>
</trkpt>
<trkpt lat="46.1262030" lon="10.4791520">
	<ele>2769.40</ele>
	<time>2023-08-07T12:08:43.000Z</time>
</trkpt>
<trkpt lat="46.1261980" lon="10.4791490">
	<ele>2769.00</ele>
	<time>2023-08-07T12:08:44.000Z</time>
</trkpt>
<trkpt lat="46.1261980" lon="10.4791470">
	<ele>2769.00</ele>
	<time>2023-08-07T12:08:45.000Z</time>
</trkpt>
<trkpt lat="46.1261920" lon="10.4791390">
	<ele>2768.80</ele>
	<time>2023-08-07T12:08:46.000Z</time>
</trkpt>
<trkpt lat="46.1261900" lon="10.4791380">
	<ele>2768.80</ele>
	<time>2023-08-07T12:08:47.000Z</time>
</trkpt>
<trkpt lat="46.1261870" lon="10.4791320">
	<ele>2768.80</ele>
	<time>2023-08-07T12:08:48.000Z</time>
</trkpt>
<trkpt lat="46.1261970" lon="10.4791320">
	<ele>2768.80</ele>
	<time>2023-08-07T12:08:49.000Z</time>
</trkpt>
<trkpt lat="46.1262010" lon="10.4791260">
	<ele>2769.00</ele>
	<time>2023-08-07T12:08:50.000Z</time>
</trkpt>
<trkpt lat="46.1262010" lon="10.4791260">
	<ele>2769.00</ele>
	<time>2023-08-07T12:08:51.000Z</time>
</trkpt>
<trkpt lat="46.1262010" lon="10.4791280">
	<ele>2769.00</ele>
	<time>2023-08-07T12:08:52.000Z</time>
</trkpt>
<trkpt lat="46.1262050" lon="10.4791340">
	<ele>2769.00</ele>
	<time>2023-08-07T12:08:53.000Z</time>
</trkpt>
<trkpt lat="46.1262040" lon="10.4791380">
	<ele>2769.00</ele>
	<time>2023-08-07T12:08:54.000Z</time>
</trkpt>
<trkpt lat="46.1262030" lon="10.4791400">
	<ele>2768.80</ele>
	<time>2023-08-07T12:08:55.000Z</time>
</trkpt>
<trkpt lat="46.1262030" lon="10.4791380">
	<ele>2768.80</ele>
	<time>2023-08-07T12:08:56.000Z</time>
</trkpt>
<trkpt lat="46.1262010" lon="10.4791280">
	<ele>2768.80</ele>
	<time>2023-08-07T12:08:57.000Z</time>
</trkpt>
<trkpt lat="46.1262130" lon="10.4791340">
	<ele>2768.60</ele>
	<time>2023-08-07T12:08:58.000Z</time>
</trkpt>
<trkpt lat="46.1262150" lon="10.4791370">
	<ele>2768.60</ele>
	<time>2023-08-07T12:08:59.000Z</time>
</trkpt>
<trkpt lat="46.1262260" lon="10.4791320">
	<ele>2768.40</ele>
	<time>2023-08-07T12:09:00.000Z</time>
</trkpt>
<trkpt lat="46.1262470" lon="10.4791410">
	<ele>2768.20</ele>
	<time>2023-08-07T12:09:01.000Z</time>
</trkpt>
<trkpt lat="46.1262730" lon="10.4791460">
	<ele>2768.00</ele>
	<time>2023-08-07T12:09:02.000Z</time>
</trkpt>
<trkpt lat="46.1262800" lon="10.4791470">
	<ele>2768.00</ele>
	<time>2023-08-07T12:09:03.000Z</time>
</trkpt>
<trkpt lat="46.1262920" lon="10.4791470">
	<ele>2767.80</ele>
	<time>2023-08-07T12:09:04.000Z</time>
</trkpt>
<trkpt lat="46.1263020" lon="10.4791440">
	<ele>2767.60</ele>
	<time>2023-08-07T12:09:05.000Z</time>
</trkpt>
<trkpt lat="46.1263100" lon="10.4791440">
	<ele>2767.60</ele>
	<time>2023-08-07T12:09:06.000Z</time>
</trkpt>
<trkpt lat="46.1263130" lon="10.4791420">
	<ele>2767.60</ele>
	<time>2023-08-07T12:09:07.000Z</time>
</trkpt>
<trkpt lat="46.1263070" lon="10.4791350">
	<ele>2767.40</ele>
	<time>2023-08-07T12:09:08.000Z</time>
</trkpt>
<trkpt lat="46.1263100" lon="10.4791350">
	<ele>2767.60</ele>
	<time>2023-08-07T12:09:09.000Z</time>
</trkpt>
<trkpt lat="46.1263090" lon="10.4791350">
	<ele>2767.60</ele>
	<time>2023-08-07T12:09:10.000Z</time>
</trkpt>
<trkpt lat="46.1263100" lon="10.4791380">
	<ele>2767.60</ele>
	<time>2023-08-07T12:09:11.000Z</time>
</trkpt>
<trkpt lat="46.1263100" lon="10.4791380">
	<ele>2767.60</ele>
	<time>2023-08-07T12:09:12.000Z</time>
</trkpt>
<trkpt lat="46.1263050" lon="10.4791330">
	<ele>2767.60</ele>
	<time>2023-08-07T12:09:13.000Z</time>
</trkpt>
<trkpt lat="46.1263040" lon="10.4791300">
	<ele>2767.60</ele>
	<time>2023-08-07T12:09:14.000Z</time>
</trkpt>
<trkpt lat="46.1262970" lon="10.4791200">
	<ele>2767.60</ele>
	<time>2023-08-07T12:09:15.000Z</time>
</trkpt>
<trkpt lat="46.1262950" lon="10.4791150">
	<ele>2767.40</ele>
	<time>2023-08-07T12:09:16.000Z</time>
</trkpt>
<trkpt lat="46.1262910" lon="10.4791140">
	<ele>2767.40</ele>
	<time>2023-08-07T12:09:17.000Z</time>
</trkpt>
<trkpt lat="46.1262930" lon="10.4791180">
	<ele>2767.20</ele>
	<time>2023-08-07T12:09:18.000Z</time>
</trkpt>
<trkpt lat="46.1262980" lon="10.4791200">
	<ele>2767.00</ele>
	<time>2023-08-07T12:09:19.000Z</time>
</trkpt>
<trkpt lat="46.1262970" lon="10.4791200">
	<ele>2766.80</ele>
	<time>2023-08-07T12:09:20.000Z</time>
</trkpt>
<trkpt lat="46.1262920" lon="10.4791100">
	<ele>2766.80</ele>
	<time>2023-08-07T12:09:21.000Z</time>
</trkpt>
<trkpt lat="46.1262840" lon="10.4791010">
	<ele>2766.60</ele>
	<time>2023-08-07T12:09:22.000Z</time>
</trkpt>
<trkpt lat="46.1262830" lon="10.4790880">
	<ele>2766.60</ele>
	<time>2023-08-07T12:09:23.000Z</time>
</trkpt>
<trkpt lat="46.1262800" lon="10.4790820">
	<ele>2766.60</ele>
	<time>2023-08-07T12:09:24.000Z</time>
</trkpt>
<trkpt lat="46.1262730" lon="10.4790820">
	<ele>2766.60</ele>
	<time>2023-08-07T12:09:25.000Z</time>
</trkpt>
<trkpt lat="46.1262760" lon="10.4790900">
	<ele>2766.40</ele>
	<time>2023-08-07T12:09:26.000Z</time>
</trkpt>
<trkpt lat="46.1262790" lon="10.4790890">
	<ele>2766.20</ele>
	<time>2023-08-07T12:09:27.000Z</time>
</trkpt>
<trkpt lat="46.1262700" lon="10.4790850">
	<ele>2766.00</ele>
	<time>2023-08-07T12:09:28.000Z</time>
</trkpt>
<trkpt lat="46.1262660" lon="10.4790830">
	<ele>2766.00</ele>
	<time>2023-08-07T12:09:29.000Z</time>
</trkpt>
<trkpt lat="46.1262640" lon="10.4790830">
	<ele>2765.80</ele>
	<time>2023-08-07T12:09:30.000Z</time>
</trkpt>
<trkpt lat="46.1262560" lon="10.4790740">
	<ele>2765.80</ele>
	<time>2023-08-07T12:09:31.000Z</time>
</trkpt>
<trkpt lat="46.1262540" lon="10.4790740">
	<ele>2765.80</ele>
	<time>2023-08-07T12:09:32.000Z</time>
</trkpt>
<trkpt lat="46.1262470" lon="10.4790700">
	<ele>2765.80</ele>
	<time>2023-08-07T12:09:33.000Z</time>
</trkpt>
<trkpt lat="46.1262450" lon="10.4790670">
	<ele>2765.80</ele>
	<time>2023-08-07T12:09:34.000Z</time>
</trkpt>
<trkpt lat="46.1262410" lon="10.4790680">
	<ele>2765.60</ele>
	<time>2023-08-07T12:09:35.000Z</time>
</trkpt>
<trkpt lat="46.1262430" lon="10.4790670">
	<ele>2765.60</ele>
	<time>2023-08-07T12:09:36.000Z</time>
</trkpt>
<trkpt lat="46.1262380" lon="10.4790590">
	<ele>2765.40</ele>
	<time>2023-08-07T12:09:37.000Z</time>
</trkpt>
<trkpt lat="46.1262310" lon="10.4790580">
	<ele>2765.20</ele>
	<time>2023-08-07T12:09:38.000Z</time>
</trkpt>
<trkpt lat="46.1262260" lon="10.4790440">
	<ele>2765.00</ele>
	<time>2023-08-07T12:09:39.000Z</time>
</trkpt>
<trkpt lat="46.1262200" lon="10.4790410">
	<ele>2765.00</ele>
	<time>2023-08-07T12:09:40.000Z</time>
</trkpt>
<trkpt lat="46.1262170" lon="10.4790390">
	<ele>2764.80</ele>
	<time>2023-08-07T12:09:41.000Z</time>
</trkpt>
<trkpt lat="46.1262170" lon="10.4790450">
	<ele>2764.80</ele>
	<time>2023-08-07T12:09:42.000Z</time>
</trkpt>
<trkpt lat="46.1262280" lon="10.4790560">
	<ele>2764.60</ele>
	<time>2023-08-07T12:09:43.000Z</time>
</trkpt>
<trkpt lat="46.1262270" lon="10.4790560">
	<ele>2764.60</ele>
	<time>2023-08-07T12:09:44.000Z</time>
</trkpt>
<trkpt lat="46.1262340" lon="10.4790420">
	<ele>2764.60</ele>
	<time>2023-08-07T12:09:45.000Z</time>
</trkpt>
<trkpt lat="46.1262380" lon="10.4790440">
	<ele>2764.60</ele>
	<time>2023-08-07T12:09:46.000Z</time>
</trkpt>
<trkpt lat="46.1262410" lon="10.4790430">
	<ele>2764.60</ele>
	<time>2023-08-07T12:09:47.000Z</time>
</trkpt>
<trkpt lat="46.1262490" lon="10.4790370">
	<ele>2764.40</ele>
	<time>2023-08-07T12:09:48.000Z</time>
</trkpt>
<trkpt lat="46.1262520" lon="10.4790400">
	<ele>2764.40</ele>
	<time>2023-08-07T12:09:49.000Z</time>
</trkpt>
<trkpt lat="46.1262470" lon="10.4790210">
	<ele>2764.20</ele>
	<time>2023-08-07T12:09:50.000Z</time>
</trkpt>
<trkpt lat="46.1262480" lon="10.4790140">
	<ele>2764.20</ele>
	<time>2023-08-07T12:09:51.000Z</time>
</trkpt>
<trkpt lat="46.1262550" lon="10.4790020">
	<ele>2764.20</ele>
	<time>2023-08-07T12:09:52.000Z</time>
</trkpt>
<trkpt lat="46.1262520" lon="10.4789840">
	<ele>2764.00</ele>
	<time>2023-08-07T12:09:53.000Z</time>
</trkpt>
<trkpt lat="46.1262530" lon="10.4789720">
	<ele>2764.00</ele>
	<time>2023-08-07T12:09:54.000Z</time>
</trkpt>
<trkpt lat="46.1262510" lon="10.4789620">
	<ele>2763.60</ele>
	<time>2023-08-07T12:09:55.000Z</time>
</trkpt>
<trkpt lat="46.1262500" lon="10.4789600">
	<ele>2763.40</ele>
	<time>2023-08-07T12:09:56.000Z</time>
</trkpt>
<trkpt lat="46.1262520" lon="10.4789600">
	<ele>2763.20</ele>
	<time>2023-08-07T12:09:57.000Z</time>
</trkpt>
<trkpt lat="46.1262530" lon="10.4789610">
	<ele>2763.20</ele>
	<time>2023-08-07T12:09:58.000Z</time>
</trkpt>
<trkpt lat="46.1262580" lon="10.4789630">
	<ele>2763.20</ele>
	<time>2023-08-07T12:09:59.000Z</time>
</trkpt>
<trkpt lat="46.1262540" lon="10.4789600">
	<ele>2763.00</ele>
	<time>2023-08-07T12:10:00.000Z</time>
</trkpt>
<trkpt lat="46.1262440" lon="10.4789570">
	<ele>2763.00</ele>
	<time>2023-08-07T12:10:01.000Z</time>
</trkpt>
<trkpt lat="46.1262390" lon="10.4789540">
	<ele>2762.80</ele>
	<time>2023-08-07T12:10:02.000Z</time>
</trkpt>
<trkpt lat="46.1262380" lon="10.4789510">
	<ele>2762.80</ele>
	<time>2023-08-07T12:10:03.000Z</time>
</trkpt>
<trkpt lat="46.1262420" lon="10.4789450">
	<ele>2762.40</ele>
	<time>2023-08-07T12:10:04.000Z</time>
</trkpt>
<trkpt lat="46.1262420" lon="10.4789380">
	<ele>2762.20</ele>
	<time>2023-08-07T12:10:05.000Z</time>
</trkpt>
<trkpt lat="46.1262440" lon="10.4789370">
	<ele>2762.00</ele>
	<time>2023-08-07T12:10:06.000Z</time>
</trkpt>
<trkpt lat="46.1262460" lon="10.4789390">
	<ele>2762.00</ele>
	<time>2023-08-07T12:10:07.000Z</time>
</trkpt>
<trkpt lat="46.1262510" lon="10.4789450">
	<ele>2761.80</ele>
	<time>2023-08-07T12:10:08.000Z</time>
</trkpt>
<trkpt lat="46.1262530" lon="10.4789490">
	<ele>2761.80</ele>
	<time>2023-08-07T12:10:09.000Z</time>
</trkpt>
<trkpt lat="46.1262590" lon="10.4789590">
	<ele>2761.80</ele>
	<time>2023-08-07T12:10:10.000Z</time>
</trkpt>
<trkpt lat="46.1262590" lon="10.4789550">
	<ele>2761.80</ele>
	<time>2023-08-07T12:10:11.000Z</time>
</trkpt>
<trkpt lat="46.1262590" lon="10.4789460">
	<ele>2761.80</ele>
	<time>2023-08-07T12:10:12.000Z</time>
</trkpt>
<trkpt lat="46.1262600" lon="10.4789450">
	<ele>2761.60</ele>
	<time>2023-08-07T12:10:13.000Z</time>
</trkpt>
<trkpt lat="46.1262600" lon="10.4789460">
	<ele>2761.40</ele>
	<time>2023-08-07T12:10:14.000Z</time>
</trkpt>
<trkpt lat="46.1262590" lon="10.4789430">
	<ele>2761.20</ele>
	<time>2023-08-07T12:10:15.000Z</time>
</trkpt>
<trkpt lat="46.1262600" lon="10.4789360">
	<ele>2761.20</ele>
	<time>2023-08-07T12:10:16.000Z</time>
</trkpt>
<trkpt lat="46.1262600" lon="10.4789230">
	<ele>2761.00</ele>
	<time>2023-08-07T12:10:17.000Z</time>
</trkpt>
<trkpt lat="46.1262600" lon="10.4789150">
	<ele>2760.80</ele>
	<time>2023-08-07T12:10:18.000Z</time>
</trkpt>
<trkpt lat="46.1262580" lon="10.4789080">
	<ele>2760.60</ele>
	<time>2023-08-07T12:10:19.000Z</time>
</trkpt>
<trkpt lat="46.1262590" lon="10.4789080">
	<ele>2760.20</ele>
	<time>2023-08-07T12:10:20.000Z</time>
</trkpt>
<trkpt lat="46.1262660" lon="10.4789180">
	<ele>2760.00</ele>
	<time>2023-08-07T12:10:21.000Z</time>
</trkpt>
<trkpt lat="46.1262720" lon="10.4789120">
	<ele>2759.80</ele>
	<time>2023-08-07T12:10:22.000Z</time>
</trkpt>
<trkpt lat="46.1262740" lon="10.4789120">
	<ele>2759.60</ele>
	<time>2023-08-07T12:10:23.000Z</time>
</trkpt>
<trkpt lat="46.1262760" lon="10.4789080">
	<ele>2759.60</ele>
	<time>2023-08-07T12:10:24.000Z</time>
</trkpt>
<trkpt lat="46.1262800" lon="10.4789120">
	<ele>2759.40</ele>
	<time>2023-08-07T12:10:25.000Z</time>
</trkpt>
<trkpt lat="46.1262820" lon="10.4789190">
	<ele>2759.20</ele>
	<time>2023-08-07T12:10:26.000Z</time>
</trkpt>
<trkpt lat="46.1262870" lon="10.4789270">
	<ele>2759.00</ele>
	<time>2023-08-07T12:10:27.000Z</time>
</trkpt>
<trkpt lat="46.1262900" lon="10.4789280">
	<ele>2759.00</ele>
	<time>2023-08-07T12:10:28.000Z</time>
</trkpt>
<trkpt lat="46.1262930" lon="10.4789200">
	<ele>2758.80</ele>
	<time>2023-08-07T12:10:29.000Z</time>
</trkpt>
<trkpt lat="46.1262970" lon="10.4789190">
	<ele>2758.80</ele>
	<time>2023-08-07T12:10:30.000Z</time>
</trkpt>
<trkpt lat="46.1263000" lon="10.4789180">
	<ele>2758.60</ele>
	<time>2023-08-07T12:10:31.000Z</time>
</trkpt>
<trkpt lat="46.1263030" lon="10.4789110">
	<ele>2758.60</ele>
	<time>2023-08-07T12:10:32.000Z</time>
</trkpt>
<trkpt lat="46.1263050" lon="10.4789060">
	<ele>2758.40</ele>
	<time>2023-08-07T12:10:33.000Z</time>
</trkpt>
<trkpt lat="46.1263080" lon="10.4789050">
	<ele>2758.40</ele>
	<time>2023-08-07T12:10:34.000Z</time>
</trkpt>
<trkpt lat="46.1263090" lon="10.4789030">
	<ele>2758.20</ele>
	<time>2023-08-07T12:10:35.000Z</time>
</trkpt>
<trkpt lat="46.1263060" lon="10.4788930">
	<ele>2758.20</ele>
	<time>2023-08-07T12:10:36.000Z</time>
</trkpt>
<trkpt lat="46.1263020" lon="10.4788850">
	<ele>2758.20</ele>
	<time>2023-08-07T12:10:37.000Z</time>
</trkpt>
<trkpt lat="46.1263040" lon="10.4788800">
	<ele>2758.00</ele>
	<time>2023-08-07T12:10:38.000Z</time>
</trkpt>
<trkpt lat="46.1263060" lon="10.4788750">
	<ele>2757.80</ele>
	<time>2023-08-07T12:10:39.000Z</time>
</trkpt>
<trkpt lat="46.1263070" lon="10.4788720">
	<ele>2757.60</ele>
	<time>2023-08-07T12:10:40.000Z</time>
</trkpt>
<trkpt lat="46.1263040" lon="10.4788670">
	<ele>2757.40</ele>
	<time>2023-08-07T12:10:41.000Z</time>
</trkpt>
<trkpt lat="46.1263040" lon="10.4788650">
	<ele>2757.20</ele>
	<time>2023-08-07T12:10:42.000Z</time>
</trkpt>
<trkpt lat="46.1263030" lon="10.4788650">
	<ele>2757.20</ele>
	<time>2023-08-07T12:10:43.000Z</time>
</trkpt>
<trkpt lat="46.1263010" lon="10.4788620">
	<ele>2757.00</ele>
	<time>2023-08-07T12:10:44.000Z</time>
</trkpt>
<trkpt lat="46.1262960" lon="10.4788470">
	<ele>2756.80</ele>
	<time>2023-08-07T12:10:45.000Z</time>
</trkpt>
<trkpt lat="46.1262920" lon="10.4788390">
	<ele>2756.80</ele>
	<time>2023-08-07T12:10:46.000Z</time>
</trkpt>
<trkpt lat="46.1262840" lon="10.4788210">
	<ele>2756.60</ele>
	<time>2023-08-07T12:10:47.000Z</time>
</trkpt>
<trkpt lat="46.1262810" lon="10.4788150">
	<ele>2756.40</ele>
	<time>2023-08-07T12:10:48.000Z</time>
</trkpt>
<trkpt lat="46.1262730" lon="10.4788000">
	<ele>2756.20</ele>
	<time>2023-08-07T12:10:49.000Z</time>
</trkpt>
<trkpt lat="46.1262730" lon="10.4787960">
	<ele>2756.20</ele>
	<time>2023-08-07T12:10:50.000Z</time>
</trkpt>
<trkpt lat="46.1262770" lon="10.4787970">
	<ele>2756.20</ele>
	<time>2023-08-07T12:10:51.000Z</time>
</trkpt>
<trkpt lat="46.1262800" lon="10.4787920">
	<ele>2756.00</ele>
	<time>2023-08-07T12:10:52.000Z</time>
</trkpt>
<trkpt lat="46.1262760" lon="10.4787760">
	<ele>2755.80</ele>
	<time>2023-08-07T12:10:53.000Z</time>
</trkpt>
<trkpt lat="46.1262720" lon="10.4787670">
	<ele>2755.80</ele>
	<time>2023-08-07T12:10:54.000Z</time>
</trkpt>
<trkpt lat="46.1262680" lon="10.4787640">
	<ele>2755.60</ele>
	<time>2023-08-07T12:10:55.000Z</time>
</trkpt>
<trkpt lat="46.1262670" lon="10.4787620">
	<ele>2755.60</ele>
	<time>2023-08-07T12:10:56.000Z</time>
</trkpt>
<trkpt lat="46.1262660" lon="10.4787530">
	<ele>2755.40</ele>
	<time>2023-08-07T12:10:57.000Z</time>
</trkpt>
<trkpt lat="46.1262670" lon="10.4787460">
	<ele>2755.20</ele>
	<time>2023-08-07T12:10:58.000Z</time>
</trkpt>
<trkpt lat="46.1262720" lon="10.4787440">
	<ele>2755.20</ele>
	<time>2023-08-07T12:10:59.000Z</time>
</trkpt>
<trkpt lat="46.1262740" lon="10.4787460">
	<ele>2754.80</ele>
	<time>2023-08-07T12:11:00.000Z</time>
</trkpt>
<trkpt lat="46.1262700" lon="10.4787360">
	<ele>2754.60</ele>
	<time>2023-08-07T12:11:01.000Z</time>
</trkpt>
<trkpt lat="46.1262710" lon="10.4787330">
	<ele>2754.40</ele>
	<time>2023-08-07T12:11:02.000Z</time>
</trkpt>
<trkpt lat="46.1262720" lon="10.4787240">
	<ele>2754.20</ele>
	<time>2023-08-07T12:11:03.000Z</time>
</trkpt>
<trkpt lat="46.1262700" lon="10.4787100">
	<ele>2754.00</ele>
	<time>2023-08-07T12:11:04.000Z</time>
</trkpt>
<trkpt lat="46.1262650" lon="10.4786880">
	<ele>2753.80</ele>
	<time>2023-08-07T12:11:05.000Z</time>
</trkpt>
<trkpt lat="46.1262650" lon="10.4786840">
	<ele>2753.80</ele>
	<time>2023-08-07T12:11:06.000Z</time>
</trkpt>
<trkpt lat="46.1262650" lon="10.4786800">
	<ele>2753.60</ele>
	<time>2023-08-07T12:11:07.000Z</time>
</trkpt>
<trkpt lat="46.1262660" lon="10.4786770">
	<ele>2753.40</ele>
	<time>2023-08-07T12:11:08.000Z</time>
</trkpt>
<trkpt lat="46.1262730" lon="10.4786820">
	<ele>2753.40</ele>
	<time>2023-08-07T12:11:09.000Z</time>
</trkpt>
<trkpt lat="46.1262740" lon="10.4786820">
	<ele>2753.40</ele>
	<time>2023-08-07T12:11:10.000Z</time>
</trkpt>
<trkpt lat="46.1262740" lon="10.4786820">
	<ele>2753.00</ele>
	<time>2023-08-07T12:11:11.000Z</time>
</trkpt>
<trkpt lat="46.1262740" lon="10.4786780">
	<ele>2752.80</ele>
	<time>2023-08-07T12:11:12.000Z</time>
</trkpt>
<trkpt lat="46.1262730" lon="10.4786730">
	<ele>2752.60</ele>
	<time>2023-08-07T12:11:13.000Z</time>
</trkpt>
<trkpt lat="46.1262730" lon="10.4786580">
	<ele>2752.20</ele>
	<time>2023-08-07T12:11:14.000Z</time>
</trkpt>
<trkpt lat="46.1262720" lon="10.4786460">
	<ele>2752.20</ele>
	<time>2023-08-07T12:11:15.000Z</time>
</trkpt>
<trkpt lat="46.1262760" lon="10.4786500">
	<ele>2752.00</ele>
	<time>2023-08-07T12:11:16.000Z</time>
</trkpt>
<trkpt lat="46.1262810" lon="10.4786470">
	<ele>2752.00</ele>
	<time>2023-08-07T12:11:17.000Z</time>
</trkpt>
<trkpt lat="46.1262880" lon="10.4786410">
	<ele>2751.80</ele>
	<time>2023-08-07T12:11:18.000Z</time>
</trkpt>
<trkpt lat="46.1262960" lon="10.4786510">
	<ele>2751.60</ele>
	<time>2023-08-07T12:11:19.000Z</time>
</trkpt>
<trkpt lat="46.1263000" lon="10.4786470">
	<ele>2751.60</ele>
	<time>2023-08-07T12:11:20.000Z</time>
</trkpt>
<trkpt lat="46.1263080" lon="10.4786390">
	<ele>2751.60</ele>
	<time>2023-08-07T12:11:21.000Z</time>
</trkpt>
<trkpt lat="46.1263140" lon="10.4786440">
	<ele>2751.60</ele>
	<time>2023-08-07T12:11:22.000Z</time>
</trkpt>
<trkpt lat="46.1263140" lon="10.4786410">
	<ele>2751.20</ele>
	<time>2023-08-07T12:11:23.000Z</time>
</trkpt>
<trkpt lat="46.1263120" lon="10.4786340">
	<ele>2751.00</ele>
	<time>2023-08-07T12:11:24.000Z</time>
</trkpt>
<trkpt lat="46.1263110" lon="10.4786250">
	<ele>2751.00</ele>
	<time>2023-08-07T12:11:25.000Z</time>
</trkpt>
<trkpt lat="46.1263150" lon="10.4786240">
	<ele>2750.60</ele>
	<time>2023-08-07T12:11:26.000Z</time>
</trkpt>
<trkpt lat="46.1263290" lon="10.4786330">
	<ele>2750.40</ele>
	<time>2023-08-07T12:11:27.000Z</time>
</trkpt>
<trkpt lat="46.1263350" lon="10.4786340">
	<ele>2750.20</ele>
	<time>2023-08-07T12:11:28.000Z</time>
</trkpt>
<trkpt lat="46.1263370" lon="10.4786320">
	<ele>2750.20</ele>
	<time>2023-08-07T12:11:29.000Z</time>
</trkpt>
<trkpt lat="46.1263360" lon="10.4786160">
	<ele>2750.00</ele>
	<time>2023-08-07T12:11:30.000Z</time>
</trkpt>
<trkpt lat="46.1263340" lon="10.4786020">
	<ele>2750.00</ele>
	<time>2023-08-07T12:11:31.000Z</time>
</trkpt>
<trkpt lat="46.1263310" lon="10.4785930">
	<ele>2749.80</ele>
	<time>2023-08-07T12:11:32.000Z</time>
</trkpt>
<trkpt lat="46.1263310" lon="10.4785900">
	<ele>2749.60</ele>
	<time>2023-08-07T12:11:33.000Z</time>
</trkpt>
<trkpt lat="46.1263300" lon="10.4785820">
	<ele>2749.40</ele>
	<time>2023-08-07T12:11:34.000Z</time>
</trkpt>
<trkpt lat="46.1263290" lon="10.4785740">
	<ele>2749.40</ele>
	<time>2023-08-07T12:11:35.000Z</time>
</trkpt>
<trkpt lat="46.1263290" lon="10.4785670">
	<ele>2749.20</ele>
	<time>2023-08-07T12:11:36.000Z</time>
</trkpt>
<trkpt lat="46.1263280" lon="10.4785610">
	<ele>2749.00</ele>
	<time>2023-08-07T12:11:37.000Z</time>
</trkpt>
<trkpt lat="46.1263300" lon="10.4785570">
	<ele>2748.80</ele>
	<time>2023-08-07T12:11:38.000Z</time>
</trkpt>
<trkpt lat="46.1263320" lon="10.4785530">
	<ele>2748.80</ele>
	<time>2023-08-07T12:11:39.000Z</time>
</trkpt>
<trkpt lat="46.1263310" lon="10.4785500">
	<ele>2748.60</ele>
	<time>2023-08-07T12:11:40.000Z</time>
</trkpt>
<trkpt lat="46.1263290" lon="10.4785530">
	<ele>2748.40</ele>
	<time>2023-08-07T12:11:41.000Z</time>
</trkpt>
<trkpt lat="46.1263250" lon="10.4785470">
	<ele>2748.20</ele>
	<time>2023-08-07T12:11:42.000Z</time>
</trkpt>
<trkpt lat="46.1263260" lon="10.4785410">
	<ele>2748.20</ele>
	<time>2023-08-07T12:11:43.000Z</time>
</trkpt>
<trkpt lat="46.1263260" lon="10.4785360">
	<ele>2748.00</ele>
	<time>2023-08-07T12:11:44.000Z</time>
</trkpt>
<trkpt lat="46.1263260" lon="10.4785330">
	<ele>2748.00</ele>
	<time>2023-08-07T12:11:45.000Z</time>
</trkpt>
<trkpt lat="46.1263270" lon="10.4785310">
	<ele>2747.80</ele>
	<time>2023-08-07T12:11:46.000Z</time>
</trkpt>
<trkpt lat="46.1263300" lon="10.4785350">
	<ele>2747.40</ele>
	<time>2023-08-07T12:11:47.000Z</time>
</trkpt>
<trkpt lat="46.1263370" lon="10.4785400">
	<ele>2747.20</ele>
	<time>2023-08-07T12:11:48.000Z</time>
</trkpt>
<trkpt lat="46.1263460" lon="10.4785450">
	<ele>2746.80</ele>
	<time>2023-08-07T12:11:49.000Z</time>
</trkpt>
<trkpt lat="46.1263510" lon="10.4785440">
	<ele>2746.60</ele>
	<time>2023-08-07T12:11:50.000Z</time>
</trkpt>
<trkpt lat="46.1263530" lon="10.4785420">
	<ele>2746.40</ele>
	<time>2023-08-07T12:11:51.000Z</time>
</trkpt>
<trkpt lat="46.1263570" lon="10.4785430">
	<ele>2746.20</ele>
	<time>2023-08-07T12:11:52.000Z</time>
</trkpt>
<trkpt lat="46.1263590" lon="10.4785400">
	<ele>2746.00</ele>
	<time>2023-08-07T12:11:53.000Z</time>
</trkpt>
<trkpt lat="46.1263630" lon="10.4785350">
	<ele>2745.80</ele>
	<time>2023-08-07T12:11:54.000Z</time>
</trkpt>
<trkpt lat="46.1263570" lon="10.4785290">
	<ele>2745.80</ele>
	<time>2023-08-07T12:11:55.000Z</time>
</trkpt>
<trkpt lat="46.1263570" lon="10.4785220">
	<ele>2745.60</ele>
	<time>2023-08-07T12:11:56.000Z</time>
</trkpt>
<trkpt lat="46.1263580" lon="10.4785200">
	<ele>2745.60</ele>
	<time>2023-08-07T12:11:57.000Z</time>
</trkpt>
<trkpt lat="46.1263560" lon="10.4785210">
	<ele>2745.20</ele>
	<time>2023-08-07T12:11:58.000Z</time>
</trkpt>
<trkpt lat="46.1263580" lon="10.4785190">
	<ele>2745.00</ele>
	<time>2023-08-07T12:11:59.000Z</time>
</trkpt>
<trkpt lat="46.1263590" lon="10.4785180">
	<ele>2745.00</ele>
	<time>2023-08-07T12:12:00.000Z</time>
</trkpt>
<trkpt lat="46.1263630" lon="10.4785240">
	<ele>2744.80</ele>
	<time>2023-08-07T12:12:01.000Z</time>
</trkpt>
<trkpt lat="46.1263680" lon="10.4785300">
	<ele>2744.80</ele>
	<time>2023-08-07T12:12:02.000Z</time>
</trkpt>
<trkpt lat="46.1263720" lon="10.4785320">
	<ele>2744.60</ele>
	<time>2023-08-07T12:12:03.000Z</time>
</trkpt>
<trkpt lat="46.1263750" lon="10.4785330">
	<ele>2744.40</ele>
	<time>2023-08-07T12:12:04.000Z</time>
</trkpt>
<trkpt lat="46.1263770" lon="10.4785340">
	<ele>2744.40</ele>
	<time>2023-08-07T12:12:05.000Z</time>
</trkpt>
<trkpt lat="46.1263820" lon="10.4785410">
	<ele>2744.20</ele>
	<time>2023-08-07T12:12:06.000Z</time>
</trkpt>
<trkpt lat="46.1263870" lon="10.4785480">
	<ele>2744.00</ele>
	<time>2023-08-07T12:12:07.000Z</time>
</trkpt>
<trkpt lat="46.1263890" lon="10.4785510">
	<ele>2743.80</ele>
	<time>2023-08-07T12:12:08.000Z</time>
</trkpt>
<trkpt lat="46.1263900" lon="10.4785520">
	<ele>2743.40</ele>
	<time>2023-08-07T12:12:09.000Z</time>
</trkpt>
<trkpt lat="46.1263900" lon="10.4785490">
	<ele>2743.20</ele>
	<time>2023-08-07T12:12:10.000Z</time>
</trkpt>
<trkpt lat="46.1263900" lon="10.4785490">
	<ele>2743.00</ele>
	<time>2023-08-07T12:12:11.000Z</time>
</trkpt>
<trkpt lat="46.1263900" lon="10.4785490">
	<ele>2743.00</ele>
	<time>2023-08-07T12:12:12.000Z</time>
</trkpt>
<trkpt lat="46.1263890" lon="10.4785470">
	<ele>2743.00</ele>
	<time>2023-08-07T12:12:13.000Z</time>
</trkpt>
<trkpt lat="46.1263860" lon="10.4785350">
	<ele>2743.00</ele>
	<time>2023-08-07T12:12:14.000Z</time>
</trkpt>
<trkpt lat="46.1263820" lon="10.4785300">
	<ele>2742.80</ele>
	<time>2023-08-07T12:12:15.000Z</time>
</trkpt>
<trkpt lat="46.1263800" lon="10.4785240">
	<ele>2742.80</ele>
	<time>2023-08-07T12:12:16.000Z</time>
</trkpt>
<trkpt lat="46.1263750" lon="10.4785190">
	<ele>2742.80</ele>
	<time>2023-08-07T12:12:17.000Z</time>
</trkpt>
<trkpt lat="46.1263690" lon="10.4785100">
	<ele>2742.80</ele>
	<time>2023-08-07T12:12:18.000Z</time>
</trkpt>
<trkpt lat="46.1263730" lon="10.4785070">
	<ele>2742.80</ele>
	<time>2023-08-07T12:12:19.000Z</time>
</trkpt>
<trkpt lat="46.1263770" lon="10.4785100">
	<ele>2742.60</ele>
	<time>2023-08-07T12:12:20.000Z</time>
</trkpt>
<trkpt lat="46.1263840" lon="10.4785200">
	<ele>2742.40</ele>
	<time>2023-08-07T12:12:21.000Z</time>
</trkpt>
<trkpt lat="46.1263880" lon="10.4785260">
	<ele>2742.00</ele>
	<time>2023-08-07T12:12:22.000Z</time>
</trkpt>
<trkpt lat="46.1263900" lon="10.4785280">
	<ele>2742.00</ele>
	<time>2023-08-07T12:12:23.000Z</time>
</trkpt>
<trkpt lat="46.1263910" lon="10.4785290">
	<ele>2741.80</ele>
	<time>2023-08-07T12:12:24.000Z</time>
</trkpt>
<trkpt lat="46.1263920" lon="10.4785300">
	<ele>2741.80</ele>
	<time>2023-08-07T12:12:25.000Z</time>
</trkpt>
<trkpt lat="46.1263930" lon="10.4785270">
	<ele>2741.80</ele>
	<time>2023-08-07T12:12:26.000Z</time>
</trkpt>
<trkpt lat="46.1263930" lon="10.4785260">
	<ele>2741.80</ele>
	<time>2023-08-07T12:12:27.000Z</time>
</trkpt>
<trkpt lat="46.1263930" lon="10.4785260">
	<ele>2741.80</ele>
	<time>2023-08-07T12:12:28.000Z</time>
</trkpt>
<trkpt lat="46.1263930" lon="10.4785260">
	<ele>2741.80</ele>
	<time>2023-08-07T12:12:29.000Z</time>
</trkpt>
<trkpt lat="46.1263930" lon="10.4785260">
	<ele>2741.60</ele>
	<time>2023-08-07T12:12:30.000Z</time>
</trkpt>
<trkpt lat="46.1263930" lon="10.4785260">
	<ele>2741.40</ele>
	<time>2023-08-07T12:12:31.000Z</time>
</trkpt>
<trkpt lat="46.1263930" lon="10.4785260">
	<ele>2741.40</ele>
	<time>2023-08-07T12:12:32.000Z</time>
</trkpt>
<trkpt lat="46.1263930" lon="10.4785260">
	<ele>2741.20</ele>
	<time>2023-08-07T12:12:33.000Z</time>
</trkpt>
<trkpt lat="46.1263930" lon="10.4785260">
	<ele>2741.20</ele>
	<time>2023-08-07T12:12:34.000Z</time>
</trkpt>
<trkpt lat="46.1263930" lon="10.4785260">
	<ele>2741.00</ele>
	<time>2023-08-07T12:12:35.000Z</time>
</trkpt>
<trkpt lat="46.1263920" lon="10.4785260">
	<ele>2741.00</ele>
	<time>2023-08-07T12:12:36.000Z</time>
</trkpt>
<trkpt lat="46.1263920" lon="10.4785260">
	<ele>2741.00</ele>
	<time>2023-08-07T12:12:37.000Z</time>
</trkpt>
<trkpt lat="46.1263920" lon="10.4785260">
	<ele>2740.80</ele>
	<time>2023-08-07T12:12:38.000Z</time>
</trkpt>
<trkpt lat="46.1263920" lon="10.4785260">
	<ele>2740.80</ele>
	<time>2023-08-07T12:12:39.000Z</time>
</trkpt>
<trkpt lat="46.1263920" lon="10.4785210">
	<ele>2740.60</ele>
	<time>2023-08-07T12:12:40.000Z</time>
</trkpt>
<trkpt lat="46.1263920" lon="10.4785190">
	<ele>2740.60</ele>
	<time>2023-08-07T12:12:41.000Z</time>
</trkpt>
<trkpt lat="46.1263920" lon="10.4785170">
	<ele>2740.60</ele>
	<time>2023-08-07T12:12:42.000Z</time>
</trkpt>
<trkpt lat="46.1263920" lon="10.4785170">
	<ele>2740.40</ele>
	<time>2023-08-07T12:12:43.000Z</time>
</trkpt>
<trkpt lat="46.1263920" lon="10.4785150">
	<ele>2740.40</ele>
	<time>2023-08-07T12:12:44.000Z</time>
</trkpt>
<trkpt lat="46.1263920" lon="10.4785130">
	<ele>2740.40</ele>
	<time>2023-08-07T12:12:45.000Z</time>
</trkpt>
<trkpt lat="46.1263920" lon="10.4785120">
	<ele>2740.40</ele>
	<time>2023-08-07T12:12:46.000Z</time>
</trkpt>
<trkpt lat="46.1263920" lon="10.4785100">
	<ele>2740.40</ele>
	<time>2023-08-07T12:12:47.000Z</time>
</trkpt>
<trkpt lat="46.1263910" lon="10.4785090">
	<ele>2740.40</ele>
	<time>2023-08-07T12:12:48.000Z</time>
</trkpt>
<trkpt lat="46.1263910" lon="10.4785090">
	<ele>2740.40</ele>
	<time>2023-08-07T12:12:49.000Z</time>
</trkpt>
<trkpt lat="46.1263910" lon="10.4785090">
	<ele>2740.40</ele>
	<time>2023-08-07T12:12:50.000Z</time>
</trkpt>
<trkpt lat="46.1263910" lon="10.4785070">
	<ele>2740.40</ele>
	<time>2023-08-07T12:12:51.000Z</time>
</trkpt>
<trkpt lat="46.1263910" lon="10.4785060">
	<ele>2740.40</ele>
	<time>2023-08-07T12:12:52.000Z</time>
</trkpt>
<trkpt lat="46.1263910" lon="10.4785060">
	<ele>2740.20</ele>
	<time>2023-08-07T12:12:53.000Z</time>
</trkpt>
<trkpt lat="46.1263910" lon="10.4785040">
	<ele>2740.00</ele>
	<time>2023-08-07T12:12:54.000Z</time>
</trkpt>
<trkpt lat="46.1263910" lon="10.4785010">
	<ele>2740.00</ele>
	<time>2023-08-07T12:12:55.000Z</time>
</trkpt>
<trkpt lat="46.1263900" lon="10.4784980">
	<ele>2740.00</ele>
	<time>2023-08-07T12:12:56.000Z</time>
</trkpt>
<trkpt lat="46.1263900" lon="10.4784950">
	<ele>2740.00</ele>
	<time>2023-08-07T12:12:57.000Z</time>
</trkpt>
<trkpt lat="46.1263900" lon="10.4784950">
	<ele>2740.00</ele>
	<time>2023-08-07T12:12:58.000Z</time>
</trkpt>
<trkpt lat="46.1263890" lon="10.4784940">
	<ele>2740.00</ele>
	<time>2023-08-07T12:12:59.000Z</time>
</trkpt>
<trkpt lat="46.1263890" lon="10.4784930">
	<ele>2740.00</ele>
	<time>2023-08-07T12:13:00.000Z</time>
</trkpt>
<trkpt lat="46.1263880" lon="10.4784880">
	<ele>2740.00</ele>
	<time>2023-08-07T12:13:01.000Z</time>
</trkpt>
<trkpt lat="46.1263860" lon="10.4784800">
	<ele>2740.00</ele>
	<time>2023-08-07T12:13:02.000Z</time>
</trkpt>
<trkpt lat="46.1263850" lon="10.4784690">
	<ele>2739.80</ele>
	<time>2023-08-07T12:13:03.000Z</time>
</trkpt>
<trkpt lat="46.1263840" lon="10.4784630">
	<ele>2739.60</ele>
	<time>2023-08-07T12:13:04.000Z</time>
</trkpt>
<trkpt lat="46.1263830" lon="10.4784620">
	<ele>2739.20</ele>
	<time>2023-08-07T12:13:05.000Z</time>
</trkpt>
<trkpt lat="46.1263830" lon="10.4784590">
	<ele>2738.80</ele>
	<time>2023-08-07T12:13:06.000Z</time>
</trkpt>
<trkpt lat="46.1263820" lon="10.4784560">
	<ele>2738.60</ele>
	<time>2023-08-07T12:13:07.000Z</time>
</trkpt>
<trkpt lat="46.1263810" lon="10.4784540">
	<ele>2738.40</ele>
	<time>2023-08-07T12:13:08.000Z</time>
</trkpt>
<trkpt lat="46.1263810" lon="10.4784530">
	<ele>2738.20</ele>
	<time>2023-08-07T12:13:09.000Z</time>
</trkpt>
<trkpt lat="46.1263810" lon="10.4784520">
	<ele>2738.20</ele>
	<time>2023-08-07T12:13:10.000Z</time>
</trkpt>
<trkpt lat="46.1263800" lon="10.4784520">
	<ele>2738.00</ele>
	<time>2023-08-07T12:13:11.000Z</time>
</trkpt>
<trkpt lat="46.1263780" lon="10.4784510">
	<ele>2738.00</ele>
	<time>2023-08-07T12:13:12.000Z</time>
</trkpt>
<trkpt lat="46.1263780" lon="10.4784420">
	<ele>2738.00</ele>
	<time>2023-08-07T12:13:13.000Z</time>
</trkpt>
<trkpt lat="46.1263760" lon="10.4784390">
	<ele>2738.00</ele>
	<time>2023-08-07T12:13:14.000Z</time>
</trkpt>
<trkpt lat="46.1263760" lon="10.4784370">
	<ele>2737.80</ele>
	<time>2023-08-07T12:13:15.000Z</time>
</trkpt>
<trkpt lat="46.1263760" lon="10.4784360">
	<ele>2737.80</ele>
	<time>2023-08-07T12:13:16.000Z</time>
</trkpt>
<trkpt lat="46.1263750" lon="10.4784330">
	<ele>2737.80</ele>
	<time>2023-08-07T12:13:17.000Z</time>
</trkpt>
<trkpt lat="46.1263750" lon="10.4784260">
	<ele>2737.60</ele>
	<time>2023-08-07T12:13:18.000Z</time>
</trkpt>
<trkpt lat="46.1263750" lon="10.4784240">
	<ele>2737.20</ele>
	<time>2023-08-07T12:13:19.000Z</time>
</trkpt>
<trkpt lat="46.1263750" lon="10.4784210">
	<ele>2737.00</ele>
	<time>2023-08-07T12:13:20.000Z</time>
</trkpt>
<trkpt lat="46.1263750" lon="10.4784160">
	<ele>2737.00</ele>
	<time>2023-08-07T12:13:21.000Z</time>
</trkpt>
<trkpt lat="46.1263740" lon="10.4784150">
	<ele>2736.80</ele>
	<time>2023-08-07T12:13:22.000Z</time>
</trkpt>
<trkpt lat="46.1263740" lon="10.4784140">
	<ele>2736.80</ele>
	<time>2023-08-07T12:13:23.000Z</time>
</trkpt>
<trkpt lat="46.1263740" lon="10.4784140">
	<ele>2736.80</ele>
	<time>2023-08-07T12:13:24.000Z</time>
</trkpt>
<trkpt lat="46.1263740" lon="10.4784130">
	<ele>2736.60</ele>
	<time>2023-08-07T12:13:25.000Z</time>
</trkpt>
<trkpt lat="46.1263740" lon="10.4784130">
	<ele>2736.60</ele>
	<time>2023-08-07T12:13:26.000Z</time>
</trkpt>
<trkpt lat="46.1263730" lon="10.4784120">
	<ele>2736.40</ele>
	<time>2023-08-07T12:13:27.000Z</time>
</trkpt>
<trkpt lat="46.1263730" lon="10.4784110">
	<ele>2736.20</ele>
	<time>2023-08-07T12:13:28.000Z</time>
</trkpt>
<trkpt lat="46.1263730" lon="10.4784080">
	<ele>2736.20</ele>
	<time>2023-08-07T12:13:29.000Z</time>
</trkpt>
<trkpt lat="46.1263720" lon="10.4784030">
	<ele>2736.20</ele>
	<time>2023-08-07T12:13:30.000Z</time>
</trkpt>
<trkpt lat="46.1263720" lon="10.4783980">
	<ele>2736.00</ele>
	<time>2023-08-07T12:13:31.000Z</time>
</trkpt>
<trkpt lat="46.1263720" lon="10.4783930">
	<ele>2736.00</ele>
	<time>2023-08-07T12:13:32.000Z</time>
</trkpt>
<trkpt lat="46.1263720" lon="10.4783880">
	<ele>2736.00</ele>
	<time>2023-08-07T12:13:33.000Z</time>
</trkpt>
<trkpt lat="46.1263720" lon="10.4783860">
	<ele>2736.00</ele>
	<time>2023-08-07T12:13:34.000Z</time>
</trkpt>
<trkpt lat="46.1263720" lon="10.4783840">
	<ele>2736.00</ele>
	<time>2023-08-07T12:13:35.000Z</time>
</trkpt>
<trkpt lat="46.1263720" lon="10.4783810">
	<ele>2736.00</ele>
	<time>2023-08-07T12:13:36.000Z</time>
</trkpt>
<trkpt lat="46.1263720" lon="10.4783790">
	<ele>2736.00</ele>
	<time>2023-08-07T12:13:37.000Z</time>
</trkpt>
<trkpt lat="46.1263720" lon="10.4783740">
	<ele>2735.80</ele>
	<time>2023-08-07T12:13:38.000Z</time>
</trkpt>
<trkpt lat="46.1263720" lon="10.4783730">
	<ele>2735.80</ele>
	<time>2023-08-07T12:13:39.000Z</time>
</trkpt>
<trkpt lat="46.1263710" lon="10.4783710">
	<ele>2735.80</ele>
	<time>2023-08-07T12:13:40.000Z</time>
</trkpt>
<trkpt lat="46.1263710" lon="10.4783650">
	<ele>2735.60</ele>
	<time>2023-08-07T12:13:41.000Z</time>
</trkpt>
<trkpt lat="46.1263690" lon="10.4783570">
	<ele>2735.60</ele>
	<time>2023-08-07T12:13:42.000Z</time>
</trkpt>
<trkpt lat="46.1263690" lon="10.4783540">
	<ele>2735.60</ele>
	<time>2023-08-07T12:13:43.000Z</time>
</trkpt>
<trkpt lat="46.1263710" lon="10.4783540">
	<ele>2735.60</ele>
	<time>2023-08-07T12:13:44.000Z</time>
</trkpt>
<trkpt lat="46.1263720" lon="10.4783530">
	<ele>2735.60</ele>
	<time>2023-08-07T12:13:45.000Z</time>
</trkpt>
<trkpt lat="46.1263750" lon="10.4783540">
	<ele>2735.40</ele>
	<time>2023-08-07T12:13:46.000Z</time>
</trkpt>
<trkpt lat="46.1263790" lon="10.4783520">
	<ele>2735.40</ele>
	<time>2023-08-07T12:13:47.000Z</time>
</trkpt>
<trkpt lat="46.1263780" lon="10.4783450">
	<ele>2735.40</ele>
	<time>2023-08-07T12:13:48.000Z</time>
</trkpt>
<trkpt lat="46.1263770" lon="10.4783400">
	<ele>2735.20</ele>
	<time>2023-08-07T12:13:49.000Z</time>
</trkpt>
<trkpt lat="46.1263790" lon="10.4783370">
	<ele>2734.80</ele>
	<time>2023-08-07T12:13:50.000Z</time>
</trkpt>
<trkpt lat="46.1263810" lon="10.4783330">
	<ele>2734.60</ele>
	<time>2023-08-07T12:13:51.000Z</time>
</trkpt>
<trkpt lat="46.1263820" lon="10.4783320">
	<ele>2734.40</ele>
	<time>2023-08-07T12:13:52.000Z</time>
</trkpt>
<trkpt lat="46.1263830" lon="10.4783300">
	<ele>2734.20</ele>
	<time>2023-08-07T12:13:53.000Z</time>
</trkpt>
<trkpt lat="46.1263830" lon="10.4783350">
	<ele>2734.20</ele>
	<time>2023-08-07T12:13:54.000Z</time>
</trkpt>
<trkpt lat="46.1263850" lon="10.4783360">
	<ele>2734.00</ele>
	<time>2023-08-07T12:13:55.000Z</time>
</trkpt>
<trkpt lat="46.1263830" lon="10.4783330">
	<ele>2734.00</ele>
	<time>2023-08-07T12:13:56.000Z</time>
</trkpt>
<trkpt lat="46.1263830" lon="10.4783300">
	<ele>2734.00</ele>
	<time>2023-08-07T12:13:57.000Z</time>
</trkpt>
<trkpt lat="46.1263740" lon="10.4783150">
	<ele>2734.00</ele>
	<time>2023-08-07T12:13:58.000Z</time>
</trkpt>
<trkpt lat="46.1263690" lon="10.4783060">
	<ele>2733.80</ele>
	<time>2023-08-07T12:13:59.000Z</time>
</trkpt>
<trkpt lat="46.1263670" lon="10.4783020">
	<ele>2733.60</ele>
	<time>2023-08-07T12:14:00.000Z</time>
</trkpt>
<trkpt lat="46.1263640" lon="10.4783000">
	<ele>2733.60</ele>
	<time>2023-08-07T12:14:01.000Z</time>
</trkpt>
<trkpt lat="46.1263650" lon="10.4783000">
	<ele>2733.60</ele>
	<time>2023-08-07T12:14:02.000Z</time>
</trkpt>
<trkpt lat="46.1263650" lon="10.4783000">
	<ele>2733.40</ele>
	<time>2023-08-07T12:14:03.000Z</time>
</trkpt>
<trkpt lat="46.1263650" lon="10.4783000">
	<ele>2733.20</ele>
	<time>2023-08-07T12:14:04.000Z</time>
</trkpt>
<trkpt lat="46.1263650" lon="10.4783000">
	<ele>2733.00</ele>
	<time>2023-08-07T12:14:05.000Z</time>
</trkpt>
<trkpt lat="46.1263650" lon="10.4783000">
	<ele>2733.00</ele>
	<time>2023-08-07T12:14:06.000Z</time>
</trkpt>
<trkpt lat="46.1263650" lon="10.4783000">
	<ele>2732.80</ele>
	<time>2023-08-07T12:14:07.000Z</time>
</trkpt>
<trkpt lat="46.1263650" lon="10.4783000">
	<ele>2732.60</ele>
	<time>2023-08-07T12:14:08.000Z</time>
</trkpt>
<trkpt lat="46.1263650" lon="10.4783000">
	<ele>2732.60</ele>
	<time>2023-08-07T12:14:09.000Z</time>
</trkpt>
<trkpt lat="46.1263650" lon="10.4783000">
	<ele>2732.40</ele>
	<time>2023-08-07T12:14:10.000Z</time>
</trkpt>
<trkpt lat="46.1263660" lon="10.4783000">
	<ele>2732.40</ele>
	<time>2023-08-07T12:14:11.000Z</time>
</trkpt>
<trkpt lat="46.1263660" lon="10.4783000">
	<ele>2732.40</ele>
	<time>2023-08-07T12:14:12.000Z</time>
</trkpt>
<trkpt lat="46.1263660" lon="10.4783000">
	<ele>2732.20</ele>
	<time>2023-08-07T12:14:13.000Z</time>
</trkpt>
<trkpt lat="46.1263670" lon="10.4783000">
	<ele>2732.20</ele>
	<time>2023-08-07T12:14:14.000Z</time>
</trkpt>
<trkpt lat="46.1263680" lon="10.4783020">
	<ele>2732.20</ele>
	<time>2023-08-07T12:14:15.000Z</time>
</trkpt>
<trkpt lat="46.1263680" lon="10.4783040">
	<ele>2732.20</ele>
	<time>2023-08-07T12:14:16.000Z</time>
</trkpt>
<trkpt lat="46.1263730" lon="10.4783090">
	<ele>2732.20</ele>
	<time>2023-08-07T12:14:17.000Z</time>
</trkpt>
<trkpt lat="46.1263760" lon="10.4783120">
	<ele>2732.20</ele>
	<time>2023-08-07T12:14:18.000Z</time>
</trkpt>
<trkpt lat="46.1263770" lon="10.4783140">
	<ele>2732.20</ele>
	<time>2023-08-07T12:14:19.000Z</time>
</trkpt>
<trkpt lat="46.1263780" lon="10.4783160">
	<ele>2732.20</ele>
	<time>2023-08-07T12:14:20.000Z</time>
</trkpt>
<trkpt lat="46.1263780" lon="10.4783160">
	<ele>2732.20</ele>
	<time>2023-08-07T12:14:21.000Z</time>
</trkpt>
<trkpt lat="46.1263780" lon="10.4783160">
	<ele>2732.20</ele>
	<time>2023-08-07T12:14:22.000Z</time>
</trkpt>
<trkpt lat="46.1263780" lon="10.4783160">
	<ele>2732.40</ele>
	<time>2023-08-07T12:14:23.000Z</time>
</trkpt>
<trkpt lat="46.1263780" lon="10.4783160">
	<ele>2732.60</ele>
	<time>2023-08-07T12:14:24.000Z</time>
</trkpt>
<trkpt lat="46.1263780" lon="10.4783160">
	<ele>2732.60</ele>
	<time>2023-08-07T12:14:25.000Z</time>
</trkpt>
<trkpt lat="46.1263780" lon="10.4783160">
	<ele>2732.80</ele>
	<time>2023-08-07T12:14:26.000Z</time>
</trkpt>
<trkpt lat="46.1263780" lon="10.4783160">
	<ele>2732.80</ele>
	<time>2023-08-07T12:14:27.000Z</time>
</trkpt>
<trkpt lat="46.1263780" lon="10.4783160">
	<ele>2733.00</ele>
	<time>2023-08-07T12:14:28.000Z</time>
</trkpt>
<trkpt lat="46.1263780" lon="10.4783160">
	<ele>2733.00</ele>
	<time>2023-08-07T12:14:29.000Z</time>
</trkpt>
<trkpt lat="46.1263780" lon="10.4783160">
	<ele>2733.00</ele>
	<time>2023-08-07T12:14:30.000Z</time>
</trkpt>
<trkpt lat="46.1263780" lon="10.4783160">
	<ele>2733.20</ele>
	<time>2023-08-07T12:14:31.000Z</time>
</trkpt>
<trkpt lat="46.1263780" lon="10.4783160">
	<ele>2733.00</ele>
	<time>2023-08-07T12:14:32.000Z</time>
</trkpt>
<trkpt lat="46.1263780" lon="10.4783160">
	<ele>2733.00</ele>
	<time>2023-08-07T12:14:33.000Z</time>
</trkpt>
<trkpt lat="46.1263780" lon="10.4783120">
	<ele>2733.00</ele>
	<time>2023-08-07T12:14:34.000Z</time>
</trkpt>
<trkpt lat="46.1263780" lon="10.4783120">
	<ele>2733.00</ele>
	<time>2023-08-07T12:14:35.000Z</time>
</trkpt>
<trkpt lat="46.1263780" lon="10.4783120">
	<ele>2733.00</ele>
	<time>2023-08-07T12:14:36.000Z</time>
</trkpt>
<trkpt lat="46.1263780" lon="10.4783120">
	<ele>2733.00</ele>
	<time>2023-08-07T12:14:37.000Z</time>
</trkpt>
<trkpt lat="46.1263780" lon="10.4783120">
	<ele>2733.00</ele>
	<time>2023-08-07T12:14:38.000Z</time>
</trkpt>
<trkpt lat="46.1263780" lon="10.4783120">
	<ele>2733.00</ele>
	<time>2023-08-07T12:14:39.000Z</time>
</trkpt>
<trkpt lat="46.1263780" lon="10.4783120">
	<ele>2733.00</ele>
	<time>2023-08-07T12:14:40.000Z</time>
</trkpt>
<trkpt lat="46.1263780" lon="10.4783120">
	<ele>2733.00</ele>
	<time>2023-08-07T12:14:41.000Z</time>
</trkpt>
<trkpt lat="46.1263780" lon="10.4783120">
	<ele>2732.80</ele>
	<time>2023-08-07T12:14:42.000Z</time>
</trkpt>
<trkpt lat="46.1263780" lon="10.4783120">
	<ele>2733.00</ele>
	<time>2023-08-07T12:14:43.000Z</time>
</trkpt>
<trkpt lat="46.1263780" lon="10.4783120">
	<ele>2733.00</ele>
	<time>2023-08-07T12:14:44.000Z</time>
</trkpt>
<trkpt lat="46.1263780" lon="10.4783100">
	<ele>2733.00</ele>
	<time>2023-08-07T12:14:45.000Z</time>
</trkpt>
<trkpt lat="46.1263780" lon="10.4783070">
	<ele>2733.00</ele>
	<time>2023-08-07T12:14:46.000Z</time>
</trkpt>
<trkpt lat="46.1263770" lon="10.4783070">
	<ele>2733.00</ele>
	<time>2023-08-07T12:14:47.000Z</time>
</trkpt>
<trkpt lat="46.1263770" lon="10.4783060">
	<ele>2733.00</ele>
	<time>2023-08-07T12:14:48.000Z</time>
</trkpt>
<trkpt lat="46.1263770" lon="10.4783060">
	<ele>2732.80</ele>
	<time>2023-08-07T12:14:49.000Z</time>
</trkpt>
<trkpt lat="46.1263770" lon="10.4783050">
	<ele>2732.80</ele>
	<time>2023-08-07T12:14:50.000Z</time>
</trkpt>
<trkpt lat="46.1263770" lon="10.4783050">
	<ele>2732.60</ele>
	<time>2023-08-07T12:14:51.000Z</time>
</trkpt>
<trkpt lat="46.1263770" lon="10.4783040">
	<ele>2732.60</ele>
	<time>2023-08-07T12:14:52.000Z</time>
</trkpt>
<trkpt lat="46.1263760" lon="10.4783040">
	<ele>2732.40</ele>
	<time>2023-08-07T12:14:53.000Z</time>
</trkpt>
<trkpt lat="46.1263760" lon="10.4783040">
	<ele>2732.40</ele>
	<time>2023-08-07T12:14:54.000Z</time>
</trkpt>
<trkpt lat="46.1263750" lon="10.4783040">
	<ele>2732.40</ele>
	<time>2023-08-07T12:14:55.000Z</time>
</trkpt>
<trkpt lat="46.1263750" lon="10.4783040">
	<ele>2732.20</ele>
	<time>2023-08-07T12:14:56.000Z</time>
</trkpt>
<trkpt lat="46.1263690" lon="10.4783040">
	<ele>2732.00</ele>
	<time>2023-08-07T12:14:57.000Z</time>
</trkpt>
<trkpt lat="46.1263620" lon="10.4783040">
	<ele>2731.80</ele>
	<time>2023-08-07T12:14:58.000Z</time>
</trkpt>
<trkpt lat="46.1263570" lon="10.4783040">
	<ele>2731.80</ele>
	<time>2023-08-07T12:14:59.000Z</time>
</trkpt>
<trkpt lat="46.1263560" lon="10.4783040">
	<ele>2731.60</ele>
	<time>2023-08-07T12:15:00.000Z</time>
</trkpt>
<trkpt lat="46.1263540" lon="10.4783020">
	<ele>2731.60</ele>
	<time>2023-08-07T12:15:01.000Z</time>
</trkpt>
<trkpt lat="46.1263530" lon="10.4783010">
	<ele>2731.60</ele>
	<time>2023-08-07T12:15:02.000Z</time>
</trkpt>
<trkpt lat="46.1263500" lon="10.4782940">
	<ele>2731.40</ele>
	<time>2023-08-07T12:15:03.000Z</time>
</trkpt>
<trkpt lat="46.1263440" lon="10.4782860">
	<ele>2731.40</ele>
	<time>2023-08-07T12:15:04.000Z</time>
</trkpt>
<trkpt lat="46.1263410" lon="10.4782780">
	<ele>2731.20</ele>
	<time>2023-08-07T12:15:05.000Z</time>
</trkpt>
<trkpt lat="46.1263370" lon="10.4782720">
	<ele>2731.00</ele>
	<time>2023-08-07T12:15:06.000Z</time>
</trkpt>
<trkpt lat="46.1263320" lon="10.4782650">
	<ele>2730.80</ele>
	<time>2023-08-07T12:15:07.000Z</time>
</trkpt>
<trkpt lat="46.1263310" lon="10.4782560">
	<ele>2730.60</ele>
	<time>2023-08-07T12:15:08.000Z</time>
</trkpt>
<trkpt lat="46.1263290" lon="10.4782460">
	<ele>2730.40</ele>
	<time>2023-08-07T12:15:09.000Z</time>
</trkpt>
<trkpt lat="46.1263250" lon="10.4782340">
	<ele>2730.40</ele>
	<time>2023-08-07T12:15:10.000Z</time>
</trkpt>
<trkpt lat="46.1263170" lon="10.4782140">
	<ele>2730.20</ele>
	<time>2023-08-07T12:15:11.000Z</time>
</trkpt>
<trkpt lat="46.1263150" lon="10.4782050">
	<ele>2730.20</ele>
	<time>2023-08-07T12:15:12.000Z</time>
</trkpt>
<trkpt lat="46.1263150" lon="10.4782040">
	<ele>2730.00</ele>
	<time>2023-08-07T12:15:13.000Z</time>
</trkpt>
<trkpt lat="46.1263150" lon="10.4782040">
	<ele>2729.80</ele>
	<time>2023-08-07T12:15:14.000Z</time>
</trkpt>
<trkpt lat="46.1263150" lon="10.4782040">
	<ele>2729.80</ele>
	<time>2023-08-07T12:15:15.000Z</time>
</trkpt>
<trkpt lat="46.1263150" lon="10.4782040">
	<ele>2729.60</ele>
	<time>2023-08-07T12:15:16.000Z</time>
</trkpt>
<trkpt lat="46.1263150" lon="10.4782040">
	<ele>2729.60</ele>
	<time>2023-08-07T12:15:17.000Z</time>
</trkpt>
<trkpt lat="46.1263150" lon="10.4782040">
	<ele>2729.40</ele>
	<time>2023-08-07T12:15:18.000Z</time>
</trkpt>
<trkpt lat="46.1263150" lon="10.4782040">
	<ele>2729.20</ele>
	<time>2023-08-07T12:15:19.000Z</time>
</trkpt>
<trkpt lat="46.1263150" lon="10.4782040">
	<ele>2729.20</ele>
	<time>2023-08-07T12:15:20.000Z</time>
</trkpt>
<trkpt lat="46.1263150" lon="10.4782040">
	<ele>2729.20</ele>
	<time>2023-08-07T12:15:21.000Z</time>
</trkpt>
<trkpt lat="46.1263150" lon="10.4782040">
	<ele>2729.20</ele>
	<time>2023-08-07T12:15:22.000Z</time>
</trkpt>
<trkpt lat="46.1263150" lon="10.4782040">
	<ele>2729.00</ele>
	<time>2023-08-07T12:15:23.000Z</time>
</trkpt>
<trkpt lat="46.1263150" lon="10.4782040">
	<ele>2729.00</ele>
	<time>2023-08-07T12:15:24.000Z</time>
</trkpt>
<trkpt lat="46.1263150" lon="10.4782040">
	<ele>2729.00</ele>
	<time>2023-08-07T12:15:25.000Z</time>
</trkpt>
<trkpt lat="46.1263150" lon="10.4782040">
	<ele>2728.80</ele>
	<time>2023-08-07T12:15:26.000Z</time>
</trkpt>
<trkpt lat="46.1263150" lon="10.4782040">
	<ele>2728.40</ele>
	<time>2023-08-07T12:15:27.000Z</time>
</trkpt>
<trkpt lat="46.1263150" lon="10.4782040">
	<ele>2728.20</ele>
	<time>2023-08-07T12:15:28.000Z</time>
</trkpt>
<trkpt lat="46.1263150" lon="10.4782040">
	<ele>2728.00</ele>
	<time>2023-08-07T12:15:29.000Z</time>
</trkpt>
<trkpt lat="46.1263150" lon="10.4782040">
	<ele>2727.60</ele>
	<time>2023-08-07T12:15:30.000Z</time>
</trkpt>
<trkpt lat="46.1263150" lon="10.4782040">
	<ele>2727.60</ele>
	<time>2023-08-07T12:15:31.000Z</time>
</trkpt>
<trkpt lat="46.1263150" lon="10.4782040">
	<ele>2727.00</ele>
	<time>2023-08-07T12:15:32.000Z</time>
</trkpt>
<trkpt lat="46.1263160" lon="10.4782040">
	<ele>2726.60</ele>
	<time>2023-08-07T12:15:33.000Z</time>
</trkpt>
<trkpt lat="46.1263160" lon="10.4782040">
	<ele>2726.40</ele>
	<time>2023-08-07T12:15:34.000Z</time>
</trkpt>
<trkpt lat="46.1263160" lon="10.4782040">
	<ele>2726.20</ele>
	<time>2023-08-07T12:15:35.000Z</time>
</trkpt>
<trkpt lat="46.1263160" lon="10.4782040">
	<ele>2726.20</ele>
	<time>2023-08-07T12:15:36.000Z</time>
</trkpt>
<trkpt lat="46.1263160" lon="10.4782040">
	<ele>2726.00</ele>
	<time>2023-08-07T12:15:37.000Z</time>
</trkpt>
<trkpt lat="46.1263160" lon="10.4782020">
	<ele>2725.80</ele>
	<time>2023-08-07T12:15:38.000Z</time>
</trkpt>
<trkpt lat="46.1263160" lon="10.4782010">
	<ele>2725.60</ele>
	<time>2023-08-07T12:15:39.000Z</time>
</trkpt>
<trkpt lat="46.1263160" lon="10.4782000">
	<ele>2725.60</ele>
	<time>2023-08-07T12:15:40.000Z</time>
</trkpt>
<trkpt lat="46.1263170" lon="10.4782000">
	<ele>2725.60</ele>
	<time>2023-08-07T12:15:41.000Z</time>
</trkpt>
<trkpt lat="46.1263170" lon="10.4781970">
	<ele>2725.40</ele>
	<time>2023-08-07T12:15:42.000Z</time>
</trkpt>
<trkpt lat="46.1263170" lon="10.4781950">
	<ele>2725.20</ele>
	<time>2023-08-07T12:15:43.000Z</time>
</trkpt>
<trkpt lat="46.1263180" lon="10.4781940">
	<ele>2725.20</ele>
	<time>2023-08-07T12:15:44.000Z</time>
</trkpt>
<trkpt lat="46.1263180" lon="10.4781940">
	<ele>2725.00</ele>
	<time>2023-08-07T12:15:45.000Z</time>
</trkpt>
<trkpt lat="46.1263180" lon="10.4781940">
	<ele>2725.00</ele>
	<time>2023-08-07T12:15:46.000Z</time>
</trkpt>
<trkpt lat="46.1263220" lon="10.4781930">
	<ele>2724.80</ele>
	<time>2023-08-07T12:15:47.000Z</time>
</trkpt>
<trkpt lat="46.1263250" lon="10.4781930">
	<ele>2724.60</ele>
	<time>2023-08-07T12:15:48.000Z</time>
</trkpt>
<trkpt lat="46.1263290" lon="10.4781930">
	<ele>2724.40</ele>
	<time>2023-08-07T12:15:49.000Z</time>
</trkpt>
<trkpt lat="46.1263310" lon="10.4781920">
	<ele>2724.20</ele>
	<time>2023-08-07T12:15:50.000Z</time>
</trkpt>
<trkpt lat="46.1263310" lon="10.4781920">
	<ele>2724.00</ele>
	<time>2023-08-07T12:15:51.000Z</time>
</trkpt>
<trkpt lat="46.1263310" lon="10.4781920">
	<ele>2724.00</ele>
	<time>2023-08-07T12:15:52.000Z</time>
</trkpt>
<trkpt lat="46.1263310" lon="10.4781920">
	<ele>2723.80</ele>
	<time>2023-08-07T12:15:53.000Z</time>
</trkpt>
<trkpt lat="46.1263320" lon="10.4781910">
	<ele>2723.80</ele>
	<time>2023-08-07T12:15:54.000Z</time>
</trkpt>
<trkpt lat="46.1263320" lon="10.4781900">
	<ele>2723.80</ele>
	<time>2023-08-07T12:15:55.000Z</time>
</trkpt>
<trkpt lat="46.1263320" lon="10.4781890">
	<ele>2723.60</ele>
	<time>2023-08-07T12:15:56.000Z</time>
</trkpt>
<trkpt lat="46.1263320" lon="10.4781890">
	<ele>2723.60</ele>
	<time>2023-08-07T12:15:57.000Z</time>
</trkpt>
<trkpt lat="46.1263320" lon="10.4781880">
	<ele>2723.40</ele>
	<time>2023-08-07T12:15:58.000Z</time>
</trkpt>
<trkpt lat="46.1263320" lon="10.4781860">
	<ele>2723.40</ele>
	<time>2023-08-07T12:15:59.000Z</time>
</trkpt>
<trkpt lat="46.1263320" lon="10.4781860">
	<ele>2723.40</ele>
	<time>2023-08-07T12:16:00.000Z</time>
</trkpt>
<trkpt lat="46.1263320" lon="10.4781860">
	<ele>2723.40</ele>
	<time>2023-08-07T12:16:01.000Z</time>
</trkpt>
<trkpt lat="46.1263320" lon="10.4781780">
	<ele>2723.40</ele>
	<time>2023-08-07T12:16:02.000Z</time>
</trkpt>
<trkpt lat="46.1263320" lon="10.4781740">
	<ele>2723.40</ele>
	<time>2023-08-07T12:16:03.000Z</time>
</trkpt>
<trkpt lat="46.1263320" lon="10.4781710">
	<ele>2723.40</ele>
	<time>2023-08-07T12:16:04.000Z</time>
</trkpt>
<trkpt lat="46.1263320" lon="10.4781660">
	<ele>2723.40</ele>
	<time>2023-08-07T12:16:05.000Z</time>
</trkpt>
<trkpt lat="46.1263320" lon="10.4781630">
	<ele>2723.60</ele>
	<time>2023-08-07T12:16:06.000Z</time>
</trkpt>
<trkpt lat="46.1263320" lon="10.4781610">
	<ele>2723.60</ele>
	<time>2023-08-07T12:16:07.000Z</time>
</trkpt>
<trkpt lat="46.1263320" lon="10.4781580">
	<ele>2723.60</ele>
	<time>2023-08-07T12:16:08.000Z</time>
</trkpt>
<trkpt lat="46.1263310" lon="10.4781500">
	<ele>2723.60</ele>
	<time>2023-08-07T12:16:09.000Z</time>
</trkpt>
<trkpt lat="46.1263310" lon="10.4781440">
	<ele>2723.60</ele>
	<time>2023-08-07T12:16:10.000Z</time>
</trkpt>
<trkpt lat="46.1263310" lon="10.4781380">
	<ele>2723.60</ele>
	<time>2023-08-07T12:16:11.000Z</time>
</trkpt>
<trkpt lat="46.1263300" lon="10.4781260">
	<ele>2723.60</ele>
	<time>2023-08-07T12:16:12.000Z</time>
</trkpt>
<trkpt lat="46.1263270" lon="10.4781170">
	<ele>2723.60</ele>
	<time>2023-08-07T12:16:13.000Z</time>
</trkpt>
<trkpt lat="46.1263230" lon="10.4781080">
	<ele>2723.60</ele>
	<time>2023-08-07T12:16:14.000Z</time>
</trkpt>
<trkpt lat="46.1263210" lon="10.4781040">
	<ele>2723.60</ele>
	<time>2023-08-07T12:16:15.000Z</time>
</trkpt>
<trkpt lat="46.1263190" lon="10.4781030">
	<ele>2723.20</ele>
	<time>2023-08-07T12:16:16.000Z</time>
</trkpt>
<trkpt lat="46.1263180" lon="10.4781020">
	<ele>2723.00</ele>
	<time>2023-08-07T12:16:17.000Z</time>
</trkpt>
<trkpt lat="46.1263180" lon="10.4781020">
	<ele>2723.00</ele>
	<time>2023-08-07T12:16:18.000Z</time>
</trkpt>
<trkpt lat="46.1263170" lon="10.4781020">
	<ele>2723.00</ele>
	<time>2023-08-07T12:16:19.000Z</time>
</trkpt>
<trkpt lat="46.1263170" lon="10.4781020">
	<ele>2722.80</ele>
	<time>2023-08-07T12:16:20.000Z</time>
</trkpt>
<trkpt lat="46.1263170" lon="10.4781020">
	<ele>2722.80</ele>
	<time>2023-08-07T12:16:21.000Z</time>
</trkpt>
<trkpt lat="46.1263170" lon="10.4781020">
	<ele>2722.60</ele>
	<time>2023-08-07T12:16:22.000Z</time>
</trkpt>
<trkpt lat="46.1263170" lon="10.4781010">
	<ele>2722.20</ele>
	<time>2023-08-07T12:16:23.000Z</time>
</trkpt>
<trkpt lat="46.1263170" lon="10.4781000">
	<ele>2722.00</ele>
	<time>2023-08-07T12:16:24.000Z</time>
</trkpt>
<trkpt lat="46.1263170" lon="10.4781000">
	<ele>2722.00</ele>
	<time>2023-08-07T12:16:25.000Z</time>
</trkpt>
<trkpt lat="46.1263170" lon="10.4780990">
	<ele>2721.80</ele>
	<time>2023-08-07T12:16:26.000Z</time>
</trkpt>
<trkpt lat="46.1263170" lon="10.4780970">
	<ele>2721.60</ele>
	<time>2023-08-07T12:16:27.000Z</time>
</trkpt>
<trkpt lat="46.1263170" lon="10.4780950">
	<ele>2721.60</ele>
	<time>2023-08-07T12:16:28.000Z</time>
</trkpt>
<trkpt lat="46.1263170" lon="10.4780930">
	<ele>2721.60</ele>
	<time>2023-08-07T12:16:29.000Z</time>
</trkpt>
<trkpt lat="46.1263170" lon="10.4780910">
	<ele>2721.40</ele>
	<time>2023-08-07T12:16:30.000Z</time>
</trkpt>
<trkpt lat="46.1263170" lon="10.4780890">
	<ele>2721.40</ele>
	<time>2023-08-07T12:16:31.000Z</time>
</trkpt>
<trkpt lat="46.1263170" lon="10.4780880">
	<ele>2721.40</ele>
	<time>2023-08-07T12:16:32.000Z</time>
</trkpt>
<trkpt lat="46.1263170" lon="10.4780870">
	<ele>2721.40</ele>
	<time>2023-08-07T12:16:33.000Z</time>
</trkpt>
<trkpt lat="46.1263180" lon="10.4780860">
	<ele>2721.40</ele>
	<time>2023-08-07T12:16:34.000Z</time>
</trkpt>
<trkpt lat="46.1263180" lon="10.4780860">
	<ele>2721.40</ele>
	<time>2023-08-07T12:16:35.000Z</time>
</trkpt>
<trkpt lat="46.1263190" lon="10.4780860">
	<ele>2721.40</ele>
	<time>2023-08-07T12:16:36.000Z</time>
</trkpt>
<trkpt lat="46.1263210" lon="10.4780780">
	<ele>2721.40</ele>
	<time>2023-08-07T12:16:37.000Z</time>
</trkpt>
<trkpt lat="46.1263210" lon="10.4780580">
	<ele>2721.00</ele>
	<time>2023-08-07T12:16:38.000Z</time>
</trkpt>
<trkpt lat="46.1263240" lon="10.4780450">
	<ele>2720.60</ele>
	<time>2023-08-07T12:16:39.000Z</time>
</trkpt>
<trkpt lat="46.1263270" lon="10.4780330">
	<ele>2720.60</ele>
	<time>2023-08-07T12:16:40.000Z</time>
</trkpt>
<trkpt lat="46.1263370" lon="10.4780210">
	<ele>2720.20</ele>
	<time>2023-08-07T12:16:41.000Z</time>
</trkpt>
<trkpt lat="46.1263400" lon="10.4780080">
	<ele>2720.00</ele>
	<time>2023-08-07T12:16:42.000Z</time>
</trkpt>
<trkpt lat="46.1263340" lon="10.4779990">
	<ele>2720.00</ele>
	<time>2023-08-07T12:16:43.000Z</time>
</trkpt>
<trkpt lat="46.1263340" lon="10.4779910">
	<ele>2719.80</ele>
	<time>2023-08-07T12:16:44.000Z</time>
</trkpt>
<trkpt lat="46.1263360" lon="10.4779800">
	<ele>2719.80</ele>
	<time>2023-08-07T12:16:45.000Z</time>
</trkpt>
<trkpt lat="46.1263460" lon="10.4779520">
	<ele>2719.80</ele>
	<time>2023-08-07T12:16:46.000Z</time>
</trkpt>
<trkpt lat="46.1263510" lon="10.4779370">
	<ele>2719.80</ele>
	<time>2023-08-07T12:16:47.000Z</time>
</trkpt>
<trkpt lat="46.1263550" lon="10.4779350">
	<ele>2719.80</ele>
	<time>2023-08-07T12:16:48.000Z</time>
</trkpt>
<trkpt lat="46.1263580" lon="10.4779310">
	<ele>2719.80</ele>
	<time>2023-08-07T12:16:49.000Z</time>
</trkpt>
<trkpt lat="46.1263580" lon="10.4779260">
	<ele>2719.80</ele>
	<time>2023-08-07T12:16:50.000Z</time>
</trkpt>
<trkpt lat="46.1263530" lon="10.4779210">
	<ele>2719.60</ele>
	<time>2023-08-07T12:16:51.000Z</time>
</trkpt>
<trkpt lat="46.1263470" lon="10.4779220">
	<ele>2719.60</ele>
	<time>2023-08-07T12:16:52.000Z</time>
</trkpt>
<trkpt lat="46.1263400" lon="10.4779270">
	<ele>2719.40</ele>
	<time>2023-08-07T12:16:53.000Z</time>
</trkpt>
<trkpt lat="46.1263410" lon="10.4779320">
	<ele>2719.20</ele>
	<time>2023-08-07T12:16:54.000Z</time>
</trkpt>
<trkpt lat="46.1263430" lon="10.4779360">
	<ele>2719.00</ele>
	<time>2023-08-07T12:16:55.000Z</time>
</trkpt>
<trkpt lat="46.1263410" lon="10.4779300">
	<ele>2718.80</ele>
	<time>2023-08-07T12:16:56.000Z</time>
</trkpt>
<trkpt lat="46.1263390" lon="10.4779150">
	<ele>2718.80</ele>
	<time>2023-08-07T12:16:57.000Z</time>
</trkpt>
<trkpt lat="46.1263290" lon="10.4779100">
	<ele>2718.80</ele>
	<time>2023-08-07T12:16:58.000Z</time>
</trkpt>
<trkpt lat="46.1263240" lon="10.4779070">
	<ele>2718.80</ele>
	<time>2023-08-07T12:16:59.000Z</time>
</trkpt>
<trkpt lat="46.1263240" lon="10.4779040">
	<ele>2718.60</ele>
	<time>2023-08-07T12:17:00.000Z</time>
</trkpt>
<trkpt lat="46.1263190" lon="10.4778990">
	<ele>2718.40</ele>
	<time>2023-08-07T12:17:01.000Z</time>
</trkpt>
<trkpt lat="46.1263150" lon="10.4778840">
	<ele>2718.20</ele>
	<time>2023-08-07T12:17:02.000Z</time>
</trkpt>
<trkpt lat="46.1263160" lon="10.4778810">
	<ele>2718.00</ele>
	<time>2023-08-07T12:17:03.000Z</time>
</trkpt>
<trkpt lat="46.1263120" lon="10.4778850">
	<ele>2717.60</ele>
	<time>2023-08-07T12:17:04.000Z</time>
</trkpt>
<trkpt lat="46.1263110" lon="10.4778880">
	<ele>2717.40</ele>
	<time>2023-08-07T12:17:05.000Z</time>
</trkpt>
<trkpt lat="46.1263210" lon="10.4778840">
	<ele>2717.20</ele>
	<time>2023-08-07T12:17:06.000Z</time>
</trkpt>
<trkpt lat="46.1263240" lon="10.4778800">
	<ele>2717.00</ele>
	<time>2023-08-07T12:17:07.000Z</time>
</trkpt>
<trkpt lat="46.1263240" lon="10.4778720">
	<ele>2717.00</ele>
	<time>2023-08-07T12:17:08.000Z</time>
</trkpt>
<trkpt lat="46.1263220" lon="10.4778690">
	<ele>2716.80</ele>
	<time>2023-08-07T12:17:09.000Z</time>
</trkpt>
<trkpt lat="46.1263220" lon="10.4778670">
	<ele>2716.40</ele>
	<time>2023-08-07T12:17:10.000Z</time>
</trkpt>
<trkpt lat="46.1263200" lon="10.4778620">
	<ele>2716.20</ele>
	<time>2023-08-07T12:17:11.000Z</time>
</trkpt>
<trkpt lat="46.1263170" lon="10.4778500">
	<ele>2716.00</ele>
	<time>2023-08-07T12:17:12.000Z</time>
</trkpt>
<trkpt lat="46.1263140" lon="10.4778440">
	<ele>2716.00</ele>
	<time>2023-08-07T12:17:13.000Z</time>
</trkpt>
<trkpt lat="46.1263150" lon="10.4778420">
	<ele>2716.00</ele>
	<time>2023-08-07T12:17:14.000Z</time>
</trkpt>
<trkpt lat="46.1263170" lon="10.4778450">
	<ele>2715.80</ele>
	<time>2023-08-07T12:17:15.000Z</time>
</trkpt>
<trkpt lat="46.1263060" lon="10.4778460">
	<ele>2715.60</ele>
	<time>2023-08-07T12:17:16.000Z</time>
</trkpt>
<trkpt lat="46.1262950" lon="10.4778430">
	<ele>2715.40</ele>
	<time>2023-08-07T12:17:17.000Z</time>
</trkpt>
<trkpt lat="46.1262910" lon="10.4778400">
	<ele>2715.40</ele>
	<time>2023-08-07T12:17:18.000Z</time>
</trkpt>
<trkpt lat="46.1262830" lon="10.4778340">
	<ele>2715.20</ele>
	<time>2023-08-07T12:17:19.000Z</time>
</trkpt>
<trkpt lat="46.1262820" lon="10.4778330">
	<ele>2715.20</ele>
	<time>2023-08-07T12:17:20.000Z</time>
</trkpt>
<trkpt lat="46.1262780" lon="10.4778390">
	<ele>2715.20</ele>
	<time>2023-08-07T12:17:21.000Z</time>
</trkpt>
<trkpt lat="46.1262750" lon="10.4778390">
	<ele>2715.00</ele>
	<time>2023-08-07T12:17:22.000Z</time>
</trkpt>
<trkpt lat="46.1262730" lon="10.4778370">
	<ele>2714.80</ele>
	<time>2023-08-07T12:17:23.000Z</time>
</trkpt>
<trkpt lat="46.1262700" lon="10.4778380">
	<ele>2714.60</ele>
	<time>2023-08-07T12:17:24.000Z</time>
</trkpt>
<trkpt lat="46.1262730" lon="10.4778370">
	<ele>2714.60</ele>
	<time>2023-08-07T12:17:25.000Z</time>
</trkpt>
<trkpt lat="46.1262730" lon="10.4778320">
	<ele>2714.40</ele>
	<time>2023-08-07T12:17:26.000Z</time>
</trkpt>
<trkpt lat="46.1262810" lon="10.4778190">
	<ele>2714.40</ele>
	<time>2023-08-07T12:17:27.000Z</time>
</trkpt>
<trkpt lat="46.1262860" lon="10.4778090">
	<ele>2714.20</ele>
	<time>2023-08-07T12:17:28.000Z</time>
</trkpt>
<trkpt lat="46.1262820" lon="10.4778070">
	<ele>2713.80</ele>
	<time>2023-08-07T12:17:29.000Z</time>
</trkpt>
<trkpt lat="46.1262780" lon="10.4778000">
	<ele>2713.20</ele>
	<time>2023-08-07T12:17:30.000Z</time>
</trkpt>
<trkpt lat="46.1262860" lon="10.4777900">
	<ele>2712.80</ele>
	<time>2023-08-07T12:17:31.000Z</time>
</trkpt>
<trkpt lat="46.1262890" lon="10.4777940">
	<ele>2712.60</ele>
	<time>2023-08-07T12:17:32.000Z</time>
</trkpt>
<trkpt lat="46.1262910" lon="10.4777930">
	<ele>2712.40</ele>
	<time>2023-08-07T12:17:33.000Z</time>
</trkpt>
<trkpt lat="46.1262940" lon="10.4777930">
	<ele>2712.00</ele>
	<time>2023-08-07T12:17:34.000Z</time>
</trkpt>
<trkpt lat="46.1262940" lon="10.4777940">
	<ele>2711.80</ele>
	<time>2023-08-07T12:17:35.000Z</time>
</trkpt>
<trkpt lat="46.1262910" lon="10.4777970">
	<ele>2711.60</ele>
	<time>2023-08-07T12:17:36.000Z</time>
</trkpt>
<trkpt lat="46.1262900" lon="10.4777910">
	<ele>2711.60</ele>
	<time>2023-08-07T12:17:37.000Z</time>
</trkpt>
<trkpt lat="46.1262880" lon="10.4777840">
	<ele>2711.60</ele>
	<time>2023-08-07T12:17:38.000Z</time>
</trkpt>
<trkpt lat="46.1262850" lon="10.4777810">
	<ele>2711.40</ele>
	<time>2023-08-07T12:17:39.000Z</time>
</trkpt>
<trkpt lat="46.1262850" lon="10.4777800">
	<ele>2711.40</ele>
	<time>2023-08-07T12:17:40.000Z</time>
</trkpt>
<trkpt lat="46.1262870" lon="10.4777770">
	<ele>2711.40</ele>
	<time>2023-08-07T12:17:41.000Z</time>
</trkpt>
<trkpt lat="46.1262840" lon="10.4777660">
	<ele>2711.20</ele>
	<time>2023-08-07T12:17:42.000Z</time>
</trkpt>
<trkpt lat="46.1262860" lon="10.4777660">
	<ele>2711.20</ele>
	<time>2023-08-07T12:17:43.000Z</time>
</trkpt>
<trkpt lat="46.1262880" lon="10.4777630">
	<ele>2711.00</ele>
	<time>2023-08-07T12:17:44.000Z</time>
</trkpt>
<trkpt lat="46.1262920" lon="10.4777570">
	<ele>2710.80</ele>
	<time>2023-08-07T12:17:45.000Z</time>
</trkpt>
<trkpt lat="46.1262910" lon="10.4777580">
	<ele>2710.40</ele>
	<time>2023-08-07T12:17:46.000Z</time>
</trkpt>
<trkpt lat="46.1262900" lon="10.4777500">
	<ele>2710.20</ele>
	<time>2023-08-07T12:17:47.000Z</time>
</trkpt>
<trkpt lat="46.1262920" lon="10.4777520">
	<ele>2710.00</ele>
	<time>2023-08-07T12:17:48.000Z</time>
</trkpt>
<trkpt lat="46.1262910" lon="10.4777530">
	<ele>2709.80</ele>
	<time>2023-08-07T12:17:49.000Z</time>
</trkpt>
<trkpt lat="46.1262880" lon="10.4777530">
	<ele>2709.60</ele>
	<time>2023-08-07T12:17:50.000Z</time>
</trkpt>
<trkpt lat="46.1262770" lon="10.4777390">
	<ele>2709.60</ele>
	<time>2023-08-07T12:17:51.000Z</time>
</trkpt>
<trkpt lat="46.1262680" lon="10.4777230">
	<ele>2709.40</ele>
	<time>2023-08-07T12:17:52.000Z</time>
</trkpt>
<trkpt lat="46.1262660" lon="10.4777060">
	<ele>2709.40</ele>
	<time>2023-08-07T12:17:53.000Z</time>
</trkpt>
<trkpt lat="46.1262580" lon="10.4776950">
	<ele>2709.40</ele>
	<time>2023-08-07T12:17:54.000Z</time>
</trkpt>
<trkpt lat="46.1262540" lon="10.4776850">
	<ele>2709.40</ele>
	<time>2023-08-07T12:17:55.000Z</time>
</trkpt>
<trkpt lat="46.1262510" lon="10.4776810">
	<ele>2709.20</ele>
	<time>2023-08-07T12:17:56.000Z</time>
</trkpt>
<trkpt lat="46.1262550" lon="10.4776730">
	<ele>2709.20</ele>
	<time>2023-08-07T12:17:57.000Z</time>
</trkpt>
<trkpt lat="46.1262580" lon="10.4776670">
	<ele>2709.20</ele>
	<time>2023-08-07T12:17:58.000Z</time>
</trkpt>
<trkpt lat="46.1262590" lon="10.4776580">
	<ele>2709.20</ele>
	<time>2023-08-07T12:17:59.000Z</time>
</trkpt>
<trkpt lat="46.1262540" lon="10.4776450">
	<ele>2709.20</ele>
	<time>2023-08-07T12:18:00.000Z</time>
</trkpt>
<trkpt lat="46.1262530" lon="10.4776390">
	<ele>2709.40</ele>
	<time>2023-08-07T12:18:01.000Z</time>
</trkpt>
<trkpt lat="46.1262630" lon="10.4776250">
	<ele>2709.20</ele>
	<time>2023-08-07T12:18:02.000Z</time>
</trkpt>
<trkpt lat="46.1262730" lon="10.4776190">
	<ele>2709.20</ele>
	<time>2023-08-07T12:18:03.000Z</time>
</trkpt>
<trkpt lat="46.1262760" lon="10.4776180">
	<ele>2709.20</ele>
	<time>2023-08-07T12:18:04.000Z</time>
</trkpt>
<trkpt lat="46.1262770" lon="10.4776130">
	<ele>2709.00</ele>
	<time>2023-08-07T12:18:05.000Z</time>
</trkpt>
<trkpt lat="46.1262760" lon="10.4776100">
	<ele>2708.80</ele>
	<time>2023-08-07T12:18:06.000Z</time>
</trkpt>
<trkpt lat="46.1262750" lon="10.4776070">
	<ele>2708.60</ele>
	<time>2023-08-07T12:18:07.000Z</time>
</trkpt>
<trkpt lat="46.1262770" lon="10.4776080">
	<ele>2708.40</ele>
	<time>2023-08-07T12:18:08.000Z</time>
</trkpt>
<trkpt lat="46.1262760" lon="10.4776070">
	<ele>2708.40</ele>
	<time>2023-08-07T12:18:09.000Z</time>
</trkpt>
<trkpt lat="46.1262770" lon="10.4776040">
	<ele>2708.40</ele>
	<time>2023-08-07T12:18:10.000Z</time>
</trkpt>
<trkpt lat="46.1262880" lon="10.4776070">
	<ele>2708.40</ele>
	<time>2023-08-07T12:18:11.000Z</time>
</trkpt>
<trkpt lat="46.1262870" lon="10.4775940">
	<ele>2708.40</ele>
	<time>2023-08-07T12:18:12.000Z</time>
</trkpt>
<trkpt lat="46.1262910" lon="10.4775710">
	<ele>2708.20</ele>
	<time>2023-08-07T12:18:13.000Z</time>
</trkpt>
<trkpt lat="46.1262970" lon="10.4775640">
	<ele>2708.20</ele>
	<time>2023-08-07T12:18:14.000Z</time>
</trkpt>
<trkpt lat="46.1263020" lon="10.4775600">
	<ele>2708.00</ele>
	<time>2023-08-07T12:18:15.000Z</time>
</trkpt>
<trkpt lat="46.1263310" lon="10.4775550">
	<ele>2708.00</ele>
	<time>2023-08-07T12:18:16.000Z</time>
</trkpt>
<trkpt lat="46.1263390" lon="10.4775510">
	<ele>2707.80</ele>
	<time>2023-08-07T12:18:17.000Z</time>
</trkpt>
<trkpt lat="46.1263410" lon="10.4775510">
	<ele>2707.80</ele>
	<time>2023-08-07T12:18:18.000Z</time>
</trkpt>
<trkpt lat="46.1263440" lon="10.4775500">
	<ele>2707.80</ele>
	<time>2023-08-07T12:18:19.000Z</time>
</trkpt>
<trkpt lat="46.1263520" lon="10.4775530">
	<ele>2707.80</ele>
	<time>2023-08-07T12:18:20.000Z</time>
</trkpt>
<trkpt lat="46.1263500" lon="10.4775500">
	<ele>2707.80</ele>
	<time>2023-08-07T12:18:21.000Z</time>
</trkpt>
<trkpt lat="46.1263480" lon="10.4775510">
	<ele>2707.80</ele>
	<time>2023-08-07T12:18:22.000Z</time>
</trkpt>
<trkpt lat="46.1263520" lon="10.4775510">
	<ele>2707.60</ele>
	<time>2023-08-07T12:18:23.000Z</time>
</trkpt>
<trkpt lat="46.1263530" lon="10.4775530">
	<ele>2707.60</ele>
	<time>2023-08-07T12:18:24.000Z</time>
</trkpt>
<trkpt lat="46.1263520" lon="10.4775510">
	<ele>2707.40</ele>
	<time>2023-08-07T12:18:25.000Z</time>
</trkpt>
<trkpt lat="46.1263520" lon="10.4775540">
	<ele>2707.20</ele>
	<time>2023-08-07T12:18:26.000Z</time>
</trkpt>
<trkpt lat="46.1263480" lon="10.4775590">
	<ele>2707.00</ele>
	<time>2023-08-07T12:18:27.000Z</time>
</trkpt>
<trkpt lat="46.1263540" lon="10.4775740">
	<ele>2707.00</ele>
	<time>2023-08-07T12:18:28.000Z</time>
</trkpt>
<trkpt lat="46.1263550" lon="10.4775790">
	<ele>2707.00</ele>
	<time>2023-08-07T12:18:29.000Z</time>
</trkpt>
<trkpt lat="46.1263580" lon="10.4775870">
	<ele>2707.00</ele>
	<time>2023-08-07T12:18:30.000Z</time>
</trkpt>
<trkpt lat="46.1263620" lon="10.4775930">
	<ele>2706.80</ele>
	<time>2023-08-07T12:18:31.000Z</time>
</trkpt>
<trkpt lat="46.1263600" lon="10.4775890">
	<ele>2706.80</ele>
	<time>2023-08-07T12:18:32.000Z</time>
</trkpt>
<trkpt lat="46.1263700" lon="10.4775900">
	<ele>2706.80</ele>
	<time>2023-08-07T12:18:33.000Z</time>
</trkpt>
<trkpt lat="46.1263790" lon="10.4775930">
	<ele>2706.80</ele>
	<time>2023-08-07T12:18:34.000Z</time>
</trkpt>
<trkpt lat="46.1263940" lon="10.4775970">
	<ele>2706.80</ele>
	<time>2023-08-07T12:18:35.000Z</time>
</trkpt>
<trkpt lat="46.1264050" lon="10.4775970">
	<ele>2706.80</ele>
	<time>2023-08-07T12:18:36.000Z</time>
</trkpt>
<trkpt lat="46.1264050" lon="10.4775960">
	<ele>2706.60</ele>
	<time>2023-08-07T12:18:37.000Z</time>
</trkpt>
<trkpt lat="46.1264090" lon="10.4775940">
	<ele>2706.60</ele>
	<time>2023-08-07T12:18:38.000Z</time>
</trkpt>
<trkpt lat="46.1264120" lon="10.4775930">
	<ele>2706.60</ele>
	<time>2023-08-07T12:18:39.000Z</time>
</trkpt>
<trkpt lat="46.1264140" lon="10.4775930">
	<ele>2706.60</ele>
	<time>2023-08-07T12:18:40.000Z</time>
</trkpt>
<trkpt lat="46.1264070" lon="10.4775790">
	<ele>2706.60</ele>
	<time>2023-08-07T12:18:41.000Z</time>
</trkpt>
<trkpt lat="46.1263950" lon="10.4775650">
	<ele>2706.60</ele>
	<time>2023-08-07T12:18:42.000Z</time>
</trkpt>
<trkpt lat="46.1263940" lon="10.4775680">
	<ele>2706.60</ele>
	<time>2023-08-07T12:18:43.000Z</time>
</trkpt>
<trkpt lat="46.1263940" lon="10.4775660">
	<ele>2706.80</ele>
	<time>2023-08-07T12:18:44.000Z</time>
</trkpt>
<trkpt lat="46.1263880" lon="10.4775590">
	<ele>2707.00</ele>
	<time>2023-08-07T12:18:45.000Z</time>
</trkpt>
<trkpt lat="46.1263820" lon="10.4775450">
	<ele>2707.00</ele>
	<time>2023-08-07T12:18:46.000Z</time>
</trkpt>
<trkpt lat="46.1263930" lon="10.4775320">
	<ele>2707.00</ele>
	<time>2023-08-07T12:18:47.000Z</time>
</trkpt>
<trkpt lat="46.1263930" lon="10.4775170">
	<ele>2707.00</ele>
	<time>2023-08-07T12:18:48.000Z</time>
</trkpt>
<trkpt lat="46.1263940" lon="10.4775130">
	<ele>2706.80</ele>
	<time>2023-08-07T12:18:49.000Z</time>
</trkpt>
<trkpt lat="46.1263890" lon="10.4775060">
	<ele>2706.80</ele>
	<time>2023-08-07T12:18:50.000Z</time>
</trkpt>
<trkpt lat="46.1263870" lon="10.4774960">
	<ele>2706.60</ele>
	<time>2023-08-07T12:18:51.000Z</time>
</trkpt>
<trkpt lat="46.1263950" lon="10.4774830">
	<ele>2706.60</ele>
	<time>2023-08-07T12:18:52.000Z</time>
</trkpt>
<trkpt lat="46.1263980" lon="10.4774720">
	<ele>2706.60</ele>
	<time>2023-08-07T12:18:53.000Z</time>
</trkpt>
<trkpt lat="46.1264010" lon="10.4774640">
	<ele>2706.60</ele>
	<time>2023-08-07T12:18:54.000Z</time>
</trkpt>
<trkpt lat="46.1263990" lon="10.4774600">
	<ele>2706.60</ele>
	<time>2023-08-07T12:18:55.000Z</time>
</trkpt>
<trkpt lat="46.1263940" lon="10.4774530">
	<ele>2706.40</ele>
	<time>2023-08-07T12:18:56.000Z</time>
</trkpt>
<trkpt lat="46.1263890" lon="10.4774430">
	<ele>2706.20</ele>
	<time>2023-08-07T12:18:57.000Z</time>
</trkpt>
<trkpt lat="46.1263870" lon="10.4774380">
	<ele>2706.00</ele>
	<time>2023-08-07T12:18:58.000Z</time>
</trkpt>
<trkpt lat="46.1263820" lon="10.4774310">
	<ele>2705.80</ele>
	<time>2023-08-07T12:18:59.000Z</time>
</trkpt>
<trkpt lat="46.1263750" lon="10.4774220">
	<ele>2705.80</ele>
	<time>2023-08-07T12:19:00.000Z</time>
</trkpt>
<trkpt lat="46.1263730" lon="10.4774200">
	<ele>2705.60</ele>
	<time>2023-08-07T12:19:01.000Z</time>
</trkpt>
<trkpt lat="46.1263680" lon="10.4774160">
	<ele>2705.60</ele>
	<time>2023-08-07T12:19:02.000Z</time>
</trkpt>
<trkpt lat="46.1263700" lon="10.4774150">
	<ele>2705.60</ele>
	<time>2023-08-07T12:19:03.000Z</time>
</trkpt>
<trkpt lat="46.1263710" lon="10.4774090">
	<ele>2705.60</ele>
	<time>2023-08-07T12:19:04.000Z</time>
</trkpt>
<trkpt lat="46.1263720" lon="10.4774080">
	<ele>2705.20</ele>
	<time>2023-08-07T12:19:05.000Z</time>
</trkpt>
<trkpt lat="46.1263730" lon="10.4774100">
	<ele>2705.00</ele>
	<time>2023-08-07T12:19:06.000Z</time>
</trkpt>
<trkpt lat="46.1263680" lon="10.4774030">
	<ele>2705.00</ele>
	<time>2023-08-07T12:19:07.000Z</time>
</trkpt>
<trkpt lat="46.1263690" lon="10.4774000">
	<ele>2704.80</ele>
	<time>2023-08-07T12:19:08.000Z</time>
</trkpt>
<trkpt lat="46.1263720" lon="10.4773990">
	<ele>2704.60</ele>
	<time>2023-08-07T12:19:09.000Z</time>
</trkpt>
<trkpt lat="46.1263770" lon="10.4773990">
	<ele>2704.60</ele>
	<time>2023-08-07T12:19:10.000Z</time>
</trkpt>
<trkpt lat="46.1263870" lon="10.4774070">
	<ele>2704.80</ele>
	<time>2023-08-07T12:19:11.000Z</time>
</trkpt>
<trkpt lat="46.1263880" lon="10.4774140">
	<ele>2704.80</ele>
	<time>2023-08-07T12:19:12.000Z</time>
</trkpt>
<trkpt lat="46.1263750" lon="10.4774150">
	<ele>2704.80</ele>
	<time>2023-08-07T12:19:13.000Z</time>
</trkpt>
<trkpt lat="46.1263730" lon="10.4774120">
	<ele>2705.00</ele>
	<time>2023-08-07T12:19:14.000Z</time>
</trkpt>
<trkpt lat="46.1263720" lon="10.4774110">
	<ele>2705.20</ele>
	<time>2023-08-07T12:19:15.000Z</time>
</trkpt>
<trkpt lat="46.1263700" lon="10.4774120">
	<ele>2705.40</ele>
	<time>2023-08-07T12:19:16.000Z</time>
</trkpt>
<trkpt lat="46.1263680" lon="10.4774250">
	<ele>2705.40</ele>
	<time>2023-08-07T12:19:17.000Z</time>
</trkpt>
<trkpt lat="46.1263690" lon="10.4774380">
	<ele>2705.40</ele>
	<time>2023-08-07T12:19:18.000Z</time>
</trkpt>
<trkpt lat="46.1263710" lon="10.4774410">
	<ele>2705.40</ele>
	<time>2023-08-07T12:19:19.000Z</time>
</trkpt>
<trkpt lat="46.1263710" lon="10.4774420">
	<ele>2705.40</ele>
	<time>2023-08-07T12:19:20.000Z</time>
</trkpt>
<trkpt lat="46.1263570" lon="10.4774380">
	<ele>2705.40</ele>
	<time>2023-08-07T12:19:21.000Z</time>
</trkpt>
<trkpt lat="46.1263440" lon="10.4774340">
	<ele>2705.40</ele>
	<time>2023-08-07T12:19:22.000Z</time>
</trkpt>
<trkpt lat="46.1263400" lon="10.4774340">
	<ele>2705.40</ele>
	<time>2023-08-07T12:19:23.000Z</time>
</trkpt>
<trkpt lat="46.1263230" lon="10.4774270">
	<ele>2705.40</ele>
	<time>2023-08-07T12:19:24.000Z</time>
</trkpt>
<trkpt lat="46.1263210" lon="10.4774260">
	<ele>2705.40</ele>
	<time>2023-08-07T12:19:25.000Z</time>
</trkpt>
<trkpt lat="46.1263180" lon="10.4774250">
	<ele>2705.40</ele>
	<time>2023-08-07T12:19:26.000Z</time>
</trkpt>
<trkpt lat="46.1263160" lon="10.4774220">
	<ele>2705.20</ele>
	<time>2023-08-07T12:19:27.000Z</time>
</trkpt>
<trkpt lat="46.1263170" lon="10.4774220">
	<ele>2705.00</ele>
	<time>2023-08-07T12:19:28.000Z</time>
</trkpt>
<trkpt lat="46.1263250" lon="10.4774260">
	<ele>2704.60</ele>
	<time>2023-08-07T12:19:29.000Z</time>
</trkpt>
<trkpt lat="46.1263270" lon="10.4774290">
	<ele>2704.20</ele>
	<time>2023-08-07T12:19:30.000Z</time>
</trkpt>
<trkpt lat="46.1263320" lon="10.4774290">
	<ele>2704.00</ele>
	<time>2023-08-07T12:19:31.000Z</time>
</trkpt>
<trkpt lat="46.1263350" lon="10.4774280">
	<ele>2703.80</ele>
	<time>2023-08-07T12:19:32.000Z</time>
</trkpt>
<trkpt lat="46.1263530" lon="10.4774330">
	<ele>2703.60</ele>
	<time>2023-08-07T12:19:33.000Z</time>
</trkpt>
<trkpt lat="46.1263530" lon="10.4774310">
	<ele>2703.40</ele>
	<time>2023-08-07T12:19:34.000Z</time>
</trkpt>
<trkpt lat="46.1263520" lon="10.4774310">
	<ele>2703.40</ele>
	<time>2023-08-07T12:19:35.000Z</time>
</trkpt>
<trkpt lat="46.1263520" lon="10.4774310">
	<ele>2703.40</ele>
	<time>2023-08-07T12:19:36.000Z</time>
</trkpt>
<trkpt lat="46.1263590" lon="10.4774330">
	<ele>2703.40</ele>
	<time>2023-08-07T12:19:37.000Z</time>
</trkpt>
<trkpt lat="46.1263650" lon="10.4774350">
	<ele>2703.20</ele>
	<time>2023-08-07T12:19:38.000Z</time>
</trkpt>
<trkpt lat="46.1263690" lon="10.4774330">
	<ele>2703.20</ele>
	<time>2023-08-07T12:19:39.000Z</time>
</trkpt>
<trkpt lat="46.1263710" lon="10.4774330">
	<ele>2703.40</ele>
	<time>2023-08-07T12:19:40.000Z</time>
</trkpt>
<trkpt lat="46.1263770" lon="10.4774320">
	<ele>2703.60</ele>
	<time>2023-08-07T12:19:41.000Z</time>
</trkpt>
<trkpt lat="46.1263740" lon="10.4774250">
	<ele>2703.80</ele>
	<time>2023-08-07T12:19:42.000Z</time>
</trkpt>
<trkpt lat="46.1263760" lon="10.4774180">
	<ele>2703.80</ele>
	<time>2023-08-07T12:19:43.000Z</time>
</trkpt>
<trkpt lat="46.1263770" lon="10.4774110">
	<ele>2703.80</ele>
	<time>2023-08-07T12:19:44.000Z</time>
</trkpt>
<trkpt lat="46.1263800" lon="10.4774150">
	<ele>2703.80</ele>
	<time>2023-08-07T12:19:45.000Z</time>
</trkpt>
<trkpt lat="46.1263770" lon="10.4774180">
	<ele>2703.40</ele>
	<time>2023-08-07T12:19:46.000Z</time>
</trkpt>
<trkpt lat="46.1263760" lon="10.4774160">
	<ele>2703.40</ele>
	<time>2023-08-07T12:19:47.000Z</time>
</trkpt>
<trkpt lat="46.1263760" lon="10.4774120">
	<ele>2703.20</ele>
	<time>2023-08-07T12:19:48.000Z</time>
</trkpt>
<trkpt lat="46.1263780" lon="10.4774150">
	<ele>2703.00</ele>
	<time>2023-08-07T12:19:49.000Z</time>
</trkpt>
<trkpt lat="46.1263750" lon="10.4774090">
	<ele>2702.80</ele>
	<time>2023-08-07T12:19:50.000Z</time>
</trkpt>
<trkpt lat="46.1263700" lon="10.4774210">
	<ele>2702.80</ele>
	<time>2023-08-07T12:19:51.000Z</time>
</trkpt>
<trkpt lat="46.1263670" lon="10.4774180">
	<ele>2702.60</ele>
	<time>2023-08-07T12:19:52.000Z</time>
</trkpt>
<trkpt lat="46.1263710" lon="10.4774150">
	<ele>2702.60</ele>
	<time>2023-08-07T12:19:53.000Z</time>
</trkpt>
<trkpt lat="46.1263780" lon="10.4773960">
	<ele>2702.40</ele>
	<time>2023-08-07T12:19:54.000Z</time>
</trkpt>
<trkpt lat="46.1263770" lon="10.4773930">
	<ele>2702.40</ele>
	<time>2023-08-07T12:19:55.000Z</time>
</trkpt>
<trkpt lat="46.1263790" lon="10.4773960">
	<ele>2702.00</ele>
	<time>2023-08-07T12:19:56.000Z</time>
</trkpt>
<trkpt lat="46.1263810" lon="10.4773970">
	<ele>2702.00</ele>
	<time>2023-08-07T12:19:57.000Z</time>
</trkpt>
<trkpt lat="46.1263810" lon="10.4773920">
	<ele>2701.80</ele>
	<time>2023-08-07T12:19:58.000Z</time>
</trkpt>
<trkpt lat="46.1263750" lon="10.4773850">
	<ele>2701.80</ele>
	<time>2023-08-07T12:19:59.000Z</time>
</trkpt>
<trkpt lat="46.1263720" lon="10.4773890">
	<ele>2701.60</ele>
	<time>2023-08-07T12:20:00.000Z</time>
</trkpt>
<trkpt lat="46.1263780" lon="10.4773930">
	<ele>2701.60</ele>
	<time>2023-08-07T12:20:01.000Z</time>
</trkpt>
<trkpt lat="46.1263870" lon="10.4774000">
	<ele>2701.40</ele>
	<time>2023-08-07T12:20:02.000Z</time>
</trkpt>
<trkpt lat="46.1264000" lon="10.4774070">
	<ele>2701.00</ele>
	<time>2023-08-07T12:20:03.000Z</time>
</trkpt>
<trkpt lat="46.1263990" lon="10.4774130">
	<ele>2701.00</ele>
	<time>2023-08-07T12:20:04.000Z</time>
</trkpt>
<trkpt lat="46.1264010" lon="10.4774150">
	<ele>2700.80</ele>
	<time>2023-08-07T12:20:05.000Z</time>
</trkpt>
<trkpt lat="46.1263980" lon="10.4774150">
	<ele>2700.80</ele>
	<time>2023-08-07T12:20:06.000Z</time>
</trkpt>
<trkpt lat="46.1263950" lon="10.4774040">
	<ele>2700.80</ele>
	<time>2023-08-07T12:20:07.000Z</time>
</trkpt>
<trkpt lat="46.1263930" lon="10.4773990">
	<ele>2700.60</ele>
	<time>2023-08-07T12:20:08.000Z</time>
</trkpt>
<trkpt lat="46.1263760" lon="10.4773840">
	<ele>2700.60</ele>
	<time>2023-08-07T12:20:09.000Z</time>
</trkpt>
<trkpt lat="46.1263720" lon="10.4773650">
	<ele>2700.20</ele>
	<time>2023-08-07T12:20:10.000Z</time>
</trkpt>
<trkpt lat="46.1263640" lon="10.4773500">
	<ele>2700.00</ele>
	<time>2023-08-07T12:20:11.000Z</time>
</trkpt>
<trkpt lat="46.1263640" lon="10.4773420">
	<ele>2699.80</ele>
	<time>2023-08-07T12:20:12.000Z</time>
</trkpt>
<trkpt lat="46.1263650" lon="10.4773350">
	<ele>2699.80</ele>
	<time>2023-08-07T12:20:13.000Z</time>
</trkpt>
<trkpt lat="46.1263660" lon="10.4773270">
	<ele>2699.60</ele>
	<time>2023-08-07T12:20:14.000Z</time>
</trkpt>
<trkpt lat="46.1263590" lon="10.4773190">
	<ele>2699.40</ele>
	<time>2023-08-07T12:20:15.000Z</time>
</trkpt>
<trkpt lat="46.1263560" lon="10.4773110">
	<ele>2699.20</ele>
	<time>2023-08-07T12:20:16.000Z</time>
</trkpt>
<trkpt lat="46.1263570" lon="10.4773070">
	<ele>2699.00</ele>
	<time>2023-08-07T12:20:17.000Z</time>
</trkpt>
<trkpt lat="46.1263570" lon="10.4773030">
	<ele>2698.80</ele>
	<time>2023-08-07T12:20:18.000Z</time>
</trkpt>
<trkpt lat="46.1263630" lon="10.4773060">
	<ele>2698.80</ele>
	<time>2023-08-07T12:20:19.000Z</time>
</trkpt>
<trkpt lat="46.1263720" lon="10.4773090">
	<ele>2698.60</ele>
	<time>2023-08-07T12:20:20.000Z</time>
</trkpt>
<trkpt lat="46.1263750" lon="10.4773130">
	<ele>2698.60</ele>
	<time>2023-08-07T12:20:21.000Z</time>
</trkpt>
<trkpt lat="46.1263680" lon="10.4773180">
	<ele>2698.60</ele>
	<time>2023-08-07T12:20:22.000Z</time>
</trkpt>
<trkpt lat="46.1263720" lon="10.4773110">
	<ele>2698.40</ele>
	<time>2023-08-07T12:20:23.000Z</time>
</trkpt>
<trkpt lat="46.1263710" lon="10.4773060">
	<ele>2698.40</ele>
	<time>2023-08-07T12:20:24.000Z</time>
</trkpt>
<trkpt lat="46.1263680" lon="10.4773050">
	<ele>2698.40</ele>
	<time>2023-08-07T12:20:25.000Z</time>
</trkpt>
<trkpt lat="46.1263620" lon="10.4772960">
	<ele>2698.00</ele>
	<time>2023-08-07T12:20:26.000Z</time>
</trkpt>
<trkpt lat="46.1263620" lon="10.4772990">
	<ele>2697.80</ele>
	<time>2023-08-07T12:20:27.000Z</time>
</trkpt>
<trkpt lat="46.1263600" lon="10.4772980">
	<ele>2697.60</ele>
	<time>2023-08-07T12:20:28.000Z</time>
</trkpt>
<trkpt lat="46.1263530" lon="10.4772980">
	<ele>2697.60</ele>
	<time>2023-08-07T12:20:29.000Z</time>
</trkpt>
<trkpt lat="46.1263360" lon="10.4773010">
	<ele>2697.40</ele>
	<time>2023-08-07T12:20:30.000Z</time>
</trkpt>
<trkpt lat="46.1263240" lon="10.4773000">
	<ele>2697.40</ele>
	<time>2023-08-07T12:20:31.000Z</time>
</trkpt>
<trkpt lat="46.1263120" lon="10.4773080">
	<ele>2697.20</ele>
	<time>2023-08-07T12:20:32.000Z</time>
</trkpt>
<trkpt lat="46.1263080" lon="10.4773110">
	<ele>2697.00</ele>
	<time>2023-08-07T12:20:33.000Z</time>
</trkpt>
<trkpt lat="46.1263050" lon="10.4773130">
	<ele>2697.00</ele>
	<time>2023-08-07T12:20:34.000Z</time>
</trkpt>
<trkpt lat="46.1262990" lon="10.4773150">
	<ele>2696.80</ele>
	<time>2023-08-07T12:20:35.000Z</time>
</trkpt>
<trkpt lat="46.1263040" lon="10.4773140">
	<ele>2696.80</ele>
	<time>2023-08-07T12:20:36.000Z</time>
</trkpt>
<trkpt lat="46.1263040" lon="10.4773120">
	<ele>2696.80</ele>
	<time>2023-08-07T12:20:37.000Z</time>
</trkpt>
<trkpt lat="46.1262990" lon="10.4773320">
	<ele>2696.80</ele>
	<time>2023-08-07T12:20:38.000Z</time>
</trkpt>
<trkpt lat="46.1262990" lon="10.4773430">
	<ele>2696.80</ele>
	<time>2023-08-07T12:20:39.000Z</time>
</trkpt>
<trkpt lat="46.1262990" lon="10.4773450">
	<ele>2696.80</ele>
	<time>2023-08-07T12:20:40.000Z</time>
</trkpt>
<trkpt lat="46.1263040" lon="10.4773360">
	<ele>2696.80</ele>
	<time>2023-08-07T12:20:41.000Z</time>
</trkpt>
<trkpt lat="46.1263040" lon="10.4773270">
	<ele>2696.80</ele>
	<time>2023-08-07T12:20:42.000Z</time>
</trkpt>
<trkpt lat="46.1263060" lon="10.4773270">
	<ele>2696.80</ele>
	<time>2023-08-07T12:20:43.000Z</time>
</trkpt>
<trkpt lat="46.1263080" lon="10.4773120">
	<ele>2696.80</ele>
	<time>2023-08-07T12:20:44.000Z</time>
</trkpt>
<trkpt lat="46.1263050" lon="10.4773120">
	<ele>2696.80</ele>
	<time>2023-08-07T12:20:45.000Z</time>
</trkpt>
<trkpt lat="46.1263040" lon="10.4773120">
	<ele>2696.80</ele>
	<time>2023-08-07T12:20:46.000Z</time>
</trkpt>
<trkpt lat="46.1263040" lon="10.4773120">
	<ele>2696.80</ele>
	<time>2023-08-07T12:20:47.000Z</time>
</trkpt>
<trkpt lat="46.1263040" lon="10.4773120">
	<ele>2696.60</ele>
	<time>2023-08-07T12:20:48.000Z</time>
</trkpt>
<trkpt lat="46.1263040" lon="10.4773120">
	<ele>2696.60</ele>
	<time>2023-08-07T12:20:49.000Z</time>
</trkpt>
<trkpt lat="46.1263040" lon="10.4773120">
	<ele>2696.60</ele>
	<time>2023-08-07T12:20:50.000Z</time>
</trkpt>
<trkpt lat="46.1263040" lon="10.4773120">
	<ele>2696.60</ele>
	<time>2023-08-07T12:20:51.000Z</time>
</trkpt>
<trkpt lat="46.1263040" lon="10.4773120">
	<ele>2696.60</ele>
	<time>2023-08-07T12:20:52.000Z</time>
</trkpt>
<trkpt lat="46.1263040" lon="10.4773120">
	<ele>2696.60</ele>
	<time>2023-08-07T12:20:53.000Z</time>
</trkpt>
<trkpt lat="46.1263040" lon="10.4773120">
	<ele>2696.40</ele>
	<time>2023-08-07T12:20:54.000Z</time>
</trkpt>
<trkpt lat="46.1263040" lon="10.4773120">
	<ele>2696.20</ele>
	<time>2023-08-07T12:20:55.000Z</time>
</trkpt>
<trkpt lat="46.1263040" lon="10.4773120">
	<ele>2696.20</ele>
	<time>2023-08-07T12:20:56.000Z</time>
</trkpt>
<trkpt lat="46.1263040" lon="10.4773120">
	<ele>2696.00</ele>
	<time>2023-08-07T12:20:57.000Z</time>
</trkpt>
<trkpt lat="46.1263040" lon="10.4773120">
	<ele>2696.00</ele>
	<time>2023-08-07T12:20:58.000Z</time>
</trkpt>
<trkpt lat="46.1263050" lon="10.4773120">
	<ele>2696.00</ele>
	<time>2023-08-07T12:20:59.000Z</time>
</trkpt>
<trkpt lat="46.1263060" lon="10.4773120">
	<ele>2695.80</ele>
	<time>2023-08-07T12:21:00.000Z</time>
</trkpt>
<trkpt lat="46.1263060" lon="10.4773120">
	<ele>2695.20</ele>
	<time>2023-08-07T12:21:01.000Z</time>
</trkpt>
<trkpt lat="46.1263070" lon="10.4773110">
	<ele>2694.80</ele>
	<time>2023-08-07T12:21:02.000Z</time>
</trkpt>
<trkpt lat="46.1263070" lon="10.4773100">
	<ele>2694.40</ele>
	<time>2023-08-07T12:21:03.000Z</time>
</trkpt>
<trkpt lat="46.1263070" lon="10.4773090">
	<ele>2694.20</ele>
	<time>2023-08-07T12:21:04.000Z</time>
</trkpt>
<trkpt lat="46.1263070" lon="10.4773090">
	<ele>2694.00</ele>
	<time>2023-08-07T12:21:05.000Z</time>
</trkpt>
<trkpt lat="46.1263080" lon="10.4773080">
	<ele>2693.80</ele>
	<time>2023-08-07T12:21:06.000Z</time>
</trkpt>
<trkpt lat="46.1263090" lon="10.4773080">
	<ele>2693.60</ele>
	<time>2023-08-07T12:21:07.000Z</time>
</trkpt>
<trkpt lat="46.1263110" lon="10.4773070">
	<ele>2693.20</ele>
	<time>2023-08-07T12:21:08.000Z</time>
</trkpt>
<trkpt lat="46.1263120" lon="10.4773060">
	<ele>2693.20</ele>
	<time>2023-08-07T12:21:09.000Z</time>
</trkpt>
<trkpt lat="46.1263130" lon="10.4773060">
	<ele>2693.20</ele>
	<time>2023-08-07T12:21:10.000Z</time>
</trkpt>
<trkpt lat="46.1263150" lon="10.4773020">
	<ele>2693.00</ele>
	<time>2023-08-07T12:21:11.000Z</time>
</trkpt>
<trkpt lat="46.1263180" lon="10.4773000">
	<ele>2693.00</ele>
	<time>2023-08-07T12:21:12.000Z</time>
</trkpt>
<trkpt lat="46.1263180" lon="10.4772990">
	<ele>2692.80</ele>
	<time>2023-08-07T12:21:13.000Z</time>
</trkpt>
<trkpt lat="46.1263210" lon="10.4772970">
	<ele>2692.80</ele>
	<time>2023-08-07T12:21:14.000Z</time>
</trkpt>
<trkpt lat="46.1263280" lon="10.4772960">
	<ele>2692.60</ele>
	<time>2023-08-07T12:21:15.000Z</time>
</trkpt>
<trkpt lat="46.1263330" lon="10.4772940">
	<ele>2692.60</ele>
	<time>2023-08-07T12:21:16.000Z</time>
</trkpt>
<trkpt lat="46.1263360" lon="10.4772940">
	<ele>2692.40</ele>
	<time>2023-08-07T12:21:17.000Z</time>
</trkpt>
<trkpt lat="46.1263380" lon="10.4772920">
	<ele>2692.40</ele>
	<time>2023-08-07T12:21:18.000Z</time>
</trkpt>
<trkpt lat="46.1263400" lon="10.4772920">
	<ele>2692.40</ele>
	<time>2023-08-07T12:21:19.000Z</time>
</trkpt>
<trkpt lat="46.1263410" lon="10.4772870">
	<ele>2692.20</ele>
	<time>2023-08-07T12:21:20.000Z</time>
</trkpt>
<trkpt lat="46.1263440" lon="10.4772850">
	<ele>2692.00</ele>
	<time>2023-08-07T12:21:21.000Z</time>
</trkpt>
<trkpt lat="46.1263480" lon="10.4772790">
	<ele>2692.00</ele>
	<time>2023-08-07T12:21:22.000Z</time>
</trkpt>
<trkpt lat="46.1263510" lon="10.4772780">
	<ele>2691.60</ele>
	<time>2023-08-07T12:21:23.000Z</time>
</trkpt>
<trkpt lat="46.1263530" lon="10.4772680">
	<ele>2691.40</ele>
	<time>2023-08-07T12:21:24.000Z</time>
</trkpt>
<trkpt lat="46.1263540" lon="10.4772630">
	<ele>2691.20</ele>
	<time>2023-08-07T12:21:25.000Z</time>
</trkpt>
<trkpt lat="46.1263600" lon="10.4772500">
	<ele>2691.20</ele>
	<time>2023-08-07T12:21:26.000Z</time>
</trkpt>
<trkpt lat="46.1263660" lon="10.4772380">
	<ele>2691.00</ele>
	<time>2023-08-07T12:21:27.000Z</time>
</trkpt>
<trkpt lat="46.1263710" lon="10.4772250">
	<ele>2691.00</ele>
	<time>2023-08-07T12:21:28.000Z</time>
</trkpt>
<trkpt lat="46.1263750" lon="10.4772190">
	<ele>2690.80</ele>
	<time>2023-08-07T12:21:29.000Z</time>
</trkpt>
<trkpt lat="46.1263840" lon="10.4772170">
	<ele>2690.80</ele>
	<time>2023-08-07T12:21:30.000Z</time>
</trkpt>
<trkpt lat="46.1263880" lon="10.4772150">
	<ele>2690.80</ele>
	<time>2023-08-07T12:21:31.000Z</time>
</trkpt>
<trkpt lat="46.1263910" lon="10.4772120">
	<ele>2691.00</ele>
	<time>2023-08-07T12:21:32.000Z</time>
</trkpt>
<trkpt lat="46.1263930" lon="10.4772070">
	<ele>2691.00</ele>
	<time>2023-08-07T12:21:33.000Z</time>
</trkpt>
<trkpt lat="46.1263970" lon="10.4772030">
	<ele>2691.20</ele>
	<time>2023-08-07T12:21:34.000Z</time>
</trkpt>
<trkpt lat="46.1264010" lon="10.4771990">
	<ele>2691.20</ele>
	<time>2023-08-07T12:21:35.000Z</time>
</trkpt>
<trkpt lat="46.1264030" lon="10.4771960">
	<ele>2691.40</ele>
	<time>2023-08-07T12:21:36.000Z</time>
</trkpt>
<trkpt lat="46.1264110" lon="10.4771950">
	<ele>2691.40</ele>
	<time>2023-08-07T12:21:37.000Z</time>
</trkpt>
<trkpt lat="46.1264130" lon="10.4771920">
	<ele>2691.20</ele>
	<time>2023-08-07T12:21:38.000Z</time>
</trkpt>
<trkpt lat="46.1264140" lon="10.4771900">
	<ele>2690.80</ele>
	<time>2023-08-07T12:21:39.000Z</time>
</trkpt>
<trkpt lat="46.1264150" lon="10.4771870">
	<ele>2690.60</ele>
	<time>2023-08-07T12:21:40.000Z</time>
</trkpt>
<trkpt lat="46.1264150" lon="10.4771860">
	<ele>2690.00</ele>
	<time>2023-08-07T12:21:41.000Z</time>
</trkpt>
<trkpt lat="46.1264200" lon="10.4771850">
	<ele>2689.80</ele>
	<time>2023-08-07T12:21:42.000Z</time>
</trkpt>
<trkpt lat="46.1264240" lon="10.4771850">
	<ele>2689.40</ele>
	<time>2023-08-07T12:21:43.000Z</time>
</trkpt>
<trkpt lat="46.1264260" lon="10.4771820">
	<ele>2688.80</ele>
	<time>2023-08-07T12:21:44.000Z</time>
</trkpt>
<trkpt lat="46.1264270" lon="10.4771810">
	<ele>2688.40</ele>
	<time>2023-08-07T12:21:45.000Z</time>
</trkpt>
<trkpt lat="46.1264280" lon="10.4771800">
	<ele>2688.20</ele>
	<time>2023-08-07T12:21:46.000Z</time>
</trkpt>
<trkpt lat="46.1264300" lon="10.4771790">
	<ele>2688.00</ele>
	<time>2023-08-07T12:21:47.000Z</time>
</trkpt>
<trkpt lat="46.1264320" lon="10.4771780">
	<ele>2688.00</ele>
	<time>2023-08-07T12:21:48.000Z</time>
</trkpt>
<trkpt lat="46.1264330" lon="10.4771710">
	<ele>2688.00</ele>
	<time>2023-08-07T12:21:49.000Z</time>
</trkpt>
<trkpt lat="46.1264340" lon="10.4771680">
	<ele>2688.00</ele>
	<time>2023-08-07T12:21:50.000Z</time>
</trkpt>
<trkpt lat="46.1264340" lon="10.4771620">
	<ele>2687.80</ele>
	<time>2023-08-07T12:21:51.000Z</time>
</trkpt>
<trkpt lat="46.1264350" lon="10.4771580">
	<ele>2687.80</ele>
	<time>2023-08-07T12:21:52.000Z</time>
</trkpt>
<trkpt lat="46.1264350" lon="10.4771540">
	<ele>2687.80</ele>
	<time>2023-08-07T12:21:53.000Z</time>
</trkpt>
<trkpt lat="46.1264350" lon="10.4771490">
	<ele>2687.80</ele>
	<time>2023-08-07T12:21:54.000Z</time>
</trkpt>
<trkpt lat="46.1264360" lon="10.4771380">
	<ele>2687.60</ele>
	<time>2023-08-07T12:21:55.000Z</time>
</trkpt>
<trkpt lat="46.1264360" lon="10.4771310">
	<ele>2687.40</ele>
	<time>2023-08-07T12:21:56.000Z</time>
</trkpt>
<trkpt lat="46.1264370" lon="10.4771220">
	<ele>2687.20</ele>
	<time>2023-08-07T12:21:57.000Z</time>
</trkpt>
<trkpt lat="46.1264320" lon="10.4771010">
	<ele>2687.00</ele>
	<time>2023-08-07T12:21:58.000Z</time>
</trkpt>
<trkpt lat="46.1264290" lon="10.4770780">
	<ele>2686.60</ele>
	<time>2023-08-07T12:21:59.000Z</time>
</trkpt>
<trkpt lat="46.1264310" lon="10.4770620">
	<ele>2686.40</ele>
	<time>2023-08-07T12:22:00.000Z</time>
</trkpt>
<trkpt lat="46.1264340" lon="10.4770520">
	<ele>2686.20</ele>
	<time>2023-08-07T12:22:01.000Z</time>
</trkpt>
<trkpt lat="46.1264380" lon="10.4770430">
	<ele>2686.20</ele>
	<time>2023-08-07T12:22:02.000Z</time>
</trkpt>
<trkpt lat="46.1264430" lon="10.4770310">
	<ele>2686.00</ele>
	<time>2023-08-07T12:22:03.000Z</time>
</trkpt>
<trkpt lat="46.1264480" lon="10.4770180">
	<ele>2686.00</ele>
	<time>2023-08-07T12:22:04.000Z</time>
</trkpt>
<trkpt lat="46.1264490" lon="10.4770050">
	<ele>2685.80</ele>
	<time>2023-08-07T12:22:05.000Z</time>
</trkpt>
<trkpt lat="46.1264560" lon="10.4769970">
	<ele>2685.60</ele>
	<time>2023-08-07T12:22:06.000Z</time>
</trkpt>
<trkpt lat="46.1264590" lon="10.4769930">
	<ele>2685.40</ele>
	<time>2023-08-07T12:22:07.000Z</time>
</trkpt>
<trkpt lat="46.1264620" lon="10.4769870">
	<ele>2685.40</ele>
	<time>2023-08-07T12:22:08.000Z</time>
</trkpt>
<trkpt lat="46.1264640" lon="10.4769820">
	<ele>2685.20</ele>
	<time>2023-08-07T12:22:09.000Z</time>
</trkpt>
<trkpt lat="46.1264680" lon="10.4769890">
	<ele>2685.20</ele>
	<time>2023-08-07T12:22:10.000Z</time>
</trkpt>
<trkpt lat="46.1264760" lon="10.4769980">
	<ele>2685.00</ele>
	<time>2023-08-07T12:22:11.000Z</time>
</trkpt>
<trkpt lat="46.1264850" lon="10.4769880">
	<ele>2685.00</ele>
	<time>2023-08-07T12:22:12.000Z</time>
</trkpt>
<trkpt lat="46.1264950" lon="10.4769780">
	<ele>2685.00</ele>
	<time>2023-08-07T12:22:13.000Z</time>
</trkpt>
<trkpt lat="46.1264980" lon="10.4769680">
	<ele>2684.60</ele>
	<time>2023-08-07T12:22:14.000Z</time>
</trkpt>
<trkpt lat="46.1265020" lon="10.4769700">
	<ele>2684.20</ele>
	<time>2023-08-07T12:22:15.000Z</time>
</trkpt>
<trkpt lat="46.1264970" lon="10.4769760">
	<ele>2684.20</ele>
	<time>2023-08-07T12:22:16.000Z</time>
</trkpt>
<trkpt lat="46.1264970" lon="10.4769710">
	<ele>2684.00</ele>
	<time>2023-08-07T12:22:17.000Z</time>
</trkpt>
<trkpt lat="46.1264950" lon="10.4769790">
	<ele>2684.00</ele>
	<time>2023-08-07T12:22:18.000Z</time>
</trkpt>
<trkpt lat="46.1264900" lon="10.4769700">
	<ele>2683.80</ele>
	<time>2023-08-07T12:22:19.000Z</time>
</trkpt>
<trkpt lat="46.1264900" lon="10.4769640">
	<ele>2683.80</ele>
	<time>2023-08-07T12:22:20.000Z</time>
</trkpt>
<trkpt lat="46.1264900" lon="10.4769610">
	<ele>2683.80</ele>
	<time>2023-08-07T12:22:21.000Z</time>
</trkpt>
<trkpt lat="46.1264860" lon="10.4769570">
	<ele>2683.80</ele>
	<time>2023-08-07T12:22:22.000Z</time>
</trkpt>
<trkpt lat="46.1264870" lon="10.4769510">
	<ele>2683.60</ele>
	<time>2023-08-07T12:22:23.000Z</time>
</trkpt>
<trkpt lat="46.1264860" lon="10.4769470">
	<ele>2683.40</ele>
	<time>2023-08-07T12:22:24.000Z</time>
</trkpt>
<trkpt lat="46.1264770" lon="10.4769490">
	<ele>2683.40</ele>
	<time>2023-08-07T12:22:25.000Z</time>
</trkpt>
<trkpt lat="46.1264750" lon="10.4769470">
	<ele>2683.20</ele>
	<time>2023-08-07T12:22:26.000Z</time>
</trkpt>
<trkpt lat="46.1264780" lon="10.4769570">
	<ele>2683.20</ele>
	<time>2023-08-07T12:22:27.000Z</time>
</trkpt>
<trkpt lat="46.1264780" lon="10.4769580">
	<ele>2683.20</ele>
	<time>2023-08-07T12:22:28.000Z</time>
</trkpt>
<trkpt lat="46.1264770" lon="10.4769620">
	<ele>2683.20</ele>
	<time>2023-08-07T12:22:29.000Z</time>
</trkpt>
<trkpt lat="46.1264770" lon="10.4769700">
	<ele>2683.00</ele>
	<time>2023-08-07T12:22:30.000Z</time>
</trkpt>
<trkpt lat="46.1264780" lon="10.4769730">
	<ele>2683.00</ele>
	<time>2023-08-07T12:22:31.000Z</time>
</trkpt>
<trkpt lat="46.1264770" lon="10.4769730">
	<ele>2683.00</ele>
	<time>2023-08-07T12:22:32.000Z</time>
</trkpt>
<trkpt lat="46.1264780" lon="10.4769660">
	<ele>2682.80</ele>
	<time>2023-08-07T12:22:33.000Z</time>
</trkpt>
<trkpt lat="46.1264760" lon="10.4769610">
	<ele>2682.80</ele>
	<time>2023-08-07T12:22:34.000Z</time>
</trkpt>
<trkpt lat="46.1264760" lon="10.4769580">
	<ele>2682.60</ele>
	<time>2023-08-07T12:22:35.000Z</time>
</trkpt>
<trkpt lat="46.1264780" lon="10.4769550">
	<ele>2682.60</ele>
	<time>2023-08-07T12:22:36.000Z</time>
</trkpt>
<trkpt lat="46.1264790" lon="10.4769510">
	<ele>2682.40</ele>
	<time>2023-08-07T12:22:37.000Z</time>
</trkpt>
<trkpt lat="46.1264770" lon="10.4769460">
	<ele>2682.40</ele>
	<time>2023-08-07T12:22:38.000Z</time>
</trkpt>
<trkpt lat="46.1264770" lon="10.4769490">
	<ele>2682.40</ele>
	<time>2023-08-07T12:22:39.000Z</time>
</trkpt>
<trkpt lat="46.1264750" lon="10.4769390">
	<ele>2682.20</ele>
	<time>2023-08-07T12:22:40.000Z</time>
</trkpt>
<trkpt lat="46.1264700" lon="10.4769300">
	<ele>2682.00</ele>
	<time>2023-08-07T12:22:41.000Z</time>
</trkpt>
<trkpt lat="46.1264650" lon="10.4769180">
	<ele>2682.00</ele>
	<time>2023-08-07T12:22:42.000Z</time>
</trkpt>
<trkpt lat="46.1264620" lon="10.4769120">
	<ele>2681.80</ele>
	<time>2023-08-07T12:22:43.000Z</time>
</trkpt>
<trkpt lat="46.1264570" lon="10.4769050">
	<ele>2681.60</ele>
	<time>2023-08-07T12:22:44.000Z</time>
</trkpt>
<trkpt lat="46.1264560" lon="10.4769060">
	<ele>2681.60</ele>
	<time>2023-08-07T12:22:45.000Z</time>
</trkpt>
<trkpt lat="46.1264550" lon="10.4768990">
	<ele>2681.40</ele>
	<time>2023-08-07T12:22:46.000Z</time>
</trkpt>
<trkpt lat="46.1264540" lon="10.4768950">
	<ele>2681.20</ele>
	<time>2023-08-07T12:22:47.000Z</time>
</trkpt>
<trkpt lat="46.1264430" lon="10.4768930">
	<ele>2681.00</ele>
	<time>2023-08-07T12:22:48.000Z</time>
</trkpt>
<trkpt lat="46.1264380" lon="10.4768910">
	<ele>2680.80</ele>
	<time>2023-08-07T12:22:49.000Z</time>
</trkpt>
<trkpt lat="46.1264320" lon="10.4768960">
	<ele>2680.80</ele>
	<time>2023-08-07T12:22:50.000Z</time>
</trkpt>
<trkpt lat="46.1264320" lon="10.4768940">
	<ele>2680.60</ele>
	<time>2023-08-07T12:22:51.000Z</time>
</trkpt>
<trkpt lat="46.1264300" lon="10.4768920">
	<ele>2680.40</ele>
	<time>2023-08-07T12:22:52.000Z</time>
</trkpt>
<trkpt lat="46.1264280" lon="10.4768880">
	<ele>2680.20</ele>
	<time>2023-08-07T12:22:53.000Z</time>
</trkpt>
<trkpt lat="46.1264250" lon="10.4768890">
	<ele>2680.00</ele>
	<time>2023-08-07T12:22:54.000Z</time>
</trkpt>
<trkpt lat="46.1264230" lon="10.4768910">
	<ele>2679.80</ele>
	<time>2023-08-07T12:22:55.000Z</time>
</trkpt>
<trkpt lat="46.1264220" lon="10.4768840">
	<ele>2679.80</ele>
	<time>2023-08-07T12:22:56.000Z</time>
</trkpt>
<trkpt lat="46.1264230" lon="10.4768810">
	<ele>2679.60</ele>
	<time>2023-08-07T12:22:57.000Z</time>
</trkpt>
<trkpt lat="46.1264210" lon="10.4768800">
	<ele>2679.40</ele>
	<time>2023-08-07T12:22:58.000Z</time>
</trkpt>
<trkpt lat="46.1264200" lon="10.4768760">
	<ele>2679.20</ele>
	<time>2023-08-07T12:22:59.000Z</time>
</trkpt>
<trkpt lat="46.1264150" lon="10.4768680">
	<ele>2679.00</ele>
	<time>2023-08-07T12:23:00.000Z</time>
</trkpt>
<trkpt lat="46.1264100" lon="10.4768640">
	<ele>2679.00</ele>
	<time>2023-08-07T12:23:01.000Z</time>
</trkpt>
<trkpt lat="46.1264160" lon="10.4768640">
	<ele>2678.80</ele>
	<time>2023-08-07T12:23:02.000Z</time>
</trkpt>
<trkpt lat="46.1264170" lon="10.4768620">
	<ele>2678.80</ele>
	<time>2023-08-07T12:23:03.000Z</time>
</trkpt>
<trkpt lat="46.1264170" lon="10.4768620">
	<ele>2678.40</ele>
	<time>2023-08-07T12:23:04.000Z</time>
</trkpt>
<trkpt lat="46.1264160" lon="10.4768620">
	<ele>2678.20</ele>
	<time>2023-08-07T12:23:05.000Z</time>
</trkpt>
<trkpt lat="46.1264170" lon="10.4768600">
	<ele>2678.00</ele>
	<time>2023-08-07T12:23:06.000Z</time>
</trkpt>
<trkpt lat="46.1264180" lon="10.4768520">
	<ele>2677.80</ele>
	<time>2023-08-07T12:23:07.000Z</time>
</trkpt>
<trkpt lat="46.1264190" lon="10.4768420">
	<ele>2677.60</ele>
	<time>2023-08-07T12:23:08.000Z</time>
</trkpt>
<trkpt lat="46.1264250" lon="10.4768300">
	<ele>2677.60</ele>
	<time>2023-08-07T12:23:09.000Z</time>
</trkpt>
<trkpt lat="46.1264300" lon="10.4768250">
	<ele>2677.60</ele>
	<time>2023-08-07T12:23:10.000Z</time>
</trkpt>
<trkpt lat="46.1264330" lon="10.4768200">
	<ele>2677.40</ele>
	<time>2023-08-07T12:23:11.000Z</time>
</trkpt>
<trkpt lat="46.1264360" lon="10.4768180">
	<ele>2677.40</ele>
	<time>2023-08-07T12:23:12.000Z</time>
</trkpt>
<trkpt lat="46.1264360" lon="10.4768060">
	<ele>2677.40</ele>
	<time>2023-08-07T12:23:13.000Z</time>
</trkpt>
<trkpt lat="46.1264400" lon="10.4768030">
	<ele>2677.20</ele>
	<time>2023-08-07T12:23:14.000Z</time>
</trkpt>
<trkpt lat="46.1264440" lon="10.4767990">
	<ele>2677.20</ele>
	<time>2023-08-07T12:23:15.000Z</time>
</trkpt>
<trkpt lat="46.1264470" lon="10.4767960">
	<ele>2677.00</ele>
	<time>2023-08-07T12:23:16.000Z</time>
</trkpt>
<trkpt lat="46.1264530" lon="10.4767850">
	<ele>2677.00</ele>
	<time>2023-08-07T12:23:17.000Z</time>
</trkpt>
<trkpt lat="46.1264600" lon="10.4767910">
	<ele>2676.80</ele>
	<time>2023-08-07T12:23:18.000Z</time>
</trkpt>
<trkpt lat="46.1264710" lon="10.4768000">
	<ele>2676.60</ele>
	<time>2023-08-07T12:23:19.000Z</time>
</trkpt>
<trkpt lat="46.1264790" lon="10.4768080">
	<ele>2676.40</ele>
	<time>2023-08-07T12:23:20.000Z</time>
</trkpt>
<trkpt lat="46.1264840" lon="10.4768050">
	<ele>2676.20</ele>
	<time>2023-08-07T12:23:21.000Z</time>
</trkpt>
<trkpt lat="46.1264870" lon="10.4768040">
	<ele>2676.20</ele>
	<time>2023-08-07T12:23:22.000Z</time>
</trkpt>
<trkpt lat="46.1264890" lon="10.4768060">
	<ele>2676.00</ele>
	<time>2023-08-07T12:23:23.000Z</time>
</trkpt>
<trkpt lat="46.1264940" lon="10.4768170">
	<ele>2676.00</ele>
	<time>2023-08-07T12:23:24.000Z</time>
</trkpt>
<trkpt lat="46.1264950" lon="10.4768200">
	<ele>2676.00</ele>
	<time>2023-08-07T12:23:25.000Z</time>
</trkpt>
<trkpt lat="46.1264970" lon="10.4768170">
	<ele>2676.00</ele>
	<time>2023-08-07T12:23:26.000Z</time>
</trkpt>
<trkpt lat="46.1265020" lon="10.4768160">
	<ele>2676.00</ele>
	<time>2023-08-07T12:23:27.000Z</time>
</trkpt>
<trkpt lat="46.1265050" lon="10.4768130">
	<ele>2676.00</ele>
	<time>2023-08-07T12:23:28.000Z</time>
</trkpt>
<trkpt lat="46.1265060" lon="10.4768110">
	<ele>2676.00</ele>
	<time>2023-08-07T12:23:29.000Z</time>
</trkpt>
<trkpt lat="46.1265050" lon="10.4768090">
	<ele>2676.00</ele>
	<time>2023-08-07T12:23:30.000Z</time>
</trkpt>
<trkpt lat="46.1265040" lon="10.4768060">
	<ele>2675.80</ele>
	<time>2023-08-07T12:23:31.000Z</time>
</trkpt>
<trkpt lat="46.1265030" lon="10.4768030">
	<ele>2675.60</ele>
	<time>2023-08-07T12:23:32.000Z</time>
</trkpt>
<trkpt lat="46.1265020" lon="10.4767960">
	<ele>2675.60</ele>
	<time>2023-08-07T12:23:33.000Z</time>
</trkpt>
<trkpt lat="46.1264980" lon="10.4767790">
	<ele>2675.40</ele>
	<time>2023-08-07T12:23:34.000Z</time>
</trkpt>
<trkpt lat="46.1264990" lon="10.4767760">
	<ele>2675.20</ele>
	<time>2023-08-07T12:23:35.000Z</time>
</trkpt>
<trkpt lat="46.1265020" lon="10.4767760">
	<ele>2675.00</ele>
	<time>2023-08-07T12:23:36.000Z</time>
</trkpt>
<trkpt lat="46.1265030" lon="10.4767750">
	<ele>2675.00</ele>
	<time>2023-08-07T12:23:37.000Z</time>
</trkpt>
<trkpt lat="46.1265030" lon="10.4767750">
	<ele>2674.60</ele>
	<time>2023-08-07T12:23:38.000Z</time>
</trkpt>
<trkpt lat="46.1265030" lon="10.4767750">
	<ele>2674.40</ele>
	<time>2023-08-07T12:23:39.000Z</time>
</trkpt>
<trkpt lat="46.1265030" lon="10.4767750">
	<ele>2674.40</ele>
	<time>2023-08-07T12:23:40.000Z</time>
</trkpt>
<trkpt lat="46.1265030" lon="10.4767750">
	<ele>2674.20</ele>
	<time>2023-08-07T12:23:41.000Z</time>
</trkpt>
<trkpt lat="46.1265030" lon="10.4767750">
	<ele>2674.20</ele>
	<time>2023-08-07T12:23:42.000Z</time>
</trkpt>
<trkpt lat="46.1265030" lon="10.4767750">
	<ele>2674.40</ele>
	<time>2023-08-07T12:23:43.000Z</time>
</trkpt>
<trkpt lat="46.1265030" lon="10.4767750">
	<ele>2674.60</ele>
	<time>2023-08-07T12:23:44.000Z</time>
</trkpt>
<trkpt lat="46.1265030" lon="10.4767750">
	<ele>2674.80</ele>
	<time>2023-08-07T12:23:45.000Z</time>
</trkpt>
<trkpt lat="46.1265030" lon="10.4767750">
	<ele>2674.80</ele>
	<time>2023-08-07T12:23:46.000Z</time>
</trkpt>
<trkpt lat="46.1265030" lon="10.4767750">
	<ele>2675.00</ele>
	<time>2023-08-07T12:23:47.000Z</time>
</trkpt>
<trkpt lat="46.1265030" lon="10.4767760">
	<ele>2675.00</ele>
	<time>2023-08-07T12:23:48.000Z</time>
</trkpt>
<trkpt lat="46.1265030" lon="10.4767760">
	<ele>2674.80</ele>
	<time>2023-08-07T12:23:49.000Z</time>
</trkpt>
<trkpt lat="46.1265030" lon="10.4767790">
	<ele>2674.60</ele>
	<time>2023-08-07T12:23:50.000Z</time>
</trkpt>
<trkpt lat="46.1265030" lon="10.4767800">
	<ele>2674.20</ele>
	<time>2023-08-07T12:23:51.000Z</time>
</trkpt>
<trkpt lat="46.1265030" lon="10.4767800">
	<ele>2674.20</ele>
	<time>2023-08-07T12:23:52.000Z</time>
</trkpt>
<trkpt lat="46.1265030" lon="10.4767800">
	<ele>2674.00</ele>
	<time>2023-08-07T12:23:53.000Z</time>
</trkpt>
<trkpt lat="46.1265030" lon="10.4767800">
	<ele>2674.00</ele>
	<time>2023-08-07T12:23:54.000Z</time>
</trkpt>
<trkpt lat="46.1265040" lon="10.4767800">
	<ele>2674.00</ele>
	<time>2023-08-07T12:23:55.000Z</time>
</trkpt>
<trkpt lat="46.1265040" lon="10.4767800">
	<ele>2674.00</ele>
	<time>2023-08-07T12:23:56.000Z</time>
</trkpt>
<trkpt lat="46.1265040" lon="10.4767800">
	<ele>2674.00</ele>
	<time>2023-08-07T12:23:57.000Z</time>
</trkpt>
<trkpt lat="46.1265040" lon="10.4767800">
	<ele>2674.00</ele>
	<time>2023-08-07T12:23:58.000Z</time>
</trkpt>
<trkpt lat="46.1265050" lon="10.4767800">
	<ele>2674.00</ele>
	<time>2023-08-07T12:23:59.000Z</time>
</trkpt>
<trkpt lat="46.1265050" lon="10.4767790">
	<ele>2673.80</ele>
	<time>2023-08-07T12:24:00.000Z</time>
</trkpt>
<trkpt lat="46.1265050" lon="10.4767780">
	<ele>2673.80</ele>
	<time>2023-08-07T12:24:01.000Z</time>
</trkpt>
<trkpt lat="46.1265050" lon="10.4767770">
	<ele>2673.80</ele>
	<time>2023-08-07T12:24:02.000Z</time>
</trkpt>
<trkpt lat="46.1265060" lon="10.4767760">
	<ele>2673.80</ele>
	<time>2023-08-07T12:24:03.000Z</time>
</trkpt>
<trkpt lat="46.1265060" lon="10.4767760">
	<ele>2673.60</ele>
	<time>2023-08-07T12:24:04.000Z</time>
</trkpt>
<trkpt lat="46.1265060" lon="10.4767750">
	<ele>2673.40</ele>
	<time>2023-08-07T12:24:05.000Z</time>
</trkpt>
<trkpt lat="46.1265060" lon="10.4767750">
	<ele>2673.40</ele>
	<time>2023-08-07T12:24:06.000Z</time>
</trkpt>
<trkpt lat="46.1265060" lon="10.4767750">
	<ele>2673.20</ele>
	<time>2023-08-07T12:24:07.000Z</time>
</trkpt>
<trkpt lat="46.1265060" lon="10.4767740">
	<ele>2673.00</ele>
	<time>2023-08-07T12:24:08.000Z</time>
</trkpt>
<trkpt lat="46.1265060" lon="10.4767740">
	<ele>2673.00</ele>
	<time>2023-08-07T12:24:09.000Z</time>
</trkpt>
<trkpt lat="46.1265060" lon="10.4767710">
	<ele>2672.80</ele>
	<time>2023-08-07T12:24:10.000Z</time>
</trkpt>
<trkpt lat="46.1265060" lon="10.4767700">
	<ele>2672.60</ele>
	<time>2023-08-07T12:24:11.000Z</time>
</trkpt>
<trkpt lat="46.1265060" lon="10.4767670">
	<ele>2672.40</ele>
	<time>2023-08-07T12:24:12.000Z</time>
</trkpt>
<trkpt lat="46.1265060" lon="10.4767550">
	<ele>2672.40</ele>
	<time>2023-08-07T12:24:13.000Z</time>
</trkpt>
<trkpt lat="46.1265090" lon="10.4767440">
	<ele>2672.40</ele>
	<time>2023-08-07T12:24:14.000Z</time>
</trkpt>
<trkpt lat="46.1265100" lon="10.4767410">
	<ele>2672.40</ele>
	<time>2023-08-07T12:24:15.000Z</time>
</trkpt>
<trkpt lat="46.1265100" lon="10.4767400">
	<ele>2672.40</ele>
	<time>2023-08-07T12:24:16.000Z</time>
</trkpt>
<trkpt lat="46.1265110" lon="10.4767390">
	<ele>2672.40</ele>
	<time>2023-08-07T12:24:17.000Z</time>
</trkpt>
<trkpt lat="46.1265110" lon="10.4767390">
	<ele>2672.20</ele>
	<time>2023-08-07T12:24:18.000Z</time>
</trkpt>
<trkpt lat="46.1265120" lon="10.4767370">
	<ele>2672.20</ele>
	<time>2023-08-07T12:24:19.000Z</time>
</trkpt>
<trkpt lat="46.1265120" lon="10.4767360">
	<ele>2672.00</ele>
	<time>2023-08-07T12:24:20.000Z</time>
</trkpt>
<trkpt lat="46.1265130" lon="10.4767350">
	<ele>2671.80</ele>
	<time>2023-08-07T12:24:21.000Z</time>
</trkpt>
<trkpt lat="46.1265130" lon="10.4767350">
	<ele>2671.60</ele>
	<time>2023-08-07T12:24:22.000Z</time>
</trkpt>
<trkpt lat="46.1265130" lon="10.4767340">
	<ele>2671.60</ele>
	<time>2023-08-07T12:24:23.000Z</time>
</trkpt>
<trkpt lat="46.1265140" lon="10.4767340">
	<ele>2671.60</ele>
	<time>2023-08-07T12:24:24.000Z</time>
</trkpt>
<trkpt lat="46.1265170" lon="10.4767330">
	<ele>2671.40</ele>
	<time>2023-08-07T12:24:25.000Z</time>
</trkpt>
<trkpt lat="46.1265180" lon="10.4767310">
	<ele>2671.40</ele>
	<time>2023-08-07T12:24:26.000Z</time>
</trkpt>
<trkpt lat="46.1265180" lon="10.4767270">
	<ele>2671.40</ele>
	<time>2023-08-07T12:24:27.000Z</time>
</trkpt>
<trkpt lat="46.1265190" lon="10.4767240">
	<ele>2671.20</ele>
	<time>2023-08-07T12:24:28.000Z</time>
</trkpt>
<trkpt lat="46.1265190" lon="10.4767170">
	<ele>2671.00</ele>
	<time>2023-08-07T12:24:29.000Z</time>
</trkpt>
<trkpt lat="46.1265190" lon="10.4767110">
	<ele>2670.80</ele>
	<time>2023-08-07T12:24:30.000Z</time>
</trkpt>
<trkpt lat="46.1265190" lon="10.4767080">
	<ele>2670.60</ele>
	<time>2023-08-07T12:24:31.000Z</time>
</trkpt>
<trkpt lat="46.1265190" lon="10.4767080">
	<ele>2670.60</ele>
	<time>2023-08-07T12:24:32.000Z</time>
</trkpt>
<trkpt lat="46.1265200" lon="10.4767070">
	<ele>2670.40</ele>
	<time>2023-08-07T12:24:33.000Z</time>
</trkpt>
<trkpt lat="46.1265200" lon="10.4767050">
	<ele>2670.40</ele>
	<time>2023-08-07T12:24:34.000Z</time>
</trkpt>
<trkpt lat="46.1265200" lon="10.4767020">
	<ele>2670.20</ele>
	<time>2023-08-07T12:24:35.000Z</time>
</trkpt>
<trkpt lat="46.1265200" lon="10.4767010">
	<ele>2669.80</ele>
	<time>2023-08-07T12:24:36.000Z</time>
</trkpt>
<trkpt lat="46.1265210" lon="10.4767000">
	<ele>2669.60</ele>
	<time>2023-08-07T12:24:37.000Z</time>
</trkpt>
<trkpt lat="46.1265240" lon="10.4766990">
	<ele>2669.60</ele>
	<time>2023-08-07T12:24:38.000Z</time>
</trkpt>
<trkpt lat="46.1265240" lon="10.4766970">
	<ele>2669.40</ele>
	<time>2023-08-07T12:24:39.000Z</time>
</trkpt>
<trkpt lat="46.1265250" lon="10.4766850">
	<ele>2669.40</ele>
	<time>2023-08-07T12:24:40.000Z</time>
</trkpt>
<trkpt lat="46.1265250" lon="10.4766780">
	<ele>2669.40</ele>
	<time>2023-08-07T12:24:41.000Z</time>
</trkpt>
<trkpt lat="46.1265270" lon="10.4766740">
	<ele>2669.40</ele>
	<time>2023-08-07T12:24:42.000Z</time>
</trkpt>
<trkpt lat="46.1265300" lon="10.4766710">
	<ele>2669.40</ele>
	<time>2023-08-07T12:24:43.000Z</time>
</trkpt>
<trkpt lat="46.1265310" lon="10.4766700">
	<ele>2669.40</ele>
	<time>2023-08-07T12:24:44.000Z</time>
</trkpt>
<trkpt lat="46.1265310" lon="10.4766690">
	<ele>2669.20</ele>
	<time>2023-08-07T12:24:45.000Z</time>
</trkpt>
<trkpt lat="46.1265310" lon="10.4766690">
	<ele>2669.20</ele>
	<time>2023-08-07T12:24:46.000Z</time>
</trkpt>
<trkpt lat="46.1265310" lon="10.4766690">
	<ele>2669.20</ele>
	<time>2023-08-07T12:24:47.000Z</time>
</trkpt>
<trkpt lat="46.1265310" lon="10.4766660">
	<ele>2668.60</ele>
	<time>2023-08-07T12:24:48.000Z</time>
</trkpt>
<trkpt lat="46.1265310" lon="10.4766630">
	<ele>2668.20</ele>
	<time>2023-08-07T12:24:49.000Z</time>
</trkpt>
<trkpt lat="46.1265310" lon="10.4766620">
	<ele>2668.20</ele>
	<time>2023-08-07T12:24:50.000Z</time>
</trkpt>
<trkpt lat="46.1265310" lon="10.4766570">
	<ele>2668.00</ele>
	<time>2023-08-07T12:24:51.000Z</time>
</trkpt>
<trkpt lat="46.1265310" lon="10.4766520">
	<ele>2667.80</ele>
	<time>2023-08-07T12:24:52.000Z</time>
</trkpt>
<trkpt lat="46.1265310" lon="10.4766480">
	<ele>2667.80</ele>
	<time>2023-08-07T12:24:53.000Z</time>
</trkpt>
<trkpt lat="46.1265310" lon="10.4766450">
	<ele>2667.40</ele>
	<time>2023-08-07T12:24:54.000Z</time>
</trkpt>
<trkpt lat="46.1265310" lon="10.4766410">
	<ele>2667.20</ele>
	<time>2023-08-07T12:24:55.000Z</time>
</trkpt>
<trkpt lat="46.1265310" lon="10.4766380">
	<ele>2667.00</ele>
	<time>2023-08-07T12:24:56.000Z</time>
</trkpt>
<trkpt lat="46.1265310" lon="10.4766360">
	<ele>2666.80</ele>
	<time>2023-08-07T12:24:57.000Z</time>
</trkpt>
<trkpt lat="46.1265300" lon="10.4766350">
	<ele>2666.60</ele>
	<time>2023-08-07T12:24:58.000Z</time>
</trkpt>
<trkpt lat="46.1265280" lon="10.4766320">
	<ele>2666.60</ele>
	<time>2023-08-07T12:24:59.000Z</time>
</trkpt>
<trkpt lat="46.1265250" lon="10.4766290">
	<ele>2666.40</ele>
	<time>2023-08-07T12:25:00.000Z</time>
</trkpt>
<trkpt lat="46.1265240" lon="10.4766270">
	<ele>2666.20</ele>
	<time>2023-08-07T12:25:01.000Z</time>
</trkpt>
<trkpt lat="46.1265240" lon="10.4766260">
	<ele>2666.00</ele>
	<time>2023-08-07T12:25:02.000Z</time>
</trkpt>
<trkpt lat="46.1265240" lon="10.4766240">
	<ele>2665.80</ele>
	<time>2023-08-07T12:25:03.000Z</time>
</trkpt>
<trkpt lat="46.1265230" lon="10.4766240">
	<ele>2665.60</ele>
	<time>2023-08-07T12:25:04.000Z</time>
</trkpt>
<trkpt lat="46.1265230" lon="10.4766230">
	<ele>2665.40</ele>
	<time>2023-08-07T12:25:05.000Z</time>
</trkpt>
<trkpt lat="46.1265230" lon="10.4766220">
	<ele>2665.20</ele>
	<time>2023-08-07T12:25:06.000Z</time>
</trkpt>
<trkpt lat="46.1265230" lon="10.4766190">
	<ele>2665.20</ele>
	<time>2023-08-07T12:25:07.000Z</time>
</trkpt>
<trkpt lat="46.1265230" lon="10.4766170">
	<ele>2665.00</ele>
	<time>2023-08-07T12:25:08.000Z</time>
</trkpt>
<trkpt lat="46.1265230" lon="10.4766160">
	<ele>2665.00</ele>
	<time>2023-08-07T12:25:09.000Z</time>
</trkpt>
<trkpt lat="46.1265230" lon="10.4766150">
	<ele>2665.00</ele>
	<time>2023-08-07T12:25:10.000Z</time>
</trkpt>
<trkpt lat="46.1265230" lon="10.4766140">
	<ele>2665.00</ele>
	<time>2023-08-07T12:25:11.000Z</time>
</trkpt>
<trkpt lat="46.1265230" lon="10.4766130">
	<ele>2665.00</ele>
	<time>2023-08-07T12:25:12.000Z</time>
</trkpt>
<trkpt lat="46.1265230" lon="10.4766120">
	<ele>2665.00</ele>
	<time>2023-08-07T12:25:13.000Z</time>
</trkpt>
<trkpt lat="46.1265230" lon="10.4766120">
	<ele>2664.80</ele>
	<time>2023-08-07T12:25:14.000Z</time>
</trkpt>
<trkpt lat="46.1265230" lon="10.4766120">
	<ele>2664.80</ele>
	<time>2023-08-07T12:25:15.000Z</time>
</trkpt>
<trkpt lat="46.1265240" lon="10.4766110">
	<ele>2664.80</ele>
	<time>2023-08-07T12:25:16.000Z</time>
</trkpt>
<trkpt lat="46.1265260" lon="10.4766100">
	<ele>2664.60</ele>
	<time>2023-08-07T12:25:17.000Z</time>
</trkpt>
<trkpt lat="46.1265270" lon="10.4766050">
	<ele>2664.40</ele>
	<time>2023-08-07T12:25:18.000Z</time>
</trkpt>
<trkpt lat="46.1265280" lon="10.4766010">
	<ele>2664.20</ele>
	<time>2023-08-07T12:25:19.000Z</time>
</trkpt>
<trkpt lat="46.1265290" lon="10.4765970">
	<ele>2664.00</ele>
	<time>2023-08-07T12:25:20.000Z</time>
</trkpt>
<trkpt lat="46.1265290" lon="10.4765930">
	<ele>2663.60</ele>
	<time>2023-08-07T12:25:21.000Z</time>
</trkpt>
<trkpt lat="46.1265290" lon="10.4765890">
	<ele>2663.40</ele>
	<time>2023-08-07T12:25:22.000Z</time>
</trkpt>
<trkpt lat="46.1265300" lon="10.4765850">
	<ele>2663.20</ele>
	<time>2023-08-07T12:25:23.000Z</time>
</trkpt>
<trkpt lat="46.1265300" lon="10.4765820">
	<ele>2663.00</ele>
	<time>2023-08-07T12:25:24.000Z</time>
</trkpt>
<trkpt lat="46.1265300" lon="10.4765810">
	<ele>2662.80</ele>
	<time>2023-08-07T12:25:25.000Z</time>
</trkpt>
<trkpt lat="46.1265310" lon="10.4765800">
	<ele>2662.60</ele>
	<time>2023-08-07T12:25:26.000Z</time>
</trkpt>
<trkpt lat="46.1265320" lon="10.4765790">
	<ele>2662.40</ele>
	<time>2023-08-07T12:25:27.000Z</time>
</trkpt>
<trkpt lat="46.1265330" lon="10.4765790">
	<ele>2662.20</ele>
	<time>2023-08-07T12:25:28.000Z</time>
</trkpt>
<trkpt lat="46.1265340" lon="10.4765780">
	<ele>2662.20</ele>
	<time>2023-08-07T12:25:29.000Z</time>
</trkpt>
<trkpt lat="46.1265350" lon="10.4765770">
	<ele>2662.00</ele>
	<time>2023-08-07T12:25:30.000Z</time>
</trkpt>
<trkpt lat="46.1265360" lon="10.4765760">
	<ele>2662.00</ele>
	<time>2023-08-07T12:25:31.000Z</time>
</trkpt>
<trkpt lat="46.1265360" lon="10.4765760">
	<ele>2662.20</ele>
	<time>2023-08-07T12:25:32.000Z</time>
</trkpt>
<trkpt lat="46.1265370" lon="10.4765750">
	<ele>2662.20</ele>
	<time>2023-08-07T12:25:33.000Z</time>
</trkpt>
<trkpt lat="46.1265370" lon="10.4765740">
	<ele>2662.20</ele>
	<time>2023-08-07T12:25:34.000Z</time>
</trkpt>
<trkpt lat="46.1265370" lon="10.4765730">
	<ele>2662.20</ele>
	<time>2023-08-07T12:25:35.000Z</time>
</trkpt>
<trkpt lat="46.1265380" lon="10.4765720">
	<ele>2662.20</ele>
	<time>2023-08-07T12:25:36.000Z</time>
</trkpt>
<trkpt lat="46.1265390" lon="10.4765710">
	<ele>2662.20</ele>
	<time>2023-08-07T12:25:37.000Z</time>
</trkpt>
<trkpt lat="46.1265420" lon="10.4765700">
	<ele>2662.20</ele>
	<time>2023-08-07T12:25:38.000Z</time>
</trkpt>
<trkpt lat="46.1265430" lon="10.4765680">
	<ele>2662.00</ele>
	<time>2023-08-07T12:25:39.000Z</time>
</trkpt>
<trkpt lat="46.1265460" lon="10.4765670">
	<ele>2661.80</ele>
	<time>2023-08-07T12:25:40.000Z</time>
</trkpt>
<trkpt lat="46.1265490" lon="10.4765660">
	<ele>2661.40</ele>
	<time>2023-08-07T12:25:41.000Z</time>
</trkpt>
<trkpt lat="46.1265520" lon="10.4765640">
	<ele>2660.80</ele>
	<time>2023-08-07T12:25:42.000Z</time>
</trkpt>
<trkpt lat="46.1265540" lon="10.4765630">
	<ele>2660.60</ele>
	<time>2023-08-07T12:25:43.000Z</time>
</trkpt>
<trkpt lat="46.1265550" lon="10.4765600">
	<ele>2660.40</ele>
	<time>2023-08-07T12:25:44.000Z</time>
</trkpt>
<trkpt lat="46.1265560" lon="10.4765570">
	<ele>2660.40</ele>
	<time>2023-08-07T12:25:45.000Z</time>
</trkpt>
<trkpt lat="46.1265560" lon="10.4765490">
	<ele>2660.40</ele>
	<time>2023-08-07T12:25:46.000Z</time>
</trkpt>
<trkpt lat="46.1265560" lon="10.4765410">
	<ele>2660.40</ele>
	<time>2023-08-07T12:25:47.000Z</time>
</trkpt>
<trkpt lat="46.1265560" lon="10.4765350">
	<ele>2660.40</ele>
	<time>2023-08-07T12:25:48.000Z</time>
</trkpt>
<trkpt lat="46.1265570" lon="10.4765300">
	<ele>2660.40</ele>
	<time>2023-08-07T12:25:49.000Z</time>
</trkpt>
<trkpt lat="46.1265570" lon="10.4765260">
	<ele>2660.20</ele>
	<time>2023-08-07T12:25:50.000Z</time>
</trkpt>
<trkpt lat="46.1265570" lon="10.4765230">
	<ele>2659.80</ele>
	<time>2023-08-07T12:25:51.000Z</time>
</trkpt>
<trkpt lat="46.1265570" lon="10.4765210">
	<ele>2659.40</ele>
	<time>2023-08-07T12:25:52.000Z</time>
</trkpt>
<trkpt lat="46.1265570" lon="10.4765190">
	<ele>2659.20</ele>
	<time>2023-08-07T12:25:53.000Z</time>
</trkpt>
<trkpt lat="46.1265570" lon="10.4765140">
	<ele>2658.80</ele>
	<time>2023-08-07T12:25:54.000Z</time>
</trkpt>
<trkpt lat="46.1265570" lon="10.4765090">
	<ele>2658.40</ele>
	<time>2023-08-07T12:25:55.000Z</time>
</trkpt>
<trkpt lat="46.1265570" lon="10.4765040">
	<ele>2658.20</ele>
	<time>2023-08-07T12:25:56.000Z</time>
</trkpt>
<trkpt lat="46.1265560" lon="10.4765000">
	<ele>2658.00</ele>
	<time>2023-08-07T12:25:57.000Z</time>
</trkpt>
<trkpt lat="46.1265550" lon="10.4764960">
	<ele>2657.80</ele>
	<time>2023-08-07T12:25:58.000Z</time>
</trkpt>
<trkpt lat="46.1265550" lon="10.4764930">
	<ele>2657.80</ele>
	<time>2023-08-07T12:25:59.000Z</time>
</trkpt>
<trkpt lat="46.1265550" lon="10.4764910">
	<ele>2657.60</ele>
	<time>2023-08-07T12:26:00.000Z</time>
</trkpt>
<trkpt lat="46.1265540" lon="10.4764900">
	<ele>2657.40</ele>
	<time>2023-08-07T12:26:01.000Z</time>
</trkpt>
<trkpt lat="46.1265540" lon="10.4764880">
	<ele>2657.20</ele>
	<time>2023-08-07T12:26:02.000Z</time>
</trkpt>
<trkpt lat="46.1265540" lon="10.4764880">
	<ele>2657.20</ele>
	<time>2023-08-07T12:26:03.000Z</time>
</trkpt>
<trkpt lat="46.1265540" lon="10.4764870">
	<ele>2657.00</ele>
	<time>2023-08-07T12:26:04.000Z</time>
</trkpt>
<trkpt lat="46.1265540" lon="10.4764860">
	<ele>2657.00</ele>
	<time>2023-08-07T12:26:05.000Z</time>
</trkpt>
<trkpt lat="46.1265540" lon="10.4764840">
	<ele>2656.80</ele>
	<time>2023-08-07T12:26:06.000Z</time>
</trkpt>
<trkpt lat="46.1265540" lon="10.4764820">
	<ele>2656.80</ele>
	<time>2023-08-07T12:26:07.000Z</time>
</trkpt>
<trkpt lat="46.1265540" lon="10.4764810">
	<ele>2656.80</ele>
	<time>2023-08-07T12:26:08.000Z</time>
</trkpt>
<trkpt lat="46.1265540" lon="10.4764790">
	<ele>2656.80</ele>
	<time>2023-08-07T12:26:09.000Z</time>
</trkpt>
<trkpt lat="46.1265540" lon="10.4764760">
	<ele>2656.60</ele>
	<time>2023-08-07T12:26:10.000Z</time>
</trkpt>
<trkpt lat="46.1265540" lon="10.4764730">
	<ele>2656.60</ele>
	<time>2023-08-07T12:26:11.000Z</time>
</trkpt>
<trkpt lat="46.1265540" lon="10.4764670">
	<ele>2656.40</ele>
	<time>2023-08-07T12:26:12.000Z</time>
</trkpt>
<trkpt lat="46.1265550" lon="10.4764600">
	<ele>2656.20</ele>
	<time>2023-08-07T12:26:13.000Z</time>
</trkpt>
<trkpt lat="46.1265560" lon="10.4764550">
	<ele>2656.00</ele>
	<time>2023-08-07T12:26:14.000Z</time>
</trkpt>
<trkpt lat="46.1265580" lon="10.4764490">
	<ele>2655.60</ele>
	<time>2023-08-07T12:26:15.000Z</time>
</trkpt>
<trkpt lat="46.1265600" lon="10.4764440">
	<ele>2655.40</ele>
	<time>2023-08-07T12:26:16.000Z</time>
</trkpt>
<trkpt lat="46.1265630" lon="10.4764360">
	<ele>2655.20</ele>
	<time>2023-08-07T12:26:17.000Z</time>
</trkpt>
<trkpt lat="46.1265690" lon="10.4764290">
	<ele>2655.20</ele>
	<time>2023-08-07T12:26:18.000Z</time>
</trkpt>
<trkpt lat="46.1265750" lon="10.4764230">
	<ele>2655.00</ele>
	<time>2023-08-07T12:26:19.000Z</time>
</trkpt>
<trkpt lat="46.1265810" lon="10.4764100">
	<ele>2654.80</ele>
	<time>2023-08-07T12:26:20.000Z</time>
</trkpt>
<trkpt lat="46.1265900" lon="10.4763960">
	<ele>2654.60</ele>
	<time>2023-08-07T12:26:21.000Z</time>
</trkpt>
<trkpt lat="46.1265980" lon="10.4763870">
	<ele>2654.40</ele>
	<time>2023-08-07T12:26:22.000Z</time>
</trkpt>
<trkpt lat="46.1266080" lon="10.4763730">
	<ele>2654.40</ele>
	<time>2023-08-07T12:26:23.000Z</time>
</trkpt>
<trkpt lat="46.1266140" lon="10.4763590">
	<ele>2654.20</ele>
	<time>2023-08-07T12:26:24.000Z</time>
</trkpt>
<trkpt lat="46.1266210" lon="10.4763480">
	<ele>2654.00</ele>
	<time>2023-08-07T12:26:25.000Z</time>
</trkpt>
<trkpt lat="46.1266260" lon="10.4763410">
	<ele>2654.00</ele>
	<time>2023-08-07T12:26:26.000Z</time>
</trkpt>
<trkpt lat="46.1266320" lon="10.4763360">
	<ele>2654.00</ele>
	<time>2023-08-07T12:26:27.000Z</time>
</trkpt>
<trkpt lat="46.1266360" lon="10.4763270">
	<ele>2654.00</ele>
	<time>2023-08-07T12:26:28.000Z</time>
</trkpt>
<trkpt lat="46.1266380" lon="10.4763180">
	<ele>2653.80</ele>
	<time>2023-08-07T12:26:29.000Z</time>
</trkpt>
<trkpt lat="46.1266380" lon="10.4763130">
	<ele>2653.80</ele>
	<time>2023-08-07T12:26:30.000Z</time>
</trkpt>
<trkpt lat="46.1266390" lon="10.4763110">
	<ele>2653.60</ele>
	<time>2023-08-07T12:26:31.000Z</time>
</trkpt>
<trkpt lat="46.1266340" lon="10.4763120">
	<ele>2653.60</ele>
	<time>2023-08-07T12:26:32.000Z</time>
</trkpt>
<trkpt lat="46.1266320" lon="10.4763120">
	<ele>2653.40</ele>
	<time>2023-08-07T12:26:33.000Z</time>
</trkpt>
<trkpt lat="46.1266290" lon="10.4763100">
	<ele>2653.20</ele>
	<time>2023-08-07T12:26:34.000Z</time>
</trkpt>
<trkpt lat="46.1266350" lon="10.4763190">
	<ele>2653.00</ele>
	<time>2023-08-07T12:26:35.000Z</time>
</trkpt>
<trkpt lat="46.1266460" lon="10.4763340">
	<ele>2652.80</ele>
	<time>2023-08-07T12:26:36.000Z</time>
</trkpt>
<trkpt lat="46.1266510" lon="10.4763380">
	<ele>2652.60</ele>
	<time>2023-08-07T12:26:37.000Z</time>
</trkpt>
<trkpt lat="46.1266530" lon="10.4763420">
	<ele>2652.40</ele>
	<time>2023-08-07T12:26:38.000Z</time>
</trkpt>
<trkpt lat="46.1266540" lon="10.4763420">
	<ele>2652.00</ele>
	<time>2023-08-07T12:26:39.000Z</time>
</trkpt>
<trkpt lat="46.1266560" lon="10.4763420">
	<ele>2651.80</ele>
	<time>2023-08-07T12:26:40.000Z</time>
</trkpt>
<trkpt lat="46.1266570" lon="10.4763440">
	<ele>2651.60</ele>
	<time>2023-08-07T12:26:41.000Z</time>
</trkpt>
<trkpt lat="46.1266570" lon="10.4763460">
	<ele>2651.60</ele>
	<time>2023-08-07T12:26:42.000Z</time>
</trkpt>
<trkpt lat="46.1266570" lon="10.4763460">
	<ele>2651.60</ele>
	<time>2023-08-07T12:26:43.000Z</time>
</trkpt>
<trkpt lat="46.1266570" lon="10.4763460">
	<ele>2651.60</ele>
	<time>2023-08-07T12:26:44.000Z</time>
</trkpt>
<trkpt lat="46.1266570" lon="10.4763460">
	<ele>2652.00</ele>
	<time>2023-08-07T12:26:45.000Z</time>
</trkpt>
<trkpt lat="46.1266570" lon="10.4763460">
	<ele>2652.00</ele>
	<time>2023-08-07T12:26:46.000Z</time>
</trkpt>
<trkpt lat="46.1266570" lon="10.4763460">
	<ele>2652.20</ele>
	<time>2023-08-07T12:26:47.000Z</time>
</trkpt>
<trkpt lat="46.1266570" lon="10.4763460">
	<ele>2652.20</ele>
	<time>2023-08-07T12:26:48.000Z</time>
</trkpt>
<trkpt lat="46.1266570" lon="10.4763460">
	<ele>2652.20</ele>
	<time>2023-08-07T12:26:49.000Z</time>
</trkpt>
<trkpt lat="46.1266570" lon="10.4763440">
	<ele>2652.00</ele>
	<time>2023-08-07T12:26:50.000Z</time>
</trkpt>
<trkpt lat="46.1266560" lon="10.4763440">
	<ele>2651.60</ele>
	<time>2023-08-07T12:26:51.000Z</time>
</trkpt>
<trkpt lat="46.1266550" lon="10.4763440">
	<ele>2651.40</ele>
	<time>2023-08-07T12:26:52.000Z</time>
</trkpt>
<trkpt lat="46.1266550" lon="10.4763440">
	<ele>2651.20</ele>
	<time>2023-08-07T12:26:53.000Z</time>
</trkpt>
<trkpt lat="46.1266550" lon="10.4763440">
	<ele>2651.20</ele>
	<time>2023-08-07T12:26:54.000Z</time>
</trkpt>
<trkpt lat="46.1266550" lon="10.4763440">
	<ele>2651.20</ele>
	<time>2023-08-07T12:26:55.000Z</time>
</trkpt>
<trkpt lat="46.1266550" lon="10.4763440">
	<ele>2651.00</ele>
	<time>2023-08-07T12:26:56.000Z</time>
</trkpt>
<trkpt lat="46.1266550" lon="10.4763440">
	<ele>2650.80</ele>
	<time>2023-08-07T12:26:57.000Z</time>
</trkpt>
<trkpt lat="46.1266550" lon="10.4763440">
	<ele>2650.80</ele>
	<time>2023-08-07T12:26:58.000Z</time>
</trkpt>
<trkpt lat="46.1266550" lon="10.4763440">
	<ele>2650.80</ele>
	<time>2023-08-07T12:26:59.000Z</time>
</trkpt>
<trkpt lat="46.1266550" lon="10.4763440">
	<ele>2650.60</ele>
	<time>2023-08-07T12:27:00.000Z</time>
</trkpt>
<trkpt lat="46.1266550" lon="10.4763440">
	<ele>2650.60</ele>
	<time>2023-08-07T12:27:01.000Z</time>
</trkpt>
<trkpt lat="46.1266550" lon="10.4763440">
	<ele>2650.60</ele>
	<time>2023-08-07T12:27:02.000Z</time>
</trkpt>
<trkpt lat="46.1266550" lon="10.4763440">
	<ele>2650.40</ele>
	<time>2023-08-07T12:27:03.000Z</time>
</trkpt>
<trkpt lat="46.1266560" lon="10.4763440">
	<ele>2650.40</ele>
	<time>2023-08-07T12:27:04.000Z</time>
</trkpt>
<trkpt lat="46.1266570" lon="10.4763460">
	<ele>2650.40</ele>
	<time>2023-08-07T12:27:05.000Z</time>
</trkpt>
<trkpt lat="46.1266570" lon="10.4763510">
	<ele>2650.20</ele>
	<time>2023-08-07T12:27:06.000Z</time>
</trkpt>
<trkpt lat="46.1266590" lon="10.4763570">
	<ele>2650.20</ele>
	<time>2023-08-07T12:27:07.000Z</time>
</trkpt>
<trkpt lat="46.1266600" lon="10.4763580">
	<ele>2650.20</ele>
	<time>2023-08-07T12:27:08.000Z</time>
</trkpt>
<trkpt lat="46.1266610" lon="10.4763590">
	<ele>2650.20</ele>
	<time>2023-08-07T12:27:09.000Z</time>
</trkpt>
<trkpt lat="46.1266620" lon="10.4763600">
	<ele>2650.20</ele>
	<time>2023-08-07T12:27:10.000Z</time>
</trkpt>
<trkpt lat="46.1266630" lon="10.4763610">
	<ele>2650.20</ele>
	<time>2023-08-07T12:27:11.000Z</time>
</trkpt>
<trkpt lat="46.1266650" lon="10.4763660">
	<ele>2650.00</ele>
	<time>2023-08-07T12:27:12.000Z</time>
</trkpt>
<trkpt lat="46.1266740" lon="10.4763680">
	<ele>2649.80</ele>
	<time>2023-08-07T12:27:13.000Z</time>
</trkpt>
<trkpt lat="46.1266750" lon="10.4763700">
	<ele>2649.80</ele>
	<time>2023-08-07T12:27:14.000Z</time>
</trkpt>
<trkpt lat="46.1266760" lon="10.4763700">
	<ele>2649.60</ele>
	<time>2023-08-07T12:27:15.000Z</time>
</trkpt>
<trkpt lat="46.1266760" lon="10.4763710">
	<ele>2649.40</ele>
	<time>2023-08-07T12:27:16.000Z</time>
</trkpt>
<trkpt lat="46.1266760" lon="10.4763720">
	<ele>2649.20</ele>
	<time>2023-08-07T12:27:17.000Z</time>
</trkpt>
<trkpt lat="46.1266830" lon="10.4763720">
	<ele>2649.20</ele>
	<time>2023-08-07T12:27:18.000Z</time>
</trkpt>
<trkpt lat="46.1266850" lon="10.4763720">
	<ele>2649.00</ele>
	<time>2023-08-07T12:27:19.000Z</time>
</trkpt>
<trkpt lat="46.1266930" lon="10.4763720">
	<ele>2648.80</ele>
	<time>2023-08-07T12:27:20.000Z</time>
</trkpt>
<trkpt lat="46.1266970" lon="10.4763720">
	<ele>2648.60</ele>
	<time>2023-08-07T12:27:21.000Z</time>
</trkpt>
<trkpt lat="46.1266990" lon="10.4763720">
	<ele>2648.60</ele>
	<time>2023-08-07T12:27:22.000Z</time>
</trkpt>
<trkpt lat="46.1267030" lon="10.4763720">
	<ele>2648.40</ele>
	<time>2023-08-07T12:27:23.000Z</time>
</trkpt>
<trkpt lat="46.1267040" lon="10.4763720">
	<ele>2648.40</ele>
	<time>2023-08-07T12:27:24.000Z</time>
</trkpt>
<trkpt lat="46.1267100" lon="10.4763720">
	<ele>2648.40</ele>
	<time>2023-08-07T12:27:25.000Z</time>
</trkpt>
<trkpt lat="46.1267130" lon="10.4763720">
	<ele>2648.20</ele>
	<time>2023-08-07T12:27:26.000Z</time>
</trkpt>
<trkpt lat="46.1267160" lon="10.4763720">
	<ele>2648.20</ele>
	<time>2023-08-07T12:27:27.000Z</time>
</trkpt>
<trkpt lat="46.1267180" lon="10.4763710">
	<ele>2648.20</ele>
	<time>2023-08-07T12:27:28.000Z</time>
</trkpt>
<trkpt lat="46.1267200" lon="10.4763710">
	<ele>2648.00</ele>
	<time>2023-08-07T12:27:29.000Z</time>
</trkpt>
<trkpt lat="46.1267200" lon="10.4763710">
	<ele>2647.80</ele>
	<time>2023-08-07T12:27:30.000Z</time>
</trkpt>
<trkpt lat="46.1267210" lon="10.4763710">
	<ele>2647.80</ele>
	<time>2023-08-07T12:27:31.000Z</time>
</trkpt>
<trkpt lat="46.1267210" lon="10.4763680">
	<ele>2647.60</ele>
	<time>2023-08-07T12:27:32.000Z</time>
</trkpt>
<trkpt lat="46.1267210" lon="10.4763630">
	<ele>2647.40</ele>
	<time>2023-08-07T12:27:33.000Z</time>
</trkpt>
<trkpt lat="46.1267220" lon="10.4763590">
	<ele>2647.40</ele>
	<time>2023-08-07T12:27:34.000Z</time>
</trkpt>
<trkpt lat="46.1267230" lon="10.4763570">
	<ele>2647.40</ele>
	<time>2023-08-07T12:27:35.000Z</time>
</trkpt>
<trkpt lat="46.1267270" lon="10.4763540">
	<ele>2647.20</ele>
	<time>2023-08-07T12:27:36.000Z</time>
</trkpt>
<trkpt lat="46.1267330" lon="10.4763480">
	<ele>2647.20</ele>
	<time>2023-08-07T12:27:37.000Z</time>
</trkpt>
<trkpt lat="46.1267350" lon="10.4763370">
	<ele>2647.20</ele>
	<time>2023-08-07T12:27:38.000Z</time>
</trkpt>
<trkpt lat="46.1267360" lon="10.4763310">
	<ele>2647.00</ele>
	<time>2023-08-07T12:27:39.000Z</time>
</trkpt>
<trkpt lat="46.1267370" lon="10.4763290">
	<ele>2647.00</ele>
	<time>2023-08-07T12:27:40.000Z</time>
</trkpt>
<trkpt lat="46.1267370" lon="10.4763280">
	<ele>2646.80</ele>
	<time>2023-08-07T12:27:41.000Z</time>
</trkpt>
<trkpt lat="46.1267370" lon="10.4763260">
	<ele>2646.60</ele>
	<time>2023-08-07T12:27:42.000Z</time>
</trkpt>
<trkpt lat="46.1267380" lon="10.4763260">
	<ele>2646.40</ele>
	<time>2023-08-07T12:27:43.000Z</time>
</trkpt>
<trkpt lat="46.1267380" lon="10.4763250">
	<ele>2646.40</ele>
	<time>2023-08-07T12:27:44.000Z</time>
</trkpt>
<trkpt lat="46.1267390" lon="10.4763240">
	<ele>2646.40</ele>
	<time>2023-08-07T12:27:45.000Z</time>
</trkpt>
<trkpt lat="46.1267400" lon="10.4763200">
	<ele>2646.20</ele>
	<time>2023-08-07T12:27:46.000Z</time>
</trkpt>
<trkpt lat="46.1267410" lon="10.4763160">
	<ele>2646.00</ele>
	<time>2023-08-07T12:27:47.000Z</time>
</trkpt>
<trkpt lat="46.1267420" lon="10.4763140">
	<ele>2646.00</ele>
	<time>2023-08-07T12:27:48.000Z</time>
</trkpt>
<trkpt lat="46.1267420" lon="10.4763110">
	<ele>2645.80</ele>
	<time>2023-08-07T12:27:49.000Z</time>
</trkpt>
<trkpt lat="46.1267430" lon="10.4763080">
	<ele>2645.60</ele>
	<time>2023-08-07T12:27:50.000Z</time>
</trkpt>
<trkpt lat="46.1267440" lon="10.4763070">
	<ele>2645.60</ele>
	<time>2023-08-07T12:27:51.000Z</time>
</trkpt>
<trkpt lat="46.1267460" lon="10.4763050">
	<ele>2645.40</ele>
	<time>2023-08-07T12:27:52.000Z</time>
</trkpt>
<trkpt lat="46.1267460" lon="10.4762910">
	<ele>2645.40</ele>
	<time>2023-08-07T12:27:53.000Z</time>
</trkpt>
<trkpt lat="46.1267470" lon="10.4762760">
	<ele>2645.20</ele>
	<time>2023-08-07T12:27:54.000Z</time>
</trkpt>
<trkpt lat="46.1267480" lon="10.4762680">
	<ele>2645.00</ele>
	<time>2023-08-07T12:27:55.000Z</time>
</trkpt>
<trkpt lat="46.1267480" lon="10.4762650">
	<ele>2644.80</ele>
	<time>2023-08-07T12:27:56.000Z</time>
</trkpt>
<trkpt lat="46.1267490" lon="10.4762630">
	<ele>2644.80</ele>
	<time>2023-08-07T12:27:57.000Z</time>
</trkpt>
<trkpt lat="46.1267510" lon="10.4762620">
	<ele>2644.60</ele>
	<time>2023-08-07T12:27:58.000Z</time>
</trkpt>
<trkpt lat="46.1267520" lon="10.4762610">
	<ele>2644.60</ele>
	<time>2023-08-07T12:27:59.000Z</time>
</trkpt>
<trkpt lat="46.1267530" lon="10.4762600">
	<ele>2644.40</ele>
	<time>2023-08-07T12:28:00.000Z</time>
</trkpt>
<trkpt lat="46.1267530" lon="10.4762580">
	<ele>2644.40</ele>
	<time>2023-08-07T12:28:01.000Z</time>
</trkpt>
<trkpt lat="46.1267540" lon="10.4762510">
	<ele>2644.20</ele>
	<time>2023-08-07T12:28:02.000Z</time>
</trkpt>
<trkpt lat="46.1267540" lon="10.4762460">
	<ele>2644.20</ele>
	<time>2023-08-07T12:28:03.000Z</time>
</trkpt>
<trkpt lat="46.1267550" lon="10.4762420">
	<ele>2644.20</ele>
	<time>2023-08-07T12:28:04.000Z</time>
</trkpt>
<trkpt lat="46.1267550" lon="10.4762380">
	<ele>2644.20</ele>
	<time>2023-08-07T12:28:05.000Z</time>
</trkpt>
<trkpt lat="46.1267560" lon="10.4762350">
	<ele>2644.20</ele>
	<time>2023-08-07T12:28:06.000Z</time>
</trkpt>
<trkpt lat="46.1267570" lon="10.4762270">
	<ele>2644.20</ele>
	<time>2023-08-07T12:28:07.000Z</time>
</trkpt>
<trkpt lat="46.1267590" lon="10.4762210">
	<ele>2644.20</ele>
	<time>2023-08-07T12:28:08.000Z</time>
</trkpt>
<trkpt lat="46.1267600" lon="10.4762180">
	<ele>2644.00</ele>
	<time>2023-08-07T12:28:09.000Z</time>
</trkpt>
<trkpt lat="46.1267620" lon="10.4762160">
	<ele>2644.00</ele>
	<time>2023-08-07T12:28:10.000Z</time>
</trkpt>
<trkpt lat="46.1267630" lon="10.4762150">
	<ele>2643.80</ele>
	<time>2023-08-07T12:28:11.000Z</time>
</trkpt>
<trkpt lat="46.1267660" lon="10.4762100">
	<ele>2643.60</ele>
	<time>2023-08-07T12:28:12.000Z</time>
</trkpt>
<trkpt lat="46.1267680" lon="10.4762050">
	<ele>2643.40</ele>
	<time>2023-08-07T12:28:13.000Z</time>
</trkpt>
<trkpt lat="46.1267690" lon="10.4762020">
	<ele>2643.20</ele>
	<time>2023-08-07T12:28:14.000Z</time>
</trkpt>
<trkpt lat="46.1267690" lon="10.4762000">
	<ele>2643.00</ele>
	<time>2023-08-07T12:28:15.000Z</time>
</trkpt>
<trkpt lat="46.1267700" lon="10.4761980">
	<ele>2643.00</ele>
	<time>2023-08-07T12:28:16.000Z</time>
</trkpt>
<trkpt lat="46.1267710" lon="10.4761970">
	<ele>2642.80</ele>
	<time>2023-08-07T12:28:17.000Z</time>
</trkpt>
<trkpt lat="46.1267720" lon="10.4761960">
	<ele>2642.80</ele>
	<time>2023-08-07T12:28:18.000Z</time>
</trkpt>
<trkpt lat="46.1267730" lon="10.4761950">
	<ele>2642.60</ele>
	<time>2023-08-07T12:28:19.000Z</time>
</trkpt>
<trkpt lat="46.1267740" lon="10.4761950">
	<ele>2642.40</ele>
	<time>2023-08-07T12:28:20.000Z</time>
</trkpt>
<trkpt lat="46.1267740" lon="10.4761940">
	<ele>2642.20</ele>
	<time>2023-08-07T12:28:21.000Z</time>
</trkpt>
<trkpt lat="46.1267760" lon="10.4761930">
	<ele>2642.20</ele>
	<time>2023-08-07T12:28:22.000Z</time>
</trkpt>
<trkpt lat="46.1267760" lon="10.4761930">
	<ele>2642.20</ele>
	<time>2023-08-07T12:28:23.000Z</time>
</trkpt>
<trkpt lat="46.1267770" lon="10.4761920">
	<ele>2642.20</ele>
	<time>2023-08-07T12:28:24.000Z</time>
</trkpt>
<trkpt lat="46.1267770" lon="10.4761900">
	<ele>2642.40</ele>
	<time>2023-08-07T12:28:25.000Z</time>
</trkpt>
<trkpt lat="46.1267780" lon="10.4761880">
	<ele>2642.60</ele>
	<time>2023-08-07T12:28:26.000Z</time>
</trkpt>
<trkpt lat="46.1267780" lon="10.4761850">
	<ele>2642.60</ele>
	<time>2023-08-07T12:28:27.000Z</time>
</trkpt>
<trkpt lat="46.1267790" lon="10.4761810">
	<ele>2642.80</ele>
	<time>2023-08-07T12:28:28.000Z</time>
</trkpt>
<trkpt lat="46.1267800" lon="10.4761730">
	<ele>2642.80</ele>
	<time>2023-08-07T12:28:29.000Z</time>
</trkpt>
<trkpt lat="46.1267810" lon="10.4761660">
	<ele>2642.80</ele>
	<time>2023-08-07T12:28:30.000Z</time>
</trkpt>
<trkpt lat="46.1267820" lon="10.4761620">
	<ele>2642.80</ele>
	<time>2023-08-07T12:28:31.000Z</time>
</trkpt>
<trkpt lat="46.1267840" lon="10.4761590">
	<ele>2643.00</ele>
	<time>2023-08-07T12:28:32.000Z</time>
</trkpt>
<trkpt lat="46.1267860" lon="10.4761580">
	<ele>2643.00</ele>
	<time>2023-08-07T12:28:33.000Z</time>
</trkpt>
<trkpt lat="46.1267870" lon="10.4761560">
	<ele>2643.00</ele>
	<time>2023-08-07T12:28:34.000Z</time>
</trkpt>
<trkpt lat="46.1267880" lon="10.4761550">
	<ele>2643.20</ele>
	<time>2023-08-07T12:28:35.000Z</time>
</trkpt>
<trkpt lat="46.1267910" lon="10.4761540">
	<ele>2643.20</ele>
	<time>2023-08-07T12:28:36.000Z</time>
</trkpt>
<trkpt lat="46.1267930" lon="10.4761520">
	<ele>2643.20</ele>
	<time>2023-08-07T12:28:37.000Z</time>
</trkpt>
<trkpt lat="46.1267940" lon="10.4761510">
	<ele>2643.00</ele>
	<time>2023-08-07T12:28:38.000Z</time>
</trkpt>
<trkpt lat="46.1267950" lon="10.4761500">
	<ele>2643.00</ele>
	<time>2023-08-07T12:28:39.000Z</time>
</trkpt>
<trkpt lat="46.1267950" lon="10.4761500">
	<ele>2642.80</ele>
	<time>2023-08-07T12:28:40.000Z</time>
</trkpt>
<trkpt lat="46.1267960" lon="10.4761490">
	<ele>2642.80</ele>
	<time>2023-08-07T12:28:41.000Z</time>
</trkpt>
<trkpt lat="46.1267960" lon="10.4761490">
	<ele>2642.60</ele>
	<time>2023-08-07T12:28:42.000Z</time>
</trkpt>
<trkpt lat="46.1267970" lon="10.4761470">
	<ele>2642.60</ele>
	<time>2023-08-07T12:28:43.000Z</time>
</trkpt>
<trkpt lat="46.1267970" lon="10.4761460">
	<ele>2642.40</ele>
	<time>2023-08-07T12:28:44.000Z</time>
</trkpt>
<trkpt lat="46.1267970" lon="10.4761450">
	<ele>2642.20</ele>
	<time>2023-08-07T12:28:45.000Z</time>
</trkpt>
<trkpt lat="46.1267970" lon="10.4761450">
	<ele>2642.20</ele>
	<time>2023-08-07T12:28:46.000Z</time>
</trkpt>
<trkpt lat="46.1267970" lon="10.4761440">
	<ele>2642.20</ele>
	<time>2023-08-07T12:28:47.000Z</time>
</trkpt>
<trkpt lat="46.1267970" lon="10.4761440">
	<ele>2642.00</ele>
	<time>2023-08-07T12:28:48.000Z</time>
</trkpt>
<trkpt lat="46.1267980" lon="10.4761440">
	<ele>2642.00</ele>
	<time>2023-08-07T12:28:49.000Z</time>
</trkpt>
<trkpt lat="46.1267980" lon="10.4761440">
	<ele>2642.00</ele>
	<time>2023-08-07T12:28:50.000Z</time>
</trkpt>
<trkpt lat="46.1267980" lon="10.4761440">
	<ele>2642.00</ele>
	<time>2023-08-07T12:28:51.000Z</time>
</trkpt>
<trkpt lat="46.1267980" lon="10.4761430">
	<ele>2641.80</ele>
	<time>2023-08-07T12:28:52.000Z</time>
</trkpt>
<trkpt lat="46.1267990" lon="10.4761390">
	<ele>2641.80</ele>
	<time>2023-08-07T12:28:53.000Z</time>
</trkpt>
<trkpt lat="46.1267990" lon="10.4761360">
	<ele>2641.60</ele>
	<time>2023-08-07T12:28:54.000Z</time>
</trkpt>
<trkpt lat="46.1267990" lon="10.4761330">
	<ele>2641.40</ele>
	<time>2023-08-07T12:28:55.000Z</time>
</trkpt>
<trkpt lat="46.1267990" lon="10.4761300">
	<ele>2641.20</ele>
	<time>2023-08-07T12:28:56.000Z</time>
</trkpt>
<trkpt lat="46.1267990" lon="10.4761260">
	<ele>2641.20</ele>
	<time>2023-08-07T12:28:57.000Z</time>
</trkpt>
<trkpt lat="46.1267990" lon="10.4761230">
	<ele>2641.00</ele>
	<time>2023-08-07T12:28:58.000Z</time>
</trkpt>
<trkpt lat="46.1268000" lon="10.4761200">
	<ele>2641.00</ele>
	<time>2023-08-07T12:28:59.000Z</time>
</trkpt>
<trkpt lat="46.1268000" lon="10.4761180">
	<ele>2640.80</ele>
	<time>2023-08-07T12:29:00.000Z</time>
</trkpt>
<trkpt lat="46.1268000" lon="10.4761170">
	<ele>2640.60</ele>
	<time>2023-08-07T12:29:01.000Z</time>
</trkpt>
<trkpt lat="46.1268000" lon="10.4761160">
	<ele>2640.40</ele>
	<time>2023-08-07T12:29:02.000Z</time>
</trkpt>
<trkpt lat="46.1268000" lon="10.4761150">
	<ele>2640.20</ele>
	<time>2023-08-07T12:29:03.000Z</time>
</trkpt>
<trkpt lat="46.1268010" lon="10.4761140">
	<ele>2640.20</ele>
	<time>2023-08-07T12:29:04.000Z</time>
</trkpt>
<trkpt lat="46.1268010" lon="10.4761130">
	<ele>2640.00</ele>
	<time>2023-08-07T12:29:05.000Z</time>
</trkpt>
<trkpt lat="46.1268020" lon="10.4761120">
	<ele>2640.00</ele>
	<time>2023-08-07T12:29:06.000Z</time>
</trkpt>
<trkpt lat="46.1268050" lon="10.4761100">
	<ele>2639.80</ele>
	<time>2023-08-07T12:29:07.000Z</time>
</trkpt>
<trkpt lat="46.1268090" lon="10.4761080">
	<ele>2639.80</ele>
	<time>2023-08-07T12:29:08.000Z</time>
</trkpt>
<trkpt lat="46.1268110" lon="10.4761050">
	<ele>2639.60</ele>
	<time>2023-08-07T12:29:09.000Z</time>
</trkpt>
<trkpt lat="46.1268130" lon="10.4761010">
	<ele>2639.40</ele>
	<time>2023-08-07T12:29:10.000Z</time>
</trkpt>
<trkpt lat="46.1268140" lon="10.4760970">
	<ele>2639.20</ele>
	<time>2023-08-07T12:29:11.000Z</time>
</trkpt>
<trkpt lat="46.1268160" lon="10.4760920">
	<ele>2639.20</ele>
	<time>2023-08-07T12:29:12.000Z</time>
</trkpt>
<trkpt lat="46.1268170" lon="10.4760870">
	<ele>2639.00</ele>
	<time>2023-08-07T12:29:13.000Z</time>
</trkpt>
<trkpt lat="46.1268180" lon="10.4760830">
	<ele>2639.00</ele>
	<time>2023-08-07T12:29:14.000Z</time>
</trkpt>
<trkpt lat="46.1268190" lon="10.4760790">
	<ele>2638.80</ele>
	<time>2023-08-07T12:29:15.000Z</time>
</trkpt>
<trkpt lat="46.1268200" lon="10.4760750">
	<ele>2638.80</ele>
	<time>2023-08-07T12:29:16.000Z</time>
</trkpt>
<trkpt lat="46.1268210" lon="10.4760710">
	<ele>2638.80</ele>
	<time>2023-08-07T12:29:17.000Z</time>
</trkpt>
<trkpt lat="46.1268220" lon="10.4760680">
	<ele>2638.40</ele>
	<time>2023-08-07T12:29:18.000Z</time>
</trkpt>
<trkpt lat="46.1268230" lon="10.4760660">
	<ele>2638.20</ele>
	<time>2023-08-07T12:29:19.000Z</time>
</trkpt>
<trkpt lat="46.1268230" lon="10.4760630">
	<ele>2638.20</ele>
	<time>2023-08-07T12:29:20.000Z</time>
</trkpt>
<trkpt lat="46.1268240" lon="10.4760600">
	<ele>2638.00</ele>
	<time>2023-08-07T12:29:21.000Z</time>
</trkpt>
<trkpt lat="46.1268240" lon="10.4760570">
	<ele>2637.60</ele>
	<time>2023-08-07T12:29:22.000Z</time>
</trkpt>
<trkpt lat="46.1268250" lon="10.4760540">
	<ele>2637.40</ele>
	<time>2023-08-07T12:29:23.000Z</time>
</trkpt>
<trkpt lat="46.1268250" lon="10.4760490">
	<ele>2637.20</ele>
	<time>2023-08-07T12:29:24.000Z</time>
</trkpt>
<trkpt lat="46.1268250" lon="10.4760440">
	<ele>2637.00</ele>
	<time>2023-08-07T12:29:25.000Z</time>
</trkpt>
<trkpt lat="46.1268250" lon="10.4760380">
	<ele>2637.00</ele>
	<time>2023-08-07T12:29:26.000Z</time>
</trkpt>
<trkpt lat="46.1268250" lon="10.4760330">
	<ele>2637.00</ele>
	<time>2023-08-07T12:29:27.000Z</time>
</trkpt>
<trkpt lat="46.1268240" lon="10.4760280">
	<ele>2637.00</ele>
	<time>2023-08-07T12:29:28.000Z</time>
</trkpt>
<trkpt lat="46.1268240" lon="10.4760240">
	<ele>2637.20</ele>
	<time>2023-08-07T12:29:29.000Z</time>
</trkpt>
<trkpt lat="46.1268240" lon="10.4760210">
	<ele>2637.20</ele>
	<time>2023-08-07T12:29:30.000Z</time>
</trkpt>
<trkpt lat="46.1268230" lon="10.4760180">
	<ele>2637.40</ele>
	<time>2023-08-07T12:29:31.000Z</time>
</trkpt>
<trkpt lat="46.1268230" lon="10.4760160">
	<ele>2637.60</ele>
	<time>2023-08-07T12:29:32.000Z</time>
</trkpt>
<trkpt lat="46.1268220" lon="10.4760140">
	<ele>2637.60</ele>
	<time>2023-08-07T12:29:33.000Z</time>
</trkpt>
<trkpt lat="46.1268220" lon="10.4760120">
	<ele>2637.80</ele>
	<time>2023-08-07T12:29:34.000Z</time>
</trkpt>
<trkpt lat="46.1268210" lon="10.4760110">
	<ele>2637.80</ele>
	<time>2023-08-07T12:29:35.000Z</time>
</trkpt>
<trkpt lat="46.1268210" lon="10.4760090">
	<ele>2637.80</ele>
	<time>2023-08-07T12:29:36.000Z</time>
</trkpt>
<trkpt lat="46.1268210" lon="10.4760070">
	<ele>2637.80</ele>
	<time>2023-08-07T12:29:37.000Z</time>
</trkpt>
<trkpt lat="46.1268200" lon="10.4760060">
	<ele>2637.60</ele>
	<time>2023-08-07T12:29:38.000Z</time>
</trkpt>
<trkpt lat="46.1268200" lon="10.4760050">
	<ele>2637.60</ele>
	<time>2023-08-07T12:29:39.000Z</time>
</trkpt>
<trkpt lat="46.1268200" lon="10.4760040">
	<ele>2637.60</ele>
	<time>2023-08-07T12:29:40.000Z</time>
</trkpt>
<trkpt lat="46.1268190" lon="10.4760030">
	<ele>2637.20</ele>
	<time>2023-08-07T12:29:41.000Z</time>
</trkpt>
<trkpt lat="46.1268190" lon="10.4760020">
	<ele>2637.00</ele>
	<time>2023-08-07T12:29:42.000Z</time>
</trkpt>
<trkpt lat="46.1268180" lon="10.4760010">
	<ele>2637.00</ele>
	<time>2023-08-07T12:29:43.000Z</time>
</trkpt>
<trkpt lat="46.1268170" lon="10.4760000">
	<ele>2636.80</ele>
	<time>2023-08-07T12:29:44.000Z</time>
</trkpt>
<trkpt lat="46.1268170" lon="10.4760000">
	<ele>2636.80</ele>
	<time>2023-08-07T12:29:45.000Z</time>
</trkpt>
<trkpt lat="46.1268170" lon="10.4759990">
	<ele>2636.80</ele>
	<time>2023-08-07T12:29:46.000Z</time>
</trkpt>
<trkpt lat="46.1268160" lon="10.4759990">
	<ele>2637.00</ele>
	<time>2023-08-07T12:29:47.000Z</time>
</trkpt>
<trkpt lat="46.1268160" lon="10.4759990">
	<ele>2637.00</ele>
	<time>2023-08-07T12:29:48.000Z</time>
</trkpt>
<trkpt lat="46.1268160" lon="10.4759980">
	<ele>2637.00</ele>
	<time>2023-08-07T12:29:49.000Z</time>
</trkpt>
<trkpt lat="46.1268150" lon="10.4759980">
	<ele>2637.20</ele>
	<time>2023-08-07T12:29:50.000Z</time>
</trkpt>
<trkpt lat="46.1268150" lon="10.4759980">
	<ele>2637.20</ele>
	<time>2023-08-07T12:29:51.000Z</time>
</trkpt>
<trkpt lat="46.1268150" lon="10.4759980">
	<ele>2637.20</ele>
	<time>2023-08-07T12:29:52.000Z</time>
</trkpt>
<trkpt lat="46.1268150" lon="10.4759970">
	<ele>2637.20</ele>
	<time>2023-08-07T12:29:53.000Z</time>
</trkpt>
<trkpt lat="46.1268150" lon="10.4759970">
	<ele>2637.20</ele>
	<time>2023-08-07T12:29:54.000Z</time>
</trkpt>
<trkpt lat="46.1268150" lon="10.4759970">
	<ele>2637.20</ele>
	<time>2023-08-07T12:29:55.000Z</time>
</trkpt>
<trkpt lat="46.1268140" lon="10.4759970">
	<ele>2637.20</ele>
	<time>2023-08-07T12:29:56.000Z</time>
</trkpt>
<trkpt lat="46.1268140" lon="10.4759970">
	<ele>2637.20</ele>
	<time>2023-08-07T12:29:57.000Z</time>
</trkpt>
<trkpt lat="46.1268140" lon="10.4759970">
	<ele>2637.00</ele>
	<time>2023-08-07T12:29:58.000Z</time>
</trkpt>
<trkpt lat="46.1268140" lon="10.4759970">
	<ele>2637.20</ele>
	<time>2023-08-07T12:29:59.000Z</time>
</trkpt>
<trkpt lat="46.1268140" lon="10.4759970">
	<ele>2637.20</ele>
	<time>2023-08-07T12:30:00.000Z</time>
</trkpt>
<trkpt lat="46.1268140" lon="10.4759970">
	<ele>2637.20</ele>
	<time>2023-08-07T12:30:01.000Z</time>
</trkpt>
<trkpt lat="46.1268140" lon="10.4759970">
	<ele>2637.20</ele>
	<time>2023-08-07T12:30:02.000Z</time>
</trkpt>
<trkpt lat="46.1268140" lon="10.4759970">
	<ele>2637.40</ele>
	<time>2023-08-07T12:30:03.000Z</time>
</trkpt>
<trkpt lat="46.1268140" lon="10.4759970">
	<ele>2637.40</ele>
	<time>2023-08-07T12:30:04.000Z</time>
</trkpt>
<trkpt lat="46.1268140" lon="10.4759970">
	<ele>2637.60</ele>
	<time>2023-08-07T12:30:05.000Z</time>
</trkpt>
<trkpt lat="46.1268140" lon="10.4759970">
	<ele>2637.80</ele>
	<time>2023-08-07T12:30:06.000Z</time>
</trkpt>
<trkpt lat="46.1268140" lon="10.4759970">
	<ele>2637.80</ele>
	<time>2023-08-07T12:30:07.000Z</time>
</trkpt>
<trkpt lat="46.1268140" lon="10.4759970">
	<ele>2638.00</ele>
	<time>2023-08-07T12:30:08.000Z</time>
</trkpt>
<trkpt lat="46.1268140" lon="10.4759970">
	<ele>2638.00</ele>
	<time>2023-08-07T12:30:09.000Z</time>
</trkpt>
<trkpt lat="46.1268140" lon="10.4759970">
	<ele>2638.00</ele>
	<time>2023-08-07T12:30:10.000Z</time>
</trkpt>
<trkpt lat="46.1268140" lon="10.4759970">
	<ele>2638.00</ele>
	<time>2023-08-07T12:30:11.000Z</time>
</trkpt>
<trkpt lat="46.1268140" lon="10.4759980">
	<ele>2637.80</ele>
	<time>2023-08-07T12:30:12.000Z</time>
</trkpt>
<trkpt lat="46.1268140" lon="10.4759980">
	<ele>2637.80</ele>
	<time>2023-08-07T12:30:13.000Z</time>
</trkpt>
<trkpt lat="46.1268130" lon="10.4759980">
	<ele>2637.60</ele>
	<time>2023-08-07T12:30:14.000Z</time>
</trkpt>
<trkpt lat="46.1268130" lon="10.4759980">
	<ele>2637.60</ele>
	<time>2023-08-07T12:30:15.000Z</time>
</trkpt>
<trkpt lat="46.1268130" lon="10.4759990">
	<ele>2637.40</ele>
	<time>2023-08-07T12:30:16.000Z</time>
</trkpt>
<trkpt lat="46.1268140" lon="10.4759990">
	<ele>2637.40</ele>
	<time>2023-08-07T12:30:17.000Z</time>
</trkpt>
<trkpt lat="46.1268130" lon="10.4760000">
	<ele>2637.40</ele>
	<time>2023-08-07T12:30:18.000Z</time>
</trkpt>
<trkpt lat="46.1268130" lon="10.4760000">
	<ele>2637.20</ele>
	<time>2023-08-07T12:30:19.000Z</time>
</trkpt>
<trkpt lat="46.1268130" lon="10.4760000">
	<ele>2637.20</ele>
	<time>2023-08-07T12:30:20.000Z</time>
</trkpt>
<trkpt lat="46.1268130" lon="10.4760000">
	<ele>2637.00</ele>
	<time>2023-08-07T12:30:21.000Z</time>
</trkpt>
<trkpt lat="46.1268130" lon="10.4760000">
	<ele>2637.00</ele>
	<time>2023-08-07T12:30:22.000Z</time>
</trkpt>
<trkpt lat="46.1268130" lon="10.4760000">
	<ele>2636.80</ele>
	<time>2023-08-07T12:30:23.000Z</time>
</trkpt>
<trkpt lat="46.1268130" lon="10.4760000">
	<ele>2636.80</ele>
	<time>2023-08-07T12:30:24.000Z</time>
</trkpt>
<trkpt lat="46.1268130" lon="10.4760000">
	<ele>2636.80</ele>
	<time>2023-08-07T12:30:25.000Z</time>
</trkpt>
<trkpt lat="46.1268130" lon="10.4760000">
	<ele>2636.80</ele>
	<time>2023-08-07T12:30:26.000Z</time>
</trkpt>
<trkpt lat="46.1268130" lon="10.4760000">
	<ele>2636.80</ele>
	<time>2023-08-07T12:30:27.000Z</time>
</trkpt>
<trkpt lat="46.1268130" lon="10.4760000">
	<ele>2636.80</ele>
	<time>2023-08-07T12:30:28.000Z</time>
</trkpt>
<trkpt lat="46.1268130" lon="10.4760000">
	<ele>2636.80</ele>
	<time>2023-08-07T12:30:29.000Z</time>
</trkpt>
<trkpt lat="46.1268130" lon="10.4760000">
	<ele>2636.60</ele>
	<time>2023-08-07T12:30:30.000Z</time>
</trkpt>
<trkpt lat="46.1268130" lon="10.4760000">
	<ele>2636.60</ele>
	<time>2023-08-07T12:30:31.000Z</time>
</trkpt>
<trkpt lat="46.1268130" lon="10.4760000">
	<ele>2636.60</ele>
	<time>2023-08-07T12:30:32.000Z</time>
</trkpt>
<trkpt lat="46.1268130" lon="10.4760000">
	<ele>2636.60</ele>
	<time>2023-08-07T12:30:33.000Z</time>
</trkpt>
<trkpt lat="46.1268130" lon="10.4760000">
	<ele>2636.40</ele>
	<time>2023-08-07T12:30:34.000Z</time>
</trkpt>
<trkpt lat="46.1268130" lon="10.4760000">
	<ele>2636.20</ele>
	<time>2023-08-07T12:30:35.000Z</time>
</trkpt>
<trkpt lat="46.1268130" lon="10.4759990">
	<ele>2636.00</ele>
	<time>2023-08-07T12:30:36.000Z</time>
</trkpt>
<trkpt lat="46.1268130" lon="10.4759990">
	<ele>2635.80</ele>
	<time>2023-08-07T12:30:37.000Z</time>
</trkpt>
<trkpt lat="46.1268130" lon="10.4759990">
	<ele>2635.80</ele>
	<time>2023-08-07T12:30:38.000Z</time>
</trkpt>
<trkpt lat="46.1268130" lon="10.4759990">
	<ele>2635.60</ele>
	<time>2023-08-07T12:30:39.000Z</time>
</trkpt>
<trkpt lat="46.1268130" lon="10.4759990">
	<ele>2635.40</ele>
	<time>2023-08-07T12:30:40.000Z</time>
</trkpt>
<trkpt lat="46.1268130" lon="10.4759990">
	<ele>2635.40</ele>
	<time>2023-08-07T12:30:41.000Z</time>
</trkpt>
<trkpt lat="46.1268120" lon="10.4759990">
	<ele>2635.20</ele>
	<time>2023-08-07T12:30:42.000Z</time>
</trkpt>
<trkpt lat="46.1268120" lon="10.4759990">
	<ele>2635.20</ele>
	<time>2023-08-07T12:30:43.000Z</time>
</trkpt>
<trkpt lat="46.1268080" lon="10.4759960">
	<ele>2635.00</ele>
	<time>2023-08-07T12:30:44.000Z</time>
</trkpt>
<trkpt lat="46.1268010" lon="10.4759900">
	<ele>2634.80</ele>
	<time>2023-08-07T12:30:45.000Z</time>
</trkpt>
<trkpt lat="46.1267980" lon="10.4759840">
	<ele>2634.60</ele>
	<time>2023-08-07T12:30:46.000Z</time>
</trkpt>
<trkpt lat="46.1267900" lon="10.4759770">
	<ele>2634.40</ele>
	<time>2023-08-07T12:30:47.000Z</time>
</trkpt>
<trkpt lat="46.1267870" lon="10.4759690">
	<ele>2634.20</ele>
	<time>2023-08-07T12:30:48.000Z</time>
</trkpt>
<trkpt lat="46.1267840" lon="10.4759620">
	<ele>2634.00</ele>
	<time>2023-08-07T12:30:49.000Z</time>
</trkpt>
<trkpt lat="46.1267790" lon="10.4759570">
	<ele>2633.60</ele>
	<time>2023-08-07T12:30:50.000Z</time>
</trkpt>
<trkpt lat="46.1267750" lon="10.4759490">
	<ele>2633.40</ele>
	<time>2023-08-07T12:30:51.000Z</time>
</trkpt>
<trkpt lat="46.1267710" lon="10.4759410">
	<ele>2633.20</ele>
	<time>2023-08-07T12:30:52.000Z</time>
</trkpt>
<trkpt lat="46.1267670" lon="10.4759330">
	<ele>2633.20</ele>
	<time>2023-08-07T12:30:53.000Z</time>
</trkpt>
<trkpt lat="46.1267680" lon="10.4759290">
	<ele>2633.20</ele>
	<time>2023-08-07T12:30:54.000Z</time>
</trkpt>
<trkpt lat="46.1267680" lon="10.4759240">
	<ele>2633.20</ele>
	<time>2023-08-07T12:30:55.000Z</time>
</trkpt>
<trkpt lat="46.1267700" lon="10.4759220">
	<ele>2633.20</ele>
	<time>2023-08-07T12:30:56.000Z</time>
</trkpt>
<trkpt lat="46.1267700" lon="10.4759180">
	<ele>2633.00</ele>
	<time>2023-08-07T12:30:57.000Z</time>
</trkpt>
<trkpt lat="46.1267680" lon="10.4759130">
	<ele>2633.00</ele>
	<time>2023-08-07T12:30:58.000Z</time>
</trkpt>
<trkpt lat="46.1267650" lon="10.4759090">
	<ele>2632.80</ele>
	<time>2023-08-07T12:30:59.000Z</time>
</trkpt>
<trkpt lat="46.1267640" lon="10.4759080">
	<ele>2632.60</ele>
	<time>2023-08-07T12:31:00.000Z</time>
</trkpt>
<trkpt lat="46.1267640" lon="10.4759080">
	<ele>2632.60</ele>
	<time>2023-08-07T12:31:01.000Z</time>
</trkpt>
<trkpt lat="46.1267640" lon="10.4759080">
	<ele>2632.40</ele>
	<time>2023-08-07T12:31:02.000Z</time>
</trkpt>
<trkpt lat="46.1267640" lon="10.4759080">
	<ele>2632.20</ele>
	<time>2023-08-07T12:31:03.000Z</time>
</trkpt>
<trkpt lat="46.1267640" lon="10.4759080">
	<ele>2632.20</ele>
	<time>2023-08-07T12:31:04.000Z</time>
</trkpt>
<trkpt lat="46.1267640" lon="10.4759080">
	<ele>2632.00</ele>
	<time>2023-08-07T12:31:05.000Z</time>
</trkpt>
<trkpt lat="46.1267640" lon="10.4759080">
	<ele>2631.80</ele>
	<time>2023-08-07T12:31:06.000Z</time>
</trkpt>
<trkpt lat="46.1267640" lon="10.4759080">
	<ele>2631.60</ele>
	<time>2023-08-07T12:31:07.000Z</time>
</trkpt>
<trkpt lat="46.1267640" lon="10.4759080">
	<ele>2631.20</ele>
	<time>2023-08-07T12:31:08.000Z</time>
</trkpt>
<trkpt lat="46.1267640" lon="10.4759080">
	<ele>2631.20</ele>
	<time>2023-08-07T12:31:09.000Z</time>
</trkpt>
<trkpt lat="46.1267640" lon="10.4759080">
	<ele>2631.00</ele>
	<time>2023-08-07T12:31:10.000Z</time>
</trkpt>
<trkpt lat="46.1267650" lon="10.4759080">
	<ele>2630.80</ele>
	<time>2023-08-07T12:31:11.000Z</time>
</trkpt>
<trkpt lat="46.1267650" lon="10.4759080">
	<ele>2630.80</ele>
	<time>2023-08-07T12:31:12.000Z</time>
</trkpt>
<trkpt lat="46.1267660" lon="10.4759080">
	<ele>2630.80</ele>
	<time>2023-08-07T12:31:13.000Z</time>
</trkpt>
<trkpt lat="46.1267670" lon="10.4759080">
	<ele>2630.60</ele>
	<time>2023-08-07T12:31:14.000Z</time>
</trkpt>
<trkpt lat="46.1267670" lon="10.4759080">
	<ele>2630.60</ele>
	<time>2023-08-07T12:31:15.000Z</time>
</trkpt>
<trkpt lat="46.1267670" lon="10.4759060">
	<ele>2630.60</ele>
	<time>2023-08-07T12:31:16.000Z</time>
</trkpt>
<trkpt lat="46.1267670" lon="10.4759040">
	<ele>2630.60</ele>
	<time>2023-08-07T12:31:17.000Z</time>
</trkpt>
<trkpt lat="46.1267670" lon="10.4759030">
	<ele>2630.60</ele>
	<time>2023-08-07T12:31:18.000Z</time>
</trkpt>
<trkpt lat="46.1267670" lon="10.4759030">
	<ele>2630.40</ele>
	<time>2023-08-07T12:31:19.000Z</time>
</trkpt>
<trkpt lat="46.1267670" lon="10.4759000">
	<ele>2630.40</ele>
	<time>2023-08-07T12:31:20.000Z</time>
</trkpt>
<trkpt lat="46.1267670" lon="10.4758890">
	<ele>2630.40</ele>
	<time>2023-08-07T12:31:21.000Z</time>
</trkpt>
<trkpt lat="46.1267670" lon="10.4758840">
	<ele>2630.40</ele>
	<time>2023-08-07T12:31:22.000Z</time>
</trkpt>
<trkpt lat="46.1267670" lon="10.4758830">
	<ele>2630.20</ele>
	<time>2023-08-07T12:31:23.000Z</time>
</trkpt>
<trkpt lat="46.1267670" lon="10.4758820">
	<ele>2630.20</ele>
	<time>2023-08-07T12:31:24.000Z</time>
</trkpt>
<trkpt lat="46.1267660" lon="10.4758810">
	<ele>2630.20</ele>
	<time>2023-08-07T12:31:25.000Z</time>
</trkpt>
<trkpt lat="46.1267660" lon="10.4758790">
	<ele>2630.20</ele>
	<time>2023-08-07T12:31:26.000Z</time>
</trkpt>
<trkpt lat="46.1267650" lon="10.4758790">
	<ele>2630.20</ele>
	<time>2023-08-07T12:31:27.000Z</time>
</trkpt>
<trkpt lat="46.1267650" lon="10.4758780">
	<ele>2630.00</ele>
	<time>2023-08-07T12:31:28.000Z</time>
</trkpt>
<trkpt lat="46.1267640" lon="10.4758760">
	<ele>2630.00</ele>
	<time>2023-08-07T12:31:29.000Z</time>
</trkpt>
<trkpt lat="46.1267640" lon="10.4758740">
	<ele>2630.00</ele>
	<time>2023-08-07T12:31:30.000Z</time>
</trkpt>
<trkpt lat="46.1267640" lon="10.4758690">
	<ele>2630.00</ele>
	<time>2023-08-07T12:31:31.000Z</time>
</trkpt>
<trkpt lat="46.1267640" lon="10.4758670">
	<ele>2630.00</ele>
	<time>2023-08-07T12:31:32.000Z</time>
</trkpt>
<trkpt lat="46.1267640" lon="10.4758640">
	<ele>2630.00</ele>
	<time>2023-08-07T12:31:33.000Z</time>
</trkpt>
<trkpt lat="46.1267640" lon="10.4758600">
	<ele>2630.00</ele>
	<time>2023-08-07T12:31:34.000Z</time>
</trkpt>
<trkpt lat="46.1267640" lon="10.4758520">
	<ele>2630.00</ele>
	<time>2023-08-07T12:31:35.000Z</time>
</trkpt>
<trkpt lat="46.1267630" lon="10.4758500">
	<ele>2630.00</ele>
	<time>2023-08-07T12:31:36.000Z</time>
</trkpt>
<trkpt lat="46.1267630" lon="10.4758490">
	<ele>2629.80</ele>
	<time>2023-08-07T12:31:37.000Z</time>
</trkpt>
<trkpt lat="46.1267630" lon="10.4758490">
	<ele>2629.80</ele>
	<time>2023-08-07T12:31:38.000Z</time>
</trkpt>
<trkpt lat="46.1267620" lon="10.4758490">
	<ele>2629.80</ele>
	<time>2023-08-07T12:31:39.000Z</time>
</trkpt>
<trkpt lat="46.1267620" lon="10.4758480">
	<ele>2629.80</ele>
	<time>2023-08-07T12:31:40.000Z</time>
</trkpt>
<trkpt lat="46.1267620" lon="10.4758480">
	<ele>2629.80</ele>
	<time>2023-08-07T12:31:41.000Z</time>
</trkpt>
<trkpt lat="46.1267620" lon="10.4758480">
	<ele>2629.80</ele>
	<time>2023-08-07T12:31:42.000Z</time>
</trkpt>
<trkpt lat="46.1267620" lon="10.4758470">
	<ele>2629.80</ele>
	<time>2023-08-07T12:31:43.000Z</time>
</trkpt>
<trkpt lat="46.1267620" lon="10.4758470">
	<ele>2629.80</ele>
	<time>2023-08-07T12:31:44.000Z</time>
</trkpt>
<trkpt lat="46.1267610" lon="10.4758470">
	<ele>2629.80</ele>
	<time>2023-08-07T12:31:45.000Z</time>
</trkpt>
<trkpt lat="46.1267610" lon="10.4758470">
	<ele>2629.80</ele>
	<time>2023-08-07T12:31:46.000Z</time>
</trkpt>
<trkpt lat="46.1267610" lon="10.4758460">
	<ele>2629.80</ele>
	<time>2023-08-07T12:31:47.000Z</time>
</trkpt>
<trkpt lat="46.1267610" lon="10.4758450">
	<ele>2629.80</ele>
	<time>2023-08-07T12:31:48.000Z</time>
</trkpt>
<trkpt lat="46.1267610" lon="10.4758440">
	<ele>2629.80</ele>
	<time>2023-08-07T12:31:49.000Z</time>
</trkpt>
<trkpt lat="46.1267610" lon="10.4758420">
	<ele>2629.80</ele>
	<time>2023-08-07T12:31:50.000Z</time>
</trkpt>
<trkpt lat="46.1267610" lon="10.4758410">
	<ele>2629.80</ele>
	<time>2023-08-07T12:31:51.000Z</time>
</trkpt>
<trkpt lat="46.1267610" lon="10.4758400">
	<ele>2629.80</ele>
	<time>2023-08-07T12:31:52.000Z</time>
</trkpt>
<trkpt lat="46.1267610" lon="10.4758400">
	<ele>2629.80</ele>
	<time>2023-08-07T12:31:53.000Z</time>
</trkpt>
<trkpt lat="46.1267620" lon="10.4758400">
	<ele>2629.80</ele>
	<time>2023-08-07T12:31:54.000Z</time>
</trkpt>
<trkpt lat="46.1267620" lon="10.4758390">
	<ele>2629.60</ele>
	<time>2023-08-07T12:31:55.000Z</time>
</trkpt>
<trkpt lat="46.1267620" lon="10.4758370">
	<ele>2629.40</ele>
	<time>2023-08-07T12:31:56.000Z</time>
</trkpt>
<trkpt lat="46.1267620" lon="10.4758370">
	<ele>2629.20</ele>
	<time>2023-08-07T12:31:57.000Z</time>
</trkpt>
<trkpt lat="46.1267630" lon="10.4758360">
	<ele>2629.00</ele>
	<time>2023-08-07T12:31:58.000Z</time>
</trkpt>
<trkpt lat="46.1267640" lon="10.4758360">
	<ele>2628.80</ele>
	<time>2023-08-07T12:31:59.000Z</time>
</trkpt>
<trkpt lat="46.1267650" lon="10.4758360">
	<ele>2628.80</ele>
	<time>2023-08-07T12:32:00.000Z</time>
</trkpt>
<trkpt lat="46.1267650" lon="10.4758340">
	<ele>2628.60</ele>
	<time>2023-08-07T12:32:01.000Z</time>
</trkpt>
<trkpt lat="46.1267660" lon="10.4758330">
	<ele>2628.60</ele>
	<time>2023-08-07T12:32:02.000Z</time>
</trkpt>
<trkpt lat="46.1267670" lon="10.4758320">
	<ele>2628.60</ele>
	<time>2023-08-07T12:32:03.000Z</time>
</trkpt>
<trkpt lat="46.1267680" lon="10.4758310">
	<ele>2628.20</ele>
	<time>2023-08-07T12:32:04.000Z</time>
</trkpt>
<trkpt lat="46.1267690" lon="10.4758300">
	<ele>2628.00</ele>
	<time>2023-08-07T12:32:05.000Z</time>
</trkpt>
<trkpt lat="46.1267690" lon="10.4758290">
	<ele>2627.80</ele>
	<time>2023-08-07T12:32:06.000Z</time>
</trkpt>
<trkpt lat="46.1267690" lon="10.4758280">
	<ele>2627.80</ele>
	<time>2023-08-07T12:32:07.000Z</time>
</trkpt>
<trkpt lat="46.1267700" lon="10.4758280">
	<ele>2627.60</ele>
	<time>2023-08-07T12:32:08.000Z</time>
</trkpt>
<trkpt lat="46.1267710" lon="10.4758270">
	<ele>2627.60</ele>
	<time>2023-08-07T12:32:09.000Z</time>
</trkpt>
<trkpt lat="46.1267710" lon="10.4758270">
	<ele>2627.40</ele>
	<time>2023-08-07T12:32:10.000Z</time>
</trkpt>
<trkpt lat="46.1267710" lon="10.4758200">
	<ele>2627.20</ele>
	<time>2023-08-07T12:32:11.000Z</time>
</trkpt>
<trkpt lat="46.1267710" lon="10.4758180">
	<ele>2627.20</ele>
	<time>2023-08-07T12:32:12.000Z</time>
</trkpt>
<trkpt lat="46.1267710" lon="10.4758150">
	<ele>2627.00</ele>
	<time>2023-08-07T12:32:13.000Z</time>
</trkpt>
<trkpt lat="46.1267710" lon="10.4758140">
	<ele>2627.00</ele>
	<time>2023-08-07T12:32:14.000Z</time>
</trkpt>
<trkpt lat="46.1267710" lon="10.4758130">
	<ele>2627.00</ele>
	<time>2023-08-07T12:32:15.000Z</time>
</trkpt>
<trkpt lat="46.1267720" lon="10.4758120">
	<ele>2627.00</ele>
	<time>2023-08-07T12:32:16.000Z</time>
</trkpt>
<trkpt lat="46.1267720" lon="10.4758110">
	<ele>2626.80</ele>
	<time>2023-08-07T12:32:17.000Z</time>
</trkpt>
<trkpt lat="46.1267720" lon="10.4758050">
	<ele>2626.60</ele>
	<time>2023-08-07T12:32:18.000Z</time>
</trkpt>
<trkpt lat="46.1267720" lon="10.4757980">
	<ele>2626.40</ele>
	<time>2023-08-07T12:32:19.000Z</time>
</trkpt>
<trkpt lat="46.1267730" lon="10.4757900">
	<ele>2626.20</ele>
	<time>2023-08-07T12:32:20.000Z</time>
</trkpt>
<trkpt lat="46.1267730" lon="10.4757790">
	<ele>2626.00</ele>
	<time>2023-08-07T12:32:21.000Z</time>
</trkpt>
<trkpt lat="46.1267730" lon="10.4757750">
	<ele>2625.80</ele>
	<time>2023-08-07T12:32:22.000Z</time>
</trkpt>
<trkpt lat="46.1267740" lon="10.4757710">
	<ele>2625.60</ele>
	<time>2023-08-07T12:32:23.000Z</time>
</trkpt>
<trkpt lat="46.1267740" lon="10.4757690">
	<ele>2625.60</ele>
	<time>2023-08-07T12:32:24.000Z</time>
</trkpt>
<trkpt lat="46.1267740" lon="10.4757680">
	<ele>2625.40</ele>
	<time>2023-08-07T12:32:25.000Z</time>
</trkpt>
<trkpt lat="46.1267750" lon="10.4757660">
	<ele>2625.40</ele>
	<time>2023-08-07T12:32:26.000Z</time>
</trkpt>
<trkpt lat="46.1267760" lon="10.4757640">
	<ele>2625.40</ele>
	<time>2023-08-07T12:32:27.000Z</time>
</trkpt>
<trkpt lat="46.1267760" lon="10.4757560">
	<ele>2625.40</ele>
	<time>2023-08-07T12:32:28.000Z</time>
</trkpt>
<trkpt lat="46.1267770" lon="10.4757500">
	<ele>2625.40</ele>
	<time>2023-08-07T12:32:29.000Z</time>
</trkpt>
<trkpt lat="46.1267780" lon="10.4757430">
	<ele>2625.40</ele>
	<time>2023-08-07T12:32:30.000Z</time>
</trkpt>
<trkpt lat="46.1267780" lon="10.4757400">
	<ele>2625.40</ele>
	<time>2023-08-07T12:32:31.000Z</time>
</trkpt>
<trkpt lat="46.1267800" lon="10.4757370">
	<ele>2625.40</ele>
	<time>2023-08-07T12:32:32.000Z</time>
</trkpt>
<trkpt lat="46.1267840" lon="10.4757360">
	<ele>2625.20</ele>
	<time>2023-08-07T12:32:33.000Z</time>
</trkpt>
<trkpt lat="46.1267880" lon="10.4757350">
	<ele>2625.20</ele>
	<time>2023-08-07T12:32:34.000Z</time>
</trkpt>
<trkpt lat="46.1267900" lon="10.4757340">
	<ele>2625.00</ele>
	<time>2023-08-07T12:32:35.000Z</time>
</trkpt>
<trkpt lat="46.1267920" lon="10.4757310">
	<ele>2625.00</ele>
	<time>2023-08-07T12:32:36.000Z</time>
</trkpt>
<trkpt lat="46.1267950" lon="10.4757280">
	<ele>2624.80</ele>
	<time>2023-08-07T12:32:37.000Z</time>
</trkpt>
<trkpt lat="46.1267960" lon="10.4757270">
	<ele>2624.80</ele>
	<time>2023-08-07T12:32:38.000Z</time>
</trkpt>
<trkpt lat="46.1267980" lon="10.4757230">
	<ele>2624.60</ele>
	<time>2023-08-07T12:32:39.000Z</time>
</trkpt>
<trkpt lat="46.1267980" lon="10.4757210">
	<ele>2624.60</ele>
	<time>2023-08-07T12:32:40.000Z</time>
</trkpt>
<trkpt lat="46.1267990" lon="10.4757160">
	<ele>2624.40</ele>
	<time>2023-08-07T12:32:41.000Z</time>
</trkpt>
<trkpt lat="46.1267990" lon="10.4757120">
	<ele>2624.20</ele>
	<time>2023-08-07T12:32:42.000Z</time>
</trkpt>
<trkpt lat="46.1268000" lon="10.4757060">
	<ele>2624.20</ele>
	<time>2023-08-07T12:32:43.000Z</time>
</trkpt>
<trkpt lat="46.1268010" lon="10.4756850">
	<ele>2624.00</ele>
	<time>2023-08-07T12:32:44.000Z</time>
</trkpt>
<trkpt lat="46.1268020" lon="10.4756710">
	<ele>2624.00</ele>
	<time>2023-08-07T12:32:45.000Z</time>
</trkpt>
<trkpt lat="46.1268030" lon="10.4756610">
	<ele>2623.80</ele>
	<time>2023-08-07T12:32:46.000Z</time>
</trkpt>
<trkpt lat="46.1268040" lon="10.4756550">
	<ele>2623.80</ele>
	<time>2023-08-07T12:32:47.000Z</time>
</trkpt>
<trkpt lat="46.1268050" lon="10.4756450">
	<ele>2623.80</ele>
	<time>2023-08-07T12:32:48.000Z</time>
</trkpt>
<trkpt lat="46.1268050" lon="10.4756350">
	<ele>2623.60</ele>
	<time>2023-08-07T12:32:49.000Z</time>
</trkpt>
<trkpt lat="46.1268060" lon="10.4756290">
	<ele>2623.60</ele>
	<time>2023-08-07T12:32:50.000Z</time>
</trkpt>
<trkpt lat="46.1268060" lon="10.4756250">
	<ele>2623.40</ele>
	<time>2023-08-07T12:32:51.000Z</time>
</trkpt>
<trkpt lat="46.1268070" lon="10.4756220">
	<ele>2623.20</ele>
	<time>2023-08-07T12:32:52.000Z</time>
</trkpt>
<trkpt lat="46.1268070" lon="10.4756200">
	<ele>2623.20</ele>
	<time>2023-08-07T12:32:53.000Z</time>
</trkpt>
<trkpt lat="46.1268070" lon="10.4756170">
	<ele>2623.00</ele>
	<time>2023-08-07T12:32:54.000Z</time>
</trkpt>
<trkpt lat="46.1268080" lon="10.4756140">
	<ele>2623.00</ele>
	<time>2023-08-07T12:32:55.000Z</time>
</trkpt>
<trkpt lat="46.1268080" lon="10.4756080">
	<ele>2623.00</ele>
	<time>2023-08-07T12:32:56.000Z</time>
</trkpt>
<trkpt lat="46.1268080" lon="10.4756000">
	<ele>2623.00</ele>
	<time>2023-08-07T12:32:57.000Z</time>
</trkpt>
<trkpt lat="46.1268090" lon="10.4755940">
	<ele>2623.00</ele>
	<time>2023-08-07T12:32:58.000Z</time>
</trkpt>
<trkpt lat="46.1268100" lon="10.4755900">
	<ele>2622.80</ele>
	<time>2023-08-07T12:32:59.000Z</time>
</trkpt>
<trkpt lat="46.1268110" lon="10.4755870">
	<ele>2622.80</ele>
	<time>2023-08-07T12:33:00.000Z</time>
</trkpt>
<trkpt lat="46.1268110" lon="10.4755850">
	<ele>2622.60</ele>
	<time>2023-08-07T12:33:01.000Z</time>
</trkpt>
<trkpt lat="46.1268120" lon="10.4755840">
	<ele>2622.60</ele>
	<time>2023-08-07T12:33:02.000Z</time>
</trkpt>
<trkpt lat="46.1268160" lon="10.4755830">
	<ele>2622.40</ele>
	<time>2023-08-07T12:33:03.000Z</time>
</trkpt>
<trkpt lat="46.1268190" lon="10.4755820">
	<ele>2622.40</ele>
	<time>2023-08-07T12:33:04.000Z</time>
</trkpt>
<trkpt lat="46.1268230" lon="10.4755800">
	<ele>2622.40</ele>
	<time>2023-08-07T12:33:05.000Z</time>
</trkpt>
<trkpt lat="46.1268260" lon="10.4755780">
	<ele>2622.40</ele>
	<time>2023-08-07T12:33:06.000Z</time>
</trkpt>
<trkpt lat="46.1268280" lon="10.4755740">
	<ele>2622.40</ele>
	<time>2023-08-07T12:33:07.000Z</time>
</trkpt>
<trkpt lat="46.1268290" lon="10.4755630">
	<ele>2622.20</ele>
	<time>2023-08-07T12:33:08.000Z</time>
</trkpt>
<trkpt lat="46.1268290" lon="10.4755520">
	<ele>2622.20</ele>
	<time>2023-08-07T12:33:09.000Z</time>
</trkpt>
<trkpt lat="46.1268280" lon="10.4755450">
	<ele>2622.20</ele>
	<time>2023-08-07T12:33:10.000Z</time>
</trkpt>
<trkpt lat="46.1268280" lon="10.4755570">
	<ele>2622.40</ele>
	<time>2023-08-07T12:33:11.000Z</time>
</trkpt>
<trkpt lat="46.1268190" lon="10.4755450">
	<ele>2622.20</ele>
	<time>2023-08-07T12:33:12.000Z</time>
</trkpt>
<trkpt lat="46.1268150" lon="10.4755320">
	<ele>2622.00</ele>
	<time>2023-08-07T12:33:13.000Z</time>
</trkpt>
<trkpt lat="46.1268130" lon="10.4755150">
	<ele>2622.00</ele>
	<time>2023-08-07T12:33:14.000Z</time>
</trkpt>
<trkpt lat="46.1268160" lon="10.4755040">
	<ele>2622.00</ele>
	<time>2023-08-07T12:33:15.000Z</time>
</trkpt>
<trkpt lat="46.1268180" lon="10.4754950">
	<ele>2621.80</ele>
	<time>2023-08-07T12:33:16.000Z</time>
</trkpt>
<trkpt lat="46.1268200" lon="10.4754840">
	<ele>2621.80</ele>
	<time>2023-08-07T12:33:17.000Z</time>
</trkpt>
<trkpt lat="46.1268210" lon="10.4754850">
	<ele>2621.80</ele>
	<time>2023-08-07T12:33:18.000Z</time>
</trkpt>
<trkpt lat="46.1268210" lon="10.4754810">
	<ele>2621.60</ele>
	<time>2023-08-07T12:33:19.000Z</time>
</trkpt>
<trkpt lat="46.1268190" lon="10.4754770">
	<ele>2621.60</ele>
	<time>2023-08-07T12:33:20.000Z</time>
</trkpt>
<trkpt lat="46.1268140" lon="10.4754620">
	<ele>2621.60</ele>
	<time>2023-08-07T12:33:21.000Z</time>
</trkpt>
<trkpt lat="46.1268090" lon="10.4754490">
	<ele>2621.60</ele>
	<time>2023-08-07T12:33:22.000Z</time>
</trkpt>
<trkpt lat="46.1268080" lon="10.4754420">
	<ele>2621.20</ele>
	<time>2023-08-07T12:33:23.000Z</time>
</trkpt>
<trkpt lat="46.1268090" lon="10.4754460">
	<ele>2621.00</ele>
	<time>2023-08-07T12:33:24.000Z</time>
</trkpt>
<trkpt lat="46.1268110" lon="10.4754330">
	<ele>2620.80</ele>
	<time>2023-08-07T12:33:25.000Z</time>
</trkpt>
<trkpt lat="46.1268150" lon="10.4754290">
	<ele>2620.60</ele>
	<time>2023-08-07T12:33:26.000Z</time>
</trkpt>
<trkpt lat="46.1268170" lon="10.4754240">
	<ele>2620.40</ele>
	<time>2023-08-07T12:33:27.000Z</time>
</trkpt>
<trkpt lat="46.1268230" lon="10.4754150">
	<ele>2620.40</ele>
	<time>2023-08-07T12:33:28.000Z</time>
</trkpt>
<trkpt lat="46.1268310" lon="10.4754120">
	<ele>2620.40</ele>
	<time>2023-08-07T12:33:29.000Z</time>
</trkpt>
<trkpt lat="46.1268390" lon="10.4754100">
	<ele>2620.20</ele>
	<time>2023-08-07T12:33:30.000Z</time>
</trkpt>
<trkpt lat="46.1268380" lon="10.4754050">
	<ele>2620.20</ele>
	<time>2023-08-07T12:33:31.000Z</time>
</trkpt>
<trkpt lat="46.1268370" lon="10.4754030">
	<ele>2620.20</ele>
	<time>2023-08-07T12:33:32.000Z</time>
</trkpt>
<trkpt lat="46.1268360" lon="10.4753990">
	<ele>2620.00</ele>
	<time>2023-08-07T12:33:33.000Z</time>
</trkpt>
<trkpt lat="46.1268360" lon="10.4754130">
	<ele>2620.00</ele>
	<time>2023-08-07T12:33:34.000Z</time>
</trkpt>
<trkpt lat="46.1268370" lon="10.4754110">
	<ele>2620.00</ele>
	<time>2023-08-07T12:33:35.000Z</time>
</trkpt>
<trkpt lat="46.1268370" lon="10.4754080">
	<ele>2619.80</ele>
	<time>2023-08-07T12:33:36.000Z</time>
</trkpt>
<trkpt lat="46.1268400" lon="10.4754060">
	<ele>2619.80</ele>
	<time>2023-08-07T12:33:37.000Z</time>
</trkpt>
<trkpt lat="46.1268440" lon="10.4753960">
	<ele>2619.80</ele>
	<time>2023-08-07T12:33:38.000Z</time>
</trkpt>
<trkpt lat="46.1268440" lon="10.4753920">
	<ele>2619.60</ele>
	<time>2023-08-07T12:33:39.000Z</time>
</trkpt>
<trkpt lat="46.1268440" lon="10.4753880">
	<ele>2619.40</ele>
	<time>2023-08-07T12:33:40.000Z</time>
</trkpt>
<trkpt lat="46.1268410" lon="10.4753760">
	<ele>2619.40</ele>
	<time>2023-08-07T12:33:41.000Z</time>
</trkpt>
<trkpt lat="46.1268390" lon="10.4753700">
	<ele>2619.40</ele>
	<time>2023-08-07T12:33:42.000Z</time>
</trkpt>
<trkpt lat="46.1268390" lon="10.4753640">
	<ele>2619.20</ele>
	<time>2023-08-07T12:33:43.000Z</time>
</trkpt>
<trkpt lat="46.1268420" lon="10.4753620">
	<ele>2618.80</ele>
	<time>2023-08-07T12:33:44.000Z</time>
</trkpt>
<trkpt lat="46.1268450" lon="10.4753620">
	<ele>2618.60</ele>
	<time>2023-08-07T12:33:45.000Z</time>
</trkpt>
<trkpt lat="46.1268470" lon="10.4753610">
	<ele>2618.40</ele>
	<time>2023-08-07T12:33:46.000Z</time>
</trkpt>
<trkpt lat="46.1268490" lon="10.4753600">
	<ele>2618.40</ele>
	<time>2023-08-07T12:33:47.000Z</time>
</trkpt>
<trkpt lat="46.1268510" lon="10.4753570">
	<ele>2618.40</ele>
	<time>2023-08-07T12:33:48.000Z</time>
</trkpt>
<trkpt lat="46.1268520" lon="10.4753590">
	<ele>2618.40</ele>
	<time>2023-08-07T12:33:49.000Z</time>
</trkpt>
<trkpt lat="46.1268510" lon="10.4753590">
	<ele>2618.40</ele>
	<time>2023-08-07T12:33:50.000Z</time>
</trkpt>
<trkpt lat="46.1268510" lon="10.4753600">
	<ele>2618.20</ele>
	<time>2023-08-07T12:33:51.000Z</time>
</trkpt>
<trkpt lat="46.1268520" lon="10.4753570">
	<ele>2618.20</ele>
	<time>2023-08-07T12:33:52.000Z</time>
</trkpt>
<trkpt lat="46.1268570" lon="10.4753470">
	<ele>2618.20</ele>
	<time>2023-08-07T12:33:53.000Z</time>
</trkpt>
<trkpt lat="46.1268590" lon="10.4753410">
	<ele>2618.20</ele>
	<time>2023-08-07T12:33:54.000Z</time>
</trkpt>
<trkpt lat="46.1268610" lon="10.4753360">
	<ele>2618.20</ele>
	<time>2023-08-07T12:33:55.000Z</time>
</trkpt>
<trkpt lat="46.1268620" lon="10.4753320">
	<ele>2618.20</ele>
	<time>2023-08-07T12:33:56.000Z</time>
</trkpt>
<trkpt lat="46.1268610" lon="10.4753300">
	<ele>2618.00</ele>
	<time>2023-08-07T12:33:57.000Z</time>
</trkpt>
<trkpt lat="46.1268590" lon="10.4753260">
	<ele>2617.80</ele>
	<time>2023-08-07T12:33:58.000Z</time>
</trkpt>
<trkpt lat="46.1268590" lon="10.4753270">
	<ele>2617.80</ele>
	<time>2023-08-07T12:33:59.000Z</time>
</trkpt>
<trkpt lat="46.1268590" lon="10.4753260">
	<ele>2617.60</ele>
	<time>2023-08-07T12:34:00.000Z</time>
</trkpt>
<trkpt lat="46.1268640" lon="10.4753400">
	<ele>2617.40</ele>
	<time>2023-08-07T12:34:01.000Z</time>
</trkpt>
<trkpt lat="46.1268680" lon="10.4753510">
	<ele>2617.40</ele>
	<time>2023-08-07T12:34:02.000Z</time>
</trkpt>
<trkpt lat="46.1268670" lon="10.4753520">
	<ele>2617.40</ele>
	<time>2023-08-07T12:34:03.000Z</time>
</trkpt>
<trkpt lat="46.1268670" lon="10.4753520">
	<ele>2617.40</ele>
	<time>2023-08-07T12:34:04.000Z</time>
</trkpt>
<trkpt lat="46.1268670" lon="10.4753520">
	<ele>2617.40</ele>
	<time>2023-08-07T12:34:05.000Z</time>
</trkpt>
<trkpt lat="46.1268670" lon="10.4753520">
	<ele>2617.40</ele>
	<time>2023-08-07T12:34:06.000Z</time>
</trkpt>
<trkpt lat="46.1268670" lon="10.4753520">
	<ele>2617.40</ele>
	<time>2023-08-07T12:34:07.000Z</time>
</trkpt>
<trkpt lat="46.1268670" lon="10.4753520">
	<ele>2617.40</ele>
	<time>2023-08-07T12:34:08.000Z</time>
</trkpt>
<trkpt lat="46.1268670" lon="10.4753520">
	<ele>2617.40</ele>
	<time>2023-08-07T12:34:09.000Z</time>
</trkpt>
<trkpt lat="46.1268670" lon="10.4753520">
	<ele>2617.20</ele>
	<time>2023-08-07T12:34:10.000Z</time>
</trkpt>
<trkpt lat="46.1268670" lon="10.4753520">
	<ele>2617.20</ele>
	<time>2023-08-07T12:34:11.000Z</time>
</trkpt>
<trkpt lat="46.1268660" lon="10.4753520">
	<ele>2617.00</ele>
	<time>2023-08-07T12:34:12.000Z</time>
</trkpt>
<trkpt lat="46.1268660" lon="10.4753520">
	<ele>2617.00</ele>
	<time>2023-08-07T12:34:13.000Z</time>
</trkpt>
<trkpt lat="46.1268660" lon="10.4753520">
	<ele>2617.00</ele>
	<time>2023-08-07T12:34:14.000Z</time>
</trkpt>
<trkpt lat="46.1268660" lon="10.4753520">
	<ele>2617.20</ele>
	<time>2023-08-07T12:34:15.000Z</time>
</trkpt>
<trkpt lat="46.1268660" lon="10.4753520">
	<ele>2617.20</ele>
	<time>2023-08-07T12:34:16.000Z</time>
</trkpt>
<trkpt lat="46.1268660" lon="10.4753520">
	<ele>2617.40</ele>
	<time>2023-08-07T12:34:17.000Z</time>
</trkpt>
<trkpt lat="46.1268660" lon="10.4753520">
	<ele>2617.40</ele>
	<time>2023-08-07T12:34:18.000Z</time>
</trkpt>
<trkpt lat="46.1268660" lon="10.4753520">
	<ele>2617.60</ele>
	<time>2023-08-07T12:34:19.000Z</time>
</trkpt>
<trkpt lat="46.1268660" lon="10.4753530">
	<ele>2617.60</ele>
	<time>2023-08-07T12:34:20.000Z</time>
</trkpt>
<trkpt lat="46.1268660" lon="10.4753540">
	<ele>2617.40</ele>
	<time>2023-08-07T12:34:21.000Z</time>
</trkpt>
<trkpt lat="46.1268660" lon="10.4753540">
	<ele>2617.40</ele>
	<time>2023-08-07T12:34:22.000Z</time>
</trkpt>
<trkpt lat="46.1268660" lon="10.4753540">
	<ele>2617.40</ele>
	<time>2023-08-07T12:34:23.000Z</time>
</trkpt>
<trkpt lat="46.1268660" lon="10.4753550">
	<ele>2617.40</ele>
	<time>2023-08-07T12:34:24.000Z</time>
</trkpt>
<trkpt lat="46.1268660" lon="10.4753550">
	<ele>2617.20</ele>
	<time>2023-08-07T12:34:25.000Z</time>
</trkpt>
<trkpt lat="46.1268660" lon="10.4753560">
	<ele>2617.20</ele>
	<time>2023-08-07T12:34:26.000Z</time>
</trkpt>
<trkpt lat="46.1268670" lon="10.4753570">
	<ele>2617.20</ele>
	<time>2023-08-07T12:34:27.000Z</time>
</trkpt>
<trkpt lat="46.1268680" lon="10.4753550">
	<ele>2617.00</ele>
	<time>2023-08-07T12:34:28.000Z</time>
</trkpt>
<trkpt lat="46.1268680" lon="10.4753410">
	<ele>2617.00</ele>
	<time>2023-08-07T12:34:29.000Z</time>
</trkpt>
<trkpt lat="46.1268700" lon="10.4753350">
	<ele>2616.80</ele>
	<time>2023-08-07T12:34:30.000Z</time>
</trkpt>
<trkpt lat="46.1268700" lon="10.4753260">
	<ele>2616.80</ele>
	<time>2023-08-07T12:34:31.000Z</time>
</trkpt>
<trkpt lat="46.1268700" lon="10.4753210">
	<ele>2616.60</ele>
	<time>2023-08-07T12:34:32.000Z</time>
</trkpt>
<trkpt lat="46.1268730" lon="10.4753150">
	<ele>2616.40</ele>
	<time>2023-08-07T12:34:33.000Z</time>
</trkpt>
<trkpt lat="46.1268750" lon="10.4753090">
	<ele>2616.40</ele>
	<time>2023-08-07T12:34:34.000Z</time>
</trkpt>
<trkpt lat="46.1268730" lon="10.4753060">
	<ele>2616.20</ele>
	<time>2023-08-07T12:34:35.000Z</time>
</trkpt>
<trkpt lat="46.1268710" lon="10.4753010">
	<ele>2616.00</ele>
	<time>2023-08-07T12:34:36.000Z</time>
</trkpt>
<trkpt lat="46.1268700" lon="10.4752970">
	<ele>2615.80</ele>
	<time>2023-08-07T12:34:37.000Z</time>
</trkpt>
<trkpt lat="46.1268680" lon="10.4752940">
	<ele>2615.80</ele>
	<time>2023-08-07T12:34:38.000Z</time>
</trkpt>
<trkpt lat="46.1268670" lon="10.4752940">
	<ele>2615.60</ele>
	<time>2023-08-07T12:34:39.000Z</time>
</trkpt>
<trkpt lat="46.1268650" lon="10.4752910">
	<ele>2615.40</ele>
	<time>2023-08-07T12:34:40.000Z</time>
</trkpt>
<trkpt lat="46.1268630" lon="10.4752880">
	<ele>2615.40</ele>
	<time>2023-08-07T12:34:41.000Z</time>
</trkpt>
<trkpt lat="46.1268620" lon="10.4752840">
	<ele>2615.40</ele>
	<time>2023-08-07T12:34:42.000Z</time>
</trkpt>
<trkpt lat="46.1268620" lon="10.4752810">
	<ele>2615.20</ele>
	<time>2023-08-07T12:34:43.000Z</time>
</trkpt>
<trkpt lat="46.1268620" lon="10.4752790">
	<ele>2615.00</ele>
	<time>2023-08-07T12:34:44.000Z</time>
</trkpt>
<trkpt lat="46.1268610" lon="10.4752830">
	<ele>2615.00</ele>
	<time>2023-08-07T12:34:45.000Z</time>
</trkpt>
<trkpt lat="46.1268590" lon="10.4752840">
	<ele>2614.80</ele>
	<time>2023-08-07T12:34:46.000Z</time>
</trkpt>
<trkpt lat="46.1268590" lon="10.4752950">
	<ele>2614.80</ele>
	<time>2023-08-07T12:34:47.000Z</time>
</trkpt>
<trkpt lat="46.1268610" lon="10.4752910">
	<ele>2614.60</ele>
	<time>2023-08-07T12:34:48.000Z</time>
</trkpt>
<trkpt lat="46.1268620" lon="10.4752890">
	<ele>2614.60</ele>
	<time>2023-08-07T12:34:49.000Z</time>
</trkpt>
<trkpt lat="46.1268630" lon="10.4752780">
	<ele>2614.40</ele>
	<time>2023-08-07T12:34:50.000Z</time>
</trkpt>
<trkpt lat="46.1268690" lon="10.4752780">
	<ele>2614.20</ele>
	<time>2023-08-07T12:34:51.000Z</time>
</trkpt>
<trkpt lat="46.1268730" lon="10.4752790">
	<ele>2614.20</ele>
	<time>2023-08-07T12:34:52.000Z</time>
</trkpt>
<trkpt lat="46.1268730" lon="10.4752790">
	<ele>2614.00</ele>
	<time>2023-08-07T12:34:53.000Z</time>
</trkpt>
<trkpt lat="46.1268730" lon="10.4752760">
	<ele>2614.00</ele>
	<time>2023-08-07T12:34:54.000Z</time>
</trkpt>
<trkpt lat="46.1268720" lon="10.4752760">
	<ele>2614.00</ele>
	<time>2023-08-07T12:34:55.000Z</time>
</trkpt>
<trkpt lat="46.1268720" lon="10.4752760">
	<ele>2613.80</ele>
	<time>2023-08-07T12:34:56.000Z</time>
</trkpt>
<trkpt lat="46.1268720" lon="10.4752760">
	<ele>2613.80</ele>
	<time>2023-08-07T12:34:57.000Z</time>
</trkpt>
<trkpt lat="46.1268720" lon="10.4752760">
	<ele>2613.80</ele>
	<time>2023-08-07T12:34:58.000Z</time>
</trkpt>
<trkpt lat="46.1268720" lon="10.4752760">
	<ele>2613.80</ele>
	<time>2023-08-07T12:34:59.000Z</time>
</trkpt>
<trkpt lat="46.1268720" lon="10.4752760">
	<ele>2613.80</ele>
	<time>2023-08-07T12:35:00.000Z</time>
</trkpt>
<trkpt lat="46.1268720" lon="10.4752760">
	<ele>2613.80</ele>
	<time>2023-08-07T12:35:01.000Z</time>
</trkpt>
<trkpt lat="46.1268720" lon="10.4752760">
	<ele>2613.80</ele>
	<time>2023-08-07T12:35:02.000Z</time>
</trkpt>
<trkpt lat="46.1268720" lon="10.4752760">
	<ele>2613.80</ele>
	<time>2023-08-07T12:35:03.000Z</time>
</trkpt>
<trkpt lat="46.1268720" lon="10.4752760">
	<ele>2613.80</ele>
	<time>2023-08-07T12:35:04.000Z</time>
</trkpt>
<trkpt lat="46.1268720" lon="10.4752760">
	<ele>2613.80</ele>
	<time>2023-08-07T12:35:05.000Z</time>
</trkpt>
<trkpt lat="46.1268720" lon="10.4752760">
	<ele>2613.80</ele>
	<time>2023-08-07T12:35:06.000Z</time>
</trkpt>
<trkpt lat="46.1268720" lon="10.4752770">
	<ele>2613.80</ele>
	<time>2023-08-07T12:35:07.000Z</time>
</trkpt>
<trkpt lat="46.1268730" lon="10.4752780">
	<ele>2613.80</ele>
	<time>2023-08-07T12:35:08.000Z</time>
</trkpt>
<trkpt lat="46.1268730" lon="10.4752780">
	<ele>2613.40</ele>
	<time>2023-08-07T12:35:09.000Z</time>
</trkpt>
<trkpt lat="46.1268730" lon="10.4752790">
	<ele>2613.20</ele>
	<time>2023-08-07T12:35:10.000Z</time>
</trkpt>
<trkpt lat="46.1268730" lon="10.4752790">
	<ele>2613.00</ele>
	<time>2023-08-07T12:35:11.000Z</time>
</trkpt>
<trkpt lat="46.1268730" lon="10.4752860">
	<ele>2613.00</ele>
	<time>2023-08-07T12:35:12.000Z</time>
</trkpt>
<trkpt lat="46.1268730" lon="10.4752870">
	<ele>2612.80</ele>
	<time>2023-08-07T12:35:13.000Z</time>
</trkpt>
<trkpt lat="46.1268730" lon="10.4752870">
	<ele>2612.80</ele>
	<time>2023-08-07T12:35:14.000Z</time>
</trkpt>
<trkpt lat="46.1268730" lon="10.4752870">
	<ele>2612.60</ele>
	<time>2023-08-07T12:35:15.000Z</time>
</trkpt>
<trkpt lat="46.1268730" lon="10.4752870">
	<ele>2612.40</ele>
	<time>2023-08-07T12:35:16.000Z</time>
</trkpt>
<trkpt lat="46.1268730" lon="10.4752830">
	<ele>2612.20</ele>
	<time>2023-08-07T12:35:17.000Z</time>
</trkpt>
<trkpt lat="46.1268730" lon="10.4752790">
	<ele>2612.00</ele>
	<time>2023-08-07T12:35:18.000Z</time>
</trkpt>
<trkpt lat="46.1268730" lon="10.4752790">
	<ele>2612.00</ele>
	<time>2023-08-07T12:35:19.000Z</time>
</trkpt>
<trkpt lat="46.1268730" lon="10.4752790">
	<ele>2611.80</ele>
	<time>2023-08-07T12:35:20.000Z</time>
</trkpt>
<trkpt lat="46.1268730" lon="10.4752790">
	<ele>2611.80</ele>
	<time>2023-08-07T12:35:21.000Z</time>
</trkpt>
<trkpt lat="46.1268730" lon="10.4752770">
	<ele>2611.80</ele>
	<time>2023-08-07T12:35:22.000Z</time>
</trkpt>
<trkpt lat="46.1268720" lon="10.4752760">
	<ele>2611.80</ele>
	<time>2023-08-07T12:35:23.000Z</time>
</trkpt>
<trkpt lat="46.1268710" lon="10.4752760">
	<ele>2611.60</ele>
	<time>2023-08-07T12:35:24.000Z</time>
</trkpt>
<trkpt lat="46.1268690" lon="10.4752760">
	<ele>2611.40</ele>
	<time>2023-08-07T12:35:25.000Z</time>
</trkpt>
<trkpt lat="46.1268620" lon="10.4752760">
	<ele>2611.40</ele>
	<time>2023-08-07T12:35:26.000Z</time>
</trkpt>
<trkpt lat="46.1268580" lon="10.4752740">
	<ele>2611.00</ele>
	<time>2023-08-07T12:35:27.000Z</time>
</trkpt>
<trkpt lat="46.1268570" lon="10.4752690">
	<ele>2610.80</ele>
	<time>2023-08-07T12:35:28.000Z</time>
</trkpt>
<trkpt lat="46.1268560" lon="10.4752680">
	<ele>2610.80</ele>
	<time>2023-08-07T12:35:29.000Z</time>
</trkpt>
<trkpt lat="46.1268550" lon="10.4752630">
	<ele>2610.60</ele>
	<time>2023-08-07T12:35:30.000Z</time>
</trkpt>
<trkpt lat="46.1268510" lon="10.4752570">
	<ele>2610.60</ele>
	<time>2023-08-07T12:35:31.000Z</time>
</trkpt>
<trkpt lat="46.1268470" lon="10.4752480">
	<ele>2610.40</ele>
	<time>2023-08-07T12:35:32.000Z</time>
</trkpt>
<trkpt lat="46.1268460" lon="10.4752460">
	<ele>2610.40</ele>
	<time>2023-08-07T12:35:33.000Z</time>
</trkpt>
<trkpt lat="46.1268450" lon="10.4752450">
	<ele>2610.40</ele>
	<time>2023-08-07T12:35:34.000Z</time>
</trkpt>
<trkpt lat="46.1268440" lon="10.4752440">
	<ele>2610.00</ele>
	<time>2023-08-07T12:35:35.000Z</time>
</trkpt>
<trkpt lat="46.1268430" lon="10.4752370">
	<ele>2609.80</ele>
	<time>2023-08-07T12:35:36.000Z</time>
</trkpt>
<trkpt lat="46.1268460" lon="10.4752240">
	<ele>2609.80</ele>
	<time>2023-08-07T12:35:37.000Z</time>
</trkpt>
<trkpt lat="46.1268460" lon="10.4752080">
	<ele>2609.40</ele>
	<time>2023-08-07T12:35:38.000Z</time>
</trkpt>
<trkpt lat="46.1268480" lon="10.4752000">
	<ele>2609.40</ele>
	<time>2023-08-07T12:35:39.000Z</time>
</trkpt>
<trkpt lat="46.1268480" lon="10.4751900">
	<ele>2609.20</ele>
	<time>2023-08-07T12:35:40.000Z</time>
</trkpt>
<trkpt lat="46.1268490" lon="10.4751800">
	<ele>2609.00</ele>
	<time>2023-08-07T12:35:41.000Z</time>
</trkpt>
<trkpt lat="46.1268500" lon="10.4751680">
	<ele>2608.80</ele>
	<time>2023-08-07T12:35:42.000Z</time>
</trkpt>
<trkpt lat="46.1268520" lon="10.4751550">
	<ele>2608.60</ele>
	<time>2023-08-07T12:35:43.000Z</time>
</trkpt>
<trkpt lat="46.1268530" lon="10.4751380">
	<ele>2608.60</ele>
	<time>2023-08-07T12:35:44.000Z</time>
</trkpt>
<trkpt lat="46.1268570" lon="10.4751290">
	<ele>2608.00</ele>
	<time>2023-08-07T12:35:45.000Z</time>
</trkpt>
<trkpt lat="46.1268620" lon="10.4751250">
	<ele>2607.80</ele>
	<time>2023-08-07T12:35:46.000Z</time>
</trkpt>
<trkpt lat="46.1268620" lon="10.4751210">
	<ele>2607.80</ele>
	<time>2023-08-07T12:35:47.000Z</time>
</trkpt>
<trkpt lat="46.1268660" lon="10.4751160">
	<ele>2607.60</ele>
	<time>2023-08-07T12:35:48.000Z</time>
</trkpt>
<trkpt lat="46.1268700" lon="10.4751090">
	<ele>2607.80</ele>
	<time>2023-08-07T12:35:49.000Z</time>
</trkpt>
<trkpt lat="46.1268710" lon="10.4751010">
	<ele>2607.80</ele>
	<time>2023-08-07T12:35:50.000Z</time>
</trkpt>
<trkpt lat="46.1268730" lon="10.4750960">
	<ele>2608.20</ele>
	<time>2023-08-07T12:35:51.000Z</time>
</trkpt>
<trkpt lat="46.1268770" lon="10.4750910">
	<ele>2608.40</ele>
	<time>2023-08-07T12:35:52.000Z</time>
</trkpt>
<trkpt lat="46.1268810" lon="10.4750880">
	<ele>2608.40</ele>
	<time>2023-08-07T12:35:53.000Z</time>
</trkpt>
<trkpt lat="46.1268820" lon="10.4750830">
	<ele>2608.20</ele>
	<time>2023-08-07T12:35:54.000Z</time>
</trkpt>
<trkpt lat="46.1268820" lon="10.4750790">
	<ele>2608.00</ele>
	<time>2023-08-07T12:35:55.000Z</time>
</trkpt>
<trkpt lat="46.1268800" lon="10.4750740">
	<ele>2608.00</ele>
	<time>2023-08-07T12:35:56.000Z</time>
</trkpt>
<trkpt lat="46.1268770" lon="10.4750720">
	<ele>2607.80</ele>
	<time>2023-08-07T12:35:57.000Z</time>
</trkpt>
<trkpt lat="46.1268740" lon="10.4750700">
	<ele>2607.80</ele>
	<time>2023-08-07T12:35:58.000Z</time>
</trkpt>
<trkpt lat="46.1268730" lon="10.4750720">
	<ele>2607.60</ele>
	<time>2023-08-07T12:35:59.000Z</time>
</trkpt>
<trkpt lat="46.1268750" lon="10.4750750">
	<ele>2607.60</ele>
	<time>2023-08-07T12:36:00.000Z</time>
</trkpt>
<trkpt lat="46.1268750" lon="10.4750710">
	<ele>2607.60</ele>
	<time>2023-08-07T12:36:01.000Z</time>
</trkpt>
<trkpt lat="46.1268750" lon="10.4750730">
	<ele>2607.40</ele>
	<time>2023-08-07T12:36:02.000Z</time>
</trkpt>
<trkpt lat="46.1268730" lon="10.4750670">
	<ele>2607.40</ele>
	<time>2023-08-07T12:36:03.000Z</time>
</trkpt>
<trkpt lat="46.1268700" lon="10.4750630">
	<ele>2607.20</ele>
	<time>2023-08-07T12:36:04.000Z</time>
</trkpt>
<trkpt lat="46.1268690" lon="10.4750610">
	<ele>2607.00</ele>
	<time>2023-08-07T12:36:05.000Z</time>
</trkpt>
<trkpt lat="46.1268680" lon="10.4750640">
	<ele>2607.00</ele>
	<time>2023-08-07T12:36:06.000Z</time>
</trkpt>
<trkpt lat="46.1268680" lon="10.4750640">
	<ele>2606.40</ele>
	<time>2023-08-07T12:36:07.000Z</time>
</trkpt>
<trkpt lat="46.1268680" lon="10.4750640">
	<ele>2606.20</ele>
	<time>2023-08-07T12:36:08.000Z</time>
</trkpt>
<trkpt lat="46.1268680" lon="10.4750640">
	<ele>2606.00</ele>
	<time>2023-08-07T12:36:09.000Z</time>
</trkpt>
<trkpt lat="46.1268680" lon="10.4750640">
	<ele>2605.80</ele>
	<time>2023-08-07T12:36:10.000Z</time>
</trkpt>
<trkpt lat="46.1268680" lon="10.4750640">
	<ele>2605.80</ele>
	<time>2023-08-07T12:36:11.000Z</time>
</trkpt>
<trkpt lat="46.1268680" lon="10.4750640">
	<ele>2605.80</ele>
	<time>2023-08-07T12:36:12.000Z</time>
</trkpt>
<trkpt lat="46.1268680" lon="10.4750640">
	<ele>2605.80</ele>
	<time>2023-08-07T12:36:13.000Z</time>
</trkpt>
<trkpt lat="46.1268680" lon="10.4750640">
	<ele>2605.80</ele>
	<time>2023-08-07T12:36:14.000Z</time>
</trkpt>
<trkpt lat="46.1268680" lon="10.4750640">
	<ele>2605.80</ele>
	<time>2023-08-07T12:36:15.000Z</time>
</trkpt>
<trkpt lat="46.1268690" lon="10.4750640">
	<ele>2605.60</ele>
	<time>2023-08-07T12:36:16.000Z</time>
</trkpt>
<trkpt lat="46.1268690" lon="10.4750640">
	<ele>2605.40</ele>
	<time>2023-08-07T12:36:17.000Z</time>
</trkpt>
<trkpt lat="46.1268690" lon="10.4750640">
	<ele>2605.40</ele>
	<time>2023-08-07T12:36:18.000Z</time>
</trkpt>
<trkpt lat="46.1268690" lon="10.4750640">
	<ele>2605.20</ele>
	<time>2023-08-07T12:36:19.000Z</time>
</trkpt>
<trkpt lat="46.1268690" lon="10.4750640">
	<ele>2605.20</ele>
	<time>2023-08-07T12:36:20.000Z</time>
</trkpt>
<trkpt lat="46.1268690" lon="10.4750640">
	<ele>2605.20</ele>
	<time>2023-08-07T12:36:21.000Z</time>
</trkpt>
<trkpt lat="46.1268690" lon="10.4750640">
	<ele>2605.00</ele>
	<time>2023-08-07T12:36:22.000Z</time>
</trkpt>
<trkpt lat="46.1268690" lon="10.4750640">
	<ele>2605.00</ele>
	<time>2023-08-07T12:36:23.000Z</time>
</trkpt>
<trkpt lat="46.1268690" lon="10.4750640">
	<ele>2605.00</ele>
	<time>2023-08-07T12:36:24.000Z</time>
</trkpt>
<trkpt lat="46.1268690" lon="10.4750640">
	<ele>2605.00</ele>
	<time>2023-08-07T12:36:25.000Z</time>
</trkpt>
<trkpt lat="46.1268690" lon="10.4750630">
	<ele>2604.80</ele>
	<time>2023-08-07T12:36:26.000Z</time>
</trkpt>
<trkpt lat="46.1268690" lon="10.4750620">
	<ele>2604.80</ele>
	<time>2023-08-07T12:36:27.000Z</time>
</trkpt>
<trkpt lat="46.1268680" lon="10.4750610">
	<ele>2604.80</ele>
	<time>2023-08-07T12:36:28.000Z</time>
</trkpt>
<trkpt lat="46.1268680" lon="10.4750510">
	<ele>2604.80</ele>
	<time>2023-08-07T12:36:29.000Z</time>
</trkpt>
<trkpt lat="46.1268680" lon="10.4750470">
	<ele>2604.80</ele>
	<time>2023-08-07T12:36:30.000Z</time>
</trkpt>
<trkpt lat="46.1268680" lon="10.4750400">
	<ele>2604.60</ele>
	<time>2023-08-07T12:36:31.000Z</time>
</trkpt>
<trkpt lat="46.1268650" lon="10.4750320">
	<ele>2604.60</ele>
	<time>2023-08-07T12:36:32.000Z</time>
</trkpt>
<trkpt lat="46.1268650" lon="10.4750230">
	<ele>2604.40</ele>
	<time>2023-08-07T12:36:33.000Z</time>
</trkpt>
<trkpt lat="46.1268690" lon="10.4750000">
	<ele>2604.20</ele>
	<time>2023-08-07T12:36:34.000Z</time>
</trkpt>
<trkpt lat="46.1268670" lon="10.4749770">
	<ele>2604.00</ele>
	<time>2023-08-07T12:36:35.000Z</time>
</trkpt>
<trkpt lat="46.1268670" lon="10.4749600">
	<ele>2603.80</ele>
	<time>2023-08-07T12:36:36.000Z</time>
</trkpt>
<trkpt lat="46.1268660" lon="10.4749500">
	<ele>2603.80</ele>
	<time>2023-08-07T12:36:37.000Z</time>
</trkpt>
<trkpt lat="46.1268650" lon="10.4749370">
	<ele>2603.80</ele>
	<time>2023-08-07T12:36:38.000Z</time>
</trkpt>
<trkpt lat="46.1268670" lon="10.4749240">
	<ele>2603.60</ele>
	<time>2023-08-07T12:36:39.000Z</time>
</trkpt>
<trkpt lat="46.1268670" lon="10.4749170">
	<ele>2603.60</ele>
	<time>2023-08-07T12:36:40.000Z</time>
</trkpt>
<trkpt lat="46.1268660" lon="10.4749100">
	<ele>2603.40</ele>
	<time>2023-08-07T12:36:41.000Z</time>
</trkpt>
<trkpt lat="46.1268650" lon="10.4749050">
	<ele>2603.20</ele>
	<time>2023-08-07T12:36:42.000Z</time>
</trkpt>
<trkpt lat="46.1268730" lon="10.4749020">
	<ele>2603.20</ele>
	<time>2023-08-07T12:36:43.000Z</time>
</trkpt>
<trkpt lat="46.1268750" lon="10.4748990">
	<ele>2603.00</ele>
	<time>2023-08-07T12:36:44.000Z</time>
</trkpt>
<trkpt lat="46.1268750" lon="10.4748970">
	<ele>2603.00</ele>
	<time>2023-08-07T12:36:45.000Z</time>
</trkpt>
<trkpt lat="46.1268750" lon="10.4748950">
	<ele>2603.00</ele>
	<time>2023-08-07T12:36:46.000Z</time>
</trkpt>
<trkpt lat="46.1268750" lon="10.4748940">
	<ele>2603.20</ele>
	<time>2023-08-07T12:36:47.000Z</time>
</trkpt>
<trkpt lat="46.1268750" lon="10.4748940">
	<ele>2603.20</ele>
	<time>2023-08-07T12:36:48.000Z</time>
</trkpt>
<trkpt lat="46.1268750" lon="10.4748940">
	<ele>2603.40</ele>
	<time>2023-08-07T12:36:49.000Z</time>
</trkpt>
<trkpt lat="46.1268750" lon="10.4748940">
	<ele>2603.40</ele>
	<time>2023-08-07T12:36:50.000Z</time>
</trkpt>
<trkpt lat="46.1268750" lon="10.4748940">
	<ele>2603.40</ele>
	<time>2023-08-07T12:36:51.000Z</time>
</trkpt>
<trkpt lat="46.1268750" lon="10.4748940">
	<ele>2603.40</ele>
	<time>2023-08-07T12:36:52.000Z</time>
</trkpt>
<trkpt lat="46.1268750" lon="10.4748940">
	<ele>2603.40</ele>
	<time>2023-08-07T12:36:53.000Z</time>
</trkpt>
<trkpt lat="46.1268750" lon="10.4748940">
	<ele>2603.40</ele>
	<time>2023-08-07T12:36:54.000Z</time>
</trkpt>
<trkpt lat="46.1268750" lon="10.4748940">
	<ele>2603.40</ele>
	<time>2023-08-07T12:36:55.000Z</time>
</trkpt>
<trkpt lat="46.1268750" lon="10.4748940">
	<ele>2603.60</ele>
	<time>2023-08-07T12:36:56.000Z</time>
</trkpt>
<trkpt lat="46.1268750" lon="10.4748940">
	<ele>2603.60</ele>
	<time>2023-08-07T12:36:57.000Z</time>
</trkpt>
<trkpt lat="46.1268750" lon="10.4748940">
	<ele>2603.60</ele>
	<time>2023-08-07T12:36:58.000Z</time>
</trkpt>
<trkpt lat="46.1268750" lon="10.4748940">
	<ele>2603.60</ele>
	<time>2023-08-07T12:36:59.000Z</time>
</trkpt>
<trkpt lat="46.1268750" lon="10.4748940">
	<ele>2603.60</ele>
	<time>2023-08-07T12:37:00.000Z</time>
</trkpt>
<trkpt lat="46.1268750" lon="10.4748940">
	<ele>2603.60</ele>
	<time>2023-08-07T12:37:01.000Z</time>
</trkpt>
<trkpt lat="46.1268750" lon="10.4748940">
	<ele>2603.60</ele>
	<time>2023-08-07T12:37:02.000Z</time>
</trkpt>
<trkpt lat="46.1268750" lon="10.4748940">
	<ele>2603.40</ele>
	<time>2023-08-07T12:37:03.000Z</time>
</trkpt>
<trkpt lat="46.1268750" lon="10.4748940">
	<ele>2603.60</ele>
	<time>2023-08-07T12:37:04.000Z</time>
</trkpt>
<trkpt lat="46.1268750" lon="10.4748940">
	<ele>2603.40</ele>
	<time>2023-08-07T12:37:05.000Z</time>
</trkpt>
<trkpt lat="46.1268750" lon="10.4748930">
	<ele>2603.40</ele>
	<time>2023-08-07T12:37:06.000Z</time>
</trkpt>
<trkpt lat="46.1268740" lon="10.4748920">
	<ele>2603.40</ele>
	<time>2023-08-07T12:37:07.000Z</time>
</trkpt>
<trkpt lat="46.1268720" lon="10.4748910">
	<ele>2603.40</ele>
	<time>2023-08-07T12:37:08.000Z</time>
</trkpt>
<trkpt lat="46.1268720" lon="10.4748890">
	<ele>2603.40</ele>
	<time>2023-08-07T12:37:09.000Z</time>
</trkpt>
<trkpt lat="46.1268720" lon="10.4748870">
	<ele>2603.20</ele>
	<time>2023-08-07T12:37:10.000Z</time>
</trkpt>
<trkpt lat="46.1268720" lon="10.4748860">
	<ele>2603.00</ele>
	<time>2023-08-07T12:37:11.000Z</time>
</trkpt>
<trkpt lat="46.1268720" lon="10.4748850">
	<ele>2603.00</ele>
	<time>2023-08-07T12:37:12.000Z</time>
</trkpt>
<trkpt lat="46.1268710" lon="10.4748850">
	<ele>2603.00</ele>
	<time>2023-08-07T12:37:13.000Z</time>
</trkpt>
<trkpt lat="46.1268690" lon="10.4748830">
	<ele>2603.00</ele>
	<time>2023-08-07T12:37:14.000Z</time>
</trkpt>
<trkpt lat="46.1268690" lon="10.4748820">
	<ele>2603.20</ele>
	<time>2023-08-07T12:37:15.000Z</time>
</trkpt>
<trkpt lat="46.1268680" lon="10.4748800">
	<ele>2603.20</ele>
	<time>2023-08-07T12:37:16.000Z</time>
</trkpt>
<trkpt lat="46.1268680" lon="10.4748800">
	<ele>2603.20</ele>
	<time>2023-08-07T12:37:17.000Z</time>
</trkpt>
<trkpt lat="46.1268680" lon="10.4748800">
	<ele>2603.20</ele>
	<time>2023-08-07T12:37:18.000Z</time>
</trkpt>
<trkpt lat="46.1268680" lon="10.4748800">
	<ele>2603.20</ele>
	<time>2023-08-07T12:37:19.000Z</time>
</trkpt>
<trkpt lat="46.1268680" lon="10.4748800">
	<ele>2603.20</ele>
	<time>2023-08-07T12:37:20.000Z</time>
</trkpt>
<trkpt lat="46.1268680" lon="10.4748790">
	<ele>2603.20</ele>
	<time>2023-08-07T12:37:21.000Z</time>
</trkpt>
<trkpt lat="46.1268670" lon="10.4748780">
	<ele>2603.20</ele>
	<time>2023-08-07T12:37:22.000Z</time>
</trkpt>
<trkpt lat="46.1268660" lon="10.4748780">
	<ele>2603.20</ele>
	<time>2023-08-07T12:37:23.000Z</time>
</trkpt>
<trkpt lat="46.1268640" lon="10.4748770">
	<ele>2603.20</ele>
	<time>2023-08-07T12:37:24.000Z</time>
</trkpt>
<trkpt lat="46.1268630" lon="10.4748760">
	<ele>2603.20</ele>
	<time>2023-08-07T12:37:25.000Z</time>
</trkpt>
<trkpt lat="46.1268620" lon="10.4748750">
	<ele>2603.00</ele>
	<time>2023-08-07T12:37:26.000Z</time>
</trkpt>
<trkpt lat="46.1268580" lon="10.4748740">
	<ele>2603.00</ele>
	<time>2023-08-07T12:37:27.000Z</time>
</trkpt>
<trkpt lat="46.1268560" lon="10.4748710">
	<ele>2602.80</ele>
	<time>2023-08-07T12:37:28.000Z</time>
</trkpt>
<trkpt lat="46.1268540" lon="10.4748690">
	<ele>2602.60</ele>
	<time>2023-08-07T12:37:29.000Z</time>
</trkpt>
<trkpt lat="46.1268510" lon="10.4748690">
	<ele>2602.60</ele>
	<time>2023-08-07T12:37:30.000Z</time>
</trkpt>
<trkpt lat="46.1268500" lon="10.4748690">
	<ele>2602.40</ele>
	<time>2023-08-07T12:37:31.000Z</time>
</trkpt>
<trkpt lat="46.1268490" lon="10.4748680">
	<ele>2602.40</ele>
	<time>2023-08-07T12:37:32.000Z</time>
</trkpt>
<trkpt lat="46.1268460" lon="10.4748680">
	<ele>2602.40</ele>
	<time>2023-08-07T12:37:33.000Z</time>
</trkpt>
<trkpt lat="46.1268440" lon="10.4748670">
	<ele>2602.20</ele>
	<time>2023-08-07T12:37:34.000Z</time>
</trkpt>
<trkpt lat="46.1268420" lon="10.4748670">
	<ele>2602.00</ele>
	<time>2023-08-07T12:37:35.000Z</time>
</trkpt>
<trkpt lat="46.1268420" lon="10.4748610">
	<ele>2601.60</ele>
	<time>2023-08-07T12:37:36.000Z</time>
</trkpt>
<trkpt lat="46.1268420" lon="10.4748510">
	<ele>2601.40</ele>
	<time>2023-08-07T12:37:37.000Z</time>
</trkpt>
<trkpt lat="46.1268420" lon="10.4748450">
	<ele>2601.20</ele>
	<time>2023-08-07T12:37:38.000Z</time>
</trkpt>
<trkpt lat="46.1268400" lon="10.4748400">
	<ele>2601.20</ele>
	<time>2023-08-07T12:37:39.000Z</time>
</trkpt>
<trkpt lat="46.1268350" lon="10.4748350">
	<ele>2601.00</ele>
	<time>2023-08-07T12:37:40.000Z</time>
</trkpt>
<trkpt lat="46.1268330" lon="10.4748300">
	<ele>2601.00</ele>
	<time>2023-08-07T12:37:41.000Z</time>
</trkpt>
<trkpt lat="46.1268310" lon="10.4748240">
	<ele>2601.00</ele>
	<time>2023-08-07T12:37:42.000Z</time>
</trkpt>
<trkpt lat="46.1268300" lon="10.4748210">
	<ele>2601.00</ele>
	<time>2023-08-07T12:37:43.000Z</time>
</trkpt>
<trkpt lat="46.1268290" lon="10.4748170">
	<ele>2601.00</ele>
	<time>2023-08-07T12:37:44.000Z</time>
</trkpt>
<trkpt lat="46.1268280" lon="10.4748150">
	<ele>2601.00</ele>
	<time>2023-08-07T12:37:45.000Z</time>
</trkpt>
<trkpt lat="46.1268270" lon="10.4748140">
	<ele>2600.80</ele>
	<time>2023-08-07T12:37:46.000Z</time>
</trkpt>
<trkpt lat="46.1268270" lon="10.4748130">
	<ele>2600.80</ele>
	<time>2023-08-07T12:37:47.000Z</time>
</trkpt>
<trkpt lat="46.1268260" lon="10.4748120">
	<ele>2600.60</ele>
	<time>2023-08-07T12:37:48.000Z</time>
</trkpt>
<trkpt lat="46.1268250" lon="10.4748110">
	<ele>2600.40</ele>
	<time>2023-08-07T12:37:49.000Z</time>
</trkpt>
<trkpt lat="46.1268250" lon="10.4748110">
	<ele>2600.40</ele>
	<time>2023-08-07T12:37:50.000Z</time>
</trkpt>
<trkpt lat="46.1268230" lon="10.4748010">
	<ele>2600.20</ele>
	<time>2023-08-07T12:37:51.000Z</time>
</trkpt>
<trkpt lat="46.1268260" lon="10.4747870">
	<ele>2600.00</ele>
	<time>2023-08-07T12:37:52.000Z</time>
</trkpt>
<trkpt lat="46.1268380" lon="10.4747860">
	<ele>2600.00</ele>
	<time>2023-08-07T12:37:53.000Z</time>
</trkpt>
<trkpt lat="46.1268470" lon="10.4747790">
	<ele>2599.80</ele>
	<time>2023-08-07T12:37:54.000Z</time>
</trkpt>
<trkpt lat="46.1268500" lon="10.4747700">
	<ele>2599.60</ele>
	<time>2023-08-07T12:37:55.000Z</time>
</trkpt>
<trkpt lat="46.1268480" lon="10.4747510">
	<ele>2599.40</ele>
	<time>2023-08-07T12:37:56.000Z</time>
</trkpt>
<trkpt lat="46.1268470" lon="10.4747290">
	<ele>2599.40</ele>
	<time>2023-08-07T12:37:57.000Z</time>
</trkpt>
<trkpt lat="46.1268470" lon="10.4747160">
	<ele>2599.40</ele>
	<time>2023-08-07T12:37:58.000Z</time>
</trkpt>
<trkpt lat="46.1268440" lon="10.4747030">
	<ele>2599.20</ele>
	<time>2023-08-07T12:37:59.000Z</time>
</trkpt>
<trkpt lat="46.1268370" lon="10.4746930">
	<ele>2599.20</ele>
	<time>2023-08-07T12:38:00.000Z</time>
</trkpt>
<trkpt lat="46.1268340" lon="10.4746900">
	<ele>2599.20</ele>
	<time>2023-08-07T12:38:01.000Z</time>
</trkpt>
<trkpt lat="46.1268330" lon="10.4746890">
	<ele>2599.00</ele>
	<time>2023-08-07T12:38:02.000Z</time>
</trkpt>
<trkpt lat="46.1268300" lon="10.4746890">
	<ele>2599.00</ele>
	<time>2023-08-07T12:38:03.000Z</time>
</trkpt>
<trkpt lat="46.1268290" lon="10.4746850">
	<ele>2598.80</ele>
	<time>2023-08-07T12:38:04.000Z</time>
</trkpt>
<trkpt lat="46.1268320" lon="10.4746880">
	<ele>2598.80</ele>
	<time>2023-08-07T12:38:05.000Z</time>
</trkpt>
<trkpt lat="46.1268360" lon="10.4746930">
	<ele>2598.80</ele>
	<time>2023-08-07T12:38:06.000Z</time>
</trkpt>
<trkpt lat="46.1268410" lon="10.4746950">
	<ele>2598.60</ele>
	<time>2023-08-07T12:38:07.000Z</time>
</trkpt>
<trkpt lat="46.1268440" lon="10.4746960">
	<ele>2598.60</ele>
	<time>2023-08-07T12:38:08.000Z</time>
</trkpt>
<trkpt lat="46.1268470" lon="10.4746960">
	<ele>2598.60</ele>
	<time>2023-08-07T12:38:09.000Z</time>
</trkpt>
<trkpt lat="46.1268500" lon="10.4746940">
	<ele>2598.60</ele>
	<time>2023-08-07T12:38:10.000Z</time>
</trkpt>
<trkpt lat="46.1268500" lon="10.4746940">
	<ele>2598.60</ele>
	<time>2023-08-07T12:38:11.000Z</time>
</trkpt>
<trkpt lat="46.1268460" lon="10.4746970">
	<ele>2598.60</ele>
	<time>2023-08-07T12:38:12.000Z</time>
</trkpt>
<trkpt lat="46.1268450" lon="10.4746970">
	<ele>2598.60</ele>
	<time>2023-08-07T12:38:13.000Z</time>
</trkpt>
<trkpt lat="46.1268450" lon="10.4746970">
	<ele>2598.60</ele>
	<time>2023-08-07T12:38:14.000Z</time>
</trkpt>
<trkpt lat="46.1268450" lon="10.4746970">
	<ele>2598.60</ele>
	<time>2023-08-07T12:38:15.000Z</time>
</trkpt>
<trkpt lat="46.1268450" lon="10.4746970">
	<ele>2598.60</ele>
	<time>2023-08-07T12:38:16.000Z</time>
</trkpt>
<trkpt lat="46.1268450" lon="10.4746970">
	<ele>2598.60</ele>
	<time>2023-08-07T12:38:17.000Z</time>
</trkpt>
<trkpt lat="46.1268450" lon="10.4746970">
	<ele>2598.60</ele>
	<time>2023-08-07T12:38:18.000Z</time>
</trkpt>
<trkpt lat="46.1268450" lon="10.4746970">
	<ele>2598.80</ele>
	<time>2023-08-07T12:38:19.000Z</time>
</trkpt>
<trkpt lat="46.1268450" lon="10.4746970">
	<ele>2598.80</ele>
	<time>2023-08-07T12:38:20.000Z</time>
</trkpt>
<trkpt lat="46.1268450" lon="10.4746970">
	<ele>2598.80</ele>
	<time>2023-08-07T12:38:21.000Z</time>
</trkpt>
<trkpt lat="46.1268450" lon="10.4746970">
	<ele>2598.60</ele>
	<time>2023-08-07T12:38:22.000Z</time>
</trkpt>
<trkpt lat="46.1268450" lon="10.4746970">
	<ele>2598.20</ele>
	<time>2023-08-07T12:38:23.000Z</time>
</trkpt>
<trkpt lat="46.1268450" lon="10.4746960">
	<ele>2598.20</ele>
	<time>2023-08-07T12:38:24.000Z</time>
</trkpt>
<trkpt lat="46.1268450" lon="10.4746960">
	<ele>2598.00</ele>
	<time>2023-08-07T12:38:25.000Z</time>
</trkpt>
<trkpt lat="46.1268450" lon="10.4746950">
	<ele>2598.00</ele>
	<time>2023-08-07T12:38:26.000Z</time>
</trkpt>
<trkpt lat="46.1268450" lon="10.4746940">
	<ele>2598.00</ele>
	<time>2023-08-07T12:38:27.000Z</time>
</trkpt>
<trkpt lat="46.1268440" lon="10.4746940">
	<ele>2598.00</ele>
	<time>2023-08-07T12:38:28.000Z</time>
</trkpt>
<trkpt lat="46.1268440" lon="10.4746940">
	<ele>2598.00</ele>
	<time>2023-08-07T12:38:29.000Z</time>
</trkpt>
<trkpt lat="46.1268440" lon="10.4746930">
	<ele>2598.00</ele>
	<time>2023-08-07T12:38:30.000Z</time>
</trkpt>
<trkpt lat="46.1268440" lon="10.4746930">
	<ele>2598.00</ele>
	<time>2023-08-07T12:38:31.000Z</time>
</trkpt>
<trkpt lat="46.1268420" lon="10.4746870">
	<ele>2598.00</ele>
	<time>2023-08-07T12:38:32.000Z</time>
</trkpt>
<trkpt lat="46.1268410" lon="10.4746860">
	<ele>2598.00</ele>
	<time>2023-08-07T12:38:33.000Z</time>
</trkpt>
<trkpt lat="46.1268410" lon="10.4746850">
	<ele>2598.00</ele>
	<time>2023-08-07T12:38:34.000Z</time>
</trkpt>
<trkpt lat="46.1268410" lon="10.4746840">
	<ele>2598.00</ele>
	<time>2023-08-07T12:38:35.000Z</time>
</trkpt>
<trkpt lat="46.1268410" lon="10.4746830">
	<ele>2598.00</ele>
	<time>2023-08-07T12:38:36.000Z</time>
</trkpt>
<trkpt lat="46.1268410" lon="10.4746820">
	<ele>2597.80</ele>
	<time>2023-08-07T12:38:37.000Z</time>
</trkpt>
<trkpt lat="46.1268400" lon="10.4746820">
	<ele>2597.60</ele>
	<time>2023-08-07T12:38:38.000Z</time>
</trkpt>
<trkpt lat="46.1268400" lon="10.4746820">
	<ele>2597.60</ele>
	<time>2023-08-07T12:38:39.000Z</time>
</trkpt>
<trkpt lat="46.1268400" lon="10.4746820">
	<ele>2597.60</ele>
	<time>2023-08-07T12:38:40.000Z</time>
</trkpt>
<trkpt lat="46.1268390" lon="10.4746820">
	<ele>2597.40</ele>
	<time>2023-08-07T12:38:41.000Z</time>
</trkpt>
<trkpt lat="46.1268390" lon="10.4746820">
	<ele>2597.40</ele>
	<time>2023-08-07T12:38:42.000Z</time>
</trkpt>
<trkpt lat="46.1268390" lon="10.4746820">
	<ele>2597.40</ele>
	<time>2023-08-07T12:38:43.000Z</time>
</trkpt>
<trkpt lat="46.1268390" lon="10.4746820">
	<ele>2597.40</ele>
	<time>2023-08-07T12:38:44.000Z</time>
</trkpt>
<trkpt lat="46.1268380" lon="10.4746820">
	<ele>2597.40</ele>
	<time>2023-08-07T12:38:45.000Z</time>
</trkpt>
<trkpt lat="46.1268380" lon="10.4746820">
	<ele>2597.20</ele>
	<time>2023-08-07T12:38:46.000Z</time>
</trkpt>
<trkpt lat="46.1268380" lon="10.4746820">
	<ele>2597.20</ele>
	<time>2023-08-07T12:38:47.000Z</time>
</trkpt>
<trkpt lat="46.1268320" lon="10.4746820">
	<ele>2597.20</ele>
	<time>2023-08-07T12:38:48.000Z</time>
</trkpt>
<trkpt lat="46.1268300" lon="10.4746820">
	<ele>2597.20</ele>
	<time>2023-08-07T12:38:49.000Z</time>
</trkpt>
<trkpt lat="46.1268270" lon="10.4746830">
	<ele>2597.20</ele>
	<time>2023-08-07T12:38:50.000Z</time>
</trkpt>
<trkpt lat="46.1268250" lon="10.4746830">
	<ele>2597.20</ele>
	<time>2023-08-07T12:38:51.000Z</time>
</trkpt>
<trkpt lat="46.1268230" lon="10.4746840">
	<ele>2597.40</ele>
	<time>2023-08-07T12:38:52.000Z</time>
</trkpt>
<trkpt lat="46.1268230" lon="10.4746840">
	<ele>2597.60</ele>
	<time>2023-08-07T12:38:53.000Z</time>
</trkpt>
<trkpt lat="46.1268230" lon="10.4746850">
	<ele>2597.80</ele>
	<time>2023-08-07T12:38:54.000Z</time>
</trkpt>
<trkpt lat="46.1268210" lon="10.4746850">
	<ele>2597.80</ele>
	<time>2023-08-07T12:38:55.000Z</time>
</trkpt>
<trkpt lat="46.1268170" lon="10.4746860">
	<ele>2597.80</ele>
	<time>2023-08-07T12:38:56.000Z</time>
</trkpt>
<trkpt lat="46.1268170" lon="10.4746860">
	<ele>2597.80</ele>
	<time>2023-08-07T12:38:57.000Z</time>
</trkpt>
<trkpt lat="46.1268150" lon="10.4746870">
	<ele>2598.00</ele>
	<time>2023-08-07T12:38:58.000Z</time>
</trkpt>
<trkpt lat="46.1268130" lon="10.4746870">
	<ele>2598.00</ele>
	<time>2023-08-07T12:38:59.000Z</time>
</trkpt>
<trkpt lat="46.1268130" lon="10.4746870">
	<ele>2598.00</ele>
	<time>2023-08-07T12:39:00.000Z</time>
</trkpt>
<trkpt lat="46.1268120" lon="10.4746870">
	<ele>2597.80</ele>
	<time>2023-08-07T12:39:01.000Z</time>
</trkpt>
<trkpt lat="46.1268110" lon="10.4746870">
	<ele>2597.80</ele>
	<time>2023-08-07T12:39:02.000Z</time>
</trkpt>
<trkpt lat="46.1268090" lon="10.4746870">
	<ele>2597.80</ele>
	<time>2023-08-07T12:39:03.000Z</time>
</trkpt>
<trkpt lat="46.1268080" lon="10.4746870">
	<ele>2597.80</ele>
	<time>2023-08-07T12:39:04.000Z</time>
</trkpt>
<trkpt lat="46.1268070" lon="10.4746870">
	<ele>2597.80</ele>
	<time>2023-08-07T12:39:05.000Z</time>
</trkpt>
<trkpt lat="46.1268070" lon="10.4746870">
	<ele>2597.80</ele>
	<time>2023-08-07T12:39:06.000Z</time>
</trkpt>
<trkpt lat="46.1268070" lon="10.4746870">
	<ele>2597.80</ele>
	<time>2023-08-07T12:39:07.000Z</time>
</trkpt>
<trkpt lat="46.1268070" lon="10.4746870">
	<ele>2597.80</ele>
	<time>2023-08-07T12:39:08.000Z</time>
</trkpt>
<trkpt lat="46.1268070" lon="10.4746870">
	<ele>2598.00</ele>
	<time>2023-08-07T12:39:09.000Z</time>
</trkpt>
<trkpt lat="46.1268070" lon="10.4746870">
	<ele>2598.00</ele>
	<time>2023-08-07T12:39:10.000Z</time>
</trkpt>
<trkpt lat="46.1268070" lon="10.4746870">
	<ele>2598.00</ele>
	<time>2023-08-07T12:39:11.000Z</time>
</trkpt>
<trkpt lat="46.1268060" lon="10.4746860">
	<ele>2598.00</ele>
	<time>2023-08-07T12:39:12.000Z</time>
</trkpt>
<trkpt lat="46.1268060" lon="10.4746850">
	<ele>2598.00</ele>
	<time>2023-08-07T12:39:13.000Z</time>
</trkpt>
<trkpt lat="46.1268060" lon="10.4746850">
	<ele>2598.00</ele>
	<time>2023-08-07T12:39:14.000Z</time>
</trkpt>
<trkpt lat="46.1268050" lon="10.4746840">
	<ele>2597.80</ele>
	<time>2023-08-07T12:39:15.000Z</time>
</trkpt>
<trkpt lat="46.1268050" lon="10.4746840">
	<ele>2597.80</ele>
	<time>2023-08-07T12:39:16.000Z</time>
</trkpt>
<trkpt lat="46.1268050" lon="10.4746830">
	<ele>2597.60</ele>
	<time>2023-08-07T12:39:17.000Z</time>
</trkpt>
<trkpt lat="46.1268050" lon="10.4746830">
	<ele>2597.60</ele>
	<time>2023-08-07T12:39:18.000Z</time>
</trkpt>
<trkpt lat="46.1268040" lon="10.4746830">
	<ele>2597.60</ele>
	<time>2023-08-07T12:39:19.000Z</time>
</trkpt>
<trkpt lat="46.1268040" lon="10.4746830">
	<ele>2597.40</ele>
	<time>2023-08-07T12:39:20.000Z</time>
</trkpt>
<trkpt lat="46.1268040" lon="10.4746830">
	<ele>2597.40</ele>
	<time>2023-08-07T12:39:21.000Z</time>
</trkpt>
<trkpt lat="46.1268040" lon="10.4746830">
	<ele>2597.20</ele>
	<time>2023-08-07T12:39:22.000Z</time>
</trkpt>
<trkpt lat="46.1268030" lon="10.4746830">
	<ele>2597.20</ele>
	<time>2023-08-07T12:39:23.000Z</time>
</trkpt>
<trkpt lat="46.1268030" lon="10.4746830">
	<ele>2597.40</ele>
	<time>2023-08-07T12:39:24.000Z</time>
</trkpt>
<trkpt lat="46.1268030" lon="10.4746830">
	<ele>2597.40</ele>
	<time>2023-08-07T12:39:25.000Z</time>
</trkpt>
<trkpt lat="46.1268030" lon="10.4746830">
	<ele>2597.60</ele>
	<time>2023-08-07T12:39:26.000Z</time>
</trkpt>
<trkpt lat="46.1268020" lon="10.4746830">
	<ele>2597.60</ele>
	<time>2023-08-07T12:39:27.000Z</time>
</trkpt>
<trkpt lat="46.1268010" lon="10.4746830">
	<ele>2597.80</ele>
	<time>2023-08-07T12:39:28.000Z</time>
</trkpt>
<trkpt lat="46.1268010" lon="10.4746830">
	<ele>2597.80</ele>
	<time>2023-08-07T12:39:29.000Z</time>
</trkpt>
<trkpt lat="46.1268000" lon="10.4746840">
	<ele>2597.80</ele>
	<time>2023-08-07T12:39:30.000Z</time>
</trkpt>
<trkpt lat="46.1267990" lon="10.4746860">
	<ele>2597.80</ele>
	<time>2023-08-07T12:39:31.000Z</time>
</trkpt>
<trkpt lat="46.1267980" lon="10.4746890">
	<ele>2597.80</ele>
	<time>2023-08-07T12:39:32.000Z</time>
</trkpt>
<trkpt lat="46.1267960" lon="10.4746920">
	<ele>2597.60</ele>
	<time>2023-08-07T12:39:33.000Z</time>
</trkpt>
<trkpt lat="46.1267940" lon="10.4746960">
	<ele>2597.60</ele>
	<time>2023-08-07T12:39:34.000Z</time>
</trkpt>
<trkpt lat="46.1267930" lon="10.4746980">
	<ele>2597.40</ele>
	<time>2023-08-07T12:39:35.000Z</time>
</trkpt>
<trkpt lat="46.1267920" lon="10.4747000">
	<ele>2597.60</ele>
	<time>2023-08-07T12:39:36.000Z</time>
</trkpt>
<trkpt lat="46.1267920" lon="10.4747020">
	<ele>2597.60</ele>
	<time>2023-08-07T12:39:37.000Z</time>
</trkpt>
<trkpt lat="46.1267910" lon="10.4747040">
	<ele>2597.60</ele>
	<time>2023-08-07T12:39:38.000Z</time>
</trkpt>
<trkpt lat="46.1267910" lon="10.4747050">
	<ele>2597.60</ele>
	<time>2023-08-07T12:39:39.000Z</time>
</trkpt>
<trkpt lat="46.1267910" lon="10.4747070">
	<ele>2597.60</ele>
	<time>2023-08-07T12:39:40.000Z</time>
</trkpt>
<trkpt lat="46.1267910" lon="10.4747080">
	<ele>2597.80</ele>
	<time>2023-08-07T12:39:41.000Z</time>
</trkpt>
<trkpt lat="46.1267910" lon="10.4747100">
	<ele>2597.80</ele>
	<time>2023-08-07T12:39:42.000Z</time>
</trkpt>
<trkpt lat="46.1267900" lon="10.4747110">
	<ele>2597.80</ele>
	<time>2023-08-07T12:39:43.000Z</time>
</trkpt>
<trkpt lat="46.1267900" lon="10.4747110">
	<ele>2597.60</ele>
	<time>2023-08-07T12:39:44.000Z</time>
</trkpt>
<trkpt lat="46.1267900" lon="10.4747120">
	<ele>2597.60</ele>
	<time>2023-08-07T12:39:45.000Z</time>
</trkpt>
<trkpt lat="46.1267900" lon="10.4747120">
	<ele>2597.60</ele>
	<time>2023-08-07T12:39:46.000Z</time>
</trkpt>
<trkpt lat="46.1267870" lon="10.4747140">
	<ele>2597.80</ele>
	<time>2023-08-07T12:39:47.000Z</time>
</trkpt>
<trkpt lat="46.1267860" lon="10.4747140">
	<ele>2597.80</ele>
	<time>2023-08-07T12:39:48.000Z</time>
</trkpt>
<trkpt lat="46.1267860" lon="10.4747140">
	<ele>2597.80</ele>
	<time>2023-08-07T12:39:49.000Z</time>
</trkpt>
<trkpt lat="46.1267860" lon="10.4747150">
	<ele>2597.80</ele>
	<time>2023-08-07T12:39:50.000Z</time>
</trkpt>
<trkpt lat="46.1267850" lon="10.4747150">
	<ele>2598.00</ele>
	<time>2023-08-07T12:39:51.000Z</time>
</trkpt>
<trkpt lat="46.1267850" lon="10.4747150">
	<ele>2598.00</ele>
	<time>2023-08-07T12:39:52.000Z</time>
</trkpt>
<trkpt lat="46.1267850" lon="10.4747150">
	<ele>2598.20</ele>
	<time>2023-08-07T12:39:53.000Z</time>
</trkpt>
<trkpt lat="46.1267850" lon="10.4747150">
	<ele>2598.20</ele>
	<time>2023-08-07T12:39:54.000Z</time>
</trkpt>
<trkpt lat="46.1267850" lon="10.4747150">
	<ele>2598.20</ele>
	<time>2023-08-07T12:39:55.000Z</time>
</trkpt>
<trkpt lat="46.1267850" lon="10.4747150">
	<ele>2598.20</ele>
	<time>2023-08-07T12:39:56.000Z</time>
</trkpt>
<trkpt lat="46.1267850" lon="10.4747150">
	<ele>2598.20</ele>
	<time>2023-08-07T12:39:57.000Z</time>
</trkpt>
<trkpt lat="46.1267850" lon="10.4747150">
	<ele>2598.20</ele>
	<time>2023-08-07T12:39:58.000Z</time>
</trkpt>
<trkpt lat="46.1267850" lon="10.4747150">
	<ele>2598.20</ele>
	<time>2023-08-07T12:39:59.000Z</time>
</trkpt>
<trkpt lat="46.1267850" lon="10.4747140">
	<ele>2598.00</ele>
	<time>2023-08-07T12:40:00.000Z</time>
</trkpt>
<trkpt lat="46.1267850" lon="10.4747140">
	<ele>2598.00</ele>
	<time>2023-08-07T12:40:01.000Z</time>
</trkpt>
<trkpt lat="46.1267860" lon="10.4747140">
	<ele>2597.80</ele>
	<time>2023-08-07T12:40:02.000Z</time>
</trkpt>
<trkpt lat="46.1267870" lon="10.4747140">
	<ele>2597.80</ele>
	<time>2023-08-07T12:40:03.000Z</time>
</trkpt>
<trkpt lat="46.1267880" lon="10.4747140">
	<ele>2597.60</ele>
	<time>2023-08-07T12:40:04.000Z</time>
</trkpt>
<trkpt lat="46.1267880" lon="10.4747130">
	<ele>2597.60</ele>
	<time>2023-08-07T12:40:05.000Z</time>
</trkpt>
<trkpt lat="46.1267890" lon="10.4747130">
	<ele>2597.60</ele>
	<time>2023-08-07T12:40:06.000Z</time>
</trkpt>
<trkpt lat="46.1267890" lon="10.4747120">
	<ele>2597.60</ele>
	<time>2023-08-07T12:40:07.000Z</time>
</trkpt>
<trkpt lat="46.1267900" lon="10.4747120">
	<ele>2597.60</ele>
	<time>2023-08-07T12:40:08.000Z</time>
</trkpt>
<trkpt lat="46.1267900" lon="10.4747110">
	<ele>2597.60</ele>
	<time>2023-08-07T12:40:09.000Z</time>
</trkpt>
<trkpt lat="46.1267900" lon="10.4747110">
	<ele>2597.60</ele>
	<time>2023-08-07T12:40:10.000Z</time>
</trkpt>
<trkpt lat="46.1267900" lon="10.4747100">
	<ele>2597.60</ele>
	<time>2023-08-07T12:40:11.000Z</time>
</trkpt>
<trkpt lat="46.1267900" lon="10.4747090">
	<ele>2597.80</ele>
	<time>2023-08-07T12:40:12.000Z</time>
</trkpt>
<trkpt lat="46.1267900" lon="10.4747090">
	<ele>2597.80</ele>
	<time>2023-08-07T12:40:13.000Z</time>
</trkpt>
<trkpt lat="46.1267900" lon="10.4747090">
	<ele>2597.80</ele>
	<time>2023-08-07T12:40:14.000Z</time>
</trkpt>
<trkpt lat="46.1267900" lon="10.4747080">
	<ele>2597.80</ele>
	<time>2023-08-07T12:40:15.000Z</time>
</trkpt>
<trkpt lat="46.1267900" lon="10.4747080">
	<ele>2597.80</ele>
	<time>2023-08-07T12:40:16.000Z</time>
</trkpt>
<trkpt lat="46.1267900" lon="10.4747080">
	<ele>2597.80</ele>
	<time>2023-08-07T12:40:17.000Z</time>
</trkpt>
<trkpt lat="46.1267900" lon="10.4747080">
	<ele>2597.80</ele>
	<time>2023-08-07T12:40:18.000Z</time>
</trkpt>
<trkpt lat="46.1267900" lon="10.4747080">
	<ele>2597.80</ele>
	<time>2023-08-07T12:40:19.000Z</time>
</trkpt>
<trkpt lat="46.1267900" lon="10.4747080">
	<ele>2597.60</ele>
	<time>2023-08-07T12:40:20.000Z</time>
</trkpt>
<trkpt lat="46.1267900" lon="10.4747080">
	<ele>2597.60</ele>
	<time>2023-08-07T12:40:21.000Z</time>
</trkpt>
<trkpt lat="46.1267900" lon="10.4747070">
	<ele>2597.40</ele>
	<time>2023-08-07T12:40:22.000Z</time>
</trkpt>
<trkpt lat="46.1267890" lon="10.4747070">
	<ele>2597.40</ele>
	<time>2023-08-07T12:40:23.000Z</time>
</trkpt>
<trkpt lat="46.1267890" lon="10.4747070">
	<ele>2597.40</ele>
	<time>2023-08-07T12:40:24.000Z</time>
</trkpt>
<trkpt lat="46.1267880" lon="10.4747070">
	<ele>2597.40</ele>
	<time>2023-08-07T12:40:25.000Z</time>
</trkpt>
<trkpt lat="46.1267880" lon="10.4747070">
	<ele>2597.40</ele>
	<time>2023-08-07T12:40:26.000Z</time>
</trkpt>
<trkpt lat="46.1267870" lon="10.4747070">
	<ele>2597.20</ele>
	<time>2023-08-07T12:40:27.000Z</time>
</trkpt>
<trkpt lat="46.1267870" lon="10.4747070">
	<ele>2597.00</ele>
	<time>2023-08-07T12:40:28.000Z</time>
</trkpt>
<trkpt lat="46.1267860" lon="10.4747070">
	<ele>2596.80</ele>
	<time>2023-08-07T12:40:29.000Z</time>
</trkpt>
<trkpt lat="46.1267860" lon="10.4747070">
	<ele>2596.80</ele>
	<time>2023-08-07T12:40:30.000Z</time>
</trkpt>
<trkpt lat="46.1267860" lon="10.4747070">
	<ele>2596.80</ele>
	<time>2023-08-07T12:40:31.000Z</time>
</trkpt>
<trkpt lat="46.1267860" lon="10.4747060">
	<ele>2596.80</ele>
	<time>2023-08-07T12:40:32.000Z</time>
</trkpt>
<trkpt lat="46.1267850" lon="10.4747060">
	<ele>2596.80</ele>
	<time>2023-08-07T12:40:33.000Z</time>
</trkpt>
<trkpt lat="46.1267850" lon="10.4747060">
	<ele>2596.80</ele>
	<time>2023-08-07T12:40:34.000Z</time>
</trkpt>
<trkpt lat="46.1267850" lon="10.4747060">
	<ele>2596.80</ele>
	<time>2023-08-07T12:40:35.000Z</time>
</trkpt>
<trkpt lat="46.1267850" lon="10.4747060">
	<ele>2596.80</ele>
	<time>2023-08-07T12:40:36.000Z</time>
</trkpt>
<trkpt lat="46.1267850" lon="10.4747060">
	<ele>2596.80</ele>
	<time>2023-08-07T12:40:37.000Z</time>
</trkpt>
<trkpt lat="46.1267840" lon="10.4747050">
	<ele>2596.60</ele>
	<time>2023-08-07T12:40:38.000Z</time>
</trkpt>
<trkpt lat="46.1267840" lon="10.4747050">
	<ele>2596.60</ele>
	<time>2023-08-07T12:40:39.000Z</time>
</trkpt>
<trkpt lat="46.1267840" lon="10.4747050">
	<ele>2596.60</ele>
	<time>2023-08-07T12:40:40.000Z</time>
</trkpt>
<trkpt lat="46.1267840" lon="10.4747050">
	<ele>2596.60</ele>
	<time>2023-08-07T12:40:41.000Z</time>
</trkpt>
<trkpt lat="46.1267840" lon="10.4747040">
	<ele>2596.60</ele>
	<time>2023-08-07T12:40:42.000Z</time>
</trkpt>
<trkpt lat="46.1267840" lon="10.4747040">
	<ele>2596.60</ele>
	<time>2023-08-07T12:40:43.000Z</time>
</trkpt>
<trkpt lat="46.1267840" lon="10.4747040">
	<ele>2596.60</ele>
	<time>2023-08-07T12:40:44.000Z</time>
</trkpt>
<trkpt lat="46.1267840" lon="10.4747030">
	<ele>2596.60</ele>
	<time>2023-08-07T12:40:45.000Z</time>
</trkpt>
<trkpt lat="46.1267830" lon="10.4747030">
	<ele>2596.40</ele>
	<time>2023-08-07T12:40:46.000Z</time>
</trkpt>
<trkpt lat="46.1267830" lon="10.4747030">
	<ele>2596.20</ele>
	<time>2023-08-07T12:40:47.000Z</time>
</trkpt>
<trkpt lat="46.1267830" lon="10.4747020">
	<ele>2596.00</ele>
	<time>2023-08-07T12:40:48.000Z</time>
</trkpt>
<trkpt lat="46.1267820" lon="10.4746940">
	<ele>2596.00</ele>
	<time>2023-08-07T12:40:49.000Z</time>
</trkpt>
<trkpt lat="46.1267790" lon="10.4746740">
	<ele>2596.00</ele>
	<time>2023-08-07T12:40:50.000Z</time>
</trkpt>
<trkpt lat="46.1267680" lon="10.4746500">
	<ele>2596.00</ele>
	<time>2023-08-07T12:40:51.000Z</time>
</trkpt>
<trkpt lat="46.1267620" lon="10.4746190">
	<ele>2596.00</ele>
	<time>2023-08-07T12:40:52.000Z</time>
</trkpt>
<trkpt lat="46.1267630" lon="10.4745990">
	<ele>2596.00</ele>
	<time>2023-08-07T12:40:53.000Z</time>
</trkpt>
<trkpt lat="46.1267610" lon="10.4745730">
	<ele>2596.00</ele>
	<time>2023-08-07T12:40:54.000Z</time>
</trkpt>
<trkpt lat="46.1267590" lon="10.4745490">
	<ele>2595.80</ele>
	<time>2023-08-07T12:40:55.000Z</time>
</trkpt>
<trkpt lat="46.1267540" lon="10.4745330">
	<ele>2595.80</ele>
	<time>2023-08-07T12:40:56.000Z</time>
</trkpt>
<trkpt lat="46.1267560" lon="10.4745170">
	<ele>2595.60</ele>
	<time>2023-08-07T12:40:57.000Z</time>
</trkpt>
<trkpt lat="46.1267600" lon="10.4745010">
	<ele>2595.40</ele>
	<time>2023-08-07T12:40:58.000Z</time>
</trkpt>
<trkpt lat="46.1267630" lon="10.4745000">
	<ele>2595.40</ele>
	<time>2023-08-07T12:40:59.000Z</time>
</trkpt>
<trkpt lat="46.1267680" lon="10.4745050">
	<ele>2595.40</ele>
	<time>2023-08-07T12:41:00.000Z</time>
</trkpt>
<trkpt lat="46.1267700" lon="10.4745000">
	<ele>2595.40</ele>
	<time>2023-08-07T12:41:01.000Z</time>
</trkpt>
<trkpt lat="46.1267700" lon="10.4744980">
	<ele>2595.40</ele>
	<time>2023-08-07T12:41:02.000Z</time>
</trkpt>
<trkpt lat="46.1267700" lon="10.4744980">
	<ele>2595.40</ele>
	<time>2023-08-07T12:41:03.000Z</time>
</trkpt>
<trkpt lat="46.1267710" lon="10.4744920">
	<ele>2595.40</ele>
	<time>2023-08-07T12:41:04.000Z</time>
</trkpt>
<trkpt lat="46.1267720" lon="10.4744770">
	<ele>2595.40</ele>
	<time>2023-08-07T12:41:05.000Z</time>
</trkpt>
<trkpt lat="46.1267720" lon="10.4744630">
	<ele>2595.40</ele>
	<time>2023-08-07T12:41:06.000Z</time>
</trkpt>
<trkpt lat="46.1267750" lon="10.4744560">
	<ele>2595.40</ele>
	<time>2023-08-07T12:41:07.000Z</time>
</trkpt>
<trkpt lat="46.1267770" lon="10.4744540">
	<ele>2595.40</ele>
	<time>2023-08-07T12:41:08.000Z</time>
</trkpt>
<trkpt lat="46.1267780" lon="10.4744500">
	<ele>2595.40</ele>
	<time>2023-08-07T12:41:09.000Z</time>
</trkpt>
<trkpt lat="46.1267780" lon="10.4744440">
	<ele>2595.40</ele>
	<time>2023-08-07T12:41:10.000Z</time>
</trkpt>
<trkpt lat="46.1267780" lon="10.4744420">
	<ele>2595.00</ele>
	<time>2023-08-07T12:41:11.000Z</time>
</trkpt>
<trkpt lat="46.1267790" lon="10.4744390">
	<ele>2595.00</ele>
	<time>2023-08-07T12:41:12.000Z</time>
</trkpt>
<trkpt lat="46.1267810" lon="10.4744360">
	<ele>2594.80</ele>
	<time>2023-08-07T12:41:13.000Z</time>
</trkpt>
<trkpt lat="46.1267790" lon="10.4744300">
	<ele>2594.80</ele>
	<time>2023-08-07T12:41:14.000Z</time>
</trkpt>
<trkpt lat="46.1267760" lon="10.4744330">
	<ele>2594.80</ele>
	<time>2023-08-07T12:41:15.000Z</time>
</trkpt>
<trkpt lat="46.1267780" lon="10.4744340">
	<ele>2594.80</ele>
	<time>2023-08-07T12:41:16.000Z</time>
</trkpt>
<trkpt lat="46.1267790" lon="10.4744440">
	<ele>2594.80</ele>
	<time>2023-08-07T12:41:17.000Z</time>
</trkpt>
<trkpt lat="46.1267790" lon="10.4744450">
	<ele>2594.80</ele>
	<time>2023-08-07T12:41:18.000Z</time>
</trkpt>
<trkpt lat="46.1267820" lon="10.4744460">
	<ele>2595.00</ele>
	<time>2023-08-07T12:41:19.000Z</time>
</trkpt>
<trkpt lat="46.1267810" lon="10.4744440">
	<ele>2595.00</ele>
	<time>2023-08-07T12:41:20.000Z</time>
</trkpt>
<trkpt lat="46.1267870" lon="10.4744460">
	<ele>2595.00</ele>
	<time>2023-08-07T12:41:21.000Z</time>
</trkpt>
<trkpt lat="46.1267870" lon="10.4744420">
	<ele>2595.00</ele>
	<time>2023-08-07T12:41:22.000Z</time>
</trkpt>
<trkpt lat="46.1267900" lon="10.4744380">
	<ele>2595.00</ele>
	<time>2023-08-07T12:41:23.000Z</time>
</trkpt>
<trkpt lat="46.1267900" lon="10.4744400">
	<ele>2594.80</ele>
	<time>2023-08-07T12:41:24.000Z</time>
</trkpt>
<trkpt lat="46.1267890" lon="10.4744420">
	<ele>2594.80</ele>
	<time>2023-08-07T12:41:25.000Z</time>
</trkpt>
<trkpt lat="46.1267900" lon="10.4744420">
	<ele>2594.80</ele>
	<time>2023-08-07T12:41:26.000Z</time>
</trkpt>
<trkpt lat="46.1267900" lon="10.4744380">
	<ele>2594.80</ele>
	<time>2023-08-07T12:41:27.000Z</time>
</trkpt>
<trkpt lat="46.1267900" lon="10.4744340">
	<ele>2594.80</ele>
	<time>2023-08-07T12:41:28.000Z</time>
</trkpt>
<trkpt lat="46.1267890" lon="10.4744320">
	<ele>2594.80</ele>
	<time>2023-08-07T12:41:29.000Z</time>
</trkpt>
<trkpt lat="46.1267890" lon="10.4744300">
	<ele>2595.00</ele>
	<time>2023-08-07T12:41:30.000Z</time>
</trkpt>
<trkpt lat="46.1267890" lon="10.4744270">
	<ele>2595.20</ele>
	<time>2023-08-07T12:41:31.000Z</time>
</trkpt>
<trkpt lat="46.1267890" lon="10.4744260">
	<ele>2595.20</ele>
	<time>2023-08-07T12:41:32.000Z</time>
</trkpt>
<trkpt lat="46.1267890" lon="10.4744260">
	<ele>2595.40</ele>
	<time>2023-08-07T12:41:33.000Z</time>
</trkpt>
<trkpt lat="46.1267890" lon="10.4744260">
	<ele>2595.40</ele>
	<time>2023-08-07T12:41:34.000Z</time>
</trkpt>
<trkpt lat="46.1267890" lon="10.4744260">
	<ele>2595.60</ele>
	<time>2023-08-07T12:41:35.000Z</time>
</trkpt>
<trkpt lat="46.1267890" lon="10.4744260">
	<ele>2595.60</ele>
	<time>2023-08-07T12:41:36.000Z</time>
</trkpt>
<trkpt lat="46.1267890" lon="10.4744260">
	<ele>2595.60</ele>
	<time>2023-08-07T12:41:37.000Z</time>
</trkpt>
<trkpt lat="46.1267890" lon="10.4744260">
	<ele>2595.60</ele>
	<time>2023-08-07T12:41:38.000Z</time>
</trkpt>
<trkpt lat="46.1267890" lon="10.4744260">
	<ele>2595.60</ele>
	<time>2023-08-07T12:41:39.000Z</time>
</trkpt>
<trkpt lat="46.1267890" lon="10.4744260">
	<ele>2595.40</ele>
	<time>2023-08-07T12:41:40.000Z</time>
</trkpt>
<trkpt lat="46.1267890" lon="10.4744260">
	<ele>2595.40</ele>
	<time>2023-08-07T12:41:41.000Z</time>
</trkpt>
<trkpt lat="46.1267890" lon="10.4744260">
	<ele>2595.40</ele>
	<time>2023-08-07T12:41:42.000Z</time>
</trkpt>
<trkpt lat="46.1267890" lon="10.4744260">
	<ele>2595.40</ele>
	<time>2023-08-07T12:41:43.000Z</time>
</trkpt>
<trkpt lat="46.1267890" lon="10.4744260">
	<ele>2595.40</ele>
	<time>2023-08-07T12:41:44.000Z</time>
</trkpt>
<trkpt lat="46.1267890" lon="10.4744260">
	<ele>2595.60</ele>
	<time>2023-08-07T12:41:45.000Z</time>
</trkpt>
<trkpt lat="46.1267890" lon="10.4744260">
	<ele>2595.60</ele>
	<time>2023-08-07T12:41:46.000Z</time>
</trkpt>
<trkpt lat="46.1267890" lon="10.4744260">
	<ele>2595.60</ele>
	<time>2023-08-07T12:41:47.000Z</time>
</trkpt>
<trkpt lat="46.1267890" lon="10.4744260">
	<ele>2595.40</ele>
	<time>2023-08-07T12:41:48.000Z</time>
</trkpt>
<trkpt lat="46.1267890" lon="10.4744250">
	<ele>2595.40</ele>
	<time>2023-08-07T12:41:49.000Z</time>
</trkpt>
<trkpt lat="46.1267890" lon="10.4744240">
	<ele>2595.20</ele>
	<time>2023-08-07T12:41:50.000Z</time>
</trkpt>
<trkpt lat="46.1267890" lon="10.4744240">
	<ele>2595.00</ele>
	<time>2023-08-07T12:41:51.000Z</time>
</trkpt>
<trkpt lat="46.1267890" lon="10.4744230">
	<ele>2594.80</ele>
	<time>2023-08-07T12:41:52.000Z</time>
</trkpt>
<trkpt lat="46.1267890" lon="10.4744230">
	<ele>2594.80</ele>
	<time>2023-08-07T12:41:53.000Z</time>
</trkpt>
<trkpt lat="46.1267890" lon="10.4744230">
	<ele>2594.80</ele>
	<time>2023-08-07T12:41:54.000Z</time>
</trkpt>
<trkpt lat="46.1267890" lon="10.4744230">
	<ele>2594.80</ele>
	<time>2023-08-07T12:41:55.000Z</time>
</trkpt>
<trkpt lat="46.1267890" lon="10.4744230">
	<ele>2594.60</ele>
	<time>2023-08-07T12:41:56.000Z</time>
</trkpt>
<trkpt lat="46.1267890" lon="10.4744230">
	<ele>2594.60</ele>
	<time>2023-08-07T12:41:57.000Z</time>
</trkpt>
<trkpt lat="46.1267890" lon="10.4744220">
	<ele>2594.60</ele>
	<time>2023-08-07T12:41:58.000Z</time>
</trkpt>
<trkpt lat="46.1267890" lon="10.4744220">
	<ele>2594.60</ele>
	<time>2023-08-07T12:41:59.000Z</time>
</trkpt>
<trkpt lat="46.1267890" lon="10.4744220">
	<ele>2594.40</ele>
	<time>2023-08-07T12:42:00.000Z</time>
</trkpt>
<trkpt lat="46.1267890" lon="10.4744220">
	<ele>2594.20</ele>
	<time>2023-08-07T12:42:01.000Z</time>
</trkpt>
<trkpt lat="46.1267890" lon="10.4744220">
	<ele>2594.20</ele>
	<time>2023-08-07T12:42:02.000Z</time>
</trkpt>
<trkpt lat="46.1267890" lon="10.4744220">
	<ele>2594.00</ele>
	<time>2023-08-07T12:42:03.000Z</time>
</trkpt>
<trkpt lat="46.1267890" lon="10.4744210">
	<ele>2594.00</ele>
	<time>2023-08-07T12:42:04.000Z</time>
</trkpt>
<trkpt lat="46.1267890" lon="10.4744210">
	<ele>2593.80</ele>
	<time>2023-08-07T12:42:05.000Z</time>
</trkpt>
<trkpt lat="46.1267890" lon="10.4744200">
	<ele>2593.80</ele>
	<time>2023-08-07T12:42:06.000Z</time>
</trkpt>
<trkpt lat="46.1267890" lon="10.4744200">
	<ele>2593.60</ele>
	<time>2023-08-07T12:42:07.000Z</time>
</trkpt>
<trkpt lat="46.1267890" lon="10.4744200">
	<ele>2593.60</ele>
	<time>2023-08-07T12:42:08.000Z</time>
</trkpt>
<trkpt lat="46.1267890" lon="10.4744200">
	<ele>2593.60</ele>
	<time>2023-08-07T12:42:09.000Z</time>
</trkpt>
<trkpt lat="46.1267890" lon="10.4744170">
	<ele>2593.40</ele>
	<time>2023-08-07T12:42:10.000Z</time>
</trkpt>
<trkpt lat="46.1267890" lon="10.4744110">
	<ele>2593.40</ele>
	<time>2023-08-07T12:42:11.000Z</time>
</trkpt>
<trkpt lat="46.1267890" lon="10.4744080">
	<ele>2593.20</ele>
	<time>2023-08-07T12:42:12.000Z</time>
</trkpt>
<trkpt lat="46.1267890" lon="10.4744050">
	<ele>2593.40</ele>
	<time>2023-08-07T12:42:13.000Z</time>
</trkpt>
<trkpt lat="46.1267890" lon="10.4744000">
	<ele>2593.40</ele>
	<time>2023-08-07T12:42:14.000Z</time>
</trkpt>
<trkpt lat="46.1267920" lon="10.4743960">
	<ele>2593.40</ele>
	<time>2023-08-07T12:42:15.000Z</time>
</trkpt>
<trkpt lat="46.1267990" lon="10.4743940">
	<ele>2593.40</ele>
	<time>2023-08-07T12:42:16.000Z</time>
</trkpt>
<trkpt lat="46.1268030" lon="10.4743920">
	<ele>2593.60</ele>
	<time>2023-08-07T12:42:17.000Z</time>
</trkpt>
<trkpt lat="46.1268040" lon="10.4743900">
	<ele>2593.60</ele>
	<time>2023-08-07T12:42:18.000Z</time>
</trkpt>
<trkpt lat="46.1268040" lon="10.4743900">
	<ele>2593.80</ele>
	<time>2023-08-07T12:42:19.000Z</time>
</trkpt>
<trkpt lat="46.1268040" lon="10.4743890">
	<ele>2593.80</ele>
	<time>2023-08-07T12:42:20.000Z</time>
</trkpt>
<trkpt lat="46.1268040" lon="10.4743880">
	<ele>2593.80</ele>
	<time>2023-08-07T12:42:21.000Z</time>
</trkpt>
<trkpt lat="46.1268040" lon="10.4743810">
	<ele>2593.80</ele>
	<time>2023-08-07T12:42:22.000Z</time>
</trkpt>
<trkpt lat="46.1268040" lon="10.4743740">
	<ele>2593.80</ele>
	<time>2023-08-07T12:42:23.000Z</time>
</trkpt>
<trkpt lat="46.1268040" lon="10.4743660">
	<ele>2593.80</ele>
	<time>2023-08-07T12:42:24.000Z</time>
</trkpt>
<trkpt lat="46.1268040" lon="10.4743610">
	<ele>2593.80</ele>
	<time>2023-08-07T12:42:25.000Z</time>
</trkpt>
<trkpt lat="46.1268040" lon="10.4743580">
	<ele>2593.80</ele>
	<time>2023-08-07T12:42:26.000Z</time>
</trkpt>
<trkpt lat="46.1268040" lon="10.4743530">
	<ele>2593.80</ele>
	<time>2023-08-07T12:42:27.000Z</time>
</trkpt>
<trkpt lat="46.1268040" lon="10.4743450">
	<ele>2593.80</ele>
	<time>2023-08-07T12:42:28.000Z</time>
</trkpt>
<trkpt lat="46.1268040" lon="10.4743350">
	<ele>2593.80</ele>
	<time>2023-08-07T12:42:29.000Z</time>
</trkpt>
<trkpt lat="46.1267990" lon="10.4743260">
	<ele>2593.80</ele>
	<time>2023-08-07T12:42:30.000Z</time>
</trkpt>
<trkpt lat="46.1267950" lon="10.4743150">
	<ele>2594.00</ele>
	<time>2023-08-07T12:42:31.000Z</time>
</trkpt>
<trkpt lat="46.1267880" lon="10.4743020">
	<ele>2594.00</ele>
	<time>2023-08-07T12:42:32.000Z</time>
</trkpt>
<trkpt lat="46.1267820" lon="10.4742920">
	<ele>2594.00</ele>
	<time>2023-08-07T12:42:33.000Z</time>
</trkpt>
<trkpt lat="46.1267750" lon="10.4742800">
	<ele>2594.20</ele>
	<time>2023-08-07T12:42:34.000Z</time>
</trkpt>
<trkpt lat="46.1267700" lon="10.4742660">
	<ele>2594.00</ele>
	<time>2023-08-07T12:42:35.000Z</time>
</trkpt>
<trkpt lat="46.1267630" lon="10.4742520">
	<ele>2594.00</ele>
	<time>2023-08-07T12:42:36.000Z</time>
</trkpt>
<trkpt lat="46.1267560" lon="10.4742330">
	<ele>2594.00</ele>
	<time>2023-08-07T12:42:37.000Z</time>
</trkpt>
<trkpt lat="46.1267450" lon="10.4742070">
	<ele>2594.00</ele>
	<time>2023-08-07T12:42:38.000Z</time>
</trkpt>
<trkpt lat="46.1267330" lon="10.4741810">
	<ele>2594.00</ele>
	<time>2023-08-07T12:42:39.000Z</time>
</trkpt>
<trkpt lat="46.1267320" lon="10.4741790">
	<ele>2593.80</ele>
	<time>2023-08-07T12:42:40.000Z</time>
</trkpt>
<trkpt lat="46.1267300" lon="10.4741790">
	<ele>2593.60</ele>
	<time>2023-08-07T12:42:41.000Z</time>
</trkpt>
<trkpt lat="46.1267310" lon="10.4741800">
	<ele>2593.60</ele>
	<time>2023-08-07T12:42:42.000Z</time>
</trkpt>
<trkpt lat="46.1267290" lon="10.4741760">
	<ele>2593.60</ele>
	<time>2023-08-07T12:42:43.000Z</time>
</trkpt>
<trkpt lat="46.1267260" lon="10.4741740">
	<ele>2593.60</ele>
	<time>2023-08-07T12:42:44.000Z</time>
</trkpt>
<trkpt lat="46.1267250" lon="10.4741730">
	<ele>2593.60</ele>
	<time>2023-08-07T12:42:45.000Z</time>
</trkpt>
<trkpt lat="46.1267230" lon="10.4741790">
	<ele>2593.60</ele>
	<time>2023-08-07T12:42:46.000Z</time>
</trkpt>
<trkpt lat="46.1267200" lon="10.4741820">
	<ele>2593.60</ele>
	<time>2023-08-07T12:42:47.000Z</time>
</trkpt>
<trkpt lat="46.1267170" lon="10.4741810">
	<ele>2593.80</ele>
	<time>2023-08-07T12:42:48.000Z</time>
</trkpt>
<trkpt lat="46.1267150" lon="10.4741810">
	<ele>2593.80</ele>
	<time>2023-08-07T12:42:49.000Z</time>
</trkpt>
<trkpt lat="46.1267130" lon="10.4741840">
	<ele>2593.80</ele>
	<time>2023-08-07T12:42:50.000Z</time>
</trkpt>
<trkpt lat="46.1267120" lon="10.4741920">
	<ele>2594.60</ele>
	<time>2023-08-07T12:42:51.000Z</time>
</trkpt>
<trkpt lat="46.1267100" lon="10.4742000">
	<ele>2594.60</ele>
	<time>2023-08-07T12:42:52.000Z</time>
</trkpt>
<trkpt lat="46.1267060" lon="10.4741980">
	<ele>2594.60</ele>
	<time>2023-08-07T12:42:53.000Z</time>
</trkpt>
<trkpt lat="46.1267050" lon="10.4741860">
	<ele>2594.60</ele>
	<time>2023-08-07T12:42:54.000Z</time>
</trkpt>
<trkpt lat="46.1267040" lon="10.4741760">
	<ele>2594.60</ele>
	<time>2023-08-07T12:42:55.000Z</time>
</trkpt>
<trkpt lat="46.1267040" lon="10.4741640">
	<ele>2594.60</ele>
	<time>2023-08-07T12:42:56.000Z</time>
</trkpt>
<trkpt lat="46.1267050" lon="10.4741620">
	<ele>2594.60</ele>
	<time>2023-08-07T12:42:57.000Z</time>
</trkpt>
<trkpt lat="46.1267080" lon="10.4741540">
	<ele>2594.60</ele>
	<time>2023-08-07T12:42:58.000Z</time>
</trkpt>
<trkpt lat="46.1267120" lon="10.4741420">
	<ele>2594.60</ele>
	<time>2023-08-07T12:42:59.000Z</time>
</trkpt>
<trkpt lat="46.1267140" lon="10.4741360">
	<ele>2594.60</ele>
	<time>2023-08-07T12:43:00.000Z</time>
</trkpt>
<trkpt lat="46.1267150" lon="10.4741320">
	<ele>2594.60</ele>
	<time>2023-08-07T12:43:01.000Z</time>
</trkpt>
<trkpt lat="46.1267160" lon="10.4741290">
	<ele>2594.60</ele>
	<time>2023-08-07T12:43:02.000Z</time>
</trkpt>
<trkpt lat="46.1267160" lon="10.4741280">
	<ele>2594.60</ele>
	<time>2023-08-07T12:43:03.000Z</time>
</trkpt>
<trkpt lat="46.1267160" lon="10.4741280">
	<ele>2594.60</ele>
	<time>2023-08-07T12:43:04.000Z</time>
</trkpt>
<trkpt lat="46.1267160" lon="10.4741280">
	<ele>2594.60</ele>
	<time>2023-08-07T12:43:05.000Z</time>
</trkpt>
<trkpt lat="46.1267160" lon="10.4741280">
	<ele>2594.60</ele>
	<time>2023-08-07T12:43:06.000Z</time>
</trkpt>
<trkpt lat="46.1267160" lon="10.4741280">
	<ele>2594.60</ele>
	<time>2023-08-07T12:43:07.000Z</time>
</trkpt>
<trkpt lat="46.1267160" lon="10.4741280">
	<ele>2594.60</ele>
	<time>2023-08-07T12:43:08.000Z</time>
</trkpt>
<trkpt lat="46.1267160" lon="10.4741280">
	<ele>2594.60</ele>
	<time>2023-08-07T12:43:09.000Z</time>
</trkpt>
<trkpt lat="46.1267160" lon="10.4741280">
	<ele>2594.60</ele>
	<time>2023-08-07T12:43:10.000Z</time>
</trkpt>
<trkpt lat="46.1267160" lon="10.4741280">
	<ele>2594.60</ele>
	<time>2023-08-07T12:43:11.000Z</time>
</trkpt>
<trkpt lat="46.1267160" lon="10.4741280">
	<ele>2594.60</ele>
	<time>2023-08-07T12:43:12.000Z</time>
</trkpt>
<trkpt lat="46.1267160" lon="10.4741280">
	<ele>2594.60</ele>
	<time>2023-08-07T12:43:13.000Z</time>
</trkpt>
<trkpt lat="46.1267160" lon="10.4741280">
	<ele>2594.60</ele>
	<time>2023-08-07T12:43:14.000Z</time>
</trkpt>
<trkpt lat="46.1267160" lon="10.4741280">
	<ele>2594.60</ele>
	<time>2023-08-07T12:43:15.000Z</time>
</trkpt>
<trkpt lat="46.1267160" lon="10.4741280">
	<ele>2594.60</ele>
	<time>2023-08-07T12:43:16.000Z</time>
</trkpt>
<trkpt lat="46.1267160" lon="10.4741280">
	<ele>2594.60</ele>
	<time>2023-08-07T12:43:17.000Z</time>
</trkpt>
<trkpt lat="46.1267160" lon="10.4741280">
	<ele>2594.60</ele>
	<time>2023-08-07T12:43:18.000Z</time>
</trkpt>
<trkpt lat="46.1267160" lon="10.4741250">
	<ele>2594.60</ele>
	<time>2023-08-07T12:43:19.000Z</time>
</trkpt>
<trkpt lat="46.1267160" lon="10.4741230">
	<ele>2594.60</ele>
	<time>2023-08-07T12:43:20.000Z</time>
</trkpt>
<trkpt lat="46.1267160" lon="10.4741230">
	<ele>2594.60</ele>
	<time>2023-08-07T12:43:21.000Z</time>
</trkpt>
<trkpt lat="46.1267160" lon="10.4741230">
	<ele>2594.60</ele>
	<time>2023-08-07T12:43:22.000Z</time>
</trkpt>
<trkpt lat="46.1267160" lon="10.4741220">
	<ele>2594.60</ele>
	<time>2023-08-07T12:43:23.000Z</time>
</trkpt>
<trkpt lat="46.1267160" lon="10.4741220">
	<ele>2594.60</ele>
	<time>2023-08-07T12:43:24.000Z</time>
</trkpt>
<trkpt lat="46.1267160" lon="10.4741220">
	<ele>2594.60</ele>
	<time>2023-08-07T12:43:25.000Z</time>
</trkpt>
<trkpt lat="46.1267160" lon="10.4741220">
	<ele>2594.60</ele>
	<time>2023-08-07T12:43:26.000Z</time>
</trkpt>
<trkpt lat="46.1267160" lon="10.4741220">
	<ele>2594.60</ele>
	<time>2023-08-07T12:43:27.000Z</time>
</trkpt>
<trkpt lat="46.1267160" lon="10.4741220">
	<ele>2594.60</ele>
	<time>2023-08-07T12:43:28.000Z</time>
</trkpt>
<trkpt lat="46.1267160" lon="10.4741220">
	<ele>2594.60</ele>
	<time>2023-08-07T12:43:29.000Z</time>
</trkpt>
<trkpt lat="46.1267160" lon="10.4741220">
	<ele>2594.60</ele>
	<time>2023-08-07T12:43:30.000Z</time>
</trkpt>
<trkpt lat="46.1267160" lon="10.4741210">
	<ele>2594.60</ele>
	<time>2023-08-07T12:43:31.000Z</time>
</trkpt>
<trkpt lat="46.1267160" lon="10.4741190">
	<ele>2594.60</ele>
	<time>2023-08-07T12:43:32.000Z</time>
</trkpt>
<trkpt lat="46.1267160" lon="10.4741180">
	<ele>2594.60</ele>
	<time>2023-08-07T12:43:33.000Z</time>
</trkpt>
<trkpt lat="46.1267160" lon="10.4741180">
	<ele>2594.60</ele>
	<time>2023-08-07T12:43:34.000Z</time>
</trkpt>
<trkpt lat="46.1267150" lon="10.4741130">
	<ele>2594.60</ele>
	<time>2023-08-07T12:43:35.000Z</time>
</trkpt>
<trkpt lat="46.1267190" lon="10.4741060">
	<ele>2594.60</ele>
	<time>2023-08-07T12:43:36.000Z</time>
</trkpt>
<trkpt lat="46.1267260" lon="10.4740970">
	<ele>2594.60</ele>
	<time>2023-08-07T12:43:37.000Z</time>
</trkpt>
<trkpt lat="46.1267350" lon="10.4740900">
	<ele>2594.60</ele>
	<time>2023-08-07T12:43:38.000Z</time>
</trkpt>
<trkpt lat="46.1267370" lon="10.4740770">
	<ele>2594.60</ele>
	<time>2023-08-07T12:43:39.000Z</time>
</trkpt>
<trkpt lat="46.1267360" lon="10.4740680">
	<ele>2594.60</ele>
	<time>2023-08-07T12:43:40.000Z</time>
</trkpt>
<trkpt lat="46.1267420" lon="10.4740610">
	<ele>2594.60</ele>
	<time>2023-08-07T12:43:41.000Z</time>
</trkpt>
<trkpt lat="46.1267430" lon="10.4740560">
	<ele>2594.60</ele>
	<time>2023-08-07T12:43:42.000Z</time>
</trkpt>
<trkpt lat="46.1267430" lon="10.4740500">
	<ele>2594.60</ele>
	<time>2023-08-07T12:43:43.000Z</time>
</trkpt>
<trkpt lat="46.1267450" lon="10.4740420">
	<ele>2594.60</ele>
	<time>2023-08-07T12:43:44.000Z</time>
</trkpt>
<trkpt lat="46.1267460" lon="10.4740400">
	<ele>2594.60</ele>
	<time>2023-08-07T12:43:45.000Z</time>
</trkpt>
<trkpt lat="46.1267460" lon="10.4740390">
	<ele>2594.60</ele>
	<time>2023-08-07T12:43:46.000Z</time>
</trkpt>
<trkpt lat="46.1267460" lon="10.4740370">
	<ele>2594.60</ele>
	<time>2023-08-07T12:43:47.000Z</time>
</trkpt>
<trkpt lat="46.1267450" lon="10.4740380">
	<ele>2594.60</ele>
	<time>2023-08-07T12:43:48.000Z</time>
</trkpt>
<trkpt lat="46.1267450" lon="10.4740400">
	<ele>2594.60</ele>
	<time>2023-08-07T12:43:49.000Z</time>
</trkpt>
<trkpt lat="46.1267450" lon="10.4740400">
	<ele>2594.60</ele>
	<time>2023-08-07T12:43:50.000Z</time>
</trkpt>
<trkpt lat="46.1267450" lon="10.4740400">
	<ele>2594.60</ele>
	<time>2023-08-07T12:43:51.000Z</time>
</trkpt>
<trkpt lat="46.1267450" lon="10.4740400">
	<ele>2594.60</ele>
	<time>2023-08-07T12:43:52.000Z</time>
</trkpt>
<trkpt lat="46.1267450" lon="10.4740400">
	<ele>2594.60</ele>
	<time>2023-08-07T12:43:53.000Z</time>
</trkpt>
<trkpt lat="46.1267450" lon="10.4740400">
	<ele>2594.60</ele>
	<time>2023-08-07T12:43:54.000Z</time>
</trkpt>
<trkpt lat="46.1267450" lon="10.4740400">
	<ele>2594.60</ele>
	<time>2023-08-07T12:43:55.000Z</time>
</trkpt>
<trkpt lat="46.1267450" lon="10.4740400">
	<ele>2594.60</ele>
	<time>2023-08-07T12:43:56.000Z</time>
</trkpt>
<trkpt lat="46.1267450" lon="10.4740400">
	<ele>2594.60</ele>
	<time>2023-08-07T12:43:57.000Z</time>
</trkpt>
<trkpt lat="46.1267450" lon="10.4740400">
	<ele>2594.60</ele>
	<time>2023-08-07T12:43:58.000Z</time>
</trkpt>
<trkpt lat="46.1267450" lon="10.4740400">
	<ele>2594.60</ele>
	<time>2023-08-07T12:43:59.000Z</time>
</trkpt>
<trkpt lat="46.1267450" lon="10.4740400">
	<ele>2594.60</ele>
	<time>2023-08-07T12:44:00.000Z</time>
</trkpt>
<trkpt lat="46.1267450" lon="10.4740400">
	<ele>2594.60</ele>
	<time>2023-08-07T12:44:01.000Z</time>
</trkpt>
<trkpt lat="46.1267450" lon="10.4740400">
	<ele>2594.60</ele>
	<time>2023-08-07T12:44:02.000Z</time>
</trkpt>
<trkpt lat="46.1267450" lon="10.4740400">
	<ele>2594.60</ele>
	<time>2023-08-07T12:44:03.000Z</time>
</trkpt>
<trkpt lat="46.1267450" lon="10.4740400">
	<ele>2594.60</ele>
	<time>2023-08-07T12:44:04.000Z</time>
</trkpt>
<trkpt lat="46.1267450" lon="10.4740400">
	<ele>2594.60</ele>
	<time>2023-08-07T12:44:05.000Z</time>
</trkpt>
<trkpt lat="46.1267450" lon="10.4740400">
	<ele>2594.60</ele>
	<time>2023-08-07T12:44:06.000Z</time>
</trkpt>
<trkpt lat="46.1267450" lon="10.4740400">
	<ele>2594.60</ele>
	<time>2023-08-07T12:44:07.000Z</time>
</trkpt>
<trkpt lat="46.1267450" lon="10.4740400">
	<ele>2594.60</ele>
	<time>2023-08-07T12:44:08.000Z</time>
</trkpt>
<trkpt lat="46.1267450" lon="10.4740400">
	<ele>2594.60</ele>
	<time>2023-08-07T12:44:09.000Z</time>
</trkpt>
<trkpt lat="46.1267450" lon="10.4740390">
	<ele>2594.60</ele>
	<time>2023-08-07T12:44:10.000Z</time>
</trkpt>
<trkpt lat="46.1267450" lon="10.4740390">
	<ele>2594.60</ele>
	<time>2023-08-07T12:44:11.000Z</time>
</trkpt>
<trkpt lat="46.1267450" lon="10.4740390">
	<ele>2594.60</ele>
	<time>2023-08-07T12:44:12.000Z</time>
</trkpt>
<trkpt lat="46.1267450" lon="10.4740390">
	<ele>2594.60</ele>
	<time>2023-08-07T12:44:13.000Z</time>
</trkpt>
<trkpt lat="46.1267450" lon="10.4740390">
	<ele>2594.60</ele>
	<time>2023-08-07T12:44:14.000Z</time>
</trkpt>
<trkpt lat="46.1267450" lon="10.4740380">
	<ele>2594.60</ele>
	<time>2023-08-07T12:44:15.000Z</time>
</trkpt>
<trkpt lat="46.1267450" lon="10.4740380">
	<ele>2594.60</ele>
	<time>2023-08-07T12:44:16.000Z</time>
</trkpt>
<trkpt lat="46.1267450" lon="10.4740380">
	<ele>2594.60</ele>
	<time>2023-08-07T12:44:17.000Z</time>
</trkpt>
<trkpt lat="46.1267460" lon="10.4740380">
	<ele>2594.60</ele>
	<time>2023-08-07T12:44:18.000Z</time>
</trkpt>
<trkpt lat="46.1267500" lon="10.4740370">
	<ele>2594.60</ele>
	<time>2023-08-07T12:44:19.000Z</time>
</trkpt>
<trkpt lat="46.1267590" lon="10.4740330">
	<ele>2594.60</ele>
	<time>2023-08-07T12:44:20.000Z</time>
</trkpt>
<trkpt lat="46.1267670" lon="10.4740320">
	<ele>2594.60</ele>
	<time>2023-08-07T12:44:21.000Z</time>
</trkpt>
<trkpt lat="46.1267700" lon="10.4740310">
	<ele>2594.60</ele>
	<time>2023-08-07T12:44:22.000Z</time>
</trkpt>
<trkpt lat="46.1267700" lon="10.4740310">
	<ele>2594.60</ele>
	<time>2023-08-07T12:44:23.000Z</time>
</trkpt>
<trkpt lat="46.1267700" lon="10.4740270">
	<ele>2594.60</ele>
	<time>2023-08-07T12:44:24.000Z</time>
</trkpt>
<trkpt lat="46.1267760" lon="10.4740080">
	<ele>2594.60</ele>
	<time>2023-08-07T12:44:25.000Z</time>
</trkpt>
<trkpt lat="46.1267790" lon="10.4739920">
	<ele>2594.60</ele>
	<time>2023-08-07T12:44:26.000Z</time>
</trkpt>
<trkpt lat="46.1267800" lon="10.4739810">
	<ele>2594.60</ele>
	<time>2023-08-07T12:44:27.000Z</time>
</trkpt>
<trkpt lat="46.1267810" lon="10.4739720">
	<ele>2594.60</ele>
	<time>2023-08-07T12:44:28.000Z</time>
</trkpt>
<trkpt lat="46.1267830" lon="10.4739650">
	<ele>2594.60</ele>
	<time>2023-08-07T12:44:29.000Z</time>
</trkpt>
<trkpt lat="46.1267890" lon="10.4739660">
	<ele>2594.60</ele>
	<time>2023-08-07T12:44:30.000Z</time>
</trkpt>
<trkpt lat="46.1267940" lon="10.4739640">
	<ele>2594.60</ele>
	<time>2023-08-07T12:44:31.000Z</time>
</trkpt>
<trkpt lat="46.1268010" lon="10.4739580">
	<ele>2594.60</ele>
	<time>2023-08-07T12:44:32.000Z</time>
</trkpt>
<trkpt lat="46.1268050" lon="10.4739480">
	<ele>2594.60</ele>
	<time>2023-08-07T12:44:33.000Z</time>
</trkpt>
<trkpt lat="46.1268100" lon="10.4739440">
	<ele>2594.60</ele>
	<time>2023-08-07T12:44:34.000Z</time>
</trkpt>
<trkpt lat="46.1268140" lon="10.4739390">
	<ele>2594.60</ele>
	<time>2023-08-07T12:44:35.000Z</time>
</trkpt>
<trkpt lat="46.1268140" lon="10.4739360">
	<ele>2594.60</ele>
	<time>2023-08-07T12:44:36.000Z</time>
</trkpt>
<trkpt lat="46.1268130" lon="10.4739360">
	<ele>2594.60</ele>
	<time>2023-08-07T12:44:37.000Z</time>
</trkpt>
<trkpt lat="46.1268120" lon="10.4739350">
	<ele>2594.60</ele>
	<time>2023-08-07T12:44:38.000Z</time>
</trkpt>
<trkpt lat="46.1268110" lon="10.4739350">
	<ele>2594.60</ele>
	<time>2023-08-07T12:44:39.000Z</time>
</trkpt>
<trkpt lat="46.1268100" lon="10.4739360">
	<ele>2594.60</ele>
	<time>2023-08-07T12:44:40.000Z</time>
</trkpt>
<trkpt lat="46.1268100" lon="10.4739350">
	<ele>2594.60</ele>
	<time>2023-08-07T12:44:41.000Z</time>
</trkpt>
<trkpt lat="46.1268100" lon="10.4739300">
	<ele>2594.60</ele>
	<time>2023-08-07T12:44:42.000Z</time>
</trkpt>
<trkpt lat="46.1268110" lon="10.4739280">
	<ele>2594.60</ele>
	<time>2023-08-07T12:44:43.000Z</time>
</trkpt>
<trkpt lat="46.1268100" lon="10.4739290">
	<ele>2594.60</ele>
	<time>2023-08-07T12:44:44.000Z</time>
</trkpt>
<trkpt lat="46.1268070" lon="10.4739260">
	<ele>2594.60</ele>
	<time>2023-08-07T12:44:45.000Z</time>
</trkpt>
<trkpt lat="46.1268060" lon="10.4739190">
	<ele>2594.60</ele>
	<time>2023-08-07T12:44:46.000Z</time>
</trkpt>
<trkpt lat="46.1268060" lon="10.4739150">
	<ele>2594.60</ele>
	<time>2023-08-07T12:44:47.000Z</time>
</trkpt>
<trkpt lat="46.1268140" lon="10.4739200">
	<ele>2594.60</ele>
	<time>2023-08-07T12:44:48.000Z</time>
</trkpt>
<trkpt lat="46.1268170" lon="10.4739130">
	<ele>2594.60</ele>
	<time>2023-08-07T12:44:49.000Z</time>
</trkpt>
<trkpt lat="46.1268180" lon="10.4739080">
	<ele>2594.60</ele>
	<time>2023-08-07T12:44:50.000Z</time>
</trkpt>
<trkpt lat="46.1268200" lon="10.4739000">
	<ele>2594.60</ele>
	<time>2023-08-07T12:44:51.000Z</time>
</trkpt>
<trkpt lat="46.1268220" lon="10.4738910">
	<ele>2594.60</ele>
	<time>2023-08-07T12:44:52.000Z</time>
</trkpt>
<trkpt lat="46.1268260" lon="10.4738840">
	<ele>2591.60</ele>
	<time>2023-08-07T12:44:53.000Z</time>
</trkpt>
<trkpt lat="46.1268310" lon="10.4738780">
	<ele>2591.60</ele>
	<time>2023-08-07T12:44:54.000Z</time>
</trkpt>
<trkpt lat="46.1268330" lon="10.4738690">
	<ele>2591.60</ele>
	<time>2023-08-07T12:44:55.000Z</time>
</trkpt>
<trkpt lat="46.1268330" lon="10.4738640">
	<ele>2591.60</ele>
	<time>2023-08-07T12:44:56.000Z</time>
</trkpt>
<trkpt lat="46.1268320" lon="10.4738630">
	<ele>2591.80</ele>
	<time>2023-08-07T12:44:57.000Z</time>
</trkpt>
<trkpt lat="46.1268320" lon="10.4738630">
	<ele>2591.80</ele>
	<time>2023-08-07T12:44:58.000Z</time>
</trkpt>
<trkpt lat="46.1268320" lon="10.4738630">
	<ele>2591.80</ele>
	<time>2023-08-07T12:44:59.000Z</time>
</trkpt>
<trkpt lat="46.1268320" lon="10.4738630">
	<ele>2591.80</ele>
	<time>2023-08-07T12:45:00.000Z</time>
</trkpt>
<trkpt lat="46.1268320" lon="10.4738630">
	<ele>2591.80</ele>
	<time>2023-08-07T12:45:01.000Z</time>
</trkpt>
<trkpt lat="46.1268320" lon="10.4738630">
	<ele>2591.80</ele>
	<time>2023-08-07T12:45:02.000Z</time>
</trkpt>
<trkpt lat="46.1268320" lon="10.4738630">
	<ele>2591.80</ele>
	<time>2023-08-07T12:45:03.000Z</time>
</trkpt>
<trkpt lat="46.1268320" lon="10.4738630">
	<ele>2591.60</ele>
	<time>2023-08-07T12:45:04.000Z</time>
</trkpt>
<trkpt lat="46.1268320" lon="10.4738630">
	<ele>2591.40</ele>
	<time>2023-08-07T12:45:05.000Z</time>
</trkpt>
<trkpt lat="46.1268320" lon="10.4738630">
	<ele>2591.40</ele>
	<time>2023-08-07T12:45:06.000Z</time>
</trkpt>
<trkpt lat="46.1268320" lon="10.4738630">
	<ele>2591.40</ele>
	<time>2023-08-07T12:45:07.000Z</time>
</trkpt>
<trkpt lat="46.1268320" lon="10.4738630">
	<ele>2591.40</ele>
	<time>2023-08-07T12:45:08.000Z</time>
</trkpt>
<trkpt lat="46.1268320" lon="10.4738630">
	<ele>2591.40</ele>
	<time>2023-08-07T12:45:09.000Z</time>
</trkpt>
<trkpt lat="46.1268320" lon="10.4738630">
	<ele>2591.40</ele>
	<time>2023-08-07T12:45:10.000Z</time>
</trkpt>
<trkpt lat="46.1268320" lon="10.4738630">
	<ele>2591.40</ele>
	<time>2023-08-07T12:45:11.000Z</time>
</trkpt>
<trkpt lat="46.1268320" lon="10.4738630">
	<ele>2591.20</ele>
	<time>2023-08-07T12:45:12.000Z</time>
</trkpt>
<trkpt lat="46.1268320" lon="10.4738630">
	<ele>2591.20</ele>
	<time>2023-08-07T12:45:13.000Z</time>
</trkpt>
<trkpt lat="46.1268320" lon="10.4738620">
	<ele>2591.20</ele>
	<time>2023-08-07T12:45:14.000Z</time>
</trkpt>
<trkpt lat="46.1268330" lon="10.4738600">
	<ele>2590.80</ele>
	<time>2023-08-07T12:45:15.000Z</time>
</trkpt>
<trkpt lat="46.1268330" lon="10.4738570">
	<ele>2590.60</ele>
	<time>2023-08-07T12:45:16.000Z</time>
</trkpt>
<trkpt lat="46.1268330" lon="10.4738530">
	<ele>2590.40</ele>
	<time>2023-08-07T12:45:17.000Z</time>
</trkpt>
<trkpt lat="46.1268330" lon="10.4738500">
	<ele>2589.80</ele>
	<time>2023-08-07T12:45:18.000Z</time>
</trkpt>
<trkpt lat="46.1268330" lon="10.4738490">
	<ele>2589.60</ele>
	<time>2023-08-07T12:45:19.000Z</time>
</trkpt>
<trkpt lat="46.1268340" lon="10.4738480">
	<ele>2589.60</ele>
	<time>2023-08-07T12:45:20.000Z</time>
</trkpt>
<trkpt lat="46.1268360" lon="10.4738430">
	<ele>2589.40</ele>
	<time>2023-08-07T12:45:21.000Z</time>
</trkpt>
<trkpt lat="46.1268390" lon="10.4738380">
	<ele>2589.40</ele>
	<time>2023-08-07T12:45:22.000Z</time>
</trkpt>
<trkpt lat="46.1268410" lon="10.4738330">
	<ele>2589.40</ele>
	<time>2023-08-07T12:45:23.000Z</time>
</trkpt>
<trkpt lat="46.1268420" lon="10.4738290">
	<ele>2589.40</ele>
	<time>2023-08-07T12:45:24.000Z</time>
</trkpt>
<trkpt lat="46.1268430" lon="10.4738250">
	<ele>2589.20</ele>
	<time>2023-08-07T12:45:25.000Z</time>
</trkpt>
<trkpt lat="46.1268440" lon="10.4738170">
	<ele>2589.00</ele>
	<time>2023-08-07T12:45:26.000Z</time>
</trkpt>
<trkpt lat="46.1268440" lon="10.4738100">
	<ele>2589.00</ele>
	<time>2023-08-07T12:45:27.000Z</time>
</trkpt>
<trkpt lat="46.1268450" lon="10.4738040">
	<ele>2588.80</ele>
	<time>2023-08-07T12:45:28.000Z</time>
</trkpt>
<trkpt lat="46.1268470" lon="10.4737990">
	<ele>2588.80</ele>
	<time>2023-08-07T12:45:29.000Z</time>
</trkpt>
<trkpt lat="46.1268490" lon="10.4737940">
	<ele>2588.80</ele>
	<time>2023-08-07T12:45:30.000Z</time>
</trkpt>
<trkpt lat="46.1268500" lon="10.4737890">
	<ele>2588.80</ele>
	<time>2023-08-07T12:45:31.000Z</time>
</trkpt>
<trkpt lat="46.1268500" lon="10.4737860">
	<ele>2588.80</ele>
	<time>2023-08-07T12:45:32.000Z</time>
</trkpt>
<trkpt lat="46.1268500" lon="10.4737800">
	<ele>2588.80</ele>
	<time>2023-08-07T12:45:33.000Z</time>
</trkpt>
<trkpt lat="46.1268500" lon="10.4737720">
	<ele>2589.00</ele>
	<time>2023-08-07T12:45:34.000Z</time>
</trkpt>
<trkpt lat="46.1268500" lon="10.4737670">
	<ele>2589.00</ele>
	<time>2023-08-07T12:45:35.000Z</time>
</trkpt>
<trkpt lat="46.1268500" lon="10.4737580">
	<ele>2589.20</ele>
	<time>2023-08-07T12:45:36.000Z</time>
</trkpt>
<trkpt lat="46.1268500" lon="10.4737530">
	<ele>2589.20</ele>
	<time>2023-08-07T12:45:37.000Z</time>
</trkpt>
<trkpt lat="46.1268500" lon="10.4737500">
	<ele>2589.40</ele>
	<time>2023-08-07T12:45:38.000Z</time>
</trkpt>
<trkpt lat="46.1268510" lon="10.4737490">
	<ele>2589.40</ele>
	<time>2023-08-07T12:45:39.000Z</time>
</trkpt>
<trkpt lat="46.1268530" lon="10.4737490">
	<ele>2589.40</ele>
	<time>2023-08-07T12:45:40.000Z</time>
</trkpt>
<trkpt lat="46.1268530" lon="10.4737470">
	<ele>2589.20</ele>
	<time>2023-08-07T12:45:41.000Z</time>
</trkpt>
<trkpt lat="46.1268530" lon="10.4737470">
	<ele>2589.00</ele>
	<time>2023-08-07T12:45:42.000Z</time>
</trkpt>
<trkpt lat="46.1268540" lon="10.4737470">
	<ele>2588.40</ele>
	<time>2023-08-07T12:45:43.000Z</time>
</trkpt>
<trkpt lat="46.1268540" lon="10.4737460">
	<ele>2588.20</ele>
	<time>2023-08-07T12:45:44.000Z</time>
</trkpt>
<trkpt lat="46.1268540" lon="10.4737450">
	<ele>2587.80</ele>
	<time>2023-08-07T12:45:45.000Z</time>
</trkpt>
<trkpt lat="46.1268550" lon="10.4737430">
	<ele>2587.60</ele>
	<time>2023-08-07T12:45:46.000Z</time>
</trkpt>
<trkpt lat="46.1268550" lon="10.4737420">
	<ele>2587.60</ele>
	<time>2023-08-07T12:45:47.000Z</time>
</trkpt>
<trkpt lat="46.1268560" lon="10.4737410">
	<ele>2587.60</ele>
	<time>2023-08-07T12:45:48.000Z</time>
</trkpt>
<trkpt lat="46.1268560" lon="10.4737400">
	<ele>2587.40</ele>
	<time>2023-08-07T12:45:49.000Z</time>
</trkpt>
<trkpt lat="46.1268550" lon="10.4737400">
	<ele>2587.40</ele>
	<time>2023-08-07T12:45:50.000Z</time>
</trkpt>
<trkpt lat="46.1268540" lon="10.4737370">
	<ele>2587.40</ele>
	<time>2023-08-07T12:45:51.000Z</time>
</trkpt>
<trkpt lat="46.1268540" lon="10.4737330">
	<ele>2587.20</ele>
	<time>2023-08-07T12:45:52.000Z</time>
</trkpt>
<trkpt lat="46.1268540" lon="10.4737290">
	<ele>2587.20</ele>
	<time>2023-08-07T12:45:53.000Z</time>
</trkpt>
<trkpt lat="46.1268530" lon="10.4737260">
	<ele>2587.00</ele>
	<time>2023-08-07T12:45:54.000Z</time>
</trkpt>
<trkpt lat="46.1268520" lon="10.4737220">
	<ele>2586.80</ele>
	<time>2023-08-07T12:45:55.000Z</time>
</trkpt>
<trkpt lat="46.1268520" lon="10.4737200">
	<ele>2586.80</ele>
	<time>2023-08-07T12:45:56.000Z</time>
</trkpt>
<trkpt lat="46.1268520" lon="10.4737170">
	<ele>2586.40</ele>
	<time>2023-08-07T12:45:57.000Z</time>
</trkpt>
<trkpt lat="46.1268520" lon="10.4737140">
	<ele>2586.40</ele>
	<time>2023-08-07T12:45:58.000Z</time>
</trkpt>
<trkpt lat="46.1268530" lon="10.4737120">
	<ele>2586.20</ele>
	<time>2023-08-07T12:45:59.000Z</time>
</trkpt>
<trkpt lat="46.1268530" lon="10.4737100">
	<ele>2586.00</ele>
	<time>2023-08-07T12:46:00.000Z</time>
</trkpt>
<trkpt lat="46.1268530" lon="10.4737080">
	<ele>2585.60</ele>
	<time>2023-08-07T12:46:01.000Z</time>
</trkpt>
<trkpt lat="46.1268540" lon="10.4737040">
	<ele>2585.60</ele>
	<time>2023-08-07T12:46:02.000Z</time>
</trkpt>
<trkpt lat="46.1268540" lon="10.4737010">
	<ele>2585.40</ele>
	<time>2023-08-07T12:46:03.000Z</time>
</trkpt>
<trkpt lat="46.1268540" lon="10.4737000">
	<ele>2585.40</ele>
	<time>2023-08-07T12:46:04.000Z</time>
</trkpt>
<trkpt lat="46.1268550" lon="10.4736980">
	<ele>2585.40</ele>
	<time>2023-08-07T12:46:05.000Z</time>
</trkpt>
<trkpt lat="46.1268550" lon="10.4736960">
	<ele>2585.20</ele>
	<time>2023-08-07T12:46:06.000Z</time>
</trkpt>
<trkpt lat="46.1268560" lon="10.4736900">
	<ele>2585.00</ele>
	<time>2023-08-07T12:46:07.000Z</time>
</trkpt>
<trkpt lat="46.1268570" lon="10.4736810">
	<ele>2584.80</ele>
	<time>2023-08-07T12:46:08.000Z</time>
</trkpt>
<trkpt lat="46.1268570" lon="10.4736710">
	<ele>2584.60</ele>
	<time>2023-08-07T12:46:09.000Z</time>
</trkpt>
<trkpt lat="46.1268570" lon="10.4736660">
	<ele>2584.60</ele>
	<time>2023-08-07T12:46:10.000Z</time>
</trkpt>
<trkpt lat="46.1268570" lon="10.4736620">
	<ele>2584.40</ele>
	<time>2023-08-07T12:46:11.000Z</time>
</trkpt>
<trkpt lat="46.1268570" lon="10.4736610">
	<ele>2584.60</ele>
	<time>2023-08-07T12:46:12.000Z</time>
</trkpt>
<trkpt lat="46.1268570" lon="10.4736570">
	<ele>2584.60</ele>
	<time>2023-08-07T12:46:13.000Z</time>
</trkpt>
<trkpt lat="46.1268570" lon="10.4736550">
	<ele>2584.60</ele>
	<time>2023-08-07T12:46:14.000Z</time>
</trkpt>
<trkpt lat="46.1268570" lon="10.4736520">
	<ele>2584.60</ele>
	<time>2023-08-07T12:46:15.000Z</time>
</trkpt>
<trkpt lat="46.1268590" lon="10.4736500">
	<ele>2584.60</ele>
	<time>2023-08-07T12:46:16.000Z</time>
</trkpt>
<trkpt lat="46.1268610" lon="10.4736490">
	<ele>2584.80</ele>
	<time>2023-08-07T12:46:17.000Z</time>
</trkpt>
<trkpt lat="46.1268640" lon="10.4736470">
	<ele>2584.80</ele>
	<time>2023-08-07T12:46:18.000Z</time>
</trkpt>
<trkpt lat="46.1268650" lon="10.4736460">
	<ele>2584.60</ele>
	<time>2023-08-07T12:46:19.000Z</time>
</trkpt>
<trkpt lat="46.1268680" lon="10.4736450">
	<ele>2584.40</ele>
	<time>2023-08-07T12:46:20.000Z</time>
</trkpt>
<trkpt lat="46.1268690" lon="10.4736400">
	<ele>2584.00</ele>
	<time>2023-08-07T12:46:21.000Z</time>
</trkpt>
<trkpt lat="46.1268700" lon="10.4736380">
	<ele>2583.80</ele>
	<time>2023-08-07T12:46:22.000Z</time>
</trkpt>
<trkpt lat="46.1268700" lon="10.4736360">
	<ele>2583.60</ele>
	<time>2023-08-07T12:46:23.000Z</time>
</trkpt>
<trkpt lat="46.1268700" lon="10.4736340">
	<ele>2583.40</ele>
	<time>2023-08-07T12:46:24.000Z</time>
</trkpt>
<trkpt lat="46.1268700" lon="10.4736320">
	<ele>2583.20</ele>
	<time>2023-08-07T12:46:25.000Z</time>
</trkpt>
<trkpt lat="46.1268700" lon="10.4736310">
	<ele>2582.80</ele>
	<time>2023-08-07T12:46:26.000Z</time>
</trkpt>
<trkpt lat="46.1268710" lon="10.4736310">
	<ele>2582.60</ele>
	<time>2023-08-07T12:46:27.000Z</time>
</trkpt>
<trkpt lat="46.1268710" lon="10.4736300">
	<ele>2582.40</ele>
	<time>2023-08-07T12:46:28.000Z</time>
</trkpt>
<trkpt lat="46.1268710" lon="10.4736300">
	<ele>2582.20</ele>
	<time>2023-08-07T12:46:29.000Z</time>
</trkpt>
<trkpt lat="46.1268710" lon="10.4736290">
	<ele>2582.00</ele>
	<time>2023-08-07T12:46:30.000Z</time>
</trkpt>
<trkpt lat="46.1268720" lon="10.4736280">
	<ele>2581.80</ele>
	<time>2023-08-07T12:46:31.000Z</time>
</trkpt>
<trkpt lat="46.1268720" lon="10.4736280">
	<ele>2581.60</ele>
	<time>2023-08-07T12:46:32.000Z</time>
</trkpt>
<trkpt lat="46.1268720" lon="10.4736270">
	<ele>2581.40</ele>
	<time>2023-08-07T12:46:33.000Z</time>
</trkpt>
<trkpt lat="46.1268720" lon="10.4736250">
	<ele>2581.40</ele>
	<time>2023-08-07T12:46:34.000Z</time>
</trkpt>
<trkpt lat="46.1268730" lon="10.4736220">
	<ele>2581.40</ele>
	<time>2023-08-07T12:46:35.000Z</time>
</trkpt>
<trkpt lat="46.1268740" lon="10.4736190">
	<ele>2581.40</ele>
	<time>2023-08-07T12:46:36.000Z</time>
</trkpt>
<trkpt lat="46.1268740" lon="10.4736180">
	<ele>2581.40</ele>
	<time>2023-08-07T12:46:37.000Z</time>
</trkpt>
<trkpt lat="46.1268740" lon="10.4736150">
	<ele>2581.40</ele>
	<time>2023-08-07T12:46:38.000Z</time>
</trkpt>
<trkpt lat="46.1268740" lon="10.4736120">
	<ele>2581.40</ele>
	<time>2023-08-07T12:46:39.000Z</time>
</trkpt>
<trkpt lat="46.1268730" lon="10.4736060">
	<ele>2581.00</ele>
	<time>2023-08-07T12:46:40.000Z</time>
</trkpt>
<trkpt lat="46.1268730" lon="10.4736030">
	<ele>2580.80</ele>
	<time>2023-08-07T12:46:41.000Z</time>
</trkpt>
<trkpt lat="46.1268730" lon="10.4736000">
	<ele>2580.40</ele>
	<time>2023-08-07T12:46:42.000Z</time>
</trkpt>
<trkpt lat="46.1268720" lon="10.4735980">
	<ele>2580.20</ele>
	<time>2023-08-07T12:46:43.000Z</time>
</trkpt>
<trkpt lat="46.1268720" lon="10.4735970">
	<ele>2580.20</ele>
	<time>2023-08-07T12:46:44.000Z</time>
</trkpt>
<trkpt lat="46.1268730" lon="10.4735960">
	<ele>2580.00</ele>
	<time>2023-08-07T12:46:45.000Z</time>
</trkpt>
<trkpt lat="46.1268740" lon="10.4735950">
	<ele>2580.00</ele>
	<time>2023-08-07T12:46:46.000Z</time>
</trkpt>
<trkpt lat="46.1268740" lon="10.4735940">
	<ele>2580.00</ele>
	<time>2023-08-07T12:46:47.000Z</time>
</trkpt>
<trkpt lat="46.1268750" lon="10.4735930">
	<ele>2580.00</ele>
	<time>2023-08-07T12:46:48.000Z</time>
</trkpt>
<trkpt lat="46.1268760" lon="10.4735920">
	<ele>2580.00</ele>
	<time>2023-08-07T12:46:49.000Z</time>
</trkpt>
<trkpt lat="46.1268760" lon="10.4735920">
	<ele>2580.00</ele>
	<time>2023-08-07T12:46:50.000Z</time>
</trkpt>
<trkpt lat="46.1268770" lon="10.4735890">
	<ele>2580.20</ele>
	<time>2023-08-07T12:46:51.000Z</time>
</trkpt>
<trkpt lat="46.1268770" lon="10.4735840">
	<ele>2580.20</ele>
	<time>2023-08-07T12:46:52.000Z</time>
</trkpt>
<trkpt lat="46.1268770" lon="10.4735760">
	<ele>2580.20</ele>
	<time>2023-08-07T12:46:53.000Z</time>
</trkpt>
<trkpt lat="46.1268770" lon="10.4735680">
	<ele>2580.40</ele>
	<time>2023-08-07T12:46:54.000Z</time>
</trkpt>
<trkpt lat="46.1268770" lon="10.4735610">
	<ele>2580.40</ele>
	<time>2023-08-07T12:46:55.000Z</time>
</trkpt>
<trkpt lat="46.1268770" lon="10.4735570">
	<ele>2580.40</ele>
	<time>2023-08-07T12:46:56.000Z</time>
</trkpt>
<trkpt lat="46.1268770" lon="10.4735540">
	<ele>2580.60</ele>
	<time>2023-08-07T12:46:57.000Z</time>
</trkpt>
<trkpt lat="46.1268770" lon="10.4735520">
	<ele>2580.40</ele>
	<time>2023-08-07T12:46:58.000Z</time>
</trkpt>
<trkpt lat="46.1268770" lon="10.4735510">
	<ele>2580.20</ele>
	<time>2023-08-07T12:46:59.000Z</time>
</trkpt>
<trkpt lat="46.1268770" lon="10.4735490">
	<ele>2580.20</ele>
	<time>2023-08-07T12:47:00.000Z</time>
</trkpt>
<trkpt lat="46.1268770" lon="10.4735470">
	<ele>2580.00</ele>
	<time>2023-08-07T12:47:01.000Z</time>
</trkpt>
<trkpt lat="46.1268770" lon="10.4735460">
	<ele>2580.00</ele>
	<time>2023-08-07T12:47:02.000Z</time>
</trkpt>
<trkpt lat="46.1268760" lon="10.4735460">
	<ele>2580.00</ele>
	<time>2023-08-07T12:47:03.000Z</time>
</trkpt>
<trkpt lat="46.1268750" lon="10.4735460">
	<ele>2579.80</ele>
	<time>2023-08-07T12:47:04.000Z</time>
</trkpt>
<trkpt lat="46.1268750" lon="10.4735450">
	<ele>2579.60</ele>
	<time>2023-08-07T12:47:05.000Z</time>
</trkpt>
<trkpt lat="46.1268740" lon="10.4735440">
	<ele>2579.60</ele>
	<time>2023-08-07T12:47:06.000Z</time>
</trkpt>
<trkpt lat="46.1268730" lon="10.4735430">
	<ele>2579.40</ele>
	<time>2023-08-07T12:47:07.000Z</time>
</trkpt>
<trkpt lat="46.1268730" lon="10.4735430">
	<ele>2579.40</ele>
	<time>2023-08-07T12:47:08.000Z</time>
</trkpt>
<trkpt lat="46.1268720" lon="10.4735420">
	<ele>2579.00</ele>
	<time>2023-08-07T12:47:09.000Z</time>
</trkpt>
<trkpt lat="46.1268720" lon="10.4735400">
	<ele>2578.20</ele>
	<time>2023-08-07T12:47:10.000Z</time>
</trkpt>
<trkpt lat="46.1268720" lon="10.4735380">
	<ele>2577.60</ele>
	<time>2023-08-07T12:47:11.000Z</time>
</trkpt>
<trkpt lat="46.1268710" lon="10.4735370">
	<ele>2577.40</ele>
	<time>2023-08-07T12:47:12.000Z</time>
</trkpt>
<trkpt lat="46.1268700" lon="10.4735350">
	<ele>2577.20</ele>
	<time>2023-08-07T12:47:13.000Z</time>
</trkpt>
<trkpt lat="46.1268690" lon="10.4735340">
	<ele>2577.00</ele>
	<time>2023-08-07T12:47:14.000Z</time>
</trkpt>
<trkpt lat="46.1268680" lon="10.4735340">
	<ele>2577.20</ele>
	<time>2023-08-07T12:47:15.000Z</time>
</trkpt>
<trkpt lat="46.1268670" lon="10.4735330">
	<ele>2577.40</ele>
	<time>2023-08-07T12:47:16.000Z</time>
</trkpt>
<trkpt lat="46.1268660" lon="10.4735320">
	<ele>2577.40</ele>
	<time>2023-08-07T12:47:17.000Z</time>
</trkpt>
<trkpt lat="46.1268660" lon="10.4735290">
	<ele>2577.40</ele>
	<time>2023-08-07T12:47:18.000Z</time>
</trkpt>
<trkpt lat="46.1268650" lon="10.4735270">
	<ele>2577.40</ele>
	<time>2023-08-07T12:47:19.000Z</time>
</trkpt>
<trkpt lat="46.1268650" lon="10.4735250">
	<ele>2577.40</ele>
	<time>2023-08-07T12:47:20.000Z</time>
</trkpt>
<trkpt lat="46.1268650" lon="10.4735220">
	<ele>2577.40</ele>
	<time>2023-08-07T12:47:21.000Z</time>
</trkpt>
<trkpt lat="46.1268650" lon="10.4735200">
	<ele>2577.40</ele>
	<time>2023-08-07T12:47:22.000Z</time>
</trkpt>
<trkpt lat="46.1268640" lon="10.4735190">
	<ele>2577.40</ele>
	<time>2023-08-07T12:47:23.000Z</time>
</trkpt>
<trkpt lat="46.1268640" lon="10.4735170">
	<ele>2577.40</ele>
	<time>2023-08-07T12:47:24.000Z</time>
</trkpt>
<trkpt lat="46.1268640" lon="10.4735150">
	<ele>2577.20</ele>
	<time>2023-08-07T12:47:25.000Z</time>
</trkpt>
<trkpt lat="46.1268640" lon="10.4735130">
	<ele>2577.20</ele>
	<time>2023-08-07T12:47:26.000Z</time>
</trkpt>
<trkpt lat="46.1268640" lon="10.4735120">
	<ele>2576.80</ele>
	<time>2023-08-07T12:47:27.000Z</time>
</trkpt>
<trkpt lat="46.1268640" lon="10.4735110">
	<ele>2576.60</ele>
	<time>2023-08-07T12:47:28.000Z</time>
</trkpt>
<trkpt lat="46.1268640" lon="10.4735100">
	<ele>2576.20</ele>
	<time>2023-08-07T12:47:29.000Z</time>
</trkpt>
<trkpt lat="46.1268640" lon="10.4735090">
	<ele>2576.00</ele>
	<time>2023-08-07T12:47:30.000Z</time>
</trkpt>
<trkpt lat="46.1268650" lon="10.4735080">
	<ele>2575.80</ele>
	<time>2023-08-07T12:47:31.000Z</time>
</trkpt>
<trkpt lat="46.1268650" lon="10.4735080">
	<ele>2575.80</ele>
	<time>2023-08-07T12:47:32.000Z</time>
</trkpt>
<trkpt lat="46.1268650" lon="10.4735070">
	<ele>2575.60</ele>
	<time>2023-08-07T12:47:33.000Z</time>
</trkpt>
<trkpt lat="46.1268660" lon="10.4735070">
	<ele>2575.60</ele>
	<time>2023-08-07T12:47:34.000Z</time>
</trkpt>
<trkpt lat="46.1268660" lon="10.4735060">
	<ele>2575.40</ele>
	<time>2023-08-07T12:47:35.000Z</time>
</trkpt>
<trkpt lat="46.1268670" lon="10.4735050">
	<ele>2575.20</ele>
	<time>2023-08-07T12:47:36.000Z</time>
</trkpt>
<trkpt lat="46.1268670" lon="10.4735040">
	<ele>2575.00</ele>
	<time>2023-08-07T12:47:37.000Z</time>
</trkpt>
<trkpt lat="46.1268680" lon="10.4735020">
	<ele>2574.80</ele>
	<time>2023-08-07T12:47:38.000Z</time>
</trkpt>
<trkpt lat="46.1268690" lon="10.4734990">
	<ele>2574.60</ele>
	<time>2023-08-07T12:47:39.000Z</time>
</trkpt>
<trkpt lat="46.1268700" lon="10.4734960">
	<ele>2574.40</ele>
	<time>2023-08-07T12:47:40.000Z</time>
</trkpt>
<trkpt lat="46.1268720" lon="10.4734940">
	<ele>2574.40</ele>
	<time>2023-08-07T12:47:41.000Z</time>
</trkpt>
<trkpt lat="46.1268730" lon="10.4734910">
	<ele>2574.20</ele>
	<time>2023-08-07T12:47:42.000Z</time>
</trkpt>
<trkpt lat="46.1268750" lon="10.4734880">
	<ele>2574.20</ele>
	<time>2023-08-07T12:47:43.000Z</time>
</trkpt>
<trkpt lat="46.1268770" lon="10.4734860">
	<ele>2574.20</ele>
	<time>2023-08-07T12:47:44.000Z</time>
</trkpt>
<trkpt lat="46.1268790" lon="10.4734830">
	<ele>2574.20</ele>
	<time>2023-08-07T12:47:45.000Z</time>
</trkpt>
<trkpt lat="46.1268810" lon="10.4734800">
	<ele>2574.20</ele>
	<time>2023-08-07T12:47:46.000Z</time>
</trkpt>
<trkpt lat="46.1268840" lon="10.4734770">
	<ele>2574.20</ele>
	<time>2023-08-07T12:47:47.000Z</time>
</trkpt>
<trkpt lat="46.1268860" lon="10.4734740">
	<ele>2574.00</ele>
	<time>2023-08-07T12:47:48.000Z</time>
</trkpt>
<trkpt lat="46.1268880" lon="10.4734710">
	<ele>2573.80</ele>
	<time>2023-08-07T12:47:49.000Z</time>
</trkpt>
<trkpt lat="46.1268900" lon="10.4734670">
	<ele>2573.80</ele>
	<time>2023-08-07T12:47:50.000Z</time>
</trkpt>
<trkpt lat="46.1268930" lon="10.4734620">
	<ele>2573.60</ele>
	<time>2023-08-07T12:47:51.000Z</time>
</trkpt>
<trkpt lat="46.1268960" lon="10.4734580">
	<ele>2573.20</ele>
	<time>2023-08-07T12:47:52.000Z</time>
</trkpt>
<trkpt lat="46.1268990" lon="10.4734540">
	<ele>2573.00</ele>
	<time>2023-08-07T12:47:53.000Z</time>
</trkpt>
<trkpt lat="46.1269010" lon="10.4734490">
	<ele>2572.80</ele>
	<time>2023-08-07T12:47:54.000Z</time>
</trkpt>
<trkpt lat="46.1269040" lon="10.4734450">
	<ele>2572.80</ele>
	<time>2023-08-07T12:47:55.000Z</time>
</trkpt>
<trkpt lat="46.1269060" lon="10.4734420">
	<ele>2572.60</ele>
	<time>2023-08-07T12:47:56.000Z</time>
</trkpt>
<trkpt lat="46.1269080" lon="10.4734380">
	<ele>2572.40</ele>
	<time>2023-08-07T12:47:57.000Z</time>
</trkpt>
<trkpt lat="46.1269100" lon="10.4734350">
	<ele>2572.20</ele>
	<time>2023-08-07T12:47:58.000Z</time>
</trkpt>
<trkpt lat="46.1269120" lon="10.4734320">
	<ele>2572.00</ele>
	<time>2023-08-07T12:47:59.000Z</time>
</trkpt>
<trkpt lat="46.1269130" lon="10.4734290">
	<ele>2571.80</ele>
	<time>2023-08-07T12:48:00.000Z</time>
</trkpt>
<trkpt lat="46.1269140" lon="10.4734260">
	<ele>2571.80</ele>
	<time>2023-08-07T12:48:01.000Z</time>
</trkpt>
<trkpt lat="46.1269150" lon="10.4734230">
	<ele>2571.80</ele>
	<time>2023-08-07T12:48:02.000Z</time>
</trkpt>
<trkpt lat="46.1269160" lon="10.4734200">
	<ele>2571.60</ele>
	<time>2023-08-07T12:48:03.000Z</time>
</trkpt>
<trkpt lat="46.1269170" lon="10.4734180">
	<ele>2571.60</ele>
	<time>2023-08-07T12:48:04.000Z</time>
</trkpt>
<trkpt lat="46.1269190" lon="10.4734080">
	<ele>2571.40</ele>
	<time>2023-08-07T12:48:05.000Z</time>
</trkpt>
<trkpt lat="46.1269220" lon="10.4733980">
	<ele>2571.60</ele>
	<time>2023-08-07T12:48:06.000Z</time>
</trkpt>
<trkpt lat="46.1269230" lon="10.4733880">
	<ele>2571.60</ele>
	<time>2023-08-07T12:48:07.000Z</time>
</trkpt>
<trkpt lat="46.1269250" lon="10.4733770">
	<ele>2571.40</ele>
	<time>2023-08-07T12:48:08.000Z</time>
</trkpt>
<trkpt lat="46.1269300" lon="10.4733680">
	<ele>2571.40</ele>
	<time>2023-08-07T12:48:09.000Z</time>
</trkpt>
<trkpt lat="46.1269340" lon="10.4733490">
	<ele>2571.40</ele>
	<time>2023-08-07T12:48:10.000Z</time>
</trkpt>
<trkpt lat="46.1269360" lon="10.4733360">
	<ele>2571.40</ele>
	<time>2023-08-07T12:48:11.000Z</time>
</trkpt>
<trkpt lat="46.1269380" lon="10.4733270">
	<ele>2571.40</ele>
	<time>2023-08-07T12:48:12.000Z</time>
</trkpt>
<trkpt lat="46.1269400" lon="10.4733180">
	<ele>2571.80</ele>
	<time>2023-08-07T12:48:13.000Z</time>
</trkpt>
<trkpt lat="46.1269400" lon="10.4733180">
	<ele>2571.80</ele>
	<time>2023-08-07T12:48:14.000Z</time>
</trkpt>
<trkpt lat="46.1269400" lon="10.4733180">
	<ele>2572.20</ele>
	<time>2023-08-07T12:48:15.000Z</time>
</trkpt>
<trkpt lat="46.1269400" lon="10.4733180">
	<ele>2572.20</ele>
	<time>2023-08-07T12:48:16.000Z</time>
</trkpt>
<trkpt lat="46.1269400" lon="10.4733180">
	<ele>2572.20</ele>
	<time>2023-08-07T12:48:17.000Z</time>
</trkpt>
<trkpt lat="46.1269400" lon="10.4733180">
	<ele>2572.20</ele>
	<time>2023-08-07T12:48:18.000Z</time>
</trkpt>
<trkpt lat="46.1269400" lon="10.4733180">
	<ele>2572.20</ele>
	<time>2023-08-07T12:48:19.000Z</time>
</trkpt>
<trkpt lat="46.1269400" lon="10.4733180">
	<ele>2572.20</ele>
	<time>2023-08-07T12:48:20.000Z</time>
</trkpt>
<trkpt lat="46.1269400" lon="10.4733180">
	<ele>2572.20</ele>
	<time>2023-08-07T12:48:21.000Z</time>
</trkpt>
<trkpt lat="46.1269400" lon="10.4733180">
	<ele>2572.20</ele>
	<time>2023-08-07T12:48:22.000Z</time>
</trkpt>
<trkpt lat="46.1269400" lon="10.4733180">
	<ele>2572.20</ele>
	<time>2023-08-07T12:48:23.000Z</time>
</trkpt>
<trkpt lat="46.1269400" lon="10.4733180">
	<ele>2572.00</ele>
	<time>2023-08-07T12:48:24.000Z</time>
</trkpt>
<trkpt lat="46.1269410" lon="10.4733130">
	<ele>2572.00</ele>
	<time>2023-08-07T12:48:25.000Z</time>
</trkpt>
<trkpt lat="46.1269410" lon="10.4733110">
	<ele>2571.80</ele>
	<time>2023-08-07T12:48:26.000Z</time>
</trkpt>
<trkpt lat="46.1269410" lon="10.4733110">
	<ele>2571.80</ele>
	<time>2023-08-07T12:48:27.000Z</time>
</trkpt>
<trkpt lat="46.1269420" lon="10.4733110">
	<ele>2571.80</ele>
	<time>2023-08-07T12:48:28.000Z</time>
</trkpt>
<trkpt lat="46.1269420" lon="10.4733110">
	<ele>2571.80</ele>
	<time>2023-08-07T12:48:29.000Z</time>
</trkpt>
<trkpt lat="46.1269420" lon="10.4733110">
	<ele>2571.60</ele>
	<time>2023-08-07T12:48:30.000Z</time>
</trkpt>
<trkpt lat="46.1269420" lon="10.4733100">
	<ele>2571.60</ele>
	<time>2023-08-07T12:48:31.000Z</time>
</trkpt>
<trkpt lat="46.1269420" lon="10.4733100">
	<ele>2571.60</ele>
	<time>2023-08-07T12:48:32.000Z</time>
</trkpt>
<trkpt lat="46.1269420" lon="10.4733090">
	<ele>2571.60</ele>
	<time>2023-08-07T12:48:33.000Z</time>
</trkpt>
<trkpt lat="46.1269420" lon="10.4733090">
	<ele>2571.60</ele>
	<time>2023-08-07T12:48:34.000Z</time>
</trkpt>
<trkpt lat="46.1269420" lon="10.4733090">
	<ele>2571.60</ele>
	<time>2023-08-07T12:48:35.000Z</time>
</trkpt>
<trkpt lat="46.1269430" lon="10.4733090">
	<ele>2571.60</ele>
	<time>2023-08-07T12:48:36.000Z</time>
</trkpt>
<trkpt lat="46.1269430" lon="10.4733080">
	<ele>2571.40</ele>
	<time>2023-08-07T12:48:37.000Z</time>
</trkpt>
<trkpt lat="46.1269440" lon="10.4733080">
	<ele>2571.40</ele>
	<time>2023-08-07T12:48:38.000Z</time>
</trkpt>
<trkpt lat="46.1269440" lon="10.4733080">
	<ele>2571.20</ele>
	<time>2023-08-07T12:48:39.000Z</time>
</trkpt>
<trkpt lat="46.1269440" lon="10.4733080">
	<ele>2571.00</ele>
	<time>2023-08-07T12:48:40.000Z</time>
</trkpt>
<trkpt lat="46.1269450" lon="10.4733080">
	<ele>2570.80</ele>
	<time>2023-08-07T12:48:41.000Z</time>
</trkpt>
<trkpt lat="46.1269460" lon="10.4733080">
	<ele>2570.60</ele>
	<time>2023-08-07T12:48:42.000Z</time>
</trkpt>
<trkpt lat="46.1269470" lon="10.4733070">
	<ele>2570.40</ele>
	<time>2023-08-07T12:48:43.000Z</time>
</trkpt>
<trkpt lat="46.1269470" lon="10.4733060">
	<ele>2570.40</ele>
	<time>2023-08-07T12:48:44.000Z</time>
</trkpt>
<trkpt lat="46.1269480" lon="10.4733060">
	<ele>2570.20</ele>
	<time>2023-08-07T12:48:45.000Z</time>
</trkpt>
<trkpt lat="46.1269480" lon="10.4733060">
	<ele>2570.20</ele>
	<time>2023-08-07T12:48:46.000Z</time>
</trkpt>
<trkpt lat="46.1269490" lon="10.4733050">
	<ele>2570.00</ele>
	<time>2023-08-07T12:48:47.000Z</time>
</trkpt>
<trkpt lat="46.1269490" lon="10.4733040">
	<ele>2570.00</ele>
	<time>2023-08-07T12:48:48.000Z</time>
</trkpt>
<trkpt lat="46.1269490" lon="10.4733040">
	<ele>2570.00</ele>
	<time>2023-08-07T12:48:49.000Z</time>
</trkpt>
<trkpt lat="46.1269490" lon="10.4733010">
	<ele>2569.80</ele>
	<time>2023-08-07T12:48:50.000Z</time>
</trkpt>
<trkpt lat="46.1269500" lon="10.4732980">
	<ele>2569.80</ele>
	<time>2023-08-07T12:48:51.000Z</time>
</trkpt>
<trkpt lat="46.1269500" lon="10.4732920">
	<ele>2569.80</ele>
	<time>2023-08-07T12:48:52.000Z</time>
</trkpt>
<trkpt lat="46.1269500" lon="10.4732870">
	<ele>2569.80</ele>
	<time>2023-08-07T12:48:53.000Z</time>
</trkpt>
<trkpt lat="46.1269530" lon="10.4732850">
	<ele>2569.60</ele>
	<time>2023-08-07T12:48:54.000Z</time>
</trkpt>
<trkpt lat="46.1269560" lon="10.4732830">
	<ele>2569.40</ele>
	<time>2023-08-07T12:48:55.000Z</time>
</trkpt>
<trkpt lat="46.1269580" lon="10.4732810">
	<ele>2569.20</ele>
	<time>2023-08-07T12:48:56.000Z</time>
</trkpt>
<trkpt lat="46.1269590" lon="10.4732810">
	<ele>2569.00</ele>
	<time>2023-08-07T12:48:57.000Z</time>
</trkpt>
<trkpt lat="46.1269630" lon="10.4732800">
	<ele>2568.80</ele>
	<time>2023-08-07T12:48:58.000Z</time>
</trkpt>
<trkpt lat="46.1269660" lon="10.4732780">
	<ele>2568.60</ele>
	<time>2023-08-07T12:48:59.000Z</time>
</trkpt>
<trkpt lat="46.1269680" lon="10.4732770">
	<ele>2568.40</ele>
	<time>2023-08-07T12:49:00.000Z</time>
</trkpt>
<trkpt lat="46.1269690" lon="10.4732750">
	<ele>2568.20</ele>
	<time>2023-08-07T12:49:01.000Z</time>
</trkpt>
<trkpt lat="46.1269700" lon="10.4732740">
	<ele>2568.20</ele>
	<time>2023-08-07T12:49:02.000Z</time>
</trkpt>
<trkpt lat="46.1269720" lon="10.4732730">
	<ele>2568.00</ele>
	<time>2023-08-07T12:49:03.000Z</time>
</trkpt>
<trkpt lat="46.1269750" lon="10.4732720">
	<ele>2568.00</ele>
	<time>2023-08-07T12:49:04.000Z</time>
</trkpt>
<trkpt lat="46.1269750" lon="10.4732710">
	<ele>2568.00</ele>
	<time>2023-08-07T12:49:05.000Z</time>
</trkpt>
<trkpt lat="46.1269780" lon="10.4732710">
	<ele>2568.00</ele>
	<time>2023-08-07T12:49:06.000Z</time>
</trkpt>
<trkpt lat="46.1269780" lon="10.4732710">
	<ele>2568.00</ele>
	<time>2023-08-07T12:49:07.000Z</time>
</trkpt>
<trkpt lat="46.1269790" lon="10.4732710">
	<ele>2568.00</ele>
	<time>2023-08-07T12:49:08.000Z</time>
</trkpt>
<trkpt lat="46.1269790" lon="10.4732710">
	<ele>2568.00</ele>
	<time>2023-08-07T12:49:09.000Z</time>
</trkpt>
<trkpt lat="46.1269800" lon="10.4732710">
	<ele>2568.00</ele>
	<time>2023-08-07T12:49:10.000Z</time>
</trkpt>
<trkpt lat="46.1269800" lon="10.4732700">
	<ele>2567.80</ele>
	<time>2023-08-07T12:49:11.000Z</time>
</trkpt>
<trkpt lat="46.1269820" lon="10.4732700">
	<ele>2568.00</ele>
	<time>2023-08-07T12:49:12.000Z</time>
</trkpt>
<trkpt lat="46.1269840" lon="10.4732700">
	<ele>2568.00</ele>
	<time>2023-08-07T12:49:13.000Z</time>
</trkpt>
<trkpt lat="46.1269860" lon="10.4732700">
	<ele>2567.80</ele>
	<time>2023-08-07T12:49:14.000Z</time>
</trkpt>
<trkpt lat="46.1269860" lon="10.4732690">
	<ele>2567.80</ele>
	<time>2023-08-07T12:49:15.000Z</time>
</trkpt>
<trkpt lat="46.1269900" lon="10.4732690">
	<ele>2567.60</ele>
	<time>2023-08-07T12:49:16.000Z</time>
</trkpt>
<trkpt lat="46.1269980" lon="10.4732690">
	<ele>2567.40</ele>
	<time>2023-08-07T12:49:17.000Z</time>
</trkpt>
<trkpt lat="46.1270030" lon="10.4732690">
	<ele>2567.20</ele>
	<time>2023-08-07T12:49:18.000Z</time>
</trkpt>
<trkpt lat="46.1270060" lon="10.4732680">
	<ele>2567.20</ele>
	<time>2023-08-07T12:49:19.000Z</time>
</trkpt>
<trkpt lat="46.1270080" lon="10.4732680">
	<ele>2567.20</ele>
	<time>2023-08-07T12:49:20.000Z</time>
</trkpt>
<trkpt lat="46.1270080" lon="10.4732670">
	<ele>2567.00</ele>
	<time>2023-08-07T12:49:21.000Z</time>
</trkpt>
<trkpt lat="46.1270080" lon="10.4732670">
	<ele>2566.80</ele>
	<time>2023-08-07T12:49:22.000Z</time>
</trkpt>
<trkpt lat="46.1270090" lon="10.4732660">
	<ele>2566.80</ele>
	<time>2023-08-07T12:49:23.000Z</time>
</trkpt>
<trkpt lat="46.1270090" lon="10.4732650">
	<ele>2566.60</ele>
	<time>2023-08-07T12:49:24.000Z</time>
</trkpt>
<trkpt lat="46.1270090" lon="10.4732650">
	<ele>2566.40</ele>
	<time>2023-08-07T12:49:25.000Z</time>
</trkpt>
<trkpt lat="46.1270090" lon="10.4732640">
	<ele>2566.40</ele>
	<time>2023-08-07T12:49:26.000Z</time>
</trkpt>
<trkpt lat="46.1270090" lon="10.4732640">
	<ele>2566.20</ele>
	<time>2023-08-07T12:49:27.000Z</time>
</trkpt>
<trkpt lat="46.1270090" lon="10.4732640">
	<ele>2566.00</ele>
	<time>2023-08-07T12:49:28.000Z</time>
</trkpt>
<trkpt lat="46.1270090" lon="10.4732640">
	<ele>2565.80</ele>
	<time>2023-08-07T12:49:29.000Z</time>
</trkpt>
<trkpt lat="46.1270090" lon="10.4732620">
	<ele>2565.60</ele>
	<time>2023-08-07T12:49:30.000Z</time>
</trkpt>
<trkpt lat="46.1270090" lon="10.4732610">
	<ele>2565.40</ele>
	<time>2023-08-07T12:49:31.000Z</time>
</trkpt>
<trkpt lat="46.1270090" lon="10.4732600">
	<ele>2565.20</ele>
	<time>2023-08-07T12:49:32.000Z</time>
</trkpt>
<trkpt lat="46.1270090" lon="10.4732580">
	<ele>2565.00</ele>
	<time>2023-08-07T12:49:33.000Z</time>
</trkpt>
<trkpt lat="46.1270090" lon="10.4732540">
	<ele>2564.80</ele>
	<time>2023-08-07T12:49:34.000Z</time>
</trkpt>
<trkpt lat="46.1270050" lon="10.4732490">
	<ele>2564.80</ele>
	<time>2023-08-07T12:49:35.000Z</time>
</trkpt>
<trkpt lat="46.1270020" lon="10.4732430">
	<ele>2564.40</ele>
	<time>2023-08-07T12:49:36.000Z</time>
</trkpt>
<trkpt lat="46.1269960" lon="10.4732380">
	<ele>2564.20</ele>
	<time>2023-08-07T12:49:37.000Z</time>
</trkpt>
<trkpt lat="46.1269910" lon="10.4732310">
	<ele>2564.00</ele>
	<time>2023-08-07T12:49:38.000Z</time>
</trkpt>
<trkpt lat="46.1269890" lon="10.4732250">
	<ele>2563.80</ele>
	<time>2023-08-07T12:49:39.000Z</time>
</trkpt>
<trkpt lat="46.1269890" lon="10.4732180">
	<ele>2563.80</ele>
	<time>2023-08-07T12:49:40.000Z</time>
</trkpt>
<trkpt lat="46.1269880" lon="10.4732120">
	<ele>2563.60</ele>
	<time>2023-08-07T12:49:41.000Z</time>
</trkpt>
<trkpt lat="46.1269880" lon="10.4732070">
	<ele>2563.60</ele>
	<time>2023-08-07T12:49:42.000Z</time>
</trkpt>
<trkpt lat="46.1269880" lon="10.4732040">
	<ele>2563.60</ele>
	<time>2023-08-07T12:49:43.000Z</time>
</trkpt>
<trkpt lat="46.1269880" lon="10.4731970">
	<ele>2563.60</ele>
	<time>2023-08-07T12:49:44.000Z</time>
</trkpt>
<trkpt lat="46.1269870" lon="10.4731880">
	<ele>2563.60</ele>
	<time>2023-08-07T12:49:45.000Z</time>
</trkpt>
<trkpt lat="46.1269860" lon="10.4731790">
	<ele>2563.60</ele>
	<time>2023-08-07T12:49:46.000Z</time>
</trkpt>
<trkpt lat="46.1269810" lon="10.4731680">
	<ele>2563.40</ele>
	<time>2023-08-07T12:49:47.000Z</time>
</trkpt>
<trkpt lat="46.1269760" lon="10.4731550">
	<ele>2563.40</ele>
	<time>2023-08-07T12:49:48.000Z</time>
</trkpt>
<trkpt lat="46.1269770" lon="10.4731430">
	<ele>2563.40</ele>
	<time>2023-08-07T12:49:49.000Z</time>
</trkpt>
<trkpt lat="46.1269770" lon="10.4731290">
	<ele>2563.00</ele>
	<time>2023-08-07T12:49:50.000Z</time>
</trkpt>
<trkpt lat="46.1269760" lon="10.4731160">
	<ele>2563.00</ele>
	<time>2023-08-07T12:49:51.000Z</time>
</trkpt>
<trkpt lat="46.1269750" lon="10.4731030">
	<ele>2562.60</ele>
	<time>2023-08-07T12:49:52.000Z</time>
</trkpt>
<trkpt lat="46.1269730" lon="10.4730910">
	<ele>2562.60</ele>
	<time>2023-08-07T12:49:53.000Z</time>
</trkpt>
<trkpt lat="46.1269700" lon="10.4730890">
	<ele>2562.40</ele>
	<time>2023-08-07T12:49:54.000Z</time>
</trkpt>
<trkpt lat="46.1269700" lon="10.4730830">
	<ele>2562.20</ele>
	<time>2023-08-07T12:49:55.000Z</time>
</trkpt>
<trkpt lat="46.1269710" lon="10.4730780">
	<ele>2562.00</ele>
	<time>2023-08-07T12:49:56.000Z</time>
</trkpt>
<trkpt lat="46.1269760" lon="10.4730790">
	<ele>2561.80</ele>
	<time>2023-08-07T12:49:57.000Z</time>
</trkpt>
<trkpt lat="46.1269790" lon="10.4730780">
	<ele>2561.60</ele>
	<time>2023-08-07T12:49:58.000Z</time>
</trkpt>
<trkpt lat="46.1269830" lon="10.4730790">
	<ele>2561.40</ele>
	<time>2023-08-07T12:49:59.000Z</time>
</trkpt>
<trkpt lat="46.1269850" lon="10.4730780">
	<ele>2561.20</ele>
	<time>2023-08-07T12:50:00.000Z</time>
</trkpt>
<trkpt lat="46.1269880" lon="10.4730750">
	<ele>2561.20</ele>
	<time>2023-08-07T12:50:01.000Z</time>
</trkpt>
<trkpt lat="46.1269910" lon="10.4730740">
	<ele>2560.80</ele>
	<time>2023-08-07T12:50:02.000Z</time>
</trkpt>
<trkpt lat="46.1269920" lon="10.4730730">
	<ele>2560.40</ele>
	<time>2023-08-07T12:50:03.000Z</time>
</trkpt>
<trkpt lat="46.1269960" lon="10.4730770">
	<ele>2560.20</ele>
	<time>2023-08-07T12:50:04.000Z</time>
</trkpt>
<trkpt lat="46.1269970" lon="10.4730850">
	<ele>2560.00</ele>
	<time>2023-08-07T12:50:05.000Z</time>
</trkpt>
<trkpt lat="46.1269980" lon="10.4730850">
	<ele>2560.00</ele>
	<time>2023-08-07T12:50:06.000Z</time>
</trkpt>
<trkpt lat="46.1269990" lon="10.4730840">
	<ele>2559.80</ele>
	<time>2023-08-07T12:50:07.000Z</time>
</trkpt>
<trkpt lat="46.1270010" lon="10.4730830">
	<ele>2559.80</ele>
	<time>2023-08-07T12:50:08.000Z</time>
</trkpt>
<trkpt lat="46.1270070" lon="10.4730870">
	<ele>2559.80</ele>
	<time>2023-08-07T12:50:09.000Z</time>
</trkpt>
<trkpt lat="46.1270110" lon="10.4730860">
	<ele>2559.80</ele>
	<time>2023-08-07T12:50:10.000Z</time>
</trkpt>
<trkpt lat="46.1270120" lon="10.4730820">
	<ele>2560.00</ele>
	<time>2023-08-07T12:50:11.000Z</time>
</trkpt>
<trkpt lat="46.1270120" lon="10.4730780">
	<ele>2560.00</ele>
	<time>2023-08-07T12:50:12.000Z</time>
</trkpt>
<trkpt lat="46.1270130" lon="10.4730740">
	<ele>2560.20</ele>
	<time>2023-08-07T12:50:13.000Z</time>
</trkpt>
<trkpt lat="46.1270140" lon="10.4730750">
	<ele>2560.20</ele>
	<time>2023-08-07T12:50:14.000Z</time>
</trkpt>
<trkpt lat="46.1270140" lon="10.4730750">
	<ele>2560.20</ele>
	<time>2023-08-07T12:50:15.000Z</time>
</trkpt>
<trkpt lat="46.1270150" lon="10.4730730">
	<ele>2560.20</ele>
	<time>2023-08-07T12:50:16.000Z</time>
</trkpt>
<trkpt lat="46.1270170" lon="10.4730720">
	<ele>2560.00</ele>
	<time>2023-08-07T12:50:17.000Z</time>
</trkpt>
<trkpt lat="46.1270190" lon="10.4730690">
	<ele>2560.00</ele>
	<time>2023-08-07T12:50:18.000Z</time>
</trkpt>
<trkpt lat="46.1270230" lon="10.4730680">
	<ele>2559.80</ele>
	<time>2023-08-07T12:50:19.000Z</time>
</trkpt>
<trkpt lat="46.1270250" lon="10.4730660">
	<ele>2559.80</ele>
	<time>2023-08-07T12:50:20.000Z</time>
</trkpt>
<trkpt lat="46.1270310" lon="10.4730670">
	<ele>2559.60</ele>
	<time>2023-08-07T12:50:21.000Z</time>
</trkpt>
<trkpt lat="46.1270320" lon="10.4730620">
	<ele>2559.60</ele>
	<time>2023-08-07T12:50:22.000Z</time>
</trkpt>
<trkpt lat="46.1270360" lon="10.4730580">
	<ele>2559.60</ele>
	<time>2023-08-07T12:50:23.000Z</time>
</trkpt>
<trkpt lat="46.1270390" lon="10.4730540">
	<ele>2559.40</ele>
	<time>2023-08-07T12:50:24.000Z</time>
</trkpt>
<trkpt lat="46.1270430" lon="10.4730530">
	<ele>2559.20</ele>
	<time>2023-08-07T12:50:25.000Z</time>
</trkpt>
<trkpt lat="46.1270480" lon="10.4730500">
	<ele>2559.20</ele>
	<time>2023-08-07T12:50:26.000Z</time>
</trkpt>
<trkpt lat="46.1270530" lon="10.4730460">
	<ele>2559.00</ele>
	<time>2023-08-07T12:50:27.000Z</time>
</trkpt>
<trkpt lat="46.1270570" lon="10.4730490">
	<ele>2558.60</ele>
	<time>2023-08-07T12:50:28.000Z</time>
</trkpt>
<trkpt lat="46.1270600" lon="10.4730510">
	<ele>2558.40</ele>
	<time>2023-08-07T12:50:29.000Z</time>
</trkpt>
<trkpt lat="46.1270670" lon="10.4730560">
	<ele>2558.20</ele>
	<time>2023-08-07T12:50:30.000Z</time>
</trkpt>
<trkpt lat="46.1270700" lon="10.4730570">
	<ele>2558.00</ele>
	<time>2023-08-07T12:50:31.000Z</time>
</trkpt>
<trkpt lat="46.1270720" lon="10.4730580">
	<ele>2557.80</ele>
	<time>2023-08-07T12:50:32.000Z</time>
</trkpt>
<trkpt lat="46.1270740" lon="10.4730560">
	<ele>2557.40</ele>
	<time>2023-08-07T12:50:33.000Z</time>
</trkpt>
<trkpt lat="46.1270770" lon="10.4730530">
	<ele>2557.20</ele>
	<time>2023-08-07T12:50:34.000Z</time>
</trkpt>
<trkpt lat="46.1270820" lon="10.4730450">
	<ele>2557.00</ele>
	<time>2023-08-07T12:50:35.000Z</time>
</trkpt>
<trkpt lat="46.1270830" lon="10.4730460">
	<ele>2557.00</ele>
	<time>2023-08-07T12:50:36.000Z</time>
</trkpt>
<trkpt lat="46.1270850" lon="10.4730460">
	<ele>2556.80</ele>
	<time>2023-08-07T12:50:37.000Z</time>
</trkpt>
<trkpt lat="46.1270900" lon="10.4730490">
	<ele>2556.60</ele>
	<time>2023-08-07T12:50:38.000Z</time>
</trkpt>
<trkpt lat="46.1270930" lon="10.4730480">
	<ele>2556.40</ele>
	<time>2023-08-07T12:50:39.000Z</time>
</trkpt>
<trkpt lat="46.1270970" lon="10.4730470">
	<ele>2556.20</ele>
	<time>2023-08-07T12:50:40.000Z</time>
</trkpt>
<trkpt lat="46.1271010" lon="10.4730380">
	<ele>2556.00</ele>
	<time>2023-08-07T12:50:41.000Z</time>
</trkpt>
<trkpt lat="46.1271060" lon="10.4730280">
	<ele>2555.80</ele>
	<time>2023-08-07T12:50:42.000Z</time>
</trkpt>
<trkpt lat="46.1271130" lon="10.4730280">
	<ele>2555.60</ele>
	<time>2023-08-07T12:50:43.000Z</time>
</trkpt>
<trkpt lat="46.1271180" lon="10.4730290">
	<ele>2555.40</ele>
	<time>2023-08-07T12:50:44.000Z</time>
</trkpt>
<trkpt lat="46.1271190" lon="10.4730290">
	<ele>2555.20</ele>
	<time>2023-08-07T12:50:45.000Z</time>
</trkpt>
<trkpt lat="46.1271220" lon="10.4730260">
	<ele>2555.00</ele>
	<time>2023-08-07T12:50:46.000Z</time>
</trkpt>
<trkpt lat="46.1271280" lon="10.4730290">
	<ele>2554.80</ele>
	<time>2023-08-07T12:50:47.000Z</time>
</trkpt>
<trkpt lat="46.1271320" lon="10.4730380">
	<ele>2554.60</ele>
	<time>2023-08-07T12:50:48.000Z</time>
</trkpt>
<trkpt lat="46.1271450" lon="10.4730580">
	<ele>2554.60</ele>
	<time>2023-08-07T12:50:49.000Z</time>
</trkpt>
<trkpt lat="46.1271480" lon="10.4730640">
	<ele>2554.60</ele>
	<time>2023-08-07T12:50:50.000Z</time>
</trkpt>
<trkpt lat="46.1271530" lon="10.4730740">
	<ele>2554.60</ele>
	<time>2023-08-07T12:50:51.000Z</time>
</trkpt>
<trkpt lat="46.1271600" lon="10.4730850">
	<ele>2554.60</ele>
	<time>2023-08-07T12:50:52.000Z</time>
</trkpt>
<trkpt lat="46.1271680" lon="10.4730910">
	<ele>2554.80</ele>
	<time>2023-08-07T12:50:53.000Z</time>
</trkpt>
<trkpt lat="46.1271730" lon="10.4730880">
	<ele>2554.80</ele>
	<time>2023-08-07T12:50:54.000Z</time>
</trkpt>
<trkpt lat="46.1271800" lon="10.4730890">
	<ele>2554.80</ele>
	<time>2023-08-07T12:50:55.000Z</time>
</trkpt>
<trkpt lat="46.1271840" lon="10.4730890">
	<ele>2554.80</ele>
	<time>2023-08-07T12:50:56.000Z</time>
</trkpt>
<trkpt lat="46.1271870" lon="10.4730880">
	<ele>2555.00</ele>
	<time>2023-08-07T12:50:57.000Z</time>
</trkpt>
<trkpt lat="46.1271900" lon="10.4730850">
	<ele>2555.00</ele>
	<time>2023-08-07T12:50:58.000Z</time>
</trkpt>
<trkpt lat="46.1271930" lon="10.4730830">
	<ele>2555.00</ele>
	<time>2023-08-07T12:50:59.000Z</time>
</trkpt>
<trkpt lat="46.1271950" lon="10.4730830">
	<ele>2555.00</ele>
	<time>2023-08-07T12:51:00.000Z</time>
</trkpt>
<trkpt lat="46.1271990" lon="10.4730820">
	<ele>2555.00</ele>
	<time>2023-08-07T12:51:01.000Z</time>
</trkpt>
<trkpt lat="46.1272020" lon="10.4730830">
	<ele>2555.00</ele>
	<time>2023-08-07T12:51:02.000Z</time>
</trkpt>
<trkpt lat="46.1272040" lon="10.4730810">
	<ele>2554.80</ele>
	<time>2023-08-07T12:51:03.000Z</time>
</trkpt>
<trkpt lat="46.1272040" lon="10.4730790">
	<ele>2554.80</ele>
	<time>2023-08-07T12:51:04.000Z</time>
</trkpt>
<trkpt lat="46.1272020" lon="10.4730730">
	<ele>2554.60</ele>
	<time>2023-08-07T12:51:05.000Z</time>
</trkpt>
<trkpt lat="46.1272030" lon="10.4730670">
	<ele>2554.40</ele>
	<time>2023-08-07T12:51:06.000Z</time>
</trkpt>
<trkpt lat="46.1272050" lon="10.4730640">
	<ele>2554.40</ele>
	<time>2023-08-07T12:51:07.000Z</time>
</trkpt>
<trkpt lat="46.1272070" lon="10.4730620">
	<ele>2554.40</ele>
	<time>2023-08-07T12:51:08.000Z</time>
</trkpt>
<trkpt lat="46.1272090" lon="10.4730610">
	<ele>2554.00</ele>
	<time>2023-08-07T12:51:09.000Z</time>
</trkpt>
<trkpt lat="46.1272140" lon="10.4730580">
	<ele>2554.00</ele>
	<time>2023-08-07T12:51:10.000Z</time>
</trkpt>
<trkpt lat="46.1272170" lon="10.4730520">
	<ele>2553.80</ele>
	<time>2023-08-07T12:51:11.000Z</time>
</trkpt>
<trkpt lat="46.1272220" lon="10.4730470">
	<ele>2553.80</ele>
	<time>2023-08-07T12:51:12.000Z</time>
</trkpt>
<trkpt lat="46.1272290" lon="10.4730480">
	<ele>2553.80</ele>
	<time>2023-08-07T12:51:13.000Z</time>
</trkpt>
<trkpt lat="46.1272330" lon="10.4730500">
	<ele>2553.60</ele>
	<time>2023-08-07T12:51:14.000Z</time>
</trkpt>
<trkpt lat="46.1272330" lon="10.4730490">
	<ele>2553.60</ele>
	<time>2023-08-07T12:51:15.000Z</time>
</trkpt>
<trkpt lat="46.1272320" lon="10.4730460">
	<ele>2553.60</ele>
	<time>2023-08-07T12:51:16.000Z</time>
</trkpt>
<trkpt lat="46.1272320" lon="10.4730420">
	<ele>2553.40</ele>
	<time>2023-08-07T12:51:17.000Z</time>
</trkpt>
<trkpt lat="46.1272360" lon="10.4730370">
	<ele>2553.40</ele>
	<time>2023-08-07T12:51:18.000Z</time>
</trkpt>
<trkpt lat="46.1272380" lon="10.4730290">
	<ele>2553.20</ele>
	<time>2023-08-07T12:51:19.000Z</time>
</trkpt>
<trkpt lat="46.1272410" lon="10.4730230">
	<ele>2553.00</ele>
	<time>2023-08-07T12:51:20.000Z</time>
</trkpt>
<trkpt lat="46.1272440" lon="10.4730230">
	<ele>2552.80</ele>
	<time>2023-08-07T12:51:21.000Z</time>
</trkpt>
<trkpt lat="46.1272450" lon="10.4730210">
	<ele>2552.80</ele>
	<time>2023-08-07T12:51:22.000Z</time>
</trkpt>
<trkpt lat="46.1272500" lon="10.4730170">
	<ele>2552.60</ele>
	<time>2023-08-07T12:51:23.000Z</time>
</trkpt>
<trkpt lat="46.1272590" lon="10.4730150">
	<ele>2552.60</ele>
	<time>2023-08-07T12:51:24.000Z</time>
</trkpt>
<trkpt lat="46.1272640" lon="10.4730100">
	<ele>2552.40</ele>
	<time>2023-08-07T12:51:25.000Z</time>
</trkpt>
<trkpt lat="46.1272700" lon="10.4730020">
	<ele>2552.20</ele>
	<time>2023-08-07T12:51:26.000Z</time>
</trkpt>
<trkpt lat="46.1272780" lon="10.4730020">
	<ele>2551.80</ele>
	<time>2023-08-07T12:51:27.000Z</time>
</trkpt>
<trkpt lat="46.1272820" lon="10.4729980">
	<ele>2551.60</ele>
	<time>2023-08-07T12:51:28.000Z</time>
</trkpt>
<trkpt lat="46.1272860" lon="10.4729960">
	<ele>2551.40</ele>
	<time>2023-08-07T12:51:29.000Z</time>
</trkpt>
<trkpt lat="46.1272910" lon="10.4729950">
	<ele>2551.20</ele>
	<time>2023-08-07T12:51:30.000Z</time>
</trkpt>
<trkpt lat="46.1272960" lon="10.4729930">
	<ele>2551.00</ele>
	<time>2023-08-07T12:51:31.000Z</time>
</trkpt>
<trkpt lat="46.1273020" lon="10.4729900">
	<ele>2550.80</ele>
	<time>2023-08-07T12:51:32.000Z</time>
</trkpt>
<trkpt lat="46.1273090" lon="10.4729900">
	<ele>2550.80</ele>
	<time>2023-08-07T12:51:33.000Z</time>
</trkpt>
<trkpt lat="46.1273120" lon="10.4729900">
	<ele>2550.80</ele>
	<time>2023-08-07T12:51:34.000Z</time>
</trkpt>
<trkpt lat="46.1273160" lon="10.4729880">
	<ele>2550.80</ele>
	<time>2023-08-07T12:51:35.000Z</time>
</trkpt>
<trkpt lat="46.1273240" lon="10.4729850">
	<ele>2550.80</ele>
	<time>2023-08-07T12:51:36.000Z</time>
</trkpt>
<trkpt lat="46.1273340" lon="10.4729830">
	<ele>2550.80</ele>
	<time>2023-08-07T12:51:37.000Z</time>
</trkpt>
<trkpt lat="46.1273420" lon="10.4729870">
	<ele>2550.80</ele>
	<time>2023-08-07T12:51:38.000Z</time>
</trkpt>
<trkpt lat="46.1273480" lon="10.4729860">
	<ele>2551.00</ele>
	<time>2023-08-07T12:51:39.000Z</time>
</trkpt>
<trkpt lat="46.1273520" lon="10.4729880">
	<ele>2551.00</ele>
	<time>2023-08-07T12:51:40.000Z</time>
</trkpt>
<trkpt lat="46.1273550" lon="10.4729910">
	<ele>2551.00</ele>
	<time>2023-08-07T12:51:41.000Z</time>
</trkpt>
<trkpt lat="46.1273590" lon="10.4729880">
	<ele>2551.00</ele>
	<time>2023-08-07T12:51:42.000Z</time>
</trkpt>
<trkpt lat="46.1273600" lon="10.4729870">
	<ele>2550.80</ele>
	<time>2023-08-07T12:51:43.000Z</time>
</trkpt>
<trkpt lat="46.1273640" lon="10.4729900">
	<ele>2550.80</ele>
	<time>2023-08-07T12:51:44.000Z</time>
</trkpt>
<trkpt lat="46.1273680" lon="10.4729900">
	<ele>2550.80</ele>
	<time>2023-08-07T12:51:45.000Z</time>
</trkpt>
<trkpt lat="46.1273710" lon="10.4729880">
	<ele>2550.60</ele>
	<time>2023-08-07T12:51:46.000Z</time>
</trkpt>
<trkpt lat="46.1273730" lon="10.4729840">
	<ele>2550.60</ele>
	<time>2023-08-07T12:51:47.000Z</time>
</trkpt>
<trkpt lat="46.1273750" lon="10.4729800">
	<ele>2550.60</ele>
	<time>2023-08-07T12:51:48.000Z</time>
</trkpt>
<trkpt lat="46.1273770" lon="10.4729800">
	<ele>2550.60</ele>
	<time>2023-08-07T12:51:49.000Z</time>
</trkpt>
<trkpt lat="46.1273790" lon="10.4729780">
	<ele>2550.40</ele>
	<time>2023-08-07T12:51:50.000Z</time>
</trkpt>
<trkpt lat="46.1273810" lon="10.4729760">
	<ele>2550.20</ele>
	<time>2023-08-07T12:51:51.000Z</time>
</trkpt>
<trkpt lat="46.1273830" lon="10.4729750">
	<ele>2550.20</ele>
	<time>2023-08-07T12:51:52.000Z</time>
</trkpt>
<trkpt lat="46.1273870" lon="10.4729750">
	<ele>2550.00</ele>
	<time>2023-08-07T12:51:53.000Z</time>
</trkpt>
<trkpt lat="46.1273880" lon="10.4729740">
	<ele>2550.00</ele>
	<time>2023-08-07T12:51:54.000Z</time>
</trkpt>
<trkpt lat="46.1273900" lon="10.4729720">
	<ele>2550.00</ele>
	<time>2023-08-07T12:51:55.000Z</time>
</trkpt>
<trkpt lat="46.1273890" lon="10.4729690">
	<ele>2550.00</ele>
	<time>2023-08-07T12:51:56.000Z</time>
</trkpt>
<trkpt lat="46.1273910" lon="10.4729670">
	<ele>2550.00</ele>
	<time>2023-08-07T12:51:57.000Z</time>
</trkpt>
<trkpt lat="46.1273920" lon="10.4729670">
	<ele>2549.80</ele>
	<time>2023-08-07T12:51:58.000Z</time>
</trkpt>
<trkpt lat="46.1273920" lon="10.4729670">
	<ele>2549.60</ele>
	<time>2023-08-07T12:51:59.000Z</time>
</trkpt>
<trkpt lat="46.1273920" lon="10.4729670">
	<ele>2549.40</ele>
	<time>2023-08-07T12:52:00.000Z</time>
</trkpt>
<trkpt lat="46.1273920" lon="10.4729670">
	<ele>2549.20</ele>
	<time>2023-08-07T12:52:01.000Z</time>
</trkpt>
<trkpt lat="46.1273920" lon="10.4729670">
	<ele>2549.00</ele>
	<time>2023-08-07T12:52:02.000Z</time>
</trkpt>
<trkpt lat="46.1273920" lon="10.4729670">
	<ele>2549.00</ele>
	<time>2023-08-07T12:52:03.000Z</time>
</trkpt>
<trkpt lat="46.1273920" lon="10.4729670">
	<ele>2549.00</ele>
	<time>2023-08-07T12:52:04.000Z</time>
</trkpt>
<trkpt lat="46.1273920" lon="10.4729670">
	<ele>2549.00</ele>
	<time>2023-08-07T12:52:05.000Z</time>
</trkpt>
<trkpt lat="46.1273920" lon="10.4729670">
	<ele>2549.00</ele>
	<time>2023-08-07T12:52:06.000Z</time>
</trkpt>
<trkpt lat="46.1273920" lon="10.4729670">
	<ele>2548.80</ele>
	<time>2023-08-07T12:52:07.000Z</time>
</trkpt>
<trkpt lat="46.1273920" lon="10.4729670">
	<ele>2548.80</ele>
	<time>2023-08-07T12:52:08.000Z</time>
</trkpt>
<trkpt lat="46.1273920" lon="10.4729670">
	<ele>2548.60</ele>
	<time>2023-08-07T12:52:09.000Z</time>
</trkpt>
<trkpt lat="46.1273920" lon="10.4729670">
	<ele>2548.60</ele>
	<time>2023-08-07T12:52:10.000Z</time>
</trkpt>
<trkpt lat="46.1273920" lon="10.4729670">
	<ele>2548.40</ele>
	<time>2023-08-07T12:52:11.000Z</time>
</trkpt>
<trkpt lat="46.1273920" lon="10.4729670">
	<ele>2548.40</ele>
	<time>2023-08-07T12:52:12.000Z</time>
</trkpt>
<trkpt lat="46.1273920" lon="10.4729670">
	<ele>2548.40</ele>
	<time>2023-08-07T12:52:13.000Z</time>
</trkpt>
<trkpt lat="46.1273920" lon="10.4729670">
	<ele>2548.20</ele>
	<time>2023-08-07T12:52:14.000Z</time>
</trkpt>
<trkpt lat="46.1273920" lon="10.4729670">
	<ele>2548.20</ele>
	<time>2023-08-07T12:52:15.000Z</time>
</trkpt>
<trkpt lat="46.1273920" lon="10.4729670">
	<ele>2548.20</ele>
	<time>2023-08-07T12:52:16.000Z</time>
</trkpt>
<trkpt lat="46.1273920" lon="10.4729670">
	<ele>2548.20</ele>
	<time>2023-08-07T12:52:17.000Z</time>
</trkpt>
<trkpt lat="46.1273930" lon="10.4729670">
	<ele>2548.20</ele>
	<time>2023-08-07T12:52:18.000Z</time>
</trkpt>
<trkpt lat="46.1273940" lon="10.4729670">
	<ele>2548.20</ele>
	<time>2023-08-07T12:52:19.000Z</time>
</trkpt>
<trkpt lat="46.1273950" lon="10.4729660">
	<ele>2548.20</ele>
	<time>2023-08-07T12:52:20.000Z</time>
</trkpt>
<trkpt lat="46.1273950" lon="10.4729660">
	<ele>2548.20</ele>
	<time>2023-08-07T12:52:21.000Z</time>
</trkpt>
<trkpt lat="46.1273950" lon="10.4729660">
	<ele>2548.20</ele>
	<time>2023-08-07T12:52:22.000Z</time>
</trkpt>
<trkpt lat="46.1273950" lon="10.4729650">
	<ele>2548.20</ele>
	<time>2023-08-07T12:52:23.000Z</time>
</trkpt>
<trkpt lat="46.1273950" lon="10.4729640">
	<ele>2548.20</ele>
	<time>2023-08-07T12:52:24.000Z</time>
</trkpt>
<trkpt lat="46.1273950" lon="10.4729640">
	<ele>2548.40</ele>
	<time>2023-08-07T12:52:25.000Z</time>
</trkpt>
<trkpt lat="46.1273950" lon="10.4729640">
	<ele>2548.40</ele>
	<time>2023-08-07T12:52:26.000Z</time>
</trkpt>
<trkpt lat="46.1273950" lon="10.4729640">
	<ele>2548.40</ele>
	<time>2023-08-07T12:52:27.000Z</time>
</trkpt>
<trkpt lat="46.1273950" lon="10.4729630">
	<ele>2548.40</ele>
	<time>2023-08-07T12:52:28.000Z</time>
</trkpt>
<trkpt lat="46.1273950" lon="10.4729630">
	<ele>2548.40</ele>
	<time>2023-08-07T12:52:29.000Z</time>
</trkpt>
<trkpt lat="46.1273950" lon="10.4729630">
	<ele>2548.40</ele>
	<time>2023-08-07T12:52:30.000Z</time>
</trkpt>
<trkpt lat="46.1273920" lon="10.4729630">
	<ele>2548.40</ele>
	<time>2023-08-07T12:52:31.000Z</time>
</trkpt>
<trkpt lat="46.1273910" lon="10.4729630">
	<ele>2548.60</ele>
	<time>2023-08-07T12:52:32.000Z</time>
</trkpt>
<trkpt lat="46.1273910" lon="10.4729620">
	<ele>2548.60</ele>
	<time>2023-08-07T12:52:33.000Z</time>
</trkpt>
<trkpt lat="46.1273910" lon="10.4729620">
	<ele>2548.80</ele>
	<time>2023-08-07T12:52:34.000Z</time>
</trkpt>
<trkpt lat="46.1273900" lon="10.4729620">
	<ele>2548.80</ele>
	<time>2023-08-07T12:52:35.000Z</time>
</trkpt>
<trkpt lat="46.1273870" lon="10.4729620">
	<ele>2548.80</ele>
	<time>2023-08-07T12:52:36.000Z</time>
</trkpt>
<trkpt lat="46.1273840" lon="10.4729620">
	<ele>2548.80</ele>
	<time>2023-08-07T12:52:37.000Z</time>
</trkpt>
<trkpt lat="46.1273820" lon="10.4729610">
	<ele>2548.80</ele>
	<time>2023-08-07T12:52:38.000Z</time>
</trkpt>
<trkpt lat="46.1273810" lon="10.4729610">
	<ele>2548.80</ele>
	<time>2023-08-07T12:52:39.000Z</time>
</trkpt>
<trkpt lat="46.1273800" lon="10.4729610">
	<ele>2548.80</ele>
	<time>2023-08-07T12:52:40.000Z</time>
</trkpt>
<trkpt lat="46.1273770" lon="10.4729610">
	<ele>2548.60</ele>
	<time>2023-08-07T12:52:41.000Z</time>
</trkpt>
<trkpt lat="46.1273770" lon="10.4729610">
	<ele>2548.60</ele>
	<time>2023-08-07T12:52:42.000Z</time>
</trkpt>
<trkpt lat="46.1273770" lon="10.4729610">
	<ele>2548.60</ele>
	<time>2023-08-07T12:52:43.000Z</time>
</trkpt>
<trkpt lat="46.1273770" lon="10.4729600">
	<ele>2548.60</ele>
	<time>2023-08-07T12:52:44.000Z</time>
</trkpt>
<trkpt lat="46.1273770" lon="10.4729600">
	<ele>2548.60</ele>
	<time>2023-08-07T12:52:45.000Z</time>
</trkpt>
<trkpt lat="46.1273760" lon="10.4729600">
	<ele>2548.60</ele>
	<time>2023-08-07T12:52:46.000Z</time>
</trkpt>
<trkpt lat="46.1273760" lon="10.4729600">
	<ele>2548.60</ele>
	<time>2023-08-07T12:52:47.000Z</time>
</trkpt>
<trkpt lat="46.1273760" lon="10.4729600">
	<ele>2548.60</ele>
	<time>2023-08-07T12:52:48.000Z</time>
</trkpt>
<trkpt lat="46.1273760" lon="10.4729600">
	<ele>2548.60</ele>
	<time>2023-08-07T12:52:49.000Z</time>
</trkpt>
<trkpt lat="46.1273760" lon="10.4729600">
	<ele>2548.40</ele>
	<time>2023-08-07T12:52:50.000Z</time>
</trkpt>
<trkpt lat="46.1273760" lon="10.4729600">
	<ele>2548.40</ele>
	<time>2023-08-07T12:52:51.000Z</time>
</trkpt>
<trkpt lat="46.1273760" lon="10.4729590">
	<ele>2548.40</ele>
	<time>2023-08-07T12:52:52.000Z</time>
</trkpt>
<trkpt lat="46.1273760" lon="10.4729590">
	<ele>2548.20</ele>
	<time>2023-08-07T12:52:53.000Z</time>
</trkpt>
<trkpt lat="46.1273760" lon="10.4729590">
	<ele>2548.20</ele>
	<time>2023-08-07T12:52:54.000Z</time>
</trkpt>
<trkpt lat="46.1273760" lon="10.4729590">
	<ele>2548.00</ele>
	<time>2023-08-07T12:52:55.000Z</time>
</trkpt>
<trkpt lat="46.1273760" lon="10.4729590">
	<ele>2548.00</ele>
	<time>2023-08-07T12:52:56.000Z</time>
</trkpt>
<trkpt lat="46.1273760" lon="10.4729590">
	<ele>2548.00</ele>
	<time>2023-08-07T12:52:57.000Z</time>
</trkpt>
<trkpt lat="46.1273760" lon="10.4729590">
	<ele>2547.80</ele>
	<time>2023-08-07T12:52:58.000Z</time>
</trkpt>
<trkpt lat="46.1273760" lon="10.4729590">
	<ele>2547.80</ele>
	<time>2023-08-07T12:52:59.000Z</time>
</trkpt>
<trkpt lat="46.1273760" lon="10.4729590">
	<ele>2547.80</ele>
	<time>2023-08-07T12:53:00.000Z</time>
</trkpt>
<trkpt lat="46.1273760" lon="10.4729590">
	<ele>2547.80</ele>
	<time>2023-08-07T12:53:01.000Z</time>
</trkpt>
<trkpt lat="46.1273760" lon="10.4729580">
	<ele>2547.80</ele>
	<time>2023-08-07T12:53:02.000Z</time>
</trkpt>
<trkpt lat="46.1273760" lon="10.4729580">
	<ele>2547.80</ele>
	<time>2023-08-07T12:53:03.000Z</time>
</trkpt>
<trkpt lat="46.1273760" lon="10.4729580">
	<ele>2547.60</ele>
	<time>2023-08-07T12:53:04.000Z</time>
</trkpt>
<trkpt lat="46.1273760" lon="10.4729580">
	<ele>2547.40</ele>
	<time>2023-08-07T12:53:05.000Z</time>
</trkpt>
<trkpt lat="46.1273760" lon="10.4729580">
	<ele>2547.20</ele>
	<time>2023-08-07T12:53:06.000Z</time>
</trkpt>
<trkpt lat="46.1273760" lon="10.4729570">
	<ele>2546.80</ele>
	<time>2023-08-07T12:53:07.000Z</time>
</trkpt>
<trkpt lat="46.1273760" lon="10.4729570">
	<ele>2546.60</ele>
	<time>2023-08-07T12:53:08.000Z</time>
</trkpt>
<trkpt lat="46.1273760" lon="10.4729560">
	<ele>2546.40</ele>
	<time>2023-08-07T12:53:09.000Z</time>
</trkpt>
<trkpt lat="46.1273760" lon="10.4729560">
	<ele>2546.20</ele>
	<time>2023-08-07T12:53:10.000Z</time>
</trkpt>
<trkpt lat="46.1273770" lon="10.4729550">
	<ele>2546.20</ele>
	<time>2023-08-07T12:53:11.000Z</time>
</trkpt>
<trkpt lat="46.1273820" lon="10.4729490">
	<ele>2545.60</ele>
	<time>2023-08-07T12:53:12.000Z</time>
</trkpt>
<trkpt lat="46.1273920" lon="10.4729400">
	<ele>2545.40</ele>
	<time>2023-08-07T12:53:13.000Z</time>
</trkpt>
<trkpt lat="46.1274010" lon="10.4729340">
	<ele>2545.20</ele>
	<time>2023-08-07T12:53:14.000Z</time>
</trkpt>
<trkpt lat="46.1274130" lon="10.4729290">
	<ele>2545.00</ele>
	<time>2023-08-07T12:53:15.000Z</time>
</trkpt>
<trkpt lat="46.1274190" lon="10.4729190">
	<ele>2545.00</ele>
	<time>2023-08-07T12:53:16.000Z</time>
</trkpt>
<trkpt lat="46.1274290" lon="10.4729070">
	<ele>2544.60</ele>
	<time>2023-08-07T12:53:17.000Z</time>
</trkpt>
<trkpt lat="46.1274390" lon="10.4728950">
	<ele>2544.40</ele>
	<time>2023-08-07T12:53:18.000Z</time>
</trkpt>
<trkpt lat="46.1274470" lon="10.4728830">
	<ele>2544.20</ele>
	<time>2023-08-07T12:53:19.000Z</time>
</trkpt>
<trkpt lat="46.1274590" lon="10.4728770">
	<ele>2544.00</ele>
	<time>2023-08-07T12:53:20.000Z</time>
</trkpt>
<trkpt lat="46.1274660" lon="10.4728680">
	<ele>2543.80</ele>
	<time>2023-08-07T12:53:21.000Z</time>
</trkpt>
<trkpt lat="46.1274660" lon="10.4728600">
	<ele>2543.40</ele>
	<time>2023-08-07T12:53:22.000Z</time>
</trkpt>
<trkpt lat="46.1274660" lon="10.4728550">
	<ele>2543.20</ele>
	<time>2023-08-07T12:53:23.000Z</time>
</trkpt>
<trkpt lat="46.1274700" lon="10.4728550">
	<ele>2543.00</ele>
	<time>2023-08-07T12:53:24.000Z</time>
</trkpt>
<trkpt lat="46.1274730" lon="10.4728450">
	<ele>2543.00</ele>
	<time>2023-08-07T12:53:25.000Z</time>
</trkpt>
<trkpt lat="46.1274750" lon="10.4728380">
	<ele>2542.60</ele>
	<time>2023-08-07T12:53:26.000Z</time>
</trkpt>
<trkpt lat="46.1274770" lon="10.4728330">
	<ele>2542.40</ele>
	<time>2023-08-07T12:53:27.000Z</time>
</trkpt>
<trkpt lat="46.1274800" lon="10.4728310">
	<ele>2542.20</ele>
	<time>2023-08-07T12:53:28.000Z</time>
</trkpt>
<trkpt lat="46.1274860" lon="10.4728290">
	<ele>2542.00</ele>
	<time>2023-08-07T12:53:29.000Z</time>
</trkpt>
<trkpt lat="46.1274920" lon="10.4728270">
	<ele>2541.80</ele>
	<time>2023-08-07T12:53:30.000Z</time>
</trkpt>
<trkpt lat="46.1274960" lon="10.4728220">
	<ele>2541.80</ele>
	<time>2023-08-07T12:53:31.000Z</time>
</trkpt>
<trkpt lat="46.1275010" lon="10.4728180">
	<ele>2541.80</ele>
	<time>2023-08-07T12:53:32.000Z</time>
</trkpt>
<trkpt lat="46.1275020" lon="10.4728140">
	<ele>2541.60</ele>
	<time>2023-08-07T12:53:33.000Z</time>
</trkpt>
<trkpt lat="46.1275010" lon="10.4728080">
	<ele>2541.60</ele>
	<time>2023-08-07T12:53:34.000Z</time>
</trkpt>
<trkpt lat="46.1275020" lon="10.4728010">
	<ele>2541.60</ele>
	<time>2023-08-07T12:53:35.000Z</time>
</trkpt>
<trkpt lat="46.1275040" lon="10.4727920">
	<ele>2541.80</ele>
	<time>2023-08-07T12:53:36.000Z</time>
</trkpt>
<trkpt lat="46.1275040" lon="10.4727850">
	<ele>2541.80</ele>
	<time>2023-08-07T12:53:37.000Z</time>
</trkpt>
<trkpt lat="46.1275030" lon="10.4727800">
	<ele>2541.60</ele>
	<time>2023-08-07T12:53:38.000Z</time>
</trkpt>
<trkpt lat="46.1275030" lon="10.4727720">
	<ele>2541.40</ele>
	<time>2023-08-07T12:53:39.000Z</time>
</trkpt>
<trkpt lat="46.1275050" lon="10.4727680">
	<ele>2541.20</ele>
	<time>2023-08-07T12:53:40.000Z</time>
</trkpt>
<trkpt lat="46.1275090" lon="10.4727670">
	<ele>2540.80</ele>
	<time>2023-08-07T12:53:41.000Z</time>
</trkpt>
<trkpt lat="46.1275110" lon="10.4727700">
	<ele>2540.20</ele>
	<time>2023-08-07T12:53:42.000Z</time>
</trkpt>
<trkpt lat="46.1275170" lon="10.4727700">
	<ele>2540.00</ele>
	<time>2023-08-07T12:53:43.000Z</time>
</trkpt>
<trkpt lat="46.1275260" lon="10.4727690">
	<ele>2539.80</ele>
	<time>2023-08-07T12:53:44.000Z</time>
</trkpt>
<trkpt lat="46.1275280" lon="10.4727650">
	<ele>2539.80</ele>
	<time>2023-08-07T12:53:45.000Z</time>
</trkpt>
<trkpt lat="46.1275290" lon="10.4727610">
	<ele>2539.80</ele>
	<time>2023-08-07T12:53:46.000Z</time>
</trkpt>
<trkpt lat="46.1275340" lon="10.4727530">
	<ele>2539.60</ele>
	<time>2023-08-07T12:53:47.000Z</time>
</trkpt>
<trkpt lat="46.1275370" lon="10.4727450">
	<ele>2539.60</ele>
	<time>2023-08-07T12:53:48.000Z</time>
</trkpt>
<trkpt lat="46.1275420" lon="10.4727370">
	<ele>2539.40</ele>
	<time>2023-08-07T12:53:49.000Z</time>
</trkpt>
<trkpt lat="46.1275520" lon="10.4727240">
	<ele>2539.00</ele>
	<time>2023-08-07T12:53:50.000Z</time>
</trkpt>
<trkpt lat="46.1275570" lon="10.4727170">
	<ele>2538.60</ele>
	<time>2023-08-07T12:53:51.000Z</time>
</trkpt>
<trkpt lat="46.1275640" lon="10.4727130">
	<ele>2538.20</ele>
	<time>2023-08-07T12:53:52.000Z</time>
</trkpt>
<trkpt lat="46.1275650" lon="10.4727110">
	<ele>2538.20</ele>
	<time>2023-08-07T12:53:53.000Z</time>
</trkpt>
<trkpt lat="46.1275680" lon="10.4726940">
	<ele>2538.00</ele>
	<time>2023-08-07T12:53:54.000Z</time>
</trkpt>
<trkpt lat="46.1275660" lon="10.4726830">
	<ele>2538.00</ele>
	<time>2023-08-07T12:53:55.000Z</time>
</trkpt>
<trkpt lat="46.1275660" lon="10.4726700">
	<ele>2538.00</ele>
	<time>2023-08-07T12:53:56.000Z</time>
</trkpt>
<trkpt lat="46.1275700" lon="10.4726660">
	<ele>2538.00</ele>
	<time>2023-08-07T12:53:57.000Z</time>
</trkpt>
<trkpt lat="46.1275730" lon="10.4726600">
	<ele>2538.00</ele>
	<time>2023-08-07T12:53:58.000Z</time>
</trkpt>
<trkpt lat="46.1275780" lon="10.4726560">
	<ele>2537.80</ele>
	<time>2023-08-07T12:53:59.000Z</time>
</trkpt>
<trkpt lat="46.1275840" lon="10.4726500">
	<ele>2537.60</ele>
	<time>2023-08-07T12:54:00.000Z</time>
</trkpt>
<trkpt lat="46.1275870" lon="10.4726440">
	<ele>2537.20</ele>
	<time>2023-08-07T12:54:01.000Z</time>
</trkpt>
<trkpt lat="46.1275880" lon="10.4726380">
	<ele>2537.00</ele>
	<time>2023-08-07T12:54:02.000Z</time>
</trkpt>
<trkpt lat="46.1275910" lon="10.4726290">
	<ele>2536.80</ele>
	<time>2023-08-07T12:54:03.000Z</time>
</trkpt>
<trkpt lat="46.1275960" lon="10.4726220">
	<ele>2536.60</ele>
	<time>2023-08-07T12:54:04.000Z</time>
</trkpt>
<trkpt lat="46.1275990" lon="10.4726160">
	<ele>2536.40</ele>
	<time>2023-08-07T12:54:05.000Z</time>
</trkpt>
<trkpt lat="46.1275990" lon="10.4726130">
	<ele>2536.40</ele>
	<time>2023-08-07T12:54:06.000Z</time>
</trkpt>
<trkpt lat="46.1275990" lon="10.4726100">
	<ele>2536.20</ele>
	<time>2023-08-07T12:54:07.000Z</time>
</trkpt>
<trkpt lat="46.1276000" lon="10.4726070">
	<ele>2536.00</ele>
	<time>2023-08-07T12:54:08.000Z</time>
</trkpt>
<trkpt lat="46.1276000" lon="10.4726040">
	<ele>2536.00</ele>
	<time>2023-08-07T12:54:09.000Z</time>
</trkpt>
<trkpt lat="46.1276000" lon="10.4726020">
	<ele>2536.20</ele>
	<time>2023-08-07T12:54:10.000Z</time>
</trkpt>
<trkpt lat="46.1276010" lon="10.4726000">
	<ele>2536.20</ele>
	<time>2023-08-07T12:54:11.000Z</time>
</trkpt>
<trkpt lat="46.1276010" lon="10.4726010">
	<ele>2536.20</ele>
	<time>2023-08-07T12:54:12.000Z</time>
</trkpt>
<trkpt lat="46.1276020" lon="10.4726040">
	<ele>2536.20</ele>
	<time>2023-08-07T12:54:13.000Z</time>
</trkpt>
<trkpt lat="46.1276020" lon="10.4726050">
	<ele>2536.00</ele>
	<time>2023-08-07T12:54:14.000Z</time>
</trkpt>
<trkpt lat="46.1276020" lon="10.4726050">
	<ele>2536.00</ele>
	<time>2023-08-07T12:54:15.000Z</time>
</trkpt>
<trkpt lat="46.1276020" lon="10.4726050">
	<ele>2536.20</ele>
	<time>2023-08-07T12:54:16.000Z</time>
</trkpt>
<trkpt lat="46.1276020" lon="10.4726050">
	<ele>2536.00</ele>
	<time>2023-08-07T12:54:17.000Z</time>
</trkpt>
<trkpt lat="46.1276020" lon="10.4726050">
	<ele>2536.00</ele>
	<time>2023-08-07T12:54:18.000Z</time>
</trkpt>
<trkpt lat="46.1276020" lon="10.4726050">
	<ele>2536.00</ele>
	<time>2023-08-07T12:54:19.000Z</time>
</trkpt>
<trkpt lat="46.1276020" lon="10.4726050">
	<ele>2536.00</ele>
	<time>2023-08-07T12:54:20.000Z</time>
</trkpt>
<trkpt lat="46.1276020" lon="10.4726050">
	<ele>2535.80</ele>
	<time>2023-08-07T12:54:21.000Z</time>
</trkpt>
<trkpt lat="46.1276020" lon="10.4726050">
	<ele>2535.60</ele>
	<time>2023-08-07T12:54:22.000Z</time>
</trkpt>
<trkpt lat="46.1276020" lon="10.4726050">
	<ele>2535.40</ele>
	<time>2023-08-07T12:54:23.000Z</time>
</trkpt>
<trkpt lat="46.1276020" lon="10.4726050">
	<ele>2535.20</ele>
	<time>2023-08-07T12:54:24.000Z</time>
</trkpt>
<trkpt lat="46.1276020" lon="10.4726050">
	<ele>2535.20</ele>
	<time>2023-08-07T12:54:25.000Z</time>
</trkpt>
<trkpt lat="46.1276020" lon="10.4726050">
	<ele>2535.00</ele>
	<time>2023-08-07T12:54:26.000Z</time>
</trkpt>
<trkpt lat="46.1276020" lon="10.4726040">
	<ele>2534.60</ele>
	<time>2023-08-07T12:54:27.000Z</time>
</trkpt>
<trkpt lat="46.1276020" lon="10.4726040">
	<ele>2534.00</ele>
	<time>2023-08-07T12:54:28.000Z</time>
</trkpt>
<trkpt lat="46.1276020" lon="10.4726040">
	<ele>2533.80</ele>
	<time>2023-08-07T12:54:29.000Z</time>
</trkpt>
<trkpt lat="46.1276020" lon="10.4726020">
	<ele>2533.60</ele>
	<time>2023-08-07T12:54:30.000Z</time>
</trkpt>
<trkpt lat="46.1276020" lon="10.4726010">
	<ele>2533.40</ele>
	<time>2023-08-07T12:54:31.000Z</time>
</trkpt>
<trkpt lat="46.1276020" lon="10.4726010">
	<ele>2533.20</ele>
	<time>2023-08-07T12:54:32.000Z</time>
</trkpt>
<trkpt lat="46.1276040" lon="10.4726000">
	<ele>2533.00</ele>
	<time>2023-08-07T12:54:33.000Z</time>
</trkpt>
<trkpt lat="46.1276050" lon="10.4725990">
	<ele>2532.80</ele>
	<time>2023-08-07T12:54:34.000Z</time>
</trkpt>
<trkpt lat="46.1276050" lon="10.4725960">
	<ele>2532.80</ele>
	<time>2023-08-07T12:54:35.000Z</time>
</trkpt>
<trkpt lat="46.1276060" lon="10.4725900">
	<ele>2532.60</ele>
	<time>2023-08-07T12:54:36.000Z</time>
</trkpt>
<trkpt lat="46.1276060" lon="10.4725850">
	<ele>2532.60</ele>
	<time>2023-08-07T12:54:37.000Z</time>
</trkpt>
<trkpt lat="46.1276070" lon="10.4725770">
	<ele>2532.60</ele>
	<time>2023-08-07T12:54:38.000Z</time>
</trkpt>
<trkpt lat="46.1276100" lon="10.4725730">
	<ele>2532.40</ele>
	<time>2023-08-07T12:54:39.000Z</time>
</trkpt>
<trkpt lat="46.1276150" lon="10.4725710">
	<ele>2532.20</ele>
	<time>2023-08-07T12:54:40.000Z</time>
</trkpt>
<trkpt lat="46.1276210" lon="10.4725680">
	<ele>2532.20</ele>
	<time>2023-08-07T12:54:41.000Z</time>
</trkpt>
<trkpt lat="46.1276250" lon="10.4725650">
	<ele>2532.00</ele>
	<time>2023-08-07T12:54:42.000Z</time>
</trkpt>
<trkpt lat="46.1276280" lon="10.4725620">
	<ele>2532.00</ele>
	<time>2023-08-07T12:54:43.000Z</time>
</trkpt>
<trkpt lat="46.1276300" lon="10.4725610">
	<ele>2532.00</ele>
	<time>2023-08-07T12:54:44.000Z</time>
</trkpt>
<trkpt lat="46.1276320" lon="10.4725600">
	<ele>2532.00</ele>
	<time>2023-08-07T12:54:45.000Z</time>
</trkpt>
<trkpt lat="46.1276340" lon="10.4725580">
	<ele>2532.00</ele>
	<time>2023-08-07T12:54:46.000Z</time>
</trkpt>
<trkpt lat="46.1276360" lon="10.4725560">
	<ele>2532.00</ele>
	<time>2023-08-07T12:54:47.000Z</time>
</trkpt>
<trkpt lat="46.1276380" lon="10.4725540">
	<ele>2532.00</ele>
	<time>2023-08-07T12:54:48.000Z</time>
</trkpt>
<trkpt lat="46.1276380" lon="10.4725510">
	<ele>2532.00</ele>
	<time>2023-08-07T12:54:49.000Z</time>
</trkpt>
<trkpt lat="46.1276390" lon="10.4725490">
	<ele>2531.80</ele>
	<time>2023-08-07T12:54:50.000Z</time>
</trkpt>
<trkpt lat="46.1276390" lon="10.4725470">
	<ele>2531.60</ele>
	<time>2023-08-07T12:54:51.000Z</time>
</trkpt>
<trkpt lat="46.1276400" lon="10.4725440">
	<ele>2531.40</ele>
	<time>2023-08-07T12:54:52.000Z</time>
</trkpt>
<trkpt lat="46.1276410" lon="10.4725380">
	<ele>2531.40</ele>
	<time>2023-08-07T12:54:53.000Z</time>
</trkpt>
<trkpt lat="46.1276410" lon="10.4725370">
	<ele>2531.20</ele>
	<time>2023-08-07T12:54:54.000Z</time>
</trkpt>
<trkpt lat="46.1276420" lon="10.4725360">
	<ele>2531.20</ele>
	<time>2023-08-07T12:54:55.000Z</time>
</trkpt>
<trkpt lat="46.1276420" lon="10.4725360">
	<ele>2531.20</ele>
	<time>2023-08-07T12:54:56.000Z</time>
</trkpt>
<trkpt lat="46.1276420" lon="10.4725360">
	<ele>2531.00</ele>
	<time>2023-08-07T12:54:57.000Z</time>
</trkpt>
<trkpt lat="46.1276420" lon="10.4725360">
	<ele>2530.80</ele>
	<time>2023-08-07T12:54:58.000Z</time>
</trkpt>
<trkpt lat="46.1276430" lon="10.4725350">
	<ele>2530.60</ele>
	<time>2023-08-07T12:54:59.000Z</time>
</trkpt>
<trkpt lat="46.1276430" lon="10.4725340">
	<ele>2530.60</ele>
	<time>2023-08-07T12:55:00.000Z</time>
</trkpt>
<trkpt lat="46.1276440" lon="10.4725340">
	<ele>2530.40</ele>
	<time>2023-08-07T12:55:01.000Z</time>
</trkpt>
<trkpt lat="46.1276440" lon="10.4725320">
	<ele>2530.20</ele>
	<time>2023-08-07T12:55:02.000Z</time>
</trkpt>
<trkpt lat="46.1276450" lon="10.4725310">
	<ele>2529.80</ele>
	<time>2023-08-07T12:55:03.000Z</time>
</trkpt>
<trkpt lat="46.1276460" lon="10.4725300">
	<ele>2529.60</ele>
	<time>2023-08-07T12:55:04.000Z</time>
</trkpt>
<trkpt lat="46.1276460" lon="10.4725280">
	<ele>2529.40</ele>
	<time>2023-08-07T12:55:05.000Z</time>
</trkpt>
<trkpt lat="46.1276460" lon="10.4725270">
	<ele>2529.00</ele>
	<time>2023-08-07T12:55:06.000Z</time>
</trkpt>
<trkpt lat="46.1276480" lon="10.4725270">
	<ele>2528.80</ele>
	<time>2023-08-07T12:55:07.000Z</time>
</trkpt>
<trkpt lat="46.1276490" lon="10.4725260">
	<ele>2528.40</ele>
	<time>2023-08-07T12:55:08.000Z</time>
</trkpt>
<trkpt lat="46.1276500" lon="10.4725260">
	<ele>2528.20</ele>
	<time>2023-08-07T12:55:09.000Z</time>
</trkpt>
<trkpt lat="46.1276510" lon="10.4725260">
	<ele>2528.20</ele>
	<time>2023-08-07T12:55:10.000Z</time>
</trkpt>
<trkpt lat="46.1276530" lon="10.4725250">
	<ele>2528.00</ele>
	<time>2023-08-07T12:55:11.000Z</time>
</trkpt>
<trkpt lat="46.1276550" lon="10.4725250">
	<ele>2528.00</ele>
	<time>2023-08-07T12:55:12.000Z</time>
</trkpt>
<trkpt lat="46.1276570" lon="10.4725240">
	<ele>2528.00</ele>
	<time>2023-08-07T12:55:13.000Z</time>
</trkpt>
<trkpt lat="46.1276590" lon="10.4725240">
	<ele>2527.80</ele>
	<time>2023-08-07T12:55:14.000Z</time>
</trkpt>
<trkpt lat="46.1276610" lon="10.4725190">
	<ele>2527.80</ele>
	<time>2023-08-07T12:55:15.000Z</time>
</trkpt>
<trkpt lat="46.1276620" lon="10.4725160">
	<ele>2527.80</ele>
	<time>2023-08-07T12:55:16.000Z</time>
</trkpt>
<trkpt lat="46.1276650" lon="10.4725110">
	<ele>2528.00</ele>
	<time>2023-08-07T12:55:17.000Z</time>
</trkpt>
<trkpt lat="46.1276670" lon="10.4725060">
	<ele>2528.00</ele>
	<time>2023-08-07T12:55:18.000Z</time>
</trkpt>
<trkpt lat="46.1276710" lon="10.4725040">
	<ele>2527.80</ele>
	<time>2023-08-07T12:55:19.000Z</time>
</trkpt>
<trkpt lat="46.1276730" lon="10.4725020">
	<ele>2527.80</ele>
	<time>2023-08-07T12:55:20.000Z</time>
</trkpt>
<trkpt lat="46.1276740" lon="10.4724990">
	<ele>2527.40</ele>
	<time>2023-08-07T12:55:21.000Z</time>
</trkpt>
<trkpt lat="46.1276770" lon="10.4724940">
	<ele>2527.20</ele>
	<time>2023-08-07T12:55:22.000Z</time>
</trkpt>
<trkpt lat="46.1276810" lon="10.4724900">
	<ele>2527.00</ele>
	<time>2023-08-07T12:55:23.000Z</time>
</trkpt>
<trkpt lat="46.1276840" lon="10.4724860">
	<ele>2526.80</ele>
	<time>2023-08-07T12:55:24.000Z</time>
</trkpt>
<trkpt lat="46.1276880" lon="10.4724820">
	<ele>2526.60</ele>
	<time>2023-08-07T12:55:25.000Z</time>
</trkpt>
<trkpt lat="46.1276920" lon="10.4724800">
	<ele>2526.40</ele>
	<time>2023-08-07T12:55:26.000Z</time>
</trkpt>
<trkpt lat="46.1276940" lon="10.4724790">
	<ele>2526.00</ele>
	<time>2023-08-07T12:55:27.000Z</time>
</trkpt>
<trkpt lat="46.1276960" lon="10.4724710">
	<ele>2526.00</ele>
	<time>2023-08-07T12:55:28.000Z</time>
</trkpt>
<trkpt lat="46.1277020" lon="10.4724600">
	<ele>2525.80</ele>
	<time>2023-08-07T12:55:29.000Z</time>
</trkpt>
<trkpt lat="46.1277050" lon="10.4724420">
	<ele>2525.80</ele>
	<time>2023-08-07T12:55:30.000Z</time>
</trkpt>
<trkpt lat="46.1277060" lon="10.4724310">
	<ele>2525.80</ele>
	<time>2023-08-07T12:55:31.000Z</time>
</trkpt>
<trkpt lat="46.1277040" lon="10.4724210">
	<ele>2525.60</ele>
	<time>2023-08-07T12:55:32.000Z</time>
</trkpt>
<trkpt lat="46.1277030" lon="10.4724100">
	<ele>2525.60</ele>
	<time>2023-08-07T12:55:33.000Z</time>
</trkpt>
<trkpt lat="46.1277020" lon="10.4723940">
	<ele>2525.40</ele>
	<time>2023-08-07T12:55:34.000Z</time>
</trkpt>
<trkpt lat="46.1277020" lon="10.4723810">
	<ele>2525.20</ele>
	<time>2023-08-07T12:55:35.000Z</time>
</trkpt>
<trkpt lat="46.1277040" lon="10.4723710">
	<ele>2525.00</ele>
	<time>2023-08-07T12:55:36.000Z</time>
</trkpt>
<trkpt lat="46.1277070" lon="10.4723600">
	<ele>2524.80</ele>
	<time>2023-08-07T12:55:37.000Z</time>
</trkpt>
<trkpt lat="46.1277080" lon="10.4723540">
	<ele>2524.60</ele>
	<time>2023-08-07T12:55:38.000Z</time>
</trkpt>
<trkpt lat="46.1277080" lon="10.4723460">
	<ele>2524.60</ele>
	<time>2023-08-07T12:55:39.000Z</time>
</trkpt>
<trkpt lat="46.1277100" lon="10.4723440">
	<ele>2524.60</ele>
	<time>2023-08-07T12:55:40.000Z</time>
</trkpt>
<trkpt lat="46.1277110" lon="10.4723400">
	<ele>2524.60</ele>
	<time>2023-08-07T12:55:41.000Z</time>
</trkpt>
<trkpt lat="46.1277120" lon="10.4723350">
	<ele>2524.40</ele>
	<time>2023-08-07T12:55:42.000Z</time>
</trkpt>
<trkpt lat="46.1277140" lon="10.4723310">
	<ele>2524.40</ele>
	<time>2023-08-07T12:55:43.000Z</time>
</trkpt>
<trkpt lat="46.1277170" lon="10.4723270">
	<ele>2524.20</ele>
	<time>2023-08-07T12:55:44.000Z</time>
</trkpt>
<trkpt lat="46.1277200" lon="10.4723230">
	<ele>2524.00</ele>
	<time>2023-08-07T12:55:45.000Z</time>
</trkpt>
<trkpt lat="46.1277230" lon="10.4723220">
	<ele>2523.80</ele>
	<time>2023-08-07T12:55:46.000Z</time>
</trkpt>
<trkpt lat="46.1277240" lon="10.4723260">
	<ele>2523.60</ele>
	<time>2023-08-07T12:55:47.000Z</time>
</trkpt>
<trkpt lat="46.1277250" lon="10.4723270">
	<ele>2523.40</ele>
	<time>2023-08-07T12:55:48.000Z</time>
</trkpt>
<trkpt lat="46.1277240" lon="10.4723230">
	<ele>2523.20</ele>
	<time>2023-08-07T12:55:49.000Z</time>
</trkpt>
<trkpt lat="46.1277220" lon="10.4723130">
	<ele>2523.20</ele>
	<time>2023-08-07T12:55:50.000Z</time>
</trkpt>
<trkpt lat="46.1277210" lon="10.4723080">
	<ele>2523.00</ele>
	<time>2023-08-07T12:55:51.000Z</time>
</trkpt>
<trkpt lat="46.1277230" lon="10.4723020">
	<ele>2522.80</ele>
	<time>2023-08-07T12:55:52.000Z</time>
</trkpt>
<trkpt lat="46.1277240" lon="10.4722990">
	<ele>2522.60</ele>
	<time>2023-08-07T12:55:53.000Z</time>
</trkpt>
<trkpt lat="46.1277220" lon="10.4722940">
	<ele>2522.40</ele>
	<time>2023-08-07T12:55:54.000Z</time>
</trkpt>
<trkpt lat="46.1277160" lon="10.4722920">
	<ele>2522.20</ele>
	<time>2023-08-07T12:55:55.000Z</time>
</trkpt>
<trkpt lat="46.1277120" lon="10.4722890">
	<ele>2522.00</ele>
	<time>2023-08-07T12:55:56.000Z</time>
</trkpt>
<trkpt lat="46.1277110" lon="10.4722850">
	<ele>2521.80</ele>
	<time>2023-08-07T12:55:57.000Z</time>
</trkpt>
<trkpt lat="46.1277100" lon="10.4722760">
	<ele>2521.60</ele>
	<time>2023-08-07T12:55:58.000Z</time>
</trkpt>
<trkpt lat="46.1277080" lon="10.4722690">
	<ele>2521.40</ele>
	<time>2023-08-07T12:55:59.000Z</time>
</trkpt>
<trkpt lat="46.1277080" lon="10.4722660">
	<ele>2521.40</ele>
	<time>2023-08-07T12:56:00.000Z</time>
</trkpt>
<trkpt lat="46.1277110" lon="10.4722610">
	<ele>2521.20</ele>
	<time>2023-08-07T12:56:01.000Z</time>
</trkpt>
<trkpt lat="46.1277100" lon="10.4722490">
	<ele>2521.20</ele>
	<time>2023-08-07T12:56:02.000Z</time>
</trkpt>
<trkpt lat="46.1277120" lon="10.4722370">
	<ele>2521.20</ele>
	<time>2023-08-07T12:56:03.000Z</time>
</trkpt>
<trkpt lat="46.1277130" lon="10.4722320">
	<ele>2521.20</ele>
	<time>2023-08-07T12:56:04.000Z</time>
</trkpt>
<trkpt lat="46.1277150" lon="10.4722300">
	<ele>2521.00</ele>
	<time>2023-08-07T12:56:05.000Z</time>
</trkpt>
<trkpt lat="46.1277170" lon="10.4722300">
	<ele>2520.80</ele>
	<time>2023-08-07T12:56:06.000Z</time>
</trkpt>
<trkpt lat="46.1277190" lon="10.4722260">
	<ele>2520.80</ele>
	<time>2023-08-07T12:56:07.000Z</time>
</trkpt>
<trkpt lat="46.1277200" lon="10.4722270">
	<ele>2520.80</ele>
	<time>2023-08-07T12:56:08.000Z</time>
</trkpt>
<trkpt lat="46.1277210" lon="10.4722330">
	<ele>2520.60</ele>
	<time>2023-08-07T12:56:09.000Z</time>
</trkpt>
<trkpt lat="46.1277220" lon="10.4722360">
	<ele>2520.60</ele>
	<time>2023-08-07T12:56:10.000Z</time>
</trkpt>
<trkpt lat="46.1277260" lon="10.4722410">
	<ele>2520.60</ele>
	<time>2023-08-07T12:56:11.000Z</time>
</trkpt>
<trkpt lat="46.1277280" lon="10.4722410">
	<ele>2520.60</ele>
	<time>2023-08-07T12:56:12.000Z</time>
</trkpt>
<trkpt lat="46.1277290" lon="10.4722410">
	<ele>2520.60</ele>
	<time>2023-08-07T12:56:13.000Z</time>
</trkpt>
<trkpt lat="46.1277270" lon="10.4722380">
	<ele>2520.60</ele>
	<time>2023-08-07T12:56:14.000Z</time>
</trkpt>
<trkpt lat="46.1277290" lon="10.4722340">
	<ele>2520.60</ele>
	<time>2023-08-07T12:56:15.000Z</time>
</trkpt>
<trkpt lat="46.1277280" lon="10.4722300">
	<ele>2520.60</ele>
	<time>2023-08-07T12:56:16.000Z</time>
</trkpt>
<trkpt lat="46.1277280" lon="10.4722290">
	<ele>2520.80</ele>
	<time>2023-08-07T12:56:17.000Z</time>
</trkpt>
<trkpt lat="46.1277280" lon="10.4722290">
	<ele>2520.80</ele>
	<time>2023-08-07T12:56:18.000Z</time>
</trkpt>
<trkpt lat="46.1277280" lon="10.4722290">
	<ele>2521.00</ele>
	<time>2023-08-07T12:56:19.000Z</time>
</trkpt>
<trkpt lat="46.1277280" lon="10.4722290">
	<ele>2521.00</ele>
	<time>2023-08-07T12:56:20.000Z</time>
</trkpt>
<trkpt lat="46.1277280" lon="10.4722290">
	<ele>2521.00</ele>
	<time>2023-08-07T12:56:21.000Z</time>
</trkpt>
<trkpt lat="46.1277280" lon="10.4722290">
	<ele>2521.00</ele>
	<time>2023-08-07T12:56:22.000Z</time>
</trkpt>
<trkpt lat="46.1277280" lon="10.4722290">
	<ele>2521.00</ele>
	<time>2023-08-07T12:56:23.000Z</time>
</trkpt>
<trkpt lat="46.1277280" lon="10.4722290">
	<ele>2521.00</ele>
	<time>2023-08-07T12:56:24.000Z</time>
</trkpt>
<trkpt lat="46.1277280" lon="10.4722290">
	<ele>2521.00</ele>
	<time>2023-08-07T12:56:25.000Z</time>
</trkpt>
<trkpt lat="46.1277280" lon="10.4722300">
	<ele>2521.00</ele>
	<time>2023-08-07T12:56:26.000Z</time>
</trkpt>
<trkpt lat="46.1277280" lon="10.4722300">
	<ele>2521.00</ele>
	<time>2023-08-07T12:56:27.000Z</time>
</trkpt>
<trkpt lat="46.1277280" lon="10.4722300">
	<ele>2521.00</ele>
	<time>2023-08-07T12:56:28.000Z</time>
</trkpt>
<trkpt lat="46.1277280" lon="10.4722300">
	<ele>2521.00</ele>
	<time>2023-08-07T12:56:29.000Z</time>
</trkpt>
<trkpt lat="46.1277280" lon="10.4722320">
	<ele>2521.20</ele>
	<time>2023-08-07T12:56:30.000Z</time>
</trkpt>
<trkpt lat="46.1277280" lon="10.4722320">
	<ele>2521.20</ele>
	<time>2023-08-07T12:56:31.000Z</time>
</trkpt>
<trkpt lat="46.1277280" lon="10.4722320">
	<ele>2521.20</ele>
	<time>2023-08-07T12:56:32.000Z</time>
</trkpt>
<trkpt lat="46.1277280" lon="10.4722330">
	<ele>2521.20</ele>
	<time>2023-08-07T12:56:33.000Z</time>
</trkpt>
<trkpt lat="46.1277280" lon="10.4722330">
	<ele>2521.20</ele>
	<time>2023-08-07T12:56:34.000Z</time>
</trkpt>
<trkpt lat="46.1277280" lon="10.4722330">
	<ele>2521.00</ele>
	<time>2023-08-07T12:56:35.000Z</time>
</trkpt>
<trkpt lat="46.1277290" lon="10.4722330">
	<ele>2521.00</ele>
	<time>2023-08-07T12:56:36.000Z</time>
</trkpt>
<trkpt lat="46.1277290" lon="10.4722330">
	<ele>2520.60</ele>
	<time>2023-08-07T12:56:37.000Z</time>
</trkpt>
<trkpt lat="46.1277290" lon="10.4722330">
	<ele>2520.40</ele>
	<time>2023-08-07T12:56:38.000Z</time>
</trkpt>
<trkpt lat="46.1277290" lon="10.4722330">
	<ele>2520.20</ele>
	<time>2023-08-07T12:56:39.000Z</time>
</trkpt>
<trkpt lat="46.1277300" lon="10.4722330">
	<ele>2519.80</ele>
	<time>2023-08-07T12:56:40.000Z</time>
</trkpt>
<trkpt lat="46.1277300" lon="10.4722330">
	<ele>2519.60</ele>
	<time>2023-08-07T12:56:41.000Z</time>
</trkpt>
<trkpt lat="46.1277300" lon="10.4722320">
	<ele>2519.40</ele>
	<time>2023-08-07T12:56:42.000Z</time>
</trkpt>
<trkpt lat="46.1277310" lon="10.4722320">
	<ele>2519.40</ele>
	<time>2023-08-07T12:56:43.000Z</time>
</trkpt>
<trkpt lat="46.1277320" lon="10.4722320">
	<ele>2519.20</ele>
	<time>2023-08-07T12:56:44.000Z</time>
</trkpt>
<trkpt lat="46.1277320" lon="10.4722310">
	<ele>2519.00</ele>
	<time>2023-08-07T12:56:45.000Z</time>
</trkpt>
<trkpt lat="46.1277330" lon="10.4722300">
	<ele>2518.80</ele>
	<time>2023-08-07T12:56:46.000Z</time>
</trkpt>
<trkpt lat="46.1277330" lon="10.4722300">
	<ele>2518.60</ele>
	<time>2023-08-07T12:56:47.000Z</time>
</trkpt>
<trkpt lat="46.1277340" lon="10.4722300">
	<ele>2518.60</ele>
	<time>2023-08-07T12:56:48.000Z</time>
</trkpt>
<trkpt lat="46.1277340" lon="10.4722300">
	<ele>2518.40</ele>
	<time>2023-08-07T12:56:49.000Z</time>
</trkpt>
<trkpt lat="46.1277340" lon="10.4722300">
	<ele>2518.40</ele>
	<time>2023-08-07T12:56:50.000Z</time>
</trkpt>
<trkpt lat="46.1277370" lon="10.4722270">
	<ele>2518.20</ele>
	<time>2023-08-07T12:56:51.000Z</time>
</trkpt>
<trkpt lat="46.1277430" lon="10.4722240">
	<ele>2518.40</ele>
	<time>2023-08-07T12:56:52.000Z</time>
</trkpt>
<trkpt lat="46.1277480" lon="10.4722170">
	<ele>2518.40</ele>
	<time>2023-08-07T12:56:53.000Z</time>
</trkpt>
<trkpt lat="46.1277520" lon="10.4722120">
	<ele>2518.20</ele>
	<time>2023-08-07T12:56:54.000Z</time>
</trkpt>
<trkpt lat="46.1277590" lon="10.4722100">
	<ele>2518.20</ele>
	<time>2023-08-07T12:56:55.000Z</time>
</trkpt>
<trkpt lat="46.1277610" lon="10.4722080">
	<ele>2518.00</ele>
	<time>2023-08-07T12:56:56.000Z</time>
</trkpt>
<trkpt lat="46.1277640" lon="10.4721960">
	<ele>2517.80</ele>
	<time>2023-08-07T12:56:57.000Z</time>
</trkpt>
<trkpt lat="46.1277710" lon="10.4721740">
	<ele>2517.60</ele>
	<time>2023-08-07T12:56:58.000Z</time>
</trkpt>
<trkpt lat="46.1277760" lon="10.4721500">
	<ele>2517.40</ele>
	<time>2023-08-07T12:56:59.000Z</time>
</trkpt>
<trkpt lat="46.1277790" lon="10.4721260">
	<ele>2517.00</ele>
	<time>2023-08-07T12:57:00.000Z</time>
</trkpt>
<trkpt lat="46.1277860" lon="10.4721060">
	<ele>2516.80</ele>
	<time>2023-08-07T12:57:01.000Z</time>
</trkpt>
<trkpt lat="46.1277910" lon="10.4720920">
	<ele>2516.40</ele>
	<time>2023-08-07T12:57:02.000Z</time>
</trkpt>
<trkpt lat="46.1277970" lon="10.4720830">
	<ele>2516.20</ele>
	<time>2023-08-07T12:57:03.000Z</time>
</trkpt>
<trkpt lat="46.1278020" lon="10.4720650">
	<ele>2516.00</ele>
	<time>2023-08-07T12:57:04.000Z</time>
</trkpt>
<trkpt lat="46.1278060" lon="10.4720450">
	<ele>2516.00</ele>
	<time>2023-08-07T12:57:05.000Z</time>
</trkpt>
<trkpt lat="46.1278110" lon="10.4720280">
	<ele>2515.80</ele>
	<time>2023-08-07T12:57:06.000Z</time>
</trkpt>
<trkpt lat="46.1278120" lon="10.4720220">
	<ele>2515.60</ele>
	<time>2023-08-07T12:57:07.000Z</time>
</trkpt>
<trkpt lat="46.1278120" lon="10.4720150">
	<ele>2515.20</ele>
	<time>2023-08-07T12:57:08.000Z</time>
</trkpt>
<trkpt lat="46.1278130" lon="10.4720120">
	<ele>2515.00</ele>
	<time>2023-08-07T12:57:09.000Z</time>
</trkpt>
<trkpt lat="46.1278160" lon="10.4720180">
	<ele>2514.80</ele>
	<time>2023-08-07T12:57:10.000Z</time>
</trkpt>
<trkpt lat="46.1278170" lon="10.4720150">
	<ele>2514.60</ele>
	<time>2023-08-07T12:57:11.000Z</time>
</trkpt>
<trkpt lat="46.1278180" lon="10.4720150">
	<ele>2514.60</ele>
	<time>2023-08-07T12:57:12.000Z</time>
</trkpt>
<trkpt lat="46.1278150" lon="10.4720030">
	<ele>2514.40</ele>
	<time>2023-08-07T12:57:13.000Z</time>
</trkpt>
<trkpt lat="46.1278130" lon="10.4720000">
	<ele>2514.20</ele>
	<time>2023-08-07T12:57:14.000Z</time>
</trkpt>
<trkpt lat="46.1278130" lon="10.4719930">
	<ele>2514.20</ele>
	<time>2023-08-07T12:57:15.000Z</time>
</trkpt>
<trkpt lat="46.1278130" lon="10.4719900">
	<ele>2514.00</ele>
	<time>2023-08-07T12:57:16.000Z</time>
</trkpt>
<trkpt lat="46.1278150" lon="10.4719850">
	<ele>2513.80</ele>
	<time>2023-08-07T12:57:17.000Z</time>
</trkpt>
<trkpt lat="46.1278160" lon="10.4719760">
	<ele>2513.40</ele>
	<time>2023-08-07T12:57:18.000Z</time>
</trkpt>
<trkpt lat="46.1278170" lon="10.4719690">
	<ele>2513.20</ele>
	<time>2023-08-07T12:57:19.000Z</time>
</trkpt>
<trkpt lat="46.1278180" lon="10.4719630">
	<ele>2513.00</ele>
	<time>2023-08-07T12:57:20.000Z</time>
</trkpt>
<trkpt lat="46.1278180" lon="10.4719580">
	<ele>2512.80</ele>
	<time>2023-08-07T12:57:21.000Z</time>
</trkpt>
<trkpt lat="46.1278190" lon="10.4719540">
	<ele>2512.60</ele>
	<time>2023-08-07T12:57:22.000Z</time>
</trkpt>
<trkpt lat="46.1278190" lon="10.4719480">
	<ele>2512.40</ele>
	<time>2023-08-07T12:57:23.000Z</time>
</trkpt>
<trkpt lat="46.1278200" lon="10.4719440">
	<ele>2512.20</ele>
	<time>2023-08-07T12:57:24.000Z</time>
</trkpt>
<trkpt lat="46.1278210" lon="10.4719380">
	<ele>2512.00</ele>
	<time>2023-08-07T12:57:25.000Z</time>
</trkpt>
<trkpt lat="46.1278200" lon="10.4719330">
	<ele>2511.80</ele>
	<time>2023-08-07T12:57:26.000Z</time>
</trkpt>
<trkpt lat="46.1278190" lon="10.4719310">
	<ele>2511.60</ele>
	<time>2023-08-07T12:57:27.000Z</time>
</trkpt>
<trkpt lat="46.1278190" lon="10.4719260">
	<ele>2511.20</ele>
	<time>2023-08-07T12:57:28.000Z</time>
</trkpt>
<trkpt lat="46.1278190" lon="10.4719240">
	<ele>2511.00</ele>
	<time>2023-08-07T12:57:29.000Z</time>
</trkpt>
<trkpt lat="46.1278190" lon="10.4719230">
	<ele>2511.00</ele>
	<time>2023-08-07T12:57:30.000Z</time>
</trkpt>
<trkpt lat="46.1278200" lon="10.4719220">
	<ele>2510.80</ele>
	<time>2023-08-07T12:57:31.000Z</time>
</trkpt>
<trkpt lat="46.1278190" lon="10.4719210">
	<ele>2511.00</ele>
	<time>2023-08-07T12:57:32.000Z</time>
</trkpt>
<trkpt lat="46.1278220" lon="10.4719140">
	<ele>2511.00</ele>
	<time>2023-08-07T12:57:33.000Z</time>
</trkpt>
<trkpt lat="46.1278240" lon="10.4719080">
	<ele>2511.20</ele>
	<time>2023-08-07T12:57:34.000Z</time>
</trkpt>
<trkpt lat="46.1278260" lon="10.4719040">
	<ele>2511.20</ele>
	<time>2023-08-07T12:57:35.000Z</time>
</trkpt>
<trkpt lat="46.1278250" lon="10.4719010">
	<ele>2511.00</ele>
	<time>2023-08-07T12:57:36.000Z</time>
</trkpt>
<trkpt lat="46.1278250" lon="10.4718990">
	<ele>2511.00</ele>
	<time>2023-08-07T12:57:37.000Z</time>
</trkpt>
<trkpt lat="46.1278240" lon="10.4718960">
	<ele>2510.80</ele>
	<time>2023-08-07T12:57:38.000Z</time>
</trkpt>
<trkpt lat="46.1278220" lon="10.4718930">
	<ele>2510.80</ele>
	<time>2023-08-07T12:57:39.000Z</time>
</trkpt>
<trkpt lat="46.1278210" lon="10.4718920">
	<ele>2510.60</ele>
	<time>2023-08-07T12:57:40.000Z</time>
</trkpt>
<trkpt lat="46.1278180" lon="10.4718890">
	<ele>2510.40</ele>
	<time>2023-08-07T12:57:41.000Z</time>
</trkpt>
<trkpt lat="46.1278210" lon="10.4718890">
	<ele>2510.20</ele>
	<time>2023-08-07T12:57:42.000Z</time>
</trkpt>
<trkpt lat="46.1278190" lon="10.4718880">
	<ele>2510.00</ele>
	<time>2023-08-07T12:57:43.000Z</time>
</trkpt>
<trkpt lat="46.1278190" lon="10.4718870">
	<ele>2509.80</ele>
	<time>2023-08-07T12:57:44.000Z</time>
</trkpt>
<trkpt lat="46.1278210" lon="10.4718820">
	<ele>2509.80</ele>
	<time>2023-08-07T12:57:45.000Z</time>
</trkpt>
<trkpt lat="46.1278210" lon="10.4718740">
	<ele>2509.60</ele>
	<time>2023-08-07T12:57:46.000Z</time>
</trkpt>
<trkpt lat="46.1278210" lon="10.4718680">
	<ele>2509.40</ele>
	<time>2023-08-07T12:57:47.000Z</time>
</trkpt>
<trkpt lat="46.1278180" lon="10.4718650">
	<ele>2509.40</ele>
	<time>2023-08-07T12:57:48.000Z</time>
</trkpt>
<trkpt lat="46.1278220" lon="10.4718610">
	<ele>2509.00</ele>
	<time>2023-08-07T12:57:49.000Z</time>
</trkpt>
<trkpt lat="46.1278260" lon="10.4718530">
	<ele>2509.00</ele>
	<time>2023-08-07T12:57:50.000Z</time>
</trkpt>
<trkpt lat="46.1278260" lon="10.4718420">
	<ele>2508.80</ele>
	<time>2023-08-07T12:57:51.000Z</time>
</trkpt>
<trkpt lat="46.1278270" lon="10.4718340">
	<ele>2508.60</ele>
	<time>2023-08-07T12:57:52.000Z</time>
</trkpt>
<trkpt lat="46.1278310" lon="10.4718240">
	<ele>2508.40</ele>
	<time>2023-08-07T12:57:53.000Z</time>
</trkpt>
<trkpt lat="46.1278310" lon="10.4718170">
	<ele>2508.40</ele>
	<time>2023-08-07T12:57:54.000Z</time>
</trkpt>
<trkpt lat="46.1278320" lon="10.4718130">
	<ele>2508.20</ele>
	<time>2023-08-07T12:57:55.000Z</time>
</trkpt>
<trkpt lat="46.1278350" lon="10.4718100">
	<ele>2508.00</ele>
	<time>2023-08-07T12:57:56.000Z</time>
</trkpt>
<trkpt lat="46.1278370" lon="10.4718060">
	<ele>2508.00</ele>
	<time>2023-08-07T12:57:57.000Z</time>
</trkpt>
<trkpt lat="46.1278380" lon="10.4717970">
	<ele>2507.80</ele>
	<time>2023-08-07T12:57:58.000Z</time>
</trkpt>
<trkpt lat="46.1278390" lon="10.4717920">
	<ele>2507.80</ele>
	<time>2023-08-07T12:57:59.000Z</time>
</trkpt>
<trkpt lat="46.1278330" lon="10.4717910">
	<ele>2507.60</ele>
	<time>2023-08-07T12:58:00.000Z</time>
</trkpt>
<trkpt lat="46.1278260" lon="10.4717900">
	<ele>2507.40</ele>
	<time>2023-08-07T12:58:01.000Z</time>
</trkpt>
<trkpt lat="46.1278230" lon="10.4717890">
	<ele>2507.20</ele>
	<time>2023-08-07T12:58:02.000Z</time>
</trkpt>
<trkpt lat="46.1278220" lon="10.4717890">
	<ele>2506.80</ele>
	<time>2023-08-07T12:58:03.000Z</time>
</trkpt>
<trkpt lat="46.1278180" lon="10.4717870">
	<ele>2506.60</ele>
	<time>2023-08-07T12:58:04.000Z</time>
</trkpt>
<trkpt lat="46.1278170" lon="10.4717880">
	<ele>2506.60</ele>
	<time>2023-08-07T12:58:05.000Z</time>
</trkpt>
<trkpt lat="46.1278160" lon="10.4717900">
	<ele>2506.40</ele>
	<time>2023-08-07T12:58:06.000Z</time>
</trkpt>
<trkpt lat="46.1278120" lon="10.4717910">
	<ele>2506.40</ele>
	<time>2023-08-07T12:58:07.000Z</time>
</trkpt>
<trkpt lat="46.1278110" lon="10.4717910">
	<ele>2506.20</ele>
	<time>2023-08-07T12:58:08.000Z</time>
</trkpt>
<trkpt lat="46.1278120" lon="10.4717920">
	<ele>2506.00</ele>
	<time>2023-08-07T12:58:09.000Z</time>
</trkpt>
<trkpt lat="46.1278120" lon="10.4717910">
	<ele>2506.00</ele>
	<time>2023-08-07T12:58:10.000Z</time>
</trkpt>
<trkpt lat="46.1278120" lon="10.4717910">
	<ele>2506.00</ele>
	<time>2023-08-07T12:58:11.000Z</time>
</trkpt>
<trkpt lat="46.1278120" lon="10.4717910">
	<ele>2506.00</ele>
	<time>2023-08-07T12:58:12.000Z</time>
</trkpt>
<trkpt lat="46.1278120" lon="10.4717910">
	<ele>2506.00</ele>
	<time>2023-08-07T12:58:13.000Z</time>
</trkpt>
<trkpt lat="46.1278120" lon="10.4717910">
	<ele>2506.00</ele>
	<time>2023-08-07T12:58:14.000Z</time>
</trkpt>
<trkpt lat="46.1278120" lon="10.4717910">
	<ele>2506.00</ele>
	<time>2023-08-07T12:58:15.000Z</time>
</trkpt>
<trkpt lat="46.1278120" lon="10.4717910">
	<ele>2506.00</ele>
	<time>2023-08-07T12:58:16.000Z</time>
</trkpt>
<trkpt lat="46.1278120" lon="10.4717910">
	<ele>2506.00</ele>
	<time>2023-08-07T12:58:17.000Z</time>
</trkpt>
<trkpt lat="46.1278120" lon="10.4717910">
	<ele>2506.00</ele>
	<time>2023-08-07T12:58:18.000Z</time>
</trkpt>
<trkpt lat="46.1278120" lon="10.4717910">
	<ele>2506.00</ele>
	<time>2023-08-07T12:58:19.000Z</time>
</trkpt>
<trkpt lat="46.1278120" lon="10.4717910">
	<ele>2506.00</ele>
	<time>2023-08-07T12:58:20.000Z</time>
</trkpt>
<trkpt lat="46.1278120" lon="10.4717910">
	<ele>2506.00</ele>
	<time>2023-08-07T12:58:21.000Z</time>
</trkpt>
<trkpt lat="46.1278120" lon="10.4717900">
	<ele>2506.00</ele>
	<time>2023-08-07T12:58:22.000Z</time>
</trkpt>
<trkpt lat="46.1278130" lon="10.4717900">
	<ele>2506.00</ele>
	<time>2023-08-07T12:58:23.000Z</time>
</trkpt>
<trkpt lat="46.1278130" lon="10.4717900">
	<ele>2506.20</ele>
	<time>2023-08-07T12:58:24.000Z</time>
</trkpt>
<trkpt lat="46.1278130" lon="10.4717900">
	<ele>2506.20</ele>
	<time>2023-08-07T12:58:25.000Z</time>
</trkpt>
<trkpt lat="46.1278130" lon="10.4717900">
	<ele>2506.40</ele>
	<time>2023-08-07T12:58:26.000Z</time>
</trkpt>
<trkpt lat="46.1278130" lon="10.4717900">
	<ele>2506.40</ele>
	<time>2023-08-07T12:58:27.000Z</time>
</trkpt>
<trkpt lat="46.1278130" lon="10.4717900">
	<ele>2506.60</ele>
	<time>2023-08-07T12:58:28.000Z</time>
</trkpt>
<trkpt lat="46.1278130" lon="10.4717900">
	<ele>2506.60</ele>
	<time>2023-08-07T12:58:29.000Z</time>
</trkpt>
<trkpt lat="46.1278130" lon="10.4717900">
	<ele>2506.60</ele>
	<time>2023-08-07T12:58:30.000Z</time>
</trkpt>
<trkpt lat="46.1278130" lon="10.4717900">
	<ele>2506.60</ele>
	<time>2023-08-07T12:58:31.000Z</time>
</trkpt>
<trkpt lat="46.1278130" lon="10.4717900">
	<ele>2506.60</ele>
	<time>2023-08-07T12:58:32.000Z</time>
</trkpt>
<trkpt lat="46.1278130" lon="10.4717900">
	<ele>2506.60</ele>
	<time>2023-08-07T12:58:33.000Z</time>
</trkpt>
<trkpt lat="46.1278130" lon="10.4717900">
	<ele>2506.60</ele>
	<time>2023-08-07T12:58:34.000Z</time>
</trkpt>
<trkpt lat="46.1278130" lon="10.4717900">
	<ele>2506.60</ele>
	<time>2023-08-07T12:58:35.000Z</time>
</trkpt>
<trkpt lat="46.1278130" lon="10.4717900">
	<ele>2506.60</ele>
	<time>2023-08-07T12:58:36.000Z</time>
</trkpt>
<trkpt lat="46.1278130" lon="10.4717900">
	<ele>2506.80</ele>
	<time>2023-08-07T12:58:37.000Z</time>
</trkpt>
<trkpt lat="46.1278130" lon="10.4717900">
	<ele>2506.80</ele>
	<time>2023-08-07T12:58:38.000Z</time>
</trkpt>
<trkpt lat="46.1278130" lon="10.4717890">
	<ele>2506.80</ele>
	<time>2023-08-07T12:58:39.000Z</time>
</trkpt>
<trkpt lat="46.1278130" lon="10.4717890">
	<ele>2506.80</ele>
	<time>2023-08-07T12:58:40.000Z</time>
</trkpt>
<trkpt lat="46.1278120" lon="10.4717890">
	<ele>2506.60</ele>
	<time>2023-08-07T12:58:41.000Z</time>
</trkpt>
<trkpt lat="46.1278120" lon="10.4717890">
	<ele>2506.60</ele>
	<time>2023-08-07T12:58:42.000Z</time>
</trkpt>
<trkpt lat="46.1278120" lon="10.4717890">
	<ele>2506.40</ele>
	<time>2023-08-07T12:58:43.000Z</time>
</trkpt>
<trkpt lat="46.1278110" lon="10.4717890">
	<ele>2506.20</ele>
	<time>2023-08-07T12:58:44.000Z</time>
</trkpt>
<trkpt lat="46.1278070" lon="10.4717890">
	<ele>2506.20</ele>
	<time>2023-08-07T12:58:45.000Z</time>
</trkpt>
<trkpt lat="46.1278030" lon="10.4717880">
	<ele>2506.20</ele>
	<time>2023-08-07T12:58:46.000Z</time>
</trkpt>
<trkpt lat="46.1277980" lon="10.4717880">
	<ele>2506.00</ele>
	<time>2023-08-07T12:58:47.000Z</time>
</trkpt>
<trkpt lat="46.1277950" lon="10.4717870">
	<ele>2506.00</ele>
	<time>2023-08-07T12:58:48.000Z</time>
</trkpt>
<trkpt lat="46.1277940" lon="10.4717850">
	<ele>2506.00</ele>
	<time>2023-08-07T12:58:49.000Z</time>
</trkpt>
<trkpt lat="46.1277920" lon="10.4717820">
	<ele>2505.80</ele>
	<time>2023-08-07T12:58:50.000Z</time>
</trkpt>
<trkpt lat="46.1277900" lon="10.4717800">
	<ele>2505.80</ele>
	<time>2023-08-07T12:58:51.000Z</time>
</trkpt>
<trkpt lat="46.1277890" lon="10.4717790">
	<ele>2505.60</ele>
	<time>2023-08-07T12:58:52.000Z</time>
</trkpt>
<trkpt lat="46.1277850" lon="10.4717780">
	<ele>2505.40</ele>
	<time>2023-08-07T12:58:53.000Z</time>
</trkpt>
<trkpt lat="46.1277800" lon="10.4717770">
	<ele>2505.40</ele>
	<time>2023-08-07T12:58:54.000Z</time>
</trkpt>
<trkpt lat="46.1277730" lon="10.4717770">
	<ele>2505.40</ele>
	<time>2023-08-07T12:58:55.000Z</time>
</trkpt>
<trkpt lat="46.1277690" lon="10.4717740">
	<ele>2505.20</ele>
	<time>2023-08-07T12:58:56.000Z</time>
</trkpt>
<trkpt lat="46.1277640" lon="10.4717720">
	<ele>2505.20</ele>
	<time>2023-08-07T12:58:57.000Z</time>
</trkpt>
<trkpt lat="46.1277600" lon="10.4717710">
	<ele>2505.20</ele>
	<time>2023-08-07T12:58:58.000Z</time>
</trkpt>
<trkpt lat="46.1277590" lon="10.4717710">
	<ele>2504.80</ele>
	<time>2023-08-07T12:58:59.000Z</time>
</trkpt>
<trkpt lat="46.1277580" lon="10.4717680">
	<ele>2504.40</ele>
	<time>2023-08-07T12:59:00.000Z</time>
</trkpt>
<trkpt lat="46.1277570" lon="10.4717670">
	<ele>2503.80</ele>
	<time>2023-08-07T12:59:01.000Z</time>
</trkpt>
<trkpt lat="46.1277560" lon="10.4717640">
	<ele>2503.40</ele>
	<time>2023-08-07T12:59:02.000Z</time>
</trkpt>
<trkpt lat="46.1277540" lon="10.4717580">
	<ele>2503.00</ele>
	<time>2023-08-07T12:59:03.000Z</time>
</trkpt>
<trkpt lat="46.1277500" lon="10.4717520">
	<ele>2502.80</ele>
	<time>2023-08-07T12:59:04.000Z</time>
</trkpt>
<trkpt lat="46.1277490" lon="10.4717460">
	<ele>2502.60</ele>
	<time>2023-08-07T12:59:05.000Z</time>
</trkpt>
<trkpt lat="46.1277490" lon="10.4717410">
	<ele>2502.40</ele>
	<time>2023-08-07T12:59:06.000Z</time>
</trkpt>
<trkpt lat="46.1277490" lon="10.4717370">
	<ele>2502.00</ele>
	<time>2023-08-07T12:59:07.000Z</time>
</trkpt>
<trkpt lat="46.1277490" lon="10.4717330">
	<ele>2502.00</ele>
	<time>2023-08-07T12:59:08.000Z</time>
</trkpt>
<trkpt lat="46.1277490" lon="10.4717300">
	<ele>2501.80</ele>
	<time>2023-08-07T12:59:09.000Z</time>
</trkpt>
<trkpt lat="46.1277490" lon="10.4717270">
	<ele>2501.60</ele>
	<time>2023-08-07T12:59:10.000Z</time>
</trkpt>
<trkpt lat="46.1277490" lon="10.4717260">
	<ele>2501.40</ele>
	<time>2023-08-07T12:59:11.000Z</time>
</trkpt>
<trkpt lat="46.1277490" lon="10.4717240">
	<ele>2501.40</ele>
	<time>2023-08-07T12:59:12.000Z</time>
</trkpt>
<trkpt lat="46.1277490" lon="10.4717190">
	<ele>2501.40</ele>
	<time>2023-08-07T12:59:13.000Z</time>
</trkpt>
<trkpt lat="46.1277490" lon="10.4717140">
	<ele>2501.40</ele>
	<time>2023-08-07T12:59:14.000Z</time>
</trkpt>
<trkpt lat="46.1277490" lon="10.4717110">
	<ele>2501.20</ele>
	<time>2023-08-07T12:59:15.000Z</time>
</trkpt>
<trkpt lat="46.1277490" lon="10.4717060">
	<ele>2501.00</ele>
	<time>2023-08-07T12:59:16.000Z</time>
</trkpt>
<trkpt lat="46.1277490" lon="10.4717020">
	<ele>2500.80</ele>
	<time>2023-08-07T12:59:17.000Z</time>
</trkpt>
<trkpt lat="46.1277490" lon="10.4716990">
	<ele>2500.60</ele>
	<time>2023-08-07T12:59:18.000Z</time>
</trkpt>
<trkpt lat="46.1277490" lon="10.4716940">
	<ele>2500.40</ele>
	<time>2023-08-07T12:59:19.000Z</time>
</trkpt>
<trkpt lat="46.1277500" lon="10.4716890">
	<ele>2500.20</ele>
	<time>2023-08-07T12:59:20.000Z</time>
</trkpt>
<trkpt lat="46.1277540" lon="10.4716820">
	<ele>2500.00</ele>
	<time>2023-08-07T12:59:21.000Z</time>
</trkpt>
<trkpt lat="46.1277560" lon="10.4716780">
	<ele>2499.80</ele>
	<time>2023-08-07T12:59:22.000Z</time>
</trkpt>
<trkpt lat="46.1277580" lon="10.4716740">
	<ele>2499.60</ele>
	<time>2023-08-07T12:59:23.000Z</time>
</trkpt>
<trkpt lat="46.1277590" lon="10.4716670">
	<ele>2499.60</ele>
	<time>2023-08-07T12:59:24.000Z</time>
</trkpt>
<trkpt lat="46.1277590" lon="10.4716600">
	<ele>2499.20</ele>
	<time>2023-08-07T12:59:25.000Z</time>
</trkpt>
<trkpt lat="46.1277600" lon="10.4716530">
	<ele>2499.00</ele>
	<time>2023-08-07T12:59:26.000Z</time>
</trkpt>
<trkpt lat="46.1277620" lon="10.4716430">
	<ele>2498.80</ele>
	<time>2023-08-07T12:59:27.000Z</time>
</trkpt>
<trkpt lat="46.1277630" lon="10.4716360">
	<ele>2498.80</ele>
	<time>2023-08-07T12:59:28.000Z</time>
</trkpt>
<trkpt lat="46.1277640" lon="10.4716310">
	<ele>2498.80</ele>
	<time>2023-08-07T12:59:29.000Z</time>
</trkpt>
<trkpt lat="46.1277650" lon="10.4716280">
	<ele>2498.60</ele>
	<time>2023-08-07T12:59:30.000Z</time>
</trkpt>
<trkpt lat="46.1277650" lon="10.4716260">
	<ele>2498.60</ele>
	<time>2023-08-07T12:59:31.000Z</time>
</trkpt>
<trkpt lat="46.1277660" lon="10.4716220">
	<ele>2498.60</ele>
	<time>2023-08-07T12:59:32.000Z</time>
</trkpt>
<trkpt lat="46.1277660" lon="10.4716170">
	<ele>2498.60</ele>
	<time>2023-08-07T12:59:33.000Z</time>
</trkpt>
<trkpt lat="46.1277660" lon="10.4716110">
	<ele>2498.60</ele>
	<time>2023-08-07T12:59:34.000Z</time>
</trkpt>
<trkpt lat="46.1277660" lon="10.4716070">
	<ele>2498.40</ele>
	<time>2023-08-07T12:59:35.000Z</time>
</trkpt>
<trkpt lat="46.1277670" lon="10.4716030">
	<ele>2498.00</ele>
	<time>2023-08-07T12:59:36.000Z</time>
</trkpt>
<trkpt lat="46.1277680" lon="10.4716010">
	<ele>2497.80</ele>
	<time>2023-08-07T12:59:37.000Z</time>
</trkpt>
<trkpt lat="46.1277680" lon="10.4715990">
	<ele>2497.60</ele>
	<time>2023-08-07T12:59:38.000Z</time>
</trkpt>
<trkpt lat="46.1277690" lon="10.4715980">
	<ele>2497.60</ele>
	<time>2023-08-07T12:59:39.000Z</time>
</trkpt>
<trkpt lat="46.1277710" lon="10.4715960">
	<ele>2497.60</ele>
	<time>2023-08-07T12:59:40.000Z</time>
</trkpt>
<trkpt lat="46.1277750" lon="10.4715920">
	<ele>2497.40</ele>
	<time>2023-08-07T12:59:41.000Z</time>
</trkpt>
<trkpt lat="46.1277810" lon="10.4715890">
	<ele>2497.40</ele>
	<time>2023-08-07T12:59:42.000Z</time>
</trkpt>
<trkpt lat="46.1277850" lon="10.4715850">
	<ele>2497.20</ele>
	<time>2023-08-07T12:59:43.000Z</time>
</trkpt>
<trkpt lat="46.1277890" lon="10.4715810">
	<ele>2497.00</ele>
	<time>2023-08-07T12:59:44.000Z</time>
</trkpt>
<trkpt lat="46.1277940" lon="10.4715730">
	<ele>2496.80</ele>
	<time>2023-08-07T12:59:45.000Z</time>
</trkpt>
<trkpt lat="46.1277970" lon="10.4715600">
	<ele>2496.60</ele>
	<time>2023-08-07T12:59:46.000Z</time>
</trkpt>
<trkpt lat="46.1277990" lon="10.4715490">
	<ele>2496.40</ele>
	<time>2023-08-07T12:59:47.000Z</time>
</trkpt>
<trkpt lat="46.1278030" lon="10.4715420">
	<ele>2496.20</ele>
	<time>2023-08-07T12:59:48.000Z</time>
</trkpt>
<trkpt lat="46.1278060" lon="10.4715390">
	<ele>2496.00</ele>
	<time>2023-08-07T12:59:49.000Z</time>
</trkpt>
<trkpt lat="46.1278090" lon="10.4715360">
	<ele>2495.80</ele>
	<time>2023-08-07T12:59:50.000Z</time>
</trkpt>
<trkpt lat="46.1278110" lon="10.4715320">
	<ele>2495.80</ele>
	<time>2023-08-07T12:59:51.000Z</time>
</trkpt>
<trkpt lat="46.1278130" lon="10.4715270">
	<ele>2495.60</ele>
	<time>2023-08-07T12:59:52.000Z</time>
</trkpt>
<trkpt lat="46.1278150" lon="10.4715160">
	<ele>2495.40</ele>
	<time>2023-08-07T12:59:53.000Z</time>
</trkpt>
<trkpt lat="46.1278180" lon="10.4715010">
	<ele>2495.20</ele>
	<time>2023-08-07T12:59:54.000Z</time>
</trkpt>
<trkpt lat="46.1278190" lon="10.4714870">
	<ele>2495.00</ele>
	<time>2023-08-07T12:59:55.000Z</time>
</trkpt>
<trkpt lat="46.1278200" lon="10.4714710">
	<ele>2494.80</ele>
	<time>2023-08-07T12:59:56.000Z</time>
</trkpt>
<trkpt lat="46.1278210" lon="10.4714580">
	<ele>2494.60</ele>
	<time>2023-08-07T12:59:57.000Z</time>
</trkpt>
<trkpt lat="46.1278240" lon="10.4714450">
	<ele>2494.40</ele>
	<time>2023-08-07T12:59:58.000Z</time>
</trkpt>
<trkpt lat="46.1278260" lon="10.4714330">
	<ele>2494.40</ele>
	<time>2023-08-07T12:59:59.000Z</time>
</trkpt>
<trkpt lat="46.1278300" lon="10.4714340">
	<ele>2494.40</ele>
	<time>2023-08-07T13:00:00.000Z</time>
</trkpt>
<trkpt lat="46.1278320" lon="10.4714220">
	<ele>2494.20</ele>
	<time>2023-08-07T13:00:01.000Z</time>
</trkpt>
<trkpt lat="46.1278340" lon="10.4714110">
	<ele>2494.00</ele>
	<time>2023-08-07T13:00:02.000Z</time>
</trkpt>
<trkpt lat="46.1278350" lon="10.4714130">
	<ele>2494.00</ele>
	<time>2023-08-07T13:00:03.000Z</time>
</trkpt>
<trkpt lat="46.1278340" lon="10.4714140">
	<ele>2493.80</ele>
	<time>2023-08-07T13:00:04.000Z</time>
</trkpt>
<trkpt lat="46.1278330" lon="10.4714140">
	<ele>2493.80</ele>
	<time>2023-08-07T13:00:05.000Z</time>
</trkpt>
<trkpt lat="46.1278320" lon="10.4714130">
	<ele>2493.80</ele>
	<time>2023-08-07T13:00:06.000Z</time>
</trkpt>
<trkpt lat="46.1278320" lon="10.4714110">
	<ele>2494.00</ele>
	<time>2023-08-07T13:00:07.000Z</time>
</trkpt>
<trkpt lat="46.1278310" lon="10.4714110">
	<ele>2494.00</ele>
	<time>2023-08-07T13:00:08.000Z</time>
</trkpt>
<trkpt lat="46.1278310" lon="10.4714110">
	<ele>2494.40</ele>
	<time>2023-08-07T13:00:09.000Z</time>
</trkpt>
<trkpt lat="46.1278310" lon="10.4714110">
	<ele>2494.60</ele>
	<time>2023-08-07T13:00:10.000Z</time>
</trkpt>
<trkpt lat="46.1278310" lon="10.4714110">
	<ele>2494.60</ele>
	<time>2023-08-07T13:00:11.000Z</time>
</trkpt>
<trkpt lat="46.1278310" lon="10.4714110">
	<ele>2494.80</ele>
	<time>2023-08-07T13:00:12.000Z</time>
</trkpt>
<trkpt lat="46.1278310" lon="10.4714110">
	<ele>2494.60</ele>
	<time>2023-08-07T13:00:13.000Z</time>
</trkpt>
<trkpt lat="46.1278310" lon="10.4714110">
	<ele>2494.60</ele>
	<time>2023-08-07T13:00:14.000Z</time>
</trkpt>
<trkpt lat="46.1278310" lon="10.4714110">
	<ele>2494.60</ele>
	<time>2023-08-07T13:00:15.000Z</time>
</trkpt>
<trkpt lat="46.1278310" lon="10.4714110">
	<ele>2494.60</ele>
	<time>2023-08-07T13:00:16.000Z</time>
</trkpt>
<trkpt lat="46.1278320" lon="10.4714110">
	<ele>2494.40</ele>
	<time>2023-08-07T13:00:17.000Z</time>
</trkpt>
<trkpt lat="46.1278320" lon="10.4714110">
	<ele>2494.40</ele>
	<time>2023-08-07T13:00:18.000Z</time>
</trkpt>
<trkpt lat="46.1278320" lon="10.4714110">
	<ele>2494.40</ele>
	<time>2023-08-07T13:00:19.000Z</time>
</trkpt>
<trkpt lat="46.1278320" lon="10.4714110">
	<ele>2494.40</ele>
	<time>2023-08-07T13:00:20.000Z</time>
</trkpt>
<trkpt lat="46.1278320" lon="10.4714110">
	<ele>2494.40</ele>
	<time>2023-08-07T13:00:21.000Z</time>
</trkpt>
<trkpt lat="46.1278320" lon="10.4714110">
	<ele>2494.20</ele>
	<time>2023-08-07T13:00:22.000Z</time>
</trkpt>
<trkpt lat="46.1278320" lon="10.4714110">
	<ele>2494.20</ele>
	<time>2023-08-07T13:00:23.000Z</time>
</trkpt>
<trkpt lat="46.1278320" lon="10.4714110">
	<ele>2493.80</ele>
	<time>2023-08-07T13:00:24.000Z</time>
</trkpt>
<trkpt lat="46.1278330" lon="10.4714110">
	<ele>2493.80</ele>
	<time>2023-08-07T13:00:25.000Z</time>
</trkpt>
<trkpt lat="46.1278330" lon="10.4714110">
	<ele>2493.60</ele>
	<time>2023-08-07T13:00:26.000Z</time>
</trkpt>
<trkpt lat="46.1278330" lon="10.4714110">
	<ele>2493.40</ele>
	<time>2023-08-07T13:00:27.000Z</time>
</trkpt>
<trkpt lat="46.1278330" lon="10.4714110">
	<ele>2493.20</ele>
	<time>2023-08-07T13:00:28.000Z</time>
</trkpt>
<trkpt lat="46.1278330" lon="10.4714110">
	<ele>2493.20</ele>
	<time>2023-08-07T13:00:29.000Z</time>
</trkpt>
<trkpt lat="46.1278330" lon="10.4714110">
	<ele>2493.00</ele>
	<time>2023-08-07T13:00:30.000Z</time>
</trkpt>
<trkpt lat="46.1278330" lon="10.4714110">
	<ele>2492.60</ele>
	<time>2023-08-07T13:00:31.000Z</time>
</trkpt>
<trkpt lat="46.1278330" lon="10.4714110">
	<ele>2492.20</ele>
	<time>2023-08-07T13:00:32.000Z</time>
</trkpt>
<trkpt lat="46.1278330" lon="10.4714110">
	<ele>2492.00</ele>
	<time>2023-08-07T13:00:33.000Z</time>
</trkpt>
<trkpt lat="46.1278330" lon="10.4714110">
	<ele>2491.80</ele>
	<time>2023-08-07T13:00:34.000Z</time>
</trkpt>
<trkpt lat="46.1278330" lon="10.4714110">
	<ele>2491.80</ele>
	<time>2023-08-07T13:00:35.000Z</time>
</trkpt>
<trkpt lat="46.1278330" lon="10.4714100">
	<ele>2491.80</ele>
	<time>2023-08-07T13:00:36.000Z</time>
</trkpt>
<trkpt lat="46.1278330" lon="10.4714080">
	<ele>2491.60</ele>
	<time>2023-08-07T13:00:37.000Z</time>
</trkpt>
<trkpt lat="46.1278330" lon="10.4714070">
	<ele>2491.60</ele>
	<time>2023-08-07T13:00:38.000Z</time>
</trkpt>
<trkpt lat="46.1278330" lon="10.4714040">
	<ele>2491.60</ele>
	<time>2023-08-07T13:00:39.000Z</time>
</trkpt>
<trkpt lat="46.1278330" lon="10.4714000">
	<ele>2491.60</ele>
	<time>2023-08-07T13:00:40.000Z</time>
</trkpt>
<trkpt lat="46.1278330" lon="10.4713970">
	<ele>2491.60</ele>
	<time>2023-08-07T13:00:41.000Z</time>
</trkpt>
<trkpt lat="46.1278330" lon="10.4713840">
	<ele>2491.80</ele>
	<time>2023-08-07T13:00:42.000Z</time>
</trkpt>
<trkpt lat="46.1278330" lon="10.4713740">
	<ele>2491.80</ele>
	<time>2023-08-07T13:00:43.000Z</time>
</trkpt>
<trkpt lat="46.1278330" lon="10.4713690">
	<ele>2491.80</ele>
	<time>2023-08-07T13:00:44.000Z</time>
</trkpt>
<trkpt lat="46.1278330" lon="10.4713640">
	<ele>2491.80</ele>
	<time>2023-08-07T13:00:45.000Z</time>
</trkpt>
<trkpt lat="46.1278330" lon="10.4713510">
	<ele>2491.80</ele>
	<time>2023-08-07T13:00:46.000Z</time>
</trkpt>
<trkpt lat="46.1278330" lon="10.4713400">
	<ele>2492.00</ele>
	<time>2023-08-07T13:00:47.000Z</time>
</trkpt>
<trkpt lat="46.1278330" lon="10.4713330">
	<ele>2492.00</ele>
	<time>2023-08-07T13:00:48.000Z</time>
</trkpt>
<trkpt lat="46.1278330" lon="10.4713260">
	<ele>2492.00</ele>
	<time>2023-08-07T13:00:49.000Z</time>
</trkpt>
<trkpt lat="46.1278330" lon="10.4713210">
	<ele>2492.00</ele>
	<time>2023-08-07T13:00:50.000Z</time>
</trkpt>
<trkpt lat="46.1278320" lon="10.4713170">
	<ele>2492.00</ele>
	<time>2023-08-07T13:00:51.000Z</time>
</trkpt>
<trkpt lat="46.1278310" lon="10.4713110">
	<ele>2492.00</ele>
	<time>2023-08-07T13:00:52.000Z</time>
</trkpt>
<trkpt lat="46.1278280" lon="10.4713060">
	<ele>2492.00</ele>
	<time>2023-08-07T13:00:53.000Z</time>
</trkpt>
<trkpt lat="46.1278260" lon="10.4713000">
	<ele>2492.00</ele>
	<time>2023-08-07T13:00:54.000Z</time>
</trkpt>
<trkpt lat="46.1278230" lon="10.4712960">
	<ele>2492.00</ele>
	<time>2023-08-07T13:00:55.000Z</time>
</trkpt>
<trkpt lat="46.1278190" lon="10.4712920">
	<ele>2492.00</ele>
	<time>2023-08-07T13:00:56.000Z</time>
</trkpt>
<trkpt lat="46.1278170" lon="10.4712870">
	<ele>2492.00</ele>
	<time>2023-08-07T13:00:57.000Z</time>
</trkpt>
<trkpt lat="46.1278140" lon="10.4712840">
	<ele>2491.80</ele>
	<time>2023-08-07T13:00:58.000Z</time>
</trkpt>
<trkpt lat="46.1278120" lon="10.4712820">
	<ele>2491.80</ele>
	<time>2023-08-07T13:00:59.000Z</time>
</trkpt>
<trkpt lat="46.1278100" lon="10.4712820">
	<ele>2491.60</ele>
	<time>2023-08-07T13:01:00.000Z</time>
</trkpt>
<trkpt lat="46.1278090" lon="10.4712810">
	<ele>2491.60</ele>
	<time>2023-08-07T13:01:01.000Z</time>
</trkpt>
<trkpt lat="46.1278070" lon="10.4712810">
	<ele>2491.40</ele>
	<time>2023-08-07T13:01:02.000Z</time>
</trkpt>
<trkpt lat="46.1278060" lon="10.4712810">
	<ele>2491.40</ele>
	<time>2023-08-07T13:01:03.000Z</time>
</trkpt>
<trkpt lat="46.1278040" lon="10.4712810">
	<ele>2491.00</ele>
	<time>2023-08-07T13:01:04.000Z</time>
</trkpt>
<trkpt lat="46.1278010" lon="10.4712810">
	<ele>2490.60</ele>
	<time>2023-08-07T13:01:05.000Z</time>
</trkpt>
<trkpt lat="46.1277980" lon="10.4712800">
	<ele>2490.20</ele>
	<time>2023-08-07T13:01:06.000Z</time>
</trkpt>
<trkpt lat="46.1277940" lon="10.4712790">
	<ele>2489.80</ele>
	<time>2023-08-07T13:01:07.000Z</time>
</trkpt>
<trkpt lat="46.1277910" lon="10.4712770">
	<ele>2489.60</ele>
	<time>2023-08-07T13:01:08.000Z</time>
</trkpt>
<trkpt lat="46.1277860" lon="10.4712750">
	<ele>2489.40</ele>
	<time>2023-08-07T13:01:09.000Z</time>
</trkpt>
<trkpt lat="46.1277850" lon="10.4712700">
	<ele>2489.00</ele>
	<time>2023-08-07T13:01:10.000Z</time>
</trkpt>
<trkpt lat="46.1277840" lon="10.4712640">
	<ele>2489.00</ele>
	<time>2023-08-07T13:01:11.000Z</time>
</trkpt>
<trkpt lat="46.1277840" lon="10.4712570">
	<ele>2488.80</ele>
	<time>2023-08-07T13:01:12.000Z</time>
</trkpt>
<trkpt lat="46.1277840" lon="10.4712490">
	<ele>2488.60</ele>
	<time>2023-08-07T13:01:13.000Z</time>
</trkpt>
<trkpt lat="46.1277840" lon="10.4712420">
	<ele>2488.20</ele>
	<time>2023-08-07T13:01:14.000Z</time>
</trkpt>
<trkpt lat="46.1277840" lon="10.4712370">
	<ele>2487.80</ele>
	<time>2023-08-07T13:01:15.000Z</time>
</trkpt>
<trkpt lat="46.1277840" lon="10.4712320">
	<ele>2487.60</ele>
	<time>2023-08-07T13:01:16.000Z</time>
</trkpt>
<trkpt lat="46.1277840" lon="10.4712270">
	<ele>2487.40</ele>
	<time>2023-08-07T13:01:17.000Z</time>
</trkpt>
<trkpt lat="46.1277840" lon="10.4712220">
	<ele>2487.00</ele>
	<time>2023-08-07T13:01:18.000Z</time>
</trkpt>
<trkpt lat="46.1277860" lon="10.4712130">
	<ele>2486.80</ele>
	<time>2023-08-07T13:01:19.000Z</time>
</trkpt>
<trkpt lat="46.1277910" lon="10.4711980">
	<ele>2486.60</ele>
	<time>2023-08-07T13:01:20.000Z</time>
</trkpt>
<trkpt lat="46.1277960" lon="10.4711790">
	<ele>2486.60</ele>
	<time>2023-08-07T13:01:21.000Z</time>
</trkpt>
<trkpt lat="46.1277990" lon="10.4711610">
	<ele>2486.60</ele>
	<time>2023-08-07T13:01:22.000Z</time>
</trkpt>
<trkpt lat="46.1278000" lon="10.4711460">
	<ele>2486.40</ele>
	<time>2023-08-07T13:01:23.000Z</time>
</trkpt>
<trkpt lat="46.1278020" lon="10.4711320">
	<ele>2486.40</ele>
	<time>2023-08-07T13:01:24.000Z</time>
</trkpt>
<trkpt lat="46.1278010" lon="10.4711160">
	<ele>2486.20</ele>
	<time>2023-08-07T13:01:25.000Z</time>
</trkpt>
<trkpt lat="46.1278010" lon="10.4711030">
	<ele>2485.80</ele>
	<time>2023-08-07T13:01:26.000Z</time>
</trkpt>
<trkpt lat="46.1278030" lon="10.4710900">
	<ele>2485.40</ele>
	<time>2023-08-07T13:01:27.000Z</time>
</trkpt>
<trkpt lat="46.1278060" lon="10.4710710">
	<ele>2485.40</ele>
	<time>2023-08-07T13:01:28.000Z</time>
</trkpt>
<trkpt lat="46.1278080" lon="10.4710640">
	<ele>2485.20</ele>
	<time>2023-08-07T13:01:29.000Z</time>
</trkpt>
<trkpt lat="46.1278090" lon="10.4710590">
	<ele>2485.20</ele>
	<time>2023-08-07T13:01:30.000Z</time>
</trkpt>
<trkpt lat="46.1278080" lon="10.4710580">
	<ele>2485.20</ele>
	<time>2023-08-07T13:01:31.000Z</time>
</trkpt>
<trkpt lat="46.1278070" lon="10.4710530">
	<ele>2485.20</ele>
	<time>2023-08-07T13:01:32.000Z</time>
</trkpt>
<trkpt lat="46.1278080" lon="10.4710470">
	<ele>2484.80</ele>
	<time>2023-08-07T13:01:33.000Z</time>
</trkpt>
<trkpt lat="46.1278080" lon="10.4710420">
	<ele>2484.60</ele>
	<time>2023-08-07T13:01:34.000Z</time>
</trkpt>
<trkpt lat="46.1278070" lon="10.4710410">
	<ele>2484.60</ele>
	<time>2023-08-07T13:01:35.000Z</time>
</trkpt>
<trkpt lat="46.1278060" lon="10.4710390">
	<ele>2484.40</ele>
	<time>2023-08-07T13:01:36.000Z</time>
</trkpt>
<trkpt lat="46.1278050" lon="10.4710370">
	<ele>2484.20</ele>
	<time>2023-08-07T13:01:37.000Z</time>
</trkpt>
<trkpt lat="46.1278020" lon="10.4710330">
	<ele>2484.20</ele>
	<time>2023-08-07T13:01:38.000Z</time>
</trkpt>
<trkpt lat="46.1277960" lon="10.4710280">
	<ele>2484.00</ele>
	<time>2023-08-07T13:01:39.000Z</time>
</trkpt>
<trkpt lat="46.1277940" lon="10.4710230">
	<ele>2483.80</ele>
	<time>2023-08-07T13:01:40.000Z</time>
</trkpt>
<trkpt lat="46.1277890" lon="10.4710170">
	<ele>2483.60</ele>
	<time>2023-08-07T13:01:41.000Z</time>
</trkpt>
<trkpt lat="46.1277860" lon="10.4710120">
	<ele>2483.40</ele>
	<time>2023-08-07T13:01:42.000Z</time>
</trkpt>
<trkpt lat="46.1277830" lon="10.4710060">
	<ele>2483.20</ele>
	<time>2023-08-07T13:01:43.000Z</time>
</trkpt>
<trkpt lat="46.1277770" lon="10.4710000">
	<ele>2483.20</ele>
	<time>2023-08-07T13:01:44.000Z</time>
</trkpt>
<trkpt lat="46.1277740" lon="10.4709910">
	<ele>2483.00</ele>
	<time>2023-08-07T13:01:45.000Z</time>
</trkpt>
<trkpt lat="46.1277720" lon="10.4709850">
	<ele>2483.00</ele>
	<time>2023-08-07T13:01:46.000Z</time>
</trkpt>
<trkpt lat="46.1277730" lon="10.4709800">
	<ele>2483.00</ele>
	<time>2023-08-07T13:01:47.000Z</time>
</trkpt>
<trkpt lat="46.1277740" lon="10.4709810">
	<ele>2483.00</ele>
	<time>2023-08-07T13:01:48.000Z</time>
</trkpt>
<trkpt lat="46.1277740" lon="10.4709770">
	<ele>2483.00</ele>
	<time>2023-08-07T13:01:49.000Z</time>
</trkpt>
<trkpt lat="46.1277760" lon="10.4709730">
	<ele>2482.80</ele>
	<time>2023-08-07T13:01:50.000Z</time>
</trkpt>
<trkpt lat="46.1277750" lon="10.4709680">
	<ele>2482.80</ele>
	<time>2023-08-07T13:01:51.000Z</time>
</trkpt>
<trkpt lat="46.1277740" lon="10.4709710">
	<ele>2482.80</ele>
	<time>2023-08-07T13:01:52.000Z</time>
</trkpt>
<trkpt lat="46.1277740" lon="10.4709670">
	<ele>2482.80</ele>
	<time>2023-08-07T13:01:53.000Z</time>
</trkpt>
<trkpt lat="46.1277730" lon="10.4709640">
	<ele>2482.80</ele>
	<time>2023-08-07T13:01:54.000Z</time>
</trkpt>
<trkpt lat="46.1277730" lon="10.4709590">
	<ele>2482.80</ele>
	<time>2023-08-07T13:01:55.000Z</time>
</trkpt>
<trkpt lat="46.1277700" lon="10.4709540">
	<ele>2482.80</ele>
	<time>2023-08-07T13:01:56.000Z</time>
</trkpt>
<trkpt lat="46.1277670" lon="10.4709510">
	<ele>2482.80</ele>
	<time>2023-08-07T13:01:57.000Z</time>
</trkpt>
<trkpt lat="46.1277640" lon="10.4709500">
	<ele>2482.60</ele>
	<time>2023-08-07T13:01:58.000Z</time>
</trkpt>
<trkpt lat="46.1277620" lon="10.4709520">
	<ele>2482.60</ele>
	<time>2023-08-07T13:01:59.000Z</time>
</trkpt>
<trkpt lat="46.1277590" lon="10.4709510">
	<ele>2482.40</ele>
	<time>2023-08-07T13:02:00.000Z</time>
</trkpt>
<trkpt lat="46.1277570" lon="10.4709440">
	<ele>2482.20</ele>
	<time>2023-08-07T13:02:01.000Z</time>
</trkpt>
<trkpt lat="46.1277560" lon="10.4709390">
	<ele>2482.00</ele>
	<time>2023-08-07T13:02:02.000Z</time>
</trkpt>
<trkpt lat="46.1277540" lon="10.4709360">
	<ele>2481.80</ele>
	<time>2023-08-07T13:02:03.000Z</time>
</trkpt>
<trkpt lat="46.1277510" lon="10.4709280">
	<ele>2481.80</ele>
	<time>2023-08-07T13:02:04.000Z</time>
</trkpt>
<trkpt lat="46.1277500" lon="10.4709210">
	<ele>2481.80</ele>
	<time>2023-08-07T13:02:05.000Z</time>
</trkpt>
<trkpt lat="46.1277480" lon="10.4709160">
	<ele>2481.60</ele>
	<time>2023-08-07T13:02:06.000Z</time>
</trkpt>
<trkpt lat="46.1277470" lon="10.4709080">
	<ele>2481.40</ele>
	<time>2023-08-07T13:02:07.000Z</time>
</trkpt>
<trkpt lat="46.1277450" lon="10.4708980">
	<ele>2481.20</ele>
	<time>2023-08-07T13:02:08.000Z</time>
</trkpt>
<trkpt lat="46.1277480" lon="10.4708890">
	<ele>2480.80</ele>
	<time>2023-08-07T13:02:09.000Z</time>
</trkpt>
<trkpt lat="46.1277510" lon="10.4708800">
	<ele>2480.60</ele>
	<time>2023-08-07T13:02:10.000Z</time>
</trkpt>
<trkpt lat="46.1277570" lon="10.4708770">
	<ele>2480.60</ele>
	<time>2023-08-07T13:02:11.000Z</time>
</trkpt>
<trkpt lat="46.1277590" lon="10.4708710">
	<ele>2480.20</ele>
	<time>2023-08-07T13:02:12.000Z</time>
</trkpt>
<trkpt lat="46.1277580" lon="10.4708710">
	<ele>2480.00</ele>
	<time>2023-08-07T13:02:13.000Z</time>
</trkpt>
<trkpt lat="46.1277550" lon="10.4708690">
	<ele>2480.00</ele>
	<time>2023-08-07T13:02:14.000Z</time>
</trkpt>
<trkpt lat="46.1277530" lon="10.4708650">
	<ele>2480.00</ele>
	<time>2023-08-07T13:02:15.000Z</time>
</trkpt>
<trkpt lat="46.1277520" lon="10.4708590">
	<ele>2479.80</ele>
	<time>2023-08-07T13:02:16.000Z</time>
</trkpt>
<trkpt lat="46.1277490" lon="10.4708540">
	<ele>2479.60</ele>
	<time>2023-08-07T13:02:17.000Z</time>
</trkpt>
<trkpt lat="46.1277430" lon="10.4708500">
	<ele>2479.60</ele>
	<time>2023-08-07T13:02:18.000Z</time>
</trkpt>
<trkpt lat="46.1277370" lon="10.4708420">
	<ele>2479.60</ele>
	<time>2023-08-07T13:02:19.000Z</time>
</trkpt>
<trkpt lat="46.1277350" lon="10.4708350">
	<ele>2479.60</ele>
	<time>2023-08-07T13:02:20.000Z</time>
</trkpt>
<trkpt lat="46.1277390" lon="10.4708270">
	<ele>2479.20</ele>
	<time>2023-08-07T13:02:21.000Z</time>
</trkpt>
<trkpt lat="46.1277430" lon="10.4708240">
	<ele>2478.80</ele>
	<time>2023-08-07T13:02:22.000Z</time>
</trkpt>
<trkpt lat="46.1277480" lon="10.4708180">
	<ele>2478.60</ele>
	<time>2023-08-07T13:02:23.000Z</time>
</trkpt>
<trkpt lat="46.1277510" lon="10.4708130">
	<ele>2478.40</ele>
	<time>2023-08-07T13:02:24.000Z</time>
</trkpt>
<trkpt lat="46.1277570" lon="10.4708090">
	<ele>2478.00</ele>
	<time>2023-08-07T13:02:25.000Z</time>
</trkpt>
<trkpt lat="46.1277620" lon="10.4708030">
	<ele>2477.80</ele>
	<time>2023-08-07T13:02:26.000Z</time>
</trkpt>
<trkpt lat="46.1277640" lon="10.4708010">
	<ele>2477.60</ele>
	<time>2023-08-07T13:02:27.000Z</time>
</trkpt>
<trkpt lat="46.1277650" lon="10.4708000">
	<ele>2477.60</ele>
	<time>2023-08-07T13:02:28.000Z</time>
</trkpt>
<trkpt lat="46.1277650" lon="10.4707990">
	<ele>2477.60</ele>
	<time>2023-08-07T13:02:29.000Z</time>
</trkpt>
<trkpt lat="46.1277650" lon="10.4707940">
	<ele>2477.60</ele>
	<time>2023-08-07T13:02:30.000Z</time>
</trkpt>
<trkpt lat="46.1277630" lon="10.4707860">
	<ele>2477.40</ele>
	<time>2023-08-07T13:02:31.000Z</time>
</trkpt>
<trkpt lat="46.1277630" lon="10.4707750">
	<ele>2477.40</ele>
	<time>2023-08-07T13:02:32.000Z</time>
</trkpt>
<trkpt lat="46.1277630" lon="10.4707710">
	<ele>2477.20</ele>
	<time>2023-08-07T13:02:33.000Z</time>
</trkpt>
<trkpt lat="46.1277640" lon="10.4707640">
	<ele>2477.20</ele>
	<time>2023-08-07T13:02:34.000Z</time>
</trkpt>
<trkpt lat="46.1277600" lon="10.4707580">
	<ele>2477.00</ele>
	<time>2023-08-07T13:02:35.000Z</time>
</trkpt>
<trkpt lat="46.1277540" lon="10.4707520">
	<ele>2476.80</ele>
	<time>2023-08-07T13:02:36.000Z</time>
</trkpt>
<trkpt lat="46.1277500" lon="10.4707440">
	<ele>2476.60</ele>
	<time>2023-08-07T13:02:37.000Z</time>
</trkpt>
<trkpt lat="46.1277500" lon="10.4707360">
	<ele>2476.60</ele>
	<time>2023-08-07T13:02:38.000Z</time>
</trkpt>
<trkpt lat="46.1277490" lon="10.4707290">
	<ele>2476.40</ele>
	<time>2023-08-07T13:02:39.000Z</time>
</trkpt>
<trkpt lat="46.1277490" lon="10.4707220">
	<ele>2476.20</ele>
	<time>2023-08-07T13:02:40.000Z</time>
</trkpt>
<trkpt lat="46.1277470" lon="10.4707150">
	<ele>2476.00</ele>
	<time>2023-08-07T13:02:41.000Z</time>
</trkpt>
<trkpt lat="46.1277440" lon="10.4707110">
	<ele>2475.80</ele>
	<time>2023-08-07T13:02:42.000Z</time>
</trkpt>
<trkpt lat="46.1277360" lon="10.4707060">
	<ele>2475.60</ele>
	<time>2023-08-07T13:02:43.000Z</time>
</trkpt>
<trkpt lat="46.1277290" lon="10.4706990">
	<ele>2475.60</ele>
	<time>2023-08-07T13:02:44.000Z</time>
</trkpt>
<trkpt lat="46.1277280" lon="10.4706930">
	<ele>2475.40</ele>
	<time>2023-08-07T13:02:45.000Z</time>
</trkpt>
<trkpt lat="46.1277270" lon="10.4706870">
	<ele>2475.40</ele>
	<time>2023-08-07T13:02:46.000Z</time>
</trkpt>
<trkpt lat="46.1277250" lon="10.4706840">
	<ele>2475.20</ele>
	<time>2023-08-07T13:02:47.000Z</time>
</trkpt>
<trkpt lat="46.1277220" lon="10.4706800">
	<ele>2475.00</ele>
	<time>2023-08-07T13:02:48.000Z</time>
</trkpt>
<trkpt lat="46.1277170" lon="10.4706730">
	<ele>2474.80</ele>
	<time>2023-08-07T13:02:49.000Z</time>
</trkpt>
<trkpt lat="46.1277160" lon="10.4706640">
	<ele>2474.60</ele>
	<time>2023-08-07T13:02:50.000Z</time>
</trkpt>
<trkpt lat="46.1277170" lon="10.4706530">
	<ele>2474.60</ele>
	<time>2023-08-07T13:02:51.000Z</time>
</trkpt>
<trkpt lat="46.1277190" lon="10.4706360">
	<ele>2474.40</ele>
	<time>2023-08-07T13:02:52.000Z</time>
</trkpt>
<trkpt lat="46.1277190" lon="10.4706260">
	<ele>2474.40</ele>
	<time>2023-08-07T13:02:53.000Z</time>
</trkpt>
<trkpt lat="46.1277190" lon="10.4706180">
	<ele>2474.40</ele>
	<time>2023-08-07T13:02:54.000Z</time>
</trkpt>
<trkpt lat="46.1277210" lon="10.4706100">
	<ele>2474.20</ele>
	<time>2023-08-07T13:02:55.000Z</time>
</trkpt>
<trkpt lat="46.1277230" lon="10.4706040">
	<ele>2474.00</ele>
	<time>2023-08-07T13:02:56.000Z</time>
</trkpt>
<trkpt lat="46.1277220" lon="10.4705940">
	<ele>2473.60</ele>
	<time>2023-08-07T13:02:57.000Z</time>
</trkpt>
<trkpt lat="46.1277220" lon="10.4705860">
	<ele>2473.40</ele>
	<time>2023-08-07T13:02:58.000Z</time>
</trkpt>
<trkpt lat="46.1277240" lon="10.4705760">
	<ele>2473.20</ele>
	<time>2023-08-07T13:02:59.000Z</time>
</trkpt>
<trkpt lat="46.1277260" lon="10.4705690">
	<ele>2473.00</ele>
	<time>2023-08-07T13:03:00.000Z</time>
</trkpt>
<trkpt lat="46.1277280" lon="10.4705600">
	<ele>2472.80</ele>
	<time>2023-08-07T13:03:01.000Z</time>
</trkpt>
<trkpt lat="46.1277310" lon="10.4705530">
	<ele>2472.80</ele>
	<time>2023-08-07T13:03:02.000Z</time>
</trkpt>
<trkpt lat="46.1277330" lon="10.4705480">
	<ele>2472.60</ele>
	<time>2023-08-07T13:03:03.000Z</time>
</trkpt>
<trkpt lat="46.1277380" lon="10.4705430">
	<ele>2472.60</ele>
	<time>2023-08-07T13:03:04.000Z</time>
</trkpt>
<trkpt lat="46.1277420" lon="10.4705390">
	<ele>2472.40</ele>
	<time>2023-08-07T13:03:05.000Z</time>
</trkpt>
<trkpt lat="46.1277440" lon="10.4705440">
	<ele>2472.20</ele>
	<time>2023-08-07T13:03:06.000Z</time>
</trkpt>
<trkpt lat="46.1277440" lon="10.4705420">
	<ele>2472.20</ele>
	<time>2023-08-07T13:03:07.000Z</time>
</trkpt>
<trkpt lat="46.1277440" lon="10.4705370">
	<ele>2471.80</ele>
	<time>2023-08-07T13:03:08.000Z</time>
</trkpt>
<trkpt lat="46.1277450" lon="10.4705320">
	<ele>2471.60</ele>
	<time>2023-08-07T13:03:09.000Z</time>
</trkpt>
<trkpt lat="46.1277460" lon="10.4705280">
	<ele>2471.40</ele>
	<time>2023-08-07T13:03:10.000Z</time>
</trkpt>
<trkpt lat="46.1277440" lon="10.4705240">
	<ele>2471.40</ele>
	<time>2023-08-07T13:03:11.000Z</time>
</trkpt>
<trkpt lat="46.1277430" lon="10.4705220">
	<ele>2471.40</ele>
	<time>2023-08-07T13:03:12.000Z</time>
</trkpt>
<trkpt lat="46.1277460" lon="10.4705220">
	<ele>2471.20</ele>
	<time>2023-08-07T13:03:13.000Z</time>
</trkpt>
<trkpt lat="46.1277460" lon="10.4705190">
	<ele>2471.00</ele>
	<time>2023-08-07T13:03:14.000Z</time>
</trkpt>
<trkpt lat="46.1277470" lon="10.4705120">
	<ele>2470.80</ele>
	<time>2023-08-07T13:03:15.000Z</time>
</trkpt>
<trkpt lat="46.1277490" lon="10.4705080">
	<ele>2470.00</ele>
	<time>2023-08-07T13:03:16.000Z</time>
</trkpt>
<trkpt lat="46.1277500" lon="10.4705050">
	<ele>2469.60</ele>
	<time>2023-08-07T13:03:17.000Z</time>
</trkpt>
<trkpt lat="46.1277520" lon="10.4705000">
	<ele>2469.20</ele>
	<time>2023-08-07T13:03:18.000Z</time>
</trkpt>
<trkpt lat="46.1277530" lon="10.4704940">
	<ele>2469.00</ele>
	<time>2023-08-07T13:03:19.000Z</time>
</trkpt>
<trkpt lat="46.1277550" lon="10.4704830">
	<ele>2468.80</ele>
	<time>2023-08-07T13:03:20.000Z</time>
</trkpt>
<trkpt lat="46.1277590" lon="10.4704770">
	<ele>2468.40</ele>
	<time>2023-08-07T13:03:21.000Z</time>
</trkpt>
<trkpt lat="46.1277610" lon="10.4704740">
	<ele>2468.20</ele>
	<time>2023-08-07T13:03:22.000Z</time>
</trkpt>
<trkpt lat="46.1277650" lon="10.4704700">
	<ele>2467.80</ele>
	<time>2023-08-07T13:03:23.000Z</time>
</trkpt>
<trkpt lat="46.1277670" lon="10.4704660">
	<ele>2467.80</ele>
	<time>2023-08-07T13:03:24.000Z</time>
</trkpt>
<trkpt lat="46.1277690" lon="10.4704610">
	<ele>2467.60</ele>
	<time>2023-08-07T13:03:25.000Z</time>
</trkpt>
<trkpt lat="46.1277720" lon="10.4704550">
	<ele>2467.60</ele>
	<time>2023-08-07T13:03:26.000Z</time>
</trkpt>
<trkpt lat="46.1277780" lon="10.4704520">
	<ele>2467.60</ele>
	<time>2023-08-07T13:03:27.000Z</time>
</trkpt>
<trkpt lat="46.1277830" lon="10.4704500">
	<ele>2467.60</ele>
	<time>2023-08-07T13:03:28.000Z</time>
</trkpt>
<trkpt lat="46.1277840" lon="10.4704470">
	<ele>2467.60</ele>
	<time>2023-08-07T13:03:29.000Z</time>
</trkpt>
<trkpt lat="46.1277860" lon="10.4704420">
	<ele>2467.60</ele>
	<time>2023-08-07T13:03:30.000Z</time>
</trkpt>
<trkpt lat="46.1277840" lon="10.4704380">
	<ele>2467.40</ele>
	<time>2023-08-07T13:03:31.000Z</time>
</trkpt>
<trkpt lat="46.1277830" lon="10.4704310">
	<ele>2467.40</ele>
	<time>2023-08-07T13:03:32.000Z</time>
</trkpt>
<trkpt lat="46.1277810" lon="10.4704220">
	<ele>2467.20</ele>
	<time>2023-08-07T13:03:33.000Z</time>
</trkpt>
<trkpt lat="46.1277830" lon="10.4704170">
	<ele>2466.80</ele>
	<time>2023-08-07T13:03:34.000Z</time>
</trkpt>
<trkpt lat="46.1277840" lon="10.4704080">
	<ele>2466.40</ele>
	<time>2023-08-07T13:03:35.000Z</time>
</trkpt>
<trkpt lat="46.1277840" lon="10.4704020">
	<ele>2466.00</ele>
	<time>2023-08-07T13:03:36.000Z</time>
</trkpt>
<trkpt lat="46.1277820" lon="10.4703950">
	<ele>2465.80</ele>
	<time>2023-08-07T13:03:37.000Z</time>
</trkpt>
<trkpt lat="46.1277880" lon="10.4703870">
	<ele>2465.60</ele>
	<time>2023-08-07T13:03:38.000Z</time>
</trkpt>
<trkpt lat="46.1277950" lon="10.4703870">
	<ele>2465.60</ele>
	<time>2023-08-07T13:03:39.000Z</time>
</trkpt>
<trkpt lat="46.1278020" lon="10.4703850">
	<ele>2465.20</ele>
	<time>2023-08-07T13:03:40.000Z</time>
</trkpt>
<trkpt lat="46.1278050" lon="10.4703820">
	<ele>2465.00</ele>
	<time>2023-08-07T13:03:41.000Z</time>
</trkpt>
<trkpt lat="46.1278080" lon="10.4703750">
	<ele>2465.00</ele>
	<time>2023-08-07T13:03:42.000Z</time>
</trkpt>
<trkpt lat="46.1278100" lon="10.4703700">
	<ele>2465.00</ele>
	<time>2023-08-07T13:03:43.000Z</time>
</trkpt>
<trkpt lat="46.1278110" lon="10.4703640">
	<ele>2465.00</ele>
	<time>2023-08-07T13:03:44.000Z</time>
</trkpt>
<trkpt lat="46.1278080" lon="10.4703590">
	<ele>2465.00</ele>
	<time>2023-08-07T13:03:45.000Z</time>
</trkpt>
<trkpt lat="46.1277980" lon="10.4703580">
	<ele>2465.20</ele>
	<time>2023-08-07T13:03:46.000Z</time>
</trkpt>
<trkpt lat="46.1277880" lon="10.4703560">
	<ele>2465.20</ele>
	<time>2023-08-07T13:03:47.000Z</time>
</trkpt>
<trkpt lat="46.1277850" lon="10.4703500">
	<ele>2465.00</ele>
	<time>2023-08-07T13:03:48.000Z</time>
</trkpt>
<trkpt lat="46.1277840" lon="10.4703450">
	<ele>2464.60</ele>
	<time>2023-08-07T13:03:49.000Z</time>
</trkpt>
<trkpt lat="46.1277860" lon="10.4703410">
	<ele>2464.40</ele>
	<time>2023-08-07T13:03:50.000Z</time>
</trkpt>
<trkpt lat="46.1277860" lon="10.4703380">
	<ele>2464.20</ele>
	<time>2023-08-07T13:03:51.000Z</time>
</trkpt>
<trkpt lat="46.1277890" lon="10.4703310">
	<ele>2464.00</ele>
	<time>2023-08-07T13:03:52.000Z</time>
</trkpt>
<trkpt lat="46.1277860" lon="10.4703230">
	<ele>2463.80</ele>
	<time>2023-08-07T13:03:53.000Z</time>
</trkpt>
<trkpt lat="46.1277830" lon="10.4703150">
	<ele>2463.60</ele>
	<time>2023-08-07T13:03:54.000Z</time>
</trkpt>
<trkpt lat="46.1277790" lon="10.4703080">
	<ele>2463.60</ele>
	<time>2023-08-07T13:03:55.000Z</time>
</trkpt>
<trkpt lat="46.1277750" lon="10.4703030">
	<ele>2463.60</ele>
	<time>2023-08-07T13:03:56.000Z</time>
</trkpt>
<trkpt lat="46.1277700" lon="10.4702960">
	<ele>2463.40</ele>
	<time>2023-08-07T13:03:57.000Z</time>
</trkpt>
<trkpt lat="46.1277690" lon="10.4702840">
	<ele>2463.00</ele>
	<time>2023-08-07T13:03:58.000Z</time>
</trkpt>
<trkpt lat="46.1277680" lon="10.4702750">
	<ele>2463.00</ele>
	<time>2023-08-07T13:03:59.000Z</time>
</trkpt>
<trkpt lat="46.1277700" lon="10.4702710">
	<ele>2462.40</ele>
	<time>2023-08-07T13:04:00.000Z</time>
</trkpt>
<trkpt lat="46.1277720" lon="10.4702690">
	<ele>2461.60</ele>
	<time>2023-08-07T13:04:01.000Z</time>
</trkpt>
<trkpt lat="46.1277730" lon="10.4702650">
	<ele>2461.20</ele>
	<time>2023-08-07T13:04:02.000Z</time>
</trkpt>
<trkpt lat="46.1277740" lon="10.4702590">
	<ele>2461.00</ele>
	<time>2023-08-07T13:04:03.000Z</time>
</trkpt>
<trkpt lat="46.1277760" lon="10.4702500">
	<ele>2460.80</ele>
	<time>2023-08-07T13:04:04.000Z</time>
</trkpt>
<trkpt lat="46.1277790" lon="10.4702420">
	<ele>2460.80</ele>
	<time>2023-08-07T13:04:05.000Z</time>
</trkpt>
<trkpt lat="46.1277810" lon="10.4702360">
	<ele>2460.80</ele>
	<time>2023-08-07T13:04:06.000Z</time>
</trkpt>
<trkpt lat="46.1277830" lon="10.4702320">
	<ele>2460.80</ele>
	<time>2023-08-07T13:04:07.000Z</time>
</trkpt>
<trkpt lat="46.1277830" lon="10.4702300">
	<ele>2461.00</ele>
	<time>2023-08-07T13:04:08.000Z</time>
</trkpt>
<trkpt lat="46.1277790" lon="10.4702300">
	<ele>2461.00</ele>
	<time>2023-08-07T13:04:09.000Z</time>
</trkpt>
<trkpt lat="46.1277760" lon="10.4702280">
	<ele>2461.00</ele>
	<time>2023-08-07T13:04:10.000Z</time>
</trkpt>
<trkpt lat="46.1277730" lon="10.4702280">
	<ele>2461.00</ele>
	<time>2023-08-07T13:04:11.000Z</time>
</trkpt>
<trkpt lat="46.1277690" lon="10.4702220">
	<ele>2461.00</ele>
	<time>2023-08-07T13:04:12.000Z</time>
</trkpt>
<trkpt lat="46.1277640" lon="10.4702160">
	<ele>2460.60</ele>
	<time>2023-08-07T13:04:13.000Z</time>
</trkpt>
<trkpt lat="46.1277600" lon="10.4702100">
	<ele>2460.40</ele>
	<time>2023-08-07T13:04:14.000Z</time>
</trkpt>
<trkpt lat="46.1277610" lon="10.4702050">
	<ele>2460.00</ele>
	<time>2023-08-07T13:04:15.000Z</time>
</trkpt>
<trkpt lat="46.1277630" lon="10.4701990">
	<ele>2459.40</ele>
	<time>2023-08-07T13:04:16.000Z</time>
</trkpt>
<trkpt lat="46.1277610" lon="10.4701940">
	<ele>2458.80</ele>
	<time>2023-08-07T13:04:17.000Z</time>
</trkpt>
<trkpt lat="46.1277620" lon="10.4701850">
	<ele>2458.60</ele>
	<time>2023-08-07T13:04:18.000Z</time>
</trkpt>
<trkpt lat="46.1277620" lon="10.4701770">
	<ele>2458.00</ele>
	<time>2023-08-07T13:04:19.000Z</time>
</trkpt>
<trkpt lat="46.1277640" lon="10.4701700">
	<ele>2457.60</ele>
	<time>2023-08-07T13:04:20.000Z</time>
</trkpt>
<trkpt lat="46.1277640" lon="10.4701640">
	<ele>2457.40</ele>
	<time>2023-08-07T13:04:21.000Z</time>
</trkpt>
<trkpt lat="46.1277670" lon="10.4701600">
	<ele>2457.40</ele>
	<time>2023-08-07T13:04:22.000Z</time>
</trkpt>
<trkpt lat="46.1277670" lon="10.4701560">
	<ele>2457.20</ele>
	<time>2023-08-07T13:04:23.000Z</time>
</trkpt>
<trkpt lat="46.1277660" lon="10.4701540">
	<ele>2457.20</ele>
	<time>2023-08-07T13:04:24.000Z</time>
</trkpt>
<trkpt lat="46.1277640" lon="10.4701500">
	<ele>2457.00</ele>
	<time>2023-08-07T13:04:25.000Z</time>
</trkpt>
<trkpt lat="46.1277630" lon="10.4701460">
	<ele>2456.80</ele>
	<time>2023-08-07T13:04:26.000Z</time>
</trkpt>
<trkpt lat="46.1277600" lon="10.4701410">
	<ele>2456.60</ele>
	<time>2023-08-07T13:04:27.000Z</time>
</trkpt>
<trkpt lat="46.1277560" lon="10.4701370">
	<ele>2456.20</ele>
	<time>2023-08-07T13:04:28.000Z</time>
</trkpt>
<trkpt lat="46.1277530" lon="10.4701340">
	<ele>2455.80</ele>
	<time>2023-08-07T13:04:29.000Z</time>
</trkpt>
<trkpt lat="46.1277520" lon="10.4701300">
	<ele>2455.40</ele>
	<time>2023-08-07T13:04:30.000Z</time>
</trkpt>
<trkpt lat="46.1277530" lon="10.4701260">
	<ele>2455.00</ele>
	<time>2023-08-07T13:04:31.000Z</time>
</trkpt>
<trkpt lat="46.1277570" lon="10.4701240">
	<ele>2454.80</ele>
	<time>2023-08-07T13:04:32.000Z</time>
</trkpt>
<trkpt lat="46.1277570" lon="10.4701240">
	<ele>2454.80</ele>
	<time>2023-08-07T13:04:33.000Z</time>
</trkpt>
<trkpt lat="46.1277560" lon="10.4701200">
	<ele>2454.60</ele>
	<time>2023-08-07T13:04:34.000Z</time>
</trkpt>
<trkpt lat="46.1277570" lon="10.4701160">
	<ele>2454.20</ele>
	<time>2023-08-07T13:04:35.000Z</time>
</trkpt>
<trkpt lat="46.1277580" lon="10.4701150">
	<ele>2454.00</ele>
	<time>2023-08-07T13:04:36.000Z</time>
</trkpt>
<trkpt lat="46.1277580" lon="10.4701120">
	<ele>2454.00</ele>
	<time>2023-08-07T13:04:37.000Z</time>
</trkpt>
<trkpt lat="46.1277610" lon="10.4701050">
	<ele>2453.80</ele>
	<time>2023-08-07T13:04:38.000Z</time>
</trkpt>
<trkpt lat="46.1277610" lon="10.4700940">
	<ele>2453.80</ele>
	<time>2023-08-07T13:04:39.000Z</time>
</trkpt>
<trkpt lat="46.1277620" lon="10.4700950">
	<ele>2453.80</ele>
	<time>2023-08-07T13:04:40.000Z</time>
</trkpt>
<trkpt lat="46.1277630" lon="10.4700940">
	<ele>2453.80</ele>
	<time>2023-08-07T13:04:41.000Z</time>
</trkpt>
<trkpt lat="46.1277630" lon="10.4700880">
	<ele>2453.80</ele>
	<time>2023-08-07T13:04:42.000Z</time>
</trkpt>
<trkpt lat="46.1277630" lon="10.4700800">
	<ele>2453.60</ele>
	<time>2023-08-07T13:04:43.000Z</time>
</trkpt>
<trkpt lat="46.1277660" lon="10.4700750">
	<ele>2453.60</ele>
	<time>2023-08-07T13:04:44.000Z</time>
</trkpt>
<trkpt lat="46.1277680" lon="10.4700700">
	<ele>2453.40</ele>
	<time>2023-08-07T13:04:45.000Z</time>
</trkpt>
<trkpt lat="46.1277680" lon="10.4700680">
	<ele>2453.20</ele>
	<time>2023-08-07T13:04:46.000Z</time>
</trkpt>
<trkpt lat="46.1277690" lon="10.4700650">
	<ele>2453.00</ele>
	<time>2023-08-07T13:04:47.000Z</time>
</trkpt>
<trkpt lat="46.1277690" lon="10.4700600">
	<ele>2453.00</ele>
	<time>2023-08-07T13:04:48.000Z</time>
</trkpt>
<trkpt lat="46.1277680" lon="10.4700560">
	<ele>2453.00</ele>
	<time>2023-08-07T13:04:49.000Z</time>
</trkpt>
<trkpt lat="46.1277680" lon="10.4700540">
	<ele>2452.80</ele>
	<time>2023-08-07T13:04:50.000Z</time>
</trkpt>
<trkpt lat="46.1277640" lon="10.4700490">
	<ele>2452.80</ele>
	<time>2023-08-07T13:04:51.000Z</time>
</trkpt>
<trkpt lat="46.1277620" lon="10.4700420">
	<ele>2452.80</ele>
	<time>2023-08-07T13:04:52.000Z</time>
</trkpt>
<trkpt lat="46.1277610" lon="10.4700380">
	<ele>2452.80</ele>
	<time>2023-08-07T13:04:53.000Z</time>
</trkpt>
<trkpt lat="46.1277600" lon="10.4700370">
	<ele>2452.60</ele>
	<time>2023-08-07T13:04:54.000Z</time>
</trkpt>
<trkpt lat="46.1277590" lon="10.4700350">
	<ele>2452.60</ele>
	<time>2023-08-07T13:04:55.000Z</time>
</trkpt>
<trkpt lat="46.1277580" lon="10.4700350">
	<ele>2452.60</ele>
	<time>2023-08-07T13:04:56.000Z</time>
</trkpt>
<trkpt lat="46.1277570" lon="10.4700340">
	<ele>2452.60</ele>
	<time>2023-08-07T13:04:57.000Z</time>
</trkpt>
<trkpt lat="46.1277560" lon="10.4700340">
	<ele>2452.40</ele>
	<time>2023-08-07T13:04:58.000Z</time>
</trkpt>
<trkpt lat="46.1277540" lon="10.4700390">
	<ele>2452.40</ele>
	<time>2023-08-07T13:04:59.000Z</time>
</trkpt>
<trkpt lat="46.1277540" lon="10.4700410">
	<ele>2452.40</ele>
	<time>2023-08-07T13:05:00.000Z</time>
</trkpt>
<trkpt lat="46.1277540" lon="10.4700410">
	<ele>2452.20</ele>
	<time>2023-08-07T13:05:01.000Z</time>
</trkpt>
<trkpt lat="46.1277520" lon="10.4700410">
	<ele>2452.00</ele>
	<time>2023-08-07T13:05:02.000Z</time>
</trkpt>
<trkpt lat="46.1277490" lon="10.4700430">
	<ele>2451.80</ele>
	<time>2023-08-07T13:05:03.000Z</time>
</trkpt>
<trkpt lat="46.1277490" lon="10.4700410">
	<ele>2451.40</ele>
	<time>2023-08-07T13:05:04.000Z</time>
</trkpt>
<trkpt lat="46.1277440" lon="10.4700350">
	<ele>2451.20</ele>
	<time>2023-08-07T13:05:05.000Z</time>
</trkpt>
<trkpt lat="46.1277430" lon="10.4700310">
	<ele>2450.60</ele>
	<time>2023-08-07T13:05:06.000Z</time>
</trkpt>
<trkpt lat="46.1277430" lon="10.4700310">
	<ele>2450.20</ele>
	<time>2023-08-07T13:05:07.000Z</time>
</trkpt>
<trkpt lat="46.1277460" lon="10.4700280">
	<ele>2450.20</ele>
	<time>2023-08-07T13:05:08.000Z</time>
</trkpt>
<trkpt lat="46.1277480" lon="10.4700280">
	<ele>2450.00</ele>
	<time>2023-08-07T13:05:09.000Z</time>
</trkpt>
<trkpt lat="46.1277520" lon="10.4700190">
	<ele>2449.80</ele>
	<time>2023-08-07T13:05:10.000Z</time>
</trkpt>
<trkpt lat="46.1277550" lon="10.4700060">
	<ele>2449.60</ele>
	<time>2023-08-07T13:05:11.000Z</time>
</trkpt>
<trkpt lat="46.1277550" lon="10.4699970">
	<ele>2449.60</ele>
	<time>2023-08-07T13:05:12.000Z</time>
</trkpt>
<trkpt lat="46.1277510" lon="10.4699970">
	<ele>2449.40</ele>
	<time>2023-08-07T13:05:13.000Z</time>
</trkpt>
<trkpt lat="46.1277470" lon="10.4699930">
	<ele>2449.20</ele>
	<time>2023-08-07T13:05:14.000Z</time>
</trkpt>
<trkpt lat="46.1277470" lon="10.4699890">
	<ele>2449.00</ele>
	<time>2023-08-07T13:05:15.000Z</time>
</trkpt>
<trkpt lat="46.1277470" lon="10.4699820">
	<ele>2449.00</ele>
	<time>2023-08-07T13:05:16.000Z</time>
</trkpt>
<trkpt lat="46.1277460" lon="10.4699710">
	<ele>2449.00</ele>
	<time>2023-08-07T13:05:17.000Z</time>
</trkpt>
<trkpt lat="46.1277450" lon="10.4699600">
	<ele>2449.00</ele>
	<time>2023-08-07T13:05:18.000Z</time>
</trkpt>
<trkpt lat="46.1277440" lon="10.4699490">
	<ele>2448.80</ele>
	<time>2023-08-07T13:05:19.000Z</time>
</trkpt>
<trkpt lat="46.1277430" lon="10.4699440">
	<ele>2448.60</ele>
	<time>2023-08-07T13:05:20.000Z</time>
</trkpt>
<trkpt lat="46.1277380" lon="10.4699360">
	<ele>2448.40</ele>
	<time>2023-08-07T13:05:21.000Z</time>
</trkpt>
<trkpt lat="46.1277350" lon="10.4699310">
	<ele>2448.20</ele>
	<time>2023-08-07T13:05:22.000Z</time>
</trkpt>
<trkpt lat="46.1277390" lon="10.4699290">
	<ele>2448.00</ele>
	<time>2023-08-07T13:05:23.000Z</time>
</trkpt>
<trkpt lat="46.1277410" lon="10.4699240">
	<ele>2447.80</ele>
	<time>2023-08-07T13:05:24.000Z</time>
</trkpt>
<trkpt lat="46.1277460" lon="10.4699180">
	<ele>2447.60</ele>
	<time>2023-08-07T13:05:25.000Z</time>
</trkpt>
<trkpt lat="46.1277480" lon="10.4699150">
	<ele>2447.60</ele>
	<time>2023-08-07T13:05:26.000Z</time>
</trkpt>
<trkpt lat="46.1277510" lon="10.4699100">
	<ele>2447.40</ele>
	<time>2023-08-07T13:05:27.000Z</time>
</trkpt>
<trkpt lat="46.1277510" lon="10.4698990">
	<ele>2447.40</ele>
	<time>2023-08-07T13:05:28.000Z</time>
</trkpt>
<trkpt lat="46.1277520" lon="10.4698940">
	<ele>2447.40</ele>
	<time>2023-08-07T13:05:29.000Z</time>
</trkpt>
<trkpt lat="46.1277540" lon="10.4698860">
	<ele>2447.20</ele>
	<time>2023-08-07T13:05:30.000Z</time>
</trkpt>
<trkpt lat="46.1277530" lon="10.4698800">
	<ele>2446.80</ele>
	<time>2023-08-07T13:05:31.000Z</time>
</trkpt>
<trkpt lat="46.1277530" lon="10.4698730">
	<ele>2446.60</ele>
	<time>2023-08-07T13:05:32.000Z</time>
</trkpt>
<trkpt lat="46.1277520" lon="10.4698710">
	<ele>2446.60</ele>
	<time>2023-08-07T13:05:33.000Z</time>
</trkpt>
<trkpt lat="46.1277500" lon="10.4698730">
	<ele>2446.40</ele>
	<time>2023-08-07T13:05:34.000Z</time>
</trkpt>
<trkpt lat="46.1277480" lon="10.4698730">
	<ele>2446.40</ele>
	<time>2023-08-07T13:05:35.000Z</time>
</trkpt>
<trkpt lat="46.1277490" lon="10.4698770">
	<ele>2446.40</ele>
	<time>2023-08-07T13:05:36.000Z</time>
</trkpt>
<trkpt lat="46.1277510" lon="10.4698740">
	<ele>2446.40</ele>
	<time>2023-08-07T13:05:37.000Z</time>
</trkpt>
<trkpt lat="46.1277510" lon="10.4698690">
	<ele>2446.20</ele>
	<time>2023-08-07T13:05:38.000Z</time>
</trkpt>
<trkpt lat="46.1277510" lon="10.4698610">
	<ele>2446.00</ele>
	<time>2023-08-07T13:05:39.000Z</time>
</trkpt>
<trkpt lat="46.1277540" lon="10.4698560">
	<ele>2445.80</ele>
	<time>2023-08-07T13:05:40.000Z</time>
</trkpt>
<trkpt lat="46.1277600" lon="10.4698500">
	<ele>2445.60</ele>
	<time>2023-08-07T13:05:41.000Z</time>
</trkpt>
<trkpt lat="46.1277650" lon="10.4698420">
	<ele>2445.60</ele>
	<time>2023-08-07T13:05:42.000Z</time>
</trkpt>
<trkpt lat="46.1277680" lon="10.4698300">
	<ele>2445.60</ele>
	<time>2023-08-07T13:05:43.000Z</time>
</trkpt>
<trkpt lat="46.1277680" lon="10.4698220">
	<ele>2445.40</ele>
	<time>2023-08-07T13:05:44.000Z</time>
</trkpt>
<trkpt lat="46.1277710" lon="10.4698130">
	<ele>2445.20</ele>
	<time>2023-08-07T13:05:45.000Z</time>
</trkpt>
<trkpt lat="46.1277760" lon="10.4698070">
	<ele>2445.20</ele>
	<time>2023-08-07T13:05:46.000Z</time>
</trkpt>
<trkpt lat="46.1277830" lon="10.4697960">
	<ele>2445.00</ele>
	<time>2023-08-07T13:05:47.000Z</time>
</trkpt>
<trkpt lat="46.1277890" lon="10.4697880">
	<ele>2445.00</ele>
	<time>2023-08-07T13:05:48.000Z</time>
</trkpt>
<trkpt lat="46.1277920" lon="10.4697820">
	<ele>2444.80</ele>
	<time>2023-08-07T13:05:49.000Z</time>
</trkpt>
<trkpt lat="46.1277930" lon="10.4697770">
	<ele>2444.60</ele>
	<time>2023-08-07T13:05:50.000Z</time>
</trkpt>
<trkpt lat="46.1277960" lon="10.4697670">
	<ele>2444.40</ele>
	<time>2023-08-07T13:05:51.000Z</time>
</trkpt>
<trkpt lat="46.1277970" lon="10.4697580">
	<ele>2444.20</ele>
	<time>2023-08-07T13:05:52.000Z</time>
</trkpt>
<trkpt lat="46.1277970" lon="10.4697490">
	<ele>2444.20</ele>
	<time>2023-08-07T13:05:53.000Z</time>
</trkpt>
<trkpt lat="46.1277980" lon="10.4697370">
	<ele>2444.00</ele>
	<time>2023-08-07T13:05:54.000Z</time>
</trkpt>
<trkpt lat="46.1278000" lon="10.4697250">
	<ele>2444.00</ele>
	<time>2023-08-07T13:05:55.000Z</time>
</trkpt>
<trkpt lat="46.1278020" lon="10.4697160">
	<ele>2443.80</ele>
	<time>2023-08-07T13:05:56.000Z</time>
</trkpt>
<trkpt lat="46.1278070" lon="10.4697110">
	<ele>2443.20</ele>
	<time>2023-08-07T13:05:57.000Z</time>
</trkpt>
<trkpt lat="46.1278120" lon="10.4697040">
	<ele>2443.00</ele>
	<time>2023-08-07T13:05:58.000Z</time>
</trkpt>
<trkpt lat="46.1278150" lon="10.4696980">
	<ele>2442.80</ele>
	<time>2023-08-07T13:05:59.000Z</time>
</trkpt>
<trkpt lat="46.1278210" lon="10.4696960">
	<ele>2442.60</ele>
	<time>2023-08-07T13:06:00.000Z</time>
</trkpt>
<trkpt lat="46.1278300" lon="10.4696970">
	<ele>2442.40</ele>
	<time>2023-08-07T13:06:01.000Z</time>
</trkpt>
<trkpt lat="46.1278390" lon="10.4696930">
	<ele>2442.20</ele>
	<time>2023-08-07T13:06:02.000Z</time>
</trkpt>
<trkpt lat="46.1278400" lon="10.4696870">
	<ele>2442.20</ele>
	<time>2023-08-07T13:06:03.000Z</time>
</trkpt>
<trkpt lat="46.1278390" lon="10.4696810">
	<ele>2442.20</ele>
	<time>2023-08-07T13:06:04.000Z</time>
</trkpt>
<trkpt lat="46.1278430" lon="10.4696700">
	<ele>2442.00</ele>
	<time>2023-08-07T13:06:05.000Z</time>
</trkpt>
<trkpt lat="46.1278480" lon="10.4696650">
	<ele>2442.00</ele>
	<time>2023-08-07T13:06:06.000Z</time>
</trkpt>
<trkpt lat="46.1278530" lon="10.4696580">
	<ele>2442.00</ele>
	<time>2023-08-07T13:06:07.000Z</time>
</trkpt>
<trkpt lat="46.1278560" lon="10.4696550">
	<ele>2442.00</ele>
	<time>2023-08-07T13:06:08.000Z</time>
</trkpt>
<trkpt lat="46.1278580" lon="10.4696540">
	<ele>2442.00</ele>
	<time>2023-08-07T13:06:09.000Z</time>
</trkpt>
<trkpt lat="46.1278630" lon="10.4696530">
	<ele>2441.60</ele>
	<time>2023-08-07T13:06:10.000Z</time>
</trkpt>
<trkpt lat="46.1278660" lon="10.4696510">
	<ele>2441.40</ele>
	<time>2023-08-07T13:06:11.000Z</time>
</trkpt>
<trkpt lat="46.1278660" lon="10.4696500">
	<ele>2441.40</ele>
	<time>2023-08-07T13:06:12.000Z</time>
</trkpt>
<trkpt lat="46.1278670" lon="10.4696450">
	<ele>2441.40</ele>
	<time>2023-08-07T13:06:13.000Z</time>
</trkpt>
<trkpt lat="46.1278680" lon="10.4696410">
	<ele>2441.20</ele>
	<time>2023-08-07T13:06:14.000Z</time>
</trkpt>
<trkpt lat="46.1278700" lon="10.4696360">
	<ele>2441.00</ele>
	<time>2023-08-07T13:06:15.000Z</time>
</trkpt>
<trkpt lat="46.1278690" lon="10.4696330">
	<ele>2440.80</ele>
	<time>2023-08-07T13:06:16.000Z</time>
</trkpt>
<trkpt lat="46.1278670" lon="10.4696290">
	<ele>2440.80</ele>
	<time>2023-08-07T13:06:17.000Z</time>
</trkpt>
<trkpt lat="46.1278610" lon="10.4696240">
	<ele>2440.40</ele>
	<time>2023-08-07T13:06:18.000Z</time>
</trkpt>
<trkpt lat="46.1278600" lon="10.4696200">
	<ele>2440.20</ele>
	<time>2023-08-07T13:06:19.000Z</time>
</trkpt>
<trkpt lat="46.1278590" lon="10.4696170">
	<ele>2440.20</ele>
	<time>2023-08-07T13:06:20.000Z</time>
</trkpt>
<trkpt lat="46.1278590" lon="10.4696100">
	<ele>2440.00</ele>
	<time>2023-08-07T13:06:21.000Z</time>
</trkpt>
<trkpt lat="46.1278600" lon="10.4696050">
	<ele>2440.00</ele>
	<time>2023-08-07T13:06:22.000Z</time>
</trkpt>
<trkpt lat="46.1278610" lon="10.4695970">
	<ele>2439.80</ele>
	<time>2023-08-07T13:06:23.000Z</time>
</trkpt>
<trkpt lat="46.1278610" lon="10.4695920">
	<ele>2439.80</ele>
	<time>2023-08-07T13:06:24.000Z</time>
</trkpt>
<trkpt lat="46.1278620" lon="10.4695870">
	<ele>2439.80</ele>
	<time>2023-08-07T13:06:25.000Z</time>
</trkpt>
<trkpt lat="46.1278620" lon="10.4695810">
	<ele>2439.40</ele>
	<time>2023-08-07T13:06:26.000Z</time>
</trkpt>
<trkpt lat="46.1278630" lon="10.4695730">
	<ele>2439.00</ele>
	<time>2023-08-07T13:06:27.000Z</time>
</trkpt>
<trkpt lat="46.1278660" lon="10.4695660">
	<ele>2438.80</ele>
	<time>2023-08-07T13:06:28.000Z</time>
</trkpt>
<trkpt lat="46.1278690" lon="10.4695670">
	<ele>2438.80</ele>
	<time>2023-08-07T13:06:29.000Z</time>
</trkpt>
<trkpt lat="46.1278700" lon="10.4695640">
	<ele>2438.60</ele>
	<time>2023-08-07T13:06:30.000Z</time>
</trkpt>
<trkpt lat="46.1278730" lon="10.4695610">
	<ele>2438.60</ele>
	<time>2023-08-07T13:06:31.000Z</time>
</trkpt>
<trkpt lat="46.1278760" lon="10.4695550">
	<ele>2438.60</ele>
	<time>2023-08-07T13:06:32.000Z</time>
</trkpt>
<trkpt lat="46.1278770" lon="10.4695510">
	<ele>2438.40</ele>
	<time>2023-08-07T13:06:33.000Z</time>
</trkpt>
<trkpt lat="46.1278770" lon="10.4695500">
	<ele>2438.40</ele>
	<time>2023-08-07T13:06:34.000Z</time>
</trkpt>
<trkpt lat="46.1278760" lon="10.4695500">
	<ele>2438.40</ele>
	<time>2023-08-07T13:06:35.000Z</time>
</trkpt>
<trkpt lat="46.1278760" lon="10.4695500">
	<ele>2438.20</ele>
	<time>2023-08-07T13:06:36.000Z</time>
</trkpt>
<trkpt lat="46.1278760" lon="10.4695490">
	<ele>2438.20</ele>
	<time>2023-08-07T13:06:37.000Z</time>
</trkpt>
<trkpt lat="46.1278760" lon="10.4695490">
	<ele>2438.00</ele>
	<time>2023-08-07T13:06:38.000Z</time>
</trkpt>
<trkpt lat="46.1278760" lon="10.4695490">
	<ele>2437.80</ele>
	<time>2023-08-07T13:06:39.000Z</time>
</trkpt>
<trkpt lat="46.1278760" lon="10.4695490">
	<ele>2437.80</ele>
	<time>2023-08-07T13:06:40.000Z</time>
</trkpt>
<trkpt lat="46.1278760" lon="10.4695490">
	<ele>2437.80</ele>
	<time>2023-08-07T13:06:41.000Z</time>
</trkpt>
<trkpt lat="46.1278760" lon="10.4695490">
	<ele>2437.80</ele>
	<time>2023-08-07T13:06:42.000Z</time>
</trkpt>
<trkpt lat="46.1278760" lon="10.4695490">
	<ele>2437.80</ele>
	<time>2023-08-07T13:06:43.000Z</time>
</trkpt>
<trkpt lat="46.1278760" lon="10.4695490">
	<ele>2437.80</ele>
	<time>2023-08-07T13:06:44.000Z</time>
</trkpt>
<trkpt lat="46.1278760" lon="10.4695490">
	<ele>2437.60</ele>
	<time>2023-08-07T13:06:45.000Z</time>
</trkpt>
<trkpt lat="46.1278760" lon="10.4695500">
	<ele>2437.40</ele>
	<time>2023-08-07T13:06:46.000Z</time>
</trkpt>
<trkpt lat="46.1278760" lon="10.4695500">
	<ele>2437.40</ele>
	<time>2023-08-07T13:06:47.000Z</time>
</trkpt>
<trkpt lat="46.1278760" lon="10.4695500">
	<ele>2437.20</ele>
	<time>2023-08-07T13:06:48.000Z</time>
</trkpt>
<trkpt lat="46.1278760" lon="10.4695500">
	<ele>2437.00</ele>
	<time>2023-08-07T13:06:49.000Z</time>
</trkpt>
<trkpt lat="46.1278740" lon="10.4695510">
	<ele>2437.00</ele>
	<time>2023-08-07T13:06:50.000Z</time>
</trkpt>
<trkpt lat="46.1278730" lon="10.4695510">
	<ele>2436.80</ele>
	<time>2023-08-07T13:06:51.000Z</time>
</trkpt>
<trkpt lat="46.1278720" lon="10.4695510">
	<ele>2436.60</ele>
	<time>2023-08-07T13:06:52.000Z</time>
</trkpt>
<trkpt lat="46.1278700" lon="10.4695520">
	<ele>2436.40</ele>
	<time>2023-08-07T13:06:53.000Z</time>
</trkpt>
<trkpt lat="46.1278650" lon="10.4695540">
	<ele>2436.40</ele>
	<time>2023-08-07T13:06:54.000Z</time>
</trkpt>
<trkpt lat="46.1278570" lon="10.4695590">
	<ele>2436.20</ele>
	<time>2023-08-07T13:06:55.000Z</time>
</trkpt>
<trkpt lat="46.1278510" lon="10.4695630">
	<ele>2436.00</ele>
	<time>2023-08-07T13:06:56.000Z</time>
</trkpt>
<trkpt lat="46.1278440" lon="10.4695680">
	<ele>2436.00</ele>
	<time>2023-08-07T13:06:57.000Z</time>
</trkpt>
<trkpt lat="46.1278400" lon="10.4695670">
	<ele>2436.00</ele>
	<time>2023-08-07T13:06:58.000Z</time>
</trkpt>
<trkpt lat="46.1278340" lon="10.4695630">
	<ele>2435.80</ele>
	<time>2023-08-07T13:06:59.000Z</time>
</trkpt>
<trkpt lat="46.1278280" lon="10.4695580">
	<ele>2435.80</ele>
	<time>2023-08-07T13:07:00.000Z</time>
</trkpt>
<trkpt lat="46.1278210" lon="10.4695570">
	<ele>2435.60</ele>
	<time>2023-08-07T13:07:01.000Z</time>
</trkpt>
<trkpt lat="46.1278150" lon="10.4695520">
	<ele>2435.20</ele>
	<time>2023-08-07T13:07:02.000Z</time>
</trkpt>
<trkpt lat="46.1278140" lon="10.4695430">
	<ele>2435.20</ele>
	<time>2023-08-07T13:07:03.000Z</time>
</trkpt>
<trkpt lat="46.1278150" lon="10.4695400">
	<ele>2435.00</ele>
	<time>2023-08-07T13:07:04.000Z</time>
</trkpt>
<trkpt lat="46.1278140" lon="10.4695380">
	<ele>2434.80</ele>
	<time>2023-08-07T13:07:05.000Z</time>
</trkpt>
<trkpt lat="46.1278050" lon="10.4695310">
	<ele>2434.80</ele>
	<time>2023-08-07T13:07:06.000Z</time>
</trkpt>
<trkpt lat="46.1278060" lon="10.4695240">
	<ele>2434.60</ele>
	<time>2023-08-07T13:07:07.000Z</time>
</trkpt>
<trkpt lat="46.1278060" lon="10.4695200">
	<ele>2434.40</ele>
	<time>2023-08-07T13:07:08.000Z</time>
</trkpt>
<trkpt lat="46.1278050" lon="10.4695160">
	<ele>2433.80</ele>
	<time>2023-08-07T13:07:09.000Z</time>
</trkpt>
<trkpt lat="46.1278010" lon="10.4695120">
	<ele>2433.60</ele>
	<time>2023-08-07T13:07:10.000Z</time>
</trkpt>
<trkpt lat="46.1277940" lon="10.4695090">
	<ele>2433.40</ele>
	<time>2023-08-07T13:07:11.000Z</time>
</trkpt>
<trkpt lat="46.1277890" lon="10.4695080">
	<ele>2433.20</ele>
	<time>2023-08-07T13:07:12.000Z</time>
</trkpt>
<trkpt lat="46.1277860" lon="10.4695060">
	<ele>2433.00</ele>
	<time>2023-08-07T13:07:13.000Z</time>
</trkpt>
<trkpt lat="46.1277850" lon="10.4695020">
	<ele>2433.00</ele>
	<time>2023-08-07T13:07:14.000Z</time>
</trkpt>
<trkpt lat="46.1277850" lon="10.4694910">
	<ele>2432.80</ele>
	<time>2023-08-07T13:07:15.000Z</time>
</trkpt>
<trkpt lat="46.1277850" lon="10.4694770">
	<ele>2432.80</ele>
	<time>2023-08-07T13:07:16.000Z</time>
</trkpt>
<trkpt lat="46.1277830" lon="10.4694720">
	<ele>2432.40</ele>
	<time>2023-08-07T13:07:17.000Z</time>
</trkpt>
<trkpt lat="46.1277810" lon="10.4694720">
	<ele>2432.20</ele>
	<time>2023-08-07T13:07:18.000Z</time>
</trkpt>
<trkpt lat="46.1277830" lon="10.4694690">
	<ele>2432.00</ele>
	<time>2023-08-07T13:07:19.000Z</time>
</trkpt>
<trkpt lat="46.1277900" lon="10.4694660">
	<ele>2431.80</ele>
	<time>2023-08-07T13:07:20.000Z</time>
</trkpt>
<trkpt lat="46.1277900" lon="10.4694650">
	<ele>2431.80</ele>
	<time>2023-08-07T13:07:21.000Z</time>
</trkpt>
<trkpt lat="46.1277910" lon="10.4694580">
	<ele>2431.60</ele>
	<time>2023-08-07T13:07:22.000Z</time>
</trkpt>
<trkpt lat="46.1277860" lon="10.4694510">
	<ele>2431.60</ele>
	<time>2023-08-07T13:07:23.000Z</time>
</trkpt>
<trkpt lat="46.1277800" lon="10.4694430">
	<ele>2431.40</ele>
	<time>2023-08-07T13:07:24.000Z</time>
</trkpt>
<trkpt lat="46.1277770" lon="10.4694380">
	<ele>2431.20</ele>
	<time>2023-08-07T13:07:25.000Z</time>
</trkpt>
<trkpt lat="46.1277750" lon="10.4694350">
	<ele>2431.20</ele>
	<time>2023-08-07T13:07:26.000Z</time>
</trkpt>
<trkpt lat="46.1277710" lon="10.4694300">
	<ele>2431.00</ele>
	<time>2023-08-07T13:07:27.000Z</time>
</trkpt>
<trkpt lat="46.1277720" lon="10.4694190">
	<ele>2430.80</ele>
	<time>2023-08-07T13:07:28.000Z</time>
</trkpt>
<trkpt lat="46.1277750" lon="10.4694080">
	<ele>2430.80</ele>
	<time>2023-08-07T13:07:29.000Z</time>
</trkpt>
<trkpt lat="46.1277750" lon="10.4694000">
	<ele>2430.20</ele>
	<time>2023-08-07T13:07:30.000Z</time>
</trkpt>
<trkpt lat="46.1277770" lon="10.4693950">
	<ele>2430.00</ele>
	<time>2023-08-07T13:07:31.000Z</time>
</trkpt>
<trkpt lat="46.1277780" lon="10.4693880">
	<ele>2430.00</ele>
	<time>2023-08-07T13:07:32.000Z</time>
</trkpt>
<trkpt lat="46.1277790" lon="10.4693820">
	<ele>2429.80</ele>
	<time>2023-08-07T13:07:33.000Z</time>
</trkpt>
<trkpt lat="46.1277780" lon="10.4693750">
	<ele>2429.80</ele>
	<time>2023-08-07T13:07:34.000Z</time>
</trkpt>
<trkpt lat="46.1277750" lon="10.4693700">
	<ele>2429.80</ele>
	<time>2023-08-07T13:07:35.000Z</time>
</trkpt>
<trkpt lat="46.1277730" lon="10.4693610">
	<ele>2429.60</ele>
	<time>2023-08-07T13:07:36.000Z</time>
</trkpt>
<trkpt lat="46.1277720" lon="10.4693500">
	<ele>2429.60</ele>
	<time>2023-08-07T13:07:37.000Z</time>
</trkpt>
<trkpt lat="46.1277760" lon="10.4693390">
	<ele>2429.60</ele>
	<time>2023-08-07T13:07:38.000Z</time>
</trkpt>
<trkpt lat="46.1277790" lon="10.4693290">
	<ele>2429.40</ele>
	<time>2023-08-07T13:07:39.000Z</time>
</trkpt>
<trkpt lat="46.1277800" lon="10.4693200">
	<ele>2429.40</ele>
	<time>2023-08-07T13:07:40.000Z</time>
</trkpt>
<trkpt lat="46.1277780" lon="10.4693090">
	<ele>2429.40</ele>
	<time>2023-08-07T13:07:41.000Z</time>
</trkpt>
<trkpt lat="46.1277790" lon="10.4692990">
	<ele>2429.20</ele>
	<time>2023-08-07T13:07:42.000Z</time>
</trkpt>
<trkpt lat="46.1277790" lon="10.4692880">
	<ele>2429.00</ele>
	<time>2023-08-07T13:07:43.000Z</time>
</trkpt>
<trkpt lat="46.1277800" lon="10.4692780">
	<ele>2429.00</ele>
	<time>2023-08-07T13:07:44.000Z</time>
</trkpt>
<trkpt lat="46.1277820" lon="10.4692670">
	<ele>2428.80</ele>
	<time>2023-08-07T13:07:45.000Z</time>
</trkpt>
<trkpt lat="46.1277850" lon="10.4692580">
	<ele>2428.80</ele>
	<time>2023-08-07T13:07:46.000Z</time>
</trkpt>
<trkpt lat="46.1277830" lon="10.4692480">
	<ele>2428.40</ele>
	<time>2023-08-07T13:07:47.000Z</time>
</trkpt>
<trkpt lat="46.1277820" lon="10.4692410">
	<ele>2428.00</ele>
	<time>2023-08-07T13:07:48.000Z</time>
</trkpt>
<trkpt lat="46.1277830" lon="10.4692360">
	<ele>2427.80</ele>
	<time>2023-08-07T13:07:49.000Z</time>
</trkpt>
<trkpt lat="46.1277860" lon="10.4692310">
	<ele>2427.60</ele>
	<time>2023-08-07T13:07:50.000Z</time>
</trkpt>
<trkpt lat="46.1277860" lon="10.4692260">
	<ele>2427.40</ele>
	<time>2023-08-07T13:07:51.000Z</time>
</trkpt>
<trkpt lat="46.1277880" lon="10.4692220">
	<ele>2426.80</ele>
	<time>2023-08-07T13:07:52.000Z</time>
</trkpt>
<trkpt lat="46.1277900" lon="10.4692180">
	<ele>2426.40</ele>
	<time>2023-08-07T13:07:53.000Z</time>
</trkpt>
<trkpt lat="46.1277920" lon="10.4692110">
	<ele>2426.00</ele>
	<time>2023-08-07T13:07:54.000Z</time>
</trkpt>
<trkpt lat="46.1277890" lon="10.4692050">
	<ele>2425.80</ele>
	<time>2023-08-07T13:07:55.000Z</time>
</trkpt>
<trkpt lat="46.1277890" lon="10.4691970">
	<ele>2425.80</ele>
	<time>2023-08-07T13:07:56.000Z</time>
</trkpt>
<trkpt lat="46.1277900" lon="10.4691880">
	<ele>2425.60</ele>
	<time>2023-08-07T13:07:57.000Z</time>
</trkpt>
<trkpt lat="46.1277910" lon="10.4691780">
	<ele>2425.20</ele>
	<time>2023-08-07T13:07:58.000Z</time>
</trkpt>
<trkpt lat="46.1277940" lon="10.4691680">
	<ele>2425.00</ele>
	<time>2023-08-07T13:07:59.000Z</time>
</trkpt>
<trkpt lat="46.1277960" lon="10.4691630">
	<ele>2424.80</ele>
	<time>2023-08-07T13:08:00.000Z</time>
</trkpt>
<trkpt lat="46.1278000" lon="10.4691530">
	<ele>2424.60</ele>
	<time>2023-08-07T13:08:01.000Z</time>
</trkpt>
<trkpt lat="46.1278020" lon="10.4691490">
	<ele>2424.20</ele>
	<time>2023-08-07T13:08:02.000Z</time>
</trkpt>
<trkpt lat="46.1278030" lon="10.4691460">
	<ele>2423.80</ele>
	<time>2023-08-07T13:08:03.000Z</time>
</trkpt>
<trkpt lat="46.1278040" lon="10.4691440">
	<ele>2423.60</ele>
	<time>2023-08-07T13:08:04.000Z</time>
</trkpt>
<trkpt lat="46.1278080" lon="10.4691530">
	<ele>2423.60</ele>
	<time>2023-08-07T13:08:05.000Z</time>
</trkpt>
<trkpt lat="46.1278080" lon="10.4691510">
	<ele>2423.60</ele>
	<time>2023-08-07T13:08:06.000Z</time>
</trkpt>
<trkpt lat="46.1278080" lon="10.4691500">
	<ele>2423.60</ele>
	<time>2023-08-07T13:08:07.000Z</time>
</trkpt>
<trkpt lat="46.1278070" lon="10.4691490">
	<ele>2423.60</ele>
	<time>2023-08-07T13:08:08.000Z</time>
</trkpt>
<trkpt lat="46.1278050" lon="10.4691480">
	<ele>2423.60</ele>
	<time>2023-08-07T13:08:09.000Z</time>
</trkpt>
<trkpt lat="46.1278050" lon="10.4691470">
	<ele>2423.60</ele>
	<time>2023-08-07T13:08:10.000Z</time>
</trkpt>
<trkpt lat="46.1278050" lon="10.4691480">
	<ele>2423.60</ele>
	<time>2023-08-07T13:08:11.000Z</time>
</trkpt>
<trkpt lat="46.1278050" lon="10.4691480">
	<ele>2423.60</ele>
	<time>2023-08-07T13:08:12.000Z</time>
</trkpt>
<trkpt lat="46.1278050" lon="10.4691480">
	<ele>2423.40</ele>
	<time>2023-08-07T13:08:13.000Z</time>
</trkpt>
<trkpt lat="46.1278050" lon="10.4691480">
	<ele>2423.40</ele>
	<time>2023-08-07T13:08:14.000Z</time>
</trkpt>
<trkpt lat="46.1278050" lon="10.4691480">
	<ele>2423.20</ele>
	<time>2023-08-07T13:08:15.000Z</time>
</trkpt>
<trkpt lat="46.1278050" lon="10.4691480">
	<ele>2423.20</ele>
	<time>2023-08-07T13:08:16.000Z</time>
</trkpt>
<trkpt lat="46.1278050" lon="10.4691480">
	<ele>2423.20</ele>
	<time>2023-08-07T13:08:17.000Z</time>
</trkpt>
<trkpt lat="46.1278070" lon="10.4691440">
	<ele>2423.00</ele>
	<time>2023-08-07T13:08:18.000Z</time>
</trkpt>
<trkpt lat="46.1278130" lon="10.4691350">
	<ele>2423.00</ele>
	<time>2023-08-07T13:08:19.000Z</time>
</trkpt>
<trkpt lat="46.1278230" lon="10.4691200">
	<ele>2422.80</ele>
	<time>2023-08-07T13:08:20.000Z</time>
</trkpt>
<trkpt lat="46.1278310" lon="10.4691080">
	<ele>2422.80</ele>
	<time>2023-08-07T13:08:21.000Z</time>
</trkpt>
<trkpt lat="46.1278380" lon="10.4691030">
	<ele>2422.60</ele>
	<time>2023-08-07T13:08:22.000Z</time>
</trkpt>
<trkpt lat="46.1278420" lon="10.4690890">
	<ele>2422.40</ele>
	<time>2023-08-07T13:08:23.000Z</time>
</trkpt>
<trkpt lat="46.1278470" lon="10.4690760">
	<ele>2422.40</ele>
	<time>2023-08-07T13:08:24.000Z</time>
</trkpt>
<trkpt lat="46.1278510" lon="10.4690650">
	<ele>2422.20</ele>
	<time>2023-08-07T13:08:25.000Z</time>
</trkpt>
<trkpt lat="46.1278550" lon="10.4690560">
	<ele>2422.00</ele>
	<time>2023-08-07T13:08:26.000Z</time>
</trkpt>
<trkpt lat="46.1278580" lon="10.4690490">
	<ele>2421.80</ele>
	<time>2023-08-07T13:08:27.000Z</time>
</trkpt>
<trkpt lat="46.1278610" lon="10.4690450">
	<ele>2421.60</ele>
	<time>2023-08-07T13:08:28.000Z</time>
</trkpt>
<trkpt lat="46.1278600" lon="10.4690430">
	<ele>2421.60</ele>
	<time>2023-08-07T13:08:29.000Z</time>
</trkpt>
<trkpt lat="46.1278630" lon="10.4690370">
	<ele>2421.60</ele>
	<time>2023-08-07T13:08:30.000Z</time>
</trkpt>
<trkpt lat="46.1278670" lon="10.4690330">
	<ele>2421.60</ele>
	<time>2023-08-07T13:08:31.000Z</time>
</trkpt>
<trkpt lat="46.1278690" lon="10.4690260">
	<ele>2421.40</ele>
	<time>2023-08-07T13:08:32.000Z</time>
</trkpt>
<trkpt lat="46.1278680" lon="10.4690230">
	<ele>2421.20</ele>
	<time>2023-08-07T13:08:33.000Z</time>
</trkpt>
<trkpt lat="46.1278690" lon="10.4690210">
	<ele>2421.20</ele>
	<time>2023-08-07T13:08:34.000Z</time>
</trkpt>
<trkpt lat="46.1278690" lon="10.4690210">
	<ele>2421.00</ele>
	<time>2023-08-07T13:08:35.000Z</time>
</trkpt>
<trkpt lat="46.1278670" lon="10.4690190">
	<ele>2421.00</ele>
	<time>2023-08-07T13:08:36.000Z</time>
</trkpt>
<trkpt lat="46.1278670" lon="10.4690200">
	<ele>2421.00</ele>
	<time>2023-08-07T13:08:37.000Z</time>
</trkpt>
<trkpt lat="46.1278660" lon="10.4690190">
	<ele>2420.80</ele>
	<time>2023-08-07T13:08:38.000Z</time>
</trkpt>
<trkpt lat="46.1278640" lon="10.4690170">
	<ele>2420.80</ele>
	<time>2023-08-07T13:08:39.000Z</time>
</trkpt>
<trkpt lat="46.1278630" lon="10.4690150">
	<ele>2420.80</ele>
	<time>2023-08-07T13:08:40.000Z</time>
</trkpt>
<trkpt lat="46.1278630" lon="10.4690080">
	<ele>2420.60</ele>
	<time>2023-08-07T13:08:41.000Z</time>
</trkpt>
<trkpt lat="46.1278670" lon="10.4690010">
	<ele>2420.60</ele>
	<time>2023-08-07T13:08:42.000Z</time>
</trkpt>
<trkpt lat="46.1278700" lon="10.4689950">
	<ele>2420.40</ele>
	<time>2023-08-07T13:08:43.000Z</time>
</trkpt>
<trkpt lat="46.1278760" lon="10.4689910">
	<ele>2420.00</ele>
	<time>2023-08-07T13:08:44.000Z</time>
</trkpt>
<trkpt lat="46.1278780" lon="10.4689860">
	<ele>2419.60</ele>
	<time>2023-08-07T13:08:45.000Z</time>
</trkpt>
<trkpt lat="46.1278780" lon="10.4689830">
	<ele>2419.60</ele>
	<time>2023-08-07T13:08:46.000Z</time>
</trkpt>
<trkpt lat="46.1278780" lon="10.4689810">
	<ele>2419.60</ele>
	<time>2023-08-07T13:08:47.000Z</time>
</trkpt>
<trkpt lat="46.1278780" lon="10.4689810">
	<ele>2419.40</ele>
	<time>2023-08-07T13:08:48.000Z</time>
</trkpt>
<trkpt lat="46.1278780" lon="10.4689810">
	<ele>2419.40</ele>
	<time>2023-08-07T13:08:49.000Z</time>
</trkpt>
<trkpt lat="46.1278780" lon="10.4689810">
	<ele>2419.40</ele>
	<time>2023-08-07T13:08:50.000Z</time>
</trkpt>
<trkpt lat="46.1278780" lon="10.4689810">
	<ele>2419.40</ele>
	<time>2023-08-07T13:08:51.000Z</time>
</trkpt>
<trkpt lat="46.1278780" lon="10.4689810">
	<ele>2419.40</ele>
	<time>2023-08-07T13:08:52.000Z</time>
</trkpt>
<trkpt lat="46.1278780" lon="10.4689810">
	<ele>2419.40</ele>
	<time>2023-08-07T13:08:53.000Z</time>
</trkpt>
<trkpt lat="46.1278780" lon="10.4689810">
	<ele>2419.40</ele>
	<time>2023-08-07T13:08:54.000Z</time>
</trkpt>
<trkpt lat="46.1278780" lon="10.4689810">
	<ele>2419.40</ele>
	<time>2023-08-07T13:08:55.000Z</time>
</trkpt>
<trkpt lat="46.1278780" lon="10.4689810">
	<ele>2419.40</ele>
	<time>2023-08-07T13:08:56.000Z</time>
</trkpt>
<trkpt lat="46.1278780" lon="10.4689810">
	<ele>2419.00</ele>
	<time>2023-08-07T13:08:57.000Z</time>
</trkpt>
<trkpt lat="46.1278780" lon="10.4689810">
	<ele>2418.80</ele>
	<time>2023-08-07T13:08:58.000Z</time>
</trkpt>
<trkpt lat="46.1278780" lon="10.4689810">
	<ele>2418.80</ele>
	<time>2023-08-07T13:08:59.000Z</time>
</trkpt>
<trkpt lat="46.1278770" lon="10.4689810">
	<ele>2418.60</ele>
	<time>2023-08-07T13:09:00.000Z</time>
</trkpt>
<trkpt lat="46.1278770" lon="10.4689810">
	<ele>2418.60</ele>
	<time>2023-08-07T13:09:01.000Z</time>
</trkpt>
<trkpt lat="46.1278760" lon="10.4689810">
	<ele>2418.40</ele>
	<time>2023-08-07T13:09:02.000Z</time>
</trkpt>
<trkpt lat="46.1278760" lon="10.4689810">
	<ele>2418.00</ele>
	<time>2023-08-07T13:09:03.000Z</time>
</trkpt>
<trkpt lat="46.1278770" lon="10.4689740">
	<ele>2417.60</ele>
	<time>2023-08-07T13:09:04.000Z</time>
</trkpt>
<trkpt lat="46.1278770" lon="10.4689600">
	<ele>2417.40</ele>
	<time>2023-08-07T13:09:05.000Z</time>
</trkpt>
<trkpt lat="46.1278800" lon="10.4689480">
	<ele>2417.00</ele>
	<time>2023-08-07T13:09:06.000Z</time>
</trkpt>
<trkpt lat="46.1278790" lon="10.4689380">
	<ele>2416.80</ele>
	<time>2023-08-07T13:09:07.000Z</time>
</trkpt>
<trkpt lat="46.1278730" lon="10.4689230">
	<ele>2416.60</ele>
	<time>2023-08-07T13:09:08.000Z</time>
</trkpt>
<trkpt lat="46.1278690" lon="10.4689130">
	<ele>2416.60</ele>
	<time>2023-08-07T13:09:09.000Z</time>
</trkpt>
<trkpt lat="46.1278660" lon="10.4689020">
	<ele>2416.40</ele>
	<time>2023-08-07T13:09:10.000Z</time>
</trkpt>
<trkpt lat="46.1278660" lon="10.4688900">
	<ele>2416.40</ele>
	<time>2023-08-07T13:09:11.000Z</time>
</trkpt>
<trkpt lat="46.1278650" lon="10.4688790">
	<ele>2416.20</ele>
	<time>2023-08-07T13:09:12.000Z</time>
</trkpt>
<trkpt lat="46.1278640" lon="10.4688710">
	<ele>2416.00</ele>
	<time>2023-08-07T13:09:13.000Z</time>
</trkpt>
<trkpt lat="46.1278610" lon="10.4688670">
	<ele>2415.80</ele>
	<time>2023-08-07T13:09:14.000Z</time>
</trkpt>
<trkpt lat="46.1278640" lon="10.4688610">
	<ele>2415.60</ele>
	<time>2023-08-07T13:09:15.000Z</time>
</trkpt>
<trkpt lat="46.1278660" lon="10.4688570">
	<ele>2415.40</ele>
	<time>2023-08-07T13:09:16.000Z</time>
</trkpt>
<trkpt lat="46.1278640" lon="10.4688550">
	<ele>2415.20</ele>
	<time>2023-08-07T13:09:17.000Z</time>
</trkpt>
<trkpt lat="46.1278620" lon="10.4688530">
	<ele>2415.00</ele>
	<time>2023-08-07T13:09:18.000Z</time>
</trkpt>
<trkpt lat="46.1278590" lon="10.4688430">
	<ele>2415.00</ele>
	<time>2023-08-07T13:09:19.000Z</time>
</trkpt>
<trkpt lat="46.1278560" lon="10.4688310">
	<ele>2414.80</ele>
	<time>2023-08-07T13:09:20.000Z</time>
</trkpt>
<trkpt lat="46.1278580" lon="10.4688240">
	<ele>2414.60</ele>
	<time>2023-08-07T13:09:21.000Z</time>
</trkpt>
<trkpt lat="46.1278620" lon="10.4688190">
	<ele>2414.20</ele>
	<time>2023-08-07T13:09:22.000Z</time>
</trkpt>
<trkpt lat="46.1278630" lon="10.4688160">
	<ele>2413.80</ele>
	<time>2023-08-07T13:09:23.000Z</time>
</trkpt>
<trkpt lat="46.1278660" lon="10.4688140">
	<ele>2413.20</ele>
	<time>2023-08-07T13:09:24.000Z</time>
</trkpt>
<trkpt lat="46.1278680" lon="10.4688110">
	<ele>2412.80</ele>
	<time>2023-08-07T13:09:25.000Z</time>
</trkpt>
<trkpt lat="46.1278720" lon="10.4688060">
	<ele>2412.60</ele>
	<time>2023-08-07T13:09:26.000Z</time>
</trkpt>
<trkpt lat="46.1278720" lon="10.4688030">
	<ele>2412.40</ele>
	<time>2023-08-07T13:09:27.000Z</time>
</trkpt>
<trkpt lat="46.1278720" lon="10.4687970">
	<ele>2412.60</ele>
	<time>2023-08-07T13:09:28.000Z</time>
</trkpt>
<trkpt lat="46.1278730" lon="10.4687910">
	<ele>2412.20</ele>
	<time>2023-08-07T13:09:29.000Z</time>
</trkpt>
<trkpt lat="46.1278730" lon="10.4687850">
	<ele>2412.40</ele>
	<time>2023-08-07T13:09:30.000Z</time>
</trkpt>
<trkpt lat="46.1278710" lon="10.4687830">
	<ele>2412.40</ele>
	<time>2023-08-07T13:09:31.000Z</time>
</trkpt>
<trkpt lat="46.1278730" lon="10.4687850">
	<ele>2412.40</ele>
	<time>2023-08-07T13:09:32.000Z</time>
</trkpt>
<trkpt lat="46.1278730" lon="10.4687820">
	<ele>2412.20</ele>
	<time>2023-08-07T13:09:33.000Z</time>
</trkpt>
<trkpt lat="46.1278730" lon="10.4687760">
	<ele>2412.00</ele>
	<time>2023-08-07T13:09:34.000Z</time>
</trkpt>
<trkpt lat="46.1278730" lon="10.4687770">
	<ele>2411.80</ele>
	<time>2023-08-07T13:09:35.000Z</time>
</trkpt>
<trkpt lat="46.1278740" lon="10.4687790">
	<ele>2411.80</ele>
	<time>2023-08-07T13:09:36.000Z</time>
</trkpt>
<trkpt lat="46.1278740" lon="10.4687780">
	<ele>2411.80</ele>
	<time>2023-08-07T13:09:37.000Z</time>
</trkpt>
<trkpt lat="46.1278740" lon="10.4687780">
	<ele>2411.80</ele>
	<time>2023-08-07T13:09:38.000Z</time>
</trkpt>
<trkpt lat="46.1278740" lon="10.4687790">
	<ele>2411.80</ele>
	<time>2023-08-07T13:09:39.000Z</time>
</trkpt>
<trkpt lat="46.1278740" lon="10.4687790">
	<ele>2411.80</ele>
	<time>2023-08-07T13:09:40.000Z</time>
</trkpt>
<trkpt lat="46.1278740" lon="10.4687790">
	<ele>2411.80</ele>
	<time>2023-08-07T13:09:41.000Z</time>
</trkpt>
<trkpt lat="46.1278740" lon="10.4687790">
	<ele>2411.80</ele>
	<time>2023-08-07T13:09:42.000Z</time>
</trkpt>
<trkpt lat="46.1278740" lon="10.4687790">
	<ele>2411.60</ele>
	<time>2023-08-07T13:09:43.000Z</time>
</trkpt>
<trkpt lat="46.1278740" lon="10.4687790">
	<ele>2411.40</ele>
	<time>2023-08-07T13:09:44.000Z</time>
</trkpt>
<trkpt lat="46.1278740" lon="10.4687790">
	<ele>2411.20</ele>
	<time>2023-08-07T13:09:45.000Z</time>
</trkpt>
<trkpt lat="46.1278740" lon="10.4687790">
	<ele>2411.00</ele>
	<time>2023-08-07T13:09:46.000Z</time>
</trkpt>
<trkpt lat="46.1278740" lon="10.4687790">
	<ele>2410.80</ele>
	<time>2023-08-07T13:09:47.000Z</time>
</trkpt>
<trkpt lat="46.1278740" lon="10.4687790">
	<ele>2410.80</ele>
	<time>2023-08-07T13:09:48.000Z</time>
</trkpt>
<trkpt lat="46.1278740" lon="10.4687790">
	<ele>2410.80</ele>
	<time>2023-08-07T13:09:49.000Z</time>
</trkpt>
<trkpt lat="46.1278730" lon="10.4687790">
	<ele>2410.80</ele>
	<time>2023-08-07T13:09:50.000Z</time>
</trkpt>
<trkpt lat="46.1278730" lon="10.4687790">
	<ele>2410.80</ele>
	<time>2023-08-07T13:09:51.000Z</time>
</trkpt>
<trkpt lat="46.1278730" lon="10.4687790">
	<ele>2410.80</ele>
	<time>2023-08-07T13:09:52.000Z</time>
</trkpt>
<trkpt lat="46.1278730" lon="10.4687800">
	<ele>2410.80</ele>
	<time>2023-08-07T13:09:53.000Z</time>
</trkpt>
<trkpt lat="46.1278730" lon="10.4687820">
	<ele>2411.00</ele>
	<time>2023-08-07T13:09:54.000Z</time>
</trkpt>
<trkpt lat="46.1278730" lon="10.4687830">
	<ele>2411.00</ele>
	<time>2023-08-07T13:09:55.000Z</time>
</trkpt>
<trkpt lat="46.1278730" lon="10.4687850">
	<ele>2411.00</ele>
	<time>2023-08-07T13:09:56.000Z</time>
</trkpt>
<trkpt lat="46.1278730" lon="10.4687870">
	<ele>2411.00</ele>
	<time>2023-08-07T13:09:57.000Z</time>
</trkpt>
<trkpt lat="46.1278720" lon="10.4687910">
	<ele>2411.00</ele>
	<time>2023-08-07T13:09:58.000Z</time>
</trkpt>
<trkpt lat="46.1278680" lon="10.4687930">
	<ele>2411.00</ele>
	<time>2023-08-07T13:09:59.000Z</time>
</trkpt>
<trkpt lat="46.1278670" lon="10.4687940">
	<ele>2411.00</ele>
	<time>2023-08-07T13:10:00.000Z</time>
</trkpt>
<trkpt lat="46.1278670" lon="10.4687900">
	<ele>2411.00</ele>
	<time>2023-08-07T13:10:01.000Z</time>
</trkpt>
<trkpt lat="46.1278680" lon="10.4687890">
	<ele>2411.00</ele>
	<time>2023-08-07T13:10:02.000Z</time>
</trkpt>
<trkpt lat="46.1278720" lon="10.4687870">
	<ele>2411.00</ele>
	<time>2023-08-07T13:10:03.000Z</time>
</trkpt>
<trkpt lat="46.1278780" lon="10.4687870">
	<ele>2410.80</ele>
	<time>2023-08-07T13:10:04.000Z</time>
</trkpt>
<trkpt lat="46.1278810" lon="10.4687850">
	<ele>2410.60</ele>
	<time>2023-08-07T13:10:05.000Z</time>
</trkpt>
<trkpt lat="46.1278840" lon="10.4687860">
	<ele>2410.40</ele>
	<time>2023-08-07T13:10:06.000Z</time>
</trkpt>
<trkpt lat="46.1278850" lon="10.4687860">
	<ele>2410.20</ele>
	<time>2023-08-07T13:10:07.000Z</time>
</trkpt>
<trkpt lat="46.1278880" lon="10.4687820">
	<ele>2409.80</ele>
	<time>2023-08-07T13:10:08.000Z</time>
</trkpt>
<trkpt lat="46.1278870" lon="10.4687730">
	<ele>2409.80</ele>
	<time>2023-08-07T13:10:09.000Z</time>
</trkpt>
<trkpt lat="46.1278880" lon="10.4687700">
	<ele>2409.60</ele>
	<time>2023-08-07T13:10:10.000Z</time>
</trkpt>
<trkpt lat="46.1278870" lon="10.4687680">
	<ele>2409.60</ele>
	<time>2023-08-07T13:10:11.000Z</time>
</trkpt>
<trkpt lat="46.1278860" lon="10.4687630">
	<ele>2409.60</ele>
	<time>2023-08-07T13:10:12.000Z</time>
</trkpt>
<trkpt lat="46.1278830" lon="10.4687640">
	<ele>2409.60</ele>
	<time>2023-08-07T13:10:13.000Z</time>
</trkpt>
<trkpt lat="46.1278810" lon="10.4687570">
	<ele>2409.40</ele>
	<time>2023-08-07T13:10:14.000Z</time>
</trkpt>
<trkpt lat="46.1278750" lon="10.4687560">
	<ele>2409.40</ele>
	<time>2023-08-07T13:10:15.000Z</time>
</trkpt>
<trkpt lat="46.1278660" lon="10.4687510">
	<ele>2409.20</ele>
	<time>2023-08-07T13:10:16.000Z</time>
</trkpt>
<trkpt lat="46.1278600" lon="10.4687450">
	<ele>2409.00</ele>
	<time>2023-08-07T13:10:17.000Z</time>
</trkpt>
<trkpt lat="46.1278570" lon="10.4687370">
	<ele>2409.00</ele>
	<time>2023-08-07T13:10:18.000Z</time>
</trkpt>
<trkpt lat="46.1278580" lon="10.4687290">
	<ele>2408.80</ele>
	<time>2023-08-07T13:10:19.000Z</time>
</trkpt>
<trkpt lat="46.1278610" lon="10.4687190">
	<ele>2408.40</ele>
	<time>2023-08-07T13:10:20.000Z</time>
</trkpt>
<trkpt lat="46.1278650" lon="10.4687100">
	<ele>2408.20</ele>
	<time>2023-08-07T13:10:21.000Z</time>
</trkpt>
<trkpt lat="46.1278670" lon="10.4687030">
	<ele>2408.00</ele>
	<time>2023-08-07T13:10:22.000Z</time>
</trkpt>
<trkpt lat="46.1278720" lon="10.4687020">
	<ele>2407.80</ele>
	<time>2023-08-07T13:10:23.000Z</time>
</trkpt>
<trkpt lat="46.1278790" lon="10.4686920">
	<ele>2407.00</ele>
	<time>2023-08-07T13:10:24.000Z</time>
</trkpt>
<trkpt lat="46.1278840" lon="10.4686860">
	<ele>2406.40</ele>
	<time>2023-08-07T13:10:25.000Z</time>
</trkpt>
<trkpt lat="46.1278870" lon="10.4686840">
	<ele>2406.00</ele>
	<time>2023-08-07T13:10:26.000Z</time>
</trkpt>
<trkpt lat="46.1278860" lon="10.4686780">
	<ele>2405.80</ele>
	<time>2023-08-07T13:10:27.000Z</time>
</trkpt>
<trkpt lat="46.1278830" lon="10.4686700">
	<ele>2405.80</ele>
	<time>2023-08-07T13:10:28.000Z</time>
</trkpt>
<trkpt lat="46.1278820" lon="10.4686600">
	<ele>2405.60</ele>
	<time>2023-08-07T13:10:29.000Z</time>
</trkpt>
<trkpt lat="46.1278870" lon="10.4686520">
	<ele>2405.60</ele>
	<time>2023-08-07T13:10:30.000Z</time>
</trkpt>
<trkpt lat="46.1278920" lon="10.4686440">
	<ele>2405.40</ele>
	<time>2023-08-07T13:10:31.000Z</time>
</trkpt>
<trkpt lat="46.1278940" lon="10.4686400">
	<ele>2405.00</ele>
	<time>2023-08-07T13:10:32.000Z</time>
</trkpt>
<trkpt lat="46.1278940" lon="10.4686380">
	<ele>2405.00</ele>
	<time>2023-08-07T13:10:33.000Z</time>
</trkpt>
<trkpt lat="46.1278890" lon="10.4686420">
	<ele>2404.80</ele>
	<time>2023-08-07T13:10:34.000Z</time>
</trkpt>
<trkpt lat="46.1278920" lon="10.4686400">
	<ele>2404.60</ele>
	<time>2023-08-07T13:10:35.000Z</time>
</trkpt>
<trkpt lat="46.1278960" lon="10.4686420">
	<ele>2404.40</ele>
	<time>2023-08-07T13:10:36.000Z</time>
</trkpt>
<trkpt lat="46.1279010" lon="10.4686370">
	<ele>2404.40</ele>
	<time>2023-08-07T13:10:37.000Z</time>
</trkpt>
<trkpt lat="46.1279070" lon="10.4686300">
	<ele>2404.20</ele>
	<time>2023-08-07T13:10:38.000Z</time>
</trkpt>
<trkpt lat="46.1279070" lon="10.4686290">
	<ele>2404.00</ele>
	<time>2023-08-07T13:10:39.000Z</time>
</trkpt>
<trkpt lat="46.1279100" lon="10.4686320">
	<ele>2403.80</ele>
	<time>2023-08-07T13:10:40.000Z</time>
</trkpt>
<trkpt lat="46.1279130" lon="10.4686290">
	<ele>2403.80</ele>
	<time>2023-08-07T13:10:41.000Z</time>
</trkpt>
<trkpt lat="46.1279170" lon="10.4686270">
	<ele>2403.60</ele>
	<time>2023-08-07T13:10:42.000Z</time>
</trkpt>
<trkpt lat="46.1279190" lon="10.4686180">
	<ele>2403.60</ele>
	<time>2023-08-07T13:10:43.000Z</time>
</trkpt>
<trkpt lat="46.1279210" lon="10.4686100">
	<ele>2403.60</ele>
	<time>2023-08-07T13:10:44.000Z</time>
</trkpt>
<trkpt lat="46.1279250" lon="10.4686030">
	<ele>2403.40</ele>
	<time>2023-08-07T13:10:45.000Z</time>
</trkpt>
<trkpt lat="46.1279260" lon="10.4685970">
	<ele>2403.20</ele>
	<time>2023-08-07T13:10:46.000Z</time>
</trkpt>
<trkpt lat="46.1279270" lon="10.4685910">
	<ele>2403.00</ele>
	<time>2023-08-07T13:10:47.000Z</time>
</trkpt>
<trkpt lat="46.1279270" lon="10.4685880">
	<ele>2402.80</ele>
	<time>2023-08-07T13:10:48.000Z</time>
</trkpt>
<trkpt lat="46.1279280" lon="10.4685850">
	<ele>2402.40</ele>
	<time>2023-08-07T13:10:49.000Z</time>
</trkpt>
<trkpt lat="46.1279280" lon="10.4685810">
	<ele>2402.20</ele>
	<time>2023-08-07T13:10:50.000Z</time>
</trkpt>
<trkpt lat="46.1279280" lon="10.4685760">
	<ele>2401.80</ele>
	<time>2023-08-07T13:10:51.000Z</time>
</trkpt>
<trkpt lat="46.1279330" lon="10.4685640">
	<ele>2401.60</ele>
	<time>2023-08-07T13:10:52.000Z</time>
</trkpt>
<trkpt lat="46.1279370" lon="10.4685540">
	<ele>2401.60</ele>
	<time>2023-08-07T13:10:53.000Z</time>
</trkpt>
<trkpt lat="46.1279400" lon="10.4685490">
	<ele>2401.40</ele>
	<time>2023-08-07T13:10:54.000Z</time>
</trkpt>
<trkpt lat="46.1279390" lon="10.4685450">
	<ele>2401.40</ele>
	<time>2023-08-07T13:10:55.000Z</time>
</trkpt>
<trkpt lat="46.1279400" lon="10.4685390">
	<ele>2401.40</ele>
	<time>2023-08-07T13:10:56.000Z</time>
</trkpt>
<trkpt lat="46.1279400" lon="10.4685320">
	<ele>2401.20</ele>
	<time>2023-08-07T13:10:57.000Z</time>
</trkpt>
<trkpt lat="46.1279390" lon="10.4685250">
	<ele>2401.00</ele>
	<time>2023-08-07T13:10:58.000Z</time>
</trkpt>
<trkpt lat="46.1279380" lon="10.4685160">
	<ele>2400.80</ele>
	<time>2023-08-07T13:10:59.000Z</time>
</trkpt>
<trkpt lat="46.1279370" lon="10.4685110">
	<ele>2400.60</ele>
	<time>2023-08-07T13:11:00.000Z</time>
</trkpt>
<trkpt lat="46.1279300" lon="10.4685070">
	<ele>2400.60</ele>
	<time>2023-08-07T13:11:01.000Z</time>
</trkpt>
<trkpt lat="46.1279210" lon="10.4685020">
	<ele>2400.40</ele>
	<time>2023-08-07T13:11:02.000Z</time>
</trkpt>
<trkpt lat="46.1279140" lon="10.4684960">
	<ele>2400.40</ele>
	<time>2023-08-07T13:11:03.000Z</time>
</trkpt>
<trkpt lat="46.1279120" lon="10.4684890">
	<ele>2400.20</ele>
	<time>2023-08-07T13:11:04.000Z</time>
</trkpt>
<trkpt lat="46.1279100" lon="10.4684870">
	<ele>2400.00</ele>
	<time>2023-08-07T13:11:05.000Z</time>
</trkpt>
<trkpt lat="46.1279070" lon="10.4684840">
	<ele>2400.00</ele>
	<time>2023-08-07T13:11:06.000Z</time>
</trkpt>
<trkpt lat="46.1279060" lon="10.4684760">
	<ele>2399.80</ele>
	<time>2023-08-07T13:11:07.000Z</time>
</trkpt>
<trkpt lat="46.1279070" lon="10.4684710">
	<ele>2399.40</ele>
	<time>2023-08-07T13:11:08.000Z</time>
</trkpt>
<trkpt lat="46.1279100" lon="10.4684720">
	<ele>2398.80</ele>
	<time>2023-08-07T13:11:09.000Z</time>
</trkpt>
<trkpt lat="46.1279120" lon="10.4684710">
	<ele>2398.60</ele>
	<time>2023-08-07T13:11:10.000Z</time>
</trkpt>
<trkpt lat="46.1279190" lon="10.4684720">
	<ele>2398.00</ele>
	<time>2023-08-07T13:11:11.000Z</time>
</trkpt>
<trkpt lat="46.1279240" lon="10.4684790">
	<ele>2397.80</ele>
	<time>2023-08-07T13:11:12.000Z</time>
</trkpt>
<trkpt lat="46.1279260" lon="10.4684790">
	<ele>2397.60</ele>
	<time>2023-08-07T13:11:13.000Z</time>
</trkpt>
<trkpt lat="46.1279280" lon="10.4684760">
	<ele>2397.60</ele>
	<time>2023-08-07T13:11:14.000Z</time>
</trkpt>
<trkpt lat="46.1279330" lon="10.4684780">
	<ele>2397.60</ele>
	<time>2023-08-07T13:11:15.000Z</time>
</trkpt>
<trkpt lat="46.1279350" lon="10.4684780">
	<ele>2397.60</ele>
	<time>2023-08-07T13:11:16.000Z</time>
</trkpt>
<trkpt lat="46.1279430" lon="10.4684690">
	<ele>2397.40</ele>
	<time>2023-08-07T13:11:17.000Z</time>
</trkpt>
<trkpt lat="46.1279400" lon="10.4684670">
	<ele>2397.40</ele>
	<time>2023-08-07T13:11:18.000Z</time>
</trkpt>
<trkpt lat="46.1279410" lon="10.4684600">
	<ele>2397.40</ele>
	<time>2023-08-07T13:11:19.000Z</time>
</trkpt>
<trkpt lat="46.1279420" lon="10.4684550">
	<ele>2397.20</ele>
	<time>2023-08-07T13:11:20.000Z</time>
</trkpt>
<trkpt lat="46.1279400" lon="10.4684510">
	<ele>2396.80</ele>
	<time>2023-08-07T13:11:21.000Z</time>
</trkpt>
<trkpt lat="46.1279430" lon="10.4684460">
	<ele>2396.40</ele>
	<time>2023-08-07T13:11:22.000Z</time>
</trkpt>
<trkpt lat="46.1279510" lon="10.4684370">
	<ele>2396.20</ele>
	<time>2023-08-07T13:11:23.000Z</time>
</trkpt>
<trkpt lat="46.1279550" lon="10.4684210">
	<ele>2395.80</ele>
	<time>2023-08-07T13:11:24.000Z</time>
</trkpt>
<trkpt lat="46.1279590" lon="10.4684060">
	<ele>2395.80</ele>
	<time>2023-08-07T13:11:25.000Z</time>
</trkpt>
<trkpt lat="46.1279590" lon="10.4683990">
	<ele>2395.60</ele>
	<time>2023-08-07T13:11:26.000Z</time>
</trkpt>
<trkpt lat="46.1279600" lon="10.4683900">
	<ele>2395.60</ele>
	<time>2023-08-07T13:11:27.000Z</time>
</trkpt>
<trkpt lat="46.1279590" lon="10.4683810">
	<ele>2395.40</ele>
	<time>2023-08-07T13:11:28.000Z</time>
</trkpt>
<trkpt lat="46.1279550" lon="10.4683780">
	<ele>2395.40</ele>
	<time>2023-08-07T13:11:29.000Z</time>
</trkpt>
<trkpt lat="46.1279520" lon="10.4683730">
	<ele>2395.00</ele>
	<time>2023-08-07T13:11:30.000Z</time>
</trkpt>
<trkpt lat="46.1279510" lon="10.4683690">
	<ele>2394.80</ele>
	<time>2023-08-07T13:11:31.000Z</time>
</trkpt>
<trkpt lat="46.1279510" lon="10.4683620">
	<ele>2394.60</ele>
	<time>2023-08-07T13:11:32.000Z</time>
</trkpt>
<trkpt lat="46.1279540" lon="10.4683530">
	<ele>2394.40</ele>
	<time>2023-08-07T13:11:33.000Z</time>
</trkpt>
<trkpt lat="46.1279580" lon="10.4683490">
	<ele>2394.00</ele>
	<time>2023-08-07T13:11:34.000Z</time>
</trkpt>
<trkpt lat="46.1279630" lon="10.4683450">
	<ele>2393.60</ele>
	<time>2023-08-07T13:11:35.000Z</time>
</trkpt>
<trkpt lat="46.1279640" lon="10.4683440">
	<ele>2393.40</ele>
	<time>2023-08-07T13:11:36.000Z</time>
</trkpt>
<trkpt lat="46.1279610" lon="10.4683360">
	<ele>2393.20</ele>
	<time>2023-08-07T13:11:37.000Z</time>
</trkpt>
<trkpt lat="46.1279630" lon="10.4683270">
	<ele>2393.00</ele>
	<time>2023-08-07T13:11:38.000Z</time>
</trkpt>
<trkpt lat="46.1279670" lon="10.4683180">
	<ele>2393.00</ele>
	<time>2023-08-07T13:11:39.000Z</time>
</trkpt>
<trkpt lat="46.1279680" lon="10.4683080">
	<ele>2393.00</ele>
	<time>2023-08-07T13:11:40.000Z</time>
</trkpt>
<trkpt lat="46.1279690" lon="10.4682950">
	<ele>2392.60</ele>
	<time>2023-08-07T13:11:41.000Z</time>
</trkpt>
<trkpt lat="46.1279710" lon="10.4682830">
	<ele>2392.40</ele>
	<time>2023-08-07T13:11:42.000Z</time>
</trkpt>
<trkpt lat="46.1279700" lon="10.4682740">
	<ele>2392.00</ele>
	<time>2023-08-07T13:11:43.000Z</time>
</trkpt>
<trkpt lat="46.1279710" lon="10.4682680">
	<ele>2392.00</ele>
	<time>2023-08-07T13:11:44.000Z</time>
</trkpt>
<trkpt lat="46.1279700" lon="10.4682550">
	<ele>2391.80</ele>
	<time>2023-08-07T13:11:45.000Z</time>
</trkpt>
<trkpt lat="46.1279700" lon="10.4682490">
	<ele>2391.60</ele>
	<time>2023-08-07T13:11:46.000Z</time>
</trkpt>
<trkpt lat="46.1279720" lon="10.4682460">
	<ele>2391.60</ele>
	<time>2023-08-07T13:11:47.000Z</time>
</trkpt>
<trkpt lat="46.1279800" lon="10.4682340">
	<ele>2391.20</ele>
	<time>2023-08-07T13:11:48.000Z</time>
</trkpt>
<trkpt lat="46.1279850" lon="10.4682270">
	<ele>2390.80</ele>
	<time>2023-08-07T13:11:49.000Z</time>
</trkpt>
<trkpt lat="46.1279870" lon="10.4682200">
	<ele>2390.80</ele>
	<time>2023-08-07T13:11:50.000Z</time>
</trkpt>
<trkpt lat="46.1279890" lon="10.4682140">
	<ele>2390.40</ele>
	<time>2023-08-07T13:11:51.000Z</time>
</trkpt>
<trkpt lat="46.1279930" lon="10.4682080">
	<ele>2390.00</ele>
	<time>2023-08-07T13:11:52.000Z</time>
</trkpt>
<trkpt lat="46.1279930" lon="10.4681980">
	<ele>2389.80</ele>
	<time>2023-08-07T13:11:53.000Z</time>
</trkpt>
<trkpt lat="46.1279910" lon="10.4681890">
	<ele>2389.60</ele>
	<time>2023-08-07T13:11:54.000Z</time>
</trkpt>
<trkpt lat="46.1279890" lon="10.4681780">
	<ele>2389.40</ele>
	<time>2023-08-07T13:11:55.000Z</time>
</trkpt>
<trkpt lat="46.1279900" lon="10.4681790">
	<ele>2389.40</ele>
	<time>2023-08-07T13:11:56.000Z</time>
</trkpt>
<trkpt lat="46.1279980" lon="10.4681730">
	<ele>2389.20</ele>
	<time>2023-08-07T13:11:57.000Z</time>
</trkpt>
<trkpt lat="46.1280050" lon="10.4681630">
	<ele>2389.20</ele>
	<time>2023-08-07T13:11:58.000Z</time>
</trkpt>
<trkpt lat="46.1280080" lon="10.4681540">
	<ele>2389.00</ele>
	<time>2023-08-07T13:11:59.000Z</time>
</trkpt>
<trkpt lat="46.1280100" lon="10.4681480">
	<ele>2388.80</ele>
	<time>2023-08-07T13:12:00.000Z</time>
</trkpt>
<trkpt lat="46.1280110" lon="10.4681400">
	<ele>2388.60</ele>
	<time>2023-08-07T13:12:01.000Z</time>
</trkpt>
<trkpt lat="46.1280130" lon="10.4681350">
	<ele>2388.60</ele>
	<time>2023-08-07T13:12:02.000Z</time>
</trkpt>
<trkpt lat="46.1280110" lon="10.4681330">
	<ele>2388.40</ele>
	<time>2023-08-07T13:12:03.000Z</time>
</trkpt>
<trkpt lat="46.1280120" lon="10.4681320">
	<ele>2388.20</ele>
	<time>2023-08-07T13:12:04.000Z</time>
</trkpt>
<trkpt lat="46.1280120" lon="10.4681300">
	<ele>2388.20</ele>
	<time>2023-08-07T13:12:05.000Z</time>
</trkpt>
<trkpt lat="46.1280130" lon="10.4681350">
	<ele>2388.00</ele>
	<time>2023-08-07T13:12:06.000Z</time>
</trkpt>
<trkpt lat="46.1280090" lon="10.4681360">
	<ele>2387.80</ele>
	<time>2023-08-07T13:12:07.000Z</time>
</trkpt>
<trkpt lat="46.1280050" lon="10.4681430">
	<ele>2387.60</ele>
	<time>2023-08-07T13:12:08.000Z</time>
</trkpt>
<trkpt lat="46.1280050" lon="10.4681420">
	<ele>2387.20</ele>
	<time>2023-08-07T13:12:09.000Z</time>
</trkpt>
<trkpt lat="46.1280090" lon="10.4681360">
	<ele>2387.00</ele>
	<time>2023-08-07T13:12:10.000Z</time>
</trkpt>
<trkpt lat="46.1280150" lon="10.4681280">
	<ele>2386.80</ele>
	<time>2023-08-07T13:12:11.000Z</time>
</trkpt>
<trkpt lat="46.1280170" lon="10.4681240">
	<ele>2386.40</ele>
	<time>2023-08-07T13:12:12.000Z</time>
</trkpt>
<trkpt lat="46.1280170" lon="10.4681210">
	<ele>2386.00</ele>
	<time>2023-08-07T13:12:13.000Z</time>
</trkpt>
<trkpt lat="46.1280170" lon="10.4681180">
	<ele>2385.80</ele>
	<time>2023-08-07T13:12:14.000Z</time>
</trkpt>
<trkpt lat="46.1280210" lon="10.4681140">
	<ele>2385.60</ele>
	<time>2023-08-07T13:12:15.000Z</time>
</trkpt>
<trkpt lat="46.1280210" lon="10.4681050">
	<ele>2385.20</ele>
	<time>2023-08-07T13:12:16.000Z</time>
</trkpt>
<trkpt lat="46.1280230" lon="10.4680870">
	<ele>2384.80</ele>
	<time>2023-08-07T13:12:17.000Z</time>
</trkpt>
<trkpt lat="46.1280260" lon="10.4680690">
	<ele>2384.60</ele>
	<time>2023-08-07T13:12:18.000Z</time>
</trkpt>
<trkpt lat="46.1280280" lon="10.4680600">
	<ele>2384.60</ele>
	<time>2023-08-07T13:12:19.000Z</time>
</trkpt>
<trkpt lat="46.1280300" lon="10.4680540">
	<ele>2384.40</ele>
	<time>2023-08-07T13:12:20.000Z</time>
</trkpt>
<trkpt lat="46.1280340" lon="10.4680430">
	<ele>2384.20</ele>
	<time>2023-08-07T13:12:21.000Z</time>
</trkpt>
<trkpt lat="46.1280380" lon="10.4680310">
	<ele>2384.00</ele>
	<time>2023-08-07T13:12:22.000Z</time>
</trkpt>
<trkpt lat="46.1280410" lon="10.4680180">
	<ele>2384.00</ele>
	<time>2023-08-07T13:12:23.000Z</time>
</trkpt>
<trkpt lat="46.1280440" lon="10.4680130">
	<ele>2383.80</ele>
	<time>2023-08-07T13:12:24.000Z</time>
</trkpt>
<trkpt lat="46.1280430" lon="10.4680260">
	<ele>2383.80</ele>
	<time>2023-08-07T13:12:25.000Z</time>
</trkpt>
<trkpt lat="46.1280390" lon="10.4680320">
	<ele>2383.60</ele>
	<time>2023-08-07T13:12:26.000Z</time>
</trkpt>
<trkpt lat="46.1280360" lon="10.4680300">
	<ele>2383.60</ele>
	<time>2023-08-07T13:12:27.000Z</time>
</trkpt>
<trkpt lat="46.1280370" lon="10.4680260">
	<ele>2383.40</ele>
	<time>2023-08-07T13:12:28.000Z</time>
</trkpt>
<trkpt lat="46.1280370" lon="10.4680260">
	<ele>2383.40</ele>
	<time>2023-08-07T13:12:29.000Z</time>
</trkpt>
<trkpt lat="46.1280280" lon="10.4680300">
	<ele>2383.20</ele>
	<time>2023-08-07T13:12:30.000Z</time>
</trkpt>
<trkpt lat="46.1280280" lon="10.4680220">
	<ele>2383.00</ele>
	<time>2023-08-07T13:12:31.000Z</time>
</trkpt>
<trkpt lat="46.1280300" lon="10.4680170">
	<ele>2382.80</ele>
	<time>2023-08-07T13:12:32.000Z</time>
</trkpt>
<trkpt lat="46.1280320" lon="10.4680130">
	<ele>2382.60</ele>
	<time>2023-08-07T13:12:33.000Z</time>
</trkpt>
<trkpt lat="46.1280270" lon="10.4680100">
	<ele>2382.40</ele>
	<time>2023-08-07T13:12:34.000Z</time>
</trkpt>
<trkpt lat="46.1280270" lon="10.4680100">
	<ele>2382.20</ele>
	<time>2023-08-07T13:12:35.000Z</time>
</trkpt>
<trkpt lat="46.1280270" lon="10.4680080">
	<ele>2382.00</ele>
	<time>2023-08-07T13:12:36.000Z</time>
</trkpt>
<trkpt lat="46.1280290" lon="10.4680040">
	<ele>2381.80</ele>
	<time>2023-08-07T13:12:37.000Z</time>
</trkpt>
<trkpt lat="46.1280300" lon="10.4680000">
	<ele>2381.60</ele>
	<time>2023-08-07T13:12:38.000Z</time>
</trkpt>
<trkpt lat="46.1280300" lon="10.4680000">
	<ele>2381.40</ele>
	<time>2023-08-07T13:12:39.000Z</time>
</trkpt>
<trkpt lat="46.1280280" lon="10.4679870">
	<ele>2381.20</ele>
	<time>2023-08-07T13:12:40.000Z</time>
</trkpt>
<trkpt lat="46.1280270" lon="10.4679820">
	<ele>2381.20</ele>
	<time>2023-08-07T13:12:41.000Z</time>
</trkpt>
<trkpt lat="46.1280280" lon="10.4679760">
	<ele>2381.00</ele>
	<time>2023-08-07T13:12:42.000Z</time>
</trkpt>
<trkpt lat="46.1280280" lon="10.4679690">
	<ele>2381.00</ele>
	<time>2023-08-07T13:12:43.000Z</time>
</trkpt>
<trkpt lat="46.1280290" lon="10.4679620">
	<ele>2380.60</ele>
	<time>2023-08-07T13:12:44.000Z</time>
</trkpt>
<trkpt lat="46.1280310" lon="10.4679480">
	<ele>2380.40</ele>
	<time>2023-08-07T13:12:45.000Z</time>
</trkpt>
<trkpt lat="46.1280330" lon="10.4679490">
	<ele>2380.00</ele>
	<time>2023-08-07T13:12:46.000Z</time>
</trkpt>
<trkpt lat="46.1280320" lon="10.4679460">
	<ele>2379.80</ele>
	<time>2023-08-07T13:12:47.000Z</time>
</trkpt>
<trkpt lat="46.1280320" lon="10.4679430">
	<ele>2379.60</ele>
	<time>2023-08-07T13:12:48.000Z</time>
</trkpt>
<trkpt lat="46.1280310" lon="10.4679410">
	<ele>2379.40</ele>
	<time>2023-08-07T13:12:49.000Z</time>
</trkpt>
<trkpt lat="46.1280300" lon="10.4679360">
	<ele>2379.40</ele>
	<time>2023-08-07T13:12:50.000Z</time>
</trkpt>
<trkpt lat="46.1280290" lon="10.4679280">
	<ele>2379.20</ele>
	<time>2023-08-07T13:12:51.000Z</time>
</trkpt>
<trkpt lat="46.1280300" lon="10.4679220">
	<ele>2379.20</ele>
	<time>2023-08-07T13:12:52.000Z</time>
</trkpt>
<trkpt lat="46.1280350" lon="10.4679130">
	<ele>2379.20</ele>
	<time>2023-08-07T13:12:53.000Z</time>
</trkpt>
<trkpt lat="46.1280440" lon="10.4679010">
	<ele>2379.00</ele>
	<time>2023-08-07T13:12:54.000Z</time>
</trkpt>
<trkpt lat="46.1280500" lon="10.4678930">
	<ele>2378.80</ele>
	<time>2023-08-07T13:12:55.000Z</time>
</trkpt>
<trkpt lat="46.1280550" lon="10.4678890">
	<ele>2378.20</ele>
	<time>2023-08-07T13:12:56.000Z</time>
</trkpt>
<trkpt lat="46.1280570" lon="10.4678860">
	<ele>2377.80</ele>
	<time>2023-08-07T13:12:57.000Z</time>
</trkpt>
<trkpt lat="46.1280600" lon="10.4678740">
	<ele>2377.60</ele>
	<time>2023-08-07T13:12:58.000Z</time>
</trkpt>
<trkpt lat="46.1280620" lon="10.4678640">
	<ele>2377.60</ele>
	<time>2023-08-07T13:12:59.000Z</time>
</trkpt>
<trkpt lat="46.1280640" lon="10.4678560">
	<ele>2377.40</ele>
	<time>2023-08-07T13:13:00.000Z</time>
</trkpt>
<trkpt lat="46.1280640" lon="10.4678500">
	<ele>2377.40</ele>
	<time>2023-08-07T13:13:01.000Z</time>
</trkpt>
<trkpt lat="46.1280630" lon="10.4678490">
	<ele>2377.20</ele>
	<time>2023-08-07T13:13:02.000Z</time>
</trkpt>
<trkpt lat="46.1280580" lon="10.4678480">
	<ele>2377.00</ele>
	<time>2023-08-07T13:13:03.000Z</time>
</trkpt>
<trkpt lat="46.1280570" lon="10.4678440">
	<ele>2376.80</ele>
	<time>2023-08-07T13:13:04.000Z</time>
</trkpt>
<trkpt lat="46.1280580" lon="10.4678410">
	<ele>2376.60</ele>
	<time>2023-08-07T13:13:05.000Z</time>
</trkpt>
<trkpt lat="46.1280570" lon="10.4678310">
	<ele>2376.40</ele>
	<time>2023-08-07T13:13:06.000Z</time>
</trkpt>
<trkpt lat="46.1280630" lon="10.4678210">
	<ele>2376.20</ele>
	<time>2023-08-07T13:13:07.000Z</time>
</trkpt>
<trkpt lat="46.1280690" lon="10.4678220">
	<ele>2376.20</ele>
	<time>2023-08-07T13:13:08.000Z</time>
</trkpt>
<trkpt lat="46.1280710" lon="10.4678200">
	<ele>2376.00</ele>
	<time>2023-08-07T13:13:09.000Z</time>
</trkpt>
<trkpt lat="46.1280720" lon="10.4678320">
	<ele>2376.00</ele>
	<time>2023-08-07T13:13:10.000Z</time>
</trkpt>
<trkpt lat="46.1280710" lon="10.4678360">
	<ele>2375.80</ele>
	<time>2023-08-07T13:13:11.000Z</time>
</trkpt>
<trkpt lat="46.1280650" lon="10.4678400">
	<ele>2375.80</ele>
	<time>2023-08-07T13:13:12.000Z</time>
</trkpt>
<trkpt lat="46.1280640" lon="10.4678390">
	<ele>2375.60</ele>
	<time>2023-08-07T13:13:13.000Z</time>
</trkpt>
<trkpt lat="46.1280640" lon="10.4678330">
	<ele>2375.60</ele>
	<time>2023-08-07T13:13:14.000Z</time>
</trkpt>
<trkpt lat="46.1280640" lon="10.4678270">
	<ele>2375.40</ele>
	<time>2023-08-07T13:13:15.000Z</time>
</trkpt>
<trkpt lat="46.1280640" lon="10.4678220">
	<ele>2375.40</ele>
	<time>2023-08-07T13:13:16.000Z</time>
</trkpt>
<trkpt lat="46.1280680" lon="10.4678120">
	<ele>2375.00</ele>
	<time>2023-08-07T13:13:17.000Z</time>
</trkpt>
<trkpt lat="46.1280680" lon="10.4678050">
	<ele>2374.60</ele>
	<time>2023-08-07T13:13:18.000Z</time>
</trkpt>
<trkpt lat="46.1280650" lon="10.4678040">
	<ele>2374.40</ele>
	<time>2023-08-07T13:13:19.000Z</time>
</trkpt>
<trkpt lat="46.1280660" lon="10.4677980">
	<ele>2374.40</ele>
	<time>2023-08-07T13:13:20.000Z</time>
</trkpt>
<trkpt lat="46.1280670" lon="10.4677920">
	<ele>2374.20</ele>
	<time>2023-08-07T13:13:21.000Z</time>
</trkpt>
<trkpt lat="46.1280690" lon="10.4677860">
	<ele>2374.00</ele>
	<time>2023-08-07T13:13:22.000Z</time>
</trkpt>
<trkpt lat="46.1280730" lon="10.4677800">
	<ele>2373.80</ele>
	<time>2023-08-07T13:13:23.000Z</time>
</trkpt>
<trkpt lat="46.1280750" lon="10.4677760">
	<ele>2373.40</ele>
	<time>2023-08-07T13:13:24.000Z</time>
</trkpt>
<trkpt lat="46.1280770" lon="10.4677700">
	<ele>2373.20</ele>
	<time>2023-08-07T13:13:25.000Z</time>
</trkpt>
<trkpt lat="46.1280800" lon="10.4677660">
	<ele>2372.80</ele>
	<time>2023-08-07T13:13:26.000Z</time>
</trkpt>
<trkpt lat="46.1280850" lon="10.4677610">
	<ele>2372.40</ele>
	<time>2023-08-07T13:13:27.000Z</time>
</trkpt>
<trkpt lat="46.1280870" lon="10.4677530">
	<ele>2372.40</ele>
	<time>2023-08-07T13:13:28.000Z</time>
</trkpt>
<trkpt lat="46.1280880" lon="10.4677470">
	<ele>2372.20</ele>
	<time>2023-08-07T13:13:29.000Z</time>
</trkpt>
<trkpt lat="46.1280930" lon="10.4677410">
	<ele>2372.00</ele>
	<time>2023-08-07T13:13:30.000Z</time>
</trkpt>
<trkpt lat="46.1280960" lon="10.4677370">
	<ele>2371.80</ele>
	<time>2023-08-07T13:13:31.000Z</time>
</trkpt>
<trkpt lat="46.1281010" lon="10.4677290">
	<ele>2371.80</ele>
	<time>2023-08-07T13:13:32.000Z</time>
</trkpt>
<trkpt lat="46.1281040" lon="10.4677180">
	<ele>2371.60</ele>
	<time>2023-08-07T13:13:33.000Z</time>
</trkpt>
<trkpt lat="46.1281040" lon="10.4677100">
	<ele>2371.40</ele>
	<time>2023-08-07T13:13:34.000Z</time>
</trkpt>
<trkpt lat="46.1281030" lon="10.4677030">
	<ele>2371.40</ele>
	<time>2023-08-07T13:13:35.000Z</time>
</trkpt>
<trkpt lat="46.1281060" lon="10.4676980">
	<ele>2371.20</ele>
	<time>2023-08-07T13:13:36.000Z</time>
</trkpt>
<trkpt lat="46.1281060" lon="10.4676940">
	<ele>2371.00</ele>
	<time>2023-08-07T13:13:37.000Z</time>
</trkpt>
<trkpt lat="46.1281030" lon="10.4676910">
	<ele>2371.00</ele>
	<time>2023-08-07T13:13:38.000Z</time>
</trkpt>
<trkpt lat="46.1281000" lon="10.4676890">
	<ele>2370.80</ele>
	<time>2023-08-07T13:13:39.000Z</time>
</trkpt>
<trkpt lat="46.1280990" lon="10.4676820">
	<ele>2370.40</ele>
	<time>2023-08-07T13:13:40.000Z</time>
</trkpt>
<trkpt lat="46.1280980" lon="10.4676770">
	<ele>2370.20</ele>
	<time>2023-08-07T13:13:41.000Z</time>
</trkpt>
<trkpt lat="46.1280960" lon="10.4676730">
	<ele>2370.00</ele>
	<time>2023-08-07T13:13:42.000Z</time>
</trkpt>
<trkpt lat="46.1280960" lon="10.4676690">
	<ele>2369.80</ele>
	<time>2023-08-07T13:13:43.000Z</time>
</trkpt>
<trkpt lat="46.1280960" lon="10.4676600">
	<ele>2369.60</ele>
	<time>2023-08-07T13:13:44.000Z</time>
</trkpt>
<trkpt lat="46.1280990" lon="10.4676570">
	<ele>2369.40</ele>
	<time>2023-08-07T13:13:45.000Z</time>
</trkpt>
<trkpt lat="46.1281040" lon="10.4676530">
	<ele>2369.20</ele>
	<time>2023-08-07T13:13:46.000Z</time>
</trkpt>
<trkpt lat="46.1281070" lon="10.4676500">
	<ele>2368.80</ele>
	<time>2023-08-07T13:13:47.000Z</time>
</trkpt>
<trkpt lat="46.1281090" lon="10.4676470">
	<ele>2368.60</ele>
	<time>2023-08-07T13:13:48.000Z</time>
</trkpt>
<trkpt lat="46.1281100" lon="10.4676360">
	<ele>2368.60</ele>
	<time>2023-08-07T13:13:49.000Z</time>
</trkpt>
<trkpt lat="46.1281110" lon="10.4676260">
	<ele>2368.40</ele>
	<time>2023-08-07T13:13:50.000Z</time>
</trkpt>
<trkpt lat="46.1281130" lon="10.4676150">
	<ele>2368.40</ele>
	<time>2023-08-07T13:13:51.000Z</time>
</trkpt>
<trkpt lat="46.1281180" lon="10.4676050">
	<ele>2368.20</ele>
	<time>2023-08-07T13:13:52.000Z</time>
</trkpt>
<trkpt lat="46.1281270" lon="10.4676000">
	<ele>2368.00</ele>
	<time>2023-08-07T13:13:53.000Z</time>
</trkpt>
<trkpt lat="46.1281350" lon="10.4675990">
	<ele>2367.60</ele>
	<time>2023-08-07T13:13:54.000Z</time>
</trkpt>
<trkpt lat="46.1281380" lon="10.4676000">
	<ele>2367.40</ele>
	<time>2023-08-07T13:13:55.000Z</time>
</trkpt>
<trkpt lat="46.1281420" lon="10.4675980">
	<ele>2367.40</ele>
	<time>2023-08-07T13:13:56.000Z</time>
</trkpt>
<trkpt lat="46.1281460" lon="10.4675910">
	<ele>2367.20</ele>
	<time>2023-08-07T13:13:57.000Z</time>
</trkpt>
<trkpt lat="46.1281500" lon="10.4675830">
	<ele>2367.20</ele>
	<time>2023-08-07T13:13:58.000Z</time>
</trkpt>
<trkpt lat="46.1281510" lon="10.4675750">
	<ele>2367.00</ele>
	<time>2023-08-07T13:13:59.000Z</time>
</trkpt>
<trkpt lat="46.1281540" lon="10.4675660">
	<ele>2366.80</ele>
	<time>2023-08-07T13:14:00.000Z</time>
</trkpt>
<trkpt lat="46.1281560" lon="10.4675590">
	<ele>2366.60</ele>
	<time>2023-08-07T13:14:01.000Z</time>
</trkpt>
<trkpt lat="46.1281530" lon="10.4675530">
	<ele>2366.40</ele>
	<time>2023-08-07T13:14:02.000Z</time>
</trkpt>
<trkpt lat="46.1281500" lon="10.4675490">
	<ele>2366.00</ele>
	<time>2023-08-07T13:14:03.000Z</time>
</trkpt>
<trkpt lat="46.1281450" lon="10.4675490">
	<ele>2365.80</ele>
	<time>2023-08-07T13:14:04.000Z</time>
</trkpt>
<trkpt lat="46.1281400" lon="10.4675500">
	<ele>2365.60</ele>
	<time>2023-08-07T13:14:05.000Z</time>
</trkpt>
<trkpt lat="46.1281370" lon="10.4675480">
	<ele>2365.40</ele>
	<time>2023-08-07T13:14:06.000Z</time>
</trkpt>
<trkpt lat="46.1281340" lon="10.4675370">
	<ele>2365.40</ele>
	<time>2023-08-07T13:14:07.000Z</time>
</trkpt>
<trkpt lat="46.1281320" lon="10.4675300">
	<ele>2365.00</ele>
	<time>2023-08-07T13:14:08.000Z</time>
</trkpt>
<trkpt lat="46.1281350" lon="10.4675180">
	<ele>2365.00</ele>
	<time>2023-08-07T13:14:09.000Z</time>
</trkpt>
<trkpt lat="46.1281330" lon="10.4674980">
	<ele>2364.80</ele>
	<time>2023-08-07T13:14:10.000Z</time>
</trkpt>
<trkpt lat="46.1281310" lon="10.4674880">
	<ele>2364.80</ele>
	<time>2023-08-07T13:14:11.000Z</time>
</trkpt>
<trkpt lat="46.1281260" lon="10.4674810">
	<ele>2364.60</ele>
	<time>2023-08-07T13:14:12.000Z</time>
</trkpt>
<trkpt lat="46.1281230" lon="10.4674760">
	<ele>2364.40</ele>
	<time>2023-08-07T13:14:13.000Z</time>
</trkpt>
<trkpt lat="46.1281180" lon="10.4674700">
	<ele>2364.20</ele>
	<time>2023-08-07T13:14:14.000Z</time>
</trkpt>
<trkpt lat="46.1281150" lon="10.4674630">
	<ele>2364.00</ele>
	<time>2023-08-07T13:14:15.000Z</time>
</trkpt>
<trkpt lat="46.1281130" lon="10.4674570">
	<ele>2363.80</ele>
	<time>2023-08-07T13:14:16.000Z</time>
</trkpt>
<trkpt lat="46.1281130" lon="10.4674520">
	<ele>2363.60</ele>
	<time>2023-08-07T13:14:17.000Z</time>
</trkpt>
<trkpt lat="46.1281110" lon="10.4674470">
	<ele>2363.40</ele>
	<time>2023-08-07T13:14:18.000Z</time>
</trkpt>
<trkpt lat="46.1281100" lon="10.4674480">
	<ele>2363.20</ele>
	<time>2023-08-07T13:14:19.000Z</time>
</trkpt>
<trkpt lat="46.1281100" lon="10.4674410">
	<ele>2363.20</ele>
	<time>2023-08-07T13:14:20.000Z</time>
</trkpt>
<trkpt lat="46.1281080" lon="10.4674400">
	<ele>2362.80</ele>
	<time>2023-08-07T13:14:21.000Z</time>
</trkpt>
<trkpt lat="46.1281090" lon="10.4674350">
	<ele>2362.60</ele>
	<time>2023-08-07T13:14:22.000Z</time>
</trkpt>
<trkpt lat="46.1281100" lon="10.4674280">
	<ele>2362.40</ele>
	<time>2023-08-07T13:14:23.000Z</time>
</trkpt>
<trkpt lat="46.1281090" lon="10.4674210">
	<ele>2362.20</ele>
	<time>2023-08-07T13:14:24.000Z</time>
</trkpt>
<trkpt lat="46.1281120" lon="10.4674130">
	<ele>2362.00</ele>
	<time>2023-08-07T13:14:25.000Z</time>
</trkpt>
<trkpt lat="46.1281150" lon="10.4674020">
	<ele>2361.80</ele>
	<time>2023-08-07T13:14:26.000Z</time>
</trkpt>
<trkpt lat="46.1281180" lon="10.4673970">
	<ele>2361.60</ele>
	<time>2023-08-07T13:14:27.000Z</time>
</trkpt>
<trkpt lat="46.1281260" lon="10.4673920">
	<ele>2361.40</ele>
	<time>2023-08-07T13:14:28.000Z</time>
</trkpt>
<trkpt lat="46.1281300" lon="10.4673920">
	<ele>2361.40</ele>
	<time>2023-08-07T13:14:29.000Z</time>
</trkpt>
<trkpt lat="46.1281330" lon="10.4673900">
	<ele>2361.20</ele>
	<time>2023-08-07T13:14:30.000Z</time>
</trkpt>
<trkpt lat="46.1281350" lon="10.4673870">
	<ele>2361.00</ele>
	<time>2023-08-07T13:14:31.000Z</time>
</trkpt>
<trkpt lat="46.1281340" lon="10.4673850">
	<ele>2360.60</ele>
	<time>2023-08-07T13:14:32.000Z</time>
</trkpt>
<trkpt lat="46.1281410" lon="10.4673800">
	<ele>2360.40</ele>
	<time>2023-08-07T13:14:33.000Z</time>
</trkpt>
<trkpt lat="46.1281420" lon="10.4673750">
	<ele>2360.20</ele>
	<time>2023-08-07T13:14:34.000Z</time>
</trkpt>
<trkpt lat="46.1281490" lon="10.4673700">
	<ele>2360.20</ele>
	<time>2023-08-07T13:14:35.000Z</time>
</trkpt>
<trkpt lat="46.1281500" lon="10.4673650">
	<ele>2360.00</ele>
	<time>2023-08-07T13:14:36.000Z</time>
</trkpt>
<trkpt lat="46.1281520" lon="10.4673630">
	<ele>2359.80</ele>
	<time>2023-08-07T13:14:37.000Z</time>
</trkpt>
<trkpt lat="46.1281540" lon="10.4673550">
	<ele>2359.60</ele>
	<time>2023-08-07T13:14:38.000Z</time>
</trkpt>
<trkpt lat="46.1281550" lon="10.4673540">
	<ele>2359.40</ele>
	<time>2023-08-07T13:14:39.000Z</time>
</trkpt>
<trkpt lat="46.1281560" lon="10.4673540">
	<ele>2359.20</ele>
	<time>2023-08-07T13:14:40.000Z</time>
</trkpt>
<trkpt lat="46.1281590" lon="10.4673510">
	<ele>2359.20</ele>
	<time>2023-08-07T13:14:41.000Z</time>
</trkpt>
<trkpt lat="46.1281620" lon="10.4673480">
	<ele>2359.00</ele>
	<time>2023-08-07T13:14:42.000Z</time>
</trkpt>
<trkpt lat="46.1281670" lon="10.4673450">
	<ele>2358.80</ele>
	<time>2023-08-07T13:14:43.000Z</time>
</trkpt>
<trkpt lat="46.1281700" lon="10.4673400">
	<ele>2358.60</ele>
	<time>2023-08-07T13:14:44.000Z</time>
</trkpt>
<trkpt lat="46.1281720" lon="10.4673360">
	<ele>2358.20</ele>
	<time>2023-08-07T13:14:45.000Z</time>
</trkpt>
<trkpt lat="46.1281750" lon="10.4673320">
	<ele>2358.20</ele>
	<time>2023-08-07T13:14:46.000Z</time>
</trkpt>
<trkpt lat="46.1281760" lon="10.4673280">
	<ele>2358.00</ele>
	<time>2023-08-07T13:14:47.000Z</time>
</trkpt>
<trkpt lat="46.1281790" lon="10.4673250">
	<ele>2357.60</ele>
	<time>2023-08-07T13:14:48.000Z</time>
</trkpt>
<trkpt lat="46.1281830" lon="10.4673240">
	<ele>2357.40</ele>
	<time>2023-08-07T13:14:49.000Z</time>
</trkpt>
<trkpt lat="46.1281830" lon="10.4673230">
	<ele>2357.20</ele>
	<time>2023-08-07T13:14:50.000Z</time>
</trkpt>
<trkpt lat="46.1281820" lon="10.4673230">
	<ele>2357.20</ele>
	<time>2023-08-07T13:14:51.000Z</time>
</trkpt>
<trkpt lat="46.1281810" lon="10.4673180">
	<ele>2357.00</ele>
	<time>2023-08-07T13:14:52.000Z</time>
</trkpt>
<trkpt lat="46.1281810" lon="10.4673160">
	<ele>2356.80</ele>
	<time>2023-08-07T13:14:53.000Z</time>
</trkpt>
<trkpt lat="46.1281830" lon="10.4673130">
	<ele>2356.80</ele>
	<time>2023-08-07T13:14:54.000Z</time>
</trkpt>
<trkpt lat="46.1281830" lon="10.4673100">
	<ele>2356.60</ele>
	<time>2023-08-07T13:14:55.000Z</time>
</trkpt>
<trkpt lat="46.1281820" lon="10.4673110">
	<ele>2356.60</ele>
	<time>2023-08-07T13:14:56.000Z</time>
</trkpt>
<trkpt lat="46.1281770" lon="10.4673090">
	<ele>2356.60</ele>
	<time>2023-08-07T13:14:57.000Z</time>
</trkpt>
<trkpt lat="46.1281720" lon="10.4673070">
	<ele>2356.40</ele>
	<time>2023-08-07T13:14:58.000Z</time>
</trkpt>
<trkpt lat="46.1281750" lon="10.4673040">
	<ele>2356.20</ele>
	<time>2023-08-07T13:14:59.000Z</time>
</trkpt>
<trkpt lat="46.1281800" lon="10.4672960">
	<ele>2356.20</ele>
	<time>2023-08-07T13:15:00.000Z</time>
</trkpt>
<trkpt lat="46.1281810" lon="10.4672900">
	<ele>2356.00</ele>
	<time>2023-08-07T13:15:01.000Z</time>
</trkpt>
<trkpt lat="46.1281790" lon="10.4672880">
	<ele>2356.00</ele>
	<time>2023-08-07T13:15:02.000Z</time>
</trkpt>
<trkpt lat="46.1281760" lon="10.4672860">
	<ele>2355.80</ele>
	<time>2023-08-07T13:15:03.000Z</time>
</trkpt>
<trkpt lat="46.1281740" lon="10.4672830">
	<ele>2355.80</ele>
	<time>2023-08-07T13:15:04.000Z</time>
</trkpt>
<trkpt lat="46.1281700" lon="10.4672800">
	<ele>2355.80</ele>
	<time>2023-08-07T13:15:05.000Z</time>
</trkpt>
<trkpt lat="46.1281660" lon="10.4672770">
	<ele>2355.80</ele>
	<time>2023-08-07T13:15:06.000Z</time>
</trkpt>
<trkpt lat="46.1281590" lon="10.4672750">
	<ele>2355.60</ele>
	<time>2023-08-07T13:15:07.000Z</time>
</trkpt>
<trkpt lat="46.1281570" lon="10.4672710">
	<ele>2355.20</ele>
	<time>2023-08-07T13:15:08.000Z</time>
</trkpt>
<trkpt lat="46.1281570" lon="10.4672660">
	<ele>2355.00</ele>
	<time>2023-08-07T13:15:09.000Z</time>
</trkpt>
<trkpt lat="46.1281540" lon="10.4672610">
	<ele>2354.80</ele>
	<time>2023-08-07T13:15:10.000Z</time>
</trkpt>
<trkpt lat="46.1281510" lon="10.4672580">
	<ele>2354.80</ele>
	<time>2023-08-07T13:15:11.000Z</time>
</trkpt>
<trkpt lat="46.1281500" lon="10.4672530">
	<ele>2354.40</ele>
	<time>2023-08-07T13:15:12.000Z</time>
</trkpt>
<trkpt lat="46.1281490" lon="10.4672480">
	<ele>2354.20</ele>
	<time>2023-08-07T13:15:13.000Z</time>
</trkpt>
<trkpt lat="46.1281470" lon="10.4672450">
	<ele>2353.80</ele>
	<time>2023-08-07T13:15:14.000Z</time>
</trkpt>
<trkpt lat="46.1281460" lon="10.4672410">
	<ele>2353.60</ele>
	<time>2023-08-07T13:15:15.000Z</time>
</trkpt>
<trkpt lat="46.1281480" lon="10.4672370">
	<ele>2353.60</ele>
	<time>2023-08-07T13:15:16.000Z</time>
</trkpt>
<trkpt lat="46.1281490" lon="10.4672340">
	<ele>2353.40</ele>
	<time>2023-08-07T13:15:17.000Z</time>
</trkpt>
<trkpt lat="46.1281490" lon="10.4672320">
	<ele>2353.20</ele>
	<time>2023-08-07T13:15:18.000Z</time>
</trkpt>
<trkpt lat="46.1281530" lon="10.4672270">
	<ele>2353.20</ele>
	<time>2023-08-07T13:15:19.000Z</time>
</trkpt>
<trkpt lat="46.1281560" lon="10.4672230">
	<ele>2353.00</ele>
	<time>2023-08-07T13:15:20.000Z</time>
</trkpt>
<trkpt lat="46.1281560" lon="10.4672200">
	<ele>2353.00</ele>
	<time>2023-08-07T13:15:21.000Z</time>
</trkpt>
<trkpt lat="46.1281550" lon="10.4672150">
	<ele>2352.80</ele>
	<time>2023-08-07T13:15:22.000Z</time>
</trkpt>
<trkpt lat="46.1281540" lon="10.4672110">
	<ele>2352.80</ele>
	<time>2023-08-07T13:15:23.000Z</time>
</trkpt>
<trkpt lat="46.1281520" lon="10.4672080">
	<ele>2352.60</ele>
	<time>2023-08-07T13:15:24.000Z</time>
</trkpt>
<trkpt lat="46.1281510" lon="10.4672060">
	<ele>2352.40</ele>
	<time>2023-08-07T13:15:25.000Z</time>
</trkpt>
<trkpt lat="46.1281480" lon="10.4672070">
	<ele>2352.40</ele>
	<time>2023-08-07T13:15:26.000Z</time>
</trkpt>
<trkpt lat="46.1281480" lon="10.4672050">
	<ele>2352.20</ele>
	<time>2023-08-07T13:15:27.000Z</time>
</trkpt>
<trkpt lat="46.1281460" lon="10.4672040">
	<ele>2352.00</ele>
	<time>2023-08-07T13:15:28.000Z</time>
</trkpt>
<trkpt lat="46.1281410" lon="10.4672060">
	<ele>2351.80</ele>
	<time>2023-08-07T13:15:29.000Z</time>
</trkpt>
<trkpt lat="46.1281400" lon="10.4672040">
	<ele>2351.60</ele>
	<time>2023-08-07T13:15:30.000Z</time>
</trkpt>
<trkpt lat="46.1281350" lon="10.4672050">
	<ele>2351.40</ele>
	<time>2023-08-07T13:15:31.000Z</time>
</trkpt>
<trkpt lat="46.1281310" lon="10.4672040">
	<ele>2351.20</ele>
	<time>2023-08-07T13:15:32.000Z</time>
</trkpt>
<trkpt lat="46.1281250" lon="10.4672060">
	<ele>2351.20</ele>
	<time>2023-08-07T13:15:33.000Z</time>
</trkpt>
<trkpt lat="46.1281200" lon="10.4672030">
	<ele>2351.00</ele>
	<time>2023-08-07T13:15:34.000Z</time>
</trkpt>
<trkpt lat="46.1281210" lon="10.4671980">
	<ele>2350.60</ele>
	<time>2023-08-07T13:15:35.000Z</time>
</trkpt>
<trkpt lat="46.1281200" lon="10.4671930">
	<ele>2350.60</ele>
	<time>2023-08-07T13:15:36.000Z</time>
</trkpt>
<trkpt lat="46.1281190" lon="10.4671890">
	<ele>2350.40</ele>
	<time>2023-08-07T13:15:37.000Z</time>
</trkpt>
<trkpt lat="46.1281170" lon="10.4671830">
	<ele>2350.40</ele>
	<time>2023-08-07T13:15:38.000Z</time>
</trkpt>
<trkpt lat="46.1281200" lon="10.4671790">
	<ele>2350.40</ele>
	<time>2023-08-07T13:15:39.000Z</time>
</trkpt>
<trkpt lat="46.1281230" lon="10.4671750">
	<ele>2350.00</ele>
	<time>2023-08-07T13:15:40.000Z</time>
</trkpt>
<trkpt lat="46.1281250" lon="10.4671720">
	<ele>2349.80</ele>
	<time>2023-08-07T13:15:41.000Z</time>
</trkpt>
<trkpt lat="46.1281250" lon="10.4671730">
	<ele>2349.80</ele>
	<time>2023-08-07T13:15:42.000Z</time>
</trkpt>
<trkpt lat="46.1281290" lon="10.4671690">
	<ele>2349.60</ele>
	<time>2023-08-07T13:15:43.000Z</time>
</trkpt>
<trkpt lat="46.1281310" lon="10.4671660">
	<ele>2349.60</ele>
	<time>2023-08-07T13:15:44.000Z</time>
</trkpt>
<trkpt lat="46.1281330" lon="10.4671580">
	<ele>2349.40</ele>
	<time>2023-08-07T13:15:45.000Z</time>
</trkpt>
<trkpt lat="46.1281260" lon="10.4671600">
	<ele>2349.20</ele>
	<time>2023-08-07T13:15:46.000Z</time>
</trkpt>
<trkpt lat="46.1281240" lon="10.4671580">
	<ele>2349.00</ele>
	<time>2023-08-07T13:15:47.000Z</time>
</trkpt>
<trkpt lat="46.1281270" lon="10.4671540">
	<ele>2348.80</ele>
	<time>2023-08-07T13:15:48.000Z</time>
</trkpt>
<trkpt lat="46.1281310" lon="10.4671480">
	<ele>2348.60</ele>
	<time>2023-08-07T13:15:49.000Z</time>
</trkpt>
<trkpt lat="46.1281330" lon="10.4671420">
	<ele>2348.60</ele>
	<time>2023-08-07T13:15:50.000Z</time>
</trkpt>
<trkpt lat="46.1281340" lon="10.4671350">
	<ele>2348.40</ele>
	<time>2023-08-07T13:15:51.000Z</time>
</trkpt>
<trkpt lat="46.1281300" lon="10.4671290">
	<ele>2348.20</ele>
	<time>2023-08-07T13:15:52.000Z</time>
</trkpt>
<trkpt lat="46.1281250" lon="10.4671200">
	<ele>2348.00</ele>
	<time>2023-08-07T13:15:53.000Z</time>
</trkpt>
<trkpt lat="46.1281240" lon="10.4671150">
	<ele>2347.80</ele>
	<time>2023-08-07T13:15:54.000Z</time>
</trkpt>
<trkpt lat="46.1281250" lon="10.4671080">
	<ele>2347.80</ele>
	<time>2023-08-07T13:15:55.000Z</time>
</trkpt>
<trkpt lat="46.1281260" lon="10.4671040">
	<ele>2347.80</ele>
	<time>2023-08-07T13:15:56.000Z</time>
</trkpt>
<trkpt lat="46.1281250" lon="10.4670980">
	<ele>2347.40</ele>
	<time>2023-08-07T13:15:57.000Z</time>
</trkpt>
<trkpt lat="46.1281180" lon="10.4670960">
	<ele>2347.20</ele>
	<time>2023-08-07T13:15:58.000Z</time>
</trkpt>
<trkpt lat="46.1281110" lon="10.4670920">
	<ele>2347.00</ele>
	<time>2023-08-07T13:15:59.000Z</time>
</trkpt>
<trkpt lat="46.1281040" lon="10.4670850">
	<ele>2346.80</ele>
	<time>2023-08-07T13:16:00.000Z</time>
</trkpt>
<trkpt lat="46.1280970" lon="10.4670770">
	<ele>2346.60</ele>
	<time>2023-08-07T13:16:01.000Z</time>
</trkpt>
<trkpt lat="46.1280930" lon="10.4670650">
	<ele>2346.60</ele>
	<time>2023-08-07T13:16:02.000Z</time>
</trkpt>
<trkpt lat="46.1280940" lon="10.4670580">
	<ele>2346.40</ele>
	<time>2023-08-07T13:16:03.000Z</time>
</trkpt>
<trkpt lat="46.1280940" lon="10.4670540">
	<ele>2346.20</ele>
	<time>2023-08-07T13:16:04.000Z</time>
</trkpt>
<trkpt lat="46.1280950" lon="10.4670510">
	<ele>2345.80</ele>
	<time>2023-08-07T13:16:05.000Z</time>
</trkpt>
<trkpt lat="46.1280930" lon="10.4670440">
	<ele>2345.60</ele>
	<time>2023-08-07T13:16:06.000Z</time>
</trkpt>
<trkpt lat="46.1280950" lon="10.4670390">
	<ele>2345.60</ele>
	<time>2023-08-07T13:16:07.000Z</time>
</trkpt>
<trkpt lat="46.1280970" lon="10.4670410">
	<ele>2345.40</ele>
	<time>2023-08-07T13:16:08.000Z</time>
</trkpt>
<trkpt lat="46.1280980" lon="10.4670370">
	<ele>2345.40</ele>
	<time>2023-08-07T13:16:09.000Z</time>
</trkpt>
<trkpt lat="46.1281010" lon="10.4670390">
	<ele>2345.20</ele>
	<time>2023-08-07T13:16:10.000Z</time>
</trkpt>
<trkpt lat="46.1281110" lon="10.4670370">
	<ele>2345.20</ele>
	<time>2023-08-07T13:16:11.000Z</time>
</trkpt>
<trkpt lat="46.1281160" lon="10.4670360">
	<ele>2344.80</ele>
	<time>2023-08-07T13:16:12.000Z</time>
</trkpt>
<trkpt lat="46.1281190" lon="10.4670310">
	<ele>2344.60</ele>
	<time>2023-08-07T13:16:13.000Z</time>
</trkpt>
<trkpt lat="46.1281180" lon="10.4670320">
	<ele>2344.40</ele>
	<time>2023-08-07T13:16:14.000Z</time>
</trkpt>
<trkpt lat="46.1281170" lon="10.4670320">
	<ele>2344.00</ele>
	<time>2023-08-07T13:16:15.000Z</time>
</trkpt>
<trkpt lat="46.1281190" lon="10.4670250">
	<ele>2343.80</ele>
	<time>2023-08-07T13:16:16.000Z</time>
</trkpt>
<trkpt lat="46.1281210" lon="10.4670230">
	<ele>2343.40</ele>
	<time>2023-08-07T13:16:17.000Z</time>
</trkpt>
<trkpt lat="46.1281250" lon="10.4670210">
	<ele>2343.20</ele>
	<time>2023-08-07T13:16:18.000Z</time>
</trkpt>
<trkpt lat="46.1281300" lon="10.4670140">
	<ele>2343.20</ele>
	<time>2023-08-07T13:16:19.000Z</time>
</trkpt>
<trkpt lat="46.1281360" lon="10.4670070">
	<ele>2343.00</ele>
	<time>2023-08-07T13:16:20.000Z</time>
</trkpt>
<trkpt lat="46.1281390" lon="10.4670050">
	<ele>2343.00</ele>
	<time>2023-08-07T13:16:21.000Z</time>
</trkpt>
<trkpt lat="46.1281420" lon="10.4670030">
	<ele>2343.00</ele>
	<time>2023-08-07T13:16:22.000Z</time>
</trkpt>
<trkpt lat="46.1281440" lon="10.4669980">
	<ele>2343.00</ele>
	<time>2023-08-07T13:16:23.000Z</time>
</trkpt>
<trkpt lat="46.1281460" lon="10.4669940">
	<ele>2343.00</ele>
	<time>2023-08-07T13:16:24.000Z</time>
</trkpt>
<trkpt lat="46.1281470" lon="10.4669910">
	<ele>2343.00</ele>
	<time>2023-08-07T13:16:25.000Z</time>
</trkpt>
<trkpt lat="46.1281460" lon="10.4669860">
	<ele>2343.00</ele>
	<time>2023-08-07T13:16:26.000Z</time>
</trkpt>
<trkpt lat="46.1281480" lon="10.4669840">
	<ele>2343.00</ele>
	<time>2023-08-07T13:16:27.000Z</time>
</trkpt>
<trkpt lat="46.1281510" lon="10.4669770">
	<ele>2342.40</ele>
	<time>2023-08-07T13:16:28.000Z</time>
</trkpt>
<trkpt lat="46.1281540" lon="10.4669750">
	<ele>2342.00</ele>
	<time>2023-08-07T13:16:29.000Z</time>
</trkpt>
<trkpt lat="46.1281570" lon="10.4669650">
	<ele>2341.80</ele>
	<time>2023-08-07T13:16:30.000Z</time>
</trkpt>
<trkpt lat="46.1281610" lon="10.4669600">
	<ele>2341.40</ele>
	<time>2023-08-07T13:16:31.000Z</time>
</trkpt>
<trkpt lat="46.1281640" lon="10.4669550">
	<ele>2341.20</ele>
	<time>2023-08-07T13:16:32.000Z</time>
</trkpt>
<trkpt lat="46.1281660" lon="10.4669490">
	<ele>2341.20</ele>
	<time>2023-08-07T13:16:33.000Z</time>
</trkpt>
<trkpt lat="46.1281700" lon="10.4669420">
	<ele>2341.00</ele>
	<time>2023-08-07T13:16:34.000Z</time>
</trkpt>
<trkpt lat="46.1281700" lon="10.4669430">
	<ele>2341.00</ele>
	<time>2023-08-07T13:16:35.000Z</time>
</trkpt>
<trkpt lat="46.1281730" lon="10.4669430">
	<ele>2340.80</ele>
	<time>2023-08-07T13:16:36.000Z</time>
</trkpt>
<trkpt lat="46.1281740" lon="10.4669440">
	<ele>2340.80</ele>
	<time>2023-08-07T13:16:37.000Z</time>
</trkpt>
<trkpt lat="46.1281740" lon="10.4669480">
	<ele>2340.60</ele>
	<time>2023-08-07T13:16:38.000Z</time>
</trkpt>
<trkpt lat="46.1281730" lon="10.4669540">
	<ele>2340.60</ele>
	<time>2023-08-07T13:16:39.000Z</time>
</trkpt>
<trkpt lat="46.1281720" lon="10.4669540">
	<ele>2340.60</ele>
	<time>2023-08-07T13:16:40.000Z</time>
</trkpt>
<trkpt lat="46.1281720" lon="10.4669540">
	<ele>2340.60</ele>
	<time>2023-08-07T13:16:41.000Z</time>
</trkpt>
<trkpt lat="46.1281740" lon="10.4669530">
	<ele>2340.60</ele>
	<time>2023-08-07T13:16:42.000Z</time>
</trkpt>
<trkpt lat="46.1281750" lon="10.4669530">
	<ele>2340.40</ele>
	<time>2023-08-07T13:16:43.000Z</time>
</trkpt>
<trkpt lat="46.1281760" lon="10.4669540">
	<ele>2340.40</ele>
	<time>2023-08-07T13:16:44.000Z</time>
</trkpt>
<trkpt lat="46.1281770" lon="10.4669580">
	<ele>2340.20</ele>
	<time>2023-08-07T13:16:45.000Z</time>
</trkpt>
<trkpt lat="46.1281750" lon="10.4669640">
	<ele>2340.20</ele>
	<time>2023-08-07T13:16:46.000Z</time>
</trkpt>
<trkpt lat="46.1281730" lon="10.4669640">
	<ele>2340.00</ele>
	<time>2023-08-07T13:16:47.000Z</time>
</trkpt>
<trkpt lat="46.1281700" lon="10.4669630">
	<ele>2340.00</ele>
	<time>2023-08-07T13:16:48.000Z</time>
</trkpt>
<trkpt lat="46.1281630" lon="10.4669580">
	<ele>2340.00</ele>
	<time>2023-08-07T13:16:49.000Z</time>
</trkpt>
<trkpt lat="46.1281610" lon="10.4669550">
	<ele>2340.00</ele>
	<time>2023-08-07T13:16:50.000Z</time>
</trkpt>
<trkpt lat="46.1281580" lon="10.4669600">
	<ele>2339.60</ele>
	<time>2023-08-07T13:16:51.000Z</time>
</trkpt>
<trkpt lat="46.1281590" lon="10.4669560">
	<ele>2339.40</ele>
	<time>2023-08-07T13:16:52.000Z</time>
</trkpt>
<trkpt lat="46.1281560" lon="10.4669530">
	<ele>2339.20</ele>
	<time>2023-08-07T13:16:53.000Z</time>
</trkpt>
<trkpt lat="46.1281550" lon="10.4669470">
	<ele>2339.00</ele>
	<time>2023-08-07T13:16:54.000Z</time>
</trkpt>
<trkpt lat="46.1281530" lon="10.4669420">
	<ele>2338.80</ele>
	<time>2023-08-07T13:16:55.000Z</time>
</trkpt>
<trkpt lat="46.1281530" lon="10.4669390">
	<ele>2338.60</ele>
	<time>2023-08-07T13:16:56.000Z</time>
</trkpt>
<trkpt lat="46.1281560" lon="10.4669330">
	<ele>2338.40</ele>
	<time>2023-08-07T13:16:57.000Z</time>
</trkpt>
<trkpt lat="46.1281560" lon="10.4669300">
	<ele>2338.20</ele>
	<time>2023-08-07T13:16:58.000Z</time>
</trkpt>
<trkpt lat="46.1281570" lon="10.4669300">
	<ele>2338.00</ele>
	<time>2023-08-07T13:16:59.000Z</time>
</trkpt>
<trkpt lat="46.1281570" lon="10.4669310">
	<ele>2338.00</ele>
	<time>2023-08-07T13:17:00.000Z</time>
</trkpt>
<trkpt lat="46.1281590" lon="10.4669300">
	<ele>2337.80</ele>
	<time>2023-08-07T13:17:01.000Z</time>
</trkpt>
<trkpt lat="46.1281590" lon="10.4669320">
	<ele>2337.40</ele>
	<time>2023-08-07T13:17:02.000Z</time>
</trkpt>
<trkpt lat="46.1281570" lon="10.4669320">
	<ele>2337.20</ele>
	<time>2023-08-07T13:17:03.000Z</time>
</trkpt>
<trkpt lat="46.1281580" lon="10.4669310">
	<ele>2337.00</ele>
	<time>2023-08-07T13:17:04.000Z</time>
</trkpt>
<trkpt lat="46.1281570" lon="10.4669300">
	<ele>2337.00</ele>
	<time>2023-08-07T13:17:05.000Z</time>
</trkpt>
<trkpt lat="46.1281570" lon="10.4669270">
	<ele>2337.00</ele>
	<time>2023-08-07T13:17:06.000Z</time>
</trkpt>
<trkpt lat="46.1281570" lon="10.4669240">
	<ele>2336.80</ele>
	<time>2023-08-07T13:17:07.000Z</time>
</trkpt>
<trkpt lat="46.1281600" lon="10.4669260">
	<ele>2336.80</ele>
	<time>2023-08-07T13:17:08.000Z</time>
</trkpt>
<trkpt lat="46.1281620" lon="10.4669260">
	<ele>2336.60</ele>
	<time>2023-08-07T13:17:09.000Z</time>
</trkpt>
<trkpt lat="46.1281640" lon="10.4669230">
	<ele>2336.60</ele>
	<time>2023-08-07T13:17:10.000Z</time>
</trkpt>
<trkpt lat="46.1281640" lon="10.4669210">
	<ele>2336.60</ele>
	<time>2023-08-07T13:17:11.000Z</time>
</trkpt>
<trkpt lat="46.1281630" lon="10.4669160">
	<ele>2336.40</ele>
	<time>2023-08-07T13:17:12.000Z</time>
</trkpt>
<trkpt lat="46.1281570" lon="10.4669090">
	<ele>2336.40</ele>
	<time>2023-08-07T13:17:13.000Z</time>
</trkpt>
<trkpt lat="46.1281520" lon="10.4669040">
	<ele>2336.40</ele>
	<time>2023-08-07T13:17:14.000Z</time>
</trkpt>
<trkpt lat="46.1281500" lon="10.4668960">
	<ele>2336.40</ele>
	<time>2023-08-07T13:17:15.000Z</time>
</trkpt>
<trkpt lat="46.1281540" lon="10.4668850">
	<ele>2336.20</ele>
	<time>2023-08-07T13:17:16.000Z</time>
</trkpt>
<trkpt lat="46.1281580" lon="10.4668730">
	<ele>2336.00</ele>
	<time>2023-08-07T13:17:17.000Z</time>
</trkpt>
<trkpt lat="46.1281620" lon="10.4668630">
	<ele>2336.00</ele>
	<time>2023-08-07T13:17:18.000Z</time>
</trkpt>
<trkpt lat="46.1281640" lon="10.4668610">
	<ele>2335.80</ele>
	<time>2023-08-07T13:17:19.000Z</time>
</trkpt>
<trkpt lat="46.1281650" lon="10.4668610">
	<ele>2335.60</ele>
	<time>2023-08-07T13:17:20.000Z</time>
</trkpt>
<trkpt lat="46.1281650" lon="10.4668570">
	<ele>2335.60</ele>
	<time>2023-08-07T13:17:21.000Z</time>
</trkpt>
<trkpt lat="46.1281670" lon="10.4668490">
	<ele>2335.60</ele>
	<time>2023-08-07T13:17:22.000Z</time>
</trkpt>
<trkpt lat="46.1281680" lon="10.4668460">
	<ele>2335.60</ele>
	<time>2023-08-07T13:17:23.000Z</time>
</trkpt>
<trkpt lat="46.1281690" lon="10.4668420">
	<ele>2335.40</ele>
	<time>2023-08-07T13:17:24.000Z</time>
</trkpt>
<trkpt lat="46.1281710" lon="10.4668360">
	<ele>2335.40</ele>
	<time>2023-08-07T13:17:25.000Z</time>
</trkpt>
<trkpt lat="46.1281750" lon="10.4668260">
	<ele>2335.20</ele>
	<time>2023-08-07T13:17:26.000Z</time>
</trkpt>
<trkpt lat="46.1281780" lon="10.4668220">
	<ele>2335.00</ele>
	<time>2023-08-07T13:17:27.000Z</time>
</trkpt>
<trkpt lat="46.1281800" lon="10.4668220">
	<ele>2334.80</ele>
	<time>2023-08-07T13:17:28.000Z</time>
</trkpt>
<trkpt lat="46.1281830" lon="10.4668220">
	<ele>2334.80</ele>
	<time>2023-08-07T13:17:29.000Z</time>
</trkpt>
<trkpt lat="46.1281840" lon="10.4668200">
	<ele>2334.80</ele>
	<time>2023-08-07T13:17:30.000Z</time>
</trkpt>
<trkpt lat="46.1281810" lon="10.4668130">
	<ele>2334.60</ele>
	<time>2023-08-07T13:17:31.000Z</time>
</trkpt>
<trkpt lat="46.1281800" lon="10.4668040">
	<ele>2334.40</ele>
	<time>2023-08-07T13:17:32.000Z</time>
</trkpt>
<trkpt lat="46.1281810" lon="10.4667940">
	<ele>2334.20</ele>
	<time>2023-08-07T13:17:33.000Z</time>
</trkpt>
<trkpt lat="46.1281800" lon="10.4667870">
	<ele>2334.00</ele>
	<time>2023-08-07T13:17:34.000Z</time>
</trkpt>
<trkpt lat="46.1281840" lon="10.4667740">
	<ele>2333.80</ele>
	<time>2023-08-07T13:17:35.000Z</time>
</trkpt>
<trkpt lat="46.1281890" lon="10.4667640">
	<ele>2333.60</ele>
	<time>2023-08-07T13:17:36.000Z</time>
</trkpt>
<trkpt lat="46.1281940" lon="10.4667560">
	<ele>2333.40</ele>
	<time>2023-08-07T13:17:37.000Z</time>
</trkpt>
<trkpt lat="46.1281960" lon="10.4667550">
	<ele>2333.20</ele>
	<time>2023-08-07T13:17:38.000Z</time>
</trkpt>
<trkpt lat="46.1281960" lon="10.4667580">
	<ele>2333.00</ele>
	<time>2023-08-07T13:17:39.000Z</time>
</trkpt>
<trkpt lat="46.1281970" lon="10.4667580">
	<ele>2332.80</ele>
	<time>2023-08-07T13:17:40.000Z</time>
</trkpt>
<trkpt lat="46.1281960" lon="10.4667580">
	<ele>2332.20</ele>
	<time>2023-08-07T13:17:41.000Z</time>
</trkpt>
<trkpt lat="46.1281960" lon="10.4667520">
	<ele>2332.00</ele>
	<time>2023-08-07T13:17:42.000Z</time>
</trkpt>
<trkpt lat="46.1281990" lon="10.4667460">
	<ele>2331.80</ele>
	<time>2023-08-07T13:17:43.000Z</time>
</trkpt>
<trkpt lat="46.1282020" lon="10.4667430">
	<ele>2331.60</ele>
	<time>2023-08-07T13:17:44.000Z</time>
</trkpt>
<trkpt lat="46.1282040" lon="10.4667420">
	<ele>2331.40</ele>
	<time>2023-08-07T13:17:45.000Z</time>
</trkpt>
<trkpt lat="46.1282130" lon="10.4667270">
	<ele>2331.40</ele>
	<time>2023-08-07T13:17:46.000Z</time>
</trkpt>
<trkpt lat="46.1282130" lon="10.4667250">
	<ele>2331.20</ele>
	<time>2023-08-07T13:17:47.000Z</time>
</trkpt>
<trkpt lat="46.1282140" lon="10.4667230">
	<ele>2331.20</ele>
	<time>2023-08-07T13:17:48.000Z</time>
</trkpt>
<trkpt lat="46.1282130" lon="10.4667190">
	<ele>2331.20</ele>
	<time>2023-08-07T13:17:49.000Z</time>
</trkpt>
<trkpt lat="46.1282130" lon="10.4667160">
	<ele>2331.20</ele>
	<time>2023-08-07T13:17:50.000Z</time>
</trkpt>
<trkpt lat="46.1282110" lon="10.4667140">
	<ele>2331.20</ele>
	<time>2023-08-07T13:17:51.000Z</time>
</trkpt>
<trkpt lat="46.1282100" lon="10.4667110">
	<ele>2331.00</ele>
	<time>2023-08-07T13:17:52.000Z</time>
</trkpt>
<trkpt lat="46.1282080" lon="10.4667070">
	<ele>2330.60</ele>
	<time>2023-08-07T13:17:53.000Z</time>
</trkpt>
<trkpt lat="46.1282070" lon="10.4667030">
	<ele>2330.40</ele>
	<time>2023-08-07T13:17:54.000Z</time>
</trkpt>
<trkpt lat="46.1282060" lon="10.4667020">
	<ele>2330.20</ele>
	<time>2023-08-07T13:17:55.000Z</time>
</trkpt>
<trkpt lat="46.1282060" lon="10.4667020">
	<ele>2329.80</ele>
	<time>2023-08-07T13:17:56.000Z</time>
</trkpt>
<trkpt lat="46.1282060" lon="10.4667020">
	<ele>2329.60</ele>
	<time>2023-08-07T13:17:57.000Z</time>
</trkpt>
<trkpt lat="46.1282060" lon="10.4667020">
	<ele>2329.20</ele>
	<time>2023-08-07T13:17:58.000Z</time>
</trkpt>
<trkpt lat="46.1282060" lon="10.4667020">
	<ele>2329.20</ele>
	<time>2023-08-07T13:17:59.000Z</time>
</trkpt>
<trkpt lat="46.1282060" lon="10.4667020">
	<ele>2329.20</ele>
	<time>2023-08-07T13:18:00.000Z</time>
</trkpt>
<trkpt lat="46.1282060" lon="10.4667020">
	<ele>2329.20</ele>
	<time>2023-08-07T13:18:01.000Z</time>
</trkpt>
<trkpt lat="46.1282060" lon="10.4667020">
	<ele>2329.20</ele>
	<time>2023-08-07T13:18:02.000Z</time>
</trkpt>
<trkpt lat="46.1282060" lon="10.4667020">
	<ele>2329.20</ele>
	<time>2023-08-07T13:18:03.000Z</time>
</trkpt>
<trkpt lat="46.1282060" lon="10.4667020">
	<ele>2329.40</ele>
	<time>2023-08-07T13:18:04.000Z</time>
</trkpt>
<trkpt lat="46.1282070" lon="10.4667020">
	<ele>2329.40</ele>
	<time>2023-08-07T13:18:05.000Z</time>
</trkpt>
<trkpt lat="46.1282080" lon="10.4667020">
	<ele>2329.60</ele>
	<time>2023-08-07T13:18:06.000Z</time>
</trkpt>
<trkpt lat="46.1282100" lon="10.4667020">
	<ele>2329.60</ele>
	<time>2023-08-07T13:18:07.000Z</time>
</trkpt>
<trkpt lat="46.1282110" lon="10.4667020">
	<ele>2329.60</ele>
	<time>2023-08-07T13:18:08.000Z</time>
</trkpt>
<trkpt lat="46.1282110" lon="10.4667020">
	<ele>2329.60</ele>
	<time>2023-08-07T13:18:09.000Z</time>
</trkpt>
<trkpt lat="46.1282120" lon="10.4667020">
	<ele>2329.60</ele>
	<time>2023-08-07T13:18:10.000Z</time>
</trkpt>
<trkpt lat="46.1282130" lon="10.4667020">
	<ele>2329.60</ele>
	<time>2023-08-07T13:18:11.000Z</time>
</trkpt>
<trkpt lat="46.1282130" lon="10.4667010">
	<ele>2329.80</ele>
	<time>2023-08-07T13:18:12.000Z</time>
</trkpt>
<trkpt lat="46.1282140" lon="10.4667000">
	<ele>2329.80</ele>
	<time>2023-08-07T13:18:13.000Z</time>
</trkpt>
<trkpt lat="46.1282160" lon="10.4666990">
	<ele>2329.60</ele>
	<time>2023-08-07T13:18:14.000Z</time>
</trkpt>
<trkpt lat="46.1282180" lon="10.4666890">
	<ele>2329.60</ele>
	<time>2023-08-07T13:18:15.000Z</time>
</trkpt>
<trkpt lat="46.1282210" lon="10.4666830">
	<ele>2329.60</ele>
	<time>2023-08-07T13:18:16.000Z</time>
</trkpt>
<trkpt lat="46.1282220" lon="10.4666820">
	<ele>2329.60</ele>
	<time>2023-08-07T13:18:17.000Z</time>
</trkpt>
<trkpt lat="46.1282220" lon="10.4666820">
	<ele>2329.60</ele>
	<time>2023-08-07T13:18:18.000Z</time>
</trkpt>
<trkpt lat="46.1282220" lon="10.4666820">
	<ele>2329.60</ele>
	<time>2023-08-07T13:18:19.000Z</time>
</trkpt>
<trkpt lat="46.1282220" lon="10.4666810">
	<ele>2329.60</ele>
	<time>2023-08-07T13:18:20.000Z</time>
</trkpt>
<trkpt lat="46.1282220" lon="10.4666790">
	<ele>2329.80</ele>
	<time>2023-08-07T13:18:21.000Z</time>
</trkpt>
<trkpt lat="46.1282230" lon="10.4666780">
	<ele>2329.80</ele>
	<time>2023-08-07T13:18:22.000Z</time>
</trkpt>
<trkpt lat="46.1282230" lon="10.4666780">
	<ele>2329.80</ele>
	<time>2023-08-07T13:18:23.000Z</time>
</trkpt>
<trkpt lat="46.1282230" lon="10.4666770">
	<ele>2329.80</ele>
	<time>2023-08-07T13:18:24.000Z</time>
</trkpt>
<trkpt lat="46.1282230" lon="10.4666770">
	<ele>2329.80</ele>
	<time>2023-08-07T13:18:25.000Z</time>
</trkpt>
<trkpt lat="46.1282250" lon="10.4666770">
	<ele>2329.80</ele>
	<time>2023-08-07T13:18:26.000Z</time>
</trkpt>
<trkpt lat="46.1282250" lon="10.4666760">
	<ele>2329.80</ele>
	<time>2023-08-07T13:18:27.000Z</time>
</trkpt>
<trkpt lat="46.1282260" lon="10.4666760">
	<ele>2329.80</ele>
	<time>2023-08-07T13:18:28.000Z</time>
</trkpt>
<trkpt lat="46.1282260" lon="10.4666750">
	<ele>2329.80</ele>
	<time>2023-08-07T13:18:29.000Z</time>
</trkpt>
<trkpt lat="46.1282270" lon="10.4666750">
	<ele>2329.80</ele>
	<time>2023-08-07T13:18:30.000Z</time>
</trkpt>
<trkpt lat="46.1282280" lon="10.4666750">
	<ele>2329.80</ele>
	<time>2023-08-07T13:18:31.000Z</time>
</trkpt>
<trkpt lat="46.1282280" lon="10.4666750">
	<ele>2329.80</ele>
	<time>2023-08-07T13:18:32.000Z</time>
</trkpt>
<trkpt lat="46.1282280" lon="10.4666750">
	<ele>2329.80</ele>
	<time>2023-08-07T13:18:33.000Z</time>
</trkpt>
<trkpt lat="46.1282280" lon="10.4666750">
	<ele>2329.80</ele>
	<time>2023-08-07T13:18:34.000Z</time>
</trkpt>
<trkpt lat="46.1282280" lon="10.4666750">
	<ele>2329.80</ele>
	<time>2023-08-07T13:18:35.000Z</time>
</trkpt>
<trkpt lat="46.1282280" lon="10.4666750">
	<ele>2329.60</ele>
	<time>2023-08-07T13:18:36.000Z</time>
</trkpt>
<trkpt lat="46.1282280" lon="10.4666750">
	<ele>2329.60</ele>
	<time>2023-08-07T13:18:37.000Z</time>
</trkpt>
<trkpt lat="46.1282280" lon="10.4666750">
	<ele>2329.60</ele>
	<time>2023-08-07T13:18:38.000Z</time>
</trkpt>
<trkpt lat="46.1282280" lon="10.4666740">
	<ele>2329.60</ele>
	<time>2023-08-07T13:18:39.000Z</time>
</trkpt>
<trkpt lat="46.1282280" lon="10.4666740">
	<ele>2329.80</ele>
	<time>2023-08-07T13:18:40.000Z</time>
</trkpt>
<trkpt lat="46.1282280" lon="10.4666740">
	<ele>2329.80</ele>
	<time>2023-08-07T13:18:41.000Z</time>
</trkpt>
<trkpt lat="46.1282280" lon="10.4666740">
	<ele>2329.80</ele>
	<time>2023-08-07T13:18:42.000Z</time>
</trkpt>
<trkpt lat="46.1282280" lon="10.4666740">
	<ele>2329.80</ele>
	<time>2023-08-07T13:18:43.000Z</time>
</trkpt>
<trkpt lat="46.1282280" lon="10.4666730">
	<ele>2329.80</ele>
	<time>2023-08-07T13:18:44.000Z</time>
</trkpt>
<trkpt lat="46.1282280" lon="10.4666730">
	<ele>2329.80</ele>
	<time>2023-08-07T13:18:45.000Z</time>
</trkpt>
<trkpt lat="46.1282280" lon="10.4666730">
	<ele>2329.80</ele>
	<time>2023-08-07T13:18:46.000Z</time>
</trkpt>
<trkpt lat="46.1282280" lon="10.4666730">
	<ele>2329.80</ele>
	<time>2023-08-07T13:18:47.000Z</time>
</trkpt>
<trkpt lat="46.1282280" lon="10.4666730">
	<ele>2329.80</ele>
	<time>2023-08-07T13:18:48.000Z</time>
</trkpt>
<trkpt lat="46.1282280" lon="10.4666730">
	<ele>2329.80</ele>
	<time>2023-08-07T13:18:49.000Z</time>
</trkpt>
<trkpt lat="46.1282280" lon="10.4666730">
	<ele>2329.80</ele>
	<time>2023-08-07T13:18:50.000Z</time>
</trkpt>
<trkpt lat="46.1282280" lon="10.4666730">
	<ele>2329.60</ele>
	<time>2023-08-07T13:18:51.000Z</time>
</trkpt>
<trkpt lat="46.1282280" lon="10.4666730">
	<ele>2329.60</ele>
	<time>2023-08-07T13:18:52.000Z</time>
</trkpt>
<trkpt lat="46.1282280" lon="10.4666730">
	<ele>2329.60</ele>
	<time>2023-08-07T13:18:53.000Z</time>
</trkpt>
<trkpt lat="46.1282270" lon="10.4666730">
	<ele>2329.40</ele>
	<time>2023-08-07T13:18:54.000Z</time>
</trkpt>
<trkpt lat="46.1282270" lon="10.4666730">
	<ele>2329.20</ele>
	<time>2023-08-07T13:18:55.000Z</time>
</trkpt>
<trkpt lat="46.1282250" lon="10.4666730">
	<ele>2329.20</ele>
	<time>2023-08-07T13:18:56.000Z</time>
</trkpt>
<trkpt lat="46.1282220" lon="10.4666730">
	<ele>2329.20</ele>
	<time>2023-08-07T13:18:57.000Z</time>
</trkpt>
<trkpt lat="46.1282210" lon="10.4666730">
	<ele>2329.20</ele>
	<time>2023-08-07T13:18:58.000Z</time>
</trkpt>
<trkpt lat="46.1282200" lon="10.4666730">
	<ele>2329.20</ele>
	<time>2023-08-07T13:18:59.000Z</time>
</trkpt>
<trkpt lat="46.1282200" lon="10.4666730">
	<ele>2329.20</ele>
	<time>2023-08-07T13:19:00.000Z</time>
</trkpt>
<trkpt lat="46.1282200" lon="10.4666730">
	<ele>2329.00</ele>
	<time>2023-08-07T13:19:01.000Z</time>
</trkpt>
<trkpt lat="46.1282200" lon="10.4666730">
	<ele>2328.80</ele>
	<time>2023-08-07T13:19:02.000Z</time>
</trkpt>
<trkpt lat="46.1282200" lon="10.4666730">
	<ele>2328.80</ele>
	<time>2023-08-07T13:19:03.000Z</time>
</trkpt>
<trkpt lat="46.1282200" lon="10.4666730">
	<ele>2328.60</ele>
	<time>2023-08-07T13:19:04.000Z</time>
</trkpt>
<trkpt lat="46.1282200" lon="10.4666730">
	<ele>2328.60</ele>
	<time>2023-08-07T13:19:05.000Z</time>
</trkpt>
<trkpt lat="46.1282200" lon="10.4666720">
	<ele>2328.60</ele>
	<time>2023-08-07T13:19:06.000Z</time>
</trkpt>
<trkpt lat="46.1282200" lon="10.4666720">
	<ele>2328.20</ele>
	<time>2023-08-07T13:19:07.000Z</time>
</trkpt>
<trkpt lat="46.1282200" lon="10.4666710">
	<ele>2328.00</ele>
	<time>2023-08-07T13:19:08.000Z</time>
</trkpt>
<trkpt lat="46.1282200" lon="10.4666710">
	<ele>2327.80</ele>
	<time>2023-08-07T13:19:09.000Z</time>
</trkpt>
<trkpt lat="46.1282200" lon="10.4666700">
	<ele>2327.80</ele>
	<time>2023-08-07T13:19:10.000Z</time>
</trkpt>
<trkpt lat="46.1282200" lon="10.4666700">
	<ele>2327.60</ele>
	<time>2023-08-07T13:19:11.000Z</time>
</trkpt>
<trkpt lat="46.1282200" lon="10.4666700">
	<ele>2327.60</ele>
	<time>2023-08-07T13:19:12.000Z</time>
</trkpt>
<trkpt lat="46.1282200" lon="10.4666690">
	<ele>2327.40</ele>
	<time>2023-08-07T13:19:13.000Z</time>
</trkpt>
<trkpt lat="46.1282200" lon="10.4666680">
	<ele>2327.20</ele>
	<time>2023-08-07T13:19:14.000Z</time>
</trkpt>
<trkpt lat="46.1282210" lon="10.4666650">
	<ele>2326.80</ele>
	<time>2023-08-07T13:19:15.000Z</time>
</trkpt>
<trkpt lat="46.1282220" lon="10.4666640">
	<ele>2326.60</ele>
	<time>2023-08-07T13:19:16.000Z</time>
</trkpt>
<trkpt lat="46.1282260" lon="10.4666610">
	<ele>2326.40</ele>
	<time>2023-08-07T13:19:17.000Z</time>
</trkpt>
<trkpt lat="46.1282300" lon="10.4666600">
	<ele>2326.20</ele>
	<time>2023-08-07T13:19:18.000Z</time>
</trkpt>
<trkpt lat="46.1282350" lon="10.4666600">
	<ele>2326.00</ele>
	<time>2023-08-07T13:19:19.000Z</time>
</trkpt>
<trkpt lat="46.1282390" lon="10.4666590">
	<ele>2325.80</ele>
	<time>2023-08-07T13:19:20.000Z</time>
</trkpt>
<trkpt lat="46.1282420" lon="10.4666590">
	<ele>2325.60</ele>
	<time>2023-08-07T13:19:21.000Z</time>
</trkpt>
<trkpt lat="46.1282460" lon="10.4666580">
	<ele>2325.20</ele>
	<time>2023-08-07T13:19:22.000Z</time>
</trkpt>
<trkpt lat="46.1282500" lon="10.4666560">
	<ele>2325.00</ele>
	<time>2023-08-07T13:19:23.000Z</time>
</trkpt>
<trkpt lat="46.1282520" lon="10.4666520">
	<ele>2324.80</ele>
	<time>2023-08-07T13:19:24.000Z</time>
</trkpt>
<trkpt lat="46.1282520" lon="10.4666470">
	<ele>2324.80</ele>
	<time>2023-08-07T13:19:25.000Z</time>
</trkpt>
<trkpt lat="46.1282540" lon="10.4666430">
	<ele>2324.60</ele>
	<time>2023-08-07T13:19:26.000Z</time>
</trkpt>
<trkpt lat="46.1282540" lon="10.4666380">
	<ele>2324.60</ele>
	<time>2023-08-07T13:19:27.000Z</time>
</trkpt>
<trkpt lat="46.1282540" lon="10.4666330">
	<ele>2324.40</ele>
	<time>2023-08-07T13:19:28.000Z</time>
</trkpt>
<trkpt lat="46.1282540" lon="10.4666280">
	<ele>2324.00</ele>
	<time>2023-08-07T13:19:29.000Z</time>
</trkpt>
<trkpt lat="46.1282550" lon="10.4666250">
	<ele>2323.40</ele>
	<time>2023-08-07T13:19:30.000Z</time>
</trkpt>
<trkpt lat="46.1282550" lon="10.4666220">
	<ele>2323.00</ele>
	<time>2023-08-07T13:19:31.000Z</time>
</trkpt>
<trkpt lat="46.1282560" lon="10.4666180">
	<ele>2322.80</ele>
	<time>2023-08-07T13:19:32.000Z</time>
</trkpt>
<trkpt lat="46.1282580" lon="10.4666140">
	<ele>2322.40</ele>
	<time>2023-08-07T13:19:33.000Z</time>
</trkpt>
<trkpt lat="46.1282590" lon="10.4666100">
	<ele>2322.20</ele>
	<time>2023-08-07T13:19:34.000Z</time>
</trkpt>
<trkpt lat="46.1282600" lon="10.4666060">
	<ele>2322.00</ele>
	<time>2023-08-07T13:19:35.000Z</time>
</trkpt>
<trkpt lat="46.1282620" lon="10.4666000">
	<ele>2321.80</ele>
	<time>2023-08-07T13:19:36.000Z</time>
</trkpt>
<trkpt lat="46.1282630" lon="10.4665940">
	<ele>2321.80</ele>
	<time>2023-08-07T13:19:37.000Z</time>
</trkpt>
<trkpt lat="46.1282640" lon="10.4665880">
	<ele>2321.80</ele>
	<time>2023-08-07T13:19:38.000Z</time>
</trkpt>
<trkpt lat="46.1282640" lon="10.4665820">
	<ele>2321.60</ele>
	<time>2023-08-07T13:19:39.000Z</time>
</trkpt>
<trkpt lat="46.1282650" lon="10.4665770">
	<ele>2321.60</ele>
	<time>2023-08-07T13:19:40.000Z</time>
</trkpt>
<trkpt lat="46.1282660" lon="10.4665730">
	<ele>2321.60</ele>
	<time>2023-08-07T13:19:41.000Z</time>
</trkpt>
<trkpt lat="46.1282670" lon="10.4665690">
	<ele>2321.40</ele>
	<time>2023-08-07T13:19:42.000Z</time>
</trkpt>
<trkpt lat="46.1282670" lon="10.4665650">
	<ele>2321.40</ele>
	<time>2023-08-07T13:19:43.000Z</time>
</trkpt>
<trkpt lat="46.1282670" lon="10.4665580">
	<ele>2321.20</ele>
	<time>2023-08-07T13:19:44.000Z</time>
</trkpt>
<trkpt lat="46.1282680" lon="10.4665520">
	<ele>2321.00</ele>
	<time>2023-08-07T13:19:45.000Z</time>
</trkpt>
<trkpt lat="46.1282680" lon="10.4665460">
	<ele>2321.00</ele>
	<time>2023-08-07T13:19:46.000Z</time>
</trkpt>
<trkpt lat="46.1282690" lon="10.4665430">
	<ele>2320.80</ele>
	<time>2023-08-07T13:19:47.000Z</time>
</trkpt>
<trkpt lat="46.1282730" lon="10.4665410">
	<ele>2320.80</ele>
	<time>2023-08-07T13:19:48.000Z</time>
</trkpt>
<trkpt lat="46.1282770" lon="10.4665330">
	<ele>2320.60</ele>
	<time>2023-08-07T13:19:49.000Z</time>
</trkpt>
<trkpt lat="46.1282840" lon="10.4665200">
	<ele>2320.40</ele>
	<time>2023-08-07T13:19:50.000Z</time>
</trkpt>
<trkpt lat="46.1282920" lon="10.4665060">
	<ele>2320.40</ele>
	<time>2023-08-07T13:19:51.000Z</time>
</trkpt>
<trkpt lat="46.1282990" lon="10.4664930">
	<ele>2320.20</ele>
	<time>2023-08-07T13:19:52.000Z</time>
</trkpt>
<trkpt lat="46.1283060" lon="10.4664800">
	<ele>2320.00</ele>
	<time>2023-08-07T13:19:53.000Z</time>
</trkpt>
<trkpt lat="46.1283120" lon="10.4664690">
	<ele>2319.80</ele>
	<time>2023-08-07T13:19:54.000Z</time>
</trkpt>
<trkpt lat="46.1283190" lon="10.4664540">
	<ele>2319.80</ele>
	<time>2023-08-07T13:19:55.000Z</time>
</trkpt>
<trkpt lat="46.1283260" lon="10.4664390">
	<ele>2319.60</ele>
	<time>2023-08-07T13:19:56.000Z</time>
</trkpt>
<trkpt lat="46.1283300" lon="10.4664280">
	<ele>2319.60</ele>
	<time>2023-08-07T13:19:57.000Z</time>
</trkpt>
<trkpt lat="46.1283320" lon="10.4664170">
	<ele>2319.40</ele>
	<time>2023-08-07T13:19:58.000Z</time>
</trkpt>
<trkpt lat="46.1283290" lon="10.4664140">
	<ele>2319.40</ele>
	<time>2023-08-07T13:19:59.000Z</time>
</trkpt>
<trkpt lat="46.1283250" lon="10.4664120">
	<ele>2319.40</ele>
	<time>2023-08-07T13:20:00.000Z</time>
</trkpt>
<trkpt lat="46.1283200" lon="10.4664120">
	<ele>2319.40</ele>
	<time>2023-08-07T13:20:01.000Z</time>
</trkpt>
<trkpt lat="46.1283140" lon="10.4664060">
	<ele>2319.40</ele>
	<time>2023-08-07T13:20:02.000Z</time>
</trkpt>
<trkpt lat="46.1283140" lon="10.4663990">
	<ele>2319.40</ele>
	<time>2023-08-07T13:20:03.000Z</time>
</trkpt>
<trkpt lat="46.1283140" lon="10.4663940">
	<ele>2319.60</ele>
	<time>2023-08-07T13:20:04.000Z</time>
</trkpt>
<trkpt lat="46.1283110" lon="10.4663900">
	<ele>2319.80</ele>
	<time>2023-08-07T13:20:05.000Z</time>
</trkpt>
<trkpt lat="46.1283100" lon="10.4663860">
	<ele>2319.80</ele>
	<time>2023-08-07T13:20:06.000Z</time>
</trkpt>
<trkpt lat="46.1283080" lon="10.4663820">
	<ele>2319.60</ele>
	<time>2023-08-07T13:20:07.000Z</time>
</trkpt>
<trkpt lat="46.1283020" lon="10.4663770">
	<ele>2319.60</ele>
	<time>2023-08-07T13:20:08.000Z</time>
</trkpt>
<trkpt lat="46.1283000" lon="10.4663710">
	<ele>2319.60</ele>
	<time>2023-08-07T13:20:09.000Z</time>
</trkpt>
<trkpt lat="46.1282980" lon="10.4663630">
	<ele>2319.60</ele>
	<time>2023-08-07T13:20:10.000Z</time>
</trkpt>
<trkpt lat="46.1282970" lon="10.4663580">
	<ele>2319.60</ele>
	<time>2023-08-07T13:20:11.000Z</time>
</trkpt>
<trkpt lat="46.1282940" lon="10.4663520">
	<ele>2319.60</ele>
	<time>2023-08-07T13:20:12.000Z</time>
</trkpt>
<trkpt lat="46.1282930" lon="10.4663480">
	<ele>2319.40</ele>
	<time>2023-08-07T13:20:13.000Z</time>
</trkpt>
<trkpt lat="46.1282910" lon="10.4663430">
	<ele>2319.20</ele>
	<time>2023-08-07T13:20:14.000Z</time>
</trkpt>
<trkpt lat="46.1282910" lon="10.4663380">
	<ele>2319.20</ele>
	<time>2023-08-07T13:20:15.000Z</time>
</trkpt>
<trkpt lat="46.1282910" lon="10.4663320">
	<ele>2319.00</ele>
	<time>2023-08-07T13:20:16.000Z</time>
</trkpt>
<trkpt lat="46.1282880" lon="10.4663250">
	<ele>2318.80</ele>
	<time>2023-08-07T13:20:17.000Z</time>
</trkpt>
<trkpt lat="46.1282860" lon="10.4663150">
	<ele>2318.80</ele>
	<time>2023-08-07T13:20:18.000Z</time>
</trkpt>
<trkpt lat="46.1282860" lon="10.4663050">
	<ele>2318.80</ele>
	<time>2023-08-07T13:20:19.000Z</time>
</trkpt>
<trkpt lat="46.1282880" lon="10.4663020">
	<ele>2318.60</ele>
	<time>2023-08-07T13:20:20.000Z</time>
</trkpt>
<trkpt lat="46.1282900" lon="10.4663000">
	<ele>2318.40</ele>
	<time>2023-08-07T13:20:21.000Z</time>
</trkpt>
<trkpt lat="46.1282920" lon="10.4663000">
	<ele>2318.20</ele>
	<time>2023-08-07T13:20:22.000Z</time>
</trkpt>
<trkpt lat="46.1282930" lon="10.4662980">
	<ele>2318.20</ele>
	<time>2023-08-07T13:20:23.000Z</time>
</trkpt>
<trkpt lat="46.1282950" lon="10.4662980">
	<ele>2317.80</ele>
	<time>2023-08-07T13:20:24.000Z</time>
</trkpt>
<trkpt lat="46.1282970" lon="10.4662910">
	<ele>2317.60</ele>
	<time>2023-08-07T13:20:25.000Z</time>
</trkpt>
<trkpt lat="46.1283000" lon="10.4662790">
	<ele>2317.40</ele>
	<time>2023-08-07T13:20:26.000Z</time>
</trkpt>
<trkpt lat="46.1283020" lon="10.4662720">
	<ele>2317.20</ele>
	<time>2023-08-07T13:20:27.000Z</time>
</trkpt>
<trkpt lat="46.1283010" lon="10.4662630">
	<ele>2317.20</ele>
	<time>2023-08-07T13:20:28.000Z</time>
</trkpt>
<trkpt lat="46.1283040" lon="10.4662500">
	<ele>2317.00</ele>
	<time>2023-08-07T13:20:29.000Z</time>
</trkpt>
<trkpt lat="46.1283030" lon="10.4662430">
	<ele>2317.00</ele>
	<time>2023-08-07T13:20:30.000Z</time>
</trkpt>
<trkpt lat="46.1283040" lon="10.4662350">
	<ele>2317.00</ele>
	<time>2023-08-07T13:20:31.000Z</time>
</trkpt>
<trkpt lat="46.1283000" lon="10.4662360">
	<ele>2316.80</ele>
	<time>2023-08-07T13:20:32.000Z</time>
</trkpt>
<trkpt lat="46.1283020" lon="10.4662360">
	<ele>2316.80</ele>
	<time>2023-08-07T13:20:33.000Z</time>
</trkpt>
<trkpt lat="46.1283070" lon="10.4662340">
	<ele>2316.60</ele>
	<time>2023-08-07T13:20:34.000Z</time>
</trkpt>
<trkpt lat="46.1283070" lon="10.4662330">
	<ele>2316.40</ele>
	<time>2023-08-07T13:20:35.000Z</time>
</trkpt>
<trkpt lat="46.1283070" lon="10.4662310">
	<ele>2316.20</ele>
	<time>2023-08-07T13:20:36.000Z</time>
</trkpt>
<trkpt lat="46.1283100" lon="10.4662300">
	<ele>2316.00</ele>
	<time>2023-08-07T13:20:37.000Z</time>
</trkpt>
<trkpt lat="46.1283140" lon="10.4662260">
	<ele>2315.80</ele>
	<time>2023-08-07T13:20:38.000Z</time>
</trkpt>
<trkpt lat="46.1283150" lon="10.4662230">
	<ele>2315.40</ele>
	<time>2023-08-07T13:20:39.000Z</time>
</trkpt>
<trkpt lat="46.1283150" lon="10.4662210">
	<ele>2315.20</ele>
	<time>2023-08-07T13:20:40.000Z</time>
</trkpt>
<trkpt lat="46.1283120" lon="10.4662190">
	<ele>2315.00</ele>
	<time>2023-08-07T13:20:41.000Z</time>
</trkpt>
<trkpt lat="46.1283100" lon="10.4662180">
	<ele>2314.80</ele>
	<time>2023-08-07T13:20:42.000Z</time>
</trkpt>
<trkpt lat="46.1283090" lon="10.4662200">
	<ele>2314.80</ele>
	<time>2023-08-07T13:20:43.000Z</time>
</trkpt>
<trkpt lat="46.1283070" lon="10.4662220">
	<ele>2314.60</ele>
	<time>2023-08-07T13:20:44.000Z</time>
</trkpt>
<trkpt lat="46.1283060" lon="10.4662220">
	<ele>2314.60</ele>
	<time>2023-08-07T13:20:45.000Z</time>
</trkpt>
<trkpt lat="46.1283040" lon="10.4662170">
	<ele>2314.60</ele>
	<time>2023-08-07T13:20:46.000Z</time>
</trkpt>
<trkpt lat="46.1283020" lon="10.4662120">
	<ele>2314.40</ele>
	<time>2023-08-07T13:20:47.000Z</time>
</trkpt>
<trkpt lat="46.1283020" lon="10.4662030">
	<ele>2314.40</ele>
	<time>2023-08-07T13:20:48.000Z</time>
</trkpt>
<trkpt lat="46.1283040" lon="10.4661910">
	<ele>2314.60</ele>
	<time>2023-08-07T13:20:49.000Z</time>
</trkpt>
<trkpt lat="46.1283040" lon="10.4661820">
	<ele>2314.60</ele>
	<time>2023-08-07T13:20:50.000Z</time>
</trkpt>
<trkpt lat="46.1283040" lon="10.4661770">
	<ele>2314.40</ele>
	<time>2023-08-07T13:20:51.000Z</time>
</trkpt>
<trkpt lat="46.1283030" lon="10.4661760">
	<ele>2314.40</ele>
	<time>2023-08-07T13:20:52.000Z</time>
</trkpt>
<trkpt lat="46.1283060" lon="10.4661700">
	<ele>2314.40</ele>
	<time>2023-08-07T13:20:53.000Z</time>
</trkpt>
<trkpt lat="46.1283080" lon="10.4661580">
	<ele>2314.20</ele>
	<time>2023-08-07T13:20:54.000Z</time>
</trkpt>
<trkpt lat="46.1283070" lon="10.4661520">
	<ele>2314.20</ele>
	<time>2023-08-07T13:20:55.000Z</time>
</trkpt>
<trkpt lat="46.1283070" lon="10.4661470">
	<ele>2314.00</ele>
	<time>2023-08-07T13:20:56.000Z</time>
</trkpt>
<trkpt lat="46.1283090" lon="10.4661380">
	<ele>2313.60</ele>
	<time>2023-08-07T13:20:57.000Z</time>
</trkpt>
<trkpt lat="46.1283090" lon="10.4661320">
	<ele>2313.40</ele>
	<time>2023-08-07T13:20:58.000Z</time>
</trkpt>
<trkpt lat="46.1283090" lon="10.4661250">
	<ele>2313.40</ele>
	<time>2023-08-07T13:20:59.000Z</time>
</trkpt>
<trkpt lat="46.1283100" lon="10.4661200">
	<ele>2313.40</ele>
	<time>2023-08-07T13:21:00.000Z</time>
</trkpt>
<trkpt lat="46.1283110" lon="10.4661150">
	<ele>2313.20</ele>
	<time>2023-08-07T13:21:01.000Z</time>
</trkpt>
<trkpt lat="46.1283120" lon="10.4661080">
	<ele>2313.20</ele>
	<time>2023-08-07T13:21:02.000Z</time>
</trkpt>
<trkpt lat="46.1283150" lon="10.4660990">
	<ele>2313.00</ele>
	<time>2023-08-07T13:21:03.000Z</time>
</trkpt>
<trkpt lat="46.1283160" lon="10.4660930">
	<ele>2313.00</ele>
	<time>2023-08-07T13:21:04.000Z</time>
</trkpt>
<trkpt lat="46.1283120" lon="10.4660860">
	<ele>2312.80</ele>
	<time>2023-08-07T13:21:05.000Z</time>
</trkpt>
<trkpt lat="46.1283060" lon="10.4660780">
	<ele>2312.80</ele>
	<time>2023-08-07T13:21:06.000Z</time>
</trkpt>
<trkpt lat="46.1283030" lon="10.4660690">
	<ele>2312.60</ele>
	<time>2023-08-07T13:21:07.000Z</time>
</trkpt>
<trkpt lat="46.1283010" lon="10.4660630">
	<ele>2312.40</ele>
	<time>2023-08-07T13:21:08.000Z</time>
</trkpt>
<trkpt lat="46.1282990" lon="10.4660550">
	<ele>2312.40</ele>
	<time>2023-08-07T13:21:09.000Z</time>
</trkpt>
<trkpt lat="46.1283020" lon="10.4660430">
	<ele>2312.20</ele>
	<time>2023-08-07T13:21:10.000Z</time>
</trkpt>
<trkpt lat="46.1282990" lon="10.4660360">
	<ele>2312.20</ele>
	<time>2023-08-07T13:21:11.000Z</time>
</trkpt>
<trkpt lat="46.1282940" lon="10.4660320">
	<ele>2312.00</ele>
	<time>2023-08-07T13:21:12.000Z</time>
</trkpt>
<trkpt lat="46.1282920" lon="10.4660250">
	<ele>2311.80</ele>
	<time>2023-08-07T13:21:13.000Z</time>
</trkpt>
<trkpt lat="46.1282920" lon="10.4660170">
	<ele>2311.80</ele>
	<time>2023-08-07T13:21:14.000Z</time>
</trkpt>
<trkpt lat="46.1282900" lon="10.4660120">
	<ele>2311.80</ele>
	<time>2023-08-07T13:21:15.000Z</time>
</trkpt>
<trkpt lat="46.1282920" lon="10.4660050">
	<ele>2311.80</ele>
	<time>2023-08-07T13:21:16.000Z</time>
</trkpt>
<trkpt lat="46.1282890" lon="10.4659990">
	<ele>2311.80</ele>
	<time>2023-08-07T13:21:17.000Z</time>
</trkpt>
<trkpt lat="46.1282890" lon="10.4659910">
	<ele>2311.80</ele>
	<time>2023-08-07T13:21:18.000Z</time>
</trkpt>
<trkpt lat="46.1282860" lon="10.4659820">
	<ele>2311.80</ele>
	<time>2023-08-07T13:21:19.000Z</time>
</trkpt>
<trkpt lat="46.1282840" lon="10.4659750">
	<ele>2311.80</ele>
	<time>2023-08-07T13:21:20.000Z</time>
</trkpt>
<trkpt lat="46.1282830" lon="10.4659710">
	<ele>2311.80</ele>
	<time>2023-08-07T13:21:21.000Z</time>
</trkpt>
<trkpt lat="46.1282810" lon="10.4659670">
	<ele>2311.80</ele>
	<time>2023-08-07T13:21:22.000Z</time>
</trkpt>
<trkpt lat="46.1282750" lon="10.4659570">
	<ele>2311.80</ele>
	<time>2023-08-07T13:21:23.000Z</time>
</trkpt>
<trkpt lat="46.1282720" lon="10.4659440">
	<ele>2311.80</ele>
	<time>2023-08-07T13:21:24.000Z</time>
</trkpt>
<trkpt lat="46.1282710" lon="10.4659360">
	<ele>2311.80</ele>
	<time>2023-08-07T13:21:25.000Z</time>
</trkpt>
<trkpt lat="46.1282700" lon="10.4659310">
	<ele>2311.60</ele>
	<time>2023-08-07T13:21:26.000Z</time>
</trkpt>
<trkpt lat="46.1282650" lon="10.4659270">
	<ele>2311.60</ele>
	<time>2023-08-07T13:21:27.000Z</time>
</trkpt>
<trkpt lat="46.1282580" lon="10.4659240">
	<ele>2311.60</ele>
	<time>2023-08-07T13:21:28.000Z</time>
</trkpt>
<trkpt lat="46.1282540" lon="10.4659140">
	<ele>2311.40</ele>
	<time>2023-08-07T13:21:29.000Z</time>
</trkpt>
<trkpt lat="46.1282520" lon="10.4659090">
	<ele>2311.40</ele>
	<time>2023-08-07T13:21:30.000Z</time>
</trkpt>
<trkpt lat="46.1282540" lon="10.4658980">
	<ele>2311.40</ele>
	<time>2023-08-07T13:21:31.000Z</time>
</trkpt>
<trkpt lat="46.1282550" lon="10.4658910">
	<ele>2311.20</ele>
	<time>2023-08-07T13:21:32.000Z</time>
</trkpt>
<trkpt lat="46.1282560" lon="10.4658870">
	<ele>2311.20</ele>
	<time>2023-08-07T13:21:33.000Z</time>
</trkpt>
<trkpt lat="46.1282590" lon="10.4658790">
	<ele>2311.00</ele>
	<time>2023-08-07T13:21:34.000Z</time>
</trkpt>
<trkpt lat="46.1282620" lon="10.4658750">
	<ele>2311.00</ele>
	<time>2023-08-07T13:21:35.000Z</time>
</trkpt>
<trkpt lat="46.1282640" lon="10.4658710">
	<ele>2311.00</ele>
	<time>2023-08-07T13:21:36.000Z</time>
</trkpt>
<trkpt lat="46.1282670" lon="10.4658670">
	<ele>2310.80</ele>
	<time>2023-08-07T13:21:37.000Z</time>
</trkpt>
<trkpt lat="46.1282690" lon="10.4658620">
	<ele>2310.60</ele>
	<time>2023-08-07T13:21:38.000Z</time>
</trkpt>
<trkpt lat="46.1282700" lon="10.4658590">
	<ele>2310.40</ele>
	<time>2023-08-07T13:21:39.000Z</time>
</trkpt>
<trkpt lat="46.1282700" lon="10.4658570">
	<ele>2310.20</ele>
	<time>2023-08-07T13:21:40.000Z</time>
</trkpt>
<trkpt lat="46.1282670" lon="10.4658560">
	<ele>2310.20</ele>
	<time>2023-08-07T13:21:41.000Z</time>
</trkpt>
<trkpt lat="46.1282630" lon="10.4658530">
	<ele>2310.00</ele>
	<time>2023-08-07T13:21:42.000Z</time>
</trkpt>
<trkpt lat="46.1282590" lon="10.4658520">
	<ele>2309.80</ele>
	<time>2023-08-07T13:21:43.000Z</time>
</trkpt>
<trkpt lat="46.1282580" lon="10.4658450">
	<ele>2309.80</ele>
	<time>2023-08-07T13:21:44.000Z</time>
</trkpt>
<trkpt lat="46.1282570" lon="10.4658390">
	<ele>2309.80</ele>
	<time>2023-08-07T13:21:45.000Z</time>
</trkpt>
<trkpt lat="46.1282570" lon="10.4658350">
	<ele>2310.00</ele>
	<time>2023-08-07T13:21:46.000Z</time>
</trkpt>
<trkpt lat="46.1282570" lon="10.4658290">
	<ele>2309.80</ele>
	<time>2023-08-07T13:21:47.000Z</time>
</trkpt>
<trkpt lat="46.1282550" lon="10.4658250">
	<ele>2309.80</ele>
	<time>2023-08-07T13:21:48.000Z</time>
</trkpt>
<trkpt lat="46.1282520" lon="10.4658250">
	<ele>2309.60</ele>
	<time>2023-08-07T13:21:49.000Z</time>
</trkpt>
<trkpt lat="46.1282500" lon="10.4658230">
	<ele>2309.60</ele>
	<time>2023-08-07T13:21:50.000Z</time>
</trkpt>
<trkpt lat="46.1282530" lon="10.4658150">
	<ele>2309.60</ele>
	<time>2023-08-07T13:21:51.000Z</time>
</trkpt>
<trkpt lat="46.1282550" lon="10.4658070">
	<ele>2309.40</ele>
	<time>2023-08-07T13:21:52.000Z</time>
</trkpt>
<trkpt lat="46.1282510" lon="10.4658030">
	<ele>2309.40</ele>
	<time>2023-08-07T13:21:53.000Z</time>
</trkpt>
<trkpt lat="46.1282500" lon="10.4657970">
	<ele>2309.60</ele>
	<time>2023-08-07T13:21:54.000Z</time>
</trkpt>
<trkpt lat="46.1282470" lon="10.4657900">
	<ele>2309.60</ele>
	<time>2023-08-07T13:21:55.000Z</time>
</trkpt>
<trkpt lat="46.1282480" lon="10.4657770">
	<ele>2309.60</ele>
	<time>2023-08-07T13:21:56.000Z</time>
</trkpt>
<trkpt lat="46.1282470" lon="10.4657640">
	<ele>2309.40</ele>
	<time>2023-08-07T13:21:57.000Z</time>
</trkpt>
<trkpt lat="46.1282500" lon="10.4657490">
	<ele>2309.40</ele>
	<time>2023-08-07T13:21:58.000Z</time>
</trkpt>
<trkpt lat="46.1282510" lon="10.4657440">
	<ele>2309.20</ele>
	<time>2023-08-07T13:21:59.000Z</time>
</trkpt>
<trkpt lat="46.1282500" lon="10.4657440">
	<ele>2309.00</ele>
	<time>2023-08-07T13:22:00.000Z</time>
</trkpt>
<trkpt lat="46.1282470" lon="10.4657460">
	<ele>2309.00</ele>
	<time>2023-08-07T13:22:01.000Z</time>
</trkpt>
<trkpt lat="46.1282470" lon="10.4657470">
	<ele>2308.80</ele>
	<time>2023-08-07T13:22:02.000Z</time>
</trkpt>
<trkpt lat="46.1282480" lon="10.4657450">
	<ele>2308.80</ele>
	<time>2023-08-07T13:22:03.000Z</time>
</trkpt>
<trkpt lat="46.1282500" lon="10.4657420">
	<ele>2308.80</ele>
	<time>2023-08-07T13:22:04.000Z</time>
</trkpt>
<trkpt lat="46.1282510" lon="10.4657360">
	<ele>2308.80</ele>
	<time>2023-08-07T13:22:05.000Z</time>
</trkpt>
<trkpt lat="46.1282500" lon="10.4657290">
	<ele>2308.80</ele>
	<time>2023-08-07T13:22:06.000Z</time>
</trkpt>
<trkpt lat="46.1282520" lon="10.4657220">
	<ele>2308.80</ele>
	<time>2023-08-07T13:22:07.000Z</time>
</trkpt>
<trkpt lat="46.1282550" lon="10.4657120">
	<ele>2308.80</ele>
	<time>2023-08-07T13:22:08.000Z</time>
</trkpt>
<trkpt lat="46.1282560" lon="10.4657040">
	<ele>2308.80</ele>
	<time>2023-08-07T13:22:09.000Z</time>
</trkpt>
<trkpt lat="46.1282610" lon="10.4656960">
	<ele>2308.60</ele>
	<time>2023-08-07T13:22:10.000Z</time>
</trkpt>
<trkpt lat="46.1282660" lon="10.4656920">
	<ele>2308.40</ele>
	<time>2023-08-07T13:22:11.000Z</time>
</trkpt>
<trkpt lat="46.1282690" lon="10.4656910">
	<ele>2307.80</ele>
	<time>2023-08-07T13:22:12.000Z</time>
</trkpt>
<trkpt lat="46.1282730" lon="10.4656890">
	<ele>2307.20</ele>
	<time>2023-08-07T13:22:13.000Z</time>
</trkpt>
<trkpt lat="46.1282750" lon="10.4656830">
	<ele>2306.80</ele>
	<time>2023-08-07T13:22:14.000Z</time>
</trkpt>
<trkpt lat="46.1282770" lon="10.4656780">
	<ele>2306.40</ele>
	<time>2023-08-07T13:22:15.000Z</time>
</trkpt>
<trkpt lat="46.1282790" lon="10.4656740">
	<ele>2306.20</ele>
	<time>2023-08-07T13:22:16.000Z</time>
</trkpt>
<trkpt lat="46.1282810" lon="10.4656720">
	<ele>2306.20</ele>
	<time>2023-08-07T13:22:17.000Z</time>
</trkpt>
<trkpt lat="46.1282830" lon="10.4656680">
	<ele>2306.40</ele>
	<time>2023-08-07T13:22:18.000Z</time>
</trkpt>
<trkpt lat="46.1282810" lon="10.4656580">
	<ele>2306.40</ele>
	<time>2023-08-07T13:22:19.000Z</time>
</trkpt>
<trkpt lat="46.1282810" lon="10.4656490">
	<ele>2306.60</ele>
	<time>2023-08-07T13:22:20.000Z</time>
</trkpt>
<trkpt lat="46.1282800" lon="10.4656420">
	<ele>2306.80</ele>
	<time>2023-08-07T13:22:21.000Z</time>
</trkpt>
<trkpt lat="46.1282820" lon="10.4656360">
	<ele>2306.80</ele>
	<time>2023-08-07T13:22:22.000Z</time>
</trkpt>
<trkpt lat="46.1282870" lon="10.4656310">
	<ele>2306.80</ele>
	<time>2023-08-07T13:22:23.000Z</time>
</trkpt>
<trkpt lat="46.1282880" lon="10.4656280">
	<ele>2306.80</ele>
	<time>2023-08-07T13:22:24.000Z</time>
</trkpt>
<trkpt lat="46.1282860" lon="10.4656240">
	<ele>2306.80</ele>
	<time>2023-08-07T13:22:25.000Z</time>
</trkpt>
<trkpt lat="46.1282840" lon="10.4656200">
	<ele>2306.60</ele>
	<time>2023-08-07T13:22:26.000Z</time>
</trkpt>
<trkpt lat="46.1282840" lon="10.4656170">
	<ele>2306.20</ele>
	<time>2023-08-07T13:22:27.000Z</time>
</trkpt>
<trkpt lat="46.1282850" lon="10.4656100">
	<ele>2305.80</ele>
	<time>2023-08-07T13:22:28.000Z</time>
</trkpt>
<trkpt lat="46.1282840" lon="10.4656040">
	<ele>2305.60</ele>
	<time>2023-08-07T13:22:29.000Z</time>
</trkpt>
<trkpt lat="46.1282840" lon="10.4656000">
	<ele>2305.40</ele>
	<time>2023-08-07T13:22:30.000Z</time>
</trkpt>
<trkpt lat="46.1282800" lon="10.4655940">
	<ele>2305.40</ele>
	<time>2023-08-07T13:22:31.000Z</time>
</trkpt>
<trkpt lat="46.1282780" lon="10.4655880">
	<ele>2305.00</ele>
	<time>2023-08-07T13:22:32.000Z</time>
</trkpt>
<trkpt lat="46.1282760" lon="10.4655850">
	<ele>2305.00</ele>
	<time>2023-08-07T13:22:33.000Z</time>
</trkpt>
<trkpt lat="46.1282740" lon="10.4655800">
	<ele>2304.80</ele>
	<time>2023-08-07T13:22:34.000Z</time>
</trkpt>
<trkpt lat="46.1282720" lon="10.4655750">
	<ele>2304.80</ele>
	<time>2023-08-07T13:22:35.000Z</time>
</trkpt>
<trkpt lat="46.1282680" lon="10.4655700">
	<ele>2304.60</ele>
	<time>2023-08-07T13:22:36.000Z</time>
</trkpt>
<trkpt lat="46.1282670" lon="10.4655640">
	<ele>2304.60</ele>
	<time>2023-08-07T13:22:37.000Z</time>
</trkpt>
<trkpt lat="46.1282650" lon="10.4655580">
	<ele>2304.80</ele>
	<time>2023-08-07T13:22:38.000Z</time>
</trkpt>
<trkpt lat="46.1282660" lon="10.4655520">
	<ele>2304.80</ele>
	<time>2023-08-07T13:22:39.000Z</time>
</trkpt>
<trkpt lat="46.1282680" lon="10.4655440">
	<ele>2304.80</ele>
	<time>2023-08-07T13:22:40.000Z</time>
</trkpt>
<trkpt lat="46.1282640" lon="10.4655390">
	<ele>2304.80</ele>
	<time>2023-08-07T13:22:41.000Z</time>
</trkpt>
<trkpt lat="46.1282610" lon="10.4655350">
	<ele>2304.20</ele>
	<time>2023-08-07T13:22:42.000Z</time>
</trkpt>
<trkpt lat="46.1282630" lon="10.4655310">
	<ele>2303.80</ele>
	<time>2023-08-07T13:22:43.000Z</time>
</trkpt>
<trkpt lat="46.1282630" lon="10.4655240">
	<ele>2303.60</ele>
	<time>2023-08-07T13:22:44.000Z</time>
</trkpt>
<trkpt lat="46.1282590" lon="10.4655160">
	<ele>2303.40</ele>
	<time>2023-08-07T13:22:45.000Z</time>
</trkpt>
<trkpt lat="46.1282550" lon="10.4655090">
	<ele>2303.20</ele>
	<time>2023-08-07T13:22:46.000Z</time>
</trkpt>
<trkpt lat="46.1282540" lon="10.4655030">
	<ele>2303.20</ele>
	<time>2023-08-07T13:22:47.000Z</time>
</trkpt>
<trkpt lat="46.1282560" lon="10.4654940">
	<ele>2303.20</ele>
	<time>2023-08-07T13:22:48.000Z</time>
</trkpt>
<trkpt lat="46.1282570" lon="10.4654850">
	<ele>2303.40</ele>
	<time>2023-08-07T13:22:49.000Z</time>
</trkpt>
<trkpt lat="46.1282580" lon="10.4654800">
	<ele>2303.40</ele>
	<time>2023-08-07T13:22:50.000Z</time>
</trkpt>
<trkpt lat="46.1282510" lon="10.4654760">
	<ele>2303.60</ele>
	<time>2023-08-07T13:22:51.000Z</time>
</trkpt>
<trkpt lat="46.1282490" lon="10.4654720">
	<ele>2303.60</ele>
	<time>2023-08-07T13:22:52.000Z</time>
</trkpt>
<trkpt lat="46.1282480" lon="10.4654700">
	<ele>2303.60</ele>
	<time>2023-08-07T13:22:53.000Z</time>
</trkpt>
<trkpt lat="46.1282470" lon="10.4654650">
	<ele>2303.40</ele>
	<time>2023-08-07T13:22:54.000Z</time>
</trkpt>
<trkpt lat="46.1282470" lon="10.4654650">
	<ele>2303.20</ele>
	<time>2023-08-07T13:22:55.000Z</time>
</trkpt>
<trkpt lat="46.1282460" lon="10.4654630">
	<ele>2303.00</ele>
	<time>2023-08-07T13:22:56.000Z</time>
</trkpt>
<trkpt lat="46.1282410" lon="10.4654590">
	<ele>2302.80</ele>
	<time>2023-08-07T13:22:57.000Z</time>
</trkpt>
<trkpt lat="46.1282380" lon="10.4654510">
	<ele>2302.80</ele>
	<time>2023-08-07T13:22:58.000Z</time>
</trkpt>
<trkpt lat="46.1282370" lon="10.4654410">
	<ele>2302.60</ele>
	<time>2023-08-07T13:22:59.000Z</time>
</trkpt>
<trkpt lat="46.1282380" lon="10.4654340">
	<ele>2302.40</ele>
	<time>2023-08-07T13:23:00.000Z</time>
</trkpt>
<trkpt lat="46.1282420" lon="10.4654270">
	<ele>2302.20</ele>
	<time>2023-08-07T13:23:01.000Z</time>
</trkpt>
<trkpt lat="46.1282430" lon="10.4654210">
	<ele>2302.20</ele>
	<time>2023-08-07T13:23:02.000Z</time>
</trkpt>
<trkpt lat="46.1282400" lon="10.4654140">
	<ele>2302.20</ele>
	<time>2023-08-07T13:23:03.000Z</time>
</trkpt>
<trkpt lat="46.1282390" lon="10.4654080">
	<ele>2302.20</ele>
	<time>2023-08-07T13:23:04.000Z</time>
</trkpt>
<trkpt lat="46.1282390" lon="10.4654010">
	<ele>2302.20</ele>
	<time>2023-08-07T13:23:05.000Z</time>
</trkpt>
<trkpt lat="46.1282410" lon="10.4653930">
	<ele>2302.20</ele>
	<time>2023-08-07T13:23:06.000Z</time>
</trkpt>
<trkpt lat="46.1282430" lon="10.4653800">
	<ele>2302.20</ele>
	<time>2023-08-07T13:23:07.000Z</time>
</trkpt>
<trkpt lat="46.1282470" lon="10.4653680">
	<ele>2302.20</ele>
	<time>2023-08-07T13:23:08.000Z</time>
</trkpt>
<trkpt lat="46.1282500" lon="10.4653600">
	<ele>2302.20</ele>
	<time>2023-08-07T13:23:09.000Z</time>
</trkpt>
<trkpt lat="46.1282520" lon="10.4653550">
	<ele>2302.20</ele>
	<time>2023-08-07T13:23:10.000Z</time>
</trkpt>
<trkpt lat="46.1282550" lon="10.4653470">
	<ele>2302.00</ele>
	<time>2023-08-07T13:23:11.000Z</time>
</trkpt>
<trkpt lat="46.1282550" lon="10.4653430">
	<ele>2302.00</ele>
	<time>2023-08-07T13:23:12.000Z</time>
</trkpt>
<trkpt lat="46.1282550" lon="10.4653360">
	<ele>2302.00</ele>
	<time>2023-08-07T13:23:13.000Z</time>
</trkpt>
<trkpt lat="46.1282500" lon="10.4653290">
	<ele>2301.60</ele>
	<time>2023-08-07T13:23:14.000Z</time>
</trkpt>
<trkpt lat="46.1282510" lon="10.4653230">
	<ele>2301.40</ele>
	<time>2023-08-07T13:23:15.000Z</time>
</trkpt>
<trkpt lat="46.1282530" lon="10.4653190">
	<ele>2301.40</ele>
	<time>2023-08-07T13:23:16.000Z</time>
</trkpt>
<trkpt lat="46.1282550" lon="10.4653140">
	<ele>2301.20</ele>
	<time>2023-08-07T13:23:17.000Z</time>
</trkpt>
<trkpt lat="46.1282560" lon="10.4653130">
	<ele>2301.00</ele>
	<time>2023-08-07T13:23:18.000Z</time>
</trkpt>
<trkpt lat="46.1282510" lon="10.4653120">
	<ele>2301.00</ele>
	<time>2023-08-07T13:23:19.000Z</time>
</trkpt>
<trkpt lat="46.1282450" lon="10.4653110">
	<ele>2301.00</ele>
	<time>2023-08-07T13:23:20.000Z</time>
</trkpt>
<trkpt lat="46.1282440" lon="10.4653120">
	<ele>2301.00</ele>
	<time>2023-08-07T13:23:21.000Z</time>
</trkpt>
<trkpt lat="46.1282460" lon="10.4653110">
	<ele>2301.00</ele>
	<time>2023-08-07T13:23:22.000Z</time>
</trkpt>
<trkpt lat="46.1282500" lon="10.4653110">
	<ele>2301.00</ele>
	<time>2023-08-07T13:23:23.000Z</time>
</trkpt>
<trkpt lat="46.1282520" lon="10.4653110">
	<ele>2301.00</ele>
	<time>2023-08-07T13:23:24.000Z</time>
</trkpt>
<trkpt lat="46.1282530" lon="10.4653110">
	<ele>2301.00</ele>
	<time>2023-08-07T13:23:25.000Z</time>
</trkpt>
<trkpt lat="46.1282550" lon="10.4653120">
	<ele>2301.20</ele>
	<time>2023-08-07T13:23:26.000Z</time>
</trkpt>
<trkpt lat="46.1282570" lon="10.4653120">
	<ele>2301.20</ele>
	<time>2023-08-07T13:23:27.000Z</time>
</trkpt>
<trkpt lat="46.1282590" lon="10.4653140">
	<ele>2301.20</ele>
	<time>2023-08-07T13:23:28.000Z</time>
</trkpt>
<trkpt lat="46.1282600" lon="10.4653160">
	<ele>2301.20</ele>
	<time>2023-08-07T13:23:29.000Z</time>
</trkpt>
<trkpt lat="46.1282600" lon="10.4653200">
	<ele>2301.40</ele>
	<time>2023-08-07T13:23:30.000Z</time>
</trkpt>
<trkpt lat="46.1282590" lon="10.4653230">
	<ele>2301.40</ele>
	<time>2023-08-07T13:23:31.000Z</time>
</trkpt>
<trkpt lat="46.1282590" lon="10.4653240">
	<ele>2301.60</ele>
	<time>2023-08-07T13:23:32.000Z</time>
</trkpt>
<trkpt lat="46.1282590" lon="10.4653240">
	<ele>2301.60</ele>
	<time>2023-08-07T13:23:33.000Z</time>
</trkpt>
<trkpt lat="46.1282610" lon="10.4653240">
	<ele>2301.60</ele>
	<time>2023-08-07T13:23:34.000Z</time>
</trkpt>
<trkpt lat="46.1282620" lon="10.4653240">
	<ele>2301.60</ele>
	<time>2023-08-07T13:23:35.000Z</time>
</trkpt>
<trkpt lat="46.1282620" lon="10.4653210">
	<ele>2301.60</ele>
	<time>2023-08-07T13:23:36.000Z</time>
</trkpt>
<trkpt lat="46.1282640" lon="10.4653190">
	<ele>2301.60</ele>
	<time>2023-08-07T13:23:37.000Z</time>
</trkpt>
<trkpt lat="46.1282660" lon="10.4653180">
	<ele>2301.40</ele>
	<time>2023-08-07T13:23:38.000Z</time>
</trkpt>
<trkpt lat="46.1282680" lon="10.4653170">
	<ele>2301.40</ele>
	<time>2023-08-07T13:23:39.000Z</time>
</trkpt>
<trkpt lat="46.1282680" lon="10.4653190">
	<ele>2301.20</ele>
	<time>2023-08-07T13:23:40.000Z</time>
</trkpt>
<trkpt lat="46.1282680" lon="10.4653190">
	<ele>2300.60</ele>
	<time>2023-08-07T13:23:41.000Z</time>
</trkpt>
<trkpt lat="46.1282680" lon="10.4653190">
	<ele>2300.40</ele>
	<time>2023-08-07T13:23:42.000Z</time>
</trkpt>
<trkpt lat="46.1282680" lon="10.4653190">
	<ele>2300.40</ele>
	<time>2023-08-07T13:23:43.000Z</time>
</trkpt>
<trkpt lat="46.1282680" lon="10.4653190">
	<ele>2300.20</ele>
	<time>2023-08-07T13:23:44.000Z</time>
</trkpt>
<trkpt lat="46.1282680" lon="10.4653190">
	<ele>2300.40</ele>
	<time>2023-08-07T13:23:45.000Z</time>
</trkpt>
<trkpt lat="46.1282680" lon="10.4653190">
	<ele>2300.60</ele>
	<time>2023-08-07T13:23:46.000Z</time>
</trkpt>
<trkpt lat="46.1282680" lon="10.4653190">
	<ele>2300.60</ele>
	<time>2023-08-07T13:23:47.000Z</time>
</trkpt>
<trkpt lat="46.1282680" lon="10.4653190">
	<ele>2300.60</ele>
	<time>2023-08-07T13:23:48.000Z</time>
</trkpt>
<trkpt lat="46.1282680" lon="10.4653190">
	<ele>2300.80</ele>
	<time>2023-08-07T13:23:49.000Z</time>
</trkpt>
<trkpt lat="46.1282680" lon="10.4653190">
	<ele>2300.80</ele>
	<time>2023-08-07T13:23:50.000Z</time>
</trkpt>
<trkpt lat="46.1282680" lon="10.4653190">
	<ele>2300.60</ele>
	<time>2023-08-07T13:23:51.000Z</time>
</trkpt>
<trkpt lat="46.1282680" lon="10.4653190">
	<ele>2300.60</ele>
	<time>2023-08-07T13:23:52.000Z</time>
</trkpt>
<trkpt lat="46.1282680" lon="10.4653200">
	<ele>2300.60</ele>
	<time>2023-08-07T13:23:53.000Z</time>
</trkpt>
<trkpt lat="46.1282680" lon="10.4653200">
	<ele>2300.40</ele>
	<time>2023-08-07T13:23:54.000Z</time>
</trkpt>
<trkpt lat="46.1282680" lon="10.4653210">
	<ele>2300.40</ele>
	<time>2023-08-07T13:23:55.000Z</time>
</trkpt>
<trkpt lat="46.1282680" lon="10.4653210">
	<ele>2300.40</ele>
	<time>2023-08-07T13:23:56.000Z</time>
</trkpt>
<trkpt lat="46.1282680" lon="10.4653210">
	<ele>2300.40</ele>
	<time>2023-08-07T13:23:57.000Z</time>
</trkpt>
<trkpt lat="46.1282680" lon="10.4653210">
	<ele>2300.40</ele>
	<time>2023-08-07T13:23:58.000Z</time>
</trkpt>
<trkpt lat="46.1282680" lon="10.4653210">
	<ele>2300.40</ele>
	<time>2023-08-07T13:23:59.000Z</time>
</trkpt>
<trkpt lat="46.1282680" lon="10.4653210">
	<ele>2300.60</ele>
	<time>2023-08-07T13:24:00.000Z</time>
</trkpt>
<trkpt lat="46.1282690" lon="10.4653210">
	<ele>2300.60</ele>
	<time>2023-08-07T13:24:01.000Z</time>
</trkpt>
<trkpt lat="46.1282700" lon="10.4653210">
	<ele>2300.80</ele>
	<time>2023-08-07T13:24:02.000Z</time>
</trkpt>
<trkpt lat="46.1282710" lon="10.4653200">
	<ele>2300.80</ele>
	<time>2023-08-07T13:24:03.000Z</time>
</trkpt>
<trkpt lat="46.1282710" lon="10.4653200">
	<ele>2300.80</ele>
	<time>2023-08-07T13:24:04.000Z</time>
</trkpt>
<trkpt lat="46.1282720" lon="10.4653190">
	<ele>2300.80</ele>
	<time>2023-08-07T13:24:05.000Z</time>
</trkpt>
<trkpt lat="46.1282720" lon="10.4653190">
	<ele>2300.80</ele>
	<time>2023-08-07T13:24:06.000Z</time>
</trkpt>
<trkpt lat="46.1282730" lon="10.4653190">
	<ele>2301.00</ele>
	<time>2023-08-07T13:24:07.000Z</time>
</trkpt>
<trkpt lat="46.1282730" lon="10.4653190">
	<ele>2301.00</ele>
	<time>2023-08-07T13:24:08.000Z</time>
</trkpt>
<trkpt lat="46.1282730" lon="10.4653190">
	<ele>2301.00</ele>
	<time>2023-08-07T13:24:09.000Z</time>
</trkpt>
<trkpt lat="46.1282730" lon="10.4653180">
	<ele>2300.80</ele>
	<time>2023-08-07T13:24:10.000Z</time>
</trkpt>
<trkpt lat="46.1282730" lon="10.4653160">
	<ele>2300.80</ele>
	<time>2023-08-07T13:24:11.000Z</time>
</trkpt>
<trkpt lat="46.1282730" lon="10.4653150">
	<ele>2300.80</ele>
	<time>2023-08-07T13:24:12.000Z</time>
</trkpt>
<trkpt lat="46.1282730" lon="10.4653110">
	<ele>2300.80</ele>
	<time>2023-08-07T13:24:13.000Z</time>
</trkpt>
<trkpt lat="46.1282730" lon="10.4653070">
	<ele>2300.80</ele>
	<time>2023-08-07T13:24:14.000Z</time>
</trkpt>
<trkpt lat="46.1282730" lon="10.4653010">
	<ele>2300.80</ele>
	<time>2023-08-07T13:24:15.000Z</time>
</trkpt>
<trkpt lat="46.1282730" lon="10.4652950">
	<ele>2301.00</ele>
	<time>2023-08-07T13:24:16.000Z</time>
</trkpt>
<trkpt lat="46.1282730" lon="10.4652930">
	<ele>2301.00</ele>
	<time>2023-08-07T13:24:17.000Z</time>
</trkpt>
<trkpt lat="46.1282730" lon="10.4652900">
	<ele>2301.00</ele>
	<time>2023-08-07T13:24:18.000Z</time>
</trkpt>
<trkpt lat="46.1282730" lon="10.4652900">
	<ele>2301.00</ele>
	<time>2023-08-07T13:24:19.000Z</time>
</trkpt>
<trkpt lat="46.1282720" lon="10.4652880">
	<ele>2301.00</ele>
	<time>2023-08-07T13:24:20.000Z</time>
</trkpt>
<trkpt lat="46.1282730" lon="10.4652870">
	<ele>2301.00</ele>
	<time>2023-08-07T13:24:21.000Z</time>
</trkpt>
<trkpt lat="46.1282730" lon="10.4652860">
	<ele>2301.20</ele>
	<time>2023-08-07T13:24:22.000Z</time>
</trkpt>
<trkpt lat="46.1282730" lon="10.4652860">
	<ele>2301.20</ele>
	<time>2023-08-07T13:24:23.000Z</time>
</trkpt>
<trkpt lat="46.1282730" lon="10.4652850">
	<ele>2301.20</ele>
	<time>2023-08-07T13:24:24.000Z</time>
</trkpt>
<trkpt lat="46.1282730" lon="10.4652840">
	<ele>2301.00</ele>
	<time>2023-08-07T13:24:25.000Z</time>
</trkpt>
<trkpt lat="46.1282730" lon="10.4652830">
	<ele>2301.00</ele>
	<time>2023-08-07T13:24:26.000Z</time>
</trkpt>
<trkpt lat="46.1282730" lon="10.4652820">
	<ele>2301.00</ele>
	<time>2023-08-07T13:24:27.000Z</time>
</trkpt>
<trkpt lat="46.1282730" lon="10.4652810">
	<ele>2301.00</ele>
	<time>2023-08-07T13:24:28.000Z</time>
</trkpt>
<trkpt lat="46.1282730" lon="10.4652810">
	<ele>2301.00</ele>
	<time>2023-08-07T13:24:29.000Z</time>
</trkpt>
<trkpt lat="46.1282730" lon="10.4652810">
	<ele>2301.00</ele>
	<time>2023-08-07T13:24:30.000Z</time>
</trkpt>
<trkpt lat="46.1282730" lon="10.4652800">
	<ele>2301.00</ele>
	<time>2023-08-07T13:24:31.000Z</time>
</trkpt>
<trkpt lat="46.1282730" lon="10.4652800">
	<ele>2301.40</ele>
	<time>2023-08-07T13:24:32.000Z</time>
</trkpt>
<trkpt lat="46.1282730" lon="10.4652800">
	<ele>2301.40</ele>
	<time>2023-08-07T13:24:33.000Z</time>
</trkpt>
<trkpt lat="46.1282730" lon="10.4652790">
	<ele>2301.40</ele>
	<time>2023-08-07T13:24:34.000Z</time>
</trkpt>
<trkpt lat="46.1282740" lon="10.4652790">
	<ele>2301.40</ele>
	<time>2023-08-07T13:24:35.000Z</time>
</trkpt>
<trkpt lat="46.1282740" lon="10.4652790">
	<ele>2301.40</ele>
	<time>2023-08-07T13:24:36.000Z</time>
</trkpt>
<trkpt lat="46.1282740" lon="10.4652780">
	<ele>2301.40</ele>
	<time>2023-08-07T13:24:37.000Z</time>
</trkpt>
<trkpt lat="46.1282740" lon="10.4652780">
	<ele>2301.40</ele>
	<time>2023-08-07T13:24:38.000Z</time>
</trkpt>
<trkpt lat="46.1282740" lon="10.4652790">
	<ele>2301.40</ele>
	<time>2023-08-07T13:24:39.000Z</time>
</trkpt>
<trkpt lat="46.1282740" lon="10.4652790">
	<ele>2301.40</ele>
	<time>2023-08-07T13:24:40.000Z</time>
</trkpt>
<trkpt lat="46.1282740" lon="10.4652790">
	<ele>2301.40</ele>
	<time>2023-08-07T13:24:41.000Z</time>
</trkpt>
<trkpt lat="46.1282740" lon="10.4652800">
	<ele>2301.40</ele>
	<time>2023-08-07T13:24:42.000Z</time>
</trkpt>
<trkpt lat="46.1282740" lon="10.4652800">
	<ele>2301.40</ele>
	<time>2023-08-07T13:24:43.000Z</time>
</trkpt>
<trkpt lat="46.1282740" lon="10.4652800">
	<ele>2301.40</ele>
	<time>2023-08-07T13:24:44.000Z</time>
</trkpt>
<trkpt lat="46.1282740" lon="10.4652800">
	<ele>2301.40</ele>
	<time>2023-08-07T13:24:45.000Z</time>
</trkpt>
<trkpt lat="46.1282740" lon="10.4652800">
	<ele>2301.40</ele>
	<time>2023-08-07T13:24:46.000Z</time>
</trkpt>
<trkpt lat="46.1282740" lon="10.4652800">
	<ele>2301.40</ele>
	<time>2023-08-07T13:24:47.000Z</time>
</trkpt>
<trkpt lat="46.1282780" lon="10.4652790">
	<ele>2301.40</ele>
	<time>2023-08-07T13:24:48.000Z</time>
</trkpt>
<trkpt lat="46.1282780" lon="10.4652790">
	<ele>2301.40</ele>
	<time>2023-08-07T13:24:49.000Z</time>
</trkpt>
<trkpt lat="46.1282770" lon="10.4652810">
	<ele>2301.40</ele>
	<time>2023-08-07T13:24:50.000Z</time>
</trkpt>
<trkpt lat="46.1282770" lon="10.4652810">
	<ele>2301.40</ele>
	<time>2023-08-07T13:24:51.000Z</time>
</trkpt>
<trkpt lat="46.1282770" lon="10.4652810">
	<ele>2301.40</ele>
	<time>2023-08-07T13:24:52.000Z</time>
</trkpt>
<trkpt lat="46.1282770" lon="10.4652810">
	<ele>2301.40</ele>
	<time>2023-08-07T13:24:53.000Z</time>
</trkpt>
<trkpt lat="46.1282770" lon="10.4652810">
	<ele>2301.40</ele>
	<time>2023-08-07T13:24:54.000Z</time>
</trkpt>
<trkpt lat="46.1282770" lon="10.4652810">
	<ele>2301.40</ele>
	<time>2023-08-07T13:24:55.000Z</time>
</trkpt>
<trkpt lat="46.1282770" lon="10.4652810">
	<ele>2301.40</ele>
	<time>2023-08-07T13:24:56.000Z</time>
</trkpt>
<trkpt lat="46.1282740" lon="10.4652820">
	<ele>2301.40</ele>
	<time>2023-08-07T13:24:57.000Z</time>
</trkpt>
<trkpt lat="46.1282670" lon="10.4652800">
	<ele>2301.40</ele>
	<time>2023-08-07T13:24:58.000Z</time>
</trkpt>
<trkpt lat="46.1282630" lon="10.4652730">
	<ele>2301.40</ele>
	<time>2023-08-07T13:24:59.000Z</time>
</trkpt>
<trkpt lat="46.1282640" lon="10.4652650">
	<ele>2301.40</ele>
	<time>2023-08-07T13:25:00.000Z</time>
</trkpt>
<trkpt lat="46.1282640" lon="10.4652640">
	<ele>2301.40</ele>
	<time>2023-08-07T13:25:01.000Z</time>
</trkpt>
<trkpt lat="46.1282650" lon="10.4652610">
	<ele>2301.40</ele>
	<time>2023-08-07T13:25:02.000Z</time>
</trkpt>
<trkpt lat="46.1282640" lon="10.4652610">
	<ele>2301.40</ele>
	<time>2023-08-07T13:25:03.000Z</time>
</trkpt>
<trkpt lat="46.1282640" lon="10.4652600">
	<ele>2301.40</ele>
	<time>2023-08-07T13:25:04.000Z</time>
</trkpt>
<trkpt lat="46.1282630" lon="10.4652590">
	<ele>2301.40</ele>
	<time>2023-08-07T13:25:05.000Z</time>
</trkpt>
<trkpt lat="46.1282610" lon="10.4652600">
	<ele>2301.40</ele>
	<time>2023-08-07T13:25:06.000Z</time>
</trkpt>
<trkpt lat="46.1282610" lon="10.4652600">
	<ele>2301.40</ele>
	<time>2023-08-07T13:25:07.000Z</time>
</trkpt>
<trkpt lat="46.1282610" lon="10.4652600">
	<ele>2301.40</ele>
	<time>2023-08-07T13:25:08.000Z</time>
</trkpt>
<trkpt lat="46.1282610" lon="10.4652600">
	<ele>2301.40</ele>
	<time>2023-08-07T13:25:09.000Z</time>
</trkpt>
<trkpt lat="46.1282610" lon="10.4652600">
	<ele>2301.40</ele>
	<time>2023-08-07T13:25:10.000Z</time>
</trkpt>
<trkpt lat="46.1282610" lon="10.4652600">
	<ele>2301.40</ele>
	<time>2023-08-07T13:25:11.000Z</time>
</trkpt>
<trkpt lat="46.1282610" lon="10.4652600">
	<ele>2301.40</ele>
	<time>2023-08-07T13:25:12.000Z</time>
</trkpt>
<trkpt lat="46.1282610" lon="10.4652600">
	<ele>2301.40</ele>
	<time>2023-08-07T13:25:13.000Z</time>
</trkpt>
<trkpt lat="46.1282610" lon="10.4652600">
	<ele>2301.40</ele>
	<time>2023-08-07T13:25:14.000Z</time>
</trkpt>
<trkpt lat="46.1282610" lon="10.4652600">
	<ele>2301.40</ele>
	<time>2023-08-07T13:25:15.000Z</time>
</trkpt>
<trkpt lat="46.1282610" lon="10.4652600">
	<ele>2301.40</ele>
	<time>2023-08-07T13:25:16.000Z</time>
</trkpt>
<trkpt lat="46.1282610" lon="10.4652600">
	<ele>2301.40</ele>
	<time>2023-08-07T13:25:17.000Z</time>
</trkpt>
<trkpt lat="46.1282610" lon="10.4652600">
	<ele>2301.40</ele>
	<time>2023-08-07T13:25:18.000Z</time>
</trkpt>
<trkpt lat="46.1282610" lon="10.4652600">
	<ele>2301.40</ele>
	<time>2023-08-07T13:25:19.000Z</time>
</trkpt>
<trkpt lat="46.1282610" lon="10.4652600">
	<ele>2301.40</ele>
	<time>2023-08-07T13:25:20.000Z</time>
</trkpt>
<trkpt lat="46.1282610" lon="10.4652600">
	<ele>2301.40</ele>
	<time>2023-08-07T13:25:21.000Z</time>
</trkpt>
<trkpt lat="46.1282610" lon="10.4652570">
	<ele>2301.40</ele>
	<time>2023-08-07T13:25:22.000Z</time>
</trkpt>
<trkpt lat="46.1282610" lon="10.4652530">
	<ele>2301.40</ele>
	<time>2023-08-07T13:25:23.000Z</time>
</trkpt>
<trkpt lat="46.1282610" lon="10.4652510">
	<ele>2301.40</ele>
	<time>2023-08-07T13:25:24.000Z</time>
</trkpt>
<trkpt lat="46.1282610" lon="10.4652510">
	<ele>2301.40</ele>
	<time>2023-08-07T13:25:25.000Z</time>
</trkpt>
<trkpt lat="46.1282610" lon="10.4652510">
	<ele>2301.40</ele>
	<time>2023-08-07T13:25:26.000Z</time>
</trkpt>
<trkpt lat="46.1282610" lon="10.4652510">
	<ele>2301.40</ele>
	<time>2023-08-07T13:25:27.000Z</time>
</trkpt>
<trkpt lat="46.1282610" lon="10.4652510">
	<ele>2301.40</ele>
	<time>2023-08-07T13:25:28.000Z</time>
</trkpt>
<trkpt lat="46.1282610" lon="10.4652500">
	<ele>2301.40</ele>
	<time>2023-08-07T13:25:29.000Z</time>
</trkpt>
<trkpt lat="46.1282610" lon="10.4652490">
	<ele>2301.40</ele>
	<time>2023-08-07T13:25:30.000Z</time>
</trkpt>
<trkpt lat="46.1282610" lon="10.4652480">
	<ele>2301.40</ele>
	<time>2023-08-07T13:25:31.000Z</time>
</trkpt>
<trkpt lat="46.1282610" lon="10.4652480">
	<ele>2301.40</ele>
	<time>2023-08-07T13:25:32.000Z</time>
</trkpt>
<trkpt lat="46.1282620" lon="10.4652480">
	<ele>2301.40</ele>
	<time>2023-08-07T13:25:33.000Z</time>
</trkpt>
<trkpt lat="46.1282630" lon="10.4652480">
	<ele>2301.40</ele>
	<time>2023-08-07T13:25:34.000Z</time>
</trkpt>
<trkpt lat="46.1282630" lon="10.4652470">
	<ele>2301.40</ele>
	<time>2023-08-07T13:25:35.000Z</time>
</trkpt>
<trkpt lat="46.1282630" lon="10.4652450">
	<ele>2301.40</ele>
	<time>2023-08-07T13:25:36.000Z</time>
</trkpt>
<trkpt lat="46.1282630" lon="10.4652450">
	<ele>2301.40</ele>
	<time>2023-08-07T13:25:37.000Z</time>
</trkpt>
<trkpt lat="46.1282630" lon="10.4652450">
	<ele>2301.40</ele>
	<time>2023-08-07T13:25:38.000Z</time>
</trkpt>
<trkpt lat="46.1282630" lon="10.4652450">
	<ele>2301.40</ele>
	<time>2023-08-07T13:25:39.000Z</time>
</trkpt>
<trkpt lat="46.1282630" lon="10.4652420">
	<ele>2301.40</ele>
	<time>2023-08-07T13:25:40.000Z</time>
</trkpt>
<trkpt lat="46.1282630" lon="10.4652370">
	<ele>2301.40</ele>
	<time>2023-08-07T13:25:41.000Z</time>
</trkpt>
<trkpt lat="46.1282630" lon="10.4652320">
	<ele>2301.40</ele>
	<time>2023-08-07T13:25:42.000Z</time>
</trkpt>
<trkpt lat="46.1282630" lon="10.4652260">
	<ele>2301.40</ele>
	<time>2023-08-07T13:25:43.000Z</time>
</trkpt>
<trkpt lat="46.1282630" lon="10.4652210">
	<ele>2301.40</ele>
	<time>2023-08-07T13:25:44.000Z</time>
</trkpt>
<trkpt lat="46.1282630" lon="10.4652160">
	<ele>2301.40</ele>
	<time>2023-08-07T13:25:45.000Z</time>
</trkpt>
<trkpt lat="46.1282640" lon="10.4652110">
	<ele>2301.40</ele>
	<time>2023-08-07T13:25:46.000Z</time>
</trkpt>
<trkpt lat="46.1282650" lon="10.4652060">
	<ele>2301.40</ele>
	<time>2023-08-07T13:25:47.000Z</time>
</trkpt>
<trkpt lat="46.1282670" lon="10.4651990">
	<ele>2301.40</ele>
	<time>2023-08-07T13:25:48.000Z</time>
</trkpt>
<trkpt lat="46.1282680" lon="10.4651940">
	<ele>2301.40</ele>
	<time>2023-08-07T13:25:49.000Z</time>
</trkpt>
<trkpt lat="46.1282690" lon="10.4651910">
	<ele>2301.40</ele>
	<time>2023-08-07T13:25:50.000Z</time>
</trkpt>
<trkpt lat="46.1282700" lon="10.4651850">
	<ele>2301.40</ele>
	<time>2023-08-07T13:25:51.000Z</time>
</trkpt>
<trkpt lat="46.1282710" lon="10.4651800">
	<ele>2301.40</ele>
	<time>2023-08-07T13:25:52.000Z</time>
</trkpt>
<trkpt lat="46.1282730" lon="10.4651750">
	<ele>2301.40</ele>
	<time>2023-08-07T13:25:53.000Z</time>
</trkpt>
<trkpt lat="46.1282780" lon="10.4651620">
	<ele>2301.40</ele>
	<time>2023-08-07T13:25:54.000Z</time>
</trkpt>
<trkpt lat="46.1282840" lon="10.4651390">
	<ele>2301.40</ele>
	<time>2023-08-07T13:25:55.000Z</time>
</trkpt>
<trkpt lat="46.1282900" lon="10.4651200">
	<ele>2301.40</ele>
	<time>2023-08-07T13:25:56.000Z</time>
</trkpt>
<trkpt lat="46.1282940" lon="10.4651000">
	<ele>2301.40</ele>
	<time>2023-08-07T13:25:57.000Z</time>
</trkpt>
<trkpt lat="46.1283000" lon="10.4650810">
	<ele>2301.40</ele>
	<time>2023-08-07T13:25:58.000Z</time>
</trkpt>
<trkpt lat="46.1283070" lon="10.4650580">
	<ele>2301.40</ele>
	<time>2023-08-07T13:25:59.000Z</time>
</trkpt>
<trkpt lat="46.1283130" lon="10.4650300">
	<ele>2301.40</ele>
	<time>2023-08-07T13:26:00.000Z</time>
</trkpt>
<trkpt lat="46.1283200" lon="10.4650120">
	<ele>2301.40</ele>
	<time>2023-08-07T13:26:01.000Z</time>
</trkpt>
<trkpt lat="46.1283280" lon="10.4649970">
	<ele>2301.40</ele>
	<time>2023-08-07T13:26:02.000Z</time>
</trkpt>
<trkpt lat="46.1283370" lon="10.4649820">
	<ele>2301.40</ele>
	<time>2023-08-07T13:26:03.000Z</time>
</trkpt>
<trkpt lat="46.1283400" lon="10.4649800">
	<ele>2301.40</ele>
	<time>2023-08-07T13:26:04.000Z</time>
</trkpt>
<trkpt lat="46.1283440" lon="10.4649820">
	<ele>2301.40</ele>
	<time>2023-08-07T13:26:05.000Z</time>
</trkpt>
<trkpt lat="46.1283470" lon="10.4649770">
	<ele>2298.00</ele>
	<time>2023-08-07T13:26:06.000Z</time>
</trkpt>
<trkpt lat="46.1283470" lon="10.4649740">
	<ele>2296.00</ele>
	<time>2023-08-07T13:26:07.000Z</time>
</trkpt>
<trkpt lat="46.1283470" lon="10.4649710">
	<ele>2295.00</ele>
	<time>2023-08-07T13:26:08.000Z</time>
</trkpt>
<trkpt lat="46.1283470" lon="10.4649660">
	<ele>2294.40</ele>
	<time>2023-08-07T13:26:09.000Z</time>
</trkpt>
<trkpt lat="46.1283480" lon="10.4649600">
	<ele>2294.20</ele>
	<time>2023-08-07T13:26:10.000Z</time>
</trkpt>
<trkpt lat="46.1283490" lon="10.4649530">
	<ele>2294.00</ele>
	<time>2023-08-07T13:26:11.000Z</time>
</trkpt>
<trkpt lat="46.1283520" lon="10.4649480">
	<ele>2293.80</ele>
	<time>2023-08-07T13:26:12.000Z</time>
</trkpt>
<trkpt lat="46.1283580" lon="10.4649450">
	<ele>2293.80</ele>
	<time>2023-08-07T13:26:13.000Z</time>
</trkpt>
<trkpt lat="46.1283620" lon="10.4649370">
	<ele>2293.80</ele>
	<time>2023-08-07T13:26:14.000Z</time>
</trkpt>
<trkpt lat="46.1283630" lon="10.4649320">
	<ele>2293.60</ele>
	<time>2023-08-07T13:26:15.000Z</time>
</trkpt>
<trkpt lat="46.1283650" lon="10.4649230">
	<ele>2293.60</ele>
	<time>2023-08-07T13:26:16.000Z</time>
</trkpt>
<trkpt lat="46.1283690" lon="10.4649140">
	<ele>2293.40</ele>
	<time>2023-08-07T13:26:17.000Z</time>
</trkpt>
<trkpt lat="46.1283730" lon="10.4649090">
	<ele>2293.20</ele>
	<time>2023-08-07T13:26:18.000Z</time>
</trkpt>
<trkpt lat="46.1283760" lon="10.4649030">
	<ele>2292.80</ele>
	<time>2023-08-07T13:26:19.000Z</time>
</trkpt>
<trkpt lat="46.1283790" lon="10.4648990">
	<ele>2292.60</ele>
	<time>2023-08-07T13:26:20.000Z</time>
</trkpt>
<trkpt lat="46.1283830" lon="10.4648930">
	<ele>2292.40</ele>
	<time>2023-08-07T13:26:21.000Z</time>
</trkpt>
<trkpt lat="46.1283880" lon="10.4648920">
	<ele>2292.40</ele>
	<time>2023-08-07T13:26:22.000Z</time>
</trkpt>
<trkpt lat="46.1283950" lon="10.4648960">
	<ele>2292.20</ele>
	<time>2023-08-07T13:26:23.000Z</time>
</trkpt>
<trkpt lat="46.1283990" lon="10.4648990">
	<ele>2292.00</ele>
	<time>2023-08-07T13:26:24.000Z</time>
</trkpt>
<trkpt lat="46.1283980" lon="10.4649080">
	<ele>2291.80</ele>
	<time>2023-08-07T13:26:25.000Z</time>
</trkpt>
<trkpt lat="46.1284000" lon="10.4649130">
	<ele>2291.80</ele>
	<time>2023-08-07T13:26:26.000Z</time>
</trkpt>
<trkpt lat="46.1284010" lon="10.4649180">
	<ele>2291.60</ele>
	<time>2023-08-07T13:26:27.000Z</time>
</trkpt>
<trkpt lat="46.1284000" lon="10.4649220">
	<ele>2291.60</ele>
	<time>2023-08-07T13:26:28.000Z</time>
</trkpt>
<trkpt lat="46.1284010" lon="10.4649260">
	<ele>2291.40</ele>
	<time>2023-08-07T13:26:29.000Z</time>
</trkpt>
<trkpt lat="46.1284030" lon="10.4649280">
	<ele>2291.20</ele>
	<time>2023-08-07T13:26:30.000Z</time>
</trkpt>
<trkpt lat="46.1284030" lon="10.4649300">
	<ele>2291.20</ele>
	<time>2023-08-07T13:26:31.000Z</time>
</trkpt>
<trkpt lat="46.1284040" lon="10.4649330">
	<ele>2291.00</ele>
	<time>2023-08-07T13:26:32.000Z</time>
</trkpt>
<trkpt lat="46.1284080" lon="10.4649360">
	<ele>2291.00</ele>
	<time>2023-08-07T13:26:33.000Z</time>
</trkpt>
<trkpt lat="46.1284130" lon="10.4649380">
	<ele>2291.00</ele>
	<time>2023-08-07T13:26:34.000Z</time>
</trkpt>
<trkpt lat="46.1284160" lon="10.4649400">
	<ele>2290.80</ele>
	<time>2023-08-07T13:26:35.000Z</time>
</trkpt>
<trkpt lat="46.1284180" lon="10.4649400">
	<ele>2290.80</ele>
	<time>2023-08-07T13:26:36.000Z</time>
</trkpt>
<trkpt lat="46.1284170" lon="10.4649420">
	<ele>2290.40</ele>
	<time>2023-08-07T13:26:37.000Z</time>
</trkpt>
<trkpt lat="46.1284190" lon="10.4649400">
	<ele>2290.40</ele>
	<time>2023-08-07T13:26:38.000Z</time>
</trkpt>
<trkpt lat="46.1284190" lon="10.4649400">
	<ele>2290.00</ele>
	<time>2023-08-07T13:26:39.000Z</time>
</trkpt>
<trkpt lat="46.1284190" lon="10.4649400">
	<ele>2290.00</ele>
	<time>2023-08-07T13:26:40.000Z</time>
</trkpt>
<trkpt lat="46.1284190" lon="10.4649400">
	<ele>2289.80</ele>
	<time>2023-08-07T13:26:41.000Z</time>
</trkpt>
<trkpt lat="46.1284190" lon="10.4649400">
	<ele>2289.80</ele>
	<time>2023-08-07T13:26:42.000Z</time>
</trkpt>
<trkpt lat="46.1284190" lon="10.4649400">
	<ele>2289.60</ele>
	<time>2023-08-07T13:26:43.000Z</time>
</trkpt>
<trkpt lat="46.1284190" lon="10.4649400">
	<ele>2289.60</ele>
	<time>2023-08-07T13:26:44.000Z</time>
</trkpt>
<trkpt lat="46.1284190" lon="10.4649400">
	<ele>2289.20</ele>
	<time>2023-08-07T13:26:45.000Z</time>
</trkpt>
<trkpt lat="46.1284190" lon="10.4649400">
	<ele>2289.20</ele>
	<time>2023-08-07T13:26:46.000Z</time>
</trkpt>
<trkpt lat="46.1284190" lon="10.4649400">
	<ele>2289.00</ele>
	<time>2023-08-07T13:26:47.000Z</time>
</trkpt>
<trkpt lat="46.1284190" lon="10.4649400">
	<ele>2288.80</ele>
	<time>2023-08-07T13:26:48.000Z</time>
</trkpt>
<trkpt lat="46.1284190" lon="10.4649380">
	<ele>2288.80</ele>
	<time>2023-08-07T13:26:49.000Z</time>
</trkpt>
<trkpt lat="46.1284190" lon="10.4649360">
	<ele>2288.60</ele>
	<time>2023-08-07T13:26:50.000Z</time>
</trkpt>
<trkpt lat="46.1284190" lon="10.4649340">
	<ele>2288.60</ele>
	<time>2023-08-07T13:26:51.000Z</time>
</trkpt>
<trkpt lat="46.1284190" lon="10.4649330">
	<ele>2288.60</ele>
	<time>2023-08-07T13:26:52.000Z</time>
</trkpt>
<trkpt lat="46.1284190" lon="10.4649300">
	<ele>2288.60</ele>
	<time>2023-08-07T13:26:53.000Z</time>
</trkpt>
<trkpt lat="46.1284190" lon="10.4649300">
	<ele>2288.40</ele>
	<time>2023-08-07T13:26:54.000Z</time>
</trkpt>
<trkpt lat="46.1284210" lon="10.4649280">
	<ele>2288.40</ele>
	<time>2023-08-07T13:26:55.000Z</time>
</trkpt>
<trkpt lat="46.1284220" lon="10.4649270">
	<ele>2288.40</ele>
	<time>2023-08-07T13:26:56.000Z</time>
</trkpt>
<trkpt lat="46.1284230" lon="10.4649260">
	<ele>2288.40</ele>
	<time>2023-08-07T13:26:57.000Z</time>
</trkpt>
<trkpt lat="46.1284250" lon="10.4649260">
	<ele>2288.20</ele>
	<time>2023-08-07T13:26:58.000Z</time>
</trkpt>
<trkpt lat="46.1284280" lon="10.4649260">
	<ele>2288.00</ele>
	<time>2023-08-07T13:26:59.000Z</time>
</trkpt>
<trkpt lat="46.1284300" lon="10.4649260">
	<ele>2287.80</ele>
	<time>2023-08-07T13:27:00.000Z</time>
</trkpt>
<trkpt lat="46.1284330" lon="10.4649260">
	<ele>2287.80</ele>
	<time>2023-08-07T13:27:01.000Z</time>
</trkpt>
<trkpt lat="46.1284370" lon="10.4649260">
	<ele>2287.60</ele>
	<time>2023-08-07T13:27:02.000Z</time>
</trkpt>
<trkpt lat="46.1284390" lon="10.4649260">
	<ele>2287.60</ele>
	<time>2023-08-07T13:27:03.000Z</time>
</trkpt>
<trkpt lat="46.1284410" lon="10.4649260">
	<ele>2287.60</ele>
	<time>2023-08-07T13:27:04.000Z</time>
</trkpt>
<trkpt lat="46.1284430" lon="10.4649260">
	<ele>2287.60</ele>
	<time>2023-08-07T13:27:05.000Z</time>
</trkpt>
<trkpt lat="46.1284430" lon="10.4649260">
	<ele>2287.60</ele>
	<time>2023-08-07T13:27:06.000Z</time>
</trkpt>
<trkpt lat="46.1284440" lon="10.4649260">
	<ele>2287.40</ele>
	<time>2023-08-07T13:27:07.000Z</time>
</trkpt>
<trkpt lat="46.1284460" lon="10.4649260">
	<ele>2287.20</ele>
	<time>2023-08-07T13:27:08.000Z</time>
</trkpt>
<trkpt lat="46.1284470" lon="10.4649250">
	<ele>2287.00</ele>
	<time>2023-08-07T13:27:09.000Z</time>
</trkpt>
<trkpt lat="46.1284480" lon="10.4649240">
	<ele>2287.00</ele>
	<time>2023-08-07T13:27:10.000Z</time>
</trkpt>
<trkpt lat="46.1284510" lon="10.4649240">
	<ele>2286.80</ele>
	<time>2023-08-07T13:27:11.000Z</time>
</trkpt>
<trkpt lat="46.1284530" lon="10.4649240">
	<ele>2286.60</ele>
	<time>2023-08-07T13:27:12.000Z</time>
</trkpt>
<trkpt lat="46.1284550" lon="10.4649240">
	<ele>2286.20</ele>
	<time>2023-08-07T13:27:13.000Z</time>
</trkpt>
<trkpt lat="46.1284560" lon="10.4649240">
	<ele>2285.80</ele>
	<time>2023-08-07T13:27:14.000Z</time>
</trkpt>
<trkpt lat="46.1284560" lon="10.4649240">
	<ele>2285.60</ele>
	<time>2023-08-07T13:27:15.000Z</time>
</trkpt>
<trkpt lat="46.1284580" lon="10.4649240">
	<ele>2285.20</ele>
	<time>2023-08-07T13:27:16.000Z</time>
</trkpt>
<trkpt lat="46.1284580" lon="10.4649240">
	<ele>2285.00</ele>
	<time>2023-08-07T13:27:17.000Z</time>
</trkpt>
<trkpt lat="46.1284590" lon="10.4649240">
	<ele>2284.80</ele>
	<time>2023-08-07T13:27:18.000Z</time>
</trkpt>
<trkpt lat="46.1284610" lon="10.4649240">
	<ele>2284.80</ele>
	<time>2023-08-07T13:27:19.000Z</time>
</trkpt>
<trkpt lat="46.1284630" lon="10.4649240">
	<ele>2284.80</ele>
	<time>2023-08-07T13:27:20.000Z</time>
</trkpt>
<trkpt lat="46.1284680" lon="10.4649230">
	<ele>2284.80</ele>
	<time>2023-08-07T13:27:21.000Z</time>
</trkpt>
<trkpt lat="46.1284690" lon="10.4649220">
	<ele>2284.80</ele>
	<time>2023-08-07T13:27:22.000Z</time>
</trkpt>
<trkpt lat="46.1284700" lon="10.4649210">
	<ele>2284.80</ele>
	<time>2023-08-07T13:27:23.000Z</time>
</trkpt>
<trkpt lat="46.1284740" lon="10.4649200">
	<ele>2284.40</ele>
	<time>2023-08-07T13:27:24.000Z</time>
</trkpt>
<trkpt lat="46.1284790" lon="10.4649180">
	<ele>2284.00</ele>
	<time>2023-08-07T13:27:25.000Z</time>
</trkpt>
<trkpt lat="46.1284850" lon="10.4649170">
	<ele>2283.40</ele>
	<time>2023-08-07T13:27:26.000Z</time>
</trkpt>
<trkpt lat="46.1284920" lon="10.4649160">
	<ele>2283.20</ele>
	<time>2023-08-07T13:27:27.000Z</time>
</trkpt>
<trkpt lat="46.1284970" lon="10.4649160">
	<ele>2283.00</ele>
	<time>2023-08-07T13:27:28.000Z</time>
</trkpt>
<trkpt lat="46.1285020" lon="10.4649160">
	<ele>2282.80</ele>
	<time>2023-08-07T13:27:29.000Z</time>
</trkpt>
<trkpt lat="46.1285050" lon="10.4649160">
	<ele>2282.80</ele>
	<time>2023-08-07T13:27:30.000Z</time>
</trkpt>
<trkpt lat="46.1285080" lon="10.4649160">
	<ele>2282.80</ele>
	<time>2023-08-07T13:27:31.000Z</time>
</trkpt>
<trkpt lat="46.1285110" lon="10.4649160">
	<ele>2282.40</ele>
	<time>2023-08-07T13:27:32.000Z</time>
</trkpt>
<trkpt lat="46.1285140" lon="10.4649160">
	<ele>2282.00</ele>
	<time>2023-08-07T13:27:33.000Z</time>
</trkpt>
<trkpt lat="46.1285160" lon="10.4649160">
	<ele>2281.80</ele>
	<time>2023-08-07T13:27:34.000Z</time>
</trkpt>
<trkpt lat="46.1285170" lon="10.4649160">
	<ele>2281.60</ele>
	<time>2023-08-07T13:27:35.000Z</time>
</trkpt>
<trkpt lat="46.1285180" lon="10.4649160">
	<ele>2281.20</ele>
	<time>2023-08-07T13:27:36.000Z</time>
</trkpt>
<trkpt lat="46.1285190" lon="10.4649160">
	<ele>2281.00</ele>
	<time>2023-08-07T13:27:37.000Z</time>
</trkpt>
<trkpt lat="46.1285200" lon="10.4649160">
	<ele>2281.00</ele>
	<time>2023-08-07T13:27:38.000Z</time>
</trkpt>
<trkpt lat="46.1285240" lon="10.4649160">
	<ele>2280.80</ele>
	<time>2023-08-07T13:27:39.000Z</time>
</trkpt>
<trkpt lat="46.1285260" lon="10.4649170">
	<ele>2280.80</ele>
	<time>2023-08-07T13:27:40.000Z</time>
</trkpt>
<trkpt lat="46.1285290" lon="10.4649170">
	<ele>2280.80</ele>
	<time>2023-08-07T13:27:41.000Z</time>
</trkpt>
<trkpt lat="46.1285310" lon="10.4649180">
	<ele>2280.80</ele>
	<time>2023-08-07T13:27:42.000Z</time>
</trkpt>
<trkpt lat="46.1285320" lon="10.4649180">
	<ele>2280.80</ele>
	<time>2023-08-07T13:27:43.000Z</time>
</trkpt>
<trkpt lat="46.1285330" lon="10.4649190">
	<ele>2280.80</ele>
	<time>2023-08-07T13:27:44.000Z</time>
</trkpt>
<trkpt lat="46.1285340" lon="10.4649200">
	<ele>2280.60</ele>
	<time>2023-08-07T13:27:45.000Z</time>
</trkpt>
<trkpt lat="46.1285350" lon="10.4649200">
	<ele>2280.60</ele>
	<time>2023-08-07T13:27:46.000Z</time>
</trkpt>
<trkpt lat="46.1285380" lon="10.4649200">
	<ele>2280.40</ele>
	<time>2023-08-07T13:27:47.000Z</time>
</trkpt>
<trkpt lat="46.1285420" lon="10.4649200">
	<ele>2280.40</ele>
	<time>2023-08-07T13:27:48.000Z</time>
</trkpt>
<trkpt lat="46.1285460" lon="10.4649200">
	<ele>2280.20</ele>
	<time>2023-08-07T13:27:49.000Z</time>
</trkpt>
<trkpt lat="46.1285530" lon="10.4649200">
	<ele>2280.00</ele>
	<time>2023-08-07T13:27:50.000Z</time>
</trkpt>
<trkpt lat="46.1285590" lon="10.4649200">
	<ele>2280.00</ele>
	<time>2023-08-07T13:27:51.000Z</time>
</trkpt>
<trkpt lat="46.1285630" lon="10.4649200">
	<ele>2279.80</ele>
	<time>2023-08-07T13:27:52.000Z</time>
</trkpt>
<trkpt lat="46.1285670" lon="10.4649200">
	<ele>2279.80</ele>
	<time>2023-08-07T13:27:53.000Z</time>
</trkpt>
<trkpt lat="46.1285730" lon="10.4649200">
	<ele>2279.80</ele>
	<time>2023-08-07T13:27:54.000Z</time>
</trkpt>
<trkpt lat="46.1285790" lon="10.4649200">
	<ele>2279.40</ele>
	<time>2023-08-07T13:27:55.000Z</time>
</trkpt>
<trkpt lat="46.1285850" lon="10.4649200">
	<ele>2279.40</ele>
	<time>2023-08-07T13:27:56.000Z</time>
</trkpt>
<trkpt lat="46.1285900" lon="10.4649200">
	<ele>2279.20</ele>
	<time>2023-08-07T13:27:57.000Z</time>
</trkpt>
<trkpt lat="46.1285940" lon="10.4649190">
	<ele>2279.20</ele>
	<time>2023-08-07T13:27:58.000Z</time>
</trkpt>
<trkpt lat="46.1285950" lon="10.4649190">
	<ele>2279.00</ele>
	<time>2023-08-07T13:27:59.000Z</time>
</trkpt>
<trkpt lat="46.1285970" lon="10.4649190">
	<ele>2278.80</ele>
	<time>2023-08-07T13:28:00.000Z</time>
</trkpt>
<trkpt lat="46.1285970" lon="10.4649180">
	<ele>2278.40</ele>
	<time>2023-08-07T13:28:01.000Z</time>
</trkpt>
<trkpt lat="46.1285980" lon="10.4649170">
	<ele>2278.00</ele>
	<time>2023-08-07T13:28:02.000Z</time>
</trkpt>
<trkpt lat="46.1285980" lon="10.4649170">
	<ele>2277.60</ele>
	<time>2023-08-07T13:28:03.000Z</time>
</trkpt>
<trkpt lat="46.1285990" lon="10.4649160">
	<ele>2277.20</ele>
	<time>2023-08-07T13:28:04.000Z</time>
</trkpt>
<trkpt lat="46.1285990" lon="10.4649140">
	<ele>2277.00</ele>
	<time>2023-08-07T13:28:05.000Z</time>
</trkpt>
<trkpt lat="46.1286010" lon="10.4649130">
	<ele>2277.00</ele>
	<time>2023-08-07T13:28:06.000Z</time>
</trkpt>
<trkpt lat="46.1286040" lon="10.4649030">
	<ele>2276.80</ele>
	<time>2023-08-07T13:28:07.000Z</time>
</trkpt>
<trkpt lat="46.1286080" lon="10.4648870">
	<ele>2276.80</ele>
	<time>2023-08-07T13:28:08.000Z</time>
</trkpt>
<trkpt lat="46.1286130" lon="10.4648710">
	<ele>2276.80</ele>
	<time>2023-08-07T13:28:09.000Z</time>
</trkpt>
<trkpt lat="46.1286190" lon="10.4648550">
	<ele>2276.60</ele>
	<time>2023-08-07T13:28:10.000Z</time>
</trkpt>
<trkpt lat="46.1286240" lon="10.4648440">
	<ele>2276.60</ele>
	<time>2023-08-07T13:28:11.000Z</time>
</trkpt>
<trkpt lat="46.1286280" lon="10.4648340">
	<ele>2276.60</ele>
	<time>2023-08-07T13:28:12.000Z</time>
</trkpt>
<trkpt lat="46.1286290" lon="10.4648210">
	<ele>2276.40</ele>
	<time>2023-08-07T13:28:13.000Z</time>
</trkpt>
<trkpt lat="46.1286310" lon="10.4648060">
	<ele>2276.40</ele>
	<time>2023-08-07T13:28:14.000Z</time>
</trkpt>
<trkpt lat="46.1286310" lon="10.4647920">
	<ele>2276.20</ele>
	<time>2023-08-07T13:28:15.000Z</time>
</trkpt>
<trkpt lat="46.1286330" lon="10.4647780">
	<ele>2276.20</ele>
	<time>2023-08-07T13:28:16.000Z</time>
</trkpt>
<trkpt lat="46.1286340" lon="10.4647750">
	<ele>2276.00</ele>
	<time>2023-08-07T13:28:17.000Z</time>
</trkpt>
<trkpt lat="46.1286350" lon="10.4647690">
	<ele>2275.80</ele>
	<time>2023-08-07T13:28:18.000Z</time>
</trkpt>
<trkpt lat="46.1286330" lon="10.4647650">
	<ele>2275.80</ele>
	<time>2023-08-07T13:28:19.000Z</time>
</trkpt>
<trkpt lat="46.1286280" lon="10.4647640">
	<ele>2275.60</ele>
	<time>2023-08-07T13:28:20.000Z</time>
</trkpt>
<trkpt lat="46.1286260" lon="10.4647600">
	<ele>2275.40</ele>
	<time>2023-08-07T13:28:21.000Z</time>
</trkpt>
<trkpt lat="46.1286250" lon="10.4647560">
	<ele>2275.20</ele>
	<time>2023-08-07T13:28:22.000Z</time>
</trkpt>
<trkpt lat="46.1286250" lon="10.4647510">
	<ele>2275.00</ele>
	<time>2023-08-07T13:28:23.000Z</time>
</trkpt>
<trkpt lat="46.1286270" lon="10.4647490">
	<ele>2274.80</ele>
	<time>2023-08-07T13:28:24.000Z</time>
</trkpt>
<trkpt lat="46.1286260" lon="10.4647470">
	<ele>2274.60</ele>
	<time>2023-08-07T13:28:25.000Z</time>
</trkpt>
<trkpt lat="46.1286280" lon="10.4647460">
	<ele>2274.40</ele>
	<time>2023-08-07T13:28:26.000Z</time>
</trkpt>
<trkpt lat="46.1286290" lon="10.4647460">
	<ele>2274.00</ele>
	<time>2023-08-07T13:28:27.000Z</time>
</trkpt>
<trkpt lat="46.1286300" lon="10.4647460">
	<ele>2273.80</ele>
	<time>2023-08-07T13:28:28.000Z</time>
</trkpt>
<trkpt lat="46.1286300" lon="10.4647460">
	<ele>2273.60</ele>
	<time>2023-08-07T13:28:29.000Z</time>
</trkpt>
<trkpt lat="46.1286300" lon="10.4647460">
	<ele>2273.60</ele>
	<time>2023-08-07T13:28:30.000Z</time>
</trkpt>
<trkpt lat="46.1286300" lon="10.4647460">
	<ele>2273.40</ele>
	<time>2023-08-07T13:28:31.000Z</time>
</trkpt>
<trkpt lat="46.1286300" lon="10.4647460">
	<ele>2273.40</ele>
	<time>2023-08-07T13:28:32.000Z</time>
</trkpt>
<trkpt lat="46.1286300" lon="10.4647460">
	<ele>2273.60</ele>
	<time>2023-08-07T13:28:33.000Z</time>
</trkpt>
<trkpt lat="46.1286300" lon="10.4647460">
	<ele>2273.60</ele>
	<time>2023-08-07T13:28:34.000Z</time>
</trkpt>
<trkpt lat="46.1286300" lon="10.4647460">
	<ele>2273.60</ele>
	<time>2023-08-07T13:28:35.000Z</time>
</trkpt>
<trkpt lat="46.1286300" lon="10.4647460">
	<ele>2273.60</ele>
	<time>2023-08-07T13:28:36.000Z</time>
</trkpt>
<trkpt lat="46.1286300" lon="10.4647460">
	<ele>2273.60</ele>
	<time>2023-08-07T13:28:37.000Z</time>
</trkpt>
<trkpt lat="46.1286300" lon="10.4647460">
	<ele>2273.60</ele>
	<time>2023-08-07T13:28:38.000Z</time>
</trkpt>
<trkpt lat="46.1286300" lon="10.4647460">
	<ele>2273.60</ele>
	<time>2023-08-07T13:28:39.000Z</time>
</trkpt>
<trkpt lat="46.1286300" lon="10.4647460">
	<ele>2273.60</ele>
	<time>2023-08-07T13:28:40.000Z</time>
</trkpt>
<trkpt lat="46.1286300" lon="10.4647460">
	<ele>2273.60</ele>
	<time>2023-08-07T13:28:41.000Z</time>
</trkpt>
<trkpt lat="46.1286300" lon="10.4647460">
	<ele>2273.60</ele>
	<time>2023-08-07T13:28:42.000Z</time>
</trkpt>
<trkpt lat="46.1286300" lon="10.4647460">
	<ele>2273.60</ele>
	<time>2023-08-07T13:28:43.000Z</time>
</trkpt>
<trkpt lat="46.1286300" lon="10.4647460">
	<ele>2273.60</ele>
	<time>2023-08-07T13:28:44.000Z</time>
</trkpt>
<trkpt lat="46.1286300" lon="10.4647460">
	<ele>2273.40</ele>
	<time>2023-08-07T13:28:45.000Z</time>
</trkpt>
<trkpt lat="46.1286300" lon="10.4647460">
	<ele>2273.40</ele>
	<time>2023-08-07T13:28:46.000Z</time>
</trkpt>
<trkpt lat="46.1286300" lon="10.4647450">
	<ele>2273.20</ele>
	<time>2023-08-07T13:28:47.000Z</time>
</trkpt>
<trkpt lat="46.1286300" lon="10.4647450">
	<ele>2273.20</ele>
	<time>2023-08-07T13:28:48.000Z</time>
</trkpt>
<trkpt lat="46.1286310" lon="10.4647450">
	<ele>2273.00</ele>
	<time>2023-08-07T13:28:49.000Z</time>
</trkpt>
<trkpt lat="46.1286320" lon="10.4647450">
	<ele>2272.80</ele>
	<time>2023-08-07T13:28:50.000Z</time>
</trkpt>
<trkpt lat="46.1286320" lon="10.4647450">
	<ele>2272.60</ele>
	<time>2023-08-07T13:28:51.000Z</time>
</trkpt>
<trkpt lat="46.1286320" lon="10.4647440">
	<ele>2272.60</ele>
	<time>2023-08-07T13:28:52.000Z</time>
</trkpt>
<trkpt lat="46.1286330" lon="10.4647440">
	<ele>2272.40</ele>
	<time>2023-08-07T13:28:53.000Z</time>
</trkpt>
<trkpt lat="46.1286330" lon="10.4647430">
	<ele>2272.20</ele>
	<time>2023-08-07T13:28:54.000Z</time>
</trkpt>
<trkpt lat="46.1286330" lon="10.4647410">
	<ele>2272.00</ele>
	<time>2023-08-07T13:28:55.000Z</time>
</trkpt>
<trkpt lat="46.1286330" lon="10.4647410">
	<ele>2272.00</ele>
	<time>2023-08-07T13:28:56.000Z</time>
</trkpt>
<trkpt lat="46.1286340" lon="10.4647400">
	<ele>2272.00</ele>
	<time>2023-08-07T13:28:57.000Z</time>
</trkpt>
<trkpt lat="46.1286340" lon="10.4647400">
	<ele>2271.80</ele>
	<time>2023-08-07T13:28:58.000Z</time>
</trkpt>
<trkpt lat="46.1286350" lon="10.4647400">
	<ele>2271.80</ele>
	<time>2023-08-07T13:28:59.000Z</time>
</trkpt>
<trkpt lat="46.1286390" lon="10.4647400">
	<ele>2271.80</ele>
	<time>2023-08-07T13:29:00.000Z</time>
</trkpt>
<trkpt lat="46.1286400" lon="10.4647400">
	<ele>2271.80</ele>
	<time>2023-08-07T13:29:01.000Z</time>
</trkpt>
<trkpt lat="46.1286440" lon="10.4647400">
	<ele>2271.80</ele>
	<time>2023-08-07T13:29:02.000Z</time>
</trkpt>
<trkpt lat="46.1286470" lon="10.4647390">
	<ele>2271.80</ele>
	<time>2023-08-07T13:29:03.000Z</time>
</trkpt>
<trkpt lat="46.1286510" lon="10.4647390">
	<ele>2271.80</ele>
	<time>2023-08-07T13:29:04.000Z</time>
</trkpt>
<trkpt lat="46.1286560" lon="10.4647380">
	<ele>2271.80</ele>
	<time>2023-08-07T13:29:05.000Z</time>
</trkpt>
<trkpt lat="46.1286550" lon="10.4647310">
	<ele>2271.80</ele>
	<time>2023-08-07T13:29:06.000Z</time>
</trkpt>
<trkpt lat="46.1286550" lon="10.4647160">
	<ele>2271.60</ele>
	<time>2023-08-07T13:29:07.000Z</time>
</trkpt>
<trkpt lat="46.1286560" lon="10.4647000">
	<ele>2271.60</ele>
	<time>2023-08-07T13:29:08.000Z</time>
</trkpt>
<trkpt lat="46.1286580" lon="10.4646840">
	<ele>2271.40</ele>
	<time>2023-08-07T13:29:09.000Z</time>
</trkpt>
<trkpt lat="46.1286630" lon="10.4646670">
	<ele>2271.40</ele>
	<time>2023-08-07T13:29:10.000Z</time>
</trkpt>
<trkpt lat="46.1286670" lon="10.4646510">
	<ele>2271.20</ele>
	<time>2023-08-07T13:29:11.000Z</time>
</trkpt>
<trkpt lat="46.1286680" lon="10.4646420">
	<ele>2271.20</ele>
	<time>2023-08-07T13:29:12.000Z</time>
</trkpt>
<trkpt lat="46.1286690" lon="10.4646350">
	<ele>2271.00</ele>
	<time>2023-08-07T13:29:13.000Z</time>
</trkpt>
<trkpt lat="46.1286690" lon="10.4646240">
	<ele>2271.00</ele>
	<time>2023-08-07T13:29:14.000Z</time>
</trkpt>
<trkpt lat="46.1286700" lon="10.4646120">
	<ele>2271.00</ele>
	<time>2023-08-07T13:29:15.000Z</time>
</trkpt>
<trkpt lat="46.1286700" lon="10.4646100">
	<ele>2270.80</ele>
	<time>2023-08-07T13:29:16.000Z</time>
</trkpt>
<trkpt lat="46.1286730" lon="10.4646100">
	<ele>2270.20</ele>
	<time>2023-08-07T13:29:17.000Z</time>
</trkpt>
<trkpt lat="46.1286750" lon="10.4646080">
	<ele>2270.00</ele>
	<time>2023-08-07T13:29:18.000Z</time>
</trkpt>
<trkpt lat="46.1286740" lon="10.4646030">
	<ele>2269.80</ele>
	<time>2023-08-07T13:29:19.000Z</time>
</trkpt>
<trkpt lat="46.1286730" lon="10.4645970">
	<ele>2269.60</ele>
	<time>2023-08-07T13:29:20.000Z</time>
</trkpt>
<trkpt lat="46.1286720" lon="10.4645880">
	<ele>2269.60</ele>
	<time>2023-08-07T13:29:21.000Z</time>
</trkpt>
<trkpt lat="46.1286700" lon="10.4645830">
	<ele>2269.60</ele>
	<time>2023-08-07T13:29:22.000Z</time>
</trkpt>
<trkpt lat="46.1286660" lon="10.4645770">
	<ele>2269.40</ele>
	<time>2023-08-07T13:29:23.000Z</time>
</trkpt>
<trkpt lat="46.1286650" lon="10.4645730">
	<ele>2269.20</ele>
	<time>2023-08-07T13:29:24.000Z</time>
</trkpt>
<trkpt lat="46.1286650" lon="10.4645680">
	<ele>2269.20</ele>
	<time>2023-08-07T13:29:25.000Z</time>
</trkpt>
<trkpt lat="46.1286660" lon="10.4645650">
	<ele>2268.80</ele>
	<time>2023-08-07T13:29:26.000Z</time>
</trkpt>
<trkpt lat="46.1286690" lon="10.4645620">
	<ele>2268.60</ele>
	<time>2023-08-07T13:29:27.000Z</time>
</trkpt>
<trkpt lat="46.1286720" lon="10.4645610">
	<ele>2268.20</ele>
	<time>2023-08-07T13:29:28.000Z</time>
</trkpt>
<trkpt lat="46.1286770" lon="10.4645620">
	<ele>2268.00</ele>
	<time>2023-08-07T13:29:29.000Z</time>
</trkpt>
<trkpt lat="46.1286820" lon="10.4645620">
	<ele>2267.80</ele>
	<time>2023-08-07T13:29:30.000Z</time>
</trkpt>
<trkpt lat="46.1286820" lon="10.4645590">
	<ele>2267.80</ele>
	<time>2023-08-07T13:29:31.000Z</time>
</trkpt>
<trkpt lat="46.1286820" lon="10.4645540">
	<ele>2267.60</ele>
	<time>2023-08-07T13:29:32.000Z</time>
</trkpt>
<trkpt lat="46.1286820" lon="10.4645460">
	<ele>2267.60</ele>
	<time>2023-08-07T13:29:33.000Z</time>
</trkpt>
<trkpt lat="46.1286830" lon="10.4645370">
	<ele>2267.40</ele>
	<time>2023-08-07T13:29:34.000Z</time>
</trkpt>
<trkpt lat="46.1286850" lon="10.4645260">
	<ele>2267.40</ele>
	<time>2023-08-07T13:29:35.000Z</time>
</trkpt>
<trkpt lat="46.1286890" lon="10.4645220">
	<ele>2267.20</ele>
	<time>2023-08-07T13:29:36.000Z</time>
</trkpt>
<trkpt lat="46.1286900" lon="10.4645180">
	<ele>2267.20</ele>
	<time>2023-08-07T13:29:37.000Z</time>
</trkpt>
<trkpt lat="46.1286880" lon="10.4645130">
	<ele>2267.20</ele>
	<time>2023-08-07T13:29:38.000Z</time>
</trkpt>
<trkpt lat="46.1286860" lon="10.4645080">
	<ele>2267.00</ele>
	<time>2023-08-07T13:29:39.000Z</time>
</trkpt>
<trkpt lat="46.1286860" lon="10.4645030">
	<ele>2267.00</ele>
	<time>2023-08-07T13:29:40.000Z</time>
</trkpt>
<trkpt lat="46.1286850" lon="10.4644970">
	<ele>2267.00</ele>
	<time>2023-08-07T13:29:41.000Z</time>
</trkpt>
<trkpt lat="46.1286850" lon="10.4644890">
	<ele>2267.00</ele>
	<time>2023-08-07T13:29:42.000Z</time>
</trkpt>
<trkpt lat="46.1286820" lon="10.4644820">
	<ele>2266.80</ele>
	<time>2023-08-07T13:29:43.000Z</time>
</trkpt>
<trkpt lat="46.1286780" lon="10.4644730">
	<ele>2266.60</ele>
	<time>2023-08-07T13:29:44.000Z</time>
</trkpt>
<trkpt lat="46.1286820" lon="10.4644620">
	<ele>2266.20</ele>
	<time>2023-08-07T13:29:45.000Z</time>
</trkpt>
<trkpt lat="46.1286870" lon="10.4644530">
	<ele>2266.00</ele>
	<time>2023-08-07T13:29:46.000Z</time>
</trkpt>
<trkpt lat="46.1286920" lon="10.4644510">
	<ele>2265.80</ele>
	<time>2023-08-07T13:29:47.000Z</time>
</trkpt>
<trkpt lat="46.1286960" lon="10.4644490">
	<ele>2265.60</ele>
	<time>2023-08-07T13:29:48.000Z</time>
</trkpt>
<trkpt lat="46.1286980" lon="10.4644460">
	<ele>2265.40</ele>
	<time>2023-08-07T13:29:49.000Z</time>
</trkpt>
<trkpt lat="46.1287020" lon="10.4644380">
	<ele>2265.20</ele>
	<time>2023-08-07T13:29:50.000Z</time>
</trkpt>
<trkpt lat="46.1287070" lon="10.4644350">
	<ele>2265.00</ele>
	<time>2023-08-07T13:29:51.000Z</time>
</trkpt>
<trkpt lat="46.1287110" lon="10.4644360">
	<ele>2264.60</ele>
	<time>2023-08-07T13:29:52.000Z</time>
</trkpt>
<trkpt lat="46.1287160" lon="10.4644380">
	<ele>2264.60</ele>
	<time>2023-08-07T13:29:53.000Z</time>
</trkpt>
<trkpt lat="46.1287180" lon="10.4644360">
	<ele>2264.40</ele>
	<time>2023-08-07T13:29:54.000Z</time>
</trkpt>
<trkpt lat="46.1287210" lon="10.4644340">
	<ele>2264.20</ele>
	<time>2023-08-07T13:29:55.000Z</time>
</trkpt>
<trkpt lat="46.1287210" lon="10.4644330">
	<ele>2264.20</ele>
	<time>2023-08-07T13:29:56.000Z</time>
</trkpt>
<trkpt lat="46.1287200" lon="10.4644230">
	<ele>2264.20</ele>
	<time>2023-08-07T13:29:57.000Z</time>
</trkpt>
<trkpt lat="46.1287180" lon="10.4644120">
	<ele>2264.00</ele>
	<time>2023-08-07T13:29:58.000Z</time>
</trkpt>
<trkpt lat="46.1287180" lon="10.4644030">
	<ele>2263.80</ele>
	<time>2023-08-07T13:29:59.000Z</time>
</trkpt>
<trkpt lat="46.1287210" lon="10.4643940">
	<ele>2263.80</ele>
	<time>2023-08-07T13:30:00.000Z</time>
</trkpt>
<trkpt lat="46.1287220" lon="10.4643910">
	<ele>2263.60</ele>
	<time>2023-08-07T13:30:01.000Z</time>
</trkpt>
<trkpt lat="46.1287210" lon="10.4643880">
	<ele>2263.40</ele>
	<time>2023-08-07T13:30:02.000Z</time>
</trkpt>
<trkpt lat="46.1287220" lon="10.4643870">
	<ele>2263.20</ele>
	<time>2023-08-07T13:30:03.000Z</time>
</trkpt>
<trkpt lat="46.1287240" lon="10.4643880">
	<ele>2263.20</ele>
	<time>2023-08-07T13:30:04.000Z</time>
</trkpt>
<trkpt lat="46.1287280" lon="10.4643870">
	<ele>2263.20</ele>
	<time>2023-08-07T13:30:05.000Z</time>
</trkpt>
<trkpt lat="46.1287290" lon="10.4643830">
	<ele>2262.80</ele>
	<time>2023-08-07T13:30:06.000Z</time>
</trkpt>
<trkpt lat="46.1287280" lon="10.4643810">
	<ele>2262.80</ele>
	<time>2023-08-07T13:30:07.000Z</time>
</trkpt>
<trkpt lat="46.1287250" lon="10.4643780">
	<ele>2262.60</ele>
	<time>2023-08-07T13:30:08.000Z</time>
</trkpt>
<trkpt lat="46.1287210" lon="10.4643740">
	<ele>2262.60</ele>
	<time>2023-08-07T13:30:09.000Z</time>
</trkpt>
<trkpt lat="46.1287180" lon="10.4643710">
	<ele>2262.40</ele>
	<time>2023-08-07T13:30:10.000Z</time>
</trkpt>
<trkpt lat="46.1287170" lon="10.4643660">
	<ele>2262.20</ele>
	<time>2023-08-07T13:30:11.000Z</time>
</trkpt>
<trkpt lat="46.1287140" lon="10.4643610">
	<ele>2262.20</ele>
	<time>2023-08-07T13:30:12.000Z</time>
</trkpt>
<trkpt lat="46.1287110" lon="10.4643570">
	<ele>2262.00</ele>
	<time>2023-08-07T13:30:13.000Z</time>
</trkpt>
<trkpt lat="46.1287090" lon="10.4643530">
	<ele>2261.80</ele>
	<time>2023-08-07T13:30:14.000Z</time>
</trkpt>
<trkpt lat="46.1287070" lon="10.4643480">
	<ele>2261.80</ele>
	<time>2023-08-07T13:30:15.000Z</time>
</trkpt>
<trkpt lat="46.1287070" lon="10.4643440">
	<ele>2261.80</ele>
	<time>2023-08-07T13:30:16.000Z</time>
</trkpt>
<trkpt lat="46.1287080" lon="10.4643390">
	<ele>2261.60</ele>
	<time>2023-08-07T13:30:17.000Z</time>
</trkpt>
<trkpt lat="46.1287120" lon="10.4643340">
	<ele>2261.60</ele>
	<time>2023-08-07T13:30:18.000Z</time>
</trkpt>
<trkpt lat="46.1287140" lon="10.4643270">
	<ele>2261.20</ele>
	<time>2023-08-07T13:30:19.000Z</time>
</trkpt>
<trkpt lat="46.1287170" lon="10.4643250">
	<ele>2261.00</ele>
	<time>2023-08-07T13:30:20.000Z</time>
</trkpt>
<trkpt lat="46.1287200" lon="10.4643290">
	<ele>2260.80</ele>
	<time>2023-08-07T13:30:21.000Z</time>
</trkpt>
<trkpt lat="46.1287200" lon="10.4643370">
	<ele>2260.60</ele>
	<time>2023-08-07T13:30:22.000Z</time>
</trkpt>
<trkpt lat="46.1287210" lon="10.4643400">
	<ele>2260.60</ele>
	<time>2023-08-07T13:30:23.000Z</time>
</trkpt>
<trkpt lat="46.1287230" lon="10.4643390">
	<ele>2260.20</ele>
	<time>2023-08-07T13:30:24.000Z</time>
</trkpt>
<trkpt lat="46.1287250" lon="10.4643380">
	<ele>2259.80</ele>
	<time>2023-08-07T13:30:25.000Z</time>
</trkpt>
<trkpt lat="46.1287290" lon="10.4643290">
	<ele>2259.80</ele>
	<time>2023-08-07T13:30:26.000Z</time>
</trkpt>
<trkpt lat="46.1287340" lon="10.4643210">
	<ele>2259.60</ele>
	<time>2023-08-07T13:30:27.000Z</time>
</trkpt>
<trkpt lat="46.1287380" lon="10.4643160">
	<ele>2259.60</ele>
	<time>2023-08-07T13:30:28.000Z</time>
</trkpt>
<trkpt lat="46.1287400" lon="10.4643120">
	<ele>2259.40</ele>
	<time>2023-08-07T13:30:29.000Z</time>
</trkpt>
<trkpt lat="46.1287410" lon="10.4643090">
	<ele>2259.20</ele>
	<time>2023-08-07T13:30:30.000Z</time>
</trkpt>
<trkpt lat="46.1287420" lon="10.4643060">
	<ele>2259.20</ele>
	<time>2023-08-07T13:30:31.000Z</time>
</trkpt>
<trkpt lat="46.1287430" lon="10.4643000">
	<ele>2258.80</ele>
	<time>2023-08-07T13:30:32.000Z</time>
</trkpt>
<trkpt lat="46.1287460" lon="10.4642940">
	<ele>2258.40</ele>
	<time>2023-08-07T13:30:33.000Z</time>
</trkpt>
<trkpt lat="46.1287480" lon="10.4642920">
	<ele>2258.20</ele>
	<time>2023-08-07T13:30:34.000Z</time>
</trkpt>
<trkpt lat="46.1287510" lon="10.4642900">
	<ele>2258.20</ele>
	<time>2023-08-07T13:30:35.000Z</time>
</trkpt>
<trkpt lat="46.1287540" lon="10.4642880">
	<ele>2258.00</ele>
	<time>2023-08-07T13:30:36.000Z</time>
</trkpt>
<trkpt lat="46.1287580" lon="10.4642810">
	<ele>2258.00</ele>
	<time>2023-08-07T13:30:37.000Z</time>
</trkpt>
<trkpt lat="46.1287610" lon="10.4642740">
	<ele>2257.80</ele>
	<time>2023-08-07T13:30:38.000Z</time>
</trkpt>
<trkpt lat="46.1287640" lon="10.4642660">
	<ele>2257.60</ele>
	<time>2023-08-07T13:30:39.000Z</time>
</trkpt>
<trkpt lat="46.1287650" lon="10.4642590">
	<ele>2257.40</ele>
	<time>2023-08-07T13:30:40.000Z</time>
</trkpt>
<trkpt lat="46.1287670" lon="10.4642570">
	<ele>2257.20</ele>
	<time>2023-08-07T13:30:41.000Z</time>
</trkpt>
<trkpt lat="46.1287690" lon="10.4642530">
	<ele>2257.00</ele>
	<time>2023-08-07T13:30:42.000Z</time>
</trkpt>
<trkpt lat="46.1287710" lon="10.4642500">
	<ele>2256.80</ele>
	<time>2023-08-07T13:30:43.000Z</time>
</trkpt>
<trkpt lat="46.1287720" lon="10.4642480">
	<ele>2256.80</ele>
	<time>2023-08-07T13:30:44.000Z</time>
</trkpt>
<trkpt lat="46.1287680" lon="10.4642500">
	<ele>2256.80</ele>
	<time>2023-08-07T13:30:45.000Z</time>
</trkpt>
<trkpt lat="46.1287660" lon="10.4642480">
	<ele>2256.60</ele>
	<time>2023-08-07T13:30:46.000Z</time>
</trkpt>
<trkpt lat="46.1287690" lon="10.4642470">
	<ele>2256.60</ele>
	<time>2023-08-07T13:30:47.000Z</time>
</trkpt>
<trkpt lat="46.1287720" lon="10.4642460">
	<ele>2256.40</ele>
	<time>2023-08-07T13:30:48.000Z</time>
</trkpt>
<trkpt lat="46.1287730" lon="10.4642440">
	<ele>2256.40</ele>
	<time>2023-08-07T13:30:49.000Z</time>
</trkpt>
<trkpt lat="46.1287730" lon="10.4642450">
	<ele>2256.00</ele>
	<time>2023-08-07T13:30:50.000Z</time>
</trkpt>
<trkpt lat="46.1287730" lon="10.4642430">
	<ele>2255.60</ele>
	<time>2023-08-07T13:30:51.000Z</time>
</trkpt>
<trkpt lat="46.1287750" lon="10.4642460">
	<ele>2255.40</ele>
	<time>2023-08-07T13:30:52.000Z</time>
</trkpt>
<trkpt lat="46.1287780" lon="10.4642530">
	<ele>2255.20</ele>
	<time>2023-08-07T13:30:53.000Z</time>
</trkpt>
<trkpt lat="46.1287820" lon="10.4642660">
	<ele>2255.00</ele>
	<time>2023-08-07T13:30:54.000Z</time>
</trkpt>
<trkpt lat="46.1287830" lon="10.4642760">
	<ele>2254.80</ele>
	<time>2023-08-07T13:30:55.000Z</time>
</trkpt>
<trkpt lat="46.1287830" lon="10.4642820">
	<ele>2254.80</ele>
	<time>2023-08-07T13:30:56.000Z</time>
</trkpt>
<trkpt lat="46.1287830" lon="10.4642850">
	<ele>2254.80</ele>
	<time>2023-08-07T13:30:57.000Z</time>
</trkpt>
<trkpt lat="46.1287840" lon="10.4642890">
	<ele>2254.80</ele>
	<time>2023-08-07T13:30:58.000Z</time>
</trkpt>
<trkpt lat="46.1287870" lon="10.4642930">
	<ele>2254.80</ele>
	<time>2023-08-07T13:30:59.000Z</time>
</trkpt>
<trkpt lat="46.1287880" lon="10.4642970">
	<ele>2254.80</ele>
	<time>2023-08-07T13:31:00.000Z</time>
</trkpt>
<trkpt lat="46.1287920" lon="10.4643040">
	<ele>2254.60</ele>
	<time>2023-08-07T13:31:01.000Z</time>
</trkpt>
<trkpt lat="46.1287930" lon="10.4643100">
	<ele>2254.60</ele>
	<time>2023-08-07T13:31:02.000Z</time>
</trkpt>
<trkpt lat="46.1287930" lon="10.4643160">
	<ele>2254.60</ele>
	<time>2023-08-07T13:31:03.000Z</time>
</trkpt>
<trkpt lat="46.1287930" lon="10.4643190">
	<ele>2254.60</ele>
	<time>2023-08-07T13:31:04.000Z</time>
</trkpt>
<trkpt lat="46.1287940" lon="10.4643210">
	<ele>2254.40</ele>
	<time>2023-08-07T13:31:05.000Z</time>
</trkpt>
<trkpt lat="46.1287930" lon="10.4643230">
	<ele>2254.40</ele>
	<time>2023-08-07T13:31:06.000Z</time>
</trkpt>
<trkpt lat="46.1287930" lon="10.4643250">
	<ele>2254.40</ele>
	<time>2023-08-07T13:31:07.000Z</time>
</trkpt>
<trkpt lat="46.1287950" lon="10.4643260">
	<ele>2254.40</ele>
	<time>2023-08-07T13:31:08.000Z</time>
</trkpt>
<trkpt lat="46.1287950" lon="10.4643260">
	<ele>2254.20</ele>
	<time>2023-08-07T13:31:09.000Z</time>
</trkpt>
<trkpt lat="46.1287970" lon="10.4643260">
	<ele>2254.00</ele>
	<time>2023-08-07T13:31:10.000Z</time>
</trkpt>
<trkpt lat="46.1287990" lon="10.4643280">
	<ele>2254.00</ele>
	<time>2023-08-07T13:31:11.000Z</time>
</trkpt>
<trkpt lat="46.1288020" lon="10.4643290">
	<ele>2253.80</ele>
	<time>2023-08-07T13:31:12.000Z</time>
</trkpt>
<trkpt lat="46.1288090" lon="10.4643290">
	<ele>2253.60</ele>
	<time>2023-08-07T13:31:13.000Z</time>
</trkpt>
<trkpt lat="46.1288150" lon="10.4643260">
	<ele>2253.40</ele>
	<time>2023-08-07T13:31:14.000Z</time>
</trkpt>
<trkpt lat="46.1288190" lon="10.4643230">
	<ele>2253.20</ele>
	<time>2023-08-07T13:31:15.000Z</time>
</trkpt>
<trkpt lat="46.1288250" lon="10.4643210">
	<ele>2252.80</ele>
	<time>2023-08-07T13:31:16.000Z</time>
</trkpt>
<trkpt lat="46.1288320" lon="10.4643180">
	<ele>2252.40</ele>
	<time>2023-08-07T13:31:17.000Z</time>
</trkpt>
<trkpt lat="46.1288350" lon="10.4643140">
	<ele>2252.20</ele>
	<time>2023-08-07T13:31:18.000Z</time>
</trkpt>
<trkpt lat="46.1288370" lon="10.4643090">
	<ele>2252.20</ele>
	<time>2023-08-07T13:31:19.000Z</time>
</trkpt>
<trkpt lat="46.1288390" lon="10.4643000">
	<ele>2252.00</ele>
	<time>2023-08-07T13:31:20.000Z</time>
</trkpt>
<trkpt lat="46.1288400" lon="10.4642920">
	<ele>2252.00</ele>
	<time>2023-08-07T13:31:21.000Z</time>
</trkpt>
<trkpt lat="46.1288420" lon="10.4642820">
	<ele>2252.00</ele>
	<time>2023-08-07T13:31:22.000Z</time>
</trkpt>
<trkpt lat="46.1288450" lon="10.4642760">
	<ele>2252.00</ele>
	<time>2023-08-07T13:31:23.000Z</time>
</trkpt>
<trkpt lat="46.1288460" lon="10.4642640">
	<ele>2251.80</ele>
	<time>2023-08-07T13:31:24.000Z</time>
</trkpt>
<trkpt lat="46.1288460" lon="10.4642590">
	<ele>2251.80</ele>
	<time>2023-08-07T13:31:25.000Z</time>
</trkpt>
<trkpt lat="46.1288470" lon="10.4642540">
	<ele>2251.60</ele>
	<time>2023-08-07T13:31:26.000Z</time>
</trkpt>
<trkpt lat="46.1288470" lon="10.4642510">
	<ele>2251.40</ele>
	<time>2023-08-07T13:31:27.000Z</time>
</trkpt>
<trkpt lat="46.1288470" lon="10.4642480">
	<ele>2251.20</ele>
	<time>2023-08-07T13:31:28.000Z</time>
</trkpt>
<trkpt lat="46.1288470" lon="10.4642430">
	<ele>2251.00</ele>
	<time>2023-08-07T13:31:29.000Z</time>
</trkpt>
<trkpt lat="46.1288470" lon="10.4642370">
	<ele>2251.00</ele>
	<time>2023-08-07T13:31:30.000Z</time>
</trkpt>
<trkpt lat="46.1288470" lon="10.4642300">
	<ele>2250.80</ele>
	<time>2023-08-07T13:31:31.000Z</time>
</trkpt>
<trkpt lat="46.1288490" lon="10.4642230">
	<ele>2250.40</ele>
	<time>2023-08-07T13:31:32.000Z</time>
</trkpt>
<trkpt lat="46.1288510" lon="10.4642160">
	<ele>2250.40</ele>
	<time>2023-08-07T13:31:33.000Z</time>
</trkpt>
<trkpt lat="46.1288500" lon="10.4642100">
	<ele>2250.00</ele>
	<time>2023-08-07T13:31:34.000Z</time>
</trkpt>
<trkpt lat="46.1288560" lon="10.4642080">
	<ele>2249.80</ele>
	<time>2023-08-07T13:31:35.000Z</time>
</trkpt>
<trkpt lat="46.1288620" lon="10.4642080">
	<ele>2249.60</ele>
	<time>2023-08-07T13:31:36.000Z</time>
</trkpt>
<trkpt lat="46.1288670" lon="10.4642110">
	<ele>2249.60</ele>
	<time>2023-08-07T13:31:37.000Z</time>
</trkpt>
<trkpt lat="46.1288710" lon="10.4642130">
	<ele>2249.40</ele>
	<time>2023-08-07T13:31:38.000Z</time>
</trkpt>
<trkpt lat="46.1288750" lon="10.4642150">
	<ele>2249.20</ele>
	<time>2023-08-07T13:31:39.000Z</time>
</trkpt>
<trkpt lat="46.1288750" lon="10.4642160">
	<ele>2249.00</ele>
	<time>2023-08-07T13:31:40.000Z</time>
</trkpt>
<trkpt lat="46.1288750" lon="10.4642160">
	<ele>2248.80</ele>
	<time>2023-08-07T13:31:41.000Z</time>
</trkpt>
<trkpt lat="46.1288790" lon="10.4642130">
	<ele>2248.60</ele>
	<time>2023-08-07T13:31:42.000Z</time>
</trkpt>
<trkpt lat="46.1288840" lon="10.4642080">
	<ele>2248.40</ele>
	<time>2023-08-07T13:31:43.000Z</time>
</trkpt>
<trkpt lat="46.1288880" lon="10.4642010">
	<ele>2248.20</ele>
	<time>2023-08-07T13:31:44.000Z</time>
</trkpt>
<trkpt lat="46.1288910" lon="10.4641910">
	<ele>2248.00</ele>
	<time>2023-08-07T13:31:45.000Z</time>
</trkpt>
<trkpt lat="46.1288970" lon="10.4641860">
	<ele>2248.00</ele>
	<time>2023-08-07T13:31:46.000Z</time>
</trkpt>
<trkpt lat="46.1289010" lon="10.4641840">
	<ele>2247.80</ele>
	<time>2023-08-07T13:31:47.000Z</time>
</trkpt>
<trkpt lat="46.1289050" lon="10.4641820">
	<ele>2247.60</ele>
	<time>2023-08-07T13:31:48.000Z</time>
</trkpt>
<trkpt lat="46.1289090" lon="10.4641820">
	<ele>2247.40</ele>
	<time>2023-08-07T13:31:49.000Z</time>
</trkpt>
<trkpt lat="46.1289140" lon="10.4641780">
	<ele>2247.40</ele>
	<time>2023-08-07T13:31:50.000Z</time>
</trkpt>
<trkpt lat="46.1289170" lon="10.4641720">
	<ele>2247.20</ele>
	<time>2023-08-07T13:31:51.000Z</time>
</trkpt>
<trkpt lat="46.1289190" lon="10.4641660">
	<ele>2247.00</ele>
	<time>2023-08-07T13:31:52.000Z</time>
</trkpt>
<trkpt lat="46.1289210" lon="10.4641650">
	<ele>2246.60</ele>
	<time>2023-08-07T13:31:53.000Z</time>
</trkpt>
<trkpt lat="46.1289260" lon="10.4641620">
	<ele>2246.40</ele>
	<time>2023-08-07T13:31:54.000Z</time>
</trkpt>
<trkpt lat="46.1289310" lon="10.4641630">
	<ele>2246.00</ele>
	<time>2023-08-07T13:31:55.000Z</time>
</trkpt>
<trkpt lat="46.1289370" lon="10.4641620">
	<ele>2246.00</ele>
	<time>2023-08-07T13:31:56.000Z</time>
</trkpt>
<trkpt lat="46.1289420" lon="10.4641610">
	<ele>2245.80</ele>
	<time>2023-08-07T13:31:57.000Z</time>
</trkpt>
<trkpt lat="46.1289430" lon="10.4641640">
	<ele>2245.60</ele>
	<time>2023-08-07T13:31:58.000Z</time>
</trkpt>
<trkpt lat="46.1289440" lon="10.4641690">
	<ele>2245.40</ele>
	<time>2023-08-07T13:31:59.000Z</time>
</trkpt>
<trkpt lat="46.1289450" lon="10.4641740">
	<ele>2245.40</ele>
	<time>2023-08-07T13:32:00.000Z</time>
</trkpt>
<trkpt lat="46.1289460" lon="10.4641740">
	<ele>2245.20</ele>
	<time>2023-08-07T13:32:01.000Z</time>
</trkpt>
<trkpt lat="46.1289480" lon="10.4641800">
	<ele>2245.00</ele>
	<time>2023-08-07T13:32:02.000Z</time>
</trkpt>
<trkpt lat="46.1289500" lon="10.4641840">
	<ele>2244.80</ele>
	<time>2023-08-07T13:32:03.000Z</time>
</trkpt>
<trkpt lat="46.1289530" lon="10.4641880">
	<ele>2244.80</ele>
	<time>2023-08-07T13:32:04.000Z</time>
</trkpt>
<trkpt lat="46.1289530" lon="10.4641890">
	<ele>2244.40</ele>
	<time>2023-08-07T13:32:05.000Z</time>
</trkpt>
<trkpt lat="46.1289560" lon="10.4641890">
	<ele>2244.20</ele>
	<time>2023-08-07T13:32:06.000Z</time>
</trkpt>
<trkpt lat="46.1289600" lon="10.4641890">
	<ele>2244.20</ele>
	<time>2023-08-07T13:32:07.000Z</time>
</trkpt>
<trkpt lat="46.1289640" lon="10.4641930">
	<ele>2244.00</ele>
	<time>2023-08-07T13:32:08.000Z</time>
</trkpt>
<trkpt lat="46.1289670" lon="10.4641970">
	<ele>2244.00</ele>
	<time>2023-08-07T13:32:09.000Z</time>
</trkpt>
<trkpt lat="46.1289740" lon="10.4642020">
	<ele>2244.00</ele>
	<time>2023-08-07T13:32:10.000Z</time>
</trkpt>
<trkpt lat="46.1289840" lon="10.4642020">
	<ele>2243.80</ele>
	<time>2023-08-07T13:32:11.000Z</time>
</trkpt>
<trkpt lat="46.1289890" lon="10.4642050">
	<ele>2243.60</ele>
	<time>2023-08-07T13:32:12.000Z</time>
</trkpt>
<trkpt lat="46.1289910" lon="10.4642070">
	<ele>2243.20</ele>
	<time>2023-08-07T13:32:13.000Z</time>
</trkpt>
<trkpt lat="46.1289930" lon="10.4642060">
	<ele>2243.00</ele>
	<time>2023-08-07T13:32:14.000Z</time>
</trkpt>
<trkpt lat="46.1289940" lon="10.4642070">
	<ele>2242.80</ele>
	<time>2023-08-07T13:32:15.000Z</time>
</trkpt>
<trkpt lat="46.1290000" lon="10.4642040">
	<ele>2242.60</ele>
	<time>2023-08-07T13:32:16.000Z</time>
</trkpt>
<trkpt lat="46.1290040" lon="10.4641980">
	<ele>2242.60</ele>
	<time>2023-08-07T13:32:17.000Z</time>
</trkpt>
<trkpt lat="46.1290100" lon="10.4641870">
	<ele>2242.40</ele>
	<time>2023-08-07T13:32:18.000Z</time>
</trkpt>
<trkpt lat="46.1290140" lon="10.4641780">
	<ele>2242.40</ele>
	<time>2023-08-07T13:32:19.000Z</time>
</trkpt>
<trkpt lat="46.1290150" lon="10.4641760">
	<ele>2242.20</ele>
	<time>2023-08-07T13:32:20.000Z</time>
</trkpt>
<trkpt lat="46.1290160" lon="10.4641720">
	<ele>2242.20</ele>
	<time>2023-08-07T13:32:21.000Z</time>
</trkpt>
<trkpt lat="46.1290170" lon="10.4641640">
	<ele>2242.00</ele>
	<time>2023-08-07T13:32:22.000Z</time>
</trkpt>
<trkpt lat="46.1290210" lon="10.4641570">
	<ele>2241.80</ele>
	<time>2023-08-07T13:32:23.000Z</time>
</trkpt>
<trkpt lat="46.1290260" lon="10.4641500">
	<ele>2241.60</ele>
	<time>2023-08-07T13:32:24.000Z</time>
</trkpt>
<trkpt lat="46.1290310" lon="10.4641400">
	<ele>2241.40</ele>
	<time>2023-08-07T13:32:25.000Z</time>
</trkpt>
<trkpt lat="46.1290330" lon="10.4641340">
	<ele>2241.20</ele>
	<time>2023-08-07T13:32:26.000Z</time>
</trkpt>
<trkpt lat="46.1290350" lon="10.4641280">
	<ele>2241.00</ele>
	<time>2023-08-07T13:32:27.000Z</time>
</trkpt>
<trkpt lat="46.1290400" lon="10.4641210">
	<ele>2241.00</ele>
	<time>2023-08-07T13:32:28.000Z</time>
</trkpt>
<trkpt lat="46.1290430" lon="10.4641170">
	<ele>2240.80</ele>
	<time>2023-08-07T13:32:29.000Z</time>
</trkpt>
<trkpt lat="46.1290450" lon="10.4641110">
	<ele>2240.80</ele>
	<time>2023-08-07T13:32:30.000Z</time>
</trkpt>
<trkpt lat="46.1290470" lon="10.4641060">
	<ele>2240.40</ele>
	<time>2023-08-07T13:32:31.000Z</time>
</trkpt>
<trkpt lat="46.1290470" lon="10.4641000">
	<ele>2240.20</ele>
	<time>2023-08-07T13:32:32.000Z</time>
</trkpt>
<trkpt lat="46.1290480" lon="10.4640950">
	<ele>2240.00</ele>
	<time>2023-08-07T13:32:33.000Z</time>
</trkpt>
<trkpt lat="46.1290510" lon="10.4640920">
	<ele>2239.80</ele>
	<time>2023-08-07T13:32:34.000Z</time>
</trkpt>
<trkpt lat="46.1290540" lon="10.4640910">
	<ele>2239.80</ele>
	<time>2023-08-07T13:32:35.000Z</time>
</trkpt>
<trkpt lat="46.1290560" lon="10.4640910">
	<ele>2239.60</ele>
	<time>2023-08-07T13:32:36.000Z</time>
</trkpt>
<trkpt lat="46.1290570" lon="10.4640900">
	<ele>2239.40</ele>
	<time>2023-08-07T13:32:37.000Z</time>
</trkpt>
<trkpt lat="46.1290590" lon="10.4640870">
	<ele>2239.20</ele>
	<time>2023-08-07T13:32:38.000Z</time>
</trkpt>
<trkpt lat="46.1290600" lon="10.4640850">
	<ele>2239.00</ele>
	<time>2023-08-07T13:32:39.000Z</time>
</trkpt>
<trkpt lat="46.1290600" lon="10.4640860">
	<ele>2238.80</ele>
	<time>2023-08-07T13:32:40.000Z</time>
</trkpt>
<trkpt lat="46.1290630" lon="10.4640880">
	<ele>2238.60</ele>
	<time>2023-08-07T13:32:41.000Z</time>
</trkpt>
<trkpt lat="46.1290650" lon="10.4640920">
	<ele>2238.40</ele>
	<time>2023-08-07T13:32:42.000Z</time>
</trkpt>
<trkpt lat="46.1290670" lon="10.4640910">
	<ele>2238.20</ele>
	<time>2023-08-07T13:32:43.000Z</time>
</trkpt>
<trkpt lat="46.1290680" lon="10.4640860">
	<ele>2238.20</ele>
	<time>2023-08-07T13:32:44.000Z</time>
</trkpt>
<trkpt lat="46.1290690" lon="10.4640800">
	<ele>2238.00</ele>
	<time>2023-08-07T13:32:45.000Z</time>
</trkpt>
<trkpt lat="46.1290680" lon="10.4640740">
	<ele>2237.80</ele>
	<time>2023-08-07T13:32:46.000Z</time>
</trkpt>
<trkpt lat="46.1290700" lon="10.4640670">
	<ele>2237.60</ele>
	<time>2023-08-07T13:32:47.000Z</time>
</trkpt>
<trkpt lat="46.1290730" lon="10.4640630">
	<ele>2237.60</ele>
	<time>2023-08-07T13:32:48.000Z</time>
</trkpt>
<trkpt lat="46.1290760" lon="10.4640630">
	<ele>2237.40</ele>
	<time>2023-08-07T13:32:49.000Z</time>
</trkpt>
<trkpt lat="46.1290790" lon="10.4640640">
	<ele>2237.40</ele>
	<time>2023-08-07T13:32:50.000Z</time>
</trkpt>
<trkpt lat="46.1290800" lon="10.4640600">
	<ele>2237.20</ele>
	<time>2023-08-07T13:32:51.000Z</time>
</trkpt>
<trkpt lat="46.1290810" lon="10.4640550">
	<ele>2237.00</ele>
	<time>2023-08-07T13:32:52.000Z</time>
</trkpt>
<trkpt lat="46.1290810" lon="10.4640500">
	<ele>2236.80</ele>
	<time>2023-08-07T13:32:53.000Z</time>
</trkpt>
<trkpt lat="46.1290820" lon="10.4640460">
	<ele>2236.60</ele>
	<time>2023-08-07T13:32:54.000Z</time>
</trkpt>
<trkpt lat="46.1290820" lon="10.4640390">
	<ele>2236.40</ele>
	<time>2023-08-07T13:32:55.000Z</time>
</trkpt>
<trkpt lat="46.1290800" lon="10.4640310">
	<ele>2236.20</ele>
	<time>2023-08-07T13:32:56.000Z</time>
</trkpt>
<trkpt lat="46.1290790" lon="10.4640250">
	<ele>2236.00</ele>
	<time>2023-08-07T13:32:57.000Z</time>
</trkpt>
<trkpt lat="46.1290800" lon="10.4640160">
	<ele>2235.80</ele>
	<time>2023-08-07T13:32:58.000Z</time>
</trkpt>
<trkpt lat="46.1290770" lon="10.4640090">
	<ele>2235.60</ele>
	<time>2023-08-07T13:32:59.000Z</time>
</trkpt>
<trkpt lat="46.1290740" lon="10.4640000">
	<ele>2235.60</ele>
	<time>2023-08-07T13:33:00.000Z</time>
</trkpt>
<trkpt lat="46.1290730" lon="10.4639910">
	<ele>2235.40</ele>
	<time>2023-08-07T13:33:01.000Z</time>
</trkpt>
<trkpt lat="46.1290720" lon="10.4639850">
	<ele>2235.40</ele>
	<time>2023-08-07T13:33:02.000Z</time>
</trkpt>
<trkpt lat="46.1290730" lon="10.4639810">
	<ele>2235.40</ele>
	<time>2023-08-07T13:33:03.000Z</time>
</trkpt>
<trkpt lat="46.1290740" lon="10.4639770">
	<ele>2235.00</ele>
	<time>2023-08-07T13:33:04.000Z</time>
</trkpt>
<trkpt lat="46.1290760" lon="10.4639740">
	<ele>2234.80</ele>
	<time>2023-08-07T13:33:05.000Z</time>
</trkpt>
<trkpt lat="46.1290770" lon="10.4639710">
	<ele>2234.80</ele>
	<time>2023-08-07T13:33:06.000Z</time>
</trkpt>
<trkpt lat="46.1290820" lon="10.4639610">
	<ele>2234.60</ele>
	<time>2023-08-07T13:33:07.000Z</time>
</trkpt>
<trkpt lat="46.1290860" lon="10.4639530">
	<ele>2234.40</ele>
	<time>2023-08-07T13:33:08.000Z</time>
</trkpt>
<trkpt lat="46.1290880" lon="10.4639490">
	<ele>2234.20</ele>
	<time>2023-08-07T13:33:09.000Z</time>
</trkpt>
<trkpt lat="46.1290930" lon="10.4639430">
	<ele>2234.00</ele>
	<time>2023-08-07T13:33:10.000Z</time>
</trkpt>
<trkpt lat="46.1290930" lon="10.4639430">
	<ele>2234.00</ele>
	<time>2023-08-07T13:33:11.000Z</time>
</trkpt>
<trkpt lat="46.1290920" lon="10.4639470">
	<ele>2233.80</ele>
	<time>2023-08-07T13:33:12.000Z</time>
</trkpt>
<trkpt lat="46.1290920" lon="10.4639500">
	<ele>2233.80</ele>
	<time>2023-08-07T13:33:13.000Z</time>
</trkpt>
<trkpt lat="46.1290950" lon="10.4639510">
	<ele>2233.60</ele>
	<time>2023-08-07T13:33:14.000Z</time>
</trkpt>
<trkpt lat="46.1291020" lon="10.4639470">
	<ele>2233.60</ele>
	<time>2023-08-07T13:33:15.000Z</time>
</trkpt>
<trkpt lat="46.1291080" lon="10.4639390">
	<ele>2233.40</ele>
	<time>2023-08-07T13:33:16.000Z</time>
</trkpt>
<trkpt lat="46.1291090" lon="10.4639350">
	<ele>2233.20</ele>
	<time>2023-08-07T13:33:17.000Z</time>
</trkpt>
<trkpt lat="46.1291100" lon="10.4639310">
	<ele>2233.00</ele>
	<time>2023-08-07T13:33:18.000Z</time>
</trkpt>
<trkpt lat="46.1291120" lon="10.4639250">
	<ele>2232.80</ele>
	<time>2023-08-07T13:33:19.000Z</time>
</trkpt>
<trkpt lat="46.1291110" lon="10.4639160">
	<ele>2232.60</ele>
	<time>2023-08-07T13:33:20.000Z</time>
</trkpt>
<trkpt lat="46.1291150" lon="10.4639090">
	<ele>2232.40</ele>
	<time>2023-08-07T13:33:21.000Z</time>
</trkpt>
<trkpt lat="46.1291220" lon="10.4638990">
	<ele>2232.20</ele>
	<time>2023-08-07T13:33:22.000Z</time>
</trkpt>
<trkpt lat="46.1291270" lon="10.4638980">
	<ele>2232.00</ele>
	<time>2023-08-07T13:33:23.000Z</time>
</trkpt>
<trkpt lat="46.1291310" lon="10.4639030">
	<ele>2231.80</ele>
	<time>2023-08-07T13:33:24.000Z</time>
</trkpt>
<trkpt lat="46.1291310" lon="10.4639050">
	<ele>2231.60</ele>
	<time>2023-08-07T13:33:25.000Z</time>
</trkpt>
<trkpt lat="46.1291310" lon="10.4639030">
	<ele>2231.60</ele>
	<time>2023-08-07T13:33:26.000Z</time>
</trkpt>
<trkpt lat="46.1291290" lon="10.4639020">
	<ele>2231.40</ele>
	<time>2023-08-07T13:33:27.000Z</time>
</trkpt>
<trkpt lat="46.1291260" lon="10.4638990">
	<ele>2231.20</ele>
	<time>2023-08-07T13:33:28.000Z</time>
</trkpt>
<trkpt lat="46.1291270" lon="10.4638870">
	<ele>2231.00</ele>
	<time>2023-08-07T13:33:29.000Z</time>
</trkpt>
<trkpt lat="46.1291280" lon="10.4638770">
	<ele>2230.80</ele>
	<time>2023-08-07T13:33:30.000Z</time>
</trkpt>
<trkpt lat="46.1291270" lon="10.4638680">
	<ele>2230.80</ele>
	<time>2023-08-07T13:33:31.000Z</time>
</trkpt>
<trkpt lat="46.1291270" lon="10.4638640">
	<ele>2230.60</ele>
	<time>2023-08-07T13:33:32.000Z</time>
</trkpt>
<trkpt lat="46.1291280" lon="10.4638560">
	<ele>2230.60</ele>
	<time>2023-08-07T13:33:33.000Z</time>
</trkpt>
<trkpt lat="46.1291290" lon="10.4638510">
	<ele>2230.40</ele>
	<time>2023-08-07T13:33:34.000Z</time>
</trkpt>
<trkpt lat="46.1291300" lon="10.4638460">
	<ele>2230.40</ele>
	<time>2023-08-07T13:33:35.000Z</time>
</trkpt>
<trkpt lat="46.1291310" lon="10.4638430">
	<ele>2230.40</ele>
	<time>2023-08-07T13:33:36.000Z</time>
</trkpt>
<trkpt lat="46.1291340" lon="10.4638430">
	<ele>2230.20</ele>
	<time>2023-08-07T13:33:37.000Z</time>
</trkpt>
<trkpt lat="46.1291370" lon="10.4638460">
	<ele>2230.20</ele>
	<time>2023-08-07T13:33:38.000Z</time>
</trkpt>
<trkpt lat="46.1291390" lon="10.4638480">
	<ele>2230.20</ele>
	<time>2023-08-07T13:33:39.000Z</time>
</trkpt>
<trkpt lat="46.1291390" lon="10.4638480">
	<ele>2230.20</ele>
	<time>2023-08-07T13:33:40.000Z</time>
</trkpt>
<trkpt lat="46.1291380" lon="10.4638490">
	<ele>2230.20</ele>
	<time>2023-08-07T13:33:41.000Z</time>
</trkpt>
<trkpt lat="46.1291370" lon="10.4638490">
	<ele>2230.40</ele>
	<time>2023-08-07T13:33:42.000Z</time>
</trkpt>
<trkpt lat="46.1291380" lon="10.4638480">
	<ele>2230.40</ele>
	<time>2023-08-07T13:33:43.000Z</time>
</trkpt>
<trkpt lat="46.1291380" lon="10.4638480">
	<ele>2230.40</ele>
	<time>2023-08-07T13:33:44.000Z</time>
</trkpt>
<trkpt lat="46.1291380" lon="10.4638480">
	<ele>2230.40</ele>
	<time>2023-08-07T13:33:45.000Z</time>
</trkpt>
<trkpt lat="46.1291380" lon="10.4638480">
	<ele>2230.40</ele>
	<time>2023-08-07T13:33:46.000Z</time>
</trkpt>
<trkpt lat="46.1291380" lon="10.4638480">
	<ele>2230.20</ele>
	<time>2023-08-07T13:33:47.000Z</time>
</trkpt>
<trkpt lat="46.1291380" lon="10.4638480">
	<ele>2230.20</ele>
	<time>2023-08-07T13:33:48.000Z</time>
</trkpt>
<trkpt lat="46.1291380" lon="10.4638480">
	<ele>2230.20</ele>
	<time>2023-08-07T13:33:49.000Z</time>
</trkpt>
<trkpt lat="46.1291380" lon="10.4638480">
	<ele>2230.20</ele>
	<time>2023-08-07T13:33:50.000Z</time>
</trkpt>
<trkpt lat="46.1291380" lon="10.4638480">
	<ele>2230.20</ele>
	<time>2023-08-07T13:33:51.000Z</time>
</trkpt>
<trkpt lat="46.1291380" lon="10.4638480">
	<ele>2230.20</ele>
	<time>2023-08-07T13:33:52.000Z</time>
</trkpt>
<trkpt lat="46.1291380" lon="10.4638480">
	<ele>2230.20</ele>
	<time>2023-08-07T13:33:53.000Z</time>
</trkpt>
<trkpt lat="46.1291370" lon="10.4638480">
	<ele>2230.20</ele>
	<time>2023-08-07T13:33:54.000Z</time>
</trkpt>
<trkpt lat="46.1291370" lon="10.4638480">
	<ele>2230.20</ele>
	<time>2023-08-07T13:33:55.000Z</time>
</trkpt>
<trkpt lat="46.1291370" lon="10.4638470">
	<ele>2230.20</ele>
	<time>2023-08-07T13:33:56.000Z</time>
</trkpt>
<trkpt lat="46.1291370" lon="10.4638460">
	<ele>2230.00</ele>
	<time>2023-08-07T13:33:57.000Z</time>
</trkpt>
<trkpt lat="46.1291370" lon="10.4638460">
	<ele>2230.00</ele>
	<time>2023-08-07T13:33:58.000Z</time>
</trkpt>
<trkpt lat="46.1291370" lon="10.4638440">
	<ele>2229.80</ele>
	<time>2023-08-07T13:33:59.000Z</time>
</trkpt>
<trkpt lat="46.1291370" lon="10.4638430">
	<ele>2229.80</ele>
	<time>2023-08-07T13:34:00.000Z</time>
</trkpt>
<trkpt lat="46.1291370" lon="10.4638430">
	<ele>2229.60</ele>
	<time>2023-08-07T13:34:01.000Z</time>
</trkpt>
<trkpt lat="46.1291370" lon="10.4638430">
	<ele>2229.60</ele>
	<time>2023-08-07T13:34:02.000Z</time>
</trkpt>
<trkpt lat="46.1291370" lon="10.4638430">
	<ele>2229.60</ele>
	<time>2023-08-07T13:34:03.000Z</time>
</trkpt>
<trkpt lat="46.1291370" lon="10.4638420">
	<ele>2229.60</ele>
	<time>2023-08-07T13:34:04.000Z</time>
</trkpt>
<trkpt lat="46.1291370" lon="10.4638420">
	<ele>2229.40</ele>
	<time>2023-08-07T13:34:05.000Z</time>
</trkpt>
<trkpt lat="46.1291370" lon="10.4638410">
	<ele>2229.40</ele>
	<time>2023-08-07T13:34:06.000Z</time>
</trkpt>
<trkpt lat="46.1291370" lon="10.4638370">
	<ele>2229.40</ele>
	<time>2023-08-07T13:34:07.000Z</time>
</trkpt>
<trkpt lat="46.1291370" lon="10.4638350">
	<ele>2229.40</ele>
	<time>2023-08-07T13:34:08.000Z</time>
</trkpt>
<trkpt lat="46.1291370" lon="10.4638290">
	<ele>2229.40</ele>
	<time>2023-08-07T13:34:09.000Z</time>
</trkpt>
<trkpt lat="46.1291370" lon="10.4638220">
	<ele>2229.20</ele>
	<time>2023-08-07T13:34:10.000Z</time>
</trkpt>
<trkpt lat="46.1291370" lon="10.4638160">
	<ele>2229.00</ele>
	<time>2023-08-07T13:34:11.000Z</time>
</trkpt>
<trkpt lat="46.1291380" lon="10.4638100">
	<ele>2229.00</ele>
	<time>2023-08-07T13:34:12.000Z</time>
</trkpt>
<trkpt lat="46.1291380" lon="10.4638050">
	<ele>2228.80</ele>
	<time>2023-08-07T13:34:13.000Z</time>
</trkpt>
<trkpt lat="46.1291400" lon="10.4638010">
	<ele>2228.60</ele>
	<time>2023-08-07T13:34:14.000Z</time>
</trkpt>
<trkpt lat="46.1291450" lon="10.4637970">
	<ele>2228.40</ele>
	<time>2023-08-07T13:34:15.000Z</time>
</trkpt>
<trkpt lat="46.1291520" lon="10.4637920">
	<ele>2228.20</ele>
	<time>2023-08-07T13:34:16.000Z</time>
</trkpt>
<trkpt lat="46.1291570" lon="10.4637880">
	<ele>2228.00</ele>
	<time>2023-08-07T13:34:17.000Z</time>
</trkpt>
<trkpt lat="46.1291600" lon="10.4637870">
	<ele>2228.00</ele>
	<time>2023-08-07T13:34:18.000Z</time>
</trkpt>
<trkpt lat="46.1291620" lon="10.4637840">
	<ele>2227.60</ele>
	<time>2023-08-07T13:34:19.000Z</time>
</trkpt>
<trkpt lat="46.1291640" lon="10.4637830">
	<ele>2227.60</ele>
	<time>2023-08-07T13:34:20.000Z</time>
</trkpt>
<trkpt lat="46.1291640" lon="10.4637810">
	<ele>2227.40</ele>
	<time>2023-08-07T13:34:21.000Z</time>
</trkpt>
<trkpt lat="46.1291660" lon="10.4637780">
	<ele>2227.20</ele>
	<time>2023-08-07T13:34:22.000Z</time>
</trkpt>
<trkpt lat="46.1291690" lon="10.4637730">
	<ele>2227.00</ele>
	<time>2023-08-07T13:34:23.000Z</time>
</trkpt>
<trkpt lat="46.1291730" lon="10.4637690">
	<ele>2226.80</ele>
	<time>2023-08-07T13:34:24.000Z</time>
</trkpt>
<trkpt lat="46.1291770" lon="10.4637650">
	<ele>2226.60</ele>
	<time>2023-08-07T13:34:25.000Z</time>
</trkpt>
<trkpt lat="46.1291800" lon="10.4637610">
	<ele>2226.20</ele>
	<time>2023-08-07T13:34:26.000Z</time>
</trkpt>
<trkpt lat="46.1291830" lon="10.4637580">
	<ele>2226.00</ele>
	<time>2023-08-07T13:34:27.000Z</time>
</trkpt>
<trkpt lat="46.1291870" lon="10.4637520">
	<ele>2225.80</ele>
	<time>2023-08-07T13:34:28.000Z</time>
</trkpt>
<trkpt lat="46.1291880" lon="10.4637440">
	<ele>2225.60</ele>
	<time>2023-08-07T13:34:29.000Z</time>
</trkpt>
<trkpt lat="46.1291890" lon="10.4637360">
	<ele>2225.40</ele>
	<time>2023-08-07T13:34:30.000Z</time>
</trkpt>
<trkpt lat="46.1291920" lon="10.4637290">
	<ele>2225.40</ele>
	<time>2023-08-07T13:34:31.000Z</time>
</trkpt>
<trkpt lat="46.1291950" lon="10.4637260">
	<ele>2225.20</ele>
	<time>2023-08-07T13:34:32.000Z</time>
</trkpt>
<trkpt lat="46.1291990" lon="10.4637210">
	<ele>2224.80</ele>
	<time>2023-08-07T13:34:33.000Z</time>
</trkpt>
<trkpt lat="46.1292040" lon="10.4637170">
	<ele>2224.60</ele>
	<time>2023-08-07T13:34:34.000Z</time>
</trkpt>
<trkpt lat="46.1292100" lon="10.4637120">
	<ele>2224.40</ele>
	<time>2023-08-07T13:34:35.000Z</time>
</trkpt>
<trkpt lat="46.1292150" lon="10.4637090">
	<ele>2224.40</ele>
	<time>2023-08-07T13:34:36.000Z</time>
</trkpt>
<trkpt lat="46.1292190" lon="10.4637070">
	<ele>2224.00</ele>
	<time>2023-08-07T13:34:37.000Z</time>
</trkpt>
<trkpt lat="46.1292230" lon="10.4637050">
	<ele>2223.80</ele>
	<time>2023-08-07T13:34:38.000Z</time>
</trkpt>
<trkpt lat="46.1292260" lon="10.4637010">
	<ele>2223.80</ele>
	<time>2023-08-07T13:34:39.000Z</time>
</trkpt>
<trkpt lat="46.1292300" lon="10.4637000">
	<ele>2223.60</ele>
	<time>2023-08-07T13:34:40.000Z</time>
</trkpt>
<trkpt lat="46.1292340" lon="10.4636970">
	<ele>2223.60</ele>
	<time>2023-08-07T13:34:41.000Z</time>
</trkpt>
<trkpt lat="46.1292380" lon="10.4636950">
	<ele>2223.60</ele>
	<time>2023-08-07T13:34:42.000Z</time>
</trkpt>
<trkpt lat="46.1292430" lon="10.4636920">
	<ele>2223.20</ele>
	<time>2023-08-07T13:34:43.000Z</time>
</trkpt>
<trkpt lat="46.1292470" lon="10.4636900">
	<ele>2223.20</ele>
	<time>2023-08-07T13:34:44.000Z</time>
</trkpt>
<trkpt lat="46.1292500" lon="10.4636880">
	<ele>2222.80</ele>
	<time>2023-08-07T13:34:45.000Z</time>
</trkpt>
<trkpt lat="46.1292550" lon="10.4636830">
	<ele>2222.60</ele>
	<time>2023-08-07T13:34:46.000Z</time>
</trkpt>
<trkpt lat="46.1292600" lon="10.4636770">
	<ele>2222.40</ele>
	<time>2023-08-07T13:34:47.000Z</time>
</trkpt>
<trkpt lat="46.1292640" lon="10.4636730">
	<ele>2222.20</ele>
	<time>2023-08-07T13:34:48.000Z</time>
</trkpt>
<trkpt lat="46.1292670" lon="10.4636690">
	<ele>2222.20</ele>
	<time>2023-08-07T13:34:49.000Z</time>
</trkpt>
<trkpt lat="46.1292730" lon="10.4636600">
	<ele>2222.00</ele>
	<time>2023-08-07T13:34:50.000Z</time>
</trkpt>
<trkpt lat="46.1292820" lon="10.4636460">
	<ele>2221.80</ele>
	<time>2023-08-07T13:34:51.000Z</time>
</trkpt>
<trkpt lat="46.1292940" lon="10.4636350">
	<ele>2221.80</ele>
	<time>2023-08-07T13:34:52.000Z</time>
</trkpt>
<trkpt lat="46.1293050" lon="10.4636230">
	<ele>2221.60</ele>
	<time>2023-08-07T13:34:53.000Z</time>
</trkpt>
<trkpt lat="46.1293150" lon="10.4636110">
	<ele>2221.60</ele>
	<time>2023-08-07T13:34:54.000Z</time>
</trkpt>
<trkpt lat="46.1293240" lon="10.4636040">
	<ele>2221.20</ele>
	<time>2023-08-07T13:34:55.000Z</time>
</trkpt>
<trkpt lat="46.1293340" lon="10.4635960">
	<ele>2221.00</ele>
	<time>2023-08-07T13:34:56.000Z</time>
</trkpt>
<trkpt lat="46.1293420" lon="10.4635890">
	<ele>2220.80</ele>
	<time>2023-08-07T13:34:57.000Z</time>
</trkpt>
<trkpt lat="46.1293480" lon="10.4635780">
	<ele>2220.60</ele>
	<time>2023-08-07T13:34:58.000Z</time>
</trkpt>
<trkpt lat="46.1293570" lon="10.4635700">
	<ele>2220.40</ele>
	<time>2023-08-07T13:34:59.000Z</time>
</trkpt>
<trkpt lat="46.1293620" lon="10.4635680">
	<ele>2220.20</ele>
	<time>2023-08-07T13:35:00.000Z</time>
</trkpt>
<trkpt lat="46.1293660" lon="10.4635670">
	<ele>2220.00</ele>
	<time>2023-08-07T13:35:01.000Z</time>
</trkpt>
<trkpt lat="46.1293680" lon="10.4635670">
	<ele>2219.80</ele>
	<time>2023-08-07T13:35:02.000Z</time>
</trkpt>
<trkpt lat="46.1293720" lon="10.4635620">
	<ele>2219.60</ele>
	<time>2023-08-07T13:35:03.000Z</time>
</trkpt>
<trkpt lat="46.1293740" lon="10.4635570">
	<ele>2219.40</ele>
	<time>2023-08-07T13:35:04.000Z</time>
</trkpt>
<trkpt lat="46.1293740" lon="10.4635490">
	<ele>2219.40</ele>
	<time>2023-08-07T13:35:05.000Z</time>
</trkpt>
<trkpt lat="46.1293750" lon="10.4635390">
	<ele>2219.20</ele>
	<time>2023-08-07T13:35:06.000Z</time>
</trkpt>
<trkpt lat="46.1293780" lon="10.4635260">
	<ele>2219.20</ele>
	<time>2023-08-07T13:35:07.000Z</time>
</trkpt>
<trkpt lat="46.1293790" lon="10.4635190">
	<ele>2219.00</ele>
	<time>2023-08-07T13:35:08.000Z</time>
</trkpt>
<trkpt lat="46.1293790" lon="10.4635150">
	<ele>2218.80</ele>
	<time>2023-08-07T13:35:09.000Z</time>
</trkpt>
<trkpt lat="46.1293820" lon="10.4635140">
	<ele>2218.60</ele>
	<time>2023-08-07T13:35:10.000Z</time>
</trkpt>
<trkpt lat="46.1293910" lon="10.4635130">
	<ele>2218.20</ele>
	<time>2023-08-07T13:35:11.000Z</time>
</trkpt>
<trkpt lat="46.1294000" lon="10.4635110">
	<ele>2218.00</ele>
	<time>2023-08-07T13:35:12.000Z</time>
</trkpt>
<trkpt lat="46.1294080" lon="10.4635080">
	<ele>2217.80</ele>
	<time>2023-08-07T13:35:13.000Z</time>
</trkpt>
<trkpt lat="46.1294190" lon="10.4635000">
	<ele>2217.80</ele>
	<time>2023-08-07T13:35:14.000Z</time>
</trkpt>
<trkpt lat="46.1294260" lon="10.4634930">
	<ele>2217.60</ele>
	<time>2023-08-07T13:35:15.000Z</time>
</trkpt>
<trkpt lat="46.1294290" lon="10.4634840">
	<ele>2217.40</ele>
	<time>2023-08-07T13:35:16.000Z</time>
</trkpt>
<trkpt lat="46.1294290" lon="10.4634760">
	<ele>2217.20</ele>
	<time>2023-08-07T13:35:17.000Z</time>
</trkpt>
<trkpt lat="46.1294270" lon="10.4634680">
	<ele>2217.00</ele>
	<time>2023-08-07T13:35:18.000Z</time>
</trkpt>
<trkpt lat="46.1294240" lon="10.4634580">
	<ele>2216.60</ele>
	<time>2023-08-07T13:35:19.000Z</time>
</trkpt>
<trkpt lat="46.1294250" lon="10.4634470">
	<ele>2216.60</ele>
	<time>2023-08-07T13:35:20.000Z</time>
</trkpt>
<trkpt lat="46.1294280" lon="10.4634390">
	<ele>2216.40</ele>
	<time>2023-08-07T13:35:21.000Z</time>
</trkpt>
<trkpt lat="46.1294320" lon="10.4634320">
	<ele>2216.40</ele>
	<time>2023-08-07T13:35:22.000Z</time>
</trkpt>
<trkpt lat="46.1294340" lon="10.4634260">
	<ele>2216.20</ele>
	<time>2023-08-07T13:35:23.000Z</time>
</trkpt>
<trkpt lat="46.1294350" lon="10.4634210">
	<ele>2216.20</ele>
	<time>2023-08-07T13:35:24.000Z</time>
</trkpt>
<trkpt lat="46.1294340" lon="10.4634160">
	<ele>2216.00</ele>
	<time>2023-08-07T13:35:25.000Z</time>
</trkpt>
<trkpt lat="46.1294350" lon="10.4634100">
	<ele>2215.60</ele>
	<time>2023-08-07T13:35:26.000Z</time>
</trkpt>
<trkpt lat="46.1294350" lon="10.4634060">
	<ele>2215.40</ele>
	<time>2023-08-07T13:35:27.000Z</time>
</trkpt>
<trkpt lat="46.1294350" lon="10.4634010">
	<ele>2215.20</ele>
	<time>2023-08-07T13:35:28.000Z</time>
</trkpt>
<trkpt lat="46.1294320" lon="10.4633930">
	<ele>2215.20</ele>
	<time>2023-08-07T13:35:29.000Z</time>
</trkpt>
<trkpt lat="46.1294330" lon="10.4633820">
	<ele>2215.00</ele>
	<time>2023-08-07T13:35:30.000Z</time>
</trkpt>
<trkpt lat="46.1294320" lon="10.4633710">
	<ele>2214.80</ele>
	<time>2023-08-07T13:35:31.000Z</time>
</trkpt>
<trkpt lat="46.1294330" lon="10.4633590">
	<ele>2214.60</ele>
	<time>2023-08-07T13:35:32.000Z</time>
</trkpt>
<trkpt lat="46.1294330" lon="10.4633480">
	<ele>2214.40</ele>
	<time>2023-08-07T13:35:33.000Z</time>
</trkpt>
<trkpt lat="46.1294340" lon="10.4633330">
	<ele>2214.20</ele>
	<time>2023-08-07T13:35:34.000Z</time>
</trkpt>
<trkpt lat="46.1294330" lon="10.4633230">
	<ele>2214.00</ele>
	<time>2023-08-07T13:35:35.000Z</time>
</trkpt>
<trkpt lat="46.1294340" lon="10.4633130">
	<ele>2214.00</ele>
	<time>2023-08-07T13:35:36.000Z</time>
</trkpt>
<trkpt lat="46.1294360" lon="10.4633060">
	<ele>2213.80</ele>
	<time>2023-08-07T13:35:37.000Z</time>
</trkpt>
<trkpt lat="46.1294390" lon="10.4632980">
	<ele>2213.80</ele>
	<time>2023-08-07T13:35:38.000Z</time>
</trkpt>
<trkpt lat="46.1294390" lon="10.4632890">
	<ele>2213.60</ele>
	<time>2023-08-07T13:35:39.000Z</time>
</trkpt>
<trkpt lat="46.1294410" lon="10.4632810">
	<ele>2213.60</ele>
	<time>2023-08-07T13:35:40.000Z</time>
</trkpt>
<trkpt lat="46.1294450" lon="10.4632740">
	<ele>2213.60</ele>
	<time>2023-08-07T13:35:41.000Z</time>
</trkpt>
<trkpt lat="46.1294510" lon="10.4632640">
	<ele>2213.40</ele>
	<time>2023-08-07T13:35:42.000Z</time>
</trkpt>
<trkpt lat="46.1294570" lon="10.4632510">
	<ele>2213.20</ele>
	<time>2023-08-07T13:35:43.000Z</time>
</trkpt>
<trkpt lat="46.1294650" lon="10.4632400">
	<ele>2213.00</ele>
	<time>2023-08-07T13:35:44.000Z</time>
</trkpt>
<trkpt lat="46.1294700" lon="10.4632270">
	<ele>2213.00</ele>
	<time>2023-08-07T13:35:45.000Z</time>
</trkpt>
<trkpt lat="46.1294730" lon="10.4632160">
	<ele>2212.60</ele>
	<time>2023-08-07T13:35:46.000Z</time>
</trkpt>
<trkpt lat="46.1294790" lon="10.4632030">
	<ele>2212.40</ele>
	<time>2023-08-07T13:35:47.000Z</time>
</trkpt>
<trkpt lat="46.1294810" lon="10.4631950">
	<ele>2212.20</ele>
	<time>2023-08-07T13:35:48.000Z</time>
</trkpt>
<trkpt lat="46.1294800" lon="10.4631840">
	<ele>2212.00</ele>
	<time>2023-08-07T13:35:49.000Z</time>
</trkpt>
<trkpt lat="46.1294830" lon="10.4631750">
	<ele>2211.80</ele>
	<time>2023-08-07T13:35:50.000Z</time>
</trkpt>
<trkpt lat="46.1294890" lon="10.4631670">
	<ele>2211.60</ele>
	<time>2023-08-07T13:35:51.000Z</time>
</trkpt>
<trkpt lat="46.1294920" lon="10.4631600">
	<ele>2211.60</ele>
	<time>2023-08-07T13:35:52.000Z</time>
</trkpt>
<trkpt lat="46.1294950" lon="10.4631600">
	<ele>2211.40</ele>
	<time>2023-08-07T13:35:53.000Z</time>
</trkpt>
<trkpt lat="46.1294990" lon="10.4631550">
	<ele>2211.00</ele>
	<time>2023-08-07T13:35:54.000Z</time>
</trkpt>
<trkpt lat="46.1295020" lon="10.4631480">
	<ele>2210.80</ele>
	<time>2023-08-07T13:35:55.000Z</time>
</trkpt>
<trkpt lat="46.1295060" lon="10.4631360">
	<ele>2210.60</ele>
	<time>2023-08-07T13:35:56.000Z</time>
</trkpt>
<trkpt lat="46.1295060" lon="10.4631250">
	<ele>2210.40</ele>
	<time>2023-08-07T13:35:57.000Z</time>
</trkpt>
<trkpt lat="46.1295070" lon="10.4631180">
	<ele>2210.40</ele>
	<time>2023-08-07T13:35:58.000Z</time>
</trkpt>
<trkpt lat="46.1295080" lon="10.4631130">
	<ele>2210.40</ele>
	<time>2023-08-07T13:35:59.000Z</time>
</trkpt>
<trkpt lat="46.1295100" lon="10.4631090">
	<ele>2210.20</ele>
	<time>2023-08-07T13:36:00.000Z</time>
</trkpt>
<trkpt lat="46.1295110" lon="10.4631070">
	<ele>2210.20</ele>
	<time>2023-08-07T13:36:01.000Z</time>
</trkpt>
<trkpt lat="46.1295120" lon="10.4631030">
	<ele>2210.00</ele>
	<time>2023-08-07T13:36:02.000Z</time>
</trkpt>
<trkpt lat="46.1295130" lon="10.4631000">
	<ele>2209.80</ele>
	<time>2023-08-07T13:36:03.000Z</time>
</trkpt>
<trkpt lat="46.1295140" lon="10.4630920">
	<ele>2209.40</ele>
	<time>2023-08-07T13:36:04.000Z</time>
</trkpt>
<trkpt lat="46.1295190" lon="10.4630840">
	<ele>2209.20</ele>
	<time>2023-08-07T13:36:05.000Z</time>
</trkpt>
<trkpt lat="46.1295230" lon="10.4630820">
	<ele>2209.00</ele>
	<time>2023-08-07T13:36:06.000Z</time>
</trkpt>
<trkpt lat="46.1295280" lon="10.4630850">
	<ele>2208.80</ele>
	<time>2023-08-07T13:36:07.000Z</time>
</trkpt>
<trkpt lat="46.1295340" lon="10.4630770">
	<ele>2208.60</ele>
	<time>2023-08-07T13:36:08.000Z</time>
</trkpt>
<trkpt lat="46.1295410" lon="10.4630690">
	<ele>2208.60</ele>
	<time>2023-08-07T13:36:09.000Z</time>
</trkpt>
<trkpt lat="46.1295460" lon="10.4630680">
	<ele>2208.40</ele>
	<time>2023-08-07T13:36:10.000Z</time>
</trkpt>
<trkpt lat="46.1295500" lon="10.4630650">
	<ele>2208.40</ele>
	<time>2023-08-07T13:36:11.000Z</time>
</trkpt>
<trkpt lat="46.1295510" lon="10.4630640">
	<ele>2208.00</ele>
	<time>2023-08-07T13:36:12.000Z</time>
</trkpt>
<trkpt lat="46.1295530" lon="10.4630660">
	<ele>2208.00</ele>
	<time>2023-08-07T13:36:13.000Z</time>
</trkpt>
<trkpt lat="46.1295590" lon="10.4630610">
	<ele>2207.80</ele>
	<time>2023-08-07T13:36:14.000Z</time>
</trkpt>
<trkpt lat="46.1295620" lon="10.4630580">
	<ele>2207.60</ele>
	<time>2023-08-07T13:36:15.000Z</time>
</trkpt>
<trkpt lat="46.1295660" lon="10.4630540">
	<ele>2207.40</ele>
	<time>2023-08-07T13:36:16.000Z</time>
</trkpt>
<trkpt lat="46.1295710" lon="10.4630460">
	<ele>2207.20</ele>
	<time>2023-08-07T13:36:17.000Z</time>
</trkpt>
<trkpt lat="46.1295740" lon="10.4630360">
	<ele>2207.20</ele>
	<time>2023-08-07T13:36:18.000Z</time>
</trkpt>
<trkpt lat="46.1295780" lon="10.4630240">
	<ele>2207.00</ele>
	<time>2023-08-07T13:36:19.000Z</time>
</trkpt>
<trkpt lat="46.1295790" lon="10.4630190">
	<ele>2207.00</ele>
	<time>2023-08-07T13:36:20.000Z</time>
</trkpt>
<trkpt lat="46.1295810" lon="10.4630140">
	<ele>2206.80</ele>
	<time>2023-08-07T13:36:21.000Z</time>
</trkpt>
<trkpt lat="46.1295820" lon="10.4630050">
	<ele>2206.80</ele>
	<time>2023-08-07T13:36:22.000Z</time>
</trkpt>
<trkpt lat="46.1295860" lon="10.4629980">
	<ele>2206.60</ele>
	<time>2023-08-07T13:36:23.000Z</time>
</trkpt>
<trkpt lat="46.1295880" lon="10.4629920">
	<ele>2206.60</ele>
	<time>2023-08-07T13:36:24.000Z</time>
</trkpt>
<trkpt lat="46.1295900" lon="10.4629840">
	<ele>2206.20</ele>
	<time>2023-08-07T13:36:25.000Z</time>
</trkpt>
<trkpt lat="46.1295910" lon="10.4629840">
	<ele>2206.00</ele>
	<time>2023-08-07T13:36:26.000Z</time>
</trkpt>
<trkpt lat="46.1295910" lon="10.4629820">
	<ele>2206.00</ele>
	<time>2023-08-07T13:36:27.000Z</time>
</trkpt>
<trkpt lat="46.1295900" lon="10.4629790">
	<ele>2205.80</ele>
	<time>2023-08-07T13:36:28.000Z</time>
</trkpt>
<trkpt lat="46.1295900" lon="10.4629790">
	<ele>2205.80</ele>
	<time>2023-08-07T13:36:29.000Z</time>
</trkpt>
<trkpt lat="46.1295890" lon="10.4629780">
	<ele>2205.80</ele>
	<time>2023-08-07T13:36:30.000Z</time>
</trkpt>
<trkpt lat="46.1295880" lon="10.4629800">
	<ele>2205.60</ele>
	<time>2023-08-07T13:36:31.000Z</time>
</trkpt>
<trkpt lat="46.1295840" lon="10.4629780">
	<ele>2205.60</ele>
	<time>2023-08-07T13:36:32.000Z</time>
</trkpt>
<trkpt lat="46.1295820" lon="10.4629800">
	<ele>2205.60</ele>
	<time>2023-08-07T13:36:33.000Z</time>
</trkpt>
<trkpt lat="46.1295820" lon="10.4629790">
	<ele>2205.60</ele>
	<time>2023-08-07T13:36:34.000Z</time>
</trkpt>
<trkpt lat="46.1295840" lon="10.4629790">
	<ele>2205.60</ele>
	<time>2023-08-07T13:36:35.000Z</time>
</trkpt>
<trkpt lat="46.1295840" lon="10.4629770">
	<ele>2205.60</ele>
	<time>2023-08-07T13:36:36.000Z</time>
</trkpt>
<trkpt lat="46.1295840" lon="10.4629750">
	<ele>2205.40</ele>
	<time>2023-08-07T13:36:37.000Z</time>
</trkpt>
<trkpt lat="46.1295820" lon="10.4629740">
	<ele>2205.40</ele>
	<time>2023-08-07T13:36:38.000Z</time>
</trkpt>
<trkpt lat="46.1295870" lon="10.4629690">
	<ele>2205.40</ele>
	<time>2023-08-07T13:36:39.000Z</time>
</trkpt>
<trkpt lat="46.1295890" lon="10.4629660">
	<ele>2205.60</ele>
	<time>2023-08-07T13:36:40.000Z</time>
</trkpt>
<trkpt lat="46.1295960" lon="10.4629620">
	<ele>2205.40</ele>
	<time>2023-08-07T13:36:41.000Z</time>
</trkpt>
<trkpt lat="46.1296010" lon="10.4629580">
	<ele>2205.40</ele>
	<time>2023-08-07T13:36:42.000Z</time>
</trkpt>
<trkpt lat="46.1296060" lon="10.4629540">
	<ele>2205.40</ele>
	<time>2023-08-07T13:36:43.000Z</time>
</trkpt>
<trkpt lat="46.1296080" lon="10.4629530">
	<ele>2205.20</ele>
	<time>2023-08-07T13:36:44.000Z</time>
</trkpt>
<trkpt lat="46.1296100" lon="10.4629520">
	<ele>2205.00</ele>
	<time>2023-08-07T13:36:45.000Z</time>
</trkpt>
<trkpt lat="46.1296130" lon="10.4629470">
	<ele>2204.80</ele>
	<time>2023-08-07T13:36:46.000Z</time>
</trkpt>
<trkpt lat="46.1296160" lon="10.4629430">
	<ele>2204.60</ele>
	<time>2023-08-07T13:36:47.000Z</time>
</trkpt>
<trkpt lat="46.1296170" lon="10.4629400">
	<ele>2204.60</ele>
	<time>2023-08-07T13:36:48.000Z</time>
</trkpt>
<trkpt lat="46.1296180" lon="10.4629360">
	<ele>2204.40</ele>
	<time>2023-08-07T13:36:49.000Z</time>
</trkpt>
<trkpt lat="46.1296250" lon="10.4629280">
	<ele>2204.40</ele>
	<time>2023-08-07T13:36:50.000Z</time>
</trkpt>
<trkpt lat="46.1296350" lon="10.4629170">
	<ele>2204.20</ele>
	<time>2023-08-07T13:36:51.000Z</time>
</trkpt>
<trkpt lat="46.1296400" lon="10.4629100">
	<ele>2204.00</ele>
	<time>2023-08-07T13:36:52.000Z</time>
</trkpt>
<trkpt lat="46.1296450" lon="10.4629070">
	<ele>2203.80</ele>
	<time>2023-08-07T13:36:53.000Z</time>
</trkpt>
<trkpt lat="46.1296510" lon="10.4629040">
	<ele>2203.60</ele>
	<time>2023-08-07T13:36:54.000Z</time>
</trkpt>
<trkpt lat="46.1296570" lon="10.4628990">
	<ele>2203.40</ele>
	<time>2023-08-07T13:36:55.000Z</time>
</trkpt>
<trkpt lat="46.1296600" lon="10.4628930">
	<ele>2203.40</ele>
	<time>2023-08-07T13:36:56.000Z</time>
</trkpt>
<trkpt lat="46.1296620" lon="10.4628870">
	<ele>2203.20</ele>
	<time>2023-08-07T13:36:57.000Z</time>
</trkpt>
<trkpt lat="46.1296630" lon="10.4628830">
	<ele>2203.00</ele>
	<time>2023-08-07T13:36:58.000Z</time>
</trkpt>
<trkpt lat="46.1296650" lon="10.4628810">
	<ele>2202.60</ele>
	<time>2023-08-07T13:36:59.000Z</time>
</trkpt>
<trkpt lat="46.1296670" lon="10.4628750">
	<ele>2202.40</ele>
	<time>2023-08-07T13:37:00.000Z</time>
</trkpt>
<trkpt lat="46.1296670" lon="10.4628680">
	<ele>2202.40</ele>
	<time>2023-08-07T13:37:01.000Z</time>
</trkpt>
<trkpt lat="46.1296660" lon="10.4628620">
	<ele>2202.20</ele>
	<time>2023-08-07T13:37:02.000Z</time>
</trkpt>
<trkpt lat="46.1296660" lon="10.4628550">
	<ele>2202.20</ele>
	<time>2023-08-07T13:37:03.000Z</time>
</trkpt>
<trkpt lat="46.1296660" lon="10.4628490">
	<ele>2202.20</ele>
	<time>2023-08-07T13:37:04.000Z</time>
</trkpt>
<trkpt lat="46.1296650" lon="10.4628440">
	<ele>2202.00</ele>
	<time>2023-08-07T13:37:05.000Z</time>
</trkpt>
<trkpt lat="46.1296650" lon="10.4628360">
	<ele>2201.80</ele>
	<time>2023-08-07T13:37:06.000Z</time>
</trkpt>
<trkpt lat="46.1296680" lon="10.4628270">
	<ele>2201.40</ele>
	<time>2023-08-07T13:37:07.000Z</time>
</trkpt>
<trkpt lat="46.1296700" lon="10.4628160">
	<ele>2201.20</ele>
	<time>2023-08-07T13:37:08.000Z</time>
</trkpt>
<trkpt lat="46.1296710" lon="10.4628080">
	<ele>2201.00</ele>
	<time>2023-08-07T13:37:09.000Z</time>
</trkpt>
<trkpt lat="46.1296710" lon="10.4628020">
	<ele>2201.00</ele>
	<time>2023-08-07T13:37:10.000Z</time>
</trkpt>
<trkpt lat="46.1296740" lon="10.4627910">
	<ele>2200.80</ele>
	<time>2023-08-07T13:37:11.000Z</time>
</trkpt>
<trkpt lat="46.1296780" lon="10.4627860">
	<ele>2200.80</ele>
	<time>2023-08-07T13:37:12.000Z</time>
</trkpt>
<trkpt lat="46.1296820" lon="10.4627820">
	<ele>2200.60</ele>
	<time>2023-08-07T13:37:13.000Z</time>
</trkpt>
<trkpt lat="46.1296840" lon="10.4627820">
	<ele>2200.20</ele>
	<time>2023-08-07T13:37:14.000Z</time>
</trkpt>
<trkpt lat="46.1296860" lon="10.4627820">
	<ele>2200.00</ele>
	<time>2023-08-07T13:37:15.000Z</time>
</trkpt>
<trkpt lat="46.1296910" lon="10.4627770">
	<ele>2199.60</ele>
	<time>2023-08-07T13:37:16.000Z</time>
</trkpt>
<trkpt lat="46.1296920" lon="10.4627740">
	<ele>2199.40</ele>
	<time>2023-08-07T13:37:17.000Z</time>
</trkpt>
<trkpt lat="46.1296940" lon="10.4627700">
	<ele>2199.20</ele>
	<time>2023-08-07T13:37:18.000Z</time>
</trkpt>
<trkpt lat="46.1296940" lon="10.4627670">
	<ele>2199.20</ele>
	<time>2023-08-07T13:37:19.000Z</time>
</trkpt>
<trkpt lat="46.1296890" lon="10.4627620">
	<ele>2199.00</ele>
	<time>2023-08-07T13:37:20.000Z</time>
</trkpt>
<trkpt lat="46.1296860" lon="10.4627560">
	<ele>2199.00</ele>
	<time>2023-08-07T13:37:21.000Z</time>
</trkpt>
<trkpt lat="46.1296840" lon="10.4627500">
	<ele>2199.00</ele>
	<time>2023-08-07T13:37:22.000Z</time>
</trkpt>
<trkpt lat="46.1296830" lon="10.4627440">
	<ele>2198.80</ele>
	<time>2023-08-07T13:37:23.000Z</time>
</trkpt>
<trkpt lat="46.1296830" lon="10.4627390">
	<ele>2198.80</ele>
	<time>2023-08-07T13:37:24.000Z</time>
</trkpt>
<trkpt lat="46.1296820" lon="10.4627330">
	<ele>2198.60</ele>
	<time>2023-08-07T13:37:25.000Z</time>
</trkpt>
<trkpt lat="46.1296840" lon="10.4627240">
	<ele>2198.20</ele>
	<time>2023-08-07T13:37:26.000Z</time>
</trkpt>
<trkpt lat="46.1296830" lon="10.4627170">
	<ele>2198.00</ele>
	<time>2023-08-07T13:37:27.000Z</time>
</trkpt>
<trkpt lat="46.1296770" lon="10.4627150">
	<ele>2198.00</ele>
	<time>2023-08-07T13:37:28.000Z</time>
</trkpt>
<trkpt lat="46.1296750" lon="10.4627110">
	<ele>2197.60</ele>
	<time>2023-08-07T13:37:29.000Z</time>
</trkpt>
<trkpt lat="46.1296740" lon="10.4627070">
	<ele>2197.40</ele>
	<time>2023-08-07T13:37:30.000Z</time>
</trkpt>
<trkpt lat="46.1296730" lon="10.4627010">
	<ele>2197.40</ele>
	<time>2023-08-07T13:37:31.000Z</time>
</trkpt>
<trkpt lat="46.1296710" lon="10.4626950">
	<ele>2197.20</ele>
	<time>2023-08-07T13:37:32.000Z</time>
</trkpt>
<trkpt lat="46.1296700" lon="10.4626900">
	<ele>2197.20</ele>
	<time>2023-08-07T13:37:33.000Z</time>
</trkpt>
<trkpt lat="46.1296720" lon="10.4626860">
	<ele>2197.00</ele>
	<time>2023-08-07T13:37:34.000Z</time>
</trkpt>
<trkpt lat="46.1296750" lon="10.4626780">
	<ele>2196.80</ele>
	<time>2023-08-07T13:37:35.000Z</time>
</trkpt>
<trkpt lat="46.1296830" lon="10.4626730">
	<ele>2196.60</ele>
	<time>2023-08-07T13:37:36.000Z</time>
</trkpt>
<trkpt lat="46.1296890" lon="10.4626670">
	<ele>2196.20</ele>
	<time>2023-08-07T13:37:37.000Z</time>
</trkpt>
<trkpt lat="46.1296910" lon="10.4626660">
	<ele>2195.80</ele>
	<time>2023-08-07T13:37:38.000Z</time>
</trkpt>
<trkpt lat="46.1296920" lon="10.4626600">
	<ele>2195.60</ele>
	<time>2023-08-07T13:37:39.000Z</time>
</trkpt>
<trkpt lat="46.1296930" lon="10.4626530">
	<ele>2195.60</ele>
	<time>2023-08-07T13:37:40.000Z</time>
</trkpt>
<trkpt lat="46.1296900" lon="10.4626440">
	<ele>2195.40</ele>
	<time>2023-08-07T13:37:41.000Z</time>
</trkpt>
<trkpt lat="46.1296870" lon="10.4626350">
	<ele>2195.40</ele>
	<time>2023-08-07T13:37:42.000Z</time>
</trkpt>
<trkpt lat="46.1296860" lon="10.4626260">
	<ele>2195.20</ele>
	<time>2023-08-07T13:37:43.000Z</time>
</trkpt>
<trkpt lat="46.1296870" lon="10.4626200">
	<ele>2195.00</ele>
	<time>2023-08-07T13:37:44.000Z</time>
</trkpt>
<trkpt lat="46.1296870" lon="10.4626140">
	<ele>2195.00</ele>
	<time>2023-08-07T13:37:45.000Z</time>
</trkpt>
<trkpt lat="46.1296840" lon="10.4626060">
	<ele>2194.80</ele>
	<time>2023-08-07T13:37:46.000Z</time>
</trkpt>
<trkpt lat="46.1296780" lon="10.4626110">
	<ele>2194.80</ele>
	<time>2023-08-07T13:37:47.000Z</time>
</trkpt>
<trkpt lat="46.1296760" lon="10.4626070">
	<ele>2194.80</ele>
	<time>2023-08-07T13:37:48.000Z</time>
</trkpt>
<trkpt lat="46.1296740" lon="10.4626000">
	<ele>2194.80</ele>
	<time>2023-08-07T13:37:49.000Z</time>
</trkpt>
<trkpt lat="46.1296680" lon="10.4625950">
	<ele>2194.40</ele>
	<time>2023-08-07T13:37:50.000Z</time>
</trkpt>
<trkpt lat="46.1296630" lon="10.4625860">
	<ele>2194.20</ele>
	<time>2023-08-07T13:37:51.000Z</time>
</trkpt>
<trkpt lat="46.1296620" lon="10.4625690">
	<ele>2194.00</ele>
	<time>2023-08-07T13:37:52.000Z</time>
</trkpt>
<trkpt lat="46.1296650" lon="10.4625580">
	<ele>2193.80</ele>
	<time>2023-08-07T13:37:53.000Z</time>
</trkpt>
<trkpt lat="46.1296670" lon="10.4625520">
	<ele>2193.40</ele>
	<time>2023-08-07T13:37:54.000Z</time>
</trkpt>
<trkpt lat="46.1296730" lon="10.4625470">
	<ele>2193.40</ele>
	<time>2023-08-07T13:37:55.000Z</time>
</trkpt>
<trkpt lat="46.1296770" lon="10.4625400">
	<ele>2193.20</ele>
	<time>2023-08-07T13:37:56.000Z</time>
</trkpt>
<trkpt lat="46.1296750" lon="10.4625330">
	<ele>2193.00</ele>
	<time>2023-08-07T13:37:57.000Z</time>
</trkpt>
<trkpt lat="46.1296730" lon="10.4625250">
	<ele>2193.00</ele>
	<time>2023-08-07T13:37:58.000Z</time>
</trkpt>
<trkpt lat="46.1296680" lon="10.4625170">
	<ele>2192.80</ele>
	<time>2023-08-07T13:37:59.000Z</time>
</trkpt>
<trkpt lat="46.1296660" lon="10.4625090">
	<ele>2192.80</ele>
	<time>2023-08-07T13:38:00.000Z</time>
</trkpt>
<trkpt lat="46.1296680" lon="10.4625030">
	<ele>2192.60</ele>
	<time>2023-08-07T13:38:01.000Z</time>
</trkpt>
<trkpt lat="46.1296700" lon="10.4624980">
	<ele>2192.40</ele>
	<time>2023-08-07T13:38:02.000Z</time>
</trkpt>
<trkpt lat="46.1296700" lon="10.4624900">
	<ele>2192.40</ele>
	<time>2023-08-07T13:38:03.000Z</time>
</trkpt>
<trkpt lat="46.1296730" lon="10.4624820">
	<ele>2192.20</ele>
	<time>2023-08-07T13:38:04.000Z</time>
</trkpt>
<trkpt lat="46.1296750" lon="10.4624770">
	<ele>2192.00</ele>
	<time>2023-08-07T13:38:05.000Z</time>
</trkpt>
<trkpt lat="46.1296770" lon="10.4624770">
	<ele>2191.80</ele>
	<time>2023-08-07T13:38:06.000Z</time>
</trkpt>
<trkpt lat="46.1296780" lon="10.4624740">
	<ele>2191.60</ele>
	<time>2023-08-07T13:38:07.000Z</time>
</trkpt>
<trkpt lat="46.1296800" lon="10.4624660">
	<ele>2191.40</ele>
	<time>2023-08-07T13:38:08.000Z</time>
</trkpt>
<trkpt lat="46.1296820" lon="10.4624550">
	<ele>2191.20</ele>
	<time>2023-08-07T13:38:09.000Z</time>
</trkpt>
<trkpt lat="46.1296850" lon="10.4624430">
	<ele>2191.00</ele>
	<time>2023-08-07T13:38:10.000Z</time>
</trkpt>
<trkpt lat="46.1296910" lon="10.4624270">
	<ele>2190.60</ele>
	<time>2023-08-07T13:38:11.000Z</time>
</trkpt>
<trkpt lat="46.1296970" lon="10.4624150">
	<ele>2190.40</ele>
	<time>2023-08-07T13:38:12.000Z</time>
</trkpt>
<trkpt lat="46.1297060" lon="10.4624030">
	<ele>2190.40</ele>
	<time>2023-08-07T13:38:13.000Z</time>
</trkpt>
<trkpt lat="46.1297080" lon="10.4623970">
	<ele>2190.20</ele>
	<time>2023-08-07T13:38:14.000Z</time>
</trkpt>
<trkpt lat="46.1297090" lon="10.4623940">
	<ele>2190.20</ele>
	<time>2023-08-07T13:38:15.000Z</time>
</trkpt>
<trkpt lat="46.1297080" lon="10.4623880">
	<ele>2189.80</ele>
	<time>2023-08-07T13:38:16.000Z</time>
</trkpt>
<trkpt lat="46.1297080" lon="10.4623820">
	<ele>2189.60</ele>
	<time>2023-08-07T13:38:17.000Z</time>
</trkpt>
<trkpt lat="46.1297080" lon="10.4623760">
	<ele>2189.40</ele>
	<time>2023-08-07T13:38:18.000Z</time>
</trkpt>
<trkpt lat="46.1297100" lon="10.4623720">
	<ele>2189.40</ele>
	<time>2023-08-07T13:38:19.000Z</time>
</trkpt>
<trkpt lat="46.1297130" lon="10.4623700">
	<ele>2189.20</ele>
	<time>2023-08-07T13:38:20.000Z</time>
</trkpt>
<trkpt lat="46.1297130" lon="10.4623650">
	<ele>2189.00</ele>
	<time>2023-08-07T13:38:21.000Z</time>
</trkpt>
<trkpt lat="46.1297130" lon="10.4623600">
	<ele>2188.80</ele>
	<time>2023-08-07T13:38:22.000Z</time>
</trkpt>
<trkpt lat="46.1297210" lon="10.4623530">
	<ele>2188.80</ele>
	<time>2023-08-07T13:38:23.000Z</time>
</trkpt>
<trkpt lat="46.1297260" lon="10.4623570">
	<ele>2188.60</ele>
	<time>2023-08-07T13:38:24.000Z</time>
</trkpt>
<trkpt lat="46.1297290" lon="10.4623520">
	<ele>2188.40</ele>
	<time>2023-08-07T13:38:25.000Z</time>
</trkpt>
<trkpt lat="46.1297320" lon="10.4623480">
	<ele>2188.40</ele>
	<time>2023-08-07T13:38:26.000Z</time>
</trkpt>
<trkpt lat="46.1297330" lon="10.4623450">
	<ele>2188.00</ele>
	<time>2023-08-07T13:38:27.000Z</time>
</trkpt>
<trkpt lat="46.1297360" lon="10.4623400">
	<ele>2187.80</ele>
	<time>2023-08-07T13:38:28.000Z</time>
</trkpt>
<trkpt lat="46.1297370" lon="10.4623330">
	<ele>2187.40</ele>
	<time>2023-08-07T13:38:29.000Z</time>
</trkpt>
<trkpt lat="46.1297390" lon="10.4623290">
	<ele>2187.20</ele>
	<time>2023-08-07T13:38:30.000Z</time>
</trkpt>
<trkpt lat="46.1297400" lon="10.4623230">
	<ele>2187.00</ele>
	<time>2023-08-07T13:38:31.000Z</time>
</trkpt>
<trkpt lat="46.1297460" lon="10.4623170">
	<ele>2187.00</ele>
	<time>2023-08-07T13:38:32.000Z</time>
</trkpt>
<trkpt lat="46.1297510" lon="10.4623070">
	<ele>2186.60</ele>
	<time>2023-08-07T13:38:33.000Z</time>
</trkpt>
<trkpt lat="46.1297590" lon="10.4622990">
	<ele>2186.60</ele>
	<time>2023-08-07T13:38:34.000Z</time>
</trkpt>
<trkpt lat="46.1297650" lon="10.4622960">
	<ele>2186.40</ele>
	<time>2023-08-07T13:38:35.000Z</time>
</trkpt>
<trkpt lat="46.1297700" lon="10.4622950">
	<ele>2186.40</ele>
	<time>2023-08-07T13:38:36.000Z</time>
</trkpt>
<trkpt lat="46.1297750" lon="10.4622960">
	<ele>2186.20</ele>
	<time>2023-08-07T13:38:37.000Z</time>
</trkpt>
<trkpt lat="46.1297810" lon="10.4622950">
	<ele>2186.00</ele>
	<time>2023-08-07T13:38:38.000Z</time>
</trkpt>
<trkpt lat="46.1297880" lon="10.4622880">
	<ele>2186.00</ele>
	<time>2023-08-07T13:38:39.000Z</time>
</trkpt>
<trkpt lat="46.1297910" lon="10.4622800">
	<ele>2185.80</ele>
	<time>2023-08-07T13:38:40.000Z</time>
</trkpt>
<trkpt lat="46.1297940" lon="10.4622720">
	<ele>2185.60</ele>
	<time>2023-08-07T13:38:41.000Z</time>
</trkpt>
<trkpt lat="46.1297910" lon="10.4622690">
	<ele>2185.60</ele>
	<time>2023-08-07T13:38:42.000Z</time>
</trkpt>
<trkpt lat="46.1297890" lon="10.4622660">
	<ele>2185.40</ele>
	<time>2023-08-07T13:38:43.000Z</time>
</trkpt>
<trkpt lat="46.1297830" lon="10.4622620">
	<ele>2185.40</ele>
	<time>2023-08-07T13:38:44.000Z</time>
</trkpt>
<trkpt lat="46.1297760" lon="10.4622570">
	<ele>2185.40</ele>
	<time>2023-08-07T13:38:45.000Z</time>
</trkpt>
<trkpt lat="46.1297750" lon="10.4622500">
	<ele>2185.20</ele>
	<time>2023-08-07T13:38:46.000Z</time>
</trkpt>
<trkpt lat="46.1297770" lon="10.4622430">
	<ele>2185.00</ele>
	<time>2023-08-07T13:38:47.000Z</time>
</trkpt>
<trkpt lat="46.1297800" lon="10.4622330">
	<ele>2184.80</ele>
	<time>2023-08-07T13:38:48.000Z</time>
</trkpt>
<trkpt lat="46.1297830" lon="10.4622270">
	<ele>2184.60</ele>
	<time>2023-08-07T13:38:49.000Z</time>
</trkpt>
<trkpt lat="46.1297850" lon="10.4622210">
	<ele>2184.40</ele>
	<time>2023-08-07T13:38:50.000Z</time>
</trkpt>
<trkpt lat="46.1297850" lon="10.4622150">
	<ele>2184.20</ele>
	<time>2023-08-07T13:38:51.000Z</time>
</trkpt>
<trkpt lat="46.1297800" lon="10.4622160">
	<ele>2184.00</ele>
	<time>2023-08-07T13:38:52.000Z</time>
</trkpt>
<trkpt lat="46.1297790" lon="10.4622100">
	<ele>2184.00</ele>
	<time>2023-08-07T13:38:53.000Z</time>
</trkpt>
<trkpt lat="46.1297810" lon="10.4622040">
	<ele>2183.80</ele>
	<time>2023-08-07T13:38:54.000Z</time>
</trkpt>
<trkpt lat="46.1297810" lon="10.4621990">
	<ele>2183.40</ele>
	<time>2023-08-07T13:38:55.000Z</time>
</trkpt>
<trkpt lat="46.1297810" lon="10.4621960">
	<ele>2183.20</ele>
	<time>2023-08-07T13:38:56.000Z</time>
</trkpt>
<trkpt lat="46.1297780" lon="10.4621890">
	<ele>2183.00</ele>
	<time>2023-08-07T13:38:57.000Z</time>
</trkpt>
<trkpt lat="46.1297750" lon="10.4621880">
	<ele>2182.80</ele>
	<time>2023-08-07T13:38:58.000Z</time>
</trkpt>
<trkpt lat="46.1297700" lon="10.4621850">
	<ele>2182.80</ele>
	<time>2023-08-07T13:38:59.000Z</time>
</trkpt>
<trkpt lat="46.1297640" lon="10.4621810">
	<ele>2182.60</ele>
	<time>2023-08-07T13:39:00.000Z</time>
</trkpt>
<trkpt lat="46.1297610" lon="10.4621760">
	<ele>2182.60</ele>
	<time>2023-08-07T13:39:01.000Z</time>
</trkpt>
<trkpt lat="46.1297560" lon="10.4621730">
	<ele>2182.40</ele>
	<time>2023-08-07T13:39:02.000Z</time>
</trkpt>
<trkpt lat="46.1297560" lon="10.4621690">
	<ele>2182.20</ele>
	<time>2023-08-07T13:39:03.000Z</time>
</trkpt>
<trkpt lat="46.1297570" lon="10.4621630">
	<ele>2182.00</ele>
	<time>2023-08-07T13:39:04.000Z</time>
</trkpt>
<trkpt lat="46.1297590" lon="10.4621580">
	<ele>2181.80</ele>
	<time>2023-08-07T13:39:05.000Z</time>
</trkpt>
<trkpt lat="46.1297630" lon="10.4621550">
	<ele>2181.60</ele>
	<time>2023-08-07T13:39:06.000Z</time>
</trkpt>
<trkpt lat="46.1297670" lon="10.4621480">
	<ele>2181.40</ele>
	<time>2023-08-07T13:39:07.000Z</time>
</trkpt>
<trkpt lat="46.1297710" lon="10.4621380">
	<ele>2181.20</ele>
	<time>2023-08-07T13:39:08.000Z</time>
</trkpt>
<trkpt lat="46.1297770" lon="10.4621270">
	<ele>2181.00</ele>
	<time>2023-08-07T13:39:09.000Z</time>
</trkpt>
<trkpt lat="46.1297860" lon="10.4621160">
	<ele>2181.00</ele>
	<time>2023-08-07T13:39:10.000Z</time>
</trkpt>
<trkpt lat="46.1297960" lon="10.4621070">
	<ele>2180.80</ele>
	<time>2023-08-07T13:39:11.000Z</time>
</trkpt>
<trkpt lat="46.1298020" lon="10.4620970">
	<ele>2180.80</ele>
	<time>2023-08-07T13:39:12.000Z</time>
</trkpt>
<trkpt lat="46.1298060" lon="10.4620850">
	<ele>2180.80</ele>
	<time>2023-08-07T13:39:13.000Z</time>
</trkpt>
<trkpt lat="46.1298090" lon="10.4620730">
	<ele>2180.60</ele>
	<time>2023-08-07T13:39:14.000Z</time>
</trkpt>
<trkpt lat="46.1298080" lon="10.4620620">
	<ele>2180.40</ele>
	<time>2023-08-07T13:39:15.000Z</time>
</trkpt>
<trkpt lat="46.1298100" lon="10.4620490">
	<ele>2180.40</ele>
	<time>2023-08-07T13:39:16.000Z</time>
</trkpt>
<trkpt lat="46.1298120" lon="10.4620410">
	<ele>2180.20</ele>
	<time>2023-08-07T13:39:17.000Z</time>
</trkpt>
<trkpt lat="46.1298160" lon="10.4620330">
	<ele>2180.00</ele>
	<time>2023-08-07T13:39:18.000Z</time>
</trkpt>
<trkpt lat="46.1298180" lon="10.4620190">
	<ele>2179.80</ele>
	<time>2023-08-07T13:39:19.000Z</time>
</trkpt>
<trkpt lat="46.1298210" lon="10.4620080">
	<ele>2179.80</ele>
	<time>2023-08-07T13:39:20.000Z</time>
</trkpt>
<trkpt lat="46.1298240" lon="10.4620030">
	<ele>2179.60</ele>
	<time>2023-08-07T13:39:21.000Z</time>
</trkpt>
<trkpt lat="46.1298280" lon="10.4619950">
	<ele>2179.60</ele>
	<time>2023-08-07T13:39:22.000Z</time>
</trkpt>
<trkpt lat="46.1298310" lon="10.4619870">
	<ele>2179.40</ele>
	<time>2023-08-07T13:39:23.000Z</time>
</trkpt>
<trkpt lat="46.1298360" lon="10.4619830">
	<ele>2179.20</ele>
	<time>2023-08-07T13:39:24.000Z</time>
</trkpt>
<trkpt lat="46.1298390" lon="10.4619800">
	<ele>2178.80</ele>
	<time>2023-08-07T13:39:25.000Z</time>
</trkpt>
<trkpt lat="46.1298430" lon="10.4619770">
	<ele>2178.60</ele>
	<time>2023-08-07T13:39:26.000Z</time>
</trkpt>
<trkpt lat="46.1298460" lon="10.4619750">
	<ele>2178.40</ele>
	<time>2023-08-07T13:39:27.000Z</time>
</trkpt>
<trkpt lat="46.1298500" lon="10.4619720">
	<ele>2178.20</ele>
	<time>2023-08-07T13:39:28.000Z</time>
</trkpt>
<trkpt lat="46.1298530" lon="10.4619700">
	<ele>2178.00</ele>
	<time>2023-08-07T13:39:29.000Z</time>
</trkpt>
<trkpt lat="46.1298590" lon="10.4619690">
	<ele>2178.00</ele>
	<time>2023-08-07T13:39:30.000Z</time>
</trkpt>
<trkpt lat="46.1298670" lon="10.4619680">
	<ele>2177.80</ele>
	<time>2023-08-07T13:39:31.000Z</time>
</trkpt>
<trkpt lat="46.1298780" lon="10.4619640">
	<ele>2177.80</ele>
	<time>2023-08-07T13:39:32.000Z</time>
</trkpt>
<trkpt lat="46.1298900" lon="10.4619620">
	<ele>2177.60</ele>
	<time>2023-08-07T13:39:33.000Z</time>
</trkpt>
<trkpt lat="46.1299000" lon="10.4619550">
	<ele>2177.60</ele>
	<time>2023-08-07T13:39:34.000Z</time>
</trkpt>
<trkpt lat="46.1299030" lon="10.4619470">
	<ele>2177.60</ele>
	<time>2023-08-07T13:39:35.000Z</time>
</trkpt>
<trkpt lat="46.1299020" lon="10.4619400">
	<ele>2177.60</ele>
	<time>2023-08-07T13:39:36.000Z</time>
</trkpt>
<trkpt lat="46.1299030" lon="10.4619320">
	<ele>2177.40</ele>
	<time>2023-08-07T13:39:37.000Z</time>
</trkpt>
<trkpt lat="46.1298980" lon="10.4619250">
	<ele>2177.40</ele>
	<time>2023-08-07T13:39:38.000Z</time>
</trkpt>
<trkpt lat="46.1299050" lon="10.4619140">
	<ele>2177.40</ele>
	<time>2023-08-07T13:39:39.000Z</time>
</trkpt>
<trkpt lat="46.1299100" lon="10.4619090">
	<ele>2177.20</ele>
	<time>2023-08-07T13:39:40.000Z</time>
</trkpt>
<trkpt lat="46.1299100" lon="10.4619000">
	<ele>2177.00</ele>
	<time>2023-08-07T13:39:41.000Z</time>
</trkpt>
<trkpt lat="46.1299070" lon="10.4618870">
	<ele>2176.80</ele>
	<time>2023-08-07T13:39:42.000Z</time>
</trkpt>
<trkpt lat="46.1299050" lon="10.4618770">
	<ele>2176.60</ele>
	<time>2023-08-07T13:39:43.000Z</time>
</trkpt>
<trkpt lat="46.1299040" lon="10.4618630">
	<ele>2176.60</ele>
	<time>2023-08-07T13:39:44.000Z</time>
</trkpt>
<trkpt lat="46.1299030" lon="10.4618510">
	<ele>2176.60</ele>
	<time>2023-08-07T13:39:45.000Z</time>
</trkpt>
<trkpt lat="46.1299030" lon="10.4618390">
	<ele>2176.40</ele>
	<time>2023-08-07T13:39:46.000Z</time>
</trkpt>
<trkpt lat="46.1299050" lon="10.4618250">
	<ele>2176.40</ele>
	<time>2023-08-07T13:39:47.000Z</time>
</trkpt>
<trkpt lat="46.1299120" lon="10.4618150">
	<ele>2176.20</ele>
	<time>2023-08-07T13:39:48.000Z</time>
</trkpt>
<trkpt lat="46.1299130" lon="10.4618100">
	<ele>2176.00</ele>
	<time>2023-08-07T13:39:49.000Z</time>
</trkpt>
<trkpt lat="46.1299170" lon="10.4618070">
	<ele>2175.80</ele>
	<time>2023-08-07T13:39:50.000Z</time>
</trkpt>
<trkpt lat="46.1299180" lon="10.4618010">
	<ele>2175.60</ele>
	<time>2023-08-07T13:39:51.000Z</time>
</trkpt>
<trkpt lat="46.1299190" lon="10.4617930">
	<ele>2175.40</ele>
	<time>2023-08-07T13:39:52.000Z</time>
</trkpt>
<trkpt lat="46.1299170" lon="10.4617780">
	<ele>2175.20</ele>
	<time>2023-08-07T13:39:53.000Z</time>
</trkpt>
<trkpt lat="46.1299170" lon="10.4617720">
	<ele>2175.20</ele>
	<time>2023-08-07T13:39:54.000Z</time>
</trkpt>
<trkpt lat="46.1299190" lon="10.4617640">
	<ele>2175.00</ele>
	<time>2023-08-07T13:39:55.000Z</time>
</trkpt>
<trkpt lat="46.1299240" lon="10.4617510">
	<ele>2175.00</ele>
	<time>2023-08-07T13:39:56.000Z</time>
</trkpt>
<trkpt lat="46.1299280" lon="10.4617370">
	<ele>2174.80</ele>
	<time>2023-08-07T13:39:57.000Z</time>
</trkpt>
<trkpt lat="46.1299290" lon="10.4617210">
	<ele>2174.80</ele>
	<time>2023-08-07T13:39:58.000Z</time>
</trkpt>
<trkpt lat="46.1299320" lon="10.4617060">
	<ele>2174.60</ele>
	<time>2023-08-07T13:39:59.000Z</time>
</trkpt>
<trkpt lat="46.1299370" lon="10.4616960">
	<ele>2174.60</ele>
	<time>2023-08-07T13:40:00.000Z</time>
</trkpt>
<trkpt lat="46.1299370" lon="10.4616890">
	<ele>2174.40</ele>
	<time>2023-08-07T13:40:01.000Z</time>
</trkpt>
<trkpt lat="46.1299390" lon="10.4616850">
	<ele>2174.40</ele>
	<time>2023-08-07T13:40:02.000Z</time>
</trkpt>
<trkpt lat="46.1299420" lon="10.4616810">
	<ele>2174.20</ele>
	<time>2023-08-07T13:40:03.000Z</time>
</trkpt>
<trkpt lat="46.1299440" lon="10.4616790">
	<ele>2174.00</ele>
	<time>2023-08-07T13:40:04.000Z</time>
</trkpt>
<trkpt lat="46.1299430" lon="10.4616750">
	<ele>2174.00</ele>
	<time>2023-08-07T13:40:05.000Z</time>
</trkpt>
<trkpt lat="46.1299430" lon="10.4616750">
	<ele>2174.00</ele>
	<time>2023-08-07T13:40:06.000Z</time>
</trkpt>
<trkpt lat="46.1299420" lon="10.4616750">
	<ele>2174.00</ele>
	<time>2023-08-07T13:40:07.000Z</time>
</trkpt>
<trkpt lat="46.1299410" lon="10.4616740">
	<ele>2174.00</ele>
	<time>2023-08-07T13:40:08.000Z</time>
</trkpt>
<trkpt lat="46.1299400" lon="10.4616740">
	<ele>2174.00</ele>
	<time>2023-08-07T13:40:09.000Z</time>
</trkpt>
<trkpt lat="46.1299400" lon="10.4616730">
	<ele>2174.20</ele>
	<time>2023-08-07T13:40:10.000Z</time>
</trkpt>
<trkpt lat="46.1299420" lon="10.4616710">
	<ele>2174.20</ele>
	<time>2023-08-07T13:40:11.000Z</time>
</trkpt>
<trkpt lat="46.1299420" lon="10.4616680">
	<ele>2174.20</ele>
	<time>2023-08-07T13:40:12.000Z</time>
</trkpt>
<trkpt lat="46.1299420" lon="10.4616670">
	<ele>2174.20</ele>
	<time>2023-08-07T13:40:13.000Z</time>
</trkpt>
<trkpt lat="46.1299420" lon="10.4616670">
	<ele>2174.20</ele>
	<time>2023-08-07T13:40:14.000Z</time>
</trkpt>
<trkpt lat="46.1299420" lon="10.4616670">
	<ele>2174.20</ele>
	<time>2023-08-07T13:40:15.000Z</time>
</trkpt>
<trkpt lat="46.1299420" lon="10.4616670">
	<ele>2174.20</ele>
	<time>2023-08-07T13:40:16.000Z</time>
</trkpt>
<trkpt lat="46.1299420" lon="10.4616670">
	<ele>2174.20</ele>
	<time>2023-08-07T13:40:17.000Z</time>
</trkpt>
<trkpt lat="46.1299420" lon="10.4616670">
	<ele>2174.20</ele>
	<time>2023-08-07T13:40:18.000Z</time>
</trkpt>
<trkpt lat="46.1299420" lon="10.4616670">
	<ele>2174.20</ele>
	<time>2023-08-07T13:40:19.000Z</time>
</trkpt>
<trkpt lat="46.1299420" lon="10.4616670">
	<ele>2174.20</ele>
	<time>2023-08-07T13:40:20.000Z</time>
</trkpt>
<trkpt lat="46.1299420" lon="10.4616670">
	<ele>2174.20</ele>
	<time>2023-08-07T13:40:21.000Z</time>
</trkpt>
<trkpt lat="46.1299420" lon="10.4616670">
	<ele>2174.00</ele>
	<time>2023-08-07T13:40:22.000Z</time>
</trkpt>
<trkpt lat="46.1299420" lon="10.4616670">
	<ele>2173.80</ele>
	<time>2023-08-07T13:40:23.000Z</time>
</trkpt>
<trkpt lat="46.1299420" lon="10.4616670">
	<ele>2173.60</ele>
	<time>2023-08-07T13:40:24.000Z</time>
</trkpt>
<trkpt lat="46.1299420" lon="10.4616670">
	<ele>2173.20</ele>
	<time>2023-08-07T13:40:25.000Z</time>
</trkpt>
<trkpt lat="46.1299420" lon="10.4616670">
	<ele>2173.00</ele>
	<time>2023-08-07T13:40:26.000Z</time>
</trkpt>
<trkpt lat="46.1299420" lon="10.4616670">
	<ele>2172.60</ele>
	<time>2023-08-07T13:40:27.000Z</time>
</trkpt>
<trkpt lat="46.1299420" lon="10.4616670">
	<ele>2172.40</ele>
	<time>2023-08-07T13:40:28.000Z</time>
</trkpt>
<trkpt lat="46.1299430" lon="10.4616670">
	<ele>2172.00</ele>
	<time>2023-08-07T13:40:29.000Z</time>
</trkpt>
<trkpt lat="46.1299460" lon="10.4616630">
	<ele>2171.80</ele>
	<time>2023-08-07T13:40:30.000Z</time>
</trkpt>
<trkpt lat="46.1299520" lon="10.4616550">
	<ele>2171.80</ele>
	<time>2023-08-07T13:40:31.000Z</time>
</trkpt>
<trkpt lat="46.1299610" lon="10.4616450">
	<ele>2171.60</ele>
	<time>2023-08-07T13:40:32.000Z</time>
</trkpt>
<trkpt lat="46.1299690" lon="10.4616350">
	<ele>2171.60</ele>
	<time>2023-08-07T13:40:33.000Z</time>
</trkpt>
<trkpt lat="46.1299750" lon="10.4616240">
	<ele>2171.60</ele>
	<time>2023-08-07T13:40:34.000Z</time>
</trkpt>
<trkpt lat="46.1299800" lon="10.4616130">
	<ele>2171.40</ele>
	<time>2023-08-07T13:40:35.000Z</time>
</trkpt>
<trkpt lat="46.1299830" lon="10.4616010">
	<ele>2171.20</ele>
	<time>2023-08-07T13:40:36.000Z</time>
</trkpt>
<trkpt lat="46.1299850" lon="10.4615900">
	<ele>2171.00</ele>
	<time>2023-08-07T13:40:37.000Z</time>
</trkpt>
<trkpt lat="46.1299860" lon="10.4615740">
	<ele>2170.60</ele>
	<time>2023-08-07T13:40:38.000Z</time>
</trkpt>
<trkpt lat="46.1299870" lon="10.4615620">
	<ele>2170.60</ele>
	<time>2023-08-07T13:40:39.000Z</time>
</trkpt>
<trkpt lat="46.1299830" lon="10.4615520">
	<ele>2170.40</ele>
	<time>2023-08-07T13:40:40.000Z</time>
</trkpt>
<trkpt lat="46.1299810" lon="10.4615450">
	<ele>2170.40</ele>
	<time>2023-08-07T13:40:41.000Z</time>
</trkpt>
<trkpt lat="46.1299790" lon="10.4615370">
	<ele>2170.20</ele>
	<time>2023-08-07T13:40:42.000Z</time>
</trkpt>
<trkpt lat="46.1299800" lon="10.4615280">
	<ele>2170.20</ele>
	<time>2023-08-07T13:40:43.000Z</time>
</trkpt>
<trkpt lat="46.1299780" lon="10.4615210">
	<ele>2170.00</ele>
	<time>2023-08-07T13:40:44.000Z</time>
</trkpt>
<trkpt lat="46.1299790" lon="10.4615090">
	<ele>2169.80</ele>
	<time>2023-08-07T13:40:45.000Z</time>
</trkpt>
<trkpt lat="46.1299800" lon="10.4614960">
	<ele>2169.40</ele>
	<time>2023-08-07T13:40:46.000Z</time>
</trkpt>
<trkpt lat="46.1299780" lon="10.4614850">
	<ele>2169.00</ele>
	<time>2023-08-07T13:40:47.000Z</time>
</trkpt>
<trkpt lat="46.1299780" lon="10.4614740">
	<ele>2168.80</ele>
	<time>2023-08-07T13:40:48.000Z</time>
</trkpt>
<trkpt lat="46.1299770" lon="10.4614550">
	<ele>2168.60</ele>
	<time>2023-08-07T13:40:49.000Z</time>
</trkpt>
<trkpt lat="46.1299760" lon="10.4614410">
	<ele>2168.40</ele>
	<time>2023-08-07T13:40:50.000Z</time>
</trkpt>
<trkpt lat="46.1299760" lon="10.4614330">
	<ele>2168.20</ele>
	<time>2023-08-07T13:40:51.000Z</time>
</trkpt>
<trkpt lat="46.1299780" lon="10.4614270">
	<ele>2167.80</ele>
	<time>2023-08-07T13:40:52.000Z</time>
</trkpt>
<trkpt lat="46.1299800" lon="10.4614230">
	<ele>2167.80</ele>
	<time>2023-08-07T13:40:53.000Z</time>
</trkpt>
<trkpt lat="46.1299810" lon="10.4614200">
	<ele>2167.60</ele>
	<time>2023-08-07T13:40:54.000Z</time>
</trkpt>
<trkpt lat="46.1299820" lon="10.4614160">
	<ele>2167.60</ele>
	<time>2023-08-07T13:40:55.000Z</time>
</trkpt>
<trkpt lat="46.1299840" lon="10.4614100">
	<ele>2167.60</ele>
	<time>2023-08-07T13:40:56.000Z</time>
</trkpt>
<trkpt lat="46.1299870" lon="10.4614020">
	<ele>2167.40</ele>
	<time>2023-08-07T13:40:57.000Z</time>
</trkpt>
<trkpt lat="46.1299930" lon="10.4613990">
	<ele>2167.20</ele>
	<time>2023-08-07T13:40:58.000Z</time>
</trkpt>
<trkpt lat="46.1299960" lon="10.4613970">
	<ele>2167.20</ele>
	<time>2023-08-07T13:40:59.000Z</time>
</trkpt>
<trkpt lat="46.1300000" lon="10.4613970">
	<ele>2167.00</ele>
	<time>2023-08-07T13:41:00.000Z</time>
</trkpt>
<trkpt lat="46.1300020" lon="10.4613960">
	<ele>2166.80</ele>
	<time>2023-08-07T13:41:01.000Z</time>
</trkpt>
<trkpt lat="46.1300040" lon="10.4613920">
	<ele>2166.80</ele>
	<time>2023-08-07T13:41:02.000Z</time>
</trkpt>
<trkpt lat="46.1300070" lon="10.4613870">
	<ele>2166.60</ele>
	<time>2023-08-07T13:41:03.000Z</time>
</trkpt>
<trkpt lat="46.1300080" lon="10.4613820">
	<ele>2166.40</ele>
	<time>2023-08-07T13:41:04.000Z</time>
</trkpt>
<trkpt lat="46.1300090" lon="10.4613730">
	<ele>2166.20</ele>
	<time>2023-08-07T13:41:05.000Z</time>
</trkpt>
<trkpt lat="46.1300110" lon="10.4613630">
	<ele>2166.20</ele>
	<time>2023-08-07T13:41:06.000Z</time>
</trkpt>
<trkpt lat="46.1300130" lon="10.4613560">
	<ele>2166.20</ele>
	<time>2023-08-07T13:41:07.000Z</time>
</trkpt>
<trkpt lat="46.1300140" lon="10.4613490">
	<ele>2166.00</ele>
	<time>2023-08-07T13:41:08.000Z</time>
</trkpt>
<trkpt lat="46.1300150" lon="10.4613420">
	<ele>2166.00</ele>
	<time>2023-08-07T13:41:09.000Z</time>
</trkpt>
<trkpt lat="46.1300120" lon="10.4613360">
	<ele>2165.80</ele>
	<time>2023-08-07T13:41:10.000Z</time>
</trkpt>
<trkpt lat="46.1300080" lon="10.4613300">
	<ele>2165.60</ele>
	<time>2023-08-07T13:41:11.000Z</time>
</trkpt>
<trkpt lat="46.1300080" lon="10.4613230">
	<ele>2165.60</ele>
	<time>2023-08-07T13:41:12.000Z</time>
</trkpt>
<trkpt lat="46.1300100" lon="10.4613160">
	<ele>2165.40</ele>
	<time>2023-08-07T13:41:13.000Z</time>
</trkpt>
<trkpt lat="46.1300120" lon="10.4613080">
	<ele>2165.40</ele>
	<time>2023-08-07T13:41:14.000Z</time>
</trkpt>
<trkpt lat="46.1300130" lon="10.4612980">
	<ele>2165.20</ele>
	<time>2023-08-07T13:41:15.000Z</time>
</trkpt>
<trkpt lat="46.1300160" lon="10.4612910">
	<ele>2165.20</ele>
	<time>2023-08-07T13:41:16.000Z</time>
</trkpt>
<trkpt lat="46.1300200" lon="10.4612830">
	<ele>2165.00</ele>
	<time>2023-08-07T13:41:17.000Z</time>
</trkpt>
<trkpt lat="46.1300220" lon="10.4612760">
	<ele>2165.00</ele>
	<time>2023-08-07T13:41:18.000Z</time>
</trkpt>
<trkpt lat="46.1300250" lon="10.4612700">
	<ele>2164.80</ele>
	<time>2023-08-07T13:41:19.000Z</time>
</trkpt>
<trkpt lat="46.1300270" lon="10.4612650">
	<ele>2164.80</ele>
	<time>2023-08-07T13:41:20.000Z</time>
</trkpt>
<trkpt lat="46.1300280" lon="10.4612590">
	<ele>2164.40</ele>
	<time>2023-08-07T13:41:21.000Z</time>
</trkpt>
<trkpt lat="46.1300280" lon="10.4612510">
	<ele>2164.20</ele>
	<time>2023-08-07T13:41:22.000Z</time>
</trkpt>
<trkpt lat="46.1300320" lon="10.4612390">
	<ele>2164.00</ele>
	<time>2023-08-07T13:41:23.000Z</time>
</trkpt>
<trkpt lat="46.1300360" lon="10.4612280">
	<ele>2163.80</ele>
	<time>2023-08-07T13:41:24.000Z</time>
</trkpt>
<trkpt lat="46.1300400" lon="10.4612180">
	<ele>2163.80</ele>
	<time>2023-08-07T13:41:25.000Z</time>
</trkpt>
<trkpt lat="46.1300440" lon="10.4612110">
	<ele>2163.80</ele>
	<time>2023-08-07T13:41:26.000Z</time>
</trkpt>
<trkpt lat="46.1300510" lon="10.4612030">
	<ele>2163.60</ele>
	<time>2023-08-07T13:41:27.000Z</time>
</trkpt>
<trkpt lat="46.1300560" lon="10.4611960">
	<ele>2163.60</ele>
	<time>2023-08-07T13:41:28.000Z</time>
</trkpt>
<trkpt lat="46.1300620" lon="10.4611930">
	<ele>2163.60</ele>
	<time>2023-08-07T13:41:29.000Z</time>
</trkpt>
<trkpt lat="46.1300670" lon="10.4611890">
	<ele>2163.40</ele>
	<time>2023-08-07T13:41:30.000Z</time>
</trkpt>
<trkpt lat="46.1300710" lon="10.4611830">
	<ele>2163.40</ele>
	<time>2023-08-07T13:41:31.000Z</time>
</trkpt>
<trkpt lat="46.1300740" lon="10.4611790">
	<ele>2163.20</ele>
	<time>2023-08-07T13:41:32.000Z</time>
</trkpt>
<trkpt lat="46.1300770" lon="10.4611780">
	<ele>2163.00</ele>
	<time>2023-08-07T13:41:33.000Z</time>
</trkpt>
<trkpt lat="46.1300810" lon="10.4611760">
	<ele>2163.00</ele>
	<time>2023-08-07T13:41:34.000Z</time>
</trkpt>
<trkpt lat="46.1300860" lon="10.4611740">
	<ele>2162.80</ele>
	<time>2023-08-07T13:41:35.000Z</time>
</trkpt>
<trkpt lat="46.1300910" lon="10.4611690">
	<ele>2162.60</ele>
	<time>2023-08-07T13:41:36.000Z</time>
</trkpt>
<trkpt lat="46.1300990" lon="10.4611620">
	<ele>2162.40</ele>
	<time>2023-08-07T13:41:37.000Z</time>
</trkpt>
<trkpt lat="46.1301070" lon="10.4611550">
	<ele>2162.20</ele>
	<time>2023-08-07T13:41:38.000Z</time>
</trkpt>
<trkpt lat="46.1301190" lon="10.4611490">
	<ele>2162.00</ele>
	<time>2023-08-07T13:41:39.000Z</time>
</trkpt>
<trkpt lat="46.1301310" lon="10.4611460">
	<ele>2162.00</ele>
	<time>2023-08-07T13:41:40.000Z</time>
</trkpt>
<trkpt lat="46.1301380" lon="10.4611450">
	<ele>2161.80</ele>
	<time>2023-08-07T13:41:41.000Z</time>
</trkpt>
<trkpt lat="46.1301410" lon="10.4611460">
	<ele>2161.60</ele>
	<time>2023-08-07T13:41:42.000Z</time>
</trkpt>
<trkpt lat="46.1301490" lon="10.4611520">
	<ele>2161.60</ele>
	<time>2023-08-07T13:41:43.000Z</time>
</trkpt>
<trkpt lat="46.1301590" lon="10.4611490">
	<ele>2161.40</ele>
	<time>2023-08-07T13:41:44.000Z</time>
</trkpt>
<trkpt lat="46.1301700" lon="10.4611490">
	<ele>2161.00</ele>
	<time>2023-08-07T13:41:45.000Z</time>
</trkpt>
<trkpt lat="46.1301740" lon="10.4611540">
	<ele>2160.80</ele>
	<time>2023-08-07T13:41:46.000Z</time>
</trkpt>
<trkpt lat="46.1301820" lon="10.4611580">
	<ele>2160.60</ele>
	<time>2023-08-07T13:41:47.000Z</time>
</trkpt>
<trkpt lat="46.1301860" lon="10.4611510">
	<ele>2160.40</ele>
	<time>2023-08-07T13:41:48.000Z</time>
</trkpt>
<trkpt lat="46.1301900" lon="10.4611470">
	<ele>2160.20</ele>
	<time>2023-08-07T13:41:49.000Z</time>
</trkpt>
<trkpt lat="46.1301910" lon="10.4611410">
	<ele>2160.00</ele>
	<time>2023-08-07T13:41:50.000Z</time>
</trkpt>
<trkpt lat="46.1301950" lon="10.4611340">
	<ele>2159.80</ele>
	<time>2023-08-07T13:41:51.000Z</time>
</trkpt>
<trkpt lat="46.1301990" lon="10.4611230">
	<ele>2159.60</ele>
	<time>2023-08-07T13:41:52.000Z</time>
</trkpt>
<trkpt lat="46.1302040" lon="10.4611090">
	<ele>2159.60</ele>
	<time>2023-08-07T13:41:53.000Z</time>
</trkpt>
<trkpt lat="46.1302020" lon="10.4610960">
	<ele>2159.60</ele>
	<time>2023-08-07T13:41:54.000Z</time>
</trkpt>
<trkpt lat="46.1302020" lon="10.4610920">
	<ele>2159.40</ele>
	<time>2023-08-07T13:41:55.000Z</time>
</trkpt>
<trkpt lat="46.1302090" lon="10.4610840">
	<ele>2159.00</ele>
	<time>2023-08-07T13:41:56.000Z</time>
</trkpt>
<trkpt lat="46.1302120" lon="10.4610770">
	<ele>2159.00</ele>
	<time>2023-08-07T13:41:57.000Z</time>
</trkpt>
<trkpt lat="46.1302180" lon="10.4610680">
	<ele>2158.80</ele>
	<time>2023-08-07T13:41:58.000Z</time>
</trkpt>
<trkpt lat="46.1302260" lon="10.4610590">
	<ele>2158.80</ele>
	<time>2023-08-07T13:41:59.000Z</time>
</trkpt>
<trkpt lat="46.1302350" lon="10.4610480">
	<ele>2158.80</ele>
	<time>2023-08-07T13:42:00.000Z</time>
</trkpt>
<trkpt lat="46.1302420" lon="10.4610360">
	<ele>2158.60</ele>
	<time>2023-08-07T13:42:01.000Z</time>
</trkpt>
<trkpt lat="46.1302450" lon="10.4610280">
	<ele>2158.40</ele>
	<time>2023-08-07T13:42:02.000Z</time>
</trkpt>
<trkpt lat="46.1302480" lon="10.4610170">
	<ele>2158.20</ele>
	<time>2023-08-07T13:42:03.000Z</time>
</trkpt>
<trkpt lat="46.1302520" lon="10.4610020">
	<ele>2158.00</ele>
	<time>2023-08-07T13:42:04.000Z</time>
</trkpt>
<trkpt lat="46.1302570" lon="10.4609900">
	<ele>2158.00</ele>
	<time>2023-08-07T13:42:05.000Z</time>
</trkpt>
<trkpt lat="46.1302640" lon="10.4609760">
	<ele>2157.80</ele>
	<time>2023-08-07T13:42:06.000Z</time>
</trkpt>
<trkpt lat="46.1302690" lon="10.4609630">
	<ele>2157.80</ele>
	<time>2023-08-07T13:42:07.000Z</time>
</trkpt>
<trkpt lat="46.1302700" lon="10.4609560">
	<ele>2157.80</ele>
	<time>2023-08-07T13:42:08.000Z</time>
</trkpt>
<trkpt lat="46.1302720" lon="10.4609450">
	<ele>2157.60</ele>
	<time>2023-08-07T13:42:09.000Z</time>
</trkpt>
<trkpt lat="46.1302700" lon="10.4609370">
	<ele>2157.20</ele>
	<time>2023-08-07T13:42:10.000Z</time>
</trkpt>
<trkpt lat="46.1302700" lon="10.4609300">
	<ele>2157.00</ele>
	<time>2023-08-07T13:42:11.000Z</time>
</trkpt>
<trkpt lat="46.1302690" lon="10.4609180">
	<ele>2157.00</ele>
	<time>2023-08-07T13:42:12.000Z</time>
</trkpt>
<trkpt lat="46.1302720" lon="10.4609020">
	<ele>2156.80</ele>
	<time>2023-08-07T13:42:13.000Z</time>
</trkpt>
<trkpt lat="46.1302700" lon="10.4608890">
	<ele>2156.80</ele>
	<time>2023-08-07T13:42:14.000Z</time>
</trkpt>
<trkpt lat="46.1302680" lon="10.4608760">
	<ele>2156.80</ele>
	<time>2023-08-07T13:42:15.000Z</time>
</trkpt>
<trkpt lat="46.1302670" lon="10.4608640">
	<ele>2156.60</ele>
	<time>2023-08-07T13:42:16.000Z</time>
</trkpt>
<trkpt lat="46.1302700" lon="10.4608520">
	<ele>2156.40</ele>
	<time>2023-08-07T13:42:17.000Z</time>
</trkpt>
<trkpt lat="46.1302800" lon="10.4608390">
	<ele>2156.40</ele>
	<time>2023-08-07T13:42:18.000Z</time>
</trkpt>
<trkpt lat="46.1302840" lon="10.4608300">
	<ele>2156.40</ele>
	<time>2023-08-07T13:42:19.000Z</time>
</trkpt>
<trkpt lat="46.1302860" lon="10.4608200">
	<ele>2156.40</ele>
	<time>2023-08-07T13:42:20.000Z</time>
</trkpt>
<trkpt lat="46.1302860" lon="10.4608050">
	<ele>2156.20</ele>
	<time>2023-08-07T13:42:21.000Z</time>
</trkpt>
<trkpt lat="46.1302920" lon="10.4607930">
	<ele>2156.20</ele>
	<time>2023-08-07T13:42:22.000Z</time>
</trkpt>
<trkpt lat="46.1303010" lon="10.4607860">
	<ele>2156.20</ele>
	<time>2023-08-07T13:42:23.000Z</time>
</trkpt>
<trkpt lat="46.1303090" lon="10.4607760">
	<ele>2156.00</ele>
	<time>2023-08-07T13:42:24.000Z</time>
</trkpt>
<trkpt lat="46.1303140" lon="10.4607630">
	<ele>2156.00</ele>
	<time>2023-08-07T13:42:25.000Z</time>
</trkpt>
<trkpt lat="46.1303200" lon="10.4607510">
	<ele>2155.80</ele>
	<time>2023-08-07T13:42:26.000Z</time>
</trkpt>
<trkpt lat="46.1303280" lon="10.4607430">
	<ele>2155.80</ele>
	<time>2023-08-07T13:42:27.000Z</time>
</trkpt>
<trkpt lat="46.1303390" lon="10.4607360">
	<ele>2155.80</ele>
	<time>2023-08-07T13:42:28.000Z</time>
</trkpt>
<trkpt lat="46.1303480" lon="10.4607370">
	<ele>2155.60</ele>
	<time>2023-08-07T13:42:29.000Z</time>
</trkpt>
<trkpt lat="46.1303560" lon="10.4607390">
	<ele>2155.60</ele>
	<time>2023-08-07T13:42:30.000Z</time>
</trkpt>
<trkpt lat="46.1303640" lon="10.4607390">
	<ele>2155.60</ele>
	<time>2023-08-07T13:42:31.000Z</time>
</trkpt>
<trkpt lat="46.1303720" lon="10.4607350">
	<ele>2155.40</ele>
	<time>2023-08-07T13:42:32.000Z</time>
</trkpt>
<trkpt lat="46.1303750" lon="10.4607270">
	<ele>2155.20</ele>
	<time>2023-08-07T13:42:33.000Z</time>
</trkpt>
<trkpt lat="46.1303810" lon="10.4607150">
	<ele>2155.00</ele>
	<time>2023-08-07T13:42:34.000Z</time>
</trkpt>
<trkpt lat="46.1303870" lon="10.4607040">
	<ele>2154.80</ele>
	<time>2023-08-07T13:42:35.000Z</time>
</trkpt>
<trkpt lat="46.1303960" lon="10.4607000">
	<ele>2154.80</ele>
	<time>2023-08-07T13:42:36.000Z</time>
</trkpt>
<trkpt lat="46.1304050" lon="10.4607000">
	<ele>2154.80</ele>
	<time>2023-08-07T13:42:37.000Z</time>
</trkpt>
<trkpt lat="46.1304100" lon="10.4606980">
	<ele>2154.60</ele>
	<time>2023-08-07T13:42:38.000Z</time>
</trkpt>
<trkpt lat="46.1304150" lon="10.4606920">
	<ele>2154.80</ele>
	<time>2023-08-07T13:42:39.000Z</time>
</trkpt>
<trkpt lat="46.1304190" lon="10.4606840">
	<ele>2154.60</ele>
	<time>2023-08-07T13:42:40.000Z</time>
</trkpt>
<trkpt lat="46.1304200" lon="10.4606770">
	<ele>2154.60</ele>
	<time>2023-08-07T13:42:41.000Z</time>
</trkpt>
<trkpt lat="46.1304220" lon="10.4606670">
	<ele>2154.60</ele>
	<time>2023-08-07T13:42:42.000Z</time>
</trkpt>
<trkpt lat="46.1304230" lon="10.4606650">
	<ele>2154.60</ele>
	<time>2023-08-07T13:42:43.000Z</time>
</trkpt>
<trkpt lat="46.1304250" lon="10.4606620">
	<ele>2154.60</ele>
	<time>2023-08-07T13:42:44.000Z</time>
</trkpt>
<trkpt lat="46.1304290" lon="10.4606550">
	<ele>2154.60</ele>
	<time>2023-08-07T13:42:45.000Z</time>
</trkpt>
<trkpt lat="46.1304330" lon="10.4606460">
	<ele>2154.40</ele>
	<time>2023-08-07T13:42:46.000Z</time>
</trkpt>
<trkpt lat="46.1304370" lon="10.4606410">
	<ele>2154.40</ele>
	<time>2023-08-07T13:42:47.000Z</time>
</trkpt>
<trkpt lat="46.1304420" lon="10.4606330">
	<ele>2154.40</ele>
	<time>2023-08-07T13:42:48.000Z</time>
</trkpt>
<trkpt lat="46.1304470" lon="10.4606210">
	<ele>2154.60</ele>
	<time>2023-08-07T13:42:49.000Z</time>
</trkpt>
<trkpt lat="46.1304530" lon="10.4606070">
	<ele>2154.80</ele>
	<time>2023-08-07T13:42:50.000Z</time>
</trkpt>
<trkpt lat="46.1304620" lon="10.4605880">
	<ele>2154.80</ele>
	<time>2023-08-07T13:42:51.000Z</time>
</trkpt>
<trkpt lat="46.1304690" lon="10.4605740">
	<ele>2155.00</ele>
	<time>2023-08-07T13:42:52.000Z</time>
</trkpt>
<trkpt lat="46.1304750" lon="10.4605610">
	<ele>2155.00</ele>
	<time>2023-08-07T13:42:53.000Z</time>
</trkpt>
<trkpt lat="46.1304810" lon="10.4605460">
	<ele>2155.00</ele>
	<time>2023-08-07T13:42:54.000Z</time>
</trkpt>
<trkpt lat="46.1304840" lon="10.4605430">
	<ele>2155.00</ele>
	<time>2023-08-07T13:42:55.000Z</time>
</trkpt>
<trkpt lat="46.1304880" lon="10.4605340">
	<ele>2155.00</ele>
	<time>2023-08-07T13:42:56.000Z</time>
</trkpt>
<trkpt lat="46.1304900" lon="10.4605260">
	<ele>2154.80</ele>
	<time>2023-08-07T13:42:57.000Z</time>
</trkpt>
<trkpt lat="46.1304930" lon="10.4605140">
	<ele>2154.60</ele>
	<time>2023-08-07T13:42:58.000Z</time>
</trkpt>
<trkpt lat="46.1304960" lon="10.4604990">
	<ele>2154.40</ele>
	<time>2023-08-07T13:42:59.000Z</time>
</trkpt>
<trkpt lat="46.1304980" lon="10.4604880">
	<ele>2154.40</ele>
	<time>2023-08-07T13:43:00.000Z</time>
</trkpt>
<trkpt lat="46.1304990" lon="10.4604810">
	<ele>2154.20</ele>
	<time>2023-08-07T13:43:01.000Z</time>
</trkpt>
<trkpt lat="46.1305020" lon="10.4604700">
	<ele>2154.20</ele>
	<time>2023-08-07T13:43:02.000Z</time>
</trkpt>
<trkpt lat="46.1305060" lon="10.4604610">
	<ele>2154.20</ele>
	<time>2023-08-07T13:43:03.000Z</time>
</trkpt>
<trkpt lat="46.1305120" lon="10.4604460">
	<ele>2154.00</ele>
	<time>2023-08-07T13:43:04.000Z</time>
</trkpt>
<trkpt lat="46.1305160" lon="10.4604370">
	<ele>2154.00</ele>
	<time>2023-08-07T13:43:05.000Z</time>
</trkpt>
<trkpt lat="46.1305190" lon="10.4604270">
	<ele>2153.80</ele>
	<time>2023-08-07T13:43:06.000Z</time>
</trkpt>
<trkpt lat="46.1305230" lon="10.4604150">
	<ele>2153.80</ele>
	<time>2023-08-07T13:43:07.000Z</time>
</trkpt>
<trkpt lat="46.1305230" lon="10.4604020">
	<ele>2153.80</ele>
	<time>2023-08-07T13:43:08.000Z</time>
</trkpt>
<trkpt lat="46.1305240" lon="10.4603880">
	<ele>2153.80</ele>
	<time>2023-08-07T13:43:09.000Z</time>
</trkpt>
<trkpt lat="46.1305280" lon="10.4603780">
	<ele>2153.60</ele>
	<time>2023-08-07T13:43:10.000Z</time>
</trkpt>
<trkpt lat="46.1305310" lon="10.4603730">
	<ele>2153.60</ele>
	<time>2023-08-07T13:43:11.000Z</time>
</trkpt>
<trkpt lat="46.1305320" lon="10.4603670">
	<ele>2153.40</ele>
	<time>2023-08-07T13:43:12.000Z</time>
</trkpt>
<trkpt lat="46.1305340" lon="10.4603590">
	<ele>2153.40</ele>
	<time>2023-08-07T13:43:13.000Z</time>
</trkpt>
<trkpt lat="46.1305360" lon="10.4603490">
	<ele>2153.40</ele>
	<time>2023-08-07T13:43:14.000Z</time>
</trkpt>
<trkpt lat="46.1305380" lon="10.4603450">
	<ele>2153.40</ele>
	<time>2023-08-07T13:43:15.000Z</time>
</trkpt>
<trkpt lat="46.1305380" lon="10.4603420">
	<ele>2153.20</ele>
	<time>2023-08-07T13:43:16.000Z</time>
</trkpt>
<trkpt lat="46.1305390" lon="10.4603380">
	<ele>2153.20</ele>
	<time>2023-08-07T13:43:17.000Z</time>
</trkpt>
<trkpt lat="46.1305410" lon="10.4603310">
	<ele>2153.20</ele>
	<time>2023-08-07T13:43:18.000Z</time>
</trkpt>
<trkpt lat="46.1305420" lon="10.4603300">
	<ele>2153.20</ele>
	<time>2023-08-07T13:43:19.000Z</time>
</trkpt>
<trkpt lat="46.1305420" lon="10.4603270">
	<ele>2153.00</ele>
	<time>2023-08-07T13:43:20.000Z</time>
</trkpt>
<trkpt lat="46.1305430" lon="10.4603250">
	<ele>2153.00</ele>
	<time>2023-08-07T13:43:21.000Z</time>
</trkpt>
<trkpt lat="46.1305470" lon="10.4603250">
	<ele>2153.00</ele>
	<time>2023-08-07T13:43:22.000Z</time>
</trkpt>
<trkpt lat="46.1305500" lon="10.4603240">
	<ele>2153.00</ele>
	<time>2023-08-07T13:43:23.000Z</time>
</trkpt>
<trkpt lat="46.1305510" lon="10.4603240">
	<ele>2153.00</ele>
	<time>2023-08-07T13:43:24.000Z</time>
</trkpt>
<trkpt lat="46.1305540" lon="10.4603230">
	<ele>2153.00</ele>
	<time>2023-08-07T13:43:25.000Z</time>
</trkpt>
<trkpt lat="46.1305560" lon="10.4603220">
	<ele>2152.80</ele>
	<time>2023-08-07T13:43:26.000Z</time>
</trkpt>
<trkpt lat="46.1305570" lon="10.4603180">
	<ele>2152.80</ele>
	<time>2023-08-07T13:43:27.000Z</time>
</trkpt>
<trkpt lat="46.1305570" lon="10.4603150">
	<ele>2152.80</ele>
	<time>2023-08-07T13:43:28.000Z</time>
</trkpt>
<trkpt lat="46.1305590" lon="10.4603130">
	<ele>2152.80</ele>
	<time>2023-08-07T13:43:29.000Z</time>
</trkpt>
<trkpt lat="46.1305550" lon="10.4603200">
	<ele>2152.80</ele>
	<time>2023-08-07T13:43:30.000Z</time>
</trkpt>
<trkpt lat="46.1305540" lon="10.4603190">
	<ele>2152.80</ele>
	<time>2023-08-07T13:43:31.000Z</time>
</trkpt>
<trkpt lat="46.1305510" lon="10.4603210">
	<ele>2152.80</ele>
	<time>2023-08-07T13:43:32.000Z</time>
</trkpt>
<trkpt lat="46.1305520" lon="10.4603200">
	<ele>2152.80</ele>
	<time>2023-08-07T13:43:33.000Z</time>
</trkpt>
<trkpt lat="46.1305520" lon="10.4603180">
	<ele>2152.60</ele>
	<time>2023-08-07T13:43:34.000Z</time>
</trkpt>
<trkpt lat="46.1305500" lon="10.4603150">
	<ele>2152.60</ele>
	<time>2023-08-07T13:43:35.000Z</time>
</trkpt>
<trkpt lat="46.1305510" lon="10.4603140">
	<ele>2152.60</ele>
	<time>2023-08-07T13:43:36.000Z</time>
</trkpt>
<trkpt lat="46.1305490" lon="10.4603170">
	<ele>2152.60</ele>
	<time>2023-08-07T13:43:37.000Z</time>
</trkpt>
<trkpt lat="46.1305490" lon="10.4603180">
	<ele>2152.60</ele>
	<time>2023-08-07T13:43:38.000Z</time>
</trkpt>
<trkpt lat="46.1305480" lon="10.4603180">
	<ele>2152.60</ele>
	<time>2023-08-07T13:43:39.000Z</time>
</trkpt>
<trkpt lat="46.1305470" lon="10.4603180">
	<ele>2152.60</ele>
	<time>2023-08-07T13:43:40.000Z</time>
</trkpt>
<trkpt lat="46.1305470" lon="10.4603170">
	<ele>2152.60</ele>
	<time>2023-08-07T13:43:41.000Z</time>
</trkpt>
<trkpt lat="46.1305470" lon="10.4603170">
	<ele>2152.80</ele>
	<time>2023-08-07T13:43:42.000Z</time>
</trkpt>
<trkpt lat="46.1305470" lon="10.4603170">
	<ele>2152.80</ele>
	<time>2023-08-07T13:43:43.000Z</time>
</trkpt>
<trkpt lat="46.1305470" lon="10.4603170">
	<ele>2152.60</ele>
	<time>2023-08-07T13:43:44.000Z</time>
</trkpt>
<trkpt lat="46.1305470" lon="10.4603170">
	<ele>2152.60</ele>
	<time>2023-08-07T13:43:45.000Z</time>
</trkpt>
<trkpt lat="46.1305470" lon="10.4603170">
	<ele>2152.60</ele>
	<time>2023-08-07T13:43:46.000Z</time>
</trkpt>
<trkpt lat="46.1305470" lon="10.4603170">
	<ele>2152.40</ele>
	<time>2023-08-07T13:43:47.000Z</time>
</trkpt>
<trkpt lat="46.1305470" lon="10.4603170">
	<ele>2152.40</ele>
	<time>2023-08-07T13:43:48.000Z</time>
</trkpt>
<trkpt lat="46.1305470" lon="10.4603170">
	<ele>2152.20</ele>
	<time>2023-08-07T13:43:49.000Z</time>
</trkpt>
<trkpt lat="46.1305470" lon="10.4603170">
	<ele>2152.20</ele>
	<time>2023-08-07T13:43:50.000Z</time>
</trkpt>
<trkpt lat="46.1305480" lon="10.4603170">
	<ele>2152.40</ele>
	<time>2023-08-07T13:43:51.000Z</time>
</trkpt>
<trkpt lat="46.1305490" lon="10.4603170">
	<ele>2152.40</ele>
	<time>2023-08-07T13:43:52.000Z</time>
</trkpt>
<trkpt lat="46.1305490" lon="10.4603170">
	<ele>2152.40</ele>
	<time>2023-08-07T13:43:53.000Z</time>
</trkpt>
<trkpt lat="46.1305500" lon="10.4603170">
	<ele>2152.40</ele>
	<time>2023-08-07T13:43:54.000Z</time>
</trkpt>
<trkpt lat="46.1305500" lon="10.4603150">
	<ele>2152.40</ele>
	<time>2023-08-07T13:43:55.000Z</time>
</trkpt>
<trkpt lat="46.1305510" lon="10.4603150">
	<ele>2152.40</ele>
	<time>2023-08-07T13:43:56.000Z</time>
</trkpt>
<trkpt lat="46.1305520" lon="10.4603140">
	<ele>2152.60</ele>
	<time>2023-08-07T13:43:57.000Z</time>
</trkpt>
<trkpt lat="46.1305520" lon="10.4603130">
	<ele>2152.60</ele>
	<time>2023-08-07T13:43:58.000Z</time>
</trkpt>
<trkpt lat="46.1305570" lon="10.4603070">
	<ele>2152.60</ele>
	<time>2023-08-07T13:43:59.000Z</time>
</trkpt>
<trkpt lat="46.1305610" lon="10.4603050">
	<ele>2152.80</ele>
	<time>2023-08-07T13:44:00.000Z</time>
</trkpt>
<trkpt lat="46.1305620" lon="10.4603010">
	<ele>2152.80</ele>
	<time>2023-08-07T13:44:01.000Z</time>
</trkpt>
<trkpt lat="46.1305680" lon="10.4602940">
	<ele>2152.80</ele>
	<time>2023-08-07T13:44:02.000Z</time>
</trkpt>
<trkpt lat="46.1305690" lon="10.4602910">
	<ele>2152.80</ele>
	<time>2023-08-07T13:44:03.000Z</time>
</trkpt>
<trkpt lat="46.1305700" lon="10.4602870">
	<ele>2152.80</ele>
	<time>2023-08-07T13:44:04.000Z</time>
</trkpt>
<trkpt lat="46.1305720" lon="10.4602830">
	<ele>2152.80</ele>
	<time>2023-08-07T13:44:05.000Z</time>
</trkpt>
<trkpt lat="46.1305740" lon="10.4602790">
	<ele>2152.80</ele>
	<time>2023-08-07T13:44:06.000Z</time>
</trkpt>
<trkpt lat="46.1305750" lon="10.4602720">
	<ele>2152.80</ele>
	<time>2023-08-07T13:44:07.000Z</time>
</trkpt>
<trkpt lat="46.1305760" lon="10.4602620">
	<ele>2152.80</ele>
	<time>2023-08-07T13:44:08.000Z</time>
</trkpt>
<trkpt lat="46.1305770" lon="10.4602510">
	<ele>2152.80</ele>
	<time>2023-08-07T13:44:09.000Z</time>
</trkpt>
<trkpt lat="46.1305780" lon="10.4602410">
	<ele>2152.80</ele>
	<time>2023-08-07T13:44:10.000Z</time>
</trkpt>
<trkpt lat="46.1305790" lon="10.4602370">
	<ele>2152.80</ele>
	<time>2023-08-07T13:44:11.000Z</time>
</trkpt>
<trkpt lat="46.1305790" lon="10.4602350">
	<ele>2153.00</ele>
	<time>2023-08-07T13:44:12.000Z</time>
</trkpt>
<trkpt lat="46.1305790" lon="10.4602340">
	<ele>2153.00</ele>
	<time>2023-08-07T13:44:13.000Z</time>
</trkpt>
<trkpt lat="46.1305800" lon="10.4602330">
	<ele>2153.00</ele>
	<time>2023-08-07T13:44:14.000Z</time>
</trkpt>
<trkpt lat="46.1305800" lon="10.4602320">
	<ele>2153.00</ele>
	<time>2023-08-07T13:44:15.000Z</time>
</trkpt>
<trkpt lat="46.1305800" lon="10.4602310">
	<ele>2153.00</ele>
	<time>2023-08-07T13:44:16.000Z</time>
</trkpt>
<trkpt lat="46.1305830" lon="10.4602240">
	<ele>2152.80</ele>
	<time>2023-08-07T13:44:17.000Z</time>
</trkpt>
<trkpt lat="46.1305870" lon="10.4602060">
	<ele>2152.80</ele>
	<time>2023-08-07T13:44:18.000Z</time>
</trkpt>
<trkpt lat="46.1305920" lon="10.4601900">
	<ele>2152.80</ele>
	<time>2023-08-07T13:44:19.000Z</time>
</trkpt>
<trkpt lat="46.1306010" lon="10.4601660">
	<ele>2152.80</ele>
	<time>2023-08-07T13:44:20.000Z</time>
</trkpt>
<trkpt lat="46.1306110" lon="10.4601440">
	<ele>2152.60</ele>
	<time>2023-08-07T13:44:21.000Z</time>
</trkpt>
<trkpt lat="46.1306190" lon="10.4601220">
	<ele>2152.60</ele>
	<time>2023-08-07T13:44:22.000Z</time>
</trkpt>
<trkpt lat="46.1306240" lon="10.4601000">
	<ele>2152.60</ele>
	<time>2023-08-07T13:44:23.000Z</time>
</trkpt>
<trkpt lat="46.1306300" lon="10.4600840">
	<ele>2152.60</ele>
	<time>2023-08-07T13:44:24.000Z</time>
</trkpt>
<trkpt lat="46.1306350" lon="10.4600730">
	<ele>2152.60</ele>
	<time>2023-08-07T13:44:25.000Z</time>
</trkpt>
<trkpt lat="46.1306390" lon="10.4600650">
	<ele>2152.60</ele>
	<time>2023-08-07T13:44:26.000Z</time>
</trkpt>
<trkpt lat="46.1306390" lon="10.4600670">
	<ele>2152.60</ele>
	<time>2023-08-07T13:44:27.000Z</time>
</trkpt>
<trkpt lat="46.1306400" lon="10.4600670">
	<ele>2152.60</ele>
	<time>2023-08-07T13:44:28.000Z</time>
</trkpt>
<trkpt lat="46.1306410" lon="10.4600660">
	<ele>2152.60</ele>
	<time>2023-08-07T13:44:29.000Z</time>
</trkpt>
<trkpt lat="46.1306410" lon="10.4600660">
	<ele>2152.60</ele>
	<time>2023-08-07T13:44:30.000Z</time>
</trkpt>
<trkpt lat="46.1306400" lon="10.4600670">
	<ele>2152.60</ele>
	<time>2023-08-07T13:44:31.000Z</time>
</trkpt>
<trkpt lat="46.1306400" lon="10.4600650">
	<ele>2152.40</ele>
	<time>2023-08-07T13:44:32.000Z</time>
</trkpt>
<trkpt lat="46.1306430" lon="10.4600630">
	<ele>2152.40</ele>
	<time>2023-08-07T13:44:33.000Z</time>
</trkpt>
<trkpt lat="46.1306440" lon="10.4600590">
	<ele>2152.40</ele>
	<time>2023-08-07T13:44:34.000Z</time>
</trkpt>
<trkpt lat="46.1306500" lon="10.4600490">
	<ele>2152.40</ele>
	<time>2023-08-07T13:44:35.000Z</time>
</trkpt>
<trkpt lat="46.1306550" lon="10.4600420">
	<ele>2152.80</ele>
	<time>2023-08-07T13:44:36.000Z</time>
</trkpt>
<trkpt lat="46.1306600" lon="10.4600400">
	<ele>2152.80</ele>
	<time>2023-08-07T13:44:37.000Z</time>
</trkpt>
<trkpt lat="46.1306600" lon="10.4600400">
	<ele>2152.80</ele>
	<time>2023-08-07T13:44:38.000Z</time>
</trkpt>
<trkpt lat="46.1306640" lon="10.4600330">
	<ele>2152.80</ele>
	<time>2023-08-07T13:44:39.000Z</time>
</trkpt>
<trkpt lat="46.1306690" lon="10.4600250">
	<ele>2152.80</ele>
	<time>2023-08-07T13:44:40.000Z</time>
</trkpt>
<trkpt lat="46.1306710" lon="10.4600200">
	<ele>2152.80</ele>
	<time>2023-08-07T13:44:41.000Z</time>
</trkpt>
<trkpt lat="46.1306770" lon="10.4600190">
	<ele>2152.80</ele>
	<time>2023-08-07T13:44:42.000Z</time>
</trkpt>
<trkpt lat="46.1306850" lon="10.4600180">
	<ele>2152.80</ele>
	<time>2023-08-07T13:44:43.000Z</time>
</trkpt>
<trkpt lat="46.1306910" lon="10.4600120">
	<ele>2152.80</ele>
	<time>2023-08-07T13:44:44.000Z</time>
</trkpt>
<trkpt lat="46.1306950" lon="10.4600070">
	<ele>2152.80</ele>
	<time>2023-08-07T13:44:45.000Z</time>
</trkpt>
<trkpt lat="46.1306970" lon="10.4600040">
	<ele>2152.80</ele>
	<time>2023-08-07T13:44:46.000Z</time>
</trkpt>
<trkpt lat="46.1306980" lon="10.4600000">
	<ele>2152.80</ele>
	<time>2023-08-07T13:44:47.000Z</time>
</trkpt>
<trkpt lat="46.1306990" lon="10.4600000">
	<ele>2152.80</ele>
	<time>2023-08-07T13:44:48.000Z</time>
</trkpt>
<trkpt lat="46.1307010" lon="10.4600000">
	<ele>2152.80</ele>
	<time>2023-08-07T13:44:49.000Z</time>
</trkpt>
<trkpt lat="46.1307040" lon="10.4599980">
	<ele>2152.80</ele>
	<time>2023-08-07T13:44:50.000Z</time>
</trkpt>
<trkpt lat="46.1307030" lon="10.4600000">
	<ele>2152.80</ele>
	<time>2023-08-07T13:44:51.000Z</time>
</trkpt>
<trkpt lat="46.1307030" lon="10.4599980">
	<ele>2152.80</ele>
	<time>2023-08-07T13:44:52.000Z</time>
</trkpt>
<trkpt lat="46.1307060" lon="10.4599980">
	<ele>2152.80</ele>
	<time>2023-08-07T13:44:53.000Z</time>
</trkpt>
<trkpt lat="46.1307080" lon="10.4599970">
	<ele>2152.80</ele>
	<time>2023-08-07T13:44:54.000Z</time>
</trkpt>
<trkpt lat="46.1307080" lon="10.4599940">
	<ele>2152.80</ele>
	<time>2023-08-07T13:44:55.000Z</time>
</trkpt>
<trkpt lat="46.1307080" lon="10.4599920">
	<ele>2152.80</ele>
	<time>2023-08-07T13:44:56.000Z</time>
</trkpt>
<trkpt lat="46.1307080" lon="10.4599920">
	<ele>2152.80</ele>
	<time>2023-08-07T13:44:57.000Z</time>
</trkpt>
<trkpt lat="46.1307080" lon="10.4599920">
	<ele>2152.80</ele>
	<time>2023-08-07T13:44:58.000Z</time>
</trkpt>
<trkpt lat="46.1307080" lon="10.4599920">
	<ele>2152.80</ele>
	<time>2023-08-07T13:44:59.000Z</time>
</trkpt>
<trkpt lat="46.1307080" lon="10.4599920">
	<ele>2152.80</ele>
	<time>2023-08-07T13:45:00.000Z</time>
</trkpt>
<trkpt lat="46.1307080" lon="10.4599920">
	<ele>2152.80</ele>
	<time>2023-08-07T13:45:01.000Z</time>
</trkpt>
<trkpt lat="46.1307080" lon="10.4599920">
	<ele>2152.80</ele>
	<time>2023-08-07T13:45:02.000Z</time>
</trkpt>
<trkpt lat="46.1307080" lon="10.4599920">
	<ele>2152.80</ele>
	<time>2023-08-07T13:45:03.000Z</time>
</trkpt>
<trkpt lat="46.1307080" lon="10.4599920">
	<ele>2152.80</ele>
	<time>2023-08-07T13:45:04.000Z</time>
</trkpt>
<trkpt lat="46.1307080" lon="10.4599920">
	<ele>2152.80</ele>
	<time>2023-08-07T13:45:05.000Z</time>
</trkpt>
<trkpt lat="46.1307080" lon="10.4599920">
	<ele>2152.80</ele>
	<time>2023-08-07T13:45:06.000Z</time>
</trkpt>
<trkpt lat="46.1307070" lon="10.4599920">
	<ele>2152.80</ele>
	<time>2023-08-07T13:45:07.000Z</time>
</trkpt>
<trkpt lat="46.1307060" lon="10.4599920">
	<ele>2152.80</ele>
	<time>2023-08-07T13:45:08.000Z</time>
</trkpt>
<trkpt lat="46.1307060" lon="10.4599920">
	<ele>2152.80</ele>
	<time>2023-08-07T13:45:09.000Z</time>
</trkpt>
<trkpt lat="46.1307060" lon="10.4599920">
	<ele>2152.80</ele>
	<time>2023-08-07T13:45:10.000Z</time>
</trkpt>
<trkpt lat="46.1307040" lon="10.4599920">
	<ele>2152.80</ele>
	<time>2023-08-07T13:45:11.000Z</time>
</trkpt>
<trkpt lat="46.1307030" lon="10.4599920">
	<ele>2152.80</ele>
	<time>2023-08-07T13:45:12.000Z</time>
</trkpt>
<trkpt lat="46.1307030" lon="10.4599920">
	<ele>2152.80</ele>
	<time>2023-08-07T13:45:13.000Z</time>
</trkpt>
<trkpt lat="46.1307020" lon="10.4599920">
	<ele>2152.80</ele>
	<time>2023-08-07T13:45:14.000Z</time>
</trkpt>
<trkpt lat="46.1307010" lon="10.4599920">
	<ele>2152.80</ele>
	<time>2023-08-07T13:45:15.000Z</time>
</trkpt>
<trkpt lat="46.1307010" lon="10.4599920">
	<ele>2152.80</ele>
	<time>2023-08-07T13:45:16.000Z</time>
</trkpt>
<trkpt lat="46.1307010" lon="10.4599920">
	<ele>2152.80</ele>
	<time>2023-08-07T13:45:17.000Z</time>
</trkpt>
<trkpt lat="46.1307020" lon="10.4599910">
	<ele>2152.80</ele>
	<time>2023-08-07T13:45:18.000Z</time>
</trkpt>
<trkpt lat="46.1307030" lon="10.4599910">
	<ele>2152.80</ele>
	<time>2023-08-07T13:45:19.000Z</time>
</trkpt>
<trkpt lat="46.1307030" lon="10.4599910">
	<ele>2152.80</ele>
	<time>2023-08-07T13:45:20.000Z</time>
</trkpt>
<trkpt lat="46.1307030" lon="10.4599900">
	<ele>2152.80</ele>
	<time>2023-08-07T13:45:21.000Z</time>
</trkpt>
<trkpt lat="46.1307050" lon="10.4599900">
	<ele>2152.80</ele>
	<time>2023-08-07T13:45:22.000Z</time>
</trkpt>
<trkpt lat="46.1307090" lon="10.4599830">
	<ele>2152.80</ele>
	<time>2023-08-07T13:45:23.000Z</time>
</trkpt>
<trkpt lat="46.1307200" lon="10.4599690">
	<ele>2152.80</ele>
	<time>2023-08-07T13:45:24.000Z</time>
</trkpt>
<trkpt lat="46.1307280" lon="10.4599570">
	<ele>2152.80</ele>
	<time>2023-08-07T13:45:25.000Z</time>
</trkpt>
<trkpt lat="46.1307390" lon="10.4599440">
	<ele>2152.80</ele>
	<time>2023-08-07T13:45:26.000Z</time>
</trkpt>
<trkpt lat="46.1307510" lon="10.4599240">
	<ele>2152.80</ele>
	<time>2023-08-07T13:45:27.000Z</time>
</trkpt>
<trkpt lat="46.1307610" lon="10.4599020">
	<ele>2152.80</ele>
	<time>2023-08-07T13:45:28.000Z</time>
</trkpt>
<trkpt lat="46.1307700" lon="10.4598870">
	<ele>2152.80</ele>
	<time>2023-08-07T13:45:29.000Z</time>
</trkpt>
<trkpt lat="46.1307800" lon="10.4598720">
	<ele>2152.80</ele>
	<time>2023-08-07T13:45:30.000Z</time>
</trkpt>
<trkpt lat="46.1307930" lon="10.4598570">
	<ele>2152.80</ele>
	<time>2023-08-07T13:45:31.000Z</time>
</trkpt>
<trkpt lat="46.1308050" lon="10.4598480">
	<ele>2153.00</ele>
	<time>2023-08-07T13:45:32.000Z</time>
</trkpt>
<trkpt lat="46.1308070" lon="10.4598480">
	<ele>2153.20</ele>
	<time>2023-08-07T13:45:33.000Z</time>
</trkpt>
<trkpt lat="46.1308200" lon="10.4598410">
	<ele>2153.20</ele>
	<time>2023-08-07T13:45:34.000Z</time>
</trkpt>
<trkpt lat="46.1308360" lon="10.4598320">
	<ele>2153.40</ele>
	<time>2023-08-07T13:45:35.000Z</time>
</trkpt>
<trkpt lat="46.1308400" lon="10.4598320">
	<ele>2153.60</ele>
	<time>2023-08-07T13:45:36.000Z</time>
</trkpt>
<trkpt lat="46.1308450" lon="10.4598290">
	<ele>2153.80</ele>
	<time>2023-08-07T13:45:37.000Z</time>
</trkpt>
<trkpt lat="46.1308490" lon="10.4598260">
	<ele>2154.00</ele>
	<time>2023-08-07T13:45:38.000Z</time>
</trkpt>
<trkpt lat="46.1308550" lon="10.4598150">
	<ele>2154.00</ele>
	<time>2023-08-07T13:45:39.000Z</time>
</trkpt>
<trkpt lat="46.1308610" lon="10.4598090">
	<ele>2154.20</ele>
	<time>2023-08-07T13:45:40.000Z</time>
</trkpt>
<trkpt lat="46.1308720" lon="10.4598010">
	<ele>2154.20</ele>
	<time>2023-08-07T13:45:41.000Z</time>
</trkpt>
<trkpt lat="46.1308800" lon="10.4597990">
	<ele>2154.40</ele>
	<time>2023-08-07T13:45:42.000Z</time>
</trkpt>
<trkpt lat="46.1308870" lon="10.4597970">
	<ele>2154.40</ele>
	<time>2023-08-07T13:45:43.000Z</time>
</trkpt>
<trkpt lat="46.1308900" lon="10.4597960">
	<ele>2154.60</ele>
	<time>2023-08-07T13:45:44.000Z</time>
</trkpt>
<trkpt lat="46.1308910" lon="10.4597940">
	<ele>2154.80</ele>
	<time>2023-08-07T13:45:45.000Z</time>
</trkpt>
<trkpt lat="46.1309060" lon="10.4597820">
	<ele>2154.80</ele>
	<time>2023-08-07T13:45:46.000Z</time>
</trkpt>
<trkpt lat="46.1309120" lon="10.4597730">
	<ele>2155.00</ele>
	<time>2023-08-07T13:45:47.000Z</time>
</trkpt>
<trkpt lat="46.1309140" lon="10.4597640">
	<ele>2155.00</ele>
	<time>2023-08-07T13:45:48.000Z</time>
</trkpt>
<trkpt lat="46.1309200" lon="10.4597560">
	<ele>2155.20</ele>
	<time>2023-08-07T13:45:49.000Z</time>
</trkpt>
<trkpt lat="46.1309290" lon="10.4597490">
	<ele>2155.20</ele>
	<time>2023-08-07T13:45:50.000Z</time>
</trkpt>
<trkpt lat="46.1309390" lon="10.4597480">
	<ele>2155.20</ele>
	<time>2023-08-07T13:45:51.000Z</time>
</trkpt>
<trkpt lat="46.1309460" lon="10.4597510">
	<ele>2155.20</ele>
	<time>2023-08-07T13:45:52.000Z</time>
</trkpt>
<trkpt lat="46.1309580" lon="10.4597570">
	<ele>2155.20</ele>
	<time>2023-08-07T13:45:53.000Z</time>
</trkpt>
<trkpt lat="46.1309660" lon="10.4597600">
	<ele>2155.20</ele>
	<time>2023-08-07T13:45:54.000Z</time>
</trkpt>
<trkpt lat="46.1309710" lon="10.4597600">
	<ele>2155.40</ele>
	<time>2023-08-07T13:45:55.000Z</time>
</trkpt>
<trkpt lat="46.1309760" lon="10.4597570">
	<ele>2155.40</ele>
	<time>2023-08-07T13:45:56.000Z</time>
</trkpt>
<trkpt lat="46.1309800" lon="10.4597540">
	<ele>2155.40</ele>
	<time>2023-08-07T13:45:57.000Z</time>
</trkpt>
<trkpt lat="46.1309840" lon="10.4597520">
	<ele>2155.80</ele>
	<time>2023-08-07T13:45:58.000Z</time>
</trkpt>
<trkpt lat="46.1309860" lon="10.4597500">
	<ele>2156.20</ele>
	<time>2023-08-07T13:45:59.000Z</time>
</trkpt>
<trkpt lat="46.1309920" lon="10.4597460">
	<ele>2156.40</ele>
	<time>2023-08-07T13:46:00.000Z</time>
</trkpt>
<trkpt lat="46.1309980" lon="10.4597410">
	<ele>2156.40</ele>
	<time>2023-08-07T13:46:01.000Z</time>
</trkpt>
<trkpt lat="46.1310030" lon="10.4597400">
	<ele>2156.60</ele>
	<time>2023-08-07T13:46:02.000Z</time>
</trkpt>
<trkpt lat="46.1310080" lon="10.4597390">
	<ele>2156.60</ele>
	<time>2023-08-07T13:46:03.000Z</time>
</trkpt>
<trkpt lat="46.1310130" lon="10.4597360">
	<ele>2156.80</ele>
	<time>2023-08-07T13:46:04.000Z</time>
</trkpt>
<trkpt lat="46.1310150" lon="10.4597330">
	<ele>2156.80</ele>
	<time>2023-08-07T13:46:05.000Z</time>
</trkpt>
<trkpt lat="46.1310180" lon="10.4597260">
	<ele>2156.80</ele>
	<time>2023-08-07T13:46:06.000Z</time>
</trkpt>
<trkpt lat="46.1310220" lon="10.4597210">
	<ele>2156.80</ele>
	<time>2023-08-07T13:46:07.000Z</time>
</trkpt>
<trkpt lat="46.1310280" lon="10.4597120">
	<ele>2156.80</ele>
	<time>2023-08-07T13:46:08.000Z</time>
</trkpt>
<trkpt lat="46.1310300" lon="10.4597070">
	<ele>2156.80</ele>
	<time>2023-08-07T13:46:09.000Z</time>
</trkpt>
<trkpt lat="46.1310360" lon="10.4597040">
	<ele>2156.80</ele>
	<time>2023-08-07T13:46:10.000Z</time>
</trkpt>
<trkpt lat="46.1310450" lon="10.4596970">
	<ele>2156.80</ele>
	<time>2023-08-07T13:46:11.000Z</time>
</trkpt>
<trkpt lat="46.1310560" lon="10.4596860">
	<ele>2156.80</ele>
	<time>2023-08-07T13:46:12.000Z</time>
</trkpt>
<trkpt lat="46.1310660" lon="10.4596730">
	<ele>2157.00</ele>
	<time>2023-08-07T13:46:13.000Z</time>
</trkpt>
<trkpt lat="46.1310720" lon="10.4596590">
	<ele>2157.00</ele>
	<time>2023-08-07T13:46:14.000Z</time>
</trkpt>
<trkpt lat="46.1310800" lon="10.4596470">
	<ele>2157.00</ele>
	<time>2023-08-07T13:46:15.000Z</time>
</trkpt>
<trkpt lat="46.1310880" lon="10.4596410">
	<ele>2157.00</ele>
	<time>2023-08-07T13:46:16.000Z</time>
</trkpt>
<trkpt lat="46.1310990" lon="10.4596370">
	<ele>2157.20</ele>
	<time>2023-08-07T13:46:17.000Z</time>
</trkpt>
<trkpt lat="46.1310990" lon="10.4596370">
	<ele>2157.20</ele>
	<time>2023-08-07T13:46:18.000Z</time>
</trkpt>
<trkpt lat="46.1311040" lon="10.4596340">
	<ele>2157.20</ele>
	<time>2023-08-07T13:46:19.000Z</time>
</trkpt>
<trkpt lat="46.1311110" lon="10.4596270">
	<ele>2157.20</ele>
	<time>2023-08-07T13:46:20.000Z</time>
</trkpt>
<trkpt lat="46.1311180" lon="10.4596170">
	<ele>2157.20</ele>
	<time>2023-08-07T13:46:21.000Z</time>
</trkpt>
<trkpt lat="46.1311270" lon="10.4596030">
	<ele>2157.40</ele>
	<time>2023-08-07T13:46:22.000Z</time>
</trkpt>
<trkpt lat="46.1311340" lon="10.4595920">
	<ele>2157.40</ele>
	<time>2023-08-07T13:46:23.000Z</time>
</trkpt>
<trkpt lat="46.1311460" lon="10.4595830">
	<ele>2157.40</ele>
	<time>2023-08-07T13:46:24.000Z</time>
</trkpt>
<trkpt lat="46.1311580" lon="10.4595750">
	<ele>2157.40</ele>
	<time>2023-08-07T13:46:25.000Z</time>
</trkpt>
<trkpt lat="46.1311610" lon="10.4595710">
	<ele>2157.40</ele>
	<time>2023-08-07T13:46:26.000Z</time>
</trkpt>
<trkpt lat="46.1311680" lon="10.4595600">
	<ele>2157.40</ele>
	<time>2023-08-07T13:46:27.000Z</time>
</trkpt>
<trkpt lat="46.1311750" lon="10.4595520">
	<ele>2157.60</ele>
	<time>2023-08-07T13:46:28.000Z</time>
</trkpt>
<trkpt lat="46.1311840" lon="10.4595400">
	<ele>2157.60</ele>
	<time>2023-08-07T13:46:29.000Z</time>
</trkpt>
<trkpt lat="46.1311900" lon="10.4595300">
	<ele>2157.60</ele>
	<time>2023-08-07T13:46:30.000Z</time>
</trkpt>
<trkpt lat="46.1311960" lon="10.4595210">
	<ele>2157.60</ele>
	<time>2023-08-07T13:46:31.000Z</time>
</trkpt>
<trkpt lat="46.1312060" lon="10.4595070">
	<ele>2157.80</ele>
	<time>2023-08-07T13:46:32.000Z</time>
</trkpt>
<trkpt lat="46.1312230" lon="10.4594940">
	<ele>2158.00</ele>
	<time>2023-08-07T13:46:33.000Z</time>
</trkpt>
<trkpt lat="46.1312340" lon="10.4594860">
	<ele>2158.00</ele>
	<time>2023-08-07T13:46:34.000Z</time>
</trkpt>
<trkpt lat="46.1312430" lon="10.4594830">
	<ele>2158.00</ele>
	<time>2023-08-07T13:46:35.000Z</time>
</trkpt>
<trkpt lat="46.1312550" lon="10.4594740">
	<ele>2158.20</ele>
	<time>2023-08-07T13:46:36.000Z</time>
</trkpt>
<trkpt lat="46.1312680" lon="10.4594660">
	<ele>2158.20</ele>
	<time>2023-08-07T13:46:37.000Z</time>
</trkpt>
<trkpt lat="46.1312760" lon="10.4594620">
	<ele>2158.20</ele>
	<time>2023-08-07T13:46:38.000Z</time>
</trkpt>
<trkpt lat="46.1312860" lon="10.4594550">
	<ele>2158.20</ele>
	<time>2023-08-07T13:46:39.000Z</time>
</trkpt>
<trkpt lat="46.1312940" lon="10.4594510">
	<ele>2158.40</ele>
	<time>2023-08-07T13:46:40.000Z</time>
</trkpt>
<trkpt lat="46.1313030" lon="10.4594460">
	<ele>2158.40</ele>
	<time>2023-08-07T13:46:41.000Z</time>
</trkpt>
<trkpt lat="46.1313080" lon="10.4594440">
	<ele>2158.40</ele>
	<time>2023-08-07T13:46:42.000Z</time>
</trkpt>
<trkpt lat="46.1313140" lon="10.4594420">
	<ele>2158.60</ele>
	<time>2023-08-07T13:46:43.000Z</time>
</trkpt>
<trkpt lat="46.1313220" lon="10.4594390">
	<ele>2158.60</ele>
	<time>2023-08-07T13:46:44.000Z</time>
</trkpt>
<trkpt lat="46.1313270" lon="10.4594360">
	<ele>2158.60</ele>
	<time>2023-08-07T13:46:45.000Z</time>
</trkpt>
<trkpt lat="46.1313320" lon="10.4594290">
	<ele>2158.60</ele>
	<time>2023-08-07T13:46:46.000Z</time>
</trkpt>
<trkpt lat="46.1313360" lon="10.4594230">
	<ele>2158.60</ele>
	<time>2023-08-07T13:46:47.000Z</time>
</trkpt>
<trkpt lat="46.1313440" lon="10.4594170">
	<ele>2158.80</ele>
	<time>2023-08-07T13:46:48.000Z</time>
</trkpt>
<trkpt lat="46.1313520" lon="10.4594120">
	<ele>2158.80</ele>
	<time>2023-08-07T13:46:49.000Z</time>
</trkpt>
<trkpt lat="46.1313610" lon="10.4594060">
	<ele>2159.00</ele>
	<time>2023-08-07T13:46:50.000Z</time>
</trkpt>
<trkpt lat="46.1313650" lon="10.4594020">
	<ele>2159.00</ele>
	<time>2023-08-07T13:46:51.000Z</time>
</trkpt>
<trkpt lat="46.1313740" lon="10.4593990">
	<ele>2159.00</ele>
	<time>2023-08-07T13:46:52.000Z</time>
</trkpt>
<trkpt lat="46.1313860" lon="10.4593980">
	<ele>2159.00</ele>
	<time>2023-08-07T13:46:53.000Z</time>
</trkpt>
<trkpt lat="46.1313940" lon="10.4593970">
	<ele>2159.20</ele>
	<time>2023-08-07T13:46:54.000Z</time>
</trkpt>
<trkpt lat="46.1314030" lon="10.4593900">
	<ele>2159.40</ele>
	<time>2023-08-07T13:46:55.000Z</time>
</trkpt>
<trkpt lat="46.1314140" lon="10.4593770">
	<ele>2159.40</ele>
	<time>2023-08-07T13:46:56.000Z</time>
</trkpt>
<trkpt lat="46.1314240" lon="10.4593620">
	<ele>2159.40</ele>
	<time>2023-08-07T13:46:57.000Z</time>
</trkpt>
<trkpt lat="46.1314310" lon="10.4593520">
	<ele>2159.40</ele>
	<time>2023-08-07T13:46:58.000Z</time>
</trkpt>
<trkpt lat="46.1314410" lon="10.4593430">
	<ele>2159.40</ele>
	<time>2023-08-07T13:46:59.000Z</time>
</trkpt>
<trkpt lat="46.1314500" lon="10.4593360">
	<ele>2159.60</ele>
	<time>2023-08-07T13:47:00.000Z</time>
</trkpt>
<trkpt lat="46.1314570" lon="10.4593320">
	<ele>2159.60</ele>
	<time>2023-08-07T13:47:01.000Z</time>
</trkpt>
<trkpt lat="46.1314640" lon="10.4593260">
	<ele>2159.60</ele>
	<time>2023-08-07T13:47:02.000Z</time>
</trkpt>
<trkpt lat="46.1314730" lon="10.4593170">
	<ele>2159.60</ele>
	<time>2023-08-07T13:47:03.000Z</time>
</trkpt>
<trkpt lat="46.1314810" lon="10.4593090">
	<ele>2159.60</ele>
	<time>2023-08-07T13:47:04.000Z</time>
</trkpt>
<trkpt lat="46.1314860" lon="10.4593030">
	<ele>2159.80</ele>
	<time>2023-08-07T13:47:05.000Z</time>
</trkpt>
<trkpt lat="46.1314930" lon="10.4592930">
	<ele>2159.80</ele>
	<time>2023-08-07T13:47:06.000Z</time>
</trkpt>
<trkpt lat="46.1315010" lon="10.4592820">
	<ele>2159.80</ele>
	<time>2023-08-07T13:47:07.000Z</time>
</trkpt>
<trkpt lat="46.1315060" lon="10.4592710">
	<ele>2159.80</ele>
	<time>2023-08-07T13:47:08.000Z</time>
</trkpt>
<trkpt lat="46.1315160" lon="10.4592580">
	<ele>2159.80</ele>
	<time>2023-08-07T13:47:09.000Z</time>
</trkpt>
<trkpt lat="46.1315220" lon="10.4592480">
	<ele>2160.00</ele>
	<time>2023-08-07T13:47:10.000Z</time>
</trkpt>
<trkpt lat="46.1315260" lon="10.4592390">
	<ele>2160.00</ele>
	<time>2023-08-07T13:47:11.000Z</time>
</trkpt>
<trkpt lat="46.1315320" lon="10.4592340">
	<ele>2160.00</ele>
	<time>2023-08-07T13:47:12.000Z</time>
</trkpt>
<trkpt lat="46.1315400" lon="10.4592240">
	<ele>2160.00</ele>
	<time>2023-08-07T13:47:13.000Z</time>
</trkpt>
<trkpt lat="46.1315460" lon="10.4592130">
	<ele>2160.00</ele>
	<time>2023-08-07T13:47:14.000Z</time>
</trkpt>
<trkpt lat="46.1315520" lon="10.4592040">
	<ele>2160.00</ele>
	<time>2023-08-07T13:47:15.000Z</time>
</trkpt>
<trkpt lat="46.1315600" lon="10.4591940">
	<ele>2159.80</ele>
	<time>2023-08-07T13:47:16.000Z</time>
</trkpt>
<trkpt lat="46.1315680" lon="10.4591820">
	<ele>2159.80</ele>
	<time>2023-08-07T13:47:17.000Z</time>
</trkpt>
<trkpt lat="46.1315750" lon="10.4591710">
	<ele>2159.80</ele>
	<time>2023-08-07T13:47:18.000Z</time>
</trkpt>
<trkpt lat="46.1315810" lon="10.4591630">
	<ele>2159.80</ele>
	<time>2023-08-07T13:47:19.000Z</time>
</trkpt>
<trkpt lat="46.1315870" lon="10.4591550">
	<ele>2159.80</ele>
	<time>2023-08-07T13:47:20.000Z</time>
</trkpt>
<trkpt lat="46.1315950" lon="10.4591450">
	<ele>2159.80</ele>
	<time>2023-08-07T13:47:21.000Z</time>
</trkpt>
<trkpt lat="46.1316010" lon="10.4591370">
	<ele>2159.80</ele>
	<time>2023-08-07T13:47:22.000Z</time>
</trkpt>
<trkpt lat="46.1316070" lon="10.4591280">
	<ele>2159.80</ele>
	<time>2023-08-07T13:47:23.000Z</time>
</trkpt>
<trkpt lat="46.1316130" lon="10.4591190">
	<ele>2160.00</ele>
	<time>2023-08-07T13:47:24.000Z</time>
</trkpt>
<trkpt lat="46.1316210" lon="10.4591090">
	<ele>2160.00</ele>
	<time>2023-08-07T13:47:25.000Z</time>
</trkpt>
<trkpt lat="46.1316270" lon="10.4591030">
	<ele>2160.00</ele>
	<time>2023-08-07T13:47:26.000Z</time>
</trkpt>
<trkpt lat="46.1316320" lon="10.4590990">
	<ele>2160.00</ele>
	<time>2023-08-07T13:47:27.000Z</time>
</trkpt>
<trkpt lat="46.1316340" lon="10.4590940">
	<ele>2160.00</ele>
	<time>2023-08-07T13:47:28.000Z</time>
</trkpt>
<trkpt lat="46.1316390" lon="10.4590860">
	<ele>2160.00</ele>
	<time>2023-08-07T13:47:29.000Z</time>
</trkpt>
<trkpt lat="46.1316460" lon="10.4590750">
	<ele>2160.00</ele>
	<time>2023-08-07T13:47:30.000Z</time>
</trkpt>
<trkpt lat="46.1316520" lon="10.4590630">
	<ele>2160.20</ele>
	<time>2023-08-07T13:47:31.000Z</time>
</trkpt>
<trkpt lat="46.1316620" lon="10.4590510">
	<ele>2160.20</ele>
	<time>2023-08-07T13:47:32.000Z</time>
</trkpt>
<trkpt lat="46.1316670" lon="10.4590450">
	<ele>2160.20</ele>
	<time>2023-08-07T13:47:33.000Z</time>
</trkpt>
<trkpt lat="46.1316750" lon="10.4590410">
	<ele>2160.40</ele>
	<time>2023-08-07T13:47:34.000Z</time>
</trkpt>
<trkpt lat="46.1316850" lon="10.4590390">
	<ele>2160.40</ele>
	<time>2023-08-07T13:47:35.000Z</time>
</trkpt>
<trkpt lat="46.1316950" lon="10.4590360">
	<ele>2160.40</ele>
	<time>2023-08-07T13:47:36.000Z</time>
</trkpt>
<trkpt lat="46.1317070" lon="10.4590330">
	<ele>2160.40</ele>
	<time>2023-08-07T13:47:37.000Z</time>
</trkpt>
<trkpt lat="46.1317150" lon="10.4590320">
	<ele>2160.60</ele>
	<time>2023-08-07T13:47:38.000Z</time>
</trkpt>
<trkpt lat="46.1317220" lon="10.4590290">
	<ele>2160.60</ele>
	<time>2023-08-07T13:47:39.000Z</time>
</trkpt>
<trkpt lat="46.1317300" lon="10.4590230">
	<ele>2160.60</ele>
	<time>2023-08-07T13:47:40.000Z</time>
</trkpt>
<trkpt lat="46.1317370" lon="10.4590180">
	<ele>2160.80</ele>
	<time>2023-08-07T13:47:41.000Z</time>
</trkpt>
<trkpt lat="46.1317460" lon="10.4590140">
	<ele>2160.80</ele>
	<time>2023-08-07T13:47:42.000Z</time>
</trkpt>
<trkpt lat="46.1317580" lon="10.4590120">
	<ele>2161.00</ele>
	<time>2023-08-07T13:47:43.000Z</time>
</trkpt>
<trkpt lat="46.1317680" lon="10.4590090">
	<ele>2161.00</ele>
	<time>2023-08-07T13:47:44.000Z</time>
</trkpt>
<trkpt lat="46.1317770" lon="10.4590050">
	<ele>2161.20</ele>
	<time>2023-08-07T13:47:45.000Z</time>
</trkpt>
<trkpt lat="46.1317860" lon="10.4590060">
	<ele>2161.20</ele>
	<time>2023-08-07T13:47:46.000Z</time>
</trkpt>
<trkpt lat="46.1317930" lon="10.4590040">
	<ele>2161.40</ele>
	<time>2023-08-07T13:47:47.000Z</time>
</trkpt>
<trkpt lat="46.1318020" lon="10.4590050">
	<ele>2161.40</ele>
	<time>2023-08-07T13:47:48.000Z</time>
</trkpt>
<trkpt lat="46.1318100" lon="10.4590050">
	<ele>2161.40</ele>
	<time>2023-08-07T13:47:49.000Z</time>
</trkpt>
<trkpt lat="46.1318130" lon="10.4590050">
	<ele>2161.60</ele>
	<time>2023-08-07T13:47:50.000Z</time>
</trkpt>
<trkpt lat="46.1318210" lon="10.4589990">
	<ele>2161.60</ele>
	<time>2023-08-07T13:47:51.000Z</time>
</trkpt>
<trkpt lat="46.1318290" lon="10.4589900">
	<ele>2161.60</ele>
	<time>2023-08-07T13:47:52.000Z</time>
</trkpt>
<trkpt lat="46.1318340" lon="10.4589870">
	<ele>2161.60</ele>
	<time>2023-08-07T13:47:53.000Z</time>
</trkpt>
<trkpt lat="46.1318380" lon="10.4589810">
	<ele>2161.80</ele>
	<time>2023-08-07T13:47:54.000Z</time>
</trkpt>
<trkpt lat="46.1318420" lon="10.4589770">
	<ele>2161.80</ele>
	<time>2023-08-07T13:47:55.000Z</time>
</trkpt>
<trkpt lat="46.1318460" lon="10.4589740">
	<ele>2162.00</ele>
	<time>2023-08-07T13:47:56.000Z</time>
</trkpt>
<trkpt lat="46.1318520" lon="10.4589690">
	<ele>2162.20</ele>
	<time>2023-08-07T13:47:57.000Z</time>
</trkpt>
<trkpt lat="46.1318610" lon="10.4589630">
	<ele>2162.40</ele>
	<time>2023-08-07T13:47:58.000Z</time>
</trkpt>
<trkpt lat="46.1318680" lon="10.4589580">
	<ele>2162.60</ele>
	<time>2023-08-07T13:47:59.000Z</time>
</trkpt>
<trkpt lat="46.1318740" lon="10.4589550">
	<ele>2162.60</ele>
	<time>2023-08-07T13:48:00.000Z</time>
</trkpt>
<trkpt lat="46.1318810" lon="10.4589510">
	<ele>2162.60</ele>
	<time>2023-08-07T13:48:01.000Z</time>
</trkpt>
<trkpt lat="46.1318870" lon="10.4589490">
	<ele>2162.60</ele>
	<time>2023-08-07T13:48:02.000Z</time>
</trkpt>
<trkpt lat="46.1318900" lon="10.4589490">
	<ele>2163.00</ele>
	<time>2023-08-07T13:48:03.000Z</time>
</trkpt>
<trkpt lat="46.1318950" lon="10.4589490">
	<ele>2163.20</ele>
	<time>2023-08-07T13:48:04.000Z</time>
</trkpt>
<trkpt lat="46.1318980" lon="10.4589470">
	<ele>2163.40</ele>
	<time>2023-08-07T13:48:05.000Z</time>
</trkpt>
<trkpt lat="46.1319010" lon="10.4589440">
	<ele>2163.40</ele>
	<time>2023-08-07T13:48:06.000Z</time>
</trkpt>
<trkpt lat="46.1319060" lon="10.4589410">
	<ele>2163.60</ele>
	<time>2023-08-07T13:48:07.000Z</time>
</trkpt>
<trkpt lat="46.1319140" lon="10.4589330">
	<ele>2163.60</ele>
	<time>2023-08-07T13:48:08.000Z</time>
</trkpt>
<trkpt lat="46.1319190" lon="10.4589260">
	<ele>2163.80</ele>
	<time>2023-08-07T13:48:09.000Z</time>
</trkpt>
<trkpt lat="46.1319220" lon="10.4589210">
	<ele>2163.80</ele>
	<time>2023-08-07T13:48:10.000Z</time>
</trkpt>
<trkpt lat="46.1319270" lon="10.4589150">
	<ele>2164.00</ele>
	<time>2023-08-07T13:48:11.000Z</time>
</trkpt>
<trkpt lat="46.1319300" lon="10.4589080">
	<ele>2164.00</ele>
	<time>2023-08-07T13:48:12.000Z</time>
</trkpt>
<trkpt lat="46.1319320" lon="10.4588980">
	<ele>2164.20</ele>
	<time>2023-08-07T13:48:13.000Z</time>
</trkpt>
<trkpt lat="46.1319310" lon="10.4588960">
	<ele>2164.20</ele>
	<time>2023-08-07T13:48:14.000Z</time>
</trkpt>
<trkpt lat="46.1319320" lon="10.4588890">
	<ele>2164.40</ele>
	<time>2023-08-07T13:48:15.000Z</time>
</trkpt>
<trkpt lat="46.1319310" lon="10.4588820">
	<ele>2164.40</ele>
	<time>2023-08-07T13:48:16.000Z</time>
</trkpt>
<trkpt lat="46.1319320" lon="10.4588700">
	<ele>2164.40</ele>
	<time>2023-08-07T13:48:17.000Z</time>
</trkpt>
<trkpt lat="46.1319330" lon="10.4588630">
	<ele>2164.60</ele>
	<time>2023-08-07T13:48:18.000Z</time>
</trkpt>
<trkpt lat="46.1319330" lon="10.4588550">
	<ele>2164.60</ele>
	<time>2023-08-07T13:48:19.000Z</time>
</trkpt>
<trkpt lat="46.1319350" lon="10.4588470">
	<ele>2164.80</ele>
	<time>2023-08-07T13:48:20.000Z</time>
</trkpt>
<trkpt lat="46.1319400" lon="10.4588420">
	<ele>2164.80</ele>
	<time>2023-08-07T13:48:21.000Z</time>
</trkpt>
<trkpt lat="46.1319440" lon="10.4588360">
	<ele>2164.80</ele>
	<time>2023-08-07T13:48:22.000Z</time>
</trkpt>
<trkpt lat="46.1319460" lon="10.4588350">
	<ele>2165.00</ele>
	<time>2023-08-07T13:48:23.000Z</time>
</trkpt>
<trkpt lat="46.1319490" lon="10.4588360">
	<ele>2165.20</ele>
	<time>2023-08-07T13:48:24.000Z</time>
</trkpt>
<trkpt lat="46.1319520" lon="10.4588350">
	<ele>2165.20</ele>
	<time>2023-08-07T13:48:25.000Z</time>
</trkpt>
<trkpt lat="46.1319550" lon="10.4588310">
	<ele>2165.40</ele>
	<time>2023-08-07T13:48:26.000Z</time>
</trkpt>
<trkpt lat="46.1319590" lon="10.4588270">
	<ele>2165.40</ele>
	<time>2023-08-07T13:48:27.000Z</time>
</trkpt>
<trkpt lat="46.1319610" lon="10.4588230">
	<ele>2165.40</ele>
	<time>2023-08-07T13:48:28.000Z</time>
</trkpt>
<trkpt lat="46.1319640" lon="10.4588170">
	<ele>2165.40</ele>
	<time>2023-08-07T13:48:29.000Z</time>
</trkpt>
<trkpt lat="46.1319680" lon="10.4588090">
	<ele>2165.60</ele>
	<time>2023-08-07T13:48:30.000Z</time>
</trkpt>
<trkpt lat="46.1319720" lon="10.4588040">
	<ele>2165.60</ele>
	<time>2023-08-07T13:48:31.000Z</time>
</trkpt>
<trkpt lat="46.1319720" lon="10.4588000">
	<ele>2165.80</ele>
	<time>2023-08-07T13:48:32.000Z</time>
</trkpt>
<trkpt lat="46.1319730" lon="10.4587980">
	<ele>2165.80</ele>
	<time>2023-08-07T13:48:33.000Z</time>
</trkpt>
<trkpt lat="46.1319790" lon="10.4587940">
	<ele>2166.00</ele>
	<time>2023-08-07T13:48:34.000Z</time>
</trkpt>
<trkpt lat="46.1319820" lon="10.4587910">
	<ele>2166.00</ele>
	<time>2023-08-07T13:48:35.000Z</time>
</trkpt>
<trkpt lat="46.1319840" lon="10.4587900">
	<ele>2166.00</ele>
	<time>2023-08-07T13:48:36.000Z</time>
</trkpt>
<trkpt lat="46.1319880" lon="10.4587880">
	<ele>2166.00</ele>
	<time>2023-08-07T13:48:37.000Z</time>
</trkpt>
<trkpt lat="46.1319930" lon="10.4587820">
	<ele>2166.20</ele>
	<time>2023-08-07T13:48:38.000Z</time>
</trkpt>
<trkpt lat="46.1319980" lon="10.4587770">
	<ele>2166.20</ele>
	<time>2023-08-07T13:48:39.000Z</time>
</trkpt>
<trkpt lat="46.1319990" lon="10.4587760">
	<ele>2166.40</ele>
	<time>2023-08-07T13:48:40.000Z</time>
</trkpt>
<trkpt lat="46.1320000" lon="10.4587760">
	<ele>2166.60</ele>
	<time>2023-08-07T13:48:41.000Z</time>
</trkpt>
<trkpt lat="46.1320000" lon="10.4587760">
	<ele>2166.80</ele>
	<time>2023-08-07T13:48:42.000Z</time>
</trkpt>
<trkpt lat="46.1319990" lon="10.4587780">
	<ele>2166.80</ele>
	<time>2023-08-07T13:48:43.000Z</time>
</trkpt>
<trkpt lat="46.1319980" lon="10.4587780">
	<ele>2167.00</ele>
	<time>2023-08-07T13:48:44.000Z</time>
</trkpt>
<trkpt lat="46.1319980" lon="10.4587780">
	<ele>2167.00</ele>
	<time>2023-08-07T13:48:45.000Z</time>
</trkpt>
<trkpt lat="46.1319980" lon="10.4587780">
	<ele>2167.00</ele>
	<time>2023-08-07T13:48:46.000Z</time>
</trkpt>
<trkpt lat="46.1319980" lon="10.4587780">
	<ele>2167.00</ele>
	<time>2023-08-07T13:48:47.000Z</time>
</trkpt>
<trkpt lat="46.1319980" lon="10.4587780">
	<ele>2167.00</ele>
	<time>2023-08-07T13:48:48.000Z</time>
</trkpt>
<trkpt lat="46.1319980" lon="10.4587780">
	<ele>2166.80</ele>
	<time>2023-08-07T13:48:49.000Z</time>
</trkpt>
<trkpt lat="46.1319980" lon="10.4587780">
	<ele>2166.80</ele>
	<time>2023-08-07T13:48:50.000Z</time>
</trkpt>
<trkpt lat="46.1319980" lon="10.4587780">
	<ele>2166.60</ele>
	<time>2023-08-07T13:48:51.000Z</time>
</trkpt>
<trkpt lat="46.1319980" lon="10.4587780">
	<ele>2166.60</ele>
	<time>2023-08-07T13:48:52.000Z</time>
</trkpt>
<trkpt lat="46.1319980" lon="10.4587780">
	<ele>2166.40</ele>
	<time>2023-08-07T13:48:53.000Z</time>
</trkpt>
<trkpt lat="46.1319980" lon="10.4587780">
	<ele>2166.40</ele>
	<time>2023-08-07T13:48:54.000Z</time>
</trkpt>
<trkpt lat="46.1319980" lon="10.4587780">
	<ele>2166.40</ele>
	<time>2023-08-07T13:48:55.000Z</time>
</trkpt>
<trkpt lat="46.1319980" lon="10.4587780">
	<ele>2166.40</ele>
	<time>2023-08-07T13:48:56.000Z</time>
</trkpt>
<trkpt lat="46.1319980" lon="10.4587780">
	<ele>2166.60</ele>
	<time>2023-08-07T13:48:57.000Z</time>
</trkpt>
<trkpt lat="46.1319980" lon="10.4587780">
	<ele>2166.80</ele>
	<time>2023-08-07T13:48:58.000Z</time>
</trkpt>
<trkpt lat="46.1319980" lon="10.4587800">
	<ele>2167.00</ele>
	<time>2023-08-07T13:48:59.000Z</time>
</trkpt>
<trkpt lat="46.1319980" lon="10.4587810">
	<ele>2167.00</ele>
	<time>2023-08-07T13:49:00.000Z</time>
</trkpt>
<trkpt lat="46.1319980" lon="10.4587820">
	<ele>2167.00</ele>
	<time>2023-08-07T13:49:01.000Z</time>
</trkpt>
<trkpt lat="46.1319970" lon="10.4587830">
	<ele>2166.80</ele>
	<time>2023-08-07T13:49:02.000Z</time>
</trkpt>
<trkpt lat="46.1319940" lon="10.4587850">
	<ele>2166.80</ele>
	<time>2023-08-07T13:49:03.000Z</time>
</trkpt>
<trkpt lat="46.1319890" lon="10.4587860">
	<ele>2166.60</ele>
	<time>2023-08-07T13:49:04.000Z</time>
</trkpt>
<trkpt lat="46.1319880" lon="10.4587870">
	<ele>2166.60</ele>
	<time>2023-08-07T13:49:05.000Z</time>
</trkpt>
<trkpt lat="46.1319820" lon="10.4587880">
	<ele>2166.60</ele>
	<time>2023-08-07T13:49:06.000Z</time>
</trkpt>
<trkpt lat="46.1319780" lon="10.4587870">
	<ele>2166.80</ele>
	<time>2023-08-07T13:49:07.000Z</time>
</trkpt>
<trkpt lat="46.1319780" lon="10.4587870">
	<ele>2166.80</ele>
	<time>2023-08-07T13:49:08.000Z</time>
</trkpt>
<trkpt lat="46.1319780" lon="10.4587870">
	<ele>2167.00</ele>
	<time>2023-08-07T13:49:09.000Z</time>
</trkpt>
<trkpt lat="46.1319770" lon="10.4587870">
	<ele>2167.00</ele>
	<time>2023-08-07T13:49:10.000Z</time>
</trkpt>
<trkpt lat="46.1319770" lon="10.4587870">
	<ele>2167.20</ele>
	<time>2023-08-07T13:49:11.000Z</time>
</trkpt>
<trkpt lat="46.1319770" lon="10.4587870">
	<ele>2167.20</ele>
	<time>2023-08-07T13:49:12.000Z</time>
</trkpt>
<trkpt lat="46.1319760" lon="10.4587870">
	<ele>2167.40</ele>
	<time>2023-08-07T13:49:13.000Z</time>
</trkpt>
<trkpt lat="46.1319760" lon="10.4587870">
	<ele>2167.40</ele>
	<time>2023-08-07T13:49:14.000Z</time>
</trkpt>
<trkpt lat="46.1319760" lon="10.4587870">
	<ele>2167.40</ele>
	<time>2023-08-07T13:49:15.000Z</time>
</trkpt>
<trkpt lat="46.1319760" lon="10.4587870">
	<ele>2167.40</ele>
	<time>2023-08-07T13:49:16.000Z</time>
</trkpt>
<trkpt lat="46.1319760" lon="10.4587870">
	<ele>2167.40</ele>
	<time>2023-08-07T13:49:17.000Z</time>
</trkpt>
<trkpt lat="46.1319760" lon="10.4587870">
	<ele>2167.40</ele>
	<time>2023-08-07T13:49:18.000Z</time>
</trkpt>
<trkpt lat="46.1319760" lon="10.4587870">
	<ele>2167.40</ele>
	<time>2023-08-07T13:49:19.000Z</time>
</trkpt>
<trkpt lat="46.1319760" lon="10.4587870">
	<ele>2167.40</ele>
	<time>2023-08-07T13:49:20.000Z</time>
</trkpt>
<trkpt lat="46.1319760" lon="10.4587850">
	<ele>2167.20</ele>
	<time>2023-08-07T13:49:21.000Z</time>
</trkpt>
<trkpt lat="46.1319760" lon="10.4587840">
	<ele>2167.20</ele>
	<time>2023-08-07T13:49:22.000Z</time>
</trkpt>
<trkpt lat="46.1319760" lon="10.4587820">
	<ele>2167.20</ele>
	<time>2023-08-07T13:49:23.000Z</time>
</trkpt>
<trkpt lat="46.1319760" lon="10.4587810">
	<ele>2167.20</ele>
	<time>2023-08-07T13:49:24.000Z</time>
</trkpt>
<trkpt lat="46.1319760" lon="10.4587800">
	<ele>2167.20</ele>
	<time>2023-08-07T13:49:25.000Z</time>
</trkpt>
<trkpt lat="46.1319760" lon="10.4587780">
	<ele>2167.20</ele>
	<time>2023-08-07T13:49:26.000Z</time>
</trkpt>
<trkpt lat="46.1319770" lon="10.4587780">
	<ele>2167.20</ele>
	<time>2023-08-07T13:49:27.000Z</time>
</trkpt>
<trkpt lat="46.1319770" lon="10.4587760">
	<ele>2167.00</ele>
	<time>2023-08-07T13:49:28.000Z</time>
</trkpt>
<trkpt lat="46.1319770" lon="10.4587740">
	<ele>2167.00</ele>
	<time>2023-08-07T13:49:29.000Z</time>
</trkpt>
<trkpt lat="46.1319770" lon="10.4587710">
	<ele>2167.00</ele>
	<time>2023-08-07T13:49:30.000Z</time>
</trkpt>
<trkpt lat="46.1319770" lon="10.4587680">
	<ele>2167.00</ele>
	<time>2023-08-07T13:49:31.000Z</time>
</trkpt>
<trkpt lat="46.1319770" lon="10.4587600">
	<ele>2167.00</ele>
	<time>2023-08-07T13:49:32.000Z</time>
</trkpt>
<trkpt lat="46.1319770" lon="10.4587560">
	<ele>2167.00</ele>
	<time>2023-08-07T13:49:33.000Z</time>
</trkpt>
<trkpt lat="46.1319780" lon="10.4587550">
	<ele>2167.00</ele>
	<time>2023-08-07T13:49:34.000Z</time>
</trkpt>
<trkpt lat="46.1319780" lon="10.4587540">
	<ele>2167.00</ele>
	<time>2023-08-07T13:49:35.000Z</time>
</trkpt>
<trkpt lat="46.1319770" lon="10.4587540">
	<ele>2167.00</ele>
	<time>2023-08-07T13:49:36.000Z</time>
</trkpt>
<trkpt lat="46.1319770" lon="10.4587540">
	<ele>2166.80</ele>
	<time>2023-08-07T13:49:37.000Z</time>
</trkpt>
<trkpt lat="46.1319770" lon="10.4587540">
	<ele>2166.80</ele>
	<time>2023-08-07T13:49:38.000Z</time>
</trkpt>
<trkpt lat="46.1319770" lon="10.4587540">
	<ele>2166.80</ele>
	<time>2023-08-07T13:49:39.000Z</time>
</trkpt>
<trkpt lat="46.1319770" lon="10.4587540">
	<ele>2166.80</ele>
	<time>2023-08-07T13:49:40.000Z</time>
</trkpt>
<trkpt lat="46.1319770" lon="10.4587540">
	<ele>2166.80</ele>
	<time>2023-08-07T13:49:41.000Z</time>
</trkpt>
<trkpt lat="46.1319770" lon="10.4587540">
	<ele>2166.80</ele>
	<time>2023-08-07T13:49:42.000Z</time>
</trkpt>
<trkpt lat="46.1319770" lon="10.4587500">
	<ele>2166.80</ele>
	<time>2023-08-07T13:49:43.000Z</time>
</trkpt>
<trkpt lat="46.1319830" lon="10.4587360">
	<ele>2166.80</ele>
	<time>2023-08-07T13:49:44.000Z</time>
</trkpt>
<trkpt lat="46.1319810" lon="10.4587200">
	<ele>2166.80</ele>
	<time>2023-08-07T13:49:45.000Z</time>
</trkpt>
<trkpt lat="46.1319760" lon="10.4587040">
	<ele>2166.60</ele>
	<time>2023-08-07T13:49:46.000Z</time>
</trkpt>
<trkpt lat="46.1319700" lon="10.4586810">
	<ele>2166.60</ele>
	<time>2023-08-07T13:49:47.000Z</time>
</trkpt>
<trkpt lat="46.1319710" lon="10.4586630">
	<ele>2166.60</ele>
	<time>2023-08-07T13:49:48.000Z</time>
</trkpt>
<trkpt lat="46.1319740" lon="10.4586500">
	<ele>2166.40</ele>
	<time>2023-08-07T13:49:49.000Z</time>
</trkpt>
<trkpt lat="46.1319710" lon="10.4586360">
	<ele>2166.40</ele>
	<time>2023-08-07T13:49:50.000Z</time>
</trkpt>
<trkpt lat="46.1319650" lon="10.4586210">
	<ele>2166.40</ele>
	<time>2023-08-07T13:49:51.000Z</time>
</trkpt>
<trkpt lat="46.1319600" lon="10.4586070">
	<ele>2166.20</ele>
	<time>2023-08-07T13:49:52.000Z</time>
</trkpt>
<trkpt lat="46.1319580" lon="10.4585960">
	<ele>2166.20</ele>
	<time>2023-08-07T13:49:53.000Z</time>
</trkpt>
<trkpt lat="46.1319560" lon="10.4585840">
	<ele>2166.00</ele>
	<time>2023-08-07T13:49:54.000Z</time>
</trkpt>
<trkpt lat="46.1319530" lon="10.4585780">
	<ele>2166.00</ele>
	<time>2023-08-07T13:49:55.000Z</time>
</trkpt>
<trkpt lat="46.1319500" lon="10.4585700">
	<ele>2166.20</ele>
	<time>2023-08-07T13:49:56.000Z</time>
</trkpt>
<trkpt lat="46.1319470" lon="10.4585640">
	<ele>2166.20</ele>
	<time>2023-08-07T13:49:57.000Z</time>
</trkpt>
<trkpt lat="46.1319440" lon="10.4585590">
	<ele>2166.20</ele>
	<time>2023-08-07T13:49:58.000Z</time>
</trkpt>
<trkpt lat="46.1319430" lon="10.4585560">
	<ele>2166.20</ele>
	<time>2023-08-07T13:49:59.000Z</time>
</trkpt>
<trkpt lat="46.1319440" lon="10.4585530">
	<ele>2166.20</ele>
	<time>2023-08-07T13:50:00.000Z</time>
</trkpt>
<trkpt lat="46.1319460" lon="10.4585460">
	<ele>2166.20</ele>
	<time>2023-08-07T13:50:01.000Z</time>
</trkpt>
<trkpt lat="46.1319490" lon="10.4585450">
	<ele>2166.20</ele>
	<time>2023-08-07T13:50:02.000Z</time>
</trkpt>
<trkpt lat="46.1319520" lon="10.4585440">
	<ele>2166.00</ele>
	<time>2023-08-07T13:50:03.000Z</time>
</trkpt>
<trkpt lat="46.1319480" lon="10.4585470">
	<ele>2166.00</ele>
	<time>2023-08-07T13:50:04.000Z</time>
</trkpt>
<trkpt lat="46.1319440" lon="10.4585510">
	<ele>2166.00</ele>
	<time>2023-08-07T13:50:05.000Z</time>
</trkpt>
<trkpt lat="46.1319420" lon="10.4585530">
	<ele>2166.00</ele>
	<time>2023-08-07T13:50:06.000Z</time>
</trkpt>
<trkpt lat="46.1319410" lon="10.4585550">
	<ele>2166.00</ele>
	<time>2023-08-07T13:50:07.000Z</time>
</trkpt>
<trkpt lat="46.1319410" lon="10.4585540">
	<ele>2166.00</ele>
	<time>2023-08-07T13:50:08.000Z</time>
</trkpt>
<trkpt lat="46.1319410" lon="10.4585540">
	<ele>2166.00</ele>
	<time>2023-08-07T13:50:09.000Z</time>
</trkpt>
<trkpt lat="46.1319410" lon="10.4585540">
	<ele>2166.00</ele>
	<time>2023-08-07T13:50:10.000Z</time>
</trkpt>
<trkpt lat="46.1319410" lon="10.4585540">
	<ele>2166.00</ele>
	<time>2023-08-07T13:50:11.000Z</time>
</trkpt>
<trkpt lat="46.1319410" lon="10.4585540">
	<ele>2166.00</ele>
	<time>2023-08-07T13:50:12.000Z</time>
</trkpt>
<trkpt lat="46.1319410" lon="10.4585540">
	<ele>2166.00</ele>
	<time>2023-08-07T13:50:13.000Z</time>
</trkpt>
<trkpt lat="46.1319410" lon="10.4585540">
	<ele>2166.00</ele>
	<time>2023-08-07T13:50:14.000Z</time>
</trkpt>
<trkpt lat="46.1319410" lon="10.4585540">
	<ele>2166.00</ele>
	<time>2023-08-07T13:50:15.000Z</time>
</trkpt>
<trkpt lat="46.1319410" lon="10.4585540">
	<ele>2166.00</ele>
	<time>2023-08-07T13:50:16.000Z</time>
</trkpt>
<trkpt lat="46.1319410" lon="10.4585540">
	<ele>2166.00</ele>
	<time>2023-08-07T13:50:17.000Z</time>
</trkpt>
<trkpt lat="46.1319410" lon="10.4585540">
	<ele>2166.00</ele>
	<time>2023-08-07T13:50:18.000Z</time>
</trkpt>
<trkpt lat="46.1319410" lon="10.4585530">
	<ele>2166.00</ele>
	<time>2023-08-07T13:50:19.000Z</time>
</trkpt>
<trkpt lat="46.1319410" lon="10.4585530">
	<ele>2166.00</ele>
	<time>2023-08-07T13:50:20.000Z</time>
</trkpt>
<trkpt lat="46.1319420" lon="10.4585530">
	<ele>2166.00</ele>
	<time>2023-08-07T13:50:21.000Z</time>
</trkpt>
<trkpt lat="46.1319420" lon="10.4585530">
	<ele>2165.80</ele>
	<time>2023-08-07T13:50:22.000Z</time>
</trkpt>
<trkpt lat="46.1319420" lon="10.4585530">
	<ele>2166.00</ele>
	<time>2023-08-07T13:50:23.000Z</time>
</trkpt>
<trkpt lat="46.1319420" lon="10.4585530">
	<ele>2166.00</ele>
	<time>2023-08-07T13:50:24.000Z</time>
</trkpt>
<trkpt lat="46.1319420" lon="10.4585530">
	<ele>2166.00</ele>
	<time>2023-08-07T13:50:25.000Z</time>
</trkpt>
<trkpt lat="46.1319420" lon="10.4585520">
	<ele>2166.00</ele>
	<time>2023-08-07T13:50:26.000Z</time>
</trkpt>
<trkpt lat="46.1319420" lon="10.4585520">
	<ele>2166.00</ele>
	<time>2023-08-07T13:50:27.000Z</time>
</trkpt>
<trkpt lat="46.1319380" lon="10.4585520">
	<ele>2166.20</ele>
	<time>2023-08-07T13:50:28.000Z</time>
</trkpt>
<trkpt lat="46.1319370" lon="10.4585510">
	<ele>2166.20</ele>
	<time>2023-08-07T13:50:29.000Z</time>
</trkpt>
<trkpt lat="46.1319330" lon="10.4585550">
	<ele>2166.20</ele>
	<time>2023-08-07T13:50:30.000Z</time>
</trkpt>
<trkpt lat="46.1319320" lon="10.4585550">
	<ele>2166.20</ele>
	<time>2023-08-07T13:50:31.000Z</time>
</trkpt>
<trkpt lat="46.1319310" lon="10.4585550">
	<ele>2166.00</ele>
	<time>2023-08-07T13:50:32.000Z</time>
</trkpt>
<trkpt lat="46.1319300" lon="10.4585560">
	<ele>2166.00</ele>
	<time>2023-08-07T13:50:33.000Z</time>
</trkpt>
<trkpt lat="46.1319300" lon="10.4585560">
	<ele>2166.00</ele>
	<time>2023-08-07T13:50:34.000Z</time>
</trkpt>
<trkpt lat="46.1319300" lon="10.4585560">
	<ele>2166.00</ele>
	<time>2023-08-07T13:50:35.000Z</time>
</trkpt>
<trkpt lat="46.1319300" lon="10.4585560">
	<ele>2165.80</ele>
	<time>2023-08-07T13:50:36.000Z</time>
</trkpt>
<trkpt lat="46.1319300" lon="10.4585560">
	<ele>2165.80</ele>
	<time>2023-08-07T13:50:37.000Z</time>
</trkpt>
<trkpt lat="46.1319300" lon="10.4585560">
	<ele>2165.80</ele>
	<time>2023-08-07T13:50:38.000Z</time>
</trkpt>
<trkpt lat="46.1319300" lon="10.4585560">
	<ele>2165.80</ele>
	<time>2023-08-07T13:50:39.000Z</time>
</trkpt>
<trkpt lat="46.1319300" lon="10.4585560">
	<ele>2165.80</ele>
	<time>2023-08-07T13:50:40.000Z</time>
</trkpt>
<trkpt lat="46.1319300" lon="10.4585560">
	<ele>2165.80</ele>
	<time>2023-08-07T13:50:41.000Z</time>
</trkpt>
<trkpt lat="46.1319300" lon="10.4585560">
	<ele>2165.80</ele>
	<time>2023-08-07T13:50:42.000Z</time>
</trkpt>
<trkpt lat="46.1319300" lon="10.4585560">
	<ele>2165.80</ele>
	<time>2023-08-07T13:50:43.000Z</time>
</trkpt>
<trkpt lat="46.1319300" lon="10.4585560">
	<ele>2165.80</ele>
	<time>2023-08-07T13:50:44.000Z</time>
</trkpt>
<trkpt lat="46.1319300" lon="10.4585560">
	<ele>2165.80</ele>
	<time>2023-08-07T13:50:45.000Z</time>
</trkpt>
<trkpt lat="46.1319300" lon="10.4585560">
	<ele>2165.80</ele>
	<time>2023-08-07T13:50:46.000Z</time>
</trkpt>
<trkpt lat="46.1319300" lon="10.4585560">
	<ele>2165.80</ele>
	<time>2023-08-07T13:50:47.000Z</time>
</trkpt>
<trkpt lat="46.1319310" lon="10.4585560">
	<ele>2165.80</ele>
	<time>2023-08-07T13:50:48.000Z</time>
</trkpt>
<trkpt lat="46.1319320" lon="10.4585560">
	<ele>2165.80</ele>
	<time>2023-08-07T13:50:49.000Z</time>
</trkpt>
<trkpt lat="46.1319340" lon="10.4585590">
	<ele>2165.80</ele>
	<time>2023-08-07T13:50:50.000Z</time>
</trkpt>
<trkpt lat="46.1319350" lon="10.4585610">
	<ele>2165.80</ele>
	<time>2023-08-07T13:50:51.000Z</time>
</trkpt>
<trkpt lat="46.1319350" lon="10.4585620">
	<ele>2165.80</ele>
	<time>2023-08-07T13:50:52.000Z</time>
</trkpt>
<trkpt lat="46.1319350" lon="10.4585630">
	<ele>2165.80</ele>
	<time>2023-08-07T13:50:53.000Z</time>
</trkpt>
<trkpt lat="46.1319350" lon="10.4585630">
	<ele>2166.00</ele>
	<time>2023-08-07T13:50:54.000Z</time>
</trkpt>
<trkpt lat="46.1319350" lon="10.4585630">
	<ele>2166.00</ele>
	<time>2023-08-07T13:50:55.000Z</time>
</trkpt>
<trkpt lat="46.1319350" lon="10.4585640">
	<ele>2166.00</ele>
	<time>2023-08-07T13:50:56.000Z</time>
</trkpt>
<trkpt lat="46.1319350" lon="10.4585640">
	<ele>2166.00</ele>
	<time>2023-08-07T13:50:57.000Z</time>
</trkpt>
<trkpt lat="46.1319360" lon="10.4585640">
	<ele>2166.00</ele>
	<time>2023-08-07T13:50:58.000Z</time>
</trkpt>
<trkpt lat="46.1319370" lon="10.4585650">
	<ele>2166.00</ele>
	<time>2023-08-07T13:50:59.000Z</time>
</trkpt>
<trkpt lat="46.1319370" lon="10.4585670">
	<ele>2166.00</ele>
	<time>2023-08-07T13:51:00.000Z</time>
</trkpt>
<trkpt lat="46.1319380" lon="10.4585680">
	<ele>2166.00</ele>
	<time>2023-08-07T13:51:01.000Z</time>
</trkpt>
<trkpt lat="46.1319380" lon="10.4585690">
	<ele>2166.00</ele>
	<time>2023-08-07T13:51:02.000Z</time>
</trkpt>
<trkpt lat="46.1319380" lon="10.4585720">
	<ele>2166.00</ele>
	<time>2023-08-07T13:51:03.000Z</time>
</trkpt>
<trkpt lat="46.1319390" lon="10.4585730">
	<ele>2166.00</ele>
	<time>2023-08-07T13:51:04.000Z</time>
</trkpt>
<trkpt lat="46.1319390" lon="10.4585730">
	<ele>2166.00</ele>
	<time>2023-08-07T13:51:05.000Z</time>
</trkpt>
<trkpt lat="46.1319390" lon="10.4585730">
	<ele>2166.00</ele>
	<time>2023-08-07T13:51:06.000Z</time>
</trkpt>
<trkpt lat="46.1319390" lon="10.4585730">
	<ele>2166.00</ele>
	<time>2023-08-07T13:51:07.000Z</time>
</trkpt>
<trkpt lat="46.1319390" lon="10.4585730">
	<ele>2165.80</ele>
	<time>2023-08-07T13:51:08.000Z</time>
</trkpt>
<trkpt lat="46.1319390" lon="10.4585730">
	<ele>2165.80</ele>
	<time>2023-08-07T13:51:09.000Z</time>
</trkpt>
<trkpt lat="46.1319390" lon="10.4585730">
	<ele>2165.80</ele>
	<time>2023-08-07T13:51:10.000Z</time>
</trkpt>
<trkpt lat="46.1319390" lon="10.4585730">
	<ele>2165.80</ele>
	<time>2023-08-07T13:51:11.000Z</time>
</trkpt>
<trkpt lat="46.1319390" lon="10.4585730">
	<ele>2165.80</ele>
	<time>2023-08-07T13:51:12.000Z</time>
</trkpt>
<trkpt lat="46.1319390" lon="10.4585740">
	<ele>2165.80</ele>
	<time>2023-08-07T13:51:13.000Z</time>
</trkpt>
<trkpt lat="46.1319390" lon="10.4585740">
	<ele>2165.80</ele>
	<time>2023-08-07T13:51:14.000Z</time>
</trkpt>
<trkpt lat="46.1319390" lon="10.4585740">
	<ele>2165.80</ele>
	<time>2023-08-07T13:51:15.000Z</time>
</trkpt>
<trkpt lat="46.1319400" lon="10.4585740">
	<ele>2165.80</ele>
	<time>2023-08-07T13:51:16.000Z</time>
</trkpt>
<trkpt lat="46.1319400" lon="10.4585740">
	<ele>2165.80</ele>
	<time>2023-08-07T13:51:17.000Z</time>
</trkpt>
<trkpt lat="46.1319400" lon="10.4585740">
	<ele>2165.80</ele>
	<time>2023-08-07T13:51:18.000Z</time>
</trkpt>
<trkpt lat="46.1319400" lon="10.4585750">
	<ele>2165.80</ele>
	<time>2023-08-07T13:51:19.000Z</time>
</trkpt>
<trkpt lat="46.1319410" lon="10.4585750">
	<ele>2165.80</ele>
	<time>2023-08-07T13:51:20.000Z</time>
</trkpt>
<trkpt lat="46.1319410" lon="10.4585750">
	<ele>2165.80</ele>
	<time>2023-08-07T13:51:21.000Z</time>
</trkpt>
<trkpt lat="46.1319410" lon="10.4585750">
	<ele>2165.80</ele>
	<time>2023-08-07T13:51:22.000Z</time>
</trkpt>
<trkpt lat="46.1319420" lon="10.4585750">
	<ele>2165.80</ele>
	<time>2023-08-07T13:51:23.000Z</time>
</trkpt>
<trkpt lat="46.1319420" lon="10.4585750">
	<ele>2165.80</ele>
	<time>2023-08-07T13:51:24.000Z</time>
</trkpt>
<trkpt lat="46.1319430" lon="10.4585750">
	<ele>2165.80</ele>
	<time>2023-08-07T13:51:25.000Z</time>
</trkpt>
<trkpt lat="46.1319430" lon="10.4585750">
	<ele>2165.80</ele>
	<time>2023-08-07T13:51:26.000Z</time>
</trkpt>
<trkpt lat="46.1319430" lon="10.4585750">
	<ele>2165.80</ele>
	<time>2023-08-07T13:51:27.000Z</time>
</trkpt>
<trkpt lat="46.1319430" lon="10.4585750">
	<ele>2165.80</ele>
	<time>2023-08-07T13:51:28.000Z</time>
</trkpt>
<trkpt lat="46.1319440" lon="10.4585750">
	<ele>2165.80</ele>
	<time>2023-08-07T13:51:29.000Z</time>
</trkpt>
<trkpt lat="46.1319470" lon="10.4585750">
	<ele>2165.80</ele>
	<time>2023-08-07T13:51:30.000Z</time>
</trkpt>
<trkpt lat="46.1319510" lon="10.4585750">
	<ele>2165.80</ele>
	<time>2023-08-07T13:51:31.000Z</time>
</trkpt>
<trkpt lat="46.1319550" lon="10.4585750">
	<ele>2165.80</ele>
	<time>2023-08-07T13:51:32.000Z</time>
</trkpt>
<trkpt lat="46.1319560" lon="10.4585750">
	<ele>2165.80</ele>
	<time>2023-08-07T13:51:33.000Z</time>
</trkpt>
<trkpt lat="46.1319570" lon="10.4585750">
	<ele>2165.80</ele>
	<time>2023-08-07T13:51:34.000Z</time>
</trkpt>
<trkpt lat="46.1319570" lon="10.4585750">
	<ele>2165.80</ele>
	<time>2023-08-07T13:51:35.000Z</time>
</trkpt>
<trkpt lat="46.1319570" lon="10.4585750">
	<ele>2165.80</ele>
	<time>2023-08-07T13:51:36.000Z</time>
</trkpt>
<trkpt lat="46.1319570" lon="10.4585750">
	<ele>2165.80</ele>
	<time>2023-08-07T13:51:37.000Z</time>
</trkpt>
<trkpt lat="46.1319570" lon="10.4585750">
	<ele>2165.80</ele>
	<time>2023-08-07T13:51:38.000Z</time>
</trkpt>
<trkpt lat="46.1319580" lon="10.4585750">
	<ele>2165.80</ele>
	<time>2023-08-07T13:51:39.000Z</time>
</trkpt>
<trkpt lat="46.1319580" lon="10.4585750">
	<ele>2165.80</ele>
	<time>2023-08-07T13:51:40.000Z</time>
</trkpt>
<trkpt lat="46.1319580" lon="10.4585740">
	<ele>2165.80</ele>
	<time>2023-08-07T13:51:41.000Z</time>
</trkpt>
<trkpt lat="46.1319580" lon="10.4585740">
	<ele>2165.80</ele>
	<time>2023-08-07T13:51:42.000Z</time>
</trkpt>
<trkpt lat="46.1319580" lon="10.4585730">
	<ele>2165.80</ele>
	<time>2023-08-07T13:51:43.000Z</time>
</trkpt>
<trkpt lat="46.1319580" lon="10.4585720">
	<ele>2165.80</ele>
	<time>2023-08-07T13:51:44.000Z</time>
</trkpt>
<trkpt lat="46.1319590" lon="10.4585710">
	<ele>2165.80</ele>
	<time>2023-08-07T13:51:45.000Z</time>
</trkpt>
<trkpt lat="46.1319590" lon="10.4585710">
	<ele>2165.80</ele>
	<time>2023-08-07T13:51:46.000Z</time>
</trkpt>
<trkpt lat="46.1319590" lon="10.4585710">
	<ele>2165.80</ele>
	<time>2023-08-07T13:51:47.000Z</time>
</trkpt>
<trkpt lat="46.1319600" lon="10.4585710">
	<ele>2165.80</ele>
	<time>2023-08-07T13:51:48.000Z</time>
</trkpt>
<trkpt lat="46.1319610" lon="10.4585710">
	<ele>2165.80</ele>
	<time>2023-08-07T13:51:49.000Z</time>
</trkpt>
<trkpt lat="46.1319610" lon="10.4585700">
	<ele>2165.80</ele>
	<time>2023-08-07T13:51:50.000Z</time>
</trkpt>
<trkpt lat="46.1319610" lon="10.4585680">
	<ele>2165.80</ele>
	<time>2023-08-07T13:51:51.000Z</time>
</trkpt>
<trkpt lat="46.1319610" lon="10.4585670">
	<ele>2165.80</ele>
	<time>2023-08-07T13:51:52.000Z</time>
</trkpt>
<trkpt lat="46.1319610" lon="10.4585670">
	<ele>2165.80</ele>
	<time>2023-08-07T13:51:53.000Z</time>
</trkpt>
<trkpt lat="46.1319610" lon="10.4585670">
	<ele>2165.80</ele>
	<time>2023-08-07T13:51:54.000Z</time>
</trkpt>
<trkpt lat="46.1319610" lon="10.4585660">
	<ele>2165.80</ele>
	<time>2023-08-07T13:51:55.000Z</time>
</trkpt>
<trkpt lat="46.1319610" lon="10.4585640">
	<ele>2165.80</ele>
	<time>2023-08-07T13:51:56.000Z</time>
</trkpt>
<trkpt lat="46.1319610" lon="10.4585640">
	<ele>2165.80</ele>
	<time>2023-08-07T13:51:57.000Z</time>
</trkpt>
<trkpt lat="46.1319610" lon="10.4585630">
	<ele>2165.80</ele>
	<time>2023-08-07T13:51:58.000Z</time>
</trkpt>
<trkpt lat="46.1319610" lon="10.4585620">
	<ele>2165.80</ele>
	<time>2023-08-07T13:51:59.000Z</time>
</trkpt>
<trkpt lat="46.1319610" lon="10.4585620">
	<ele>2165.80</ele>
	<time>2023-08-07T13:52:00.000Z</time>
</trkpt>
<trkpt lat="46.1319620" lon="10.4585620">
	<ele>2165.80</ele>
	<time>2023-08-07T13:52:01.000Z</time>
</trkpt>
<trkpt lat="46.1319620" lon="10.4585610">
	<ele>2165.80</ele>
	<time>2023-08-07T13:52:02.000Z</time>
</trkpt>
<trkpt lat="46.1319630" lon="10.4585600">
	<ele>2165.80</ele>
	<time>2023-08-07T13:52:03.000Z</time>
</trkpt>
<trkpt lat="46.1319630" lon="10.4585600">
	<ele>2165.80</ele>
	<time>2023-08-07T13:52:04.000Z</time>
</trkpt>
<trkpt lat="46.1319630" lon="10.4585600">
	<ele>2165.80</ele>
	<time>2023-08-07T13:52:05.000Z</time>
</trkpt>
<trkpt lat="46.1319630" lon="10.4585600">
	<ele>2165.80</ele>
	<time>2023-08-07T13:52:06.000Z</time>
</trkpt>
<trkpt lat="46.1319640" lon="10.4585590">
	<ele>2165.80</ele>
	<time>2023-08-07T13:52:07.000Z</time>
</trkpt>
<trkpt lat="46.1319640" lon="10.4585590">
	<ele>2165.80</ele>
	<time>2023-08-07T13:52:08.000Z</time>
</trkpt>
<trkpt lat="46.1319650" lon="10.4585590">
	<ele>2165.80</ele>
	<time>2023-08-07T13:52:09.000Z</time>
</trkpt>
<trkpt lat="46.1319670" lon="10.4585580">
	<ele>2165.80</ele>
	<time>2023-08-07T13:52:10.000Z</time>
</trkpt>
<trkpt lat="46.1319690" lon="10.4585570">
	<ele>2165.80</ele>
	<time>2023-08-07T13:52:11.000Z</time>
</trkpt>
<trkpt lat="46.1319710" lon="10.4585560">
	<ele>2165.80</ele>
	<time>2023-08-07T13:52:12.000Z</time>
</trkpt>
<trkpt lat="46.1319720" lon="10.4585550">
	<ele>2165.80</ele>
	<time>2023-08-07T13:52:13.000Z</time>
</trkpt>
<trkpt lat="46.1319740" lon="10.4585540">
	<ele>2165.80</ele>
	<time>2023-08-07T13:52:14.000Z</time>
</trkpt>
<trkpt lat="46.1319750" lon="10.4585490">
	<ele>2165.80</ele>
	<time>2023-08-07T13:52:15.000Z</time>
</trkpt>
<trkpt lat="46.1319770" lon="10.4585460">
	<ele>2165.80</ele>
	<time>2023-08-07T13:52:16.000Z</time>
</trkpt>
<trkpt lat="46.1319780" lon="10.4585440">
	<ele>2165.80</ele>
	<time>2023-08-07T13:52:17.000Z</time>
</trkpt>
<trkpt lat="46.1319790" lon="10.4585430">
	<ele>2165.80</ele>
	<time>2023-08-07T13:52:18.000Z</time>
</trkpt>
<trkpt lat="46.1319790" lon="10.4585430">
	<ele>2165.80</ele>
	<time>2023-08-07T13:52:19.000Z</time>
</trkpt>
<trkpt lat="46.1319780" lon="10.4585430">
	<ele>2165.80</ele>
	<time>2023-08-07T13:52:20.000Z</time>
</trkpt>
<trkpt lat="46.1319780" lon="10.4585420">
	<ele>2165.80</ele>
	<time>2023-08-07T13:52:21.000Z</time>
</trkpt>
<trkpt lat="46.1319770" lon="10.4585420">
	<ele>2165.80</ele>
	<time>2023-08-07T13:52:22.000Z</time>
</trkpt>
<trkpt lat="46.1319770" lon="10.4585420">
	<ele>2165.80</ele>
	<time>2023-08-07T13:52:23.000Z</time>
</trkpt>
<trkpt lat="46.1319770" lon="10.4585420">
	<ele>2165.80</ele>
	<time>2023-08-07T13:52:24.000Z</time>
</trkpt>
<trkpt lat="46.1319770" lon="10.4585420">
	<ele>2165.80</ele>
	<time>2023-08-07T13:52:25.000Z</time>
</trkpt>
<trkpt lat="46.1319770" lon="10.4585420">
	<ele>2165.80</ele>
	<time>2023-08-07T13:52:26.000Z</time>
</trkpt>
<trkpt lat="46.1319770" lon="10.4585420">
	<ele>2165.80</ele>
	<time>2023-08-07T13:52:27.000Z</time>
</trkpt>
<trkpt lat="46.1319770" lon="10.4585420">
	<ele>2165.80</ele>
	<time>2023-08-07T13:52:28.000Z</time>
</trkpt>
<trkpt lat="46.1319770" lon="10.4585420">
	<ele>2165.80</ele>
	<time>2023-08-07T13:52:29.000Z</time>
</trkpt>
<trkpt lat="46.1319770" lon="10.4585420">
	<ele>2165.80</ele>
	<time>2023-08-07T13:52:30.000Z</time>
</trkpt>
<trkpt lat="46.1319770" lon="10.4585420">
	<ele>2165.80</ele>
	<time>2023-08-07T13:52:31.000Z</time>
</trkpt>
<trkpt lat="46.1319770" lon="10.4585410">
	<ele>2165.80</ele>
	<time>2023-08-07T13:52:32.000Z</time>
</trkpt>
<trkpt lat="46.1319770" lon="10.4585410">
	<ele>2165.80</ele>
	<time>2023-08-07T13:52:33.000Z</time>
</trkpt>
<trkpt lat="46.1319770" lon="10.4585400">
	<ele>2165.80</ele>
	<time>2023-08-07T13:52:34.000Z</time>
</trkpt>
<trkpt lat="46.1319760" lon="10.4585400">
	<ele>2165.80</ele>
	<time>2023-08-07T13:52:35.000Z</time>
</trkpt>
<trkpt lat="46.1319750" lon="10.4585400">
	<ele>2165.80</ele>
	<time>2023-08-07T13:52:36.000Z</time>
</trkpt>
<trkpt lat="46.1319750" lon="10.4585380">
	<ele>2165.80</ele>
	<time>2023-08-07T13:52:37.000Z</time>
</trkpt>
<trkpt lat="46.1319750" lon="10.4585380">
	<ele>2165.80</ele>
	<time>2023-08-07T13:52:38.000Z</time>
</trkpt>
<trkpt lat="46.1319750" lon="10.4585370">
	<ele>2165.80</ele>
	<time>2023-08-07T13:52:39.000Z</time>
</trkpt>
<trkpt lat="46.1319750" lon="10.4585360">
	<ele>2165.80</ele>
	<time>2023-08-07T13:52:40.000Z</time>
</trkpt>
<trkpt lat="46.1319750" lon="10.4585350">
	<ele>2165.80</ele>
	<time>2023-08-07T13:52:41.000Z</time>
</trkpt>
<trkpt lat="46.1319750" lon="10.4585290">
	<ele>2165.80</ele>
	<time>2023-08-07T13:52:42.000Z</time>
</trkpt>
<trkpt lat="46.1319750" lon="10.4585270">
	<ele>2165.80</ele>
	<time>2023-08-07T13:52:43.000Z</time>
</trkpt>
<trkpt lat="46.1319750" lon="10.4585260">
	<ele>2165.80</ele>
	<time>2023-08-07T13:52:44.000Z</time>
</trkpt>
<trkpt lat="46.1319750" lon="10.4585260">
	<ele>2165.80</ele>
	<time>2023-08-07T13:52:45.000Z</time>
</trkpt>
<trkpt lat="46.1319750" lon="10.4585280">
	<ele>2165.80</ele>
	<time>2023-08-07T13:52:46.000Z</time>
</trkpt>
<trkpt lat="46.1319750" lon="10.4585280">
	<ele>2165.80</ele>
	<time>2023-08-07T13:52:47.000Z</time>
</trkpt>
<trkpt lat="46.1319750" lon="10.4585290">
	<ele>2165.80</ele>
	<time>2023-08-07T13:52:48.000Z</time>
</trkpt>
<trkpt lat="46.1319750" lon="10.4585280">
	<ele>2165.80</ele>
	<time>2023-08-07T13:52:49.000Z</time>
</trkpt>
<trkpt lat="46.1319750" lon="10.4585280">
	<ele>2165.80</ele>
	<time>2023-08-07T13:52:50.000Z</time>
</trkpt>
<trkpt lat="46.1319750" lon="10.4585270">
	<ele>2165.80</ele>
	<time>2023-08-07T13:52:51.000Z</time>
</trkpt>
<trkpt lat="46.1319760" lon="10.4585270">
	<ele>2165.80</ele>
	<time>2023-08-07T13:52:52.000Z</time>
</trkpt>
<trkpt lat="46.1319760" lon="10.4585270">
	<ele>2165.80</ele>
	<time>2023-08-07T13:52:53.000Z</time>
</trkpt>
<trkpt lat="46.1319770" lon="10.4585270">
	<ele>2165.80</ele>
	<time>2023-08-07T13:52:54.000Z</time>
</trkpt>
<trkpt lat="46.1319770" lon="10.4585270">
	<ele>2165.80</ele>
	<time>2023-08-07T13:52:55.000Z</time>
</trkpt>
<trkpt lat="46.1319780" lon="10.4585270">
	<ele>2165.80</ele>
	<time>2023-08-07T13:52:56.000Z</time>
</trkpt>
<trkpt lat="46.1319780" lon="10.4585260">
	<ele>2165.80</ele>
	<time>2023-08-07T13:52:57.000Z</time>
</trkpt>
<trkpt lat="46.1319780" lon="10.4585260">
	<ele>2165.80</ele>
	<time>2023-08-07T13:52:58.000Z</time>
</trkpt>
<trkpt lat="46.1319780" lon="10.4585260">
	<ele>2165.80</ele>
	<time>2023-08-07T13:52:59.000Z</time>
</trkpt>
<trkpt lat="46.1319780" lon="10.4585260">
	<ele>2165.80</ele>
	<time>2023-08-07T13:53:00.000Z</time>
</trkpt>
<trkpt lat="46.1319780" lon="10.4585250">
	<ele>2165.80</ele>
	<time>2023-08-07T13:53:01.000Z</time>
</trkpt>
<trkpt lat="46.1319780" lon="10.4585250">
	<ele>2165.80</ele>
	<time>2023-08-07T13:53:02.000Z</time>
</trkpt>
<trkpt lat="46.1319790" lon="10.4585240">
	<ele>2165.80</ele>
	<time>2023-08-07T13:53:03.000Z</time>
</trkpt>
<trkpt lat="46.1319790" lon="10.4585230">
	<ele>2165.80</ele>
	<time>2023-08-07T13:53:04.000Z</time>
</trkpt>
<trkpt lat="46.1319790" lon="10.4585230">
	<ele>2165.80</ele>
	<time>2023-08-07T13:53:05.000Z</time>
</trkpt>
<trkpt lat="46.1319790" lon="10.4585230">
	<ele>2165.80</ele>
	<time>2023-08-07T13:53:06.000Z</time>
</trkpt>
<trkpt lat="46.1319800" lon="10.4585150">
	<ele>2165.80</ele>
	<time>2023-08-07T13:53:07.000Z</time>
</trkpt>
<trkpt lat="46.1319810" lon="10.4584980">
	<ele>2165.80</ele>
	<time>2023-08-07T13:53:08.000Z</time>
</trkpt>
<trkpt lat="46.1319810" lon="10.4584800">
	<ele>2165.80</ele>
	<time>2023-08-07T13:53:09.000Z</time>
</trkpt>
<trkpt lat="46.1319830" lon="10.4584610">
	<ele>2165.80</ele>
	<time>2023-08-07T13:53:10.000Z</time>
</trkpt>
<trkpt lat="46.1319830" lon="10.4584460">
	<ele>2165.80</ele>
	<time>2023-08-07T13:53:11.000Z</time>
</trkpt>
<trkpt lat="46.1319820" lon="10.4584330">
	<ele>2165.80</ele>
	<time>2023-08-07T13:53:12.000Z</time>
</trkpt>
<trkpt lat="46.1319810" lon="10.4584160">
	<ele>2165.80</ele>
	<time>2023-08-07T13:53:13.000Z</time>
</trkpt>
<trkpt lat="46.1319800" lon="10.4583980">
	<ele>2165.80</ele>
	<time>2023-08-07T13:53:14.000Z</time>
</trkpt>
<trkpt lat="46.1319810" lon="10.4583820">
	<ele>2165.80</ele>
	<time>2023-08-07T13:53:15.000Z</time>
</trkpt>
<trkpt lat="46.1319820" lon="10.4583680">
	<ele>2165.80</ele>
	<time>2023-08-07T13:53:16.000Z</time>
</trkpt>
<trkpt lat="46.1319840" lon="10.4583610">
	<ele>2165.80</ele>
	<time>2023-08-07T13:53:17.000Z</time>
</trkpt>
<trkpt lat="46.1319820" lon="10.4583560">
	<ele>2165.80</ele>
	<time>2023-08-07T13:53:18.000Z</time>
</trkpt>
<trkpt lat="46.1319780" lon="10.4583520">
	<ele>2165.80</ele>
	<time>2023-08-07T13:53:19.000Z</time>
</trkpt>
<trkpt lat="46.1319760" lon="10.4583480">
	<ele>2165.80</ele>
	<time>2023-08-07T13:53:20.000Z</time>
</trkpt>
<trkpt lat="46.1319680" lon="10.4583510">
	<ele>2165.80</ele>
	<time>2023-08-07T13:53:21.000Z</time>
</trkpt>
<trkpt lat="46.1319630" lon="10.4583480">
	<ele>2165.80</ele>
	<time>2023-08-07T13:53:22.000Z</time>
</trkpt>
<trkpt lat="46.1319590" lon="10.4583400">
	<ele>2165.80</ele>
	<time>2023-08-07T13:53:23.000Z</time>
</trkpt>
<trkpt lat="46.1319530" lon="10.4583330">
	<ele>2165.80</ele>
	<time>2023-08-07T13:53:24.000Z</time>
</trkpt>
<trkpt lat="46.1319490" lon="10.4583210">
	<ele>2165.80</ele>
	<time>2023-08-07T13:53:25.000Z</time>
</trkpt>
<trkpt lat="46.1319480" lon="10.4583070">
	<ele>2165.80</ele>
	<time>2023-08-07T13:53:26.000Z</time>
</trkpt>
<trkpt lat="46.1319480" lon="10.4582970">
	<ele>2165.80</ele>
	<time>2023-08-07T13:53:27.000Z</time>
</trkpt>
<trkpt lat="46.1319440" lon="10.4582850">
	<ele>2165.80</ele>
	<time>2023-08-07T13:53:28.000Z</time>
</trkpt>
<trkpt lat="46.1319400" lon="10.4582760">
	<ele>2165.80</ele>
	<time>2023-08-07T13:53:29.000Z</time>
</trkpt>
<trkpt lat="46.1319350" lon="10.4582680">
	<ele>2165.80</ele>
	<time>2023-08-07T13:53:30.000Z</time>
</trkpt>
<trkpt lat="46.1319310" lon="10.4582590">
	<ele>2165.80</ele>
	<time>2023-08-07T13:53:31.000Z</time>
</trkpt>
<trkpt lat="46.1319310" lon="10.4582470">
	<ele>2165.80</ele>
	<time>2023-08-07T13:53:32.000Z</time>
</trkpt>
<trkpt lat="46.1319280" lon="10.4582330">
	<ele>2165.80</ele>
	<time>2023-08-07T13:53:33.000Z</time>
</trkpt>
<trkpt lat="46.1319250" lon="10.4582200">
	<ele>2165.80</ele>
	<time>2023-08-07T13:53:34.000Z</time>
</trkpt>
<trkpt lat="46.1319220" lon="10.4582080">
	<ele>2165.80</ele>
	<time>2023-08-07T13:53:35.000Z</time>
</trkpt>
<trkpt lat="46.1319190" lon="10.4581950">
	<ele>2165.80</ele>
	<time>2023-08-07T13:53:36.000Z</time>
</trkpt>
<trkpt lat="46.1319140" lon="10.4581800">
	<ele>2165.80</ele>
	<time>2023-08-07T13:53:37.000Z</time>
</trkpt>
<trkpt lat="46.1319080" lon="10.4581610">
	<ele>2165.80</ele>
	<time>2023-08-07T13:53:38.000Z</time>
</trkpt>
<trkpt lat="46.1319060" lon="10.4581460">
	<ele>2165.80</ele>
	<time>2023-08-07T13:53:39.000Z</time>
</trkpt>
<trkpt lat="46.1319060" lon="10.4581390">
	<ele>2165.80</ele>
	<time>2023-08-07T13:53:40.000Z</time>
</trkpt>
<trkpt lat="46.1319030" lon="10.4581280">
	<ele>2165.80</ele>
	<time>2023-08-07T13:53:41.000Z</time>
</trkpt>
<trkpt lat="46.1319040" lon="10.4581160">
	<ele>2165.80</ele>
	<time>2023-08-07T13:53:42.000Z</time>
</trkpt>
<trkpt lat="46.1319060" lon="10.4581030">
	<ele>2165.80</ele>
	<time>2023-08-07T13:53:43.000Z</time>
</trkpt>
<trkpt lat="46.1319120" lon="10.4580790">
	<ele>2165.80</ele>
	<time>2023-08-07T13:53:44.000Z</time>
</trkpt>
<trkpt lat="46.1319190" lon="10.4580600">
	<ele>2165.80</ele>
	<time>2023-08-07T13:53:45.000Z</time>
</trkpt>
<trkpt lat="46.1319310" lon="10.4580490">
	<ele>2165.80</ele>
	<time>2023-08-07T13:53:46.000Z</time>
</trkpt>
<trkpt lat="46.1319430" lon="10.4580480">
	<ele>2165.80</ele>
	<time>2023-08-07T13:53:47.000Z</time>
</trkpt>
<trkpt lat="46.1319500" lon="10.4580460">
	<ele>2165.80</ele>
	<time>2023-08-07T13:53:48.000Z</time>
</trkpt>
<trkpt lat="46.1319510" lon="10.4580370">
	<ele>2165.80</ele>
	<time>2023-08-07T13:53:49.000Z</time>
</trkpt>
<trkpt lat="46.1319540" lon="10.4580310">
	<ele>2165.80</ele>
	<time>2023-08-07T13:53:50.000Z</time>
</trkpt>
<trkpt lat="46.1319540" lon="10.4580230">
	<ele>2165.80</ele>
	<time>2023-08-07T13:53:51.000Z</time>
</trkpt>
<trkpt lat="46.1319540" lon="10.4580160">
	<ele>2165.80</ele>
	<time>2023-08-07T13:53:52.000Z</time>
</trkpt>
<trkpt lat="46.1319540" lon="10.4580080">
	<ele>2165.80</ele>
	<time>2023-08-07T13:53:53.000Z</time>
</trkpt>
<trkpt lat="46.1319540" lon="10.4579940">
	<ele>2165.80</ele>
	<time>2023-08-07T13:53:54.000Z</time>
</trkpt>
<trkpt lat="46.1319560" lon="10.4579830">
	<ele>2165.80</ele>
	<time>2023-08-07T13:53:55.000Z</time>
</trkpt>
<trkpt lat="46.1319560" lon="10.4579710">
	<ele>2165.80</ele>
	<time>2023-08-07T13:53:56.000Z</time>
</trkpt>
<trkpt lat="46.1319610" lon="10.4579600">
	<ele>2165.80</ele>
	<time>2023-08-07T13:53:57.000Z</time>
</trkpt>
<trkpt lat="46.1319660" lon="10.4579510">
	<ele>2165.80</ele>
	<time>2023-08-07T13:53:58.000Z</time>
</trkpt>
<trkpt lat="46.1319690" lon="10.4579430">
	<ele>2165.80</ele>
	<time>2023-08-07T13:53:59.000Z</time>
</trkpt>
<trkpt lat="46.1319730" lon="10.4579380">
	<ele>2165.80</ele>
	<time>2023-08-07T13:54:00.000Z</time>
</trkpt>
<trkpt lat="46.1319770" lon="10.4579370">
	<ele>2165.80</ele>
	<time>2023-08-07T13:54:01.000Z</time>
</trkpt>
<trkpt lat="46.1319840" lon="10.4579390">
	<ele>2165.80</ele>
	<time>2023-08-07T13:54:02.000Z</time>
</trkpt>
<trkpt lat="46.1319930" lon="10.4579380">
	<ele>2165.80</ele>
	<time>2023-08-07T13:54:03.000Z</time>
</trkpt>
<trkpt lat="46.1319990" lon="10.4579370">
	<ele>2165.80</ele>
	<time>2023-08-07T13:54:04.000Z</time>
</trkpt>
<trkpt lat="46.1320060" lon="10.4579340">
	<ele>2165.80</ele>
	<time>2023-08-07T13:54:05.000Z</time>
</trkpt>
<trkpt lat="46.1320160" lon="10.4579320">
	<ele>2165.80</ele>
	<time>2023-08-07T13:54:06.000Z</time>
</trkpt>
<trkpt lat="46.1320230" lon="10.4579280">
	<ele>2166.00</ele>
	<time>2023-08-07T13:54:07.000Z</time>
</trkpt>
<trkpt lat="46.1320280" lon="10.4579200">
	<ele>2166.00</ele>
	<time>2023-08-07T13:54:08.000Z</time>
</trkpt>
<trkpt lat="46.1320370" lon="10.4579130">
	<ele>2166.20</ele>
	<time>2023-08-07T13:54:09.000Z</time>
</trkpt>
<trkpt lat="46.1320450" lon="10.4579070">
	<ele>2166.40</ele>
	<time>2023-08-07T13:54:10.000Z</time>
</trkpt>
<trkpt lat="46.1320510" lon="10.4578990">
	<ele>2166.60</ele>
	<time>2023-08-07T13:54:11.000Z</time>
</trkpt>
<trkpt lat="46.1320570" lon="10.4578870">
	<ele>2166.60</ele>
	<time>2023-08-07T13:54:12.000Z</time>
</trkpt>
<trkpt lat="46.1320620" lon="10.4578760">
	<ele>2166.80</ele>
	<time>2023-08-07T13:54:13.000Z</time>
</trkpt>
<trkpt lat="46.1320660" lon="10.4578640">
	<ele>2166.80</ele>
	<time>2023-08-07T13:54:14.000Z</time>
</trkpt>
<trkpt lat="46.1320700" lon="10.4578450">
	<ele>2166.80</ele>
	<time>2023-08-07T13:54:15.000Z</time>
</trkpt>
<trkpt lat="46.1320770" lon="10.4578250">
	<ele>2166.80</ele>
	<time>2023-08-07T13:54:16.000Z</time>
</trkpt>
<trkpt lat="46.1320840" lon="10.4578110">
	<ele>2167.00</ele>
	<time>2023-08-07T13:54:17.000Z</time>
</trkpt>
<trkpt lat="46.1320980" lon="10.4578000">
	<ele>2166.80</ele>
	<time>2023-08-07T13:54:18.000Z</time>
</trkpt>
<trkpt lat="46.1321080" lon="10.4577970">
	<ele>2167.00</ele>
	<time>2023-08-07T13:54:19.000Z</time>
</trkpt>
<trkpt lat="46.1321160" lon="10.4577880">
	<ele>2167.00</ele>
	<time>2023-08-07T13:54:20.000Z</time>
</trkpt>
<trkpt lat="46.1321250" lon="10.4577780">
	<ele>2167.00</ele>
	<time>2023-08-07T13:54:21.000Z</time>
</trkpt>
<trkpt lat="46.1321330" lon="10.4577690">
	<ele>2167.00</ele>
	<time>2023-08-07T13:54:22.000Z</time>
</trkpt>
<trkpt lat="46.1321400" lon="10.4577630">
	<ele>2167.00</ele>
	<time>2023-08-07T13:54:23.000Z</time>
</trkpt>
<trkpt lat="46.1321430" lon="10.4577540">
	<ele>2167.00</ele>
	<time>2023-08-07T13:54:24.000Z</time>
</trkpt>
<trkpt lat="46.1321460" lon="10.4577420">
	<ele>2167.00</ele>
	<time>2023-08-07T13:54:25.000Z</time>
</trkpt>
<trkpt lat="46.1321510" lon="10.4577310">
	<ele>2166.80</ele>
	<time>2023-08-07T13:54:26.000Z</time>
</trkpt>
<trkpt lat="46.1321550" lon="10.4577220">
	<ele>2166.80</ele>
	<time>2023-08-07T13:54:27.000Z</time>
</trkpt>
<trkpt lat="46.1321600" lon="10.4577070">
	<ele>2166.60</ele>
	<time>2023-08-07T13:54:28.000Z</time>
</trkpt>
<trkpt lat="46.1321640" lon="10.4576910">
	<ele>2166.60</ele>
	<time>2023-08-07T13:54:29.000Z</time>
</trkpt>
<trkpt lat="46.1321670" lon="10.4576760">
	<ele>2166.60</ele>
	<time>2023-08-07T13:54:30.000Z</time>
</trkpt>
<trkpt lat="46.1321700" lon="10.4576650">
	<ele>2166.40</ele>
	<time>2023-08-07T13:54:31.000Z</time>
</trkpt>
<trkpt lat="46.1321760" lon="10.4576610">
	<ele>2166.40</ele>
	<time>2023-08-07T13:54:32.000Z</time>
</trkpt>
<trkpt lat="46.1321830" lon="10.4576540">
	<ele>2166.40</ele>
	<time>2023-08-07T13:54:33.000Z</time>
</trkpt>
<trkpt lat="46.1321870" lon="10.4576420">
	<ele>2166.40</ele>
	<time>2023-08-07T13:54:34.000Z</time>
</trkpt>
<trkpt lat="46.1321910" lon="10.4576310">
	<ele>2166.40</ele>
	<time>2023-08-07T13:54:35.000Z</time>
</trkpt>
<trkpt lat="46.1321940" lon="10.4576210">
	<ele>2166.40</ele>
	<time>2023-08-07T13:54:36.000Z</time>
</trkpt>
<trkpt lat="46.1321940" lon="10.4576130">
	<ele>2166.40</ele>
	<time>2023-08-07T13:54:37.000Z</time>
</trkpt>
<trkpt lat="46.1321970" lon="10.4576070">
	<ele>2166.40</ele>
	<time>2023-08-07T13:54:38.000Z</time>
</trkpt>
<trkpt lat="46.1321990" lon="10.4575960">
	<ele>2166.40</ele>
	<time>2023-08-07T13:54:39.000Z</time>
</trkpt>
<trkpt lat="46.1321980" lon="10.4575770">
	<ele>2166.40</ele>
	<time>2023-08-07T13:54:40.000Z</time>
</trkpt>
<trkpt lat="46.1321930" lon="10.4575590">
	<ele>2166.40</ele>
	<time>2023-08-07T13:54:41.000Z</time>
</trkpt>
<trkpt lat="46.1321910" lon="10.4575460">
	<ele>2166.40</ele>
	<time>2023-08-07T13:54:42.000Z</time>
</trkpt>
<trkpt lat="46.1321880" lon="10.4575380">
	<ele>2166.40</ele>
	<time>2023-08-07T13:54:43.000Z</time>
</trkpt>
<trkpt lat="46.1321860" lon="10.4575230">
	<ele>2166.40</ele>
	<time>2023-08-07T13:54:44.000Z</time>
</trkpt>
<trkpt lat="46.1321860" lon="10.4575090">
	<ele>2166.40</ele>
	<time>2023-08-07T13:54:45.000Z</time>
</trkpt>
<trkpt lat="46.1321860" lon="10.4574920">
	<ele>2166.60</ele>
	<time>2023-08-07T13:54:46.000Z</time>
</trkpt>
<trkpt lat="46.1321870" lon="10.4574790">
	<ele>2166.60</ele>
	<time>2023-08-07T13:54:47.000Z</time>
</trkpt>
<trkpt lat="46.1321870" lon="10.4574640">
	<ele>2166.80</ele>
	<time>2023-08-07T13:54:48.000Z</time>
</trkpt>
<trkpt lat="46.1321870" lon="10.4574530">
	<ele>2166.80</ele>
	<time>2023-08-07T13:54:49.000Z</time>
</trkpt>
<trkpt lat="46.1321860" lon="10.4574430">
	<ele>2166.80</ele>
	<time>2023-08-07T13:54:50.000Z</time>
</trkpt>
<trkpt lat="46.1321860" lon="10.4574320">
	<ele>2167.00</ele>
	<time>2023-08-07T13:54:51.000Z</time>
</trkpt>
<trkpt lat="46.1321850" lon="10.4574250">
	<ele>2167.00</ele>
	<time>2023-08-07T13:54:52.000Z</time>
</trkpt>
<trkpt lat="46.1321860" lon="10.4574170">
	<ele>2167.00</ele>
	<time>2023-08-07T13:54:53.000Z</time>
</trkpt>
<trkpt lat="46.1321880" lon="10.4574080">
	<ele>2167.00</ele>
	<time>2023-08-07T13:54:54.000Z</time>
</trkpt>
<trkpt lat="46.1321890" lon="10.4573950">
	<ele>2167.00</ele>
	<time>2023-08-07T13:54:55.000Z</time>
</trkpt>
<trkpt lat="46.1321890" lon="10.4573790">
	<ele>2167.00</ele>
	<time>2023-08-07T13:54:56.000Z</time>
</trkpt>
<trkpt lat="46.1321910" lon="10.4573660">
	<ele>2167.00</ele>
	<time>2023-08-07T13:54:57.000Z</time>
</trkpt>
<trkpt lat="46.1321930" lon="10.4573570">
	<ele>2167.00</ele>
	<time>2023-08-07T13:54:58.000Z</time>
</trkpt>
<trkpt lat="46.1321930" lon="10.4573480">
	<ele>2167.00</ele>
	<time>2023-08-07T13:54:59.000Z</time>
</trkpt>
<trkpt lat="46.1321960" lon="10.4573380">
	<ele>2167.00</ele>
	<time>2023-08-07T13:55:00.000Z</time>
</trkpt>
<trkpt lat="46.1321980" lon="10.4573220">
	<ele>2167.00</ele>
	<time>2023-08-07T13:55:01.000Z</time>
</trkpt>
<trkpt lat="46.1321990" lon="10.4573090">
	<ele>2167.20</ele>
	<time>2023-08-07T13:55:02.000Z</time>
</trkpt>
<trkpt lat="46.1321970" lon="10.4572990">
	<ele>2167.20</ele>
	<time>2023-08-07T13:55:03.000Z</time>
</trkpt>
<trkpt lat="46.1321920" lon="10.4572890">
	<ele>2167.40</ele>
	<time>2023-08-07T13:55:04.000Z</time>
</trkpt>
<trkpt lat="46.1321850" lon="10.4572800">
	<ele>2167.40</ele>
	<time>2023-08-07T13:55:05.000Z</time>
</trkpt>
<trkpt lat="46.1321790" lon="10.4572690">
	<ele>2167.40</ele>
	<time>2023-08-07T13:55:06.000Z</time>
</trkpt>
<trkpt lat="46.1321740" lon="10.4572580">
	<ele>2167.40</ele>
	<time>2023-08-07T13:55:07.000Z</time>
</trkpt>
<trkpt lat="46.1321700" lon="10.4572450">
	<ele>2167.40</ele>
	<time>2023-08-07T13:55:08.000Z</time>
</trkpt>
<trkpt lat="46.1321630" lon="10.4572320">
	<ele>2167.40</ele>
	<time>2023-08-07T13:55:09.000Z</time>
</trkpt>
<trkpt lat="46.1321630" lon="10.4572180">
	<ele>2167.40</ele>
	<time>2023-08-07T13:55:10.000Z</time>
</trkpt>
<trkpt lat="46.1321620" lon="10.4572050">
	<ele>2167.20</ele>
	<time>2023-08-07T13:55:11.000Z</time>
</trkpt>
<trkpt lat="46.1321610" lon="10.4571930">
	<ele>2167.20</ele>
	<time>2023-08-07T13:55:12.000Z</time>
</trkpt>
<trkpt lat="46.1321590" lon="10.4571780">
	<ele>2167.20</ele>
	<time>2023-08-07T13:55:13.000Z</time>
</trkpt>
<trkpt lat="46.1321550" lon="10.4571650">
	<ele>2167.20</ele>
	<time>2023-08-07T13:55:14.000Z</time>
</trkpt>
<trkpt lat="46.1321540" lon="10.4571500">
	<ele>2167.20</ele>
	<time>2023-08-07T13:55:15.000Z</time>
</trkpt>
<trkpt lat="46.1321480" lon="10.4571430">
	<ele>2167.20</ele>
	<time>2023-08-07T13:55:16.000Z</time>
</trkpt>
<trkpt lat="46.1321460" lon="10.4571280">
	<ele>2167.00</ele>
	<time>2023-08-07T13:55:17.000Z</time>
</trkpt>
<trkpt lat="46.1321420" lon="10.4571220">
	<ele>2167.00</ele>
	<time>2023-08-07T13:55:18.000Z</time>
</trkpt>
<trkpt lat="46.1321370" lon="10.4571150">
	<ele>2167.00</ele>
	<time>2023-08-07T13:55:19.000Z</time>
</trkpt>
<trkpt lat="46.1321310" lon="10.4571070">
	<ele>2167.00</ele>
	<time>2023-08-07T13:55:20.000Z</time>
</trkpt>
<trkpt lat="46.1321290" lon="10.4570940">
	<ele>2167.00</ele>
	<time>2023-08-07T13:55:21.000Z</time>
</trkpt>
<trkpt lat="46.1321260" lon="10.4570810">
	<ele>2166.80</ele>
	<time>2023-08-07T13:55:22.000Z</time>
</trkpt>
<trkpt lat="46.1321210" lon="10.4570700">
	<ele>2166.80</ele>
	<time>2023-08-07T13:55:23.000Z</time>
</trkpt>
<trkpt lat="46.1321180" lon="10.4570590">
	<ele>2166.80</ele>
	<time>2023-08-07T13:55:24.000Z</time>
</trkpt>
<trkpt lat="46.1321170" lon="10.4570530">
	<ele>2166.80</ele>
	<time>2023-08-07T13:55:25.000Z</time>
</trkpt>
<trkpt lat="46.1321180" lon="10.4570470">
	<ele>2166.80</ele>
	<time>2023-08-07T13:55:26.000Z</time>
</trkpt>
<trkpt lat="46.1321190" lon="10.4570420">
	<ele>2166.80</ele>
	<time>2023-08-07T13:55:27.000Z</time>
</trkpt>
<trkpt lat="46.1321200" lon="10.4570390">
	<ele>2166.80</ele>
	<time>2023-08-07T13:55:28.000Z</time>
</trkpt>
<trkpt lat="46.1321170" lon="10.4570360">
	<ele>2166.80</ele>
	<time>2023-08-07T13:55:29.000Z</time>
</trkpt>
<trkpt lat="46.1321150" lon="10.4570290">
	<ele>2167.00</ele>
	<time>2023-08-07T13:55:30.000Z</time>
</trkpt>
<trkpt lat="46.1321130" lon="10.4570160">
	<ele>2167.00</ele>
	<time>2023-08-07T13:55:31.000Z</time>
</trkpt>
<trkpt lat="46.1321110" lon="10.4569990">
	<ele>2167.20</ele>
	<time>2023-08-07T13:55:32.000Z</time>
</trkpt>
<trkpt lat="46.1321090" lon="10.4569860">
	<ele>2167.20</ele>
	<time>2023-08-07T13:55:33.000Z</time>
</trkpt>
<trkpt lat="46.1321080" lon="10.4569710">
	<ele>2167.40</ele>
	<time>2023-08-07T13:55:34.000Z</time>
</trkpt>
<trkpt lat="46.1321070" lon="10.4569550">
	<ele>2167.40</ele>
	<time>2023-08-07T13:55:35.000Z</time>
</trkpt>
<trkpt lat="46.1321080" lon="10.4569410">
	<ele>2167.40</ele>
	<time>2023-08-07T13:55:36.000Z</time>
</trkpt>
<trkpt lat="46.1321080" lon="10.4569330">
	<ele>2167.60</ele>
	<time>2023-08-07T13:55:37.000Z</time>
</trkpt>
<trkpt lat="46.1321060" lon="10.4569250">
	<ele>2167.60</ele>
	<time>2023-08-07T13:55:38.000Z</time>
</trkpt>
<trkpt lat="46.1321040" lon="10.4569140">
	<ele>2167.80</ele>
	<time>2023-08-07T13:55:39.000Z</time>
</trkpt>
<trkpt lat="46.1321000" lon="10.4569030">
	<ele>2167.80</ele>
	<time>2023-08-07T13:55:40.000Z</time>
</trkpt>
<trkpt lat="46.1320970" lon="10.4568910">
	<ele>2168.00</ele>
	<time>2023-08-07T13:55:41.000Z</time>
</trkpt>
<trkpt lat="46.1321000" lon="10.4568780">
	<ele>2168.00</ele>
	<time>2023-08-07T13:55:42.000Z</time>
</trkpt>
<trkpt lat="46.1321050" lon="10.4568690">
	<ele>2168.00</ele>
	<time>2023-08-07T13:55:43.000Z</time>
</trkpt>
<trkpt lat="46.1321060" lon="10.4568620">
	<ele>2168.20</ele>
	<time>2023-08-07T13:55:44.000Z</time>
</trkpt>
<trkpt lat="46.1321060" lon="10.4568540">
	<ele>2168.20</ele>
	<time>2023-08-07T13:55:45.000Z</time>
</trkpt>
<trkpt lat="46.1321040" lon="10.4568490">
	<ele>2168.40</ele>
	<time>2023-08-07T13:55:46.000Z</time>
</trkpt>
<trkpt lat="46.1321000" lon="10.4568390">
	<ele>2168.40</ele>
	<time>2023-08-07T13:55:47.000Z</time>
</trkpt>
<trkpt lat="46.1320900" lon="10.4568360">
	<ele>2168.60</ele>
	<time>2023-08-07T13:55:48.000Z</time>
</trkpt>
<trkpt lat="46.1320850" lon="10.4568300">
	<ele>2168.60</ele>
	<time>2023-08-07T13:55:49.000Z</time>
</trkpt>
<trkpt lat="46.1320840" lon="10.4568250">
	<ele>2168.60</ele>
	<time>2023-08-07T13:55:50.000Z</time>
</trkpt>
<trkpt lat="46.1320810" lon="10.4568220">
	<ele>2168.60</ele>
	<time>2023-08-07T13:55:51.000Z</time>
</trkpt>
<trkpt lat="46.1320920" lon="10.4568120">
	<ele>2168.60</ele>
	<time>2023-08-07T13:55:52.000Z</time>
</trkpt>
<trkpt lat="46.1320970" lon="10.4568100">
	<ele>2168.60</ele>
	<time>2023-08-07T13:55:53.000Z</time>
</trkpt>
<trkpt lat="46.1320990" lon="10.4568100">
	<ele>2168.60</ele>
	<time>2023-08-07T13:55:54.000Z</time>
</trkpt>
<trkpt lat="46.1321030" lon="10.4568100">
	<ele>2168.60</ele>
	<time>2023-08-07T13:55:55.000Z</time>
</trkpt>
<trkpt lat="46.1321090" lon="10.4568100">
	<ele>2168.60</ele>
	<time>2023-08-07T13:55:56.000Z</time>
</trkpt>
<trkpt lat="46.1321100" lon="10.4568100">
	<ele>2168.60</ele>
	<time>2023-08-07T13:55:57.000Z</time>
</trkpt>
<trkpt lat="46.1321110" lon="10.4568130">
	<ele>2168.60</ele>
	<time>2023-08-07T13:55:58.000Z</time>
</trkpt>
<trkpt lat="46.1321120" lon="10.4568160">
	<ele>2168.80</ele>
	<time>2023-08-07T13:55:59.000Z</time>
</trkpt>
<trkpt lat="46.1321130" lon="10.4568160">
	<ele>2168.60</ele>
	<time>2023-08-07T13:56:00.000Z</time>
</trkpt>
<trkpt lat="46.1321160" lon="10.4568160">
	<ele>2168.60</ele>
	<time>2023-08-07T13:56:01.000Z</time>
</trkpt>
<trkpt lat="46.1321170" lon="10.4568160">
	<ele>2168.40</ele>
	<time>2023-08-07T13:56:02.000Z</time>
</trkpt>
<trkpt lat="46.1321170" lon="10.4568160">
	<ele>2168.40</ele>
	<time>2023-08-07T13:56:03.000Z</time>
</trkpt>
<trkpt lat="46.1321170" lon="10.4568160">
	<ele>2168.40</ele>
	<time>2023-08-07T13:56:04.000Z</time>
</trkpt>
<trkpt lat="46.1321170" lon="10.4568160">
	<ele>2168.40</ele>
	<time>2023-08-07T13:56:05.000Z</time>
</trkpt>
<trkpt lat="46.1321170" lon="10.4568160">
	<ele>2168.40</ele>
	<time>2023-08-07T13:56:06.000Z</time>
</trkpt>
<trkpt lat="46.1321170" lon="10.4568160">
	<ele>2168.40</ele>
	<time>2023-08-07T13:56:07.000Z</time>
</trkpt>
<trkpt lat="46.1321170" lon="10.4568160">
	<ele>2168.40</ele>
	<time>2023-08-07T13:56:08.000Z</time>
</trkpt>
<trkpt lat="46.1321170" lon="10.4568160">
	<ele>2168.20</ele>
	<time>2023-08-07T13:56:09.000Z</time>
</trkpt>
<trkpt lat="46.1321160" lon="10.4568160">
	<ele>2168.20</ele>
	<time>2023-08-07T13:56:10.000Z</time>
</trkpt>
<trkpt lat="46.1321160" lon="10.4568160">
	<ele>2168.20</ele>
	<time>2023-08-07T13:56:11.000Z</time>
</trkpt>
<trkpt lat="46.1321160" lon="10.4568160">
	<ele>2168.00</ele>
	<time>2023-08-07T13:56:12.000Z</time>
</trkpt>
<trkpt lat="46.1321160" lon="10.4568160">
	<ele>2168.00</ele>
	<time>2023-08-07T13:56:13.000Z</time>
</trkpt>
<trkpt lat="46.1321160" lon="10.4568160">
	<ele>2168.00</ele>
	<time>2023-08-07T13:56:14.000Z</time>
</trkpt>
<trkpt lat="46.1321160" lon="10.4568160">
	<ele>2168.00</ele>
	<time>2023-08-07T13:56:15.000Z</time>
</trkpt>
<trkpt lat="46.1321160" lon="10.4568160">
	<ele>2168.00</ele>
	<time>2023-08-07T13:56:16.000Z</time>
</trkpt>
<trkpt lat="46.1321160" lon="10.4568160">
	<ele>2168.00</ele>
	<time>2023-08-07T13:56:17.000Z</time>
</trkpt>
<trkpt lat="46.1321160" lon="10.4568190">
	<ele>2168.00</ele>
	<time>2023-08-07T13:56:18.000Z</time>
</trkpt>
<trkpt lat="46.1321160" lon="10.4568190">
	<ele>2168.00</ele>
	<time>2023-08-07T13:56:19.000Z</time>
</trkpt>
<trkpt lat="46.1321160" lon="10.4568190">
	<ele>2168.00</ele>
	<time>2023-08-07T13:56:20.000Z</time>
</trkpt>
<trkpt lat="46.1321160" lon="10.4568200">
	<ele>2167.80</ele>
	<time>2023-08-07T13:56:21.000Z</time>
</trkpt>
<trkpt lat="46.1321160" lon="10.4568200">
	<ele>2167.80</ele>
	<time>2023-08-07T13:56:22.000Z</time>
</trkpt>
<trkpt lat="46.1321160" lon="10.4568210">
	<ele>2167.80</ele>
	<time>2023-08-07T13:56:23.000Z</time>
</trkpt>
<trkpt lat="46.1321160" lon="10.4568210">
	<ele>2167.80</ele>
	<time>2023-08-07T13:56:24.000Z</time>
</trkpt>
<trkpt lat="46.1321160" lon="10.4568210">
	<ele>2167.80</ele>
	<time>2023-08-07T13:56:25.000Z</time>
</trkpt>
<trkpt lat="46.1321170" lon="10.4568210">
	<ele>2167.80</ele>
	<time>2023-08-07T13:56:26.000Z</time>
</trkpt>
<trkpt lat="46.1321170" lon="10.4568210">
	<ele>2167.80</ele>
	<time>2023-08-07T13:56:27.000Z</time>
</trkpt>
<trkpt lat="46.1321170" lon="10.4568210">
	<ele>2167.80</ele>
	<time>2023-08-07T13:56:28.000Z</time>
</trkpt>
<trkpt lat="46.1321170" lon="10.4568210">
	<ele>2167.80</ele>
	<time>2023-08-07T13:56:29.000Z</time>
</trkpt>
<trkpt lat="46.1321170" lon="10.4568210">
	<ele>2167.80</ele>
	<time>2023-08-07T13:56:30.000Z</time>
</trkpt>
<trkpt lat="46.1321170" lon="10.4568210">
	<ele>2167.80</ele>
	<time>2023-08-07T13:56:31.000Z</time>
</trkpt>
<trkpt lat="46.1321170" lon="10.4568210">
	<ele>2167.80</ele>
	<time>2023-08-07T13:56:32.000Z</time>
</trkpt>
<trkpt lat="46.1321170" lon="10.4568210">
	<ele>2167.80</ele>
	<time>2023-08-07T13:56:33.000Z</time>
</trkpt>
<trkpt lat="46.1321170" lon="10.4568210">
	<ele>2167.80</ele>
	<time>2023-08-07T13:56:34.000Z</time>
</trkpt>
<trkpt lat="46.1321170" lon="10.4568210">
	<ele>2168.00</ele>
	<time>2023-08-07T13:56:35.000Z</time>
</trkpt>
<trkpt lat="46.1321170" lon="10.4568200">
	<ele>2168.00</ele>
	<time>2023-08-07T13:56:36.000Z</time>
</trkpt>
<trkpt lat="46.1321170" lon="10.4568200">
	<ele>2168.00</ele>
	<time>2023-08-07T13:56:37.000Z</time>
</trkpt>
<trkpt lat="46.1321170" lon="10.4568200">
	<ele>2168.00</ele>
	<time>2023-08-07T13:56:38.000Z</time>
</trkpt>
<trkpt lat="46.1321170" lon="10.4568190">
	<ele>2168.00</ele>
	<time>2023-08-07T13:56:39.000Z</time>
</trkpt>
<trkpt lat="46.1321170" lon="10.4568190">
	<ele>2168.00</ele>
	<time>2023-08-07T13:56:40.000Z</time>
</trkpt>
<trkpt lat="46.1321170" lon="10.4568190">
	<ele>2168.00</ele>
	<time>2023-08-07T13:56:41.000Z</time>
</trkpt>
<trkpt lat="46.1321160" lon="10.4568190">
	<ele>2168.20</ele>
	<time>2023-08-07T13:56:42.000Z</time>
</trkpt>
<trkpt lat="46.1321160" lon="10.4568190">
	<ele>2168.20</ele>
	<time>2023-08-07T13:56:43.000Z</time>
</trkpt>
<trkpt lat="46.1321160" lon="10.4568190">
	<ele>2168.20</ele>
	<time>2023-08-07T13:56:44.000Z</time>
</trkpt>
<trkpt lat="46.1321160" lon="10.4568190">
	<ele>2168.20</ele>
	<time>2023-08-07T13:56:45.000Z</time>
</trkpt>
<trkpt lat="46.1321150" lon="10.4568190">
	<ele>2168.20</ele>
	<time>2023-08-07T13:56:46.000Z</time>
</trkpt>
<trkpt lat="46.1321150" lon="10.4568190">
	<ele>2168.20</ele>
	<time>2023-08-07T13:56:47.000Z</time>
</trkpt>
<trkpt lat="46.1321150" lon="10.4568190">
	<ele>2168.20</ele>
	<time>2023-08-07T13:56:48.000Z</time>
</trkpt>
<trkpt lat="46.1321150" lon="10.4568190">
	<ele>2168.20</ele>
	<time>2023-08-07T13:56:49.000Z</time>
</trkpt>
<trkpt lat="46.1321150" lon="10.4568190">
	<ele>2168.00</ele>
	<time>2023-08-07T13:56:50.000Z</time>
</trkpt>
<trkpt lat="46.1321140" lon="10.4568190">
	<ele>2168.00</ele>
	<time>2023-08-07T13:56:51.000Z</time>
</trkpt>
<trkpt lat="46.1321130" lon="10.4568190">
	<ele>2168.00</ele>
	<time>2023-08-07T13:56:52.000Z</time>
</trkpt>
<trkpt lat="46.1321130" lon="10.4568190">
	<ele>2168.00</ele>
	<time>2023-08-07T13:56:53.000Z</time>
</trkpt>
<trkpt lat="46.1321130" lon="10.4568190">
	<ele>2168.00</ele>
	<time>2023-08-07T13:56:54.000Z</time>
</trkpt>
<trkpt lat="46.1321120" lon="10.4568190">
	<ele>2168.00</ele>
	<time>2023-08-07T13:56:55.000Z</time>
</trkpt>
<trkpt lat="46.1321120" lon="10.4568190">
	<ele>2168.00</ele>
	<time>2023-08-07T13:56:56.000Z</time>
</trkpt>
<trkpt lat="46.1321120" lon="10.4568190">
	<ele>2168.00</ele>
	<time>2023-08-07T13:56:57.000Z</time>
</trkpt>
<trkpt lat="46.1321120" lon="10.4568190">
	<ele>2168.20</ele>
	<time>2023-08-07T13:56:58.000Z</time>
</trkpt>
<trkpt lat="46.1321110" lon="10.4568190">
	<ele>2168.20</ele>
	<time>2023-08-07T13:56:59.000Z</time>
</trkpt>
<trkpt lat="46.1321090" lon="10.4568190">
	<ele>2168.20</ele>
	<time>2023-08-07T13:57:00.000Z</time>
</trkpt>
<trkpt lat="46.1321070" lon="10.4568190">
	<ele>2168.20</ele>
	<time>2023-08-07T13:57:01.000Z</time>
</trkpt>
<trkpt lat="46.1321050" lon="10.4568190">
	<ele>2168.20</ele>
	<time>2023-08-07T13:57:02.000Z</time>
</trkpt>
<trkpt lat="46.1321030" lon="10.4568190">
	<ele>2168.20</ele>
	<time>2023-08-07T13:57:03.000Z</time>
</trkpt>
<trkpt lat="46.1320980" lon="10.4568190">
	<ele>2168.20</ele>
	<time>2023-08-07T13:57:04.000Z</time>
</trkpt>
<trkpt lat="46.1320960" lon="10.4568180">
	<ele>2168.20</ele>
	<time>2023-08-07T13:57:05.000Z</time>
</trkpt>
<trkpt lat="46.1320940" lon="10.4568180">
	<ele>2168.00</ele>
	<time>2023-08-07T13:57:06.000Z</time>
</trkpt>
<trkpt lat="46.1320910" lon="10.4568090">
	<ele>2168.00</ele>
	<time>2023-08-07T13:57:07.000Z</time>
</trkpt>
<trkpt lat="46.1320880" lon="10.4567830">
	<ele>2168.00</ele>
	<time>2023-08-07T13:57:08.000Z</time>
</trkpt>
<trkpt lat="46.1320880" lon="10.4567560">
	<ele>2168.00</ele>
	<time>2023-08-07T13:57:09.000Z</time>
</trkpt>
<trkpt lat="46.1320860" lon="10.4567340">
	<ele>2167.80</ele>
	<time>2023-08-07T13:57:10.000Z</time>
</trkpt>
<trkpt lat="46.1320850" lon="10.4567090">
	<ele>2167.80</ele>
	<time>2023-08-07T13:57:11.000Z</time>
</trkpt>
<trkpt lat="46.1320800" lon="10.4566830">
	<ele>2167.80</ele>
	<time>2023-08-07T13:57:12.000Z</time>
</trkpt>
<trkpt lat="46.1320720" lon="10.4566610">
	<ele>2167.80</ele>
	<time>2023-08-07T13:57:13.000Z</time>
</trkpt>
<trkpt lat="46.1320660" lon="10.4566420">
	<ele>2167.80</ele>
	<time>2023-08-07T13:57:14.000Z</time>
</trkpt>
<trkpt lat="46.1320580" lon="10.4566220">
	<ele>2167.80</ele>
	<time>2023-08-07T13:57:15.000Z</time>
</trkpt>
<trkpt lat="46.1320500" lon="10.4566010">
	<ele>2167.80</ele>
	<time>2023-08-07T13:57:16.000Z</time>
</trkpt>
<trkpt lat="46.1320460" lon="10.4565900">
	<ele>2167.60</ele>
	<time>2023-08-07T13:57:17.000Z</time>
</trkpt>
<trkpt lat="46.1320510" lon="10.4565850">
	<ele>2167.40</ele>
	<time>2023-08-07T13:57:18.000Z</time>
</trkpt>
<trkpt lat="46.1320560" lon="10.4565760">
	<ele>2167.20</ele>
	<time>2023-08-07T13:57:19.000Z</time>
</trkpt>
<trkpt lat="46.1320650" lon="10.4565570">
	<ele>2167.20</ele>
	<time>2023-08-07T13:57:20.000Z</time>
</trkpt>
<trkpt lat="46.1320700" lon="10.4565490">
	<ele>2167.20</ele>
	<time>2023-08-07T13:57:21.000Z</time>
</trkpt>
<trkpt lat="46.1320720" lon="10.4565420">
	<ele>2167.20</ele>
	<time>2023-08-07T13:57:22.000Z</time>
</trkpt>
<trkpt lat="46.1320720" lon="10.4565400">
	<ele>2167.20</ele>
	<time>2023-08-07T13:57:23.000Z</time>
</trkpt>
<trkpt lat="46.1320720" lon="10.4565400">
	<ele>2167.20</ele>
	<time>2023-08-07T13:57:24.000Z</time>
</trkpt>
<trkpt lat="46.1320720" lon="10.4565380">
	<ele>2167.40</ele>
	<time>2023-08-07T13:57:25.000Z</time>
</trkpt>
<trkpt lat="46.1320730" lon="10.4565380">
	<ele>2167.40</ele>
	<time>2023-08-07T13:57:26.000Z</time>
</trkpt>
<trkpt lat="46.1320650" lon="10.4565430">
	<ele>2167.40</ele>
	<time>2023-08-07T13:57:27.000Z</time>
</trkpt>
<trkpt lat="46.1320620" lon="10.4565350">
	<ele>2167.20</ele>
	<time>2023-08-07T13:57:28.000Z</time>
</trkpt>
<trkpt lat="46.1320620" lon="10.4565190">
	<ele>2167.00</ele>
	<time>2023-08-07T13:57:29.000Z</time>
</trkpt>
<trkpt lat="46.1320610" lon="10.4565090">
	<ele>2167.00</ele>
	<time>2023-08-07T13:57:30.000Z</time>
</trkpt>
<trkpt lat="46.1320640" lon="10.4565030">
	<ele>2166.80</ele>
	<time>2023-08-07T13:57:31.000Z</time>
</trkpt>
<trkpt lat="46.1320690" lon="10.4564930">
	<ele>2166.60</ele>
	<time>2023-08-07T13:57:32.000Z</time>
</trkpt>
<trkpt lat="46.1320750" lon="10.4564810">
	<ele>2166.60</ele>
	<time>2023-08-07T13:57:33.000Z</time>
</trkpt>
<trkpt lat="46.1320800" lon="10.4564670">
	<ele>2166.60</ele>
	<time>2023-08-07T13:57:34.000Z</time>
</trkpt>
<trkpt lat="46.1320860" lon="10.4564560">
	<ele>2166.60</ele>
	<time>2023-08-07T13:57:35.000Z</time>
</trkpt>
<trkpt lat="46.1320880" lon="10.4564480">
	<ele>2166.40</ele>
	<time>2023-08-07T13:57:36.000Z</time>
</trkpt>
<trkpt lat="46.1320900" lon="10.4564370">
	<ele>2166.60</ele>
	<time>2023-08-07T13:57:37.000Z</time>
</trkpt>
<trkpt lat="46.1320910" lon="10.4564220">
	<ele>2166.60</ele>
	<time>2023-08-07T13:57:38.000Z</time>
</trkpt>
<trkpt lat="46.1320940" lon="10.4564080">
	<ele>2166.40</ele>
	<time>2023-08-07T13:57:39.000Z</time>
</trkpt>
<trkpt lat="46.1320990" lon="10.4563960">
	<ele>2166.40</ele>
	<time>2023-08-07T13:57:40.000Z</time>
</trkpt>
<trkpt lat="46.1321010" lon="10.4563840">
	<ele>2166.40</ele>
	<time>2023-08-07T13:57:41.000Z</time>
</trkpt>
<trkpt lat="46.1321000" lon="10.4563740">
	<ele>2166.20</ele>
	<time>2023-08-07T13:57:42.000Z</time>
</trkpt>
<trkpt lat="46.1321050" lon="10.4563630">
	<ele>2166.20</ele>
	<time>2023-08-07T13:57:43.000Z</time>
</trkpt>
<trkpt lat="46.1321100" lon="10.4563460">
	<ele>2166.20</ele>
	<time>2023-08-07T13:57:44.000Z</time>
</trkpt>
<trkpt lat="46.1321110" lon="10.4563290">
	<ele>2166.00</ele>
	<time>2023-08-07T13:57:45.000Z</time>
</trkpt>
<trkpt lat="46.1321130" lon="10.4563150">
	<ele>2166.00</ele>
	<time>2023-08-07T13:57:46.000Z</time>
</trkpt>
<trkpt lat="46.1321180" lon="10.4562970">
	<ele>2166.00</ele>
	<time>2023-08-07T13:57:47.000Z</time>
</trkpt>
<trkpt lat="46.1321200" lon="10.4562800">
	<ele>2166.00</ele>
	<time>2023-08-07T13:57:48.000Z</time>
</trkpt>
<trkpt lat="46.1321270" lon="10.4562600">
	<ele>2165.80</ele>
	<time>2023-08-07T13:57:49.000Z</time>
</trkpt>
<trkpt lat="46.1321310" lon="10.4562460">
	<ele>2165.80</ele>
	<time>2023-08-07T13:57:50.000Z</time>
</trkpt>
<trkpt lat="46.1321330" lon="10.4562380">
	<ele>2165.80</ele>
	<time>2023-08-07T13:57:51.000Z</time>
</trkpt>
<trkpt lat="46.1321370" lon="10.4562320">
	<ele>2165.80</ele>
	<time>2023-08-07T13:57:52.000Z</time>
</trkpt>
<trkpt lat="46.1321390" lon="10.4562240">
	<ele>2165.80</ele>
	<time>2023-08-07T13:57:53.000Z</time>
</trkpt>
<trkpt lat="46.1321400" lon="10.4562170">
	<ele>2165.60</ele>
	<time>2023-08-07T13:57:54.000Z</time>
</trkpt>
<trkpt lat="46.1321380" lon="10.4562080">
	<ele>2165.40</ele>
	<time>2023-08-07T13:57:55.000Z</time>
</trkpt>
<trkpt lat="46.1321410" lon="10.4561940">
	<ele>2165.40</ele>
	<time>2023-08-07T13:57:56.000Z</time>
</trkpt>
<trkpt lat="46.1321460" lon="10.4561780">
	<ele>2165.20</ele>
	<time>2023-08-07T13:57:57.000Z</time>
</trkpt>
<trkpt lat="46.1321490" lon="10.4561650">
	<ele>2165.20</ele>
	<time>2023-08-07T13:57:58.000Z</time>
</trkpt>
<trkpt lat="46.1321520" lon="10.4561550">
	<ele>2165.00</ele>
	<time>2023-08-07T13:57:59.000Z</time>
</trkpt>
<trkpt lat="46.1321530" lon="10.4561450">
	<ele>2165.00</ele>
	<time>2023-08-07T13:58:00.000Z</time>
</trkpt>
<trkpt lat="46.1321580" lon="10.4561370">
	<ele>2165.00</ele>
	<time>2023-08-07T13:58:01.000Z</time>
</trkpt>
<trkpt lat="46.1321630" lon="10.4561280">
	<ele>2164.80</ele>
	<time>2023-08-07T13:58:02.000Z</time>
</trkpt>
<trkpt lat="46.1321690" lon="10.4561140">
	<ele>2164.80</ele>
	<time>2023-08-07T13:58:03.000Z</time>
</trkpt>
<trkpt lat="46.1321710" lon="10.4560990">
	<ele>2164.60</ele>
	<time>2023-08-07T13:58:04.000Z</time>
</trkpt>
<trkpt lat="46.1321730" lon="10.4560890">
	<ele>2164.60</ele>
	<time>2023-08-07T13:58:05.000Z</time>
</trkpt>
<trkpt lat="46.1321750" lon="10.4560790">
	<ele>2164.60</ele>
	<time>2023-08-07T13:58:06.000Z</time>
</trkpt>
<trkpt lat="46.1321730" lon="10.4560720">
	<ele>2164.40</ele>
	<time>2023-08-07T13:58:07.000Z</time>
</trkpt>
<trkpt lat="46.1321750" lon="10.4560640">
	<ele>2164.40</ele>
	<time>2023-08-07T13:58:08.000Z</time>
</trkpt>
<trkpt lat="46.1321780" lon="10.4560520">
	<ele>2164.20</ele>
	<time>2023-08-07T13:58:09.000Z</time>
</trkpt>
<trkpt lat="46.1321840" lon="10.4560400">
	<ele>2164.20</ele>
	<time>2023-08-07T13:58:10.000Z</time>
</trkpt>
<trkpt lat="46.1321900" lon="10.4560250">
	<ele>2164.20</ele>
	<time>2023-08-07T13:58:11.000Z</time>
</trkpt>
<trkpt lat="46.1321950" lon="10.4560100">
	<ele>2164.00</ele>
	<time>2023-08-07T13:58:12.000Z</time>
</trkpt>
<trkpt lat="46.1322030" lon="10.4559990">
	<ele>2164.00</ele>
	<time>2023-08-07T13:58:13.000Z</time>
</trkpt>
<trkpt lat="46.1322100" lon="10.4559830">
	<ele>2164.00</ele>
	<time>2023-08-07T13:58:14.000Z</time>
</trkpt>
<trkpt lat="46.1322160" lon="10.4559710">
	<ele>2164.00</ele>
	<time>2023-08-07T13:58:15.000Z</time>
</trkpt>
<trkpt lat="46.1322220" lon="10.4559580">
	<ele>2164.20</ele>
	<time>2023-08-07T13:58:16.000Z</time>
</trkpt>
<trkpt lat="46.1322290" lon="10.4559410">
	<ele>2164.00</ele>
	<time>2023-08-07T13:58:17.000Z</time>
</trkpt>
<trkpt lat="46.1322370" lon="10.4559240">
	<ele>2163.80</ele>
	<time>2023-08-07T13:58:18.000Z</time>
</trkpt>
<trkpt lat="46.1322440" lon="10.4559130">
	<ele>2163.80</ele>
	<time>2023-08-07T13:58:19.000Z</time>
</trkpt>
<trkpt lat="46.1322490" lon="10.4559120">
	<ele>2163.60</ele>
	<time>2023-08-07T13:58:20.000Z</time>
</trkpt>
<trkpt lat="46.1322550" lon="10.4559110">
	<ele>2163.60</ele>
	<time>2023-08-07T13:58:21.000Z</time>
</trkpt>
<trkpt lat="46.1322640" lon="10.4559110">
	<ele>2163.60</ele>
	<time>2023-08-07T13:58:22.000Z</time>
</trkpt>
<trkpt lat="46.1322760" lon="10.4559060">
	<ele>2163.40</ele>
	<time>2023-08-07T13:58:23.000Z</time>
</trkpt>
<trkpt lat="46.1322820" lon="10.4559020">
	<ele>2163.40</ele>
	<time>2023-08-07T13:58:24.000Z</time>
</trkpt>
<trkpt lat="46.1322850" lon="10.4559010">
	<ele>2163.20</ele>
	<time>2023-08-07T13:58:25.000Z</time>
</trkpt>
<trkpt lat="46.1322880" lon="10.4558970">
	<ele>2163.20</ele>
	<time>2023-08-07T13:58:26.000Z</time>
</trkpt>
<trkpt lat="46.1322840" lon="10.4558800">
	<ele>2162.80</ele>
	<time>2023-08-07T13:58:27.000Z</time>
</trkpt>
<trkpt lat="46.1322820" lon="10.4558670">
	<ele>2162.60</ele>
	<time>2023-08-07T13:58:28.000Z</time>
</trkpt>
<trkpt lat="46.1322870" lon="10.4558560">
	<ele>2162.40</ele>
	<time>2023-08-07T13:58:29.000Z</time>
</trkpt>
<trkpt lat="46.1322950" lon="10.4558450">
	<ele>2162.40</ele>
	<time>2023-08-07T13:58:30.000Z</time>
</trkpt>
<trkpt lat="46.1323040" lon="10.4558290">
	<ele>2162.20</ele>
	<time>2023-08-07T13:58:31.000Z</time>
</trkpt>
<trkpt lat="46.1323070" lon="10.4558190">
	<ele>2162.00</ele>
	<time>2023-08-07T13:58:32.000Z</time>
</trkpt>
<trkpt lat="46.1323100" lon="10.4558080">
	<ele>2161.80</ele>
	<time>2023-08-07T13:58:33.000Z</time>
</trkpt>
<trkpt lat="46.1323090" lon="10.4557980">
	<ele>2161.60</ele>
	<time>2023-08-07T13:58:34.000Z</time>
</trkpt>
<trkpt lat="46.1323080" lon="10.4557890">
	<ele>2161.40</ele>
	<time>2023-08-07T13:58:35.000Z</time>
</trkpt>
<trkpt lat="46.1322990" lon="10.4557820">
	<ele>2161.20</ele>
	<time>2023-08-07T13:58:36.000Z</time>
</trkpt>
<trkpt lat="46.1322910" lon="10.4557730">
	<ele>2161.20</ele>
	<time>2023-08-07T13:58:37.000Z</time>
</trkpt>
<trkpt lat="46.1322820" lon="10.4557710">
	<ele>2161.20</ele>
	<time>2023-08-07T13:58:38.000Z</time>
</trkpt>
<trkpt lat="46.1322750" lon="10.4557650">
	<ele>2161.20</ele>
	<time>2023-08-07T13:58:39.000Z</time>
</trkpt>
<trkpt lat="46.1322710" lon="10.4557550">
	<ele>2161.00</ele>
	<time>2023-08-07T13:58:40.000Z</time>
</trkpt>
<trkpt lat="46.1322670" lon="10.4557420">
	<ele>2161.00</ele>
	<time>2023-08-07T13:58:41.000Z</time>
</trkpt>
<trkpt lat="46.1322630" lon="10.4557290">
	<ele>2161.00</ele>
	<time>2023-08-07T13:58:42.000Z</time>
</trkpt>
<trkpt lat="46.1322630" lon="10.4557170">
	<ele>2160.80</ele>
	<time>2023-08-07T13:58:43.000Z</time>
</trkpt>
<trkpt lat="46.1322620" lon="10.4557050">
	<ele>2160.80</ele>
	<time>2023-08-07T13:58:44.000Z</time>
</trkpt>
<trkpt lat="46.1322600" lon="10.4556930">
	<ele>2160.80</ele>
	<time>2023-08-07T13:58:45.000Z</time>
</trkpt>
<trkpt lat="46.1322610" lon="10.4556760">
	<ele>2160.80</ele>
	<time>2023-08-07T13:58:46.000Z</time>
</trkpt>
<trkpt lat="46.1322650" lon="10.4556640">
	<ele>2160.80</ele>
	<time>2023-08-07T13:58:47.000Z</time>
</trkpt>
<trkpt lat="46.1322680" lon="10.4556510">
	<ele>2160.80</ele>
	<time>2023-08-07T13:58:48.000Z</time>
</trkpt>
<trkpt lat="46.1322680" lon="10.4556340">
	<ele>2160.80</ele>
	<time>2023-08-07T13:58:49.000Z</time>
</trkpt>
<trkpt lat="46.1322650" lon="10.4556220">
	<ele>2161.00</ele>
	<time>2023-08-07T13:58:50.000Z</time>
</trkpt>
<trkpt lat="46.1322650" lon="10.4556080">
	<ele>2161.00</ele>
	<time>2023-08-07T13:58:51.000Z</time>
</trkpt>
<trkpt lat="46.1322670" lon="10.4555940">
	<ele>2161.00</ele>
	<time>2023-08-07T13:58:52.000Z</time>
</trkpt>
<trkpt lat="46.1322690" lon="10.4555790">
	<ele>2161.00</ele>
	<time>2023-08-07T13:58:53.000Z</time>
</trkpt>
<trkpt lat="46.1322670" lon="10.4555680">
	<ele>2161.00</ele>
	<time>2023-08-07T13:58:54.000Z</time>
</trkpt>
<trkpt lat="46.1322660" lon="10.4555540">
	<ele>2161.00</ele>
	<time>2023-08-07T13:58:55.000Z</time>
</trkpt>
<trkpt lat="46.1322670" lon="10.4555380">
	<ele>2161.00</ele>
	<time>2023-08-07T13:58:56.000Z</time>
</trkpt>
<trkpt lat="46.1322670" lon="10.4555230">
	<ele>2161.00</ele>
	<time>2023-08-07T13:58:57.000Z</time>
</trkpt>
<trkpt lat="46.1322630" lon="10.4555110">
	<ele>2160.80</ele>
	<time>2023-08-07T13:58:58.000Z</time>
</trkpt>
<trkpt lat="46.1322600" lon="10.4554970">
	<ele>2160.80</ele>
	<time>2023-08-07T13:58:59.000Z</time>
</trkpt>
<trkpt lat="46.1322560" lon="10.4554840">
	<ele>2160.60</ele>
	<time>2023-08-07T13:59:00.000Z</time>
</trkpt>
<trkpt lat="46.1322520" lon="10.4554750">
	<ele>2160.60</ele>
	<time>2023-08-07T13:59:01.000Z</time>
</trkpt>
<trkpt lat="46.1322460" lon="10.4554660">
	<ele>2160.60</ele>
	<time>2023-08-07T13:59:02.000Z</time>
</trkpt>
<trkpt lat="46.1322440" lon="10.4554590">
	<ele>2160.60</ele>
	<time>2023-08-07T13:59:03.000Z</time>
</trkpt>
<trkpt lat="46.1322360" lon="10.4554440">
	<ele>2160.80</ele>
	<time>2023-08-07T13:59:04.000Z</time>
</trkpt>
<trkpt lat="46.1322300" lon="10.4554240">
	<ele>2160.80</ele>
	<time>2023-08-07T13:59:05.000Z</time>
</trkpt>
<trkpt lat="46.1322270" lon="10.4554090">
	<ele>2161.00</ele>
	<time>2023-08-07T13:59:06.000Z</time>
</trkpt>
<trkpt lat="46.1322280" lon="10.4553960">
	<ele>2161.20</ele>
	<time>2023-08-07T13:59:07.000Z</time>
</trkpt>
<trkpt lat="46.1322290" lon="10.4553810">
	<ele>2161.40</ele>
	<time>2023-08-07T13:59:08.000Z</time>
</trkpt>
<trkpt lat="46.1322250" lon="10.4553640">
	<ele>2161.40</ele>
	<time>2023-08-07T13:59:09.000Z</time>
</trkpt>
<trkpt lat="46.1322270" lon="10.4553500">
	<ele>2161.60</ele>
	<time>2023-08-07T13:59:10.000Z</time>
</trkpt>
<trkpt lat="46.1322290" lon="10.4553330">
	<ele>2161.80</ele>
	<time>2023-08-07T13:59:11.000Z</time>
</trkpt>
<trkpt lat="46.1322280" lon="10.4553130">
	<ele>2161.80</ele>
	<time>2023-08-07T13:59:12.000Z</time>
</trkpt>
<trkpt lat="46.1322340" lon="10.4552990">
	<ele>2162.00</ele>
	<time>2023-08-07T13:59:13.000Z</time>
</trkpt>
<trkpt lat="46.1322350" lon="10.4552910">
	<ele>2162.00</ele>
	<time>2023-08-07T13:59:14.000Z</time>
</trkpt>
<trkpt lat="46.1322380" lon="10.4552860">
	<ele>2162.20</ele>
	<time>2023-08-07T13:59:15.000Z</time>
</trkpt>
<trkpt lat="46.1322380" lon="10.4552720">
	<ele>2162.20</ele>
	<time>2023-08-07T13:59:16.000Z</time>
</trkpt>
<trkpt lat="46.1322370" lon="10.4552590">
	<ele>2162.20</ele>
	<time>2023-08-07T13:59:17.000Z</time>
</trkpt>
<trkpt lat="46.1322350" lon="10.4552500">
	<ele>2162.20</ele>
	<time>2023-08-07T13:59:18.000Z</time>
</trkpt>
<trkpt lat="46.1322420" lon="10.4552430">
	<ele>2162.40</ele>
	<time>2023-08-07T13:59:19.000Z</time>
</trkpt>
<trkpt lat="46.1322520" lon="10.4552330">
	<ele>2162.20</ele>
	<time>2023-08-07T13:59:20.000Z</time>
</trkpt>
<trkpt lat="46.1322610" lon="10.4552280">
	<ele>2162.20</ele>
	<time>2023-08-07T13:59:21.000Z</time>
</trkpt>
<trkpt lat="46.1322660" lon="10.4552140">
	<ele>2162.20</ele>
	<time>2023-08-07T13:59:22.000Z</time>
</trkpt>
<trkpt lat="46.1322730" lon="10.4552020">
	<ele>2162.00</ele>
	<time>2023-08-07T13:59:23.000Z</time>
</trkpt>
<trkpt lat="46.1322760" lon="10.4551900">
	<ele>2162.00</ele>
	<time>2023-08-07T13:59:24.000Z</time>
</trkpt>
<trkpt lat="46.1322770" lon="10.4551840">
	<ele>2162.00</ele>
	<time>2023-08-07T13:59:25.000Z</time>
</trkpt>
<trkpt lat="46.1322830" lon="10.4551720">
	<ele>2162.00</ele>
	<time>2023-08-07T13:59:26.000Z</time>
</trkpt>
<trkpt lat="46.1322890" lon="10.4551600">
	<ele>2161.80</ele>
	<time>2023-08-07T13:59:27.000Z</time>
</trkpt>
<trkpt lat="46.1322880" lon="10.4551490">
	<ele>2161.60</ele>
	<time>2023-08-07T13:59:28.000Z</time>
</trkpt>
<trkpt lat="46.1322910" lon="10.4551390">
	<ele>2161.40</ele>
	<time>2023-08-07T13:59:29.000Z</time>
</trkpt>
<trkpt lat="46.1322910" lon="10.4551300">
	<ele>2161.40</ele>
	<time>2023-08-07T13:59:30.000Z</time>
</trkpt>
<trkpt lat="46.1322950" lon="10.4551210">
	<ele>2161.20</ele>
	<time>2023-08-07T13:59:31.000Z</time>
</trkpt>
<trkpt lat="46.1322970" lon="10.4551130">
	<ele>2161.20</ele>
	<time>2023-08-07T13:59:32.000Z</time>
</trkpt>
<trkpt lat="46.1323010" lon="10.4551070">
	<ele>2161.20</ele>
	<time>2023-08-07T13:59:33.000Z</time>
</trkpt>
<trkpt lat="46.1323080" lon="10.4550930">
	<ele>2161.20</ele>
	<time>2023-08-07T13:59:34.000Z</time>
</trkpt>
<trkpt lat="46.1323120" lon="10.4550820">
	<ele>2161.00</ele>
	<time>2023-08-07T13:59:35.000Z</time>
</trkpt>
<trkpt lat="46.1323160" lon="10.4550720">
	<ele>2161.00</ele>
	<time>2023-08-07T13:59:36.000Z</time>
</trkpt>
<trkpt lat="46.1323200" lon="10.4550650">
	<ele>2160.80</ele>
	<time>2023-08-07T13:59:37.000Z</time>
</trkpt>
<trkpt lat="46.1323240" lon="10.4550520">
	<ele>2160.60</ele>
	<time>2023-08-07T13:59:38.000Z</time>
</trkpt>
<trkpt lat="46.1323290" lon="10.4550420">
	<ele>2160.60</ele>
	<time>2023-08-07T13:59:39.000Z</time>
</trkpt>
<trkpt lat="46.1323350" lon="10.4550280">
	<ele>2160.20</ele>
	<time>2023-08-07T13:59:40.000Z</time>
</trkpt>
<trkpt lat="46.1323390" lon="10.4550180">
	<ele>2160.00</ele>
	<time>2023-08-07T13:59:41.000Z</time>
</trkpt>
<trkpt lat="46.1323440" lon="10.4550130">
	<ele>2159.80</ele>
	<time>2023-08-07T13:59:42.000Z</time>
</trkpt>
<trkpt lat="46.1323500" lon="10.4550070">
	<ele>2159.60</ele>
	<time>2023-08-07T13:59:43.000Z</time>
</trkpt>
<trkpt lat="46.1323660" lon="10.4549960">
	<ele>2159.60</ele>
	<time>2023-08-07T13:59:44.000Z</time>
</trkpt>
<trkpt lat="46.1323790" lon="10.4549890">
	<ele>2159.40</ele>
	<time>2023-08-07T13:59:45.000Z</time>
</trkpt>
<trkpt lat="46.1323790" lon="10.4549770">
	<ele>2159.20</ele>
	<time>2023-08-07T13:59:46.000Z</time>
</trkpt>
<trkpt lat="46.1323800" lon="10.4549730">
	<ele>2159.20</ele>
	<time>2023-08-07T13:59:47.000Z</time>
</trkpt>
<trkpt lat="46.1323770" lon="10.4549700">
	<ele>2159.00</ele>
	<time>2023-08-07T13:59:48.000Z</time>
</trkpt>
<trkpt lat="46.1323770" lon="10.4549680">
	<ele>2158.80</ele>
	<time>2023-08-07T13:59:49.000Z</time>
</trkpt>
<trkpt lat="46.1323830" lon="10.4549620">
	<ele>2158.80</ele>
	<time>2023-08-07T13:59:50.000Z</time>
</trkpt>
<trkpt lat="46.1323880" lon="10.4549510">
	<ele>2158.60</ele>
	<time>2023-08-07T13:59:51.000Z</time>
</trkpt>
<trkpt lat="46.1323900" lon="10.4549400">
	<ele>2158.60</ele>
	<time>2023-08-07T13:59:52.000Z</time>
</trkpt>
<trkpt lat="46.1323900" lon="10.4549270">
	<ele>2158.40</ele>
	<time>2023-08-07T13:59:53.000Z</time>
</trkpt>
<trkpt lat="46.1323900" lon="10.4549130">
	<ele>2158.20</ele>
	<time>2023-08-07T13:59:54.000Z</time>
</trkpt>
<trkpt lat="46.1323850" lon="10.4549030">
	<ele>2158.20</ele>
	<time>2023-08-07T13:59:55.000Z</time>
</trkpt>
<trkpt lat="46.1323850" lon="10.4548920">
	<ele>2158.00</ele>
	<time>2023-08-07T13:59:56.000Z</time>
</trkpt>
<trkpt lat="46.1323830" lon="10.4548750">
	<ele>2158.00</ele>
	<time>2023-08-07T13:59:57.000Z</time>
</trkpt>
<trkpt lat="46.1323870" lon="10.4548630">
	<ele>2158.00</ele>
	<time>2023-08-07T13:59:58.000Z</time>
</trkpt>
<trkpt lat="46.1323890" lon="10.4548490">
	<ele>2157.80</ele>
	<time>2023-08-07T13:59:59.000Z</time>
</trkpt>
<trkpt lat="46.1323890" lon="10.4548350">
	<ele>2158.00</ele>
	<time>2023-08-07T14:00:00.000Z</time>
</trkpt>
<trkpt lat="46.1323910" lon="10.4548230">
	<ele>2158.00</ele>
	<time>2023-08-07T14:00:01.000Z</time>
</trkpt>
<trkpt lat="46.1324000" lon="10.4548130">
	<ele>2158.00</ele>
	<time>2023-08-07T14:00:02.000Z</time>
</trkpt>
<trkpt lat="46.1324040" lon="10.4547980">
	<ele>2158.00</ele>
	<time>2023-08-07T14:00:03.000Z</time>
</trkpt>
<trkpt lat="46.1324030" lon="10.4547780">
	<ele>2158.00</ele>
	<time>2023-08-07T14:00:04.000Z</time>
</trkpt>
<trkpt lat="46.1324060" lon="10.4547610">
	<ele>2158.00</ele>
	<time>2023-08-07T14:00:05.000Z</time>
</trkpt>
<trkpt lat="46.1324080" lon="10.4547480">
	<ele>2158.00</ele>
	<time>2023-08-07T14:00:06.000Z</time>
</trkpt>
<trkpt lat="46.1324030" lon="10.4547340">
	<ele>2158.00</ele>
	<time>2023-08-07T14:00:07.000Z</time>
</trkpt>
<trkpt lat="46.1323980" lon="10.4547170">
	<ele>2158.00</ele>
	<time>2023-08-07T14:00:08.000Z</time>
</trkpt>
<trkpt lat="46.1323900" lon="10.4547020">
	<ele>2158.20</ele>
	<time>2023-08-07T14:00:09.000Z</time>
</trkpt>
<trkpt lat="46.1323830" lon="10.4546830">
	<ele>2158.20</ele>
	<time>2023-08-07T14:00:10.000Z</time>
</trkpt>
<trkpt lat="46.1323760" lon="10.4546770">
	<ele>2158.20</ele>
	<time>2023-08-07T14:00:11.000Z</time>
</trkpt>
<trkpt lat="46.1323690" lon="10.4546640">
	<ele>2158.40</ele>
	<time>2023-08-07T14:00:12.000Z</time>
</trkpt>
<trkpt lat="46.1323690" lon="10.4546480">
	<ele>2158.60</ele>
	<time>2023-08-07T14:00:13.000Z</time>
</trkpt>
<trkpt lat="46.1323560" lon="10.4546470">
	<ele>2158.60</ele>
	<time>2023-08-07T14:00:14.000Z</time>
</trkpt>
<trkpt lat="46.1323530" lon="10.4546300">
	<ele>2158.60</ele>
	<time>2023-08-07T14:00:15.000Z</time>
</trkpt>
<trkpt lat="46.1323570" lon="10.4546100">
	<ele>2158.60</ele>
	<time>2023-08-07T14:00:16.000Z</time>
</trkpt>
<trkpt lat="46.1323600" lon="10.4545940">
	<ele>2158.80</ele>
	<time>2023-08-07T14:00:17.000Z</time>
</trkpt>
<trkpt lat="46.1323560" lon="10.4545840">
	<ele>2158.80</ele>
	<time>2023-08-07T14:00:18.000Z</time>
</trkpt>
<trkpt lat="46.1323510" lon="10.4545770">
	<ele>2158.60</ele>
	<time>2023-08-07T14:00:19.000Z</time>
</trkpt>
<trkpt lat="46.1323510" lon="10.4545670">
	<ele>2158.60</ele>
	<time>2023-08-07T14:00:20.000Z</time>
</trkpt>
<trkpt lat="46.1323540" lon="10.4545550">
	<ele>2158.80</ele>
	<time>2023-08-07T14:00:21.000Z</time>
</trkpt>
<trkpt lat="46.1323540" lon="10.4545430">
	<ele>2158.80</ele>
	<time>2023-08-07T14:00:22.000Z</time>
</trkpt>
<trkpt lat="46.1323570" lon="10.4545260">
	<ele>2158.80</ele>
	<time>2023-08-07T14:00:23.000Z</time>
</trkpt>
<trkpt lat="46.1323570" lon="10.4545090">
	<ele>2158.60</ele>
	<time>2023-08-07T14:00:24.000Z</time>
</trkpt>
<trkpt lat="46.1323550" lon="10.4544970">
	<ele>2158.60</ele>
	<time>2023-08-07T14:00:25.000Z</time>
</trkpt>
<trkpt lat="46.1323450" lon="10.4544920">
	<ele>2158.60</ele>
	<time>2023-08-07T14:00:26.000Z</time>
</trkpt>
<trkpt lat="46.1323320" lon="10.4544870">
	<ele>2158.40</ele>
	<time>2023-08-07T14:00:27.000Z</time>
</trkpt>
<trkpt lat="46.1323200" lon="10.4544810">
	<ele>2158.40</ele>
	<time>2023-08-07T14:00:28.000Z</time>
</trkpt>
<trkpt lat="46.1323080" lon="10.4544700">
	<ele>2158.40</ele>
	<time>2023-08-07T14:00:29.000Z</time>
</trkpt>
<trkpt lat="46.1322960" lon="10.4544650">
	<ele>2158.40</ele>
	<time>2023-08-07T14:00:30.000Z</time>
</trkpt>
<trkpt lat="46.1322890" lon="10.4544550">
	<ele>2158.20</ele>
	<time>2023-08-07T14:00:31.000Z</time>
</trkpt>
<trkpt lat="46.1322860" lon="10.4544510">
	<ele>2158.20</ele>
	<time>2023-08-07T14:00:32.000Z</time>
</trkpt>
<trkpt lat="46.1322820" lon="10.4544250">
	<ele>2158.20</ele>
	<time>2023-08-07T14:00:33.000Z</time>
</trkpt>
<trkpt lat="46.1322800" lon="10.4543990">
	<ele>2158.00</ele>
	<time>2023-08-07T14:00:34.000Z</time>
</trkpt>
<trkpt lat="46.1322780" lon="10.4543820">
	<ele>2158.00</ele>
	<time>2023-08-07T14:00:35.000Z</time>
</trkpt>
<trkpt lat="46.1322720" lon="10.4543760">
	<ele>2158.00</ele>
	<time>2023-08-07T14:00:36.000Z</time>
</trkpt>
<trkpt lat="46.1322680" lon="10.4543680">
	<ele>2157.80</ele>
	<time>2023-08-07T14:00:37.000Z</time>
</trkpt>
<trkpt lat="46.1322670" lon="10.4543550">
	<ele>2157.80</ele>
	<time>2023-08-07T14:00:38.000Z</time>
</trkpt>
<trkpt lat="46.1322740" lon="10.4543400">
	<ele>2157.60</ele>
	<time>2023-08-07T14:00:39.000Z</time>
</trkpt>
<trkpt lat="46.1322780" lon="10.4543350">
	<ele>2157.60</ele>
	<time>2023-08-07T14:00:40.000Z</time>
</trkpt>
<trkpt lat="46.1322800" lon="10.4543240">
	<ele>2157.60</ele>
	<time>2023-08-07T14:00:41.000Z</time>
</trkpt>
<trkpt lat="46.1322860" lon="10.4543110">
	<ele>2157.40</ele>
	<time>2023-08-07T14:00:42.000Z</time>
</trkpt>
<trkpt lat="46.1322910" lon="10.4542980">
	<ele>2157.40</ele>
	<time>2023-08-07T14:00:43.000Z</time>
</trkpt>
<trkpt lat="46.1322940" lon="10.4542910">
	<ele>2157.20</ele>
	<time>2023-08-07T14:00:44.000Z</time>
</trkpt>
<trkpt lat="46.1322980" lon="10.4542850">
	<ele>2157.20</ele>
	<time>2023-08-07T14:00:45.000Z</time>
</trkpt>
<trkpt lat="46.1323030" lon="10.4542670">
	<ele>2157.20</ele>
	<time>2023-08-07T14:00:46.000Z</time>
</trkpt>
<trkpt lat="46.1323070" lon="10.4542540">
	<ele>2157.20</ele>
	<time>2023-08-07T14:00:47.000Z</time>
</trkpt>
<trkpt lat="46.1323110" lon="10.4542430">
	<ele>2157.20</ele>
	<time>2023-08-07T14:00:48.000Z</time>
</trkpt>
<trkpt lat="46.1323140" lon="10.4542320">
	<ele>2157.00</ele>
	<time>2023-08-07T14:00:49.000Z</time>
</trkpt>
<trkpt lat="46.1323150" lon="10.4542190">
	<ele>2157.00</ele>
	<time>2023-08-07T14:00:50.000Z</time>
</trkpt>
<trkpt lat="46.1323200" lon="10.4542010">
	<ele>2157.00</ele>
	<time>2023-08-07T14:00:51.000Z</time>
</trkpt>
<trkpt lat="46.1323260" lon="10.4541840">
	<ele>2157.00</ele>
	<time>2023-08-07T14:00:52.000Z</time>
</trkpt>
<trkpt lat="46.1323320" lon="10.4541750">
	<ele>2157.00</ele>
	<time>2023-08-07T14:00:53.000Z</time>
</trkpt>
<trkpt lat="46.1323360" lon="10.4541600">
	<ele>2157.00</ele>
	<time>2023-08-07T14:00:54.000Z</time>
</trkpt>
<trkpt lat="46.1323440" lon="10.4541440">
	<ele>2157.00</ele>
	<time>2023-08-07T14:00:55.000Z</time>
</trkpt>
<trkpt lat="46.1323510" lon="10.4541260">
	<ele>2157.00</ele>
	<time>2023-08-07T14:00:56.000Z</time>
</trkpt>
<trkpt lat="46.1323540" lon="10.4541110">
	<ele>2157.20</ele>
	<time>2023-08-07T14:00:57.000Z</time>
</trkpt>
<trkpt lat="46.1323540" lon="10.4541010">
	<ele>2157.20</ele>
	<time>2023-08-07T14:00:58.000Z</time>
</trkpt>
<trkpt lat="46.1323570" lon="10.4540890">
	<ele>2157.20</ele>
	<time>2023-08-07T14:00:59.000Z</time>
</trkpt>
<trkpt lat="46.1323580" lon="10.4540770">
	<ele>2157.20</ele>
	<time>2023-08-07T14:01:00.000Z</time>
</trkpt>
<trkpt lat="46.1323590" lon="10.4540630">
	<ele>2157.20</ele>
	<time>2023-08-07T14:01:01.000Z</time>
</trkpt>
<trkpt lat="46.1323600" lon="10.4540460">
	<ele>2157.20</ele>
	<time>2023-08-07T14:01:02.000Z</time>
</trkpt>
<trkpt lat="46.1323620" lon="10.4540320">
	<ele>2157.20</ele>
	<time>2023-08-07T14:01:03.000Z</time>
</trkpt>
<trkpt lat="46.1323630" lon="10.4540210">
	<ele>2157.20</ele>
	<time>2023-08-07T14:01:04.000Z</time>
</trkpt>
<trkpt lat="46.1323630" lon="10.4540090">
	<ele>2157.20</ele>
	<time>2023-08-07T14:01:05.000Z</time>
</trkpt>
<trkpt lat="46.1323620" lon="10.4539980">
	<ele>2157.20</ele>
	<time>2023-08-07T14:01:06.000Z</time>
</trkpt>
<trkpt lat="46.1323600" lon="10.4539860">
	<ele>2157.20</ele>
	<time>2023-08-07T14:01:07.000Z</time>
</trkpt>
<trkpt lat="46.1323630" lon="10.4539690">
	<ele>2157.20</ele>
	<time>2023-08-07T14:01:08.000Z</time>
</trkpt>
<trkpt lat="46.1323660" lon="10.4539490">
	<ele>2157.20</ele>
	<time>2023-08-07T14:01:09.000Z</time>
</trkpt>
<trkpt lat="46.1323670" lon="10.4539330">
	<ele>2157.20</ele>
	<time>2023-08-07T14:01:10.000Z</time>
</trkpt>
<trkpt lat="46.1323670" lon="10.4539210">
	<ele>2157.20</ele>
	<time>2023-08-07T14:01:11.000Z</time>
</trkpt>
<trkpt lat="46.1323620" lon="10.4539100">
	<ele>2157.00</ele>
	<time>2023-08-07T14:01:12.000Z</time>
</trkpt>
<trkpt lat="46.1323540" lon="10.4538960">
	<ele>2157.00</ele>
	<time>2023-08-07T14:01:13.000Z</time>
</trkpt>
<trkpt lat="46.1323500" lon="10.4538780">
	<ele>2157.00</ele>
	<time>2023-08-07T14:01:14.000Z</time>
</trkpt>
<trkpt lat="46.1323460" lon="10.4538650">
	<ele>2157.00</ele>
	<time>2023-08-07T14:01:15.000Z</time>
</trkpt>
<trkpt lat="46.1323390" lon="10.4538520">
	<ele>2157.00</ele>
	<time>2023-08-07T14:01:16.000Z</time>
</trkpt>
<trkpt lat="46.1323340" lon="10.4538370">
	<ele>2156.80</ele>
	<time>2023-08-07T14:01:17.000Z</time>
</trkpt>
<trkpt lat="46.1323310" lon="10.4538190">
	<ele>2156.80</ele>
	<time>2023-08-07T14:01:18.000Z</time>
</trkpt>
<trkpt lat="46.1323300" lon="10.4538030">
	<ele>2156.60</ele>
	<time>2023-08-07T14:01:19.000Z</time>
</trkpt>
<trkpt lat="46.1323320" lon="10.4537900">
	<ele>2156.40</ele>
	<time>2023-08-07T14:01:20.000Z</time>
</trkpt>
<trkpt lat="46.1323350" lon="10.4537800">
	<ele>2156.20</ele>
	<time>2023-08-07T14:01:21.000Z</time>
</trkpt>
<trkpt lat="46.1323370" lon="10.4537740">
	<ele>2156.20</ele>
	<time>2023-08-07T14:01:22.000Z</time>
</trkpt>
<trkpt lat="46.1323360" lon="10.4537640">
	<ele>2156.20</ele>
	<time>2023-08-07T14:01:23.000Z</time>
</trkpt>
<trkpt lat="46.1323340" lon="10.4537390">
	<ele>2156.00</ele>
	<time>2023-08-07T14:01:24.000Z</time>
</trkpt>
<trkpt lat="46.1323320" lon="10.4537200">
	<ele>2156.00</ele>
	<time>2023-08-07T14:01:25.000Z</time>
</trkpt>
<trkpt lat="46.1323300" lon="10.4537020">
	<ele>2156.00</ele>
	<time>2023-08-07T14:01:26.000Z</time>
</trkpt>
<trkpt lat="46.1323280" lon="10.4536860">
	<ele>2155.80</ele>
	<time>2023-08-07T14:01:27.000Z</time>
</trkpt>
<trkpt lat="46.1323240" lon="10.4536750">
	<ele>2156.00</ele>
	<time>2023-08-07T14:01:28.000Z</time>
</trkpt>
<trkpt lat="46.1323190" lon="10.4536650">
	<ele>2156.00</ele>
	<time>2023-08-07T14:01:29.000Z</time>
</trkpt>
<trkpt lat="46.1323150" lon="10.4536530">
	<ele>2156.00</ele>
	<time>2023-08-07T14:01:30.000Z</time>
</trkpt>
<trkpt lat="46.1323100" lon="10.4536430">
	<ele>2156.20</ele>
	<time>2023-08-07T14:01:31.000Z</time>
</trkpt>
<trkpt lat="46.1323060" lon="10.4536340">
	<ele>2156.20</ele>
	<time>2023-08-07T14:01:32.000Z</time>
</trkpt>
<trkpt lat="46.1323040" lon="10.4536230">
	<ele>2156.40</ele>
	<time>2023-08-07T14:01:33.000Z</time>
</trkpt>
<trkpt lat="46.1323020" lon="10.4536140">
	<ele>2156.40</ele>
	<time>2023-08-07T14:01:34.000Z</time>
</trkpt>
<trkpt lat="46.1322980" lon="10.4536130">
	<ele>2156.40</ele>
	<time>2023-08-07T14:01:35.000Z</time>
</trkpt>
<trkpt lat="46.1322930" lon="10.4536090">
	<ele>2156.40</ele>
	<time>2023-08-07T14:01:36.000Z</time>
</trkpt>
<trkpt lat="46.1322830" lon="10.4535960">
	<ele>2156.40</ele>
	<time>2023-08-07T14:01:37.000Z</time>
</trkpt>
<trkpt lat="46.1322730" lon="10.4535830">
	<ele>2156.20</ele>
	<time>2023-08-07T14:01:38.000Z</time>
</trkpt>
<trkpt lat="46.1322650" lon="10.4535710">
	<ele>2156.20</ele>
	<time>2023-08-07T14:01:39.000Z</time>
</trkpt>
<trkpt lat="46.1322590" lon="10.4535640">
	<ele>2156.20</ele>
	<time>2023-08-07T14:01:40.000Z</time>
</trkpt>
<trkpt lat="46.1322540" lon="10.4535550">
	<ele>2156.20</ele>
	<time>2023-08-07T14:01:41.000Z</time>
</trkpt>
<trkpt lat="46.1322500" lon="10.4535420">
	<ele>2156.20</ele>
	<time>2023-08-07T14:01:42.000Z</time>
</trkpt>
<trkpt lat="46.1322440" lon="10.4535360">
	<ele>2156.20</ele>
	<time>2023-08-07T14:01:43.000Z</time>
</trkpt>
<trkpt lat="46.1322400" lon="10.4535290">
	<ele>2156.20</ele>
	<time>2023-08-07T14:01:44.000Z</time>
</trkpt>
<trkpt lat="46.1322390" lon="10.4535210">
	<ele>2156.20</ele>
	<time>2023-08-07T14:01:45.000Z</time>
</trkpt>
<trkpt lat="46.1322320" lon="10.4535120">
	<ele>2156.20</ele>
	<time>2023-08-07T14:01:46.000Z</time>
</trkpt>
<trkpt lat="46.1322250" lon="10.4535050">
	<ele>2156.20</ele>
	<time>2023-08-07T14:01:47.000Z</time>
</trkpt>
<trkpt lat="46.1322160" lon="10.4535000">
	<ele>2156.20</ele>
	<time>2023-08-07T14:01:48.000Z</time>
</trkpt>
<trkpt lat="46.1322110" lon="10.4534950">
	<ele>2156.20</ele>
	<time>2023-08-07T14:01:49.000Z</time>
</trkpt>
<trkpt lat="46.1322110" lon="10.4534910">
	<ele>2156.20</ele>
	<time>2023-08-07T14:01:50.000Z</time>
</trkpt>
<trkpt lat="46.1322150" lon="10.4534900">
	<ele>2156.20</ele>
	<time>2023-08-07T14:01:51.000Z</time>
</trkpt>
<trkpt lat="46.1322150" lon="10.4534920">
	<ele>2156.00</ele>
	<time>2023-08-07T14:01:52.000Z</time>
</trkpt>
<trkpt lat="46.1322130" lon="10.4534900">
	<ele>2156.00</ele>
	<time>2023-08-07T14:01:53.000Z</time>
</trkpt>
<trkpt lat="46.1322080" lon="10.4534820">
	<ele>2156.00</ele>
	<time>2023-08-07T14:01:54.000Z</time>
</trkpt>
<trkpt lat="46.1321920" lon="10.4534740">
	<ele>2156.00</ele>
	<time>2023-08-07T14:01:55.000Z</time>
</trkpt>
<trkpt lat="46.1321820" lon="10.4534620">
	<ele>2156.00</ele>
	<time>2023-08-07T14:01:56.000Z</time>
</trkpt>
<trkpt lat="46.1321730" lon="10.4534560">
	<ele>2155.80</ele>
	<time>2023-08-07T14:01:57.000Z</time>
</trkpt>
<trkpt lat="46.1321600" lon="10.4534510">
	<ele>2156.00</ele>
	<time>2023-08-07T14:01:58.000Z</time>
</trkpt>
<trkpt lat="46.1321500" lon="10.4534430">
	<ele>2156.00</ele>
	<time>2023-08-07T14:01:59.000Z</time>
</trkpt>
<trkpt lat="46.1321360" lon="10.4534300">
	<ele>2156.00</ele>
	<time>2023-08-07T14:02:00.000Z</time>
</trkpt>
<trkpt lat="46.1321280" lon="10.4534160">
	<ele>2156.00</ele>
	<time>2023-08-07T14:02:01.000Z</time>
</trkpt>
<trkpt lat="46.1321200" lon="10.4534010">
	<ele>2156.00</ele>
	<time>2023-08-07T14:02:02.000Z</time>
</trkpt>
<trkpt lat="46.1321130" lon="10.4533910">
	<ele>2155.80</ele>
	<time>2023-08-07T14:02:03.000Z</time>
</trkpt>
<trkpt lat="46.1321080" lon="10.4533780">
	<ele>2155.80</ele>
	<time>2023-08-07T14:02:04.000Z</time>
</trkpt>
<trkpt lat="46.1321090" lon="10.4533720">
	<ele>2155.60</ele>
	<time>2023-08-07T14:02:05.000Z</time>
</trkpt>
<trkpt lat="46.1321010" lon="10.4533570">
	<ele>2155.60</ele>
	<time>2023-08-07T14:02:06.000Z</time>
</trkpt>
<trkpt lat="46.1320950" lon="10.4533420">
	<ele>2155.60</ele>
	<time>2023-08-07T14:02:07.000Z</time>
</trkpt>
<trkpt lat="46.1320880" lon="10.4533320">
	<ele>2155.60</ele>
	<time>2023-08-07T14:02:08.000Z</time>
</trkpt>
<trkpt lat="46.1320820" lon="10.4533230">
	<ele>2155.60</ele>
	<time>2023-08-07T14:02:09.000Z</time>
</trkpt>
<trkpt lat="46.1320770" lon="10.4533180">
	<ele>2155.60</ele>
	<time>2023-08-07T14:02:10.000Z</time>
</trkpt>
<trkpt lat="46.1320720" lon="10.4533080">
	<ele>2155.60</ele>
	<time>2023-08-07T14:02:11.000Z</time>
</trkpt>
<trkpt lat="46.1320660" lon="10.4532970">
	<ele>2155.60</ele>
	<time>2023-08-07T14:02:12.000Z</time>
</trkpt>
<trkpt lat="46.1320620" lon="10.4532930">
	<ele>2155.60</ele>
	<time>2023-08-07T14:02:13.000Z</time>
</trkpt>
<trkpt lat="46.1320580" lon="10.4532880">
	<ele>2155.80</ele>
	<time>2023-08-07T14:02:14.000Z</time>
</trkpt>
<trkpt lat="46.1320550" lon="10.4532850">
	<ele>2156.00</ele>
	<time>2023-08-07T14:02:15.000Z</time>
</trkpt>
<trkpt lat="46.1320540" lon="10.4532850">
	<ele>2156.00</ele>
	<time>2023-08-07T14:02:16.000Z</time>
</trkpt>
<trkpt lat="46.1320550" lon="10.4532860">
	<ele>2156.20</ele>
	<time>2023-08-07T14:02:17.000Z</time>
</trkpt>
<trkpt lat="46.1320560" lon="10.4532880">
	<ele>2156.20</ele>
	<time>2023-08-07T14:02:18.000Z</time>
</trkpt>
<trkpt lat="46.1320550" lon="10.4532890">
	<ele>2156.20</ele>
	<time>2023-08-07T14:02:19.000Z</time>
</trkpt>
<trkpt lat="46.1320490" lon="10.4532920">
	<ele>2156.20</ele>
	<time>2023-08-07T14:02:20.000Z</time>
</trkpt>
<trkpt lat="46.1320380" lon="10.4532940">
	<ele>2156.20</ele>
	<time>2023-08-07T14:02:21.000Z</time>
</trkpt>
<trkpt lat="46.1320280" lon="10.4532980">
	<ele>2156.20</ele>
	<time>2023-08-07T14:02:22.000Z</time>
</trkpt>
<trkpt lat="46.1320190" lon="10.4533050">
	<ele>2156.20</ele>
	<time>2023-08-07T14:02:23.000Z</time>
</trkpt>
<trkpt lat="46.1320100" lon="10.4533070">
	<ele>2156.00</ele>
	<time>2023-08-07T14:02:24.000Z</time>
</trkpt>
<trkpt lat="46.1320070" lon="10.4533080">
	<ele>2156.00</ele>
	<time>2023-08-07T14:02:25.000Z</time>
</trkpt>
<trkpt lat="46.1320050" lon="10.4533110">
	<ele>2156.00</ele>
	<time>2023-08-07T14:02:26.000Z</time>
</trkpt>
<trkpt lat="46.1320010" lon="10.4533150">
	<ele>2155.80</ele>
	<time>2023-08-07T14:02:27.000Z</time>
</trkpt>
<trkpt lat="46.1320020" lon="10.4533200">
	<ele>2155.80</ele>
	<time>2023-08-07T14:02:28.000Z</time>
</trkpt>
<trkpt lat="46.1320020" lon="10.4533290">
	<ele>2155.80</ele>
	<time>2023-08-07T14:02:29.000Z</time>
</trkpt>
<trkpt lat="46.1319990" lon="10.4533350">
	<ele>2155.60</ele>
	<time>2023-08-07T14:02:30.000Z</time>
</trkpt>
<trkpt lat="46.1319930" lon="10.4533380">
	<ele>2155.40</ele>
	<time>2023-08-07T14:02:31.000Z</time>
</trkpt>
<trkpt lat="46.1319970" lon="10.4533420">
	<ele>2155.40</ele>
	<time>2023-08-07T14:02:32.000Z</time>
</trkpt>
<trkpt lat="46.1319970" lon="10.4533520">
	<ele>2155.20</ele>
	<time>2023-08-07T14:02:33.000Z</time>
</trkpt>
<trkpt lat="46.1319920" lon="10.4533710">
	<ele>2155.20</ele>
	<time>2023-08-07T14:02:34.000Z</time>
</trkpt>
<trkpt lat="46.1319880" lon="10.4533900">
	<ele>2155.20</ele>
	<time>2023-08-07T14:02:35.000Z</time>
</trkpt>
<trkpt lat="46.1319900" lon="10.4534080">
	<ele>2155.00</ele>
	<time>2023-08-07T14:02:36.000Z</time>
</trkpt>
<trkpt lat="46.1319850" lon="10.4534310">
	<ele>2155.00</ele>
	<time>2023-08-07T14:02:37.000Z</time>
</trkpt>
<trkpt lat="46.1319840" lon="10.4534450">
	<ele>2155.00</ele>
	<time>2023-08-07T14:02:38.000Z</time>
</trkpt>
<trkpt lat="46.1319800" lon="10.4534590">
	<ele>2155.00</ele>
	<time>2023-08-07T14:02:39.000Z</time>
</trkpt>
<trkpt lat="46.1319740" lon="10.4534680">
	<ele>2155.00</ele>
	<time>2023-08-07T14:02:40.000Z</time>
</trkpt>
<trkpt lat="46.1319670" lon="10.4534790">
	<ele>2155.00</ele>
	<time>2023-08-07T14:02:41.000Z</time>
</trkpt>
<trkpt lat="46.1319560" lon="10.4534950">
	<ele>2155.00</ele>
	<time>2023-08-07T14:02:42.000Z</time>
</trkpt>
<trkpt lat="46.1319490" lon="10.4535110">
	<ele>2155.00</ele>
	<time>2023-08-07T14:02:43.000Z</time>
</trkpt>
<trkpt lat="46.1319420" lon="10.4535220">
	<ele>2155.00</ele>
	<time>2023-08-07T14:02:44.000Z</time>
</trkpt>
<trkpt lat="46.1319320" lon="10.4535320">
	<ele>2155.00</ele>
	<time>2023-08-07T14:02:45.000Z</time>
</trkpt>
<trkpt lat="46.1319250" lon="10.4535420">
	<ele>2155.00</ele>
	<time>2023-08-07T14:02:46.000Z</time>
</trkpt>
<trkpt lat="46.1319130" lon="10.4535500">
	<ele>2155.00</ele>
	<time>2023-08-07T14:02:47.000Z</time>
</trkpt>
<trkpt lat="46.1319060" lon="10.4535560">
	<ele>2155.00</ele>
	<time>2023-08-07T14:02:48.000Z</time>
</trkpt>
<trkpt lat="46.1319020" lon="10.4535610">
	<ele>2155.00</ele>
	<time>2023-08-07T14:02:49.000Z</time>
</trkpt>
<trkpt lat="46.1318970" lon="10.4535640">
	<ele>2155.00</ele>
	<time>2023-08-07T14:02:50.000Z</time>
</trkpt>
<trkpt lat="46.1318940" lon="10.4535680">
	<ele>2155.00</ele>
	<time>2023-08-07T14:02:51.000Z</time>
</trkpt>
<trkpt lat="46.1318890" lon="10.4535760">
	<ele>2155.00</ele>
	<time>2023-08-07T14:02:52.000Z</time>
</trkpt>
<trkpt lat="46.1318820" lon="10.4535930">
	<ele>2155.00</ele>
	<time>2023-08-07T14:02:53.000Z</time>
</trkpt>
<trkpt lat="46.1318800" lon="10.4536130">
	<ele>2155.00</ele>
	<time>2023-08-07T14:02:54.000Z</time>
</trkpt>
<trkpt lat="46.1318740" lon="10.4536310">
	<ele>2154.80</ele>
	<time>2023-08-07T14:02:55.000Z</time>
</trkpt>
<trkpt lat="46.1318650" lon="10.4536460">
	<ele>2154.80</ele>
	<time>2023-08-07T14:02:56.000Z</time>
</trkpt>
<trkpt lat="46.1318530" lon="10.4536550">
	<ele>2154.80</ele>
	<time>2023-08-07T14:02:57.000Z</time>
</trkpt>
<trkpt lat="46.1318420" lon="10.4536650">
	<ele>2154.80</ele>
	<time>2023-08-07T14:02:58.000Z</time>
</trkpt>
<trkpt lat="46.1318390" lon="10.4536750">
	<ele>2154.80</ele>
	<time>2023-08-07T14:02:59.000Z</time>
</trkpt>
<trkpt lat="46.1318410" lon="10.4536920">
	<ele>2154.60</ele>
	<time>2023-08-07T14:03:00.000Z</time>
</trkpt>
<trkpt lat="46.1318420" lon="10.4537050">
	<ele>2154.60</ele>
	<time>2023-08-07T14:03:01.000Z</time>
</trkpt>
<trkpt lat="46.1318410" lon="10.4537200">
	<ele>2154.60</ele>
	<time>2023-08-07T14:03:02.000Z</time>
</trkpt>
<trkpt lat="46.1318420" lon="10.4537290">
	<ele>2154.60</ele>
	<time>2023-08-07T14:03:03.000Z</time>
</trkpt>
<trkpt lat="46.1318390" lon="10.4537430">
	<ele>2154.60</ele>
	<time>2023-08-07T14:03:04.000Z</time>
</trkpt>
<trkpt lat="46.1318370" lon="10.4537570">
	<ele>2154.80</ele>
	<time>2023-08-07T14:03:05.000Z</time>
</trkpt>
<trkpt lat="46.1318330" lon="10.4537770">
	<ele>2154.80</ele>
	<time>2023-08-07T14:03:06.000Z</time>
</trkpt>
<trkpt lat="46.1318310" lon="10.4537870">
	<ele>2154.80</ele>
	<time>2023-08-07T14:03:07.000Z</time>
</trkpt>
<trkpt lat="46.1318270" lon="10.4537960">
	<ele>2154.80</ele>
	<time>2023-08-07T14:03:08.000Z</time>
</trkpt>
<trkpt lat="46.1318230" lon="10.4538070">
	<ele>2154.80</ele>
	<time>2023-08-07T14:03:09.000Z</time>
</trkpt>
<trkpt lat="46.1318190" lon="10.4538180">
	<ele>2154.80</ele>
	<time>2023-08-07T14:03:10.000Z</time>
</trkpt>
<trkpt lat="46.1318220" lon="10.4538300">
	<ele>2154.80</ele>
	<time>2023-08-07T14:03:11.000Z</time>
</trkpt>
<trkpt lat="46.1318340" lon="10.4538520">
	<ele>2154.80</ele>
	<time>2023-08-07T14:03:12.000Z</time>
</trkpt>
<trkpt lat="46.1318480" lon="10.4538650">
	<ele>2154.60</ele>
	<time>2023-08-07T14:03:13.000Z</time>
</trkpt>
<trkpt lat="46.1318490" lon="10.4538650">
	<ele>2154.80</ele>
	<time>2023-08-07T14:03:14.000Z</time>
</trkpt>
<trkpt lat="46.1318500" lon="10.4538700">
	<ele>2154.80</ele>
	<time>2023-08-07T14:03:15.000Z</time>
</trkpt>
<trkpt lat="46.1318430" lon="10.4538750">
	<ele>2154.80</ele>
	<time>2023-08-07T14:03:16.000Z</time>
</trkpt>
<trkpt lat="46.1318320" lon="10.4538820">
	<ele>2154.80</ele>
	<time>2023-08-07T14:03:17.000Z</time>
</trkpt>
<trkpt lat="46.1318170" lon="10.4538900">
	<ele>2154.80</ele>
	<time>2023-08-07T14:03:18.000Z</time>
</trkpt>
<trkpt lat="46.1318020" lon="10.4538970">
	<ele>2154.80</ele>
	<time>2023-08-07T14:03:19.000Z</time>
</trkpt>
<trkpt lat="46.1317900" lon="10.4539030">
	<ele>2154.60</ele>
	<time>2023-08-07T14:03:20.000Z</time>
</trkpt>
<trkpt lat="46.1317790" lon="10.4539100">
	<ele>2154.60</ele>
	<time>2023-08-07T14:03:21.000Z</time>
</trkpt>
<trkpt lat="46.1317680" lon="10.4539180">
	<ele>2154.60</ele>
	<time>2023-08-07T14:03:22.000Z</time>
</trkpt>
<trkpt lat="46.1317580" lon="10.4539270">
	<ele>2154.40</ele>
	<time>2023-08-07T14:03:23.000Z</time>
</trkpt>
<trkpt lat="46.1317450" lon="10.4539350">
	<ele>2154.20</ele>
	<time>2023-08-07T14:03:24.000Z</time>
</trkpt>
<trkpt lat="46.1317350" lon="10.4539380">
	<ele>2154.20</ele>
	<time>2023-08-07T14:03:25.000Z</time>
</trkpt>
<trkpt lat="46.1317320" lon="10.4539400">
	<ele>2154.00</ele>
	<time>2023-08-07T14:03:26.000Z</time>
</trkpt>
<trkpt lat="46.1317220" lon="10.4539460">
	<ele>2154.00</ele>
	<time>2023-08-07T14:03:27.000Z</time>
</trkpt>
<trkpt lat="46.1317130" lon="10.4539460">
	<ele>2154.00</ele>
	<time>2023-08-07T14:03:28.000Z</time>
</trkpt>
<trkpt lat="46.1317030" lon="10.4539480">
	<ele>2153.80</ele>
	<time>2023-08-07T14:03:29.000Z</time>
</trkpt>
<trkpt lat="46.1316890" lon="10.4539510">
	<ele>2153.80</ele>
	<time>2023-08-07T14:03:30.000Z</time>
</trkpt>
<trkpt lat="46.1316840" lon="10.4539570">
	<ele>2153.80</ele>
	<time>2023-08-07T14:03:31.000Z</time>
</trkpt>
<trkpt lat="46.1316630" lon="10.4539580">
	<ele>2153.60</ele>
	<time>2023-08-07T14:03:32.000Z</time>
</trkpt>
<trkpt lat="46.1316450" lon="10.4539550">
	<ele>2153.60</ele>
	<time>2023-08-07T14:03:33.000Z</time>
</trkpt>
<trkpt lat="46.1316330" lon="10.4539480">
	<ele>2153.40</ele>
	<time>2023-08-07T14:03:34.000Z</time>
</trkpt>
<trkpt lat="46.1316260" lon="10.4539420">
	<ele>2153.40</ele>
	<time>2023-08-07T14:03:35.000Z</time>
</trkpt>
<trkpt lat="46.1316110" lon="10.4539430">
	<ele>2153.20</ele>
	<time>2023-08-07T14:03:36.000Z</time>
</trkpt>
<trkpt lat="46.1315940" lon="10.4539490">
	<ele>2153.00</ele>
	<time>2023-08-07T14:03:37.000Z</time>
</trkpt>
<trkpt lat="46.1315810" lon="10.4539520">
	<ele>2153.00</ele>
	<time>2023-08-07T14:03:38.000Z</time>
</trkpt>
<trkpt lat="46.1315790" lon="10.4539540">
	<ele>2153.00</ele>
	<time>2023-08-07T14:03:39.000Z</time>
</trkpt>
<trkpt lat="46.1315780" lon="10.4539520">
	<ele>2153.00</ele>
	<time>2023-08-07T14:03:40.000Z</time>
</trkpt>
<trkpt lat="46.1315770" lon="10.4539490">
	<ele>2153.00</ele>
	<time>2023-08-07T14:03:41.000Z</time>
</trkpt>
<trkpt lat="46.1315700" lon="10.4539500">
	<ele>2152.80</ele>
	<time>2023-08-07T14:03:42.000Z</time>
</trkpt>
<trkpt lat="46.1315620" lon="10.4539480">
	<ele>2152.80</ele>
	<time>2023-08-07T14:03:43.000Z</time>
</trkpt>
<trkpt lat="46.1315530" lon="10.4539440">
	<ele>2152.80</ele>
	<time>2023-08-07T14:03:44.000Z</time>
</trkpt>
<trkpt lat="46.1315410" lon="10.4539370">
	<ele>2152.80</ele>
	<time>2023-08-07T14:03:45.000Z</time>
</trkpt>
<trkpt lat="46.1315240" lon="10.4539330">
	<ele>2152.80</ele>
	<time>2023-08-07T14:03:46.000Z</time>
</trkpt>
<trkpt lat="46.1315110" lon="10.4539360">
	<ele>2152.80</ele>
	<time>2023-08-07T14:03:47.000Z</time>
</trkpt>
<trkpt lat="46.1315000" lon="10.4539400">
	<ele>2152.80</ele>
	<time>2023-08-07T14:03:48.000Z</time>
</trkpt>
<trkpt lat="46.1314830" lon="10.4539410">
	<ele>2152.80</ele>
	<time>2023-08-07T14:03:49.000Z</time>
</trkpt>
<trkpt lat="46.1314720" lon="10.4539400">
	<ele>2152.80</ele>
	<time>2023-08-07T14:03:50.000Z</time>
</trkpt>
<trkpt lat="46.1314590" lon="10.4539440">
	<ele>2152.80</ele>
	<time>2023-08-07T14:03:51.000Z</time>
</trkpt>
<trkpt lat="46.1314460" lon="10.4539410">
	<ele>2152.80</ele>
	<time>2023-08-07T14:03:52.000Z</time>
</trkpt>
<trkpt lat="46.1314350" lon="10.4539410">
	<ele>2152.60</ele>
	<time>2023-08-07T14:03:53.000Z</time>
</trkpt>
<trkpt lat="46.1314240" lon="10.4539450">
	<ele>2152.60</ele>
	<time>2023-08-07T14:03:54.000Z</time>
</trkpt>
<trkpt lat="46.1314050" lon="10.4539560">
	<ele>2152.60</ele>
	<time>2023-08-07T14:03:55.000Z</time>
</trkpt>
<trkpt lat="46.1313860" lon="10.4539640">
	<ele>2152.60</ele>
	<time>2023-08-07T14:03:56.000Z</time>
</trkpt>
<trkpt lat="46.1313670" lon="10.4539710">
	<ele>2152.60</ele>
	<time>2023-08-07T14:03:57.000Z</time>
</trkpt>
<trkpt lat="46.1313630" lon="10.4539800">
	<ele>2152.60</ele>
	<time>2023-08-07T14:03:58.000Z</time>
</trkpt>
<trkpt lat="46.1313530" lon="10.4539890">
	<ele>2152.60</ele>
	<time>2023-08-07T14:03:59.000Z</time>
</trkpt>
<trkpt lat="46.1313520" lon="10.4539990">
	<ele>2152.60</ele>
	<time>2023-08-07T14:04:00.000Z</time>
</trkpt>
<trkpt lat="46.1313500" lon="10.4540060">
	<ele>2152.60</ele>
	<time>2023-08-07T14:04:01.000Z</time>
</trkpt>
<trkpt lat="46.1313460" lon="10.4540100">
	<ele>2152.60</ele>
	<time>2023-08-07T14:04:02.000Z</time>
</trkpt>
<trkpt lat="46.1313370" lon="10.4540090">
	<ele>2152.60</ele>
	<time>2023-08-07T14:04:03.000Z</time>
</trkpt>
<trkpt lat="46.1313330" lon="10.4540120">
	<ele>2152.60</ele>
	<time>2023-08-07T14:04:04.000Z</time>
</trkpt>
<trkpt lat="46.1313310" lon="10.4540160">
	<ele>2152.40</ele>
	<time>2023-08-07T14:04:05.000Z</time>
</trkpt>
<trkpt lat="46.1313320" lon="10.4540230">
	<ele>2152.40</ele>
	<time>2023-08-07T14:04:06.000Z</time>
</trkpt>
<trkpt lat="46.1313370" lon="10.4540260">
	<ele>2152.40</ele>
	<time>2023-08-07T14:04:07.000Z</time>
</trkpt>
<trkpt lat="46.1313360" lon="10.4540270">
	<ele>2152.40</ele>
	<time>2023-08-07T14:04:08.000Z</time>
</trkpt>
<trkpt lat="46.1313390" lon="10.4540270">
	<ele>2152.40</ele>
	<time>2023-08-07T14:04:09.000Z</time>
</trkpt>
<trkpt lat="46.1313410" lon="10.4540260">
	<ele>2152.40</ele>
	<time>2023-08-07T14:04:10.000Z</time>
</trkpt>
<trkpt lat="46.1313390" lon="10.4540260">
	<ele>2152.40</ele>
	<time>2023-08-07T14:04:11.000Z</time>
</trkpt>
<trkpt lat="46.1313290" lon="10.4540210">
	<ele>2152.40</ele>
	<time>2023-08-07T14:04:12.000Z</time>
</trkpt>
<trkpt lat="46.1313240" lon="10.4540180">
	<ele>2152.40</ele>
	<time>2023-08-07T14:04:13.000Z</time>
</trkpt>
<trkpt lat="46.1313220" lon="10.4540160">
	<ele>2152.40</ele>
	<time>2023-08-07T14:04:14.000Z</time>
</trkpt>
<trkpt lat="46.1313150" lon="10.4540070">
	<ele>2152.60</ele>
	<time>2023-08-07T14:04:15.000Z</time>
</trkpt>
<trkpt lat="46.1313020" lon="10.4540010">
	<ele>2152.60</ele>
	<time>2023-08-07T14:04:16.000Z</time>
</trkpt>
<trkpt lat="46.1312930" lon="10.4539980">
	<ele>2152.60</ele>
	<time>2023-08-07T14:04:17.000Z</time>
</trkpt>
<trkpt lat="46.1312820" lon="10.4539950">
	<ele>2152.60</ele>
	<time>2023-08-07T14:04:18.000Z</time>
</trkpt>
<trkpt lat="46.1312760" lon="10.4539960">
	<ele>2152.80</ele>
	<time>2023-08-07T14:04:19.000Z</time>
</trkpt>
<trkpt lat="46.1312690" lon="10.4539940">
	<ele>2153.00</ele>
	<time>2023-08-07T14:04:20.000Z</time>
</trkpt>
<trkpt lat="46.1312620" lon="10.4539920">
	<ele>2153.00</ele>
	<time>2023-08-07T14:04:21.000Z</time>
</trkpt>
<trkpt lat="46.1312580" lon="10.4539850">
	<ele>2153.00</ele>
	<time>2023-08-07T14:04:22.000Z</time>
</trkpt>
<trkpt lat="46.1312490" lon="10.4539850">
	<ele>2153.20</ele>
	<time>2023-08-07T14:04:23.000Z</time>
</trkpt>
<trkpt lat="46.1312410" lon="10.4539900">
	<ele>2153.20</ele>
	<time>2023-08-07T14:04:24.000Z</time>
</trkpt>
<trkpt lat="46.1312310" lon="10.4540040">
	<ele>2153.20</ele>
	<time>2023-08-07T14:04:25.000Z</time>
</trkpt>
</trkseg>
</trk>
</gpx>
